<?xml version="1.0" encoding="UTF-8"?>
<gpx version="1.1" creator="https://www.youtrack.es" xsi:schemaLocation="http://www.topografix.com/GPX/1/1 http://www.topografix.com/GPX/1/1/gpx.xsd http://www.garmin.com/xmlschemas/GpxExtensions/v3 http://www.garmin.com/xmlschemas/GpxExtensionsv3.xsd http://www.garmin.com/xmlschemas/TrackPointExtension/v1 http://www.garmin.com/xmlschemas/TrackPointExtensionv1.xsd" xmlns:gpxtpx="http://www.garmin.com/xmlschemas/TrackPointExtension/v1" xmlns:gpxx="http://www.garmin.com/xmlschemas/GpxExtensions/v3" xmlns:xsi="http://www.w3.org/2001/XMLSchema-instance">
  <metadata>
    <link href="https://www.youtrack.es">
      <text>YouTrack.es</text>
    </link>
    <time>2026-05-08T04:47:11Z</time>
  </metadata>
  <trk>
    <src>https://www.youtrack.es</src>
    <link href="https://www.youtrack.es/ruta/27159-rivasmurcia">
      <text>YouTrack.es</text>
    </link>
    <trkseg>
      <trkpt lat="40.342469" lon="-3.512357">
        <ele>612.232447</ele>
        <time>2021-10-27T12:58:51.000Z</time>
      </trkpt>
      <trkpt lat="40.342739" lon="-3.512656">
        <ele>612.232447</ele>
        <time>2021-10-27T12:58:52.000Z</time>
      </trkpt>
      <trkpt lat="40.343278" lon="-3.513202">
        <ele>612.182847</ele>
        <time>2021-10-27T12:58:54.000Z</time>
      </trkpt>
      <trkpt lat="40.343749" lon="-3.513695">
        <ele>611.961409</ele>
        <time>2021-10-27T12:58:55.000Z</time>
      </trkpt>
      <trkpt lat="40.344827" lon="-3.514874">
        <ele>610.835817</ele>
        <time>2021-10-27T12:58:55.000Z</time>
      </trkpt>
      <trkpt lat="40.344464" lon="-3.515507">
        <ele>609.538142</ele>
        <time>2021-10-27T12:58:56.000Z</time>
      </trkpt>
      <trkpt lat="40.344544" lon="-3.515789">
        <ele>609.045224</ele>
        <time>2021-10-27T12:58:57.000Z</time>
      </trkpt>
      <trkpt lat="40.344477" lon="-3.516000">
        <ele>608.670779</ele>
        <time>2021-10-27T12:59:00.000Z</time>
      </trkpt>
      <trkpt lat="40.344275" lon="-3.516123">
        <ele>608.192139</ele>
        <time>2021-10-27T12:59:02.000Z</time>
      </trkpt>
      <trkpt lat="40.344113" lon="-3.515912">
        <ele>607.702520</ele>
        <time>2021-10-27T12:59:03.000Z</time>
      </trkpt>
      <trkpt lat="40.343736" lon="-3.515595">
        <ele>606.979394</ele>
        <time>2021-10-27T12:59:05.000Z</time>
      </trkpt>
      <trkpt lat="40.343035" lon="-3.515243">
        <ele>605.767253</ele>
        <time>2021-10-27T12:59:07.000Z</time>
      </trkpt>
      <trkpt lat="40.342103" lon="-3.514684">
        <ele>603.823184</ele>
        <time>2021-10-27T12:59:13.000Z</time>
      </trkpt>
      <trkpt lat="40.342001" lon="-3.514717">
        <ele>603.582283</ele>
        <time>2021-10-27T12:59:15.000Z</time>
      </trkpt>
      <trkpt lat="40.341904" lon="-3.514654">
        <ele>603.334092</ele>
        <time>2021-10-27T12:59:17.000Z</time>
      </trkpt>
      <trkpt lat="40.341857" lon="-3.514610">
        <ele>603.201694</ele>
        <time>2021-10-27T12:59:18.000Z</time>
      </trkpt>
      <trkpt lat="40.341805" lon="-3.514567">
        <ele>603.060746</ele>
        <time>2021-10-27T12:59:19.000Z</time>
      </trkpt>
      <trkpt lat="40.341566" lon="-3.514440">
        <ele>602.469455</ele>
        <time>2021-10-27T12:59:23.000Z</time>
      </trkpt>
      <trkpt lat="40.341382" lon="-3.514347">
        <ele>602.017301</ele>
        <time>2021-10-27T12:59:26.000Z</time>
      </trkpt>
      <trkpt lat="40.341322" lon="-3.514313">
        <ele>601.867432</ele>
        <time>2021-10-27T12:59:27.000Z</time>
      </trkpt>
      <trkpt lat="40.341141" lon="-3.514204">
        <ele>601.410750</ele>
        <time>2021-10-27T12:59:30.000Z</time>
      </trkpt>
      <trkpt lat="40.341085" lon="-3.514167">
        <ele>601.266973</ele>
        <time>2021-10-27T12:59:31.000Z</time>
      </trkpt>
      <trkpt lat="40.341028" lon="-3.514132">
        <ele>601.122660</ele>
        <time>2021-10-27T12:59:32.000Z</time>
      </trkpt>
      <trkpt lat="40.340844" lon="-3.514028">
        <ele>600.662007</ele>
        <time>2021-10-27T12:59:35.000Z</time>
      </trkpt>
      <trkpt lat="40.340783" lon="-3.513991">
        <ele>600.493458</ele>
        <time>2021-10-27T12:59:36.000Z</time>
      </trkpt>
      <trkpt lat="40.340721" lon="-3.513953">
        <ele>600.321829</ele>
        <time>2021-10-27T12:59:37.000Z</time>
      </trkpt>
      <trkpt lat="40.340658" lon="-3.513918">
        <ele>600.150241</ele>
        <time>2021-10-27T12:59:38.000Z</time>
      </trkpt>
      <trkpt lat="40.340594" lon="-3.513883">
        <ele>599.976341</ele>
        <time>2021-10-27T12:59:39.000Z</time>
      </trkpt>
      <trkpt lat="40.340531" lon="-3.513851">
        <ele>599.806906</ele>
        <time>2021-10-27T12:59:40.000Z</time>
      </trkpt>
      <trkpt lat="40.340468" lon="-3.513817">
        <ele>599.636054</ele>
        <time>2021-10-27T12:59:41.000Z</time>
      </trkpt>
      <trkpt lat="40.340405" lon="-3.513785">
        <ele>599.466620</ele>
        <time>2021-10-27T12:59:42.000Z</time>
      </trkpt>
      <trkpt lat="40.340342" lon="-3.513755">
        <ele>599.298528</ele>
        <time>2021-10-27T12:59:43.000Z</time>
      </trkpt>
      <trkpt lat="40.340079" lon="-3.513631">
        <ele>598.597615</ele>
        <time>2021-10-27T12:59:47.000Z</time>
      </trkpt>
      <trkpt lat="40.340010" lon="-3.513598">
        <ele>598.413421</ele>
        <time>2021-10-27T12:59:48.000Z</time>
      </trkpt>
      <trkpt lat="40.339869" lon="-3.513533">
        <ele>598.038593</ele>
        <time>2021-10-27T12:59:50.000Z</time>
      </trkpt>
      <trkpt lat="40.339664" lon="-3.513439">
        <ele>597.493948</ele>
        <time>2021-10-27T12:59:53.000Z</time>
      </trkpt>
      <trkpt lat="40.339597" lon="-3.513415">
        <ele>597.319759</ele>
        <time>2021-10-27T12:59:54.000Z</time>
      </trkpt>
      <trkpt lat="40.339464" lon="-3.513370">
        <ele>596.975277</ele>
        <time>2021-10-27T12:59:56.000Z</time>
      </trkpt>
      <trkpt lat="40.339325" lon="-3.513313">
        <ele>596.610028</ele>
        <time>2021-10-27T12:59:58.000Z</time>
      </trkpt>
      <trkpt lat="40.339186" lon="-3.513264">
        <ele>596.249046</ele>
        <time>2021-10-27T13:00:00.000Z</time>
      </trkpt>
      <trkpt lat="40.339116" lon="-3.513238">
        <ele>596.058944</ele>
        <time>2021-10-27T13:00:01.000Z</time>
      </trkpt>
      <trkpt lat="40.338683" lon="-3.513139">
        <ele>594.871364</ele>
        <time>2021-10-27T13:00:07.000Z</time>
      </trkpt>
      <trkpt lat="40.338611" lon="-3.513128">
        <ele>594.675509</ele>
        <time>2021-10-27T13:00:08.000Z</time>
      </trkpt>
      <trkpt lat="40.338310" lon="-3.513080">
        <ele>593.856235</ele>
        <time>2021-10-27T13:00:12.000Z</time>
      </trkpt>
      <trkpt lat="40.338083" lon="-3.513052">
        <ele>593.240186</ele>
        <time>2021-10-27T13:00:15.000Z</time>
      </trkpt>
      <trkpt lat="40.337780" lon="-3.513022">
        <ele>592.419166</ele>
        <time>2021-10-27T13:00:19.000Z</time>
      </trkpt>
      <trkpt lat="40.337555" lon="-3.513016">
        <ele>591.811101</ele>
        <time>2021-10-27T13:00:22.000Z</time>
      </trkpt>
      <trkpt lat="40.337175" lon="-3.512993">
        <ele>590.904518</ele>
        <time>2021-10-27T13:00:27.000Z</time>
      </trkpt>
      <trkpt lat="40.337019" lon="-3.512969">
        <ele>590.578654</ele>
        <time>2021-10-27T13:00:29.000Z</time>
      </trkpt>
      <trkpt lat="40.336942" lon="-3.512956">
        <ele>590.417588</ele>
        <time>2021-10-27T13:00:30.000Z</time>
      </trkpt>
      <trkpt lat="40.336574" lon="-3.512875">
        <ele>589.643443</ele>
        <time>2021-10-27T13:00:35.000Z</time>
      </trkpt>
      <trkpt lat="40.336502" lon="-3.512861">
        <ele>589.492436</ele>
        <time>2021-10-27T13:00:36.000Z</time>
      </trkpt>
      <trkpt lat="40.336429" lon="-3.512845">
        <ele>589.338887</ele>
        <time>2021-10-27T13:00:37.000Z</time>
      </trkpt>
      <trkpt lat="40.336289" lon="-3.512805">
        <ele>589.041627</ele>
        <time>2021-10-27T13:00:39.000Z</time>
      </trkpt>
      <trkpt lat="40.336154" lon="-3.512774">
        <ele>588.757291</ele>
        <time>2021-10-27T13:00:41.000Z</time>
      </trkpt>
      <trkpt lat="40.336088" lon="-3.512765">
        <ele>588.619626</ele>
        <time>2021-10-27T13:00:42.000Z</time>
      </trkpt>
      <trkpt lat="40.336026" lon="-3.512746">
        <ele>588.487534</ele>
        <time>2021-10-27T13:00:43.000Z</time>
      </trkpt>
      <trkpt lat="40.335908" lon="-3.512685">
        <ele>588.224404</ele>
        <time>2021-10-27T13:00:45.000Z</time>
      </trkpt>
      <trkpt lat="40.335845" lon="-3.512659">
        <ele>588.087386</ele>
        <time>2021-10-27T13:00:46.000Z</time>
      </trkpt>
      <trkpt lat="40.335527" lon="-3.512541">
        <ele>587.477527</ele>
        <time>2021-10-27T13:00:51.000Z</time>
      </trkpt>
      <trkpt lat="40.335403" lon="-3.512491">
        <ele>587.326804</ele>
        <time>2021-10-27T13:00:53.000Z</time>
      </trkpt>
      <trkpt lat="40.335342" lon="-3.512464">
        <ele>587.252005</ele>
        <time>2021-10-27T13:00:54.000Z</time>
      </trkpt>
      <trkpt lat="40.334978" lon="-3.512281">
        <ele>586.799094</ele>
        <time>2021-10-27T13:01:00.000Z</time>
      </trkpt>
      <trkpt lat="40.334797" lon="-3.512181">
        <ele>586.570908</ele>
        <time>2021-10-27T13:01:03.000Z</time>
      </trkpt>
      <trkpt lat="40.334613" lon="-3.512066">
        <ele>586.334102</ele>
        <time>2021-10-27T13:01:06.000Z</time>
      </trkpt>
      <trkpt lat="40.334310" lon="-3.511886">
        <ele>585.947644</ele>
        <time>2021-10-27T13:01:11.000Z</time>
      </trkpt>
      <trkpt lat="40.333937" lon="-3.511665">
        <ele>585.489900</ele>
        <time>2021-10-27T13:01:17.000Z</time>
      </trkpt>
      <trkpt lat="40.333815" lon="-3.511594">
        <ele>585.563289</ele>
        <time>2021-10-27T13:01:19.000Z</time>
      </trkpt>
      <trkpt lat="40.333478" lon="-3.511397">
        <ele>585.766161</ele>
        <time>2021-10-27T13:01:25.000Z</time>
      </trkpt>
      <trkpt lat="40.333102" lon="-3.511178">
        <ele>585.992375</ele>
        <time>2021-10-27T13:01:32.000Z</time>
      </trkpt>
      <trkpt lat="40.332943" lon="-3.511084">
        <ele>586.088273</ele>
        <time>2021-10-27T13:01:35.000Z</time>
      </trkpt>
      <trkpt lat="40.332620" lon="-3.510895">
        <ele>586.282748</ele>
        <time>2021-10-27T13:01:41.000Z</time>
      </trkpt>
      <trkpt lat="40.332347" lon="-3.510738">
        <ele>586.446655</ele>
        <time>2021-10-27T13:01:46.000Z</time>
      </trkpt>
      <trkpt lat="40.332181" lon="-3.510640">
        <ele>585.984880</ele>
        <time>2021-10-27T13:01:49.000Z</time>
      </trkpt>
      <trkpt lat="40.332123" lon="-3.510607">
        <ele>585.754050</ele>
        <time>2021-10-27T13:01:50.000Z</time>
      </trkpt>
      <trkpt lat="40.332006" lon="-3.510534">
        <ele>585.281002</ele>
        <time>2021-10-27T13:01:52.000Z</time>
      </trkpt>
      <trkpt lat="40.331881" lon="-3.510459">
        <ele>584.779128</ele>
        <time>2021-10-27T13:01:54.000Z</time>
      </trkpt>
      <trkpt lat="40.331751" lon="-3.510383">
        <ele>584.259470</ele>
        <time>2021-10-27T13:01:56.000Z</time>
      </trkpt>
      <trkpt lat="40.331618" lon="-3.510303">
        <ele>583.725245</ele>
        <time>2021-10-27T13:01:58.000Z</time>
      </trkpt>
      <trkpt lat="40.331414" lon="-3.510177">
        <ele>582.901968</ele>
        <time>2021-10-27T13:02:01.000Z</time>
      </trkpt>
      <trkpt lat="40.331266" lon="-3.510193">
        <ele>582.359759</ele>
        <time>2021-10-27T13:02:03.000Z</time>
      </trkpt>
      <trkpt lat="40.331154" lon="-3.510299">
        <ele>581.855503</ele>
        <time>2021-10-27T13:02:05.000Z</time>
      </trkpt>
      <trkpt lat="40.331118" lon="-3.510379">
        <ele>581.596932</ele>
        <time>2021-10-27T13:02:06.000Z</time>
      </trkpt>
      <trkpt lat="40.331097" lon="-3.510466">
        <ele>581.342930</ele>
        <time>2021-10-27T13:02:07.000Z</time>
      </trkpt>
      <trkpt lat="40.331028" lon="-3.510739">
        <ele>580.542394</ele>
        <time>2021-10-27T13:02:10.000Z</time>
      </trkpt>
      <trkpt lat="40.330933" lon="-3.511023">
        <ele>579.701209</ele>
        <time>2021-10-27T13:02:13.000Z</time>
      </trkpt>
      <trkpt lat="40.330865" lon="-3.511223">
        <ele>579.150916</ele>
        <time>2021-10-27T13:02:15.000Z</time>
      </trkpt>
      <trkpt lat="40.330829" lon="-3.511324">
        <ele>578.870744</ele>
        <time>2021-10-27T13:02:16.000Z</time>
      </trkpt>
      <trkpt lat="40.330793" lon="-3.511423">
        <ele>578.595117</ele>
        <time>2021-10-27T13:02:17.000Z</time>
      </trkpt>
      <trkpt lat="40.330730" lon="-3.511621">
        <ele>578.055969</ele>
        <time>2021-10-27T13:02:19.000Z</time>
      </trkpt>
      <trkpt lat="40.330633" lon="-3.511924">
        <ele>577.230157</ele>
        <time>2021-10-27T13:02:22.000Z</time>
      </trkpt>
      <trkpt lat="40.330596" lon="-3.512028">
        <ele>576.941759</ele>
        <time>2021-10-27T13:02:23.000Z</time>
      </trkpt>
      <trkpt lat="40.330514" lon="-3.512236">
        <ele>576.353325</ele>
        <time>2021-10-27T13:02:25.000Z</time>
      </trkpt>
      <trkpt lat="40.330477" lon="-3.512336">
        <ele>576.074003</ele>
        <time>2021-10-27T13:02:26.000Z</time>
      </trkpt>
      <trkpt lat="40.330384" lon="-3.512618">
        <ele>575.301904</ele>
        <time>2021-10-27T13:02:29.000Z</time>
      </trkpt>
      <trkpt lat="40.330295" lon="-3.512872">
        <ele>574.599437</ele>
        <time>2021-10-27T13:02:33.000Z</time>
      </trkpt>
      <trkpt lat="40.330253" lon="-3.512998">
        <ele>574.253868</ele>
        <time>2021-10-27T13:02:36.000Z</time>
      </trkpt>
      <trkpt lat="40.330234" lon="-3.513054">
        <ele>574.099838</ele>
        <time>2021-10-27T13:02:37.000Z</time>
      </trkpt>
      <trkpt lat="40.330228" lon="-3.513120">
        <ele>573.899617</ele>
        <time>2021-10-27T13:02:38.000Z</time>
      </trkpt>
      <trkpt lat="40.330231" lon="-3.513259">
        <ele>573.288126</ele>
        <time>2021-10-27T13:02:40.000Z</time>
      </trkpt>
      <trkpt lat="40.330219" lon="-3.513327">
        <ele>572.981192</ele>
        <time>2021-10-27T13:02:41.000Z</time>
      </trkpt>
      <trkpt lat="40.330196" lon="-3.513391">
        <ele>572.670050</ele>
        <time>2021-10-27T13:02:42.000Z</time>
      </trkpt>
      <trkpt lat="40.330165" lon="-3.513448">
        <ele>572.362145</ele>
        <time>2021-10-27T13:02:43.000Z</time>
      </trkpt>
      <trkpt lat="40.330093" lon="-3.513559">
        <ele>571.721241</ele>
        <time>2021-10-27T13:02:45.000Z</time>
      </trkpt>
      <trkpt lat="40.330042" lon="-3.513697">
        <ele>571.046841</ele>
        <time>2021-10-27T13:02:47.000Z</time>
      </trkpt>
      <trkpt lat="40.329990" lon="-3.513856">
        <ele>570.286017</ele>
        <time>2021-10-27T13:02:49.000Z</time>
      </trkpt>
      <trkpt lat="40.329896" lon="-3.514136">
        <ele>568.940617</ele>
        <time>2021-10-27T13:02:52.000Z</time>
      </trkpt>
      <trkpt lat="40.329823" lon="-3.514345">
        <ele>567.929668</ele>
        <time>2021-10-27T13:02:54.000Z</time>
      </trkpt>
      <trkpt lat="40.329748" lon="-3.514564">
        <ele>566.873905</ele>
        <time>2021-10-27T13:02:56.000Z</time>
      </trkpt>
      <trkpt lat="40.329711" lon="-3.514676">
        <ele>566.337129</ele>
        <time>2021-10-27T13:02:57.000Z</time>
      </trkpt>
      <trkpt lat="40.329631" lon="-3.514902">
        <ele>565.241380</ele>
        <time>2021-10-27T13:02:59.000Z</time>
      </trkpt>
      <trkpt lat="40.329591" lon="-3.515018">
        <ele>564.681513</ele>
        <time>2021-10-27T13:03:00.000Z</time>
      </trkpt>
      <trkpt lat="40.329552" lon="-3.515136">
        <ele>564.115939</ele>
        <time>2021-10-27T13:03:01.000Z</time>
      </trkpt>
      <trkpt lat="40.329512" lon="-3.515252">
        <ele>563.576148</ele>
        <time>2021-10-27T13:03:02.000Z</time>
      </trkpt>
      <trkpt lat="40.329443" lon="-3.515459">
        <ele>563.020090</ele>
        <time>2021-10-27T13:03:04.000Z</time>
      </trkpt>
      <trkpt lat="40.329410" lon="-3.515559">
        <ele>562.751893</ele>
        <time>2021-10-27T13:03:05.000Z</time>
      </trkpt>
      <trkpt lat="40.329338" lon="-3.515755">
        <ele>562.216397</ele>
        <time>2021-10-27T13:03:07.000Z</time>
      </trkpt>
      <trkpt lat="40.329283" lon="-3.515926">
        <ele>561.759593</ele>
        <time>2021-10-27T13:03:09.000Z</time>
      </trkpt>
      <trkpt lat="40.329229" lon="-3.516099">
        <ele>561.299482</ele>
        <time>2021-10-27T13:03:11.000Z</time>
      </trkpt>
      <trkpt lat="40.329172" lon="-3.516273">
        <ele>560.833354</ele>
        <time>2021-10-27T13:03:13.000Z</time>
      </trkpt>
      <trkpt lat="40.328967" lon="-3.516871">
        <ele>559.219541</ele>
        <time>2021-10-27T13:03:20.000Z</time>
      </trkpt>
      <trkpt lat="40.328937" lon="-3.516954">
        <ele>558.993455</ele>
        <time>2021-10-27T13:03:21.000Z</time>
      </trkpt>
      <trkpt lat="40.328821" lon="-3.517285">
        <ele>558.096808</ele>
        <time>2021-10-27T13:03:25.000Z</time>
      </trkpt>
      <trkpt lat="40.328733" lon="-3.517546">
        <ele>557.048166</ele>
        <time>2021-10-27T13:03:28.000Z</time>
      </trkpt>
      <trkpt lat="40.328629" lon="-3.517845">
        <ele>555.539464</ele>
        <time>2021-10-27T13:03:31.000Z</time>
      </trkpt>
      <trkpt lat="40.328557" lon="-3.518071">
        <ele>554.415042</ele>
        <time>2021-10-27T13:03:33.000Z</time>
      </trkpt>
      <trkpt lat="40.328477" lon="-3.518302">
        <ele>553.250322</ele>
        <time>2021-10-27T13:03:35.000Z</time>
      </trkpt>
      <trkpt lat="40.328434" lon="-3.518421">
        <ele>552.645781</ele>
        <time>2021-10-27T13:03:36.000Z</time>
      </trkpt>
      <trkpt lat="40.328393" lon="-3.518542">
        <ele>552.037922</ele>
        <time>2021-10-27T13:03:37.000Z</time>
      </trkpt>
      <trkpt lat="40.328352" lon="-3.518664">
        <ele>551.425865</ele>
        <time>2021-10-27T13:03:38.000Z</time>
      </trkpt>
      <trkpt lat="40.328312" lon="-3.518786">
        <ele>550.816211</ele>
        <time>2021-10-27T13:03:39.000Z</time>
      </trkpt>
      <trkpt lat="40.328274" lon="-3.518903">
        <ele>550.232398</ele>
        <time>2021-10-27T13:03:40.000Z</time>
      </trkpt>
      <trkpt lat="40.328203" lon="-3.519115">
        <ele>549.169418</ele>
        <time>2021-10-27T13:03:42.000Z</time>
      </trkpt>
      <trkpt lat="40.328174" lon="-3.519208">
        <ele>548.708156</ele>
        <time>2021-10-27T13:03:43.000Z</time>
      </trkpt>
      <trkpt lat="40.328109" lon="-3.519407">
        <ele>547.714303</ele>
        <time>2021-10-27T13:03:46.000Z</time>
      </trkpt>
      <trkpt lat="40.328104" lon="-3.519497">
        <ele>547.300052</ele>
        <time>2021-10-27T13:03:48.000Z</time>
      </trkpt>
      <trkpt lat="40.328119" lon="-3.519544">
        <ele>547.066148</ele>
        <time>2021-10-27T13:03:49.000Z</time>
      </trkpt>
      <trkpt lat="40.328135" lon="-3.519598">
        <ele>546.891308</ele>
        <time>2021-10-27T13:03:50.000Z</time>
      </trkpt>
      <trkpt lat="40.328138" lon="-3.519737">
        <ele>546.608555</ele>
        <time>2021-10-27T13:03:52.000Z</time>
      </trkpt>
      <trkpt lat="40.328117" lon="-3.519811">
        <ele>546.447998</ele>
        <time>2021-10-27T13:03:53.000Z</time>
      </trkpt>
      <trkpt lat="40.328083" lon="-3.519880">
        <ele>546.280938</ele>
        <time>2021-10-27T13:03:54.000Z</time>
      </trkpt>
      <trkpt lat="40.328040" lon="-3.519953">
        <ele>546.093354</ele>
        <time>2021-10-27T13:03:55.000Z</time>
      </trkpt>
      <trkpt lat="40.327990" lon="-3.520027">
        <ele>545.892290</ele>
        <time>2021-10-27T13:03:56.000Z</time>
      </trkpt>
      <trkpt lat="40.327933" lon="-3.520104">
        <ele>545.674050</ele>
        <time>2021-10-27T13:03:57.000Z</time>
      </trkpt>
      <trkpt lat="40.327877" lon="-3.520187">
        <ele>545.448675</ele>
        <time>2021-10-27T13:03:58.000Z</time>
      </trkpt>
      <trkpt lat="40.327823" lon="-3.520270">
        <ele>545.226800</ele>
        <time>2021-10-27T13:03:59.000Z</time>
      </trkpt>
      <trkpt lat="40.327709" lon="-3.520435">
        <ele>544.774005</ele>
        <time>2021-10-27T13:04:01.000Z</time>
      </trkpt>
      <trkpt lat="40.327661" lon="-3.520518">
        <ele>544.562167</ele>
        <time>2021-10-27T13:04:02.000Z</time>
      </trkpt>
      <trkpt lat="40.327568" lon="-3.520663">
        <ele>544.176859</ele>
        <time>2021-10-27T13:04:04.000Z</time>
      </trkpt>
      <trkpt lat="40.327511" lon="-3.520697">
        <ele>544.009844</ele>
        <time>2021-10-27T13:04:05.000Z</time>
      </trkpt>
      <trkpt lat="40.327459" lon="-3.520691">
        <ele>543.870611</ele>
        <time>2021-10-27T13:04:06.000Z</time>
      </trkpt>
      <trkpt lat="40.327395" lon="-3.520584">
        <ele>543.594064</ele>
        <time>2021-10-27T13:04:08.000Z</time>
      </trkpt>
      <trkpt lat="40.327433" lon="-3.520448">
        <ele>543.299533</ele>
        <time>2021-10-27T13:04:10.000Z</time>
      </trkpt>
      <trkpt lat="40.327525" lon="-3.520378">
        <ele>543.015852</ele>
        <time>2021-10-27T13:04:12.000Z</time>
      </trkpt>
      <trkpt lat="40.327575" lon="-3.520360">
        <ele>542.877558</ele>
        <time>2021-10-27T13:04:13.000Z</time>
      </trkpt>
      <trkpt lat="40.327670" lon="-3.520320">
        <ele>542.611435</ele>
        <time>2021-10-27T13:04:15.000Z</time>
      </trkpt>
      <trkpt lat="40.327747" lon="-3.520246">
        <ele>542.356834</ele>
        <time>2021-10-27T13:04:17.000Z</time>
      </trkpt>
      <trkpt lat="40.327779" lon="-3.520197">
        <ele>542.225638</ele>
        <time>2021-10-27T13:04:18.000Z</time>
      </trkpt>
      <trkpt lat="40.327804" lon="-3.520086">
        <ele>542.314080</ele>
        <time>2021-10-27T13:04:20.000Z</time>
      </trkpt>
      <trkpt lat="40.327732" lon="-3.519974">
        <ele>542.564109</ele>
        <time>2021-10-27T13:04:23.000Z</time>
      </trkpt>
      <trkpt lat="40.327593" lon="-3.519879">
        <ele>542.914981</ele>
        <time>2021-10-27T13:04:27.000Z</time>
      </trkpt>
      <trkpt lat="40.327530" lon="-3.519821">
        <ele>543.087283</ele>
        <time>2021-10-27T13:04:29.000Z</time>
      </trkpt>
      <trkpt lat="40.327498" lon="-3.519789">
        <ele>543.177362</ele>
        <time>2021-10-27T13:04:30.000Z</time>
      </trkpt>
      <trkpt lat="40.327426" lon="-3.519741">
        <ele>543.358165</ele>
        <time>2021-10-27T13:04:32.000Z</time>
      </trkpt>
      <trkpt lat="40.327390" lon="-3.519718">
        <ele>543.447806</ele>
        <time>2021-10-27T13:04:33.000Z</time>
      </trkpt>
      <trkpt lat="40.327318" lon="-3.519671">
        <ele>543.627842</ele>
        <time>2021-10-27T13:04:35.000Z</time>
      </trkpt>
      <trkpt lat="40.327210" lon="-3.519600">
        <ele>543.898278</ele>
        <time>2021-10-27T13:04:38.000Z</time>
      </trkpt>
      <trkpt lat="40.327176" lon="-3.519575">
        <ele>543.985533</ele>
        <time>2021-10-27T13:04:39.000Z</time>
      </trkpt>
      <trkpt lat="40.327068" lon="-3.519511">
        <ele>544.250831</ele>
        <time>2021-10-27T13:04:42.000Z</time>
      </trkpt>
      <trkpt lat="40.326961" lon="-3.519443">
        <ele>544.516996</ele>
        <time>2021-10-27T13:04:45.000Z</time>
      </trkpt>
      <trkpt lat="40.326877" lon="-3.519409">
        <ele>544.713789</ele>
        <time>2021-10-27T13:04:48.000Z</time>
      </trkpt>
      <trkpt lat="40.326802" lon="-3.519348">
        <ele>544.911341</ele>
        <time>2021-10-27T13:04:50.000Z</time>
      </trkpt>
      <trkpt lat="40.326719" lon="-3.519285">
        <ele>545.126013</ele>
        <time>2021-10-27T13:04:52.000Z</time>
      </trkpt>
      <trkpt lat="40.326386" lon="-3.519069">
        <ele>545.957639</ele>
        <time>2021-10-27T13:04:59.000Z</time>
      </trkpt>
      <trkpt lat="40.326225" lon="-3.518964">
        <ele>546.092361</ele>
        <time>2021-10-27T13:05:02.000Z</time>
      </trkpt>
      <trkpt lat="40.326113" lon="-3.518893">
        <ele>545.925223</ele>
        <time>2021-10-27T13:05:04.000Z</time>
      </trkpt>
      <trkpt lat="40.325941" lon="-3.518788">
        <ele>545.670318</ele>
        <time>2021-10-27T13:05:07.000Z</time>
      </trkpt>
      <trkpt lat="40.325699" lon="-3.518638">
        <ele>545.310687</ele>
        <time>2021-10-27T13:05:11.000Z</time>
      </trkpt>
      <trkpt lat="40.325467" lon="-3.518475">
        <ele>544.957066</ele>
        <time>2021-10-27T13:05:15.000Z</time>
      </trkpt>
      <trkpt lat="40.325413" lon="-3.518428">
        <ele>544.869991</ele>
        <time>2021-10-27T13:05:16.000Z</time>
      </trkpt>
      <trkpt lat="40.324979" lon="-3.517960">
        <ele>544.115099</ele>
        <time>2021-10-27T13:05:25.000Z</time>
      </trkpt>
      <trkpt lat="40.324755" lon="-3.517699">
        <ele>543.716579</ele>
        <time>2021-10-27T13:05:30.000Z</time>
      </trkpt>
      <trkpt lat="40.324585" lon="-3.517490">
        <ele>543.423457</ele>
        <time>2021-10-27T13:05:34.000Z</time>
      </trkpt>
      <trkpt lat="40.324502" lon="-3.517390">
        <ele>543.281676</ele>
        <time>2021-10-27T13:05:36.000Z</time>
      </trkpt>
      <trkpt lat="40.324381" lon="-3.517255">
        <ele>543.081834</ele>
        <time>2021-10-27T13:05:40.000Z</time>
      </trkpt>
      <trkpt lat="40.324374" lon="-3.517252">
        <ele>543.072570</ele>
        <time>2021-10-27T13:05:41.000Z</time>
      </trkpt>
      <trkpt lat="40.324363" lon="-3.517245">
        <ele>543.057189</ele>
        <time>2021-10-27T13:05:43.000Z</time>
      </trkpt>
      <trkpt lat="40.324361" lon="-3.517245">
        <ele>543.054672</ele>
        <time>2021-10-27T13:05:44.000Z</time>
      </trkpt>
      <trkpt lat="40.324363" lon="-3.517243">
        <ele>543.051509</ele>
        <time>2021-10-27T13:05:48.000Z</time>
      </trkpt>
      <trkpt lat="40.324359" lon="-3.517248">
        <ele>543.044557</ele>
        <time>2021-10-27T13:05:53.000Z</time>
      </trkpt>
      <trkpt lat="40.324363" lon="-3.517245">
        <ele>543.038761</ele>
        <time>2021-10-27T13:06:01.000Z</time>
      </trkpt>
      <trkpt lat="40.324363" lon="-3.517244">
        <ele>543.037802</ele>
        <time>2021-10-27T13:06:04.000Z</time>
      </trkpt>
      <trkpt lat="40.324363" lon="-3.517243">
        <ele>543.036842</ele>
        <time>2021-10-27T13:06:08.000Z</time>
      </trkpt>
      <trkpt lat="40.324361" lon="-3.517238">
        <ele>543.031427</ele>
        <time>2021-10-27T13:06:17.000Z</time>
      </trkpt>
      <trkpt lat="40.324359" lon="-3.517231">
        <ele>543.024257</ele>
        <time>2021-10-27T13:06:24.000Z</time>
      </trkpt>
      <trkpt lat="40.324360" lon="-3.517230">
        <ele>543.022675</ele>
        <time>2021-10-27T13:06:27.000Z</time>
      </trkpt>
      <trkpt lat="40.324360" lon="-3.517231">
        <ele>543.021716</ele>
        <time>2021-10-27T13:06:31.000Z</time>
      </trkpt>
      <trkpt lat="40.324360" lon="-3.517231">
        <ele>543.021716</ele>
        <time>2021-10-27T13:06:32.000Z</time>
      </trkpt>
      <trkpt lat="40.324361" lon="-3.517231">
        <ele>543.020458</ele>
        <time>2021-10-27T13:06:33.000Z</time>
      </trkpt>
      <trkpt lat="40.324358" lon="-3.517230">
        <ele>543.016564</ele>
        <time>2021-10-27T13:06:39.000Z</time>
      </trkpt>
      <trkpt lat="40.324358" lon="-3.517230">
        <ele>543.016564</ele>
        <time>2021-10-27T13:06:41.000Z</time>
      </trkpt>
      <trkpt lat="40.324359" lon="-3.517228">
        <ele>543.014270</ele>
        <time>2021-10-27T13:06:51.000Z</time>
      </trkpt>
      <trkpt lat="40.324361" lon="-3.517220">
        <ele>543.006195</ele>
        <time>2021-10-27T13:06:56.000Z</time>
      </trkpt>
      <trkpt lat="40.324359" lon="-3.517212">
        <ele>542.998120</ele>
        <time>2021-10-27T13:06:57.000Z</time>
      </trkpt>
      <trkpt lat="40.324353" lon="-3.517203">
        <ele>542.986653</ele>
        <time>2021-10-27T13:06:58.000Z</time>
      </trkpt>
      <trkpt lat="40.324341" lon="-3.517192">
        <ele>542.968236</ele>
        <time>2021-10-27T13:06:59.000Z</time>
      </trkpt>
      <trkpt lat="40.324318" lon="-3.517187">
        <ele>542.938906</ele>
        <time>2021-10-27T13:07:01.000Z</time>
      </trkpt>
      <trkpt lat="40.324263" lon="-3.517133">
        <ele>542.852477</ele>
        <time>2021-10-27T13:07:03.000Z</time>
      </trkpt>
      <trkpt lat="40.324157" lon="-3.517010">
        <ele>542.674433</ele>
        <time>2021-10-27T13:07:06.000Z</time>
      </trkpt>
      <trkpt lat="40.324007" lon="-3.516829">
        <ele>542.418021</ele>
        <time>2021-10-27T13:07:10.000Z</time>
      </trkpt>
      <trkpt lat="40.323797" lon="-3.516587">
        <ele>542.066356</ele>
        <time>2021-10-27T13:07:15.000Z</time>
      </trkpt>
      <trkpt lat="40.323656" lon="-3.516433">
        <ele>541.835528</ele>
        <time>2021-10-27T13:07:18.000Z</time>
      </trkpt>
      <trkpt lat="40.323344" lon="-3.516092">
        <ele>541.245604</ele>
        <time>2021-10-27T13:07:24.000Z</time>
      </trkpt>
      <trkpt lat="40.323293" lon="-3.516028">
        <ele>541.119638</ele>
        <time>2021-10-27T13:07:25.000Z</time>
      </trkpt>
      <trkpt lat="40.323189" lon="-3.515903">
        <ele>540.867890</ele>
        <time>2021-10-27T13:07:27.000Z</time>
      </trkpt>
      <trkpt lat="40.322983" lon="-3.515644">
        <ele>540.358625</ele>
        <time>2021-10-27T13:07:31.000Z</time>
      </trkpt>
      <trkpt lat="40.322732" lon="-3.515288">
        <ele>539.698856</ele>
        <time>2021-10-27T13:07:36.000Z</time>
      </trkpt>
      <trkpt lat="40.322591" lon="-3.515053">
        <ele>539.291960</ele>
        <time>2021-10-27T13:07:39.000Z</time>
      </trkpt>
      <trkpt lat="40.322344" lon="-3.514527">
        <ele>538.451394</ele>
        <time>2021-10-27T13:07:46.000Z</time>
      </trkpt>
      <trkpt lat="40.322242" lon="-3.514216">
        <ele>537.969611</ele>
        <time>2021-10-27T13:07:50.000Z</time>
      </trkpt>
      <trkpt lat="40.322197" lon="-3.514047">
        <ele>537.709580</ele>
        <time>2021-10-27T13:07:52.000Z</time>
      </trkpt>
      <trkpt lat="40.322132" lon="-3.513779">
        <ele>537.301060</ele>
        <time>2021-10-27T13:07:55.000Z</time>
      </trkpt>
      <trkpt lat="40.322089" lon="-3.513593">
        <ele>537.018728</ele>
        <time>2021-10-27T13:07:57.000Z</time>
      </trkpt>
      <trkpt lat="40.322070" lon="-3.513498">
        <ele>536.876061</ele>
        <time>2021-10-27T13:07:58.000Z</time>
      </trkpt>
      <trkpt lat="40.322041" lon="-3.513304">
        <ele>536.588891</ele>
        <time>2021-10-27T13:08:00.000Z</time>
      </trkpt>
      <trkpt lat="40.322018" lon="-3.513109">
        <ele>536.302263</ele>
        <time>2021-10-27T13:08:02.000Z</time>
      </trkpt>
      <trkpt lat="40.322006" lon="-3.513014">
        <ele>536.162385</ele>
        <time>2021-10-27T13:08:03.000Z</time>
      </trkpt>
      <trkpt lat="40.321972" lon="-3.512742">
        <ele>535.762001</ele>
        <time>2021-10-27T13:08:06.000Z</time>
      </trkpt>
      <trkpt lat="40.321964" lon="-3.512655">
        <ele>535.634708</ele>
        <time>2021-10-27T13:08:07.000Z</time>
      </trkpt>
      <trkpt lat="40.321963" lon="-3.512071">
        <ele>534.948553</ele>
        <time>2021-10-27T13:08:14.000Z</time>
      </trkpt>
      <trkpt lat="40.321964" lon="-3.511992">
        <ele>535.040313</ele>
        <time>2021-10-27T13:08:15.000Z</time>
      </trkpt>
      <trkpt lat="40.321927" lon="-3.511848">
        <ele>535.216790</ele>
        <time>2021-10-27T13:08:17.000Z</time>
      </trkpt>
      <trkpt lat="40.321840" lon="-3.511768">
        <ele>535.378636</ele>
        <time>2021-10-27T13:08:19.000Z</time>
      </trkpt>
      <trkpt lat="40.321786" lon="-3.511753">
        <ele>535.462716</ele>
        <time>2021-10-27T13:08:20.000Z</time>
      </trkpt>
      <trkpt lat="40.321731" lon="-3.511750">
        <ele>535.546567</ele>
        <time>2021-10-27T13:08:21.000Z</time>
      </trkpt>
      <trkpt lat="40.321622" lon="-3.511764">
        <ele>535.713396</ele>
        <time>2021-10-27T13:08:23.000Z</time>
      </trkpt>
      <trkpt lat="40.321567" lon="-3.511773">
        <ele>535.797824</ele>
        <time>2021-10-27T13:08:24.000Z</time>
      </trkpt>
      <trkpt lat="40.321189" lon="-3.511876">
        <ele>536.385907</ele>
        <time>2021-10-27T13:08:31.000Z</time>
      </trkpt>
      <trkpt lat="40.321094" lon="-3.511909">
        <ele>536.535605</ele>
        <time>2021-10-27T13:08:33.000Z</time>
      </trkpt>
      <trkpt lat="40.321022" lon="-3.511905">
        <ele>536.645377</ele>
        <time>2021-10-27T13:08:35.000Z</time>
      </trkpt>
      <trkpt lat="40.320972" lon="-3.511847">
        <ele>536.747053</ele>
        <time>2021-10-27T13:08:37.000Z</time>
      </trkpt>
      <trkpt lat="40.320948" lon="-3.511815">
        <ele>536.799184</ele>
        <time>2021-10-27T13:08:38.000Z</time>
      </trkpt>
      <trkpt lat="40.320925" lon="-3.511779">
        <ele>536.853732</ele>
        <time>2021-10-27T13:08:39.000Z</time>
      </trkpt>
      <trkpt lat="40.320901" lon="-3.511738">
        <ele>536.913764</ele>
        <time>2021-10-27T13:08:40.000Z</time>
      </trkpt>
      <trkpt lat="40.320850" lon="-3.511645">
        <ele>537.046808</ele>
        <time>2021-10-27T13:08:42.000Z</time>
      </trkpt>
      <trkpt lat="40.320782" lon="-3.511485">
        <ele>537.259548</ele>
        <time>2021-10-27T13:08:45.000Z</time>
      </trkpt>
      <trkpt lat="40.320727" lon="-3.511391">
        <ele>537.397159</ele>
        <time>2021-10-27T13:08:47.000Z</time>
      </trkpt>
      <trkpt lat="40.320615" lon="-3.511266">
        <ele>537.615211</ele>
        <time>2021-10-27T13:08:50.000Z</time>
      </trkpt>
      <trkpt lat="40.320574" lon="-3.511228">
        <ele>537.598384</ele>
        <time>2021-10-27T13:08:51.000Z</time>
      </trkpt>
      <trkpt lat="40.320486" lon="-3.511163">
        <ele>537.564533</ele>
        <time>2021-10-27T13:08:53.000Z</time>
      </trkpt>
      <trkpt lat="40.320348" lon="-3.511090">
        <ele>537.514658</ele>
        <time>2021-10-27T13:08:56.000Z</time>
      </trkpt>
      <trkpt lat="40.320044" lon="-3.511050">
        <ele>537.412252</ele>
        <time>2021-10-27T13:09:02.000Z</time>
      </trkpt>
      <trkpt lat="40.319857" lon="-3.511037">
        <ele>537.349485</ele>
        <time>2021-10-27T13:09:06.000Z</time>
      </trkpt>
      <trkpt lat="40.319817" lon="-3.511052">
        <ele>537.335541</ele>
        <time>2021-10-27T13:09:07.000Z</time>
      </trkpt>
      <trkpt lat="40.319726" lon="-3.511047">
        <ele>537.305013</ele>
        <time>2021-10-27T13:09:09.000Z</time>
      </trkpt>
      <trkpt lat="40.319620" lon="-3.511029">
        <ele>537.269188</ele>
        <time>2021-10-27T13:09:11.000Z</time>
      </trkpt>
      <trkpt lat="40.319513" lon="-3.511021">
        <ele>537.233265</ele>
        <time>2021-10-27T13:09:13.000Z</time>
      </trkpt>
      <trkpt lat="40.319419" lon="-3.511028">
        <ele>537.201708</ele>
        <time>2021-10-27T13:09:15.000Z</time>
      </trkpt>
      <trkpt lat="40.319371" lon="-3.511030">
        <ele>537.185611</ele>
        <time>2021-10-27T13:09:16.000Z</time>
      </trkpt>
      <trkpt lat="40.319319" lon="-3.511027">
        <ele>537.168165</ele>
        <time>2021-10-27T13:09:17.000Z</time>
      </trkpt>
      <trkpt lat="40.319164" lon="-3.511009">
        <ele>537.116009</ele>
        <time>2021-10-27T13:09:20.000Z</time>
      </trkpt>
      <trkpt lat="40.319006" lon="-3.510982">
        <ele>537.062603</ele>
        <time>2021-10-27T13:09:23.000Z</time>
      </trkpt>
      <trkpt lat="40.318904" lon="-3.510973">
        <ele>537.028338</ele>
        <time>2021-10-27T13:09:25.000Z</time>
      </trkpt>
      <trkpt lat="40.318676" lon="-3.510925">
        <ele>536.763733</ele>
        <time>2021-10-27T13:09:29.000Z</time>
      </trkpt>
      <trkpt lat="40.318464" lon="-3.510888">
        <ele>536.477266</ele>
        <time>2021-10-27T13:09:33.000Z</time>
      </trkpt>
      <trkpt lat="40.318438" lon="-3.510870">
        <ele>536.437886</ele>
        <time>2021-10-27T13:09:34.000Z</time>
      </trkpt>
      <trkpt lat="40.318431" lon="-3.510842">
        <ele>536.407792</ele>
        <time>2021-10-27T13:09:36.000Z</time>
      </trkpt>
      <trkpt lat="40.318486" lon="-3.510751">
        <ele>536.289199</ele>
        <time>2021-10-27T13:09:39.000Z</time>
      </trkpt>
      <trkpt lat="40.318473" lon="-3.510639">
        <ele>536.173498</ele>
        <time>2021-10-27T13:09:41.000Z</time>
      </trkpt>
      <trkpt lat="40.318450" lon="-3.510580">
        <ele>536.105824</ele>
        <time>2021-10-27T13:09:42.000Z</time>
      </trkpt>
      <trkpt lat="40.318423" lon="-3.510520">
        <ele>536.034670</ele>
        <time>2021-10-27T13:09:43.000Z</time>
      </trkpt>
      <trkpt lat="40.318372" lon="-3.510398">
        <ele>535.892576</ele>
        <time>2021-10-27T13:09:45.000Z</time>
      </trkpt>
      <trkpt lat="40.318346" lon="-3.510340">
        <ele>535.823863</ele>
        <time>2021-10-27T13:09:46.000Z</time>
      </trkpt>
      <trkpt lat="40.318198" lon="-3.510051">
        <ele>535.468318</ele>
        <time>2021-10-27T13:09:51.000Z</time>
      </trkpt>
      <trkpt lat="40.318170" lon="-3.509992">
        <ele>535.397344</ele>
        <time>2021-10-27T13:09:52.000Z</time>
      </trkpt>
      <trkpt lat="40.318115" lon="-3.509893">
        <ele>535.272244</ele>
        <time>2021-10-27T13:09:54.000Z</time>
      </trkpt>
      <trkpt lat="40.318094" lon="-3.509841">
        <ele>535.212148</ele>
        <time>2021-10-27T13:09:55.000Z</time>
      </trkpt>
      <trkpt lat="40.318047" lon="-3.509748">
        <ele>535.098199</ele>
        <time>2021-10-27T13:09:57.000Z</time>
      </trkpt>
      <trkpt lat="40.317987" lon="-3.509608">
        <ele>534.934181</ele>
        <time>2021-10-27T13:10:00.000Z</time>
      </trkpt>
      <trkpt lat="40.317957" lon="-3.509567">
        <ele>534.876146</ele>
        <time>2021-10-27T13:10:01.000Z</time>
      </trkpt>
      <trkpt lat="40.317919" lon="-3.509536">
        <ele>534.816204</ele>
        <time>2021-10-27T13:10:02.000Z</time>
      </trkpt>
      <trkpt lat="40.317880" lon="-3.509503">
        <ele>534.754037</ele>
        <time>2021-10-27T13:10:03.000Z</time>
      </trkpt>
      <trkpt lat="40.317843" lon="-3.509465">
        <ele>534.691090</ele>
        <time>2021-10-27T13:10:04.000Z</time>
      </trkpt>
      <trkpt lat="40.317764" lon="-3.509394">
        <ele>534.605122</ele>
        <time>2021-10-27T13:10:06.000Z</time>
      </trkpt>
      <trkpt lat="40.317678" lon="-3.509332">
        <ele>534.607975</ele>
        <time>2021-10-27T13:10:08.000Z</time>
      </trkpt>
      <trkpt lat="40.317636" lon="-3.509297">
        <ele>534.609422</ele>
        <time>2021-10-27T13:10:09.000Z</time>
      </trkpt>
      <trkpt lat="40.317560" lon="-3.509214">
        <ele>534.612297</ele>
        <time>2021-10-27T13:10:11.000Z</time>
      </trkpt>
      <trkpt lat="40.317475" lon="-3.509151">
        <ele>534.615136</ele>
        <time>2021-10-27T13:10:13.000Z</time>
      </trkpt>
      <trkpt lat="40.317426" lon="-3.509069">
        <ele>534.617445</ele>
        <time>2021-10-27T13:10:15.000Z</time>
      </trkpt>
      <trkpt lat="40.317322" lon="-3.508871">
        <ele>534.622775</ele>
        <time>2021-10-27T13:10:19.000Z</time>
      </trkpt>
      <trkpt lat="40.317203" lon="-3.508669">
        <ele>534.628434</ele>
        <time>2021-10-27T13:10:23.000Z</time>
      </trkpt>
      <trkpt lat="40.317158" lon="-3.508583">
        <ele>534.630746</ele>
        <time>2021-10-27T13:10:25.000Z</time>
      </trkpt>
      <trkpt lat="40.317052" lon="-3.508442">
        <ele>534.635136</ele>
        <time>2021-10-27T13:10:29.000Z</time>
      </trkpt>
      <trkpt lat="40.317024" lon="-3.508386">
        <ele>534.636620</ele>
        <time>2021-10-27T13:10:30.000Z</time>
      </trkpt>
      <trkpt lat="40.316984" lon="-3.508198">
        <ele>534.640947</ele>
        <time>2021-10-27T13:10:33.000Z</time>
      </trkpt>
      <trkpt lat="40.316994" lon="-3.508073">
        <ele>534.643733</ele>
        <time>2021-10-27T13:10:35.000Z</time>
      </trkpt>
      <trkpt lat="40.316986" lon="-3.507925">
        <ele>534.647022</ele>
        <time>2021-10-27T13:10:37.000Z</time>
      </trkpt>
      <trkpt lat="40.316955" lon="-3.507866">
        <ele>534.648611</ele>
        <time>2021-10-27T13:10:38.000Z</time>
      </trkpt>
      <trkpt lat="40.316876" lon="-3.507782">
        <ele>534.651567</ele>
        <time>2021-10-27T13:10:40.000Z</time>
      </trkpt>
      <trkpt lat="40.316850" lon="-3.507722">
        <ele>534.653097</ele>
        <time>2021-10-27T13:10:41.000Z</time>
      </trkpt>
      <trkpt lat="40.316837" lon="-3.507659">
        <ele>534.654544</ele>
        <time>2021-10-27T13:10:42.000Z</time>
      </trkpt>
      <trkpt lat="40.316808" lon="-3.507539">
        <ele>534.638250</ele>
        <time>2021-10-27T13:10:44.000Z</time>
      </trkpt>
      <trkpt lat="40.316801" lon="-3.507483">
        <ele>534.610175</ele>
        <time>2021-10-27T13:10:45.000Z</time>
      </trkpt>
      <trkpt lat="40.316777" lon="-3.507370">
        <ele>534.552141</ele>
        <time>2021-10-27T13:10:47.000Z</time>
      </trkpt>
      <trkpt lat="40.316722" lon="-3.507292">
        <ele>534.499580</ele>
        <time>2021-10-27T13:10:49.000Z</time>
      </trkpt>
      <trkpt lat="40.316700" lon="-3.507254">
        <ele>534.475975</ele>
        <time>2021-10-27T13:10:50.000Z</time>
      </trkpt>
      <trkpt lat="40.316673" lon="-3.507158">
        <ele>534.425352</ele>
        <time>2021-10-27T13:10:52.000Z</time>
      </trkpt>
      <trkpt lat="40.316664" lon="-3.507102">
        <ele>534.397038</ele>
        <time>2021-10-27T13:10:53.000Z</time>
      </trkpt>
      <trkpt lat="40.316647" lon="-3.507045">
        <ele>534.366758</ele>
        <time>2021-10-27T13:10:54.000Z</time>
      </trkpt>
      <trkpt lat="40.316627" lon="-3.506982">
        <ele>534.332996</ele>
        <time>2021-10-27T13:10:55.000Z</time>
      </trkpt>
      <trkpt lat="40.316614" lon="-3.506850">
        <ele>534.267148</ele>
        <time>2021-10-27T13:10:57.000Z</time>
      </trkpt>
      <trkpt lat="40.316619" lon="-3.506789">
        <ele>534.236795</ele>
        <time>2021-10-27T13:10:58.000Z</time>
      </trkpt>
      <trkpt lat="40.316640" lon="-3.506737">
        <ele>534.207683</ele>
        <time>2021-10-27T13:10:59.000Z</time>
      </trkpt>
      <trkpt lat="40.316675" lon="-3.506616">
        <ele>534.143657</ele>
        <time>2021-10-27T13:11:01.000Z</time>
      </trkpt>
      <trkpt lat="40.316707" lon="-3.506645">
        <ele>534.118419</ele>
        <time>2021-10-27T13:11:23.000Z</time>
      </trkpt>
      <trkpt lat="40.316760" lon="-3.506732">
        <ele>534.063326</ele>
        <time>2021-10-27T13:11:25.000Z</time>
      </trkpt>
      <trkpt lat="40.316776" lon="-3.506784">
        <ele>534.035584</ele>
        <time>2021-10-27T13:11:26.000Z</time>
      </trkpt>
      <trkpt lat="40.316791" lon="-3.506840">
        <ele>534.006219</ele>
        <time>2021-10-27T13:11:27.000Z</time>
      </trkpt>
      <trkpt lat="40.316870" lon="-3.506993">
        <ele>533.914802</ele>
        <time>2021-10-27T13:11:30.000Z</time>
      </trkpt>
      <trkpt lat="40.316900" lon="-3.507041">
        <ele>533.884096</ele>
        <time>2021-10-27T13:11:31.000Z</time>
      </trkpt>
      <trkpt lat="40.316973" lon="-3.507123">
        <ele>533.821732</ele>
        <time>2021-10-27T13:11:33.000Z</time>
      </trkpt>
      <trkpt lat="40.317020" lon="-3.507150">
        <ele>533.788438</ele>
        <time>2021-10-27T13:11:34.000Z</time>
      </trkpt>
      <trkpt lat="40.317072" lon="-3.507154">
        <ele>533.754640</ele>
        <time>2021-10-27T13:11:35.000Z</time>
      </trkpt>
      <trkpt lat="40.317171" lon="-3.507100">
        <ele>533.685070</ele>
        <time>2021-10-27T13:11:37.000Z</time>
      </trkpt>
      <trkpt lat="40.317219" lon="-3.507065">
        <ele>533.649435</ele>
        <time>2021-10-27T13:11:38.000Z</time>
      </trkpt>
      <trkpt lat="40.317262" lon="-3.507033">
        <ele>533.617356</ele>
        <time>2021-10-27T13:11:39.000Z</time>
      </trkpt>
      <trkpt lat="40.317287" lon="-3.507000">
        <ele>533.594341</ele>
        <time>2021-10-27T13:11:40.000Z</time>
      </trkpt>
      <trkpt lat="40.317272" lon="-3.506951">
        <ele>533.568219</ele>
        <time>2021-10-27T13:11:41.000Z</time>
      </trkpt>
      <trkpt lat="40.317207" lon="-3.506799">
        <ele>533.494815</ele>
        <time>2021-10-27T13:11:44.000Z</time>
      </trkpt>
      <trkpt lat="40.317187" lon="-3.506757">
        <ele>533.512372</ele>
        <time>2021-10-27T13:11:45.000Z</time>
      </trkpt>
      <trkpt lat="40.317104" lon="-3.506589">
        <ele>533.583350</ele>
        <time>2021-10-27T13:11:50.000Z</time>
      </trkpt>
      <trkpt lat="40.317100" lon="-3.506556">
        <ele>533.595197</ele>
        <time>2021-10-27T13:11:51.000Z</time>
      </trkpt>
      <trkpt lat="40.317114" lon="-3.506455">
        <ele>533.631595</ele>
        <time>2021-10-27T13:11:53.000Z</time>
      </trkpt>
      <trkpt lat="40.317097" lon="-3.506301">
        <ele>533.686767</ele>
        <time>2021-10-27T13:11:55.000Z</time>
      </trkpt>
      <trkpt lat="40.317082" lon="-3.506115">
        <ele>533.753083</ele>
        <time>2021-10-27T13:11:57.000Z</time>
      </trkpt>
      <trkpt lat="40.317073" lon="-3.506040">
        <ele>533.780003</ele>
        <time>2021-10-27T13:11:58.000Z</time>
      </trkpt>
      <trkpt lat="40.317064" lon="-3.505975">
        <ele>533.803426</ele>
        <time>2021-10-27T13:11:59.000Z</time>
      </trkpt>
      <trkpt lat="40.317037" lon="-3.505706">
        <ele>533.899626</ele>
        <time>2021-10-27T13:12:03.000Z</time>
      </trkpt>
      <trkpt lat="40.317033" lon="-3.505637">
        <ele>533.924162</ele>
        <time>2021-10-27T13:12:04.000Z</time>
      </trkpt>
      <trkpt lat="40.317012" lon="-3.505421">
        <ele>534.001367</ele>
        <time>2021-10-27T13:12:07.000Z</time>
      </trkpt>
      <trkpt lat="40.317012" lon="-3.505343">
        <ele>534.029023</ele>
        <time>2021-10-27T13:12:08.000Z</time>
      </trkpt>
      <trkpt lat="40.317021" lon="-3.505191">
        <ele>534.083079</ele>
        <time>2021-10-27T13:12:10.000Z</time>
      </trkpt>
      <trkpt lat="40.317031" lon="-3.505114">
        <ele>534.110774</ele>
        <time>2021-10-27T13:12:11.000Z</time>
      </trkpt>
      <trkpt lat="40.317062" lon="-3.504963">
        <ele>534.166219</ele>
        <time>2021-10-27T13:12:13.000Z</time>
      </trkpt>
      <trkpt lat="40.317085" lon="-3.504887">
        <ele>534.195211</ele>
        <time>2021-10-27T13:12:14.000Z</time>
      </trkpt>
      <trkpt lat="40.317131" lon="-3.504754">
        <ele>534.246992</ele>
        <time>2021-10-27T13:12:16.000Z</time>
      </trkpt>
      <trkpt lat="40.317179" lon="-3.504590">
        <ele>534.309277</ele>
        <time>2021-10-27T13:12:19.000Z</time>
      </trkpt>
      <trkpt lat="40.317187" lon="-3.504544">
        <ele>534.326326</ele>
        <time>2021-10-27T13:12:20.000Z</time>
      </trkpt>
      <trkpt lat="40.317197" lon="-3.504502">
        <ele>534.376188</ele>
        <time>2021-10-27T13:12:21.000Z</time>
      </trkpt>
      <trkpt lat="40.317232" lon="-3.504421">
        <ele>534.481695</ele>
        <time>2021-10-27T13:12:23.000Z</time>
      </trkpt>
      <trkpt lat="40.317306" lon="-3.504122">
        <ele>534.837933</ele>
        <time>2021-10-27T13:12:29.000Z</time>
      </trkpt>
      <trkpt lat="40.317316" lon="-3.504069">
        <ele>534.899806</ele>
        <time>2021-10-27T13:12:30.000Z</time>
      </trkpt>
      <trkpt lat="40.317326" lon="-3.504016">
        <ele>534.961678</ele>
        <time>2021-10-27T13:12:31.000Z</time>
      </trkpt>
      <trkpt lat="40.317336" lon="-3.503964">
        <ele>535.022451</ele>
        <time>2021-10-27T13:12:32.000Z</time>
      </trkpt>
      <trkpt lat="40.317346" lon="-3.503910">
        <ele>535.085425</ele>
        <time>2021-10-27T13:12:33.000Z</time>
      </trkpt>
      <trkpt lat="40.317356" lon="-3.503857">
        <ele>535.147297</ele>
        <time>2021-10-27T13:12:34.000Z</time>
      </trkpt>
      <trkpt lat="40.317365" lon="-3.503802">
        <ele>535.211044</ele>
        <time>2021-10-27T13:12:35.000Z</time>
      </trkpt>
      <trkpt lat="40.317374" lon="-3.503748">
        <ele>535.273683</ele>
        <time>2021-10-27T13:12:36.000Z</time>
      </trkpt>
      <trkpt lat="40.317398" lon="-3.503641">
        <ele>535.400076</ele>
        <time>2021-10-27T13:12:38.000Z</time>
      </trkpt>
      <trkpt lat="40.317426" lon="-3.503534">
        <ele>535.528274</ele>
        <time>2021-10-27T13:12:40.000Z</time>
      </trkpt>
      <trkpt lat="40.317479" lon="-3.503379">
        <ele>535.720778</ele>
        <time>2021-10-27T13:12:43.000Z</time>
      </trkpt>
      <trkpt lat="40.317574" lon="-3.502984">
        <ele>536.190142</ele>
        <time>2021-10-27T13:12:50.000Z</time>
      </trkpt>
      <trkpt lat="40.317591" lon="-3.502926">
        <ele>536.260558</ele>
        <time>2021-10-27T13:12:51.000Z</time>
      </trkpt>
      <trkpt lat="40.317658" lon="-3.502690">
        <ele>536.545936</ele>
        <time>2021-10-27T13:12:55.000Z</time>
      </trkpt>
      <trkpt lat="40.317743" lon="-3.502399">
        <ele>536.899073</ele>
        <time>2021-10-27T13:13:00.000Z</time>
      </trkpt>
      <trkpt lat="40.317869" lon="-3.501937">
        <ele>537.072390</ele>
        <time>2021-10-27T13:13:08.000Z</time>
      </trkpt>
      <trkpt lat="40.317931" lon="-3.501701">
        <ele>537.117853</ele>
        <time>2021-10-27T13:13:12.000Z</time>
      </trkpt>
      <trkpt lat="40.317949" lon="-3.501643">
        <ele>537.129258</ele>
        <time>2021-10-27T13:13:13.000Z</time>
      </trkpt>
      <trkpt lat="40.317981" lon="-3.501524">
        <ele>537.152241</ele>
        <time>2021-10-27T13:13:15.000Z</time>
      </trkpt>
      <trkpt lat="40.318090" lon="-3.501159">
        <ele>537.223636</ele>
        <time>2021-10-27T13:13:21.000Z</time>
      </trkpt>
      <trkpt lat="40.318125" lon="-3.501036">
        <ele>537.247547</ele>
        <time>2021-10-27T13:13:23.000Z</time>
      </trkpt>
      <trkpt lat="40.318204" lon="-3.500726">
        <ele>537.307079</ele>
        <time>2021-10-27T13:13:28.000Z</time>
      </trkpt>
      <trkpt lat="40.318217" lon="-3.500532">
        <ele>537.342548</ele>
        <time>2021-10-27T13:13:31.000Z</time>
      </trkpt>
      <trkpt lat="40.318205" lon="-3.500206">
        <ele>537.401993</ele>
        <time>2021-10-27T13:13:36.000Z</time>
      </trkpt>
      <trkpt lat="40.318194" lon="-3.499953">
        <ele>537.430741</ele>
        <time>2021-10-27T13:13:40.000Z</time>
      </trkpt>
      <trkpt lat="40.318181" lon="-3.499632">
        <ele>537.436755</ele>
        <time>2021-10-27T13:13:45.000Z</time>
      </trkpt>
      <trkpt lat="40.318168" lon="-3.499499">
        <ele>537.439264</ele>
        <time>2021-10-27T13:13:47.000Z</time>
      </trkpt>
      <trkpt lat="40.318164" lon="-3.499434">
        <ele>537.440484</ele>
        <time>2021-10-27T13:13:48.000Z</time>
      </trkpt>
      <trkpt lat="40.318141" lon="-3.499308">
        <ele>537.442908</ele>
        <time>2021-10-27T13:13:50.000Z</time>
      </trkpt>
      <trkpt lat="40.318119" lon="-3.499251">
        <ele>537.444103</ele>
        <time>2021-10-27T13:13:51.000Z</time>
      </trkpt>
      <trkpt lat="40.318102" lon="-3.499190">
        <ele>537.445319</ele>
        <time>2021-10-27T13:13:52.000Z</time>
      </trkpt>
      <trkpt lat="40.318051" lon="-3.498938">
        <ele>537.450197</ele>
        <time>2021-10-27T13:13:56.000Z</time>
      </trkpt>
      <trkpt lat="40.317927" lon="-3.498454">
        <ele>537.459750</ele>
        <time>2021-10-27T13:14:04.000Z</time>
      </trkpt>
      <trkpt lat="40.317861" lon="-3.498226">
        <ele>537.464313</ele>
        <time>2021-10-27T13:14:08.000Z</time>
      </trkpt>
      <trkpt lat="40.317842" lon="-3.498125">
        <ele>537.466260</ele>
        <time>2021-10-27T13:14:10.000Z</time>
      </trkpt>
      <trkpt lat="40.317821" lon="-3.497977">
        <ele>537.469076</ele>
        <time>2021-10-27T13:14:13.000Z</time>
      </trkpt>
      <trkpt lat="40.317818" lon="-3.497843">
        <ele>537.471584</ele>
        <time>2021-10-27T13:14:15.000Z</time>
      </trkpt>
      <trkpt lat="40.317821" lon="-3.497721">
        <ele>537.475649</ele>
        <time>2021-10-27T13:14:17.000Z</time>
      </trkpt>
      <trkpt lat="40.317820" lon="-3.497529">
        <ele>537.485746</ele>
        <time>2021-10-27T13:14:20.000Z</time>
      </trkpt>
      <trkpt lat="40.317814" lon="-3.497396">
        <ele>537.492753</ele>
        <time>2021-10-27T13:14:22.000Z</time>
      </trkpt>
      <trkpt lat="40.317792" lon="-3.497127">
        <ele>537.506981</ele>
        <time>2021-10-27T13:14:26.000Z</time>
      </trkpt>
      <trkpt lat="40.317789" lon="-3.496995">
        <ele>537.513925</ele>
        <time>2021-10-27T13:14:28.000Z</time>
      </trkpt>
      <trkpt lat="40.317781" lon="-3.496931">
        <ele>537.517336</ele>
        <time>2021-10-27T13:14:29.000Z</time>
      </trkpt>
      <trkpt lat="40.317762" lon="-3.496814">
        <ele>537.523627</ele>
        <time>2021-10-27T13:14:31.000Z</time>
      </trkpt>
      <trkpt lat="40.317759" lon="-3.496754">
        <ele>537.526789</ele>
        <time>2021-10-27T13:14:32.000Z</time>
      </trkpt>
      <trkpt lat="40.317756" lon="-3.496690">
        <ele>537.530161</ele>
        <time>2021-10-27T13:14:33.000Z</time>
      </trkpt>
      <trkpt lat="40.317759" lon="-3.496369">
        <ele>537.547044</ele>
        <time>2021-10-27T13:14:38.000Z</time>
      </trkpt>
      <trkpt lat="40.317735" lon="-3.495995">
        <ele>537.566782</ele>
        <time>2021-10-27T13:14:44.000Z</time>
      </trkpt>
      <trkpt lat="40.317731" lon="-3.495935">
        <ele>537.569949</ele>
        <time>2021-10-27T13:14:45.000Z</time>
      </trkpt>
      <trkpt lat="40.317736" lon="-3.495634">
        <ele>537.585782</ele>
        <time>2021-10-27T13:14:50.000Z</time>
      </trkpt>
      <trkpt lat="40.317745" lon="-3.495577">
        <ele>537.588843</ele>
        <time>2021-10-27T13:14:51.000Z</time>
      </trkpt>
      <trkpt lat="40.317757" lon="-3.495460">
        <ele>537.595052</ele>
        <time>2021-10-27T13:14:53.000Z</time>
      </trkpt>
      <trkpt lat="40.317776" lon="-3.495300">
        <ele>537.581867</ele>
        <time>2021-10-27T13:14:56.000Z</time>
      </trkpt>
      <trkpt lat="40.317788" lon="-3.495246">
        <ele>537.575138</ele>
        <time>2021-10-27T13:14:57.000Z</time>
      </trkpt>
      <trkpt lat="40.317858" lon="-3.494996">
        <ele>537.543273</ele>
        <time>2021-10-27T13:15:02.000Z</time>
      </trkpt>
      <trkpt lat="40.317862" lon="-3.494933">
        <ele>537.535710</ele>
        <time>2021-10-27T13:15:03.000Z</time>
      </trkpt>
      <trkpt lat="40.317868" lon="-3.494758">
        <ele>537.514751</ele>
        <time>2021-10-27T13:15:06.000Z</time>
      </trkpt>
      <trkpt lat="40.317894" lon="-3.494588">
        <ele>537.494006</ele>
        <time>2021-10-27T13:15:09.000Z</time>
      </trkpt>
      <trkpt lat="40.317916" lon="-3.494468">
        <ele>537.479239</ele>
        <time>2021-10-27T13:15:11.000Z</time>
      </trkpt>
      <trkpt lat="40.317929" lon="-3.494407">
        <ele>537.471661</ele>
        <time>2021-10-27T13:15:12.000Z</time>
      </trkpt>
      <trkpt lat="40.317958" lon="-3.494295">
        <ele>537.457509</ele>
        <time>2021-10-27T13:15:14.000Z</time>
      </trkpt>
      <trkpt lat="40.317991" lon="-3.494180">
        <ele>537.442808</ele>
        <time>2021-10-27T13:15:16.000Z</time>
      </trkpt>
      <trkpt lat="40.318081" lon="-3.493816">
        <ele>537.397025</ele>
        <time>2021-10-27T13:15:22.000Z</time>
      </trkpt>
      <trkpt lat="40.318101" lon="-3.493755">
        <ele>537.389080</ele>
        <time>2021-10-27T13:15:23.000Z</time>
      </trkpt>
      <trkpt lat="40.318149" lon="-3.493647">
        <ele>537.374124</ele>
        <time>2021-10-27T13:15:25.000Z</time>
      </trkpt>
      <trkpt lat="40.318178" lon="-3.493595">
        <ele>537.366415</ele>
        <time>2021-10-27T13:15:26.000Z</time>
      </trkpt>
      <trkpt lat="40.318284" lon="-3.493320">
        <ele>537.329548</ele>
        <time>2021-10-27T13:15:31.000Z</time>
      </trkpt>
      <trkpt lat="40.318395" lon="-3.493068">
        <ele>537.323563</ele>
        <time>2021-10-27T13:15:36.000Z</time>
      </trkpt>
      <trkpt lat="40.318497" lon="-3.492812">
        <ele>537.338895</ele>
        <time>2021-10-27T13:15:41.000Z</time>
      </trkpt>
      <trkpt lat="40.318681" lon="-3.492544">
        <ele>537.358039</ele>
        <time>2021-10-27T13:15:46.000Z</time>
      </trkpt>
      <trkpt lat="40.318714" lon="-3.492485">
        <ele>537.361923</ele>
        <time>2021-10-27T13:15:47.000Z</time>
      </trkpt>
      <trkpt lat="40.318863" lon="-3.492257">
        <ele>537.377863</ele>
        <time>2021-10-27T13:15:51.000Z</time>
      </trkpt>
      <trkpt lat="40.318967" lon="-3.492087">
        <ele>537.389432</ele>
        <time>2021-10-27T13:15:54.000Z</time>
      </trkpt>
      <trkpt lat="40.319049" lon="-3.491918">
        <ele>537.400065</ele>
        <time>2021-10-27T13:15:57.000Z</time>
      </trkpt>
      <trkpt lat="40.319103" lon="-3.491798">
        <ele>537.407462</ele>
        <time>2021-10-27T13:15:59.000Z</time>
      </trkpt>
      <trkpt lat="40.319121" lon="-3.491731">
        <ele>537.411233</ele>
        <time>2021-10-27T13:16:00.000Z</time>
      </trkpt>
      <trkpt lat="40.319134" lon="-3.491667">
        <ele>537.414748</ele>
        <time>2021-10-27T13:16:01.000Z</time>
      </trkpt>
      <trkpt lat="40.319160" lon="-3.491542">
        <ele>537.421626</ele>
        <time>2021-10-27T13:16:03.000Z</time>
      </trkpt>
      <trkpt lat="40.319181" lon="-3.491422">
        <ele>537.428161</ele>
        <time>2021-10-27T13:16:05.000Z</time>
      </trkpt>
      <trkpt lat="40.319274" lon="-3.491243">
        <ele>537.439659</ele>
        <time>2021-10-27T13:16:09.000Z</time>
      </trkpt>
      <trkpt lat="40.319351" lon="-3.491074">
        <ele>537.476536</ele>
        <time>2021-10-27T13:16:12.000Z</time>
      </trkpt>
      <trkpt lat="40.319393" lon="-3.490947">
        <ele>537.502944</ele>
        <time>2021-10-27T13:16:14.000Z</time>
      </trkpt>
      <trkpt lat="40.319443" lon="-3.490690">
        <ele>537.553541</ele>
        <time>2021-10-27T13:16:18.000Z</time>
      </trkpt>
      <trkpt lat="40.319453" lon="-3.490568">
        <ele>537.576949</ele>
        <time>2021-10-27T13:16:20.000Z</time>
      </trkpt>
      <trkpt lat="40.319455" lon="-3.490506">
        <ele>537.588787</ele>
        <time>2021-10-27T13:16:21.000Z</time>
      </trkpt>
      <trkpt lat="40.319494" lon="-3.490260">
        <ele>537.636719</ele>
        <time>2021-10-27T13:16:25.000Z</time>
      </trkpt>
      <trkpt lat="40.319575" lon="-3.489881">
        <ele>537.711805</ele>
        <time>2021-10-27T13:16:31.000Z</time>
      </trkpt>
      <trkpt lat="40.319603" lon="-3.489758">
        <ele>537.736293</ele>
        <time>2021-10-27T13:16:33.000Z</time>
      </trkpt>
      <trkpt lat="40.319624" lon="-3.489643">
        <ele>537.758851</ele>
        <time>2021-10-27T13:16:35.000Z</time>
      </trkpt>
      <trkpt lat="40.319642" lon="-3.489590">
        <ele>537.769919</ele>
        <time>2021-10-27T13:16:36.000Z</time>
      </trkpt>
      <trkpt lat="40.319745" lon="-3.489320">
        <ele>537.827513</ele>
        <time>2021-10-27T13:16:41.000Z</time>
      </trkpt>
      <trkpt lat="40.319823" lon="-3.489161">
        <ele>537.863580</ele>
        <time>2021-10-27T13:16:44.000Z</time>
      </trkpt>
      <trkpt lat="40.319924" lon="-3.488952">
        <ele>537.919911</ele>
        <time>2021-10-27T13:16:48.000Z</time>
      </trkpt>
      <trkpt lat="40.319955" lon="-3.488902">
        <ele>537.937588</ele>
        <time>2021-10-27T13:16:49.000Z</time>
      </trkpt>
      <trkpt lat="40.319977" lon="-3.488847">
        <ele>537.954625</ele>
        <time>2021-10-27T13:16:50.000Z</time>
      </trkpt>
      <trkpt lat="40.320013" lon="-3.488736">
        <ele>537.987712</ele>
        <time>2021-10-27T13:16:52.000Z</time>
      </trkpt>
      <trkpt lat="40.320034" lon="-3.488689">
        <ele>538.002655</ele>
        <time>2021-10-27T13:16:53.000Z</time>
      </trkpt>
      <trkpt lat="40.320106" lon="-3.488562">
        <ele>538.046066</ele>
        <time>2021-10-27T13:16:56.000Z</time>
      </trkpt>
      <trkpt lat="40.320197" lon="-3.488437">
        <ele>538.093473</ele>
        <time>2021-10-27T13:16:59.000Z</time>
      </trkpt>
      <trkpt lat="40.320234" lon="-3.488398">
        <ele>538.110550</ele>
        <time>2021-10-27T13:17:00.000Z</time>
      </trkpt>
      <trkpt lat="40.320274" lon="-3.488361">
        <ele>538.128160</ele>
        <time>2021-10-27T13:17:01.000Z</time>
      </trkpt>
      <trkpt lat="40.320466" lon="-3.488154">
        <ele>538.217576</ele>
        <time>2021-10-27T13:17:07.000Z</time>
      </trkpt>
      <trkpt lat="40.320695" lon="-3.487944">
        <ele>538.318103</ele>
        <time>2021-10-27T13:17:13.000Z</time>
      </trkpt>
      <trkpt lat="40.320733" lon="-3.487902">
        <ele>538.335981</ele>
        <time>2021-10-27T13:17:14.000Z</time>
      </trkpt>
      <trkpt lat="40.320910" lon="-3.487719">
        <ele>538.417065</ele>
        <time>2021-10-27T13:17:18.000Z</time>
      </trkpt>
      <trkpt lat="40.320986" lon="-3.487614">
        <ele>538.456778</ele>
        <time>2021-10-27T13:17:20.000Z</time>
      </trkpt>
      <trkpt lat="40.321078" lon="-3.487455">
        <ele>538.511528</ele>
        <time>2021-10-27T13:17:23.000Z</time>
      </trkpt>
      <trkpt lat="40.321107" lon="-3.487402">
        <ele>538.529422</ele>
        <time>2021-10-27T13:17:24.000Z</time>
      </trkpt>
      <trkpt lat="40.321256" lon="-3.487121">
        <ele>538.567474</ele>
        <time>2021-10-27T13:17:29.000Z</time>
      </trkpt>
      <trkpt lat="40.321359" lon="-3.486958">
        <ele>538.587963</ele>
        <time>2021-10-27T13:17:32.000Z</time>
      </trkpt>
      <trkpt lat="40.321613" lon="-3.486589">
        <ele>538.636078</ele>
        <time>2021-10-27T13:17:39.000Z</time>
      </trkpt>
      <trkpt lat="40.321770" lon="-3.486397">
        <ele>538.663326</ele>
        <time>2021-10-27T13:17:43.000Z</time>
      </trkpt>
      <trkpt lat="40.321809" lon="-3.486349">
        <ele>538.670115</ele>
        <time>2021-10-27T13:17:44.000Z</time>
      </trkpt>
      <trkpt lat="40.321883" lon="-3.486242">
        <ele>538.684097</ele>
        <time>2021-10-27T13:17:46.000Z</time>
      </trkpt>
      <trkpt lat="40.321916" lon="-3.486184">
        <ele>538.691101</ele>
        <time>2021-10-27T13:17:47.000Z</time>
      </trkpt>
      <trkpt lat="40.321948" lon="-3.486124">
        <ele>538.698187</ele>
        <time>2021-10-27T13:17:48.000Z</time>
      </trkpt>
      <trkpt lat="40.322099" lon="-3.485800">
        <ele>538.734939</ele>
        <time>2021-10-27T13:17:53.000Z</time>
      </trkpt>
      <trkpt lat="40.322392" lon="-3.485362">
        <ele>538.813527</ele>
        <time>2021-10-27T13:18:01.000Z</time>
      </trkpt>
      <trkpt lat="40.322530" lon="-3.485239">
        <ele>538.852799</ele>
        <time>2021-10-27T13:18:04.000Z</time>
      </trkpt>
      <trkpt lat="40.322627" lon="-3.485167">
        <ele>538.879033</ele>
        <time>2021-10-27T13:18:06.000Z</time>
      </trkpt>
      <trkpt lat="40.322674" lon="-3.485121">
        <ele>538.892836</ele>
        <time>2021-10-27T13:18:07.000Z</time>
      </trkpt>
      <trkpt lat="40.322736" lon="-3.485001">
        <ele>538.918850</ele>
        <time>2021-10-27T13:18:09.000Z</time>
      </trkpt>
      <trkpt lat="40.322730" lon="-3.484857">
        <ele>538.944730</ele>
        <time>2021-10-27T13:18:11.000Z</time>
      </trkpt>
      <trkpt lat="40.322707" lon="-3.484790">
        <ele>538.957916</ele>
        <time>2021-10-27T13:18:12.000Z</time>
      </trkpt>
      <trkpt lat="40.322678" lon="-3.484726">
        <ele>538.971276</ele>
        <time>2021-10-27T13:18:13.000Z</time>
      </trkpt>
      <trkpt lat="40.322512" lon="-3.484431">
        <ele>539.037073</ele>
        <time>2021-10-27T13:18:18.000Z</time>
      </trkpt>
      <trkpt lat="40.322301" lon="-3.484000">
        <ele>539.128991</ele>
        <time>2021-10-27T13:18:25.000Z</time>
      </trkpt>
      <trkpt lat="40.322219" lon="-3.483808">
        <ele>539.168484</ele>
        <time>2021-10-27T13:18:28.000Z</time>
      </trkpt>
      <trkpt lat="40.322171" lon="-3.483674">
        <ele>539.200012</ele>
        <time>2021-10-27T13:18:30.000Z</time>
      </trkpt>
      <trkpt lat="40.322145" lon="-3.483607">
        <ele>539.224055</ele>
        <time>2021-10-27T13:18:31.000Z</time>
      </trkpt>
      <trkpt lat="40.322048" lon="-3.483332">
        <ele>539.320960</ele>
        <time>2021-10-27T13:18:35.000Z</time>
      </trkpt>
      <trkpt lat="40.321965" lon="-3.483127">
        <ele>539.395192</ele>
        <time>2021-10-27T13:18:38.000Z</time>
      </trkpt>
      <trkpt lat="40.321910" lon="-3.482989">
        <ele>539.444993</ele>
        <time>2021-10-27T13:18:40.000Z</time>
      </trkpt>
      <trkpt lat="40.321877" lon="-3.482925">
        <ele>539.469702</ele>
        <time>2021-10-27T13:18:41.000Z</time>
      </trkpt>
      <trkpt lat="40.321836" lon="-3.482870">
        <ele>539.494303</ele>
        <time>2021-10-27T13:18:42.000Z</time>
      </trkpt>
      <trkpt lat="40.321788" lon="-3.482823">
        <ele>539.519429</ele>
        <time>2021-10-27T13:18:43.000Z</time>
      </trkpt>
      <trkpt lat="40.321517" lon="-3.482685">
        <ele>539.641373</ele>
        <time>2021-10-27T13:18:48.000Z</time>
      </trkpt>
      <trkpt lat="40.320963" lon="-3.482546">
        <ele>539.877973</ele>
        <time>2021-10-27T13:18:58.000Z</time>
      </trkpt>
      <trkpt lat="40.320908" lon="-3.482532">
        <ele>539.901475</ele>
        <time>2021-10-27T13:18:59.000Z</time>
      </trkpt>
      <trkpt lat="40.320517" lon="-3.482392">
        <ele>540.224465</ele>
        <time>2021-10-27T13:19:06.000Z</time>
      </trkpt>
      <trkpt lat="40.320458" lon="-3.482367">
        <ele>540.281484</ele>
        <time>2021-10-27T13:19:07.000Z</time>
      </trkpt>
      <trkpt lat="40.320336" lon="-3.482320">
        <ele>540.398417</ele>
        <time>2021-10-27T13:19:09.000Z</time>
      </trkpt>
      <trkpt lat="40.320276" lon="-3.482295">
        <ele>540.456312</ele>
        <time>2021-10-27T13:19:10.000Z</time>
      </trkpt>
      <trkpt lat="40.320052" lon="-3.482242">
        <ele>540.665632</ele>
        <time>2021-10-27T13:19:14.000Z</time>
      </trkpt>
      <trkpt lat="40.319997" lon="-3.482227">
        <ele>540.717293</ele>
        <time>2021-10-27T13:19:15.000Z</time>
      </trkpt>
      <trkpt lat="40.319658" lon="-3.482149">
        <ele>541.033805</ele>
        <time>2021-10-27T13:19:21.000Z</time>
      </trkpt>
      <trkpt lat="40.319486" lon="-3.482103">
        <ele>541.195235</ele>
        <time>2021-10-27T13:19:24.000Z</time>
      </trkpt>
      <trkpt lat="40.319310" lon="-3.482056">
        <ele>541.360409</ele>
        <time>2021-10-27T13:19:27.000Z</time>
      </trkpt>
      <trkpt lat="40.318906" lon="-3.481976">
        <ele>541.566069</ele>
        <time>2021-10-27T13:19:34.000Z</time>
      </trkpt>
      <trkpt lat="40.318644" lon="-3.481912">
        <ele>541.511027</ele>
        <time>2021-10-27T13:19:39.000Z</time>
      </trkpt>
      <trkpt lat="40.318314" lon="-3.481813">
        <ele>541.441111</ele>
        <time>2021-10-27T13:19:45.000Z</time>
      </trkpt>
      <trkpt lat="40.318196" lon="-3.481794">
        <ele>541.416557</ele>
        <time>2021-10-27T13:19:47.000Z</time>
      </trkpt>
      <trkpt lat="40.317907" lon="-3.481822">
        <ele>541.356707</ele>
        <time>2021-10-27T13:19:52.000Z</time>
      </trkpt>
      <trkpt lat="40.317799" lon="-3.481828">
        <ele>541.334381</ele>
        <time>2021-10-27T13:19:54.000Z</time>
      </trkpt>
      <trkpt lat="40.317597" lon="-3.481747">
        <ele>541.290756</ele>
        <time>2021-10-27T13:19:58.000Z</time>
      </trkpt>
      <trkpt lat="40.317550" lon="-3.481710">
        <ele>541.279434</ele>
        <time>2021-10-27T13:19:59.000Z</time>
      </trkpt>
      <trkpt lat="40.317412" lon="-3.481596">
        <ele>541.245750</ele>
        <time>2021-10-27T13:20:02.000Z</time>
      </trkpt>
      <trkpt lat="40.317319" lon="-3.481532">
        <ele>541.234092</ele>
        <time>2021-10-27T13:20:04.000Z</time>
      </trkpt>
      <trkpt lat="40.317192" lon="-3.481449">
        <ele>541.375348</ele>
        <time>2021-10-27T13:20:07.000Z</time>
      </trkpt>
      <trkpt lat="40.317121" lon="-3.481401">
        <ele>541.454866</ele>
        <time>2021-10-27T13:20:09.000Z</time>
      </trkpt>
      <trkpt lat="40.317064" lon="-3.481370">
        <ele>541.516295</ele>
        <time>2021-10-27T13:20:12.000Z</time>
      </trkpt>
      <trkpt lat="40.317052" lon="-3.481375">
        <ele>541.528830</ele>
        <time>2021-10-27T13:20:13.000Z</time>
      </trkpt>
      <trkpt lat="40.316991" lon="-3.481374">
        <ele>541.589560</ele>
        <time>2021-10-27T13:20:16.000Z</time>
      </trkpt>
      <trkpt lat="40.316877" lon="-3.481256">
        <ele>541.734135</ele>
        <time>2021-10-27T13:20:20.000Z</time>
      </trkpt>
      <trkpt lat="40.316762" lon="-3.481081">
        <ele>541.909494</ele>
        <time>2021-10-27T13:20:24.000Z</time>
      </trkpt>
      <trkpt lat="40.316742" lon="-3.481020">
        <ele>541.959896</ele>
        <time>2021-10-27T13:20:25.000Z</time>
      </trkpt>
      <trkpt lat="40.316724" lon="-3.480964">
        <ele>542.006025</ele>
        <time>2021-10-27T13:20:26.000Z</time>
      </trkpt>
      <trkpt lat="40.316624" lon="-3.480779">
        <ele>542.178157</ele>
        <time>2021-10-27T13:20:30.000Z</time>
      </trkpt>
      <trkpt lat="40.316503" lon="-3.480500">
        <ele>542.421793</ele>
        <time>2021-10-27T13:20:36.000Z</time>
      </trkpt>
      <trkpt lat="40.316486" lon="-3.480461">
        <ele>542.455892</ele>
        <time>2021-10-27T13:20:37.000Z</time>
      </trkpt>
      <trkpt lat="40.316416" lon="-3.480221">
        <ele>542.650938</ele>
        <time>2021-10-27T13:20:42.000Z</time>
      </trkpt>
      <trkpt lat="40.316387" lon="-3.480014">
        <ele>542.810692</ele>
        <time>2021-10-27T13:20:46.000Z</time>
      </trkpt>
      <trkpt lat="40.316379" lon="-3.479963">
        <ele>542.850215</ele>
        <time>2021-10-27T13:20:47.000Z</time>
      </trkpt>
      <trkpt lat="40.316371" lon="-3.479907">
        <ele>542.893461</ele>
        <time>2021-10-27T13:20:48.000Z</time>
      </trkpt>
      <trkpt lat="40.316352" lon="-3.479793">
        <ele>542.982037</ele>
        <time>2021-10-27T13:20:50.000Z</time>
      </trkpt>
      <trkpt lat="40.316347" lon="-3.479742">
        <ele>543.023546</ele>
        <time>2021-10-27T13:20:51.000Z</time>
      </trkpt>
      <trkpt lat="40.316318" lon="-3.479483">
        <ele>543.326388</ele>
        <time>2021-10-27T13:20:56.000Z</time>
      </trkpt>
      <trkpt lat="40.316318" lon="-3.479426">
        <ele>543.392329</ele>
        <time>2021-10-27T13:20:57.000Z</time>
      </trkpt>
      <trkpt lat="40.316300" lon="-3.479252">
        <ele>543.595468</ele>
        <time>2021-10-27T13:21:00.000Z</time>
      </trkpt>
      <trkpt lat="40.316289" lon="-3.479134">
        <ele>543.732994</ele>
        <time>2021-10-27T13:21:02.000Z</time>
      </trkpt>
      <trkpt lat="40.316279" lon="-3.479011">
        <ele>543.876096</ele>
        <time>2021-10-27T13:21:04.000Z</time>
      </trkpt>
      <trkpt lat="40.316264" lon="-3.478828">
        <ele>544.089022</ele>
        <time>2021-10-27T13:21:07.000Z</time>
      </trkpt>
      <trkpt lat="40.316246" lon="-3.478274">
        <ele>544.730508</ele>
        <time>2021-10-27T13:21:16.000Z</time>
      </trkpt>
      <trkpt lat="40.316244" lon="-3.478083">
        <ele>544.951490</ele>
        <time>2021-10-27T13:21:19.000Z</time>
      </trkpt>
      <trkpt lat="40.316245" lon="-3.477881">
        <ele>545.185182</ele>
        <time>2021-10-27T13:21:22.000Z</time>
      </trkpt>
      <trkpt lat="40.316239" lon="-3.477746">
        <ele>545.341624</ele>
        <time>2021-10-27T13:21:24.000Z</time>
      </trkpt>
      <trkpt lat="40.316233" lon="-3.477544">
        <ele>545.575489</ele>
        <time>2021-10-27T13:21:27.000Z</time>
      </trkpt>
      <trkpt lat="40.316217" lon="-3.477284">
        <ele>545.857833</ele>
        <time>2021-10-27T13:21:31.000Z</time>
      </trkpt>
      <trkpt lat="40.316213" lon="-3.477157">
        <ele>545.983240</ele>
        <time>2021-10-27T13:21:33.000Z</time>
      </trkpt>
      <trkpt lat="40.316211" lon="-3.477098">
        <ele>546.041508</ele>
        <time>2021-10-27T13:21:34.000Z</time>
      </trkpt>
      <trkpt lat="40.316208" lon="-3.476979">
        <ele>546.158980</ele>
        <time>2021-10-27T13:21:36.000Z</time>
      </trkpt>
      <trkpt lat="40.316196" lon="-3.476801">
        <ele>546.335283</ele>
        <time>2021-10-27T13:21:39.000Z</time>
      </trkpt>
      <trkpt lat="40.316182" lon="-3.476682">
        <ele>546.454080</ele>
        <time>2021-10-27T13:21:41.000Z</time>
      </trkpt>
      <trkpt lat="40.316159" lon="-3.476421">
        <ele>546.713301</ele>
        <time>2021-10-27T13:21:45.000Z</time>
      </trkpt>
      <trkpt lat="40.316148" lon="-3.476295">
        <ele>546.838428</ele>
        <time>2021-10-27T13:21:47.000Z</time>
      </trkpt>
      <trkpt lat="40.316138" lon="-3.476104">
        <ele>547.027316</ele>
        <time>2021-10-27T13:21:50.000Z</time>
      </trkpt>
      <trkpt lat="40.316142" lon="-3.476042">
        <ele>547.088704</ele>
        <time>2021-10-27T13:21:51.000Z</time>
      </trkpt>
      <trkpt lat="40.316098" lon="-3.475531">
        <ele>547.596071</ele>
        <time>2021-10-27T13:21:59.000Z</time>
      </trkpt>
      <trkpt lat="40.316049" lon="-3.474894">
        <ele>548.322089</ele>
        <time>2021-10-27T13:22:09.000Z</time>
      </trkpt>
      <trkpt lat="40.316000" lon="-3.474521">
        <ele>548.922704</ele>
        <time>2021-10-27T13:22:15.000Z</time>
      </trkpt>
      <trkpt lat="40.315989" lon="-3.474465">
        <ele>549.014469</ele>
        <time>2021-10-27T13:22:16.000Z</time>
      </trkpt>
      <trkpt lat="40.315971" lon="-3.474356">
        <ele>549.191446</ele>
        <time>2021-10-27T13:22:18.000Z</time>
      </trkpt>
      <trkpt lat="40.315957" lon="-3.474291">
        <ele>549.298627</ele>
        <time>2021-10-27T13:22:19.000Z</time>
      </trkpt>
      <trkpt lat="40.315895" lon="-3.473973">
        <ele>549.819482</ele>
        <time>2021-10-27T13:22:24.000Z</time>
      </trkpt>
      <trkpt lat="40.315839" lon="-3.473726">
        <ele>550.228394</ele>
        <time>2021-10-27T13:22:28.000Z</time>
      </trkpt>
      <trkpt lat="40.315760" lon="-3.473369">
        <ele>550.818277</ele>
        <time>2021-10-27T13:22:34.000Z</time>
      </trkpt>
      <trkpt lat="40.315745" lon="-3.473309">
        <ele>550.918475</ele>
        <time>2021-10-27T13:22:35.000Z</time>
      </trkpt>
      <trkpt lat="40.315730" lon="-3.473249">
        <ele>551.018674</ele>
        <time>2021-10-27T13:22:36.000Z</time>
      </trkpt>
      <trkpt lat="40.315587" lon="-3.472597">
        <ele>552.073907</ele>
        <time>2021-10-27T13:22:47.000Z</time>
      </trkpt>
      <trkpt lat="40.315573" lon="-3.472540">
        <ele>552.161673</ele>
        <time>2021-10-27T13:22:48.000Z</time>
      </trkpt>
      <trkpt lat="40.315487" lon="-3.472133">
        <ele>552.780648</ele>
        <time>2021-10-27T13:22:55.000Z</time>
      </trkpt>
      <trkpt lat="40.315449" lon="-3.471956">
        <ele>553.050144</ele>
        <time>2021-10-27T13:22:58.000Z</time>
      </trkpt>
      <trkpt lat="40.315426" lon="-3.471838">
        <ele>553.228645</ele>
        <time>2021-10-27T13:23:00.000Z</time>
      </trkpt>
      <trkpt lat="40.315383" lon="-3.471602">
        <ele>553.584263</ele>
        <time>2021-10-27T13:23:04.000Z</time>
      </trkpt>
      <trkpt lat="40.315344" lon="-3.471427">
        <ele>553.851472</ele>
        <time>2021-10-27T13:23:07.000Z</time>
      </trkpt>
      <trkpt lat="40.315262" lon="-3.471010">
        <ele>554.482621</ele>
        <time>2021-10-27T13:23:14.000Z</time>
      </trkpt>
      <trkpt lat="40.315219" lon="-3.470768">
        <ele>554.846798</ele>
        <time>2021-10-27T13:23:18.000Z</time>
      </trkpt>
      <trkpt lat="40.315204" lon="-3.470707">
        <ele>554.940733</ele>
        <time>2021-10-27T13:23:19.000Z</time>
      </trkpt>
      <trkpt lat="40.315148" lon="-3.470528">
        <ele>555.224298</ele>
        <time>2021-10-27T13:23:22.000Z</time>
      </trkpt>
      <trkpt lat="40.315089" lon="-3.470290">
        <ele>555.553851</ele>
        <time>2021-10-27T13:23:26.000Z</time>
      </trkpt>
      <trkpt lat="40.314961" lon="-3.469825">
        <ele>556.193577</ele>
        <time>2021-10-27T13:23:34.000Z</time>
      </trkpt>
      <trkpt lat="40.314917" lon="-3.469717">
        <ele>556.352028</ele>
        <time>2021-10-27T13:23:36.000Z</time>
      </trkpt>
      <trkpt lat="40.314686" lon="-3.469303">
        <ele>557.015867</ele>
        <time>2021-10-27T13:23:44.000Z</time>
      </trkpt>
      <trkpt lat="40.314653" lon="-3.469256">
        <ele>557.098543</ele>
        <time>2021-10-27T13:23:45.000Z</time>
      </trkpt>
      <trkpt lat="40.314250" lon="-3.468768">
        <ele>558.029412</ele>
        <time>2021-10-27T13:23:56.000Z</time>
      </trkpt>
      <trkpt lat="40.313824" lon="-3.468279">
        <ele>558.936338</ele>
        <time>2021-10-27T13:24:07.000Z</time>
      </trkpt>
      <trkpt lat="40.313786" lon="-3.468232">
        <ele>559.017802</ele>
        <time>2021-10-27T13:24:08.000Z</time>
      </trkpt>
      <trkpt lat="40.313709" lon="-3.468143">
        <ele>559.177876</ele>
        <time>2021-10-27T13:24:10.000Z</time>
      </trkpt>
      <trkpt lat="40.313635" lon="-3.468054">
        <ele>559.334470</ele>
        <time>2021-10-27T13:24:12.000Z</time>
      </trkpt>
      <trkpt lat="40.313419" lon="-3.467778">
        <ele>559.804806</ele>
        <time>2021-10-27T13:24:18.000Z</time>
      </trkpt>
      <trkpt lat="40.313383" lon="-3.467732">
        <ele>559.883195</ele>
        <time>2021-10-27T13:24:19.000Z</time>
      </trkpt>
      <trkpt lat="40.313088" lon="-3.467275">
        <ele>560.595265</ele>
        <time>2021-10-27T13:24:28.000Z</time>
      </trkpt>
      <trkpt lat="40.312969" lon="-3.467056">
        <ele>560.915068</ele>
        <time>2021-10-27T13:24:32.000Z</time>
      </trkpt>
      <trkpt lat="40.312887" lon="-3.466884">
        <ele>561.166789</ele>
        <time>2021-10-27T13:24:35.000Z</time>
      </trkpt>
      <trkpt lat="40.312706" lon="-3.466474">
        <ele>561.960552</ele>
        <time>2021-10-27T13:24:42.000Z</time>
      </trkpt>
      <trkpt lat="40.312571" lon="-3.466177">
        <ele>562.539873</ele>
        <time>2021-10-27T13:24:47.000Z</time>
      </trkpt>
      <trkpt lat="40.312500" lon="-3.466016">
        <ele>562.851488</ele>
        <time>2021-10-27T13:24:50.000Z</time>
      </trkpt>
      <trkpt lat="40.312468" lon="-3.465925">
        <ele>563.019388</ele>
        <time>2021-10-27T13:24:52.000Z</time>
      </trkpt>
      <trkpt lat="40.312421" lon="-3.465806">
        <ele>563.243928</ele>
        <time>2021-10-27T13:24:55.000Z</time>
      </trkpt>
      <trkpt lat="40.312354" lon="-3.465679">
        <ele>563.502677</ele>
        <time>2021-10-27T13:24:58.000Z</time>
      </trkpt>
      <trkpt lat="40.312312" lon="-3.465586">
        <ele>563.683775</ele>
        <time>2021-10-27T13:25:00.000Z</time>
      </trkpt>
      <trkpt lat="40.312228" lon="-3.465392">
        <ele>564.057566</ele>
        <time>2021-10-27T13:25:04.000Z</time>
      </trkpt>
      <trkpt lat="40.312185" lon="-3.465294">
        <ele>564.247007</ele>
        <time>2021-10-27T13:25:06.000Z</time>
      </trkpt>
      <trkpt lat="40.312092" lon="-3.465093">
        <ele>564.640927</ele>
        <time>2021-10-27T13:25:10.000Z</time>
      </trkpt>
      <trkpt lat="40.312025" lon="-3.464934">
        <ele>564.945301</ele>
        <time>2021-10-27T13:25:13.000Z</time>
      </trkpt>
      <trkpt lat="40.311914" lon="-3.464675">
        <ele>565.393734</ele>
        <time>2021-10-27T13:25:18.000Z</time>
      </trkpt>
      <trkpt lat="40.311733" lon="-3.464258">
        <ele>566.087542</ele>
        <time>2021-10-27T13:25:26.000Z</time>
      </trkpt>
      <trkpt lat="40.311711" lon="-3.464209">
        <ele>566.169764</ele>
        <time>2021-10-27T13:25:27.000Z</time>
      </trkpt>
      <trkpt lat="40.311523" lon="-3.463796">
        <ele>566.865263</ele>
        <time>2021-10-27T13:25:35.000Z</time>
      </trkpt>
      <trkpt lat="40.311458" lon="-3.463636">
        <ele>567.127403</ele>
        <time>2021-10-27T13:25:38.000Z</time>
      </trkpt>
      <trkpt lat="40.311258" lon="-3.463205">
        <ele>567.856943</ele>
        <time>2021-10-27T13:25:46.000Z</time>
      </trkpt>
      <trkpt lat="40.311181" lon="-3.463037">
        <ele>568.140371</ele>
        <time>2021-10-27T13:25:49.000Z</time>
      </trkpt>
      <trkpt lat="40.311027" lon="-3.462711">
        <ele>568.749500</ele>
        <time>2021-10-27T13:25:55.000Z</time>
      </trkpt>
      <trkpt lat="40.310857" lon="-3.462334">
        <ele>569.554542</ele>
        <time>2021-10-27T13:26:02.000Z</time>
      </trkpt>
      <trkpt lat="40.310700" lon="-3.462007">
        <ele>570.264804</ele>
        <time>2021-10-27T13:26:08.000Z</time>
      </trkpt>
      <trkpt lat="40.310650" lon="-3.461895">
        <ele>570.503352</ele>
        <time>2021-10-27T13:26:10.000Z</time>
      </trkpt>
      <trkpt lat="40.310548" lon="-3.461675">
        <ele>570.976605</ele>
        <time>2021-10-27T13:26:14.000Z</time>
      </trkpt>
      <trkpt lat="40.310471" lon="-3.461513">
        <ele>571.327482</ele>
        <time>2021-10-27T13:26:17.000Z</time>
      </trkpt>
      <trkpt lat="40.310225" lon="-3.460983">
        <ele>572.467936</ele>
        <time>2021-10-27T13:26:27.000Z</time>
      </trkpt>
      <trkpt lat="40.310153" lon="-3.460827">
        <ele>572.803108</ele>
        <time>2021-10-27T13:26:30.000Z</time>
      </trkpt>
      <trkpt lat="40.309940" lon="-3.460350">
        <ele>573.642106</ele>
        <time>2021-10-27T13:26:39.000Z</time>
      </trkpt>
      <trkpt lat="40.309915" lon="-3.460298">
        <ele>573.734895</ele>
        <time>2021-10-27T13:26:40.000Z</time>
      </trkpt>
      <trkpt lat="40.309722" lon="-3.459884">
        <ele>574.467338</ele>
        <time>2021-10-27T13:26:48.000Z</time>
      </trkpt>
      <trkpt lat="40.309698" lon="-3.459833">
        <ele>574.557799</ele>
        <time>2021-10-27T13:26:49.000Z</time>
      </trkpt>
      <trkpt lat="40.309572" lon="-3.459571">
        <ele>575.025358</ele>
        <time>2021-10-27T13:26:54.000Z</time>
      </trkpt>
      <trkpt lat="40.309458" lon="-3.459326">
        <ele>575.458588</ele>
        <time>2021-10-27T13:26:59.000Z</time>
      </trkpt>
      <trkpt lat="40.309301" lon="-3.458960">
        <ele>576.092465</ele>
        <time>2021-10-27T13:27:06.000Z</time>
      </trkpt>
      <trkpt lat="40.309113" lon="-3.458555">
        <ele>576.838324</ele>
        <time>2021-10-27T13:27:13.000Z</time>
      </trkpt>
      <trkpt lat="40.309089" lon="-3.458498">
        <ele>576.943687</ele>
        <time>2021-10-27T13:27:14.000Z</time>
      </trkpt>
      <trkpt lat="40.308916" lon="-3.458121">
        <ele>577.655683</ele>
        <time>2021-10-27T13:27:21.000Z</time>
      </trkpt>
      <trkpt lat="40.308814" lon="-3.457921">
        <ele>578.045029</ele>
        <time>2021-10-27T13:27:25.000Z</time>
      </trkpt>
      <trkpt lat="40.308717" lon="-3.457707">
        <ele>578.447878</ele>
        <time>2021-10-27T13:27:29.000Z</time>
      </trkpt>
      <trkpt lat="40.308638" lon="-3.457542">
        <ele>578.763145</ele>
        <time>2021-10-27T13:27:32.000Z</time>
      </trkpt>
      <trkpt lat="40.308509" lon="-3.457260">
        <ele>579.295284</ele>
        <time>2021-10-27T13:27:37.000Z</time>
      </trkpt>
      <trkpt lat="40.308484" lon="-3.457203">
        <ele>579.401689</ele>
        <time>2021-10-27T13:27:38.000Z</time>
      </trkpt>
      <trkpt lat="40.308409" lon="-3.457039">
        <ele>579.711138</ele>
        <time>2021-10-27T13:27:41.000Z</time>
      </trkpt>
      <trkpt lat="40.308333" lon="-3.456875">
        <ele>580.021683</ele>
        <time>2021-10-27T13:27:44.000Z</time>
      </trkpt>
      <trkpt lat="40.308260" lon="-3.456711">
        <ele>580.328786</ele>
        <time>2021-10-27T13:27:47.000Z</time>
      </trkpt>
      <trkpt lat="40.308106" lon="-3.456379">
        <ele>580.956667</ele>
        <time>2021-10-27T13:27:53.000Z</time>
      </trkpt>
      <trkpt lat="40.308081" lon="-3.456326">
        <ele>581.057362</ele>
        <time>2021-10-27T13:27:54.000Z</time>
      </trkpt>
      <trkpt lat="40.307987" lon="-3.456110">
        <ele>581.459201</ele>
        <time>2021-10-27T13:27:58.000Z</time>
      </trkpt>
      <trkpt lat="40.307762" lon="-3.455613">
        <ele>582.393093</ele>
        <time>2021-10-27T13:28:07.000Z</time>
      </trkpt>
      <trkpt lat="40.307740" lon="-3.455557">
        <ele>582.494878</ele>
        <time>2021-10-27T13:28:08.000Z</time>
      </trkpt>
      <trkpt lat="40.307716" lon="-3.455500">
        <ele>582.600084</ele>
        <time>2021-10-27T13:28:09.000Z</time>
      </trkpt>
      <trkpt lat="40.307561" lon="-3.455176">
        <ele>583.218086</ele>
        <time>2021-10-27T13:28:15.000Z</time>
      </trkpt>
      <trkpt lat="40.307512" lon="-3.455068">
        <ele>583.421140</ele>
        <time>2021-10-27T13:28:17.000Z</time>
      </trkpt>
      <trkpt lat="40.307412" lon="-3.454854">
        <ele>583.826674</ele>
        <time>2021-10-27T13:28:21.000Z</time>
      </trkpt>
      <trkpt lat="40.307221" lon="-3.454422">
        <ele>584.676062</ele>
        <time>2021-10-27T13:28:29.000Z</time>
      </trkpt>
      <trkpt lat="40.307027" lon="-3.453996">
        <ele>585.533107</ele>
        <time>2021-10-27T13:28:37.000Z</time>
      </trkpt>
      <trkpt lat="40.306978" lon="-3.453889">
        <ele>585.748691</ele>
        <time>2021-10-27T13:28:39.000Z</time>
      </trkpt>
      <trkpt lat="40.306848" lon="-3.453636">
        <ele>586.275642</ele>
        <time>2021-10-27T13:28:44.000Z</time>
      </trkpt>
      <trkpt lat="40.306705" lon="-3.453322">
        <ele>586.907368</ele>
        <time>2021-10-27T13:28:50.000Z</time>
      </trkpt>
      <trkpt lat="40.306601" lon="-3.453107">
        <ele>587.347147</ele>
        <time>2021-10-27T13:28:54.000Z</time>
      </trkpt>
      <trkpt lat="40.306477" lon="-3.452848">
        <ele>587.875377</ele>
        <time>2021-10-27T13:28:59.000Z</time>
      </trkpt>
      <trkpt lat="40.306428" lon="-3.452748">
        <ele>588.080691</ele>
        <time>2021-10-27T13:29:01.000Z</time>
      </trkpt>
      <trkpt lat="40.306376" lon="-3.452619">
        <ele>588.035795</ele>
        <time>2021-10-27T13:29:04.000Z</time>
      </trkpt>
      <trkpt lat="40.306331" lon="-3.452588">
        <ele>588.009443</ele>
        <time>2021-10-27T13:29:07.000Z</time>
      </trkpt>
      <trkpt lat="40.306320" lon="-3.452583">
        <ele>588.003407</ele>
        <time>2021-10-27T13:29:10.000Z</time>
      </trkpt>
      <trkpt lat="40.306312" lon="-3.452567">
        <ele>587.995843</ele>
        <time>2021-10-27T13:29:11.000Z</time>
      </trkpt>
      <trkpt lat="40.306278" lon="-3.452550">
        <ele>587.976979</ele>
        <time>2021-10-27T13:30:04.000Z</time>
      </trkpt>
      <trkpt lat="40.306207" lon="-3.452646">
        <ele>587.924108</ele>
        <time>2021-10-27T13:30:07.000Z</time>
      </trkpt>
      <trkpt lat="40.306047" lon="-3.452772">
        <ele>587.827352</ele>
        <time>2021-10-27T13:30:11.000Z</time>
      </trkpt>
      <trkpt lat="40.305967" lon="-3.452848">
        <ele>587.776137</ele>
        <time>2021-10-27T13:30:13.000Z</time>
      </trkpt>
      <trkpt lat="40.305752" lon="-3.453043">
        <ele>587.640612</ele>
        <time>2021-10-27T13:30:18.000Z</time>
      </trkpt>
      <trkpt lat="40.305659" lon="-3.453123">
        <ele>587.582950</ele>
        <time>2021-10-27T13:30:20.000Z</time>
      </trkpt>
      <trkpt lat="40.305568" lon="-3.453201">
        <ele>587.526589</ele>
        <time>2021-10-27T13:30:22.000Z</time>
      </trkpt>
      <trkpt lat="40.305289" lon="-3.453430">
        <ele>587.355950</ele>
        <time>2021-10-27T13:30:28.000Z</time>
      </trkpt>
      <trkpt lat="40.305243" lon="-3.453468">
        <ele>587.327764</ele>
        <time>2021-10-27T13:30:29.000Z</time>
      </trkpt>
      <trkpt lat="40.305052" lon="-3.453621">
        <ele>587.211731</ele>
        <time>2021-10-27T13:30:34.000Z</time>
      </trkpt>
      <trkpt lat="40.305008" lon="-3.453659">
        <ele>587.184417</ele>
        <time>2021-10-27T13:30:37.000Z</time>
      </trkpt>
      <trkpt lat="40.304996" lon="-3.453668">
        <ele>587.177250</ele>
        <time>2021-10-27T13:30:38.000Z</time>
      </trkpt>
      <trkpt lat="40.304911" lon="-3.453739">
        <ele>587.287460</ele>
        <time>2021-10-27T13:30:43.000Z</time>
      </trkpt>
      <trkpt lat="40.304901" lon="-3.453745">
        <ele>587.309296</ele>
        <time>2021-10-27T13:30:44.000Z</time>
      </trkpt>
      <trkpt lat="40.304871" lon="-3.453763">
        <ele>587.374805</ele>
        <time>2021-10-27T13:30:48.000Z</time>
      </trkpt>
      <trkpt lat="40.304865" lon="-3.453772">
        <ele>587.392907</ele>
        <time>2021-10-27T13:30:49.000Z</time>
      </trkpt>
      <trkpt lat="40.304791" lon="-3.453892">
        <ele>587.626594</ele>
        <time>2021-10-27T13:30:54.000Z</time>
      </trkpt>
      <trkpt lat="40.304761" lon="-3.453985">
        <ele>587.779501</ele>
        <time>2021-10-27T13:30:56.000Z</time>
      </trkpt>
      <trkpt lat="40.304719" lon="-3.454086">
        <ele>587.953702</ele>
        <time>2021-10-27T13:30:58.000Z</time>
      </trkpt>
      <trkpt lat="40.304688" lon="-3.454135">
        <ele>588.050110</ele>
        <time>2021-10-27T13:30:59.000Z</time>
      </trkpt>
      <trkpt lat="40.304649" lon="-3.454178">
        <ele>588.151287</ele>
        <time>2021-10-27T13:31:00.000Z</time>
      </trkpt>
      <trkpt lat="40.304551" lon="-3.454220">
        <ele>588.356008</ele>
        <time>2021-10-27T13:31:02.000Z</time>
      </trkpt>
      <trkpt lat="40.304458" lon="-3.454200">
        <ele>588.543138</ele>
        <time>2021-10-27T13:31:04.000Z</time>
      </trkpt>
      <trkpt lat="40.304417" lon="-3.454171">
        <ele>588.635638</ele>
        <time>2021-10-27T13:31:05.000Z</time>
      </trkpt>
      <trkpt lat="40.304381" lon="-3.454133">
        <ele>588.727403</ele>
        <time>2021-10-27T13:31:06.000Z</time>
      </trkpt>
      <trkpt lat="40.304328" lon="-3.454034">
        <ele>588.910568</ele>
        <time>2021-10-27T13:31:08.000Z</time>
      </trkpt>
      <trkpt lat="40.304311" lon="-3.453977">
        <ele>589.003247</ele>
        <time>2021-10-27T13:31:09.000Z</time>
      </trkpt>
      <trkpt lat="40.304301" lon="-3.453915">
        <ele>589.099210</ele>
        <time>2021-10-27T13:31:10.000Z</time>
      </trkpt>
      <trkpt lat="40.304294" lon="-3.453668">
        <ele>589.473495</ele>
        <time>2021-10-27T13:31:14.000Z</time>
      </trkpt>
      <trkpt lat="40.304215" lon="-3.453256">
        <ele>590.116797</ele>
        <time>2021-10-27T13:31:21.000Z</time>
      </trkpt>
      <trkpt lat="40.304186" lon="-3.453084">
        <ele>590.383543</ele>
        <time>2021-10-27T13:31:24.000Z</time>
      </trkpt>
      <trkpt lat="40.304165" lon="-3.452903">
        <ele>590.660782</ele>
        <time>2021-10-27T13:31:27.000Z</time>
      </trkpt>
      <trkpt lat="40.304125" lon="-3.452678">
        <ele>591.070439</ele>
        <time>2021-10-27T13:31:31.000Z</time>
      </trkpt>
      <trkpt lat="40.304084" lon="-3.452478">
        <ele>591.450901</ele>
        <time>2021-10-27T13:31:35.000Z</time>
      </trkpt>
      <trkpt lat="40.304069" lon="-3.452427">
        <ele>591.551319</ele>
        <time>2021-10-27T13:31:36.000Z</time>
      </trkpt>
      <trkpt lat="40.304024" lon="-3.452276">
        <ele>591.849149</ele>
        <time>2021-10-27T13:31:39.000Z</time>
      </trkpt>
      <trkpt lat="40.304014" lon="-3.452223">
        <ele>591.949451</ele>
        <time>2021-10-27T13:31:40.000Z</time>
      </trkpt>
      <trkpt lat="40.303987" lon="-3.452056">
        <ele>592.263065</ele>
        <time>2021-10-27T13:31:43.000Z</time>
      </trkpt>
      <trkpt lat="40.303969" lon="-3.451945">
        <ele>592.471542</ele>
        <time>2021-10-27T13:31:45.000Z</time>
      </trkpt>
      <trkpt lat="40.303959" lon="-3.451890">
        <ele>592.575415</ele>
        <time>2021-10-27T13:31:46.000Z</time>
      </trkpt>
      <trkpt lat="40.303945" lon="-3.451842">
        <ele>592.669825</ele>
        <time>2021-10-27T13:31:47.000Z</time>
      </trkpt>
      <trkpt lat="40.303933" lon="-3.451790">
        <ele>592.769632</ele>
        <time>2021-10-27T13:31:48.000Z</time>
      </trkpt>
      <trkpt lat="40.303923" lon="-3.451737">
        <ele>592.869934</ele>
        <time>2021-10-27T13:31:49.000Z</time>
      </trkpt>
      <trkpt lat="40.303912" lon="-3.451684">
        <ele>592.970842</ele>
        <time>2021-10-27T13:31:50.000Z</time>
      </trkpt>
      <trkpt lat="40.303896" lon="-3.451584">
        <ele>593.158551</ele>
        <time>2021-10-27T13:31:52.000Z</time>
      </trkpt>
      <trkpt lat="40.303889" lon="-3.451537">
        <ele>593.246526</ele>
        <time>2021-10-27T13:31:53.000Z</time>
      </trkpt>
      <trkpt lat="40.303867" lon="-3.451485">
        <ele>593.355771</ele>
        <time>2021-10-27T13:31:55.000Z</time>
      </trkpt>
      <trkpt lat="40.303836" lon="-3.451465">
        <ele>593.438997</ele>
        <time>2021-10-27T13:31:57.000Z</time>
      </trkpt>
      <trkpt lat="40.303780" lon="-3.451447">
        <ele>593.577891</ele>
        <time>2021-10-27T13:31:59.000Z</time>
      </trkpt>
      <trkpt lat="40.303744" lon="-3.451470">
        <ele>593.674358</ele>
        <time>2021-10-27T13:32:00.000Z</time>
      </trkpt>
      <trkpt lat="40.303716" lon="-3.451529">
        <ele>593.802020</ele>
        <time>2021-10-27T13:32:01.000Z</time>
      </trkpt>
      <trkpt lat="40.303673" lon="-3.451661">
        <ele>594.065715</ele>
        <time>2021-10-27T13:32:03.000Z</time>
      </trkpt>
      <trkpt lat="40.303592" lon="-3.451864">
        <ele>594.486609</ele>
        <time>2021-10-27T13:32:06.000Z</time>
      </trkpt>
      <trkpt lat="40.303558" lon="-3.451928">
        <ele>594.629899</ele>
        <time>2021-10-27T13:32:07.000Z</time>
      </trkpt>
      <trkpt lat="40.303522" lon="-3.451983">
        <ele>594.763053</ele>
        <time>2021-10-27T13:32:08.000Z</time>
      </trkpt>
      <trkpt lat="40.303455" lon="-3.452082">
        <ele>595.006214</ele>
        <time>2021-10-27T13:32:10.000Z</time>
      </trkpt>
      <trkpt lat="40.303418" lon="-3.452194">
        <ele>595.135315</ele>
        <time>2021-10-27T13:32:12.000Z</time>
      </trkpt>
      <trkpt lat="40.303377" lon="-3.452304">
        <ele>595.232558</ele>
        <time>2021-10-27T13:32:14.000Z</time>
      </trkpt>
      <trkpt lat="40.303290" lon="-3.452442">
        <ele>595.374765</ele>
        <time>2021-10-27T13:32:17.000Z</time>
      </trkpt>
      <trkpt lat="40.303238" lon="-3.452616">
        <ele>595.523195</ele>
        <time>2021-10-27T13:32:20.000Z</time>
      </trkpt>
      <trkpt lat="40.303232" lon="-3.452680">
        <ele>595.574409</ele>
        <time>2021-10-27T13:32:21.000Z</time>
      </trkpt>
      <trkpt lat="40.303217" lon="-3.452810">
        <ele>595.678836</ele>
        <time>2021-10-27T13:32:23.000Z</time>
      </trkpt>
      <trkpt lat="40.303149" lon="-3.453043">
        <ele>595.876982</ele>
        <time>2021-10-27T13:32:27.000Z</time>
      </trkpt>
      <trkpt lat="40.303056" lon="-3.453258">
        <ele>596.073300</ele>
        <time>2021-10-27T13:32:31.000Z</time>
      </trkpt>
      <trkpt lat="40.302970" lon="-3.453410">
        <ele>596.223621</ele>
        <time>2021-10-27T13:32:34.000Z</time>
      </trkpt>
      <trkpt lat="40.302936" lon="-3.453457">
        <ele>596.275073</ele>
        <time>2021-10-27T13:32:35.000Z</time>
      </trkpt>
      <trkpt lat="40.302554" lon="-3.453865">
        <ele>596.788184</ele>
        <time>2021-10-27T13:32:45.000Z</time>
      </trkpt>
      <trkpt lat="40.302422" lon="-3.453968">
        <ele>596.939570</ele>
        <time>2021-10-27T13:32:48.000Z</time>
      </trkpt>
      <trkpt lat="40.302148" lon="-3.454143">
        <ele>597.031669</ele>
        <time>2021-10-27T13:32:54.000Z</time>
      </trkpt>
      <trkpt lat="40.302099" lon="-3.454169">
        <ele>597.047643</ele>
        <time>2021-10-27T13:32:55.000Z</time>
      </trkpt>
      <trkpt lat="40.301899" lon="-3.454266">
        <ele>597.112082</ele>
        <time>2021-10-27T13:32:59.000Z</time>
      </trkpt>
      <trkpt lat="40.301581" lon="-3.454419">
        <ele>597.214442</ele>
        <time>2021-10-27T13:33:05.000Z</time>
      </trkpt>
      <trkpt lat="40.301083" lon="-3.454671">
        <ele>597.375748</ele>
        <time>2021-10-27T13:33:14.000Z</time>
      </trkpt>
      <trkpt lat="40.300857" lon="-3.454904">
        <ele>597.462625</ele>
        <time>2021-10-27T13:33:19.000Z</time>
      </trkpt>
      <trkpt lat="40.300783" lon="-3.455012">
        <ele>597.620530</ele>
        <time>2021-10-27T13:33:21.000Z</time>
      </trkpt>
      <trkpt lat="40.300735" lon="-3.455142">
        <ele>597.904885</ele>
        <time>2021-10-27T13:33:23.000Z</time>
      </trkpt>
      <trkpt lat="40.300688" lon="-3.455267">
        <ele>598.179262</ele>
        <time>2021-10-27T13:33:25.000Z</time>
      </trkpt>
      <trkpt lat="40.300614" lon="-3.455363">
        <ele>598.447985</ele>
        <time>2021-10-27T13:33:27.000Z</time>
      </trkpt>
      <trkpt lat="40.300467" lon="-3.455440">
        <ele>598.856614</ele>
        <time>2021-10-27T13:33:30.000Z</time>
      </trkpt>
      <trkpt lat="40.300418" lon="-3.455469">
        <ele>598.995393</ele>
        <time>2021-10-27T13:33:31.000Z</time>
      </trkpt>
      <trkpt lat="40.300367" lon="-3.455481">
        <ele>599.129149</ele>
        <time>2021-10-27T13:33:32.000Z</time>
      </trkpt>
      <trkpt lat="40.300270" lon="-3.455447">
        <ele>599.388340</ele>
        <time>2021-10-27T13:33:34.000Z</time>
      </trkpt>
      <trkpt lat="40.300183" lon="-3.455467">
        <ele>599.616350</ele>
        <time>2021-10-27T13:33:36.000Z</time>
      </trkpt>
      <trkpt lat="40.300154" lon="-3.455504">
        <ele>599.720804</ele>
        <time>2021-10-27T13:33:37.000Z</time>
      </trkpt>
      <trkpt lat="40.300013" lon="-3.455756">
        <ele>600.336131</ele>
        <time>2021-10-27T13:33:43.000Z</time>
      </trkpt>
      <trkpt lat="40.299963" lon="-3.455832">
        <ele>600.533736</ele>
        <time>2021-10-27T13:33:45.000Z</time>
      </trkpt>
      <trkpt lat="40.299907" lon="-3.455903">
        <ele>600.734825</ele>
        <time>2021-10-27T13:33:47.000Z</time>
      </trkpt>
      <trkpt lat="40.299877" lon="-3.455935">
        <ele>600.834658</ele>
        <time>2021-10-27T13:33:48.000Z</time>
      </trkpt>
      <trkpt lat="40.299847" lon="-3.455965">
        <ele>600.932053</ele>
        <time>2021-10-27T13:33:49.000Z</time>
      </trkpt>
      <trkpt lat="40.299817" lon="-3.455995">
        <ele>601.029449</ele>
        <time>2021-10-27T13:33:50.000Z</time>
      </trkpt>
      <trkpt lat="40.299787" lon="-3.456026">
        <ele>601.128050</ele>
        <time>2021-10-27T13:33:51.000Z</time>
      </trkpt>
      <trkpt lat="40.299757" lon="-3.456058">
        <ele>601.227883</ele>
        <time>2021-10-27T13:33:52.000Z</time>
      </trkpt>
      <trkpt lat="40.299727" lon="-3.456091">
        <ele>601.328969</ele>
        <time>2021-10-27T13:33:53.000Z</time>
      </trkpt>
      <trkpt lat="40.299697" lon="-3.456124">
        <ele>601.430056</ele>
        <time>2021-10-27T13:33:54.000Z</time>
      </trkpt>
      <trkpt lat="40.299667" lon="-3.456156">
        <ele>601.529888</ele>
        <time>2021-10-27T13:33:55.000Z</time>
      </trkpt>
      <trkpt lat="40.299608" lon="-3.456224">
        <ele>601.732668</ele>
        <time>2021-10-27T13:33:57.000Z</time>
      </trkpt>
      <trkpt lat="40.299457" lon="-3.456397">
        <ele>602.122179</ele>
        <time>2021-10-27T13:34:02.000Z</time>
      </trkpt>
      <trkpt lat="40.299389" lon="-3.456472">
        <ele>602.121323</ele>
        <time>2021-10-27T13:34:04.000Z</time>
      </trkpt>
      <trkpt lat="40.299354" lon="-3.456510">
        <ele>602.120886</ele>
        <time>2021-10-27T13:34:05.000Z</time>
      </trkpt>
      <trkpt lat="40.299316" lon="-3.456549">
        <ele>602.120421</ele>
        <time>2021-10-27T13:34:06.000Z</time>
      </trkpt>
      <trkpt lat="40.299279" lon="-3.456587">
        <ele>602.119968</ele>
        <time>2021-10-27T13:34:07.000Z</time>
      </trkpt>
      <trkpt lat="40.299241" lon="-3.456628">
        <ele>602.119494</ele>
        <time>2021-10-27T13:34:08.000Z</time>
      </trkpt>
      <trkpt lat="40.299204" lon="-3.456669">
        <ele>602.119028</ele>
        <time>2021-10-27T13:34:09.000Z</time>
      </trkpt>
      <trkpt lat="40.299168" lon="-3.456710">
        <ele>602.118569</ele>
        <time>2021-10-27T13:34:10.000Z</time>
      </trkpt>
      <trkpt lat="40.299132" lon="-3.456752">
        <ele>602.118105</ele>
        <time>2021-10-27T13:34:11.000Z</time>
      </trkpt>
      <trkpt lat="40.299027" lon="-3.456878">
        <ele>602.116734</ele>
        <time>2021-10-27T13:34:14.000Z</time>
      </trkpt>
      <trkpt lat="40.298966" lon="-3.456963">
        <ele>602.115877</ele>
        <time>2021-10-27T13:34:16.000Z</time>
      </trkpt>
      <trkpt lat="40.298859" lon="-3.457147">
        <ele>602.114177</ele>
        <time>2021-10-27T13:34:19.000Z</time>
      </trkpt>
      <trkpt lat="40.298840" lon="-3.457192">
        <ele>602.113799</ele>
        <time>2021-10-27T13:34:20.000Z</time>
      </trkpt>
      <trkpt lat="40.298783" lon="-3.457321">
        <ele>602.112704</ele>
        <time>2021-10-27T13:34:23.000Z</time>
      </trkpt>
      <trkpt lat="40.298738" lon="-3.457398">
        <ele>602.111992</ele>
        <time>2021-10-27T13:34:25.000Z</time>
      </trkpt>
      <trkpt lat="40.298707" lon="-3.457434">
        <ele>602.111593</ele>
        <time>2021-10-27T13:34:26.000Z</time>
      </trkpt>
      <trkpt lat="40.298452" lon="-3.457624">
        <ele>602.108769</ele>
        <time>2021-10-27T13:34:32.000Z</time>
      </trkpt>
      <trkpt lat="40.298261" lon="-3.457692">
        <ele>602.106863</ele>
        <time>2021-10-27T13:34:35.000Z</time>
      </trkpt>
      <trkpt lat="40.298193" lon="-3.457726">
        <ele>602.106162</ele>
        <time>2021-10-27T13:34:36.000Z</time>
      </trkpt>
      <trkpt lat="40.298128" lon="-3.457775">
        <ele>602.105440</ele>
        <time>2021-10-27T13:34:37.000Z</time>
      </trkpt>
      <trkpt lat="40.297998" lon="-3.457903">
        <ele>601.309367</ele>
        <time>2021-10-27T13:34:39.000Z</time>
      </trkpt>
      <trkpt lat="40.297929" lon="-3.457979">
        <ele>600.836181</ele>
        <time>2021-10-27T13:34:40.000Z</time>
      </trkpt>
      <trkpt lat="40.297851" lon="-3.458040">
        <ele>600.359291</ele>
        <time>2021-10-27T13:34:41.000Z</time>
      </trkpt>
      <trkpt lat="40.297763" lon="-3.458082">
        <ele>599.867554</ele>
        <time>2021-10-27T13:34:42.000Z</time>
      </trkpt>
      <trkpt lat="40.297667" lon="-3.458102">
        <ele>599.357148</ele>
        <time>2021-10-27T13:34:43.000Z</time>
      </trkpt>
      <trkpt lat="40.297567" lon="-3.458098">
        <ele>598.831818</ele>
        <time>2021-10-27T13:34:44.000Z</time>
      </trkpt>
      <trkpt lat="40.297464" lon="-3.458082">
        <ele>598.287197</ele>
        <time>2021-10-27T13:34:45.000Z</time>
      </trkpt>
      <trkpt lat="40.297358" lon="-3.458062">
        <ele>597.724873</ele>
        <time>2021-10-27T13:34:46.000Z</time>
      </trkpt>
      <trkpt lat="40.297254" lon="-3.458045">
        <ele>597.174556</ele>
        <time>2021-10-27T13:34:47.000Z</time>
      </trkpt>
      <trkpt lat="40.296963" lon="-3.457994">
        <ele>595.632966</ele>
        <time>2021-10-27T13:34:50.000Z</time>
      </trkpt>
      <trkpt lat="40.296870" lon="-3.457979">
        <ele>595.140955</ele>
        <time>2021-10-27T13:34:51.000Z</time>
      </trkpt>
      <trkpt lat="40.296692" lon="-3.457952">
        <ele>594.200068</ele>
        <time>2021-10-27T13:34:53.000Z</time>
      </trkpt>
      <trkpt lat="40.296365" lon="-3.457902">
        <ele>592.651088</ele>
        <time>2021-10-27T13:34:57.000Z</time>
      </trkpt>
      <trkpt lat="40.296207" lon="-3.457890">
        <ele>592.607998</ele>
        <time>2021-10-27T13:34:59.000Z</time>
      </trkpt>
      <trkpt lat="40.296032" lon="-3.457853">
        <ele>592.559735</ele>
        <time>2021-10-27T13:35:01.000Z</time>
      </trkpt>
      <trkpt lat="40.295799" lon="-3.457804">
        <ele>592.495486</ele>
        <time>2021-10-27T13:35:04.000Z</time>
      </trkpt>
      <trkpt lat="40.295330" lon="-3.457714">
        <ele>592.366432</ele>
        <time>2021-10-27T13:35:10.000Z</time>
      </trkpt>
      <trkpt lat="40.295253" lon="-3.457702">
        <ele>592.345319</ele>
        <time>2021-10-27T13:35:11.000Z</time>
      </trkpt>
      <trkpt lat="40.294669" lon="-3.457602">
        <ele>592.184965</ele>
        <time>2021-10-27T13:35:19.000Z</time>
      </trkpt>
      <trkpt lat="40.294600" lon="-3.457592">
        <ele>592.180398</ele>
        <time>2021-10-27T13:35:20.000Z</time>
      </trkpt>
      <trkpt lat="40.294064" lon="-3.457501">
        <ele>592.443783</ele>
        <time>2021-10-27T13:35:28.000Z</time>
      </trkpt>
      <trkpt lat="40.293864" lon="-3.457469">
        <ele>592.541970</ele>
        <time>2021-10-27T13:35:31.000Z</time>
      </trkpt>
      <trkpt lat="40.293662" lon="-3.457434">
        <ele>592.641264</ele>
        <time>2021-10-27T13:35:34.000Z</time>
      </trkpt>
      <trkpt lat="40.293208" lon="-3.457388">
        <ele>592.863167</ele>
        <time>2021-10-27T13:35:41.000Z</time>
      </trkpt>
      <trkpt lat="40.292869" lon="-3.457321">
        <ele>593.030235</ele>
        <time>2021-10-27T13:35:47.000Z</time>
      </trkpt>
      <trkpt lat="40.292822" lon="-3.457316">
        <ele>593.011828</ele>
        <time>2021-10-27T13:35:48.000Z</time>
      </trkpt>
      <trkpt lat="40.292754" lon="-3.457362">
        <ele>592.768435</ele>
        <time>2021-10-27T13:35:50.000Z</time>
      </trkpt>
      <trkpt lat="40.292662" lon="-3.457385">
        <ele>592.470524</ele>
        <time>2021-10-27T13:35:52.000Z</time>
      </trkpt>
      <trkpt lat="40.292612" lon="-3.457379">
        <ele>592.310817</ele>
        <time>2021-10-27T13:35:53.000Z</time>
      </trkpt>
      <trkpt lat="40.292414" lon="-3.457329">
        <ele>591.669433</ele>
        <time>2021-10-27T13:35:57.000Z</time>
      </trkpt>
      <trkpt lat="40.292305" lon="-3.457305">
        <ele>591.317865</ele>
        <time>2021-10-27T13:35:59.000Z</time>
      </trkpt>
      <trkpt lat="40.292203" lon="-3.457364">
        <ele>590.963243</ele>
        <time>2021-10-27T13:36:01.000Z</time>
      </trkpt>
      <trkpt lat="40.292143" lon="-3.457512">
        <ele>590.556596</ele>
        <time>2021-10-27T13:36:03.000Z</time>
      </trkpt>
      <trkpt lat="40.292134" lon="-3.457602">
        <ele>590.336368</ele>
        <time>2021-10-27T13:36:04.000Z</time>
      </trkpt>
      <trkpt lat="40.292127" lon="-3.457698">
        <ele>590.102390</ele>
        <time>2021-10-27T13:36:05.000Z</time>
      </trkpt>
      <trkpt lat="40.292121" lon="-3.457794">
        <ele>589.868693</ele>
        <time>2021-10-27T13:36:06.000Z</time>
      </trkpt>
      <trkpt lat="40.292125" lon="-3.457879">
        <ele>589.662072</ele>
        <time>2021-10-27T13:36:07.000Z</time>
      </trkpt>
      <trkpt lat="40.292137" lon="-3.457957">
        <ele>589.469017</ele>
        <time>2021-10-27T13:36:08.000Z</time>
      </trkpt>
      <trkpt lat="40.292161" lon="-3.458095">
        <ele>589.125606</ele>
        <time>2021-10-27T13:36:11.000Z</time>
      </trkpt>
      <trkpt lat="40.292130" lon="-3.458128">
        <ele>588.998588</ele>
        <time>2021-10-27T13:36:13.000Z</time>
      </trkpt>
      <trkpt lat="40.292107" lon="-3.458128">
        <ele>588.925429</ele>
        <time>2021-10-27T13:36:14.000Z</time>
      </trkpt>
      <trkpt lat="40.291950" lon="-3.458083">
        <ele>588.414240</ele>
        <time>2021-10-27T13:36:19.000Z</time>
      </trkpt>
      <trkpt lat="40.291712" lon="-3.457986">
        <ele>587.621461</ele>
        <time>2021-10-27T13:36:25.000Z</time>
      </trkpt>
      <trkpt lat="40.291540" lon="-3.457929">
        <ele>587.432403</ele>
        <time>2021-10-27T13:36:29.000Z</time>
      </trkpt>
      <trkpt lat="40.291496" lon="-3.457916">
        <ele>587.488805</ele>
        <time>2021-10-27T13:36:30.000Z</time>
      </trkpt>
      <trkpt lat="40.291449" lon="-3.457908">
        <ele>587.548072</ele>
        <time>2021-10-27T13:36:31.000Z</time>
      </trkpt>
      <trkpt lat="40.291402" lon="-3.457902">
        <ele>587.607124</ele>
        <time>2021-10-27T13:36:32.000Z</time>
      </trkpt>
      <trkpt lat="40.291306" lon="-3.457889">
        <ele>587.727812</ele>
        <time>2021-10-27T13:36:34.000Z</time>
      </trkpt>
      <trkpt lat="40.291108" lon="-3.457887">
        <ele>587.975420</ele>
        <time>2021-10-27T13:36:38.000Z</time>
      </trkpt>
      <trkpt lat="40.290959" lon="-3.457903">
        <ele>588.162370</ele>
        <time>2021-10-27T13:36:41.000Z</time>
      </trkpt>
      <trkpt lat="40.290458" lon="-3.457907">
        <ele>588.788888</ele>
        <time>2021-10-27T13:36:51.000Z</time>
      </trkpt>
      <trkpt lat="40.290216" lon="-3.457860">
        <ele>589.094814</ele>
        <time>2021-10-27T13:36:56.000Z</time>
      </trkpt>
      <trkpt lat="40.290075" lon="-3.457809">
        <ele>589.277723</ele>
        <time>2021-10-27T13:36:59.000Z</time>
      </trkpt>
      <trkpt lat="40.289897" lon="-3.457714">
        <ele>589.518053</ele>
        <time>2021-10-27T13:37:03.000Z</time>
      </trkpt>
      <trkpt lat="40.289812" lon="-3.457655">
        <ele>589.652913</ele>
        <time>2021-10-27T13:37:05.000Z</time>
      </trkpt>
      <trkpt lat="40.289769" lon="-3.457625">
        <ele>589.728021</ele>
        <time>2021-10-27T13:37:06.000Z</time>
      </trkpt>
      <trkpt lat="40.289607" lon="-3.457482">
        <ele>590.029162</ele>
        <time>2021-10-27T13:37:10.000Z</time>
      </trkpt>
      <trkpt lat="40.289524" lon="-3.457419">
        <ele>590.177046</ele>
        <time>2021-10-27T13:37:12.000Z</time>
      </trkpt>
      <trkpt lat="40.289309" lon="-3.457270">
        <ele>590.552034</ele>
        <time>2021-10-27T13:37:17.000Z</time>
      </trkpt>
      <trkpt lat="40.289172" lon="-3.457194">
        <ele>590.781415</ele>
        <time>2021-10-27T13:37:20.000Z</time>
      </trkpt>
      <trkpt lat="40.288797" lon="-3.457040">
        <ele>591.387349</ele>
        <time>2021-10-27T13:37:28.000Z</time>
      </trkpt>
      <trkpt lat="40.288747" lon="-3.457032">
        <ele>591.465018</ele>
        <time>2021-10-27T13:37:29.000Z</time>
      </trkpt>
      <trkpt lat="40.288548" lon="-3.456991">
        <ele>591.775630</ele>
        <time>2021-10-27T13:37:33.000Z</time>
      </trkpt>
      <trkpt lat="40.288500" lon="-3.456977">
        <ele>591.851453</ele>
        <time>2021-10-27T13:37:34.000Z</time>
      </trkpt>
      <trkpt lat="40.288167" lon="-3.456834">
        <ele>592.383410</ele>
        <time>2021-10-27T13:37:41.000Z</time>
      </trkpt>
      <trkpt lat="40.287740" lon="-3.456657">
        <ele>592.938621</ele>
        <time>2021-10-27T13:37:50.000Z</time>
      </trkpt>
      <trkpt lat="40.287693" lon="-3.456636">
        <ele>593.000181</ele>
        <time>2021-10-27T13:37:51.000Z</time>
      </trkpt>
      <trkpt lat="40.287645" lon="-3.456614">
        <ele>593.063222</ele>
        <time>2021-10-27T13:37:52.000Z</time>
      </trkpt>
      <trkpt lat="40.287363" lon="-3.456502">
        <ele>593.428527</ele>
        <time>2021-10-27T13:37:58.000Z</time>
      </trkpt>
      <trkpt lat="40.287031" lon="-3.456343">
        <ele>593.866733</ele>
        <time>2021-10-27T13:38:05.000Z</time>
      </trkpt>
      <trkpt lat="40.286981" lon="-3.456313">
        <ele>593.934906</ele>
        <time>2021-10-27T13:38:06.000Z</time>
      </trkpt>
      <trkpt lat="40.286545" lon="-3.456042">
        <ele>594.533121</ele>
        <time>2021-10-27T13:38:15.000Z</time>
      </trkpt>
      <trkpt lat="40.286208" lon="-3.455832">
        <ele>595.138986</ele>
        <time>2021-10-27T13:38:22.000Z</time>
      </trkpt>
      <trkpt lat="40.286161" lon="-3.455796">
        <ele>595.229675</ele>
        <time>2021-10-27T13:38:23.000Z</time>
      </trkpt>
      <trkpt lat="40.286074" lon="-3.455719">
        <ele>595.404558</ele>
        <time>2021-10-27T13:38:25.000Z</time>
      </trkpt>
      <trkpt lat="40.285969" lon="-3.455558">
        <ele>595.673752</ele>
        <time>2021-10-27T13:38:28.000Z</time>
      </trkpt>
      <trkpt lat="40.285891" lon="-3.455454">
        <ele>595.859104</ele>
        <time>2021-10-27T13:38:30.000Z</time>
      </trkpt>
      <trkpt lat="40.285791" lon="-3.455385">
        <ele>596.047372</ele>
        <time>2021-10-27T13:38:32.000Z</time>
      </trkpt>
      <trkpt lat="40.285586" lon="-3.455282">
        <ele>596.413128</ele>
        <time>2021-10-27T13:38:36.000Z</time>
      </trkpt>
      <trkpt lat="40.285540" lon="-3.455254">
        <ele>596.497622</ele>
        <time>2021-10-27T13:38:37.000Z</time>
      </trkpt>
      <trkpt lat="40.285495" lon="-3.455224">
        <ele>596.581730</ele>
        <time>2021-10-27T13:38:38.000Z</time>
      </trkpt>
      <trkpt lat="40.285326" lon="-3.455108">
        <ele>596.899544</ele>
        <time>2021-10-27T13:38:42.000Z</time>
      </trkpt>
      <trkpt lat="40.285282" lon="-3.455083">
        <ele>596.979437</ele>
        <time>2021-10-27T13:38:43.000Z</time>
      </trkpt>
      <trkpt lat="40.285197" lon="-3.455030">
        <ele>597.136250</ele>
        <time>2021-10-27T13:38:45.000Z</time>
      </trkpt>
      <trkpt lat="40.284955" lon="-3.454826">
        <ele>597.616811</ele>
        <time>2021-10-27T13:38:51.000Z</time>
      </trkpt>
      <trkpt lat="40.284916" lon="-3.454786">
        <ele>597.701834</ele>
        <time>2021-10-27T13:38:52.000Z</time>
      </trkpt>
      <trkpt lat="40.284620" lon="-3.454532">
        <ele>598.309267</ele>
        <time>2021-10-27T13:38:59.000Z</time>
      </trkpt>
      <trkpt lat="40.284284" lon="-3.454276">
        <ele>598.976539</ele>
        <time>2021-10-27T13:39:07.000Z</time>
      </trkpt>
      <trkpt lat="40.283952" lon="-3.454022">
        <ele>599.636559</ele>
        <time>2021-10-27T13:39:15.000Z</time>
      </trkpt>
      <trkpt lat="40.283909" lon="-3.453992">
        <ele>599.720195</ele>
        <time>2021-10-27T13:39:16.000Z</time>
      </trkpt>
      <trkpt lat="40.283622" lon="-3.453791">
        <ele>600.278889</ele>
        <time>2021-10-27T13:39:23.000Z</time>
      </trkpt>
      <trkpt lat="40.283496" lon="-3.453692">
        <ele>600.531114</ele>
        <time>2021-10-27T13:39:26.000Z</time>
      </trkpt>
      <trkpt lat="40.283325" lon="-3.453587">
        <ele>600.855847</ele>
        <time>2021-10-27T13:39:30.000Z</time>
      </trkpt>
      <trkpt lat="40.282894" lon="-3.453320">
        <ele>601.676540</ele>
        <time>2021-10-27T13:39:40.000Z</time>
      </trkpt>
      <trkpt lat="40.282851" lon="-3.453293">
        <ele>601.758624</ele>
        <time>2021-10-27T13:39:41.000Z</time>
      </trkpt>
      <trkpt lat="40.282621" lon="-3.453211">
        <ele>602.168974</ele>
        <time>2021-10-27T13:39:46.000Z</time>
      </trkpt>
      <trkpt lat="40.282205" lon="-3.453177">
        <ele>602.886548</ele>
        <time>2021-10-27T13:39:55.000Z</time>
      </trkpt>
      <trkpt lat="40.282116" lon="-3.453181">
        <ele>603.039860</ele>
        <time>2021-10-27T13:39:57.000Z</time>
      </trkpt>
      <trkpt lat="40.281843" lon="-3.453180">
        <ele>603.509857</ele>
        <time>2021-10-27T13:40:03.000Z</time>
      </trkpt>
      <trkpt lat="40.281795" lon="-3.453181">
        <ele>603.592504</ele>
        <time>2021-10-27T13:40:04.000Z</time>
      </trkpt>
      <trkpt lat="40.281469" lon="-3.453142">
        <ele>604.135311</ele>
        <time>2021-10-27T13:40:11.000Z</time>
      </trkpt>
      <trkpt lat="40.281039" lon="-3.453036">
        <ele>604.849051</ele>
        <time>2021-10-27T13:40:20.000Z</time>
      </trkpt>
      <trkpt lat="40.280805" lon="-3.452969">
        <ele>605.239767</ele>
        <time>2021-10-27T13:40:25.000Z</time>
      </trkpt>
      <trkpt lat="40.280659" lon="-3.452943">
        <ele>605.480119</ele>
        <time>2021-10-27T13:40:28.000Z</time>
      </trkpt>
      <trkpt lat="40.280327" lon="-3.452897">
        <ele>606.024716</ele>
        <time>2021-10-27T13:40:35.000Z</time>
      </trkpt>
      <trkpt lat="40.280281" lon="-3.452884">
        <ele>606.101478</ele>
        <time>2021-10-27T13:40:36.000Z</time>
      </trkpt>
      <trkpt lat="40.279888" lon="-3.452697">
        <ele>606.868291</ele>
        <time>2021-10-27T13:40:45.000Z</time>
      </trkpt>
      <trkpt lat="40.279549" lon="-3.452511">
        <ele>608.038255</ele>
        <time>2021-10-27T13:40:53.000Z</time>
      </trkpt>
      <trkpt lat="40.279375" lon="-3.452437">
        <ele>608.620624</ele>
        <time>2021-10-27T13:40:57.000Z</time>
      </trkpt>
      <trkpt lat="40.279282" lon="-3.452413">
        <ele>608.922380</ele>
        <time>2021-10-27T13:40:59.000Z</time>
      </trkpt>
      <trkpt lat="40.279237" lon="-3.452395">
        <ele>609.072163</ele>
        <time>2021-10-27T13:41:00.000Z</time>
      </trkpt>
      <trkpt lat="40.278937" lon="-3.452239">
        <ele>610.099645</ele>
        <time>2021-10-27T13:41:07.000Z</time>
      </trkpt>
      <trkpt lat="40.278842" lon="-3.452206">
        <ele>610.412524</ele>
        <time>2021-10-27T13:41:10.000Z</time>
      </trkpt>
      <trkpt lat="40.278793" lon="-3.452189">
        <ele>610.573891</ele>
        <time>2021-10-27T13:41:12.000Z</time>
      </trkpt>
      <trkpt lat="40.278770" lon="-3.452183">
        <ele>610.648549</ele>
        <time>2021-10-27T13:41:13.000Z</time>
      </trkpt>
      <trkpt lat="40.278677" lon="-3.452163">
        <ele>610.948580</ele>
        <time>2021-10-27T13:41:16.000Z</time>
      </trkpt>
      <trkpt lat="40.278640" lon="-3.452154">
        <ele>611.068384</ele>
        <time>2021-10-27T13:41:17.000Z</time>
      </trkpt>
      <trkpt lat="40.278323" lon="-3.452078">
        <ele>612.094319</ele>
        <time>2021-10-27T13:41:25.000Z</time>
      </trkpt>
      <trkpt lat="40.278209" lon="-3.452034">
        <ele>612.448148</ele>
        <time>2021-10-27T13:41:28.000Z</time>
      </trkpt>
      <trkpt lat="40.278171" lon="-3.452001">
        <ele>612.525071</ele>
        <time>2021-10-27T13:41:29.000Z</time>
      </trkpt>
      <trkpt lat="40.278134" lon="-3.451966">
        <ele>612.602071</ele>
        <time>2021-10-27T13:41:30.000Z</time>
      </trkpt>
      <trkpt lat="40.277780" lon="-3.451698">
        <ele>613.291937</ele>
        <time>2021-10-27T13:41:39.000Z</time>
      </trkpt>
      <trkpt lat="40.277696" lon="-3.451653">
        <ele>613.445071</ele>
        <time>2021-10-27T13:41:41.000Z</time>
      </trkpt>
      <trkpt lat="40.277606" lon="-3.451621">
        <ele>613.602437</ele>
        <time>2021-10-27T13:41:43.000Z</time>
      </trkpt>
      <trkpt lat="40.277514" lon="-3.451612">
        <ele>613.758121</ele>
        <time>2021-10-27T13:41:45.000Z</time>
      </trkpt>
      <trkpt lat="40.277427" lon="-3.451597">
        <ele>613.906200</ele>
        <time>2021-10-27T13:41:47.000Z</time>
      </trkpt>
      <trkpt lat="40.277361" lon="-3.451518">
        <ele>614.057029</ele>
        <time>2021-10-27T13:41:49.000Z</time>
      </trkpt>
      <trkpt lat="40.277274" lon="-3.451429">
        <ele>614.243264</ele>
        <time>2021-10-27T13:41:51.000Z</time>
      </trkpt>
      <trkpt lat="40.277223" lon="-3.451415">
        <ele>614.331195</ele>
        <time>2021-10-27T13:41:52.000Z</time>
      </trkpt>
      <trkpt lat="40.276785" lon="-3.451344">
        <ele>615.075961</ele>
        <time>2021-10-27T13:42:01.000Z</time>
      </trkpt>
      <trkpt lat="40.276368" lon="-3.451334">
        <ele>616.250078</ele>
        <time>2021-10-27T13:42:10.000Z</time>
      </trkpt>
      <trkpt lat="40.276328" lon="-3.451337">
        <ele>616.415825</ele>
        <time>2021-10-27T13:42:11.000Z</time>
      </trkpt>
      <trkpt lat="40.276086" lon="-3.451363">
        <ele>617.420315</ele>
        <time>2021-10-27T13:42:17.000Z</time>
      </trkpt>
      <trkpt lat="40.275968" lon="-3.451375">
        <ele>617.909938</ele>
        <time>2021-10-27T13:42:20.000Z</time>
      </trkpt>
      <trkpt lat="40.275930" lon="-3.451380">
        <ele>618.067930</ele>
        <time>2021-10-27T13:42:21.000Z</time>
      </trkpt>
      <trkpt lat="40.275737" lon="-3.451408">
        <ele>618.871230</ele>
        <time>2021-10-27T13:42:26.000Z</time>
      </trkpt>
      <trkpt lat="40.275545" lon="-3.451473">
        <ele>619.691584</ele>
        <time>2021-10-27T13:42:31.000Z</time>
      </trkpt>
      <trkpt lat="40.275401" lon="-3.451561">
        <ele>620.348867</ele>
        <time>2021-10-27T13:42:35.000Z</time>
      </trkpt>
      <trkpt lat="40.275370" lon="-3.451594">
        <ele>620.514079</ele>
        <time>2021-10-27T13:42:36.000Z</time>
      </trkpt>
      <trkpt lat="40.275338" lon="-3.451628">
        <ele>620.684492</ele>
        <time>2021-10-27T13:42:37.000Z</time>
      </trkpt>
      <trkpt lat="40.275141" lon="-3.451737">
        <ele>621.569103</ele>
        <time>2021-10-27T13:42:45.000Z</time>
      </trkpt>
      <trkpt lat="40.274944" lon="-3.451846">
        <ele>622.453714</ele>
        <time>2021-10-27T13:42:47.000Z</time>
      </trkpt>
      <trkpt lat="40.274921" lon="-3.451944">
        <ele>622.777331</ele>
        <time>2021-10-27T13:42:49.000Z</time>
      </trkpt>
      <trkpt lat="40.274809" lon="-3.452004">
        <ele>623.065351</ele>
        <time>2021-10-27T13:42:52.000Z</time>
      </trkpt>
      <trkpt lat="40.274732" lon="-3.452057">
        <ele>623.224605</ele>
        <time>2021-10-27T13:42:54.000Z</time>
      </trkpt>
      <trkpt lat="40.274657" lon="-3.452116">
        <ele>623.384773</ele>
        <time>2021-10-27T13:42:56.000Z</time>
      </trkpt>
      <trkpt lat="40.274492" lon="-3.452281">
        <ele>623.764797</ele>
        <time>2021-10-27T13:43:01.000Z</time>
      </trkpt>
      <trkpt lat="40.274368" lon="-3.452438">
        <ele>624.080491</ele>
        <time>2021-10-27T13:43:05.000Z</time>
      </trkpt>
      <trkpt lat="40.274340" lon="-3.452477">
        <ele>624.155306</ele>
        <time>2021-10-27T13:43:06.000Z</time>
      </trkpt>
      <trkpt lat="40.274258" lon="-3.452599">
        <ele>624.382450</ele>
        <time>2021-10-27T13:43:09.000Z</time>
      </trkpt>
      <trkpt lat="40.274203" lon="-3.452680">
        <ele>624.533936</ele>
        <time>2021-10-27T13:43:11.000Z</time>
      </trkpt>
      <trkpt lat="40.274024" lon="-3.452998">
        <ele>625.086021</ele>
        <time>2021-10-27T13:43:18.000Z</time>
      </trkpt>
      <trkpt lat="40.273841" lon="-3.453369">
        <ele>625.703214</ele>
        <time>2021-10-27T13:43:26.000Z</time>
      </trkpt>
      <trkpt lat="40.273763" lon="-3.453503">
        <ele>625.938682</ele>
        <time>2021-10-27T13:43:29.000Z</time>
      </trkpt>
      <trkpt lat="40.273630" lon="-3.453784">
        <ele>626.431396</ele>
        <time>2021-10-27T13:43:35.000Z</time>
      </trkpt>
      <trkpt lat="40.273467" lon="-3.454172">
        <ele>627.140508</ele>
        <time>2021-10-27T13:43:43.000Z</time>
      </trkpt>
      <trkpt lat="40.273420" lon="-3.454264">
        <ele>627.317766</ele>
        <time>2021-10-27T13:43:45.000Z</time>
      </trkpt>
      <trkpt lat="40.273256" lon="-3.454516">
        <ele>627.848040</ele>
        <time>2021-10-27T13:43:51.000Z</time>
      </trkpt>
      <trkpt lat="40.273146" lon="-3.454688">
        <ele>628.207350</ele>
        <time>2021-10-27T13:43:55.000Z</time>
      </trkpt>
      <trkpt lat="40.273058" lon="-3.454810">
        <ele>628.476137</ele>
        <time>2021-10-27T13:43:58.000Z</time>
      </trkpt>
      <trkpt lat="40.272752" lon="-3.455267">
        <ele>629.449578</ele>
        <time>2021-10-27T13:44:09.000Z</time>
      </trkpt>
      <trkpt lat="40.272676" lon="-3.455396">
        <ele>629.710509</ele>
        <time>2021-10-27T13:44:12.000Z</time>
      </trkpt>
      <trkpt lat="40.272598" lon="-3.455521">
        <ele>629.969654</ele>
        <time>2021-10-27T13:44:15.000Z</time>
      </trkpt>
      <trkpt lat="40.272458" lon="-3.455725">
        <ele>630.465175</ele>
        <time>2021-10-27T13:44:20.000Z</time>
      </trkpt>
      <trkpt lat="40.272327" lon="-3.455939">
        <ele>630.960665</ele>
        <time>2021-10-27T13:44:25.000Z</time>
      </trkpt>
      <trkpt lat="40.272195" lon="-3.456232">
        <ele>631.575170</ele>
        <time>2021-10-27T13:44:31.000Z</time>
      </trkpt>
      <trkpt lat="40.272102" lon="-3.456413">
        <ele>631.969261</ele>
        <time>2021-10-27T13:44:35.000Z</time>
      </trkpt>
      <trkpt lat="40.271922" lon="-3.456717">
        <ele>632.664201</ele>
        <time>2021-10-27T13:44:42.000Z</time>
      </trkpt>
      <trkpt lat="40.271894" lon="-3.456757">
        <ele>632.762236</ele>
        <time>2021-10-27T13:44:43.000Z</time>
      </trkpt>
      <trkpt lat="40.271714" lon="-3.457048">
        <ele>633.438783</ele>
        <time>2021-10-27T13:44:50.000Z</time>
      </trkpt>
      <trkpt lat="40.271575" lon="-3.457316">
        <ele>634.024024</ele>
        <time>2021-10-27T13:44:56.000Z</time>
      </trkpt>
      <trkpt lat="40.271535" lon="-3.457414">
        <ele>634.225146</ele>
        <time>2021-10-27T13:44:58.000Z</time>
      </trkpt>
      <trkpt lat="40.271470" lon="-3.457623">
        <ele>634.684685</ele>
        <time>2021-10-27T13:45:02.000Z</time>
      </trkpt>
      <trkpt lat="40.271427" lon="-3.457781">
        <ele>635.026241</ele>
        <time>2021-10-27T13:45:05.000Z</time>
      </trkpt>
      <trkpt lat="40.271347" lon="-3.458155">
        <ele>635.817103</ele>
        <time>2021-10-27T13:45:12.000Z</time>
      </trkpt>
      <trkpt lat="40.271281" lon="-3.458357">
        <ele>636.264520</ele>
        <time>2021-10-27T13:45:16.000Z</time>
      </trkpt>
      <trkpt lat="40.271185" lon="-3.458602">
        <ele>636.825303</ele>
        <time>2021-10-27T13:45:21.000Z</time>
      </trkpt>
      <trkpt lat="40.271145" lon="-3.458700">
        <ele>637.051599</ele>
        <time>2021-10-27T13:45:23.000Z</time>
      </trkpt>
      <trkpt lat="40.271080" lon="-3.458923">
        <ele>637.537656</ele>
        <time>2021-10-27T13:45:28.000Z</time>
      </trkpt>
      <trkpt lat="40.270946" lon="-3.459314">
        <ele>638.410397</ele>
        <time>2021-10-27T13:45:37.000Z</time>
      </trkpt>
      <trkpt lat="40.270832" lon="-3.459662">
        <ele>639.213907</ele>
        <time>2021-10-27T13:45:45.000Z</time>
      </trkpt>
      <trkpt lat="40.270792" lon="-3.459795">
        <ele>639.563885</ele>
        <time>2021-10-27T13:45:48.000Z</time>
      </trkpt>
      <trkpt lat="40.270707" lon="-3.460064">
        <ele>640.276661</ele>
        <time>2021-10-27T13:45:54.000Z</time>
      </trkpt>
      <trkpt lat="40.270646" lon="-3.460286">
        <ele>640.854306</ele>
        <time>2021-10-27T13:45:59.000Z</time>
      </trkpt>
      <trkpt lat="40.270584" lon="-3.460516">
        <ele>641.451476</ele>
        <time>2021-10-27T13:46:04.000Z</time>
      </trkpt>
      <trkpt lat="40.270492" lon="-3.460839">
        <ele>642.295513</ele>
        <time>2021-10-27T13:46:11.000Z</time>
      </trkpt>
      <trkpt lat="40.270474" lon="-3.460936">
        <ele>642.539902</ele>
        <time>2021-10-27T13:46:13.000Z</time>
      </trkpt>
      <trkpt lat="40.270410" lon="-3.461209">
        <ele>643.239069</ele>
        <time>2021-10-27T13:46:19.000Z</time>
      </trkpt>
      <trkpt lat="40.270360" lon="-3.461478">
        <ele>643.916869</ele>
        <time>2021-10-27T13:46:25.000Z</time>
      </trkpt>
      <trkpt lat="40.270335" lon="-3.461561">
        <ele>644.135322</ele>
        <time>2021-10-27T13:46:27.000Z</time>
      </trkpt>
      <trkpt lat="40.270271" lon="-3.461722">
        <ele>644.579751</ele>
        <time>2021-10-27T13:46:31.000Z</time>
      </trkpt>
      <trkpt lat="40.270225" lon="-3.461790">
        <ele>644.802107</ele>
        <time>2021-10-27T13:46:33.000Z</time>
      </trkpt>
      <trkpt lat="40.270048" lon="-3.462030">
        <ele>645.609140</ele>
        <time>2021-10-27T13:46:40.000Z</time>
      </trkpt>
      <trkpt lat="40.269993" lon="-3.462093">
        <ele>645.840607</ele>
        <time>2021-10-27T13:46:42.000Z</time>
      </trkpt>
      <trkpt lat="40.269836" lon="-3.462298">
        <ele>646.542875</ele>
        <time>2021-10-27T13:46:48.000Z</time>
      </trkpt>
      <trkpt lat="40.269704" lon="-3.462453">
        <ele>647.104486</ele>
        <time>2021-10-27T13:46:53.000Z</time>
      </trkpt>
      <trkpt lat="40.269560" lon="-3.462588">
        <ele>647.665519</ele>
        <time>2021-10-27T13:46:58.000Z</time>
      </trkpt>
      <trkpt lat="40.269506" lon="-3.462650">
        <ele>647.893010</ele>
        <time>2021-10-27T13:47:00.000Z</time>
      </trkpt>
      <trkpt lat="40.269373" lon="-3.462813">
        <ele>648.470021</ele>
        <time>2021-10-27T13:47:05.000Z</time>
      </trkpt>
      <trkpt lat="40.269347" lon="-3.462848">
        <ele>648.588127</ele>
        <time>2021-10-27T13:47:06.000Z</time>
      </trkpt>
      <trkpt lat="40.269226" lon="-3.463027">
        <ele>649.166336</ele>
        <time>2021-10-27T13:47:11.000Z</time>
      </trkpt>
      <trkpt lat="40.269202" lon="-3.463064">
        <ele>649.283754</ele>
        <time>2021-10-27T13:47:12.000Z</time>
      </trkpt>
      <trkpt lat="40.269032" lon="-3.463374">
        <ele>650.206789</ele>
        <time>2021-10-27T13:47:20.000Z</time>
      </trkpt>
      <trkpt lat="40.268981" lon="-3.463500">
        <ele>650.578787</ele>
        <time>2021-10-27T13:47:23.000Z</time>
      </trkpt>
      <trkpt lat="40.268959" lon="-3.463539">
        <ele>650.749343</ele>
        <time>2021-10-27T13:47:24.000Z</time>
      </trkpt>
      <trkpt lat="40.268820" lon="-3.463754">
        <ele>651.740311</ele>
        <time>2021-10-27T13:47:30.000Z</time>
      </trkpt>
      <trkpt lat="40.268746" lon="-3.463859">
        <ele>652.242955</ele>
        <time>2021-10-27T13:47:33.000Z</time>
      </trkpt>
      <trkpt lat="40.268620" lon="-3.464027">
        <ele>653.071352</ele>
        <time>2021-10-27T13:47:38.000Z</time>
      </trkpt>
      <trkpt lat="40.268493" lon="-3.464175">
        <ele>653.854590</ele>
        <time>2021-10-27T13:47:43.000Z</time>
      </trkpt>
      <trkpt lat="40.268320" lon="-3.464429">
        <ele>655.051894</ele>
        <time>2021-10-27T13:47:51.000Z</time>
      </trkpt>
      <trkpt lat="40.268243" lon="-3.464551">
        <ele>655.608668</ele>
        <time>2021-10-27T13:47:55.000Z</time>
      </trkpt>
      <trkpt lat="40.268233" lon="-3.464583">
        <ele>655.730271</ele>
        <time>2021-10-27T13:47:56.000Z</time>
      </trkpt>
      <trkpt lat="40.268139" lon="-3.464747">
        <ele>656.451583</ele>
        <time>2021-10-27T13:48:02.000Z</time>
      </trkpt>
      <trkpt lat="40.268116" lon="-3.464771">
        <ele>656.587079</ele>
        <time>2021-10-27T13:48:03.000Z</time>
      </trkpt>
      <trkpt lat="40.267939" lon="-3.464932">
        <ele>657.580054</ele>
        <time>2021-10-27T13:48:10.000Z</time>
      </trkpt>
      <trkpt lat="40.267910" lon="-3.464949">
        <ele>657.726468</ele>
        <time>2021-10-27T13:48:11.000Z</time>
      </trkpt>
      <trkpt lat="40.267799" lon="-3.465019">
        <ele>658.294184</ele>
        <time>2021-10-27T13:48:15.000Z</time>
      </trkpt>
      <trkpt lat="40.267747" lon="-3.465051">
        <ele>658.558944</ele>
        <time>2021-10-27T13:48:17.000Z</time>
      </trkpt>
      <trkpt lat="40.267644" lon="-3.465115">
        <ele>659.223223</ele>
        <time>2021-10-27T13:48:21.000Z</time>
      </trkpt>
      <trkpt lat="40.267619" lon="-3.465131">
        <ele>659.410261</ele>
        <time>2021-10-27T13:48:22.000Z</time>
      </trkpt>
      <trkpt lat="40.267460" lon="-3.465232">
        <ele>660.598118</ele>
        <time>2021-10-27T13:48:29.000Z</time>
      </trkpt>
      <trkpt lat="40.267379" lon="-3.465308">
        <ele>661.267829</ele>
        <time>2021-10-27T13:48:33.000Z</time>
      </trkpt>
      <trkpt lat="40.267300" lon="-3.465396">
        <ele>661.964849</ele>
        <time>2021-10-27T13:48:37.000Z</time>
      </trkpt>
      <trkpt lat="40.267258" lon="-3.465441">
        <ele>662.329554</ele>
        <time>2021-10-27T13:48:39.000Z</time>
      </trkpt>
      <trkpt lat="40.267150" lon="-3.465597">
        <ele>663.410077</ele>
        <time>2021-10-27T13:48:45.000Z</time>
      </trkpt>
      <trkpt lat="40.267114" lon="-3.465648">
        <ele>663.766469</ele>
        <time>2021-10-27T13:48:47.000Z</time>
      </trkpt>
      <trkpt lat="40.266955" lon="-3.465838">
        <ele>665.213021</ele>
        <time>2021-10-27T13:48:55.000Z</time>
      </trkpt>
      <trkpt lat="40.266889" lon="-3.465877">
        <ele>665.699738</ele>
        <time>2021-10-27T13:48:58.000Z</time>
      </trkpt>
      <trkpt lat="40.266826" lon="-3.465892">
        <ele>666.130204</ele>
        <time>2021-10-27T13:49:01.000Z</time>
      </trkpt>
      <trkpt lat="40.266800" lon="-3.465893">
        <ele>666.305070</ele>
        <time>2021-10-27T13:49:02.000Z</time>
      </trkpt>
      <trkpt lat="40.266730" lon="-3.465946">
        <ele>666.848552</ele>
        <time>2021-10-27T13:49:05.000Z</time>
      </trkpt>
      <trkpt lat="40.266610" lon="-3.466148">
        <ele>668.161769</ele>
        <time>2021-10-27T13:49:12.000Z</time>
      </trkpt>
      <trkpt lat="40.266542" lon="-3.466264">
        <ele>668.912147</ele>
        <time>2021-10-27T13:49:16.000Z</time>
      </trkpt>
      <trkpt lat="40.266506" lon="-3.466320">
        <ele>669.287773</ele>
        <time>2021-10-27T13:49:18.000Z</time>
      </trkpt>
      <trkpt lat="40.266411" lon="-3.466436">
        <ele>670.160684</ele>
        <time>2021-10-27T13:49:23.000Z</time>
      </trkpt>
      <trkpt lat="40.266393" lon="-3.466453">
        <ele>670.309842</ele>
        <time>2021-10-27T13:49:24.000Z</time>
      </trkpt>
      <trkpt lat="40.266339" lon="-3.466522">
        <ele>670.816865</ele>
        <time>2021-10-27T13:49:28.000Z</time>
      </trkpt>
      <trkpt lat="40.266330" lon="-3.466546">
        <ele>670.930137</ele>
        <time>2021-10-27T13:49:29.000Z</time>
      </trkpt>
      <trkpt lat="40.266296" lon="-3.466624">
        <ele>671.254646</ele>
        <time>2021-10-27T13:49:32.000Z</time>
      </trkpt>
      <trkpt lat="40.266236" lon="-3.466725">
        <ele>671.717043</ele>
        <time>2021-10-27T13:49:36.000Z</time>
      </trkpt>
      <trkpt lat="40.266086" lon="-3.466921">
        <ele>672.719855</ele>
        <time>2021-10-27T13:49:44.000Z</time>
      </trkpt>
      <trkpt lat="40.265985" lon="-3.467035">
        <ele>673.350916</ele>
        <time>2021-10-27T13:49:49.000Z</time>
      </trkpt>
      <trkpt lat="40.265937" lon="-3.467080">
        <ele>673.630321</ele>
        <time>2021-10-27T13:49:51.000Z</time>
      </trkpt>
      <trkpt lat="40.265705" lon="-3.467307">
        <ele>675.001029</ele>
        <time>2021-10-27T13:49:59.000Z</time>
      </trkpt>
      <trkpt lat="40.265443" lon="-3.467556">
        <ele>676.533241</ele>
        <time>2021-10-27T13:50:07.000Z</time>
      </trkpt>
      <trkpt lat="40.265409" lon="-3.467583">
        <ele>676.721452</ele>
        <time>2021-10-27T13:50:08.000Z</time>
      </trkpt>
      <trkpt lat="40.265204" lon="-3.467773">
        <ele>677.910166</ele>
        <time>2021-10-27T13:50:14.000Z</time>
      </trkpt>
      <trkpt lat="40.264959" lon="-3.467982">
        <ele>679.294153</ele>
        <time>2021-10-27T13:50:21.000Z</time>
      </trkpt>
      <trkpt lat="40.264758" lon="-3.468111">
        <ele>680.307539</ele>
        <time>2021-10-27T13:50:27.000Z</time>
      </trkpt>
      <trkpt lat="40.264663" lon="-3.468160">
        <ele>680.767749</ele>
        <time>2021-10-27T13:50:30.000Z</time>
      </trkpt>
      <trkpt lat="40.264532" lon="-3.468221">
        <ele>681.394432</ele>
        <time>2021-10-27T13:50:34.000Z</time>
      </trkpt>
      <trkpt lat="40.264467" lon="-3.468252">
        <ele>681.706235</ele>
        <time>2021-10-27T13:50:36.000Z</time>
      </trkpt>
      <trkpt lat="40.264402" lon="-3.468280">
        <ele>682.014661</ele>
        <time>2021-10-27T13:50:38.000Z</time>
      </trkpt>
      <trkpt lat="40.264240" lon="-3.468357">
        <ele>682.791462</ele>
        <time>2021-10-27T13:50:43.000Z</time>
      </trkpt>
      <trkpt lat="40.264173" lon="-3.468388">
        <ele>683.111752</ele>
        <time>2021-10-27T13:50:45.000Z</time>
      </trkpt>
      <trkpt lat="40.263840" lon="-3.468591">
        <ele>684.767290</ele>
        <time>2021-10-27T13:50:55.000Z</time>
      </trkpt>
      <trkpt lat="40.263678" lon="-3.468662">
        <ele>685.537300</ele>
        <time>2021-10-27T13:51:00.000Z</time>
      </trkpt>
      <trkpt lat="40.263611" lon="-3.468688">
        <ele>685.852282</ele>
        <time>2021-10-27T13:51:02.000Z</time>
      </trkpt>
      <trkpt lat="40.263546" lon="-3.468729">
        <ele>686.177459</ele>
        <time>2021-10-27T13:51:04.000Z</time>
      </trkpt>
      <trkpt lat="40.263252" lon="-3.468882">
        <ele>687.457216</ele>
        <time>2021-10-27T13:51:12.000Z</time>
      </trkpt>
      <trkpt lat="40.263051" lon="-3.468930">
        <ele>687.121177</ele>
        <time>2021-10-27T13:51:17.000Z</time>
      </trkpt>
      <trkpt lat="40.262836" lon="-3.468962">
        <ele>686.765283</ele>
        <time>2021-10-27T13:51:22.000Z</time>
      </trkpt>
      <trkpt lat="40.262741" lon="-3.468970">
        <ele>686.608710</ele>
        <time>2021-10-27T13:51:24.000Z</time>
      </trkpt>
      <trkpt lat="40.262645" lon="-3.468976">
        <ele>686.450634</ele>
        <time>2021-10-27T13:51:26.000Z</time>
      </trkpt>
      <trkpt lat="40.262485" lon="-3.468970">
        <ele>686.187367</ele>
        <time>2021-10-27T13:51:29.000Z</time>
      </trkpt>
      <trkpt lat="40.262236" lon="-3.468940">
        <ele>685.776097</ele>
        <time>2021-10-27T13:51:33.000Z</time>
      </trkpt>
      <trkpt lat="40.262036" lon="-3.468924">
        <ele>685.446535</ele>
        <time>2021-10-27T13:51:36.000Z</time>
      </trkpt>
      <trkpt lat="40.261721" lon="-3.468938">
        <ele>684.928141</ele>
        <time>2021-10-27T13:51:40.000Z</time>
      </trkpt>
      <trkpt lat="40.261646" lon="-3.468963">
        <ele>684.800857</ele>
        <time>2021-10-27T13:51:41.000Z</time>
      </trkpt>
      <trkpt lat="40.261584" lon="-3.468983">
        <ele>684.695838</ele>
        <time>2021-10-27T13:51:42.000Z</time>
      </trkpt>
      <trkpt lat="40.261539" lon="-3.468981">
        <ele>684.621782</ele>
        <time>2021-10-27T13:51:43.000Z</time>
      </trkpt>
      <trkpt lat="40.261509" lon="-3.468955">
        <ele>684.562625</ele>
        <time>2021-10-27T13:51:44.000Z</time>
      </trkpt>
      <trkpt lat="40.261495" lon="-3.468916">
        <ele>684.560332</ele>
        <time>2021-10-27T13:51:45.000Z</time>
      </trkpt>
      <trkpt lat="40.261487" lon="-3.468857">
        <ele>684.617408</ele>
        <time>2021-10-27T13:51:46.000Z</time>
      </trkpt>
      <trkpt lat="40.261484" lon="-3.468788">
        <ele>684.683235</ele>
        <time>2021-10-27T13:51:47.000Z</time>
      </trkpt>
      <trkpt lat="40.261484" lon="-3.468635">
        <ele>684.828964</ele>
        <time>2021-10-27T13:51:49.000Z</time>
      </trkpt>
      <trkpt lat="40.261476" lon="-3.468395">
        <ele>685.057777</ele>
        <time>2021-10-27T13:51:52.000Z</time>
      </trkpt>
      <trkpt lat="40.261476" lon="-3.468163">
        <ele>685.278751</ele>
        <time>2021-10-27T13:51:55.000Z</time>
      </trkpt>
      <trkpt lat="40.261506" lon="-3.468020">
        <ele>685.420009</ele>
        <time>2021-10-27T13:51:57.000Z</time>
      </trkpt>
      <trkpt lat="40.261640" lon="-3.467726">
        <ele>685.746183</ele>
        <time>2021-10-27T13:52:02.000Z</time>
      </trkpt>
      <trkpt lat="40.261727" lon="-3.467569">
        <ele>685.930989</ele>
        <time>2021-10-27T13:52:05.000Z</time>
      </trkpt>
      <trkpt lat="40.261839" lon="-3.467288">
        <ele>686.232943</ele>
        <time>2021-10-27T13:52:10.000Z</time>
      </trkpt>
      <trkpt lat="40.261868" lon="-3.467170">
        <ele>686.351020</ele>
        <time>2021-10-27T13:52:12.000Z</time>
      </trkpt>
      <trkpt lat="40.261936" lon="-3.466936">
        <ele>686.589512</ele>
        <time>2021-10-27T13:52:16.000Z</time>
      </trkpt>
      <trkpt lat="40.261959" lon="-3.466882">
        <ele>686.648415</ele>
        <time>2021-10-27T13:52:17.000Z</time>
      </trkpt>
      <trkpt lat="40.262033" lon="-3.466725">
        <ele>686.932136</ele>
        <time>2021-10-27T13:52:20.000Z</time>
      </trkpt>
      <trkpt lat="40.262054" lon="-3.466673">
        <ele>687.135020</ele>
        <time>2021-10-27T13:52:21.000Z</time>
      </trkpt>
      <trkpt lat="40.262069" lon="-3.466621">
        <ele>687.326724</ele>
        <time>2021-10-27T13:52:22.000Z</time>
      </trkpt>
      <trkpt lat="40.262080" lon="-3.466569">
        <ele>687.512807</ele>
        <time>2021-10-27T13:52:23.000Z</time>
      </trkpt>
      <trkpt lat="40.262091" lon="-3.466465">
        <ele>687.874875</ele>
        <time>2021-10-27T13:52:25.000Z</time>
      </trkpt>
      <trkpt lat="40.262096" lon="-3.466411">
        <ele>688.062458</ele>
        <time>2021-10-27T13:52:26.000Z</time>
      </trkpt>
      <trkpt lat="40.262097" lon="-3.466359">
        <ele>688.241835</ele>
        <time>2021-10-27T13:52:27.000Z</time>
      </trkpt>
      <trkpt lat="40.262072" lon="-3.466212">
        <ele>688.761195</ele>
        <time>2021-10-27T13:52:30.000Z</time>
      </trkpt>
      <trkpt lat="40.262033" lon="-3.466123">
        <ele>689.115112</ele>
        <time>2021-10-27T13:52:32.000Z</time>
      </trkpt>
      <trkpt lat="40.261843" lon="-3.465761">
        <ele>690.630233</ele>
        <time>2021-10-27T13:52:40.000Z</time>
      </trkpt>
      <trkpt lat="40.261825" lon="-3.465713">
        <ele>690.814666</ele>
        <time>2021-10-27T13:52:41.000Z</time>
      </trkpt>
      <trkpt lat="40.261802" lon="-3.465610">
        <ele>691.184754</ele>
        <time>2021-10-27T13:52:43.000Z</time>
      </trkpt>
      <trkpt lat="40.261794" lon="-3.465503">
        <ele>691.555508</ele>
        <time>2021-10-27T13:52:45.000Z</time>
      </trkpt>
      <trkpt lat="40.261784" lon="-3.465394">
        <ele>691.934099</ele>
        <time>2021-10-27T13:52:47.000Z</time>
      </trkpt>
      <trkpt lat="40.261752" lon="-3.465291">
        <ele>692.317601</ele>
        <time>2021-10-27T13:52:49.000Z</time>
      </trkpt>
      <trkpt lat="40.261729" lon="-3.465245">
        <ele>692.507250</ele>
        <time>2021-10-27T13:52:50.000Z</time>
      </trkpt>
      <trkpt lat="40.261700" lon="-3.465205">
        <ele>692.697518</ele>
        <time>2021-10-27T13:52:51.000Z</time>
      </trkpt>
      <trkpt lat="40.261584" lon="-3.465055">
        <ele>693.433972</ele>
        <time>2021-10-27T13:52:55.000Z</time>
      </trkpt>
      <trkpt lat="40.261529" lon="-3.464896">
        <ele>694.035985</ele>
        <time>2021-10-27T13:52:59.000Z</time>
      </trkpt>
      <trkpt lat="40.261523" lon="-3.464869">
        <ele>694.132962</ele>
        <time>2021-10-27T13:53:01.000Z</time>
      </trkpt>
      <trkpt lat="40.261499" lon="-3.464770">
        <ele>694.491176</ele>
        <time>2021-10-27T13:53:05.000Z</time>
      </trkpt>
      <trkpt lat="40.261460" lon="-3.464669">
        <ele>694.881525</ele>
        <time>2021-10-27T13:53:09.000Z</time>
      </trkpt>
      <trkpt lat="40.261453" lon="-3.464643">
        <ele>694.922241</ele>
        <time>2021-10-27T13:53:10.000Z</time>
      </trkpt>
      <trkpt lat="40.261417" lon="-3.464503">
        <ele>695.008773</ele>
        <time>2021-10-27T13:53:15.000Z</time>
      </trkpt>
      <trkpt lat="40.261405" lon="-3.464447">
        <ele>695.042842</ele>
        <time>2021-10-27T13:53:17.000Z</time>
      </trkpt>
      <trkpt lat="40.261382" lon="-3.464361">
        <ele>695.096218</ele>
        <time>2021-10-27T13:53:20.000Z</time>
      </trkpt>
      <trkpt lat="40.261351" lon="-3.464248">
        <ele>695.166552</ele>
        <time>2021-10-27T13:53:24.000Z</time>
      </trkpt>
      <trkpt lat="40.261318" lon="-3.464194">
        <ele>695.207073</ele>
        <time>2021-10-27T13:53:26.000Z</time>
      </trkpt>
      <trkpt lat="40.261245" lon="-3.464113">
        <ele>695.280492</ele>
        <time>2021-10-27T13:53:29.000Z</time>
      </trkpt>
      <trkpt lat="40.261169" lon="-3.464024">
        <ele>695.358724</ele>
        <time>2021-10-27T13:53:32.000Z</time>
      </trkpt>
      <trkpt lat="40.261128" lon="-3.463942">
        <ele>695.416145</ele>
        <time>2021-10-27T13:53:34.000Z</time>
      </trkpt>
      <trkpt lat="40.261064" lon="-3.463875">
        <ele>695.479019</ele>
        <time>2021-10-27T13:53:36.000Z</time>
      </trkpt>
      <trkpt lat="40.261027" lon="-3.463856">
        <ele>695.509522</ele>
        <time>2021-10-27T13:53:37.000Z</time>
      </trkpt>
      <trkpt lat="40.260984" lon="-3.463856">
        <ele>695.542526</ele>
        <time>2021-10-27T13:53:38.000Z</time>
      </trkpt>
      <trkpt lat="40.260937" lon="-3.463874">
        <ele>695.580110</ele>
        <time>2021-10-27T13:53:39.000Z</time>
      </trkpt>
      <trkpt lat="40.260871" lon="-3.463950">
        <ele>695.647548</ele>
        <time>2021-10-27T13:53:41.000Z</time>
      </trkpt>
      <trkpt lat="40.260849" lon="-3.463999">
        <ele>695.680848</ele>
        <time>2021-10-27T13:53:42.000Z</time>
      </trkpt>
      <trkpt lat="40.260823" lon="-3.464046">
        <ele>695.714850</ele>
        <time>2021-10-27T13:53:43.000Z</time>
      </trkpt>
      <trkpt lat="40.260755" lon="-3.464121">
        <ele>695.783070</ele>
        <time>2021-10-27T13:53:45.000Z</time>
      </trkpt>
      <trkpt lat="40.260714" lon="-3.464143">
        <ele>695.817075</ele>
        <time>2021-10-27T13:53:46.000Z</time>
      </trkpt>
      <trkpt lat="40.260670" lon="-3.464151">
        <ele>695.851171</ele>
        <time>2021-10-27T13:53:47.000Z</time>
      </trkpt>
      <trkpt lat="40.260578" lon="-3.464146">
        <ele>695.921846</ele>
        <time>2021-10-27T13:53:49.000Z</time>
      </trkpt>
      <trkpt lat="40.260532" lon="-3.464149">
        <ele>695.957198</ele>
        <time>2021-10-27T13:53:50.000Z</time>
      </trkpt>
      <trkpt lat="40.260121" lon="-3.464178">
        <ele>696.273118</ele>
        <time>2021-10-27T13:53:59.000Z</time>
      </trkpt>
      <trkpt lat="40.259848" lon="-3.464193">
        <ele>696.571825</ele>
        <time>2021-10-27T13:54:05.000Z</time>
      </trkpt>
      <trkpt lat="40.259803" lon="-3.464199">
        <ele>696.622703</ele>
        <time>2021-10-27T13:54:06.000Z</time>
      </trkpt>
      <trkpt lat="40.259622" lon="-3.464228">
        <ele>696.827809</ele>
        <time>2021-10-27T13:54:10.000Z</time>
      </trkpt>
      <trkpt lat="40.259494" lon="-3.464213">
        <ele>696.972358</ele>
        <time>2021-10-27T13:54:13.000Z</time>
      </trkpt>
      <trkpt lat="40.259335" lon="-3.464221">
        <ele>697.151334</ele>
        <time>2021-10-27T13:54:17.000Z</time>
      </trkpt>
      <trkpt lat="40.259292" lon="-3.464215">
        <ele>697.199975</ele>
        <time>2021-10-27T13:54:18.000Z</time>
      </trkpt>
      <trkpt lat="40.259245" lon="-3.464225">
        <ele>697.253533</ele>
        <time>2021-10-27T13:54:19.000Z</time>
      </trkpt>
      <trkpt lat="40.259147" lon="-3.464268">
        <ele>697.369779</ele>
        <time>2021-10-27T13:54:21.000Z</time>
      </trkpt>
      <trkpt lat="40.259041" lon="-3.464199">
        <ele>697.502909</ele>
        <time>2021-10-27T13:54:24.000Z</time>
      </trkpt>
      <trkpt lat="40.258864" lon="-3.463993">
        <ele>697.769188</ele>
        <time>2021-10-27T13:54:30.000Z</time>
      </trkpt>
      <trkpt lat="40.258750" lon="-3.463708">
        <ele>698.045394</ele>
        <time>2021-10-27T13:54:36.000Z</time>
      </trkpt>
      <trkpt lat="40.258711" lon="-3.463612">
        <ele>698.138747</ele>
        <time>2021-10-27T13:54:38.000Z</time>
      </trkpt>
      <trkpt lat="40.258588" lon="-3.463390">
        <ele>698.478899</ele>
        <time>2021-10-27T13:54:43.000Z</time>
      </trkpt>
      <trkpt lat="40.258422" lon="-3.463148">
        <ele>699.250046</ele>
        <time>2021-10-27T13:54:49.000Z</time>
      </trkpt>
      <trkpt lat="40.258390" lon="-3.463112">
        <ele>699.381021</ele>
        <time>2021-10-27T13:54:50.000Z</time>
      </trkpt>
      <trkpt lat="40.258310" lon="-3.463072">
        <ele>699.646930</ele>
        <time>2021-10-27T13:54:52.000Z</time>
      </trkpt>
      <trkpt lat="40.258112" lon="-3.463029">
        <ele>700.270200</ele>
        <time>2021-10-27T13:54:57.000Z</time>
      </trkpt>
      <trkpt lat="40.258022" lon="-3.463015">
        <ele>700.551655</ele>
        <time>2021-10-27T13:55:00.000Z</time>
      </trkpt>
      <trkpt lat="40.257931" lon="-3.463025">
        <ele>700.835245</ele>
        <time>2021-10-27T13:55:03.000Z</time>
      </trkpt>
      <trkpt lat="40.257732" lon="-3.463144">
        <ele>701.514543</ele>
        <time>2021-10-27T13:55:10.000Z</time>
      </trkpt>
      <trkpt lat="40.257707" lon="-3.463169">
        <ele>701.612205</ele>
        <time>2021-10-27T13:55:11.000Z</time>
      </trkpt>
      <trkpt lat="40.257595" lon="-3.463330">
        <ele>702.128500</ele>
        <time>2021-10-27T13:55:16.000Z</time>
      </trkpt>
      <trkpt lat="40.257410" lon="-3.463482">
        <ele>702.806608</ele>
        <time>2021-10-27T13:55:23.000Z</time>
      </trkpt>
      <trkpt lat="40.257365" lon="-3.463486">
        <ele>702.946675</ele>
        <time>2021-10-27T13:55:25.000Z</time>
      </trkpt>
      <trkpt lat="40.257333" lon="-3.463489">
        <ele>703.046304</ele>
        <time>2021-10-27T13:55:27.000Z</time>
      </trkpt>
      <trkpt lat="40.257231" lon="-3.463511">
        <ele>703.367325</ele>
        <time>2021-10-27T13:55:31.000Z</time>
      </trkpt>
      <trkpt lat="40.257073" lon="-3.463524">
        <ele>703.858955</ele>
        <time>2021-10-27T13:55:36.000Z</time>
      </trkpt>
      <trkpt lat="40.257042" lon="-3.463523">
        <ele>703.928657</ele>
        <time>2021-10-27T13:55:37.000Z</time>
      </trkpt>
      <trkpt lat="40.256876" lon="-3.463431">
        <ele>704.216834</ele>
        <time>2021-10-27T13:55:43.000Z</time>
      </trkpt>
      <trkpt lat="40.256858" lon="-3.463390">
        <ele>704.274549</ele>
        <time>2021-10-27T13:55:44.000Z</time>
      </trkpt>
      <trkpt lat="40.256719" lon="-3.463215">
        <ele>704.582752</ele>
        <time>2021-10-27T13:55:49.000Z</time>
      </trkpt>
      <trkpt lat="40.256631" lon="-3.463191">
        <ele>704.726468</ele>
        <time>2021-10-27T13:55:51.000Z</time>
      </trkpt>
      <trkpt lat="40.256531" lon="-3.463200">
        <ele>704.886732</ele>
        <time>2021-10-27T13:55:53.000Z</time>
      </trkpt>
      <trkpt lat="40.256177" lon="-3.463281">
        <ele>705.461299</ele>
        <time>2021-10-27T13:56:00.000Z</time>
      </trkpt>
      <trkpt lat="40.255833" lon="-3.463338">
        <ele>706.015692</ele>
        <time>2021-10-27T13:56:07.000Z</time>
      </trkpt>
      <trkpt lat="40.255481" lon="-3.463481">
        <ele>706.604925</ele>
        <time>2021-10-27T13:56:15.000Z</time>
      </trkpt>
      <trkpt lat="40.255441" lon="-3.463510">
        <ele>706.678017</ele>
        <time>2021-10-27T13:56:16.000Z</time>
      </trkpt>
      <trkpt lat="40.255398" lon="-3.463533">
        <ele>706.752276</ele>
        <time>2021-10-27T13:56:17.000Z</time>
      </trkpt>
      <trkpt lat="40.255256" lon="-3.463575">
        <ele>706.943261</ele>
        <time>2021-10-27T13:56:20.000Z</time>
      </trkpt>
      <trkpt lat="40.254864" lon="-3.463654">
        <ele>707.450535</ele>
        <time>2021-10-27T13:56:28.000Z</time>
      </trkpt>
      <trkpt lat="40.254676" lon="-3.463727">
        <ele>707.701328</ele>
        <time>2021-10-27T13:56:32.000Z</time>
      </trkpt>
      <trkpt lat="40.254582" lon="-3.463761">
        <ele>707.826054</ele>
        <time>2021-10-27T13:56:34.000Z</time>
      </trkpt>
      <trkpt lat="40.254440" lon="-3.463799">
        <ele>708.011424</ele>
        <time>2021-10-27T13:56:37.000Z</time>
      </trkpt>
      <trkpt lat="40.254396" lon="-3.463795">
        <ele>708.067837</ele>
        <time>2021-10-27T13:56:38.000Z</time>
      </trkpt>
      <trkpt lat="40.254352" lon="-3.463782">
        <ele>708.125527</ele>
        <time>2021-10-27T13:56:39.000Z</time>
      </trkpt>
      <trkpt lat="40.254073" lon="-3.463782">
        <ele>708.482375</ele>
        <time>2021-10-27T13:56:45.000Z</time>
      </trkpt>
      <trkpt lat="40.253987" lon="-3.463831">
        <ele>708.602321</ele>
        <time>2021-10-27T13:56:47.000Z</time>
      </trkpt>
      <trkpt lat="40.253905" lon="-3.463886">
        <ele>708.720144</ele>
        <time>2021-10-27T13:56:49.000Z</time>
      </trkpt>
      <trkpt lat="40.253814" lon="-3.463898">
        <ele>708.837123</ele>
        <time>2021-10-27T13:56:51.000Z</time>
      </trkpt>
      <trkpt lat="40.253769" lon="-3.463889">
        <ele>708.895346</ele>
        <time>2021-10-27T13:56:52.000Z</time>
      </trkpt>
      <trkpt lat="40.253723" lon="-3.463883">
        <ele>708.954472</ele>
        <time>2021-10-27T13:56:53.000Z</time>
      </trkpt>
      <trkpt lat="40.253582" lon="-3.463870">
        <ele>709.128510</ele>
        <time>2021-10-27T13:56:56.000Z</time>
      </trkpt>
      <trkpt lat="40.253539" lon="-3.463849">
        <ele>709.180432</ele>
        <time>2021-10-27T13:56:57.000Z</time>
      </trkpt>
      <trkpt lat="40.253498" lon="-3.463821">
        <ele>709.232744</ele>
        <time>2021-10-27T13:56:58.000Z</time>
      </trkpt>
      <trkpt lat="40.253381" lon="-3.463720">
        <ele>709.391270</ele>
        <time>2021-10-27T13:57:01.000Z</time>
      </trkpt>
      <trkpt lat="40.253347" lon="-3.463678">
        <ele>709.444140</ele>
        <time>2021-10-27T13:57:02.000Z</time>
      </trkpt>
      <trkpt lat="40.253317" lon="-3.463630">
        <ele>709.497714</ele>
        <time>2021-10-27T13:57:03.000Z</time>
      </trkpt>
      <trkpt lat="40.253205" lon="-3.463434">
        <ele>709.709146</ele>
        <time>2021-10-27T13:57:07.000Z</time>
      </trkpt>
      <trkpt lat="40.253144" lon="-3.463339">
        <ele>709.816352</ele>
        <time>2021-10-27T13:57:09.000Z</time>
      </trkpt>
      <trkpt lat="40.253063" lon="-3.463183">
        <ele>709.979281</ele>
        <time>2021-10-27T13:57:12.000Z</time>
      </trkpt>
      <trkpt lat="40.253002" lon="-3.463082">
        <ele>710.090501</ele>
        <time>2021-10-27T13:57:14.000Z</time>
      </trkpt>
      <trkpt lat="40.252764" lon="-3.462747">
        <ele>710.485719</ele>
        <time>2021-10-27T13:57:21.000Z</time>
      </trkpt>
      <trkpt lat="40.252397" lon="-3.462320">
        <ele>711.041041</ele>
        <time>2021-10-27T13:57:30.000Z</time>
      </trkpt>
      <trkpt lat="40.252194" lon="-3.462077">
        <ele>711.245776</ele>
        <time>2021-10-27T13:57:35.000Z</time>
      </trkpt>
      <trkpt lat="40.252018" lon="-3.461904">
        <ele>711.384534</ele>
        <time>2021-10-27T13:57:39.000Z</time>
      </trkpt>
      <trkpt lat="40.251927" lon="-3.461819">
        <ele>711.455014</ele>
        <time>2021-10-27T13:57:41.000Z</time>
      </trkpt>
      <trkpt lat="40.251694" lon="-3.461619">
        <ele>711.630682</ele>
        <time>2021-10-27T13:57:46.000Z</time>
      </trkpt>
      <trkpt lat="40.251647" lon="-3.461586">
        <ele>711.664311</ele>
        <time>2021-10-27T13:57:47.000Z</time>
      </trkpt>
      <trkpt lat="40.251274" lon="-3.461314">
        <ele>711.933525</ele>
        <time>2021-10-27T13:57:55.000Z</time>
      </trkpt>
      <trkpt lat="40.251144" lon="-3.461198">
        <ele>712.032717</ele>
        <time>2021-10-27T13:57:58.000Z</time>
      </trkpt>
      <trkpt lat="40.251074" lon="-3.461096">
        <ele>712.098742</ele>
        <time>2021-10-27T13:58:00.000Z</time>
      </trkpt>
      <trkpt lat="40.251042" lon="-3.461041">
        <ele>712.132031</ele>
        <time>2021-10-27T13:58:01.000Z</time>
      </trkpt>
      <trkpt lat="40.251001" lon="-3.460993">
        <ele>712.166706</ele>
        <time>2021-10-27T13:58:02.000Z</time>
      </trkpt>
      <trkpt lat="40.250915" lon="-3.460907">
        <ele>712.234934</ele>
        <time>2021-10-27T13:58:04.000Z</time>
      </trkpt>
      <trkpt lat="40.250869" lon="-3.460869">
        <ele>712.283569</ele>
        <time>2021-10-27T13:58:05.000Z</time>
      </trkpt>
      <trkpt lat="40.250592" lon="-3.460634">
        <ele>712.620990</ele>
        <time>2021-10-27T13:58:11.000Z</time>
      </trkpt>
      <trkpt lat="40.250411" lon="-3.460469">
        <ele>712.846450</ele>
        <time>2021-10-27T13:58:15.000Z</time>
      </trkpt>
      <trkpt lat="40.250314" lon="-3.460405">
        <ele>712.957498</ele>
        <time>2021-10-27T13:58:17.000Z</time>
      </trkpt>
      <trkpt lat="40.250268" lon="-3.460369">
        <ele>713.012284</ele>
        <time>2021-10-27T13:58:18.000Z</time>
      </trkpt>
      <trkpt lat="40.250046" lon="-3.460168">
        <ele>713.288204</ele>
        <time>2021-10-27T13:58:23.000Z</time>
      </trkpt>
      <trkpt lat="40.249628" lon="-3.459830">
        <ele>713.790451</ele>
        <time>2021-10-27T13:58:32.000Z</time>
      </trkpt>
      <trkpt lat="40.249309" lon="-3.459568">
        <ele>714.144049</ele>
        <time>2021-10-27T13:58:39.000Z</time>
      </trkpt>
      <trkpt lat="40.249266" lon="-3.459528">
        <ele>714.179212</ele>
        <time>2021-10-27T13:58:40.000Z</time>
      </trkpt>
      <trkpt lat="40.249146" lon="-3.459392">
        <ele>714.285005</ele>
        <time>2021-10-27T13:58:43.000Z</time>
      </trkpt>
      <trkpt lat="40.249031" lon="-3.459249">
        <ele>714.390720</ele>
        <time>2021-10-27T13:58:46.000Z</time>
      </trkpt>
      <trkpt lat="40.248725" lon="-3.458789">
        <ele>714.701254</ele>
        <time>2021-10-27T13:58:55.000Z</time>
      </trkpt>
      <trkpt lat="40.248558" lon="-3.458443">
        <ele>714.909591</ele>
        <time>2021-10-27T13:59:01.000Z</time>
      </trkpt>
      <trkpt lat="40.248544" lon="-3.458381">
        <ele>714.942496</ele>
        <time>2021-10-27T13:59:02.000Z</time>
      </trkpt>
      <trkpt lat="40.248540" lon="-3.458313">
        <ele>714.977205</ele>
        <time>2021-10-27T13:59:03.000Z</time>
      </trkpt>
      <trkpt lat="40.248554" lon="-3.458176">
        <ele>715.047548</ele>
        <time>2021-10-27T13:59:05.000Z</time>
      </trkpt>
      <trkpt lat="40.248565" lon="-3.458107">
        <ele>715.083420</ele>
        <time>2021-10-27T13:59:06.000Z</time>
      </trkpt>
      <trkpt lat="40.248616" lon="-3.457748">
        <ele>715.269258</ele>
        <time>2021-10-27T13:59:11.000Z</time>
      </trkpt>
      <trkpt lat="40.248593" lon="-3.457602">
        <ele>714.902470</ele>
        <time>2021-10-27T13:59:13.000Z</time>
      </trkpt>
      <trkpt lat="40.248527" lon="-3.457469">
        <ele>714.393330</ele>
        <time>2021-10-27T13:59:15.000Z</time>
      </trkpt>
      <trkpt lat="40.248481" lon="-3.457414">
        <ele>714.131467</ele>
        <time>2021-10-27T13:59:16.000Z</time>
      </trkpt>
      <trkpt lat="40.248314" lon="-3.457280">
        <ele>713.308015</ele>
        <time>2021-10-27T13:59:19.000Z</time>
      </trkpt>
      <trkpt lat="40.248194" lon="-3.457193">
        <ele>712.731320</ele>
        <time>2021-10-27T13:59:21.000Z</time>
      </trkpt>
      <trkpt lat="40.248006" lon="-3.457048">
        <ele>711.813986</ele>
        <time>2021-10-27T13:59:24.000Z</time>
      </trkpt>
      <trkpt lat="40.247742" lon="-3.456827">
        <ele>710.496633</ele>
        <time>2021-10-27T13:59:28.000Z</time>
      </trkpt>
      <trkpt lat="40.247610" lon="-3.456713">
        <ele>709.831841</ele>
        <time>2021-10-27T13:59:30.000Z</time>
      </trkpt>
      <trkpt lat="40.247482" lon="-3.456604">
        <ele>709.189910</ele>
        <time>2021-10-27T13:59:32.000Z</time>
      </trkpt>
      <trkpt lat="40.247358" lon="-3.456502">
        <ele>708.574249</ele>
        <time>2021-10-27T13:59:34.000Z</time>
      </trkpt>
      <trkpt lat="40.247183" lon="-3.456339">
        <ele>707.704892</ele>
        <time>2021-10-27T13:59:37.000Z</time>
      </trkpt>
      <trkpt lat="40.247064" lon="-3.456244">
        <ele>707.511822</ele>
        <time>2021-10-27T13:59:39.000Z</time>
      </trkpt>
      <trkpt lat="40.246766" lon="-3.455906">
        <ele>706.965720</ele>
        <time>2021-10-27T13:59:45.000Z</time>
      </trkpt>
      <trkpt lat="40.246627" lon="-3.455721">
        <ele>706.691197</ele>
        <time>2021-10-27T13:59:48.000Z</time>
      </trkpt>
      <trkpt lat="40.246478" lon="-3.455547">
        <ele>706.414656</ele>
        <time>2021-10-27T13:59:51.000Z</time>
      </trkpt>
      <trkpt lat="40.246331" lon="-3.455369">
        <ele>706.137323</ele>
        <time>2021-10-27T13:59:54.000Z</time>
      </trkpt>
      <trkpt lat="40.245976" lon="-3.454836">
        <ele>705.389243</ele>
        <time>2021-10-27T14:00:02.000Z</time>
      </trkpt>
      <trkpt lat="40.245723" lon="-3.454533">
        <ele>705.044046</ele>
        <time>2021-10-27T14:00:07.000Z</time>
      </trkpt>
      <trkpt lat="40.245669" lon="-3.454482">
        <ele>704.989794</ele>
        <time>2021-10-27T14:00:08.000Z</time>
      </trkpt>
      <trkpt lat="40.245500" lon="-3.454332">
        <ele>704.823430</ele>
        <time>2021-10-27T14:00:11.000Z</time>
      </trkpt>
      <trkpt lat="40.245393" lon="-3.454210">
        <ele>704.707827</ele>
        <time>2021-10-27T14:00:13.000Z</time>
      </trkpt>
      <trkpt lat="40.245180" lon="-3.453960">
        <ele>704.474761</ele>
        <time>2021-10-27T14:00:17.000Z</time>
      </trkpt>
      <trkpt lat="40.245072" lon="-3.453862">
        <ele>704.367693</ele>
        <time>2021-10-27T14:00:19.000Z</time>
      </trkpt>
      <trkpt lat="40.245022" lon="-3.453826">
        <ele>704.321195</ele>
        <time>2021-10-27T14:00:20.000Z</time>
      </trkpt>
      <trkpt lat="40.244761" lon="-3.453688">
        <ele>704.091814</ele>
        <time>2021-10-27T14:00:25.000Z</time>
      </trkpt>
      <trkpt lat="40.244716" lon="-3.453658">
        <ele>704.050665</ele>
        <time>2021-10-27T14:00:26.000Z</time>
      </trkpt>
      <trkpt lat="40.244661" lon="-3.453559">
        <ele>703.974494</ele>
        <time>2021-10-27T14:00:28.000Z</time>
      </trkpt>
      <trkpt lat="40.244645" lon="-3.453281">
        <ele>703.801067</ele>
        <time>2021-10-27T14:00:32.000Z</time>
      </trkpt>
      <trkpt lat="40.244644" lon="-3.453074">
        <ele>704.051600</ele>
        <time>2021-10-27T14:00:35.000Z</time>
      </trkpt>
      <trkpt lat="40.244655" lon="-3.452802">
        <ele>704.586958</ele>
        <time>2021-10-27T14:00:39.000Z</time>
      </trkpt>
      <trkpt lat="40.244696" lon="-3.452607">
        <ele>704.984499</ele>
        <time>2021-10-27T14:00:42.000Z</time>
      </trkpt>
      <trkpt lat="40.244744" lon="-3.452483">
        <ele>705.257766</ele>
        <time>2021-10-27T14:00:44.000Z</time>
      </trkpt>
      <trkpt lat="40.244825" lon="-3.452301">
        <ele>705.671847</ele>
        <time>2021-10-27T14:00:47.000Z</time>
      </trkpt>
      <trkpt lat="40.244962" lon="-3.451964">
        <ele>706.422293</ele>
        <time>2021-10-27T14:00:52.000Z</time>
      </trkpt>
      <trkpt lat="40.245035" lon="-3.451770">
        <ele>706.847409</ele>
        <time>2021-10-27T14:00:55.000Z</time>
      </trkpt>
      <trkpt lat="40.245096" lon="-3.451598">
        <ele>707.220176</ele>
        <time>2021-10-27T14:00:58.000Z</time>
      </trkpt>
      <trkpt lat="40.245111" lon="-3.451544">
        <ele>707.333121</ele>
        <time>2021-10-27T14:00:59.000Z</time>
      </trkpt>
      <trkpt lat="40.245164" lon="-3.451334">
        <ele>707.767844</ele>
        <time>2021-10-27T14:01:03.000Z</time>
      </trkpt>
      <trkpt lat="40.245216" lon="-3.451125">
        <ele>708.199896</ele>
        <time>2021-10-27T14:01:07.000Z</time>
      </trkpt>
      <trkpt lat="40.245230" lon="-3.451072">
        <ele>708.310126</ele>
        <time>2021-10-27T14:01:08.000Z</time>
      </trkpt>
      <trkpt lat="40.245312" lon="-3.450744">
        <ele>708.744145</ele>
        <time>2021-10-27T14:01:14.000Z</time>
      </trkpt>
      <trkpt lat="40.245353" lon="-3.450572">
        <ele>708.952501</ele>
        <time>2021-10-27T14:01:17.000Z</time>
      </trkpt>
      <trkpt lat="40.245406" lon="-3.450331">
        <ele>709.242504</ele>
        <time>2021-10-27T14:01:21.000Z</time>
      </trkpt>
      <trkpt lat="40.245482" lon="-3.450008">
        <ele>709.633331</ele>
        <time>2021-10-27T14:01:26.000Z</time>
      </trkpt>
      <trkpt lat="40.245611" lon="-3.449674">
        <ele>710.066161</ele>
        <time>2021-10-27T14:01:31.000Z</time>
      </trkpt>
      <trkpt lat="40.245642" lon="-3.449606">
        <ele>710.157746</ele>
        <time>2021-10-27T14:01:32.000Z</time>
      </trkpt>
      <trkpt lat="40.245708" lon="-3.449482">
        <ele>710.332544</ele>
        <time>2021-10-27T14:01:34.000Z</time>
      </trkpt>
      <trkpt lat="40.245824" lon="-3.449340">
        <ele>710.573043</ele>
        <time>2021-10-27T14:01:37.000Z</time>
      </trkpt>
      <trkpt lat="40.245984" lon="-3.449187">
        <ele>710.873123</ele>
        <time>2021-10-27T14:01:41.000Z</time>
      </trkpt>
      <trkpt lat="40.246068" lon="-3.449122">
        <ele>711.020912</ele>
        <time>2021-10-27T14:01:43.000Z</time>
      </trkpt>
      <trkpt lat="40.246344" lon="-3.448997">
        <ele>711.487757</ele>
        <time>2021-10-27T14:01:49.000Z</time>
      </trkpt>
      <trkpt lat="40.246429" lon="-3.448931">
        <ele>711.648093</ele>
        <time>2021-10-27T14:01:51.000Z</time>
      </trkpt>
      <trkpt lat="40.246501" lon="-3.448839">
        <ele>711.811296</ele>
        <time>2021-10-27T14:01:53.000Z</time>
      </trkpt>
      <trkpt lat="40.246536" lon="-3.448795">
        <ele>711.890009</ele>
        <time>2021-10-27T14:01:54.000Z</time>
      </trkpt>
      <trkpt lat="40.246721" lon="-3.448621">
        <ele>712.259561</ele>
        <time>2021-10-27T14:01:59.000Z</time>
      </trkpt>
      <trkpt lat="40.246957" lon="-3.448387">
        <ele>712.739832</ele>
        <time>2021-10-27T14:02:05.000Z</time>
      </trkpt>
      <trkpt lat="40.247062" lon="-3.448271">
        <ele>712.962708</ele>
        <time>2021-10-27T14:02:08.000Z</time>
      </trkpt>
      <trkpt lat="40.247133" lon="-3.448199">
        <ele>713.108402</ele>
        <time>2021-10-27T14:02:10.000Z</time>
      </trkpt>
      <trkpt lat="40.247166" lon="-3.448155">
        <ele>713.184806</ele>
        <time>2021-10-27T14:02:11.000Z</time>
      </trkpt>
      <trkpt lat="40.247266" lon="-3.447956">
        <ele>713.479904</ele>
        <time>2021-10-27T14:02:15.000Z</time>
      </trkpt>
      <trkpt lat="40.247323" lon="-3.447846">
        <ele>713.644577</ele>
        <time>2021-10-27T14:02:17.000Z</time>
      </trkpt>
      <trkpt lat="40.247389" lon="-3.447733">
        <ele>713.820812</ele>
        <time>2021-10-27T14:02:19.000Z</time>
      </trkpt>
      <trkpt lat="40.247516" lon="-3.447500">
        <ele>714.173116</ele>
        <time>2021-10-27T14:02:23.000Z</time>
      </trkpt>
      <trkpt lat="40.247837" lon="-3.446976">
        <ele>714.991253</ele>
        <time>2021-10-27T14:02:33.000Z</time>
      </trkpt>
      <trkpt lat="40.247863" lon="-3.446918">
        <ele>715.073156</ele>
        <time>2021-10-27T14:02:34.000Z</time>
      </trkpt>
      <trkpt lat="40.247886" lon="-3.446790">
        <ele>715.233275</ele>
        <time>2021-10-27T14:02:36.000Z</time>
      </trkpt>
      <trkpt lat="40.247877" lon="-3.446727">
        <ele>715.311319</ele>
        <time>2021-10-27T14:02:37.000Z</time>
      </trkpt>
      <trkpt lat="40.247860" lon="-3.446664">
        <ele>715.392683</ele>
        <time>2021-10-27T14:02:38.000Z</time>
      </trkpt>
      <trkpt lat="40.247744" lon="-3.446362">
        <ele>715.804351</ele>
        <time>2021-10-27T14:02:43.000Z</time>
      </trkpt>
      <trkpt lat="40.247535" lon="-3.445964">
        <ele>716.392595</ele>
        <time>2021-10-27T14:02:50.000Z</time>
      </trkpt>
      <trkpt lat="40.247503" lon="-3.445907">
        <ele>716.478754</ele>
        <time>2021-10-27T14:02:51.000Z</time>
      </trkpt>
      <trkpt lat="40.247440" lon="-3.445791">
        <ele>716.652109</ele>
        <time>2021-10-27T14:02:53.000Z</time>
      </trkpt>
      <trkpt lat="40.247391" lon="-3.445669">
        <ele>716.819975</ele>
        <time>2021-10-27T14:02:55.000Z</time>
      </trkpt>
      <trkpt lat="40.247363" lon="-3.445610">
        <ele>716.904571</ele>
        <time>2021-10-27T14:02:56.000Z</time>
      </trkpt>
      <trkpt lat="40.247218" lon="-3.445320">
        <ele>716.991914</ele>
        <time>2021-10-27T14:03:01.000Z</time>
      </trkpt>
      <trkpt lat="40.247116" lon="-3.445166">
        <ele>717.041741</ele>
        <time>2021-10-27T14:03:04.000Z</time>
      </trkpt>
      <trkpt lat="40.246962" lon="-3.444986">
        <ele>717.107817</ele>
        <time>2021-10-27T14:03:08.000Z</time>
      </trkpt>
      <trkpt lat="40.246915" lon="-3.444950">
        <ele>717.125247</ele>
        <time>2021-10-27T14:03:09.000Z</time>
      </trkpt>
      <trkpt lat="40.246866" lon="-3.444917">
        <ele>717.142887</ele>
        <time>2021-10-27T14:03:10.000Z</time>
      </trkpt>
      <trkpt lat="40.246667" lon="-3.444779">
        <ele>717.214975</ele>
        <time>2021-10-27T14:03:14.000Z</time>
      </trkpt>
      <trkpt lat="40.246510" lon="-3.444679">
        <ele>717.270867</ele>
        <time>2021-10-27T14:03:17.000Z</time>
      </trkpt>
      <trkpt lat="40.246367" lon="-3.444549">
        <ele>717.326593</ele>
        <time>2021-10-27T14:03:20.000Z</time>
      </trkpt>
      <trkpt lat="40.246287" lon="-3.444443">
        <ele>717.363022</ele>
        <time>2021-10-27T14:03:22.000Z</time>
      </trkpt>
      <trkpt lat="40.246006" lon="-3.444070">
        <ele>717.509669</ele>
        <time>2021-10-27T14:03:29.000Z</time>
      </trkpt>
      <trkpt lat="40.245705" lon="-3.443619">
        <ele>718.024778</ele>
        <time>2021-10-27T14:03:37.000Z</time>
      </trkpt>
      <trkpt lat="40.245671" lon="-3.443483">
        <ele>718.147825</ele>
        <time>2021-10-27T14:03:39.000Z</time>
      </trkpt>
      <trkpt lat="40.245672" lon="-3.443412">
        <ele>718.208883</ele>
        <time>2021-10-27T14:03:40.000Z</time>
      </trkpt>
      <trkpt lat="40.245682" lon="-3.443342">
        <ele>718.270115</ele>
        <time>2021-10-27T14:03:41.000Z</time>
      </trkpt>
      <trkpt lat="40.245731" lon="-3.443215">
        <ele>718.392469</ele>
        <time>2021-10-27T14:03:43.000Z</time>
      </trkpt>
      <trkpt lat="40.245761" lon="-3.443154">
        <ele>718.454862</ele>
        <time>2021-10-27T14:03:44.000Z</time>
      </trkpt>
      <trkpt lat="40.245785" lon="-3.443091">
        <ele>718.515402</ele>
        <time>2021-10-27T14:03:45.000Z</time>
      </trkpt>
      <trkpt lat="40.245822" lon="-3.442901">
        <ele>718.684000</ele>
        <time>2021-10-27T14:03:48.000Z</time>
      </trkpt>
      <trkpt lat="40.245823" lon="-3.442773">
        <ele>718.794062</ele>
        <time>2021-10-27T14:03:50.000Z</time>
      </trkpt>
      <trkpt lat="40.245796" lon="-3.442510">
        <ele>719.022229</ele>
        <time>2021-10-27T14:03:54.000Z</time>
      </trkpt>
      <trkpt lat="40.245780" lon="-3.442441">
        <ele>719.084233</ele>
        <time>2021-10-27T14:03:55.000Z</time>
      </trkpt>
      <trkpt lat="40.245698" lon="-3.442247">
        <ele>719.274906</ele>
        <time>2021-10-27T14:03:58.000Z</time>
      </trkpt>
      <trkpt lat="40.245504" lon="-3.441827">
        <ele>719.191574</ele>
        <time>2021-10-27T14:04:04.000Z</time>
      </trkpt>
      <trkpt lat="40.245466" lon="-3.441758">
        <ele>719.067170</ele>
        <time>2021-10-27T14:04:05.000Z</time>
      </trkpt>
      <trkpt lat="40.245271" lon="-3.441418">
        <ele>718.445357</ele>
        <time>2021-10-27T14:04:10.000Z</time>
      </trkpt>
      <trkpt lat="40.245225" lon="-3.441355">
        <ele>718.317886</ele>
        <time>2021-10-27T14:04:11.000Z</time>
      </trkpt>
      <trkpt lat="40.245081" lon="-3.441165">
        <ele>717.926400</ele>
        <time>2021-10-27T14:04:14.000Z</time>
      </trkpt>
      <trkpt lat="40.244931" lon="-3.440977">
        <ele>717.528761</ele>
        <time>2021-10-27T14:04:17.000Z</time>
      </trkpt>
      <trkpt lat="40.244888" lon="-3.440908">
        <ele>717.398520</ele>
        <time>2021-10-27T14:04:18.000Z</time>
      </trkpt>
      <trkpt lat="40.244802" lon="-3.440767">
        <ele>717.134627</ele>
        <time>2021-10-27T14:04:20.000Z</time>
      </trkpt>
      <trkpt lat="40.244654" lon="-3.440593">
        <ele>716.753711</ele>
        <time>2021-10-27T14:04:23.000Z</time>
      </trkpt>
      <trkpt lat="40.244485" lon="-3.440277">
        <ele>716.189555</ele>
        <time>2021-10-27T14:04:28.000Z</time>
      </trkpt>
      <trkpt lat="40.244342" lon="-3.439863">
        <ele>714.524237</ele>
        <time>2021-10-27T14:04:34.000Z</time>
      </trkpt>
      <trkpt lat="40.244316" lon="-3.439786">
        <ele>714.172655</ele>
        <time>2021-10-27T14:04:35.000Z</time>
      </trkpt>
      <trkpt lat="40.244231" lon="-3.439504">
        <ele>712.906632</ele>
        <time>2021-10-27T14:04:39.000Z</time>
      </trkpt>
      <trkpt lat="40.244205" lon="-3.439436">
        <ele>712.589055</ele>
        <time>2021-10-27T14:04:40.000Z</time>
      </trkpt>
      <trkpt lat="40.244139" lon="-3.439305">
        <ele>711.933628</ele>
        <time>2021-10-27T14:04:42.000Z</time>
      </trkpt>
      <trkpt lat="40.244057" lon="-3.439191">
        <ele>711.279540</ele>
        <time>2021-10-27T14:04:44.000Z</time>
      </trkpt>
      <trkpt lat="40.243988" lon="-3.439128">
        <ele>710.819446</ele>
        <time>2021-10-27T14:04:46.000Z</time>
      </trkpt>
      <trkpt lat="40.243970" lon="-3.439105">
        <ele>710.681895</ele>
        <time>2021-10-27T14:04:47.000Z</time>
      </trkpt>
      <trkpt lat="40.243961" lon="-3.439082">
        <ele>710.573970</ele>
        <time>2021-10-27T14:04:48.000Z</time>
      </trkpt>
      <trkpt lat="40.243987" lon="-3.438991">
        <ele>710.168235</ele>
        <time>2021-10-27T14:04:51.000Z</time>
      </trkpt>
      <trkpt lat="40.244060" lon="-3.438870">
        <ele>709.524212</ele>
        <time>2021-10-27T14:04:54.000Z</time>
      </trkpt>
      <trkpt lat="40.244081" lon="-3.438818">
        <ele>709.278559</ele>
        <time>2021-10-27T14:04:55.000Z</time>
      </trkpt>
      <trkpt lat="40.244101" lon="-3.438760">
        <ele>709.012803</ele>
        <time>2021-10-27T14:04:56.000Z</time>
      </trkpt>
      <trkpt lat="40.244124" lon="-3.438703">
        <ele>708.743579</ele>
        <time>2021-10-27T14:04:57.000Z</time>
      </trkpt>
      <trkpt lat="40.244154" lon="-3.438650">
        <ele>708.468057</ele>
        <time>2021-10-27T14:04:58.000Z</time>
      </trkpt>
      <trkpt lat="40.244217" lon="-3.438546">
        <ele>707.913647</ele>
        <time>2021-10-27T14:05:00.000Z</time>
      </trkpt>
      <trkpt lat="40.244267" lon="-3.438453">
        <ele>707.438649</ele>
        <time>2021-10-27T14:05:02.000Z</time>
      </trkpt>
      <trkpt lat="40.244287" lon="-3.438408">
        <ele>707.221212</ele>
        <time>2021-10-27T14:05:03.000Z</time>
      </trkpt>
      <trkpt lat="40.244304" lon="-3.438357">
        <ele>706.988832</ele>
        <time>2021-10-27T14:05:04.000Z</time>
      </trkpt>
      <trkpt lat="40.244325" lon="-3.438243">
        <ele>706.499141</ele>
        <time>2021-10-27T14:05:06.000Z</time>
      </trkpt>
      <trkpt lat="40.244327" lon="-3.438095">
        <ele>705.580938</ele>
        <time>2021-10-27T14:05:09.000Z</time>
      </trkpt>
      <trkpt lat="40.244338" lon="-3.438062">
        <ele>705.299330</ele>
        <time>2021-10-27T14:05:10.000Z</time>
      </trkpt>
      <trkpt lat="40.244354" lon="-3.438026">
        <ele>704.973549</ele>
        <time>2021-10-27T14:05:11.000Z</time>
      </trkpt>
      <trkpt lat="40.244404" lon="-3.437950">
        <ele>704.188900</ele>
        <time>2021-10-27T14:05:13.000Z</time>
      </trkpt>
      <trkpt lat="40.244498" lon="-3.437756">
        <ele>702.391886</ele>
        <time>2021-10-27T14:05:18.000Z</time>
      </trkpt>
      <trkpt lat="40.244533" lon="-3.437623">
        <ele>701.291700</ele>
        <time>2021-10-27T14:05:23.000Z</time>
      </trkpt>
      <trkpt lat="40.244587" lon="-3.437455">
        <ele>699.866144</ele>
        <time>2021-10-27T14:05:26.000Z</time>
      </trkpt>
      <trkpt lat="40.244599" lon="-3.437393">
        <ele>699.365939</ele>
        <time>2021-10-27T14:05:27.000Z</time>
      </trkpt>
      <trkpt lat="40.244616" lon="-3.437271">
        <ele>698.396090</ele>
        <time>2021-10-27T14:05:30.000Z</time>
      </trkpt>
      <trkpt lat="40.244616" lon="-3.437251">
        <ele>698.239684</ele>
        <time>2021-10-27T14:05:31.000Z</time>
      </trkpt>
      <trkpt lat="40.244627" lon="-3.437167">
        <ele>697.573178</ele>
        <time>2021-10-27T14:05:35.000Z</time>
      </trkpt>
      <trkpt lat="40.244621" lon="-3.437129">
        <ele>697.269714</ele>
        <time>2021-10-27T14:05:37.000Z</time>
      </trkpt>
      <trkpt lat="40.244625" lon="-3.437119">
        <ele>697.181423</ele>
        <time>2021-10-27T14:05:43.000Z</time>
      </trkpt>
      <trkpt lat="40.244625" lon="-3.437120">
        <ele>697.173603</ele>
        <time>2021-10-27T14:05:44.000Z</time>
      </trkpt>
      <trkpt lat="40.244617" lon="-3.437115">
        <ele>697.082790</ele>
        <time>2021-10-27T14:05:48.000Z</time>
      </trkpt>
      <trkpt lat="40.244584" lon="-3.437121">
        <ele>696.741447</ele>
        <time>2021-10-27T14:05:50.000Z</time>
      </trkpt>
      <trkpt lat="40.244539" lon="-3.437166">
        <ele>696.161439</ele>
        <time>2021-10-27T14:05:52.000Z</time>
      </trkpt>
      <trkpt lat="40.244471" lon="-3.437234">
        <ele>695.284981</ele>
        <time>2021-10-27T14:05:54.000Z</time>
      </trkpt>
      <trkpt lat="40.244400" lon="-3.437304">
        <ele>694.374580</ele>
        <time>2021-10-27T14:05:56.000Z</time>
      </trkpt>
      <trkpt lat="40.244312" lon="-3.437335">
        <ele>693.440950</ele>
        <time>2021-10-27T14:05:58.000Z</time>
      </trkpt>
      <trkpt lat="40.244269" lon="-3.437328">
        <ele>692.997005</ele>
        <time>2021-10-27T14:05:59.000Z</time>
      </trkpt>
      <trkpt lat="40.244222" lon="-3.437309">
        <ele>692.493062</ele>
        <time>2021-10-27T14:06:00.000Z</time>
      </trkpt>
      <trkpt lat="40.244180" lon="-3.437281">
        <ele>692.010241</ele>
        <time>2021-10-27T14:06:01.000Z</time>
      </trkpt>
      <trkpt lat="40.244136" lon="-3.437247">
        <ele>691.486865</ele>
        <time>2021-10-27T14:06:02.000Z</time>
      </trkpt>
      <trkpt lat="40.244091" lon="-3.437216">
        <ele>690.965963</ele>
        <time>2021-10-27T14:06:03.000Z</time>
      </trkpt>
      <trkpt lat="40.244022" lon="-3.437167">
        <ele>690.161845</ele>
        <time>2021-10-27T14:06:05.000Z</time>
      </trkpt>
      <trkpt lat="40.243993" lon="-3.437160">
        <ele>689.859724</ele>
        <time>2021-10-27T14:06:06.000Z</time>
      </trkpt>
      <trkpt lat="40.243936" lon="-3.437206">
        <ele>689.173822</ele>
        <time>2021-10-27T14:06:08.000Z</time>
      </trkpt>
      <trkpt lat="40.243872" lon="-3.437294">
        <ele>688.223257</ele>
        <time>2021-10-27T14:06:10.000Z</time>
      </trkpt>
      <trkpt lat="40.243836" lon="-3.437348">
        <ele>687.674682</ele>
        <time>2021-10-27T14:06:11.000Z</time>
      </trkpt>
      <trkpt lat="40.243799" lon="-3.437396">
        <ele>687.189348</ele>
        <time>2021-10-27T14:06:12.000Z</time>
      </trkpt>
      <trkpt lat="40.243762" lon="-3.437445">
        <ele>686.698983</ele>
        <time>2021-10-27T14:06:13.000Z</time>
      </trkpt>
      <trkpt lat="40.243730" lon="-3.437493">
        <ele>686.245576</ele>
        <time>2021-10-27T14:06:14.000Z</time>
      </trkpt>
      <trkpt lat="40.243660" lon="-3.437564">
        <ele>685.420447</ele>
        <time>2021-10-27T14:06:16.000Z</time>
      </trkpt>
      <trkpt lat="40.243551" lon="-3.437621">
        <ele>684.326554</ele>
        <time>2021-10-27T14:06:19.000Z</time>
      </trkpt>
      <trkpt lat="40.243461" lon="-3.437634">
        <ele>683.482614</ele>
        <time>2021-10-27T14:06:21.000Z</time>
      </trkpt>
      <trkpt lat="40.243410" lon="-3.437655">
        <ele>682.984335</ele>
        <time>2021-10-27T14:06:22.000Z</time>
      </trkpt>
      <trkpt lat="40.243316" lon="-3.437698">
        <ele>682.056321</ele>
        <time>2021-10-27T14:06:24.000Z</time>
      </trkpt>
      <trkpt lat="40.243234" lon="-3.437732">
        <ele>681.254664</ele>
        <time>2021-10-27T14:06:26.000Z</time>
      </trkpt>
      <trkpt lat="40.243133" lon="-3.437773">
        <ele>680.269124</ele>
        <time>2021-10-27T14:06:28.000Z</time>
      </trkpt>
      <trkpt lat="40.243039" lon="-3.437801">
        <ele>679.370623</ele>
        <time>2021-10-27T14:06:30.000Z</time>
      </trkpt>
      <trkpt lat="40.242939" lon="-3.437843">
        <ele>678.391833</ele>
        <time>2021-10-27T14:06:32.000Z</time>
      </trkpt>
      <trkpt lat="40.242811" lon="-3.437888">
        <ele>677.156582</ele>
        <time>2021-10-27T14:06:34.000Z</time>
      </trkpt>
      <trkpt lat="40.242726" lon="-3.437896">
        <ele>676.362286</ele>
        <time>2021-10-27T14:06:35.000Z</time>
      </trkpt>
      <trkpt lat="40.242654" lon="-3.437919">
        <ele>675.671539</ele>
        <time>2021-10-27T14:06:36.000Z</time>
      </trkpt>
      <trkpt lat="40.242581" lon="-3.437935">
        <ele>674.981676</ele>
        <time>2021-10-27T14:06:37.000Z</time>
      </trkpt>
      <trkpt lat="40.242512" lon="-3.437955">
        <ele>674.322999</ele>
        <time>2021-10-27T14:06:38.000Z</time>
      </trkpt>
      <trkpt lat="40.242410" lon="-3.437996">
        <ele>673.328551</ele>
        <time>2021-10-27T14:06:40.000Z</time>
      </trkpt>
      <trkpt lat="40.242299" lon="-3.438051">
        <ele>672.222434</ele>
        <time>2021-10-27T14:06:42.000Z</time>
      </trkpt>
      <trkpt lat="40.242197" lon="-3.438094">
        <ele>671.223719</ele>
        <time>2021-10-27T14:06:44.000Z</time>
      </trkpt>
      <trkpt lat="40.242099" lon="-3.438092">
        <ele>670.384596</ele>
        <time>2021-10-27T14:06:46.000Z</time>
      </trkpt>
      <trkpt lat="40.242041" lon="-3.438077">
        <ele>669.890343</ele>
        <time>2021-10-27T14:06:47.000Z</time>
      </trkpt>
      <trkpt lat="40.241979" lon="-3.438056">
        <ele>669.354962</ele>
        <time>2021-10-27T14:06:48.000Z</time>
      </trkpt>
      <trkpt lat="40.241924" lon="-3.438032">
        <ele>668.870311</ele>
        <time>2021-10-27T14:06:49.000Z</time>
      </trkpt>
      <trkpt lat="40.241888" lon="-3.438005">
        <ele>668.523510</ele>
        <time>2021-10-27T14:06:50.000Z</time>
      </trkpt>
      <trkpt lat="40.241816" lon="-3.437937">
        <ele>667.781457</ele>
        <time>2021-10-27T14:06:52.000Z</time>
      </trkpt>
      <trkpt lat="40.241771" lon="-3.437915">
        <ele>667.379902</ele>
        <time>2021-10-27T14:06:53.000Z</time>
      </trkpt>
      <trkpt lat="40.241724" lon="-3.437900">
        <ele>666.975478</ele>
        <time>2021-10-27T14:06:54.000Z</time>
      </trkpt>
      <trkpt lat="40.241684" lon="-3.437898">
        <ele>666.640824</ele>
        <time>2021-10-27T14:06:55.000Z</time>
      </trkpt>
      <trkpt lat="40.241576" lon="-3.437906">
        <ele>665.736473</ele>
        <time>2021-10-27T14:06:57.000Z</time>
      </trkpt>
      <trkpt lat="40.241514" lon="-3.437897">
        <ele>665.214964</ele>
        <time>2021-10-27T14:06:58.000Z</time>
      </trkpt>
      <trkpt lat="40.241415" lon="-3.437894">
        <ele>664.387076</ele>
        <time>2021-10-27T14:07:00.000Z</time>
      </trkpt>
      <trkpt lat="40.241361" lon="-3.437886">
        <ele>663.932744</ele>
        <time>2021-10-27T14:07:01.000Z</time>
      </trkpt>
      <trkpt lat="40.241245" lon="-3.437884">
        <ele>662.962869</ele>
        <time>2021-10-27T14:07:03.000Z</time>
      </trkpt>
      <trkpt lat="40.241180" lon="-3.437898">
        <ele>662.412156</ele>
        <time>2021-10-27T14:07:04.000Z</time>
      </trkpt>
      <trkpt lat="40.241123" lon="-3.437909">
        <ele>661.930478</ele>
        <time>2021-10-27T14:07:05.000Z</time>
      </trkpt>
      <trkpt lat="40.241071" lon="-3.437905">
        <ele>661.494995</ele>
        <time>2021-10-27T14:07:06.000Z</time>
      </trkpt>
      <trkpt lat="40.240964" lon="-3.437905">
        <ele>660.600447</ele>
        <time>2021-10-27T14:07:08.000Z</time>
      </trkpt>
      <trkpt lat="40.240922" lon="-3.437892">
        <ele>660.239648</ele>
        <time>2021-10-27T14:07:09.000Z</time>
      </trkpt>
      <trkpt lat="40.240883" lon="-3.437884">
        <ele>659.909625</ele>
        <time>2021-10-27T14:07:10.000Z</time>
      </trkpt>
      <trkpt lat="40.240853" lon="-3.437896">
        <ele>659.647386</ele>
        <time>2021-10-27T14:07:11.000Z</time>
      </trkpt>
      <trkpt lat="40.240797" lon="-3.437926">
        <ele>659.141578</ele>
        <time>2021-10-27T14:07:13.000Z</time>
      </trkpt>
      <trkpt lat="40.240768" lon="-3.437924">
        <ele>658.898795</ele>
        <time>2021-10-27T14:07:14.000Z</time>
      </trkpt>
      <trkpt lat="40.240741" lon="-3.437899">
        <ele>658.622378</ele>
        <time>2021-10-27T14:07:15.000Z</time>
      </trkpt>
      <trkpt lat="40.240660" lon="-3.437830">
        <ele>657.814620</ele>
        <time>2021-10-27T14:07:17.000Z</time>
      </trkpt>
      <trkpt lat="40.240568" lon="-3.437827">
        <ele>657.045237</ele>
        <time>2021-10-27T14:07:19.000Z</time>
      </trkpt>
      <trkpt lat="40.240476" lon="-3.437836">
        <ele>656.273951</ele>
        <time>2021-10-27T14:07:21.000Z</time>
      </trkpt>
      <trkpt lat="40.240423" lon="-3.437824">
        <ele>655.801515</ele>
        <time>2021-10-27T14:07:22.000Z</time>
      </trkpt>
      <trkpt lat="40.240313" lon="-3.437794">
        <ele>654.737021</ele>
        <time>2021-10-27T14:07:24.000Z</time>
      </trkpt>
      <trkpt lat="40.240234" lon="-3.437727">
        <ele>653.845414</ele>
        <time>2021-10-27T14:07:26.000Z</time>
      </trkpt>
      <trkpt lat="40.240208" lon="-3.437679">
        <ele>653.419763</ele>
        <time>2021-10-27T14:07:27.000Z</time>
      </trkpt>
      <trkpt lat="40.240167" lon="-3.437571">
        <ele>652.547450</ele>
        <time>2021-10-27T14:07:29.000Z</time>
      </trkpt>
      <trkpt lat="40.240159" lon="-3.437530">
        <ele>652.241405</ele>
        <time>2021-10-27T14:07:30.000Z</time>
      </trkpt>
      <trkpt lat="40.240150" lon="-3.437483">
        <ele>651.890971</ele>
        <time>2021-10-27T14:07:31.000Z</time>
      </trkpt>
      <trkpt lat="40.240129" lon="-3.437443">
        <ele>651.539878</ele>
        <time>2021-10-27T14:07:32.000Z</time>
      </trkpt>
      <trkpt lat="40.240099" lon="-3.437415">
        <ele>651.190898</ele>
        <time>2021-10-27T14:07:33.000Z</time>
      </trkpt>
      <trkpt lat="40.239935" lon="-3.437236">
        <ele>649.168537</ele>
        <time>2021-10-27T14:07:38.000Z</time>
      </trkpt>
      <trkpt lat="40.239835" lon="-3.437156">
        <ele>648.058440</ele>
        <time>2021-10-27T14:07:41.000Z</time>
      </trkpt>
      <trkpt lat="40.239819" lon="-3.437138">
        <ele>647.858630</ele>
        <time>2021-10-27T14:07:42.000Z</time>
      </trkpt>
      <trkpt lat="40.239781" lon="-3.437110">
        <ele>647.445573</ele>
        <time>2021-10-27T14:07:44.000Z</time>
      </trkpt>
      <trkpt lat="40.239716" lon="-3.437065">
        <ele>646.749052</ele>
        <time>2021-10-27T14:07:47.000Z</time>
      </trkpt>
      <trkpt lat="40.239639" lon="-3.436995">
        <ele>645.861100</ele>
        <time>2021-10-27T14:07:50.000Z</time>
      </trkpt>
      <trkpt lat="40.239592" lon="-3.436946">
        <ele>645.292019</ele>
        <time>2021-10-27T14:07:52.000Z</time>
      </trkpt>
      <trkpt lat="40.239543" lon="-3.436881">
        <ele>644.631346</ele>
        <time>2021-10-27T14:07:55.000Z</time>
      </trkpt>
      <trkpt lat="40.239550" lon="-3.436830">
        <ele>644.256597</ele>
        <time>2021-10-27T14:07:57.000Z</time>
      </trkpt>
      <trkpt lat="40.239615" lon="-3.436725">
        <ele>643.278914</ele>
        <time>2021-10-27T14:08:01.000Z</time>
      </trkpt>
      <trkpt lat="40.239612" lon="-3.436678">
        <ele>642.937822</ele>
        <time>2021-10-27T14:08:03.000Z</time>
      </trkpt>
      <trkpt lat="40.239596" lon="-3.436661">
        <ele>642.742646</ele>
        <time>2021-10-27T14:08:04.000Z</time>
      </trkpt>
      <trkpt lat="40.239580" lon="-3.436650">
        <ele>642.571454</ele>
        <time>2021-10-27T14:08:05.000Z</time>
      </trkpt>
      <trkpt lat="40.239523" lon="-3.436642">
        <ele>642.028341</ele>
        <time>2021-10-27T14:08:08.000Z</time>
      </trkpt>
      <trkpt lat="40.239506" lon="-3.436632">
        <ele>641.851789</ele>
        <time>2021-10-27T14:08:09.000Z</time>
      </trkpt>
      <trkpt lat="40.239429" lon="-3.436621">
        <ele>641.117960</ele>
        <time>2021-10-27T14:08:12.000Z</time>
      </trkpt>
      <trkpt lat="40.239398" lon="-3.436620">
        <ele>640.824174</ele>
        <time>2021-10-27T14:08:13.000Z</time>
      </trkpt>
      <trkpt lat="40.239340" lon="-3.436610">
        <ele>640.269938</ele>
        <time>2021-10-27T14:08:15.000Z</time>
      </trkpt>
      <trkpt lat="40.239313" lon="-3.436604">
        <ele>640.010483</ele>
        <time>2021-10-27T14:08:16.000Z</time>
      </trkpt>
      <trkpt lat="40.239272" lon="-3.436595">
        <ele>639.616630</ele>
        <time>2021-10-27T14:08:18.000Z</time>
      </trkpt>
      <trkpt lat="40.239228" lon="-3.436574">
        <ele>639.172966</ele>
        <time>2021-10-27T14:08:20.000Z</time>
      </trkpt>
      <trkpt lat="40.239178" lon="-3.436551">
        <ele>638.534865</ele>
        <time>2021-10-27T14:08:22.000Z</time>
      </trkpt>
      <trkpt lat="40.239150" lon="-3.436539">
        <ele>638.121966</ele>
        <time>2021-10-27T14:08:23.000Z</time>
      </trkpt>
      <trkpt lat="40.239123" lon="-3.436528">
        <ele>637.725673</ele>
        <time>2021-10-27T14:08:24.000Z</time>
      </trkpt>
      <trkpt lat="40.239097" lon="-3.436515">
        <ele>637.335632</ele>
        <time>2021-10-27T14:08:25.000Z</time>
      </trkpt>
      <trkpt lat="40.239047" lon="-3.436496">
        <ele>636.605974</ele>
        <time>2021-10-27T14:08:27.000Z</time>
      </trkpt>
      <trkpt lat="40.239010" lon="-3.436487">
        <ele>636.078540</ele>
        <time>2021-10-27T14:08:29.000Z</time>
      </trkpt>
      <trkpt lat="40.238996" lon="-3.436481">
        <ele>635.872091</ele>
        <time>2021-10-27T14:08:30.000Z</time>
      </trkpt>
      <trkpt lat="40.238977" lon="-3.436471">
        <ele>635.585109</ele>
        <time>2021-10-27T14:08:31.000Z</time>
      </trkpt>
      <trkpt lat="40.238954" lon="-3.436470">
        <ele>635.262577</ele>
        <time>2021-10-27T14:08:32.000Z</time>
      </trkpt>
      <trkpt lat="40.238922" lon="-3.436472">
        <ele>634.813574</ele>
        <time>2021-10-27T14:08:33.000Z</time>
      </trkpt>
      <trkpt lat="40.238890" lon="-3.436476">
        <ele>634.363044</ele>
        <time>2021-10-27T14:08:34.000Z</time>
      </trkpt>
      <trkpt lat="40.238857" lon="-3.436479">
        <ele>633.899423</ele>
        <time>2021-10-27T14:08:35.000Z</time>
      </trkpt>
      <trkpt lat="40.238802" lon="-3.436489">
        <ele>633.121186</ele>
        <time>2021-10-27T14:08:37.000Z</time>
      </trkpt>
      <trkpt lat="40.238795" lon="-3.436499">
        <ele>632.976026</ele>
        <time>2021-10-27T14:08:38.000Z</time>
      </trkpt>
      <trkpt lat="40.238796" lon="-3.436496">
        <ele>632.941003</ele>
        <time>2021-10-27T14:08:40.000Z</time>
      </trkpt>
      <trkpt lat="40.238800" lon="-3.436492">
        <ele>632.870474</ele>
        <time>2021-10-27T14:08:43.000Z</time>
      </trkpt>
      <trkpt lat="40.238799" lon="-3.436495">
        <ele>632.835451</ele>
        <time>2021-10-27T14:08:57.000Z</time>
      </trkpt>
      <trkpt lat="40.238768" lon="-3.436463">
        <ele>632.282294</ele>
        <time>2021-10-27T14:09:03.000Z</time>
      </trkpt>
      <trkpt lat="40.238716" lon="-3.436344">
        <ele>630.815298</ele>
        <time>2021-10-27T14:09:07.000Z</time>
      </trkpt>
      <trkpt lat="40.238702" lon="-3.436305">
        <ele>630.354211</ele>
        <time>2021-10-27T14:09:08.000Z</time>
      </trkpt>
      <trkpt lat="40.238684" lon="-3.436268">
        <ele>629.884801</ele>
        <time>2021-10-27T14:09:09.000Z</time>
      </trkpt>
      <trkpt lat="40.238639" lon="-3.436203">
        <ele>628.945979</ele>
        <time>2021-10-27T14:09:11.000Z</time>
      </trkpt>
      <trkpt lat="40.238598" lon="-3.436143">
        <ele>628.084426</ele>
        <time>2021-10-27T14:09:13.000Z</time>
      </trkpt>
      <trkpt lat="40.238559" lon="-3.436064">
        <ele>627.077874</ele>
        <time>2021-10-27T14:09:15.000Z</time>
      </trkpt>
      <trkpt lat="40.238543" lon="-3.436006">
        <ele>626.418066</ele>
        <time>2021-10-27T14:09:16.000Z</time>
      </trkpt>
      <trkpt lat="40.238522" lon="-3.435939">
        <ele>625.643173</ele>
        <time>2021-10-27T14:09:17.000Z</time>
      </trkpt>
      <trkpt lat="40.238503" lon="-3.435867">
        <ele>624.828128</ele>
        <time>2021-10-27T14:09:18.000Z</time>
      </trkpt>
      <trkpt lat="40.238472" lon="-3.435801">
        <ele>623.999043</ele>
        <time>2021-10-27T14:09:19.000Z</time>
      </trkpt>
      <trkpt lat="40.238433" lon="-3.435732">
        <ele>623.080489</ele>
        <time>2021-10-27T14:09:20.000Z</time>
      </trkpt>
      <trkpt lat="40.238389" lon="-3.435667">
        <ele>622.151023</ele>
        <time>2021-10-27T14:09:21.000Z</time>
      </trkpt>
      <trkpt lat="40.238347" lon="-3.435619">
        <ele>621.369848</ele>
        <time>2021-10-27T14:09:22.000Z</time>
      </trkpt>
      <trkpt lat="40.238175" lon="-3.435503">
        <ele>618.658485</ele>
        <time>2021-10-27T14:09:25.000Z</time>
      </trkpt>
      <trkpt lat="40.238044" lon="-3.435423">
        <ele>616.632763</ele>
        <time>2021-10-27T14:09:27.000Z</time>
      </trkpt>
      <trkpt lat="40.237942" lon="-3.435369">
        <ele>615.090861</ele>
        <time>2021-10-27T14:09:29.000Z</time>
      </trkpt>
      <trkpt lat="40.237897" lon="-3.435340">
        <ele>614.387981</ele>
        <time>2021-10-27T14:09:30.000Z</time>
      </trkpt>
      <trkpt lat="40.237784" lon="-3.435244">
        <ele>613.078427</ele>
        <time>2021-10-27T14:09:33.000Z</time>
      </trkpt>
      <trkpt lat="40.237757" lon="-3.435207">
        <ele>612.784940</ele>
        <time>2021-10-27T14:09:34.000Z</time>
      </trkpt>
      <trkpt lat="40.237726" lon="-3.435127">
        <ele>612.270524</ele>
        <time>2021-10-27T14:09:36.000Z</time>
      </trkpt>
      <trkpt lat="40.237717" lon="-3.435017">
        <ele>611.636198</ele>
        <time>2021-10-27T14:09:38.000Z</time>
      </trkpt>
      <trkpt lat="40.237724" lon="-3.434794">
        <ele>610.356488</ele>
        <time>2021-10-27T14:09:41.000Z</time>
      </trkpt>
      <trkpt lat="40.237721" lon="-3.434713">
        <ele>609.891506</ele>
        <time>2021-10-27T14:09:42.000Z</time>
      </trkpt>
      <trkpt lat="40.237703" lon="-3.434597">
        <ele>609.212787</ele>
        <time>2021-10-27T14:09:44.000Z</time>
      </trkpt>
      <trkpt lat="40.237679" lon="-3.434551">
        <ele>608.893316</ele>
        <time>2021-10-27T14:09:45.000Z</time>
      </trkpt>
      <trkpt lat="40.237638" lon="-3.434499">
        <ele>608.464675</ele>
        <time>2021-10-27T14:09:46.000Z</time>
      </trkpt>
      <trkpt lat="40.237532" lon="-3.434441">
        <ele>607.601833</ele>
        <time>2021-10-27T14:09:48.000Z</time>
      </trkpt>
      <trkpt lat="40.237392" lon="-3.434397">
        <ele>606.520437</ele>
        <time>2021-10-27T14:09:50.000Z</time>
      </trkpt>
      <trkpt lat="40.237238" lon="-3.434354">
        <ele>605.337741</ele>
        <time>2021-10-27T14:09:52.000Z</time>
      </trkpt>
      <trkpt lat="40.237162" lon="-3.434336">
        <ele>604.757642</ele>
        <time>2021-10-27T14:09:53.000Z</time>
      </trkpt>
      <trkpt lat="40.237083" lon="-3.434308">
        <ele>604.142928</ele>
        <time>2021-10-27T14:09:54.000Z</time>
      </trkpt>
      <trkpt lat="40.236918" lon="-3.434245">
        <ele>602.852023</ele>
        <time>2021-10-27T14:09:56.000Z</time>
      </trkpt>
      <trkpt lat="40.236754" lon="-3.434195">
        <ele>601.587279</ele>
        <time>2021-10-27T14:09:58.000Z</time>
      </trkpt>
      <trkpt lat="40.236669" lon="-3.434174">
        <ele>600.937579</ele>
        <time>2021-10-27T14:09:59.000Z</time>
      </trkpt>
      <trkpt lat="40.236405" lon="-3.434118">
        <ele>599.574048</ele>
        <time>2021-10-27T14:10:02.000Z</time>
      </trkpt>
      <trkpt lat="40.236320" lon="-3.434102">
        <ele>599.247378</ele>
        <time>2021-10-27T14:10:03.000Z</time>
      </trkpt>
      <trkpt lat="40.236162" lon="-3.434063">
        <ele>598.635753</ele>
        <time>2021-10-27T14:10:05.000Z</time>
      </trkpt>
      <trkpt lat="40.236028" lon="-3.433995">
        <ele>598.089090</ele>
        <time>2021-10-27T14:10:07.000Z</time>
      </trkpt>
      <trkpt lat="40.235967" lon="-3.433962">
        <ele>597.838030</ele>
        <time>2021-10-27T14:10:08.000Z</time>
      </trkpt>
      <trkpt lat="40.235833" lon="-3.433892">
        <ele>597.289242</ele>
        <time>2021-10-27T14:10:11.000Z</time>
      </trkpt>
      <trkpt lat="40.235798" lon="-3.433899">
        <ele>597.154556</ele>
        <time>2021-10-27T14:10:12.000Z</time>
      </trkpt>
      <trkpt lat="40.235718" lon="-3.433938">
        <ele>596.829836</ele>
        <time>2021-10-27T14:10:14.000Z</time>
      </trkpt>
      <trkpt lat="40.235627" lon="-3.433991">
        <ele>596.450989</ele>
        <time>2021-10-27T14:10:16.000Z</time>
      </trkpt>
      <trkpt lat="40.235463" lon="-3.434077">
        <ele>595.778984</ele>
        <time>2021-10-27T14:10:19.000Z</time>
      </trkpt>
      <trkpt lat="40.235401" lon="-3.434109">
        <ele>595.525482</ele>
        <time>2021-10-27T14:10:20.000Z</time>
      </trkpt>
      <trkpt lat="40.235209" lon="-3.434223">
        <ele>594.723567</ele>
        <time>2021-10-27T14:10:23.000Z</time>
      </trkpt>
      <trkpt lat="40.235071" lon="-3.434308">
        <ele>594.143462</ele>
        <time>2021-10-27T14:10:25.000Z</time>
      </trkpt>
      <trkpt lat="40.234999" lon="-3.434350">
        <ele>593.843636</ele>
        <time>2021-10-27T14:10:26.000Z</time>
      </trkpt>
      <trkpt lat="40.234777" lon="-3.434496">
        <ele>592.786969</ele>
        <time>2021-10-27T14:10:29.000Z</time>
      </trkpt>
      <trkpt lat="40.234704" lon="-3.434549">
        <ele>592.397865</ele>
        <time>2021-10-27T14:10:30.000Z</time>
      </trkpt>
      <trkpt lat="40.234560" lon="-3.434646">
        <ele>591.642975</ele>
        <time>2021-10-27T14:10:32.000Z</time>
      </trkpt>
      <trkpt lat="40.234329" lon="-3.434784">
        <ele>590.459345</ele>
        <time>2021-10-27T14:10:35.000Z</time>
      </trkpt>
      <trkpt lat="40.234186" lon="-3.434870">
        <ele>589.725775</ele>
        <time>2021-10-27T14:10:37.000Z</time>
      </trkpt>
      <trkpt lat="40.234120" lon="-3.434914">
        <ele>589.380526</ele>
        <time>2021-10-27T14:10:38.000Z</time>
      </trkpt>
      <trkpt lat="40.234054" lon="-3.434960">
        <ele>589.031990</ele>
        <time>2021-10-27T14:10:39.000Z</time>
      </trkpt>
      <trkpt lat="40.233989" lon="-3.435002">
        <ele>588.694098</ele>
        <time>2021-10-27T14:10:40.000Z</time>
      </trkpt>
      <trkpt lat="40.233855" lon="-3.435081">
        <ele>588.009034</ele>
        <time>2021-10-27T14:10:42.000Z</time>
      </trkpt>
      <trkpt lat="40.233503" lon="-3.435299">
        <ele>586.193839</ele>
        <time>2021-10-27T14:10:47.000Z</time>
      </trkpt>
      <trkpt lat="40.233433" lon="-3.435346">
        <ele>585.827125</ele>
        <time>2021-10-27T14:10:48.000Z</time>
      </trkpt>
      <trkpt lat="40.233360" lon="-3.435393">
        <ele>585.447912</ele>
        <time>2021-10-27T14:10:49.000Z</time>
      </trkpt>
      <trkpt lat="40.233142" lon="-3.435528">
        <ele>585.052794</ele>
        <time>2021-10-27T14:10:52.000Z</time>
      </trkpt>
      <trkpt lat="40.233017" lon="-3.435608">
        <ele>585.094558</ele>
        <time>2021-10-27T14:10:54.000Z</time>
      </trkpt>
      <trkpt lat="40.232966" lon="-3.435653">
        <ele>585.113018</ele>
        <time>2021-10-27T14:10:55.000Z</time>
      </trkpt>
      <trkpt lat="40.232892" lon="-3.435733">
        <ele>585.141821</ele>
        <time>2021-10-27T14:10:57.000Z</time>
      </trkpt>
      <trkpt lat="40.232782" lon="-3.435822">
        <ele>585.180635</ele>
        <time>2021-10-27T14:11:01.000Z</time>
      </trkpt>
      <trkpt lat="40.232742" lon="-3.435834">
        <ele>585.192954</ele>
        <time>2021-10-27T14:11:03.000Z</time>
      </trkpt>
      <trkpt lat="40.232736" lon="-3.435818">
        <ele>585.197039</ele>
        <time>2021-10-27T14:11:04.000Z</time>
      </trkpt>
      <trkpt lat="40.232741" lon="-3.435790">
        <ele>585.203630</ele>
        <time>2021-10-27T14:11:08.000Z</time>
      </trkpt>
      <trkpt lat="40.232747" lon="-3.435783">
        <ele>585.206042</ele>
        <time>2021-10-27T14:11:10.000Z</time>
      </trkpt>
      <trkpt lat="40.232760" lon="-3.435751">
        <ele>585.214349</ele>
        <time>2021-10-27T14:11:12.000Z</time>
      </trkpt>
      <trkpt lat="40.232722" lon="-3.435609">
        <ele>585.248834</ele>
        <time>2021-10-27T14:11:17.000Z</time>
      </trkpt>
      <trkpt lat="40.232679" lon="-3.435471">
        <ele>585.282994</ele>
        <time>2021-10-27T14:11:21.000Z</time>
      </trkpt>
      <trkpt lat="40.232622" lon="-3.435290">
        <ele>585.327867</ele>
        <time>2021-10-27T14:11:25.000Z</time>
      </trkpt>
      <trkpt lat="40.232512" lon="-3.435048">
        <ele>585.392415</ele>
        <time>2021-10-27T14:11:31.000Z</time>
      </trkpt>
      <trkpt lat="40.232496" lon="-3.435005">
        <ele>585.403378</ele>
        <time>2021-10-27T14:11:32.000Z</time>
      </trkpt>
      <trkpt lat="40.232369" lon="-3.434632">
        <ele>585.496979</ele>
        <time>2021-10-27T14:11:39.000Z</time>
      </trkpt>
      <trkpt lat="40.232253" lon="-3.434319">
        <ele>585.303217</ele>
        <time>2021-10-27T14:11:44.000Z</time>
      </trkpt>
      <trkpt lat="40.232156" lon="-3.434051">
        <ele>584.709076</ele>
        <time>2021-10-27T14:11:48.000Z</time>
      </trkpt>
      <trkpt lat="40.232054" lon="-3.433760">
        <ele>584.067632</ele>
        <time>2021-10-27T14:11:52.000Z</time>
      </trkpt>
      <trkpt lat="40.232031" lon="-3.433682">
        <ele>583.900131</ele>
        <time>2021-10-27T14:11:53.000Z</time>
      </trkpt>
      <trkpt lat="40.232008" lon="-3.433604">
        <ele>583.732629</ele>
        <time>2021-10-27T14:11:54.000Z</time>
      </trkpt>
      <trkpt lat="40.231984" lon="-3.433527">
        <ele>583.566021</ele>
        <time>2021-10-27T14:11:55.000Z</time>
      </trkpt>
      <trkpt lat="40.231937" lon="-3.433371">
        <ele>583.230063</ele>
        <time>2021-10-27T14:11:57.000Z</time>
      </trkpt>
      <trkpt lat="40.231891" lon="-3.433111">
        <ele>582.695421</ele>
        <time>2021-10-27T14:12:00.000Z</time>
      </trkpt>
      <trkpt lat="40.231882" lon="-3.433023">
        <ele>582.517562</ele>
        <time>2021-10-27T14:12:01.000Z</time>
      </trkpt>
      <trkpt lat="40.231883" lon="-3.432392">
        <ele>581.253523</ele>
        <time>2021-10-27T14:12:08.000Z</time>
      </trkpt>
      <trkpt lat="40.231886" lon="-3.432036">
        <ele>580.747921</ele>
        <time>2021-10-27T14:12:12.000Z</time>
      </trkpt>
      <trkpt lat="40.231891" lon="-3.431803">
        <ele>580.616688</ele>
        <time>2021-10-27T14:12:15.000Z</time>
      </trkpt>
      <trkpt lat="40.231881" lon="-3.431703">
        <ele>580.559907</ele>
        <time>2021-10-27T14:12:18.000Z</time>
      </trkpt>
      <trkpt lat="40.231819" lon="-3.431558">
        <ele>580.466338</ele>
        <time>2021-10-27T14:12:22.000Z</time>
      </trkpt>
      <trkpt lat="40.231676" lon="-3.431218">
        <ele>580.247788</ele>
        <time>2021-10-27T14:12:28.000Z</time>
      </trkpt>
      <trkpt lat="40.231450" lon="-3.430865">
        <ele>579.988411</ele>
        <time>2021-10-27T14:12:34.000Z</time>
      </trkpt>
      <trkpt lat="40.231184" lon="-3.430523">
        <ele>579.713535</ele>
        <time>2021-10-27T14:12:40.000Z</time>
      </trkpt>
      <trkpt lat="40.231140" lon="-3.430464">
        <ele>579.667099</ele>
        <time>2021-10-27T14:12:41.000Z</time>
      </trkpt>
      <trkpt lat="40.231053" lon="-3.430343">
        <ele>579.573518</ele>
        <time>2021-10-27T14:12:43.000Z</time>
      </trkpt>
      <trkpt lat="40.231009" lon="-3.430283">
        <ele>579.526677</ele>
        <time>2021-10-27T14:12:44.000Z</time>
      </trkpt>
      <trkpt lat="40.230762" lon="-3.429904">
        <ele>578.839607</ele>
        <time>2021-10-27T14:12:50.000Z</time>
      </trkpt>
      <trkpt lat="40.230719" lon="-3.429856">
        <ele>578.731915</ele>
        <time>2021-10-27T14:12:51.000Z</time>
      </trkpt>
      <trkpt lat="40.230678" lon="-3.429811">
        <ele>578.629953</ele>
        <time>2021-10-27T14:12:52.000Z</time>
      </trkpt>
      <trkpt lat="40.230541" lon="-3.429601">
        <ele>578.227969</ele>
        <time>2021-10-27T14:12:56.000Z</time>
      </trkpt>
      <trkpt lat="40.230467" lon="-3.429481">
        <ele>578.003485</ele>
        <time>2021-10-27T14:12:58.000Z</time>
      </trkpt>
      <trkpt lat="40.230292" lon="-3.429172">
        <ele>577.443589</ele>
        <time>2021-10-27T14:13:03.000Z</time>
      </trkpt>
      <trkpt lat="40.230198" lon="-3.428968">
        <ele>577.096832</ele>
        <time>2021-10-27T14:13:06.000Z</time>
      </trkpt>
      <trkpt lat="40.230144" lon="-3.428827">
        <ele>576.867269</ele>
        <time>2021-10-27T14:13:08.000Z</time>
      </trkpt>
      <trkpt lat="40.230124" lon="-3.428753">
        <ele>576.753030</ele>
        <time>2021-10-27T14:13:09.000Z</time>
      </trkpt>
      <trkpt lat="40.230061" lon="-3.428526">
        <ele>576.401533</ele>
        <time>2021-10-27T14:13:12.000Z</time>
      </trkpt>
      <trkpt lat="40.229999" lon="-3.428291">
        <ele>575.914231</ele>
        <time>2021-10-27T14:13:15.000Z</time>
      </trkpt>
      <trkpt lat="40.229987" lon="-3.428210">
        <ele>575.356591</ele>
        <time>2021-10-27T14:13:16.000Z</time>
      </trkpt>
      <trkpt lat="40.229953" lon="-3.427887">
        <ele>573.152985</ele>
        <time>2021-10-27T14:13:20.000Z</time>
      </trkpt>
      <trkpt lat="40.229940" lon="-3.427845">
        <ele>572.846692</ele>
        <time>2021-10-27T14:13:21.000Z</time>
      </trkpt>
      <trkpt lat="40.229917" lon="-3.427834">
        <ele>572.629941</ele>
        <time>2021-10-27T14:13:22.000Z</time>
      </trkpt>
      <trkpt lat="40.229790" lon="-3.427924">
        <ele>571.351701</ele>
        <time>2021-10-27T14:13:26.000Z</time>
      </trkpt>
      <trkpt lat="40.229738" lon="-3.427942">
        <ele>570.875577</ele>
        <time>2021-10-27T14:13:27.000Z</time>
      </trkpt>
      <trkpt lat="40.229679" lon="-3.427952">
        <ele>570.348936</ele>
        <time>2021-10-27T14:13:28.000Z</time>
      </trkpt>
      <trkpt lat="40.229615" lon="-3.427961">
        <ele>569.779132</ele>
        <time>2021-10-27T14:13:29.000Z</time>
      </trkpt>
      <trkpt lat="40.229552" lon="-3.427976">
        <ele>569.212297</ele>
        <time>2021-10-27T14:13:30.000Z</time>
      </trkpt>
      <trkpt lat="40.229490" lon="-3.427986">
        <ele>568.659308</ele>
        <time>2021-10-27T14:13:31.000Z</time>
      </trkpt>
      <trkpt lat="40.229434" lon="-3.427992">
        <ele>568.161923</ele>
        <time>2021-10-27T14:13:32.000Z</time>
      </trkpt>
      <trkpt lat="40.229386" lon="-3.428002">
        <ele>567.731670</ele>
        <time>2021-10-27T14:13:33.000Z</time>
      </trkpt>
      <trkpt lat="40.229345" lon="-3.428013">
        <ele>567.361190</ele>
        <time>2021-10-27T14:13:34.000Z</time>
      </trkpt>
      <trkpt lat="40.229274" lon="-3.428012">
        <ele>566.732639</ele>
        <time>2021-10-27T14:13:36.000Z</time>
      </trkpt>
      <trkpt lat="40.229230" lon="-3.428013">
        <ele>566.343078</ele>
        <time>2021-10-27T14:13:37.000Z</time>
      </trkpt>
      <trkpt lat="40.229182" lon="-3.428013">
        <ele>565.918167</ele>
        <time>2021-10-27T14:13:38.000Z</time>
      </trkpt>
      <trkpt lat="40.229131" lon="-3.428012">
        <ele>565.466649</ele>
        <time>2021-10-27T14:13:39.000Z</time>
      </trkpt>
      <trkpt lat="40.229040" lon="-3.428024">
        <ele>564.657016</ele>
        <time>2021-10-27T14:13:41.000Z</time>
      </trkpt>
      <trkpt lat="40.229003" lon="-3.428029">
        <ele>564.327741</ele>
        <time>2021-10-27T14:13:42.000Z</time>
      </trkpt>
      <trkpt lat="40.228972" lon="-3.428034">
        <ele>564.051247</ele>
        <time>2021-10-27T14:13:43.000Z</time>
      </trkpt>
      <trkpt lat="40.228941" lon="-3.428036">
        <ele>563.776492</ele>
        <time>2021-10-27T14:13:45.000Z</time>
      </trkpt>
      <trkpt lat="40.228923" lon="-3.428046">
        <ele>563.603410</ele>
        <time>2021-10-27T14:13:47.000Z</time>
      </trkpt>
      <trkpt lat="40.228906" lon="-3.428050">
        <ele>563.450512</ele>
        <time>2021-10-27T14:13:48.000Z</time>
      </trkpt>
      <trkpt lat="40.228888" lon="-3.428037">
        <ele>563.268552</ele>
        <time>2021-10-27T14:13:49.000Z</time>
      </trkpt>
      <trkpt lat="40.228943" lon="-3.428363">
        <ele>561.012134</ele>
        <time>2021-10-27T14:17:20.000Z</time>
      </trkpt>
      <trkpt lat="40.228946" lon="-3.429121">
        <ele>559.616050</ele>
        <time>2021-10-27T14:17:30.000Z</time>
      </trkpt>
      <trkpt lat="40.228947" lon="-3.429265">
        <ele>559.493691</ele>
        <time>2021-10-27T14:17:32.000Z</time>
      </trkpt>
      <trkpt lat="40.228946" lon="-3.429699">
        <ele>559.124931</ele>
        <time>2021-10-27T14:17:39.000Z</time>
      </trkpt>
      <trkpt lat="40.228954" lon="-3.429735">
        <ele>559.093073</ele>
        <time>2021-10-27T14:17:41.000Z</time>
      </trkpt>
      <trkpt lat="40.228954" lon="-3.429733">
        <ele>559.091374</ele>
        <time>2021-10-27T14:17:42.000Z</time>
      </trkpt>
      <trkpt lat="40.228954" lon="-3.429729">
        <ele>559.087975</ele>
        <time>2021-10-27T14:17:44.000Z</time>
      </trkpt>
      <trkpt lat="40.228952" lon="-3.429725">
        <ele>559.083912</ele>
        <time>2021-10-27T14:17:53.000Z</time>
      </trkpt>
      <trkpt lat="40.228953" lon="-3.429724">
        <ele>559.082512</ele>
        <time>2021-10-27T14:17:57.000Z</time>
      </trkpt>
      <trkpt lat="40.228953" lon="-3.429723">
        <ele>559.081662</ele>
        <time>2021-10-27T14:18:01.000Z</time>
      </trkpt>
      <trkpt lat="40.228954" lon="-3.429721">
        <ele>559.079631</ele>
        <time>2021-10-27T14:18:04.000Z</time>
      </trkpt>
      <trkpt lat="40.228954" lon="-3.429719">
        <ele>559.077932</ele>
        <time>2021-10-27T14:18:08.000Z</time>
      </trkpt>
      <trkpt lat="40.228954" lon="-3.429719">
        <ele>559.077932</ele>
        <time>2021-10-27T14:18:10.000Z</time>
      </trkpt>
      <trkpt lat="40.228954" lon="-3.429719">
        <ele>559.077932</ele>
        <time>2021-10-27T14:18:21.000Z</time>
      </trkpt>
      <trkpt lat="40.228955" lon="-3.429725">
        <ele>559.072714</ele>
        <time>2021-10-27T14:18:34.000Z</time>
      </trkpt>
      <trkpt lat="40.228941" lon="-3.429787">
        <ele>559.017778</ele>
        <time>2021-10-27T14:18:37.000Z</time>
      </trkpt>
      <trkpt lat="40.228839" lon="-3.430000">
        <ele>558.804142</ele>
        <time>2021-10-27T14:18:42.000Z</time>
      </trkpt>
      <trkpt lat="40.228815" lon="-3.430057">
        <ele>558.748834</ele>
        <time>2021-10-27T14:18:43.000Z</time>
      </trkpt>
      <trkpt lat="40.228779" lon="-3.430177">
        <ele>558.639283</ele>
        <time>2021-10-27T14:18:45.000Z</time>
      </trkpt>
      <trkpt lat="40.228762" lon="-3.430240">
        <ele>558.582509</ele>
        <time>2021-10-27T14:18:46.000Z</time>
      </trkpt>
      <trkpt lat="40.228686" lon="-3.430569">
        <ele>558.290449</ele>
        <time>2021-10-27T14:18:51.000Z</time>
      </trkpt>
      <trkpt lat="40.228651" lon="-3.430700">
        <ele>558.172522</ele>
        <time>2021-10-27T14:18:53.000Z</time>
      </trkpt>
      <trkpt lat="40.228617" lon="-3.430833">
        <ele>558.231833</ele>
        <time>2021-10-27T14:18:55.000Z</time>
      </trkpt>
      <trkpt lat="40.228516" lon="-3.431309">
        <ele>558.585327</ele>
        <time>2021-10-27T14:19:02.000Z</time>
      </trkpt>
      <trkpt lat="40.228485" lon="-3.431439">
        <ele>558.682776</ele>
        <time>2021-10-27T14:19:04.000Z</time>
      </trkpt>
      <trkpt lat="40.228417" lon="-3.431777">
        <ele>558.932876</ele>
        <time>2021-10-27T14:19:09.000Z</time>
      </trkpt>
      <trkpt lat="40.228404" lon="-3.431924">
        <ele>559.038761</ele>
        <time>2021-10-27T14:19:11.000Z</time>
      </trkpt>
      <trkpt lat="40.228372" lon="-3.432437">
        <ele>559.407044</ele>
        <time>2021-10-27T14:19:18.000Z</time>
      </trkpt>
      <trkpt lat="40.228363" lon="-3.432656">
        <ele>559.563970</ele>
        <time>2021-10-27T14:19:21.000Z</time>
      </trkpt>
      <trkpt lat="40.228337" lon="-3.433247">
        <ele>560.146367</ele>
        <time>2021-10-27T14:19:29.000Z</time>
      </trkpt>
      <trkpt lat="40.228331" lon="-3.433320">
        <ele>560.253924</ele>
        <time>2021-10-27T14:19:30.000Z</time>
      </trkpt>
      <trkpt lat="40.228299" lon="-3.434035">
        <ele>561.303144</ele>
        <time>2021-10-27T14:19:40.000Z</time>
      </trkpt>
      <trkpt lat="40.228306" lon="-3.434099">
        <ele>561.397857</ele>
        <time>2021-10-27T14:19:41.000Z</time>
      </trkpt>
      <trkpt lat="40.228324" lon="-3.434216">
        <ele>561.572698</ele>
        <time>2021-10-27T14:19:43.000Z</time>
      </trkpt>
      <trkpt lat="40.228349" lon="-3.434331">
        <ele>561.747861</ele>
        <time>2021-10-27T14:19:45.000Z</time>
      </trkpt>
      <trkpt lat="40.228372" lon="-3.434383">
        <ele>561.835897</ele>
        <time>2021-10-27T14:19:46.000Z</time>
      </trkpt>
      <trkpt lat="40.228402" lon="-3.434434">
        <ele>561.930211</ele>
        <time>2021-10-27T14:19:47.000Z</time>
      </trkpt>
      <trkpt lat="40.228464" lon="-3.434529">
        <ele>562.113295</ele>
        <time>2021-10-27T14:19:49.000Z</time>
      </trkpt>
      <trkpt lat="40.228492" lon="-3.434577">
        <ele>562.201787</ele>
        <time>2021-10-27T14:19:50.000Z</time>
      </trkpt>
      <trkpt lat="40.228512" lon="-3.434630">
        <ele>562.288394</ele>
        <time>2021-10-27T14:19:51.000Z</time>
      </trkpt>
      <trkpt lat="40.228521" lon="-3.434688">
        <ele>562.375097</ele>
        <time>2021-10-27T14:19:52.000Z</time>
      </trkpt>
      <trkpt lat="40.228518" lon="-3.434806">
        <ele>562.548053</ele>
        <time>2021-10-27T14:19:54.000Z</time>
      </trkpt>
      <trkpt lat="40.228509" lon="-3.434863">
        <ele>562.633321</ele>
        <time>2021-10-27T14:19:55.000Z</time>
      </trkpt>
      <trkpt lat="40.228481" lon="-3.434971">
        <ele>562.800405</ele>
        <time>2021-10-27T14:19:57.000Z</time>
      </trkpt>
      <trkpt lat="40.228421" lon="-3.435185">
        <ele>563.134369</ele>
        <time>2021-10-27T14:20:01.000Z</time>
      </trkpt>
      <trkpt lat="40.228414" lon="-3.435433">
        <ele>563.302707</ele>
        <time>2021-10-27T14:20:36.000Z</time>
      </trkpt>
      <trkpt lat="40.228445" lon="-3.435520">
        <ele>563.313145</ele>
        <time>2021-10-27T14:20:38.000Z</time>
      </trkpt>
      <trkpt lat="40.228484" lon="-3.435623">
        <ele>563.325645</ele>
        <time>2021-10-27T14:20:40.000Z</time>
      </trkpt>
      <trkpt lat="40.228524" lon="-3.435759">
        <ele>563.341491</ele>
        <time>2021-10-27T14:20:42.000Z</time>
      </trkpt>
      <trkpt lat="40.228562" lon="-3.435883">
        <ele>563.356018</ele>
        <time>2021-10-27T14:20:44.000Z</time>
      </trkpt>
      <trkpt lat="40.228604" lon="-3.436053">
        <ele>563.375445</ele>
        <time>2021-10-27T14:20:47.000Z</time>
      </trkpt>
      <trkpt lat="40.228607" lon="-3.436209">
        <ele>563.392411</ele>
        <time>2021-10-27T14:20:50.000Z</time>
      </trkpt>
      <trkpt lat="40.228598" lon="-3.436324">
        <ele>563.404980</ele>
        <time>2021-10-27T14:20:52.000Z</time>
      </trkpt>
      <trkpt lat="40.228582" lon="-3.436583">
        <ele>563.433231</ele>
        <time>2021-10-27T14:20:57.000Z</time>
      </trkpt>
      <trkpt lat="40.228571" lon="-3.436774">
        <ele>563.454057</ele>
        <time>2021-10-27T14:21:01.000Z</time>
      </trkpt>
      <trkpt lat="40.228613" lon="-3.437081">
        <ele>563.487967</ele>
        <time>2021-10-27T14:21:07.000Z</time>
      </trkpt>
      <trkpt lat="40.228633" lon="-3.437192">
        <ele>563.500366</ele>
        <time>2021-10-27T14:21:11.000Z</time>
      </trkpt>
      <trkpt lat="40.228622" lon="-3.437226">
        <ele>563.504381</ele>
        <time>2021-10-27T14:21:12.000Z</time>
      </trkpt>
      <trkpt lat="40.228579" lon="-3.437299">
        <ele>563.514406</ele>
        <time>2021-10-27T14:21:14.000Z</time>
      </trkpt>
      <trkpt lat="40.228552" lon="-3.437332">
        <ele>563.519665</ele>
        <time>2021-10-27T14:21:15.000Z</time>
      </trkpt>
      <trkpt lat="40.228403" lon="-3.437425">
        <ele>563.543169</ele>
        <time>2021-10-27T14:21:19.000Z</time>
      </trkpt>
      <trkpt lat="40.228364" lon="-3.437456">
        <ele>563.436556</ele>
        <time>2021-10-27T14:21:20.000Z</time>
      </trkpt>
      <trkpt lat="40.228327" lon="-3.437492">
        <ele>563.328375</ele>
        <time>2021-10-27T14:21:21.000Z</time>
      </trkpt>
      <trkpt lat="40.228290" lon="-3.437528">
        <ele>563.220194</ele>
        <time>2021-10-27T14:21:22.000Z</time>
      </trkpt>
      <trkpt lat="40.228212" lon="-3.437599">
        <ele>562.997252</ele>
        <time>2021-10-27T14:21:24.000Z</time>
      </trkpt>
      <trkpt lat="40.228138" lon="-3.437680">
        <ele>562.770901</ele>
        <time>2021-10-27T14:21:26.000Z</time>
      </trkpt>
      <trkpt lat="40.227990" lon="-3.437865">
        <ele>562.290727</ele>
        <time>2021-10-27T14:21:30.000Z</time>
      </trkpt>
      <trkpt lat="40.227953" lon="-3.437913">
        <ele>562.168498</ele>
        <time>2021-10-27T14:21:31.000Z</time>
      </trkpt>
      <trkpt lat="40.227851" lon="-3.438061">
        <ele>561.811215</ele>
        <time>2021-10-27T14:21:34.000Z</time>
      </trkpt>
      <trkpt lat="40.227817" lon="-3.438112">
        <ele>561.689887</ele>
        <time>2021-10-27T14:21:35.000Z</time>
      </trkpt>
      <trkpt lat="40.227785" lon="-3.438169">
        <ele>561.563104</ele>
        <time>2021-10-27T14:21:36.000Z</time>
      </trkpt>
      <trkpt lat="40.227752" lon="-3.438226">
        <ele>561.434916</ele>
        <time>2021-10-27T14:21:37.000Z</time>
      </trkpt>
      <trkpt lat="40.227636" lon="-3.438472">
        <ele>560.916790</ele>
        <time>2021-10-27T14:21:41.000Z</time>
      </trkpt>
      <trkpt lat="40.227553" lon="-3.438669">
        <ele>560.513587</ele>
        <time>2021-10-27T14:21:44.000Z</time>
      </trkpt>
      <trkpt lat="40.227484" lon="-3.438795">
        <ele>560.235724</ele>
        <time>2021-10-27T14:21:46.000Z</time>
      </trkpt>
      <trkpt lat="40.227453" lon="-3.438864">
        <ele>560.092258</ele>
        <time>2021-10-27T14:21:47.000Z</time>
      </trkpt>
      <trkpt lat="40.227425" lon="-3.438879">
        <ele>560.021254</ele>
        <time>2021-10-27T14:23:11.000Z</time>
      </trkpt>
      <trkpt lat="40.227417" lon="-3.438784">
        <ele>559.849984</ele>
        <time>2021-10-27T14:23:13.000Z</time>
      </trkpt>
      <trkpt lat="40.227392" lon="-3.438703">
        <ele>559.693422</ele>
        <time>2021-10-27T14:23:15.000Z</time>
      </trkpt>
      <trkpt lat="40.227378" lon="-3.438660">
        <ele>559.609653</ele>
        <time>2021-10-27T14:23:16.000Z</time>
      </trkpt>
      <trkpt lat="40.227290" lon="-3.438334">
        <ele>558.945688</ele>
        <time>2021-10-27T14:23:23.000Z</time>
      </trkpt>
      <trkpt lat="40.227261" lon="-3.438241">
        <ele>558.741596</ele>
        <time>2021-10-27T14:23:26.000Z</time>
      </trkpt>
      <trkpt lat="40.227247" lon="-3.438215">
        <ele>558.676958</ele>
        <time>2021-10-27T14:23:27.000Z</time>
      </trkpt>
      <trkpt lat="40.227232" lon="-3.438189">
        <ele>558.610751</ele>
        <time>2021-10-27T14:23:28.000Z</time>
      </trkpt>
      <trkpt lat="40.227224" lon="-3.438162">
        <ele>558.551911</ele>
        <time>2021-10-27T14:23:29.000Z</time>
      </trkpt>
      <trkpt lat="40.227222" lon="-3.438122">
        <ele>558.470472</ele>
        <time>2021-10-27T14:23:33.000Z</time>
      </trkpt>
      <trkpt lat="40.227218" lon="-3.438001">
        <ele>558.224415</ele>
        <time>2021-10-27T14:23:55.000Z</time>
      </trkpt>
      <trkpt lat="40.227192" lon="-3.437968">
        <ele>558.128075</ele>
        <time>2021-10-27T14:23:57.000Z</time>
      </trkpt>
      <trkpt lat="40.227132" lon="-3.437956">
        <ele>557.966566</ele>
        <time>2021-10-27T14:23:59.000Z</time>
      </trkpt>
      <trkpt lat="40.226910" lon="-3.437866">
        <ele>557.348179</ele>
        <time>2021-10-27T14:24:04.000Z</time>
      </trkpt>
      <trkpt lat="40.226806" lon="-3.437818">
        <ele>557.054758</ele>
        <time>2021-10-27T14:24:06.000Z</time>
      </trkpt>
      <trkpt lat="40.226755" lon="-3.437794">
        <ele>556.910555</ele>
        <time>2021-10-27T14:24:07.000Z</time>
      </trkpt>
      <trkpt lat="40.226592" lon="-3.437723">
        <ele>556.453459</ele>
        <time>2021-10-27T14:24:10.000Z</time>
      </trkpt>
      <trkpt lat="40.226473" lon="-3.437669">
        <ele>556.118337</ele>
        <time>2021-10-27T14:24:12.000Z</time>
      </trkpt>
      <trkpt lat="40.226414" lon="-3.437644">
        <ele>555.953328</ele>
        <time>2021-10-27T14:24:13.000Z</time>
      </trkpt>
      <trkpt lat="40.226302" lon="-3.437596">
        <ele>555.639750</ele>
        <time>2021-10-27T14:24:15.000Z</time>
      </trkpt>
      <trkpt lat="40.226244" lon="-3.437569">
        <ele>555.475955</ele>
        <time>2021-10-27T14:24:16.000Z</time>
      </trkpt>
      <trkpt lat="40.226054" lon="-3.437490">
        <ele>554.945505</ele>
        <time>2021-10-27T14:24:20.000Z</time>
      </trkpt>
      <trkpt lat="40.225867" lon="-3.437461">
        <ele>554.455985</ele>
        <time>2021-10-27T14:24:25.000Z</time>
      </trkpt>
      <trkpt lat="40.225778" lon="-3.437471">
        <ele>554.248466</ele>
        <time>2021-10-27T14:24:27.000Z</time>
      </trkpt>
      <trkpt lat="40.225677" lon="-3.437486">
        <ele>554.012326</ele>
        <time>2021-10-27T14:24:29.000Z</time>
      </trkpt>
      <trkpt lat="40.225512" lon="-3.437516">
        <ele>553.625333</ele>
        <time>2021-10-27T14:24:32.000Z</time>
      </trkpt>
      <trkpt lat="40.225452" lon="-3.437533">
        <ele>553.482720</ele>
        <time>2021-10-27T14:24:33.000Z</time>
      </trkpt>
      <trkpt lat="40.225133" lon="-3.437634">
        <ele>552.720294</ele>
        <time>2021-10-27T14:24:38.000Z</time>
      </trkpt>
      <trkpt lat="40.225005" lon="-3.437685">
        <ele>552.409477</ele>
        <time>2021-10-27T14:24:40.000Z</time>
      </trkpt>
      <trkpt lat="40.224874" lon="-3.437729">
        <ele>552.095298</ele>
        <time>2021-10-27T14:24:42.000Z</time>
      </trkpt>
      <trkpt lat="40.224736" lon="-3.437758">
        <ele>551.770605</ele>
        <time>2021-10-27T14:24:44.000Z</time>
      </trkpt>
      <trkpt lat="40.224265" lon="-3.437876">
        <ele>550.656569</ele>
        <time>2021-10-27T14:24:51.000Z</time>
      </trkpt>
      <trkpt lat="40.223953" lon="-3.437992">
        <ele>550.311403</ele>
        <time>2021-10-27T14:24:56.000Z</time>
      </trkpt>
      <trkpt lat="40.223766" lon="-3.438038">
        <ele>550.267025</ele>
        <time>2021-10-27T14:24:59.000Z</time>
      </trkpt>
      <trkpt lat="40.223204" lon="-3.438094">
        <ele>550.135565</ele>
        <time>2021-10-27T14:25:08.000Z</time>
      </trkpt>
      <trkpt lat="40.223078" lon="-3.438110">
        <ele>550.106038</ele>
        <time>2021-10-27T14:25:10.000Z</time>
      </trkpt>
      <trkpt lat="40.222955" lon="-3.438115">
        <ele>550.077336</ele>
        <time>2021-10-27T14:25:12.000Z</time>
      </trkpt>
      <trkpt lat="40.222657" lon="-3.438137">
        <ele>550.007720</ele>
        <time>2021-10-27T14:25:17.000Z</time>
      </trkpt>
      <trkpt lat="40.222424" lon="-3.438152">
        <ele>549.953309</ele>
        <time>2021-10-27T14:25:21.000Z</time>
      </trkpt>
      <trkpt lat="40.222199" lon="-3.438157">
        <ele>549.946846</ele>
        <time>2021-10-27T14:25:25.000Z</time>
      </trkpt>
      <trkpt lat="40.221795" lon="-3.438155">
        <ele>549.971009</ele>
        <time>2021-10-27T14:25:33.000Z</time>
      </trkpt>
      <trkpt lat="40.221479" lon="-3.438093">
        <ele>549.990119</ele>
        <time>2021-10-27T14:25:40.000Z</time>
      </trkpt>
      <trkpt lat="40.221286" lon="-3.438032">
        <ele>550.001993</ele>
        <time>2021-10-27T14:25:44.000Z</time>
      </trkpt>
      <trkpt lat="40.221235" lon="-3.438008">
        <ele>550.005235</ele>
        <time>2021-10-27T14:25:45.000Z</time>
      </trkpt>
      <trkpt lat="40.221182" lon="-3.437986">
        <ele>550.008560</ele>
        <time>2021-10-27T14:25:46.000Z</time>
      </trkpt>
      <trkpt lat="40.221130" lon="-3.437963">
        <ele>550.011842</ele>
        <time>2021-10-27T14:25:47.000Z</time>
      </trkpt>
      <trkpt lat="40.220981" lon="-3.437901">
        <ele>550.021193</ele>
        <time>2021-10-27T14:25:50.000Z</time>
      </trkpt>
      <trkpt lat="40.220830" lon="-3.437852">
        <ele>550.030497</ele>
        <time>2021-10-27T14:25:53.000Z</time>
      </trkpt>
      <trkpt lat="40.220685" lon="-3.437794">
        <ele>550.039564</ele>
        <time>2021-10-27T14:25:56.000Z</time>
      </trkpt>
      <trkpt lat="40.220272" lon="-3.437640">
        <ele>550.196243</ele>
        <time>2021-10-27T14:26:04.000Z</time>
      </trkpt>
      <trkpt lat="40.219754" lon="-3.437435">
        <ele>550.438275</ele>
        <time>2021-10-27T14:26:14.000Z</time>
      </trkpt>
      <trkpt lat="40.219700" lon="-3.437417">
        <ele>550.463198</ele>
        <time>2021-10-27T14:26:15.000Z</time>
      </trkpt>
      <trkpt lat="40.219481" lon="-3.437348">
        <ele>550.563945</ele>
        <time>2021-10-27T14:26:19.000Z</time>
      </trkpt>
      <trkpt lat="40.219426" lon="-3.437328">
        <ele>550.589475</ele>
        <time>2021-10-27T14:26:20.000Z</time>
      </trkpt>
      <trkpt lat="40.219017" lon="-3.437203">
        <ele>550.777324</ele>
        <time>2021-10-27T14:26:28.000Z</time>
      </trkpt>
      <trkpt lat="40.218864" lon="-3.437179">
        <ele>550.846245</ele>
        <time>2021-10-27T14:26:31.000Z</time>
      </trkpt>
      <trkpt lat="40.218811" lon="-3.437178">
        <ele>550.862013</ele>
        <time>2021-10-27T14:26:32.000Z</time>
      </trkpt>
      <trkpt lat="40.218704" lon="-3.437205">
        <ele>550.891828</ele>
        <time>2021-10-27T14:26:34.000Z</time>
      </trkpt>
      <trkpt lat="40.218605" lon="-3.437259">
        <ele>550.921170</ele>
        <time>2021-10-27T14:26:36.000Z</time>
      </trkpt>
      <trkpt lat="40.218477" lon="-3.437367">
        <ele>550.962830</ele>
        <time>2021-10-27T14:26:39.000Z</time>
      </trkpt>
      <trkpt lat="40.218433" lon="-3.437400">
        <ele>550.976703</ele>
        <time>2021-10-27T14:26:40.000Z</time>
      </trkpt>
      <trkpt lat="40.218331" lon="-3.437447">
        <ele>551.006288</ele>
        <time>2021-10-27T14:26:42.000Z</time>
      </trkpt>
      <trkpt lat="40.218276" lon="-3.437455">
        <ele>551.021429</ele>
        <time>2021-10-27T14:26:43.000Z</time>
      </trkpt>
      <trkpt lat="40.218221" lon="-3.437452">
        <ele>551.036490</ele>
        <time>2021-10-27T14:26:44.000Z</time>
      </trkpt>
      <trkpt lat="40.218058" lon="-3.437400">
        <ele>551.082392</ele>
        <time>2021-10-27T14:26:47.000Z</time>
      </trkpt>
      <trkpt lat="40.217565" lon="-3.437205">
        <ele>551.223297</ele>
        <time>2021-10-27T14:26:56.000Z</time>
      </trkpt>
      <trkpt lat="40.217225" lon="-3.437144">
        <ele>551.317191</ele>
        <time>2021-10-27T14:27:02.000Z</time>
      </trkpt>
      <trkpt lat="40.217173" lon="-3.437127">
        <ele>551.331855</ele>
        <time>2021-10-27T14:27:03.000Z</time>
      </trkpt>
      <trkpt lat="40.216894" lon="-3.436987">
        <ele>551.595885</ele>
        <time>2021-10-27T14:27:09.000Z</time>
      </trkpt>
      <trkpt lat="40.216848" lon="-3.436965">
        <ele>551.643215</ele>
        <time>2021-10-27T14:27:10.000Z</time>
      </trkpt>
      <trkpt lat="40.216478" lon="-3.436808">
        <ele>552.019111</ele>
        <time>2021-10-27T14:27:18.000Z</time>
      </trkpt>
      <trkpt lat="40.216346" lon="-3.436747">
        <ele>552.154395</ele>
        <time>2021-10-27T14:27:21.000Z</time>
      </trkpt>
      <trkpt lat="40.216260" lon="-3.436699">
        <ele>552.244745</ele>
        <time>2021-10-27T14:27:23.000Z</time>
      </trkpt>
      <trkpt lat="40.216195" lon="-3.436623">
        <ele>552.328961</ele>
        <time>2021-10-27T14:27:25.000Z</time>
      </trkpt>
      <trkpt lat="40.216164" lon="-3.436508">
        <ele>552.418965</ele>
        <time>2021-10-27T14:27:27.000Z</time>
      </trkpt>
      <trkpt lat="40.216158" lon="-3.436377">
        <ele>552.515818</ele>
        <time>2021-10-27T14:27:29.000Z</time>
      </trkpt>
      <trkpt lat="40.216192" lon="-3.435912">
        <ele>552.860562</ele>
        <time>2021-10-27T14:27:35.000Z</time>
      </trkpt>
      <trkpt lat="40.216197" lon="-3.435831">
        <ele>552.920535</ele>
        <time>2021-10-27T14:27:36.000Z</time>
      </trkpt>
      <trkpt lat="40.216244" lon="-3.435184">
        <ele>552.797851</ele>
        <time>2021-10-27T14:27:44.000Z</time>
      </trkpt>
      <trkpt lat="40.216326" lon="-3.434530">
        <ele>552.366968</ele>
        <time>2021-10-27T14:27:52.000Z</time>
      </trkpt>
      <trkpt lat="40.216343" lon="-3.434453">
        <ele>552.314858</ele>
        <time>2021-10-27T14:27:53.000Z</time>
      </trkpt>
      <trkpt lat="40.216419" lon="-3.434156">
        <ele>552.111214</ele>
        <time>2021-10-27T14:27:57.000Z</time>
      </trkpt>
      <trkpt lat="40.216439" lon="-3.433919">
        <ele>551.956195</ele>
        <time>2021-10-27T14:28:00.000Z</time>
      </trkpt>
      <trkpt lat="40.216446" lon="-3.433583">
        <ele>551.737668</ele>
        <time>2021-10-27T14:28:04.000Z</time>
      </trkpt>
      <trkpt lat="40.216475" lon="-3.433422">
        <ele>551.630124</ele>
        <time>2021-10-27T14:28:06.000Z</time>
      </trkpt>
      <trkpt lat="40.216588" lon="-3.432802">
        <ele>551.766249</ele>
        <time>2021-10-27T14:28:14.000Z</time>
      </trkpt>
      <trkpt lat="40.216616" lon="-3.432352">
        <ele>551.958172</ele>
        <time>2021-10-27T14:28:20.000Z</time>
      </trkpt>
      <trkpt lat="40.216557" lon="-3.431748">
        <ele>552.217017</ele>
        <time>2021-10-27T14:28:28.000Z</time>
      </trkpt>
      <trkpt lat="40.216536" lon="-3.431154">
        <ele>552.469789</ele>
        <time>2021-10-27T14:28:36.000Z</time>
      </trkpt>
      <trkpt lat="40.216536" lon="-3.430722">
        <ele>552.733343</ele>
        <time>2021-10-27T14:28:42.000Z</time>
      </trkpt>
      <trkpt lat="40.216533" lon="-3.430442">
        <ele>552.944240</ele>
        <time>2021-10-27T14:28:46.000Z</time>
      </trkpt>
      <trkpt lat="40.216524" lon="-3.430372">
        <ele>552.997701</ele>
        <time>2021-10-27T14:28:47.000Z</time>
      </trkpt>
      <trkpt lat="40.216414" lon="-3.429760">
        <ele>553.471212</ele>
        <time>2021-10-27T14:28:56.000Z</time>
      </trkpt>
      <trkpt lat="40.216401" lon="-3.429691">
        <ele>553.524737</ele>
        <time>2021-10-27T14:28:57.000Z</time>
      </trkpt>
      <trkpt lat="40.216357" lon="-3.429327">
        <ele>553.802290</ele>
        <time>2021-10-27T14:29:02.000Z</time>
      </trkpt>
      <trkpt lat="40.216353" lon="-3.429179">
        <ele>553.913823</ele>
        <time>2021-10-27T14:29:04.000Z</time>
      </trkpt>
      <trkpt lat="40.216350" lon="-3.429036">
        <ele>554.021561</ele>
        <time>2021-10-27T14:29:06.000Z</time>
      </trkpt>
      <trkpt lat="40.216347" lon="-3.428753">
        <ele>554.234718</ele>
        <time>2021-10-27T14:29:10.000Z</time>
      </trkpt>
      <trkpt lat="40.216318" lon="-3.428168">
        <ele>554.571363</ele>
        <time>2021-10-27T14:29:18.000Z</time>
      </trkpt>
      <trkpt lat="40.216280" lon="-3.428031">
        <ele>554.648473</ele>
        <time>2021-10-27T14:29:20.000Z</time>
      </trkpt>
      <trkpt lat="40.216201" lon="-3.427841">
        <ele>554.762922</ele>
        <time>2021-10-27T14:29:23.000Z</time>
      </trkpt>
      <trkpt lat="40.216170" lon="-3.427781">
        <ele>554.801246</ele>
        <time>2021-10-27T14:29:24.000Z</time>
      </trkpt>
      <trkpt lat="40.216023" lon="-3.427535">
        <ele>554.966497</ele>
        <time>2021-10-27T14:29:28.000Z</time>
      </trkpt>
      <trkpt lat="40.215953" lon="-3.427392">
        <ele>555.056357</ele>
        <time>2021-10-27T14:29:30.000Z</time>
      </trkpt>
      <trkpt lat="40.215887" lon="-3.427243">
        <ele>555.147484</ele>
        <time>2021-10-27T14:29:32.000Z</time>
      </trkpt>
      <trkpt lat="40.215810" lon="-3.427009">
        <ele>555.282281</ele>
        <time>2021-10-27T14:29:35.000Z</time>
      </trkpt>
      <trkpt lat="40.215703" lon="-3.426571">
        <ele>555.525564</ele>
        <time>2021-10-27T14:29:41.000Z</time>
      </trkpt>
      <trkpt lat="40.215664" lon="-3.426453">
        <ele>555.643620</ele>
        <time>2021-10-27T14:29:43.000Z</time>
      </trkpt>
      <trkpt lat="40.215627" lon="-3.426342">
        <ele>555.843093</ele>
        <time>2021-10-27T14:29:45.000Z</time>
      </trkpt>
      <trkpt lat="40.215600" lon="-3.426229">
        <ele>556.038099</ele>
        <time>2021-10-27T14:29:47.000Z</time>
      </trkpt>
      <trkpt lat="40.215603" lon="-3.426112">
        <ele>556.230904</ele>
        <time>2021-10-27T14:29:49.000Z</time>
      </trkpt>
      <trkpt lat="40.215640" lon="-3.425916">
        <ele>556.563429</ele>
        <time>2021-10-27T14:29:52.000Z</time>
      </trkpt>
      <trkpt lat="40.215679" lon="-3.425784">
        <ele>556.796536</ele>
        <time>2021-10-27T14:29:54.000Z</time>
      </trkpt>
      <trkpt lat="40.215705" lon="-3.425720">
        <ele>556.915931</ele>
        <time>2021-10-27T14:29:55.000Z</time>
      </trkpt>
      <trkpt lat="40.215766" lon="-3.425593">
        <ele>557.163033</ele>
        <time>2021-10-27T14:29:57.000Z</time>
      </trkpt>
      <trkpt lat="40.215861" lon="-3.425389">
        <ele>557.556564</ele>
        <time>2021-10-27T14:30:00.000Z</time>
      </trkpt>
      <trkpt lat="40.215901" lon="-3.425224">
        <ele>557.841680</ele>
        <time>2021-10-27T14:30:02.000Z</time>
      </trkpt>
      <trkpt lat="40.215922" lon="-3.424898">
        <ele>558.380499</ele>
        <time>2021-10-27T14:30:06.000Z</time>
      </trkpt>
      <trkpt lat="40.215910" lon="-3.424825">
        <ele>558.503482</ele>
        <time>2021-10-27T14:30:07.000Z</time>
      </trkpt>
      <trkpt lat="40.215891" lon="-3.424763">
        <ele>558.613510</ele>
        <time>2021-10-27T14:30:08.000Z</time>
      </trkpt>
      <trkpt lat="40.215860" lon="-3.424661">
        <ele>558.794318</ele>
        <time>2021-10-27T14:30:10.000Z</time>
      </trkpt>
      <trkpt lat="40.215855" lon="-3.424613">
        <ele>558.874105</ele>
        <time>2021-10-27T14:30:11.000Z</time>
      </trkpt>
      <trkpt lat="40.215848" lon="-3.424488">
        <ele>559.080529</ele>
        <time>2021-10-27T14:30:14.000Z</time>
      </trkpt>
      <trkpt lat="40.215856" lon="-3.424404">
        <ele>559.219946</ele>
        <time>2021-10-27T14:30:16.000Z</time>
      </trkpt>
      <trkpt lat="40.215867" lon="-3.424318">
        <ele>559.363559</ele>
        <time>2021-10-27T14:30:18.000Z</time>
      </trkpt>
      <trkpt lat="40.215936" lon="-3.424100">
        <ele>559.682888</ele>
        <time>2021-10-27T14:30:23.000Z</time>
      </trkpt>
      <trkpt lat="40.216083" lon="-3.423831">
        <ele>560.103020</ele>
        <time>2021-10-27T14:30:30.000Z</time>
      </trkpt>
      <trkpt lat="40.216257" lon="-3.423546">
        <ele>560.566472</ele>
        <time>2021-10-27T14:30:36.000Z</time>
      </trkpt>
      <trkpt lat="40.216398" lon="-3.423278">
        <ele>560.979828</ele>
        <time>2021-10-27T14:30:40.000Z</time>
      </trkpt>
      <trkpt lat="40.216437" lon="-3.423208">
        <ele>561.089884</ele>
        <time>2021-10-27T14:30:41.000Z</time>
      </trkpt>
      <trkpt lat="40.216548" lon="-3.423027">
        <ele>561.384730</ele>
        <time>2021-10-27T14:30:44.000Z</time>
      </trkpt>
      <trkpt lat="40.216613" lon="-3.422925">
        <ele>561.553465</ele>
        <time>2021-10-27T14:30:46.000Z</time>
      </trkpt>
      <trkpt lat="40.216672" lon="-3.422833">
        <ele>561.706055</ele>
        <time>2021-10-27T14:30:48.000Z</time>
      </trkpt>
      <trkpt lat="40.216750" lon="-3.422704">
        <ele>561.915042</ele>
        <time>2021-10-27T14:30:51.000Z</time>
      </trkpt>
      <trkpt lat="40.216800" lon="-3.422616">
        <ele>562.054356</ele>
        <time>2021-10-27T14:30:53.000Z</time>
      </trkpt>
      <trkpt lat="40.216875" lon="-3.422484">
        <ele>562.263326</ele>
        <time>2021-10-27T14:30:56.000Z</time>
      </trkpt>
      <trkpt lat="40.217003" lon="-3.422262">
        <ele>562.446277</ele>
        <time>2021-10-27T14:31:01.000Z</time>
      </trkpt>
      <trkpt lat="40.217050" lon="-3.422170">
        <ele>562.450603</ele>
        <time>2021-10-27T14:31:03.000Z</time>
      </trkpt>
      <trkpt lat="40.217077" lon="-3.422128">
        <ele>562.452748</ele>
        <time>2021-10-27T14:31:04.000Z</time>
      </trkpt>
      <trkpt lat="40.217145" lon="-3.422064">
        <ele>562.457034</ele>
        <time>2021-10-27T14:31:06.000Z</time>
      </trkpt>
      <trkpt lat="40.217186" lon="-3.422041">
        <ele>562.459316</ele>
        <time>2021-10-27T14:31:07.000Z</time>
      </trkpt>
      <trkpt lat="40.217229" lon="-3.422023">
        <ele>562.461627</ele>
        <time>2021-10-27T14:31:08.000Z</time>
      </trkpt>
      <trkpt lat="40.217471" lon="-3.421931">
        <ele>562.474523</ele>
        <time>2021-10-27T14:31:13.000Z</time>
      </trkpt>
      <trkpt lat="40.217636" lon="-3.421810">
        <ele>562.484201</ele>
        <time>2021-10-27T14:31:16.000Z</time>
      </trkpt>
      <trkpt lat="40.217741" lon="-3.421706">
        <ele>562.490938</ele>
        <time>2021-10-27T14:31:18.000Z</time>
      </trkpt>
      <trkpt lat="40.218000" lon="-3.421341">
        <ele>562.510410</ele>
        <time>2021-10-27T14:31:24.000Z</time>
      </trkpt>
      <trkpt lat="40.218089" lon="-3.421206">
        <ele>562.517380</ele>
        <time>2021-10-27T14:31:26.000Z</time>
      </trkpt>
      <trkpt lat="40.218289" lon="-3.420853">
        <ele>562.480579</ele>
        <time>2021-10-27T14:31:31.000Z</time>
      </trkpt>
      <trkpt lat="40.218475" lon="-3.420531">
        <ele>561.976642</ele>
        <time>2021-10-27T14:31:37.000Z</time>
      </trkpt>
      <trkpt lat="40.218501" lon="-3.420488">
        <ele>561.908184</ele>
        <time>2021-10-27T14:31:38.000Z</time>
      </trkpt>
      <trkpt lat="40.218583" lon="-3.420376">
        <ele>561.714520</ele>
        <time>2021-10-27T14:31:41.000Z</time>
      </trkpt>
      <trkpt lat="40.218660" lon="-3.420316">
        <ele>561.568065</ele>
        <time>2021-10-27T14:31:43.000Z</time>
      </trkpt>
      <trkpt lat="40.218764" lon="-3.420302">
        <ele>561.397176</ele>
        <time>2021-10-27T14:31:45.000Z</time>
      </trkpt>
      <trkpt lat="40.218878" lon="-3.420307">
        <ele>561.210733</ele>
        <time>2021-10-27T14:31:47.000Z</time>
      </trkpt>
      <trkpt lat="40.219265" lon="-3.420237">
        <ele>560.572157</ele>
        <time>2021-10-27T14:31:53.000Z</time>
      </trkpt>
      <trkpt lat="40.219339" lon="-3.420208">
        <ele>560.445901</ele>
        <time>2021-10-27T14:31:54.000Z</time>
      </trkpt>
      <trkpt lat="40.219412" lon="-3.420164">
        <ele>560.314548</ele>
        <time>2021-10-27T14:31:55.000Z</time>
      </trkpt>
      <trkpt lat="40.219544" lon="-3.420042">
        <ele>560.050468</ele>
        <time>2021-10-27T14:31:57.000Z</time>
      </trkpt>
      <trkpt lat="40.219676" lon="-3.419911">
        <ele>559.779755</ele>
        <time>2021-10-27T14:31:59.000Z</time>
      </trkpt>
      <trkpt lat="40.219732" lon="-3.419834">
        <ele>559.647035</ele>
        <time>2021-10-27T14:32:00.000Z</time>
      </trkpt>
      <trkpt lat="40.219786" lon="-3.419757">
        <ele>559.579398</ele>
        <time>2021-10-27T14:32:01.000Z</time>
      </trkpt>
      <trkpt lat="40.219849" lon="-3.419694">
        <ele>559.556423</ele>
        <time>2021-10-27T14:32:02.000Z</time>
      </trkpt>
      <trkpt lat="40.219980" lon="-3.419592">
        <ele>559.512248</ele>
        <time>2021-10-27T14:32:04.000Z</time>
      </trkpt>
      <trkpt lat="40.220044" lon="-3.419536">
        <ele>559.489937</ele>
        <time>2021-10-27T14:32:05.000Z</time>
      </trkpt>
      <trkpt lat="40.220152" lon="-3.419400">
        <ele>559.446510</ele>
        <time>2021-10-27T14:32:07.000Z</time>
      </trkpt>
      <trkpt lat="40.220195" lon="-3.419327">
        <ele>559.426104</ele>
        <time>2021-10-27T14:32:08.000Z</time>
      </trkpt>
      <trkpt lat="40.220416" lon="-3.418874">
        <ele>559.307128</ele>
        <time>2021-10-27T14:32:14.000Z</time>
      </trkpt>
      <trkpt lat="40.220453" lon="-3.418797">
        <ele>559.286992</ele>
        <time>2021-10-27T14:32:15.000Z</time>
      </trkpt>
      <trkpt lat="40.220490" lon="-3.418721">
        <ele>559.267044</ele>
        <time>2021-10-27T14:32:16.000Z</time>
      </trkpt>
      <trkpt lat="40.220527" lon="-3.418647">
        <ele>559.247467</ele>
        <time>2021-10-27T14:32:17.000Z</time>
      </trkpt>
      <trkpt lat="40.220688" lon="-3.418282">
        <ele>559.154174</ele>
        <time>2021-10-27T14:32:22.000Z</time>
      </trkpt>
      <trkpt lat="40.220748" lon="-3.418140">
        <ele>559.118255</ele>
        <time>2021-10-27T14:32:24.000Z</time>
      </trkpt>
      <trkpt lat="40.220926" lon="-3.417646">
        <ele>559.461438</ele>
        <time>2021-10-27T14:32:31.000Z</time>
      </trkpt>
      <trkpt lat="40.220986" lon="-3.417450">
        <ele>559.706844</ele>
        <time>2021-10-27T14:32:34.000Z</time>
      </trkpt>
      <trkpt lat="40.221022" lon="-3.417250">
        <ele>559.945645</ele>
        <time>2021-10-27T14:32:37.000Z</time>
      </trkpt>
      <trkpt lat="40.221029" lon="-3.417180">
        <ele>560.027690</ele>
        <time>2021-10-27T14:32:38.000Z</time>
      </trkpt>
      <trkpt lat="40.221060" lon="-3.416965">
        <ele>560.281968</ele>
        <time>2021-10-27T14:32:41.000Z</time>
      </trkpt>
      <trkpt lat="40.221106" lon="-3.416830">
        <ele>560.453771</ele>
        <time>2021-10-27T14:32:43.000Z</time>
      </trkpt>
      <trkpt lat="40.221338" lon="-3.416164">
        <ele>561.304503</ele>
        <time>2021-10-27T14:32:53.000Z</time>
      </trkpt>
      <trkpt lat="40.221362" lon="-3.416099">
        <ele>561.388411</ele>
        <time>2021-10-27T14:32:54.000Z</time>
      </trkpt>
      <trkpt lat="40.221421" lon="-3.415978">
        <ele>561.555257</ele>
        <time>2021-10-27T14:32:56.000Z</time>
      </trkpt>
      <trkpt lat="40.221528" lon="-3.415820">
        <ele>561.800690</ele>
        <time>2021-10-27T14:32:59.000Z</time>
      </trkpt>
      <trkpt lat="40.221563" lon="-3.415768">
        <ele>561.840609</ele>
        <time>2021-10-27T14:33:00.000Z</time>
      </trkpt>
      <trkpt lat="40.221847" lon="-3.415321">
        <ele>562.135396</ele>
        <time>2021-10-27T14:33:08.000Z</time>
      </trkpt>
      <trkpt lat="40.222041" lon="-3.414972">
        <ele>562.354234</ele>
        <time>2021-10-27T14:33:14.000Z</time>
      </trkpt>
      <trkpt lat="40.222073" lon="-3.414914">
        <ele>562.390509</ele>
        <time>2021-10-27T14:33:15.000Z</time>
      </trkpt>
      <trkpt lat="40.222369" lon="-3.414374">
        <ele>562.727488</ele>
        <time>2021-10-27T14:33:24.000Z</time>
      </trkpt>
      <trkpt lat="40.222636" lon="-3.413810">
        <ele>562.952222</ele>
        <time>2021-10-27T14:33:32.000Z</time>
      </trkpt>
      <trkpt lat="40.222942" lon="-3.413149">
        <ele>562.621701</ele>
        <time>2021-10-27T14:33:41.000Z</time>
      </trkpt>
      <trkpt lat="40.222978" lon="-3.413079">
        <ele>562.585615</ele>
        <time>2021-10-27T14:33:42.000Z</time>
      </trkpt>
      <trkpt lat="40.223219" lon="-3.412702">
        <ele>562.375380</ele>
        <time>2021-10-27T14:33:48.000Z</time>
      </trkpt>
      <trkpt lat="40.223259" lon="-3.412641">
        <ele>562.340999</ele>
        <time>2021-10-27T14:33:49.000Z</time>
      </trkpt>
      <trkpt lat="40.223442" lon="-3.412325">
        <ele>562.171418</ele>
        <time>2021-10-27T14:33:54.000Z</time>
      </trkpt>
      <trkpt lat="40.223614" lon="-3.412028">
        <ele>562.012032</ele>
        <time>2021-10-27T14:33:59.000Z</time>
      </trkpt>
      <trkpt lat="40.223665" lon="-3.411904">
        <ele>561.978100</ele>
        <time>2021-10-27T14:34:01.000Z</time>
      </trkpt>
      <trkpt lat="40.223797" lon="-3.411492">
        <ele>561.900510</ele>
        <time>2021-10-27T14:34:07.000Z</time>
      </trkpt>
      <trkpt lat="40.223818" lon="-3.411428">
        <ele>561.888413</ele>
        <time>2021-10-27T14:34:08.000Z</time>
      </trkpt>
      <trkpt lat="40.223982" lon="-3.411007">
        <ele>561.806339</ele>
        <time>2021-10-27T14:34:15.000Z</time>
      </trkpt>
      <trkpt lat="40.224127" lon="-3.410708">
        <ele>561.744828</ele>
        <time>2021-10-27T14:34:20.000Z</time>
      </trkpt>
      <trkpt lat="40.224218" lon="-3.410517">
        <ele>561.705733</ele>
        <time>2021-10-27T14:34:23.000Z</time>
      </trkpt>
      <trkpt lat="40.224256" lon="-3.410368">
        <ele>561.678453</ele>
        <time>2021-10-27T14:34:25.000Z</time>
      </trkpt>
      <trkpt lat="40.224251" lon="-3.410217">
        <ele>561.652207</ele>
        <time>2021-10-27T14:34:27.000Z</time>
      </trkpt>
      <trkpt lat="40.224240" lon="-3.409996">
        <ele>561.613748</ele>
        <time>2021-10-27T14:34:30.000Z</time>
      </trkpt>
      <trkpt lat="40.224246" lon="-3.409750">
        <ele>561.614806</ele>
        <time>2021-10-27T14:34:33.000Z</time>
      </trkpt>
      <trkpt lat="40.224276" lon="-3.409516">
        <ele>561.686447</ele>
        <time>2021-10-27T14:34:36.000Z</time>
      </trkpt>
      <trkpt lat="40.224312" lon="-3.409380">
        <ele>561.729907</ele>
        <time>2021-10-27T14:34:38.000Z</time>
      </trkpt>
      <trkpt lat="40.224373" lon="-3.409193">
        <ele>561.791305</ele>
        <time>2021-10-27T14:34:41.000Z</time>
      </trkpt>
      <trkpt lat="40.224437" lon="-3.409078">
        <ele>561.834271</ele>
        <time>2021-10-27T14:34:43.000Z</time>
      </trkpt>
      <trkpt lat="40.224458" lon="-3.409017">
        <ele>561.854475</ele>
        <time>2021-10-27T14:34:44.000Z</time>
      </trkpt>
      <trkpt lat="40.224467" lon="-3.408952">
        <ele>561.874420</ele>
        <time>2021-10-27T14:34:45.000Z</time>
      </trkpt>
      <trkpt lat="40.224467" lon="-3.408881">
        <ele>561.895857</ele>
        <time>2021-10-27T14:34:46.000Z</time>
      </trkpt>
      <trkpt lat="40.224456" lon="-3.408805">
        <ele>561.919213</ele>
        <time>2021-10-27T14:34:47.000Z</time>
      </trkpt>
      <trkpt lat="40.224402" lon="-3.408647">
        <ele>561.971479</ele>
        <time>2021-10-27T14:34:49.000Z</time>
      </trkpt>
      <trkpt lat="40.224345" lon="-3.408480">
        <ele>562.026710</ele>
        <time>2021-10-27T14:34:51.000Z</time>
      </trkpt>
      <trkpt lat="40.224316" lon="-3.408392">
        <ele>562.055649</ele>
        <time>2021-10-27T14:34:52.000Z</time>
      </trkpt>
      <trkpt lat="40.224282" lon="-3.408310">
        <ele>562.083822</ele>
        <time>2021-10-27T14:34:53.000Z</time>
      </trkpt>
      <trkpt lat="40.224248" lon="-3.408234">
        <ele>562.110418</ele>
        <time>2021-10-27T14:34:54.000Z</time>
      </trkpt>
      <trkpt lat="40.224197" lon="-3.408117">
        <ele>562.151095</ele>
        <time>2021-10-27T14:34:56.000Z</time>
      </trkpt>
      <trkpt lat="40.224181" lon="-3.408066">
        <ele>562.167743</ele>
        <time>2021-10-27T14:34:57.000Z</time>
      </trkpt>
      <trkpt lat="40.224157" lon="-3.407969">
        <ele>562.198530</ele>
        <time>2021-10-27T14:34:59.000Z</time>
      </trkpt>
      <trkpt lat="40.224136" lon="-3.407872">
        <ele>562.228971</ele>
        <time>2021-10-27T14:35:01.000Z</time>
      </trkpt>
      <trkpt lat="40.224090" lon="-3.407733">
        <ele>562.274713</ele>
        <time>2021-10-27T14:35:04.000Z</time>
      </trkpt>
      <trkpt lat="40.224033" lon="-3.407527">
        <ele>562.389089</ele>
        <time>2021-10-27T14:35:08.000Z</time>
      </trkpt>
      <trkpt lat="40.224017" lon="-3.407423">
        <ele>562.457373</ele>
        <time>2021-10-27T14:35:10.000Z</time>
      </trkpt>
      <trkpt lat="40.223998" lon="-3.407329">
        <ele>562.519960</ele>
        <time>2021-10-27T14:35:12.000Z</time>
      </trkpt>
      <trkpt lat="40.223962" lon="-3.407151">
        <ele>562.638480</ele>
        <time>2021-10-27T14:35:16.000Z</time>
      </trkpt>
      <trkpt lat="40.223935" lon="-3.407019">
        <ele>562.726436</ele>
        <time>2021-10-27T14:35:19.000Z</time>
      </trkpt>
      <trkpt lat="40.223926" lon="-3.406972">
        <ele>562.757625</ele>
        <time>2021-10-27T14:35:20.000Z</time>
      </trkpt>
      <trkpt lat="40.223903" lon="-3.406799">
        <ele>562.870651</ele>
        <time>2021-10-27T14:35:23.000Z</time>
      </trkpt>
      <trkpt lat="40.223900" lon="-3.406734">
        <ele>562.912564</ele>
        <time>2021-10-27T14:35:24.000Z</time>
      </trkpt>
      <trkpt lat="40.223877" lon="-3.406207">
        <ele>563.252318</ele>
        <time>2021-10-27T14:35:32.000Z</time>
      </trkpt>
      <trkpt lat="40.223859" lon="-3.405872">
        <ele>563.468473</ele>
        <time>2021-10-27T14:35:37.000Z</time>
      </trkpt>
      <trkpt lat="40.223854" lon="-3.405805">
        <ele>563.511803</ele>
        <time>2021-10-27T14:35:38.000Z</time>
      </trkpt>
      <trkpt lat="40.223837" lon="-3.405675">
        <ele>563.596695</ele>
        <time>2021-10-27T14:35:40.000Z</time>
      </trkpt>
      <trkpt lat="40.223844" lon="-3.405328">
        <ele>563.816101</ele>
        <time>2021-10-27T14:35:45.000Z</time>
      </trkpt>
      <trkpt lat="40.223851" lon="-3.405072">
        <ele>563.863106</ele>
        <time>2021-10-27T14:35:48.000Z</time>
      </trkpt>
      <trkpt lat="40.223853" lon="-3.404889">
        <ele>563.896689</ele>
        <time>2021-10-27T14:35:50.000Z</time>
      </trkpt>
      <trkpt lat="40.223858" lon="-3.404707">
        <ele>563.930107</ele>
        <time>2021-10-27T14:35:52.000Z</time>
      </trkpt>
      <trkpt lat="40.223866" lon="-3.404623">
        <ele>563.945640</ele>
        <time>2021-10-27T14:35:53.000Z</time>
      </trkpt>
      <trkpt lat="40.223904" lon="-3.404308">
        <ele>564.004158</ele>
        <time>2021-10-27T14:35:57.000Z</time>
      </trkpt>
      <trkpt lat="40.223893" lon="-3.404167">
        <ele>564.030166</ele>
        <time>2021-10-27T14:35:59.000Z</time>
      </trkpt>
      <trkpt lat="40.223885" lon="-3.404101">
        <ele>564.042428</ele>
        <time>2021-10-27T14:36:00.000Z</time>
      </trkpt>
      <trkpt lat="40.223878" lon="-3.404035">
        <ele>564.054655</ele>
        <time>2021-10-27T14:36:01.000Z</time>
      </trkpt>
      <trkpt lat="40.223869" lon="-3.403971">
        <ele>564.066596</ele>
        <time>2021-10-27T14:36:02.000Z</time>
      </trkpt>
      <trkpt lat="40.223863" lon="-3.403909">
        <ele>564.078064</ele>
        <time>2021-10-27T14:36:03.000Z</time>
      </trkpt>
      <trkpt lat="40.223863" lon="-3.403846">
        <ele>564.089624</ele>
        <time>2021-10-27T14:36:04.000Z</time>
      </trkpt>
      <trkpt lat="40.223856" lon="-3.403658">
        <ele>564.124163</ele>
        <time>2021-10-27T14:36:07.000Z</time>
      </trkpt>
      <trkpt lat="40.223844" lon="-3.403397">
        <ele>564.172142</ele>
        <time>2021-10-27T14:36:11.000Z</time>
      </trkpt>
      <trkpt lat="40.223827" lon="-3.403149">
        <ele>564.217832</ele>
        <time>2021-10-27T14:36:15.000Z</time>
      </trkpt>
      <trkpt lat="40.223820" lon="-3.403028">
        <ele>564.240098</ele>
        <time>2021-10-27T14:36:17.000Z</time>
      </trkpt>
      <trkpt lat="40.223810" lon="-3.402964">
        <ele>564.274305</ele>
        <time>2021-10-27T14:36:18.000Z</time>
      </trkpt>
      <trkpt lat="40.223785" lon="-3.402771">
        <ele>564.460119</ele>
        <time>2021-10-27T14:36:21.000Z</time>
      </trkpt>
      <trkpt lat="40.223772" lon="-3.402527">
        <ele>564.692288</ele>
        <time>2021-10-27T14:36:25.000Z</time>
      </trkpt>
      <trkpt lat="40.223751" lon="-3.402417">
        <ele>564.799914</ele>
        <time>2021-10-27T14:36:27.000Z</time>
      </trkpt>
      <trkpt lat="40.223669" lon="-3.402102">
        <ele>565.115814</ele>
        <time>2021-10-27T14:36:32.000Z</time>
      </trkpt>
      <trkpt lat="40.223655" lon="-3.402028">
        <ele>565.188179</ele>
        <time>2021-10-27T14:36:33.000Z</time>
      </trkpt>
      <trkpt lat="40.223643" lon="-3.401954">
        <ele>565.259987</ele>
        <time>2021-10-27T14:36:34.000Z</time>
      </trkpt>
      <trkpt lat="40.223618" lon="-3.401808">
        <ele>565.402013</ele>
        <time>2021-10-27T14:36:36.000Z</time>
      </trkpt>
      <trkpt lat="40.223598" lon="-3.401661">
        <ele>565.543744</ele>
        <time>2021-10-27T14:36:38.000Z</time>
      </trkpt>
      <trkpt lat="40.223587" lon="-3.401445">
        <ele>565.749228</ele>
        <time>2021-10-27T14:36:41.000Z</time>
      </trkpt>
      <trkpt lat="40.223605" lon="-3.401305">
        <ele>565.883988</ele>
        <time>2021-10-27T14:36:43.000Z</time>
      </trkpt>
      <trkpt lat="40.223613" lon="-3.401237">
        <ele>565.949295</ele>
        <time>2021-10-27T14:36:44.000Z</time>
      </trkpt>
      <trkpt lat="40.223611" lon="-3.401103">
        <ele>566.076513</ele>
        <time>2021-10-27T14:36:46.000Z</time>
      </trkpt>
      <trkpt lat="40.223604" lon="-3.401036">
        <ele>566.140703</ele>
        <time>2021-10-27T14:36:47.000Z</time>
      </trkpt>
      <trkpt lat="40.223598" lon="-3.400626">
        <ele>566.490666</ele>
        <time>2021-10-27T14:36:53.000Z</time>
      </trkpt>
      <trkpt lat="40.223585" lon="-3.400563">
        <ele>566.501004</ele>
        <time>2021-10-27T14:36:54.000Z</time>
      </trkpt>
      <trkpt lat="40.223545" lon="-3.400389">
        <ele>566.529790</ele>
        <time>2021-10-27T14:36:57.000Z</time>
      </trkpt>
      <trkpt lat="40.223543" lon="-3.400329">
        <ele>566.539303</ele>
        <time>2021-10-27T14:36:58.000Z</time>
      </trkpt>
      <trkpt lat="40.223486" lon="-3.399928">
        <ele>566.603917</ele>
        <time>2021-10-27T14:37:04.000Z</time>
      </trkpt>
      <trkpt lat="40.223440" lon="-3.399612">
        <ele>566.654877</ele>
        <time>2021-10-27T14:37:08.000Z</time>
      </trkpt>
      <trkpt lat="40.223411" lon="-3.399364">
        <ele>566.694620</ele>
        <time>2021-10-27T14:37:11.000Z</time>
      </trkpt>
      <trkpt lat="40.223410" lon="-3.399283">
        <ele>566.707453</ele>
        <time>2021-10-27T14:37:12.000Z</time>
      </trkpt>
      <trkpt lat="40.223429" lon="-3.398906">
        <ele>566.767304</ele>
        <time>2021-10-27T14:37:17.000Z</time>
      </trkpt>
      <trkpt lat="40.223427" lon="-3.398831">
        <ele>566.779192</ele>
        <time>2021-10-27T14:37:18.000Z</time>
      </trkpt>
      <trkpt lat="40.223432" lon="-3.398756">
        <ele>566.791118</ele>
        <time>2021-10-27T14:37:19.000Z</time>
      </trkpt>
      <trkpt lat="40.223471" lon="-3.398533">
        <ele>566.827358</ele>
        <time>2021-10-27T14:37:22.000Z</time>
      </trkpt>
      <trkpt lat="40.223529" lon="-3.398195">
        <ele>566.839925</ele>
        <time>2021-10-27T14:37:27.000Z</time>
      </trkpt>
      <trkpt lat="40.223537" lon="-3.398127">
        <ele>566.833272</ele>
        <time>2021-10-27T14:37:28.000Z</time>
      </trkpt>
      <trkpt lat="40.223558" lon="-3.397994">
        <ele>566.820140</ele>
        <time>2021-10-27T14:37:30.000Z</time>
      </trkpt>
      <trkpt lat="40.223569" lon="-3.397930">
        <ele>566.813797</ele>
        <time>2021-10-27T14:37:31.000Z</time>
      </trkpt>
      <trkpt lat="40.223596" lon="-3.397693">
        <ele>566.790627</ele>
        <time>2021-10-27T14:37:35.000Z</time>
      </trkpt>
      <trkpt lat="40.223598" lon="-3.397644">
        <ele>566.785882</ele>
        <time>2021-10-27T14:37:36.000Z</time>
      </trkpt>
      <trkpt lat="40.223646" lon="-3.397464">
        <ele>566.767446</ele>
        <time>2021-10-27T14:37:40.000Z</time>
      </trkpt>
      <trkpt lat="40.223678" lon="-3.397437">
        <ele>566.762625</ele>
        <time>2021-10-27T14:37:41.000Z</time>
      </trkpt>
      <trkpt lat="40.223800" lon="-3.397392">
        <ele>566.746574</ele>
        <time>2021-10-27T14:37:44.000Z</time>
      </trkpt>
      <trkpt lat="40.223934" lon="-3.397406">
        <ele>566.729550</ele>
        <time>2021-10-27T14:37:47.000Z</time>
      </trkpt>
      <trkpt lat="40.223976" lon="-3.397405">
        <ele>566.724231</ele>
        <time>2021-10-27T14:37:48.000Z</time>
      </trkpt>
      <trkpt lat="40.224018" lon="-3.397410">
        <ele>566.718890</ele>
        <time>2021-10-27T14:37:49.000Z</time>
      </trkpt>
      <trkpt lat="40.224196" lon="-3.397449">
        <ele>566.696035</ele>
        <time>2021-10-27T14:37:53.000Z</time>
      </trkpt>
      <trkpt lat="40.224241" lon="-3.397457">
        <ele>566.690283</ele>
        <time>2021-10-27T14:37:54.000Z</time>
      </trkpt>
      <trkpt lat="40.224328" lon="-3.397466">
        <ele>566.679231</ele>
        <time>2021-10-27T14:37:56.000Z</time>
      </trkpt>
      <trkpt lat="40.224459" lon="-3.397485">
        <ele>566.662540</ele>
        <time>2021-10-27T14:37:59.000Z</time>
      </trkpt>
      <trkpt lat="40.224505" lon="-3.397489">
        <ele>566.656702</ele>
        <time>2021-10-27T14:38:00.000Z</time>
      </trkpt>
      <trkpt lat="40.224597" lon="-3.397502">
        <ele>566.644983</ele>
        <time>2021-10-27T14:38:02.000Z</time>
      </trkpt>
      <trkpt lat="40.224687" lon="-3.397506">
        <ele>566.633579</ele>
        <time>2021-10-27T14:38:04.000Z</time>
      </trkpt>
      <trkpt lat="40.224732" lon="-3.397515">
        <ele>566.629280</ele>
        <time>2021-10-27T14:38:05.000Z</time>
      </trkpt>
      <trkpt lat="40.224779" lon="-3.397520">
        <ele>566.647128</ele>
        <time>2021-10-27T14:38:06.000Z</time>
      </trkpt>
      <trkpt lat="40.224870" lon="-3.397529">
        <ele>566.681669</ele>
        <time>2021-10-27T14:38:08.000Z</time>
      </trkpt>
      <trkpt lat="40.224965" lon="-3.397536">
        <ele>566.717684</ele>
        <time>2021-10-27T14:38:10.000Z</time>
      </trkpt>
      <trkpt lat="40.225012" lon="-3.397541">
        <ele>566.735532</ele>
        <time>2021-10-27T14:38:11.000Z</time>
      </trkpt>
      <trkpt lat="40.225106" lon="-3.397556">
        <ele>566.771374</ele>
        <time>2021-10-27T14:38:13.000Z</time>
      </trkpt>
      <trkpt lat="40.225235" lon="-3.397573">
        <ele>566.820448</ele>
        <time>2021-10-27T14:38:16.000Z</time>
      </trkpt>
      <trkpt lat="40.225412" lon="-3.397608">
        <ele>566.888202</ele>
        <time>2021-10-27T14:38:20.000Z</time>
      </trkpt>
      <trkpt lat="40.225455" lon="-3.397605">
        <ele>566.904500</ele>
        <time>2021-10-27T14:38:21.000Z</time>
      </trkpt>
      <trkpt lat="40.225581" lon="-3.397581">
        <ele>566.952693</ele>
        <time>2021-10-27T14:38:24.000Z</time>
      </trkpt>
      <trkpt lat="40.225656" lon="-3.397526">
        <ele>566.985227</ele>
        <time>2021-10-27T14:38:26.000Z</time>
      </trkpt>
      <trkpt lat="40.225701" lon="-3.397424">
        <ele>567.019271</ele>
        <time>2021-10-27T14:38:28.000Z</time>
      </trkpt>
      <trkpt lat="40.225713" lon="-3.397367">
        <ele>567.036358</ele>
        <time>2021-10-27T14:38:29.000Z</time>
      </trkpt>
      <trkpt lat="40.225723" lon="-3.397310">
        <ele>567.053260</ele>
        <time>2021-10-27T14:38:30.000Z</time>
      </trkpt>
      <trkpt lat="40.225709" lon="-3.397193">
        <ele>567.087484</ele>
        <time>2021-10-27T14:38:32.000Z</time>
      </trkpt>
      <trkpt lat="40.225689" lon="-3.397138">
        <ele>567.105089</ele>
        <time>2021-10-27T14:38:33.000Z</time>
      </trkpt>
      <trkpt lat="40.225617" lon="-3.396929">
        <ele>567.171351</ele>
        <time>2021-10-27T14:38:37.000Z</time>
      </trkpt>
      <trkpt lat="40.225524" lon="-3.396737">
        <ele>567.237061</ele>
        <time>2021-10-27T14:38:41.000Z</time>
      </trkpt>
      <trkpt lat="40.225466" lon="-3.396652">
        <ele>567.270006</ele>
        <time>2021-10-27T14:38:43.000Z</time>
      </trkpt>
      <trkpt lat="40.225355" lon="-3.396567">
        <ele>567.325492</ele>
        <time>2021-10-27T14:38:46.000Z</time>
      </trkpt>
      <trkpt lat="40.225246" lon="-3.396507">
        <ele>567.401696</ele>
        <time>2021-10-27T14:38:49.000Z</time>
      </trkpt>
      <trkpt lat="40.225152" lon="-3.396460">
        <ele>567.466545</ele>
        <time>2021-10-27T14:38:52.000Z</time>
      </trkpt>
      <trkpt lat="40.224892" lon="-3.396371">
        <ele>567.639747</ele>
        <time>2021-10-27T14:39:00.000Z</time>
      </trkpt>
      <trkpt lat="40.224856" lon="-3.396362">
        <ele>567.663368</ele>
        <time>2021-10-27T14:39:01.000Z</time>
      </trkpt>
      <trkpt lat="40.224735" lon="-3.396263">
        <ele>567.755320</ele>
        <time>2021-10-27T14:39:05.000Z</time>
      </trkpt>
      <trkpt lat="40.224674" lon="-3.396085">
        <ele>567.851332</ele>
        <time>2021-10-27T14:39:09.000Z</time>
      </trkpt>
      <trkpt lat="40.224648" lon="-3.395885">
        <ele>567.951167</ele>
        <time>2021-10-27T14:39:13.000Z</time>
      </trkpt>
      <trkpt lat="40.224608" lon="-3.395671">
        <ele>568.059586</ele>
        <time>2021-10-27T14:39:17.000Z</time>
      </trkpt>
      <trkpt lat="40.224603" lon="-3.395615">
        <ele>568.087331</ele>
        <time>2021-10-27T14:39:18.000Z</time>
      </trkpt>
      <trkpt lat="40.224606" lon="-3.395340">
        <ele>568.222671</ele>
        <time>2021-10-27T14:39:23.000Z</time>
      </trkpt>
      <trkpt lat="40.224599" lon="-3.395221">
        <ele>568.281404</ele>
        <time>2021-10-27T14:39:25.000Z</time>
      </trkpt>
      <trkpt lat="40.224571" lon="-3.395094">
        <ele>568.346454</ele>
        <time>2021-10-27T14:39:27.000Z</time>
      </trkpt>
      <trkpt lat="40.224554" lon="-3.395033">
        <ele>568.378409</ele>
        <time>2021-10-27T14:39:28.000Z</time>
      </trkpt>
      <trkpt lat="40.224526" lon="-3.394909">
        <ele>568.442042</ele>
        <time>2021-10-27T14:39:30.000Z</time>
      </trkpt>
      <trkpt lat="40.224511" lon="-3.394733">
        <ele>568.330248</ele>
        <time>2021-10-27T14:39:33.000Z</time>
      </trkpt>
      <trkpt lat="40.224501" lon="-3.394511">
        <ele>568.082615</ele>
        <time>2021-10-27T14:39:38.000Z</time>
      </trkpt>
      <trkpt lat="40.224588" lon="-3.394302">
        <ele>567.817546</ele>
        <time>2021-10-27T14:39:43.000Z</time>
      </trkpt>
      <trkpt lat="40.224641" lon="-3.394195">
        <ele>567.675523</ele>
        <time>2021-10-27T14:39:45.000Z</time>
      </trkpt>
      <trkpt lat="40.224668" lon="-3.394136">
        <ele>567.598927</ele>
        <time>2021-10-27T14:39:46.000Z</time>
      </trkpt>
      <trkpt lat="40.224720" lon="-3.394007">
        <ele>567.436492</ele>
        <time>2021-10-27T14:39:48.000Z</time>
      </trkpt>
      <trkpt lat="40.224746" lon="-3.393937">
        <ele>567.349811</ele>
        <time>2021-10-27T14:39:49.000Z</time>
      </trkpt>
      <trkpt lat="40.224791" lon="-3.393790">
        <ele>567.173457</ele>
        <time>2021-10-27T14:39:51.000Z</time>
      </trkpt>
      <trkpt lat="40.224810" lon="-3.393714">
        <ele>567.084408</ele>
        <time>2021-10-27T14:39:52.000Z</time>
      </trkpt>
      <trkpt lat="40.224874" lon="-3.393397">
        <ele>566.719288</ele>
        <time>2021-10-27T14:39:56.000Z</time>
      </trkpt>
      <trkpt lat="40.224884" lon="-3.393316">
        <ele>566.627922</ele>
        <time>2021-10-27T14:39:57.000Z</time>
      </trkpt>
      <trkpt lat="40.224894" lon="-3.393233">
        <ele>566.534355</ele>
        <time>2021-10-27T14:39:58.000Z</time>
      </trkpt>
      <trkpt lat="40.224908" lon="-3.393151">
        <ele>566.440792</ele>
        <time>2021-10-27T14:39:59.000Z</time>
      </trkpt>
      <trkpt lat="40.224978" lon="-3.392908">
        <ele>566.151587</ele>
        <time>2021-10-27T14:40:02.000Z</time>
      </trkpt>
      <trkpt lat="40.225064" lon="-3.392484">
        <ele>565.869411</ele>
        <time>2021-10-27T14:40:07.000Z</time>
      </trkpt>
      <trkpt lat="40.225125" lon="-3.392241">
        <ele>565.907549</ele>
        <time>2021-10-27T14:40:10.000Z</time>
      </trkpt>
      <trkpt lat="40.225155" lon="-3.392167">
        <ele>565.920040</ele>
        <time>2021-10-27T14:40:11.000Z</time>
      </trkpt>
      <trkpt lat="40.225192" lon="-3.392099">
        <ele>565.932490</ele>
        <time>2021-10-27T14:40:12.000Z</time>
      </trkpt>
      <trkpt lat="40.225300" lon="-3.391896">
        <ele>565.969379</ele>
        <time>2021-10-27T14:40:15.000Z</time>
      </trkpt>
      <trkpt lat="40.225349" lon="-3.391752">
        <ele>565.992884</ele>
        <time>2021-10-27T14:40:17.000Z</time>
      </trkpt>
      <trkpt lat="40.225519" lon="-3.391272">
        <ele>566.071774</ele>
        <time>2021-10-27T14:40:24.000Z</time>
      </trkpt>
      <trkpt lat="40.225688" lon="-3.390880">
        <ele>566.138892</ele>
        <time>2021-10-27T14:40:30.000Z</time>
      </trkpt>
      <trkpt lat="40.225716" lon="-3.390812">
        <ele>566.150411</ele>
        <time>2021-10-27T14:40:31.000Z</time>
      </trkpt>
      <trkpt lat="40.225971" lon="-3.390157">
        <ele>566.089669</ele>
        <time>2021-10-27T14:40:40.000Z</time>
      </trkpt>
      <trkpt lat="40.226064" lon="-3.389845">
        <ele>566.006169</ele>
        <time>2021-10-27T14:40:44.000Z</time>
      </trkpt>
      <trkpt lat="40.226149" lon="-3.389629">
        <ele>565.945588</ele>
        <time>2021-10-27T14:40:47.000Z</time>
      </trkpt>
      <trkpt lat="40.226324" lon="-3.389211">
        <ele>565.826741</ele>
        <time>2021-10-27T14:40:53.000Z</time>
      </trkpt>
      <trkpt lat="40.226358" lon="-3.389067">
        <ele>565.789164</ele>
        <time>2021-10-27T14:40:55.000Z</time>
      </trkpt>
      <trkpt lat="40.226409" lon="-3.388854">
        <ele>565.733513</ele>
        <time>2021-10-27T14:40:58.000Z</time>
      </trkpt>
      <trkpt lat="40.226462" lon="-3.388725">
        <ele>565.696992</ele>
        <time>2021-10-27T14:41:00.000Z</time>
      </trkpt>
      <trkpt lat="40.226492" lon="-3.388664">
        <ele>565.678903</ele>
        <time>2021-10-27T14:41:01.000Z</time>
      </trkpt>
      <trkpt lat="40.226592" lon="-3.388490">
        <ele>565.624609</ele>
        <time>2021-10-27T14:41:04.000Z</time>
      </trkpt>
      <trkpt lat="40.226619" lon="-3.388420">
        <ele>565.611851</ele>
        <time>2021-10-27T14:41:05.000Z</time>
      </trkpt>
      <trkpt lat="40.226766" lon="-3.388001">
        <ele>565.696372</ele>
        <time>2021-10-27T14:41:11.000Z</time>
      </trkpt>
      <trkpt lat="40.227026" lon="-3.387395">
        <ele>565.823784</ele>
        <time>2021-10-27T14:41:20.000Z</time>
      </trkpt>
      <trkpt lat="40.227147" lon="-3.387038">
        <ele>565.895377</ele>
        <time>2021-10-27T14:41:25.000Z</time>
      </trkpt>
      <trkpt lat="40.227216" lon="-3.386748">
        <ele>565.951054</ele>
        <time>2021-10-27T14:41:29.000Z</time>
      </trkpt>
      <trkpt lat="40.227250" lon="-3.386685">
        <ele>565.965195</ele>
        <time>2021-10-27T14:41:30.000Z</time>
      </trkpt>
      <trkpt lat="40.227493" lon="-3.386348">
        <ele>566.059112</ele>
        <time>2021-10-27T14:41:36.000Z</time>
      </trkpt>
      <trkpt lat="40.227549" lon="-3.386213">
        <ele>566.114153</ele>
        <time>2021-10-27T14:41:38.000Z</time>
      </trkpt>
      <trkpt lat="40.227601" lon="-3.386009">
        <ele>566.191201</ele>
        <time>2021-10-27T14:41:41.000Z</time>
      </trkpt>
      <trkpt lat="40.227667" lon="-3.385722">
        <ele>566.298581</ele>
        <time>2021-10-27T14:41:45.000Z</time>
      </trkpt>
      <trkpt lat="40.227676" lon="-3.385566">
        <ele>566.354627</ele>
        <time>2021-10-27T14:41:47.000Z</time>
      </trkpt>
      <trkpt lat="40.227672" lon="-3.385111">
        <ele>566.517640</ele>
        <time>2021-10-27T14:41:53.000Z</time>
      </trkpt>
      <trkpt lat="40.227751" lon="-3.384446">
        <ele>566.758741</ele>
        <time>2021-10-27T14:42:02.000Z</time>
      </trkpt>
      <trkpt lat="40.227770" lon="-3.384134">
        <ele>566.870869</ele>
        <time>2021-10-27T14:42:07.000Z</time>
      </trkpt>
      <trkpt lat="40.227770" lon="-3.384053">
        <ele>566.879271</ele>
        <time>2021-10-27T14:42:09.000Z</time>
      </trkpt>
      <trkpt lat="40.227784" lon="-3.383887">
        <ele>566.857628</ele>
        <time>2021-10-27T14:42:13.000Z</time>
      </trkpt>
      <trkpt lat="40.227795" lon="-3.383839">
        <ele>566.851133</ele>
        <time>2021-10-27T14:42:14.000Z</time>
      </trkpt>
      <trkpt lat="40.227841" lon="-3.383670">
        <ele>566.827882</ele>
        <time>2021-10-27T14:42:17.000Z</time>
      </trkpt>
      <trkpt lat="40.227924" lon="-3.383326">
        <ele>566.781128</ele>
        <time>2021-10-27T14:42:22.000Z</time>
      </trkpt>
      <trkpt lat="40.227943" lon="-3.383256">
        <ele>566.771500</ele>
        <time>2021-10-27T14:42:23.000Z</time>
      </trkpt>
      <trkpt lat="40.228024" lon="-3.382836">
        <ele>566.715362</ele>
        <time>2021-10-27T14:42:29.000Z</time>
      </trkpt>
      <trkpt lat="40.228038" lon="-3.382386">
        <ele>566.656996</ele>
        <time>2021-10-27T14:42:35.000Z</time>
      </trkpt>
      <trkpt lat="40.227971" lon="-3.381857">
        <ele>566.587505</ele>
        <time>2021-10-27T14:42:42.000Z</time>
      </trkpt>
      <trkpt lat="40.227893" lon="-3.381356">
        <ele>567.093975</ele>
        <time>2021-10-27T14:42:49.000Z</time>
      </trkpt>
      <trkpt lat="40.227878" lon="-3.381286">
        <ele>567.177267</ele>
        <time>2021-10-27T14:42:50.000Z</time>
      </trkpt>
      <trkpt lat="40.227816" lon="-3.381006">
        <ele>567.511261</ele>
        <time>2021-10-27T14:42:54.000Z</time>
      </trkpt>
      <trkpt lat="40.227806" lon="-3.380863">
        <ele>567.675771</ele>
        <time>2021-10-27T14:42:56.000Z</time>
      </trkpt>
      <trkpt lat="40.227810" lon="-3.380578">
        <ele>568.002329</ele>
        <time>2021-10-27T14:43:00.000Z</time>
      </trkpt>
      <trkpt lat="40.227805" lon="-3.380507">
        <ele>568.084014</ele>
        <time>2021-10-27T14:43:01.000Z</time>
      </trkpt>
      <trkpt lat="40.227788" lon="-3.380145">
        <ele>568.499514</ele>
        <time>2021-10-27T14:43:06.000Z</time>
      </trkpt>
      <trkpt lat="40.227789" lon="-3.379997">
        <ele>568.669073</ele>
        <time>2021-10-27T14:43:08.000Z</time>
      </trkpt>
      <trkpt lat="40.227777" lon="-3.379857">
        <ele>568.830469</ele>
        <time>2021-10-27T14:43:10.000Z</time>
      </trkpt>
      <trkpt lat="40.227742" lon="-3.379674">
        <ele>569.046596</ele>
        <time>2021-10-27T14:43:13.000Z</time>
      </trkpt>
      <trkpt lat="40.227725" lon="-3.379560">
        <ele>569.179666</ele>
        <time>2021-10-27T14:43:15.000Z</time>
      </trkpt>
      <trkpt lat="40.227708" lon="-3.379384">
        <ele>569.343221</ele>
        <time>2021-10-27T14:43:18.000Z</time>
      </trkpt>
      <trkpt lat="40.227701" lon="-3.379324">
        <ele>569.386363</ele>
        <time>2021-10-27T14:43:19.000Z</time>
      </trkpt>
      <trkpt lat="40.227692" lon="-3.379206">
        <ele>569.470653</ele>
        <time>2021-10-27T14:43:21.000Z</time>
      </trkpt>
      <trkpt lat="40.227696" lon="-3.379145">
        <ele>569.514171</ele>
        <time>2021-10-27T14:43:22.000Z</time>
      </trkpt>
      <trkpt lat="40.227705" lon="-3.379084">
        <ele>569.558331</ele>
        <time>2021-10-27T14:43:23.000Z</time>
      </trkpt>
      <trkpt lat="40.227721" lon="-3.379023">
        <ele>569.604176</ele>
        <time>2021-10-27T14:43:24.000Z</time>
      </trkpt>
      <trkpt lat="40.227880" lon="-3.378662">
        <ele>569.900405</ele>
        <time>2021-10-27T14:43:30.000Z</time>
      </trkpt>
      <trkpt lat="40.227952" lon="-3.378462">
        <ele>570.057572</ele>
        <time>2021-10-27T14:43:33.000Z</time>
      </trkpt>
      <trkpt lat="40.228019" lon="-3.378254">
        <ele>570.218034</ele>
        <time>2021-10-27T14:43:36.000Z</time>
      </trkpt>
      <trkpt lat="40.228039" lon="-3.378182">
        <ele>570.272492</ele>
        <time>2021-10-27T14:43:37.000Z</time>
      </trkpt>
      <trkpt lat="40.228084" lon="-3.377871">
        <ele>570.497480</ele>
        <time>2021-10-27T14:43:41.000Z</time>
      </trkpt>
      <trkpt lat="40.228074" lon="-3.377793">
        <ele>570.553697</ele>
        <time>2021-10-27T14:43:42.000Z</time>
      </trkpt>
      <trkpt lat="40.228053" lon="-3.377720">
        <ele>570.609146</ele>
        <time>2021-10-27T14:43:43.000Z</time>
      </trkpt>
      <trkpt lat="40.227981" lon="-3.377501">
        <ele>570.778626</ele>
        <time>2021-10-27T14:43:46.000Z</time>
      </trkpt>
      <trkpt lat="40.227979" lon="-3.377427">
        <ele>570.831256</ele>
        <time>2021-10-27T14:43:47.000Z</time>
      </trkpt>
      <trkpt lat="40.227993" lon="-3.377349">
        <ele>570.888209</ele>
        <time>2021-10-27T14:43:48.000Z</time>
      </trkpt>
      <trkpt lat="40.228057" lon="-3.377117">
        <ele>571.174936</ele>
        <time>2021-10-27T14:43:51.000Z</time>
      </trkpt>
      <trkpt lat="40.228090" lon="-3.376889">
        <ele>571.505863</ele>
        <time>2021-10-27T14:43:54.000Z</time>
      </trkpt>
      <trkpt lat="40.228091" lon="-3.376743">
        <ele>571.714074</ele>
        <time>2021-10-27T14:43:56.000Z</time>
      </trkpt>
      <trkpt lat="40.228066" lon="-3.376452">
        <ele>572.131670</ele>
        <time>2021-10-27T14:44:01.000Z</time>
      </trkpt>
      <trkpt lat="40.228049" lon="-3.376343">
        <ele>572.290318</ele>
        <time>2021-10-27T14:44:03.000Z</time>
      </trkpt>
      <trkpt lat="40.228036" lon="-3.376281">
        <ele>572.382006</ele>
        <time>2021-10-27T14:44:04.000Z</time>
      </trkpt>
      <trkpt lat="40.228033" lon="-3.376214">
        <ele>572.477715</ele>
        <time>2021-10-27T14:44:05.000Z</time>
      </trkpt>
      <trkpt lat="40.228037" lon="-3.376151">
        <ele>572.567866</ele>
        <time>2021-10-27T14:44:06.000Z</time>
      </trkpt>
      <trkpt lat="40.228046" lon="-3.376090">
        <ele>572.656464</ele>
        <time>2021-10-27T14:44:07.000Z</time>
      </trkpt>
      <trkpt lat="40.228075" lon="-3.375967">
        <ele>572.840040</ele>
        <time>2021-10-27T14:44:09.000Z</time>
      </trkpt>
      <trkpt lat="40.228087" lon="-3.375906">
        <ele>572.929869</ele>
        <time>2021-10-27T14:44:10.000Z</time>
      </trkpt>
      <trkpt lat="40.228185" lon="-3.375422">
        <ele>573.643932</ele>
        <time>2021-10-27T14:44:18.000Z</time>
      </trkpt>
      <trkpt lat="40.228195" lon="-3.375361">
        <ele>573.732903</ele>
        <time>2021-10-27T14:44:19.000Z</time>
      </trkpt>
      <trkpt lat="40.228212" lon="-3.375238">
        <ele>573.911156</ele>
        <time>2021-10-27T14:44:21.000Z</time>
      </trkpt>
      <trkpt lat="40.228232" lon="-3.375119">
        <ele>574.084917</ele>
        <time>2021-10-27T14:44:23.000Z</time>
      </trkpt>
      <trkpt lat="40.228247" lon="-3.375057">
        <ele>574.177665</ele>
        <time>2021-10-27T14:44:24.000Z</time>
      </trkpt>
      <trkpt lat="40.228266" lon="-3.374993">
        <ele>574.275588</ele>
        <time>2021-10-27T14:44:25.000Z</time>
      </trkpt>
      <trkpt lat="40.228335" lon="-3.374797">
        <ele>574.047380</ele>
        <time>2021-10-27T14:44:28.000Z</time>
      </trkpt>
      <trkpt lat="40.228452" lon="-3.374520">
        <ele>573.605917</ele>
        <time>2021-10-27T14:44:32.000Z</time>
      </trkpt>
      <trkpt lat="40.228578" lon="-3.374235">
        <ele>573.146647</ele>
        <time>2021-10-27T14:44:36.000Z</time>
      </trkpt>
      <trkpt lat="40.228650" lon="-3.374087">
        <ele>572.901916</ele>
        <time>2021-10-27T14:44:38.000Z</time>
      </trkpt>
      <trkpt lat="40.228683" lon="-3.374004">
        <ele>572.771415</ele>
        <time>2021-10-27T14:44:39.000Z</time>
      </trkpt>
      <trkpt lat="40.228707" lon="-3.373915">
        <ele>572.639787</ele>
        <time>2021-10-27T14:44:40.000Z</time>
      </trkpt>
      <trkpt lat="40.228739" lon="-3.373726">
        <ele>572.369817</ele>
        <time>2021-10-27T14:44:42.000Z</time>
      </trkpt>
      <trkpt lat="40.228756" lon="-3.373637">
        <ele>572.241878</ele>
        <time>2021-10-27T14:44:43.000Z</time>
      </trkpt>
      <trkpt lat="40.228820" lon="-3.373482">
        <ele>571.996140</ele>
        <time>2021-10-27T14:44:45.000Z</time>
      </trkpt>
      <trkpt lat="40.228894" lon="-3.373344">
        <ele>571.760969</ele>
        <time>2021-10-27T14:44:47.000Z</time>
      </trkpt>
      <trkpt lat="40.228942" lon="-3.373199">
        <ele>571.540573</ele>
        <time>2021-10-27T14:44:49.000Z</time>
      </trkpt>
      <trkpt lat="40.228960" lon="-3.373056">
        <ele>571.338463</ele>
        <time>2021-10-27T14:44:51.000Z</time>
      </trkpt>
      <trkpt lat="40.228961" lon="-3.372915">
        <ele>571.141826</ele>
        <time>2021-10-27T14:44:53.000Z</time>
      </trkpt>
      <trkpt lat="40.228973" lon="-3.372488">
        <ele>571.230628</ele>
        <time>2021-10-27T14:44:59.000Z</time>
      </trkpt>
      <trkpt lat="40.228983" lon="-3.371931">
        <ele>571.559428</ele>
        <time>2021-10-27T14:45:06.000Z</time>
      </trkpt>
      <trkpt lat="40.229000" lon="-3.371779">
        <ele>571.650087</ele>
        <time>2021-10-27T14:45:08.000Z</time>
      </trkpt>
      <trkpt lat="40.229047" lon="-3.371575">
        <ele>571.775839</ele>
        <time>2021-10-27T14:45:11.000Z</time>
      </trkpt>
      <trkpt lat="40.229066" lon="-3.371514">
        <ele>571.814718</ele>
        <time>2021-10-27T14:45:12.000Z</time>
      </trkpt>
      <trkpt lat="40.229109" lon="-3.371396">
        <ele>571.891880</ele>
        <time>2021-10-27T14:45:14.000Z</time>
      </trkpt>
      <trkpt lat="40.229137" lon="-3.371269">
        <ele>571.969891</ele>
        <time>2021-10-27T14:45:16.000Z</time>
      </trkpt>
      <trkpt lat="40.229148" lon="-3.371202">
        <ele>572.010334</ele>
        <time>2021-10-27T14:45:17.000Z</time>
      </trkpt>
      <trkpt lat="40.229168" lon="-3.371063">
        <ele>572.093808</ele>
        <time>2021-10-27T14:45:19.000Z</time>
      </trkpt>
      <trkpt lat="40.229182" lon="-3.370993">
        <ele>572.136511</ele>
        <time>2021-10-27T14:45:20.000Z</time>
      </trkpt>
      <trkpt lat="40.229199" lon="-3.370925">
        <ele>572.178738</ele>
        <time>2021-10-27T14:45:21.000Z</time>
      </trkpt>
      <trkpt lat="40.229220" lon="-3.370859">
        <ele>572.220934</ele>
        <time>2021-10-27T14:45:22.000Z</time>
      </trkpt>
      <trkpt lat="40.229240" lon="-3.370791">
        <ele>572.263939</ele>
        <time>2021-10-27T14:45:23.000Z</time>
      </trkpt>
      <trkpt lat="40.229326" lon="-3.370372">
        <ele>572.583351</ele>
        <time>2021-10-27T14:45:29.000Z</time>
      </trkpt>
      <trkpt lat="40.229388" lon="-3.370025">
        <ele>572.923497</ele>
        <time>2021-10-27T14:45:34.000Z</time>
      </trkpt>
      <trkpt lat="40.229446" lon="-3.369832">
        <ele>573.121464</ele>
        <time>2021-10-27T14:45:37.000Z</time>
      </trkpt>
      <trkpt lat="40.229558" lon="-3.369599">
        <ele>573.384260</ele>
        <time>2021-10-27T14:45:41.000Z</time>
      </trkpt>
      <trkpt lat="40.229580" lon="-3.369542">
        <ele>573.445221</ele>
        <time>2021-10-27T14:45:42.000Z</time>
      </trkpt>
      <trkpt lat="40.229598" lon="-3.369485">
        <ele>573.504096</ele>
        <time>2021-10-27T14:45:43.000Z</time>
      </trkpt>
      <trkpt lat="40.229626" lon="-3.369371">
        <ele>573.618396</ele>
        <time>2021-10-27T14:45:45.000Z</time>
      </trkpt>
      <trkpt lat="40.229668" lon="-3.369193">
        <ele>573.796217</ele>
        <time>2021-10-27T14:45:48.000Z</time>
      </trkpt>
      <trkpt lat="40.229747" lon="-3.368946">
        <ele>574.051819</ele>
        <time>2021-10-27T14:45:52.000Z</time>
      </trkpt>
      <trkpt lat="40.229828" lon="-3.368725">
        <ele>574.285801</ele>
        <time>2021-10-27T14:45:55.000Z</time>
      </trkpt>
      <trkpt lat="40.229862" lon="-3.368645">
        <ele>574.373190</ele>
        <time>2021-10-27T14:45:56.000Z</time>
      </trkpt>
      <trkpt lat="40.229896" lon="-3.368563">
        <ele>574.462253</ele>
        <time>2021-10-27T14:45:57.000Z</time>
      </trkpt>
      <trkpt lat="40.229960" lon="-3.368393">
        <ele>574.643164</ele>
        <time>2021-10-27T14:45:59.000Z</time>
      </trkpt>
      <trkpt lat="40.230016" lon="-3.368224">
        <ele>574.585012</ele>
        <time>2021-10-27T14:46:01.000Z</time>
      </trkpt>
      <trkpt lat="40.230046" lon="-3.368145">
        <ele>574.540479</ele>
        <time>2021-10-27T14:46:02.000Z</time>
      </trkpt>
      <trkpt lat="40.230130" lon="-3.367842">
        <ele>574.377775</ele>
        <time>2021-10-27T14:46:06.000Z</time>
      </trkpt>
      <trkpt lat="40.230140" lon="-3.367768">
        <ele>574.339845</ele>
        <time>2021-10-27T14:46:07.000Z</time>
      </trkpt>
      <trkpt lat="40.230201" lon="-3.367300">
        <ele>574.100215</ele>
        <time>2021-10-27T14:46:13.000Z</time>
      </trkpt>
      <trkpt lat="40.230209" lon="-3.367227">
        <ele>574.062992</ele>
        <time>2021-10-27T14:46:14.000Z</time>
      </trkpt>
      <trkpt lat="40.230202" lon="-3.366933">
        <ele>573.914530</ele>
        <time>2021-10-27T14:46:18.000Z</time>
      </trkpt>
      <trkpt lat="40.230212" lon="-3.366577">
        <ele>573.734725</ele>
        <time>2021-10-27T14:46:23.000Z</time>
      </trkpt>
      <trkpt lat="40.230224" lon="-3.366501">
        <ele>573.695554</ele>
        <time>2021-10-27T14:46:24.000Z</time>
      </trkpt>
      <trkpt lat="40.230276" lon="-3.366066">
        <ele>573.476102</ele>
        <time>2021-10-27T14:46:29.000Z</time>
      </trkpt>
      <trkpt lat="40.230271" lon="-3.365972">
        <ele>573.466005</ele>
        <time>2021-10-27T14:46:30.000Z</time>
      </trkpt>
      <trkpt lat="40.230257" lon="-3.365879">
        <ele>573.455848</ele>
        <time>2021-10-27T14:46:31.000Z</time>
      </trkpt>
      <trkpt lat="40.230233" lon="-3.365791">
        <ele>573.445835</ele>
        <time>2021-10-27T14:46:32.000Z</time>
      </trkpt>
      <trkpt lat="40.230130" lon="-3.365557">
        <ele>573.416893</ele>
        <time>2021-10-27T14:46:35.000Z</time>
      </trkpt>
      <trkpt lat="40.230044" lon="-3.365422">
        <ele>573.398053</ele>
        <time>2021-10-27T14:46:37.000Z</time>
      </trkpt>
      <trkpt lat="40.229965" lon="-3.365285">
        <ele>573.379657</ele>
        <time>2021-10-27T14:46:39.000Z</time>
      </trkpt>
      <trkpt lat="40.229893" lon="-3.365148">
        <ele>573.361835</ele>
        <time>2021-10-27T14:46:41.000Z</time>
      </trkpt>
      <trkpt lat="40.229850" lon="-3.365085">
        <ele>573.352780</ele>
        <time>2021-10-27T14:46:42.000Z</time>
      </trkpt>
      <trkpt lat="40.229804" lon="-3.365028">
        <ele>573.343893</ele>
        <time>2021-10-27T14:46:43.000Z</time>
      </trkpt>
      <trkpt lat="40.229563" lon="-3.364781">
        <ele>573.300945</ele>
        <time>2021-10-27T14:46:48.000Z</time>
      </trkpt>
      <trkpt lat="40.229381" lon="-3.364588">
        <ele>573.268079</ele>
        <time>2021-10-27T14:46:52.000Z</time>
      </trkpt>
      <trkpt lat="40.229317" lon="-3.364458">
        <ele>573.251504</ele>
        <time>2021-10-27T14:46:54.000Z</time>
      </trkpt>
      <trkpt lat="40.229161" lon="-3.364055">
        <ele>573.037346</ele>
        <time>2021-10-27T14:47:00.000Z</time>
      </trkpt>
      <trkpt lat="40.229140" lon="-3.363982">
        <ele>572.964013</ele>
        <time>2021-10-27T14:47:01.000Z</time>
      </trkpt>
      <trkpt lat="40.229096" lon="-3.363829">
        <ele>572.810319</ele>
        <time>2021-10-27T14:47:03.000Z</time>
      </trkpt>
      <trkpt lat="40.229023" lon="-3.363585">
        <ele>572.563964</ele>
        <time>2021-10-27T14:47:06.000Z</time>
      </trkpt>
      <trkpt lat="40.229018" lon="-3.363496">
        <ele>572.480073</ele>
        <time>2021-10-27T14:47:07.000Z</time>
      </trkpt>
      <trkpt lat="40.229031" lon="-3.363406">
        <ele>572.393967</ele>
        <time>2021-10-27T14:47:08.000Z</time>
      </trkpt>
      <trkpt lat="40.229062" lon="-3.363321">
        <ele>572.305414</ele>
        <time>2021-10-27T14:47:09.000Z</time>
      </trkpt>
      <trkpt lat="40.229174" lon="-3.363072">
        <ele>572.033738</ele>
        <time>2021-10-27T14:47:12.000Z</time>
      </trkpt>
      <trkpt lat="40.229196" lon="-3.362982">
        <ele>571.944902</ele>
        <time>2021-10-27T14:47:13.000Z</time>
      </trkpt>
      <trkpt lat="40.229220" lon="-3.362798">
        <ele>571.769427</ele>
        <time>2021-10-27T14:47:15.000Z</time>
      </trkpt>
      <trkpt lat="40.229221" lon="-3.362618">
        <ele>571.600213</ele>
        <time>2021-10-27T14:47:17.000Z</time>
      </trkpt>
      <trkpt lat="40.229209" lon="-3.362531">
        <ele>571.517105</ele>
        <time>2021-10-27T14:47:18.000Z</time>
      </trkpt>
      <trkpt lat="40.229066" lon="-3.362060">
        <ele>571.040615</ele>
        <time>2021-10-27T14:47:24.000Z</time>
      </trkpt>
      <trkpt lat="40.228969" lon="-3.361845">
        <ele>571.056062</ele>
        <time>2021-10-27T14:47:27.000Z</time>
      </trkpt>
      <trkpt lat="40.228942" lon="-3.361686">
        <ele>571.090835</ele>
        <time>2021-10-27T14:47:29.000Z</time>
      </trkpt>
      <trkpt lat="40.228941" lon="-3.361605">
        <ele>571.108129</ele>
        <time>2021-10-27T14:47:30.000Z</time>
      </trkpt>
      <trkpt lat="40.228936" lon="-3.361523">
        <ele>571.125691</ele>
        <time>2021-10-27T14:47:31.000Z</time>
      </trkpt>
      <trkpt lat="40.228893" lon="-3.361203">
        <ele>571.195055</ele>
        <time>2021-10-27T14:47:35.000Z</time>
      </trkpt>
      <trkpt lat="40.228843" lon="-3.360717">
        <ele>571.299745</ele>
        <time>2021-10-27T14:47:41.000Z</time>
      </trkpt>
      <trkpt lat="40.228845" lon="-3.360636">
        <ele>571.317046</ele>
        <time>2021-10-27T14:47:42.000Z</time>
      </trkpt>
      <trkpt lat="40.228904" lon="-3.359904">
        <ele>571.474184</ele>
        <time>2021-10-27T14:47:51.000Z</time>
      </trkpt>
      <trkpt lat="40.228922" lon="-3.359341">
        <ele>571.693026</ele>
        <time>2021-10-27T14:47:58.000Z</time>
      </trkpt>
      <trkpt lat="40.228926" lon="-3.359260">
        <ele>571.731234</ele>
        <time>2021-10-27T14:47:59.000Z</time>
      </trkpt>
      <trkpt lat="40.229004" lon="-3.358551">
        <ele>572.068419</ele>
        <time>2021-10-27T14:48:08.000Z</time>
      </trkpt>
      <trkpt lat="40.229014" lon="-3.358473">
        <ele>572.105649</ele>
        <time>2021-10-27T14:48:09.000Z</time>
      </trkpt>
      <trkpt lat="40.229026" lon="-3.358320">
        <ele>572.178047</ele>
        <time>2021-10-27T14:48:11.000Z</time>
      </trkpt>
      <trkpt lat="40.229045" lon="-3.358171">
        <ele>572.249156</ele>
        <time>2021-10-27T14:48:13.000Z</time>
      </trkpt>
      <trkpt lat="40.229166" lon="-3.357617">
        <ele>572.520393</ele>
        <time>2021-10-27T14:48:21.000Z</time>
      </trkpt>
      <trkpt lat="40.229300" lon="-3.357154">
        <ele>572.957664</ele>
        <time>2021-10-27T14:48:28.000Z</time>
      </trkpt>
      <trkpt lat="40.229332" lon="-3.357018">
        <ele>573.128418</ele>
        <time>2021-10-27T14:48:30.000Z</time>
      </trkpt>
      <trkpt lat="40.229386" lon="-3.356817">
        <ele>573.384086</ele>
        <time>2021-10-27T14:48:33.000Z</time>
      </trkpt>
      <trkpt lat="40.229399" lon="-3.356748">
        <ele>573.469360</ele>
        <time>2021-10-27T14:48:34.000Z</time>
      </trkpt>
      <trkpt lat="40.229454" lon="-3.356341">
        <ele>573.965293</ele>
        <time>2021-10-27T14:48:40.000Z</time>
      </trkpt>
      <trkpt lat="40.229477" lon="-3.356142">
        <ele>574.206785</ele>
        <time>2021-10-27T14:48:43.000Z</time>
      </trkpt>
      <trkpt lat="40.229544" lon="-3.355808">
        <ele>574.621139</ele>
        <time>2021-10-27T14:48:48.000Z</time>
      </trkpt>
      <trkpt lat="40.229565" lon="-3.355739">
        <ele>574.710265</ele>
        <time>2021-10-27T14:48:49.000Z</time>
      </trkpt>
      <trkpt lat="40.229684" lon="-3.355487">
        <ele>575.065792</ele>
        <time>2021-10-27T14:48:53.000Z</time>
      </trkpt>
      <trkpt lat="40.229803" lon="-3.355325">
        <ele>575.335530</ele>
        <time>2021-10-27T14:48:57.000Z</time>
      </trkpt>
      <trkpt lat="40.229816" lon="-3.355283">
        <ele>575.389908</ele>
        <time>2021-10-27T14:48:59.000Z</time>
      </trkpt>
      <trkpt lat="40.229802" lon="-3.355254">
        <ele>575.431076</ele>
        <time>2021-10-27T14:49:01.000Z</time>
      </trkpt>
      <trkpt lat="40.229735" lon="-3.355180">
        <ele>575.564657</ele>
        <time>2021-10-27T14:49:05.000Z</time>
      </trkpt>
      <trkpt lat="40.229728" lon="-3.355139">
        <ele>575.613327</ele>
        <time>2021-10-27T14:49:06.000Z</time>
      </trkpt>
      <trkpt lat="40.229705" lon="-3.354695">
        <ele>576.128865</ele>
        <time>2021-10-27T14:49:15.000Z</time>
      </trkpt>
      <trkpt lat="40.229696" lon="-3.354608">
        <ele>576.230572</ele>
        <time>2021-10-27T14:49:17.000Z</time>
      </trkpt>
      <trkpt lat="40.229671" lon="-3.354462">
        <ele>576.403909</ele>
        <time>2021-10-27T14:49:20.000Z</time>
      </trkpt>
      <trkpt lat="40.229542" lon="-3.354059">
        <ele>576.910142</ele>
        <time>2021-10-27T14:49:28.000Z</time>
      </trkpt>
      <trkpt lat="40.229509" lon="-3.353944">
        <ele>577.052465</ele>
        <time>2021-10-27T14:49:30.000Z</time>
      </trkpt>
      <trkpt lat="40.229439" lon="-3.353587">
        <ele>577.479458</ele>
        <time>2021-10-27T14:49:36.000Z</time>
      </trkpt>
      <trkpt lat="40.229291" lon="-3.353141">
        <ele>578.042828</ele>
        <time>2021-10-27T14:49:44.000Z</time>
      </trkpt>
      <trkpt lat="40.229184" lon="-3.352850">
        <ele>578.176192</ele>
        <time>2021-10-27T14:49:49.000Z</time>
      </trkpt>
      <trkpt lat="40.229134" lon="-3.352734">
        <ele>578.175281</ele>
        <time>2021-10-27T14:49:51.000Z</time>
      </trkpt>
      <trkpt lat="40.228897" lon="-3.352382">
        <ele>578.172073</ele>
        <time>2021-10-27T14:49:58.000Z</time>
      </trkpt>
      <trkpt lat="40.228718" lon="-3.352126">
        <ele>578.169699</ele>
        <time>2021-10-27T14:50:03.000Z</time>
      </trkpt>
      <trkpt lat="40.228536" lon="-3.351874">
        <ele>578.167328</ele>
        <time>2021-10-27T14:50:08.000Z</time>
      </trkpt>
      <trkpt lat="40.228352" lon="-3.351709">
        <ele>578.165331</ele>
        <time>2021-10-27T14:50:12.000Z</time>
      </trkpt>
      <trkpt lat="40.228298" lon="-3.351674">
        <ele>578.164791</ele>
        <time>2021-10-27T14:50:13.000Z</time>
      </trkpt>
      <trkpt lat="40.228003" lon="-3.351396">
        <ele>578.161537</ele>
        <time>2021-10-27T14:50:19.000Z</time>
      </trkpt>
      <trkpt lat="40.227607" lon="-3.350884">
        <ele>577.939268</ele>
        <time>2021-10-27T14:50:28.000Z</time>
      </trkpt>
      <trkpt lat="40.227202" lon="-3.350493">
        <ele>577.736754</ele>
        <time>2021-10-27T14:50:36.000Z</time>
      </trkpt>
      <trkpt lat="40.227102" lon="-3.350381">
        <ele>577.683793</ele>
        <time>2021-10-27T14:50:38.000Z</time>
      </trkpt>
      <trkpt lat="40.226860" lon="-3.350124">
        <ele>577.558391</ele>
        <time>2021-10-27T14:50:43.000Z</time>
      </trkpt>
      <trkpt lat="40.226699" lon="-3.349937">
        <ele>577.471776</ele>
        <time>2021-10-27T14:50:47.000Z</time>
      </trkpt>
      <trkpt lat="40.226628" lon="-3.349849">
        <ele>577.434553</ele>
        <time>2021-10-27T14:50:49.000Z</time>
      </trkpt>
      <trkpt lat="40.226467" lon="-3.349657">
        <ele>577.383387</ele>
        <time>2021-10-27T14:50:54.000Z</time>
      </trkpt>
      <trkpt lat="40.226410" lon="-3.349596">
        <ele>577.366091</ele>
        <time>2021-10-27T14:50:56.000Z</time>
      </trkpt>
      <trkpt lat="40.226210" lon="-3.349461">
        <ele>577.313219</ele>
        <time>2021-10-27T14:51:03.000Z</time>
      </trkpt>
      <trkpt lat="40.226159" lon="-3.349429">
        <ele>577.299931</ele>
        <time>2021-10-27T14:51:05.000Z</time>
      </trkpt>
      <trkpt lat="40.226106" lon="-3.349399">
        <ele>577.286363</ele>
        <time>2021-10-27T14:51:07.000Z</time>
      </trkpt>
      <trkpt lat="40.226048" lon="-3.349372">
        <ele>577.271899</ele>
        <time>2021-10-27T14:51:09.000Z</time>
      </trkpt>
      <trkpt lat="40.226003" lon="-3.349339">
        <ele>577.259780</ele>
        <time>2021-10-27T14:51:11.000Z</time>
      </trkpt>
      <trkpt lat="40.225890" lon="-3.349267">
        <ele>577.230251</ele>
        <time>2021-10-27T14:51:16.000Z</time>
      </trkpt>
      <trkpt lat="40.225846" lon="-3.349237">
        <ele>577.218594</ele>
        <time>2021-10-27T14:51:18.000Z</time>
      </trkpt>
      <trkpt lat="40.225779" lon="-3.349196">
        <ele>577.201217</ele>
        <time>2021-10-27T14:51:21.000Z</time>
      </trkpt>
      <trkpt lat="40.225668" lon="-3.349121">
        <ele>577.171867</ele>
        <time>2021-10-27T14:51:26.000Z</time>
      </trkpt>
      <trkpt lat="40.225484" lon="-3.348997">
        <ele>577.123242</ele>
        <time>2021-10-27T14:51:35.000Z</time>
      </trkpt>
      <trkpt lat="40.225361" lon="-3.348905">
        <ele>577.089957</ele>
        <time>2021-10-27T14:51:41.000Z</time>
      </trkpt>
      <trkpt lat="40.225209" lon="-3.348811">
        <ele>577.050458</ele>
        <time>2021-10-27T14:51:47.000Z</time>
      </trkpt>
      <trkpt lat="40.225016" lon="-3.348649">
        <ele>577.099566</ele>
        <time>2021-10-27T14:51:53.000Z</time>
      </trkpt>
      <trkpt lat="40.224739" lon="-3.348338">
        <ele>577.496732</ele>
        <time>2021-10-27T14:52:00.000Z</time>
      </trkpt>
      <trkpt lat="40.224557" lon="-3.348150">
        <ele>577.749058</ele>
        <time>2021-10-27T14:52:05.000Z</time>
      </trkpt>
      <trkpt lat="40.224264" lon="-3.347893">
        <ele>578.132934</ele>
        <time>2021-10-27T14:52:12.000Z</time>
      </trkpt>
      <trkpt lat="40.224094" lon="-3.347703">
        <ele>578.376215</ele>
        <time>2021-10-27T14:52:16.000Z</time>
      </trkpt>
      <trkpt lat="40.223969" lon="-3.347556">
        <ele>578.559092</ele>
        <time>2021-10-27T14:52:19.000Z</time>
      </trkpt>
      <trkpt lat="40.223927" lon="-3.347503">
        <ele>578.622581</ele>
        <time>2021-10-27T14:52:20.000Z</time>
      </trkpt>
      <trkpt lat="40.223568" lon="-3.347041">
        <ele>578.788858</ele>
        <time>2021-10-27T14:52:29.000Z</time>
      </trkpt>
      <trkpt lat="40.223538" lon="-3.346980">
        <ele>578.732710</ele>
        <time>2021-10-27T14:52:30.000Z</time>
      </trkpt>
      <trkpt lat="40.223511" lon="-3.346917">
        <ele>578.676804</ele>
        <time>2021-10-27T14:52:31.000Z</time>
      </trkpt>
      <trkpt lat="40.223484" lon="-3.346853">
        <ele>578.620221</ele>
        <time>2021-10-27T14:52:32.000Z</time>
      </trkpt>
      <trkpt lat="40.223458" lon="-3.346788">
        <ele>578.563438</ele>
        <time>2021-10-27T14:52:33.000Z</time>
      </trkpt>
      <trkpt lat="40.223431" lon="-3.346723">
        <ele>578.506177</ele>
        <time>2021-10-27T14:52:34.000Z</time>
      </trkpt>
      <trkpt lat="40.223405" lon="-3.346658">
        <ele>578.449394</ele>
        <time>2021-10-27T14:52:35.000Z</time>
      </trkpt>
      <trkpt lat="40.223378" lon="-3.346594">
        <ele>578.392812</ele>
        <time>2021-10-27T14:52:36.000Z</time>
      </trkpt>
      <trkpt lat="40.223293" lon="-3.346409">
        <ele>578.225732</ele>
        <time>2021-10-27T14:52:39.000Z</time>
      </trkpt>
      <trkpt lat="40.223217" lon="-3.346214">
        <ele>578.056312</ele>
        <time>2021-10-27T14:52:42.000Z</time>
      </trkpt>
      <trkpt lat="40.223201" lon="-3.346066">
        <ele>577.940642</ele>
        <time>2021-10-27T14:52:44.000Z</time>
      </trkpt>
      <trkpt lat="40.223232" lon="-3.345912">
        <ele>577.817400</ele>
        <time>2021-10-27T14:52:46.000Z</time>
      </trkpt>
      <trkpt lat="40.223263" lon="-3.345833">
        <ele>577.748666</ele>
        <time>2021-10-27T14:52:47.000Z</time>
      </trkpt>
      <trkpt lat="40.223411" lon="-3.345505">
        <ele>577.453841</ele>
        <time>2021-10-27T14:52:51.000Z</time>
      </trkpt>
      <trkpt lat="40.223495" lon="-3.345344">
        <ele>577.302945</ele>
        <time>2021-10-27T14:52:53.000Z</time>
      </trkpt>
      <trkpt lat="40.223544" lon="-3.345266">
        <ele>577.224783</ele>
        <time>2021-10-27T14:52:54.000Z</time>
      </trkpt>
      <trkpt lat="40.223700" lon="-3.345031">
        <ele>577.044187</ele>
        <time>2021-10-27T14:52:57.000Z</time>
      </trkpt>
      <trkpt lat="40.223942" lon="-3.344653">
        <ele>576.801186</ele>
        <time>2021-10-27T14:53:02.000Z</time>
      </trkpt>
      <trkpt lat="40.224209" lon="-3.344126">
        <ele>576.489630</ele>
        <time>2021-10-27T14:53:09.000Z</time>
      </trkpt>
      <trkpt lat="40.224317" lon="-3.343692">
        <ele>576.264771</ele>
        <time>2021-10-27T14:53:14.000Z</time>
      </trkpt>
      <trkpt lat="40.224323" lon="-3.343505">
        <ele>576.172574</ele>
        <time>2021-10-27T14:53:16.000Z</time>
      </trkpt>
      <trkpt lat="40.224304" lon="-3.343320">
        <ele>576.080621</ele>
        <time>2021-10-27T14:53:18.000Z</time>
      </trkpt>
      <trkpt lat="40.224266" lon="-3.343044">
        <ele>575.972211</ele>
        <time>2021-10-27T14:53:21.000Z</time>
      </trkpt>
      <trkpt lat="40.224266" lon="-3.342855">
        <ele>575.937974</ele>
        <time>2021-10-27T14:53:23.000Z</time>
      </trkpt>
      <trkpt lat="40.224253" lon="-3.342386">
        <ele>575.852962</ele>
        <time>2021-10-27T14:53:28.000Z</time>
      </trkpt>
      <trkpt lat="40.224216" lon="-3.342207">
        <ele>575.819370</ele>
        <time>2021-10-27T14:53:30.000Z</time>
      </trkpt>
      <trkpt lat="40.224128" lon="-3.341875">
        <ele>575.755709</ele>
        <time>2021-10-27T14:53:34.000Z</time>
      </trkpt>
      <trkpt lat="40.224112" lon="-3.341712">
        <ele>575.725939</ele>
        <time>2021-10-27T14:53:36.000Z</time>
      </trkpt>
      <trkpt lat="40.224058" lon="-3.341262">
        <ele>575.643423</ele>
        <time>2021-10-27T14:53:42.000Z</time>
      </trkpt>
      <trkpt lat="40.224039" lon="-3.341109">
        <ele>575.615344</ele>
        <time>2021-10-27T14:53:44.000Z</time>
      </trkpt>
      <trkpt lat="40.224046" lon="-3.340870">
        <ele>575.572018</ele>
        <time>2021-10-27T14:53:47.000Z</time>
      </trkpt>
      <trkpt lat="40.224067" lon="-3.340710">
        <ele>575.517045</ele>
        <time>2021-10-27T14:53:49.000Z</time>
      </trkpt>
      <trkpt lat="40.224115" lon="-3.340566">
        <ele>575.452512</ele>
        <time>2021-10-27T14:53:51.000Z</time>
      </trkpt>
      <trkpt lat="40.224146" lon="-3.340498">
        <ele>575.419984</ele>
        <time>2021-10-27T14:53:52.000Z</time>
      </trkpt>
      <trkpt lat="40.224394" lon="-3.340115">
        <ele>575.213731</ele>
        <time>2021-10-27T14:53:58.000Z</time>
      </trkpt>
      <trkpt lat="40.224611" lon="-3.339693">
        <ele>575.004770</ele>
        <time>2021-10-27T14:54:04.000Z</time>
      </trkpt>
      <trkpt lat="40.224666" lon="-3.339535">
        <ele>574.933452</ele>
        <time>2021-10-27T14:54:06.000Z</time>
      </trkpt>
      <trkpt lat="40.224701" lon="-3.339366">
        <ele>574.861534</ele>
        <time>2021-10-27T14:54:08.000Z</time>
      </trkpt>
      <trkpt lat="40.224716" lon="-3.339279">
        <ele>574.824903</ele>
        <time>2021-10-27T14:54:09.000Z</time>
      </trkpt>
      <trkpt lat="40.224772" lon="-3.339022">
        <ele>574.715137</ele>
        <time>2021-10-27T14:54:12.000Z</time>
      </trkpt>
      <trkpt lat="40.224844" lon="-3.338780">
        <ele>574.608466</ele>
        <time>2021-10-27T14:54:15.000Z</time>
      </trkpt>
      <trkpt lat="40.224944" lon="-3.338552">
        <ele>574.585154</ele>
        <time>2021-10-27T14:54:18.000Z</time>
      </trkpt>
      <trkpt lat="40.225036" lon="-3.338421">
        <ele>574.577357</ele>
        <time>2021-10-27T14:54:20.000Z</time>
      </trkpt>
      <trkpt lat="40.225152" lon="-3.338320">
        <ele>574.569364</ele>
        <time>2021-10-27T14:54:22.000Z</time>
      </trkpt>
      <trkpt lat="40.225284" lon="-3.338252">
        <ele>574.561226</ele>
        <time>2021-10-27T14:54:24.000Z</time>
      </trkpt>
      <trkpt lat="40.225347" lon="-3.338211">
        <ele>574.557189</ele>
        <time>2021-10-27T14:54:25.000Z</time>
      </trkpt>
      <trkpt lat="40.225438" lon="-3.338081">
        <ele>574.549463</ele>
        <time>2021-10-27T14:54:27.000Z</time>
      </trkpt>
      <trkpt lat="40.225514" lon="-3.337737">
        <ele>574.533774</ele>
        <time>2021-10-27T14:54:31.000Z</time>
      </trkpt>
      <trkpt lat="40.225574" lon="-3.337482">
        <ele>574.522085</ele>
        <time>2021-10-27T14:54:34.000Z</time>
      </trkpt>
      <trkpt lat="40.225639" lon="-3.337327">
        <ele>574.514338</ele>
        <time>2021-10-27T14:54:36.000Z</time>
      </trkpt>
      <trkpt lat="40.225871" lon="-3.337001">
        <ele>574.494814</ele>
        <time>2021-10-27T14:54:41.000Z</time>
      </trkpt>
      <trkpt lat="40.226017" lon="-3.336812">
        <ele>574.583231</ele>
        <time>2021-10-27T14:54:44.000Z</time>
      </trkpt>
      <trkpt lat="40.226094" lon="-3.336660">
        <ele>574.663938</ele>
        <time>2021-10-27T14:54:46.000Z</time>
      </trkpt>
      <trkpt lat="40.226128" lon="-3.336579">
        <ele>574.704835</ele>
        <time>2021-10-27T14:54:47.000Z</time>
      </trkpt>
      <trkpt lat="40.226155" lon="-3.336494">
        <ele>574.745567</ele>
        <time>2021-10-27T14:54:48.000Z</time>
      </trkpt>
      <trkpt lat="40.226200" lon="-3.336221">
        <ele>574.869135</ele>
        <time>2021-10-27T14:54:51.000Z</time>
      </trkpt>
      <trkpt lat="40.226234" lon="-3.336056">
        <ele>574.944749</ele>
        <time>2021-10-27T14:54:53.000Z</time>
      </trkpt>
      <trkpt lat="40.226286" lon="-3.335958">
        <ele>574.997551</ele>
        <time>2021-10-27T14:54:55.000Z</time>
      </trkpt>
      <trkpt lat="40.226321" lon="-3.335947">
        <ele>575.018409</ele>
        <time>2021-10-27T14:54:56.000Z</time>
      </trkpt>
      <trkpt lat="40.226397" lon="-3.335978">
        <ele>575.064536</ele>
        <time>2021-10-27T14:54:58.000Z</time>
      </trkpt>
      <trkpt lat="40.226525" lon="-3.336137">
        <ele>575.166764</ele>
        <time>2021-10-27T14:55:01.000Z</time>
      </trkpt>
      <trkpt lat="40.226757" lon="-3.336443">
        <ele>575.357561</ele>
        <time>2021-10-27T14:55:06.000Z</time>
      </trkpt>
      <trkpt lat="40.226897" lon="-3.336628">
        <ele>575.472805</ele>
        <time>2021-10-27T14:55:09.000Z</time>
      </trkpt>
      <trkpt lat="40.227161" lon="-3.337070">
        <ele>575.496262</ele>
        <time>2021-10-27T14:55:15.000Z</time>
      </trkpt>
      <trkpt lat="40.227200" lon="-3.337149">
        <ele>575.487772</ele>
        <time>2021-10-27T14:55:16.000Z</time>
      </trkpt>
      <trkpt lat="40.227239" lon="-3.337228">
        <ele>575.479283</ele>
        <time>2021-10-27T14:55:17.000Z</time>
      </trkpt>
      <trkpt lat="40.227472" lon="-3.337697">
        <ele>575.428787</ele>
        <time>2021-10-27T14:55:23.000Z</time>
      </trkpt>
      <trkpt lat="40.227554" lon="-3.337840">
        <ele>575.412648</ele>
        <time>2021-10-27T14:55:25.000Z</time>
      </trkpt>
      <trkpt lat="40.227656" lon="-3.337932">
        <ele>575.398009</ele>
        <time>2021-10-27T14:55:27.000Z</time>
      </trkpt>
      <trkpt lat="40.227713" lon="-3.337933">
        <ele>575.391271</ele>
        <time>2021-10-27T14:55:28.000Z</time>
      </trkpt>
      <trkpt lat="40.227765" lon="-3.337907">
        <ele>575.384692</ele>
        <time>2021-10-27T14:55:29.000Z</time>
      </trkpt>
      <trkpt lat="40.227843" lon="-3.337830">
        <ele>575.373147</ele>
        <time>2021-10-27T14:55:31.000Z</time>
      </trkpt>
      <trkpt lat="40.227951" lon="-3.337682">
        <ele>575.354672</ele>
        <time>2021-10-27T14:55:35.000Z</time>
      </trkpt>
      <trkpt lat="40.227971" lon="-3.337653">
        <ele>575.351145</ele>
        <time>2021-10-27T14:55:36.000Z</time>
      </trkpt>
      <trkpt lat="40.228077" lon="-3.337502">
        <ele>575.332634</ele>
        <time>2021-10-27T14:55:40.000Z</time>
      </trkpt>
      <trkpt lat="40.228097" lon="-3.337465">
        <ele>575.328543</ele>
        <time>2021-10-27T14:55:41.000Z</time>
      </trkpt>
      <trkpt lat="40.228139" lon="-3.337391">
        <ele>575.318791</ele>
        <time>2021-10-27T14:55:45.000Z</time>
      </trkpt>
      <trkpt lat="40.228149" lon="-3.337384">
        <ele>575.316199</ele>
        <time>2021-10-27T14:55:46.000Z</time>
      </trkpt>
      <trkpt lat="40.228156" lon="-3.337374">
        <ele>575.313831</ele>
        <time>2021-10-27T14:55:47.000Z</time>
      </trkpt>
      <trkpt lat="40.228174" lon="-3.337269">
        <ele>575.295048</ele>
        <time>2021-10-27T14:55:51.000Z</time>
      </trkpt>
      <trkpt lat="40.228173" lon="-3.337221">
        <ele>575.286667</ele>
        <time>2021-10-27T15:00:40.000Z</time>
      </trkpt>
      <trkpt lat="40.228150" lon="-3.337220">
        <ele>575.281406</ele>
        <time>2021-10-27T15:00:41.000Z</time>
      </trkpt>
      <trkpt lat="40.228109" lon="-3.337175">
        <ele>575.269177</ele>
        <time>2021-10-27T15:00:43.000Z</time>
      </trkpt>
      <trkpt lat="40.228029" lon="-3.337009">
        <ele>575.234914</ele>
        <time>2021-10-27T15:00:47.000Z</time>
      </trkpt>
      <trkpt lat="40.227983" lon="-3.336913">
        <ele>575.215131</ele>
        <time>2021-10-27T15:00:49.000Z</time>
      </trkpt>
      <trkpt lat="40.227741" lon="-3.336420">
        <ele>575.112832</ele>
        <time>2021-10-27T15:00:58.000Z</time>
      </trkpt>
      <trkpt lat="40.227589" lon="-3.336116">
        <ele>575.049406</ele>
        <time>2021-10-27T15:01:03.000Z</time>
      </trkpt>
      <trkpt lat="40.227464" lon="-3.335867">
        <ele>574.997392</ele>
        <time>2021-10-27T15:01:07.000Z</time>
      </trkpt>
      <trkpt lat="40.227143" lon="-3.335236">
        <ele>575.130586</ele>
        <time>2021-10-27T15:01:17.000Z</time>
      </trkpt>
      <trkpt lat="40.227017" lon="-3.334983">
        <ele>575.385447</ele>
        <time>2021-10-27T15:01:21.000Z</time>
      </trkpt>
      <trkpt lat="40.226854" lon="-3.334658">
        <ele>575.713531</ele>
        <time>2021-10-27T15:01:27.000Z</time>
      </trkpt>
      <trkpt lat="40.226831" lon="-3.334615">
        <ele>575.757828</ele>
        <time>2021-10-27T15:01:28.000Z</time>
      </trkpt>
      <trkpt lat="40.226777" lon="-3.334471">
        <ele>575.893189</ele>
        <time>2021-10-27T15:01:32.000Z</time>
      </trkpt>
      <trkpt lat="40.226781" lon="-3.334430">
        <ele>575.928064</ele>
        <time>2021-10-27T15:01:33.000Z</time>
      </trkpt>
      <trkpt lat="40.226822" lon="-3.334356">
        <ele>576.005207</ele>
        <time>2021-10-27T15:01:35.000Z</time>
      </trkpt>
      <trkpt lat="40.226859" lon="-3.334326">
        <ele>576.053296</ele>
        <time>2021-10-27T15:01:36.000Z</time>
      </trkpt>
      <trkpt lat="40.226897" lon="-3.334290">
        <ele>576.105123</ele>
        <time>2021-10-27T15:01:37.000Z</time>
      </trkpt>
      <trkpt lat="40.227042" lon="-3.334105">
        <ele>576.328820</ele>
        <time>2021-10-27T15:01:41.000Z</time>
      </trkpt>
      <trkpt lat="40.227061" lon="-3.334053">
        <ele>576.377459</ele>
        <time>2021-10-27T15:02:14.000Z</time>
      </trkpt>
      <trkpt lat="40.227032" lon="-3.333980">
        <ele>576.446890</ele>
        <time>2021-10-27T15:02:17.000Z</time>
      </trkpt>
      <trkpt lat="40.227020" lon="-3.333950">
        <ele>576.475465</ele>
        <time>2021-10-27T15:02:18.000Z</time>
      </trkpt>
      <trkpt lat="40.227003" lon="-3.333919">
        <ele>576.507668</ele>
        <time>2021-10-27T15:02:19.000Z</time>
      </trkpt>
      <trkpt lat="40.226983" lon="-3.333884">
        <ele>576.544553</ele>
        <time>2021-10-27T15:02:20.000Z</time>
      </trkpt>
      <trkpt lat="40.226936" lon="-3.333812">
        <ele>576.624479</ele>
        <time>2021-10-27T15:02:22.000Z</time>
      </trkpt>
      <trkpt lat="40.226788" lon="-3.333581">
        <ele>576.878912</ele>
        <time>2021-10-27T15:02:28.000Z</time>
      </trkpt>
      <trkpt lat="40.226754" lon="-3.333494">
        <ele>576.914048</ele>
        <time>2021-10-27T15:02:30.000Z</time>
      </trkpt>
      <trkpt lat="40.226738" lon="-3.333445">
        <ele>576.925315</ele>
        <time>2021-10-27T15:02:31.000Z</time>
      </trkpt>
      <trkpt lat="40.226634" lon="-3.333180">
        <ele>576.988307</ele>
        <time>2021-10-27T15:02:36.000Z</time>
      </trkpt>
      <trkpt lat="40.226610" lon="-3.333121">
        <ele>577.002440</ele>
        <time>2021-10-27T15:02:37.000Z</time>
      </trkpt>
      <trkpt lat="40.226496" lon="-3.332668">
        <ele>577.103278</ele>
        <time>2021-10-27T15:02:44.000Z</time>
      </trkpt>
      <trkpt lat="40.226486" lon="-3.332529">
        <ele>577.132794</ele>
        <time>2021-10-27T15:02:46.000Z</time>
      </trkpt>
      <trkpt lat="40.226511" lon="-3.332242">
        <ele>577.193863</ele>
        <time>2021-10-27T15:02:50.000Z</time>
      </trkpt>
      <trkpt lat="40.226647" lon="-3.331615">
        <ele>577.331664</ele>
        <time>2021-10-27T15:02:59.000Z</time>
      </trkpt>
      <trkpt lat="40.226828" lon="-3.331144">
        <ele>577.469041</ele>
        <time>2021-10-27T15:03:06.000Z</time>
      </trkpt>
      <trkpt lat="40.227003" lon="-3.330754">
        <ele>577.617523</ele>
        <time>2021-10-27T15:03:12.000Z</time>
      </trkpt>
      <trkpt lat="40.227124" lon="-3.330501">
        <ele>577.715514</ele>
        <time>2021-10-27T15:03:16.000Z</time>
      </trkpt>
      <trkpt lat="40.227283" lon="-3.330185">
        <ele>577.839734</ele>
        <time>2021-10-27T15:03:21.000Z</time>
      </trkpt>
      <trkpt lat="40.227480" lon="-3.329813">
        <ele>577.988333</ele>
        <time>2021-10-27T15:03:27.000Z</time>
      </trkpt>
      <trkpt lat="40.227549" lon="-3.329689">
        <ele>578.038696</ele>
        <time>2021-10-27T15:03:29.000Z</time>
      </trkpt>
      <trkpt lat="40.227729" lon="-3.329305">
        <ele>578.187084</ele>
        <time>2021-10-27T15:03:35.000Z</time>
      </trkpt>
      <trkpt lat="40.227801" lon="-3.329098">
        <ele>578.263881</ele>
        <time>2021-10-27T15:03:38.000Z</time>
      </trkpt>
      <trkpt lat="40.227936" lon="-3.328686">
        <ele>578.415247</ele>
        <time>2021-10-27T15:03:44.000Z</time>
      </trkpt>
      <trkpt lat="40.227992" lon="-3.328569">
        <ele>578.461868</ele>
        <time>2021-10-27T15:03:46.000Z</time>
      </trkpt>
      <trkpt lat="40.228096" lon="-3.328421">
        <ele>578.529777</ele>
        <time>2021-10-27T15:03:49.000Z</time>
      </trkpt>
      <trkpt lat="40.228137" lon="-3.328383">
        <ele>578.551987</ele>
        <time>2021-10-27T15:03:50.000Z</time>
      </trkpt>
      <trkpt lat="40.228180" lon="-3.328348">
        <ele>578.574374</ele>
        <time>2021-10-27T15:03:51.000Z</time>
      </trkpt>
      <trkpt lat="40.228492" lon="-3.328184">
        <ele>578.723036</ele>
        <time>2021-10-27T15:03:57.000Z</time>
      </trkpt>
      <trkpt lat="40.228551" lon="-3.328152">
        <ele>578.751274</ele>
        <time>2021-10-27T15:03:58.000Z</time>
      </trkpt>
      <trkpt lat="40.228775" lon="-3.327977">
        <ele>578.866609</ele>
        <time>2021-10-27T15:04:02.000Z</time>
      </trkpt>
      <trkpt lat="40.228884" lon="-3.327885">
        <ele>578.923950</ele>
        <time>2021-10-27T15:04:04.000Z</time>
      </trkpt>
      <trkpt lat="40.229171" lon="-3.327597">
        <ele>578.849795</ele>
        <time>2021-10-27T15:04:10.000Z</time>
      </trkpt>
      <trkpt lat="40.229291" lon="-3.327448">
        <ele>578.779044</ele>
        <time>2021-10-27T15:04:13.000Z</time>
      </trkpt>
      <trkpt lat="40.229398" lon="-3.327300">
        <ele>578.712457</ele>
        <time>2021-10-27T15:04:16.000Z</time>
      </trkpt>
      <trkpt lat="40.229434" lon="-3.327256">
        <ele>578.691389</ele>
        <time>2021-10-27T15:04:17.000Z</time>
      </trkpt>
      <trkpt lat="40.229726" lon="-3.326922">
        <ele>578.525510</ele>
        <time>2021-10-27T15:04:24.000Z</time>
      </trkpt>
      <trkpt lat="40.229770" lon="-3.326868">
        <ele>578.499710</ele>
        <time>2021-10-27T15:04:25.000Z</time>
      </trkpt>
      <trkpt lat="40.230071" lon="-3.326586">
        <ele>578.341361</ele>
        <time>2021-10-27T15:04:31.000Z</time>
      </trkpt>
      <trkpt lat="40.230533" lon="-3.326215">
        <ele>578.194717</ele>
        <time>2021-10-27T15:04:40.000Z</time>
      </trkpt>
      <trkpt lat="40.230744" lon="-3.326048">
        <ele>578.194038</ele>
        <time>2021-10-27T15:04:44.000Z</time>
      </trkpt>
      <trkpt lat="40.230806" lon="-3.326032">
        <ele>578.193864</ele>
        <time>2021-10-27T15:04:45.000Z</time>
      </trkpt>
      <trkpt lat="40.230869" lon="-3.326035">
        <ele>578.193690</ele>
        <time>2021-10-27T15:04:46.000Z</time>
      </trkpt>
      <trkpt lat="40.230990" lon="-3.326021">
        <ele>578.193356</ele>
        <time>2021-10-27T15:04:48.000Z</time>
      </trkpt>
      <trkpt lat="40.231082" lon="-3.325929">
        <ele>578.193037</ele>
        <time>2021-10-27T15:04:50.000Z</time>
      </trkpt>
      <trkpt lat="40.231161" lon="-3.325827">
        <ele>578.192732</ele>
        <time>2021-10-27T15:04:52.000Z</time>
      </trkpt>
      <trkpt lat="40.231445" lon="-3.325375">
        <ele>578.191501</ele>
        <time>2021-10-27T15:05:00.000Z</time>
      </trkpt>
      <trkpt lat="40.231763" lon="-3.324784">
        <ele>578.324910</ele>
        <time>2021-10-27T15:05:10.000Z</time>
      </trkpt>
      <trkpt lat="40.231989" lon="-3.324362">
        <ele>578.760279</ele>
        <time>2021-10-27T15:05:17.000Z</time>
      </trkpt>
      <trkpt lat="40.232062" lon="-3.324250">
        <ele>578.884659</ele>
        <time>2021-10-27T15:05:19.000Z</time>
      </trkpt>
      <trkpt lat="40.232197" lon="-3.324013">
        <ele>579.134405</ele>
        <time>2021-10-27T15:05:23.000Z</time>
      </trkpt>
      <trkpt lat="40.232314" lon="-3.323851">
        <ele>579.322752</ele>
        <time>2021-10-27T15:05:26.000Z</time>
      </trkpt>
      <trkpt lat="40.232606" lon="-3.323492">
        <ele>579.765797</ele>
        <time>2021-10-27T15:05:33.000Z</time>
      </trkpt>
      <trkpt lat="40.232692" lon="-3.323411">
        <ele>579.882981</ele>
        <time>2021-10-27T15:05:35.000Z</time>
      </trkpt>
      <trkpt lat="40.232767" lon="-3.323305">
        <ele>580.005044</ele>
        <time>2021-10-27T15:05:37.000Z</time>
      </trkpt>
      <trkpt lat="40.232838" lon="-3.323186">
        <ele>580.132602</ele>
        <time>2021-10-27T15:05:39.000Z</time>
      </trkpt>
      <trkpt lat="40.232970" lon="-3.323034">
        <ele>580.169902</ele>
        <time>2021-10-27T15:05:42.000Z</time>
      </trkpt>
      <trkpt lat="40.233313" lon="-3.322608">
        <ele>580.133376</ele>
        <time>2021-10-27T15:05:50.000Z</time>
      </trkpt>
      <trkpt lat="40.233353" lon="-3.322550">
        <ele>580.128765</ele>
        <time>2021-10-27T15:05:51.000Z</time>
      </trkpt>
      <trkpt lat="40.233394" lon="-3.322490">
        <ele>580.124014</ele>
        <time>2021-10-27T15:05:52.000Z</time>
      </trkpt>
      <trkpt lat="40.233435" lon="-3.322430">
        <ele>580.119264</ele>
        <time>2021-10-27T15:05:53.000Z</time>
      </trkpt>
      <trkpt lat="40.233479" lon="-3.322374">
        <ele>580.114523</ele>
        <time>2021-10-27T15:05:54.000Z</time>
      </trkpt>
      <trkpt lat="40.233526" lon="-3.322323">
        <ele>580.109807</ele>
        <time>2021-10-27T15:05:55.000Z</time>
      </trkpt>
      <trkpt lat="40.233628" lon="-3.322234">
        <ele>580.100336</ele>
        <time>2021-10-27T15:05:57.000Z</time>
      </trkpt>
      <trkpt lat="40.233802" lon="-3.322141">
        <ele>580.085813</ele>
        <time>2021-10-27T15:06:00.000Z</time>
      </trkpt>
      <trkpt lat="40.233925" lon="-3.322092">
        <ele>580.075879</ele>
        <time>2021-10-27T15:06:02.000Z</time>
      </trkpt>
      <trkpt lat="40.234103" lon="-3.322005">
        <ele>580.061197</ele>
        <time>2021-10-27T15:06:05.000Z</time>
      </trkpt>
      <trkpt lat="40.234387" lon="-3.321822">
        <ele>579.978863</ele>
        <time>2021-10-27T15:06:10.000Z</time>
      </trkpt>
      <trkpt lat="40.234798" lon="-3.321557">
        <ele>579.480980</ele>
        <time>2021-10-27T15:06:17.000Z</time>
      </trkpt>
      <trkpt lat="40.234859" lon="-3.321517">
        <ele>579.406838</ele>
        <time>2021-10-27T15:06:18.000Z</time>
      </trkpt>
      <trkpt lat="40.234980" lon="-3.321435">
        <ele>579.258771</ele>
        <time>2021-10-27T15:06:20.000Z</time>
      </trkpt>
      <trkpt lat="40.235165" lon="-3.321311">
        <ele>579.032907</ele>
        <time>2021-10-27T15:06:23.000Z</time>
      </trkpt>
      <trkpt lat="40.235411" lon="-3.321147">
        <ele>578.732905</ele>
        <time>2021-10-27T15:06:27.000Z</time>
      </trkpt>
      <trkpt lat="40.235465" lon="-3.321094">
        <ele>578.659567</ele>
        <time>2021-10-27T15:06:28.000Z</time>
      </trkpt>
      <trkpt lat="40.235876" lon="-3.320624">
        <ele>578.087148</ele>
        <time>2021-10-27T15:06:36.000Z</time>
      </trkpt>
      <trkpt lat="40.236154" lon="-3.320247">
        <ele>578.106130</ele>
        <time>2021-10-27T15:06:42.000Z</time>
      </trkpt>
      <trkpt lat="40.236240" lon="-3.320112">
        <ele>578.112498</ele>
        <time>2021-10-27T15:06:44.000Z</time>
      </trkpt>
      <trkpt lat="40.236644" lon="-3.319521">
        <ele>578.141228</ele>
        <time>2021-10-27T15:06:53.000Z</time>
      </trkpt>
      <trkpt lat="40.236823" lon="-3.319247">
        <ele>578.154289</ele>
        <time>2021-10-27T15:06:57.000Z</time>
      </trkpt>
      <trkpt lat="40.236912" lon="-3.319110">
        <ele>578.160804</ele>
        <time>2021-10-27T15:06:59.000Z</time>
      </trkpt>
      <trkpt lat="40.236956" lon="-3.319042">
        <ele>578.164032</ele>
        <time>2021-10-27T15:07:00.000Z</time>
      </trkpt>
      <trkpt lat="40.236999" lon="-3.318973">
        <ele>578.167258</ele>
        <time>2021-10-27T15:07:01.000Z</time>
      </trkpt>
      <trkpt lat="40.237170" lon="-3.318704">
        <ele>578.280840</ele>
        <time>2021-10-27T15:07:05.000Z</time>
      </trkpt>
      <trkpt lat="40.237555" lon="-3.318107">
        <ele>578.652454</ele>
        <time>2021-10-27T15:07:14.000Z</time>
      </trkpt>
      <trkpt lat="40.237602" lon="-3.318044">
        <ele>578.694341</ele>
        <time>2021-10-27T15:07:15.000Z</time>
      </trkpt>
      <trkpt lat="40.237650" lon="-3.317983">
        <ele>578.735997</ele>
        <time>2021-10-27T15:07:16.000Z</time>
      </trkpt>
      <trkpt lat="40.238068" lon="-3.317440">
        <ele>579.102683</ele>
        <time>2021-10-27T15:07:25.000Z</time>
      </trkpt>
      <trkpt lat="40.238148" lon="-3.317307">
        <ele>579.183198</ele>
        <time>2021-10-27T15:07:27.000Z</time>
      </trkpt>
      <trkpt lat="40.238224" lon="-3.317171">
        <ele>579.263342</ele>
        <time>2021-10-27T15:07:29.000Z</time>
      </trkpt>
      <trkpt lat="40.238259" lon="-3.317100">
        <ele>579.298405</ele>
        <time>2021-10-27T15:07:30.000Z</time>
      </trkpt>
      <trkpt lat="40.238293" lon="-3.317030">
        <ele>579.320344</ele>
        <time>2021-10-27T15:07:31.000Z</time>
      </trkpt>
      <trkpt lat="40.238360" lon="-3.316888">
        <ele>579.364484</ele>
        <time>2021-10-27T15:07:33.000Z</time>
      </trkpt>
      <trkpt lat="40.238416" lon="-3.316741">
        <ele>579.407924</ele>
        <time>2021-10-27T15:07:35.000Z</time>
      </trkpt>
      <trkpt lat="40.238436" lon="-3.316665">
        <ele>579.429180</ele>
        <time>2021-10-27T15:07:36.000Z</time>
      </trkpt>
      <trkpt lat="40.238466" lon="-3.316508">
        <ele>579.471974</ele>
        <time>2021-10-27T15:07:38.000Z</time>
      </trkpt>
      <trkpt lat="40.238498" lon="-3.316351">
        <ele>579.514942</ele>
        <time>2021-10-27T15:07:40.000Z</time>
      </trkpt>
      <trkpt lat="40.238558" lon="-3.316124">
        <ele>579.578460</ele>
        <time>2021-10-27T15:07:43.000Z</time>
      </trkpt>
      <trkpt lat="40.238624" lon="-3.315900">
        <ele>579.641948</ele>
        <time>2021-10-27T15:07:46.000Z</time>
      </trkpt>
      <trkpt lat="40.238673" lon="-3.315748">
        <ele>579.685576</ele>
        <time>2021-10-27T15:07:48.000Z</time>
      </trkpt>
      <trkpt lat="40.238726" lon="-3.315596">
        <ele>579.729761</ele>
        <time>2021-10-27T15:07:50.000Z</time>
      </trkpt>
      <trkpt lat="40.238805" lon="-3.315467">
        <ele>579.773491</ele>
        <time>2021-10-27T15:07:52.000Z</time>
      </trkpt>
      <trkpt lat="40.238857" lon="-3.315415">
        <ele>579.796151</ele>
        <time>2021-10-27T15:07:53.000Z</time>
      </trkpt>
      <trkpt lat="40.239088" lon="-3.315122">
        <ele>579.907525</ele>
        <time>2021-10-27T15:07:58.000Z</time>
      </trkpt>
      <trkpt lat="40.239391" lon="-3.314590">
        <ele>579.941676</ele>
        <time>2021-10-27T15:08:06.000Z</time>
      </trkpt>
      <trkpt lat="40.239615" lon="-3.314297">
        <ele>579.959080</ele>
        <time>2021-10-27T15:08:11.000Z</time>
      </trkpt>
      <trkpt lat="40.239669" lon="-3.314253">
        <ele>579.962577</ele>
        <time>2021-10-27T15:08:12.000Z</time>
      </trkpt>
      <trkpt lat="40.239899" lon="-3.314128">
        <ele>579.976268</ele>
        <time>2021-10-27T15:08:16.000Z</time>
      </trkpt>
      <trkpt lat="40.239960" lon="-3.314116">
        <ele>579.979659</ele>
        <time>2021-10-27T15:08:17.000Z</time>
      </trkpt>
      <trkpt lat="40.240023" lon="-3.314113">
        <ele>579.983125</ele>
        <time>2021-10-27T15:08:18.000Z</time>
      </trkpt>
      <trkpt lat="40.240269" lon="-3.314148">
        <ele>579.996730</ele>
        <time>2021-10-27T15:08:22.000Z</time>
      </trkpt>
      <trkpt lat="40.240636" lon="-3.314195">
        <ele>580.037025</ele>
        <time>2021-10-27T15:08:28.000Z</time>
      </trkpt>
      <trkpt lat="40.240698" lon="-3.314176">
        <ele>580.063080</ele>
        <time>2021-10-27T15:08:29.000Z</time>
      </trkpt>
      <trkpt lat="40.240755" lon="-3.314138">
        <ele>580.089250</ele>
        <time>2021-10-27T15:08:30.000Z</time>
      </trkpt>
      <trkpt lat="40.240823" lon="-3.314008">
        <ele>580.138475</ele>
        <time>2021-10-27T15:08:32.000Z</time>
      </trkpt>
      <trkpt lat="40.240840" lon="-3.313841">
        <ele>580.191100</ele>
        <time>2021-10-27T15:08:34.000Z</time>
      </trkpt>
      <trkpt lat="40.240830" lon="-3.313669">
        <ele>580.244981</ele>
        <time>2021-10-27T15:08:36.000Z</time>
      </trkpt>
      <trkpt lat="40.240778" lon="-3.313165">
        <ele>580.403839</ele>
        <time>2021-10-27T15:08:42.000Z</time>
      </trkpt>
      <trkpt lat="40.240784" lon="-3.313086">
        <ele>580.428637</ele>
        <time>2021-10-27T15:08:43.000Z</time>
      </trkpt>
      <trkpt lat="40.240804" lon="-3.313011">
        <ele>580.453452</ele>
        <time>2021-10-27T15:08:44.000Z</time>
      </trkpt>
      <trkpt lat="40.240874" lon="-3.312877">
        <ele>580.504170</ele>
        <time>2021-10-27T15:08:46.000Z</time>
      </trkpt>
      <trkpt lat="40.241000" lon="-3.312708">
        <ele>580.577959</ele>
        <time>2021-10-27T15:08:49.000Z</time>
      </trkpt>
      <trkpt lat="40.241030" lon="-3.312651">
        <ele>580.599585</ele>
        <time>2021-10-27T15:08:50.000Z</time>
      </trkpt>
      <trkpt lat="40.241043" lon="-3.312595">
        <ele>580.617868</ele>
        <time>2021-10-27T15:08:51.000Z</time>
      </trkpt>
      <trkpt lat="40.241022" lon="-3.312495">
        <ele>580.650264</ele>
        <time>2021-10-27T15:08:53.000Z</time>
      </trkpt>
      <trkpt lat="40.240989" lon="-3.312463">
        <ele>580.667064</ele>
        <time>2021-10-27T15:08:54.000Z</time>
      </trkpt>
      <trkpt lat="40.240951" lon="-3.312439">
        <ele>580.684326</ele>
        <time>2021-10-27T15:08:55.000Z</time>
      </trkpt>
      <trkpt lat="40.240705" lon="-3.312291">
        <ele>580.942813</ele>
        <time>2021-10-27T15:09:01.000Z</time>
      </trkpt>
      <trkpt lat="40.240289" lon="-3.312049">
        <ele>581.737754</ele>
        <time>2021-10-27T15:09:10.000Z</time>
      </trkpt>
      <trkpt lat="40.239769" lon="-3.311757">
        <ele>582.725833</ele>
        <time>2021-10-27T15:09:21.000Z</time>
      </trkpt>
      <trkpt lat="40.239308" lon="-3.311512">
        <ele>583.594685</ele>
        <time>2021-10-27T15:09:31.000Z</time>
      </trkpt>
      <trkpt lat="40.239227" lon="-3.311461">
        <ele>583.751640</ele>
        <time>2021-10-27T15:09:33.000Z</time>
      </trkpt>
      <trkpt lat="40.239155" lon="-3.311356">
        <ele>584.304183</ele>
        <time>2021-10-27T15:09:36.000Z</time>
      </trkpt>
      <trkpt lat="40.239141" lon="-3.311280">
        <ele>585.189192</ele>
        <time>2021-10-27T15:09:38.000Z</time>
      </trkpt>
      <trkpt lat="40.239127" lon="-3.311217">
        <ele>585.931952</ele>
        <time>2021-10-27T15:09:40.000Z</time>
      </trkpt>
      <trkpt lat="40.239115" lon="-3.311166">
        <ele>586.536071</ele>
        <time>2021-10-27T15:09:42.000Z</time>
      </trkpt>
      <trkpt lat="40.239094" lon="-3.311076">
        <ele>587.601396</ele>
        <time>2021-10-27T15:09:46.000Z</time>
      </trkpt>
      <trkpt lat="40.239090" lon="-3.310992">
        <ele>588.554119</ele>
        <time>2021-10-27T15:09:50.000Z</time>
      </trkpt>
      <trkpt lat="40.239100" lon="-3.310955">
        <ele>588.998433</ele>
        <time>2021-10-27T15:09:52.000Z</time>
      </trkpt>
      <trkpt lat="40.239136" lon="-3.310860">
        <ele>590.199044</ele>
        <time>2021-10-27T15:09:57.000Z</time>
      </trkpt>
      <trkpt lat="40.239147" lon="-3.310820">
        <ele>590.680327</ele>
        <time>2021-10-27T15:09:59.000Z</time>
      </trkpt>
      <trkpt lat="40.239187" lon="-3.310753">
        <ele>591.643172</ele>
        <time>2021-10-27T15:10:03.000Z</time>
      </trkpt>
      <trkpt lat="40.239195" lon="-3.310735">
        <ele>591.878950</ele>
        <time>2021-10-27T15:10:04.000Z</time>
      </trkpt>
      <trkpt lat="40.239213" lon="-3.310640">
        <ele>592.986973</ele>
        <time>2021-10-27T15:10:09.000Z</time>
      </trkpt>
      <trkpt lat="40.239206" lon="-3.310559">
        <ele>593.909743</ele>
        <time>2021-10-27T15:10:13.000Z</time>
      </trkpt>
      <trkpt lat="40.239199" lon="-3.310540">
        <ele>594.148561</ele>
        <time>2021-10-27T15:10:14.000Z</time>
      </trkpt>
      <trkpt lat="40.239169" lon="-3.310469">
        <ele>595.067185</ele>
        <time>2021-10-27T15:10:18.000Z</time>
      </trkpt>
      <trkpt lat="40.239162" lon="-3.310451">
        <ele>595.295862</ele>
        <time>2021-10-27T15:10:19.000Z</time>
      </trkpt>
      <trkpt lat="40.239153" lon="-3.310434">
        <ele>595.530051</ele>
        <time>2021-10-27T15:10:20.000Z</time>
      </trkpt>
      <trkpt lat="40.239117" lon="-3.310374">
        <ele>596.393939</ele>
        <time>2021-10-27T15:10:24.000Z</time>
      </trkpt>
      <trkpt lat="40.239077" lon="-3.310351">
        <ele>597.041731</ele>
        <time>2021-10-27T15:10:27.000Z</time>
      </trkpt>
      <trkpt lat="40.239062" lon="-3.310350">
        <ele>597.264456</ele>
        <time>2021-10-27T15:10:28.000Z</time>
      </trkpt>
      <trkpt lat="40.239023" lon="-3.310345">
        <ele>597.845557</ele>
        <time>2021-10-27T15:10:31.000Z</time>
      </trkpt>
      <trkpt lat="40.238999" lon="-3.310345">
        <ele>598.201457</ele>
        <time>2021-10-27T15:10:33.000Z</time>
      </trkpt>
      <trkpt lat="40.238987" lon="-3.310353">
        <ele>598.401125</ele>
        <time>2021-10-27T15:10:34.000Z</time>
      </trkpt>
      <trkpt lat="40.238927" lon="-3.310379">
        <ele>599.338290</ele>
        <time>2021-10-27T15:10:39.000Z</time>
      </trkpt>
      <trkpt lat="40.238916" lon="-3.310372">
        <ele>599.519639</ele>
        <time>2021-10-27T15:10:40.000Z</time>
      </trkpt>
      <trkpt lat="40.238907" lon="-3.310361">
        <ele>599.702170</ele>
        <time>2021-10-27T15:10:41.000Z</time>
      </trkpt>
      <trkpt lat="40.238889" lon="-3.310338">
        <ele>600.075045</ele>
        <time>2021-10-27T15:10:43.000Z</time>
      </trkpt>
      <trkpt lat="40.238873" lon="-3.310295">
        <ele>600.616551</ele>
        <time>2021-10-27T15:10:46.000Z</time>
      </trkpt>
      <trkpt lat="40.238875" lon="-3.310282">
        <ele>600.766670</ele>
        <time>2021-10-27T15:10:47.000Z</time>
      </trkpt>
      <trkpt lat="40.238891" lon="-3.310248">
        <ele>601.218806</ele>
        <time>2021-10-27T15:10:49.000Z</time>
      </trkpt>
      <trkpt lat="40.238909" lon="-3.310215">
        <ele>601.677931</ele>
        <time>2021-10-27T15:10:51.000Z</time>
      </trkpt>
      <trkpt lat="40.238915" lon="-3.310196">
        <ele>601.910687</ele>
        <time>2021-10-27T15:10:52.000Z</time>
      </trkpt>
      <trkpt lat="40.238921" lon="-3.310179">
        <ele>602.122700</ele>
        <time>2021-10-27T15:10:53.000Z</time>
      </trkpt>
      <trkpt lat="40.238952" lon="-3.310073">
        <ele>603.407661</ele>
        <time>2021-10-27T15:10:59.000Z</time>
      </trkpt>
      <trkpt lat="40.238957" lon="-3.310056">
        <ele>603.613890</ele>
        <time>2021-10-27T15:11:00.000Z</time>
      </trkpt>
      <trkpt lat="40.238961" lon="-3.310036">
        <ele>603.847931</ele>
        <time>2021-10-27T15:11:01.000Z</time>
      </trkpt>
      <trkpt lat="40.238961" lon="-3.310017">
        <ele>604.063010</ele>
        <time>2021-10-27T15:11:02.000Z</time>
      </trkpt>
      <trkpt lat="40.238967" lon="-3.309982">
        <ele>604.469076</ele>
        <time>2021-10-27T15:11:04.000Z</time>
      </trkpt>
      <trkpt lat="40.238976" lon="-3.309893">
        <ele>605.485353</ele>
        <time>2021-10-27T15:11:09.000Z</time>
      </trkpt>
      <trkpt lat="40.238985" lon="-3.309837">
        <ele>606.133167</ele>
        <time>2021-10-27T15:11:12.000Z</time>
      </trkpt>
      <trkpt lat="40.238986" lon="-3.309818">
        <ele>606.348757</ele>
        <time>2021-10-27T15:11:13.000Z</time>
      </trkpt>
      <trkpt lat="40.238991" lon="-3.309724">
        <ele>607.415412</ele>
        <time>2021-10-27T15:11:18.000Z</time>
      </trkpt>
      <trkpt lat="40.238991" lon="-3.309688">
        <ele>607.822930</ele>
        <time>2021-10-27T15:11:20.000Z</time>
      </trkpt>
      <trkpt lat="40.238977" lon="-3.309621">
        <ele>608.609268</ele>
        <time>2021-10-27T15:11:24.000Z</time>
      </trkpt>
      <trkpt lat="40.238955" lon="-3.309580">
        <ele>609.176577</ele>
        <time>2021-10-27T15:11:27.000Z</time>
      </trkpt>
      <trkpt lat="40.238946" lon="-3.309567">
        <ele>609.375243</ele>
        <time>2021-10-27T15:11:28.000Z</time>
      </trkpt>
      <trkpt lat="40.238936" lon="-3.309558">
        <ele>609.555159</ele>
        <time>2021-10-27T15:11:29.000Z</time>
      </trkpt>
      <trkpt lat="40.238884" lon="-3.309541">
        <ele>610.349926</ele>
        <time>2021-10-27T15:11:33.000Z</time>
      </trkpt>
      <trkpt lat="40.238827" lon="-3.309594">
        <ele>611.581344</ele>
        <time>2021-10-27T15:11:38.000Z</time>
      </trkpt>
      <trkpt lat="40.238819" lon="-3.309608">
        <ele>611.826188</ele>
        <time>2021-10-27T15:11:39.000Z</time>
      </trkpt>
      <trkpt lat="40.238812" lon="-3.309618">
        <ele>612.016149</ele>
        <time>2021-10-27T15:11:40.000Z</time>
      </trkpt>
      <trkpt lat="40.238789" lon="-3.309630">
        <ele>612.470215</ele>
        <time>2021-10-27T15:11:42.000Z</time>
      </trkpt>
      <trkpt lat="40.238761" lon="-3.309638">
        <ele>612.995833</ele>
        <time>2021-10-27T15:11:44.000Z</time>
      </trkpt>
      <trkpt lat="40.238733" lon="-3.309649">
        <ele>613.531974</ele>
        <time>2021-10-27T15:11:46.000Z</time>
      </trkpt>
      <trkpt lat="40.238721" lon="-3.309651">
        <ele>613.753840</ele>
        <time>2021-10-27T15:11:47.000Z</time>
      </trkpt>
      <trkpt lat="40.238679" lon="-3.309651">
        <ele>614.524158</ele>
        <time>2021-10-27T15:11:50.000Z</time>
      </trkpt>
      <trkpt lat="40.238666" lon="-3.309653">
        <ele>614.764228</ele>
        <time>2021-10-27T15:11:51.000Z</time>
      </trkpt>
      <trkpt lat="40.238625" lon="-3.309652">
        <ele>615.516336</ele>
        <time>2021-10-27T15:11:54.000Z</time>
      </trkpt>
      <trkpt lat="40.238600" lon="-3.309634">
        <ele>616.039551</ele>
        <time>2021-10-27T15:11:56.000Z</time>
      </trkpt>
      <trkpt lat="40.238562" lon="-3.309599">
        <ele>616.891532</ele>
        <time>2021-10-27T15:11:59.000Z</time>
      </trkpt>
      <trkpt lat="40.238550" lon="-3.309586">
        <ele>617.177132</ele>
        <time>2021-10-27T15:12:00.000Z</time>
      </trkpt>
      <trkpt lat="40.238488" lon="-3.309499">
        <ele>618.843494</ele>
        <time>2021-10-27T15:12:06.000Z</time>
      </trkpt>
      <trkpt lat="40.238424" lon="-3.309424">
        <ele>620.418445</ele>
        <time>2021-10-27T15:12:12.000Z</time>
      </trkpt>
      <trkpt lat="40.238372" lon="-3.309396">
        <ele>621.449598</ele>
        <time>2021-10-27T15:12:16.000Z</time>
      </trkpt>
      <trkpt lat="40.238344" lon="-3.309397">
        <ele>621.963335</ele>
        <time>2021-10-27T15:12:18.000Z</time>
      </trkpt>
      <trkpt lat="40.238304" lon="-3.309409">
        <ele>622.715963</ele>
        <time>2021-10-27T15:12:21.000Z</time>
      </trkpt>
      <trkpt lat="40.238292" lon="-3.309418">
        <ele>622.969573</ele>
        <time>2021-10-27T15:12:22.000Z</time>
      </trkpt>
      <trkpt lat="40.238241" lon="-3.309445">
        <ele>623.978458</ele>
        <time>2021-10-27T15:12:26.000Z</time>
      </trkpt>
      <trkpt lat="40.238212" lon="-3.309458">
        <ele>624.540624</ele>
        <time>2021-10-27T15:12:28.000Z</time>
      </trkpt>
      <trkpt lat="40.238203" lon="-3.309474">
        <ele>624.818885</ele>
        <time>2021-10-27T15:12:29.000Z</time>
      </trkpt>
      <trkpt lat="40.238198" lon="-3.309490">
        <ele>625.060942</ele>
        <time>2021-10-27T15:12:30.000Z</time>
      </trkpt>
      <trkpt lat="40.238192" lon="-3.309503">
        <ele>625.273634</ele>
        <time>2021-10-27T15:12:31.000Z</time>
      </trkpt>
      <trkpt lat="40.238155" lon="-3.309526">
        <ele>626.024775</ele>
        <time>2021-10-27T15:12:34.000Z</time>
      </trkpt>
      <trkpt lat="40.238141" lon="-3.309531">
        <ele>626.290920</ele>
        <time>2021-10-27T15:12:35.000Z</time>
      </trkpt>
      <trkpt lat="40.238065" lon="-3.309563">
        <ele>627.755062</ele>
        <time>2021-10-27T15:12:41.000Z</time>
      </trkpt>
      <trkpt lat="40.238050" lon="-3.309566">
        <ele>628.033363</ele>
        <time>2021-10-27T15:12:42.000Z</time>
      </trkpt>
      <trkpt lat="40.238009" lon="-3.309569">
        <ele>628.786513</ele>
        <time>2021-10-27T15:12:45.000Z</time>
      </trkpt>
      <trkpt lat="40.237938" lon="-3.309552">
        <ele>630.110291</ele>
        <time>2021-10-27T15:12:50.000Z</time>
      </trkpt>
      <trkpt lat="40.237912" lon="-3.309542">
        <ele>630.607283</ele>
        <time>2021-10-27T15:12:52.000Z</time>
      </trkpt>
      <trkpt lat="40.237863" lon="-3.309514">
        <ele>631.587769</ele>
        <time>2021-10-27T15:12:56.000Z</time>
      </trkpt>
      <trkpt lat="40.237838" lon="-3.309499">
        <ele>632.092099</ele>
        <time>2021-10-27T15:12:58.000Z</time>
      </trkpt>
      <trkpt lat="40.237793" lon="-3.309463">
        <ele>633.059176</ele>
        <time>2021-10-27T15:13:02.000Z</time>
      </trkpt>
      <trkpt lat="40.237759" lon="-3.309435">
        <ele>633.795755</ele>
        <time>2021-10-27T15:13:05.000Z</time>
      </trkpt>
      <trkpt lat="40.237739" lon="-3.309418">
        <ele>634.233028</ele>
        <time>2021-10-27T15:13:07.000Z</time>
      </trkpt>
      <trkpt lat="40.237718" lon="-3.309400">
        <ele>634.693310</ele>
        <time>2021-10-27T15:13:09.000Z</time>
      </trkpt>
      <trkpt lat="40.237678" lon="-3.309365">
        <ele>635.575554</ele>
        <time>2021-10-27T15:13:13.000Z</time>
      </trkpt>
      <trkpt lat="40.237635" lon="-3.309313">
        <ele>636.648884</ele>
        <time>2021-10-27T15:13:18.000Z</time>
      </trkpt>
      <trkpt lat="40.237626" lon="-3.309302">
        <ele>636.874642</ele>
        <time>2021-10-27T15:13:19.000Z</time>
      </trkpt>
      <trkpt lat="40.237607" lon="-3.309282">
        <ele>637.321685</ele>
        <time>2021-10-27T15:13:21.000Z</time>
      </trkpt>
      <trkpt lat="40.237550" lon="-3.309234">
        <ele>638.564493</ele>
        <time>2021-10-27T15:13:27.000Z</time>
      </trkpt>
      <trkpt lat="40.237525" lon="-3.309204">
        <ele>639.186319</ele>
        <time>2021-10-27T15:13:30.000Z</time>
      </trkpt>
      <trkpt lat="40.237516" lon="-3.309193">
        <ele>639.412077</ele>
        <time>2021-10-27T15:13:31.000Z</time>
      </trkpt>
      <trkpt lat="40.237473" lon="-3.309144">
        <ele>640.457373</ele>
        <time>2021-10-27T15:13:36.000Z</time>
      </trkpt>
      <trkpt lat="40.237434" lon="-3.309087">
        <ele>641.529073</ele>
        <time>2021-10-27T15:13:41.000Z</time>
      </trkpt>
      <trkpt lat="40.237409" lon="-3.309057">
        <ele>642.150899</ele>
        <time>2021-10-27T15:13:44.000Z</time>
      </trkpt>
      <trkpt lat="40.237402" lon="-3.309043">
        <ele>642.385216</ele>
        <time>2021-10-27T15:13:45.000Z</time>
      </trkpt>
      <trkpt lat="40.237366" lon="-3.309005">
        <ele>643.233169</ele>
        <time>2021-10-27T15:13:49.000Z</time>
      </trkpt>
      <trkpt lat="40.237358" lon="-3.308997">
        <ele>643.417763</ele>
        <time>2021-10-27T15:13:50.000Z</time>
      </trkpt>
      <trkpt lat="40.237301" lon="-3.308946">
        <ele>644.679122</ele>
        <time>2021-10-27T15:13:56.000Z</time>
      </trkpt>
      <trkpt lat="40.237272" lon="-3.308925">
        <ele>645.284363</ele>
        <time>2021-10-27T15:13:59.000Z</time>
      </trkpt>
      <trkpt lat="40.237266" lon="-3.308913">
        <ele>645.484380</ele>
        <time>2021-10-27T15:14:00.000Z</time>
      </trkpt>
      <trkpt lat="40.237250" lon="-3.308872">
        <ele>646.126427</ele>
        <time>2021-10-27T15:14:03.000Z</time>
      </trkpt>
      <trkpt lat="40.237239" lon="-3.308868">
        <ele>646.334944</ele>
        <time>2021-10-27T15:14:04.000Z</time>
      </trkpt>
      <trkpt lat="40.237229" lon="-3.308864">
        <ele>646.525924</ele>
        <time>2021-10-27T15:14:05.000Z</time>
      </trkpt>
      <trkpt lat="40.237217" lon="-3.308847">
        <ele>646.848769</ele>
        <time>2021-10-27T15:14:07.000Z</time>
      </trkpt>
      <trkpt lat="40.237206" lon="-3.308819">
        <ele>647.287851</ele>
        <time>2021-10-27T15:14:09.000Z</time>
      </trkpt>
      <trkpt lat="40.237136" lon="-3.308732">
        <ele>649.050326</ele>
        <time>2021-10-27T15:14:17.000Z</time>
      </trkpt>
      <trkpt lat="40.237090" lon="-3.308674">
        <ele>650.216506</ele>
        <time>2021-10-27T15:14:22.000Z</time>
      </trkpt>
      <trkpt lat="40.237077" lon="-3.308667">
        <ele>650.473234</ele>
        <time>2021-10-27T15:14:23.000Z</time>
      </trkpt>
      <trkpt lat="40.237051" lon="-3.308663">
        <ele>650.951399</ele>
        <time>2021-10-27T15:14:25.000Z</time>
      </trkpt>
      <trkpt lat="40.236991" lon="-3.308675">
        <ele>652.060023</ele>
        <time>2021-10-27T15:14:30.000Z</time>
      </trkpt>
      <trkpt lat="40.236966" lon="-3.308680">
        <ele>652.521950</ele>
        <time>2021-10-27T15:14:32.000Z</time>
      </trkpt>
      <trkpt lat="40.236933" lon="-3.308704">
        <ele>653.211373</ele>
        <time>2021-10-27T15:14:35.000Z</time>
      </trkpt>
      <trkpt lat="40.236920" lon="-3.308733">
        <ele>653.680297</ele>
        <time>2021-10-27T15:14:37.000Z</time>
      </trkpt>
      <trkpt lat="40.236906" lon="-3.308757">
        <ele>654.101458</ele>
        <time>2021-10-27T15:14:39.000Z</time>
      </trkpt>
      <trkpt lat="40.236865" lon="-3.308794">
        <ele>655.010846</ele>
        <time>2021-10-27T15:14:43.000Z</time>
      </trkpt>
      <trkpt lat="40.236813" lon="-3.308831">
        <ele>656.091718</ele>
        <time>2021-10-27T15:14:48.000Z</time>
      </trkpt>
      <trkpt lat="40.236783" lon="-3.308855">
        <ele>656.733785</ele>
        <time>2021-10-27T15:14:51.000Z</time>
      </trkpt>
      <trkpt lat="40.236760" lon="-3.308870">
        <ele>657.203074</ele>
        <time>2021-10-27T15:14:53.000Z</time>
      </trkpt>
      <trkpt lat="40.236698" lon="-3.308909">
        <ele>658.459327</ele>
        <time>2021-10-27T15:14:58.000Z</time>
      </trkpt>
      <trkpt lat="40.236686" lon="-3.308919">
        <ele>658.719104</ele>
        <time>2021-10-27T15:14:59.000Z</time>
      </trkpt>
      <trkpt lat="40.236613" lon="-3.308966">
        <ele>660.204825</ele>
        <time>2021-10-27T15:15:05.000Z</time>
      </trkpt>
      <trkpt lat="40.236584" lon="-3.308972">
        <ele>660.741088</ele>
        <time>2021-10-27T15:15:07.000Z</time>
      </trkpt>
      <trkpt lat="40.236510" lon="-3.308951">
        <ele>662.124083</ele>
        <time>2021-10-27T15:15:13.000Z</time>
      </trkpt>
      <trkpt lat="40.236497" lon="-3.308947">
        <ele>662.367996</ele>
        <time>2021-10-27T15:15:14.000Z</time>
      </trkpt>
      <trkpt lat="40.236449" lon="-3.308949">
        <ele>663.245179</ele>
        <time>2021-10-27T15:15:18.000Z</time>
      </trkpt>
      <trkpt lat="40.236439" lon="-3.308943">
        <ele>663.446082</ele>
        <time>2021-10-27T15:15:19.000Z</time>
      </trkpt>
      <trkpt lat="40.236433" lon="-3.308932">
        <ele>663.634591</ele>
        <time>2021-10-27T15:15:20.000Z</time>
      </trkpt>
      <trkpt lat="40.236425" lon="-3.308918">
        <ele>663.878433</ele>
        <time>2021-10-27T15:15:21.000Z</time>
      </trkpt>
      <trkpt lat="40.236414" lon="-3.308908">
        <ele>664.122995</ele>
        <time>2021-10-27T15:15:22.000Z</time>
      </trkpt>
      <trkpt lat="40.236377" lon="-3.308868">
        <ele>664.999243</ele>
        <time>2021-10-27T15:15:26.000Z</time>
      </trkpt>
      <trkpt lat="40.236327" lon="-3.308784">
        <ele>666.484475</ele>
        <time>2021-10-27T15:15:32.000Z</time>
      </trkpt>
      <trkpt lat="40.236316" lon="-3.308770">
        <ele>666.764610</ele>
        <time>2021-10-27T15:15:33.000Z</time>
      </trkpt>
      <trkpt lat="40.236299" lon="-3.308744">
        <ele>667.241945</ele>
        <time>2021-10-27T15:15:35.000Z</time>
      </trkpt>
      <trkpt lat="40.236292" lon="-3.308728">
        <ele>667.499083</ele>
        <time>2021-10-27T15:15:36.000Z</time>
      </trkpt>
      <trkpt lat="40.236276" lon="-3.308701">
        <ele>667.975678</ele>
        <time>2021-10-27T15:15:38.000Z</time>
      </trkpt>
      <trkpt lat="40.236249" lon="-3.308662">
        <ele>668.709797</ele>
        <time>2021-10-27T15:15:41.000Z</time>
      </trkpt>
      <trkpt lat="40.236202" lon="-3.308599">
        <ele>669.938068</ele>
        <time>2021-10-27T15:15:46.000Z</time>
      </trkpt>
      <trkpt lat="40.236175" lon="-3.308561">
        <ele>670.661919</ele>
        <time>2021-10-27T15:15:49.000Z</time>
      </trkpt>
      <trkpt lat="40.236136" lon="-3.308515">
        <ele>671.620484</ele>
        <time>2021-10-27T15:15:53.000Z</time>
      </trkpt>
      <trkpt lat="40.236121" lon="-3.308493">
        <ele>672.031783</ele>
        <time>2021-10-27T15:15:55.000Z</time>
      </trkpt>
      <trkpt lat="40.236093" lon="-3.308423">
        <ele>673.133710</ele>
        <time>2021-10-27T15:16:00.000Z</time>
      </trkpt>
      <trkpt lat="40.236045" lon="-3.308375">
        <ele>674.236719</ele>
        <time>2021-10-27T15:16:05.000Z</time>
      </trkpt>
      <trkpt lat="40.236036" lon="-3.308370">
        <ele>674.415281</ele>
        <time>2021-10-27T15:16:06.000Z</time>
      </trkpt>
      <trkpt lat="40.236009" lon="-3.308353">
        <ele>674.962457</ele>
        <time>2021-10-27T15:16:09.000Z</time>
      </trkpt>
      <trkpt lat="40.235998" lon="-3.308345">
        <ele>675.192265</ele>
        <time>2021-10-27T15:16:10.000Z</time>
      </trkpt>
      <trkpt lat="40.235974" lon="-3.308347">
        <ele>675.631522</ele>
        <time>2021-10-27T15:16:12.000Z</time>
      </trkpt>
      <trkpt lat="40.235918" lon="-3.308377">
        <ele>676.710263</ele>
        <time>2021-10-27T15:16:17.000Z</time>
      </trkpt>
      <trkpt lat="40.235905" lon="-3.308400">
        <ele>677.077566</ele>
        <time>2021-10-27T15:16:19.000Z</time>
      </trkpt>
      <trkpt lat="40.235889" lon="-3.308431">
        <ele>677.557844</ele>
        <time>2021-10-27T15:16:22.000Z</time>
      </trkpt>
      <trkpt lat="40.235854" lon="-3.308440">
        <ele>678.157517</ele>
        <time>2021-10-27T15:16:25.000Z</time>
      </trkpt>
      <trkpt lat="40.235841" lon="-3.308441">
        <ele>678.376459</ele>
        <time>2021-10-27T15:16:26.000Z</time>
      </trkpt>
      <trkpt lat="40.235782" lon="-3.308417">
        <ele>679.415132</ele>
        <time>2021-10-27T15:16:31.000Z</time>
      </trkpt>
      <trkpt lat="40.235760" lon="-3.308410">
        <ele>679.795766</ele>
        <time>2021-10-27T15:16:33.000Z</time>
      </trkpt>
      <trkpt lat="40.235741" lon="-3.308372">
        <ele>680.378785</ele>
        <time>2021-10-27T15:16:36.000Z</time>
      </trkpt>
      <trkpt lat="40.235752" lon="-3.308283">
        <ele>681.535945</ele>
        <time>2021-10-27T15:16:41.000Z</time>
      </trkpt>
      <trkpt lat="40.235756" lon="-3.308266">
        <ele>681.764264</ele>
        <time>2021-10-27T15:16:42.000Z</time>
      </trkpt>
      <trkpt lat="40.235788" lon="-3.308147">
        <ele>683.383576</ele>
        <time>2021-10-27T15:16:49.000Z</time>
      </trkpt>
      <trkpt lat="40.235810" lon="-3.308062">
        <ele>684.535520</ele>
        <time>2021-10-27T15:16:54.000Z</time>
      </trkpt>
      <trkpt lat="40.235818" lon="-3.308029">
        <ele>684.979908</ele>
        <time>2021-10-27T15:16:56.000Z</time>
      </trkpt>
      <trkpt lat="40.235844" lon="-3.307974">
        <ele>685.810200</ele>
        <time>2021-10-27T15:17:00.000Z</time>
      </trkpt>
      <trkpt lat="40.235876" lon="-3.307936">
        <ele>686.536366</ele>
        <time>2021-10-27T15:17:03.000Z</time>
      </trkpt>
      <trkpt lat="40.235897" lon="-3.307912">
        <ele>687.004916</ele>
        <time>2021-10-27T15:17:05.000Z</time>
      </trkpt>
      <trkpt lat="40.235972" lon="-3.307842">
        <ele>688.553194</ele>
        <time>2021-10-27T15:17:12.000Z</time>
      </trkpt>
      <trkpt lat="40.236021" lon="-3.307791">
        <ele>689.605400</ele>
        <time>2021-10-27T15:17:17.000Z</time>
      </trkpt>
      <trkpt lat="40.236043" lon="-3.307772">
        <ele>690.048431</ele>
        <time>2021-10-27T15:17:19.000Z</time>
      </trkpt>
      <trkpt lat="40.236071" lon="-3.307734">
        <ele>690.726278</ele>
        <time>2021-10-27T15:17:22.000Z</time>
      </trkpt>
      <trkpt lat="40.236111" lon="-3.307665">
        <ele>691.838272</ele>
        <time>2021-10-27T15:17:27.000Z</time>
      </trkpt>
      <trkpt lat="40.236118" lon="-3.307651">
        <ele>692.053068</ele>
        <time>2021-10-27T15:17:28.000Z</time>
      </trkpt>
      <trkpt lat="40.236145" lon="-3.307595">
        <ele>692.903155</ele>
        <time>2021-10-27T15:17:32.000Z</time>
      </trkpt>
      <trkpt lat="40.236155" lon="-3.307549">
        <ele>693.517018</ele>
        <time>2021-10-27T15:17:35.000Z</time>
      </trkpt>
      <trkpt lat="40.236159" lon="-3.307535">
        <ele>693.708875</ele>
        <time>2021-10-27T15:17:36.000Z</time>
      </trkpt>
      <trkpt lat="40.236171" lon="-3.307435">
        <ele>695.008095</ele>
        <time>2021-10-27T15:17:42.000Z</time>
      </trkpt>
      <trkpt lat="40.236171" lon="-3.307400">
        <ele>695.457306</ele>
        <time>2021-10-27T15:17:44.000Z</time>
      </trkpt>
      <trkpt lat="40.236145" lon="-3.307313">
        <ele>696.656431</ele>
        <time>2021-10-27T15:17:50.000Z</time>
      </trkpt>
      <trkpt lat="40.236107" lon="-3.307261">
        <ele>697.580331</ele>
        <time>2021-10-27T15:17:55.000Z</time>
      </trkpt>
      <trkpt lat="40.236096" lon="-3.307256">
        <ele>697.776088</ele>
        <time>2021-10-27T15:17:56.000Z</time>
      </trkpt>
      <trkpt lat="40.236084" lon="-3.307254">
        <ele>697.979466</ele>
        <time>2021-10-27T15:17:57.000Z</time>
      </trkpt>
      <trkpt lat="40.236052" lon="-3.307244">
        <ele>698.532569</ele>
        <time>2021-10-27T15:18:00.000Z</time>
      </trkpt>
      <trkpt lat="40.236018" lon="-3.307242">
        <ele>699.104776</ele>
        <time>2021-10-27T15:18:03.000Z</time>
      </trkpt>
      <trkpt lat="40.235986" lon="-3.307226">
        <ele>699.680640</ele>
        <time>2021-10-27T15:18:06.000Z</time>
      </trkpt>
      <trkpt lat="40.235941" lon="-3.307215">
        <ele>700.450270</ele>
        <time>2021-10-27T15:18:10.000Z</time>
      </trkpt>
      <trkpt lat="40.235920" lon="-3.307198">
        <ele>700.865315</ele>
        <time>2021-10-27T15:18:12.000Z</time>
      </trkpt>
      <trkpt lat="40.235881" lon="-3.307166">
        <ele>701.639018</ele>
        <time>2021-10-27T15:18:16.000Z</time>
      </trkpt>
      <trkpt lat="40.235873" lon="-3.307155">
        <ele>701.834012</ele>
        <time>2021-10-27T15:18:17.000Z</time>
      </trkpt>
      <trkpt lat="40.235845" lon="-3.307127">
        <ele>702.426259</ele>
        <time>2021-10-27T15:18:20.000Z</time>
      </trkpt>
      <trkpt lat="40.235792" lon="-3.307083">
        <ele>703.481211</ele>
        <time>2021-10-27T15:18:25.000Z</time>
      </trkpt>
      <trkpt lat="40.235773" lon="-3.307065">
        <ele>703.875437</ele>
        <time>2021-10-27T15:18:27.000Z</time>
      </trkpt>
      <trkpt lat="40.235766" lon="-3.307057">
        <ele>704.031621</ele>
        <time>2021-10-27T15:18:28.000Z</time>
      </trkpt>
      <trkpt lat="40.235746" lon="-3.307022">
        <ele>704.592744</ele>
        <time>2021-10-27T15:18:31.000Z</time>
      </trkpt>
      <trkpt lat="40.235741" lon="-3.307006">
        <ele>704.814639</ele>
        <time>2021-10-27T15:18:32.000Z</time>
      </trkpt>
      <trkpt lat="40.235711" lon="-3.306930">
        <ele>705.912761</ele>
        <time>2021-10-27T15:18:37.000Z</time>
      </trkpt>
      <trkpt lat="40.235699" lon="-3.306904">
        <ele>706.302711</ele>
        <time>2021-10-27T15:18:39.000Z</time>
      </trkpt>
      <trkpt lat="40.235673" lon="-3.306866">
        <ele>706.902591</ele>
        <time>2021-10-27T15:18:42.000Z</time>
      </trkpt>
      <trkpt lat="40.235639" lon="-3.306812">
        <ele>707.642622</ele>
        <time>2021-10-27T15:18:46.000Z</time>
      </trkpt>
      <trkpt lat="40.235630" lon="-3.306800">
        <ele>707.820472</ele>
        <time>2021-10-27T15:18:47.000Z</time>
      </trkpt>
      <trkpt lat="40.235579" lon="-3.306682">
        <ele>709.254065</ele>
        <time>2021-10-27T15:18:55.000Z</time>
      </trkpt>
      <trkpt lat="40.235552" lon="-3.306560">
        <ele>710.596992</ele>
        <time>2021-10-27T15:19:02.000Z</time>
      </trkpt>
      <trkpt lat="40.235545" lon="-3.306524">
        <ele>710.989746</ele>
        <time>2021-10-27T15:19:04.000Z</time>
      </trkpt>
      <trkpt lat="40.235541" lon="-3.306452">
        <ele>711.752964</ele>
        <time>2021-10-27T15:19:08.000Z</time>
      </trkpt>
      <trkpt lat="40.235543" lon="-3.306378">
        <ele>712.535804</ele>
        <time>2021-10-27T15:19:12.000Z</time>
      </trkpt>
      <trkpt lat="40.235544" lon="-3.306341">
        <ele>712.927223</ele>
        <time>2021-10-27T15:19:14.000Z</time>
      </trkpt>
      <trkpt lat="40.235541" lon="-3.306269">
        <ele>713.689561</ele>
        <time>2021-10-27T15:19:18.000Z</time>
      </trkpt>
      <trkpt lat="40.235528" lon="-3.306219">
        <ele>714.247994</ele>
        <time>2021-10-27T15:19:21.000Z</time>
      </trkpt>
      <trkpt lat="40.235523" lon="-3.306165">
        <ele>714.823082</ele>
        <time>2021-10-27T15:19:24.000Z</time>
      </trkpt>
      <trkpt lat="40.235516" lon="-3.306060">
        <ele>715.937397</ele>
        <time>2021-10-27T15:19:30.000Z</time>
      </trkpt>
      <trkpt lat="40.235508" lon="-3.305974">
        <ele>716.853340</ele>
        <time>2021-10-27T15:19:35.000Z</time>
      </trkpt>
      <trkpt lat="40.235517" lon="-3.305925">
        <ele>717.386166</ele>
        <time>2021-10-27T15:19:38.000Z</time>
      </trkpt>
      <trkpt lat="40.235526" lon="-3.305887">
        <ele>717.806804</ele>
        <time>2021-10-27T15:19:40.000Z</time>
      </trkpt>
      <trkpt lat="40.235539" lon="-3.305814">
        <ele>718.599302</ele>
        <time>2021-10-27T15:19:44.000Z</time>
      </trkpt>
      <trkpt lat="40.235544" lon="-3.305798">
        <ele>718.782083</ele>
        <time>2021-10-27T15:19:45.000Z</time>
      </trkpt>
      <trkpt lat="40.235554" lon="-3.305767">
        <ele>719.137883</ele>
        <time>2021-10-27T15:19:47.000Z</time>
      </trkpt>
      <trkpt lat="40.235559" lon="-3.305737">
        <ele>719.462522</ele>
        <time>2021-10-27T15:19:49.000Z</time>
      </trkpt>
      <trkpt lat="40.235560" lon="-3.305692">
        <ele>719.938477</ele>
        <time>2021-10-27T15:19:52.000Z</time>
      </trkpt>
      <trkpt lat="40.235582" lon="-3.305609">
        <ele>720.867366</ele>
        <time>2021-10-27T15:19:57.000Z</time>
      </trkpt>
      <trkpt lat="40.235590" lon="-3.305538">
        <ele>721.626130</ele>
        <time>2021-10-27T15:20:01.000Z</time>
      </trkpt>
      <trkpt lat="40.235602" lon="-3.305508">
        <ele>721.984201</ele>
        <time>2021-10-27T15:20:03.000Z</time>
      </trkpt>
      <trkpt lat="40.235607" lon="-3.305417">
        <ele>722.948767</ele>
        <time>2021-10-27T15:20:09.000Z</time>
      </trkpt>
      <trkpt lat="40.235608" lon="-3.305401">
        <ele>723.118489</ele>
        <time>2021-10-27T15:20:10.000Z</time>
      </trkpt>
      <trkpt lat="40.235598" lon="-3.305354">
        <ele>723.634325</ele>
        <time>2021-10-27T15:20:13.000Z</time>
      </trkpt>
      <trkpt lat="40.235597" lon="-3.305338">
        <ele>723.804047</ele>
        <time>2021-10-27T15:20:14.000Z</time>
      </trkpt>
      <trkpt lat="40.235600" lon="-3.305303">
        <ele>724.176402</ele>
        <time>2021-10-27T15:20:16.000Z</time>
      </trkpt>
      <trkpt lat="40.235596" lon="-3.305267">
        <ele>724.561015</ele>
        <time>2021-10-27T15:20:18.000Z</time>
      </trkpt>
      <trkpt lat="40.235579" lon="-3.305177">
        <ele>725.541214</ele>
        <time>2021-10-27T15:20:23.000Z</time>
      </trkpt>
      <trkpt lat="40.235576" lon="-3.305158">
        <ele>725.746339</ele>
        <time>2021-10-27T15:20:24.000Z</time>
      </trkpt>
      <trkpt lat="40.235550" lon="-3.305067">
        <ele>726.773592</ele>
        <time>2021-10-27T15:20:29.000Z</time>
      </trkpt>
      <trkpt lat="40.235541" lon="-3.305030">
        <ele>727.184144</ele>
        <time>2021-10-27T15:20:31.000Z</time>
      </trkpt>
      <trkpt lat="40.235530" lon="-3.304993">
        <ele>727.603936</ele>
        <time>2021-10-27T15:20:33.000Z</time>
      </trkpt>
      <trkpt lat="40.235490" lon="-3.304878">
        <ele>728.940003</ele>
        <time>2021-10-27T15:20:39.000Z</time>
      </trkpt>
      <trkpt lat="40.235468" lon="-3.304813">
        <ele>729.691716</ele>
        <time>2021-10-27T15:20:42.000Z</time>
      </trkpt>
      <trkpt lat="40.235456" lon="-3.304744">
        <ele>730.439896</ele>
        <time>2021-10-27T15:20:45.000Z</time>
      </trkpt>
      <trkpt lat="40.235454" lon="-3.304643">
        <ele>731.508057</ele>
        <time>2021-10-27T15:20:49.000Z</time>
      </trkpt>
      <trkpt lat="40.235446" lon="-3.304472">
        <ele>732.840997</ele>
        <time>2021-10-27T15:20:55.000Z</time>
      </trkpt>
      <trkpt lat="40.235430" lon="-3.304381">
        <ele>733.560648</ele>
        <time>2021-10-27T15:20:58.000Z</time>
      </trkpt>
      <trkpt lat="40.235416" lon="-3.304324">
        <ele>734.022094</ele>
        <time>2021-10-27T15:21:00.000Z</time>
      </trkpt>
      <trkpt lat="40.235397" lon="-3.304177">
        <ele>735.171073</ele>
        <time>2021-10-27T15:21:05.000Z</time>
      </trkpt>
      <trkpt lat="40.235389" lon="-3.304012">
        <ele>736.445208</ele>
        <time>2021-10-27T15:21:10.000Z</time>
      </trkpt>
      <trkpt lat="40.235384" lon="-3.303918">
        <ele>737.171376</ele>
        <time>2021-10-27T15:21:13.000Z</time>
      </trkpt>
      <trkpt lat="40.235382" lon="-3.303888">
        <ele>737.403451</ele>
        <time>2021-10-27T15:21:14.000Z</time>
      </trkpt>
      <trkpt lat="40.235375" lon="-3.303773">
        <ele>738.292511</ele>
        <time>2021-10-27T15:21:18.000Z</time>
      </trkpt>
      <trkpt lat="40.235372" lon="-3.303730">
        <ele>738.625272</ele>
        <time>2021-10-27T15:21:20.000Z</time>
      </trkpt>
      <trkpt lat="40.235366" lon="-3.303688">
        <ele>738.954564</ele>
        <time>2021-10-27T15:21:22.000Z</time>
      </trkpt>
      <trkpt lat="40.235359" lon="-3.303597">
        <ele>739.659407</ele>
        <time>2021-10-27T15:21:26.000Z</time>
      </trkpt>
      <trkpt lat="40.235343" lon="-3.303506">
        <ele>740.379060</ele>
        <time>2021-10-27T15:21:30.000Z</time>
      </trkpt>
      <trkpt lat="40.235329" lon="-3.303433">
        <ele>740.959116</ele>
        <time>2021-10-27T15:21:33.000Z</time>
      </trkpt>
      <trkpt lat="40.235292" lon="-3.303278">
        <ele>742.210661</ele>
        <time>2021-10-27T15:21:39.000Z</time>
      </trkpt>
      <trkpt lat="40.235276" lon="-3.303226">
        <ele>742.642727</ele>
        <time>2021-10-27T15:21:41.000Z</time>
      </trkpt>
      <trkpt lat="40.235217" lon="-3.303060">
        <ele>744.053864</ele>
        <time>2021-10-27T15:21:48.000Z</time>
      </trkpt>
      <trkpt lat="40.235183" lon="-3.302969">
        <ele>744.834646</ele>
        <time>2021-10-27T15:21:52.000Z</time>
      </trkpt>
      <trkpt lat="40.235151" lon="-3.302881">
        <ele>745.585829</ele>
        <time>2021-10-27T15:21:56.000Z</time>
      </trkpt>
      <trkpt lat="40.235116" lon="-3.302795">
        <ele>746.336889</ele>
        <time>2021-10-27T15:22:00.000Z</time>
      </trkpt>
      <trkpt lat="40.235076" lon="-3.302710">
        <ele>747.106404</ele>
        <time>2021-10-27T15:22:04.000Z</time>
      </trkpt>
      <trkpt lat="40.235067" lon="-3.302690">
        <ele>747.285320</ele>
        <time>2021-10-27T15:22:05.000Z</time>
      </trkpt>
      <trkpt lat="40.235018" lon="-3.302591">
        <ele>748.194591</ele>
        <time>2021-10-27T15:22:10.000Z</time>
      </trkpt>
      <trkpt lat="40.234985" lon="-3.302520">
        <ele>748.835191</ele>
        <time>2021-10-27T15:22:14.000Z</time>
      </trkpt>
      <trkpt lat="40.234959" lon="-3.302468">
        <ele>749.314236</ele>
        <time>2021-10-27T15:22:17.000Z</time>
      </trkpt>
      <trkpt lat="40.234926" lon="-3.302401">
        <ele>749.860783</ele>
        <time>2021-10-27T15:22:21.000Z</time>
      </trkpt>
      <trkpt lat="40.234917" lon="-3.302384">
        <ele>749.970222</ele>
        <time>2021-10-27T15:22:22.000Z</time>
      </trkpt>
      <trkpt lat="40.234891" lon="-3.302338">
        <ele>750.273002</ele>
        <time>2021-10-27T15:22:25.000Z</time>
      </trkpt>
      <trkpt lat="40.234864" lon="-3.302268">
        <ele>750.687888</ele>
        <time>2021-10-27T15:22:29.000Z</time>
      </trkpt>
      <trkpt lat="40.234826" lon="-3.302177">
        <ele>751.236595</ele>
        <time>2021-10-27T15:22:34.000Z</time>
      </trkpt>
      <trkpt lat="40.234793" lon="-3.302110">
        <ele>751.658395</ele>
        <time>2021-10-27T15:22:38.000Z</time>
      </trkpt>
      <trkpt lat="40.234749" lon="-3.302023">
        <ele>752.210463</ele>
        <time>2021-10-27T15:22:43.000Z</time>
      </trkpt>
      <trkpt lat="40.234734" lon="-3.301986">
        <ele>752.432083</ele>
        <time>2021-10-27T15:22:45.000Z</time>
      </trkpt>
      <trkpt lat="40.234671" lon="-3.301870">
        <ele>753.185175</ele>
        <time>2021-10-27T15:22:51.000Z</time>
      </trkpt>
      <trkpt lat="40.234559" lon="-3.301713">
        <ele>754.321900</ele>
        <time>2021-10-27T15:22:59.000Z</time>
      </trkpt>
      <trkpt lat="40.234545" lon="-3.301692">
        <ele>754.469389</ele>
        <time>2021-10-27T15:23:00.000Z</time>
      </trkpt>
      <trkpt lat="40.234479" lon="-3.301585">
        <ele>755.197103</ele>
        <time>2021-10-27T15:23:05.000Z</time>
      </trkpt>
      <trkpt lat="40.234437" lon="-3.301481">
        <ele>755.819509</ele>
        <time>2021-10-27T15:23:09.000Z</time>
      </trkpt>
      <trkpt lat="40.234418" lon="-3.301422">
        <ele>756.158257</ele>
        <time>2021-10-27T15:23:11.000Z</time>
      </trkpt>
      <trkpt lat="40.234376" lon="-3.301305">
        <ele>756.842209</ele>
        <time>2021-10-27T15:23:15.000Z</time>
      </trkpt>
      <trkpt lat="40.234312" lon="-3.301166">
        <ele>757.700919</ele>
        <time>2021-10-27T15:23:20.000Z</time>
      </trkpt>
      <trkpt lat="40.234267" lon="-3.301054">
        <ele>758.370458</ele>
        <time>2021-10-27T15:23:24.000Z</time>
      </trkpt>
      <trkpt lat="40.234249" lon="-3.300996">
        <ele>758.701667</ele>
        <time>2021-10-27T15:23:26.000Z</time>
      </trkpt>
      <trkpt lat="40.234195" lon="-3.300835">
        <ele>759.631949</ele>
        <time>2021-10-27T15:23:31.000Z</time>
      </trkpt>
      <trkpt lat="40.234133" lon="-3.300666">
        <ele>760.623850</ele>
        <time>2021-10-27T15:23:36.000Z</time>
      </trkpt>
      <trkpt lat="40.234079" lon="-3.300529">
        <ele>761.439494</ele>
        <time>2021-10-27T15:23:40.000Z</time>
      </trkpt>
      <trkpt lat="40.233998" lon="-3.300282">
        <ele>762.313698</ele>
        <time>2021-10-27T15:23:47.000Z</time>
      </trkpt>
      <trkpt lat="40.233977" lon="-3.300160">
        <ele>762.446679</ele>
        <time>2021-10-27T15:23:50.000Z</time>
      </trkpt>
      <trkpt lat="40.233956" lon="-3.300077">
        <ele>762.539655</ele>
        <time>2021-10-27T15:23:52.000Z</time>
      </trkpt>
      <trkpt lat="40.233905" lon="-3.299859">
        <ele>762.782097</ele>
        <time>2021-10-27T15:23:57.000Z</time>
      </trkpt>
      <trkpt lat="40.233878" lon="-3.299727">
        <ele>762.927406</ele>
        <time>2021-10-27T15:24:00.000Z</time>
      </trkpt>
      <trkpt lat="40.233866" lon="-3.299685">
        <ele>762.975090</ele>
        <time>2021-10-27T15:24:01.000Z</time>
      </trkpt>
      <trkpt lat="40.233785" lon="-3.299389">
        <ele>763.309442</ele>
        <time>2021-10-27T15:24:08.000Z</time>
      </trkpt>
      <trkpt lat="40.233776" lon="-3.299345">
        <ele>763.357878</ele>
        <time>2021-10-27T15:24:09.000Z</time>
      </trkpt>
      <trkpt lat="40.233685" lon="-3.298998">
        <ele>763.748012</ele>
        <time>2021-10-27T15:24:17.000Z</time>
      </trkpt>
      <trkpt lat="40.233646" lon="-3.298868">
        <ele>763.896534</ele>
        <time>2021-10-27T15:24:20.000Z</time>
      </trkpt>
      <trkpt lat="40.233540" lon="-3.298563">
        <ele>764.252872</ele>
        <time>2021-10-27T15:24:27.000Z</time>
      </trkpt>
      <trkpt lat="40.233370" lon="-3.298111">
        <ele>764.614090</ele>
        <time>2021-10-27T15:24:36.000Z</time>
      </trkpt>
      <trkpt lat="40.233309" lon="-3.297879">
        <ele>764.451573</ele>
        <time>2021-10-27T15:24:40.000Z</time>
      </trkpt>
      <trkpt lat="40.233303" lon="-3.297813">
        <ele>764.407551</ele>
        <time>2021-10-27T15:24:41.000Z</time>
      </trkpt>
      <trkpt lat="40.233297" lon="-3.297453">
        <ele>764.169059</ele>
        <time>2021-10-27T15:24:46.000Z</time>
      </trkpt>
      <trkpt lat="40.233294" lon="-3.297376">
        <ele>764.117994</ele>
        <time>2021-10-27T15:24:47.000Z</time>
      </trkpt>
      <trkpt lat="40.233238" lon="-3.296999">
        <ele>763.863616</ele>
        <time>2021-10-27T15:24:52.000Z</time>
      </trkpt>
      <trkpt lat="40.233196" lon="-3.296764">
        <ele>763.703762</ele>
        <time>2021-10-27T15:24:55.000Z</time>
      </trkpt>
      <trkpt lat="40.233175" lon="-3.296432">
        <ele>763.483117</ele>
        <time>2021-10-27T15:24:59.000Z</time>
      </trkpt>
      <trkpt lat="40.233183" lon="-3.296108">
        <ele>763.268413</ele>
        <time>2021-10-27T15:25:03.000Z</time>
      </trkpt>
      <trkpt lat="40.233176" lon="-3.295494">
        <ele>763.489383</ele>
        <time>2021-10-27T15:25:11.000Z</time>
      </trkpt>
      <trkpt lat="40.233178" lon="-3.295418">
        <ele>763.561107</ele>
        <time>2021-10-27T15:25:12.000Z</time>
      </trkpt>
      <trkpt lat="40.233190" lon="-3.294830">
        <ele>764.115896</ele>
        <time>2021-10-27T15:25:20.000Z</time>
      </trkpt>
      <trkpt lat="40.233185" lon="-3.294759">
        <ele>764.183147</ele>
        <time>2021-10-27T15:25:21.000Z</time>
      </trkpt>
      <trkpt lat="40.233180" lon="-3.294689">
        <ele>764.249458</ele>
        <time>2021-10-27T15:25:22.000Z</time>
      </trkpt>
      <trkpt lat="40.233120" lon="-3.294229">
        <ele>764.689609</ele>
        <time>2021-10-27T15:25:29.000Z</time>
      </trkpt>
      <trkpt lat="40.233077" lon="-3.293989">
        <ele>764.922123</ele>
        <time>2021-10-27T15:25:33.000Z</time>
      </trkpt>
      <trkpt lat="40.233046" lon="-3.293813">
        <ele>765.092484</ele>
        <time>2021-10-27T15:25:36.000Z</time>
      </trkpt>
      <trkpt lat="40.232998" lon="-3.293584">
        <ele>765.316466</ele>
        <time>2021-10-27T15:25:40.000Z</time>
      </trkpt>
      <trkpt lat="40.232917" lon="-3.293236">
        <ele>765.466134</ele>
        <time>2021-10-27T15:25:46.000Z</time>
      </trkpt>
      <trkpt lat="40.232904" lon="-3.293175">
        <ele>765.489388</ele>
        <time>2021-10-27T15:25:47.000Z</time>
      </trkpt>
      <trkpt lat="40.232811" lon="-3.292600">
        <ele>765.705200</ele>
        <time>2021-10-27T15:25:56.000Z</time>
      </trkpt>
      <trkpt lat="40.232776" lon="-3.292075">
        <ele>765.898701</ele>
        <time>2021-10-27T15:26:04.000Z</time>
      </trkpt>
      <trkpt lat="40.232765" lon="-3.292011">
        <ele>765.922788</ele>
        <time>2021-10-27T15:26:05.000Z</time>
      </trkpt>
      <trkpt lat="40.232640" lon="-3.291529">
        <ele>766.109699</ele>
        <time>2021-10-27T15:26:13.000Z</time>
      </trkpt>
      <trkpt lat="40.232527" lon="-3.291004">
        <ele>765.854368</ele>
        <time>2021-10-27T15:26:21.000Z</time>
      </trkpt>
      <trkpt lat="40.232406" lon="-3.290317">
        <ele>764.958125</ele>
        <time>2021-10-27T15:26:30.000Z</time>
      </trkpt>
      <trkpt lat="40.232343" lon="-3.289922">
        <ele>764.445166</ele>
        <time>2021-10-27T15:26:35.000Z</time>
      </trkpt>
      <trkpt lat="40.232329" lon="-3.289843">
        <ele>764.342072</ele>
        <time>2021-10-27T15:26:36.000Z</time>
      </trkpt>
      <trkpt lat="40.232298" lon="-3.289688">
        <ele>764.138389</ele>
        <time>2021-10-27T15:26:38.000Z</time>
      </trkpt>
      <trkpt lat="40.232223" lon="-3.289377">
        <ele>763.723795</ele>
        <time>2021-10-27T15:26:42.000Z</time>
      </trkpt>
      <trkpt lat="40.232206" lon="-3.289296">
        <ele>763.617008</ele>
        <time>2021-10-27T15:26:43.000Z</time>
      </trkpt>
      <trkpt lat="40.232135" lon="-3.288878">
        <ele>763.152312</ele>
        <time>2021-10-27T15:26:48.000Z</time>
      </trkpt>
      <trkpt lat="40.232126" lon="-3.288793">
        <ele>763.105157</ele>
        <time>2021-10-27T15:26:49.000Z</time>
      </trkpt>
      <trkpt lat="40.232116" lon="-3.288620">
        <ele>763.009821</ele>
        <time>2021-10-27T15:26:51.000Z</time>
      </trkpt>
      <trkpt lat="40.232117" lon="-3.288022">
        <ele>762.681217</ele>
        <time>2021-10-27T15:26:58.000Z</time>
      </trkpt>
      <trkpt lat="40.232121" lon="-3.287942">
        <ele>762.637163</ele>
        <time>2021-10-27T15:26:59.000Z</time>
      </trkpt>
      <trkpt lat="40.232112" lon="-3.287421">
        <ele>762.350798</ele>
        <time>2021-10-27T15:27:06.000Z</time>
      </trkpt>
      <trkpt lat="40.232033" lon="-3.286952">
        <ele>762.086883</ele>
        <time>2021-10-27T15:27:13.000Z</time>
      </trkpt>
      <trkpt lat="40.231872" lon="-3.286410">
        <ele>761.944008</ele>
        <time>2021-10-27T15:27:20.000Z</time>
      </trkpt>
      <trkpt lat="40.231813" lon="-3.286247">
        <ele>761.960856</ele>
        <time>2021-10-27T15:27:22.000Z</time>
      </trkpt>
      <trkpt lat="40.231658" lon="-3.285830">
        <ele>762.004173</ele>
        <time>2021-10-27T15:27:27.000Z</time>
      </trkpt>
      <trkpt lat="40.231625" lon="-3.285747">
        <ele>762.012913</ele>
        <time>2021-10-27T15:27:28.000Z</time>
      </trkpt>
      <trkpt lat="40.231365" lon="-3.285140">
        <ele>762.077918</ele>
        <time>2021-10-27T15:27:36.000Z</time>
      </trkpt>
      <trkpt lat="40.231193" lon="-3.284703">
        <ele>762.123837</ele>
        <time>2021-10-27T15:27:43.000Z</time>
      </trkpt>
      <trkpt lat="40.231052" lon="-3.284393">
        <ele>761.957810</ele>
        <time>2021-10-27T15:27:49.000Z</time>
      </trkpt>
      <trkpt lat="40.231028" lon="-3.284345">
        <ele>761.907314</ele>
        <time>2021-10-27T15:27:50.000Z</time>
      </trkpt>
      <trkpt lat="40.230937" lon="-3.284156">
        <ele>761.710669</ele>
        <time>2021-10-27T15:27:54.000Z</time>
      </trkpt>
      <trkpt lat="40.230869" lon="-3.284024">
        <ele>761.570529</ele>
        <time>2021-10-27T15:27:57.000Z</time>
      </trkpt>
      <trkpt lat="40.230848" lon="-3.283982">
        <ele>761.526345</ele>
        <time>2021-10-27T15:27:58.000Z</time>
      </trkpt>
      <trkpt lat="40.230829" lon="-3.283941">
        <ele>761.484136</ele>
        <time>2021-10-27T15:27:59.000Z</time>
      </trkpt>
      <trkpt lat="40.230773" lon="-3.283811">
        <ele>761.352774</ele>
        <time>2021-10-27T15:28:03.000Z</time>
      </trkpt>
      <trkpt lat="40.230765" lon="-3.283798">
        <ele>761.338079</ele>
        <time>2021-10-27T15:28:06.000Z</time>
      </trkpt>
      <trkpt lat="40.230766" lon="-3.283800">
        <ele>761.335975</ele>
        <time>2021-10-27T15:28:07.000Z</time>
      </trkpt>
      <trkpt lat="40.230767" lon="-3.283805">
        <ele>761.331426</ele>
        <time>2021-10-27T15:28:18.000Z</time>
      </trkpt>
      <trkpt lat="40.230767" lon="-3.283805">
        <ele>761.331426</ele>
        <time>2021-10-27T15:28:23.000Z</time>
      </trkpt>
      <trkpt lat="40.230766" lon="-3.283807">
        <ele>761.329322</ele>
        <time>2021-10-27T15:28:31.000Z</time>
      </trkpt>
      <trkpt lat="40.230766" lon="-3.283807">
        <ele>761.329322</ele>
        <time>2021-10-27T15:28:37.000Z</time>
      </trkpt>
      <trkpt lat="40.230766" lon="-3.283807">
        <ele>761.329322</ele>
        <time>2021-10-27T15:28:41.000Z</time>
      </trkpt>
      <trkpt lat="40.230766" lon="-3.283807">
        <ele>761.329322</ele>
        <time>2021-10-27T15:28:42.000Z</time>
      </trkpt>
      <trkpt lat="40.230766" lon="-3.283807">
        <ele>761.329322</ele>
        <time>2021-10-27T15:28:43.000Z</time>
      </trkpt>
      <trkpt lat="40.230766" lon="-3.283807">
        <ele>761.329322</ele>
        <time>2021-10-27T15:28:48.000Z</time>
      </trkpt>
      <trkpt lat="40.230768" lon="-3.283814">
        <ele>761.322745</ele>
        <time>2021-10-27T15:28:52.000Z</time>
      </trkpt>
      <trkpt lat="40.230767" lon="-3.283812">
        <ele>761.320641</ele>
        <time>2021-10-27T15:29:01.000Z</time>
      </trkpt>
      <trkpt lat="40.230767" lon="-3.283812">
        <ele>761.320641</ele>
        <time>2021-10-27T15:29:02.000Z</time>
      </trkpt>
      <trkpt lat="40.230770" lon="-3.283811">
        <ele>761.317072</ele>
        <time>2021-10-27T15:29:05.000Z</time>
      </trkpt>
      <trkpt lat="40.230770" lon="-3.283811">
        <ele>761.317072</ele>
        <time>2021-10-27T15:29:06.000Z</time>
      </trkpt>
      <trkpt lat="40.230769" lon="-3.283811">
        <ele>761.315920</ele>
        <time>2021-10-27T15:29:07.000Z</time>
      </trkpt>
      <trkpt lat="40.230769" lon="-3.283811">
        <ele>761.315920</ele>
        <time>2021-10-27T15:29:09.000Z</time>
      </trkpt>
      <trkpt lat="40.230769" lon="-3.283807">
        <ele>761.312399</ele>
        <time>2021-10-27T15:29:11.000Z</time>
      </trkpt>
      <trkpt lat="40.230768" lon="-3.283787">
        <ele>761.294761</ele>
        <time>2021-10-27T15:29:16.000Z</time>
      </trkpt>
      <trkpt lat="40.230741" lon="-3.283738">
        <ele>761.241579</ele>
        <time>2021-10-27T15:29:18.000Z</time>
      </trkpt>
      <trkpt lat="40.230646" lon="-3.283674">
        <ele>761.118434</ele>
        <time>2021-10-27T15:29:21.000Z</time>
      </trkpt>
      <trkpt lat="40.230603" lon="-3.283658">
        <ele>761.066905</ele>
        <time>2021-10-27T15:29:22.000Z</time>
      </trkpt>
      <trkpt lat="40.230509" lon="-3.283621">
        <ele>760.953761</ele>
        <time>2021-10-27T15:29:24.000Z</time>
      </trkpt>
      <trkpt lat="40.230404" lon="-3.283573">
        <ele>760.825564</ele>
        <time>2021-10-27T15:29:26.000Z</time>
      </trkpt>
      <trkpt lat="40.230350" lon="-3.283541">
        <ele>760.757242</ele>
        <time>2021-10-27T15:29:27.000Z</time>
      </trkpt>
      <trkpt lat="40.230296" lon="-3.283510">
        <ele>760.689279</ele>
        <time>2021-10-27T15:29:28.000Z</time>
      </trkpt>
      <trkpt lat="40.230250" lon="-3.283478">
        <ele>760.629238</ele>
        <time>2021-10-27T15:29:29.000Z</time>
      </trkpt>
      <trkpt lat="40.230211" lon="-3.283448">
        <ele>760.577102</ele>
        <time>2021-10-27T15:29:30.000Z</time>
      </trkpt>
      <trkpt lat="40.230173" lon="-3.283427">
        <ele>760.529559</ele>
        <time>2021-10-27T15:29:31.000Z</time>
      </trkpt>
      <trkpt lat="40.230129" lon="-3.283413">
        <ele>760.477364</ele>
        <time>2021-10-27T15:29:32.000Z</time>
      </trkpt>
      <trkpt lat="40.230011" lon="-3.283395">
        <ele>760.340422</ele>
        <time>2021-10-27T15:29:34.000Z</time>
      </trkpt>
      <trkpt lat="40.229942" lon="-3.283395">
        <ele>760.260883</ele>
        <time>2021-10-27T15:29:35.000Z</time>
      </trkpt>
      <trkpt lat="40.229876" lon="-3.283407">
        <ele>760.184073</ele>
        <time>2021-10-27T15:29:36.000Z</time>
      </trkpt>
      <trkpt lat="40.229822" lon="-3.283424">
        <ele>760.120053</ele>
        <time>2021-10-27T15:29:37.000Z</time>
      </trkpt>
      <trkpt lat="40.229783" lon="-3.283438">
        <ele>760.073438</ele>
        <time>2021-10-27T15:29:38.000Z</time>
      </trkpt>
      <trkpt lat="40.229718" lon="-3.283465">
        <ele>760.322301</ele>
        <time>2021-10-27T15:29:41.000Z</time>
      </trkpt>
      <trkpt lat="40.229698" lon="-3.283480">
        <ele>760.419691</ele>
        <time>2021-10-27T15:29:42.000Z</time>
      </trkpt>
      <trkpt lat="40.229656" lon="-3.283518">
        <ele>760.635397</ele>
        <time>2021-10-27T15:29:44.000Z</time>
      </trkpt>
      <trkpt lat="40.229569" lon="-3.283577">
        <ele>761.049391</ele>
        <time>2021-10-27T15:29:48.000Z</time>
      </trkpt>
      <trkpt lat="40.229546" lon="-3.283589">
        <ele>761.154010</ele>
        <time>2021-10-27T15:29:49.000Z</time>
      </trkpt>
      <trkpt lat="40.229499" lon="-3.283610">
        <ele>761.363857</ele>
        <time>2021-10-27T15:29:51.000Z</time>
      </trkpt>
      <trkpt lat="40.229398" lon="-3.283594">
        <ele>761.793768</ele>
        <time>2021-10-27T15:29:55.000Z</time>
      </trkpt>
      <trkpt lat="40.229326" lon="-3.283550">
        <ele>762.129508</ele>
        <time>2021-10-27T15:29:58.000Z</time>
      </trkpt>
      <trkpt lat="40.229301" lon="-3.283533">
        <ele>762.248540</ele>
        <time>2021-10-27T15:29:59.000Z</time>
      </trkpt>
      <trkpt lat="40.229171" lon="-3.283485">
        <ele>762.819297</ele>
        <time>2021-10-27T15:30:04.000Z</time>
      </trkpt>
      <trkpt lat="40.229059" lon="-3.283461">
        <ele>763.298873</ele>
        <time>2021-10-27T15:30:08.000Z</time>
      </trkpt>
      <trkpt lat="40.229002" lon="-3.283446">
        <ele>763.544553</ele>
        <time>2021-10-27T15:30:10.000Z</time>
      </trkpt>
      <trkpt lat="40.228943" lon="-3.283431">
        <ele>763.798526</ele>
        <time>2021-10-27T15:30:12.000Z</time>
      </trkpt>
      <trkpt lat="40.228913" lon="-3.283428">
        <ele>763.925667</ele>
        <time>2021-10-27T15:30:13.000Z</time>
      </trkpt>
      <trkpt lat="40.228793" lon="-3.283401">
        <ele>764.440184</ele>
        <time>2021-10-27T15:30:17.000Z</time>
      </trkpt>
      <trkpt lat="40.228730" lon="-3.283386">
        <ele>764.710769</ele>
        <time>2021-10-27T15:30:19.000Z</time>
      </trkpt>
      <trkpt lat="40.228545" lon="-3.283351">
        <ele>765.500645</ele>
        <time>2021-10-27T15:30:25.000Z</time>
      </trkpt>
      <trkpt lat="40.228516" lon="-3.283343">
        <ele>765.625881</ele>
        <time>2021-10-27T15:30:26.000Z</time>
      </trkpt>
      <trkpt lat="40.228429" lon="-3.283310">
        <ele>766.008626</ele>
        <time>2021-10-27T15:30:29.000Z</time>
      </trkpt>
      <trkpt lat="40.228339" lon="-3.283290">
        <ele>766.394378</ele>
        <time>2021-10-27T15:30:32.000Z</time>
      </trkpt>
      <trkpt lat="40.228310" lon="-3.283282">
        <ele>766.519614</ele>
        <time>2021-10-27T15:30:33.000Z</time>
      </trkpt>
      <trkpt lat="40.228189" lon="-3.283251">
        <ele>767.040619</ele>
        <time>2021-10-27T15:30:37.000Z</time>
      </trkpt>
      <trkpt lat="40.228007" lon="-3.283214">
        <ele>767.627452</ele>
        <time>2021-10-27T15:30:43.000Z</time>
      </trkpt>
      <trkpt lat="40.227944" lon="-3.283197">
        <ele>767.559752</ele>
        <time>2021-10-27T15:30:45.000Z</time>
      </trkpt>
      <trkpt lat="40.227714" lon="-3.283142">
        <ele>767.313678</ele>
        <time>2021-10-27T15:30:52.000Z</time>
      </trkpt>
      <trkpt lat="40.227681" lon="-3.283134">
        <ele>767.278356</ele>
        <time>2021-10-27T15:30:53.000Z</time>
      </trkpt>
      <trkpt lat="40.227409" lon="-3.283068">
        <ele>766.987207</ele>
        <time>2021-10-27T15:31:01.000Z</time>
      </trkpt>
      <trkpt lat="40.227306" lon="-3.283044">
        <ele>766.877099</ele>
        <time>2021-10-27T15:31:04.000Z</time>
      </trkpt>
      <trkpt lat="40.227037" lon="-3.282986">
        <ele>766.590168</ele>
        <time>2021-10-27T15:31:11.000Z</time>
      </trkpt>
      <trkpt lat="40.226707" lon="-3.282918">
        <ele>766.238574</ele>
        <time>2021-10-27T15:31:18.000Z</time>
      </trkpt>
      <trkpt lat="40.226614" lon="-3.282933">
        <ele>766.139953</ele>
        <time>2021-10-27T15:31:20.000Z</time>
      </trkpt>
      <trkpt lat="40.226570" lon="-3.282957">
        <ele>766.089788</ele>
        <time>2021-10-27T15:31:21.000Z</time>
      </trkpt>
      <trkpt lat="40.226534" lon="-3.282984">
        <ele>766.046126</ele>
        <time>2021-10-27T15:31:22.000Z</time>
      </trkpt>
      <trkpt lat="40.226405" lon="-3.283095">
        <ele>765.883676</ele>
        <time>2021-10-27T15:31:26.000Z</time>
      </trkpt>
      <trkpt lat="40.226365" lon="-3.283116">
        <ele>765.838320</ele>
        <time>2021-10-27T15:31:27.000Z</time>
      </trkpt>
      <trkpt lat="40.226321" lon="-3.283126">
        <ele>765.791318</ele>
        <time>2021-10-27T15:31:28.000Z</time>
      </trkpt>
      <trkpt lat="40.226221" lon="-3.283131">
        <ele>765.407365</ele>
        <time>2021-10-27T15:31:30.000Z</time>
      </trkpt>
      <trkpt lat="40.226169" lon="-3.283121">
        <ele>765.174035</ele>
        <time>2021-10-27T15:31:31.000Z</time>
      </trkpt>
      <trkpt lat="40.226111" lon="-3.283095">
        <ele>764.901878</ele>
        <time>2021-10-27T15:31:32.000Z</time>
      </trkpt>
      <trkpt lat="40.225999" lon="-3.283014">
        <ele>764.333885</ele>
        <time>2021-10-27T15:31:34.000Z</time>
      </trkpt>
      <trkpt lat="40.225944" lon="-3.282973">
        <ele>764.052932</ele>
        <time>2021-10-27T15:31:35.000Z</time>
      </trkpt>
      <trkpt lat="40.225892" lon="-3.282934">
        <ele>763.786906</ele>
        <time>2021-10-27T15:31:36.000Z</time>
      </trkpt>
      <trkpt lat="40.225764" lon="-3.282811">
        <ele>763.082106</ele>
        <time>2021-10-27T15:31:39.000Z</time>
      </trkpt>
      <trkpt lat="40.225657" lon="-3.282568">
        <ele>762.131268</ele>
        <time>2021-10-27T15:31:43.000Z</time>
      </trkpt>
      <trkpt lat="40.225576" lon="-3.282472">
        <ele>761.646293</ele>
        <time>2021-10-27T15:31:45.000Z</time>
      </trkpt>
      <trkpt lat="40.225494" lon="-3.282392">
        <ele>761.192356</ele>
        <time>2021-10-27T15:31:47.000Z</time>
      </trkpt>
      <trkpt lat="40.225441" lon="-3.282295">
        <ele>760.788043</ele>
        <time>2021-10-27T15:31:49.000Z</time>
      </trkpt>
      <trkpt lat="40.225407" lon="-3.282201">
        <ele>760.435473</ele>
        <time>2021-10-27T15:31:51.000Z</time>
      </trkpt>
      <trkpt lat="40.225365" lon="-3.282114">
        <ele>760.086572</ele>
        <time>2021-10-27T15:31:53.000Z</time>
      </trkpt>
      <trkpt lat="40.225337" lon="-3.282073">
        <ele>759.900115</ele>
        <time>2021-10-27T15:31:54.000Z</time>
      </trkpt>
      <trkpt lat="40.225269" lon="-3.281991">
        <ele>759.489759</ele>
        <time>2021-10-27T15:31:56.000Z</time>
      </trkpt>
      <trkpt lat="40.225058" lon="-3.281699">
        <ele>758.126991</ele>
        <time>2021-10-27T15:32:02.000Z</time>
      </trkpt>
      <trkpt lat="40.225012" lon="-3.281646">
        <ele>757.854999</ele>
        <time>2021-10-27T15:32:03.000Z</time>
      </trkpt>
      <trkpt lat="40.224919" lon="-3.281535">
        <ele>756.214125</ele>
        <time>2021-10-27T15:32:05.000Z</time>
      </trkpt>
      <trkpt lat="40.224881" lon="-3.281486">
        <ele>755.455591</ele>
        <time>2021-10-27T15:32:06.000Z</time>
      </trkpt>
      <trkpt lat="40.224854" lon="-3.281436">
        <ele>754.790473</ele>
        <time>2021-10-27T15:32:07.000Z</time>
      </trkpt>
      <trkpt lat="40.224797" lon="-3.281316">
        <ele>753.255579</ele>
        <time>2021-10-27T15:32:09.000Z</time>
      </trkpt>
      <trkpt lat="40.224740" lon="-3.281238">
        <ele>752.082972</ele>
        <time>2021-10-27T15:32:11.000Z</time>
      </trkpt>
      <trkpt lat="40.224716" lon="-3.281227">
        <ele>751.721286</ele>
        <time>2021-10-27T15:32:12.000Z</time>
      </trkpt>
      <trkpt lat="40.224666" lon="-3.281258">
        <ele>750.934401</ele>
        <time>2021-10-27T15:32:14.000Z</time>
      </trkpt>
      <trkpt lat="40.224644" lon="-3.281279">
        <ele>750.547171</ele>
        <time>2021-10-27T15:32:15.000Z</time>
      </trkpt>
      <trkpt lat="40.224604" lon="-3.281306">
        <ele>749.907075</ele>
        <time>2021-10-27T15:32:17.000Z</time>
      </trkpt>
      <trkpt lat="40.224582" lon="-3.281307">
        <ele>749.593949</ele>
        <time>2021-10-27T15:32:18.000Z</time>
      </trkpt>
      <trkpt lat="40.224558" lon="-3.281296">
        <ele>749.232262</ele>
        <time>2021-10-27T15:32:19.000Z</time>
      </trkpt>
      <trkpt lat="40.224532" lon="-3.281267">
        <ele>748.746488</ele>
        <time>2021-10-27T15:32:20.000Z</time>
      </trkpt>
      <trkpt lat="40.224475" lon="-3.281178">
        <ele>747.484865</ele>
        <time>2021-10-27T15:32:22.000Z</time>
      </trkpt>
      <trkpt lat="40.224389" lon="-3.281106">
        <ele>746.032991</ele>
        <time>2021-10-27T15:32:24.000Z</time>
      </trkpt>
      <trkpt lat="40.224337" lon="-3.281084">
        <ele>745.255686</ele>
        <time>2021-10-27T15:32:25.000Z</time>
      </trkpt>
      <trkpt lat="40.224290" lon="-3.281064">
        <ele>744.552737</ele>
        <time>2021-10-27T15:32:26.000Z</time>
      </trkpt>
      <trkpt lat="40.224252" lon="-3.281038">
        <ele>743.942894</ele>
        <time>2021-10-27T15:32:27.000Z</time>
      </trkpt>
      <trkpt lat="40.224223" lon="-3.281008">
        <ele>743.417231</ele>
        <time>2021-10-27T15:32:28.000Z</time>
      </trkpt>
      <trkpt lat="40.224181" lon="-3.280928">
        <ele>742.362799</ele>
        <time>2021-10-27T15:32:30.000Z</time>
      </trkpt>
      <trkpt lat="40.224123" lon="-3.280873">
        <ele>741.344238</ele>
        <time>2021-10-27T15:32:32.000Z</time>
      </trkpt>
      <trkpt lat="40.224081" lon="-3.280863">
        <ele>740.737020</ele>
        <time>2021-10-27T15:32:33.000Z</time>
      </trkpt>
      <trkpt lat="40.223977" lon="-3.280862">
        <ele>739.257640</ele>
        <time>2021-10-27T15:32:35.000Z</time>
      </trkpt>
      <trkpt lat="40.223919" lon="-3.280865">
        <ele>738.431979</ele>
        <time>2021-10-27T15:32:36.000Z</time>
      </trkpt>
      <trkpt lat="40.223787" lon="-3.280878">
        <ele>736.549054</ele>
        <time>2021-10-27T15:32:38.000Z</time>
      </trkpt>
      <trkpt lat="40.223715" lon="-3.280883">
        <ele>735.523456</ele>
        <time>2021-10-27T15:32:39.000Z</time>
      </trkpt>
      <trkpt lat="40.223645" lon="-3.280887">
        <ele>734.526798</ele>
        <time>2021-10-27T15:32:40.000Z</time>
      </trkpt>
      <trkpt lat="40.223579" lon="-3.280893">
        <ele>733.585727</ele>
        <time>2021-10-27T15:32:41.000Z</time>
      </trkpt>
      <trkpt lat="40.223521" lon="-3.280899">
        <ele>732.758141</ele>
        <time>2021-10-27T15:32:42.000Z</time>
      </trkpt>
      <trkpt lat="40.223470" lon="-3.280899">
        <ele>732.067729</ele>
        <time>2021-10-27T15:32:43.000Z</time>
      </trkpt>
      <trkpt lat="40.223423" lon="-3.280895">
        <ele>731.535778</ele>
        <time>2021-10-27T15:32:44.000Z</time>
      </trkpt>
      <trkpt lat="40.223381" lon="-3.280890">
        <ele>731.059463</ele>
        <time>2021-10-27T15:32:45.000Z</time>
      </trkpt>
      <trkpt lat="40.223342" lon="-3.280884">
        <ele>730.615957</ele>
        <time>2021-10-27T15:32:46.000Z</time>
      </trkpt>
      <trkpt lat="40.223273" lon="-3.280889">
        <ele>729.835460</ele>
        <time>2021-10-27T15:32:48.000Z</time>
      </trkpt>
      <trkpt lat="40.223204" lon="-3.280913">
        <ele>729.029141</ele>
        <time>2021-10-27T15:32:50.000Z</time>
      </trkpt>
      <trkpt lat="40.223171" lon="-3.280936">
        <ele>728.606940</ele>
        <time>2021-10-27T15:32:51.000Z</time>
      </trkpt>
      <trkpt lat="40.223108" lon="-3.280990">
        <ele>727.756564</ele>
        <time>2021-10-27T15:32:53.000Z</time>
      </trkpt>
      <trkpt lat="40.223081" lon="-3.281000">
        <ele>727.439659</ele>
        <time>2021-10-27T15:32:54.000Z</time>
      </trkpt>
      <trkpt lat="40.223057" lon="-3.280996">
        <ele>727.166411</ele>
        <time>2021-10-27T15:32:55.000Z</time>
      </trkpt>
      <trkpt lat="40.223037" lon="-3.280978">
        <ele>726.892332</ele>
        <time>2021-10-27T15:32:56.000Z</time>
      </trkpt>
      <trkpt lat="40.223021" lon="-3.280952">
        <ele>726.604361</ele>
        <time>2021-10-27T15:32:57.000Z</time>
      </trkpt>
      <trkpt lat="40.223006" lon="-3.280919">
        <ele>726.273172</ele>
        <time>2021-10-27T15:32:58.000Z</time>
      </trkpt>
      <trkpt lat="40.222972" lon="-3.280837">
        <ele>725.468498</ele>
        <time>2021-10-27T15:33:00.000Z</time>
      </trkpt>
      <trkpt lat="40.222938" lon="-3.280739">
        <ele>724.540233</ele>
        <time>2021-10-27T15:33:02.000Z</time>
      </trkpt>
      <trkpt lat="40.222909" lon="-3.280628">
        <ele>723.528527</ele>
        <time>2021-10-27T15:33:04.000Z</time>
      </trkpt>
      <trkpt lat="40.222899" lon="-3.280570">
        <ele>723.015764</ele>
        <time>2021-10-27T15:33:05.000Z</time>
      </trkpt>
      <trkpt lat="40.222875" lon="-3.280461">
        <ele>722.037487</ele>
        <time>2021-10-27T15:33:07.000Z</time>
      </trkpt>
      <trkpt lat="40.222852" lon="-3.280414">
        <ele>721.556077</ele>
        <time>2021-10-27T15:33:08.000Z</time>
      </trkpt>
      <trkpt lat="40.222823" lon="-3.280359">
        <ele>720.979676</ele>
        <time>2021-10-27T15:33:09.000Z</time>
      </trkpt>
      <trkpt lat="40.222783" lon="-3.280300">
        <ele>720.299258</ele>
        <time>2021-10-27T15:33:10.000Z</time>
      </trkpt>
      <trkpt lat="40.222737" lon="-3.280246">
        <ele>719.601567</ele>
        <time>2021-10-27T15:33:11.000Z</time>
      </trkpt>
      <trkpt lat="40.222697" lon="-3.280196">
        <ele>718.977056</ele>
        <time>2021-10-27T15:33:12.000Z</time>
      </trkpt>
      <trkpt lat="40.222641" lon="-3.280092">
        <ele>717.879611</ele>
        <time>2021-10-27T15:33:14.000Z</time>
      </trkpt>
      <trkpt lat="40.222622" lon="-3.280037">
        <ele>717.359024</ele>
        <time>2021-10-27T15:33:15.000Z</time>
      </trkpt>
      <trkpt lat="40.222595" lon="-3.279934">
        <ele>716.419900</ele>
        <time>2021-10-27T15:33:17.000Z</time>
      </trkpt>
      <trkpt lat="40.222571" lon="-3.279736">
        <ele>714.691035</ele>
        <time>2021-10-27T15:33:21.000Z</time>
      </trkpt>
      <trkpt lat="40.222554" lon="-3.279525">
        <ele>712.861342</ele>
        <time>2021-10-27T15:33:26.000Z</time>
      </trkpt>
      <trkpt lat="40.222499" lon="-3.279384">
        <ele>712.091709</ele>
        <time>2021-10-27T15:33:30.000Z</time>
      </trkpt>
      <trkpt lat="40.222474" lon="-3.279311">
        <ele>712.449139</ele>
        <time>2021-10-27T15:33:32.000Z</time>
      </trkpt>
      <trkpt lat="40.222458" lon="-3.279179">
        <ele>713.046234</ele>
        <time>2021-10-27T15:33:36.000Z</time>
      </trkpt>
      <trkpt lat="40.222461" lon="-3.279118">
        <ele>713.319317</ele>
        <time>2021-10-27T15:33:38.000Z</time>
      </trkpt>
      <trkpt lat="40.222496" lon="-3.279008">
        <ele>713.851705</ele>
        <time>2021-10-27T15:33:42.000Z</time>
      </trkpt>
      <trkpt lat="40.222523" lon="-3.278962">
        <ele>714.110914</ele>
        <time>2021-10-27T15:33:44.000Z</time>
      </trkpt>
      <trkpt lat="40.222537" lon="-3.278945">
        <ele>714.222619</ele>
        <time>2021-10-27T15:33:45.000Z</time>
      </trkpt>
      <trkpt lat="40.222569" lon="-3.278917">
        <ele>714.447793</ele>
        <time>2021-10-27T15:33:47.000Z</time>
      </trkpt>
      <trkpt lat="40.222599" lon="-3.278890">
        <ele>714.660774</ele>
        <time>2021-10-27T15:33:49.000Z</time>
      </trkpt>
      <trkpt lat="40.222632" lon="-3.278871">
        <ele>714.871692</ele>
        <time>2021-10-27T15:33:51.000Z</time>
      </trkpt>
      <trkpt lat="40.222663" lon="-3.278860">
        <ele>715.059613</ele>
        <time>2021-10-27T15:33:53.000Z</time>
      </trkpt>
      <trkpt lat="40.222715" lon="-3.278811">
        <ele>715.434434</ele>
        <time>2021-10-27T15:33:57.000Z</time>
      </trkpt>
      <trkpt lat="40.222768" lon="-3.278722">
        <ele>715.938672</ele>
        <time>2021-10-27T15:34:02.000Z</time>
      </trkpt>
      <trkpt lat="40.222806" lon="-3.278633">
        <ele>716.394221</ele>
        <time>2021-10-27T15:34:06.000Z</time>
      </trkpt>
      <trkpt lat="40.222823" lon="-3.278574">
        <ele>716.675946</ele>
        <time>2021-10-27T15:34:08.000Z</time>
      </trkpt>
      <trkpt lat="40.222871" lon="-3.278349">
        <ele>717.719628</ele>
        <time>2021-10-27T15:34:15.000Z</time>
      </trkpt>
      <trkpt lat="40.222885" lon="-3.278214">
        <ele>718.328275</ele>
        <time>2021-10-27T15:34:18.000Z</time>
      </trkpt>
      <trkpt lat="40.222906" lon="-3.278120">
        <ele>718.765825</ele>
        <time>2021-10-27T15:34:20.000Z</time>
      </trkpt>
      <trkpt lat="40.222924" lon="-3.278072">
        <ele>719.004731</ele>
        <time>2021-10-27T15:34:21.000Z</time>
      </trkpt>
      <trkpt lat="40.222975" lon="-3.277927">
        <ele>719.717940</ele>
        <time>2021-10-27T15:34:24.000Z</time>
      </trkpt>
      <trkpt lat="40.222985" lon="-3.277835">
        <ele>720.133092</ele>
        <time>2021-10-27T15:34:26.000Z</time>
      </trkpt>
      <trkpt lat="40.222971" lon="-3.277700">
        <ele>720.741738</ele>
        <time>2021-10-27T15:34:30.000Z</time>
      </trkpt>
      <trkpt lat="40.222965" lon="-3.277673">
        <ele>720.867365</ele>
        <time>2021-10-27T15:34:31.000Z</time>
      </trkpt>
      <trkpt lat="40.222945" lon="-3.277570">
        <ele>721.342162</ele>
        <time>2021-10-27T15:34:35.000Z</time>
      </trkpt>
      <trkpt lat="40.222920" lon="-3.277468">
        <ele>721.820746</ele>
        <time>2021-10-27T15:34:39.000Z</time>
      </trkpt>
      <trkpt lat="40.222911" lon="-3.277427">
        <ele>722.011332</ele>
        <time>2021-10-27T15:34:41.000Z</time>
      </trkpt>
      <trkpt lat="40.222902" lon="-3.277345">
        <ele>722.381431</ele>
        <time>2021-10-27T15:34:45.000Z</time>
      </trkpt>
      <trkpt lat="40.222899" lon="-3.277297">
        <ele>722.610681</ele>
        <time>2021-10-27T15:34:47.000Z</time>
      </trkpt>
      <trkpt lat="40.222898" lon="-3.277221">
        <ele>722.976229</ele>
        <time>2021-10-27T15:34:50.000Z</time>
      </trkpt>
      <trkpt lat="40.222902" lon="-3.277116">
        <ele>723.481816</ele>
        <time>2021-10-27T15:34:54.000Z</time>
      </trkpt>
      <trkpt lat="40.222864" lon="-3.276883">
        <ele>724.627620</ele>
        <time>2021-10-27T15:35:01.000Z</time>
      </trkpt>
      <trkpt lat="40.222869" lon="-3.276777">
        <ele>725.138359</ele>
        <time>2021-10-27T15:35:04.000Z</time>
      </trkpt>
      <trkpt lat="40.222875" lon="-3.276700">
        <ele>725.510586</ele>
        <time>2021-10-27T15:35:06.000Z</time>
      </trkpt>
      <trkpt lat="40.222873" lon="-3.276415">
        <ele>726.881246</ele>
        <time>2021-10-27T15:35:13.000Z</time>
      </trkpt>
      <trkpt lat="40.222840" lon="-3.276262">
        <ele>727.645837</ele>
        <time>2021-10-27T15:35:18.000Z</time>
      </trkpt>
      <trkpt lat="40.222837" lon="-3.276237">
        <ele>727.767541</ele>
        <time>2021-10-27T15:35:19.000Z</time>
      </trkpt>
      <trkpt lat="40.222831" lon="-3.276144">
        <ele>728.216385</ele>
        <time>2021-10-27T15:35:23.000Z</time>
      </trkpt>
      <trkpt lat="40.222832" lon="-3.276049">
        <ele>728.673296</ele>
        <time>2021-10-27T15:35:27.000Z</time>
      </trkpt>
      <trkpt lat="40.222832" lon="-3.276024">
        <ele>728.793524</ele>
        <time>2021-10-27T15:35:28.000Z</time>
      </trkpt>
      <trkpt lat="40.222808" lon="-3.275927">
        <ele>729.283891</ele>
        <time>2021-10-27T15:35:32.000Z</time>
      </trkpt>
      <trkpt lat="40.222786" lon="-3.275878">
        <ele>729.557260</ele>
        <time>2021-10-27T15:35:34.000Z</time>
      </trkpt>
      <trkpt lat="40.222748" lon="-3.275762">
        <ele>730.164296</ele>
        <time>2021-10-27T15:35:38.000Z</time>
      </trkpt>
      <trkpt lat="40.222745" lon="-3.275689">
        <ele>730.515871</ele>
        <time>2021-10-27T15:35:40.000Z</time>
      </trkpt>
      <trkpt lat="40.222793" lon="-3.275471">
        <ele>731.606984</ele>
        <time>2021-10-27T15:35:45.000Z</time>
      </trkpt>
      <trkpt lat="40.222826" lon="-3.275129">
        <ele>733.264790</ele>
        <time>2021-10-27T15:35:53.000Z</time>
      </trkpt>
      <trkpt lat="40.222831" lon="-3.275051">
        <ele>733.641222</ele>
        <time>2021-10-27T15:35:56.000Z</time>
      </trkpt>
      <trkpt lat="40.222829" lon="-3.274982">
        <ele>734.048544</ele>
        <time>2021-10-27T15:35:59.000Z</time>
      </trkpt>
      <trkpt lat="40.222829" lon="-3.274960">
        <ele>734.188622</ele>
        <time>2021-10-27T15:36:00.000Z</time>
      </trkpt>
      <trkpt lat="40.222823" lon="-3.274845">
        <ele>734.922555</ele>
        <time>2021-10-27T15:36:05.000Z</time>
      </trkpt>
      <trkpt lat="40.222827" lon="-3.274799">
        <ele>735.217339</ele>
        <time>2021-10-27T15:36:07.000Z</time>
      </trkpt>
      <trkpt lat="40.222869" lon="-3.274718">
        <ele>735.840763</ele>
        <time>2021-10-27T15:36:11.000Z</time>
      </trkpt>
      <trkpt lat="40.222885" lon="-3.274702">
        <ele>736.008634</ele>
        <time>2021-10-27T15:36:12.000Z</time>
      </trkpt>
      <trkpt lat="40.222998" lon="-3.274600">
        <ele>737.153072</ele>
        <time>2021-10-27T15:36:19.000Z</time>
      </trkpt>
      <trkpt lat="40.223011" lon="-3.274582">
        <ele>737.310830</ele>
        <time>2021-10-27T15:36:20.000Z</time>
      </trkpt>
      <trkpt lat="40.223066" lon="-3.274447">
        <ele>738.285105</ele>
        <time>2021-10-27T15:36:26.000Z</time>
      </trkpt>
      <trkpt lat="40.223084" lon="-3.274216">
        <ele>739.763559</ele>
        <time>2021-10-27T15:36:34.000Z</time>
      </trkpt>
      <trkpt lat="40.223086" lon="-3.274188">
        <ele>739.942618</ele>
        <time>2021-10-27T15:36:35.000Z</time>
      </trkpt>
      <trkpt lat="40.223094" lon="-3.273932">
        <ele>741.573975</ele>
        <time>2021-10-27T15:36:44.000Z</time>
      </trkpt>
      <trkpt lat="40.223051" lon="-3.273703">
        <ele>743.075499</ele>
        <time>2021-10-27T15:36:52.000Z</time>
      </trkpt>
      <trkpt lat="40.223033" lon="-3.273682">
        <ele>743.276520</ele>
        <time>2021-10-27T15:36:53.000Z</time>
      </trkpt>
      <trkpt lat="40.222986" lon="-3.273665">
        <ele>743.683127</ele>
        <time>2021-10-27T15:36:55.000Z</time>
      </trkpt>
      <trkpt lat="40.222962" lon="-3.273675">
        <ele>743.893149</ele>
        <time>2021-10-27T15:36:56.000Z</time>
      </trkpt>
      <trkpt lat="40.222900" lon="-3.273798">
        <ele>744.831580</ele>
        <time>2021-10-27T15:37:01.000Z</time>
      </trkpt>
      <trkpt lat="40.222879" lon="-3.273876">
        <ele>745.358190</ele>
        <time>2021-10-27T15:37:04.000Z</time>
      </trkpt>
      <trkpt lat="40.222863" lon="-3.273957">
        <ele>745.890911</ele>
        <time>2021-10-27T15:37:08.000Z</time>
      </trkpt>
      <trkpt lat="40.222859" lon="-3.273974">
        <ele>746.004176</ele>
        <time>2021-10-27T15:37:09.000Z</time>
      </trkpt>
      <trkpt lat="40.222840" lon="-3.274048">
        <ele>746.501274</ele>
        <time>2021-10-27T15:37:13.000Z</time>
      </trkpt>
      <trkpt lat="40.222822" lon="-3.274108">
        <ele>746.911735</ele>
        <time>2021-10-27T15:37:16.000Z</time>
      </trkpt>
      <trkpt lat="40.222804" lon="-3.274138">
        <ele>747.154671</ele>
        <time>2021-10-27T15:37:18.000Z</time>
      </trkpt>
      <trkpt lat="40.222785" lon="-3.274165">
        <ele>747.388462</ele>
        <time>2021-10-27T15:37:20.000Z</time>
      </trkpt>
      <trkpt lat="40.222732" lon="-3.274220">
        <ele>747.952354</ele>
        <time>2021-10-27T15:37:25.000Z</time>
      </trkpt>
      <trkpt lat="40.222656" lon="-3.274259">
        <ele>748.633033</ele>
        <time>2021-10-27T15:37:30.000Z</time>
      </trkpt>
      <trkpt lat="40.222607" lon="-3.274272">
        <ele>749.167656</ele>
        <time>2021-10-27T15:37:33.000Z</time>
      </trkpt>
      <trkpt lat="40.222559" lon="-3.274261">
        <ele>749.728328</ele>
        <time>2021-10-27T15:37:36.000Z</time>
      </trkpt>
      <trkpt lat="40.222509" lon="-3.274242">
        <ele>750.327347</ele>
        <time>2021-10-27T15:37:39.000Z</time>
      </trkpt>
      <trkpt lat="40.222457" lon="-3.274223">
        <ele>750.948499</ele>
        <time>2021-10-27T15:37:42.000Z</time>
      </trkpt>
      <trkpt lat="40.222381" lon="-3.274174">
        <ele>751.923159</ele>
        <time>2021-10-27T15:37:47.000Z</time>
      </trkpt>
      <trkpt lat="40.222312" lon="-3.274135">
        <ele>752.787840</ele>
        <time>2021-10-27T15:37:51.000Z</time>
      </trkpt>
      <trkpt lat="40.222252" lon="-3.274111">
        <ele>753.509671</ele>
        <time>2021-10-27T15:37:54.000Z</time>
      </trkpt>
      <trkpt lat="40.222127" lon="-3.274129">
        <ele>754.956569</ele>
        <time>2021-10-27T15:38:01.000Z</time>
      </trkpt>
      <trkpt lat="40.222082" lon="-3.274142">
        <ele>755.486779</ele>
        <time>2021-10-27T15:38:05.000Z</time>
      </trkpt>
      <trkpt lat="40.222056" lon="-3.274150">
        <ele>755.794076</ele>
        <time>2021-10-27T15:38:07.000Z</time>
      </trkpt>
      <trkpt lat="40.222046" lon="-3.274158">
        <ele>755.928902</ele>
        <time>2021-10-27T15:38:08.000Z</time>
      </trkpt>
      <trkpt lat="40.221989" lon="-3.274223">
        <ele>756.798504</ele>
        <time>2021-10-27T15:38:14.000Z</time>
      </trkpt>
      <trkpt lat="40.221930" lon="-3.274286">
        <ele>757.674381</ele>
        <time>2021-10-27T15:38:20.000Z</time>
      </trkpt>
      <trkpt lat="40.221924" lon="-3.274300">
        <ele>757.815425</ele>
        <time>2021-10-27T15:38:21.000Z</time>
      </trkpt>
      <trkpt lat="40.221892" lon="-3.274364">
        <ele>758.487508</ele>
        <time>2021-10-27T15:38:25.000Z</time>
      </trkpt>
      <trkpt lat="40.221856" lon="-3.274422">
        <ele>759.144173</ele>
        <time>2021-10-27T15:38:29.000Z</time>
      </trkpt>
      <trkpt lat="40.221847" lon="-3.274437">
        <ele>759.311770</ele>
        <time>2021-10-27T15:38:30.000Z</time>
      </trkpt>
      <trkpt lat="40.221778" lon="-3.274584">
        <ele>760.827717</ele>
        <time>2021-10-27T15:38:38.000Z</time>
      </trkpt>
      <trkpt lat="40.221712" lon="-3.274696">
        <ele>762.070630</ele>
        <time>2021-10-27T15:38:45.000Z</time>
      </trkpt>
      <trkpt lat="40.221653" lon="-3.274783">
        <ele>763.092891</ele>
        <time>2021-10-27T15:38:51.000Z</time>
      </trkpt>
      <trkpt lat="40.221575" lon="-3.274845">
        <ele>764.142708</ele>
        <time>2021-10-27T15:38:57.000Z</time>
      </trkpt>
      <trkpt lat="40.221562" lon="-3.274856">
        <ele>764.320787</ele>
        <time>2021-10-27T15:38:58.000Z</time>
      </trkpt>
      <trkpt lat="40.221521" lon="-3.274885">
        <ele>764.856929</ele>
        <time>2021-10-27T15:39:01.000Z</time>
      </trkpt>
      <trkpt lat="40.221463" lon="-3.274919">
        <ele>765.588068</ele>
        <time>2021-10-27T15:39:05.000Z</time>
      </trkpt>
      <trkpt lat="40.221432" lon="-3.274939">
        <ele>765.985679</ele>
        <time>2021-10-27T15:39:07.000Z</time>
      </trkpt>
      <trkpt lat="40.221351" lon="-3.274959">
        <ele>766.934071</ele>
        <time>2021-10-27T15:39:12.000Z</time>
      </trkpt>
      <trkpt lat="40.221333" lon="-3.274962">
        <ele>767.142846</ele>
        <time>2021-10-27T15:39:13.000Z</time>
      </trkpt>
      <trkpt lat="40.221248" lon="-3.274955">
        <ele>768.122775</ele>
        <time>2021-10-27T15:39:18.000Z</time>
      </trkpt>
      <trkpt lat="40.221193" lon="-3.274942">
        <ele>768.765820</ele>
        <time>2021-10-27T15:39:21.000Z</time>
      </trkpt>
      <trkpt lat="40.221137" lon="-3.274934">
        <ele>769.413970</ele>
        <time>2021-10-27T15:39:24.000Z</time>
      </trkpt>
      <trkpt lat="40.221046" lon="-3.274920">
        <ele>769.719275</ele>
        <time>2021-10-27T15:39:29.000Z</time>
      </trkpt>
      <trkpt lat="40.220937" lon="-3.274899">
        <ele>770.068144</ele>
        <time>2021-10-27T15:39:34.000Z</time>
      </trkpt>
      <trkpt lat="40.220875" lon="-3.274884">
        <ele>770.267792</ele>
        <time>2021-10-27T15:39:37.000Z</time>
      </trkpt>
      <trkpt lat="40.220854" lon="-3.274878">
        <ele>770.335854</ele>
        <time>2021-10-27T15:39:38.000Z</time>
      </trkpt>
      <trkpt lat="40.220733" lon="-3.274839">
        <ele>770.730440</ele>
        <time>2021-10-27T15:39:44.000Z</time>
      </trkpt>
      <trkpt lat="40.220713" lon="-3.274833">
        <ele>770.795411</ele>
        <time>2021-10-27T15:39:45.000Z</time>
      </trkpt>
      <trkpt lat="40.220584" lon="-3.274795">
        <ele>771.214102</ele>
        <time>2021-10-27T15:39:51.000Z</time>
      </trkpt>
      <trkpt lat="40.220537" lon="-3.274801">
        <ele>771.363635</ele>
        <time>2021-10-27T15:39:53.000Z</time>
      </trkpt>
      <trkpt lat="40.220423" lon="-3.274859">
        <ele>771.750905</ele>
        <time>2021-10-27T15:39:58.000Z</time>
      </trkpt>
      <trkpt lat="40.220353" lon="-3.274917">
        <ele>772.013201</ele>
        <time>2021-10-27T15:40:01.000Z</time>
      </trkpt>
      <trkpt lat="40.220299" lon="-3.274990">
        <ele>772.258950</ele>
        <time>2021-10-27T15:40:04.000Z</time>
      </trkpt>
      <trkpt lat="40.220212" lon="-3.275144">
        <ele>772.722137</ele>
        <time>2021-10-27T15:40:09.000Z</time>
      </trkpt>
      <trkpt lat="40.220169" lon="-3.275202">
        <ele>772.917602</ele>
        <time>2021-10-27T15:40:11.000Z</time>
      </trkpt>
      <trkpt lat="40.220017" lon="-3.275358">
        <ele>773.529106</ele>
        <time>2021-10-27T15:40:17.000Z</time>
      </trkpt>
      <trkpt lat="40.219966" lon="-3.275410">
        <ele>773.733772</ele>
        <time>2021-10-27T15:40:19.000Z</time>
      </trkpt>
      <trkpt lat="40.219749" lon="-3.275661">
        <ele>774.650550</ele>
        <time>2021-10-27T15:40:27.000Z</time>
      </trkpt>
      <trkpt lat="40.219621" lon="-3.275773">
        <ele>775.121877</ele>
        <time>2021-10-27T15:40:31.000Z</time>
      </trkpt>
      <trkpt lat="40.219583" lon="-3.275806">
        <ele>774.960340</ele>
        <time>2021-10-27T15:40:32.000Z</time>
      </trkpt>
      <trkpt lat="40.219544" lon="-3.275844">
        <ele>774.788124</ele>
        <time>2021-10-27T15:40:33.000Z</time>
      </trkpt>
      <trkpt lat="40.219468" lon="-3.275936">
        <ele>774.421465</ele>
        <time>2021-10-27T15:40:35.000Z</time>
      </trkpt>
      <trkpt lat="40.219387" lon="-3.276039">
        <ele>774.021478</ele>
        <time>2021-10-27T15:40:37.000Z</time>
      </trkpt>
      <trkpt lat="40.219345" lon="-3.276091">
        <ele>773.816711</ele>
        <time>2021-10-27T15:40:38.000Z</time>
      </trkpt>
      <trkpt lat="40.219210" lon="-3.276249">
        <ele>773.175271</ele>
        <time>2021-10-27T15:40:41.000Z</time>
      </trkpt>
      <trkpt lat="40.219125" lon="-3.276371">
        <ele>772.728494</ele>
        <time>2021-10-27T15:40:43.000Z</time>
      </trkpt>
      <trkpt lat="40.219083" lon="-3.276433">
        <ele>772.504279</ele>
        <time>2021-10-27T15:40:44.000Z</time>
      </trkpt>
      <trkpt lat="40.218964" lon="-3.276624">
        <ele>771.837405</ele>
        <time>2021-10-27T15:40:47.000Z</time>
      </trkpt>
      <trkpt lat="40.218871" lon="-3.276738">
        <ele>771.386109</ele>
        <time>2021-10-27T15:40:49.000Z</time>
      </trkpt>
      <trkpt lat="40.218812" lon="-3.276777">
        <ele>771.151966</ele>
        <time>2021-10-27T15:40:50.000Z</time>
      </trkpt>
      <trkpt lat="40.218748" lon="-3.276796">
        <ele>770.919472</ele>
        <time>2021-10-27T15:40:51.000Z</time>
      </trkpt>
      <trkpt lat="40.218613" lon="-3.276796">
        <ele>770.441191</ele>
        <time>2021-10-27T15:40:53.000Z</time>
      </trkpt>
      <trkpt lat="40.218542" lon="-3.276800">
        <ele>770.189419</ele>
        <time>2021-10-27T15:40:54.000Z</time>
      </trkpt>
      <trkpt lat="40.218474" lon="-3.276811">
        <ele>769.946676</ele>
        <time>2021-10-27T15:40:55.000Z</time>
      </trkpt>
      <trkpt lat="40.218277" lon="-3.276876">
        <ele>769.226930</ele>
        <time>2021-10-27T15:40:58.000Z</time>
      </trkpt>
      <trkpt lat="40.217855" lon="-3.276983">
        <ele>769.220132</ele>
        <time>2021-10-27T15:41:05.000Z</time>
      </trkpt>
      <trkpt lat="40.217597" lon="-3.276978">
        <ele>769.620825</ele>
        <time>2021-10-27T15:41:10.000Z</time>
      </trkpt>
      <trkpt lat="40.217549" lon="-3.276981">
        <ele>769.695449</ele>
        <time>2021-10-27T15:41:11.000Z</time>
      </trkpt>
      <trkpt lat="40.217502" lon="-3.276990">
        <ele>769.769212</ele>
        <time>2021-10-27T15:41:12.000Z</time>
      </trkpt>
      <trkpt lat="40.217458" lon="-3.276996">
        <ele>769.837909</ele>
        <time>2021-10-27T15:41:13.000Z</time>
      </trkpt>
      <trkpt lat="40.217420" lon="-3.276991">
        <ele>769.897216</ele>
        <time>2021-10-27T15:41:14.000Z</time>
      </trkpt>
      <trkpt lat="40.217396" lon="-3.276977">
        <ele>769.938016</ele>
        <time>2021-10-27T15:41:15.000Z</time>
      </trkpt>
      <trkpt lat="40.217379" lon="-3.276920">
        <ele>770.010579</ele>
        <time>2021-10-27T15:41:17.000Z</time>
      </trkpt>
      <trkpt lat="40.217385" lon="-3.276879">
        <ele>770.060082</ele>
        <time>2021-10-27T15:41:18.000Z</time>
      </trkpt>
      <trkpt lat="40.217404" lon="-3.276786">
        <ele>770.174240</ele>
        <time>2021-10-27T15:41:20.000Z</time>
      </trkpt>
      <trkpt lat="40.217419" lon="-3.276571">
        <ele>770.430248</ele>
        <time>2021-10-27T15:41:24.000Z</time>
      </trkpt>
      <trkpt lat="40.217429" lon="-3.276459">
        <ele>770.563962</ele>
        <time>2021-10-27T15:41:26.000Z</time>
      </trkpt>
      <trkpt lat="40.217477" lon="-3.276237">
        <ele>770.837558</ele>
        <time>2021-10-27T15:41:30.000Z</time>
      </trkpt>
      <trkpt lat="40.217581" lon="-3.275843">
        <ele>771.331887</ele>
        <time>2021-10-27T15:41:37.000Z</time>
      </trkpt>
      <trkpt lat="40.217634" lon="-3.275612">
        <ele>771.631402</ele>
        <time>2021-10-27T15:41:41.000Z</time>
      </trkpt>
      <trkpt lat="40.217682" lon="-3.275383">
        <ele>771.970018</ele>
        <time>2021-10-27T15:41:45.000Z</time>
      </trkpt>
      <trkpt lat="40.217698" lon="-3.275203">
        <ele>772.228417</ele>
        <time>2021-10-27T15:41:48.000Z</time>
      </trkpt>
      <trkpt lat="40.217696" lon="-3.275142">
        <ele>772.315479</ele>
        <time>2021-10-27T15:41:49.000Z</time>
      </trkpt>
      <trkpt lat="40.217690" lon="-3.275083">
        <ele>772.400351</ele>
        <time>2021-10-27T15:41:50.000Z</time>
      </trkpt>
      <trkpt lat="40.217659" lon="-3.274970">
        <ele>772.571564</ele>
        <time>2021-10-27T15:41:52.000Z</time>
      </trkpt>
      <trkpt lat="40.217636" lon="-3.274914">
        <ele>772.662234</ele>
        <time>2021-10-27T15:41:53.000Z</time>
      </trkpt>
      <trkpt lat="40.217452" lon="-3.274493">
        <ele>773.353926</ele>
        <time>2021-10-27T15:42:00.000Z</time>
      </trkpt>
      <trkpt lat="40.217271" lon="-3.274098">
        <ele>774.010800</ele>
        <time>2021-10-27T15:42:06.000Z</time>
      </trkpt>
      <trkpt lat="40.217162" lon="-3.273726">
        <ele>774.578959</ele>
        <time>2021-10-27T15:42:12.000Z</time>
      </trkpt>
      <trkpt lat="40.217145" lon="-3.273669">
        <ele>774.666217</ele>
        <time>2021-10-27T15:42:13.000Z</time>
      </trkpt>
      <trkpt lat="40.217125" lon="-3.273615">
        <ele>774.751796</ele>
        <time>2021-10-27T15:42:14.000Z</time>
      </trkpt>
      <trkpt lat="40.217048" lon="-3.273417">
        <ele>775.060592</ele>
        <time>2021-10-27T15:42:18.000Z</time>
      </trkpt>
      <trkpt lat="40.217032" lon="-3.273368">
        <ele>775.132729</ele>
        <time>2021-10-27T15:42:19.000Z</time>
      </trkpt>
      <trkpt lat="40.217000" lon="-3.273229">
        <ele>775.329246</ele>
        <time>2021-10-27T15:42:22.000Z</time>
      </trkpt>
      <trkpt lat="40.216973" lon="-3.273135">
        <ele>775.465191</ele>
        <time>2021-10-27T15:42:24.000Z</time>
      </trkpt>
      <trkpt lat="40.216953" lon="-3.273090">
        <ele>775.535670</ele>
        <time>2021-10-27T15:42:25.000Z</time>
      </trkpt>
      <trkpt lat="40.216928" lon="-3.273049">
        <ele>775.606691</ele>
        <time>2021-10-27T15:42:26.000Z</time>
      </trkpt>
      <trkpt lat="40.216771" lon="-3.272797">
        <ele>776.046934</ele>
        <time>2021-10-27T15:42:32.000Z</time>
      </trkpt>
      <trkpt lat="40.216650" lon="-3.272638">
        <ele>776.350792</ele>
        <time>2021-10-27T15:42:36.000Z</time>
      </trkpt>
      <trkpt lat="40.216617" lon="-3.272599">
        <ele>776.429589</ele>
        <time>2021-10-27T15:42:37.000Z</time>
      </trkpt>
      <trkpt lat="40.216581" lon="-3.272560">
        <ele>776.512411</ele>
        <time>2021-10-27T15:42:38.000Z</time>
      </trkpt>
      <trkpt lat="40.216443" lon="-3.272381">
        <ele>776.856725</ele>
        <time>2021-10-27T15:42:42.000Z</time>
      </trkpt>
      <trkpt lat="40.216336" lon="-3.272243">
        <ele>777.122942</ele>
        <time>2021-10-27T15:42:45.000Z</time>
      </trkpt>
      <trkpt lat="40.216010" lon="-3.271770">
        <ele>777.985439</ele>
        <time>2021-10-27T15:42:54.000Z</time>
      </trkpt>
      <trkpt lat="40.215935" lon="-3.271669">
        <ele>778.157580</ele>
        <time>2021-10-27T15:42:56.000Z</time>
      </trkpt>
      <trkpt lat="40.215670" lon="-3.271319">
        <ele>778.665484</ele>
        <time>2021-10-27T15:43:03.000Z</time>
      </trkpt>
      <trkpt lat="40.215596" lon="-3.271216">
        <ele>778.811216</ele>
        <time>2021-10-27T15:43:05.000Z</time>
      </trkpt>
      <trkpt lat="40.215454" lon="-3.271019">
        <ele>779.090378</ele>
        <time>2021-10-27T15:43:09.000Z</time>
      </trkpt>
      <trkpt lat="40.215195" lon="-3.270655">
        <ele>779.603075</ele>
        <time>2021-10-27T15:43:17.000Z</time>
      </trkpt>
      <trkpt lat="40.215116" lon="-3.270589">
        <ele>779.729530</ele>
        <time>2021-10-27T15:43:19.000Z</time>
      </trkpt>
      <trkpt lat="40.214985" lon="-3.270525">
        <ele>779.918213</ele>
        <time>2021-10-27T15:43:22.000Z</time>
      </trkpt>
      <trkpt lat="40.214901" lon="-3.270485">
        <ele>780.038830</ele>
        <time>2021-10-27T15:43:24.000Z</time>
      </trkpt>
      <trkpt lat="40.214800" lon="-3.270390">
        <ele>780.206641</ele>
        <time>2021-10-27T15:43:27.000Z</time>
      </trkpt>
      <trkpt lat="40.214769" lon="-3.270353">
        <ele>780.263244</ele>
        <time>2021-10-27T15:43:28.000Z</time>
      </trkpt>
      <trkpt lat="40.214634" lon="-3.270191">
        <ele>780.510343</ele>
        <time>2021-10-27T15:43:32.000Z</time>
      </trkpt>
      <trkpt lat="40.214493" lon="-3.270020">
        <ele>779.556716</ele>
        <time>2021-10-27T15:43:36.000Z</time>
      </trkpt>
      <trkpt lat="40.214378" lon="-3.269832">
        <ele>778.571330</ele>
        <time>2021-10-27T15:43:40.000Z</time>
      </trkpt>
      <trkpt lat="40.214334" lon="-3.269704">
        <ele>777.997103</ele>
        <time>2021-10-27T15:43:42.000Z</time>
      </trkpt>
      <trkpt lat="40.214313" lon="-3.269628">
        <ele>777.666476</ele>
        <time>2021-10-27T15:43:43.000Z</time>
      </trkpt>
      <trkpt lat="40.214273" lon="-3.269461">
        <ele>776.950497</ele>
        <time>2021-10-27T15:43:45.000Z</time>
      </trkpt>
      <trkpt lat="40.214226" lon="-3.269284">
        <ele>776.183901</ele>
        <time>2021-10-27T15:43:47.000Z</time>
      </trkpt>
      <trkpt lat="40.214145" lon="-3.268973">
        <ele>774.839702</ele>
        <time>2021-10-27T15:43:50.000Z</time>
      </trkpt>
      <trkpt lat="40.214122" lon="-3.268855">
        <ele>774.341512</ele>
        <time>2021-10-27T15:43:51.000Z</time>
      </trkpt>
      <trkpt lat="40.214103" lon="-3.268733">
        <ele>773.832161</ele>
        <time>2021-10-27T15:43:52.000Z</time>
      </trkpt>
      <trkpt lat="40.214084" lon="-3.268609">
        <ele>773.314791</ele>
        <time>2021-10-27T15:43:53.000Z</time>
      </trkpt>
      <trkpt lat="40.214056" lon="-3.268489">
        <ele>772.801490</ele>
        <time>2021-10-27T15:43:54.000Z</time>
      </trkpt>
      <trkpt lat="40.214017" lon="-3.268375">
        <ele>772.290479</ele>
        <time>2021-10-27T15:43:55.000Z</time>
      </trkpt>
      <trkpt lat="40.213934" lon="-3.268156">
        <ele>771.290325</ele>
        <time>2021-10-27T15:43:57.000Z</time>
      </trkpt>
      <trkpt lat="40.213816" lon="-3.267846">
        <ele>770.050537</ele>
        <time>2021-10-27T15:44:00.000Z</time>
      </trkpt>
      <trkpt lat="40.213775" lon="-3.267757">
        <ele>769.699418</ele>
        <time>2021-10-27T15:44:01.000Z</time>
      </trkpt>
      <trkpt lat="40.213697" lon="-3.267589">
        <ele>769.035239</ele>
        <time>2021-10-27T15:44:03.000Z</time>
      </trkpt>
      <trkpt lat="40.213601" lon="-3.267306">
        <ele>767.989161</ele>
        <time>2021-10-27T15:44:06.000Z</time>
      </trkpt>
      <trkpt lat="40.213538" lon="-3.267102">
        <ele>767.245811</ele>
        <time>2021-10-27T15:44:08.000Z</time>
      </trkpt>
      <trkpt lat="40.213505" lon="-3.266998">
        <ele>766.865368</ele>
        <time>2021-10-27T15:44:09.000Z</time>
      </trkpt>
      <trkpt lat="40.213471" lon="-3.266891">
        <ele>766.473868</ele>
        <time>2021-10-27T15:44:10.000Z</time>
      </trkpt>
      <trkpt lat="40.213437" lon="-3.266785">
        <ele>766.085484</ele>
        <time>2021-10-27T15:44:11.000Z</time>
      </trkpt>
      <trkpt lat="40.213403" lon="-3.266680">
        <ele>765.700213</ele>
        <time>2021-10-27T15:44:12.000Z</time>
      </trkpt>
      <trkpt lat="40.213372" lon="-3.266576">
        <ele>765.323075</ele>
        <time>2021-10-27T15:44:13.000Z</time>
      </trkpt>
      <trkpt lat="40.213301" lon="-3.266262">
        <ele>764.216828</ele>
        <time>2021-10-27T15:44:16.000Z</time>
      </trkpt>
      <trkpt lat="40.213281" lon="-3.266161">
        <ele>763.864355</ele>
        <time>2021-10-27T15:44:17.000Z</time>
      </trkpt>
      <trkpt lat="40.213260" lon="-3.266065">
        <ele>763.527014</ele>
        <time>2021-10-27T15:44:18.000Z</time>
      </trkpt>
      <trkpt lat="40.213206" lon="-3.265886">
        <ele>762.954329</ele>
        <time>2021-10-27T15:44:20.000Z</time>
      </trkpt>
      <trkpt lat="40.213139" lon="-3.265727">
        <ele>763.176726</ele>
        <time>2021-10-27T15:44:22.000Z</time>
      </trkpt>
      <trkpt lat="40.213035" lon="-3.265524">
        <ele>763.476095</ele>
        <time>2021-10-27T15:44:25.000Z</time>
      </trkpt>
      <trkpt lat="40.213011" lon="-3.265465">
        <ele>763.557961</ele>
        <time>2021-10-27T15:44:26.000Z</time>
      </trkpt>
      <trkpt lat="40.212994" lon="-3.265423">
        <ele>763.616175</ele>
        <time>2021-10-27T15:44:27.000Z</time>
      </trkpt>
      <trkpt lat="40.212965" lon="-3.265382">
        <ele>763.684615</ele>
        <time>2021-10-27T15:44:29.000Z</time>
      </trkpt>
      <trkpt lat="40.212925" lon="-3.265347">
        <ele>763.761765</ele>
        <time>2021-10-27T15:44:31.000Z</time>
      </trkpt>
      <trkpt lat="40.212900" lon="-3.265322">
        <ele>763.812211</ele>
        <time>2021-10-27T15:44:32.000Z</time>
      </trkpt>
      <trkpt lat="40.212873" lon="-3.265286">
        <ele>763.874005</ele>
        <time>2021-10-27T15:44:33.000Z</time>
      </trkpt>
      <trkpt lat="40.212824" lon="-3.265175">
        <ele>764.031021</ele>
        <time>2021-10-27T15:44:35.000Z</time>
      </trkpt>
      <trkpt lat="40.212814" lon="-3.265046">
        <ele>764.189814</ele>
        <time>2021-10-27T15:44:37.000Z</time>
      </trkpt>
      <trkpt lat="40.212824" lon="-3.264981">
        <ele>764.271016</ele>
        <time>2021-10-27T15:44:38.000Z</time>
      </trkpt>
      <trkpt lat="40.212834" lon="-3.264915">
        <ele>764.353419</ele>
        <time>2021-10-27T15:44:39.000Z</time>
      </trkpt>
      <trkpt lat="40.212857" lon="-3.264595">
        <ele>764.747042</ele>
        <time>2021-10-27T15:44:44.000Z</time>
      </trkpt>
      <trkpt lat="40.212875" lon="-3.264288">
        <ele>765.124119</ele>
        <time>2021-10-27T15:44:49.000Z</time>
      </trkpt>
      <trkpt lat="40.212845" lon="-3.264175">
        <ele>765.270630</ele>
        <time>2021-10-27T15:44:51.000Z</time>
      </trkpt>
      <trkpt lat="40.212793" lon="-3.264075">
        <ele>765.418792</ele>
        <time>2021-10-27T15:44:53.000Z</time>
      </trkpt>
      <trkpt lat="40.212690" lon="-3.263960">
        <ele>765.635862</ele>
        <time>2021-10-27T15:44:56.000Z</time>
      </trkpt>
      <trkpt lat="40.212610" lon="-3.263899">
        <ele>765.784322</ele>
        <time>2021-10-27T15:44:58.000Z</time>
      </trkpt>
      <trkpt lat="40.212568" lon="-3.263873">
        <ele>765.861901</ele>
        <time>2021-10-27T15:44:59.000Z</time>
      </trkpt>
      <trkpt lat="40.212525" lon="-3.263846">
        <ele>765.944166</ele>
        <time>2021-10-27T15:45:00.000Z</time>
      </trkpt>
      <trkpt lat="40.212483" lon="-3.263819">
        <ele>766.024880</ele>
        <time>2021-10-27T15:45:01.000Z</time>
      </trkpt>
      <trkpt lat="40.212397" lon="-3.263764">
        <ele>766.189985</ele>
        <time>2021-10-27T15:45:03.000Z</time>
      </trkpt>
      <trkpt lat="40.212312" lon="-3.263710">
        <ele>766.352963</ele>
        <time>2021-10-27T15:45:05.000Z</time>
      </trkpt>
      <trkpt lat="40.212228" lon="-3.263651">
        <ele>766.517399</ele>
        <time>2021-10-27T15:45:07.000Z</time>
      </trkpt>
      <trkpt lat="40.212141" lon="-3.263606">
        <ele>766.678766</ele>
        <time>2021-10-27T15:45:09.000Z</time>
      </trkpt>
      <trkpt lat="40.212100" lon="-3.263582">
        <ele>766.756240</ele>
        <time>2021-10-27T15:45:10.000Z</time>
      </trkpt>
      <trkpt lat="40.212066" lon="-3.263548">
        <ele>766.830039</ele>
        <time>2021-10-27T15:45:11.000Z</time>
      </trkpt>
      <trkpt lat="40.212022" lon="-3.263455">
        <ele>766.974163</ele>
        <time>2021-10-27T15:45:13.000Z</time>
      </trkpt>
      <trkpt lat="40.212012" lon="-3.263338">
        <ele>767.129259</ele>
        <time>2021-10-27T15:45:15.000Z</time>
      </trkpt>
      <trkpt lat="40.212014" lon="-3.263218">
        <ele>767.287383</ele>
        <time>2021-10-27T15:45:17.000Z</time>
      </trkpt>
      <trkpt lat="40.212021" lon="-3.262985">
        <ele>767.594570</ele>
        <time>2021-10-27T15:45:21.000Z</time>
      </trkpt>
      <trkpt lat="40.212024" lon="-3.262759">
        <ele>767.892343</ele>
        <time>2021-10-27T15:45:25.000Z</time>
      </trkpt>
      <trkpt lat="40.212022" lon="-3.262648">
        <ele>768.038613</ele>
        <time>2021-10-27T15:45:27.000Z</time>
      </trkpt>
      <trkpt lat="40.212034" lon="-3.262273">
        <ele>768.533065</ele>
        <time>2021-10-27T15:45:34.000Z</time>
      </trkpt>
      <trkpt lat="40.212040" lon="-3.261841">
        <ele>769.119045</ele>
        <time>2021-10-27T15:45:42.000Z</time>
      </trkpt>
      <trkpt lat="40.212120" lon="-3.261466">
        <ele>769.679454</ele>
        <time>2021-10-27T15:45:49.000Z</time>
      </trkpt>
      <trkpt lat="40.212164" lon="-3.261310">
        <ele>769.918812</ele>
        <time>2021-10-27T15:45:52.000Z</time>
      </trkpt>
      <trkpt lat="40.212217" lon="-3.261156">
        <ele>770.161935</ele>
        <time>2021-10-27T15:45:55.000Z</time>
      </trkpt>
      <trkpt lat="40.212247" lon="-3.261002">
        <ele>770.390688</ele>
        <time>2021-10-27T15:45:58.000Z</time>
      </trkpt>
      <trkpt lat="40.212246" lon="-3.260897">
        <ele>770.541827</ele>
        <time>2021-10-27T15:46:00.000Z</time>
      </trkpt>
      <trkpt lat="40.212232" lon="-3.260731">
        <ele>770.782206</ele>
        <time>2021-10-27T15:46:03.000Z</time>
      </trkpt>
      <trkpt lat="40.212222" lon="-3.260551">
        <ele>771.041966</ele>
        <time>2021-10-27T15:46:06.000Z</time>
      </trkpt>
      <trkpt lat="40.212217" lon="-3.260487">
        <ele>771.134563</ele>
        <time>2021-10-27T15:46:07.000Z</time>
      </trkpt>
      <trkpt lat="40.212206" lon="-3.259945">
        <ele>771.914946</ele>
        <time>2021-10-27T15:46:15.000Z</time>
      </trkpt>
      <trkpt lat="40.212233" lon="-3.259821">
        <ele>772.100534</ele>
        <time>2021-10-27T15:46:17.000Z</time>
      </trkpt>
      <trkpt lat="40.212302" lon="-3.259585">
        <ele>772.417267</ele>
        <time>2021-10-27T15:46:21.000Z</time>
      </trkpt>
      <trkpt lat="40.212395" lon="-3.259089">
        <ele>772.926973</ele>
        <time>2021-10-27T15:46:29.000Z</time>
      </trkpt>
      <trkpt lat="40.212401" lon="-3.259027">
        <ele>772.989344</ele>
        <time>2021-10-27T15:46:30.000Z</time>
      </trkpt>
      <trkpt lat="40.212429" lon="-3.258478">
        <ele>773.538462</ele>
        <time>2021-10-27T15:46:39.000Z</time>
      </trkpt>
      <trkpt lat="40.212417" lon="-3.258298">
        <ele>773.718783</ele>
        <time>2021-10-27T15:46:42.000Z</time>
      </trkpt>
      <trkpt lat="40.212399" lon="-3.258179">
        <ele>773.839852</ele>
        <time>2021-10-27T15:46:44.000Z</time>
      </trkpt>
      <trkpt lat="40.212372" lon="-3.258065">
        <ele>773.958969</ele>
        <time>2021-10-27T15:46:46.000Z</time>
      </trkpt>
      <trkpt lat="40.212289" lon="-3.257722">
        <ele>774.318055</ele>
        <time>2021-10-27T15:46:52.000Z</time>
      </trkpt>
      <trkpt lat="40.212279" lon="-3.257664">
        <ele>774.377396</ele>
        <time>2021-10-27T15:46:53.000Z</time>
      </trkpt>
      <trkpt lat="40.212271" lon="-3.257545">
        <ele>774.496616</ele>
        <time>2021-10-27T15:46:55.000Z</time>
      </trkpt>
      <trkpt lat="40.212272" lon="-3.257485">
        <ele>774.556510</ele>
        <time>2021-10-27T15:46:56.000Z</time>
      </trkpt>
      <trkpt lat="40.212308" lon="-3.257235">
        <ele>774.750119</ele>
        <time>2021-10-27T15:47:00.000Z</time>
      </trkpt>
      <trkpt lat="40.212335" lon="-3.257110">
        <ele>774.827245</ele>
        <time>2021-10-27T15:47:02.000Z</time>
      </trkpt>
      <trkpt lat="40.212401" lon="-3.256873">
        <ele>774.977021</ele>
        <time>2021-10-27T15:47:06.000Z</time>
      </trkpt>
      <trkpt lat="40.212437" lon="-3.256757">
        <ele>775.051362</ele>
        <time>2021-10-27T15:47:08.000Z</time>
      </trkpt>
      <trkpt lat="40.212502" lon="-3.256583">
        <ele>775.166367</ele>
        <time>2021-10-27T15:47:11.000Z</time>
      </trkpt>
      <trkpt lat="40.212657" lon="-3.256257">
        <ele>775.394367</ele>
        <time>2021-10-27T15:47:17.000Z</time>
      </trkpt>
      <trkpt lat="40.212873" lon="-3.255909">
        <ele>775.660620</ele>
        <time>2021-10-27T15:47:24.000Z</time>
      </trkpt>
      <trkpt lat="40.213049" lon="-3.255535">
        <ele>775.921444</ele>
        <time>2021-10-27T15:47:31.000Z</time>
      </trkpt>
      <trkpt lat="40.213092" lon="-3.255423">
        <ele>775.995870</ele>
        <time>2021-10-27T15:47:33.000Z</time>
      </trkpt>
      <trkpt lat="40.213143" lon="-3.255183">
        <ele>776.200361</ele>
        <time>2021-10-27T15:47:37.000Z</time>
      </trkpt>
      <trkpt lat="40.213167" lon="-3.254879">
        <ele>776.504326</ele>
        <time>2021-10-27T15:47:42.000Z</time>
      </trkpt>
      <trkpt lat="40.213173" lon="-3.254703">
        <ele>776.679548</ele>
        <time>2021-10-27T15:47:45.000Z</time>
      </trkpt>
      <trkpt lat="40.213197" lon="-3.254421">
        <ele>776.961757</ele>
        <time>2021-10-27T15:47:50.000Z</time>
      </trkpt>
      <trkpt lat="40.213202" lon="-3.254307">
        <ele>777.075326</ele>
        <time>2021-10-27T15:47:52.000Z</time>
      </trkpt>
      <trkpt lat="40.213204" lon="-3.254249">
        <ele>777.133071</ele>
        <time>2021-10-27T15:47:53.000Z</time>
      </trkpt>
      <trkpt lat="40.213218" lon="-3.254011">
        <ele>777.370483</ele>
        <time>2021-10-27T15:47:57.000Z</time>
      </trkpt>
      <trkpt lat="40.213229" lon="-3.253823">
        <ele>777.558013</ele>
        <time>2021-10-27T15:48:00.000Z</time>
      </trkpt>
      <trkpt lat="40.213239" lon="-3.253510">
        <ele>777.869590</ele>
        <time>2021-10-27T15:48:05.000Z</time>
      </trkpt>
      <trkpt lat="40.213232" lon="-3.253447">
        <ele>777.932909</ele>
        <time>2021-10-27T15:48:06.000Z</time>
      </trkpt>
      <trkpt lat="40.213228" lon="-3.253258">
        <ele>778.120957</ele>
        <time>2021-10-27T15:48:09.000Z</time>
      </trkpt>
      <trkpt lat="40.213241" lon="-3.253065">
        <ele>778.313657</ele>
        <time>2021-10-27T15:48:12.000Z</time>
      </trkpt>
      <trkpt lat="40.213269" lon="-3.252617">
        <ele>778.901861</ele>
        <time>2021-10-27T15:48:19.000Z</time>
      </trkpt>
      <trkpt lat="40.213279" lon="-3.252553">
        <ele>778.992436</ele>
        <time>2021-10-27T15:48:20.000Z</time>
      </trkpt>
      <trkpt lat="40.213293" lon="-3.252425">
        <ele>779.171719</ele>
        <time>2021-10-27T15:48:22.000Z</time>
      </trkpt>
      <trkpt lat="40.213314" lon="-3.252120">
        <ele>779.596318</ele>
        <time>2021-10-27T15:48:27.000Z</time>
      </trkpt>
      <trkpt lat="40.213324" lon="-3.252060">
        <ele>779.681466</ele>
        <time>2021-10-27T15:48:28.000Z</time>
      </trkpt>
      <trkpt lat="40.213350" lon="-3.251947">
        <ele>779.845098</ele>
        <time>2021-10-27T15:48:30.000Z</time>
      </trkpt>
      <trkpt lat="40.213387" lon="-3.251772">
        <ele>780.096864</ele>
        <time>2021-10-27T15:48:33.000Z</time>
      </trkpt>
      <trkpt lat="40.213438" lon="-3.251421">
        <ele>780.592257</ele>
        <time>2021-10-27T15:48:39.000Z</time>
      </trkpt>
      <trkpt lat="40.213441" lon="-3.251362">
        <ele>780.674242</ele>
        <time>2021-10-27T15:48:40.000Z</time>
      </trkpt>
      <trkpt lat="40.213441" lon="-3.251303">
        <ele>780.756045</ele>
        <time>2021-10-27T15:48:41.000Z</time>
      </trkpt>
      <trkpt lat="40.213443" lon="-3.250886">
        <ele>781.334227</ele>
        <time>2021-10-27T15:48:48.000Z</time>
      </trkpt>
      <trkpt lat="40.213459" lon="-3.250580">
        <ele>781.779141</ele>
        <time>2021-10-27T15:48:53.000Z</time>
      </trkpt>
      <trkpt lat="40.213454" lon="-3.250396">
        <ele>782.089386</ele>
        <time>2021-10-27T15:48:56.000Z</time>
      </trkpt>
      <trkpt lat="40.213517" lon="-3.249922">
        <ele>782.900106</ele>
        <time>2021-10-27T15:49:04.000Z</time>
      </trkpt>
      <trkpt lat="40.213544" lon="-3.249751">
        <ele>783.194344</ele>
        <time>2021-10-27T15:49:07.000Z</time>
      </trkpt>
      <trkpt lat="40.213584" lon="-3.249583">
        <ele>783.490872</ele>
        <time>2021-10-27T15:49:10.000Z</time>
      </trkpt>
      <trkpt lat="40.213600" lon="-3.249529">
        <ele>783.588474</ele>
        <time>2021-10-27T15:49:11.000Z</time>
      </trkpt>
      <trkpt lat="40.213643" lon="-3.249371">
        <ele>783.871113</ele>
        <time>2021-10-27T15:49:14.000Z</time>
      </trkpt>
      <trkpt lat="40.213664" lon="-3.249266">
        <ele>784.054010</ele>
        <time>2021-10-27T15:49:16.000Z</time>
      </trkpt>
      <trkpt lat="40.213673" lon="-3.249212">
        <ele>784.147144</ele>
        <time>2021-10-27T15:49:17.000Z</time>
      </trkpt>
      <trkpt lat="40.213686" lon="-3.249098">
        <ele>784.341369</ele>
        <time>2021-10-27T15:49:19.000Z</time>
      </trkpt>
      <trkpt lat="40.213674" lon="-3.248979">
        <ele>784.543630</ele>
        <time>2021-10-27T15:49:21.000Z</time>
      </trkpt>
      <trkpt lat="40.213622" lon="-3.248610">
        <ele>785.175909</ele>
        <time>2021-10-27T15:49:27.000Z</time>
      </trkpt>
      <trkpt lat="40.213564" lon="-3.248298">
        <ele>785.684502</ele>
        <time>2021-10-27T15:49:32.000Z</time>
      </trkpt>
      <trkpt lat="40.213440" lon="-3.247870">
        <ele>786.142183</ele>
        <time>2021-10-27T15:49:39.000Z</time>
      </trkpt>
      <trkpt lat="40.213375" lon="-3.247688">
        <ele>786.343066</ele>
        <time>2021-10-27T15:49:42.000Z</time>
      </trkpt>
      <trkpt lat="40.213351" lon="-3.247628">
        <ele>786.410786</ele>
        <time>2021-10-27T15:49:43.000Z</time>
      </trkpt>
      <trkpt lat="40.213331" lon="-3.247568">
        <ele>786.476241</ele>
        <time>2021-10-27T15:49:44.000Z</time>
      </trkpt>
      <trkpt lat="40.213293" lon="-3.247447">
        <ele>786.607049</ele>
        <time>2021-10-27T15:49:46.000Z</time>
      </trkpt>
      <trkpt lat="40.213276" lon="-3.247388">
        <ele>786.670098</ele>
        <time>2021-10-27T15:49:47.000Z</time>
      </trkpt>
      <trkpt lat="40.213253" lon="-3.247267">
        <ele>786.794767</ele>
        <time>2021-10-27T15:49:49.000Z</time>
      </trkpt>
      <trkpt lat="40.213218" lon="-3.247087">
        <ele>786.980476</ele>
        <time>2021-10-27T15:49:52.000Z</time>
      </trkpt>
      <trkpt lat="40.213161" lon="-3.246848">
        <ele>787.230814</ele>
        <time>2021-10-27T15:49:56.000Z</time>
      </trkpt>
      <trkpt lat="40.213143" lon="-3.246789">
        <ele>787.294337</ele>
        <time>2021-10-27T15:49:57.000Z</time>
      </trkpt>
      <trkpt lat="40.213100" lon="-3.246679">
        <ele>787.417889</ele>
        <time>2021-10-27T15:49:59.000Z</time>
      </trkpt>
      <trkpt lat="40.212936" lon="-3.246363">
        <ele>787.799889</ele>
        <time>2021-10-27T15:50:05.000Z</time>
      </trkpt>
      <trkpt lat="40.212903" lon="-3.246231">
        <ele>787.938758</ele>
        <time>2021-10-27T15:50:07.000Z</time>
      </trkpt>
      <trkpt lat="40.212894" lon="-3.246084">
        <ele>787.880395</ele>
        <time>2021-10-27T15:50:09.000Z</time>
      </trkpt>
      <trkpt lat="40.212912" lon="-3.245776">
        <ele>787.514588</ele>
        <time>2021-10-27T15:50:13.000Z</time>
      </trkpt>
      <trkpt lat="40.212918" lon="-3.245547">
        <ele>787.243241</ele>
        <time>2021-10-27T15:50:16.000Z</time>
      </trkpt>
      <trkpt lat="40.212898" lon="-3.245250">
        <ele>786.890162</ele>
        <time>2021-10-27T15:50:20.000Z</time>
      </trkpt>
      <trkpt lat="40.212861" lon="-3.245023">
        <ele>786.615287</ele>
        <time>2021-10-27T15:50:23.000Z</time>
      </trkpt>
      <trkpt lat="40.212843" lon="-3.244948">
        <ele>786.522188</ele>
        <time>2021-10-27T15:50:24.000Z</time>
      </trkpt>
      <trkpt lat="40.212725" lon="-3.244577">
        <ele>786.046256</ele>
        <time>2021-10-27T15:50:29.000Z</time>
      </trkpt>
      <trkpt lat="40.212705" lon="-3.244501">
        <ele>785.951061</ele>
        <time>2021-10-27T15:50:30.000Z</time>
      </trkpt>
      <trkpt lat="40.212673" lon="-3.244347">
        <ele>785.762059</ele>
        <time>2021-10-27T15:50:32.000Z</time>
      </trkpt>
      <trkpt lat="40.212663" lon="-3.244189">
        <ele>785.574309</ele>
        <time>2021-10-27T15:50:34.000Z</time>
      </trkpt>
      <trkpt lat="40.212648" lon="-3.243661">
        <ele>785.292234</ele>
        <time>2021-10-27T15:50:41.000Z</time>
      </trkpt>
      <trkpt lat="40.212644" lon="-3.243586">
        <ele>785.323579</ele>
        <time>2021-10-27T15:50:42.000Z</time>
      </trkpt>
      <trkpt lat="40.212601" lon="-3.242879">
        <ele>785.619267</ele>
        <time>2021-10-27T15:50:51.000Z</time>
      </trkpt>
      <trkpt lat="40.212518" lon="-3.242244">
        <ele>785.887855</ele>
        <time>2021-10-27T15:50:59.000Z</time>
      </trkpt>
      <trkpt lat="40.212409" lon="-3.241827">
        <ele>786.071609</ele>
        <time>2021-10-27T15:51:05.000Z</time>
      </trkpt>
      <trkpt lat="40.212356" lon="-3.241629">
        <ele>786.159082</ele>
        <time>2021-10-27T15:51:08.000Z</time>
      </trkpt>
      <trkpt lat="40.212344" lon="-3.241564">
        <ele>786.194131</ele>
        <time>2021-10-27T15:51:09.000Z</time>
      </trkpt>
      <trkpt lat="40.212305" lon="-3.241378">
        <ele>786.530723</ele>
        <time>2021-10-27T15:51:12.000Z</time>
      </trkpt>
      <trkpt lat="40.212275" lon="-3.241264">
        <ele>786.741140</ele>
        <time>2021-10-27T15:51:14.000Z</time>
      </trkpt>
      <trkpt lat="40.212231" lon="-3.241042">
        <ele>787.141376</ele>
        <time>2021-10-27T15:51:18.000Z</time>
      </trkpt>
      <trkpt lat="40.212233" lon="-3.240986">
        <ele>787.239206</ele>
        <time>2021-10-27T15:51:19.000Z</time>
      </trkpt>
      <trkpt lat="40.212240" lon="-3.240932">
        <ele>787.334787</ele>
        <time>2021-10-27T15:51:20.000Z</time>
      </trkpt>
      <trkpt lat="40.212265" lon="-3.240832">
        <ele>787.518406</ele>
        <time>2021-10-27T15:51:22.000Z</time>
      </trkpt>
      <trkpt lat="40.212284" lon="-3.240785">
        <ele>787.611206</ele>
        <time>2021-10-27T15:51:23.000Z</time>
      </trkpt>
      <trkpt lat="40.212305" lon="-3.240739">
        <ele>787.704729</ele>
        <time>2021-10-27T15:51:24.000Z</time>
      </trkpt>
      <trkpt lat="40.212419" lon="-3.240564">
        <ele>788.106128</ele>
        <time>2021-10-27T15:51:28.000Z</time>
      </trkpt>
      <trkpt lat="40.212466" lon="-3.240461">
        <ele>788.315512</ele>
        <time>2021-10-27T15:51:30.000Z</time>
      </trkpt>
      <trkpt lat="40.212488" lon="-3.240405">
        <ele>788.425407</ele>
        <time>2021-10-27T15:51:31.000Z</time>
      </trkpt>
      <trkpt lat="40.212544" lon="-3.240221">
        <ele>788.771056</ele>
        <time>2021-10-27T15:51:34.000Z</time>
      </trkpt>
      <trkpt lat="40.212571" lon="-3.240088">
        <ele>789.011208</ele>
        <time>2021-10-27T15:51:36.000Z</time>
      </trkpt>
      <trkpt lat="40.212727" lon="-3.239487">
        <ele>790.118907</ele>
        <time>2021-10-27T15:51:45.000Z</time>
      </trkpt>
      <trkpt lat="40.212758" lon="-3.239372">
        <ele>790.314083</ele>
        <time>2021-10-27T15:51:47.000Z</time>
      </trkpt>
      <trkpt lat="40.212776" lon="-3.239315">
        <ele>790.370249</ele>
        <time>2021-10-27T15:51:48.000Z</time>
      </trkpt>
      <trkpt lat="40.212791" lon="-3.239257">
        <ele>790.426009</ele>
        <time>2021-10-27T15:51:49.000Z</time>
      </trkpt>
      <trkpt lat="40.212797" lon="-3.239196">
        <ele>790.482013</ele>
        <time>2021-10-27T15:51:50.000Z</time>
      </trkpt>
      <trkpt lat="40.212797" lon="-3.239133">
        <ele>790.539379</ele>
        <time>2021-10-27T15:51:51.000Z</time>
      </trkpt>
      <trkpt lat="40.212767" lon="-3.238891">
        <ele>790.762623</ele>
        <time>2021-10-27T15:51:55.000Z</time>
      </trkpt>
      <trkpt lat="40.212733" lon="-3.238779">
        <ele>790.872371</ele>
        <time>2021-10-27T15:51:57.000Z</time>
      </trkpt>
      <trkpt lat="40.212688" lon="-3.238674">
        <ele>790.982009</ele>
        <time>2021-10-27T15:51:59.000Z</time>
      </trkpt>
      <trkpt lat="40.212639" lon="-3.238573">
        <ele>791.090968</ele>
        <time>2021-10-27T15:52:01.000Z</time>
      </trkpt>
      <trkpt lat="40.212488" lon="-3.238173">
        <ele>791.497273</ele>
        <time>2021-10-27T15:52:08.000Z</time>
      </trkpt>
      <trkpt lat="40.212379" lon="-3.237664">
        <ele>791.978638</ele>
        <time>2021-10-27T15:52:16.000Z</time>
      </trkpt>
      <trkpt lat="40.212296" lon="-3.237097">
        <ele>792.519401</ele>
        <time>2021-10-27T15:52:25.000Z</time>
      </trkpt>
      <trkpt lat="40.212283" lon="-3.237039">
        <ele>792.587236</ele>
        <time>2021-10-27T15:52:26.000Z</time>
      </trkpt>
      <trkpt lat="40.212229" lon="-3.236869">
        <ele>792.793862</ele>
        <time>2021-10-27T15:52:29.000Z</time>
      </trkpt>
      <trkpt lat="40.212177" lon="-3.236766">
        <ele>792.932428</ele>
        <time>2021-10-27T15:52:31.000Z</time>
      </trkpt>
      <trkpt lat="40.212149" lon="-3.236717">
        <ele>793.001108</ele>
        <time>2021-10-27T15:52:32.000Z</time>
      </trkpt>
      <trkpt lat="40.212062" lon="-3.236577">
        <ele>793.203668</ele>
        <time>2021-10-27T15:52:35.000Z</time>
      </trkpt>
      <trkpt lat="40.211954" lon="-3.236401">
        <ele>793.457047</ele>
        <time>2021-10-27T15:52:39.000Z</time>
      </trkpt>
      <trkpt lat="40.211908" lon="-3.236308">
        <ele>793.581395</ele>
        <time>2021-10-27T15:52:41.000Z</time>
      </trkpt>
      <trkpt lat="40.211819" lon="-3.236120">
        <ele>793.829626</ele>
        <time>2021-10-27T15:52:45.000Z</time>
      </trkpt>
      <trkpt lat="40.211732" lon="-3.235918">
        <ele>794.089887</ele>
        <time>2021-10-27T15:52:49.000Z</time>
      </trkpt>
      <trkpt lat="40.211603" lon="-3.235520">
        <ele>794.575104</ele>
        <time>2021-10-27T15:52:56.000Z</time>
      </trkpt>
      <trkpt lat="40.211586" lon="-3.235455">
        <ele>794.652210</ele>
        <time>2021-10-27T15:52:57.000Z</time>
      </trkpt>
      <trkpt lat="40.211502" lon="-3.235105">
        <ele>795.063936</ele>
        <time>2021-10-27T15:53:02.000Z</time>
      </trkpt>
      <trkpt lat="40.211428" lon="-3.234901">
        <ele>795.429383</ele>
        <time>2021-10-27T15:53:05.000Z</time>
      </trkpt>
      <trkpt lat="40.211395" lon="-3.234838">
        <ele>795.556035</ele>
        <time>2021-10-27T15:53:06.000Z</time>
      </trkpt>
      <trkpt lat="40.211357" lon="-3.234781">
        <ele>795.681475</ele>
        <time>2021-10-27T15:53:07.000Z</time>
      </trkpt>
      <trkpt lat="40.211061" lon="-3.234455">
        <ele>796.521126</ele>
        <time>2021-10-27T15:53:14.000Z</time>
      </trkpt>
      <trkpt lat="40.210765" lon="-3.234225">
        <ele>797.268329</ele>
        <time>2021-10-27T15:53:21.000Z</time>
      </trkpt>
      <trkpt lat="40.210550" lon="-3.233996">
        <ele>797.869981</ele>
        <time>2021-10-27T15:53:28.000Z</time>
      </trkpt>
      <trkpt lat="40.210525" lon="-3.233960">
        <ele>797.950651</ele>
        <time>2021-10-27T15:53:29.000Z</time>
      </trkpt>
      <trkpt lat="40.210451" lon="-3.233803">
        <ele>798.256520</ele>
        <time>2021-10-27T15:53:33.000Z</time>
      </trkpt>
      <trkpt lat="40.210422" lon="-3.233714">
        <ele>798.416940</ele>
        <time>2021-10-27T15:53:35.000Z</time>
      </trkpt>
      <trkpt lat="40.210372" lon="-3.233577">
        <ele>798.668672</ele>
        <time>2021-10-27T15:53:38.000Z</time>
      </trkpt>
      <trkpt lat="40.210281" lon="-3.233401">
        <ele>798.996562</ele>
        <time>2021-10-27T15:53:42.000Z</time>
      </trkpt>
      <trkpt lat="40.210253" lon="-3.233358">
        <ele>799.022067</ele>
        <time>2021-10-27T15:53:43.000Z</time>
      </trkpt>
      <trkpt lat="40.210132" lon="-3.233169">
        <ele>799.133378</ele>
        <time>2021-10-27T15:53:47.000Z</time>
      </trkpt>
      <trkpt lat="40.210115" lon="-3.233103">
        <ele>799.164815</ele>
        <time>2021-10-27T15:53:48.000Z</time>
      </trkpt>
      <trkpt lat="40.210055" lon="-3.232688">
        <ele>799.355445</ele>
        <time>2021-10-27T15:53:54.000Z</time>
      </trkpt>
      <trkpt lat="40.210038" lon="-3.232623">
        <ele>799.386455</ele>
        <time>2021-10-27T15:53:55.000Z</time>
      </trkpt>
      <trkpt lat="40.209998" lon="-3.232423">
        <ele>799.479766</ele>
        <time>2021-10-27T15:53:58.000Z</time>
      </trkpt>
      <trkpt lat="40.209991" lon="-3.232287">
        <ele>799.541287</ele>
        <time>2021-10-27T15:54:00.000Z</time>
      </trkpt>
      <trkpt lat="40.209975" lon="-3.232150">
        <ele>799.603838</ele>
        <time>2021-10-27T15:54:02.000Z</time>
      </trkpt>
      <trkpt lat="40.209950" lon="-3.232010">
        <ele>799.668730</ele>
        <time>2021-10-27T15:54:04.000Z</time>
      </trkpt>
      <trkpt lat="40.209943" lon="-3.231937">
        <ele>799.701936</ele>
        <time>2021-10-27T15:54:05.000Z</time>
      </trkpt>
      <trkpt lat="40.209854" lon="-3.231513">
        <ele>799.900399</ele>
        <time>2021-10-27T15:54:11.000Z</time>
      </trkpt>
      <trkpt lat="40.209736" lon="-3.231033">
        <ele>799.931964</ele>
        <time>2021-10-27T15:54:18.000Z</time>
      </trkpt>
      <trkpt lat="40.209707" lon="-3.230891">
        <ele>799.830701</ele>
        <time>2021-10-27T15:54:20.000Z</time>
      </trkpt>
      <trkpt lat="40.209601" lon="-3.230397">
        <ele>799.477201</ele>
        <time>2021-10-27T15:54:27.000Z</time>
      </trkpt>
      <trkpt lat="40.209576" lon="-3.230251">
        <ele>799.374122</ele>
        <time>2021-10-27T15:54:29.000Z</time>
      </trkpt>
      <trkpt lat="40.209568" lon="-3.230106">
        <ele>799.273970</ele>
        <time>2021-10-27T15:54:31.000Z</time>
      </trkpt>
      <trkpt lat="40.209572" lon="-3.230037">
        <ele>799.226298</ele>
        <time>2021-10-27T15:54:32.000Z</time>
      </trkpt>
      <trkpt lat="40.209610" lon="-3.229568">
        <ele>798.901385</ele>
        <time>2021-10-27T15:54:39.000Z</time>
      </trkpt>
      <trkpt lat="40.209622" lon="-3.229145">
        <ele>798.609774</ele>
        <time>2021-10-27T15:54:44.000Z</time>
      </trkpt>
      <trkpt lat="40.209632" lon="-3.229053">
        <ele>798.545755</ele>
        <time>2021-10-27T15:54:45.000Z</time>
      </trkpt>
      <trkpt lat="40.209670" lon="-3.228796">
        <ele>798.403004</ele>
        <time>2021-10-27T15:54:48.000Z</time>
      </trkpt>
      <trkpt lat="40.209693" lon="-3.228546">
        <ele>798.333941</ele>
        <time>2021-10-27T15:54:51.000Z</time>
      </trkpt>
      <trkpt lat="40.209678" lon="-3.228387">
        <ele>798.290001</ele>
        <time>2021-10-27T15:54:53.000Z</time>
      </trkpt>
      <trkpt lat="40.209644" lon="-3.228164">
        <ele>798.227632</ele>
        <time>2021-10-27T15:54:56.000Z</time>
      </trkpt>
      <trkpt lat="40.209613" lon="-3.228030">
        <ele>798.189230</ele>
        <time>2021-10-27T15:54:58.000Z</time>
      </trkpt>
      <trkpt lat="40.209581" lon="-3.227904">
        <ele>798.152811</ele>
        <time>2021-10-27T15:55:00.000Z</time>
      </trkpt>
      <trkpt lat="40.209524" lon="-3.227756">
        <ele>798.107350</ele>
        <time>2021-10-27T15:55:03.000Z</time>
      </trkpt>
      <trkpt lat="40.209512" lon="-3.227725">
        <ele>798.097818</ele>
        <time>2021-10-27T15:55:10.000Z</time>
      </trkpt>
      <trkpt lat="40.209513" lon="-3.227729">
        <ele>798.096663</ele>
        <time>2021-10-27T15:55:16.000Z</time>
      </trkpt>
      <trkpt lat="40.209500" lon="-3.227678">
        <ele>798.081917</ele>
        <time>2021-10-27T15:57:23.000Z</time>
      </trkpt>
      <trkpt lat="40.209434" lon="-3.227524">
        <ele>798.033483</ele>
        <time>2021-10-27T15:57:29.000Z</time>
      </trkpt>
      <trkpt lat="40.209400" lon="-3.227432">
        <ele>798.005451</ele>
        <time>2021-10-27T15:57:31.000Z</time>
      </trkpt>
      <trkpt lat="40.209352" lon="-3.227273">
        <ele>797.958558</ele>
        <time>2021-10-27T15:57:34.000Z</time>
      </trkpt>
      <trkpt lat="40.209231" lon="-3.226949">
        <ele>797.859638</ele>
        <time>2021-10-27T15:57:40.000Z</time>
      </trkpt>
      <trkpt lat="40.209179" lon="-3.226841">
        <ele>797.824621</ele>
        <time>2021-10-27T15:57:42.000Z</time>
      </trkpt>
      <trkpt lat="40.209090" lon="-3.226621">
        <ele>797.882795</ele>
        <time>2021-10-27T15:57:46.000Z</time>
      </trkpt>
      <trkpt lat="40.209024" lon="-3.226464">
        <ele>798.076766</ele>
        <time>2021-10-27T15:57:49.000Z</time>
      </trkpt>
      <trkpt lat="40.208985" lon="-3.226359">
        <ele>798.203140</ele>
        <time>2021-10-27T15:57:51.000Z</time>
      </trkpt>
      <trkpt lat="40.208957" lon="-3.226253">
        <ele>798.324538</ele>
        <time>2021-10-27T15:57:53.000Z</time>
      </trkpt>
      <trkpt lat="40.208932" lon="-3.226085">
        <ele>798.509791</ele>
        <time>2021-10-27T15:57:56.000Z</time>
      </trkpt>
      <trkpt lat="40.208927" lon="-3.226029">
        <ele>798.570815</ele>
        <time>2021-10-27T15:57:57.000Z</time>
      </trkpt>
      <trkpt lat="40.208928" lon="-3.225915">
        <ele>798.694210</ele>
        <time>2021-10-27T15:57:59.000Z</time>
      </trkpt>
      <trkpt lat="40.208943" lon="-3.225799">
        <ele>798.821549</ele>
        <time>2021-10-27T15:58:01.000Z</time>
      </trkpt>
      <trkpt lat="40.208994" lon="-3.225462">
        <ele>799.193391</ele>
        <time>2021-10-27T15:58:06.000Z</time>
      </trkpt>
      <trkpt lat="40.209004" lon="-3.225387">
        <ele>799.275795</ele>
        <time>2021-10-27T15:58:07.000Z</time>
      </trkpt>
      <trkpt lat="40.209035" lon="-3.225080">
        <ele>799.610965</ele>
        <time>2021-10-27T15:58:11.000Z</time>
      </trkpt>
      <trkpt lat="40.209028" lon="-3.224852">
        <ele>799.857939</ele>
        <time>2021-10-27T15:58:14.000Z</time>
      </trkpt>
      <trkpt lat="40.209031" lon="-3.224549">
        <ele>800.185916</ele>
        <time>2021-10-27T15:58:18.000Z</time>
      </trkpt>
      <trkpt lat="40.209024" lon="-3.224473">
        <ele>800.268770</ele>
        <time>2021-10-27T15:58:19.000Z</time>
      </trkpt>
      <trkpt lat="40.208974" lon="-3.224179">
        <ele>800.541333</ele>
        <time>2021-10-27T15:58:23.000Z</time>
      </trkpt>
      <trkpt lat="40.208933" lon="-3.224039">
        <ele>800.670739</ele>
        <time>2021-10-27T15:58:25.000Z</time>
      </trkpt>
      <trkpt lat="40.208911" lon="-3.223972">
        <ele>800.733681</ele>
        <time>2021-10-27T15:58:26.000Z</time>
      </trkpt>
      <trkpt lat="40.208889" lon="-3.223907">
        <ele>800.795042</ele>
        <time>2021-10-27T15:58:27.000Z</time>
      </trkpt>
      <trkpt lat="40.208816" lon="-3.223723">
        <ele>800.973992</ele>
        <time>2021-10-27T15:58:30.000Z</time>
      </trkpt>
      <trkpt lat="40.208784" lon="-3.223671">
        <ele>801.031627</ele>
        <time>2021-10-27T15:58:31.000Z</time>
      </trkpt>
      <trkpt lat="40.208730" lon="-3.223566">
        <ele>801.140880</ele>
        <time>2021-10-27T15:58:33.000Z</time>
      </trkpt>
      <trkpt lat="40.208640" lon="-3.223376">
        <ele>801.333840</ele>
        <time>2021-10-27T15:58:37.000Z</time>
      </trkpt>
      <trkpt lat="40.208530" lon="-3.223144">
        <ele>801.569518</ele>
        <time>2021-10-27T15:58:42.000Z</time>
      </trkpt>
      <trkpt lat="40.208479" lon="-3.223061">
        <ele>801.661458</ele>
        <time>2021-10-27T15:58:44.000Z</time>
      </trkpt>
      <trkpt lat="40.208416" lon="-3.222983">
        <ele>801.759441</ele>
        <time>2021-10-27T15:58:46.000Z</time>
      </trkpt>
      <trkpt lat="40.208155" lon="-3.222730">
        <ele>802.126422</ele>
        <time>2021-10-27T15:58:52.000Z</time>
      </trkpt>
      <trkpt lat="40.208047" lon="-3.222623">
        <ele>802.279472</ele>
        <time>2021-10-27T15:58:54.000Z</time>
      </trkpt>
      <trkpt lat="40.207941" lon="-3.222502">
        <ele>802.331235</ele>
        <time>2021-10-27T15:58:56.000Z</time>
      </trkpt>
      <trkpt lat="40.207899" lon="-3.222426">
        <ele>802.296118</ele>
        <time>2021-10-27T15:58:57.000Z</time>
      </trkpt>
      <trkpt lat="40.207867" lon="-3.222342">
        <ele>802.260978</ele>
        <time>2021-10-27T15:58:58.000Z</time>
      </trkpt>
      <trkpt lat="40.207843" lon="-3.222253">
        <ele>802.225645</ele>
        <time>2021-10-27T15:58:59.000Z</time>
      </trkpt>
      <trkpt lat="40.207806" lon="-3.222073">
        <ele>802.155866</ele>
        <time>2021-10-27T15:59:01.000Z</time>
      </trkpt>
      <trkpt lat="40.207740" lon="-3.221810">
        <ele>802.052234</ele>
        <time>2021-10-27T15:59:04.000Z</time>
      </trkpt>
      <trkpt lat="40.207670" lon="-3.221657">
        <ele>801.985469</ele>
        <time>2021-10-27T15:59:06.000Z</time>
      </trkpt>
      <trkpt lat="40.207614" lon="-3.221499">
        <ele>801.920263</ele>
        <time>2021-10-27T15:59:08.000Z</time>
      </trkpt>
      <trkpt lat="40.207557" lon="-3.221349">
        <ele>801.857545</ele>
        <time>2021-10-27T15:59:10.000Z</time>
      </trkpt>
      <trkpt lat="40.207525" lon="-3.221282">
        <ele>801.827963</ele>
        <time>2021-10-27T15:59:11.000Z</time>
      </trkpt>
      <trkpt lat="40.207469" lon="-3.221146">
        <ele>801.770123</ele>
        <time>2021-10-27T15:59:13.000Z</time>
      </trkpt>
      <trkpt lat="40.207422" lon="-3.221004">
        <ele>801.712189</ele>
        <time>2021-10-27T15:59:15.000Z</time>
      </trkpt>
      <trkpt lat="40.207396" lon="-3.220934">
        <ele>801.683050</ele>
        <time>2021-10-27T15:59:16.000Z</time>
      </trkpt>
      <trkpt lat="40.207185" lon="-3.220493">
        <ele>801.488241</ele>
        <time>2021-10-27T15:59:23.000Z</time>
      </trkpt>
      <trkpt lat="40.207118" lon="-3.220381">
        <ele>801.556063</ele>
        <time>2021-10-27T15:59:25.000Z</time>
      </trkpt>
      <trkpt lat="40.207053" lon="-3.220266">
        <ele>801.640374</ele>
        <time>2021-10-27T15:59:27.000Z</time>
      </trkpt>
      <trkpt lat="40.206918" lon="-3.220037">
        <ele>801.810852</ele>
        <time>2021-10-27T15:59:31.000Z</time>
      </trkpt>
      <trkpt lat="40.206859" lon="-3.219916">
        <ele>801.895451</ele>
        <time>2021-10-27T15:59:33.000Z</time>
      </trkpt>
      <trkpt lat="40.206790" lon="-3.219719">
        <ele>802.023171</ele>
        <time>2021-10-27T15:59:36.000Z</time>
      </trkpt>
      <trkpt lat="40.206762" lon="-3.219660">
        <ele>802.064106</ele>
        <time>2021-10-27T15:59:37.000Z</time>
      </trkpt>
      <trkpt lat="40.206583" lon="-3.219231">
        <ele>802.352187</ele>
        <time>2021-10-27T15:59:44.000Z</time>
      </trkpt>
      <trkpt lat="40.206560" lon="-3.219160">
        <ele>802.397636</ele>
        <time>2021-10-27T15:59:45.000Z</time>
      </trkpt>
      <trkpt lat="40.206395" lon="-3.218713">
        <ele>802.690210</ele>
        <time>2021-10-27T15:59:51.000Z</time>
      </trkpt>
      <trkpt lat="40.206366" lon="-3.218639">
        <ele>802.739225</ele>
        <time>2021-10-27T15:59:52.000Z</time>
      </trkpt>
      <trkpt lat="40.206315" lon="-3.218489">
        <ele>802.835985</ele>
        <time>2021-10-27T15:59:54.000Z</time>
      </trkpt>
      <trkpt lat="40.206220" lon="-3.218292">
        <ele>802.753251</ele>
        <time>2021-10-27T15:59:57.000Z</time>
      </trkpt>
      <trkpt lat="40.206083" lon="-3.217838">
        <ele>802.428710</ele>
        <time>2021-10-27T16:00:03.000Z</time>
      </trkpt>
      <trkpt lat="40.206038" lon="-3.217584">
        <ele>802.255359</ele>
        <time>2021-10-27T16:00:06.000Z</time>
      </trkpt>
      <trkpt lat="40.205992" lon="-3.217230">
        <ele>802.016626</ele>
        <time>2021-10-27T16:00:10.000Z</time>
      </trkpt>
      <trkpt lat="40.205976" lon="-3.217050">
        <ele>801.896148</ele>
        <time>2021-10-27T16:00:12.000Z</time>
      </trkpt>
      <trkpt lat="40.205968" lon="-3.216554">
        <ele>801.566317</ele>
        <time>2021-10-27T16:00:18.000Z</time>
      </trkpt>
      <trkpt lat="40.205955" lon="-3.216332">
        <ele>801.418291</ele>
        <time>2021-10-27T16:00:21.000Z</time>
      </trkpt>
      <trkpt lat="40.205914" lon="-3.215974">
        <ele>801.406713</ele>
        <time>2021-10-27T16:00:26.000Z</time>
      </trkpt>
      <trkpt lat="40.205912" lon="-3.215534">
        <ele>801.643806</ele>
        <time>2021-10-27T16:00:32.000Z</time>
      </trkpt>
      <trkpt lat="40.205908" lon="-3.215459">
        <ele>801.684317</ele>
        <time>2021-10-27T16:00:33.000Z</time>
      </trkpt>
      <trkpt lat="40.205900" lon="-3.215045">
        <ele>801.907468</ele>
        <time>2021-10-27T16:00:39.000Z</time>
      </trkpt>
      <trkpt lat="40.205870" lon="-3.214522">
        <ele>802.190075</ele>
        <time>2021-10-27T16:00:47.000Z</time>
      </trkpt>
      <trkpt lat="40.205866" lon="-3.214250">
        <ele>802.336666</ele>
        <time>2021-10-27T16:00:51.000Z</time>
      </trkpt>
      <trkpt lat="40.205860" lon="-3.214040">
        <ele>802.449901</ele>
        <time>2021-10-27T16:00:54.000Z</time>
      </trkpt>
      <trkpt lat="40.205873" lon="-3.213615">
        <ele>801.720732</ele>
        <time>2021-10-27T16:01:00.000Z</time>
      </trkpt>
      <trkpt lat="40.205899" lon="-3.213475">
        <ele>801.095973</ele>
        <time>2021-10-27T16:01:02.000Z</time>
      </trkpt>
      <trkpt lat="40.205909" lon="-3.213402">
        <ele>800.774378</ele>
        <time>2021-10-27T16:01:03.000Z</time>
      </trkpt>
      <trkpt lat="40.205913" lon="-3.213260">
        <ele>800.158218</ele>
        <time>2021-10-27T16:01:05.000Z</time>
      </trkpt>
      <trkpt lat="40.205919" lon="-3.213194">
        <ele>799.870008</ele>
        <time>2021-10-27T16:01:06.000Z</time>
      </trkpt>
      <trkpt lat="40.205929" lon="-3.213067">
        <ele>799.316391</ele>
        <time>2021-10-27T16:01:08.000Z</time>
      </trkpt>
      <trkpt lat="40.205915" lon="-3.212957">
        <ele>798.832831</ele>
        <time>2021-10-27T16:01:10.000Z</time>
      </trkpt>
      <trkpt lat="40.205889" lon="-3.212852">
        <ele>798.354197</ele>
        <time>2021-10-27T16:01:12.000Z</time>
      </trkpt>
      <trkpt lat="40.205844" lon="-3.212754">
        <ele>797.858355</ele>
        <time>2021-10-27T16:01:14.000Z</time>
      </trkpt>
      <trkpt lat="40.205807" lon="-3.212659">
        <ele>797.395942</ele>
        <time>2021-10-27T16:01:16.000Z</time>
      </trkpt>
      <trkpt lat="40.205760" lon="-3.212548">
        <ele>796.845599</ele>
        <time>2021-10-27T16:01:19.000Z</time>
      </trkpt>
      <trkpt lat="40.205747" lon="-3.212510">
        <ele>796.665047</ele>
        <time>2021-10-27T16:01:20.000Z</time>
      </trkpt>
      <trkpt lat="40.205722" lon="-3.212403">
        <ele>796.179845</ele>
        <time>2021-10-27T16:01:23.000Z</time>
      </trkpt>
      <trkpt lat="40.205710" lon="-3.212363">
        <ele>795.993495</ele>
        <time>2021-10-27T16:01:24.000Z</time>
      </trkpt>
      <trkpt lat="40.205693" lon="-3.212317">
        <ele>795.771903</ele>
        <time>2021-10-27T16:01:25.000Z</time>
      </trkpt>
      <trkpt lat="40.205675" lon="-3.212273">
        <ele>795.555462</ele>
        <time>2021-10-27T16:01:26.000Z</time>
      </trkpt>
      <trkpt lat="40.205641" lon="-3.212165">
        <ele>795.048924</ele>
        <time>2021-10-27T16:01:28.000Z</time>
      </trkpt>
      <trkpt lat="40.205601" lon="-3.212030">
        <ele>794.421023</ele>
        <time>2021-10-27T16:01:30.000Z</time>
      </trkpt>
      <trkpt lat="40.205569" lon="-3.211886">
        <ele>793.770711</ele>
        <time>2021-10-27T16:01:32.000Z</time>
      </trkpt>
      <trkpt lat="40.205571" lon="-3.211812">
        <ele>793.449630</ele>
        <time>2021-10-27T16:01:33.000Z</time>
      </trkpt>
      <trkpt lat="40.205575" lon="-3.211737">
        <ele>793.123621</ele>
        <time>2021-10-27T16:01:34.000Z</time>
      </trkpt>
      <trkpt lat="40.205556" lon="-3.211437">
        <ele>791.696032</ele>
        <time>2021-10-27T16:01:38.000Z</time>
      </trkpt>
      <trkpt lat="40.205544" lon="-3.211362">
        <ele>791.288911</ele>
        <time>2021-10-27T16:01:39.000Z</time>
      </trkpt>
      <trkpt lat="40.205522" lon="-3.211220">
        <ele>790.519108</ele>
        <time>2021-10-27T16:01:41.000Z</time>
      </trkpt>
      <trkpt lat="40.205476" lon="-3.211001">
        <ele>789.312372</ele>
        <time>2021-10-27T16:01:44.000Z</time>
      </trkpt>
      <trkpt lat="40.205461" lon="-3.210926">
        <ele>788.900465</ele>
        <time>2021-10-27T16:01:45.000Z</time>
      </trkpt>
      <trkpt lat="40.205461" lon="-3.210837">
        <ele>788.427613</ele>
        <time>2021-10-27T16:03:43.000Z</time>
      </trkpt>
      <trkpt lat="40.205459" lon="-3.210823">
        <ele>788.351941</ele>
        <time>2021-10-27T16:03:44.000Z</time>
      </trkpt>
      <trkpt lat="40.205458" lon="-3.210801">
        <ele>788.234850</ele>
        <time>2021-10-27T16:03:45.000Z</time>
      </trkpt>
      <trkpt lat="40.205469" lon="-3.210722">
        <ele>787.808209</ele>
        <time>2021-10-27T16:03:47.000Z</time>
      </trkpt>
      <trkpt lat="40.205482" lon="-3.210610">
        <ele>787.206326</ele>
        <time>2021-10-27T16:03:49.000Z</time>
      </trkpt>
      <trkpt lat="40.205527" lon="-3.210418">
        <ele>786.139289</ele>
        <time>2021-10-27T16:03:52.000Z</time>
      </trkpt>
      <trkpt lat="40.205544" lon="-3.210274">
        <ele>785.365140</ele>
        <time>2021-10-27T16:03:54.000Z</time>
      </trkpt>
      <trkpt lat="40.205539" lon="-3.210123">
        <ele>784.562133</ele>
        <time>2021-10-27T16:03:56.000Z</time>
      </trkpt>
      <trkpt lat="40.205534" lon="-3.210045">
        <ele>784.146266</ele>
        <time>2021-10-27T16:03:57.000Z</time>
      </trkpt>
      <trkpt lat="40.205536" lon="-3.209966">
        <ele>783.726314</ele>
        <time>2021-10-27T16:03:58.000Z</time>
      </trkpt>
      <trkpt lat="40.205557" lon="-3.209817">
        <ele>782.921320</ele>
        <time>2021-10-27T16:04:00.000Z</time>
      </trkpt>
      <trkpt lat="40.205592" lon="-3.209679">
        <ele>782.148764</ele>
        <time>2021-10-27T16:04:02.000Z</time>
      </trkpt>
      <trkpt lat="40.205649" lon="-3.209546">
        <ele>781.338492</ele>
        <time>2021-10-27T16:04:04.000Z</time>
      </trkpt>
      <trkpt lat="40.205676" lon="-3.209482">
        <ele>780.950037</ele>
        <time>2021-10-27T16:04:05.000Z</time>
      </trkpt>
      <trkpt lat="40.205726" lon="-3.209366">
        <ele>780.242359</ele>
        <time>2021-10-27T16:04:07.000Z</time>
      </trkpt>
      <trkpt lat="40.205765" lon="-3.209254">
        <ele>779.464671</ele>
        <time>2021-10-27T16:04:09.000Z</time>
      </trkpt>
      <trkpt lat="40.205782" lon="-3.209203">
        <ele>779.028555</ele>
        <time>2021-10-27T16:04:10.000Z</time>
      </trkpt>
      <trkpt lat="40.205803" lon="-3.209156">
        <ele>778.601792</ele>
        <time>2021-10-27T16:04:11.000Z</time>
      </trkpt>
      <trkpt lat="40.205823" lon="-3.209109">
        <ele>778.180119</ele>
        <time>2021-10-27T16:04:12.000Z</time>
      </trkpt>
      <trkpt lat="40.205837" lon="-3.209060">
        <ele>777.770096</ele>
        <time>2021-10-27T16:04:13.000Z</time>
      </trkpt>
      <trkpt lat="40.205846" lon="-3.209006">
        <ele>777.336919</ele>
        <time>2021-10-27T16:04:14.000Z</time>
      </trkpt>
      <trkpt lat="40.205847" lon="-3.208943">
        <ele>776.843060</ele>
        <time>2021-10-27T16:04:15.000Z</time>
      </trkpt>
      <trkpt lat="40.205836" lon="-3.208878">
        <ele>776.321276</ele>
        <time>2021-10-27T16:04:16.000Z</time>
      </trkpt>
      <trkpt lat="40.205796" lon="-3.208749">
        <ele>775.230108</ele>
        <time>2021-10-27T16:04:18.000Z</time>
      </trkpt>
      <trkpt lat="40.205773" lon="-3.208687">
        <ele>774.689903</ele>
        <time>2021-10-27T16:04:19.000Z</time>
      </trkpt>
      <trkpt lat="40.205755" lon="-3.208622">
        <ele>774.148021</ele>
        <time>2021-10-27T16:04:20.000Z</time>
      </trkpt>
      <trkpt lat="40.205729" lon="-3.208479">
        <ele>772.995958</ele>
        <time>2021-10-27T16:04:22.000Z</time>
      </trkpt>
      <trkpt lat="40.205720" lon="-3.208403">
        <ele>772.393201</ele>
        <time>2021-10-27T16:04:23.000Z</time>
      </trkpt>
      <trkpt lat="40.205714" lon="-3.208330">
        <ele>771.817771</ele>
        <time>2021-10-27T16:04:24.000Z</time>
      </trkpt>
      <trkpt lat="40.205704" lon="-3.208198">
        <ele>770.778162</ele>
        <time>2021-10-27T16:04:26.000Z</time>
      </trkpt>
      <trkpt lat="40.205700" lon="-3.208132">
        <ele>770.259271</ele>
        <time>2021-10-27T16:04:27.000Z</time>
      </trkpt>
      <trkpt lat="40.205702" lon="-3.208059">
        <ele>769.686775</ele>
        <time>2021-10-27T16:04:28.000Z</time>
      </trkpt>
      <trkpt lat="40.205711" lon="-3.207986">
        <ele>769.107242</ele>
        <time>2021-10-27T16:04:29.000Z</time>
      </trkpt>
      <trkpt lat="40.205724" lon="-3.207919">
        <ele>768.565458</ele>
        <time>2021-10-27T16:04:30.000Z</time>
      </trkpt>
      <trkpt lat="40.205740" lon="-3.207856">
        <ele>768.045120</ele>
        <time>2021-10-27T16:04:31.000Z</time>
      </trkpt>
      <trkpt lat="40.205761" lon="-3.207797">
        <ele>767.534966</ele>
        <time>2021-10-27T16:04:32.000Z</time>
      </trkpt>
      <trkpt lat="40.205788" lon="-3.207738">
        <ele>766.995905</ele>
        <time>2021-10-27T16:04:33.000Z</time>
      </trkpt>
      <trkpt lat="40.205811" lon="-3.207680">
        <ele>766.483716</ele>
        <time>2021-10-27T16:04:34.000Z</time>
      </trkpt>
      <trkpt lat="40.205829" lon="-3.207625">
        <ele>766.014752</ele>
        <time>2021-10-27T16:04:35.000Z</time>
      </trkpt>
      <trkpt lat="40.205841" lon="-3.207571">
        <ele>765.573984</ele>
        <time>2021-10-27T16:04:36.000Z</time>
      </trkpt>
      <trkpt lat="40.205849" lon="-3.207514">
        <ele>765.119775</ele>
        <time>2021-10-27T16:04:37.000Z</time>
      </trkpt>
      <trkpt lat="40.205858" lon="-3.207450">
        <ele>764.609754</ele>
        <time>2021-10-27T16:04:38.000Z</time>
      </trkpt>
      <trkpt lat="40.205886" lon="-3.207214">
        <ele>762.737956</ele>
        <time>2021-10-27T16:04:41.000Z</time>
      </trkpt>
      <trkpt lat="40.205898" lon="-3.207126">
        <ele>762.037363</ele>
        <time>2021-10-27T16:04:42.000Z</time>
      </trkpt>
      <trkpt lat="40.205894" lon="-3.206952">
        <ele>761.210520</ele>
        <time>2021-10-27T16:04:44.000Z</time>
      </trkpt>
      <trkpt lat="40.205874" lon="-3.206870">
        <ele>761.040789</ele>
        <time>2021-10-27T16:04:45.000Z</time>
      </trkpt>
      <trkpt lat="40.205846" lon="-3.206795">
        <ele>760.876182</ele>
        <time>2021-10-27T16:04:46.000Z</time>
      </trkpt>
      <trkpt lat="40.205813" lon="-3.206724">
        <ele>760.712298</ele>
        <time>2021-10-27T16:04:47.000Z</time>
      </trkpt>
      <trkpt lat="40.205723" lon="-3.206523">
        <ele>760.252877</ele>
        <time>2021-10-27T16:04:50.000Z</time>
      </trkpt>
      <trkpt lat="40.205701" lon="-3.206454">
        <ele>760.105443</ele>
        <time>2021-10-27T16:04:51.000Z</time>
      </trkpt>
      <trkpt lat="40.205681" lon="-3.206389">
        <ele>759.967266</ele>
        <time>2021-10-27T16:04:52.000Z</time>
      </trkpt>
      <trkpt lat="40.205665" lon="-3.206329">
        <ele>759.841954</ele>
        <time>2021-10-27T16:04:53.000Z</time>
      </trkpt>
      <trkpt lat="40.205651" lon="-3.206280">
        <ele>759.738797</ele>
        <time>2021-10-27T16:04:54.000Z</time>
      </trkpt>
      <trkpt lat="40.205637" lon="-3.206240">
        <ele>759.652038</ele>
        <time>2021-10-27T16:04:55.000Z</time>
      </trkpt>
      <trkpt lat="40.205608" lon="-3.206164">
        <ele>759.484519</ele>
        <time>2021-10-27T16:04:57.000Z</time>
      </trkpt>
      <trkpt lat="40.205550" lon="-3.206059">
        <ele>759.229004</ele>
        <time>2021-10-27T16:05:00.000Z</time>
      </trkpt>
      <trkpt lat="40.205509" lon="-3.206014">
        <ele>759.090880</ele>
        <time>2021-10-27T16:05:02.000Z</time>
      </trkpt>
      <trkpt lat="40.205491" lon="-3.205990">
        <ele>759.024554</ele>
        <time>2021-10-27T16:05:03.000Z</time>
      </trkpt>
      <trkpt lat="40.205463" lon="-3.205915">
        <ele>758.859947</ele>
        <time>2021-10-27T16:05:05.000Z</time>
      </trkpt>
      <trkpt lat="40.205463" lon="-3.205871">
        <ele>758.773188</ele>
        <time>2021-10-27T16:05:06.000Z</time>
      </trkpt>
      <trkpt lat="40.205486" lon="-3.205610">
        <ele>758.255134</ele>
        <time>2021-10-27T16:05:10.000Z</time>
      </trkpt>
      <trkpt lat="40.205496" lon="-3.205525">
        <ele>758.085555</ele>
        <time>2021-10-27T16:05:11.000Z</time>
      </trkpt>
      <trkpt lat="40.205520" lon="-3.205332">
        <ele>757.699987</ele>
        <time>2021-10-27T16:05:13.000Z</time>
      </trkpt>
      <trkpt lat="40.205533" lon="-3.205226">
        <ele>757.488299</ele>
        <time>2021-10-27T16:05:14.000Z</time>
      </trkpt>
      <trkpt lat="40.205547" lon="-3.205114">
        <ele>757.264520</ele>
        <time>2021-10-27T16:05:15.000Z</time>
      </trkpt>
      <trkpt lat="40.205577" lon="-3.204888">
        <ele>756.812214</ele>
        <time>2021-10-27T16:05:17.000Z</time>
      </trkpt>
      <trkpt lat="40.205597" lon="-3.204780">
        <ele>756.991128</ele>
        <time>2021-10-27T16:05:18.000Z</time>
      </trkpt>
      <trkpt lat="40.205663" lon="-3.204583">
        <ele>757.660433</ele>
        <time>2021-10-27T16:05:20.000Z</time>
      </trkpt>
      <trkpt lat="40.205763" lon="-3.204434">
        <ele>758.277578</ele>
        <time>2021-10-27T16:05:22.000Z</time>
      </trkpt>
      <trkpt lat="40.205819" lon="-3.204376">
        <ele>758.568454</ele>
        <time>2021-10-27T16:05:23.000Z</time>
      </trkpt>
      <trkpt lat="40.206075" lon="-3.204181">
        <ele>759.774983</ele>
        <time>2021-10-27T16:05:28.000Z</time>
      </trkpt>
      <trkpt lat="40.206139" lon="-3.204132">
        <ele>760.077007</ele>
        <time>2021-10-27T16:05:30.000Z</time>
      </trkpt>
      <trkpt lat="40.206178" lon="-3.204091">
        <ele>760.280758</ele>
        <time>2021-10-27T16:05:32.000Z</time>
      </trkpt>
      <trkpt lat="40.206215" lon="-3.204048">
        <ele>760.482298</ele>
        <time>2021-10-27T16:05:34.000Z</time>
      </trkpt>
      <trkpt lat="40.206275" lon="-3.203953">
        <ele>760.865843</ele>
        <time>2021-10-27T16:05:38.000Z</time>
      </trkpt>
      <trkpt lat="40.206289" lon="-3.203931">
        <ele>760.954938</ele>
        <time>2021-10-27T16:05:39.000Z</time>
      </trkpt>
      <trkpt lat="40.206323" lon="-3.203855">
        <ele>761.228975</ele>
        <time>2021-10-27T16:05:42.000Z</time>
      </trkpt>
      <trkpt lat="40.206347" lon="-3.203788">
        <ele>761.459220</ele>
        <time>2021-10-27T16:05:45.000Z</time>
      </trkpt>
      <trkpt lat="40.206365" lon="-3.203745">
        <ele>761.611783</ele>
        <time>2021-10-27T16:05:47.000Z</time>
      </trkpt>
      <trkpt lat="40.206397" lon="-3.203681">
        <ele>761.849781</ele>
        <time>2021-10-27T16:05:50.000Z</time>
      </trkpt>
      <trkpt lat="40.206437" lon="-3.203618">
        <ele>762.104679</ele>
        <time>2021-10-27T16:05:53.000Z</time>
      </trkpt>
      <trkpt lat="40.206451" lon="-3.203596">
        <ele>762.193774</ele>
        <time>2021-10-27T16:05:54.000Z</time>
      </trkpt>
      <trkpt lat="40.206581" lon="-3.203408">
        <ele>762.982823</ele>
        <time>2021-10-27T16:06:02.000Z</time>
      </trkpt>
      <trkpt lat="40.206640" lon="-3.203325">
        <ele>763.335605</ele>
        <time>2021-10-27T16:06:05.000Z</time>
      </trkpt>
      <trkpt lat="40.206753" lon="-3.203142">
        <ele>764.067781</ele>
        <time>2021-10-27T16:06:10.000Z</time>
      </trkpt>
      <trkpt lat="40.206843" lon="-3.203010">
        <ele>764.002461</ele>
        <time>2021-10-27T16:06:13.000Z</time>
      </trkpt>
      <trkpt lat="40.206929" lon="-3.202846">
        <ele>763.920063</ele>
        <time>2021-10-27T16:06:16.000Z</time>
      </trkpt>
      <trkpt lat="40.206985" lon="-3.202729">
        <ele>763.862873</ele>
        <time>2021-10-27T16:06:18.000Z</time>
      </trkpt>
      <trkpt lat="40.207062" lon="-3.202549">
        <ele>763.777421</ele>
        <time>2021-10-27T16:06:21.000Z</time>
      </trkpt>
      <trkpt lat="40.207084" lon="-3.202485">
        <ele>763.748351</ele>
        <time>2021-10-27T16:06:22.000Z</time>
      </trkpt>
      <trkpt lat="40.207175" lon="-3.202212">
        <ele>763.624977</ele>
        <time>2021-10-27T16:06:26.000Z</time>
      </trkpt>
      <trkpt lat="40.207257" lon="-3.201924">
        <ele>763.497672</ele>
        <time>2021-10-27T16:06:30.000Z</time>
      </trkpt>
      <trkpt lat="40.207385" lon="-3.201400">
        <ele>763.269807</ele>
        <time>2021-10-27T16:06:37.000Z</time>
      </trkpt>
      <trkpt lat="40.207422" lon="-3.201243">
        <ele>763.201754</ele>
        <time>2021-10-27T16:06:39.000Z</time>
      </trkpt>
      <trkpt lat="40.207554" lon="-3.200745">
        <ele>762.526003</ele>
        <time>2021-10-27T16:06:45.000Z</time>
      </trkpt>
      <trkpt lat="40.207580" lon="-3.200659">
        <ele>762.336545</ele>
        <time>2021-10-27T16:06:46.000Z</time>
      </trkpt>
      <trkpt lat="40.207638" lon="-3.200487">
        <ele>761.951417</ele>
        <time>2021-10-27T16:06:48.000Z</time>
      </trkpt>
      <trkpt lat="40.207729" lon="-3.200237">
        <ele>761.384143</ele>
        <time>2021-10-27T16:06:51.000Z</time>
      </trkpt>
      <trkpt lat="40.207766" lon="-3.200157">
        <ele>761.192570</ele>
        <time>2021-10-27T16:06:52.000Z</time>
      </trkpt>
      <trkpt lat="40.207951" lon="-3.199746">
        <ele>760.215364</ele>
        <time>2021-10-27T16:06:57.000Z</time>
      </trkpt>
      <trkpt lat="40.208077" lon="-3.199498">
        <ele>759.605238</ele>
        <time>2021-10-27T16:07:00.000Z</time>
      </trkpt>
      <trkpt lat="40.208220" lon="-3.199254">
        <ele>758.975245</ele>
        <time>2021-10-27T16:07:03.000Z</time>
      </trkpt>
      <trkpt lat="40.208313" lon="-3.199085">
        <ele>758.548575</ele>
        <time>2021-10-27T16:07:05.000Z</time>
      </trkpt>
      <trkpt lat="40.208356" lon="-3.198996">
        <ele>758.332857</ele>
        <time>2021-10-27T16:07:06.000Z</time>
      </trkpt>
      <trkpt lat="40.208525" lon="-3.198534">
        <ele>757.168090</ele>
        <time>2021-10-27T16:07:11.000Z</time>
      </trkpt>
      <trkpt lat="40.208559" lon="-3.198441">
        <ele>756.932298</ele>
        <time>2021-10-27T16:07:12.000Z</time>
      </trkpt>
      <trkpt lat="40.208765" lon="-3.197974">
        <ele>755.698986</ele>
        <time>2021-10-27T16:07:17.000Z</time>
      </trkpt>
      <trkpt lat="40.208802" lon="-3.197875">
        <ele>755.446931</ele>
        <time>2021-10-27T16:07:18.000Z</time>
      </trkpt>
      <trkpt lat="40.208871" lon="-3.197669">
        <ele>754.932521</ele>
        <time>2021-10-27T16:07:20.000Z</time>
      </trkpt>
      <trkpt lat="40.208948" lon="-3.197357">
        <ele>754.182693</ele>
        <time>2021-10-27T16:07:23.000Z</time>
      </trkpt>
      <trkpt lat="40.208971" lon="-3.197253">
        <ele>753.935089</ele>
        <time>2021-10-27T16:07:24.000Z</time>
      </trkpt>
      <trkpt lat="40.209116" lon="-3.196687">
        <ele>752.182275</ele>
        <time>2021-10-27T16:07:30.000Z</time>
      </trkpt>
      <trkpt lat="40.209178" lon="-3.196411">
        <ele>750.726142</ele>
        <time>2021-10-27T16:07:34.000Z</time>
      </trkpt>
      <trkpt lat="40.209217" lon="-3.196265">
        <ele>749.943274</ele>
        <time>2021-10-27T16:07:36.000Z</time>
      </trkpt>
      <trkpt lat="40.209248" lon="-3.196195">
        <ele>749.533714</ele>
        <time>2021-10-27T16:07:37.000Z</time>
      </trkpt>
      <trkpt lat="40.209388" lon="-3.195898">
        <ele>747.767178</ele>
        <time>2021-10-27T16:07:41.000Z</time>
      </trkpt>
      <trkpt lat="40.209419" lon="-3.195823">
        <ele>747.335539</ele>
        <time>2021-10-27T16:07:42.000Z</time>
      </trkpt>
      <trkpt lat="40.209479" lon="-3.195696">
        <ele>746.579684</ele>
        <time>2021-10-27T16:07:44.000Z</time>
      </trkpt>
      <trkpt lat="40.209540" lon="-3.195567">
        <ele>745.811733</ele>
        <time>2021-10-27T16:07:46.000Z</time>
      </trkpt>
      <trkpt lat="40.209566" lon="-3.195498">
        <ele>745.422299</ele>
        <time>2021-10-27T16:07:47.000Z</time>
      </trkpt>
      <trkpt lat="40.209615" lon="-3.195341">
        <ele>744.563862</ele>
        <time>2021-10-27T16:07:49.000Z</time>
      </trkpt>
      <trkpt lat="40.209673" lon="-3.195184">
        <ele>743.681133</ele>
        <time>2021-10-27T16:07:51.000Z</time>
      </trkpt>
      <trkpt lat="40.209734" lon="-3.195049">
        <ele>742.887203</ele>
        <time>2021-10-27T16:07:53.000Z</time>
      </trkpt>
      <trkpt lat="40.209843" lon="-3.194850">
        <ele>741.647708</ele>
        <time>2021-10-27T16:07:56.000Z</time>
      </trkpt>
      <trkpt lat="40.209874" lon="-3.194778">
        <ele>741.229363</ele>
        <time>2021-10-27T16:07:57.000Z</time>
      </trkpt>
      <trkpt lat="40.209898" lon="-3.194697">
        <ele>740.881782</ele>
        <time>2021-10-27T16:07:58.000Z</time>
      </trkpt>
      <trkpt lat="40.209926" lon="-3.194531">
        <ele>740.464243</ele>
        <time>2021-10-27T16:08:00.000Z</time>
      </trkpt>
      <trkpt lat="40.209957" lon="-3.194376">
        <ele>740.070709</ele>
        <time>2021-10-27T16:08:02.000Z</time>
      </trkpt>
      <trkpt lat="40.209970" lon="-3.194236">
        <ele>739.724323</ele>
        <time>2021-10-27T16:08:04.000Z</time>
      </trkpt>
      <trkpt lat="40.209952" lon="-3.194167">
        <ele>739.545237</ele>
        <time>2021-10-27T16:08:05.000Z</time>
      </trkpt>
      <trkpt lat="40.209925" lon="-3.194092">
        <ele>739.341589</ele>
        <time>2021-10-27T16:08:06.000Z</time>
      </trkpt>
      <trkpt lat="40.209896" lon="-3.194015">
        <ele>739.130721</ele>
        <time>2021-10-27T16:08:07.000Z</time>
      </trkpt>
      <trkpt lat="40.209825" lon="-3.193857">
        <ele>738.680461</ele>
        <time>2021-10-27T16:08:09.000Z</time>
      </trkpt>
      <trkpt lat="40.209668" lon="-3.193537">
        <ele>737.746288</ele>
        <time>2021-10-27T16:08:14.000Z</time>
      </trkpt>
      <trkpt lat="40.209618" lon="-3.193416">
        <ele>737.408383</ele>
        <time>2021-10-27T16:08:16.000Z</time>
      </trkpt>
      <trkpt lat="40.209535" lon="-3.193176">
        <ele>736.761292</ele>
        <time>2021-10-27T16:08:20.000Z</time>
      </trkpt>
      <trkpt lat="40.209502" lon="-3.193040">
        <ele>736.410805</ele>
        <time>2021-10-27T16:08:22.000Z</time>
      </trkpt>
      <trkpt lat="40.209447" lon="-3.192790">
        <ele>735.771806</ele>
        <time>2021-10-27T16:08:26.000Z</time>
      </trkpt>
      <trkpt lat="40.209395" lon="-3.192499">
        <ele>735.268449</ele>
        <time>2021-10-27T16:08:31.000Z</time>
      </trkpt>
      <trkpt lat="40.209388" lon="-3.192441">
        <ele>735.351708</ele>
        <time>2021-10-27T16:08:32.000Z</time>
      </trkpt>
      <trkpt lat="40.209388" lon="-3.192386">
        <ele>735.429693</ele>
        <time>2021-10-27T16:08:33.000Z</time>
      </trkpt>
      <trkpt lat="40.209390" lon="-3.192335">
        <ele>735.502102</ele>
        <time>2021-10-27T16:08:34.000Z</time>
      </trkpt>
      <trkpt lat="40.209388" lon="-3.192296">
        <ele>735.557525</ele>
        <time>2021-10-27T16:08:35.000Z</time>
      </trkpt>
      <trkpt lat="40.209409" lon="-3.192258">
        <ele>735.624033</ele>
        <time>2021-10-27T16:08:36.000Z</time>
      </trkpt>
      <trkpt lat="40.209442" lon="-3.192228">
        <ele>735.698621</ele>
        <time>2021-10-27T16:08:37.000Z</time>
      </trkpt>
      <trkpt lat="40.209601" lon="-3.192158">
        <ele>736.010068</ele>
        <time>2021-10-27T16:08:41.000Z</time>
      </trkpt>
      <trkpt lat="40.209681" lon="-3.192116">
        <ele>736.170093</ele>
        <time>2021-10-27T16:08:43.000Z</time>
      </trkpt>
      <trkpt lat="40.209817" lon="-3.192040">
        <ele>736.444631</ele>
        <time>2021-10-27T16:08:46.000Z</time>
      </trkpt>
      <trkpt lat="40.209873" lon="-3.191975">
        <ele>736.583572</ele>
        <time>2021-10-27T16:08:48.000Z</time>
      </trkpt>
      <trkpt lat="40.209874" lon="-3.191912">
        <ele>736.672919</ele>
        <time>2021-10-27T16:08:50.000Z</time>
      </trkpt>
      <trkpt lat="40.209860" lon="-3.191892">
        <ele>736.711387</ele>
        <time>2021-10-27T16:08:51.000Z</time>
      </trkpt>
      <trkpt lat="40.209850" lon="-3.191818">
        <ele>736.817942</ele>
        <time>2021-10-27T16:09:00.000Z</time>
      </trkpt>
      <trkpt lat="40.209885" lon="-3.191740">
        <ele>736.946216</ele>
        <time>2021-10-27T16:09:03.000Z</time>
      </trkpt>
      <trkpt lat="40.209855" lon="-3.191506">
        <ele>737.282647</ele>
        <time>2021-10-27T16:09:09.000Z</time>
      </trkpt>
      <trkpt lat="40.209852" lon="-3.191121">
        <ele>737.828566</ele>
        <time>2021-10-27T16:09:17.000Z</time>
      </trkpt>
      <trkpt lat="40.209850" lon="-3.190847">
        <ele>738.217088</ele>
        <time>2021-10-27T16:09:23.000Z</time>
      </trkpt>
      <trkpt lat="40.209849" lon="-3.190800">
        <ele>738.283755</ele>
        <time>2021-10-27T16:09:24.000Z</time>
      </trkpt>
      <trkpt lat="40.209849" lon="-3.190752">
        <ele>738.351815</ele>
        <time>2021-10-27T16:09:25.000Z</time>
      </trkpt>
      <trkpt lat="40.209845" lon="-3.190656">
        <ele>738.488135</ele>
        <time>2021-10-27T16:09:27.000Z</time>
      </trkpt>
      <trkpt lat="40.209838" lon="-3.190561">
        <ele>738.767107</ele>
        <time>2021-10-27T16:09:29.000Z</time>
      </trkpt>
      <trkpt lat="40.209831" lon="-3.190466">
        <ele>739.096855</ele>
        <time>2021-10-27T16:09:31.000Z</time>
      </trkpt>
      <trkpt lat="40.209816" lon="-3.190327">
        <ele>739.581869</ele>
        <time>2021-10-27T16:09:34.000Z</time>
      </trkpt>
      <trkpt lat="40.209811" lon="-3.190281">
        <ele>739.742400</ele>
        <time>2021-10-27T16:09:35.000Z</time>
      </trkpt>
      <trkpt lat="40.209804" lon="-3.190141">
        <ele>740.227134</ele>
        <time>2021-10-27T16:09:38.000Z</time>
      </trkpt>
      <trkpt lat="40.209811" lon="-3.189996">
        <ele>740.729107</ele>
        <time>2021-10-27T16:09:41.000Z</time>
      </trkpt>
      <trkpt lat="40.209839" lon="-3.189715">
        <ele>741.708188</ele>
        <time>2021-10-27T16:09:47.000Z</time>
      </trkpt>
      <trkpt lat="40.209855" lon="-3.189638">
        <ele>741.983894</ele>
        <time>2021-10-27T16:09:49.000Z</time>
      </trkpt>
      <trkpt lat="40.209888" lon="-3.189502">
        <ele>742.476920</ele>
        <time>2021-10-27T16:09:53.000Z</time>
      </trkpt>
      <trkpt lat="40.209906" lon="-3.189402">
        <ele>742.831885</ele>
        <time>2021-10-27T16:09:56.000Z</time>
      </trkpt>
      <trkpt lat="40.209945" lon="-3.189257">
        <ele>743.363020</ele>
        <time>2021-10-27T16:10:00.000Z</time>
      </trkpt>
      <trkpt lat="40.209992" lon="-3.189103">
        <ele>743.936002</ele>
        <time>2021-10-27T16:10:04.000Z</time>
      </trkpt>
      <trkpt lat="40.210063" lon="-3.188877">
        <ele>744.780314</ele>
        <time>2021-10-27T16:10:10.000Z</time>
      </trkpt>
      <trkpt lat="40.210080" lon="-3.188806">
        <ele>745.037392</ele>
        <time>2021-10-27T16:10:12.000Z</time>
      </trkpt>
      <trkpt lat="40.210106" lon="-3.188594">
        <ele>745.779231</ele>
        <time>2021-10-27T16:10:18.000Z</time>
      </trkpt>
      <trkpt lat="40.210097" lon="-3.188485">
        <ele>746.158018</ele>
        <time>2021-10-27T16:10:21.000Z</time>
      </trkpt>
      <trkpt lat="40.210050" lon="-3.188339">
        <ele>746.666648</ele>
        <time>2021-10-27T16:10:25.000Z</time>
      </trkpt>
      <trkpt lat="40.210015" lon="-3.188277">
        <ele>746.701988</ele>
        <time>2021-10-27T16:10:27.000Z</time>
      </trkpt>
      <trkpt lat="40.209945" lon="-3.188171">
        <ele>746.766221</ele>
        <time>2021-10-27T16:10:32.000Z</time>
      </trkpt>
      <trkpt lat="40.209931" lon="-3.188145">
        <ele>746.780803</ele>
        <time>2021-10-27T16:10:33.000Z</time>
      </trkpt>
      <trkpt lat="40.209918" lon="-3.188034">
        <ele>746.832276</ele>
        <time>2021-10-27T16:10:36.000Z</time>
      </trkpt>
      <trkpt lat="40.209862" lon="-3.187912">
        <ele>746.897520</ele>
        <time>2021-10-27T16:10:39.000Z</time>
      </trkpt>
      <trkpt lat="40.209831" lon="-3.187868">
        <ele>746.924960</ele>
        <time>2021-10-27T16:10:40.000Z</time>
      </trkpt>
      <trkpt lat="40.209742" lon="-3.187725">
        <ele>747.009517</ele>
        <time>2021-10-27T16:10:43.000Z</time>
      </trkpt>
      <trkpt lat="40.209704" lon="-3.187606">
        <ele>747.068639</ele>
        <time>2021-10-27T16:10:45.000Z</time>
      </trkpt>
      <trkpt lat="40.209678" lon="-3.187476">
        <ele>747.130236</ele>
        <time>2021-10-27T16:10:47.000Z</time>
      </trkpt>
      <trkpt lat="40.209652" lon="-3.187340">
        <ele>747.194497</ele>
        <time>2021-10-27T16:10:49.000Z</time>
      </trkpt>
      <trkpt lat="40.209621" lon="-3.187198">
        <ele>747.262192</ele>
        <time>2021-10-27T16:10:51.000Z</time>
      </trkpt>
      <trkpt lat="40.209605" lon="-3.187126">
        <ele>747.296564</ele>
        <time>2021-10-27T16:10:52.000Z</time>
      </trkpt>
      <trkpt lat="40.209518" lon="-3.186538">
        <ele>747.571095</ele>
        <time>2021-10-27T16:11:00.000Z</time>
      </trkpt>
      <trkpt lat="40.209478" lon="-3.186249">
        <ele>747.705721</ele>
        <time>2021-10-27T16:11:04.000Z</time>
      </trkpt>
      <trkpt lat="40.209424" lon="-3.185971">
        <ele>748.123466</ele>
        <time>2021-10-27T16:11:08.000Z</time>
      </trkpt>
      <trkpt lat="40.209300" lon="-3.185525">
        <ele>748.983470</ele>
        <time>2021-10-27T16:11:15.000Z</time>
      </trkpt>
      <trkpt lat="40.209283" lon="-3.185466">
        <ele>749.097729</ele>
        <time>2021-10-27T16:11:16.000Z</time>
      </trkpt>
      <trkpt lat="40.209216" lon="-3.185238">
        <ele>749.540376</ele>
        <time>2021-10-27T16:11:20.000Z</time>
      </trkpt>
      <trkpt lat="40.209165" lon="-3.185005">
        <ele>749.979553</ele>
        <time>2021-10-27T16:11:24.000Z</time>
      </trkpt>
      <trkpt lat="40.209045" lon="-3.184540">
        <ele>750.868904</ele>
        <time>2021-10-27T16:11:32.000Z</time>
      </trkpt>
      <trkpt lat="40.209014" lon="-3.184423">
        <ele>751.093296</ele>
        <time>2021-10-27T16:11:34.000Z</time>
      </trkpt>
      <trkpt lat="40.208891" lon="-3.184015">
        <ele>751.888079</ele>
        <time>2021-10-27T16:11:41.000Z</time>
      </trkpt>
      <trkpt lat="40.208856" lon="-3.183895">
        <ele>752.163869</ele>
        <time>2021-10-27T16:11:43.000Z</time>
      </trkpt>
      <trkpt lat="40.208840" lon="-3.183835">
        <ele>752.322831</ele>
        <time>2021-10-27T16:11:44.000Z</time>
      </trkpt>
      <trkpt lat="40.208729" lon="-3.183365">
        <ele>753.553362</ele>
        <time>2021-10-27T16:11:52.000Z</time>
      </trkpt>
      <trkpt lat="40.208713" lon="-3.183308">
        <ele>753.705260</ele>
        <time>2021-10-27T16:11:53.000Z</time>
      </trkpt>
      <trkpt lat="40.208604" lon="-3.182925">
        <ele>754.727608</ele>
        <time>2021-10-27T16:12:00.000Z</time>
      </trkpt>
      <trkpt lat="40.208592" lon="-3.182870">
        <ele>754.870683</ele>
        <time>2021-10-27T16:12:01.000Z</time>
      </trkpt>
      <trkpt lat="40.208561" lon="-3.182766">
        <ele>755.149929</ele>
        <time>2021-10-27T16:12:03.000Z</time>
      </trkpt>
      <trkpt lat="40.208528" lon="-3.182664">
        <ele>755.427010</ele>
        <time>2021-10-27T16:12:05.000Z</time>
      </trkpt>
      <trkpt lat="40.208516" lon="-3.182612">
        <ele>755.562885</ele>
        <time>2021-10-27T16:12:06.000Z</time>
      </trkpt>
      <trkpt lat="40.208469" lon="-3.182406">
        <ele>756.100653</ele>
        <time>2021-10-27T16:12:10.000Z</time>
      </trkpt>
      <trkpt lat="40.208455" lon="-3.182355">
        <ele>756.236210</ele>
        <time>2021-10-27T16:12:11.000Z</time>
      </trkpt>
      <trkpt lat="40.208442" lon="-3.182301">
        <ele>756.377831</ele>
        <time>2021-10-27T16:12:12.000Z</time>
      </trkpt>
      <trkpt lat="40.208323" lon="-3.181902">
        <ele>757.449252</ele>
        <time>2021-10-27T16:12:20.000Z</time>
      </trkpt>
      <trkpt lat="40.208306" lon="-3.181853">
        <ele>757.583870</ele>
        <time>2021-10-27T16:12:21.000Z</time>
      </trkpt>
      <trkpt lat="40.208244" lon="-3.181675">
        <ele>758.200476</ele>
        <time>2021-10-27T16:12:25.000Z</time>
      </trkpt>
      <trkpt lat="40.208199" lon="-3.181551">
        <ele>758.794205</ele>
        <time>2021-10-27T16:12:28.000Z</time>
      </trkpt>
      <trkpt lat="40.208161" lon="-3.181427">
        <ele>759.372031</ele>
        <time>2021-10-27T16:12:31.000Z</time>
      </trkpt>
      <trkpt lat="40.208132" lon="-3.181308">
        <ele>759.912236</ele>
        <time>2021-10-27T16:12:34.000Z</time>
      </trkpt>
      <trkpt lat="40.208107" lon="-3.181194">
        <ele>760.425176</ele>
        <time>2021-10-27T16:12:37.000Z</time>
      </trkpt>
      <trkpt lat="40.208062" lon="-3.181002">
        <ele>761.293741</ele>
        <time>2021-10-27T16:12:42.000Z</time>
      </trkpt>
      <trkpt lat="40.208051" lon="-3.180921">
        <ele>761.649538</ele>
        <time>2021-10-27T16:12:44.000Z</time>
      </trkpt>
      <trkpt lat="40.207999" lon="-3.180580">
        <ele>763.153375</ele>
        <time>2021-10-27T16:12:52.000Z</time>
      </trkpt>
      <trkpt lat="40.207951" lon="-3.180321">
        <ele>764.305984</ele>
        <time>2021-10-27T16:12:58.000Z</time>
      </trkpt>
      <trkpt lat="40.207938" lon="-3.180234">
        <ele>764.689368</ele>
        <time>2021-10-27T16:13:00.000Z</time>
      </trkpt>
      <trkpt lat="40.207905" lon="-3.180074">
        <ele>765.406112</ele>
        <time>2021-10-27T16:13:04.000Z</time>
      </trkpt>
      <trkpt lat="40.207866" lon="-3.179886">
        <ele>766.248620</ele>
        <time>2021-10-27T16:13:09.000Z</time>
      </trkpt>
      <trkpt lat="40.207812" lon="-3.179659">
        <ele>767.276854</ele>
        <time>2021-10-27T16:13:15.000Z</time>
      </trkpt>
      <trkpt lat="40.207774" lon="-3.179550">
        <ele>767.795041</ele>
        <time>2021-10-27T16:13:18.000Z</time>
      </trkpt>
      <trkpt lat="40.207747" lon="-3.179481">
        <ele>768.106066</ele>
        <time>2021-10-27T16:13:20.000Z</time>
      </trkpt>
      <trkpt lat="40.207722" lon="-3.179416">
        <ele>768.255934</ele>
        <time>2021-10-27T16:13:22.000Z</time>
      </trkpt>
      <trkpt lat="40.207688" lon="-3.179371">
        <ele>768.386287</ele>
        <time>2021-10-27T16:13:24.000Z</time>
      </trkpt>
      <trkpt lat="40.207668" lon="-3.179351">
        <ele>768.454143</ele>
        <time>2021-10-27T16:13:25.000Z</time>
      </trkpt>
      <trkpt lat="40.207632" lon="-3.179304">
        <ele>768.591220</ele>
        <time>2021-10-27T16:13:27.000Z</time>
      </trkpt>
      <trkpt lat="40.207576" lon="-3.179207">
        <ele>768.841619</ele>
        <time>2021-10-27T16:13:30.000Z</time>
      </trkpt>
      <trkpt lat="40.207468" lon="-3.178998">
        <ele>769.361270</ele>
        <time>2021-10-27T16:13:35.000Z</time>
      </trkpt>
      <trkpt lat="40.207442" lon="-3.178953">
        <ele>769.477468</ele>
        <time>2021-10-27T16:13:36.000Z</time>
      </trkpt>
      <trkpt lat="40.207256" lon="-3.178506">
        <ele>770.525725</ele>
        <time>2021-10-27T16:13:45.000Z</time>
      </trkpt>
      <trkpt lat="40.207152" lon="-3.177987">
        <ele>771.630667</ele>
        <time>2021-10-27T16:13:54.000Z</time>
      </trkpt>
      <trkpt lat="40.207103" lon="-3.177759">
        <ele>772.118418</ele>
        <time>2021-10-27T16:13:58.000Z</time>
      </trkpt>
      <trkpt lat="40.207061" lon="-3.177591">
        <ele>772.482442</ele>
        <time>2021-10-27T16:14:01.000Z</time>
      </trkpt>
      <trkpt lat="40.206966" lon="-3.177251">
        <ele>772.986702</ele>
        <time>2021-10-27T16:14:07.000Z</time>
      </trkpt>
      <trkpt lat="40.206920" lon="-3.177079">
        <ele>773.054129</ele>
        <time>2021-10-27T16:14:10.000Z</time>
      </trkpt>
      <trkpt lat="40.206880" lon="-3.176909">
        <ele>773.119945</ele>
        <time>2021-10-27T16:14:13.000Z</time>
      </trkpt>
      <trkpt lat="40.206835" lon="-3.176739">
        <ele>773.186514</ele>
        <time>2021-10-27T16:14:16.000Z</time>
      </trkpt>
      <trkpt lat="40.206794" lon="-3.176633">
        <ele>773.230475</ele>
        <time>2021-10-27T16:14:18.000Z</time>
      </trkpt>
      <trkpt lat="40.206702" lon="-3.176352">
        <ele>773.343593</ele>
        <time>2021-10-27T16:14:23.000Z</time>
      </trkpt>
      <trkpt lat="40.206681" lon="-3.176298">
        <ele>773.366014</ele>
        <time>2021-10-27T16:14:24.000Z</time>
      </trkpt>
      <trkpt lat="40.206658" lon="-3.176244">
        <ele>773.388890</ele>
        <time>2021-10-27T16:14:25.000Z</time>
      </trkpt>
      <trkpt lat="40.206487" lon="-3.175901">
        <ele>773.540442</ele>
        <time>2021-10-27T16:14:31.000Z</time>
      </trkpt>
      <trkpt lat="40.206355" lon="-3.175544">
        <ele>773.687195</ele>
        <time>2021-10-27T16:14:36.000Z</time>
      </trkpt>
      <trkpt lat="40.206324" lon="-3.175476">
        <ele>773.716496</ele>
        <time>2021-10-27T16:14:37.000Z</time>
      </trkpt>
      <trkpt lat="40.206168" lon="-3.175034">
        <ele>773.566879</ele>
        <time>2021-10-27T16:14:43.000Z</time>
      </trkpt>
      <trkpt lat="40.205982" lon="-3.174583">
        <ele>773.072513</ele>
        <time>2021-10-27T16:14:49.000Z</time>
      </trkpt>
      <trkpt lat="40.205907" lon="-3.174434">
        <ele>772.900395</ele>
        <time>2021-10-27T16:14:51.000Z</time>
      </trkpt>
      <trkpt lat="40.205874" lon="-3.174356">
        <ele>772.814391</ele>
        <time>2021-10-27T16:14:52.000Z</time>
      </trkpt>
      <trkpt lat="40.205848" lon="-3.174276">
        <ele>772.730534</ele>
        <time>2021-10-27T16:14:53.000Z</time>
      </trkpt>
      <trkpt lat="40.205784" lon="-3.174035">
        <ele>772.484435</ele>
        <time>2021-10-27T16:14:56.000Z</time>
      </trkpt>
      <trkpt lat="40.205766" lon="-3.173955">
        <ele>772.403995</ele>
        <time>2021-10-27T16:14:57.000Z</time>
      </trkpt>
      <trkpt lat="40.205753" lon="-3.173710">
        <ele>772.167119</ele>
        <time>2021-10-27T16:15:00.000Z</time>
      </trkpt>
      <trkpt lat="40.205713" lon="-3.173208">
        <ele>771.680305</ele>
        <time>2021-10-27T16:15:06.000Z</time>
      </trkpt>
      <trkpt lat="40.205617" lon="-3.172546">
        <ele>770.072100</ele>
        <time>2021-10-27T16:15:14.000Z</time>
      </trkpt>
      <trkpt lat="40.205557" lon="-3.172085">
        <ele>768.762292</ele>
        <time>2021-10-27T16:15:19.000Z</time>
      </trkpt>
      <trkpt lat="40.205531" lon="-3.171889">
        <ele>768.205106</ele>
        <time>2021-10-27T16:15:21.000Z</time>
      </trkpt>
      <trkpt lat="40.205509" lon="-3.171689">
        <ele>767.639155</ele>
        <time>2021-10-27T16:15:23.000Z</time>
      </trkpt>
      <trkpt lat="40.205493" lon="-3.171381">
        <ele>766.774498</ele>
        <time>2021-10-27T16:15:26.000Z</time>
      </trkpt>
      <trkpt lat="40.205495" lon="-3.171276">
        <ele>766.480317</ele>
        <time>2021-10-27T16:15:27.000Z</time>
      </trkpt>
      <trkpt lat="40.205506" lon="-3.170953">
        <ele>765.574741</ele>
        <time>2021-10-27T16:15:30.000Z</time>
      </trkpt>
      <trkpt lat="40.205532" lon="-3.170731">
        <ele>764.945683</ele>
        <time>2021-10-27T16:15:32.000Z</time>
      </trkpt>
      <trkpt lat="40.205552" lon="-3.170621">
        <ele>764.695102</ele>
        <time>2021-10-27T16:15:33.000Z</time>
      </trkpt>
      <trkpt lat="40.205579" lon="-3.170510">
        <ele>764.438745</ele>
        <time>2021-10-27T16:15:34.000Z</time>
      </trkpt>
      <trkpt lat="40.205640" lon="-3.170286">
        <ele>763.915411</ele>
        <time>2021-10-27T16:15:36.000Z</time>
      </trkpt>
      <trkpt lat="40.205696" lon="-3.170057">
        <ele>763.386270</ele>
        <time>2021-10-27T16:15:38.000Z</time>
      </trkpt>
      <trkpt lat="40.205708" lon="-3.169941">
        <ele>763.128669</ele>
        <time>2021-10-27T16:15:39.000Z</time>
      </trkpt>
      <trkpt lat="40.205724" lon="-3.169292">
        <ele>761.699734</ele>
        <time>2021-10-27T16:15:45.000Z</time>
      </trkpt>
      <trkpt lat="40.205715" lon="-3.168993">
        <ele>761.041243</ele>
        <time>2021-10-27T16:15:48.000Z</time>
      </trkpt>
      <trkpt lat="40.205721" lon="-3.168687">
        <ele>760.367636</ele>
        <time>2021-10-27T16:15:51.000Z</time>
      </trkpt>
      <trkpt lat="40.205714" lon="-3.168588">
        <ele>760.148845</ele>
        <time>2021-10-27T16:15:52.000Z</time>
      </trkpt>
      <trkpt lat="40.205613" lon="-3.168123">
        <ele>759.463243</ele>
        <time>2021-10-27T16:15:57.000Z</time>
      </trkpt>
      <trkpt lat="40.205465" lon="-3.167698">
        <ele>759.015697</ele>
        <time>2021-10-27T16:16:02.000Z</time>
      </trkpt>
      <trkpt lat="40.205398" lon="-3.167530">
        <ele>758.834103</ele>
        <time>2021-10-27T16:16:04.000Z</time>
      </trkpt>
      <trkpt lat="40.205324" lon="-3.167381">
        <ele>758.663807</ele>
        <time>2021-10-27T16:16:06.000Z</time>
      </trkpt>
      <trkpt lat="40.205120" lon="-3.167041">
        <ele>758.249528</ele>
        <time>2021-10-27T16:16:11.000Z</time>
      </trkpt>
      <trkpt lat="40.205025" lon="-3.166921">
        <ele>758.083924</ele>
        <time>2021-10-27T16:16:13.000Z</time>
      </trkpt>
      <trkpt lat="40.204868" lon="-3.166770">
        <ele>757.839530</ele>
        <time>2021-10-27T16:16:16.000Z</time>
      </trkpt>
      <trkpt lat="40.204500" lon="-3.166282">
        <ele>757.166888</ele>
        <time>2021-10-27T16:16:24.000Z</time>
      </trkpt>
      <trkpt lat="40.204455" lon="-3.166221">
        <ele>757.081630</ele>
        <time>2021-10-27T16:16:25.000Z</time>
      </trkpt>
      <trkpt lat="40.204141" lon="-3.165786">
        <ele>756.479918</ele>
        <time>2021-10-27T16:16:32.000Z</time>
      </trkpt>
      <trkpt lat="40.203906" lon="-3.165351">
        <ele>755.944273</ele>
        <time>2021-10-27T16:16:38.000Z</time>
      </trkpt>
      <trkpt lat="40.203864" lon="-3.165287">
        <ele>755.859445</ele>
        <time>2021-10-27T16:16:39.000Z</time>
      </trkpt>
      <trkpt lat="40.203822" lon="-3.165224">
        <ele>755.775377</ele>
        <time>2021-10-27T16:16:40.000Z</time>
      </trkpt>
      <trkpt lat="40.203748" lon="-3.165089">
        <ele>755.608325</ele>
        <time>2021-10-27T16:16:42.000Z</time>
      </trkpt>
      <trkpt lat="40.203658" lon="-3.164856">
        <ele>755.345837</ele>
        <time>2021-10-27T16:16:45.000Z</time>
      </trkpt>
      <trkpt lat="40.203439" lon="-3.164291">
        <ele>754.553595</ele>
        <time>2021-10-27T16:16:52.000Z</time>
      </trkpt>
      <trkpt lat="40.203406" lon="-3.164226">
        <ele>754.446263</ele>
        <time>2021-10-27T16:16:53.000Z</time>
      </trkpt>
      <trkpt lat="40.203389" lon="-3.164161">
        <ele>754.351781</ele>
        <time>2021-10-27T16:16:54.000Z</time>
      </trkpt>
      <trkpt lat="40.203377" lon="-3.164096">
        <ele>754.259821</ele>
        <time>2021-10-27T16:16:55.000Z</time>
      </trkpt>
      <trkpt lat="40.203339" lon="-3.163964">
        <ele>754.065833</ele>
        <time>2021-10-27T16:16:57.000Z</time>
      </trkpt>
      <trkpt lat="40.203260" lon="-3.163759">
        <ele>753.750070</ele>
        <time>2021-10-27T16:17:00.000Z</time>
      </trkpt>
      <trkpt lat="40.203186" lon="-3.163543">
        <ele>753.424519</ele>
        <time>2021-10-27T16:17:03.000Z</time>
      </trkpt>
      <trkpt lat="40.203083" lon="-3.163269">
        <ele>753.004555</ele>
        <time>2021-10-27T16:17:07.000Z</time>
      </trkpt>
      <trkpt lat="40.203028" lon="-3.163148">
        <ele>752.810920</ele>
        <time>2021-10-27T16:17:09.000Z</time>
      </trkpt>
      <trkpt lat="40.203003" lon="-3.163082">
        <ele>752.709609</ele>
        <time>2021-10-27T16:17:10.000Z</time>
      </trkpt>
      <trkpt lat="40.202978" lon="-3.163012">
        <ele>752.603343</ele>
        <time>2021-10-27T16:17:11.000Z</time>
      </trkpt>
      <trkpt lat="40.202951" lon="-3.162945">
        <ele>752.499167</ele>
        <time>2021-10-27T16:17:12.000Z</time>
      </trkpt>
      <trkpt lat="40.202891" lon="-3.162806">
        <ele>752.279602</ele>
        <time>2021-10-27T16:17:14.000Z</time>
      </trkpt>
      <trkpt lat="40.202797" lon="-3.162620">
        <ele>751.972892</ele>
        <time>2021-10-27T16:17:17.000Z</time>
      </trkpt>
      <trkpt lat="40.202777" lon="-3.162560">
        <ele>751.885285</ele>
        <time>2021-10-27T16:17:18.000Z</time>
      </trkpt>
      <trkpt lat="40.202714" lon="-3.162309">
        <ele>751.613787</ele>
        <time>2021-10-27T16:17:22.000Z</time>
      </trkpt>
      <trkpt lat="40.202667" lon="-3.162024">
        <ele>751.314172</ele>
        <time>2021-10-27T16:17:26.000Z</time>
      </trkpt>
      <trkpt lat="40.202652" lon="-3.161953">
        <ele>751.238472</ele>
        <time>2021-10-27T16:17:27.000Z</time>
      </trkpt>
      <trkpt lat="40.202635" lon="-3.161881">
        <ele>751.161030</ele>
        <time>2021-10-27T16:17:28.000Z</time>
      </trkpt>
      <trkpt lat="40.202579" lon="-3.161666">
        <ele>750.927601</ele>
        <time>2021-10-27T16:17:31.000Z</time>
      </trkpt>
      <trkpt lat="40.202486" lon="-3.161468">
        <ele>750.688740</ele>
        <time>2021-10-27T16:17:34.000Z</time>
      </trkpt>
      <trkpt lat="40.202451" lon="-3.161405">
        <ele>750.608686</ele>
        <time>2021-10-27T16:17:35.000Z</time>
      </trkpt>
      <trkpt lat="40.202383" lon="-3.161190">
        <ele>750.369557</ele>
        <time>2021-10-27T16:17:38.000Z</time>
      </trkpt>
      <trkpt lat="40.202269" lon="-3.160808">
        <ele>749.948110</ele>
        <time>2021-10-27T16:17:43.000Z</time>
      </trkpt>
      <trkpt lat="40.202220" lon="-3.160648">
        <ele>749.770968</ele>
        <time>2021-10-27T16:17:45.000Z</time>
      </trkpt>
      <trkpt lat="40.202100" lon="-3.160225">
        <ele>749.310785</ele>
        <time>2021-10-27T16:17:50.000Z</time>
      </trkpt>
      <trkpt lat="40.202084" lon="-3.160135">
        <ele>749.217847</ele>
        <time>2021-10-27T16:17:51.000Z</time>
      </trkpt>
      <trkpt lat="40.202048" lon="-3.159960">
        <ele>749.035566</ele>
        <time>2021-10-27T16:17:53.000Z</time>
      </trkpt>
      <trkpt lat="40.202024" lon="-3.159875">
        <ele>748.944421</ele>
        <time>2021-10-27T16:17:54.000Z</time>
      </trkpt>
      <trkpt lat="40.201960" lon="-3.159718">
        <ele>748.765433</ele>
        <time>2021-10-27T16:17:56.000Z</time>
      </trkpt>
      <trkpt lat="40.201938" lon="-3.159635">
        <ele>748.677071</ele>
        <time>2021-10-27T16:17:57.000Z</time>
      </trkpt>
      <trkpt lat="40.201900" lon="-3.159467">
        <ele>748.500848</ele>
        <time>2021-10-27T16:17:59.000Z</time>
      </trkpt>
      <trkpt lat="40.201799" lon="-3.159237">
        <ele>748.234013</ele>
        <time>2021-10-27T16:18:02.000Z</time>
      </trkpt>
      <trkpt lat="40.201723" lon="-3.159091">
        <ele>748.056310</ele>
        <time>2021-10-27T16:18:04.000Z</time>
      </trkpt>
      <trkpt lat="40.201546" lon="-3.158688">
        <ele>747.588747</ele>
        <time>2021-10-27T16:18:09.000Z</time>
      </trkpt>
      <trkpt lat="40.201429" lon="-3.158342">
        <ele>747.208169</ele>
        <time>2021-10-27T16:18:13.000Z</time>
      </trkpt>
      <trkpt lat="40.201360" lon="-3.158087">
        <ele>747.091821</ele>
        <time>2021-10-27T16:18:16.000Z</time>
      </trkpt>
      <trkpt lat="40.201253" lon="-3.157486">
        <ele>747.046963</ele>
        <time>2021-10-27T16:18:23.000Z</time>
      </trkpt>
      <trkpt lat="40.201070" lon="-3.156922">
        <ele>747.002419</ele>
        <time>2021-10-27T16:18:30.000Z</time>
      </trkpt>
      <trkpt lat="40.200938" lon="-3.156428">
        <ele>746.964376</ele>
        <time>2021-10-27T16:18:36.000Z</time>
      </trkpt>
      <trkpt lat="40.200878" lon="-3.156009">
        <ele>746.933387</ele>
        <time>2021-10-27T16:18:41.000Z</time>
      </trkpt>
      <trkpt lat="40.200867" lon="-3.155924">
        <ele>746.907908</ele>
        <time>2021-10-27T16:18:42.000Z</time>
      </trkpt>
      <trkpt lat="40.200812" lon="-3.155610">
        <ele>746.804898</ele>
        <time>2021-10-27T16:18:46.000Z</time>
      </trkpt>
      <trkpt lat="40.200761" lon="-3.155380">
        <ele>746.728317</ele>
        <time>2021-10-27T16:18:49.000Z</time>
      </trkpt>
      <trkpt lat="40.200722" lon="-3.155010">
        <ele>746.608886</ele>
        <time>2021-10-27T16:18:54.000Z</time>
      </trkpt>
      <trkpt lat="40.200692" lon="-3.154677">
        <ele>746.501669</ele>
        <time>2021-10-27T16:18:59.000Z</time>
      </trkpt>
      <trkpt lat="40.200674" lon="-3.154620">
        <ele>746.481947</ele>
        <time>2021-10-27T16:19:00.000Z</time>
      </trkpt>
      <trkpt lat="40.200653" lon="-3.154563">
        <ele>746.461711</ele>
        <time>2021-10-27T16:19:01.000Z</time>
      </trkpt>
      <trkpt lat="40.200627" lon="-3.154509">
        <ele>746.441300</ele>
        <time>2021-10-27T16:19:02.000Z</time>
      </trkpt>
      <trkpt lat="40.200525" lon="-3.154352">
        <ele>746.375393</ele>
        <time>2021-10-27T16:19:05.000Z</time>
      </trkpt>
      <trkpt lat="40.200297" lon="-3.154039">
        <ele>746.237090</ele>
        <time>2021-10-27T16:19:10.000Z</time>
      </trkpt>
      <trkpt lat="40.200248" lon="-3.153969">
        <ele>746.206729</ele>
        <time>2021-10-27T16:19:11.000Z</time>
      </trkpt>
      <trkpt lat="40.200154" lon="-3.153823">
        <ele>746.062903</ele>
        <time>2021-10-27T16:19:13.000Z</time>
      </trkpt>
      <trkpt lat="40.200065" lon="-3.153671">
        <ele>745.853055</ele>
        <time>2021-10-27T16:19:15.000Z</time>
      </trkpt>
      <trkpt lat="40.199988" lon="-3.153508">
        <ele>745.643062</ele>
        <time>2021-10-27T16:19:17.000Z</time>
      </trkpt>
      <trkpt lat="40.199880" lon="-3.153254">
        <ele>745.324543</ele>
        <time>2021-10-27T16:19:20.000Z</time>
      </trkpt>
      <trkpt lat="40.199739" lon="-3.152924">
        <ele>744.910240</ele>
        <time>2021-10-27T16:19:24.000Z</time>
      </trkpt>
      <trkpt lat="40.199459" lon="-3.152310">
        <ele>744.126707</ele>
        <time>2021-10-27T16:19:32.000Z</time>
      </trkpt>
      <trkpt lat="40.199429" lon="-3.152238">
        <ele>744.036843</ele>
        <time>2021-10-27T16:19:33.000Z</time>
      </trkpt>
      <trkpt lat="40.199312" lon="-3.151964">
        <ele>743.692895</ele>
        <time>2021-10-27T16:19:37.000Z</time>
      </trkpt>
      <trkpt lat="40.199256" lon="-3.151835">
        <ele>743.805532</ele>
        <time>2021-10-27T16:19:39.000Z</time>
      </trkpt>
      <trkpt lat="40.199200" lon="-3.151709">
        <ele>744.280263</ele>
        <time>2021-10-27T16:19:41.000Z</time>
      </trkpt>
      <trkpt lat="40.199150" lon="-3.151585">
        <ele>744.736889</ele>
        <time>2021-10-27T16:19:43.000Z</time>
      </trkpt>
      <trkpt lat="40.199029" lon="-3.151296">
        <ele>745.810146</ele>
        <time>2021-10-27T16:19:48.000Z</time>
      </trkpt>
      <trkpt lat="40.198923" lon="-3.151019">
        <ele>746.819086</ele>
        <time>2021-10-27T16:19:53.000Z</time>
      </trkpt>
      <trkpt lat="40.198864" lon="-3.150864">
        <ele>747.383057</ele>
        <time>2021-10-27T16:19:56.000Z</time>
      </trkpt>
      <trkpt lat="40.198778" lon="-3.150613">
        <ele>748.278922</ele>
        <time>2021-10-27T16:20:01.000Z</time>
      </trkpt>
      <trkpt lat="40.198744" lon="-3.150512">
        <ele>748.638361</ele>
        <time>2021-10-27T16:20:03.000Z</time>
      </trkpt>
      <trkpt lat="40.198719" lon="-3.150406">
        <ele>748.999637</ele>
        <time>2021-10-27T16:20:05.000Z</time>
      </trkpt>
      <trkpt lat="40.198704" lon="-3.150355">
        <ele>749.177609</ele>
        <time>2021-10-27T16:20:06.000Z</time>
      </trkpt>
      <trkpt lat="40.198688" lon="-3.150306">
        <ele>749.351149</ele>
        <time>2021-10-27T16:20:07.000Z</time>
      </trkpt>
      <trkpt lat="40.198634" lon="-3.150132">
        <ele>749.962776</ele>
        <time>2021-10-27T16:20:11.000Z</time>
      </trkpt>
      <trkpt lat="40.198622" lon="-3.150094">
        <ele>750.096685</ele>
        <time>2021-10-27T16:20:12.000Z</time>
      </trkpt>
      <trkpt lat="40.198611" lon="-3.150057">
        <ele>750.225983</ele>
        <time>2021-10-27T16:20:13.000Z</time>
      </trkpt>
      <trkpt lat="40.198602" lon="-3.150020">
        <ele>750.352437</ele>
        <time>2021-10-27T16:20:14.000Z</time>
      </trkpt>
      <trkpt lat="40.198593" lon="-3.149987">
        <ele>750.466549</ele>
        <time>2021-10-27T16:20:15.000Z</time>
      </trkpt>
      <trkpt lat="40.198588" lon="-3.149956">
        <ele>750.569728</ele>
        <time>2021-10-27T16:20:16.000Z</time>
      </trkpt>
      <trkpt lat="40.198582" lon="-3.149924">
        <ele>750.677032</ele>
        <time>2021-10-27T16:20:17.000Z</time>
      </trkpt>
      <trkpt lat="40.198572" lon="-3.149894">
        <ele>750.783627</ele>
        <time>2021-10-27T16:20:18.000Z</time>
      </trkpt>
      <trkpt lat="40.198562" lon="-3.149867">
        <ele>750.881345</ele>
        <time>2021-10-27T16:20:19.000Z</time>
      </trkpt>
      <trkpt lat="40.198529" lon="-3.149771">
        <ele>751.224176</ele>
        <time>2021-10-27T16:20:23.000Z</time>
      </trkpt>
      <trkpt lat="40.198519" lon="-3.149747">
        <ele>751.339850</ele>
        <time>2021-10-27T16:20:24.000Z</time>
      </trkpt>
      <trkpt lat="40.198508" lon="-3.149725">
        <ele>751.476195</ele>
        <time>2021-10-27T16:20:25.000Z</time>
      </trkpt>
      <trkpt lat="40.198498" lon="-3.149702">
        <ele>751.613424</ele>
        <time>2021-10-27T16:20:26.000Z</time>
      </trkpt>
      <trkpt lat="40.198489" lon="-3.149678">
        <ele>751.752060</ele>
        <time>2021-10-27T16:20:27.000Z</time>
      </trkpt>
      <trkpt lat="40.198480" lon="-3.149654">
        <ele>751.890696</ele>
        <time>2021-10-27T16:20:28.000Z</time>
      </trkpt>
      <trkpt lat="40.198462" lon="-3.149604">
        <ele>752.177314</ele>
        <time>2021-10-27T16:20:30.000Z</time>
      </trkpt>
      <trkpt lat="40.198431" lon="-3.149532">
        <ele>752.605884</ele>
        <time>2021-10-27T16:20:33.000Z</time>
      </trkpt>
      <trkpt lat="40.198420" lon="-3.149509">
        <ele>752.746596</ele>
        <time>2021-10-27T16:20:34.000Z</time>
      </trkpt>
      <trkpt lat="40.198363" lon="-3.149390">
        <ele>753.474940</ele>
        <time>2021-10-27T16:20:39.000Z</time>
      </trkpt>
      <trkpt lat="40.198343" lon="-3.149338">
        <ele>753.776830</ele>
        <time>2021-10-27T16:20:41.000Z</time>
      </trkpt>
      <trkpt lat="40.198279" lon="-3.149203">
        <ele>754.600717</ele>
        <time>2021-10-27T16:20:47.000Z</time>
      </trkpt>
      <trkpt lat="40.198265" lon="-3.149154">
        <ele>754.871991</ele>
        <time>2021-10-27T16:20:49.000Z</time>
      </trkpt>
      <trkpt lat="40.198256" lon="-3.149102">
        <ele>755.148462</ele>
        <time>2021-10-27T16:20:51.000Z</time>
      </trkpt>
      <trkpt lat="40.198245" lon="-3.148964">
        <ele>755.867920</ele>
        <time>2021-10-27T16:20:56.000Z</time>
      </trkpt>
      <trkpt lat="40.198243" lon="-3.148938">
        <ele>756.003419</ele>
        <time>2021-10-27T16:20:57.000Z</time>
      </trkpt>
      <trkpt lat="40.198239" lon="-3.148833">
        <ele>756.548553</ele>
        <time>2021-10-27T16:21:02.000Z</time>
      </trkpt>
      <trkpt lat="40.198238" lon="-3.148812">
        <ele>756.657656</ele>
        <time>2021-10-27T16:21:03.000Z</time>
      </trkpt>
      <trkpt lat="40.198237" lon="-3.148790">
        <ele>756.771934</ele>
        <time>2021-10-27T16:21:04.000Z</time>
      </trkpt>
      <trkpt lat="40.198237" lon="-3.148768">
        <ele>756.886011</ele>
        <time>2021-10-27T16:21:05.000Z</time>
      </trkpt>
      <trkpt lat="40.198238" lon="-3.148680">
        <ele>757.342368</ele>
        <time>2021-10-27T16:21:09.000Z</time>
      </trkpt>
      <trkpt lat="40.198235" lon="-3.148635">
        <ele>757.576594</ele>
        <time>2021-10-27T16:21:11.000Z</time>
      </trkpt>
      <trkpt lat="40.198232" lon="-3.148590">
        <ele>757.810820</ele>
        <time>2021-10-27T16:21:13.000Z</time>
      </trkpt>
      <trkpt lat="40.198229" lon="-3.148566">
        <ele>757.936922</ele>
        <time>2021-10-27T16:21:14.000Z</time>
      </trkpt>
      <trkpt lat="40.198214" lon="-3.148471">
        <ele>758.439941</ele>
        <time>2021-10-27T16:21:18.000Z</time>
      </trkpt>
      <trkpt lat="40.198207" lon="-3.148446">
        <ele>758.578010</ele>
        <time>2021-10-27T16:21:19.000Z</time>
      </trkpt>
      <trkpt lat="40.198200" lon="-3.148422">
        <ele>758.711221</ele>
        <time>2021-10-27T16:21:20.000Z</time>
      </trkpt>
      <trkpt lat="40.198176" lon="-3.148345">
        <ele>759.142453</ele>
        <time>2021-10-27T16:21:23.000Z</time>
      </trkpt>
      <trkpt lat="40.198165" lon="-3.148318">
        <ele>759.301127</ele>
        <time>2021-10-27T16:21:24.000Z</time>
      </trkpt>
      <trkpt lat="40.198152" lon="-3.148292">
        <ele>759.462262</ele>
        <time>2021-10-27T16:21:25.000Z</time>
      </trkpt>
      <trkpt lat="40.198126" lon="-3.148239">
        <ele>759.788883</ele>
        <time>2021-10-27T16:21:27.000Z</time>
      </trkpt>
      <trkpt lat="40.198114" lon="-3.148210">
        <ele>759.959905</ele>
        <time>2021-10-27T16:21:28.000Z</time>
      </trkpt>
      <trkpt lat="40.198072" lon="-3.148129">
        <ele>760.467552</ele>
        <time>2021-10-27T16:21:31.000Z</time>
      </trkpt>
      <trkpt lat="40.198014" lon="-3.148013">
        <ele>761.186463</ele>
        <time>2021-10-27T16:21:35.000Z</time>
      </trkpt>
      <trkpt lat="40.197941" lon="-3.147835">
        <ele>762.234079</ele>
        <time>2021-10-27T16:21:40.000Z</time>
      </trkpt>
      <trkpt lat="40.197925" lon="-3.147799">
        <ele>762.450052</ele>
        <time>2021-10-27T16:21:41.000Z</time>
      </trkpt>
      <trkpt lat="40.197907" lon="-3.147764">
        <ele>762.668842</ele>
        <time>2021-10-27T16:21:42.000Z</time>
      </trkpt>
      <trkpt lat="40.197790" lon="-3.147487">
        <ele>762.749896</ele>
        <time>2021-10-27T16:21:48.000Z</time>
      </trkpt>
      <trkpt lat="40.197730" lon="-3.147363">
        <ele>762.082841</ele>
        <time>2021-10-27T16:21:50.000Z</time>
      </trkpt>
      <trkpt lat="40.197695" lon="-3.147301">
        <ele>761.732493</ele>
        <time>2021-10-27T16:21:51.000Z</time>
      </trkpt>
      <trkpt lat="40.197631" lon="-3.147169">
        <ele>761.021991</ele>
        <time>2021-10-27T16:21:53.000Z</time>
      </trkpt>
      <trkpt lat="40.197569" lon="-3.147016">
        <ele>760.234913</ele>
        <time>2021-10-27T16:21:55.000Z</time>
      </trkpt>
      <trkpt lat="40.197519" lon="-3.146846">
        <ele>759.407074</ele>
        <time>2021-10-27T16:21:57.000Z</time>
      </trkpt>
      <trkpt lat="40.197498" lon="-3.146757">
        <ele>758.983767</ele>
        <time>2021-10-27T16:21:58.000Z</time>
      </trkpt>
      <trkpt lat="40.197482" lon="-3.146665">
        <ele>758.554983</ele>
        <time>2021-10-27T16:21:59.000Z</time>
      </trkpt>
      <trkpt lat="40.197441" lon="-3.146365">
        <ele>757.170018</ele>
        <time>2021-10-27T16:22:02.000Z</time>
      </trkpt>
      <trkpt lat="40.197434" lon="-3.146255">
        <ele>756.668404</ele>
        <time>2021-10-27T16:22:03.000Z</time>
      </trkpt>
      <trkpt lat="40.197426" lon="-3.146141">
        <ele>756.148162</ele>
        <time>2021-10-27T16:22:04.000Z</time>
      </trkpt>
      <trkpt lat="40.197410" lon="-3.145904">
        <ele>755.066944</ele>
        <time>2021-10-27T16:22:06.000Z</time>
      </trkpt>
      <trkpt lat="40.197386" lon="-3.145661">
        <ele>753.953465</ele>
        <time>2021-10-27T16:22:08.000Z</time>
      </trkpt>
      <trkpt lat="40.197369" lon="-3.145541">
        <ele>753.398838</ele>
        <time>2021-10-27T16:22:09.000Z</time>
      </trkpt>
      <trkpt lat="40.197341" lon="-3.145322">
        <ele>752.363558</ele>
        <time>2021-10-27T16:22:11.000Z</time>
      </trkpt>
      <trkpt lat="40.197332" lon="-3.145117">
        <ele>751.367347</ele>
        <time>2021-10-27T16:22:13.000Z</time>
      </trkpt>
      <trkpt lat="40.197340" lon="-3.145013">
        <ele>750.860232</ele>
        <time>2021-10-27T16:22:14.000Z</time>
      </trkpt>
      <trkpt lat="40.197372" lon="-3.144675">
        <ele>749.207858</ele>
        <time>2021-10-27T16:22:17.000Z</time>
      </trkpt>
      <trkpt lat="40.197375" lon="-3.144559">
        <ele>748.644755</ele>
        <time>2021-10-27T16:22:18.000Z</time>
      </trkpt>
      <trkpt lat="40.197378" lon="-3.144448">
        <ele>748.105895</ele>
        <time>2021-10-27T16:22:19.000Z</time>
      </trkpt>
      <trkpt lat="40.197379" lon="-3.144222">
        <ele>747.009425</ele>
        <time>2021-10-27T16:22:21.000Z</time>
      </trkpt>
      <trkpt lat="40.197372" lon="-3.144106">
        <ele>746.444891</ele>
        <time>2021-10-27T16:22:22.000Z</time>
      </trkpt>
      <trkpt lat="40.197362" lon="-3.143988">
        <ele>745.868894</ele>
        <time>2021-10-27T16:22:23.000Z</time>
      </trkpt>
      <trkpt lat="40.197332" lon="-3.143748">
        <ele>744.689032</ele>
        <time>2021-10-27T16:22:25.000Z</time>
      </trkpt>
      <trkpt lat="40.197293" lon="-3.143507">
        <ele>743.493853</ele>
        <time>2021-10-27T16:22:27.000Z</time>
      </trkpt>
      <trkpt lat="40.197270" lon="-3.143388">
        <ele>742.898321</ele>
        <time>2021-10-27T16:22:28.000Z</time>
      </trkpt>
      <trkpt lat="40.197209" lon="-3.143160">
        <ele>741.726271</ele>
        <time>2021-10-27T16:22:30.000Z</time>
      </trkpt>
      <trkpt lat="40.197132" lon="-3.142947">
        <ele>740.751319</ele>
        <time>2021-10-27T16:22:32.000Z</time>
      </trkpt>
      <trkpt lat="40.197090" lon="-3.142844">
        <ele>740.308650</ele>
        <time>2021-10-27T16:22:33.000Z</time>
      </trkpt>
      <trkpt lat="40.196905" lon="-3.142219">
        <ele>737.767362</ele>
        <time>2021-10-27T16:22:39.000Z</time>
      </trkpt>
      <trkpt lat="40.196831" lon="-3.141911">
        <ele>736.543223</ele>
        <time>2021-10-27T16:22:42.000Z</time>
      </trkpt>
      <trkpt lat="40.196763" lon="-3.141706">
        <ele>735.695872</ele>
        <time>2021-10-27T16:22:44.000Z</time>
      </trkpt>
      <trkpt lat="40.196727" lon="-3.141603">
        <ele>735.266422</ele>
        <time>2021-10-27T16:22:45.000Z</time>
      </trkpt>
      <trkpt lat="40.196647" lon="-3.141399">
        <ele>734.397007</ele>
        <time>2021-10-27T16:22:47.000Z</time>
      </trkpt>
      <trkpt lat="40.196552" lon="-3.141198">
        <ele>733.500853</ele>
        <time>2021-10-27T16:22:49.000Z</time>
      </trkpt>
      <trkpt lat="40.196506" lon="-3.141093">
        <ele>733.041930</ele>
        <time>2021-10-27T16:22:50.000Z</time>
      </trkpt>
      <trkpt lat="40.196463" lon="-3.140988">
        <ele>732.590230</ele>
        <time>2021-10-27T16:22:51.000Z</time>
      </trkpt>
      <trkpt lat="40.196375" lon="-3.140779">
        <ele>731.497164</ele>
        <time>2021-10-27T16:22:53.000Z</time>
      </trkpt>
      <trkpt lat="40.196282" lon="-3.140572">
        <ele>730.355052</ele>
        <time>2021-10-27T16:22:55.000Z</time>
      </trkpt>
      <trkpt lat="40.196243" lon="-3.140467">
        <ele>729.799785</ele>
        <time>2021-10-27T16:22:56.000Z</time>
      </trkpt>
      <trkpt lat="40.196213" lon="-3.140359">
        <ele>729.253250</ele>
        <time>2021-10-27T16:22:57.000Z</time>
      </trkpt>
      <trkpt lat="40.196185" lon="-3.140251">
        <ele>728.710844</ele>
        <time>2021-10-27T16:22:58.000Z</time>
      </trkpt>
      <trkpt lat="40.196119" lon="-3.139932">
        <ele>727.139076</ele>
        <time>2021-10-27T16:23:01.000Z</time>
      </trkpt>
      <trkpt lat="40.196090" lon="-3.139715">
        <ele>726.091390</ele>
        <time>2021-10-27T16:23:03.000Z</time>
      </trkpt>
      <trkpt lat="40.196074" lon="-3.139605">
        <ele>725.558851</ele>
        <time>2021-10-27T16:23:04.000Z</time>
      </trkpt>
      <trkpt lat="40.196013" lon="-3.139262">
        <ele>723.883978</ele>
        <time>2021-10-27T16:23:07.000Z</time>
      </trkpt>
      <trkpt lat="40.195959" lon="-3.139026">
        <ele>722.712330</ele>
        <time>2021-10-27T16:23:09.000Z</time>
      </trkpt>
      <trkpt lat="40.195898" lon="-3.138784">
        <ele>721.500375</ele>
        <time>2021-10-27T16:23:11.000Z</time>
      </trkpt>
      <trkpt lat="40.195834" lon="-3.138539">
        <ele>720.347839</ele>
        <time>2021-10-27T16:23:13.000Z</time>
      </trkpt>
      <trkpt lat="40.195765" lon="-3.138282">
        <ele>719.158993</ele>
        <time>2021-10-27T16:23:15.000Z</time>
      </trkpt>
      <trkpt lat="40.195729" lon="-3.138152">
        <ele>718.555523</ele>
        <time>2021-10-27T16:23:16.000Z</time>
      </trkpt>
      <trkpt lat="40.195691" lon="-3.138020">
        <ele>717.939903</ele>
        <time>2021-10-27T16:23:17.000Z</time>
      </trkpt>
      <trkpt lat="40.195653" lon="-3.137888">
        <ele>717.324283</ele>
        <time>2021-10-27T16:23:18.000Z</time>
      </trkpt>
      <trkpt lat="40.195574" lon="-3.137631">
        <ele>716.115286</ele>
        <time>2021-10-27T16:23:20.000Z</time>
      </trkpt>
      <trkpt lat="40.195534" lon="-3.137508">
        <ele>715.531873</ele>
        <time>2021-10-27T16:23:21.000Z</time>
      </trkpt>
      <trkpt lat="40.195450" lon="-3.137272">
        <ele>714.395607</ele>
        <time>2021-10-27T16:23:23.000Z</time>
      </trkpt>
      <trkpt lat="40.195407" lon="-3.137161">
        <ele>713.852449</ele>
        <time>2021-10-27T16:23:24.000Z</time>
      </trkpt>
      <trkpt lat="40.195211" lon="-3.136754">
        <ele>711.752703</ele>
        <time>2021-10-27T16:23:28.000Z</time>
      </trkpt>
      <trkpt lat="40.195149" lon="-3.136665">
        <ele>711.227021</ele>
        <time>2021-10-27T16:23:29.000Z</time>
      </trkpt>
      <trkpt lat="40.195007" lon="-3.136500">
        <ele>710.384413</ele>
        <time>2021-10-27T16:23:31.000Z</time>
      </trkpt>
      <trkpt lat="40.194852" lon="-3.136337">
        <ele>709.588847</ele>
        <time>2021-10-27T16:23:33.000Z</time>
      </trkpt>
      <trkpt lat="40.194773" lon="-3.136256">
        <ele>709.187311</ele>
        <time>2021-10-27T16:23:34.000Z</time>
      </trkpt>
      <trkpt lat="40.194543" lon="-3.136012">
        <ele>708.002706</ele>
        <time>2021-10-27T16:23:37.000Z</time>
      </trkpt>
      <trkpt lat="40.194334" lon="-3.135755">
        <ele>706.855307</ele>
        <time>2021-10-27T16:23:40.000Z</time>
      </trkpt>
      <trkpt lat="40.194271" lon="-3.135668">
        <ele>706.488879</ele>
        <time>2021-10-27T16:23:41.000Z</time>
      </trkpt>
      <trkpt lat="40.194155" lon="-3.135488">
        <ele>705.769036</ele>
        <time>2021-10-27T16:23:43.000Z</time>
      </trkpt>
      <trkpt lat="40.194061" lon="-3.135299">
        <ele>705.079669</ele>
        <time>2021-10-27T16:23:45.000Z</time>
      </trkpt>
      <trkpt lat="40.194023" lon="-3.135199">
        <ele>704.738272</ele>
        <time>2021-10-27T16:23:46.000Z</time>
      </trkpt>
      <trkpt lat="40.193824" lon="-3.134718">
        <ele>703.464436</ele>
        <time>2021-10-27T16:23:51.000Z</time>
      </trkpt>
      <trkpt lat="40.193697" lon="-3.134440">
        <ele>703.048292</ele>
        <time>2021-10-27T16:23:54.000Z</time>
      </trkpt>
      <trkpt lat="40.193567" lon="-3.134167">
        <ele>702.635000</ele>
        <time>2021-10-27T16:23:57.000Z</time>
      </trkpt>
      <trkpt lat="40.193359" lon="-3.133730">
        <ele>701.973514</ele>
        <time>2021-10-27T16:24:02.000Z</time>
      </trkpt>
      <trkpt lat="40.193055" lon="-3.133052">
        <ele>700.963512</ele>
        <time>2021-10-27T16:24:10.000Z</time>
      </trkpt>
      <trkpt lat="40.193020" lon="-3.132966">
        <ele>700.838324</ele>
        <time>2021-10-27T16:24:11.000Z</time>
      </trkpt>
      <trkpt lat="40.192984" lon="-3.132880">
        <ele>700.711051</ele>
        <time>2021-10-27T16:24:12.000Z</time>
      </trkpt>
      <trkpt lat="40.192867" lon="-3.132624">
        <ele>700.296585</ele>
        <time>2021-10-27T16:24:15.000Z</time>
      </trkpt>
      <trkpt lat="40.192668" lon="-3.132197">
        <ele>699.601649</ele>
        <time>2021-10-27T16:24:20.000Z</time>
      </trkpt>
      <trkpt lat="40.192560" lon="-3.131947">
        <ele>699.202620</ele>
        <time>2021-10-27T16:24:23.000Z</time>
      </trkpt>
      <trkpt lat="40.192482" lon="-3.131789">
        <ele>698.941253</ele>
        <time>2021-10-27T16:24:25.000Z</time>
      </trkpt>
      <trkpt lat="40.192438" lon="-3.131716">
        <ele>698.812061</ele>
        <time>2021-10-27T16:24:26.000Z</time>
      </trkpt>
      <trkpt lat="40.192334" lon="-3.131588">
        <ele>698.552438</ele>
        <time>2021-10-27T16:24:28.000Z</time>
      </trkpt>
      <trkpt lat="40.192274" lon="-3.131540">
        <ele>698.424547</ele>
        <time>2021-10-27T16:24:29.000Z</time>
      </trkpt>
      <trkpt lat="40.192212" lon="-3.131497">
        <ele>698.296935</ele>
        <time>2021-10-27T16:24:30.000Z</time>
      </trkpt>
      <trkpt lat="40.192154" lon="-3.131452">
        <ele>698.174310</ele>
        <time>2021-10-27T16:24:31.000Z</time>
      </trkpt>
      <trkpt lat="40.192062" lon="-3.131333">
        <ele>697.939080</ele>
        <time>2021-10-27T16:24:33.000Z</time>
      </trkpt>
      <trkpt lat="40.192037" lon="-3.131254">
        <ele>697.820276</ele>
        <time>2021-10-27T16:24:34.000Z</time>
      </trkpt>
      <trkpt lat="40.192024" lon="-3.131167">
        <ele>697.697112</ele>
        <time>2021-10-27T16:24:35.000Z</time>
      </trkpt>
      <trkpt lat="40.192013" lon="-3.130893">
        <ele>697.274751</ele>
        <time>2021-10-27T16:24:38.000Z</time>
      </trkpt>
      <trkpt lat="40.192003" lon="-3.130703">
        <ele>696.932843</ele>
        <time>2021-10-27T16:24:40.000Z</time>
      </trkpt>
      <trkpt lat="40.191937" lon="-3.130432">
        <ele>696.422198</ele>
        <time>2021-10-27T16:24:43.000Z</time>
      </trkpt>
      <trkpt lat="40.191867" lon="-3.130269">
        <ele>696.086497</ele>
        <time>2021-10-27T16:24:45.000Z</time>
      </trkpt>
      <trkpt lat="40.191717" lon="-3.129960">
        <ele>695.429224</ele>
        <time>2021-10-27T16:24:49.000Z</time>
      </trkpt>
      <trkpt lat="40.191675" lon="-3.129888">
        <ele>695.266586</ele>
        <time>2021-10-27T16:24:50.000Z</time>
      </trkpt>
      <trkpt lat="40.191386" lon="-3.129494">
        <ele>694.285954</ele>
        <time>2021-10-27T16:24:56.000Z</time>
      </trkpt>
      <trkpt lat="40.191335" lon="-3.129426">
        <ele>694.114871</ele>
        <time>2021-10-27T16:24:57.000Z</time>
      </trkpt>
      <trkpt lat="40.191133" lon="-3.129134">
        <ele>693.407636</ele>
        <time>2021-10-27T16:25:01.000Z</time>
      </trkpt>
      <trkpt lat="40.191035" lon="-3.128972">
        <ele>692.896927</ele>
        <time>2021-10-27T16:25:03.000Z</time>
      </trkpt>
      <trkpt lat="40.190987" lon="-3.128888">
        <ele>692.572263</ele>
        <time>2021-10-27T16:25:04.000Z</time>
      </trkpt>
      <trkpt lat="40.190938" lon="-3.128803">
        <ele>692.242692</ele>
        <time>2021-10-27T16:25:05.000Z</time>
      </trkpt>
      <trkpt lat="40.190673" lon="-3.128389">
        <ele>690.571025</ele>
        <time>2021-10-27T16:25:10.000Z</time>
      </trkpt>
      <trkpt lat="40.190621" lon="-3.128307">
        <ele>690.241187</ele>
        <time>2021-10-27T16:25:11.000Z</time>
      </trkpt>
      <trkpt lat="40.190514" lon="-3.128149">
        <ele>689.587692</ele>
        <time>2021-10-27T16:25:13.000Z</time>
      </trkpt>
      <trkpt lat="40.190362" lon="-3.127904">
        <ele>688.610854</ele>
        <time>2021-10-27T16:25:16.000Z</time>
      </trkpt>
      <trkpt lat="40.190318" lon="-3.127817">
        <ele>688.287929</ele>
        <time>2021-10-27T16:25:17.000Z</time>
      </trkpt>
      <trkpt lat="40.190277" lon="-3.127728">
        <ele>687.966266</ele>
        <time>2021-10-27T16:25:18.000Z</time>
      </trkpt>
      <trkpt lat="40.190162" lon="-3.127449">
        <ele>686.985087</ele>
        <time>2021-10-27T16:25:21.000Z</time>
      </trkpt>
      <trkpt lat="40.190057" lon="-3.127164">
        <ele>686.005793</ele>
        <time>2021-10-27T16:25:24.000Z</time>
      </trkpt>
      <trkpt lat="40.190025" lon="-3.127069">
        <ele>685.748461</ele>
        <time>2021-10-27T16:25:25.000Z</time>
      </trkpt>
      <trkpt lat="40.189994" lon="-3.126972">
        <ele>685.503773</ele>
        <time>2021-10-27T16:25:26.000Z</time>
      </trkpt>
      <trkpt lat="40.189965" lon="-3.126875">
        <ele>685.261371</ele>
        <time>2021-10-27T16:25:27.000Z</time>
      </trkpt>
      <trkpt lat="40.189911" lon="-3.126678">
        <ele>684.774308</ele>
        <time>2021-10-27T16:25:29.000Z</time>
      </trkpt>
      <trkpt lat="40.189872" lon="-3.126475">
        <ele>684.287192</ele>
        <time>2021-10-27T16:25:31.000Z</time>
      </trkpt>
      <trkpt lat="40.189856" lon="-3.126371">
        <ele>684.040312</ele>
        <time>2021-10-27T16:25:32.000Z</time>
      </trkpt>
      <trkpt lat="40.189812" lon="-3.126054">
        <ele>683.290537</ele>
        <time>2021-10-27T16:25:35.000Z</time>
      </trkpt>
      <trkpt lat="40.189778" lon="-3.125842">
        <ele>682.786431</ele>
        <time>2021-10-27T16:25:37.000Z</time>
      </trkpt>
      <trkpt lat="40.189733" lon="-3.125632">
        <ele>682.278872</ele>
        <time>2021-10-27T16:25:39.000Z</time>
      </trkpt>
      <trkpt lat="40.189681" lon="-3.125423">
        <ele>681.767357</ele>
        <time>2021-10-27T16:25:41.000Z</time>
      </trkpt>
      <trkpt lat="40.189562" lon="-3.124883">
        <ele>680.458592</ele>
        <time>2021-10-27T16:25:46.000Z</time>
      </trkpt>
      <trkpt lat="40.189542" lon="-3.124768">
        <ele>680.119797</ele>
        <time>2021-10-27T16:25:47.000Z</time>
      </trkpt>
      <trkpt lat="40.189504" lon="-3.124539">
        <ele>679.446643</ele>
        <time>2021-10-27T16:25:49.000Z</time>
      </trkpt>
      <trkpt lat="40.189467" lon="-3.124310">
        <ele>678.774277</ele>
        <time>2021-10-27T16:25:51.000Z</time>
      </trkpt>
      <trkpt lat="40.189446" lon="-3.124198">
        <ele>678.443003</ele>
        <time>2021-10-27T16:25:52.000Z</time>
      </trkpt>
      <trkpt lat="40.189405" lon="-3.123976">
        <ele>677.786925</ele>
        <time>2021-10-27T16:25:54.000Z</time>
      </trkpt>
      <trkpt lat="40.189385" lon="-3.123864">
        <ele>677.456526</ele>
        <time>2021-10-27T16:25:55.000Z</time>
      </trkpt>
      <trkpt lat="40.189331" lon="-3.123528">
        <ele>676.470220</ele>
        <time>2021-10-27T16:25:58.000Z</time>
      </trkpt>
      <trkpt lat="40.189257" lon="-3.123087">
        <ele>675.173222</ele>
        <time>2021-10-27T16:26:02.000Z</time>
      </trkpt>
      <trkpt lat="40.189139" lon="-3.122402">
        <ele>673.255654</ele>
        <time>2021-10-27T16:26:08.000Z</time>
      </trkpt>
      <trkpt lat="40.189120" lon="-3.122288">
        <ele>672.981852</ele>
        <time>2021-10-27T16:26:09.000Z</time>
      </trkpt>
      <trkpt lat="40.189101" lon="-3.122175">
        <ele>672.710342</ele>
        <time>2021-10-27T16:26:10.000Z</time>
      </trkpt>
      <trkpt lat="40.189019" lon="-3.121621">
        <ele>671.386160</ele>
        <time>2021-10-27T16:26:15.000Z</time>
      </trkpt>
      <trkpt lat="40.189008" lon="-3.121512">
        <ele>671.128161</ele>
        <time>2021-10-27T16:26:16.000Z</time>
      </trkpt>
      <trkpt lat="40.188974" lon="-3.121294">
        <ele>670.606054</ele>
        <time>2021-10-27T16:26:18.000Z</time>
      </trkpt>
      <trkpt lat="40.188865" lon="-3.120866">
        <ele>669.547375</ele>
        <time>2021-10-27T16:26:22.000Z</time>
      </trkpt>
      <trkpt lat="40.188797" lon="-3.120652">
        <ele>669.003496</ele>
        <time>2021-10-27T16:26:24.000Z</time>
      </trkpt>
      <trkpt lat="40.188760" lon="-3.120549">
        <ele>668.736408</ele>
        <time>2021-10-27T16:26:25.000Z</time>
      </trkpt>
      <trkpt lat="40.188721" lon="-3.120448">
        <ele>668.470846</ele>
        <time>2021-10-27T16:26:26.000Z</time>
      </trkpt>
      <trkpt lat="40.188460" lon="-3.119882">
        <ele>667.213565</ele>
        <time>2021-10-27T16:26:32.000Z</time>
      </trkpt>
      <trkpt lat="40.188431" lon="-3.119796">
        <ele>667.044655</ele>
        <time>2021-10-27T16:26:33.000Z</time>
      </trkpt>
      <trkpt lat="40.188404" lon="-3.119609">
        <ele>666.702704</ele>
        <time>2021-10-27T16:26:35.000Z</time>
      </trkpt>
      <trkpt lat="40.188424" lon="-3.119421">
        <ele>666.361646</ele>
        <time>2021-10-27T16:26:37.000Z</time>
      </trkpt>
      <trkpt lat="40.188448" lon="-3.119330">
        <ele>666.188667</ele>
        <time>2021-10-27T16:26:38.000Z</time>
      </trkpt>
      <trkpt lat="40.188476" lon="-3.119240">
        <ele>666.014059</ele>
        <time>2021-10-27T16:26:39.000Z</time>
      </trkpt>
      <trkpt lat="40.188573" lon="-3.118974">
        <ele>665.484449</ele>
        <time>2021-10-27T16:26:42.000Z</time>
      </trkpt>
      <trkpt lat="40.188630" lon="-3.118790">
        <ele>665.127690</ele>
        <time>2021-10-27T16:26:44.000Z</time>
      </trkpt>
      <trkpt lat="40.188653" lon="-3.118695">
        <ele>664.948627</ele>
        <time>2021-10-27T16:26:45.000Z</time>
      </trkpt>
      <trkpt lat="40.188747" lon="-3.118122">
        <ele>663.902562</ele>
        <time>2021-10-27T16:26:51.000Z</time>
      </trkpt>
      <trkpt lat="40.188753" lon="-3.118022">
        <ele>663.748156</ele>
        <time>2021-10-27T16:26:52.000Z</time>
      </trkpt>
      <trkpt lat="40.188737" lon="-3.117822">
        <ele>663.438609</ele>
        <time>2021-10-27T16:26:54.000Z</time>
      </trkpt>
      <trkpt lat="40.188713" lon="-3.117725">
        <ele>663.281659</ele>
        <time>2021-10-27T16:26:55.000Z</time>
      </trkpt>
      <trkpt lat="40.188581" lon="-3.117355">
        <ele>662.653064</ele>
        <time>2021-10-27T16:26:59.000Z</time>
      </trkpt>
      <trkpt lat="40.188517" lon="-3.117168">
        <ele>662.337643</ele>
        <time>2021-10-27T16:27:01.000Z</time>
      </trkpt>
      <trkpt lat="40.188450" lon="-3.116989">
        <ele>662.030807</ele>
        <time>2021-10-27T16:27:03.000Z</time>
      </trkpt>
      <trkpt lat="40.188258" lon="-3.116567">
        <ele>661.274729</ele>
        <time>2021-10-27T16:27:08.000Z</time>
      </trkpt>
      <trkpt lat="40.188218" lon="-3.116482">
        <ele>661.121053</ele>
        <time>2021-10-27T16:27:09.000Z</time>
      </trkpt>
      <trkpt lat="40.188019" lon="-3.116050">
        <ele>660.344519</ele>
        <time>2021-10-27T16:27:14.000Z</time>
      </trkpt>
      <trkpt lat="40.187916" lon="-3.115783">
        <ele>659.817818</ele>
        <time>2021-10-27T16:27:17.000Z</time>
      </trkpt>
      <trkpt lat="40.187757" lon="-3.115327">
        <ele>658.928901</ele>
        <time>2021-10-27T16:27:22.000Z</time>
      </trkpt>
      <trkpt lat="40.187644" lon="-3.114949">
        <ele>658.209063</ele>
        <time>2021-10-27T16:27:26.000Z</time>
      </trkpt>
      <trkpt lat="40.187589" lon="-3.114763">
        <ele>657.855364</ele>
        <time>2021-10-27T16:27:28.000Z</time>
      </trkpt>
      <trkpt lat="40.187488" lon="-3.114389">
        <ele>657.151893</ele>
        <time>2021-10-27T16:27:32.000Z</time>
      </trkpt>
      <trkpt lat="40.187466" lon="-3.114295">
        <ele>656.977546</ele>
        <time>2021-10-27T16:27:33.000Z</time>
      </trkpt>
      <trkpt lat="40.187447" lon="-3.114200">
        <ele>656.803396</ele>
        <time>2021-10-27T16:27:34.000Z</time>
      </trkpt>
      <trkpt lat="40.187308" lon="-3.113534">
        <ele>655.488379</ele>
        <time>2021-10-27T16:27:41.000Z</time>
      </trkpt>
      <trkpt lat="40.187259" lon="-3.113341">
        <ele>655.069896</ele>
        <time>2021-10-27T16:27:43.000Z</time>
      </trkpt>
      <trkpt lat="40.187214" lon="-3.113149">
        <ele>654.656652</ele>
        <time>2021-10-27T16:27:45.000Z</time>
      </trkpt>
      <trkpt lat="40.187112" lon="-3.112655">
        <ele>653.603697</ele>
        <time>2021-10-27T16:27:50.000Z</time>
      </trkpt>
      <trkpt lat="40.187099" lon="-3.112550">
        <ele>653.384825</ele>
        <time>2021-10-27T16:27:51.000Z</time>
      </trkpt>
      <trkpt lat="40.187055" lon="-3.112126">
        <ele>652.504366</ele>
        <time>2021-10-27T16:27:55.000Z</time>
      </trkpt>
      <trkpt lat="40.186990" lon="-3.111711">
        <ele>651.632675</ele>
        <time>2021-10-27T16:27:59.000Z</time>
      </trkpt>
      <trkpt lat="40.186928" lon="-3.111295">
        <ele>651.112289</ele>
        <time>2021-10-27T16:28:03.000Z</time>
      </trkpt>
      <trkpt lat="40.186887" lon="-3.111082">
        <ele>650.955025</ele>
        <time>2021-10-27T16:28:05.000Z</time>
      </trkpt>
      <trkpt lat="40.186856" lon="-3.110981">
        <ele>650.877096</ele>
        <time>2021-10-27T16:28:06.000Z</time>
      </trkpt>
      <trkpt lat="40.186817" lon="-3.110885">
        <ele>650.799251</ele>
        <time>2021-10-27T16:28:07.000Z</time>
      </trkpt>
      <trkpt lat="40.186677" lon="-3.110634">
        <ele>650.576746</ele>
        <time>2021-10-27T16:28:10.000Z</time>
      </trkpt>
      <trkpt lat="40.186505" lon="-3.110321">
        <ele>650.300699</ele>
        <time>2021-10-27T16:28:14.000Z</time>
      </trkpt>
      <trkpt lat="40.186479" lon="-3.110245">
        <ele>650.241080</ele>
        <time>2021-10-27T16:28:15.000Z</time>
      </trkpt>
      <trkpt lat="40.186461" lon="-3.110170">
        <ele>650.184796</ele>
        <time>2021-10-27T16:28:16.000Z</time>
      </trkpt>
      <trkpt lat="40.186443" lon="-3.109949">
        <ele>650.025673</ele>
        <time>2021-10-27T16:28:19.000Z</time>
      </trkpt>
      <trkpt lat="40.186390" lon="-3.109545">
        <ele>649.732192</ele>
        <time>2021-10-27T16:28:25.000Z</time>
      </trkpt>
      <trkpt lat="40.186354" lon="-3.109421">
        <ele>649.637219</ele>
        <time>2021-10-27T16:28:29.000Z</time>
      </trkpt>
      <trkpt lat="40.186223" lon="-3.109316">
        <ele>649.230451</ele>
        <time>2021-10-27T16:28:33.000Z</time>
      </trkpt>
      <trkpt lat="40.186159" lon="-3.109226">
        <ele>648.951328</ele>
        <time>2021-10-27T16:28:35.000Z</time>
      </trkpt>
      <trkpt lat="40.186128" lon="-3.109168">
        <ele>648.790637</ele>
        <time>2021-10-27T16:28:36.000Z</time>
      </trkpt>
      <trkpt lat="40.186096" lon="-3.109104">
        <ele>648.616998</ele>
        <time>2021-10-27T16:28:37.000Z</time>
      </trkpt>
      <trkpt lat="40.186030" lon="-3.108965">
        <ele>648.245472</ele>
        <time>2021-10-27T16:28:39.000Z</time>
      </trkpt>
      <trkpt lat="40.185913" lon="-3.108757">
        <ele>647.659100</ele>
        <time>2021-10-27T16:28:42.000Z</time>
      </trkpt>
      <trkpt lat="40.185836" lon="-3.108636">
        <ele>647.301603</ele>
        <time>2021-10-27T16:28:44.000Z</time>
      </trkpt>
      <trkpt lat="40.185810" lon="-3.108582">
        <ele>647.156701</ele>
        <time>2021-10-27T16:28:45.000Z</time>
      </trkpt>
      <trkpt lat="40.185776" lon="-3.108504">
        <ele>646.952836</ele>
        <time>2021-10-27T16:28:47.000Z</time>
      </trkpt>
      <trkpt lat="40.185756" lon="-3.108455">
        <ele>646.826719</ele>
        <time>2021-10-27T16:28:51.000Z</time>
      </trkpt>
      <trkpt lat="40.185754" lon="-3.108439">
        <ele>646.789914</ele>
        <time>2021-10-27T16:28:52.000Z</time>
      </trkpt>
      <trkpt lat="40.185745" lon="-3.108437">
        <ele>646.762788</ele>
        <time>2021-10-27T16:28:55.000Z</time>
      </trkpt>
      <trkpt lat="40.185742" lon="-3.108428">
        <ele>646.740497</ele>
        <time>2021-10-27T16:28:56.000Z</time>
      </trkpt>
      <trkpt lat="40.185734" lon="-3.108422">
        <ele>646.713099</ele>
        <time>2021-10-27T16:28:57.000Z</time>
      </trkpt>
      <trkpt lat="40.185710" lon="-3.108409">
        <ele>646.635917</ele>
        <time>2021-10-27T16:29:00.000Z</time>
      </trkpt>
      <trkpt lat="40.185697" lon="-3.108396">
        <ele>646.587304</ele>
        <time>2021-10-27T16:29:02.000Z</time>
      </trkpt>
      <trkpt lat="40.185659" lon="-3.108335">
        <ele>646.408624</ele>
        <time>2021-10-27T16:29:04.000Z</time>
      </trkpt>
      <trkpt lat="40.185603" lon="-3.108189">
        <ele>646.037758</ele>
        <time>2021-10-27T16:29:07.000Z</time>
      </trkpt>
      <trkpt lat="40.185552" lon="-3.108076">
        <ele>645.739812</ele>
        <time>2021-10-27T16:29:09.000Z</time>
      </trkpt>
      <trkpt lat="40.185471" lon="-3.107713">
        <ele>644.881323</ele>
        <time>2021-10-27T16:29:16.000Z</time>
      </trkpt>
      <trkpt lat="40.185457" lon="-3.107592">
        <ele>644.603505</ele>
        <time>2021-10-27T16:29:20.000Z</time>
      </trkpt>
      <trkpt lat="40.185462" lon="-3.107569">
        <ele>644.549220</ele>
        <time>2021-10-27T16:29:21.000Z</time>
      </trkpt>
      <trkpt lat="40.185508" lon="-3.107531">
        <ele>644.387584</ele>
        <time>2021-10-27T16:29:24.000Z</time>
      </trkpt>
      <trkpt lat="40.185531" lon="-3.107527">
        <ele>644.318639</ele>
        <time>2021-10-27T16:29:28.000Z</time>
      </trkpt>
      <trkpt lat="40.185544" lon="-3.107504">
        <ele>644.269607</ele>
        <time>2021-10-27T16:29:30.000Z</time>
      </trkpt>
      <trkpt lat="40.185542" lon="-3.107449">
        <ele>644.269607</ele>
        <time>2021-10-27T16:29:32.000Z</time>
      </trkpt>
      <trkpt lat="40.185554" lon="-3.107274">
        <ele>644.269607</ele>
        <time>2021-10-27T16:29:35.000Z</time>
      </trkpt>
      <trkpt lat="40.185486" lon="-3.107163">
        <ele>644.269607</ele>
        <time>2021-10-27T16:29:37.000Z</time>
      </trkpt>
      <trkpt lat="40.185444" lon="-3.107120">
        <ele>644.269607</ele>
        <time>2021-10-27T16:29:38.000Z</time>
      </trkpt>
      <trkpt lat="40.185254" lon="-3.106890">
        <ele>644.269607</ele>
        <time>2021-10-27T16:29:43.000Z</time>
      </trkpt>
      <trkpt lat="40.185210" lon="-3.106846">
        <ele>644.269607</ele>
        <time>2021-10-27T16:29:44.000Z</time>
      </trkpt>
      <trkpt lat="40.185055" lon="-3.106730">
        <ele>644.269607</ele>
        <time>2021-10-27T16:29:48.000Z</time>
      </trkpt>
      <trkpt lat="40.184922" lon="-3.106641">
        <ele>644.269607</ele>
        <time>2021-10-27T16:29:52.000Z</time>
      </trkpt>
      <trkpt lat="40.184836" lon="-3.106561">
        <ele>644.269607</ele>
        <time>2021-10-27T16:29:54.000Z</time>
      </trkpt>
      <trkpt lat="40.184779" lon="-3.106519">
        <ele>644.269607</ele>
        <time>2021-10-27T16:29:55.000Z</time>
      </trkpt>
      <trkpt lat="40.184703" lon="-3.106458">
        <ele>644.269607</ele>
        <time>2021-10-27T16:29:57.000Z</time>
      </trkpt>
      <trkpt lat="40.184691" lon="-3.106337">
        <ele>644.269607</ele>
        <time>2021-10-27T16:30:00.000Z</time>
      </trkpt>
      <trkpt lat="40.184706" lon="-3.106338">
        <ele>644.269607</ele>
        <time>2021-10-27T16:30:04.000Z</time>
      </trkpt>
      <trkpt lat="40.184699" lon="-3.106331">
        <ele>644.269607</ele>
        <time>2021-10-27T16:30:12.000Z</time>
      </trkpt>
      <trkpt lat="40.184609" lon="-3.106427">
        <ele>642.979296</ele>
        <time>2021-11-03T16:19:17.032Z</time>
      </trkpt>
      <trkpt lat="40.184321" lon="-3.106427">
        <ele>642.979296</ele>
        <time>2021-11-03T16:19:17.032Z</time>
      </trkpt>
      <trkpt lat="40.183836" lon="-3.106462">
        <ele>642.979296</ele>
        <time>2021-11-03T16:19:17.032Z</time>
      </trkpt>
      <trkpt lat="40.183342" lon="-3.106462">
        <ele>641.887554</ele>
        <time>2021-11-03T16:19:17.032Z</time>
      </trkpt>
      <trkpt lat="40.183037" lon="-3.106474">
        <ele>640.983324</ele>
        <time>2021-11-03T16:19:17.032Z</time>
      </trkpt>
      <trkpt lat="40.182794" lon="-3.106427">
        <ele>640.255412</ele>
        <time>2021-11-03T16:19:17.032Z</time>
      </trkpt>
      <trkpt lat="40.182552" lon="-3.106403">
        <ele>639.536226</ele>
        <time>2021-11-03T16:19:17.032Z</time>
      </trkpt>
      <trkpt lat="40.182390" lon="-3.106333">
        <ele>639.030681</ele>
        <time>2021-11-03T16:19:17.032Z</time>
      </trkpt>
      <trkpt lat="40.182300" lon="-3.106708">
        <ele>638.140782</ele>
        <time>2021-11-03T16:19:17.032Z</time>
      </trkpt>
      <trkpt lat="40.182345" lon="-3.107013">
        <ele>637.444821</ele>
        <time>2021-11-03T16:19:17.032Z</time>
      </trkpt>
      <trkpt lat="40.182282" lon="-3.107260">
        <ele>636.875630</ele>
        <time>2021-11-03T16:19:17.032Z</time>
      </trkpt>
      <trkpt lat="40.182219" lon="-3.107412">
        <ele>636.497642</ele>
        <time>2021-11-03T16:19:17.032Z</time>
      </trkpt>
      <trkpt lat="40.182120" lon="-3.107523">
        <ele>636.124689</ele>
        <time>2021-11-03T16:19:17.032Z</time>
      </trkpt>
      <trkpt lat="40.182093" lon="-3.107545">
        <ele>636.033695</ele>
        <time>2021-11-03T16:19:17.032Z</time>
      </trkpt>
      <trkpt lat="40.182049" lon="-3.107609">
        <ele>635.845501</ele>
        <time>2021-11-03T16:19:17.032Z</time>
      </trkpt>
      <trkpt lat="40.181980" lon="-3.107657">
        <ele>635.621940</ele>
        <time>2021-11-03T16:19:17.032Z</time>
      </trkpt>
      <trkpt lat="40.181941" lon="-3.107673">
        <ele>635.505007</ele>
        <time>2021-11-03T16:19:17.032Z</time>
      </trkpt>
      <trkpt lat="40.181642" lon="-3.107763">
        <ele>634.627227</ele>
        <time>2021-11-03T16:19:17.032Z</time>
      </trkpt>
      <trkpt lat="40.181557" lon="-3.107793">
        <ele>634.375353</ele>
        <time>2021-11-03T16:19:17.032Z</time>
      </trkpt>
      <trkpt lat="40.181269" lon="-3.107887">
        <ele>633.526142</ele>
        <time>2021-11-03T16:19:17.032Z</time>
      </trkpt>
      <trkpt lat="40.181124" lon="-3.107953">
        <ele>633.086922</ele>
        <time>2021-11-03T16:19:17.032Z</time>
      </trkpt>
      <trkpt lat="40.180990" lon="-3.108056">
        <ele>632.642322</ele>
        <time>2021-11-03T16:19:17.032Z</time>
      </trkpt>
      <trkpt lat="40.180670" lon="-3.108402">
        <ele>633.446827</ele>
        <time>2021-11-03T16:19:17.032Z</time>
      </trkpt>
      <trkpt lat="40.180418" lon="-3.108648">
        <ele>634.256204</ele>
        <time>2021-11-03T16:19:17.032Z</time>
      </trkpt>
      <trkpt lat="40.180373" lon="-3.108684">
        <ele>634.391988</ele>
        <time>2021-11-03T16:19:17.032Z</time>
      </trkpt>
      <trkpt lat="40.180110" lon="-3.108923">
        <ele>635.216310</ele>
        <time>2021-11-03T16:19:17.032Z</time>
      </trkpt>
      <trkpt lat="40.180024" lon="-3.108999">
        <ele>635.483469</ele>
        <time>2021-11-03T16:19:17.032Z</time>
      </trkpt>
      <trkpt lat="40.179767" lon="-3.109217">
        <ele>636.271944</ele>
        <time>2021-11-03T16:19:17.032Z</time>
      </trkpt>
      <trkpt lat="40.179683" lon="-3.109284">
        <ele>636.525204</ele>
        <time>2021-11-03T16:19:17.032Z</time>
      </trkpt>
      <trkpt lat="40.179560" lon="-3.109389">
        <ele>636.903282</ele>
        <time>2021-11-03T16:19:17.032Z</time>
      </trkpt>
      <trkpt lat="40.179522" lon="-3.109422">
        <ele>637.020693</ele>
        <time>2021-11-03T16:19:17.032Z</time>
      </trkpt>
      <trkpt lat="40.179328" lon="-3.109585">
        <ele>637.449502</ele>
        <time>2021-11-03T16:19:17.032Z</time>
      </trkpt>
      <trkpt lat="40.179175" lon="-3.109724">
        <ele>637.764505</ele>
        <time>2021-11-03T16:19:17.032Z</time>
      </trkpt>
      <trkpt lat="40.179026" lon="-3.109877">
        <ele>638.084815</ele>
        <time>2021-11-03T16:19:17.032Z</time>
      </trkpt>
      <trkpt lat="40.178876" lon="-3.110026">
        <ele>638.403305</ele>
        <time>2021-11-03T16:19:17.032Z</time>
      </trkpt>
      <trkpt lat="40.178800" lon="-3.110105">
        <ele>638.567453</ele>
        <time>2021-11-03T16:19:17.032Z</time>
      </trkpt>
      <trkpt lat="40.178761" lon="-3.110146">
        <ele>638.652058</ele>
        <time>2021-11-03T16:19:17.032Z</time>
      </trkpt>
      <trkpt lat="40.178505" lon="-3.110354">
        <ele>639.161684</ele>
        <time>2021-11-03T16:19:17.032Z</time>
      </trkpt>
      <trkpt lat="40.178411" lon="-3.110416">
        <ele>639.339715</ele>
        <time>2021-11-03T16:19:17.032Z</time>
      </trkpt>
      <trkpt lat="40.178199" lon="-3.110553">
        <ele>639.739602</ele>
        <time>2021-11-03T16:19:17.032Z</time>
      </trkpt>
      <trkpt lat="40.178077" lon="-3.110647">
        <ele>639.979044</ele>
        <time>2021-11-03T16:19:17.032Z</time>
      </trkpt>
      <trkpt lat="40.177951" lon="-3.110771">
        <ele>640.080071</ele>
        <time>2021-11-03T16:19:17.032Z</time>
      </trkpt>
      <trkpt lat="40.177821" lon="-3.110907">
        <ele>639.690709</ele>
        <time>2021-11-03T16:19:17.032Z</time>
      </trkpt>
      <trkpt lat="40.177757" lon="-3.110976">
        <ele>639.496718</ele>
        <time>2021-11-03T16:19:17.032Z</time>
      </trkpt>
      <trkpt lat="40.177691" lon="-3.111045">
        <ele>639.299093</ele>
        <time>2021-11-03T16:19:17.032Z</time>
      </trkpt>
      <trkpt lat="40.177557" lon="-3.111177">
        <ele>638.906718</ele>
        <time>2021-11-03T16:19:17.032Z</time>
      </trkpt>
      <trkpt lat="40.177424" lon="-3.111302">
        <ele>638.523641</ele>
        <time>2021-11-03T16:19:17.032Z</time>
      </trkpt>
      <trkpt lat="40.177016" lon="-3.111586">
        <ele>637.442497</ele>
        <time>2021-11-03T16:19:17.032Z</time>
      </trkpt>
      <trkpt lat="40.176562" lon="-3.111809">
        <ele>636.307996</ele>
        <time>2021-11-03T16:19:17.032Z</time>
      </trkpt>
      <trkpt lat="40.176501" lon="-3.111833">
        <ele>636.158974</ele>
        <time>2021-11-03T16:19:17.032Z</time>
      </trkpt>
      <trkpt lat="40.176436" lon="-3.111848">
        <ele>636.004557</ele>
        <time>2021-11-03T16:19:17.032Z</time>
      </trkpt>
      <trkpt lat="40.176245" lon="-3.111890">
        <ele>635.849976</ele>
        <time>2021-11-03T16:19:17.032Z</time>
      </trkpt>
      <trkpt lat="40.176012" lon="-3.111972">
        <ele>635.689899</ele>
        <time>2021-11-03T16:19:17.032Z</time>
      </trkpt>
      <trkpt lat="40.175858" lon="-3.112037">
        <ele>635.582545</ele>
        <time>2021-11-03T16:19:17.032Z</time>
      </trkpt>
      <trkpt lat="40.175753" lon="-3.112078">
        <ele>635.509848</ele>
        <time>2021-11-03T16:19:17.032Z</time>
      </trkpt>
      <trkpt lat="40.175697" lon="-3.112098">
        <ele>635.471336</ele>
        <time>2021-11-03T16:19:17.032Z</time>
      </trkpt>
      <trkpt lat="40.175638" lon="-3.112118">
        <ele>635.430900</ele>
        <time>2021-11-03T16:19:17.032Z</time>
      </trkpt>
      <trkpt lat="40.175510" lon="-3.112149">
        <ele>635.344536</ele>
        <time>2021-11-03T16:19:17.032Z</time>
      </trkpt>
      <trkpt lat="40.175307" lon="-3.112185">
        <ele>635.208623</ele>
        <time>2021-11-03T16:19:17.032Z</time>
      </trkpt>
      <trkpt lat="40.175098" lon="-3.112214">
        <ele>635.069183</ele>
        <time>2021-11-03T16:19:17.032Z</time>
      </trkpt>
      <trkpt lat="40.174952" lon="-3.112236">
        <ele>634.971678</ele>
        <time>2021-11-03T16:19:17.032Z</time>
      </trkpt>
      <trkpt lat="40.174803" lon="-3.112255">
        <ele>634.872355</ele>
        <time>2021-11-03T16:19:17.032Z</time>
      </trkpt>
      <trkpt lat="40.174574" lon="-3.112274">
        <ele>634.541966</ele>
        <time>2021-11-03T16:19:17.032Z</time>
      </trkpt>
      <trkpt lat="40.174342" lon="-3.112279">
        <ele>633.886702</ele>
        <time>2021-11-03T16:19:17.032Z</time>
      </trkpt>
      <trkpt lat="40.174263" lon="-3.112282">
        <ele>633.663509</ele>
        <time>2021-11-03T16:19:17.032Z</time>
      </trkpt>
      <trkpt lat="40.174028" lon="-3.112289">
        <ele>632.999690</ele>
        <time>2021-11-03T16:19:17.032Z</time>
      </trkpt>
      <trkpt lat="40.173950" lon="-3.112293">
        <ele>632.779246</ele>
        <time>2021-11-03T16:19:17.032Z</time>
      </trkpt>
      <trkpt lat="40.173794" lon="-3.112304">
        <ele>632.338058</ele>
        <time>2021-11-03T16:19:17.032Z</time>
      </trkpt>
      <trkpt lat="40.173642" lon="-3.112320">
        <ele>631.907419</ele>
        <time>2021-11-03T16:19:17.032Z</time>
      </trkpt>
      <trkpt lat="40.173490" lon="-3.112336">
        <ele>631.476780</ele>
        <time>2021-11-03T16:19:17.032Z</time>
      </trkpt>
      <trkpt lat="40.173183" lon="-3.112379">
        <ele>630.604851</ele>
        <time>2021-11-03T16:19:17.032Z</time>
      </trkpt>
      <trkpt lat="40.173109" lon="-3.112404">
        <ele>630.389022</ele>
        <time>2021-11-03T16:19:17.032Z</time>
      </trkpt>
      <trkpt lat="40.172825" lon="-3.112548">
        <ele>629.642762</ele>
        <time>2021-11-03T16:19:17.032Z</time>
      </trkpt>
      <trkpt lat="40.172547" lon="-3.112675">
        <ele>629.379868</ele>
        <time>2021-11-03T16:19:17.032Z</time>
      </trkpt>
      <trkpt lat="40.172272" lon="-3.112792">
        <ele>629.121692</ele>
        <time>2021-11-03T16:19:17.032Z</time>
      </trkpt>
      <trkpt lat="40.172069" lon="-3.112873">
        <ele>628.932210</ele>
        <time>2021-11-03T16:19:17.032Z</time>
      </trkpt>
      <trkpt lat="40.172001" lon="-3.112901">
        <ele>628.868564</ele>
        <time>2021-11-03T16:19:17.032Z</time>
      </trkpt>
      <trkpt lat="40.171937" lon="-3.112933">
        <ele>628.807394</ele>
        <time>2021-11-03T16:19:17.032Z</time>
      </trkpt>
      <trkpt lat="40.171806" lon="-3.112991">
        <ele>628.683922</ele>
        <time>2021-11-03T16:19:17.032Z</time>
      </trkpt>
      <trkpt lat="40.171482" lon="-3.113156">
        <ele>628.373515</ele>
        <time>2021-11-03T16:19:17.032Z</time>
      </trkpt>
      <trkpt lat="40.171356" lon="-3.113228">
        <ele>628.250763</ele>
        <time>2021-11-03T16:19:17.032Z</time>
      </trkpt>
      <trkpt lat="40.171233" lon="-3.113305">
        <ele>628.129027</ele>
        <time>2021-11-03T16:19:17.032Z</time>
      </trkpt>
      <trkpt lat="40.171004" lon="-3.113489">
        <ele>627.870213</ele>
        <time>2021-11-03T16:19:17.032Z</time>
      </trkpt>
      <trkpt lat="40.170902" lon="-3.113600">
        <ele>627.740605</ele>
        <time>2021-11-03T16:19:17.032Z</time>
      </trkpt>
      <trkpt lat="40.170853" lon="-3.113657">
        <ele>627.676552</ele>
        <time>2021-11-03T16:19:17.032Z</time>
      </trkpt>
      <trkpt lat="40.170444" lon="-3.114075">
        <ele>627.169541</ele>
        <time>2021-11-03T16:19:17.032Z</time>
      </trkpt>
      <trkpt lat="40.170069" lon="-3.114406">
        <ele>626.727615</ele>
        <time>2021-11-03T16:19:17.032Z</time>
      </trkpt>
      <trkpt lat="40.170021" lon="-3.114465">
        <ele>626.663276</ele>
        <time>2021-11-03T16:19:17.032Z</time>
      </trkpt>
      <trkpt lat="40.169841" lon="-3.114701">
        <ele>626.414337</ele>
        <time>2021-11-03T16:19:17.032Z</time>
      </trkpt>
      <trkpt lat="40.169586" lon="-3.114979">
        <ele>625.484906</ele>
        <time>2021-11-03T16:19:17.032Z</time>
      </trkpt>
      <trkpt lat="40.169407" lon="-3.115146">
        <ele>624.733361</ele>
        <time>2021-11-03T16:19:17.032Z</time>
      </trkpt>
      <trkpt lat="40.169221" lon="-3.115330">
        <ele>623.936238</ele>
        <time>2021-11-03T16:19:17.032Z</time>
      </trkpt>
      <trkpt lat="40.169156" lon="-3.115390">
        <ele>623.664301</ele>
        <time>2021-11-03T16:19:17.032Z</time>
      </trkpt>
      <trkpt lat="40.169088" lon="-3.115446">
        <ele>623.389625</ele>
        <time>2021-11-03T16:19:17.032Z</time>
      </trkpt>
      <trkpt lat="40.168787" lon="-3.115612">
        <ele>622.272939</ele>
        <time>2021-11-03T16:19:17.032Z</time>
      </trkpt>
      <trkpt lat="40.168544" lon="-3.115662">
        <ele>621.431979</ele>
        <time>2021-11-03T16:19:17.032Z</time>
      </trkpt>
      <trkpt lat="40.168464" lon="-3.115671">
        <ele>621.157471</ele>
        <time>2021-11-03T16:19:17.032Z</time>
      </trkpt>
      <trkpt lat="40.168384" lon="-3.115680">
        <ele>620.882963</ele>
        <time>2021-11-03T16:19:17.032Z</time>
      </trkpt>
      <trkpt lat="40.168151" lon="-3.115714">
        <ele>620.144672</ele>
        <time>2021-11-03T16:19:17.032Z</time>
      </trkpt>
      <trkpt lat="40.167780" lon="-3.115794">
        <ele>619.658445</ele>
        <time>2021-11-03T16:19:17.032Z</time>
      </trkpt>
      <trkpt lat="40.167339" lon="-3.115869">
        <ele>619.083372</ele>
        <time>2021-11-03T16:19:17.032Z</time>
      </trkpt>
      <trkpt lat="40.167267" lon="-3.115885">
        <ele>618.988933</ele>
        <time>2021-11-03T16:19:17.032Z</time>
      </trkpt>
      <trkpt lat="40.167126" lon="-3.115919">
        <ele>618.803530</ele>
        <time>2021-11-03T16:19:17.032Z</time>
      </trkpt>
      <trkpt lat="40.166803" lon="-3.116020">
        <ele>618.374085</ele>
        <time>2021-11-03T16:19:17.032Z</time>
      </trkpt>
      <trkpt lat="40.166705" lon="-3.116019">
        <ele>618.247353</ele>
        <time>2021-11-03T16:19:17.032Z</time>
      </trkpt>
      <trkpt lat="40.166647" lon="-3.115937">
        <ele>618.136938</ele>
        <time>2021-11-03T16:19:17.032Z</time>
      </trkpt>
      <trkpt lat="40.166615" lon="-3.115905">
        <ele>618.084858</ele>
        <time>2021-11-03T16:19:17.032Z</time>
      </trkpt>
      <trkpt lat="40.166411" lon="-3.115690">
        <ele>617.661655</ele>
        <time>2021-11-03T16:19:17.032Z</time>
      </trkpt>
      <trkpt lat="40.166273" lon="-3.115549">
        <ele>617.263052</ele>
        <time>2021-11-03T16:19:17.032Z</time>
      </trkpt>
      <trkpt lat="40.166177" lon="-3.115452">
        <ele>616.986922</ele>
        <time>2021-11-03T16:19:17.032Z</time>
      </trkpt>
      <trkpt lat="40.166027" lon="-3.115303">
        <ele>616.558179</ele>
        <time>2021-11-03T16:19:17.032Z</time>
      </trkpt>
      <trkpt lat="40.165874" lon="-3.115147">
        <ele>616.116598</ele>
        <time>2021-11-03T16:19:17.032Z</time>
      </trkpt>
      <trkpt lat="40.165823" lon="-3.115095">
        <ele>615.969404</ele>
        <time>2021-11-03T16:19:17.032Z</time>
      </trkpt>
      <trkpt lat="40.165720" lon="-3.114990">
        <ele>615.672151</ele>
        <time>2021-11-03T16:19:17.032Z</time>
      </trkpt>
      <trkpt lat="40.165457" lon="-3.114734">
        <ele>614.925904</ele>
        <time>2021-11-03T16:19:17.032Z</time>
      </trkpt>
      <trkpt lat="40.165200" lon="-3.114472">
        <ele>614.184201</ele>
        <time>2021-11-03T16:19:17.032Z</time>
      </trkpt>
      <trkpt lat="40.165147" lon="-3.114421">
        <ele>614.034426</ele>
        <time>2021-11-03T16:19:17.032Z</time>
      </trkpt>
      <trkpt lat="40.164992" lon="-3.114268">
        <ele>613.595770</ele>
        <time>2021-11-03T16:19:17.032Z</time>
      </trkpt>
      <trkpt lat="40.164940" lon="-3.114216">
        <ele>613.449723</ele>
        <time>2021-11-03T16:19:17.032Z</time>
      </trkpt>
      <trkpt lat="40.164781" lon="-3.114054">
        <ele>613.000034</ele>
        <time>2021-11-03T16:19:17.032Z</time>
      </trkpt>
      <trkpt lat="40.164397" lon="-3.113670">
        <ele>611.921536</ele>
        <time>2021-11-03T16:19:17.032Z</time>
      </trkpt>
      <trkpt lat="40.164065" lon="-3.113342">
        <ele>610.993209</ele>
        <time>2021-11-03T16:19:17.032Z</time>
      </trkpt>
      <trkpt lat="40.163953" lon="-3.113235">
        <ele>610.683749</ele>
        <time>2021-11-03T16:19:17.032Z</time>
      </trkpt>
      <trkpt lat="40.163732" lon="-3.113015">
        <ele>610.064082</ele>
        <time>2021-11-03T16:19:17.032Z</time>
      </trkpt>
      <trkpt lat="40.163676" lon="-3.112962">
        <ele>609.909854</ele>
        <time>2021-11-03T16:19:17.032Z</time>
      </trkpt>
      <trkpt lat="40.163461" lon="-3.112732">
        <ele>609.259821</ele>
        <time>2021-11-03T16:19:17.032Z</time>
      </trkpt>
      <trkpt lat="40.163325" lon="-3.112535">
        <ele>608.777131</ele>
        <time>2021-11-03T16:19:17.032Z</time>
      </trkpt>
      <trkpt lat="40.163250" lon="-3.112394">
        <ele>608.464781</ele>
        <time>2021-11-03T16:19:17.032Z</time>
      </trkpt>
      <trkpt lat="40.163108" lon="-3.112097">
        <ele>607.827805</ele>
        <time>2021-11-03T16:19:17.032Z</time>
      </trkpt>
      <trkpt lat="40.163077" lon="-3.112022">
        <ele>607.672773</ele>
        <time>2021-11-03T16:19:17.032Z</time>
      </trkpt>
      <trkpt lat="40.163050" lon="-3.111943">
        <ele>607.515426</ele>
        <time>2021-11-03T16:19:17.032Z</time>
      </trkpt>
      <trkpt lat="40.162983" lon="-3.111697">
        <ele>607.040595</ele>
        <time>2021-11-03T16:19:17.032Z</time>
      </trkpt>
      <trkpt lat="40.162952" lon="-3.111527">
        <ele>606.722824</ele>
        <time>2021-11-03T16:19:17.032Z</time>
      </trkpt>
      <trkpt lat="40.162917" lon="-3.111001">
        <ele>605.762836</ele>
        <time>2021-11-03T16:19:17.032Z</time>
      </trkpt>
      <trkpt lat="40.162925" lon="-3.110839">
        <ele>605.467716</ele>
        <time>2021-11-03T16:19:17.032Z</time>
      </trkpt>
      <trkpt lat="40.162956" lon="-3.110512">
        <ele>604.884616</ele>
        <time>2021-11-03T16:19:17.032Z</time>
      </trkpt>
      <trkpt lat="40.162968" lon="-3.110432">
        <ele>604.740345</ele>
        <time>2021-11-03T16:19:17.032Z</time>
      </trkpt>
      <trkpt lat="40.162994" lon="-3.110190">
        <ele>604.307887</ele>
        <time>2021-11-03T16:19:17.032Z</time>
      </trkpt>
      <trkpt lat="40.163011" lon="-3.110023">
        <ele>604.009751</ele>
        <time>2021-11-03T16:19:17.032Z</time>
      </trkpt>
      <trkpt lat="40.163042" lon="-3.109695">
        <ele>603.424895</ele>
        <time>2021-11-03T16:19:17.032Z</time>
      </trkpt>
      <trkpt lat="40.163094" lon="-3.109119">
        <ele>602.398510</ele>
        <time>2021-11-03T16:19:17.032Z</time>
      </trkpt>
      <trkpt lat="40.163097" lon="-3.108953">
        <ele>602.104672</ele>
        <time>2021-11-03T16:19:17.032Z</time>
      </trkpt>
      <trkpt lat="40.163075" lon="-3.108539">
        <ele>601.370283</ele>
        <time>2021-11-03T16:19:17.032Z</time>
      </trkpt>
      <trkpt lat="40.163000" lon="-3.108129">
        <ele>600.685181</ele>
        <time>2021-11-03T16:19:17.032Z</time>
      </trkpt>
      <trkpt lat="40.162980" lon="-3.108052">
        <ele>600.554162</ele>
        <time>2021-11-03T16:19:17.032Z</time>
      </trkpt>
      <trkpt lat="40.162957" lon="-3.107976">
        <ele>600.422471</ele>
        <time>2021-11-03T16:19:17.032Z</time>
      </trkpt>
      <trkpt lat="40.162869" lon="-3.107751">
        <ele>600.015272</ele>
        <time>2021-11-03T16:19:17.032Z</time>
      </trkpt>
      <trkpt lat="40.162835" lon="-3.107677">
        <ele>599.876167</ele>
        <time>2021-11-03T16:19:17.032Z</time>
      </trkpt>
      <trkpt lat="40.162769" lon="-3.107522">
        <ele>599.590309</ele>
        <time>2021-11-03T16:19:17.032Z</time>
      </trkpt>
      <trkpt lat="40.162655" lon="-3.107299">
        <ele>599.158074</ele>
        <time>2021-11-03T16:19:17.032Z</time>
      </trkpt>
      <trkpt lat="40.162618" lon="-3.107224">
        <ele>599.014256</ele>
        <time>2021-11-03T16:19:17.032Z</time>
      </trkpt>
      <trkpt lat="40.162547" lon="-3.107071">
        <ele>598.725880</ele>
        <time>2021-11-03T16:19:17.032Z</time>
      </trkpt>
      <trkpt lat="40.162315" lon="-3.106619">
        <ele>597.848683</ele>
        <time>2021-11-03T16:19:17.032Z</time>
      </trkpt>
      <trkpt lat="40.162267" lon="-3.106552">
        <ele>597.700729</ele>
        <time>2021-11-03T16:19:17.032Z</time>
      </trkpt>
      <trkpt lat="40.162219" lon="-3.106486">
        <ele>597.553945</ele>
        <time>2021-11-03T16:19:17.032Z</time>
      </trkpt>
      <trkpt lat="40.161961" lon="-3.106174">
        <ele>596.711247</ele>
        <time>2021-11-03T16:19:17.032Z</time>
      </trkpt>
      <trkpt lat="40.161840" lon="-3.106067">
        <ele>596.358420</ele>
        <time>2021-11-03T16:19:17.032Z</time>
      </trkpt>
      <trkpt lat="40.161659" lon="-3.105927">
        <ele>595.850445</ele>
        <time>2021-11-03T16:19:17.032Z</time>
      </trkpt>
      <trkpt lat="40.161539" lon="-3.105855">
        <ele>595.531505</ele>
        <time>2021-11-03T16:19:17.032Z</time>
      </trkpt>
      <trkpt lat="40.161096" lon="-3.105691">
        <ele>594.419223</ele>
        <time>2021-11-03T16:19:17.032Z</time>
      </trkpt>
      <trkpt lat="40.161030" lon="-3.105679">
        <ele>594.258238</ele>
        <time>2021-11-03T16:19:17.032Z</time>
      </trkpt>
      <trkpt lat="40.160775" lon="-3.105662">
        <ele>593.641368</ele>
        <time>2021-11-03T16:19:17.032Z</time>
      </trkpt>
      <trkpt lat="40.160715" lon="-3.105662">
        <ele>593.496410</ele>
        <time>2021-11-03T16:19:17.032Z</time>
      </trkpt>
      <trkpt lat="40.160715" lon="-3.105662">
        <ele>593.496410</ele>
        <time>2021-11-03T16:19:17.032Z</time>
      </trkpt>
      <trkpt lat="40.159886" lon="-3.106013">
        <ele>591.293432</ele>
        <time>2021-11-03T16:19:17.032Z</time>
      </trkpt>
      <trkpt lat="40.159626" lon="-3.106300">
        <ele>590.426306</ele>
        <time>2021-11-03T16:19:17.032Z</time>
      </trkpt>
      <trkpt lat="40.159490" lon="-3.106276">
        <ele>590.076482</ele>
        <time>2021-11-03T16:19:17.032Z</time>
      </trkpt>
      <trkpt lat="40.159431" lon="-3.106319">
        <ele>589.904324</ele>
        <time>2021-11-03T16:19:17.032Z</time>
      </trkpt>
      <trkpt lat="40.159372" lon="-3.106367">
        <ele>589.727222</ele>
        <time>2021-11-03T16:19:17.032Z</time>
      </trkpt>
      <trkpt lat="40.159260" lon="-3.106461">
        <ele>589.388031</ele>
        <time>2021-11-03T16:19:17.032Z</time>
      </trkpt>
      <trkpt lat="40.159092" lon="-3.106603">
        <ele>588.878189</ele>
        <time>2021-11-03T16:19:17.032Z</time>
      </trkpt>
      <trkpt lat="40.159092" lon="-3.106603">
        <ele>588.878189</ele>
        <time>2021-11-03T16:19:17.032Z</time>
      </trkpt>
      <trkpt lat="40.159033" lon="-3.106649">
        <ele>588.703113</ele>
        <time>2021-11-03T16:19:17.032Z</time>
      </trkpt>
      <trkpt lat="40.158974" lon="-3.106694">
        <ele>588.532230</ele>
        <time>2021-11-03T16:19:17.032Z</time>
      </trkpt>
      <trkpt lat="40.158915" lon="-3.106740">
        <ele>588.367729</ele>
        <time>2021-11-03T16:19:17.032Z</time>
      </trkpt>
      <trkpt lat="40.158856" lon="-3.106785">
        <ele>588.204157</ele>
        <time>2021-11-03T16:19:17.032Z</time>
      </trkpt>
      <trkpt lat="40.158147" lon="-3.107330">
        <ele>586.234606</ele>
        <time>2021-11-03T16:19:17.032Z</time>
      </trkpt>
      <trkpt lat="40.158028" lon="-3.107415">
        <ele>585.909875</ele>
        <time>2021-11-03T16:19:17.032Z</time>
      </trkpt>
      <trkpt lat="40.157901" lon="-3.107494">
        <ele>585.573061</ele>
        <time>2021-11-03T16:19:17.032Z</time>
      </trkpt>
      <trkpt lat="40.157772" lon="-3.107560">
        <ele>585.241301</ele>
        <time>2021-11-03T16:19:17.032Z</time>
      </trkpt>
      <trkpt lat="40.157645" lon="-3.107626">
        <ele>584.913998</ele>
        <time>2021-11-03T16:19:17.032Z</time>
      </trkpt>
      <trkpt lat="40.157645" lon="-3.107626">
        <ele>584.913998</ele>
        <time>2021-11-03T16:19:17.032Z</time>
      </trkpt>
      <trkpt lat="40.157555" lon="-3.107666">
        <ele>584.686335</ele>
        <time>2021-11-03T16:19:17.032Z</time>
      </trkpt>
      <trkpt lat="40.157464" lon="-3.107706">
        <ele>584.456403</ele>
        <time>2021-11-03T16:19:17.032Z</time>
      </trkpt>
      <trkpt lat="40.157374" lon="-3.107746">
        <ele>584.223031</ele>
        <time>2021-11-03T16:19:17.032Z</time>
      </trkpt>
      <trkpt lat="40.157284" lon="-3.107787">
        <ele>583.965974</ele>
        <time>2021-11-03T16:19:17.032Z</time>
      </trkpt>
      <trkpt lat="40.157193" lon="-3.107827">
        <ele>583.707032</ele>
        <time>2021-11-03T16:19:17.032Z</time>
      </trkpt>
      <trkpt lat="40.157103" lon="-3.107867">
        <ele>583.450646</ele>
        <time>2021-11-03T16:19:17.032Z</time>
      </trkpt>
      <trkpt lat="40.157012" lon="-3.107907">
        <ele>583.191704</ele>
        <time>2021-11-03T16:19:17.032Z</time>
      </trkpt>
      <trkpt lat="40.156922" lon="-3.107947">
        <ele>582.935317</ele>
        <time>2021-11-03T16:19:17.032Z</time>
      </trkpt>
      <trkpt lat="40.156177" lon="-3.108299">
        <ele>580.798764</ele>
        <time>2021-11-03T16:19:17.032Z</time>
      </trkpt>
      <trkpt lat="40.156155" lon="-3.108330">
        <ele>580.711552</ele>
        <time>2021-11-03T16:19:17.032Z</time>
      </trkpt>
      <trkpt lat="40.156004" lon="-3.108381">
        <ele>580.290897</ele>
        <time>2021-11-03T16:19:17.032Z</time>
      </trkpt>
      <trkpt lat="40.155886" lon="-3.108439">
        <ele>579.950889</ele>
        <time>2021-11-03T16:19:17.032Z</time>
      </trkpt>
      <trkpt lat="40.155772" lon="-3.108519">
        <ele>579.601951</ele>
        <time>2021-11-03T16:19:17.032Z</time>
      </trkpt>
      <trkpt lat="40.155553" lon="-3.108667">
        <ele>577.615625</ele>
        <time>2021-11-03T16:19:17.032Z</time>
      </trkpt>
      <trkpt lat="40.155506" lon="-3.108696">
        <ele>577.093782</ele>
        <time>2021-11-03T16:19:17.032Z</time>
      </trkpt>
      <trkpt lat="40.155439" lon="-3.108698">
        <ele>576.420769</ele>
        <time>2021-11-03T16:19:17.032Z</time>
      </trkpt>
      <trkpt lat="40.155425" lon="-3.108694">
        <ele>576.276862</ele>
        <time>2021-11-03T16:19:17.032Z</time>
      </trkpt>
      <trkpt lat="40.155384" lon="-3.108660">
        <ele>575.789391</ele>
        <time>2021-11-03T16:19:17.032Z</time>
      </trkpt>
      <trkpt lat="40.155338" lon="-3.108604">
        <ele>575.158405</ele>
        <time>2021-11-03T16:19:17.032Z</time>
      </trkpt>
      <trkpt lat="40.155324" lon="-3.108584">
        <ele>574.950244</ele>
        <time>2021-11-03T16:19:17.032Z</time>
      </trkpt>
      <trkpt lat="40.155323" lon="-3.108558">
        <ele>574.750432</ele>
        <time>2021-11-03T16:19:17.032Z</time>
      </trkpt>
      <trkpt lat="40.155359" lon="-3.108485">
        <ele>574.083620</ele>
        <time>2021-11-03T16:19:17.032Z</time>
      </trkpt>
      <trkpt lat="40.155371" lon="-3.108433">
        <ele>573.666705</ele>
        <time>2021-11-03T16:19:17.032Z</time>
      </trkpt>
      <trkpt lat="40.155378" lon="-3.108379">
        <ele>573.246316</ele>
        <time>2021-11-03T16:19:17.032Z</time>
      </trkpt>
      <trkpt lat="40.155387" lon="-3.108316">
        <ele>572.754394</ele>
        <time>2021-11-03T16:19:17.032Z</time>
      </trkpt>
      <trkpt lat="40.155403" lon="-3.108175">
        <ele>571.660304</ele>
        <time>2021-11-03T16:19:17.032Z</time>
      </trkpt>
      <trkpt lat="40.155414" lon="-3.108103">
        <ele>571.096746</ele>
        <time>2021-11-03T16:19:17.032Z</time>
      </trkpt>
      <trkpt lat="40.155410" lon="-3.108028">
        <ele>570.519694</ele>
        <time>2021-11-03T16:19:17.032Z</time>
      </trkpt>
      <trkpt lat="40.155391" lon="-3.107958">
        <ele>569.949543</ele>
        <time>2021-11-03T16:19:17.032Z</time>
      </trkpt>
      <trkpt lat="40.155358" lon="-3.107893">
        <ele>569.350607</ele>
        <time>2021-11-03T16:19:17.032Z</time>
      </trkpt>
      <trkpt lat="40.155268" lon="-3.107810">
        <ele>568.244841</ele>
        <time>2021-11-03T16:19:17.032Z</time>
      </trkpt>
      <trkpt lat="40.155218" lon="-3.107800">
        <ele>567.736890</ele>
        <time>2021-11-03T16:19:17.032Z</time>
      </trkpt>
      <trkpt lat="40.155172" lon="-3.107819">
        <ele>567.252469</ele>
        <time>2021-11-03T16:19:17.032Z</time>
      </trkpt>
      <trkpt lat="40.155111" lon="-3.107903">
        <ele>566.363121</ele>
        <time>2021-11-03T16:19:17.032Z</time>
      </trkpt>
      <trkpt lat="40.155082" lon="-3.107944">
        <ele>565.934350</ele>
        <time>2021-11-03T16:19:17.032Z</time>
      </trkpt>
      <trkpt lat="40.154985" lon="-3.108060">
        <ele>564.614650</ele>
        <time>2021-11-03T16:19:17.032Z</time>
      </trkpt>
      <trkpt lat="40.154955" lon="-3.108106">
        <ele>564.150515</ele>
        <time>2021-11-03T16:19:17.032Z</time>
      </trkpt>
      <trkpt lat="40.154926" lon="-3.108150">
        <ele>563.704569</ele>
        <time>2021-11-03T16:19:17.032Z</time>
      </trkpt>
      <trkpt lat="40.154782" lon="-3.108320">
        <ele>561.756809</ele>
        <time>2021-11-03T16:19:17.032Z</time>
      </trkpt>
      <trkpt lat="40.154750" lon="-3.108357">
        <ele>561.358596</ele>
        <time>2021-11-03T16:19:17.032Z</time>
      </trkpt>
      <trkpt lat="40.154714" lon="-3.108393">
        <ele>561.342237</ele>
        <time>2021-11-03T16:19:17.032Z</time>
      </trkpt>
      <trkpt lat="40.154633" lon="-3.108452">
        <ele>561.308766</ele>
        <time>2021-11-03T16:19:17.032Z</time>
      </trkpt>
      <trkpt lat="40.154589" lon="-3.108478">
        <ele>561.291336</ele>
        <time>2021-11-03T16:19:17.032Z</time>
      </trkpt>
      <trkpt lat="40.154340" lon="-3.108606">
        <ele>561.194748</ele>
        <time>2021-11-03T16:19:17.032Z</time>
      </trkpt>
      <trkpt lat="40.154232" lon="-3.108641">
        <ele>561.154578</ele>
        <time>2021-11-03T16:19:17.032Z</time>
      </trkpt>
      <trkpt lat="40.153908" lon="-3.108791">
        <ele>561.030495</ele>
        <time>2021-11-03T16:19:17.032Z</time>
      </trkpt>
      <trkpt lat="40.153793" lon="-3.108842">
        <ele>560.986655</ele>
        <time>2021-11-03T16:19:17.032Z</time>
      </trkpt>
      <trkpt lat="40.153272" lon="-3.109073">
        <ele>560.788048</ele>
        <time>2021-11-03T16:19:17.032Z</time>
      </trkpt>
      <trkpt lat="40.153216" lon="-3.109102">
        <ele>560.766304</ele>
        <time>2021-11-03T16:19:17.032Z</time>
      </trkpt>
      <trkpt lat="40.152763" lon="-3.109340">
        <ele>560.717078</ele>
        <time>2021-11-03T16:19:17.032Z</time>
      </trkpt>
      <trkpt lat="40.152301" lon="-3.109542">
        <ele>560.726893</ele>
        <time>2021-11-03T16:19:17.032Z</time>
      </trkpt>
      <trkpt lat="40.152121" lon="-3.109560">
        <ele>560.730531</ele>
        <time>2021-11-03T16:19:17.032Z</time>
      </trkpt>
      <trkpt lat="40.151813" lon="-3.109566">
        <ele>560.736738</ele>
        <time>2021-11-03T16:19:17.032Z</time>
      </trkpt>
      <trkpt lat="40.151570" lon="-3.109569">
        <ele>560.741635</ele>
        <time>2021-11-03T16:19:17.032Z</time>
      </trkpt>
      <trkpt lat="40.151266" lon="-3.109557">
        <ele>560.740176</ele>
        <time>2021-11-03T16:19:17.032Z</time>
      </trkpt>
      <trkpt lat="40.150740" lon="-3.109450">
        <ele>560.680533</ele>
        <time>2021-11-03T16:19:17.032Z</time>
      </trkpt>
      <trkpt lat="40.150403" lon="-3.109373">
        <ele>560.642203</ele>
        <time>2021-11-03T16:19:17.032Z</time>
      </trkpt>
      <trkpt lat="40.150285" lon="-3.109353">
        <ele>560.628871</ele>
        <time>2021-11-03T16:19:17.032Z</time>
      </trkpt>
      <trkpt lat="40.150104" lon="-3.109345">
        <ele>560.608580</ele>
        <time>2021-11-03T16:19:17.032Z</time>
      </trkpt>
      <trkpt lat="40.149981" lon="-3.109350">
        <ele>560.594792</ele>
        <time>2021-11-03T16:19:17.032Z</time>
      </trkpt>
      <trkpt lat="40.149608" lon="-3.109385">
        <ele>560.552892</ele>
        <time>2021-11-03T16:19:17.032Z</time>
      </trkpt>
      <trkpt lat="40.149430" lon="-3.109328">
        <ele>560.518321</ele>
        <time>2021-11-03T16:19:17.032Z</time>
      </trkpt>
      <trkpt lat="40.149258" lon="-3.109248">
        <ele>560.475296</ele>
        <time>2021-11-03T16:19:17.032Z</time>
      </trkpt>
      <trkpt lat="40.148964" lon="-3.109123">
        <ele>560.402435</ele>
        <time>2021-11-03T16:19:17.032Z</time>
      </trkpt>
      <trkpt lat="40.148730" lon="-3.109020">
        <ele>560.344245</ele>
        <time>2021-11-03T16:19:17.032Z</time>
      </trkpt>
      <trkpt lat="40.148554" lon="-3.108936">
        <ele>560.300088</ele>
        <time>2021-11-03T16:19:17.032Z</time>
      </trkpt>
      <trkpt lat="40.148203" lon="-3.108779">
        <ele>560.212658</ele>
        <time>2021-11-03T16:19:17.032Z</time>
      </trkpt>
      <trkpt lat="40.147851" lon="-3.108622">
        <ele>560.125005</ele>
        <time>2021-11-03T16:19:17.032Z</time>
      </trkpt>
      <trkpt lat="40.147789" lon="-3.108604">
        <ele>560.137630</ele>
        <time>2021-11-03T16:19:17.032Z</time>
      </trkpt>
      <trkpt lat="40.147726" lon="-3.108595">
        <ele>560.159772</ele>
        <time>2021-11-03T16:19:17.032Z</time>
      </trkpt>
      <trkpt lat="40.147604" lon="-3.108613">
        <ele>560.202667</ele>
        <time>2021-11-03T16:19:17.032Z</time>
      </trkpt>
      <trkpt lat="40.147545" lon="-3.108639">
        <ele>560.224419</ele>
        <time>2021-11-03T16:19:17.032Z</time>
      </trkpt>
      <trkpt lat="40.147488" lon="-3.108676">
        <ele>560.246650</ele>
        <time>2021-11-03T16:19:17.032Z</time>
      </trkpt>
      <trkpt lat="40.147336" lon="-3.108826">
        <ele>560.313171</ele>
        <time>2021-11-03T16:19:17.032Z</time>
      </trkpt>
      <trkpt lat="40.147250" lon="-3.108946">
        <ele>560.357102</ele>
        <time>2021-11-03T16:19:17.032Z</time>
      </trkpt>
      <trkpt lat="40.147165" lon="-3.109070">
        <ele>560.401584</ele>
        <time>2021-11-03T16:19:17.032Z</time>
      </trkpt>
      <trkpt lat="40.147124" lon="-3.109133">
        <ele>560.423681</ele>
        <time>2021-11-03T16:19:17.032Z</time>
      </trkpt>
      <trkpt lat="40.147006" lon="-3.109321">
        <ele>560.488647</ele>
        <time>2021-11-03T16:19:17.032Z</time>
      </trkpt>
      <trkpt lat="40.146884" lon="-3.109605">
        <ele>560.575650</ele>
        <time>2021-11-03T16:19:17.032Z</time>
      </trkpt>
      <trkpt lat="40.146864" lon="-3.109681">
        <ele>560.597117</ele>
        <time>2021-11-03T16:19:17.032Z</time>
      </trkpt>
      <trkpt lat="40.146845" lon="-3.109758">
        <ele>560.618726</ele>
        <time>2021-11-03T16:19:17.032Z</time>
      </trkpt>
      <trkpt lat="40.146740" lon="-3.110207">
        <ele>560.744125</ele>
        <time>2021-11-03T16:19:17.032Z</time>
      </trkpt>
      <trkpt lat="40.146667" lon="-3.110280">
        <ele>560.636763</ele>
        <time>2021-11-03T16:19:17.032Z</time>
      </trkpt>
      <trkpt lat="40.146562" lon="-3.110266">
        <ele>560.480726</ele>
        <time>2021-11-03T16:19:17.032Z</time>
      </trkpt>
      <trkpt lat="40.146509" lon="-3.110236">
        <ele>560.395350</ele>
        <time>2021-11-03T16:19:17.032Z</time>
      </trkpt>
      <trkpt lat="40.146458" lon="-3.110194">
        <ele>560.306256</ele>
        <time>2021-11-03T16:19:17.032Z</time>
      </trkpt>
      <trkpt lat="40.146376" lon="-3.110084">
        <ele>560.132619</ele>
        <time>2021-11-03T16:19:17.032Z</time>
      </trkpt>
      <trkpt lat="40.146338" lon="-3.110026">
        <ele>560.046292</ele>
        <time>2021-11-03T16:19:17.032Z</time>
      </trkpt>
      <trkpt lat="40.146286" lon="-3.109991">
        <ele>559.959837</ele>
        <time>2021-11-03T16:19:17.032Z</time>
      </trkpt>
      <trkpt lat="40.146229" lon="-3.109993">
        <ele>559.875537</ele>
        <time>2021-11-03T16:19:17.032Z</time>
      </trkpt>
      <trkpt lat="40.146179" lon="-3.110032">
        <ele>559.789475</ele>
        <time>2021-11-03T16:19:17.032Z</time>
      </trkpt>
      <trkpt lat="40.146144" lon="-3.110093">
        <ele>559.703279</ele>
        <time>2021-11-03T16:19:17.032Z</time>
      </trkpt>
      <trkpt lat="40.146055" lon="-3.110282">
        <ele>559.452414</ele>
        <time>2021-11-03T16:19:17.032Z</time>
      </trkpt>
      <trkpt lat="40.145955" lon="-3.110472">
        <ele>559.191721</ele>
        <time>2021-11-03T16:19:17.032Z</time>
      </trkpt>
      <trkpt lat="40.145886" lon="-3.110603">
        <ele>559.011935</ele>
        <time>2021-11-03T16:19:17.032Z</time>
      </trkpt>
      <trkpt lat="40.145825" lon="-3.110742">
        <ele>558.830804</ele>
        <time>2021-11-03T16:19:17.032Z</time>
      </trkpt>
      <trkpt lat="40.145765" lon="-3.110875">
        <ele>558.656276</ele>
        <time>2021-11-03T16:19:17.032Z</time>
      </trkpt>
      <trkpt lat="40.145702" lon="-3.110987">
        <ele>558.499128</ele>
        <time>2021-11-03T16:19:17.032Z</time>
      </trkpt>
      <trkpt lat="40.145633" lon="-3.111023">
        <ele>558.389305</ele>
        <time>2021-11-03T16:19:17.032Z</time>
      </trkpt>
      <trkpt lat="40.145505" lon="-3.110954">
        <ele>558.184632</ele>
        <time>2021-11-03T16:19:17.032Z</time>
      </trkpt>
      <trkpt lat="40.145442" lon="-3.110847">
        <ele>558.067903</ele>
        <time>2021-11-03T16:19:17.032Z</time>
      </trkpt>
      <trkpt lat="40.145412" lon="-3.110785">
        <ele>558.035926</ele>
        <time>2021-11-03T16:19:17.032Z</time>
      </trkpt>
      <trkpt lat="40.145381" lon="-3.110721">
        <ele>558.002907</ele>
        <time>2021-11-03T16:19:17.032Z</time>
      </trkpt>
      <trkpt lat="40.145246" lon="-3.110472">
        <ele>557.869872</ele>
        <time>2021-11-03T16:19:17.032Z</time>
      </trkpt>
      <trkpt lat="40.145175" lon="-3.110349">
        <ele>557.802703</ele>
        <time>2021-11-03T16:19:17.032Z</time>
      </trkpt>
      <trkpt lat="40.145108" lon="-3.110221">
        <ele>557.735097</ele>
        <time>2021-11-03T16:19:17.032Z</time>
      </trkpt>
      <trkpt lat="40.145075" lon="-3.110156">
        <ele>557.701092</ele>
        <time>2021-11-03T16:19:17.032Z</time>
      </trkpt>
      <trkpt lat="40.144969" lon="-3.109963">
        <ele>557.597525</ele>
        <time>2021-11-03T16:19:17.032Z</time>
      </trkpt>
      <trkpt lat="40.144863" lon="-3.109771">
        <ele>557.494312</ele>
        <time>2021-11-03T16:19:17.032Z</time>
      </trkpt>
      <trkpt lat="40.144728" lon="-3.109511">
        <ele>557.357338</ele>
        <time>2021-11-03T16:19:17.032Z</time>
      </trkpt>
      <trkpt lat="40.144447" lon="-3.108971">
        <ele>557.072655</ele>
        <time>2021-11-03T16:19:17.032Z</time>
      </trkpt>
      <trkpt lat="40.144341" lon="-3.108773">
        <ele>557.078467</ele>
        <time>2021-11-03T16:19:17.032Z</time>
      </trkpt>
      <trkpt lat="40.144153" lon="-3.108468">
        <ele>557.101949</ele>
        <time>2021-11-03T16:19:17.032Z</time>
      </trkpt>
      <trkpt lat="40.144046" lon="-3.108283">
        <ele>557.115853</ele>
        <time>2021-11-03T16:19:17.032Z</time>
      </trkpt>
      <trkpt lat="40.143975" lon="-3.108155">
        <ele>557.125331</ele>
        <time>2021-11-03T16:19:17.032Z</time>
      </trkpt>
      <trkpt lat="40.143902" lon="-3.108032">
        <ele>557.134664</ele>
        <time>2021-11-03T16:19:17.032Z</time>
      </trkpt>
      <trkpt lat="40.143785" lon="-3.107857">
        <ele>557.148598</ele>
        <time>2021-11-03T16:19:17.032Z</time>
      </trkpt>
      <trkpt lat="40.143706" lon="-3.107737">
        <ele>557.158089</ele>
        <time>2021-11-03T16:19:17.032Z</time>
      </trkpt>
      <trkpt lat="40.143671" lon="-3.107675">
        <ele>557.162709</ele>
        <time>2021-11-03T16:19:17.032Z</time>
      </trkpt>
      <trkpt lat="40.143527" lon="-3.107319">
        <ele>557.186848</ele>
        <time>2021-11-03T16:19:17.032Z</time>
      </trkpt>
      <trkpt lat="40.143318" lon="-3.106711">
        <ele>556.231513</ele>
        <time>2021-11-03T16:19:17.032Z</time>
      </trkpt>
      <trkpt lat="40.143250" lon="-3.106561">
        <ele>555.740745</ele>
        <time>2021-11-03T16:19:17.032Z</time>
      </trkpt>
      <trkpt lat="40.143213" lon="-3.106484">
        <ele>555.484800</ele>
        <time>2021-11-03T16:19:17.032Z</time>
      </trkpt>
      <trkpt lat="40.143132" lon="-3.106327">
        <ele>554.951768</ele>
        <time>2021-11-03T16:19:17.032Z</time>
      </trkpt>
      <trkpt lat="40.143042" lon="-3.106167">
        <ele>554.392739</ele>
        <time>2021-11-03T16:19:17.032Z</time>
      </trkpt>
      <trkpt lat="40.142946" lon="-3.106005">
        <ele>553.815905</ele>
        <time>2021-11-03T16:19:17.032Z</time>
      </trkpt>
      <trkpt lat="40.142649" lon="-3.105548">
        <ele>552.127880</ele>
        <time>2021-11-03T16:19:17.032Z</time>
      </trkpt>
      <trkpt lat="40.142546" lon="-3.105411">
        <ele>551.587121</ele>
        <time>2021-11-03T16:19:17.032Z</time>
      </trkpt>
      <trkpt lat="40.142497" lon="-3.105345">
        <ele>551.328206</ele>
        <time>2021-11-03T16:19:17.032Z</time>
      </trkpt>
      <trkpt lat="40.142450" lon="-3.105279">
        <ele>551.074366</ele>
        <time>2021-11-03T16:19:17.032Z</time>
      </trkpt>
      <trkpt lat="40.142403" lon="-3.105214">
        <ele>550.822577</ele>
        <time>2021-11-03T16:19:17.032Z</time>
      </trkpt>
      <trkpt lat="40.142171" lon="-3.104902">
        <ele>550.660950</ele>
        <time>2021-11-03T16:19:17.032Z</time>
      </trkpt>
      <trkpt lat="40.141859" lon="-3.104473">
        <ele>550.789839</ele>
        <time>2021-11-03T16:19:17.032Z</time>
      </trkpt>
      <trkpt lat="40.141686" lon="-3.104237">
        <ele>550.861011</ele>
        <time>2021-11-03T16:19:17.032Z</time>
      </trkpt>
      <trkpt lat="40.141558" lon="-3.104065">
        <ele>550.913261</ele>
        <time>2021-11-03T16:19:17.032Z</time>
      </trkpt>
      <trkpt lat="40.141380" lon="-3.103849">
        <ele>550.982395</ele>
        <time>2021-11-03T16:19:17.032Z</time>
      </trkpt>
      <trkpt lat="40.141206" lon="-3.103662">
        <ele>551.046516</ele>
        <time>2021-11-03T16:19:17.032Z</time>
      </trkpt>
      <trkpt lat="40.141166" lon="-3.103609">
        <ele>551.062728</ele>
        <time>2021-11-03T16:19:17.032Z</time>
      </trkpt>
      <trkpt lat="40.141134" lon="-3.103547">
        <ele>551.079012</ele>
        <time>2021-11-03T16:19:17.032Z</time>
      </trkpt>
      <trkpt lat="40.141114" lon="-3.103474">
        <ele>551.095891</ele>
        <time>2021-11-03T16:19:17.032Z</time>
      </trkpt>
      <trkpt lat="40.141103" lon="-3.103397">
        <ele>551.101645</ele>
        <time>2021-11-03T16:19:17.032Z</time>
      </trkpt>
      <trkpt lat="40.141087" lon="-3.103238">
        <ele>551.112181</ele>
        <time>2021-11-03T16:19:17.032Z</time>
      </trkpt>
      <trkpt lat="40.141050" lon="-3.102527">
        <ele>551.159000</ele>
        <time>2021-11-03T16:19:17.032Z</time>
      </trkpt>
      <trkpt lat="40.141014" lon="-3.102000">
        <ele>551.193760</ele>
        <time>2021-11-03T16:19:17.032Z</time>
      </trkpt>
      <trkpt lat="40.141002" lon="-3.101637">
        <ele>551.217630</ele>
        <time>2021-11-03T16:19:17.032Z</time>
      </trkpt>
      <trkpt lat="40.141015" lon="-3.101566">
        <ele>551.222427</ele>
        <time>2021-11-03T16:19:17.032Z</time>
      </trkpt>
      <trkpt lat="40.141036" lon="-3.101498">
        <ele>551.227245</ele>
        <time>2021-11-03T16:19:17.032Z</time>
      </trkpt>
      <trkpt lat="40.141114" lon="-3.101298">
        <ele>551.241995</ele>
        <time>2021-11-03T16:19:17.032Z</time>
      </trkpt>
      <trkpt lat="40.141172" lon="-3.101172">
        <ele>551.252083</ele>
        <time>2021-11-03T16:19:17.032Z</time>
      </trkpt>
      <trkpt lat="40.141263" lon="-3.100993">
        <ele>551.284804</ele>
        <time>2021-11-03T16:19:17.032Z</time>
      </trkpt>
      <trkpt lat="40.141462" lon="-3.100648">
        <ele>551.350588</ele>
        <time>2021-11-03T16:19:17.032Z</time>
      </trkpt>
      <trkpt lat="40.141790" lon="-3.100210">
        <ele>551.443914</ele>
        <time>2021-11-03T16:19:17.032Z</time>
      </trkpt>
      <trkpt lat="40.142050" lon="-3.099916">
        <ele>551.512342</ele>
        <time>2021-11-03T16:19:17.032Z</time>
      </trkpt>
      <trkpt lat="40.142148" lon="-3.099833">
        <ele>551.535588</ele>
        <time>2021-11-03T16:19:17.032Z</time>
      </trkpt>
      <trkpt lat="40.142246" lon="-3.099748">
        <ele>551.559000</ele>
        <time>2021-11-03T16:19:17.032Z</time>
      </trkpt>
      <trkpt lat="40.142294" lon="-3.099705">
        <ele>551.570584</ele>
        <time>2021-11-03T16:19:17.032Z</time>
      </trkpt>
      <trkpt lat="40.142641" lon="-3.099412">
        <ele>551.679222</ele>
        <time>2021-11-03T16:19:17.032Z</time>
      </trkpt>
      <trkpt lat="40.143097" lon="-3.099027">
        <ele>551.853095</ele>
        <time>2021-11-03T16:19:17.032Z</time>
      </trkpt>
      <trkpt lat="40.143607" lon="-3.098622">
        <ele>552.044231</ele>
        <time>2021-11-03T16:19:17.032Z</time>
      </trkpt>
      <trkpt lat="40.143657" lon="-3.098582">
        <ele>552.063008</ele>
        <time>2021-11-03T16:19:17.032Z</time>
      </trkpt>
      <trkpt lat="40.144000" lon="-3.098304">
        <ele>552.224552</ele>
        <time>2021-11-03T16:19:17.032Z</time>
      </trkpt>
      <trkpt lat="40.144241" lon="-3.098102">
        <ele>552.765747</ele>
        <time>2021-11-03T16:19:17.032Z</time>
      </trkpt>
      <trkpt lat="40.144388" lon="-3.097981">
        <ele>553.094140</ele>
        <time>2021-11-03T16:19:17.032Z</time>
      </trkpt>
      <trkpt lat="40.144439" lon="-3.097939">
        <ele>553.208088</ele>
        <time>2021-11-03T16:19:17.032Z</time>
      </trkpt>
      <trkpt lat="40.144573" lon="-3.097816">
        <ele>553.517605</ele>
        <time>2021-11-03T16:19:17.032Z</time>
      </trkpt>
      <trkpt lat="40.144630" lon="-3.097724">
        <ele>553.688771</ele>
        <time>2021-11-03T16:19:17.032Z</time>
      </trkpt>
      <trkpt lat="40.144647" lon="-3.097731">
        <ele>553.722469</ele>
        <time>2021-11-03T16:19:17.032Z</time>
      </trkpt>
      <trkpt lat="40.144678" lon="-3.097696">
        <ele>553.799896</ele>
        <time>2021-11-03T16:19:17.032Z</time>
      </trkpt>
      <trkpt lat="40.144651" lon="-3.097638">
        <ele>553.898048</ele>
        <time>2021-11-03T16:19:17.032Z</time>
      </trkpt>
      <trkpt lat="40.144625" lon="-3.097610">
        <ele>553.961724</ele>
        <time>2021-11-03T16:19:17.032Z</time>
      </trkpt>
      <trkpt lat="40.144597" lon="-3.097579">
        <ele>554.031082</ele>
        <time>2021-11-03T16:19:17.032Z</time>
      </trkpt>
      <trkpt lat="40.144513" lon="-3.097465">
        <ele>554.259941</ele>
        <time>2021-11-03T16:19:17.032Z</time>
      </trkpt>
      <trkpt lat="40.144463" lon="-3.097369">
        <ele>554.427842</ele>
        <time>2021-11-03T16:19:17.032Z</time>
      </trkpt>
      <trkpt lat="40.144416" lon="-3.097267">
        <ele>554.599983</ele>
        <time>2021-11-03T16:19:17.032Z</time>
      </trkpt>
      <trkpt lat="40.144397" lon="-3.097214">
        <ele>554.684593</ele>
        <time>2021-11-03T16:19:17.032Z</time>
      </trkpt>
      <trkpt lat="40.144378" lon="-3.097159">
        <ele>554.771830</ele>
        <time>2021-11-03T16:19:17.032Z</time>
      </trkpt>
      <trkpt lat="40.144360" lon="-3.097104">
        <ele>554.858304</ele>
        <time>2021-11-03T16:19:17.032Z</time>
      </trkpt>
      <trkpt lat="40.144343" lon="-3.097050">
        <ele>554.942714</ele>
        <time>2021-11-03T16:19:17.032Z</time>
      </trkpt>
      <trkpt lat="40.144247" lon="-3.096564">
        <ele>555.612185</ele>
        <time>2021-11-03T16:19:17.032Z</time>
      </trkpt>
      <trkpt lat="40.144208" lon="-3.096375">
        <ele>555.700923</ele>
        <time>2021-11-03T16:19:17.032Z</time>
      </trkpt>
      <trkpt lat="40.144101" lon="-3.095861">
        <ele>555.942397</ele>
        <time>2021-11-03T16:19:17.032Z</time>
      </trkpt>
      <trkpt lat="40.143970" lon="-3.095374">
        <ele>556.176417</ele>
        <time>2021-11-03T16:19:17.032Z</time>
      </trkpt>
      <trkpt lat="40.143945" lon="-3.095317">
        <ele>556.206205</ele>
        <time>2021-11-03T16:19:17.032Z</time>
      </trkpt>
      <trkpt lat="40.143823" lon="-3.095107">
        <ele>556.325766</ele>
        <time>2021-11-03T16:19:17.032Z</time>
      </trkpt>
      <trkpt lat="40.143787" lon="-3.095061">
        <ele>556.355606</ele>
        <time>2021-11-03T16:19:17.032Z</time>
      </trkpt>
      <trkpt lat="40.143748" lon="-3.095020">
        <ele>556.385275</ele>
        <time>2021-11-03T16:19:17.032Z</time>
      </trkpt>
      <trkpt lat="40.143527" lon="-3.094845">
        <ele>556.538462</ele>
        <time>2021-11-03T16:19:17.032Z</time>
      </trkpt>
      <trkpt lat="40.143422" lon="-3.094801">
        <ele>556.603841</ele>
        <time>2021-11-03T16:19:17.032Z</time>
      </trkpt>
      <trkpt lat="40.143256" lon="-3.094762">
        <ele>556.687841</ele>
        <time>2021-11-03T16:19:17.032Z</time>
      </trkpt>
      <trkpt lat="40.143200" lon="-3.094757">
        <ele>556.710619</ele>
        <time>2021-11-03T16:19:17.032Z</time>
      </trkpt>
      <trkpt lat="40.143085" lon="-3.094760">
        <ele>556.757298</ele>
        <time>2021-11-03T16:19:17.032Z</time>
      </trkpt>
      <trkpt lat="40.143028" lon="-3.094765">
        <ele>556.780481</ele>
        <time>2021-11-03T16:19:17.032Z</time>
      </trkpt>
      <trkpt lat="40.142854" lon="-3.094783">
        <ele>556.851314</ele>
        <time>2021-11-03T16:19:17.032Z</time>
      </trkpt>
      <trkpt lat="40.142680" lon="-3.094801">
        <ele>556.922146</ele>
        <time>2021-11-03T16:19:17.032Z</time>
      </trkpt>
      <trkpt lat="40.142564" lon="-3.094818">
        <ele>556.969515</ele>
        <time>2021-11-03T16:19:17.032Z</time>
      </trkpt>
      <trkpt lat="40.142392" lon="-3.094837">
        <ele>557.039564</ele>
        <time>2021-11-03T16:19:17.032Z</time>
      </trkpt>
      <trkpt lat="40.142166" lon="-3.094864">
        <ele>557.131661</ele>
        <time>2021-11-03T16:19:17.032Z</time>
      </trkpt>
      <trkpt lat="40.141994" lon="-3.094882">
        <ele>557.201684</ele>
        <time>2021-11-03T16:19:17.032Z</time>
      </trkpt>
      <trkpt lat="40.141471" lon="-3.094946">
        <ele>557.268630</ele>
        <time>2021-11-03T16:19:17.032Z</time>
      </trkpt>
      <trkpt lat="40.141141" lon="-3.095068">
        <ele>556.767980</ele>
        <time>2021-11-03T16:19:17.032Z</time>
      </trkpt>
      <trkpt lat="40.141088" lon="-3.095095">
        <ele>556.684943</ele>
        <time>2021-11-03T16:19:17.032Z</time>
      </trkpt>
      <trkpt lat="40.140928" lon="-3.095162">
        <ele>556.439677</ele>
        <time>2021-11-03T16:19:17.032Z</time>
      </trkpt>
      <trkpt lat="40.140876" lon="-3.095158">
        <ele>556.363629</ele>
        <time>2021-11-03T16:19:17.032Z</time>
      </trkpt>
      <trkpt lat="40.140837" lon="-3.095124">
        <ele>556.295205</ele>
        <time>2021-11-03T16:19:17.032Z</time>
      </trkpt>
      <trkpt lat="40.140820" lon="-3.095067">
        <ele>556.226920</ele>
        <time>2021-11-03T16:19:17.032Z</time>
      </trkpt>
      <trkpt lat="40.140846" lon="-3.094933">
        <ele>556.072625</ele>
        <time>2021-11-03T16:19:17.032Z</time>
      </trkpt>
      <trkpt lat="40.140872" lon="-3.094860">
        <ele>555.982744</ele>
        <time>2021-11-03T16:19:17.032Z</time>
      </trkpt>
      <trkpt lat="40.140896" lon="-3.094785">
        <ele>555.892001</ele>
        <time>2021-11-03T16:19:17.032Z</time>
      </trkpt>
      <trkpt lat="40.140947" lon="-3.094628">
        <ele>555.701616</ele>
        <time>2021-11-03T16:19:17.032Z</time>
      </trkpt>
      <trkpt lat="40.140972" lon="-3.094545">
        <ele>555.602052</ele>
        <time>2021-11-03T16:19:17.032Z</time>
      </trkpt>
      <trkpt lat="40.140991" lon="-3.094456">
        <ele>555.498922</ele>
        <time>2021-11-03T16:19:17.032Z</time>
      </trkpt>
      <trkpt lat="40.141003" lon="-3.094366">
        <ele>555.396960</ele>
        <time>2021-11-03T16:19:17.032Z</time>
      </trkpt>
      <trkpt lat="40.141019" lon="-3.094098">
        <ele>555.096944</ele>
        <time>2021-11-03T16:19:17.032Z</time>
      </trkpt>
      <trkpt lat="40.141024" lon="-3.093931">
        <ele>554.910419</ele>
        <time>2021-11-03T16:19:17.032Z</time>
      </trkpt>
      <trkpt lat="40.141044" lon="-3.093571">
        <ele>555.266771</ele>
        <time>2021-11-03T16:19:17.032Z</time>
      </trkpt>
      <trkpt lat="40.141048" lon="-3.093504">
        <ele>555.419931</ele>
        <time>2021-11-03T16:19:17.032Z</time>
      </trkpt>
      <trkpt lat="40.141051" lon="-3.093437">
        <ele>555.572888</ele>
        <time>2021-11-03T16:19:17.032Z</time>
      </trkpt>
      <trkpt lat="40.141052" lon="-3.093369">
        <ele>555.727891</ele>
        <time>2021-11-03T16:19:17.032Z</time>
      </trkpt>
      <trkpt lat="40.141054" lon="-3.093302">
        <ele>555.880702</ele>
        <time>2021-11-03T16:19:17.032Z</time>
      </trkpt>
      <trkpt lat="40.141070" lon="-3.092976">
        <ele>556.625195</ele>
        <time>2021-11-03T16:19:17.032Z</time>
      </trkpt>
      <trkpt lat="40.141077" lon="-3.092915">
        <ele>556.765774</ele>
        <time>2021-11-03T16:19:17.032Z</time>
      </trkpt>
      <trkpt lat="40.141087" lon="-3.092856">
        <ele>556.903501</ele>
        <time>2021-11-03T16:19:17.032Z</time>
      </trkpt>
      <trkpt lat="40.141110" lon="-3.092742">
        <ele>557.172207</ele>
        <time>2021-11-03T16:19:17.032Z</time>
      </trkpt>
      <trkpt lat="40.141122" lon="-3.092685">
        <ele>557.306947</ele>
        <time>2021-11-03T16:19:17.032Z</time>
      </trkpt>
      <trkpt lat="40.141183" lon="-3.092463">
        <ele>557.844581</ele>
        <time>2021-11-03T16:19:17.032Z</time>
      </trkpt>
      <trkpt lat="40.141221" lon="-3.092356">
        <ele>558.113467</ele>
        <time>2021-11-03T16:19:17.032Z</time>
      </trkpt>
      <trkpt lat="40.141258" lon="-3.092248">
        <ele>558.383188</ele>
        <time>2021-11-03T16:19:17.032Z</time>
      </trkpt>
      <trkpt lat="40.141389" lon="-3.091884">
        <ele>559.300083</ele>
        <time>2021-11-03T16:19:17.032Z</time>
      </trkpt>
      <trkpt lat="40.141406" lon="-3.091831">
        <ele>559.431073</ele>
        <time>2021-11-03T16:19:17.032Z</time>
      </trkpt>
      <trkpt lat="40.141466" lon="-3.091674">
        <ele>559.831099</ele>
        <time>2021-11-03T16:19:17.032Z</time>
      </trkpt>
      <trkpt lat="40.141531" lon="-3.091527">
        <ele>560.294713</ele>
        <time>2021-11-03T16:19:17.032Z</time>
      </trkpt>
      <trkpt lat="40.141556" lon="-3.091479">
        <ele>560.529691</ele>
        <time>2021-11-03T16:19:17.032Z</time>
      </trkpt>
      <trkpt lat="40.141581" lon="-3.091433">
        <ele>560.758027</ele>
        <time>2021-11-03T16:19:17.032Z</time>
      </trkpt>
      <trkpt lat="40.141742" lon="-3.091157">
        <ele>562.162575</ele>
        <time>2021-11-03T16:19:17.032Z</time>
      </trkpt>
      <trkpt lat="40.141798" lon="-3.091064">
        <ele>562.641521</ele>
        <time>2021-11-03T16:19:17.032Z</time>
      </trkpt>
      <trkpt lat="40.141935" lon="-3.090750">
        <ele>564.104185</ele>
        <time>2021-11-03T16:19:17.032Z</time>
      </trkpt>
      <trkpt lat="40.141973" lon="-3.090644">
        <ele>564.577832</ele>
        <time>2021-11-03T16:19:17.032Z</time>
      </trkpt>
      <trkpt lat="40.142045" lon="-3.090382">
        <ele>565.704189</ele>
        <time>2021-11-03T16:19:17.032Z</time>
      </trkpt>
      <trkpt lat="40.142056" lon="-3.090331">
        <ele>565.918570</ele>
        <time>2021-11-03T16:19:17.032Z</time>
      </trkpt>
      <trkpt lat="40.142099" lon="-3.090133">
        <ele>566.751296</ele>
        <time>2021-11-03T16:19:17.032Z</time>
      </trkpt>
      <trkpt lat="40.142136" lon="-3.089946">
        <ele>567.532753</ele>
        <time>2021-11-03T16:19:17.032Z</time>
      </trkpt>
      <trkpt lat="40.142146" lon="-3.089902">
        <ele>567.718460</ele>
        <time>2021-11-03T16:19:17.032Z</time>
      </trkpt>
      <trkpt lat="40.142156" lon="-3.089858">
        <ele>567.904166</ele>
        <time>2021-11-03T16:19:17.032Z</time>
      </trkpt>
      <trkpt lat="40.142187" lon="-3.089727">
        <ele>568.458951</ele>
        <time>2021-11-03T16:19:17.032Z</time>
      </trkpt>
      <trkpt lat="40.142225" lon="-3.089550">
        <ele>569.202725</ele>
        <time>2021-11-03T16:19:17.032Z</time>
      </trkpt>
      <trkpt lat="40.142247" lon="-3.089463">
        <ele>569.573448</ele>
        <time>2021-11-03T16:19:17.032Z</time>
      </trkpt>
      <trkpt lat="40.142285" lon="-3.089338">
        <ele>570.431930</ele>
        <time>2021-11-03T16:19:17.032Z</time>
      </trkpt>
      <trkpt lat="40.142365" lon="-3.089182">
        <ele>571.689870</ele>
        <time>2021-11-03T16:19:17.032Z</time>
      </trkpt>
      <trkpt lat="40.142443" lon="-3.089089">
        <ele>572.614376</ele>
        <time>2021-11-03T16:19:17.032Z</time>
      </trkpt>
      <trkpt lat="40.142521" lon="-3.089000">
        <ele>573.521054</ele>
        <time>2021-11-03T16:19:17.032Z</time>
      </trkpt>
      <trkpt lat="40.142549" lon="-3.088974">
        <ele>573.821845</ele>
        <time>2021-11-03T16:19:17.032Z</time>
      </trkpt>
      <trkpt lat="40.142605" lon="-3.088918">
        <ele>574.439317</ele>
        <time>2021-11-03T16:19:17.032Z</time>
      </trkpt>
      <trkpt lat="40.142684" lon="-3.088827">
        <ele>575.361410</ele>
        <time>2021-11-03T16:19:17.032Z</time>
      </trkpt>
      <trkpt lat="40.142755" lon="-3.088723">
        <ele>576.295137</ele>
        <time>2021-11-03T16:19:17.032Z</time>
      </trkpt>
      <trkpt lat="40.142775" lon="-3.088685">
        <ele>576.604082</ele>
        <time>2021-11-03T16:19:17.032Z</time>
      </trkpt>
      <trkpt lat="40.142792" lon="-3.088645">
        <ele>576.910553</ele>
        <time>2021-11-03T16:19:17.032Z</time>
      </trkpt>
      <trkpt lat="40.142821" lon="-3.088561">
        <ele>577.527759</ele>
        <time>2021-11-03T16:19:17.032Z</time>
      </trkpt>
      <trkpt lat="40.142836" lon="-3.088472">
        <ele>578.138056</ele>
        <time>2021-11-03T16:19:17.032Z</time>
      </trkpt>
      <trkpt lat="40.142843" lon="-3.088383">
        <ele>578.737186</ele>
        <time>2021-11-03T16:19:17.032Z</time>
      </trkpt>
      <trkpt lat="40.142849" lon="-3.088199">
        <ele>579.970452</ele>
        <time>2021-11-03T16:19:17.032Z</time>
      </trkpt>
      <trkpt lat="40.142851" lon="-3.088058">
        <ele>580.914813</ele>
        <time>2021-11-03T16:19:17.032Z</time>
      </trkpt>
      <trkpt lat="40.142852" lon="-3.088011">
        <ele>581.229667</ele>
        <time>2021-11-03T16:19:17.032Z</time>
      </trkpt>
      <trkpt lat="40.142850" lon="-3.087869">
        <ele>582.180724</ele>
        <time>2021-11-03T16:19:17.032Z</time>
      </trkpt>
      <trkpt lat="40.142851" lon="-3.087824">
        <ele>582.482191</ele>
        <time>2021-11-03T16:19:17.032Z</time>
      </trkpt>
      <trkpt lat="40.142851" lon="-3.087730">
        <ele>583.111656</ele>
        <time>2021-11-03T16:19:17.032Z</time>
      </trkpt>
      <trkpt lat="40.142851" lon="-3.087638">
        <ele>583.727729</ele>
        <time>2021-11-03T16:19:17.032Z</time>
      </trkpt>
      <trkpt lat="40.142858" lon="-3.087453">
        <ele>584.968088</ele>
        <time>2021-11-03T16:19:17.032Z</time>
      </trkpt>
      <trkpt lat="40.142876" lon="-3.087263">
        <ele>586.197682</ele>
        <time>2021-11-03T16:19:17.032Z</time>
      </trkpt>
      <trkpt lat="40.142884" lon="-3.087217">
        <ele>586.494230</ele>
        <time>2021-11-03T16:19:17.032Z</time>
      </trkpt>
      <trkpt lat="40.142913" lon="-3.087077">
        <ele>587.406016</ele>
        <time>2021-11-03T16:19:17.032Z</time>
      </trkpt>
      <trkpt lat="40.142963" lon="-3.086898">
        <ele>588.603987</ele>
        <time>2021-11-03T16:19:17.032Z</time>
      </trkpt>
      <trkpt lat="40.142985" lon="-3.086806">
        <ele>589.209939</ele>
        <time>2021-11-03T16:19:17.032Z</time>
      </trkpt>
      <trkpt lat="40.143010" lon="-3.086713">
        <ele>589.829635</ele>
        <time>2021-11-03T16:19:17.032Z</time>
      </trkpt>
      <trkpt lat="40.143066" lon="-3.086489">
        <ele>591.311097</ele>
        <time>2021-11-03T16:19:17.032Z</time>
      </trkpt>
      <trkpt lat="40.143084" lon="-3.086397">
        <ele>591.908055</ele>
        <time>2021-11-03T16:19:17.032Z</time>
      </trkpt>
      <trkpt lat="40.143093" lon="-3.086354">
        <ele>592.188303</ele>
        <time>2021-11-03T16:19:17.032Z</time>
      </trkpt>
      <trkpt lat="40.143125" lon="-3.086164">
        <ele>593.411295</ele>
        <time>2021-11-03T16:19:17.032Z</time>
      </trkpt>
      <trkpt lat="40.143156" lon="-3.085976">
        <ele>594.620252</ele>
        <time>2021-11-03T16:19:17.032Z</time>
      </trkpt>
      <trkpt lat="40.143164" lon="-3.085930">
        <ele>594.916798</ele>
        <time>2021-11-03T16:19:17.032Z</time>
      </trkpt>
      <trkpt lat="40.143193" lon="-3.085789">
        <ele>595.834650</ele>
        <time>2021-11-03T16:19:17.032Z</time>
      </trkpt>
      <trkpt lat="40.143248" lon="-3.085607">
        <ele>597.064860</ele>
        <time>2021-11-03T16:19:17.032Z</time>
      </trkpt>
      <trkpt lat="40.143264" lon="-3.085565">
        <ele>597.359840</ele>
        <time>2021-11-03T16:19:17.032Z</time>
      </trkpt>
      <trkpt lat="40.143319" lon="-3.085440">
        <ele>598.266459</ele>
        <time>2021-11-03T16:19:17.032Z</time>
      </trkpt>
      <trkpt lat="40.143372" lon="-3.085308">
        <ele>599.203708</ele>
        <time>2021-11-03T16:19:17.032Z</time>
      </trkpt>
      <trkpt lat="40.143426" lon="-3.085177">
        <ele>600.139271</ele>
        <time>2021-11-03T16:19:17.032Z</time>
      </trkpt>
      <trkpt lat="40.143446" lon="-3.085134">
        <ele>600.337517</ele>
        <time>2021-11-03T16:19:17.032Z</time>
      </trkpt>
      <trkpt lat="40.143501" lon="-3.085001">
        <ele>600.873878</ele>
        <time>2021-11-03T16:19:17.032Z</time>
      </trkpt>
      <trkpt lat="40.143583" lon="-3.084836">
        <ele>601.571947</ele>
        <time>2021-11-03T16:19:17.032Z</time>
      </trkpt>
      <trkpt lat="40.143657" lon="-3.084651">
        <ele>602.312555</ele>
        <time>2021-11-03T16:19:17.032Z</time>
      </trkpt>
      <trkpt lat="40.143708" lon="-3.084494">
        <ele>602.917633</ele>
        <time>2021-11-03T16:19:17.032Z</time>
      </trkpt>
      <trkpt lat="40.143724" lon="-3.084440">
        <ele>603.123058</ele>
        <time>2021-11-03T16:19:17.032Z</time>
      </trkpt>
      <trkpt lat="40.143746" lon="-3.084326">
        <ele>603.540105</ele>
        <time>2021-11-03T16:19:17.032Z</time>
      </trkpt>
      <trkpt lat="40.143752" lon="-3.084267">
        <ele>603.751223</ele>
        <time>2021-11-03T16:19:17.032Z</time>
      </trkpt>
      <trkpt lat="40.143759" lon="-3.084150">
        <ele>604.167494</ele>
        <time>2021-11-03T16:19:17.032Z</time>
      </trkpt>
      <trkpt lat="40.143759" lon="-3.084090">
        <ele>604.380315</ele>
        <time>2021-11-03T16:19:17.032Z</time>
      </trkpt>
      <trkpt lat="40.143750" lon="-3.083968">
        <ele>604.815062</ele>
        <time>2021-11-03T16:19:17.032Z</time>
      </trkpt>
      <trkpt lat="40.143741" lon="-3.083906">
        <ele>605.038908</ele>
        <time>2021-11-03T16:19:17.032Z</time>
      </trkpt>
      <trkpt lat="40.143702" lon="-3.083718">
        <ele>605.729867</ele>
        <time>2021-11-03T16:19:17.032Z</time>
      </trkpt>
      <trkpt lat="40.143582" lon="-3.083337">
        <ele>607.191499</ele>
        <time>2021-11-03T16:19:17.032Z</time>
      </trkpt>
      <trkpt lat="40.143539" lon="-3.083206">
        <ele>607.697187</ele>
        <time>2021-11-03T16:19:17.032Z</time>
      </trkpt>
      <trkpt lat="40.143380" lon="-3.082724">
        <ele>608.758039</ele>
        <time>2021-11-03T16:19:17.032Z</time>
      </trkpt>
      <trkpt lat="40.143334" lon="-3.082583">
        <ele>608.878363</ele>
        <time>2021-11-03T16:19:17.032Z</time>
      </trkpt>
      <trkpt lat="40.143311" lon="-3.082512">
        <ele>608.938885</ele>
        <time>2021-11-03T16:19:17.032Z</time>
      </trkpt>
      <trkpt lat="40.143288" lon="-3.082441">
        <ele>608.999408</ele>
        <time>2021-11-03T16:19:17.032Z</time>
      </trkpt>
      <trkpt lat="40.143242" lon="-3.082305">
        <ele>609.116132</ele>
        <time>2021-11-03T16:19:17.032Z</time>
      </trkpt>
      <trkpt lat="40.143220" lon="-3.082237">
        <ele>609.174087</ele>
        <time>2021-11-03T16:19:17.032Z</time>
      </trkpt>
      <trkpt lat="40.143156" lon="-3.082037">
        <ele>609.344259</ele>
        <time>2021-11-03T16:19:17.032Z</time>
      </trkpt>
      <trkpt lat="40.143028" lon="-3.081645">
        <ele>609.678822</ele>
        <time>2021-11-03T16:19:17.032Z</time>
      </trkpt>
      <trkpt lat="40.142968" lon="-3.081448">
        <ele>609.845262</ele>
        <time>2021-11-03T16:19:17.032Z</time>
      </trkpt>
      <trkpt lat="40.142845" lon="-3.081062">
        <ele>610.173491</ele>
        <time>2021-11-03T16:19:17.032Z</time>
      </trkpt>
      <trkpt lat="40.142783" lon="-3.080862">
        <ele>610.342882</ele>
        <time>2021-11-03T16:19:17.032Z</time>
      </trkpt>
      <trkpt lat="40.142692" lon="-3.080590">
        <ele>610.227706</ele>
        <time>2021-11-03T16:19:17.032Z</time>
      </trkpt>
      <trkpt lat="40.142671" lon="-3.080522">
        <ele>610.184453</ele>
        <time>2021-11-03T16:19:17.032Z</time>
      </trkpt>
      <trkpt lat="40.142605" lon="-3.080319">
        <ele>610.054354</ele>
        <time>2021-11-03T16:19:17.032Z</time>
      </trkpt>
      <trkpt lat="40.142492" lon="-3.079967">
        <ele>609.829198</ele>
        <time>2021-11-03T16:19:17.032Z</time>
      </trkpt>
      <trkpt lat="40.142447" lon="-3.079824">
        <ele>609.737996</ele>
        <time>2021-11-03T16:19:17.032Z</time>
      </trkpt>
      <trkpt lat="40.142425" lon="-3.079752">
        <ele>609.692267</ele>
        <time>2021-11-03T16:19:17.032Z</time>
      </trkpt>
      <trkpt lat="40.142262" lon="-3.079247">
        <ele>609.368978</ele>
        <time>2021-11-03T16:19:17.032Z</time>
      </trkpt>
      <trkpt lat="40.142189" lon="-3.079016">
        <ele>609.221562</ele>
        <time>2021-11-03T16:19:17.032Z</time>
      </trkpt>
      <trkpt lat="40.142135" lon="-3.078856">
        <ele>609.118412</ele>
        <time>2021-11-03T16:19:17.032Z</time>
      </trkpt>
      <trkpt lat="40.142109" lon="-3.078772">
        <ele>609.064966</ele>
        <time>2021-11-03T16:19:17.032Z</time>
      </trkpt>
      <trkpt lat="40.142084" lon="-3.078687">
        <ele>609.011254</ele>
        <time>2021-11-03T16:19:17.032Z</time>
      </trkpt>
      <trkpt lat="40.142058" lon="-3.078602">
        <ele>608.688999</ele>
        <time>2021-11-03T16:19:17.032Z</time>
      </trkpt>
      <trkpt lat="40.142005" lon="-3.078429">
        <ele>607.663608</ele>
        <time>2021-11-03T16:19:17.032Z</time>
      </trkpt>
      <trkpt lat="40.141956" lon="-3.078253">
        <ele>606.633081</ele>
        <time>2021-11-03T16:19:17.032Z</time>
      </trkpt>
      <trkpt lat="40.141897" lon="-3.077972">
        <ele>605.029834</ele>
        <time>2021-11-03T16:19:17.032Z</time>
      </trkpt>
      <trkpt lat="40.141878" lon="-3.077874">
        <ele>604.473591</ele>
        <time>2021-11-03T16:19:17.032Z</time>
      </trkpt>
      <trkpt lat="40.141846" lon="-3.077667">
        <ele>603.311674</ele>
        <time>2021-11-03T16:19:17.032Z</time>
      </trkpt>
      <trkpt lat="40.141811" lon="-3.077456">
        <ele>602.123786</ele>
        <time>2021-11-03T16:19:17.032Z</time>
      </trkpt>
      <trkpt lat="40.141795" lon="-3.077349">
        <ele>601.523941</ele>
        <time>2021-11-03T16:19:17.032Z</time>
      </trkpt>
      <trkpt lat="40.141776" lon="-3.077243">
        <ele>600.924936</ele>
        <time>2021-11-03T16:19:17.032Z</time>
      </trkpt>
      <trkpt lat="40.141702" lon="-3.076921">
        <ele>599.075044</ele>
        <time>2021-11-03T16:19:17.032Z</time>
      </trkpt>
      <trkpt lat="40.141669" lon="-3.076815">
        <ele>598.445349</ele>
        <time>2021-11-03T16:19:17.032Z</time>
      </trkpt>
      <trkpt lat="40.141635" lon="-3.076705">
        <ele>597.792555</ele>
        <time>2021-11-03T16:19:17.032Z</time>
      </trkpt>
      <trkpt lat="40.141601" lon="-3.076592">
        <ele>597.124431</ele>
        <time>2021-11-03T16:19:17.032Z</time>
      </trkpt>
      <trkpt lat="40.141525" lon="-3.076358">
        <ele>595.656665</ele>
        <time>2021-11-03T16:19:17.032Z</time>
      </trkpt>
      <trkpt lat="40.141489" lon="-3.076233">
        <ele>594.762841</ele>
        <time>2021-11-03T16:19:17.032Z</time>
      </trkpt>
      <trkpt lat="40.141450" lon="-3.076107">
        <ele>593.853226</ele>
        <time>2021-11-03T16:19:17.032Z</time>
      </trkpt>
      <trkpt lat="40.141405" lon="-3.075981">
        <ele>592.922626</ele>
        <time>2021-11-03T16:19:17.032Z</time>
      </trkpt>
      <trkpt lat="40.141324" lon="-3.075717">
        <ele>591.019101</ele>
        <time>2021-11-03T16:19:17.032Z</time>
      </trkpt>
      <trkpt lat="40.141282" lon="-3.075583">
        <ele>590.050001</ele>
        <time>2021-11-03T16:19:17.032Z</time>
      </trkpt>
      <trkpt lat="40.141239" lon="-3.075446">
        <ele>589.059005</ele>
        <time>2021-11-03T16:19:17.032Z</time>
      </trkpt>
      <trkpt lat="40.141158" lon="-3.075165">
        <ele>587.049460</ele>
        <time>2021-11-03T16:19:17.032Z</time>
      </trkpt>
      <trkpt lat="40.141126" lon="-3.075020">
        <ele>586.039569</ele>
        <time>2021-11-03T16:19:17.032Z</time>
      </trkpt>
      <trkpt lat="40.141098" lon="-3.074875">
        <ele>585.038824</ele>
        <time>2021-11-03T16:19:17.032Z</time>
      </trkpt>
      <trkpt lat="40.141071" lon="-3.074730">
        <ele>584.040186</ele>
        <time>2021-11-03T16:19:17.032Z</time>
      </trkpt>
      <trkpt lat="40.141042" lon="-3.074587">
        <ele>583.050201</ele>
        <time>2021-11-03T16:19:17.032Z</time>
      </trkpt>
      <trkpt lat="40.140973" lon="-3.074323">
        <ele>581.183245</ele>
        <time>2021-11-03T16:19:17.032Z</time>
      </trkpt>
      <trkpt lat="40.140935" lon="-3.074208">
        <ele>580.344909</ele>
        <time>2021-11-03T16:19:17.032Z</time>
      </trkpt>
      <trkpt lat="40.140905" lon="-3.074097">
        <ele>579.924563</ele>
        <time>2021-11-03T16:19:17.032Z</time>
      </trkpt>
      <trkpt lat="40.140885" lon="-3.073987">
        <ele>579.541895</ele>
        <time>2021-11-03T16:19:17.032Z</time>
      </trkpt>
      <trkpt lat="40.140866" lon="-3.073880">
        <ele>579.170124</ele>
        <time>2021-11-03T16:19:17.032Z</time>
      </trkpt>
      <trkpt lat="40.140826" lon="-3.073661">
        <ele>578.408081</ele>
        <time>2021-11-03T16:19:17.032Z</time>
      </trkpt>
      <trkpt lat="40.140793" lon="-3.073547">
        <ele>577.995525</ele>
        <time>2021-11-03T16:19:17.032Z</time>
      </trkpt>
      <trkpt lat="40.140742" lon="-3.073437">
        <ele>577.560124</ele>
        <time>2021-11-03T16:19:17.032Z</time>
      </trkpt>
      <trkpt lat="40.140680" lon="-3.073338">
        <ele>577.126992</ele>
        <time>2021-11-03T16:19:17.032Z</time>
      </trkpt>
      <trkpt lat="40.140612" lon="-3.073239">
        <ele>576.676557</ele>
        <time>2021-11-03T16:19:17.032Z</time>
      </trkpt>
      <trkpt lat="40.140544" lon="-3.073143">
        <ele>576.233622</ele>
        <time>2021-11-03T16:19:17.032Z</time>
      </trkpt>
      <trkpt lat="40.140479" lon="-3.073045">
        <ele>575.794515</ele>
        <time>2021-11-03T16:19:17.032Z</time>
      </trkpt>
      <trkpt lat="40.140393" lon="-3.072818">
        <ele>574.937085</ele>
        <time>2021-11-03T16:19:17.032Z</time>
      </trkpt>
      <trkpt lat="40.140383" lon="-3.072699">
        <ele>574.531914</ele>
        <time>2021-11-03T16:19:17.032Z</time>
      </trkpt>
      <trkpt lat="40.140400" lon="-3.072592">
        <ele>574.162043</ele>
        <time>2021-11-03T16:19:17.032Z</time>
      </trkpt>
      <trkpt lat="40.140435" lon="-3.072506">
        <ele>573.832308</ele>
        <time>2021-11-03T16:19:17.032Z</time>
      </trkpt>
      <trkpt lat="40.140514" lon="-3.072361">
        <ele>573.229691</ele>
        <time>2021-11-03T16:19:17.032Z</time>
      </trkpt>
      <trkpt lat="40.140547" lon="-3.072290">
        <ele>572.948470</ele>
        <time>2021-11-03T16:19:17.032Z</time>
      </trkpt>
      <trkpt lat="40.140577" lon="-3.072218">
        <ele>572.670948</ele>
        <time>2021-11-03T16:19:17.032Z</time>
      </trkpt>
      <trkpt lat="40.140603" lon="-3.072143">
        <ele>572.392238</ele>
        <time>2021-11-03T16:19:17.032Z</time>
      </trkpt>
      <trkpt lat="40.140699" lon="-3.071842">
        <ele>572.946190</ele>
        <time>2021-11-03T16:19:17.032Z</time>
      </trkpt>
      <trkpt lat="40.140724" lon="-3.071770">
        <ele>573.101381</ele>
        <time>2021-11-03T16:19:17.032Z</time>
      </trkpt>
      <trkpt lat="40.140789" lon="-3.071564">
        <ele>573.538735</ele>
        <time>2021-11-03T16:19:17.032Z</time>
      </trkpt>
      <trkpt lat="40.140853" lon="-3.071367">
        <ele>573.958806</ele>
        <time>2021-11-03T16:19:17.032Z</time>
      </trkpt>
      <trkpt lat="40.141008" lon="-3.070900">
        <ele>574.957936</ele>
        <time>2021-11-03T16:19:17.032Z</time>
      </trkpt>
      <trkpt lat="40.141032" lon="-3.070831">
        <ele>575.106704</ele>
        <time>2021-11-03T16:19:17.032Z</time>
      </trkpt>
      <trkpt lat="40.141079" lon="-3.070689">
        <ele>575.410374</ele>
        <time>2021-11-03T16:19:17.032Z</time>
      </trkpt>
      <trkpt lat="40.141123" lon="-3.070545">
        <ele>575.714708</ele>
        <time>2021-11-03T16:19:17.032Z</time>
      </trkpt>
      <trkpt lat="40.141237" lon="-3.070180">
        <ele>576.488487</ele>
        <time>2021-11-03T16:19:17.032Z</time>
      </trkpt>
      <trkpt lat="40.141281" lon="-3.070036">
        <ele>576.792820</ele>
        <time>2021-11-03T16:19:17.032Z</time>
      </trkpt>
      <trkpt lat="40.141321" lon="-3.069900">
        <ele>577.030218</ele>
        <time>2021-11-03T16:19:17.032Z</time>
      </trkpt>
      <trkpt lat="40.141399" lon="-3.069643">
        <ele>577.359774</ele>
        <time>2021-11-03T16:19:17.032Z</time>
      </trkpt>
      <trkpt lat="40.141437" lon="-3.069518">
        <ele>577.520099</ele>
        <time>2021-11-03T16:19:17.032Z</time>
      </trkpt>
      <trkpt lat="40.141504" lon="-3.069269">
        <ele>577.834709</ele>
        <time>2021-11-03T16:19:17.032Z</time>
      </trkpt>
      <trkpt lat="40.141504" lon="-3.069203">
        <ele>577.913369</ele>
        <time>2021-11-03T16:19:17.032Z</time>
      </trkpt>
      <trkpt lat="40.141487" lon="-3.069140">
        <ele>577.992995</ele>
        <time>2021-11-03T16:19:17.032Z</time>
      </trkpt>
      <trkpt lat="40.141426" lon="-3.069019">
        <ele>578.165740</ele>
        <time>2021-11-03T16:19:17.032Z</time>
      </trkpt>
      <trkpt lat="40.141290" lon="-3.068765">
        <ele>578.535332</ele>
        <time>2021-11-03T16:19:17.032Z</time>
      </trkpt>
      <trkpt lat="40.141115" lon="-3.068454">
        <ele>578.995577</ele>
        <time>2021-11-03T16:19:17.032Z</time>
      </trkpt>
      <trkpt lat="40.140756" lon="-3.067840">
        <ele>579.850616</ele>
        <time>2021-11-03T16:19:17.032Z</time>
      </trkpt>
      <trkpt lat="40.140690" lon="-3.067709">
        <ele>579.958998</ele>
        <time>2021-11-03T16:19:17.032Z</time>
      </trkpt>
      <trkpt lat="40.140581" lon="-3.067436">
        <ele>580.171763</ele>
        <time>2021-11-03T16:19:17.032Z</time>
      </trkpt>
      <trkpt lat="40.140420" lon="-3.067121">
        <ele>580.433525</ele>
        <time>2021-11-03T16:19:17.032Z</time>
      </trkpt>
      <trkpt lat="40.140313" lon="-3.066948">
        <ele>580.587252</ele>
        <time>2021-11-03T16:19:17.032Z</time>
      </trkpt>
      <trkpt lat="40.140163" lon="-3.066721">
        <ele>580.794530</ele>
        <time>2021-11-03T16:19:17.032Z</time>
      </trkpt>
      <trkpt lat="40.139848" lon="-3.066268">
        <ele>581.217565</ele>
        <time>2021-11-03T16:19:17.032Z</time>
      </trkpt>
      <trkpt lat="40.139644" lon="-3.065980">
        <ele>581.500107</ele>
        <time>2021-11-03T16:19:17.032Z</time>
      </trkpt>
      <trkpt lat="40.139506" lon="-3.065725">
        <ele>581.739370</ele>
        <time>2021-11-03T16:19:17.032Z</time>
      </trkpt>
      <trkpt lat="40.139430" lon="-3.065514">
        <ele>581.917996</ele>
        <time>2021-11-03T16:19:17.032Z</time>
      </trkpt>
      <trkpt lat="40.139325" lon="-3.065237">
        <ele>582.154775</ele>
        <time>2021-11-03T16:19:17.032Z</time>
      </trkpt>
      <trkpt lat="40.139230" lon="-3.065038">
        <ele>582.334448</ele>
        <time>2021-11-03T16:19:17.032Z</time>
      </trkpt>
      <trkpt lat="40.139198" lon="-3.064973">
        <ele>582.393655</ele>
        <time>2021-11-03T16:19:17.032Z</time>
      </trkpt>
      <trkpt lat="40.139037" lon="-3.064646">
        <ele>582.691523</ele>
        <time>2021-11-03T16:19:17.032Z</time>
      </trkpt>
      <trkpt lat="40.138947" lon="-3.064449">
        <ele>582.867277</ele>
        <time>2021-11-03T16:19:17.032Z</time>
      </trkpt>
      <trkpt lat="40.138813" lon="-3.064192">
        <ele>583.105514</ele>
        <time>2021-11-03T16:19:17.032Z</time>
      </trkpt>
      <trkpt lat="40.138781" lon="-3.064126">
        <ele>583.165367</ele>
        <time>2021-11-03T16:19:17.032Z</time>
      </trkpt>
      <trkpt lat="40.138622" lon="-3.063790">
        <ele>583.453497</ele>
        <time>2021-11-03T16:19:17.032Z</time>
      </trkpt>
      <trkpt lat="40.138434" lon="-3.063391">
        <ele>583.793959</ele>
        <time>2021-11-03T16:19:17.032Z</time>
      </trkpt>
      <trkpt lat="40.138127" lon="-3.062731">
        <ele>584.355156</ele>
        <time>2021-11-03T16:19:17.032Z</time>
      </trkpt>
      <trkpt lat="40.138096" lon="-3.062665">
        <ele>584.411424</ele>
        <time>2021-11-03T16:19:17.032Z</time>
      </trkpt>
      <trkpt lat="40.138063" lon="-3.062599">
        <ele>584.468711</ele>
        <time>2021-11-03T16:19:17.032Z</time>
      </trkpt>
      <trkpt lat="40.137999" lon="-3.062467">
        <ele>584.582254</ele>
        <time>2021-11-03T16:19:17.032Z</time>
      </trkpt>
      <trkpt lat="40.137780" lon="-3.061993">
        <ele>585.012289</ele>
        <time>2021-11-03T16:19:17.032Z</time>
      </trkpt>
      <trkpt lat="40.137750" lon="-3.061924">
        <ele>585.087890</ele>
        <time>2021-11-03T16:19:17.032Z</time>
      </trkpt>
      <trkpt lat="40.137718" lon="-3.061857">
        <ele>585.163132</ele>
        <time>2021-11-03T16:19:17.032Z</time>
      </trkpt>
      <trkpt lat="40.137495" lon="-3.061390">
        <ele>585.687549</ele>
        <time>2021-11-03T16:19:17.032Z</time>
      </trkpt>
      <trkpt lat="40.137424" lon="-3.061264">
        <ele>585.836630</ele>
        <time>2021-11-03T16:19:17.032Z</time>
      </trkpt>
      <trkpt lat="40.137346" lon="-3.061142">
        <ele>585.988104</ele>
        <time>2021-11-03T16:19:17.032Z</time>
      </trkpt>
      <trkpt lat="40.137304" lon="-3.061084">
        <ele>586.064192</ele>
        <time>2021-11-03T16:19:17.032Z</time>
      </trkpt>
      <trkpt lat="40.137261" lon="-3.061028">
        <ele>586.139786</ele>
        <time>2021-11-03T16:19:17.032Z</time>
      </trkpt>
      <trkpt lat="40.136991" lon="-3.060723">
        <ele>586.584229</ele>
        <time>2021-11-03T16:19:17.032Z</time>
      </trkpt>
      <trkpt lat="40.136569" lon="-3.060275">
        <ele>587.182784</ele>
        <time>2021-11-03T16:19:17.032Z</time>
      </trkpt>
      <trkpt lat="40.136324" lon="-3.060030">
        <ele>587.325732</ele>
        <time>2021-11-03T16:19:17.032Z</time>
      </trkpt>
      <trkpt lat="40.136130" lon="-3.059835">
        <ele>587.439138</ele>
        <time>2021-11-03T16:19:17.032Z</time>
      </trkpt>
      <trkpt lat="40.135989" lon="-3.059683">
        <ele>587.523830</ele>
        <time>2021-11-03T16:19:17.032Z</time>
      </trkpt>
      <trkpt lat="40.135710" lon="-3.059387">
        <ele>587.690344</ele>
        <time>2021-11-03T16:19:17.032Z</time>
      </trkpt>
      <trkpt lat="40.135567" lon="-3.059248">
        <ele>587.772925</ele>
        <time>2021-11-03T16:19:17.032Z</time>
      </trkpt>
      <trkpt lat="40.135377" lon="-3.059055">
        <ele>587.884432</ele>
        <time>2021-11-03T16:19:17.032Z</time>
      </trkpt>
      <trkpt lat="40.135187" lon="-3.058857">
        <ele>588.079167</ele>
        <time>2021-11-03T16:19:17.032Z</time>
      </trkpt>
      <trkpt lat="40.135054" lon="-3.058703">
        <ele>588.411188</ele>
        <time>2021-11-03T16:19:17.032Z</time>
      </trkpt>
      <trkpt lat="40.134919" lon="-3.058558">
        <ele>588.737707</ele>
        <time>2021-11-03T16:19:17.032Z</time>
      </trkpt>
      <trkpt lat="40.134874" lon="-3.058510">
        <ele>588.846245</ele>
        <time>2021-11-03T16:19:17.032Z</time>
      </trkpt>
      <trkpt lat="40.134828" lon="-3.058464">
        <ele>588.954479</ele>
        <time>2021-11-03T16:19:17.032Z</time>
      </trkpt>
      <trkpt lat="40.134551" lon="-3.058181">
        <ele>589.611479</ele>
        <time>2021-11-03T16:19:17.032Z</time>
      </trkpt>
      <trkpt lat="40.134461" lon="-3.058084">
        <ele>589.829462</ele>
        <time>2021-11-03T16:19:17.032Z</time>
      </trkpt>
      <trkpt lat="40.134417" lon="-3.058034">
        <ele>589.938411</ele>
        <time>2021-11-03T16:19:17.032Z</time>
      </trkpt>
      <trkpt lat="40.134051" lon="-3.057557">
        <ele>590.904180</ele>
        <time>2021-11-03T16:19:17.032Z</time>
      </trkpt>
      <trkpt lat="40.133963" lon="-3.057378">
        <ele>591.208308</ele>
        <time>2021-11-03T16:19:17.032Z</time>
      </trkpt>
      <trkpt lat="40.133919" lon="-3.057251">
        <ele>591.382769</ele>
        <time>2021-11-03T16:19:17.032Z</time>
      </trkpt>
      <trkpt lat="40.133900" lon="-3.057184">
        <ele>591.451380</ele>
        <time>2021-11-03T16:19:17.032Z</time>
      </trkpt>
      <trkpt lat="40.133848" lon="-3.056899">
        <ele>591.732702</ele>
        <time>2021-11-03T16:19:17.032Z</time>
      </trkpt>
      <trkpt lat="40.133840" lon="-3.056823">
        <ele>591.806361</ele>
        <time>2021-11-03T16:19:17.032Z</time>
      </trkpt>
      <trkpt lat="40.133834" lon="-3.056748">
        <ele>591.878764</ele>
        <time>2021-11-03T16:19:17.032Z</time>
      </trkpt>
      <trkpt lat="40.133808" lon="-3.056210">
        <ele>592.396346</ele>
        <time>2021-11-03T16:19:17.032Z</time>
      </trkpt>
      <trkpt lat="40.133778" lon="-3.055684">
        <ele>592.902780</ele>
        <time>2021-11-03T16:19:17.032Z</time>
      </trkpt>
      <trkpt lat="40.133770" lon="-3.055533">
        <ele>593.048108</ele>
        <time>2021-11-03T16:19:17.032Z</time>
      </trkpt>
      <trkpt lat="40.133772" lon="-3.055205">
        <ele>593.363042</ele>
        <time>2021-11-03T16:19:17.032Z</time>
      </trkpt>
      <trkpt lat="40.133776" lon="-3.055123">
        <ele>593.441933</ele>
        <time>2021-11-03T16:19:17.032Z</time>
      </trkpt>
      <trkpt lat="40.133802" lon="-3.054557">
        <ele>594.129990</ele>
        <time>2021-11-03T16:19:17.032Z</time>
      </trkpt>
      <trkpt lat="40.133814" lon="-3.054395">
        <ele>594.343007</ele>
        <time>2021-11-03T16:19:17.032Z</time>
      </trkpt>
      <trkpt lat="40.133831" lon="-3.054152">
        <ele>594.662371</ele>
        <time>2021-11-03T16:19:17.032Z</time>
      </trkpt>
      <trkpt lat="40.133843" lon="-3.053908">
        <ele>594.982375</ele>
        <time>2021-11-03T16:19:17.032Z</time>
      </trkpt>
      <trkpt lat="40.133850" lon="-3.053746">
        <ele>595.194736</ele>
        <time>2021-11-03T16:19:17.032Z</time>
      </trkpt>
      <trkpt lat="40.133859" lon="-3.053508">
        <ele>595.506608</ele>
        <time>2021-11-03T16:19:17.032Z</time>
      </trkpt>
      <trkpt lat="40.133865" lon="-3.053351">
        <ele>595.712344</ele>
        <time>2021-11-03T16:19:17.032Z</time>
      </trkpt>
      <trkpt lat="40.133885" lon="-3.052966">
        <ele>596.217389</ele>
        <time>2021-11-03T16:19:17.032Z</time>
      </trkpt>
      <trkpt lat="40.133905" lon="-3.052819">
        <ele>596.412803</ele>
        <time>2021-11-03T16:19:17.032Z</time>
      </trkpt>
      <trkpt lat="40.133920" lon="-3.052750">
        <ele>596.506689</ele>
        <time>2021-11-03T16:19:17.032Z</time>
      </trkpt>
      <trkpt lat="40.133938" lon="-3.052680">
        <ele>596.603347</ele>
        <time>2021-11-03T16:19:17.032Z</time>
      </trkpt>
      <trkpt lat="40.133957" lon="-3.052613">
        <ele>596.721251</ele>
        <time>2021-11-03T16:19:17.032Z</time>
      </trkpt>
      <trkpt lat="40.133978" lon="-3.052546">
        <ele>596.901386</ele>
        <time>2021-11-03T16:19:17.032Z</time>
      </trkpt>
      <trkpt lat="40.134000" lon="-3.052482">
        <ele>597.075949</ele>
        <time>2021-11-03T16:19:17.032Z</time>
      </trkpt>
      <trkpt lat="40.134023" lon="-3.052417">
        <ele>597.254125</ele>
        <time>2021-11-03T16:19:17.032Z</time>
      </trkpt>
      <trkpt lat="40.134047" lon="-3.052353">
        <ele>597.431455</ele>
        <time>2021-11-03T16:19:17.032Z</time>
      </trkpt>
      <trkpt lat="40.134070" lon="-3.052288">
        <ele>597.609631</ele>
        <time>2021-11-03T16:19:17.032Z</time>
      </trkpt>
      <trkpt lat="40.134140" lon="-3.052089">
        <ele>598.154557</ele>
        <time>2021-11-03T16:19:17.032Z</time>
      </trkpt>
      <trkpt lat="40.134179" lon="-3.051944">
        <ele>598.536937</ele>
        <time>2021-11-03T16:19:17.032Z</time>
      </trkpt>
      <trkpt lat="40.134206" lon="-3.051792">
        <ele>598.925131</ele>
        <time>2021-11-03T16:19:17.032Z</time>
      </trkpt>
      <trkpt lat="40.134227" lon="-3.051565">
        <ele>599.493946</ele>
        <time>2021-11-03T16:19:17.032Z</time>
      </trkpt>
      <trkpt lat="40.134228" lon="-3.051488">
        <ele>599.685523</ele>
        <time>2021-11-03T16:19:17.032Z</time>
      </trkpt>
      <trkpt lat="40.134223" lon="-3.051261">
        <ele>600.250453</ele>
        <time>2021-11-03T16:19:17.032Z</time>
      </trkpt>
      <trkpt lat="40.134206" lon="-3.051031">
        <ele>600.825279</ele>
        <time>2021-11-03T16:19:17.032Z</time>
      </trkpt>
      <trkpt lat="40.134188" lon="-3.050877">
        <ele>601.212828</ele>
        <time>2021-11-03T16:19:17.032Z</time>
      </trkpt>
      <trkpt lat="40.134170" lon="-3.050726">
        <ele>601.593002</ele>
        <time>2021-11-03T16:19:17.032Z</time>
      </trkpt>
      <trkpt lat="40.134161" lon="-3.050650">
        <ele>601.784318</ele>
        <time>2021-11-03T16:19:17.032Z</time>
      </trkpt>
      <trkpt lat="40.134101" lon="-3.050209">
        <ele>602.768718</ele>
        <time>2021-11-03T16:19:17.032Z</time>
      </trkpt>
      <trkpt lat="40.134070" lon="-3.049990">
        <ele>603.131568</ele>
        <time>2021-11-03T16:19:17.032Z</time>
      </trkpt>
      <trkpt lat="40.134023" lon="-3.049549">
        <ele>603.856973</ele>
        <time>2021-11-03T16:19:17.032Z</time>
      </trkpt>
      <trkpt lat="40.133996" lon="-3.049247">
        <ele>604.352332</ele>
        <time>2021-11-03T16:19:17.032Z</time>
      </trkpt>
      <trkpt lat="40.133991" lon="-3.049172">
        <ele>604.474983</ele>
        <time>2021-11-03T16:19:17.032Z</time>
      </trkpt>
      <trkpt lat="40.133944" lon="-3.048648">
        <ele>605.334517</ele>
        <time>2021-11-03T16:19:17.032Z</time>
      </trkpt>
      <trkpt lat="40.133936" lon="-3.048572">
        <ele>605.459502</ele>
        <time>2021-11-03T16:19:17.032Z</time>
      </trkpt>
      <trkpt lat="40.133927" lon="-3.048496">
        <ele>605.584794</ele>
        <time>2021-11-03T16:19:17.032Z</time>
      </trkpt>
      <trkpt lat="40.133917" lon="-3.048421">
        <ele>605.708826</ele>
        <time>2021-11-03T16:19:17.032Z</time>
      </trkpt>
      <trkpt lat="40.133889" lon="-3.048275">
        <ele>605.954052</ele>
        <time>2021-11-03T16:19:17.032Z</time>
      </trkpt>
      <trkpt lat="40.133861" lon="-3.048137">
        <ele>606.186659</ele>
        <time>2021-11-03T16:19:17.032Z</time>
      </trkpt>
      <trkpt lat="40.133848" lon="-3.048066">
        <ele>606.305601</ele>
        <time>2021-11-03T16:19:17.032Z</time>
      </trkpt>
      <trkpt lat="40.133794" lon="-3.047766">
        <ele>605.923569</ele>
        <time>2021-11-03T16:19:17.032Z</time>
      </trkpt>
      <trkpt lat="40.133803" lon="-3.047607">
        <ele>605.676072</ele>
        <time>2021-11-03T16:19:17.032Z</time>
      </trkpt>
      <trkpt lat="40.133844" lon="-3.047441">
        <ele>605.405270</ele>
        <time>2021-11-03T16:19:17.032Z</time>
      </trkpt>
      <trkpt lat="40.133931" lon="-3.047177">
        <ele>604.959003</ele>
        <time>2021-11-03T16:19:17.032Z</time>
      </trkpt>
      <trkpt lat="40.134013" lon="-3.046905">
        <ele>604.505127</ele>
        <time>2021-11-03T16:19:17.032Z</time>
      </trkpt>
      <trkpt lat="40.134075" lon="-3.046632">
        <ele>604.063038</ele>
        <time>2021-11-03T16:19:17.032Z</time>
      </trkpt>
      <trkpt lat="40.134091" lon="-3.046542">
        <ele>603.919601</ele>
        <time>2021-11-03T16:19:17.032Z</time>
      </trkpt>
      <trkpt lat="40.134126" lon="-3.046120">
        <ele>603.260673</ele>
        <time>2021-11-03T16:19:17.032Z</time>
      </trkpt>
      <trkpt lat="40.134126" lon="-3.046039">
        <ele>603.134934</ele>
        <time>2021-11-03T16:19:17.032Z</time>
      </trkpt>
      <trkpt lat="40.134123" lon="-3.045641">
        <ele>602.880299</ele>
        <time>2021-11-03T16:19:17.032Z</time>
      </trkpt>
      <trkpt lat="40.134120" lon="-3.045561">
        <ele>602.998912</ele>
        <time>2021-11-03T16:19:17.032Z</time>
      </trkpt>
      <trkpt lat="40.134116" lon="-3.045481">
        <ele>603.117637</ele>
        <time>2021-11-03T16:19:17.032Z</time>
      </trkpt>
      <trkpt lat="40.134114" lon="-3.045401">
        <ele>603.236172</ele>
        <time>2021-11-03T16:19:17.032Z</time>
      </trkpt>
      <trkpt lat="40.134111" lon="-3.045321">
        <ele>603.354786</ele>
        <time>2021-11-03T16:19:17.032Z</time>
      </trkpt>
      <trkpt lat="40.134108" lon="-3.045241">
        <ele>603.473399</ele>
        <time>2021-11-03T16:19:17.032Z</time>
      </trkpt>
      <trkpt lat="40.134106" lon="-3.045162">
        <ele>603.590454</ele>
        <time>2021-11-03T16:19:17.032Z</time>
      </trkpt>
      <trkpt lat="40.134103" lon="-3.045085">
        <ele>603.704631</ele>
        <time>2021-11-03T16:19:17.032Z</time>
      </trkpt>
      <trkpt lat="40.134086" lon="-3.044622">
        <ele>604.391075</ele>
        <time>2021-11-03T16:19:17.032Z</time>
      </trkpt>
      <trkpt lat="40.134061" lon="-3.044249">
        <ele>604.945567</ele>
        <time>2021-11-03T16:19:17.032Z</time>
      </trkpt>
      <trkpt lat="40.134035" lon="-3.044031">
        <ele>605.272306</ele>
        <time>2021-11-03T16:19:17.032Z</time>
      </trkpt>
      <trkpt lat="40.133957" lon="-3.043675">
        <ele>605.820727</ele>
        <time>2021-11-03T16:19:17.032Z</time>
      </trkpt>
      <trkpt lat="40.133918" lon="-3.043532">
        <ele>606.045566</ele>
        <time>2021-11-03T16:19:17.032Z</time>
      </trkpt>
      <trkpt lat="40.133898" lon="-3.043460">
        <ele>606.159010</ele>
        <time>2021-11-03T16:19:17.032Z</time>
      </trkpt>
      <trkpt lat="40.133855" lon="-3.043316">
        <ele>606.241187</ele>
        <time>2021-11-03T16:19:17.032Z</time>
      </trkpt>
      <trkpt lat="40.133744" lon="-3.042947">
        <ele>606.399756</ele>
        <time>2021-11-03T16:19:17.032Z</time>
      </trkpt>
      <trkpt lat="40.133613" lon="-3.042512">
        <ele>606.586715</ele>
        <time>2021-11-03T16:19:17.032Z</time>
      </trkpt>
      <trkpt lat="40.133552" lon="-3.042296">
        <ele>606.678795</ele>
        <time>2021-11-03T16:19:17.032Z</time>
      </trkpt>
      <trkpt lat="40.133495" lon="-3.041997">
        <ele>606.802023</ele>
        <time>2021-11-03T16:19:17.032Z</time>
      </trkpt>
      <trkpt lat="40.133498" lon="-3.041843">
        <ele>606.863626</ele>
        <time>2021-11-03T16:19:17.032Z</time>
      </trkpt>
      <trkpt lat="40.133504" lon="-3.041767">
        <ele>606.894179</ele>
        <time>2021-11-03T16:19:17.032Z</time>
      </trkpt>
      <trkpt lat="40.133573" lon="-3.041327">
        <ele>607.073793</ele>
        <time>2021-11-03T16:19:17.032Z</time>
      </trkpt>
      <trkpt lat="40.133615" lon="-3.041104">
        <ele>607.147564</ele>
        <time>2021-11-03T16:19:17.032Z</time>
      </trkpt>
      <trkpt lat="40.133626" lon="-3.041028">
        <ele>607.163775</ele>
        <time>2021-11-03T16:19:17.032Z</time>
      </trkpt>
      <trkpt lat="40.133635" lon="-3.040950">
        <ele>607.180307</ele>
        <time>2021-11-03T16:19:17.032Z</time>
      </trkpt>
      <trkpt lat="40.133638" lon="-3.040870">
        <ele>607.197094</ele>
        <time>2021-11-03T16:19:17.032Z</time>
      </trkpt>
      <trkpt lat="40.133638" lon="-3.040787">
        <ele>607.214489</ele>
        <time>2021-11-03T16:19:17.032Z</time>
      </trkpt>
      <trkpt lat="40.133634" lon="-3.040704">
        <ele>607.231919</ele>
        <time>2021-11-03T16:19:17.032Z</time>
      </trkpt>
      <trkpt lat="40.133624" lon="-3.040622">
        <ele>607.249321</ele>
        <time>2021-11-03T16:19:17.032Z</time>
      </trkpt>
      <trkpt lat="40.133610" lon="-3.040541">
        <ele>607.266726</ele>
        <time>2021-11-03T16:19:17.032Z</time>
      </trkpt>
      <trkpt lat="40.133541" lon="-3.040226">
        <ele>607.335400</ele>
        <time>2021-11-03T16:19:17.032Z</time>
      </trkpt>
      <trkpt lat="40.133427" lon="-3.039769">
        <ele>607.436148</ele>
        <time>2021-11-03T16:19:17.032Z</time>
      </trkpt>
      <trkpt lat="40.133389" lon="-3.039617">
        <ele>607.469664</ele>
        <time>2021-11-03T16:19:17.032Z</time>
      </trkpt>
      <trkpt lat="40.133213" lon="-3.038923">
        <ele>607.634462</ele>
        <time>2021-11-03T16:19:17.032Z</time>
      </trkpt>
      <trkpt lat="40.133194" lon="-3.038846">
        <ele>607.740897</ele>
        <time>2021-11-03T16:19:17.032Z</time>
      </trkpt>
      <trkpt lat="40.133078" lon="-3.038402">
        <ele>608.358121</ele>
        <time>2021-11-03T16:19:17.032Z</time>
      </trkpt>
      <trkpt lat="40.133022" lon="-3.038184">
        <ele>608.660646</ele>
        <time>2021-11-03T16:19:17.032Z</time>
      </trkpt>
      <trkpt lat="40.132916" lon="-3.037831">
        <ele>609.159536</ele>
        <time>2021-11-03T16:19:17.032Z</time>
      </trkpt>
      <trkpt lat="40.132827" lon="-3.037543">
        <ele>609.568167</ele>
        <time>2021-11-03T16:19:17.032Z</time>
      </trkpt>
      <trkpt lat="40.132696" lon="-3.037111">
        <ele>610.179516</ele>
        <time>2021-11-03T16:19:17.032Z</time>
      </trkpt>
      <trkpt lat="40.132675" lon="-3.037040">
        <ele>610.279660</ele>
        <time>2021-11-03T16:19:17.032Z</time>
      </trkpt>
      <trkpt lat="40.132653" lon="-3.036970">
        <ele>610.379219</ele>
        <time>2021-11-03T16:19:17.032Z</time>
      </trkpt>
      <trkpt lat="40.132609" lon="-3.036831">
        <ele>610.577122</ele>
        <time>2021-11-03T16:19:17.032Z</time>
      </trkpt>
      <trkpt lat="40.132560" lon="-3.036690">
        <ele>610.736351</ele>
        <time>2021-11-03T16:19:17.032Z</time>
      </trkpt>
      <trkpt lat="40.132486" lon="-3.036475">
        <ele>610.835586</ele>
        <time>2021-11-03T16:19:17.032Z</time>
      </trkpt>
      <trkpt lat="40.132462" lon="-3.036404">
        <ele>610.868258</ele>
        <time>2021-11-03T16:19:17.032Z</time>
      </trkpt>
      <trkpt lat="40.132414" lon="-3.036260">
        <ele>610.934374</ele>
        <time>2021-11-03T16:19:17.032Z</time>
      </trkpt>
      <trkpt lat="40.132364" lon="-3.036115">
        <ele>611.001321</ele>
        <time>2021-11-03T16:19:17.032Z</time>
      </trkpt>
      <trkpt lat="40.132293" lon="-3.035892">
        <ele>611.102989</ele>
        <time>2021-11-03T16:19:17.032Z</time>
      </trkpt>
      <trkpt lat="40.132227" lon="-3.035664">
        <ele>611.205597</ele>
        <time>2021-11-03T16:19:17.032Z</time>
      </trkpt>
      <trkpt lat="40.132142" lon="-3.035364">
        <ele>611.340251</ele>
        <time>2021-11-03T16:19:17.032Z</time>
      </trkpt>
      <trkpt lat="40.132121" lon="-3.035289">
        <ele>611.373867</ele>
        <time>2021-11-03T16:19:17.032Z</time>
      </trkpt>
      <trkpt lat="40.132100" lon="-3.035215">
        <ele>611.407089</ele>
        <time>2021-11-03T16:19:17.032Z</time>
      </trkpt>
      <trkpt lat="40.132078" lon="-3.035141">
        <ele>611.440505</ele>
        <time>2021-11-03T16:19:17.032Z</time>
      </trkpt>
      <trkpt lat="40.132038" lon="-3.034992">
        <ele>611.506970</ele>
        <time>2021-11-03T16:19:17.032Z</time>
      </trkpt>
      <trkpt lat="40.131996" lon="-3.034844">
        <ele>611.573412</ele>
        <time>2021-11-03T16:19:17.032Z</time>
      </trkpt>
      <trkpt lat="40.131776" lon="-3.034122">
        <ele>611.869849</ele>
        <time>2021-11-03T16:19:17.032Z</time>
      </trkpt>
      <trkpt lat="40.131708" lon="-3.033909">
        <ele>611.951711</ele>
        <time>2021-11-03T16:19:17.032Z</time>
      </trkpt>
      <trkpt lat="40.131482" lon="-3.033181">
        <ele>612.230373</ele>
        <time>2021-11-03T16:19:17.032Z</time>
      </trkpt>
      <trkpt lat="40.131457" lon="-3.033105">
        <ele>612.259716</ele>
        <time>2021-11-03T16:19:17.032Z</time>
      </trkpt>
      <trkpt lat="40.131356" lon="-3.032725">
        <ele>612.402397</ele>
        <time>2021-11-03T16:19:17.032Z</time>
      </trkpt>
      <trkpt lat="40.131340" lon="-3.032646">
        <ele>612.431381</ele>
        <time>2021-11-03T16:19:17.032Z</time>
      </trkpt>
      <trkpt lat="40.131325" lon="-3.032565">
        <ele>612.460939</ele>
        <time>2021-11-03T16:19:17.032Z</time>
      </trkpt>
      <trkpt lat="40.131214" lon="-3.031847">
        <ele>613.012379</ele>
        <time>2021-11-03T16:19:17.032Z</time>
      </trkpt>
      <trkpt lat="40.131116" lon="-3.031371">
        <ele>613.469109</ele>
        <time>2021-11-03T16:19:17.032Z</time>
      </trkpt>
      <trkpt lat="40.130964" lon="-3.030787">
        <ele>614.040686</ele>
        <time>2021-11-03T16:19:17.032Z</time>
      </trkpt>
      <trkpt lat="40.130851" lon="-3.030371">
        <ele>614.449719</ele>
        <time>2021-11-03T16:19:17.032Z</time>
      </trkpt>
      <trkpt lat="40.130787" lon="-3.030157">
        <ele>614.662623</ele>
        <time>2021-11-03T16:19:17.032Z</time>
      </trkpt>
      <trkpt lat="40.130672" lon="-3.029888">
        <ele>614.939038</ele>
        <time>2021-11-03T16:19:17.032Z</time>
      </trkpt>
      <trkpt lat="40.130576" lon="-3.029694">
        <ele>615.144594</ele>
        <time>2021-11-03T16:19:17.032Z</time>
      </trkpt>
      <trkpt lat="40.130416" lon="-3.029277">
        <ele>615.559612</ele>
        <time>2021-11-03T16:19:17.032Z</time>
      </trkpt>
      <trkpt lat="40.130395" lon="-3.029202">
        <ele>615.630659</ele>
        <time>2021-11-03T16:19:17.032Z</time>
      </trkpt>
      <trkpt lat="40.130307" lon="-3.028905">
        <ele>615.913991</ele>
        <time>2021-11-03T16:19:17.032Z</time>
      </trkpt>
      <trkpt lat="40.130249" lon="-3.028675">
        <ele>616.129422</ele>
        <time>2021-11-03T16:19:17.032Z</time>
      </trkpt>
      <trkpt lat="40.130081" lon="-3.028017">
        <ele>616.746501</ele>
        <time>2021-11-03T16:19:17.032Z</time>
      </trkpt>
      <trkpt lat="40.130020" lon="-3.027799">
        <ele>616.992425</ele>
        <time>2021-11-03T16:19:17.032Z</time>
      </trkpt>
      <trkpt lat="40.129890" lon="-3.027289">
        <ele>617.604398</ele>
        <time>2021-11-03T16:19:17.032Z</time>
      </trkpt>
      <trkpt lat="40.129858" lon="-3.027135">
        <ele>617.786064</ele>
        <time>2021-11-03T16:19:17.032Z</time>
      </trkpt>
      <trkpt lat="40.129814" lon="-3.026898">
        <ele>618.063693</ele>
        <time>2021-11-03T16:19:17.032Z</time>
      </trkpt>
      <trkpt lat="40.129779" lon="-3.026655">
        <ele>618.345179</ele>
        <time>2021-11-03T16:19:17.032Z</time>
      </trkpt>
      <trkpt lat="40.129760" lon="-3.026409">
        <ele>618.626640</ele>
        <time>2021-11-03T16:19:17.032Z</time>
      </trkpt>
      <trkpt lat="40.129717" lon="-3.025684">
        <ele>619.454427</ele>
        <time>2021-11-03T16:19:17.032Z</time>
      </trkpt>
      <trkpt lat="40.129706" lon="-3.025526">
        <ele>619.450769</ele>
        <time>2021-11-03T16:19:17.032Z</time>
      </trkpt>
      <trkpt lat="40.129661" lon="-3.024756">
        <ele>619.213352</ele>
        <time>2021-11-03T16:19:17.032Z</time>
      </trkpt>
      <trkpt lat="40.129656" lon="-3.024680">
        <ele>619.189900</ele>
        <time>2021-11-03T16:19:17.032Z</time>
      </trkpt>
      <trkpt lat="40.129634" lon="-3.024213">
        <ele>619.046055</ele>
        <time>2021-11-03T16:19:17.032Z</time>
      </trkpt>
      <trkpt lat="40.129625" lon="-3.023817">
        <ele>618.924256</ele>
        <time>2021-11-03T16:19:17.032Z</time>
      </trkpt>
      <trkpt lat="40.129603" lon="-3.023094">
        <ele>618.722797</ele>
        <time>2021-11-03T16:19:17.032Z</time>
      </trkpt>
      <trkpt lat="40.129601" lon="-3.023015">
        <ele>618.706354</ele>
        <time>2021-11-03T16:19:17.032Z</time>
      </trkpt>
      <trkpt lat="40.129548" lon="-3.022469">
        <ele>618.591862</ele>
        <time>2021-11-03T16:19:17.032Z</time>
      </trkpt>
      <trkpt lat="40.129399" lon="-3.021965">
        <ele>618.479455</ele>
        <time>2021-11-03T16:19:17.032Z</time>
      </trkpt>
      <trkpt lat="40.129184" lon="-3.021341">
        <ele>618.337077</ele>
        <time>2021-11-03T16:19:17.032Z</time>
      </trkpt>
      <trkpt lat="40.129136" lon="-3.021200">
        <ele>618.304970</ele>
        <time>2021-11-03T16:19:17.032Z</time>
      </trkpt>
      <trkpt lat="40.128939" lon="-3.020624">
        <ele>618.556414</ele>
        <time>2021-11-03T16:19:17.032Z</time>
      </trkpt>
      <trkpt lat="40.128861" lon="-3.020407">
        <ele>618.690689</ele>
        <time>2021-11-03T16:19:17.032Z</time>
      </trkpt>
      <trkpt lat="40.128807" lon="-3.020259">
        <ele>618.782520</ele>
        <time>2021-11-03T16:19:17.032Z</time>
      </trkpt>
      <trkpt lat="40.128651" lon="-3.019809">
        <ele>619.059206</ele>
        <time>2021-11-03T16:19:17.032Z</time>
      </trkpt>
      <trkpt lat="40.128419" lon="-3.019146">
        <ele>619.467513</ele>
        <time>2021-11-03T16:19:17.032Z</time>
      </trkpt>
      <trkpt lat="40.128394" lon="-3.019073">
        <ele>619.512305</ele>
        <time>2021-11-03T16:19:17.032Z</time>
      </trkpt>
      <trkpt lat="40.128168" lon="-3.018437">
        <ele>620.055279</ele>
        <time>2021-11-03T16:19:17.032Z</time>
      </trkpt>
      <trkpt lat="40.128075" lon="-3.018154">
        <ele>620.311274</ele>
        <time>2021-11-03T16:19:17.032Z</time>
      </trkpt>
      <trkpt lat="40.128014" lon="-3.017852">
        <ele>620.570866</ele>
        <time>2021-11-03T16:19:17.032Z</time>
      </trkpt>
      <trkpt lat="40.128008" lon="-3.017773">
        <ele>620.636844</ele>
        <time>2021-11-03T16:19:17.032Z</time>
      </trkpt>
      <trkpt lat="40.128018" lon="-3.017370">
        <ele>620.971941</ele>
        <time>2021-11-03T16:19:17.032Z</time>
      </trkpt>
      <trkpt lat="40.128035" lon="-3.017208">
        <ele>621.107836</ele>
        <time>2021-11-03T16:19:17.032Z</time>
      </trkpt>
      <trkpt lat="40.128126" lon="-3.016488">
        <ele>621.894269</ele>
        <time>2021-11-03T16:19:17.032Z</time>
      </trkpt>
      <trkpt lat="40.128183" lon="-3.016082">
        <ele>622.612233</ele>
        <time>2021-11-03T16:19:17.032Z</time>
      </trkpt>
      <trkpt lat="40.128242" lon="-3.015600">
        <ele>623.461254</ele>
        <time>2021-11-03T16:19:17.032Z</time>
      </trkpt>
      <trkpt lat="40.128253" lon="-3.015527">
        <ele>623.590665</ele>
        <time>2021-11-03T16:19:17.032Z</time>
      </trkpt>
      <trkpt lat="40.128275" lon="-3.015360">
        <ele>623.885409</ele>
        <time>2021-11-03T16:19:17.032Z</time>
      </trkpt>
      <trkpt lat="40.128281" lon="-3.015341">
        <ele>623.921163</ele>
        <time>2021-11-03T16:19:17.032Z</time>
      </trkpt>
      <trkpt lat="40.128287" lon="-3.015297">
        <ele>623.998900</ele>
        <time>2021-11-03T16:19:17.032Z</time>
      </trkpt>
      <trkpt lat="40.128275" lon="-3.015255">
        <ele>624.076884</ele>
        <time>2021-11-03T16:19:17.032Z</time>
      </trkpt>
      <trkpt lat="40.128278" lon="-3.015234">
        <ele>624.114042</ele>
        <time>2021-11-03T16:19:17.032Z</time>
      </trkpt>
      <trkpt lat="40.128293" lon="-3.015184">
        <ele>624.207462</ele>
        <time>2021-11-03T16:19:17.032Z</time>
      </trkpt>
      <trkpt lat="40.128305" lon="-3.014997">
        <ele>624.533855</ele>
        <time>2021-11-03T16:19:17.032Z</time>
      </trkpt>
      <trkpt lat="40.128365" lon="-3.014700">
        <ele>625.068155</ele>
        <time>2021-11-03T16:19:17.032Z</time>
      </trkpt>
      <trkpt lat="40.128393" lon="-3.014562">
        <ele>625.316485</ele>
        <time>2021-11-03T16:19:17.032Z</time>
      </trkpt>
      <trkpt lat="40.128460" lon="-3.014282">
        <ele>625.728231</ele>
        <time>2021-11-03T16:19:17.032Z</time>
      </trkpt>
      <trkpt lat="40.128503" lon="-3.014021">
        <ele>625.946021</ele>
        <time>2021-11-03T16:19:17.032Z</time>
      </trkpt>
      <trkpt lat="40.128588" lon="-3.013608">
        <ele>626.294907</ele>
        <time>2021-11-03T16:19:17.032Z</time>
      </trkpt>
      <trkpt lat="40.128658" lon="-3.013284">
        <ele>626.569549</ele>
        <time>2021-11-03T16:19:17.032Z</time>
      </trkpt>
      <trkpt lat="40.128685" lon="-3.013152">
        <ele>626.681011</ele>
        <time>2021-11-03T16:19:17.032Z</time>
      </trkpt>
      <trkpt lat="40.128780" lon="-3.012679">
        <ele>627.079937</ele>
        <time>2021-11-03T16:19:17.032Z</time>
      </trkpt>
      <trkpt lat="40.128803" lon="-3.012538">
        <ele>627.197542</ele>
        <time>2021-11-03T16:19:17.032Z</time>
      </trkpt>
      <trkpt lat="40.128912" lon="-3.011973">
        <ele>627.680378</ele>
        <time>2021-11-03T16:19:17.032Z</time>
      </trkpt>
      <trkpt lat="40.128937" lon="-3.011835">
        <ele>627.803768</ele>
        <time>2021-11-03T16:19:17.032Z</time>
      </trkpt>
      <trkpt lat="40.128976" lon="-3.011627">
        <ele>627.990098</ele>
        <time>2021-11-03T16:19:17.032Z</time>
      </trkpt>
      <trkpt lat="40.129049" lon="-3.011210">
        <ele>628.362291</ele>
        <time>2021-11-03T16:19:17.032Z</time>
      </trkpt>
      <trkpt lat="40.129076" lon="-3.011070">
        <ele>628.487912</ele>
        <time>2021-11-03T16:19:17.032Z</time>
      </trkpt>
      <trkpt lat="40.129163" lon="-3.010577">
        <ele>628.928116</ele>
        <time>2021-11-03T16:19:17.032Z</time>
      </trkpt>
      <trkpt lat="40.129189" lon="-3.010432">
        <ele>629.057693</ele>
        <time>2021-11-03T16:19:17.032Z</time>
      </trkpt>
      <trkpt lat="40.129238" lon="-3.010148">
        <ele>629.310996</ele>
        <time>2021-11-03T16:19:17.032Z</time>
      </trkpt>
      <trkpt lat="40.129288" lon="-3.009867">
        <ele>629.562009</ele>
        <time>2021-11-03T16:19:17.032Z</time>
      </trkpt>
      <trkpt lat="40.129302" lon="-3.009797">
        <ele>629.636005</ele>
        <time>2021-11-03T16:19:17.032Z</time>
      </trkpt>
      <trkpt lat="40.129331" lon="-3.009657">
        <ele>629.838875</ele>
        <time>2021-11-03T16:19:17.032Z</time>
      </trkpt>
      <trkpt lat="40.129354" lon="-3.009518">
        <ele>630.037787</ele>
        <time>2021-11-03T16:19:17.032Z</time>
      </trkpt>
      <trkpt lat="40.129409" lon="-3.009252">
        <ele>630.423190</ele>
        <time>2021-11-03T16:19:17.032Z</time>
      </trkpt>
      <trkpt lat="40.129420" lon="-3.009187">
        <ele>630.516302</ele>
        <time>2021-11-03T16:19:17.032Z</time>
      </trkpt>
      <trkpt lat="40.129431" lon="-3.009122">
        <ele>630.609414</ele>
        <time>2021-11-03T16:19:17.032Z</time>
      </trkpt>
      <trkpt lat="40.129441" lon="-3.009054">
        <ele>630.706265</ele>
        <time>2021-11-03T16:19:17.032Z</time>
      </trkpt>
      <trkpt lat="40.129448" lon="-3.008985">
        <ele>630.803617</ele>
        <time>2021-11-03T16:19:17.032Z</time>
      </trkpt>
      <trkpt lat="40.129456" lon="-3.008916">
        <ele>630.901227</ele>
        <time>2021-11-03T16:19:17.032Z</time>
      </trkpt>
      <trkpt lat="40.129463" lon="-3.008848">
        <ele>630.997193</ele>
        <time>2021-11-03T16:19:17.032Z</time>
      </trkpt>
      <trkpt lat="40.129468" lon="-3.008779">
        <ele>631.094131</ele>
        <time>2021-11-03T16:19:17.032Z</time>
      </trkpt>
      <trkpt lat="40.129457" lon="-3.008280">
        <ele>631.792344</ele>
        <time>2021-11-03T16:19:17.032Z</time>
      </trkpt>
      <trkpt lat="40.129448" lon="-3.008063">
        <ele>632.096296</ele>
        <time>2021-11-03T16:19:17.032Z</time>
      </trkpt>
      <trkpt lat="40.129445" lon="-3.007988">
        <ele>632.201338</ele>
        <time>2021-11-03T16:19:17.032Z</time>
      </trkpt>
      <trkpt lat="40.129439" lon="-3.007839">
        <ele>632.410024</ele>
        <time>2021-11-03T16:19:17.032Z</time>
      </trkpt>
      <trkpt lat="40.129412" lon="-3.007233">
        <ele>632.942207</ele>
        <time>2021-11-03T16:19:17.032Z</time>
      </trkpt>
      <trkpt lat="40.129401" lon="-3.006994">
        <ele>632.984033</ele>
        <time>2021-11-03T16:19:17.032Z</time>
      </trkpt>
      <trkpt lat="40.129367" lon="-3.006218">
        <ele>633.119812</ele>
        <time>2021-11-03T16:19:17.032Z</time>
      </trkpt>
      <trkpt lat="40.129364" lon="-3.006141">
        <ele>633.133280</ele>
        <time>2021-11-03T16:19:17.032Z</time>
      </trkpt>
      <trkpt lat="40.129396" lon="-3.005610">
        <ele>633.226326</ele>
        <time>2021-11-03T16:19:17.032Z</time>
      </trkpt>
      <trkpt lat="40.129535" lon="-3.004928">
        <ele>633.421328</ele>
        <time>2021-11-03T16:19:17.032Z</time>
      </trkpt>
      <trkpt lat="40.129551" lon="-3.004852">
        <ele>633.458778</ele>
        <time>2021-11-03T16:19:17.032Z</time>
      </trkpt>
      <trkpt lat="40.129689" lon="-3.004187">
        <ele>633.786140</ele>
        <time>2021-11-03T16:19:17.032Z</time>
      </trkpt>
      <trkpt lat="40.129718" lon="-3.004039">
        <ele>633.858724</ele>
        <time>2021-11-03T16:19:17.032Z</time>
      </trkpt>
      <trkpt lat="40.129807" lon="-3.003451">
        <ele>634.143495</ele>
        <time>2021-11-03T16:19:17.032Z</time>
      </trkpt>
      <trkpt lat="40.129845" lon="-3.002937">
        <ele>634.388827</ele>
        <time>2021-11-03T16:19:17.032Z</time>
      </trkpt>
      <trkpt lat="40.129851" lon="-3.002864">
        <ele>634.423708</ele>
        <time>2021-11-03T16:19:17.032Z</time>
      </trkpt>
      <trkpt lat="40.129882" lon="-3.002424">
        <ele>634.657952</ele>
        <time>2021-11-03T16:19:17.032Z</time>
      </trkpt>
      <trkpt lat="40.129887" lon="-3.002348">
        <ele>634.698428</ele>
        <time>2021-11-03T16:19:17.032Z</time>
      </trkpt>
      <trkpt lat="40.129884" lon="-3.001884">
        <ele>634.944640</ele>
        <time>2021-11-03T16:19:17.032Z</time>
      </trkpt>
      <trkpt lat="40.129877" lon="-3.001807">
        <ele>634.985785</ele>
        <time>2021-11-03T16:19:17.032Z</time>
      </trkpt>
      <trkpt lat="40.129807" lon="-3.001364">
        <ele>635.225813</ele>
        <time>2021-11-03T16:19:17.032Z</time>
      </trkpt>
      <trkpt lat="40.129724" lon="-3.000909">
        <ele>635.474017</ele>
        <time>2021-11-03T16:19:17.032Z</time>
      </trkpt>
      <trkpt lat="40.129627" lon="-3.000388">
        <ele>635.694947</ele>
        <time>2021-11-03T16:19:17.032Z</time>
      </trkpt>
      <trkpt lat="40.129585" lon="-3.000163">
        <ele>635.725656</ele>
        <time>2021-11-03T16:19:17.032Z</time>
      </trkpt>
      <trkpt lat="40.129528" lon="-2.999864">
        <ele>635.766515</ele>
        <time>2021-11-03T16:19:17.032Z</time>
      </trkpt>
      <trkpt lat="40.129488" lon="-2.999635">
        <ele>635.797660</ele>
        <time>2021-11-03T16:19:17.032Z</time>
      </trkpt>
      <trkpt lat="40.129473" lon="-2.999557">
        <ele>635.808325</ele>
        <time>2021-11-03T16:19:17.032Z</time>
      </trkpt>
      <trkpt lat="40.129427" lon="-2.999329">
        <ele>635.839590</ele>
        <time>2021-11-03T16:19:17.032Z</time>
      </trkpt>
      <trkpt lat="40.129361" lon="-2.998953">
        <ele>635.890742</ele>
        <time>2021-11-03T16:19:17.032Z</time>
      </trkpt>
      <trkpt lat="40.129260" lon="-2.998430">
        <ele>635.962265</ele>
        <time>2021-11-03T16:19:17.032Z</time>
      </trkpt>
      <trkpt lat="40.129219" lon="-2.998204">
        <ele>635.976199</ele>
        <time>2021-11-03T16:19:17.032Z</time>
      </trkpt>
      <trkpt lat="40.129089" lon="-2.997517">
        <ele>635.855887</ele>
        <time>2021-11-03T16:19:17.032Z</time>
      </trkpt>
      <trkpt lat="40.129073" lon="-2.997442">
        <ele>635.842650</ele>
        <time>2021-11-03T16:19:17.032Z</time>
      </trkpt>
      <trkpt lat="40.128960" lon="-2.996918">
        <ele>635.750095</ele>
        <time>2021-11-03T16:19:17.032Z</time>
      </trkpt>
      <trkpt lat="40.128914" lon="-2.996689">
        <ele>635.709844</ele>
        <time>2021-11-03T16:19:17.032Z</time>
      </trkpt>
      <trkpt lat="40.128770" lon="-2.995997">
        <ele>635.587925</ele>
        <time>2021-11-03T16:19:17.032Z</time>
      </trkpt>
      <trkpt lat="40.128721" lon="-2.995387">
        <ele>636.258878</ele>
        <time>2021-11-03T16:19:17.032Z</time>
      </trkpt>
      <trkpt lat="40.128698" lon="-2.994611">
        <ele>637.129148</ele>
        <time>2021-11-03T16:19:17.032Z</time>
      </trkpt>
      <trkpt lat="40.128684" lon="-2.994163">
        <ele>637.631614</ele>
        <time>2021-11-03T16:19:17.032Z</time>
      </trkpt>
      <trkpt lat="40.128675" lon="-2.993801">
        <ele>638.037500</ele>
        <time>2021-11-03T16:19:17.032Z</time>
      </trkpt>
      <trkpt lat="40.128672" lon="-2.993657">
        <ele>638.198932</ele>
        <time>2021-11-03T16:19:17.032Z</time>
      </trkpt>
      <trkpt lat="40.128669" lon="-2.993509">
        <ele>638.333843</ele>
        <time>2021-11-03T16:19:17.032Z</time>
      </trkpt>
      <trkpt lat="40.128641" lon="-2.993218">
        <ele>638.591207</ele>
        <time>2021-11-03T16:19:17.032Z</time>
      </trkpt>
      <trkpt lat="40.128628" lon="-2.993146">
        <ele>638.656124</ele>
        <time>2021-11-03T16:19:17.032Z</time>
      </trkpt>
      <trkpt lat="40.128576" lon="-2.992941">
        <ele>638.845651</ele>
        <time>2021-11-03T16:19:17.032Z</time>
      </trkpt>
      <trkpt lat="40.128487" lon="-2.992669">
        <ele>639.105266</ele>
        <time>2021-11-03T16:19:17.032Z</time>
      </trkpt>
      <trkpt lat="40.128314" lon="-2.992181">
        <ele>639.577272</ele>
        <time>2021-11-03T16:19:17.032Z</time>
      </trkpt>
      <trkpt lat="40.128078" lon="-2.991536">
        <ele>640.204724</ele>
        <time>2021-11-03T16:19:17.032Z</time>
      </trkpt>
      <trkpt lat="40.128047" lon="-2.991470">
        <ele>640.272694</ele>
        <time>2021-11-03T16:19:17.032Z</time>
      </trkpt>
      <trkpt lat="40.128014" lon="-2.991407">
        <ele>640.327348</ele>
        <time>2021-11-03T16:19:17.032Z</time>
      </trkpt>
      <trkpt lat="40.127980" lon="-2.991341">
        <ele>640.381063</ele>
        <time>2021-11-03T16:19:17.032Z</time>
      </trkpt>
      <trkpt lat="40.127945" lon="-2.991277">
        <ele>640.434172</ele>
        <time>2021-11-03T16:19:17.032Z</time>
      </trkpt>
      <trkpt lat="40.127875" lon="-2.991151">
        <ele>640.539295</ele>
        <time>2021-11-03T16:19:17.032Z</time>
      </trkpt>
      <trkpt lat="40.127734" lon="-2.990900">
        <ele>640.749517</ele>
        <time>2021-11-03T16:19:17.032Z</time>
      </trkpt>
      <trkpt lat="40.127411" lon="-2.990346">
        <ele>641.219750</ele>
        <time>2021-11-03T16:19:17.032Z</time>
      </trkpt>
      <trkpt lat="40.127347" lon="-2.990219">
        <ele>641.322413</ele>
        <time>2021-11-03T16:19:17.032Z</time>
      </trkpt>
      <trkpt lat="40.127234" lon="-2.989965">
        <ele>641.520761</ele>
        <time>2021-11-03T16:19:17.032Z</time>
      </trkpt>
      <trkpt lat="40.127215" lon="-2.989898">
        <ele>641.568994</ele>
        <time>2021-11-03T16:19:17.032Z</time>
      </trkpt>
      <trkpt lat="40.127184" lon="-2.989758">
        <ele>641.667371</ele>
        <time>2021-11-03T16:19:17.032Z</time>
      </trkpt>
      <trkpt lat="40.127171" lon="-2.989687">
        <ele>641.716649</ele>
        <time>2021-11-03T16:19:17.032Z</time>
      </trkpt>
      <trkpt lat="40.127128" lon="-2.989390">
        <ele>641.885576</ele>
        <time>2021-11-03T16:19:17.032Z</time>
      </trkpt>
      <trkpt lat="40.127118" lon="-2.989313">
        <ele>641.898718</ele>
        <time>2021-11-03T16:19:17.032Z</time>
      </trkpt>
      <trkpt lat="40.127110" lon="-2.989236">
        <ele>641.911793</ele>
        <time>2021-11-03T16:19:17.032Z</time>
      </trkpt>
      <trkpt lat="40.127031" lon="-2.988673">
        <ele>642.008108</ele>
        <time>2021-11-03T16:19:17.032Z</time>
      </trkpt>
      <trkpt lat="40.127021" lon="-2.988601">
        <ele>642.020421</ele>
        <time>2021-11-03T16:19:17.032Z</time>
      </trkpt>
      <trkpt lat="40.126936" lon="-2.987930">
        <ele>642.134865</ele>
        <time>2021-11-03T16:19:17.032Z</time>
      </trkpt>
      <trkpt lat="40.126809" lon="-2.987398">
        <ele>642.228643</ele>
        <time>2021-11-03T16:19:17.032Z</time>
      </trkpt>
      <trkpt lat="40.126570" lon="-2.986765">
        <ele>642.461048</ele>
        <time>2021-11-03T16:19:17.032Z</time>
      </trkpt>
      <trkpt lat="40.126517" lon="-2.986629">
        <ele>642.524291</ele>
        <time>2021-11-03T16:19:17.032Z</time>
      </trkpt>
      <trkpt lat="40.126461" lon="-2.986495">
        <ele>642.587560</ele>
        <time>2021-11-03T16:19:17.032Z</time>
      </trkpt>
      <trkpt lat="40.126407" lon="-2.986362">
        <ele>642.649951</ele>
        <time>2021-11-03T16:19:17.032Z</time>
      </trkpt>
      <trkpt lat="40.126270" lon="-2.986030">
        <ele>642.806256</ele>
        <time>2021-11-03T16:19:17.032Z</time>
      </trkpt>
      <trkpt lat="40.126242" lon="-2.985965">
        <ele>642.837166</ele>
        <time>2021-11-03T16:19:17.032Z</time>
      </trkpt>
      <trkpt lat="40.126214" lon="-2.985900">
        <ele>642.868076</ele>
        <time>2021-11-03T16:19:17.032Z</time>
      </trkpt>
      <trkpt lat="40.126185" lon="-2.985836">
        <ele>642.898899</ele>
        <time>2021-11-03T16:19:17.032Z</time>
      </trkpt>
      <trkpt lat="40.126156" lon="-2.985772">
        <ele>642.929722</ele>
        <time>2021-11-03T16:19:17.032Z</time>
      </trkpt>
      <trkpt lat="40.126126" lon="-2.985708">
        <ele>642.960824</ele>
        <time>2021-11-03T16:19:17.032Z</time>
      </trkpt>
      <trkpt lat="40.126097" lon="-2.985644">
        <ele>642.991647</ele>
        <time>2021-11-03T16:19:17.032Z</time>
      </trkpt>
      <trkpt lat="40.126012" lon="-2.985455">
        <ele>643.082493</ele>
        <time>2021-11-03T16:19:17.032Z</time>
      </trkpt>
      <trkpt lat="40.125957" lon="-2.985326">
        <ele>643.143687</ele>
        <time>2021-11-03T16:19:17.032Z</time>
      </trkpt>
      <trkpt lat="40.125904" lon="-2.985190">
        <ele>643.206931</ele>
        <time>2021-11-03T16:19:17.032Z</time>
      </trkpt>
      <trkpt lat="40.125710" lon="-2.984720">
        <ele>643.407191</ele>
        <time>2021-11-03T16:19:17.032Z</time>
      </trkpt>
      <trkpt lat="40.125567" lon="-2.984391">
        <ele>643.546054</ele>
        <time>2021-11-03T16:19:17.032Z</time>
      </trkpt>
      <trkpt lat="40.125484" lon="-2.984186">
        <ele>643.631170</ele>
        <time>2021-11-03T16:19:17.032Z</time>
      </trkpt>
      <trkpt lat="40.125346" lon="-2.983848">
        <ele>643.771767</ele>
        <time>2021-11-03T16:19:17.032Z</time>
      </trkpt>
      <trkpt lat="40.125288" lon="-2.983708">
        <ele>643.830193</ele>
        <time>2021-11-03T16:19:17.032Z</time>
      </trkpt>
      <trkpt lat="40.125037" lon="-2.983052">
        <ele>644.099358</ele>
        <time>2021-11-03T16:19:17.032Z</time>
      </trkpt>
      <trkpt lat="40.124982" lon="-2.982907">
        <ele>644.177186</ele>
        <time>2021-11-03T16:19:17.032Z</time>
      </trkpt>
      <trkpt lat="40.124956" lon="-2.982834">
        <ele>644.217359</ele>
        <time>2021-11-03T16:19:17.032Z</time>
      </trkpt>
      <trkpt lat="40.124934" lon="-2.982759">
        <ele>644.257432</ele>
        <time>2021-11-03T16:19:17.032Z</time>
      </trkpt>
      <trkpt lat="40.124854" lon="-2.982464">
        <ele>644.413576</ele>
        <time>2021-11-03T16:19:17.032Z</time>
      </trkpt>
      <trkpt lat="40.124750" lon="-2.982005">
        <ele>644.652394</ele>
        <time>2021-11-03T16:19:17.032Z</time>
      </trkpt>
      <trkpt lat="40.124711" lon="-2.981854">
        <ele>644.731902</ele>
        <time>2021-11-03T16:19:17.032Z</time>
      </trkpt>
      <trkpt lat="40.124553" lon="-2.981159">
        <ele>645.093609</ele>
        <time>2021-11-03T16:19:17.032Z</time>
      </trkpt>
      <trkpt lat="40.124536" lon="-2.981080">
        <ele>645.134550</ele>
        <time>2021-11-03T16:19:17.032Z</time>
      </trkpt>
      <trkpt lat="40.124345" lon="-2.980488">
        <ele>645.379324</ele>
        <time>2021-11-03T16:19:17.032Z</time>
      </trkpt>
      <trkpt lat="40.124307" lon="-2.980427">
        <ele>645.401500</ele>
        <time>2021-11-03T16:19:17.032Z</time>
      </trkpt>
      <trkpt lat="40.124267" lon="-2.980366">
        <ele>645.424150</ele>
        <time>2021-11-03T16:19:17.032Z</time>
      </trkpt>
      <trkpt lat="40.124186" lon="-2.980253">
        <ele>645.467805</ele>
        <time>2021-11-03T16:19:17.032Z</time>
      </trkpt>
      <trkpt lat="40.124061" lon="-2.980094">
        <ele>645.532080</ele>
        <time>2021-11-03T16:19:17.032Z</time>
      </trkpt>
      <trkpt lat="40.123831" lon="-2.979739">
        <ele>645.663225</ele>
        <time>2021-11-03T16:19:17.032Z</time>
      </trkpt>
      <trkpt lat="40.123803" lon="-2.979670">
        <ele>645.685242</ele>
        <time>2021-11-03T16:19:17.032Z</time>
      </trkpt>
      <trkpt lat="40.123671" lon="-2.979320">
        <ele>645.795238</ele>
        <time>2021-11-03T16:19:17.032Z</time>
      </trkpt>
      <trkpt lat="40.123596" lon="-2.979118">
        <ele>645.858529</ele>
        <time>2021-11-03T16:19:17.032Z</time>
      </trkpt>
      <trkpt lat="40.123481" lon="-2.978772">
        <ele>646.025694</ele>
        <time>2021-11-03T16:19:17.032Z</time>
      </trkpt>
      <trkpt lat="40.123443" lon="-2.978626">
        <ele>646.195333</ele>
        <time>2021-11-03T16:19:17.032Z</time>
      </trkpt>
      <trkpt lat="40.123413" lon="-2.978477">
        <ele>646.364810</ele>
        <time>2021-11-03T16:19:17.032Z</time>
      </trkpt>
      <trkpt lat="40.123386" lon="-2.978328">
        <ele>646.533240</ele>
        <time>2021-11-03T16:19:17.032Z</time>
      </trkpt>
      <trkpt lat="40.123375" lon="-2.978252">
        <ele>646.618320</ele>
        <time>2021-11-03T16:19:17.032Z</time>
      </trkpt>
      <trkpt lat="40.123363" lon="-2.978175">
        <ele>646.704756</ele>
        <time>2021-11-03T16:19:17.032Z</time>
      </trkpt>
      <trkpt lat="40.123341" lon="-2.978023">
        <ele>646.874916</ele>
        <time>2021-11-03T16:19:17.032Z</time>
      </trkpt>
      <trkpt lat="40.123338" lon="-2.977949">
        <ele>646.956425</ele>
        <time>2021-11-03T16:19:17.032Z</time>
      </trkpt>
      <trkpt lat="40.123356" lon="-2.977635">
        <ele>647.302775</ele>
        <time>2021-11-03T16:19:17.032Z</time>
      </trkpt>
      <trkpt lat="40.123387" lon="-2.977478">
        <ele>647.481130</ele>
        <time>2021-11-03T16:19:17.032Z</time>
      </trkpt>
      <trkpt lat="40.123423" lon="-2.977320">
        <ele>647.662472</ele>
        <time>2021-11-03T16:19:17.032Z</time>
      </trkpt>
      <trkpt lat="40.123458" lon="-2.977164">
        <ele>647.841296</ele>
        <time>2021-11-03T16:19:17.032Z</time>
      </trkpt>
      <trkpt lat="40.123476" lon="-2.977088">
        <ele>647.928809</ele>
        <time>2021-11-03T16:19:17.032Z</time>
      </trkpt>
      <trkpt lat="40.123492" lon="-2.977012">
        <ele>648.015515</ele>
        <time>2021-11-03T16:19:17.032Z</time>
      </trkpt>
      <trkpt lat="40.123546" lon="-2.976789">
        <ele>648.272806</ele>
        <time>2021-11-03T16:19:17.032Z</time>
      </trkpt>
      <trkpt lat="40.123593" lon="-2.976565">
        <ele>648.528299</ele>
        <time>2021-11-03T16:19:17.032Z</time>
      </trkpt>
      <trkpt lat="40.123652" lon="-2.976095">
        <ele>648.386202</ele>
        <time>2021-11-03T16:19:17.032Z</time>
      </trkpt>
      <trkpt lat="40.123628" lon="-2.975622">
        <ele>648.241082</ele>
        <time>2021-11-03T16:19:17.032Z</time>
      </trkpt>
      <trkpt lat="40.123607" lon="-2.975307">
        <ele>648.144284</ele>
        <time>2021-11-03T16:19:17.032Z</time>
      </trkpt>
      <trkpt lat="40.123615" lon="-2.974998">
        <ele>648.049634</ele>
        <time>2021-11-03T16:19:17.032Z</time>
      </trkpt>
      <trkpt lat="40.123649" lon="-2.974614">
        <ele>647.931294</ele>
        <time>2021-11-03T16:19:17.032Z</time>
      </trkpt>
      <trkpt lat="40.123657" lon="-2.974536">
        <ele>647.907201</ele>
        <time>2021-11-03T16:19:17.032Z</time>
      </trkpt>
      <trkpt lat="40.123666" lon="-2.974461">
        <ele>647.883960</ele>
        <time>2021-11-03T16:19:17.032Z</time>
      </trkpt>
      <trkpt lat="40.123720" lon="-2.973933">
        <ele>647.900632</ele>
        <time>2021-11-03T16:19:17.032Z</time>
      </trkpt>
      <trkpt lat="40.123745" lon="-2.973711">
        <ele>647.968794</ele>
        <time>2021-11-03T16:19:17.032Z</time>
      </trkpt>
      <trkpt lat="40.123777" lon="-2.973357">
        <ele>648.077074</ele>
        <time>2021-11-03T16:19:17.032Z</time>
      </trkpt>
      <trkpt lat="40.123781" lon="-2.973287">
        <ele>648.098397</ele>
        <time>2021-11-03T16:19:17.032Z</time>
      </trkpt>
      <trkpt lat="40.123784" lon="-2.973217">
        <ele>648.119694</ele>
        <time>2021-11-03T16:19:17.032Z</time>
      </trkpt>
      <trkpt lat="40.123785" lon="-2.973148">
        <ele>648.140657</ele>
        <time>2021-11-03T16:19:17.032Z</time>
      </trkpt>
      <trkpt lat="40.123783" lon="-2.973079">
        <ele>648.161632</ele>
        <time>2021-11-03T16:19:17.032Z</time>
      </trkpt>
      <trkpt lat="40.123776" lon="-2.973007">
        <ele>648.183679</ele>
        <time>2021-11-03T16:19:17.032Z</time>
      </trkpt>
      <trkpt lat="40.123764" lon="-2.972937">
        <ele>648.205470</ele>
        <time>2021-11-03T16:19:17.032Z</time>
      </trkpt>
      <trkpt lat="40.123750" lon="-2.972872">
        <ele>648.225982</ele>
        <time>2021-11-03T16:19:17.032Z</time>
      </trkpt>
      <trkpt lat="40.123735" lon="-2.972799">
        <ele>648.248944</ele>
        <time>2021-11-03T16:19:17.032Z</time>
      </trkpt>
      <trkpt lat="40.123577" lon="-2.972216">
        <ele>648.436831</ele>
        <time>2021-11-03T16:19:17.032Z</time>
      </trkpt>
      <trkpt lat="40.123466" lon="-2.971863">
        <ele>648.428786</ele>
        <time>2021-11-03T16:19:17.032Z</time>
      </trkpt>
      <trkpt lat="40.123444" lon="-2.971792">
        <ele>648.345779</ele>
        <time>2021-11-03T16:19:17.032Z</time>
      </trkpt>
      <trkpt lat="40.123400" lon="-2.971652">
        <ele>648.181772</ele>
        <time>2021-11-03T16:19:17.032Z</time>
      </trkpt>
      <trkpt lat="40.123292" lon="-2.971312">
        <ele>647.782849</ele>
        <time>2021-11-03T16:19:17.032Z</time>
      </trkpt>
      <trkpt lat="40.123274" lon="-2.971262">
        <ele>647.722968</ele>
        <time>2021-11-03T16:19:17.032Z</time>
      </trkpt>
      <trkpt lat="40.123252" lon="-2.971222">
        <ele>647.669580</ele>
        <time>2021-11-03T16:19:17.032Z</time>
      </trkpt>
      <trkpt lat="40.123244" lon="-2.971216">
        <ele>647.656512</ele>
        <time>2021-11-03T16:19:17.032Z</time>
      </trkpt>
      <trkpt lat="40.123244" lon="-2.971216">
        <ele>647.656512</ele>
        <time>2021-11-03T16:19:17.032Z</time>
      </trkpt>
      <trkpt lat="40.123244" lon="-2.971216">
        <ele>647.656512</ele>
        <time>2021-11-03T16:19:17.032Z</time>
      </trkpt>
      <trkpt lat="40.123244" lon="-2.971217">
        <ele>647.655429</ele>
        <time>2021-11-03T16:19:17.032Z</time>
      </trkpt>
      <trkpt lat="40.123244" lon="-2.971217">
        <ele>647.655429</ele>
        <time>2021-11-03T16:19:17.032Z</time>
      </trkpt>
      <trkpt lat="40.123244" lon="-2.971217">
        <ele>647.655429</ele>
        <time>2021-11-03T16:19:17.032Z</time>
      </trkpt>
      <trkpt lat="40.123242" lon="-2.971212">
        <ele>647.649314</ele>
        <time>2021-11-03T16:19:17.032Z</time>
      </trkpt>
      <trkpt lat="40.123236" lon="-2.971202">
        <ele>647.635542</ele>
        <time>2021-11-03T16:19:17.032Z</time>
      </trkpt>
      <trkpt lat="40.123232" lon="-2.971187">
        <ele>647.618329</ele>
        <time>2021-11-03T16:19:17.032Z</time>
      </trkpt>
      <trkpt lat="40.123240" lon="-2.971136">
        <ele>647.561918</ele>
        <time>2021-11-03T16:19:17.032Z</time>
      </trkpt>
      <trkpt lat="40.123237" lon="-2.971127">
        <ele>647.551280</ele>
        <time>2021-11-03T16:19:17.032Z</time>
      </trkpt>
      <trkpt lat="40.123213" lon="-2.971192">
        <ele>647.473069</ele>
        <time>2021-11-03T16:19:17.032Z</time>
      </trkpt>
      <trkpt lat="40.123218" lon="-2.971299">
        <ele>647.356915</ele>
        <time>2021-11-03T16:19:17.032Z</time>
      </trkpt>
      <trkpt lat="40.123211" lon="-2.971433">
        <ele>647.211383</ele>
        <time>2021-11-03T16:19:17.032Z</time>
      </trkpt>
      <trkpt lat="40.123206" lon="-2.971487">
        <ele>647.152445</ele>
        <time>2021-11-03T16:19:17.032Z</time>
      </trkpt>
      <trkpt lat="40.123180" lon="-2.971799">
        <ele>646.812381</ele>
        <time>2021-11-03T16:19:17.032Z</time>
      </trkpt>
      <trkpt lat="40.123146" lon="-2.972081">
        <ele>646.503049</ele>
        <time>2021-11-03T16:19:17.032Z</time>
      </trkpt>
      <trkpt lat="40.123130" lon="-2.972140">
        <ele>646.435219</ele>
        <time>2021-11-03T16:19:17.032Z</time>
      </trkpt>
      <trkpt lat="40.123126" lon="-2.972137">
        <ele>646.428685</ele>
        <time>2021-11-03T16:19:17.032Z</time>
      </trkpt>
      <trkpt lat="40.123125" lon="-2.972127">
        <ele>646.417758</ele>
        <time>2021-11-03T16:19:17.032Z</time>
      </trkpt>
      <trkpt lat="40.123126" lon="-2.972098">
        <ele>646.386303</ele>
        <time>2021-11-03T16:19:17.032Z</time>
      </trkpt>
      <trkpt lat="40.123140" lon="-2.972085">
        <ele>646.361973</ele>
        <time>2021-11-03T16:19:17.032Z</time>
      </trkpt>
      <trkpt lat="40.123143" lon="-2.972072">
        <ele>646.347260</ele>
        <time>2021-11-03T16:19:17.032Z</time>
      </trkpt>
      <trkpt lat="40.123141" lon="-2.972067">
        <ele>646.341145</ele>
        <time>2021-11-03T16:19:17.032Z</time>
      </trkpt>
      <trkpt lat="40.123142" lon="-2.972065">
        <ele>646.338556</ele>
        <time>2021-11-03T16:19:17.032Z</time>
      </trkpt>
      <trkpt lat="40.123142" lon="-2.972064">
        <ele>646.337473</ele>
        <time>2021-11-03T16:19:17.032Z</time>
      </trkpt>
      <trkpt lat="40.123142" lon="-2.972063">
        <ele>646.336389</ele>
        <time>2021-11-03T16:19:17.032Z</time>
      </trkpt>
      <trkpt lat="40.123141" lon="-2.972061">
        <ele>646.333800</ele>
        <time>2021-11-03T16:19:17.032Z</time>
      </trkpt>
      <trkpt lat="40.123141" lon="-2.972060">
        <ele>646.332716</ele>
        <time>2021-11-03T16:19:17.032Z</time>
      </trkpt>
      <trkpt lat="40.123141" lon="-2.972060">
        <ele>646.332716</ele>
        <time>2021-11-03T16:19:17.032Z</time>
      </trkpt>
      <trkpt lat="40.123141" lon="-2.972060">
        <ele>646.332716</ele>
        <time>2021-11-03T16:19:17.032Z</time>
      </trkpt>
      <trkpt lat="40.123140" lon="-2.972060">
        <ele>646.331299</ele>
        <time>2021-11-03T16:19:17.032Z</time>
      </trkpt>
      <trkpt lat="40.123140" lon="-2.972060">
        <ele>646.331299</ele>
        <time>2021-11-03T16:19:17.032Z</time>
      </trkpt>
      <trkpt lat="40.123140" lon="-2.972060">
        <ele>646.331299</ele>
        <time>2021-11-03T16:19:17.032Z</time>
      </trkpt>
      <trkpt lat="40.123139" lon="-2.972060">
        <ele>646.329882</ele>
        <time>2021-11-03T16:19:17.032Z</time>
      </trkpt>
      <trkpt lat="40.123138" lon="-2.972061">
        <ele>646.328098</ele>
        <time>2021-11-03T16:19:17.032Z</time>
      </trkpt>
      <trkpt lat="40.123140" lon="-2.972063">
        <ele>646.324531</ele>
        <time>2021-11-03T16:19:17.032Z</time>
      </trkpt>
      <trkpt lat="40.123136" lon="-2.972083">
        <ele>646.302131</ele>
        <time>2021-11-03T16:19:17.032Z</time>
      </trkpt>
      <trkpt lat="40.123130" lon="-2.972102">
        <ele>646.279858</ele>
        <time>2021-11-03T16:19:17.032Z</time>
      </trkpt>
      <trkpt lat="40.123115" lon="-2.972167">
        <ele>646.206290</ele>
        <time>2021-11-03T16:19:17.032Z</time>
      </trkpt>
      <trkpt lat="40.123102" lon="-2.972210">
        <ele>646.156189</ele>
        <time>2021-11-03T16:19:17.032Z</time>
      </trkpt>
      <trkpt lat="40.123088" lon="-2.972259">
        <ele>646.099510</ele>
        <time>2021-11-03T16:19:17.032Z</time>
      </trkpt>
      <trkpt lat="40.123043" lon="-2.972432">
        <ele>645.965520</ele>
        <time>2021-11-03T16:19:17.032Z</time>
      </trkpt>
      <trkpt lat="40.122998" lon="-2.972556">
        <ele>645.943029</ele>
        <time>2021-11-03T16:19:17.032Z</time>
      </trkpt>
      <trkpt lat="40.122884" lon="-2.972799">
        <ele>645.896314</ele>
        <time>2021-11-03T16:19:17.032Z</time>
      </trkpt>
      <trkpt lat="40.122780" lon="-2.972972">
        <ele>645.860254</ele>
        <time>2021-11-03T16:19:17.032Z</time>
      </trkpt>
      <trkpt lat="40.122458" lon="-2.973479">
        <ele>645.752258</ele>
        <time>2021-11-03T16:19:17.032Z</time>
      </trkpt>
      <trkpt lat="40.122279" lon="-2.973755">
        <ele>645.692956</ele>
        <time>2021-11-03T16:19:17.032Z</time>
      </trkpt>
      <trkpt lat="40.122099" lon="-2.974030">
        <ele>645.633640</ele>
        <time>2021-11-03T16:19:17.032Z</time>
      </trkpt>
      <trkpt lat="40.121985" lon="-2.974183">
        <ele>645.598635</ele>
        <time>2021-11-03T16:19:17.032Z</time>
      </trkpt>
      <trkpt lat="40.121842" lon="-2.974392">
        <ele>645.870256</ele>
        <time>2021-11-03T16:19:17.032Z</time>
      </trkpt>
      <trkpt lat="40.121697" lon="-2.974604">
        <ele>646.205021</ele>
        <time>2021-11-03T16:19:17.032Z</time>
      </trkpt>
      <trkpt lat="40.121585" lon="-2.974760">
        <ele>646.456871</ele>
        <time>2021-11-03T16:19:17.032Z</time>
      </trkpt>
      <trkpt lat="40.121551" lon="-2.974817">
        <ele>646.541955</ele>
        <time>2021-11-03T16:19:17.032Z</time>
      </trkpt>
      <trkpt lat="40.121300" lon="-2.975193">
        <ele>647.129402</ele>
        <time>2021-11-03T16:19:17.032Z</time>
      </trkpt>
      <trkpt lat="40.121264" lon="-2.975245">
        <ele>647.211961</ele>
        <time>2021-11-03T16:19:17.032Z</time>
      </trkpt>
      <trkpt lat="40.121080" lon="-2.975504">
        <ele>647.628051</ele>
        <time>2021-11-03T16:19:17.032Z</time>
      </trkpt>
      <trkpt lat="40.121046" lon="-2.975561">
        <ele>647.713136</ele>
        <time>2021-11-03T16:19:17.032Z</time>
      </trkpt>
      <trkpt lat="40.121012" lon="-2.975616">
        <ele>647.796377</ele>
        <time>2021-11-03T16:19:17.032Z</time>
      </trkpt>
      <trkpt lat="40.120740" lon="-2.976009">
        <ele>648.407347</ele>
        <time>2021-11-03T16:19:17.032Z</time>
      </trkpt>
      <trkpt lat="40.120707" lon="-2.976035">
        <ele>648.453963</ele>
        <time>2021-11-03T16:19:17.032Z</time>
      </trkpt>
      <trkpt lat="40.120674" lon="-2.976043">
        <ele>648.494572</ele>
        <time>2021-11-03T16:19:17.032Z</time>
      </trkpt>
      <trkpt lat="40.120648" lon="-2.976032">
        <ele>648.527637</ele>
        <time>2021-11-03T16:19:17.032Z</time>
      </trkpt>
      <trkpt lat="40.120638" lon="-2.976009">
        <ele>648.552117</ele>
        <time>2021-11-03T16:19:17.032Z</time>
      </trkpt>
      <trkpt lat="40.120656" lon="-2.975945">
        <ele>648.615211</ele>
        <time>2021-11-03T16:19:17.032Z</time>
      </trkpt>
      <trkpt lat="40.120676" lon="-2.975912">
        <ele>648.654171</ele>
        <time>2021-11-03T16:19:17.032Z</time>
      </trkpt>
      <trkpt lat="40.120722" lon="-2.975836">
        <ele>648.743852</ele>
        <time>2021-11-03T16:19:17.032Z</time>
      </trkpt>
      <trkpt lat="40.120796" lon="-2.975693">
        <ele>648.903612</ele>
        <time>2021-11-03T16:19:17.032Z</time>
      </trkpt>
      <trkpt lat="40.120891" lon="-2.975478">
        <ele>649.133362</ele>
        <time>2021-11-03T16:19:17.032Z</time>
      </trkpt>
      <trkpt lat="40.120948" lon="-2.975306">
        <ele>649.306806</ele>
        <time>2021-11-03T16:19:17.032Z</time>
      </trkpt>
      <trkpt lat="40.121032" lon="-2.975014">
        <ele>649.595464</ele>
        <time>2021-11-03T16:19:17.032Z</time>
      </trkpt>
      <trkpt lat="40.121064" lon="-2.974824">
        <ele>649.775474</ele>
        <time>2021-11-03T16:19:17.032Z</time>
      </trkpt>
      <trkpt lat="40.121171" lon="-2.974322">
        <ele>650.257652</ele>
        <time>2021-11-03T16:19:17.032Z</time>
      </trkpt>
      <trkpt lat="40.121218" lon="-2.974138">
        <ele>650.437144</ele>
        <time>2021-11-03T16:19:17.032Z</time>
      </trkpt>
      <trkpt lat="40.121281" lon="-2.973750">
        <ele>650.525213</ele>
        <time>2021-11-03T16:19:17.032Z</time>
      </trkpt>
      <trkpt lat="40.121270" lon="-2.973334">
        <ele>650.509414</ele>
        <time>2021-11-03T16:19:17.032Z</time>
      </trkpt>
      <trkpt lat="40.121262" lon="-2.973266">
        <ele>650.506803</ele>
        <time>2021-11-03T16:19:17.032Z</time>
      </trkpt>
      <trkpt lat="40.121254" lon="-2.973199">
        <ele>650.504229</ele>
        <time>2021-11-03T16:19:17.032Z</time>
      </trkpt>
      <trkpt lat="40.121246" lon="-2.973132">
        <ele>650.501655</ele>
        <time>2021-11-03T16:19:17.032Z</time>
      </trkpt>
      <trkpt lat="40.121237" lon="-2.973064">
        <ele>650.499036</ele>
        <time>2021-11-03T16:19:17.032Z</time>
      </trkpt>
      <trkpt lat="40.121226" lon="-2.972995">
        <ele>650.496361</ele>
        <time>2021-11-03T16:19:17.032Z</time>
      </trkpt>
      <trkpt lat="40.121171" lon="-2.972713">
        <ele>650.485315</ele>
        <time>2021-11-03T16:19:17.032Z</time>
      </trkpt>
      <trkpt lat="40.121094" lon="-2.972357">
        <ele>650.471273</ele>
        <time>2021-11-03T16:19:17.032Z</time>
      </trkpt>
      <trkpt lat="40.121051" lon="-2.972140">
        <ele>650.462765</ele>
        <time>2021-11-03T16:19:17.032Z</time>
      </trkpt>
      <trkpt lat="40.120990" lon="-2.971635">
        <ele>650.541608</ele>
        <time>2021-11-03T16:19:17.032Z</time>
      </trkpt>
      <trkpt lat="40.120963" lon="-2.971016">
        <ele>651.165840</ele>
        <time>2021-11-03T16:19:17.032Z</time>
      </trkpt>
      <trkpt lat="40.120938" lon="-2.970275">
        <ele>651.912616</ele>
        <time>2021-11-03T16:19:17.032Z</time>
      </trkpt>
      <trkpt lat="40.120934" lon="-2.970127">
        <ele>652.061718</ele>
        <time>2021-11-03T16:19:17.032Z</time>
      </trkpt>
      <trkpt lat="40.120922" lon="-2.969982">
        <ele>652.208559</ele>
        <time>2021-11-03T16:19:17.032Z</time>
      </trkpt>
      <trkpt lat="40.120879" lon="-2.969698">
        <ele>652.500046</ele>
        <time>2021-11-03T16:19:17.032Z</time>
      </trkpt>
      <trkpt lat="40.120863" lon="-2.969628">
        <ele>652.573605</ele>
        <time>2021-11-03T16:19:17.032Z</time>
      </trkpt>
      <trkpt lat="40.120804" lon="-2.969423">
        <ele>652.794137</ele>
        <time>2021-11-03T16:19:17.032Z</time>
      </trkpt>
      <trkpt lat="40.120741" lon="-2.969214">
        <ele>652.801944</ele>
        <time>2021-11-03T16:19:17.032Z</time>
      </trkpt>
      <trkpt lat="40.120697" lon="-2.969066">
        <ele>652.791698</ele>
        <time>2021-11-03T16:19:17.032Z</time>
      </trkpt>
      <trkpt lat="40.120678" lon="-2.968991">
        <ele>652.786600</ele>
        <time>2021-11-03T16:19:17.032Z</time>
      </trkpt>
      <trkpt lat="40.120650" lon="-2.968832">
        <ele>652.776071</ele>
        <time>2021-11-03T16:19:17.032Z</time>
      </trkpt>
      <trkpt lat="40.120641" lon="-2.968751">
        <ele>652.770790</ele>
        <time>2021-11-03T16:19:17.032Z</time>
      </trkpt>
      <trkpt lat="40.120642" lon="-2.968200">
        <ele>652.735236</ele>
        <time>2021-11-03T16:19:17.032Z</time>
      </trkpt>
      <trkpt lat="40.120646" lon="-2.967894">
        <ele>652.715489</ele>
        <time>2021-11-03T16:19:17.032Z</time>
      </trkpt>
      <trkpt lat="40.120659" lon="-2.967503">
        <ele>652.690236</ele>
        <time>2021-11-03T16:19:17.032Z</time>
      </trkpt>
      <trkpt lat="40.120677" lon="-2.966974">
        <ele>652.760210</ele>
        <time>2021-11-03T16:19:17.032Z</time>
      </trkpt>
      <trkpt lat="40.120681" lon="-2.966750">
        <ele>652.953237</ele>
        <time>2021-11-03T16:19:17.032Z</time>
      </trkpt>
      <trkpt lat="40.120684" lon="-2.966599">
        <ele>653.083367</ele>
        <time>2021-11-03T16:19:17.032Z</time>
      </trkpt>
      <trkpt lat="40.120688" lon="-2.966447">
        <ele>653.214391</ele>
        <time>2021-11-03T16:19:17.032Z</time>
      </trkpt>
      <trkpt lat="40.120714" lon="-2.965999">
        <ele>653.601450</ele>
        <time>2021-11-03T16:19:17.032Z</time>
      </trkpt>
      <trkpt lat="40.120727" lon="-2.965849">
        <ele>653.731501</ele>
        <time>2021-11-03T16:19:17.032Z</time>
      </trkpt>
      <trkpt lat="40.120740" lon="-2.965621">
        <ele>653.928466</ele>
        <time>2021-11-03T16:19:17.032Z</time>
      </trkpt>
      <trkpt lat="40.120758" lon="-2.965249">
        <ele>654.249582</ele>
        <time>2021-11-03T16:19:17.032Z</time>
      </trkpt>
      <trkpt lat="40.120794" lon="-2.964718">
        <ele>654.707765</ele>
        <time>2021-11-03T16:19:17.032Z</time>
      </trkpt>
      <trkpt lat="40.120798" lon="-2.964642">
        <ele>654.769753</ele>
        <time>2021-11-03T16:19:17.032Z</time>
      </trkpt>
      <trkpt lat="40.120796" lon="-2.964560">
        <ele>654.836510</ele>
        <time>2021-11-03T16:19:17.032Z</time>
      </trkpt>
      <trkpt lat="40.120783" lon="-2.964393">
        <ele>654.973100</ele>
        <time>2021-11-03T16:19:17.032Z</time>
      </trkpt>
      <trkpt lat="40.120732" lon="-2.964167">
        <ele>655.164837</ele>
        <time>2021-11-03T16:19:17.032Z</time>
      </trkpt>
      <trkpt lat="40.120552" lon="-2.963777">
        <ele>655.535504</ele>
        <time>2021-11-03T16:19:17.032Z</time>
      </trkpt>
      <trkpt lat="40.120491" lon="-2.963647">
        <ele>655.659612</ele>
        <time>2021-11-03T16:19:17.032Z</time>
      </trkpt>
      <trkpt lat="40.120390" lon="-2.963369">
        <ele>655.910055</ele>
        <time>2021-11-03T16:19:17.032Z</time>
      </trkpt>
      <trkpt lat="40.120213" lon="-2.962635">
        <ele>656.536309</ele>
        <time>2021-11-03T16:19:17.032Z</time>
      </trkpt>
      <trkpt lat="40.120154" lon="-2.962074">
        <ele>656.923931</ele>
        <time>2021-11-03T16:19:17.032Z</time>
      </trkpt>
      <trkpt lat="40.120156" lon="-2.961993">
        <ele>656.977615</ele>
        <time>2021-11-03T16:19:17.032Z</time>
      </trkpt>
      <trkpt lat="40.120222" lon="-2.961598">
        <ele>657.245442</ele>
        <time>2021-11-03T16:19:17.032Z</time>
      </trkpt>
      <trkpt lat="40.120414" lon="-2.960934">
        <ele>657.715680</ele>
        <time>2021-11-03T16:19:17.032Z</time>
      </trkpt>
      <trkpt lat="40.120511" lon="-2.960487">
        <ele>658.023470</ele>
        <time>2021-11-03T16:19:17.032Z</time>
      </trkpt>
      <trkpt lat="40.120514" lon="-2.960409">
        <ele>658.075203</ele>
        <time>2021-11-03T16:19:17.032Z</time>
      </trkpt>
      <trkpt lat="40.120481" lon="-2.960097">
        <ele>658.414898</ele>
        <time>2021-11-03T16:19:17.032Z</time>
      </trkpt>
      <trkpt lat="40.120464" lon="-2.960021">
        <ele>658.523613</ele>
        <time>2021-11-03T16:19:17.032Z</time>
      </trkpt>
      <trkpt lat="40.120425" lon="-2.959875">
        <ele>658.735938</ele>
        <time>2021-11-03T16:19:17.032Z</time>
      </trkpt>
      <trkpt lat="40.120356" lon="-2.959585">
        <ele>659.152914</ele>
        <time>2021-11-03T16:19:17.032Z</time>
      </trkpt>
      <trkpt lat="40.120339" lon="-2.959515">
        <ele>659.253749</ele>
        <time>2021-11-03T16:19:17.032Z</time>
      </trkpt>
      <trkpt lat="40.120319" lon="-2.959443">
        <ele>659.358920</ele>
        <time>2021-11-03T16:19:17.032Z</time>
      </trkpt>
      <trkpt lat="40.120237" lon="-2.959153">
        <ele>659.783416</ele>
        <time>2021-11-03T16:19:17.032Z</time>
      </trkpt>
      <trkpt lat="40.120216" lon="-2.959081">
        <ele>659.889214</ele>
        <time>2021-11-03T16:19:17.032Z</time>
      </trkpt>
      <trkpt lat="40.120107" lon="-2.958741">
        <ele>660.395373</ele>
        <time>2021-11-03T16:19:17.032Z</time>
      </trkpt>
      <trkpt lat="40.120024" lon="-2.958464">
        <ele>660.803829</ele>
        <time>2021-11-03T16:19:17.032Z</time>
      </trkpt>
      <trkpt lat="40.119986" lon="-2.958321">
        <ele>661.011675</ele>
        <time>2021-11-03T16:19:17.032Z</time>
      </trkpt>
      <trkpt lat="40.119924" lon="-2.958021">
        <ele>661.369685</ele>
        <time>2021-11-03T16:19:17.032Z</time>
      </trkpt>
      <trkpt lat="40.119829" lon="-2.957383">
        <ele>660.969435</ele>
        <time>2021-11-03T16:19:17.032Z</time>
      </trkpt>
      <trkpt lat="40.119794" lon="-2.957053">
        <ele>660.764280</ele>
        <time>2021-11-03T16:19:17.032Z</time>
      </trkpt>
      <trkpt lat="40.119784" lon="-2.956727">
        <ele>660.563372</ele>
        <time>2021-11-03T16:19:17.032Z</time>
      </trkpt>
      <trkpt lat="40.119816" lon="-2.956161">
        <ele>660.213886</ele>
        <time>2021-11-03T16:19:17.032Z</time>
      </trkpt>
      <trkpt lat="40.119807" lon="-2.955997">
        <ele>660.112637</ele>
        <time>2021-11-03T16:19:17.032Z</time>
      </trkpt>
      <trkpt lat="40.119782" lon="-2.955761">
        <ele>659.965923</ele>
        <time>2021-11-03T16:19:17.032Z</time>
      </trkpt>
      <trkpt lat="40.119763" lon="-2.955609">
        <ele>659.983200</ele>
        <time>2021-11-03T16:19:17.032Z</time>
      </trkpt>
      <trkpt lat="40.119657" lon="-2.955023">
        <ele>660.194089</ele>
        <time>2021-11-03T16:19:17.032Z</time>
      </trkpt>
      <trkpt lat="40.119637" lon="-2.954875">
        <ele>660.246724</ele>
        <time>2021-11-03T16:19:17.032Z</time>
      </trkpt>
      <trkpt lat="40.119621" lon="-2.954727">
        <ele>660.299071</ele>
        <time>2021-11-03T16:19:17.032Z</time>
      </trkpt>
      <trkpt lat="40.119616" lon="-2.954652">
        <ele>660.325436</ele>
        <time>2021-11-03T16:19:17.032Z</time>
      </trkpt>
      <trkpt lat="40.119610" lon="-2.954576">
        <ele>660.352194</ele>
        <time>2021-11-03T16:19:17.032Z</time>
      </trkpt>
      <trkpt lat="40.119605" lon="-2.954500">
        <ele>660.378909</ele>
        <time>2021-11-03T16:19:17.032Z</time>
      </trkpt>
      <trkpt lat="40.119595" lon="-2.954346">
        <ele>660.433036</ele>
        <time>2021-11-03T16:19:17.032Z</time>
      </trkpt>
      <trkpt lat="40.119589" lon="-2.954191">
        <ele>660.487388</ele>
        <time>2021-11-03T16:19:17.032Z</time>
      </trkpt>
      <trkpt lat="40.119612" lon="-2.953795">
        <ele>660.626473</ele>
        <time>2021-11-03T16:19:17.032Z</time>
      </trkpt>
      <trkpt lat="40.119645" lon="-2.953186">
        <ele>660.920416</ele>
        <time>2021-11-03T16:19:17.032Z</time>
      </trkpt>
      <trkpt lat="40.119649" lon="-2.953109">
        <ele>660.976712</ele>
        <time>2021-11-03T16:19:17.032Z</time>
      </trkpt>
      <trkpt lat="40.119670" lon="-2.952723">
        <ele>661.258982</ele>
        <time>2021-11-03T16:19:17.032Z</time>
      </trkpt>
      <trkpt lat="40.119690" lon="-2.952491">
        <ele>661.429282</ele>
        <time>2021-11-03T16:19:17.032Z</time>
      </trkpt>
      <trkpt lat="40.119709" lon="-2.952173">
        <ele>661.661946</ele>
        <time>2021-11-03T16:19:17.032Z</time>
      </trkpt>
      <trkpt lat="40.119695" lon="-2.951773">
        <ele>661.954023</ele>
        <time>2021-11-03T16:19:17.032Z</time>
      </trkpt>
      <trkpt lat="40.119651" lon="-2.951459">
        <ele>662.186877</ele>
        <time>2021-11-03T16:19:17.032Z</time>
      </trkpt>
      <trkpt lat="40.119573" lon="-2.951166">
        <ele>662.413179</ele>
        <time>2021-11-03T16:19:17.032Z</time>
      </trkpt>
      <trkpt lat="40.119353" lon="-2.950694">
        <ele>662.827616</ele>
        <time>2021-11-03T16:19:17.032Z</time>
      </trkpt>
      <trkpt lat="40.119320" lon="-2.950630">
        <ele>662.885812</ele>
        <time>2021-11-03T16:19:17.032Z</time>
      </trkpt>
      <trkpt lat="40.119288" lon="-2.950566">
        <ele>662.943462</ele>
        <time>2021-11-03T16:19:17.032Z</time>
      </trkpt>
      <trkpt lat="40.119257" lon="-2.950502">
        <ele>663.000579</ele>
        <time>2021-11-03T16:19:17.032Z</time>
      </trkpt>
      <trkpt lat="40.119075" lon="-2.950121">
        <ele>663.339266</ele>
        <time>2021-11-03T16:19:17.032Z</time>
      </trkpt>
      <trkpt lat="40.118956" lon="-2.949861">
        <ele>663.567716</ele>
        <time>2021-11-03T16:19:17.032Z</time>
      </trkpt>
      <trkpt lat="40.118926" lon="-2.949796">
        <ele>663.624956</ele>
        <time>2021-11-03T16:19:17.032Z</time>
      </trkpt>
      <trkpt lat="40.118839" lon="-2.949603">
        <ele>663.793865</ele>
        <time>2021-11-03T16:19:17.032Z</time>
      </trkpt>
      <trkpt lat="40.118615" lon="-2.949137">
        <ele>664.208844</ele>
        <time>2021-11-03T16:19:17.032Z</time>
      </trkpt>
      <trkpt lat="40.118594" lon="-2.949063">
        <ele>664.268849</ele>
        <time>2021-11-03T16:19:17.032Z</time>
      </trkpt>
      <trkpt lat="40.118576" lon="-2.948905">
        <ele>664.393842</ele>
        <time>2021-11-03T16:19:17.032Z</time>
      </trkpt>
      <trkpt lat="40.118580" lon="-2.948823">
        <ele>664.458134</ele>
        <time>2021-11-03T16:19:17.032Z</time>
      </trkpt>
      <trkpt lat="40.118670" lon="-2.948189">
        <ele>664.962689</ele>
        <time>2021-11-03T16:19:17.032Z</time>
      </trkpt>
      <trkpt lat="40.118692" lon="-2.948035">
        <ele>665.085273</ele>
        <time>2021-11-03T16:19:17.032Z</time>
      </trkpt>
      <trkpt lat="40.118752" lon="-2.947651">
        <ele>665.391945</ele>
        <time>2021-11-03T16:19:17.032Z</time>
      </trkpt>
      <trkpt lat="40.118765" lon="-2.947575">
        <ele>665.452882</ele>
        <time>2021-11-03T16:19:17.032Z</time>
      </trkpt>
      <trkpt lat="40.118791" lon="-2.947423">
        <ele>665.574755</ele>
        <time>2021-11-03T16:19:17.032Z</time>
      </trkpt>
      <trkpt lat="40.118890" lon="-2.946811">
        <ele>666.064216</ele>
        <time>2021-11-03T16:19:17.032Z</time>
      </trkpt>
      <trkpt lat="40.119017" lon="-2.946115">
        <ele>666.443689</ele>
        <time>2021-11-03T16:19:17.032Z</time>
      </trkpt>
      <trkpt lat="40.119030" lon="-2.946035">
        <ele>666.485836</ele>
        <time>2021-11-03T16:19:17.032Z</time>
      </trkpt>
      <trkpt lat="40.119128" lon="-2.945404">
        <ele>666.817648</ele>
        <time>2021-11-03T16:19:17.032Z</time>
      </trkpt>
      <trkpt lat="40.119228" lon="-2.944857">
        <ele>667.107476</ele>
        <time>2021-11-03T16:19:17.032Z</time>
      </trkpt>
      <trkpt lat="40.119244" lon="-2.944780">
        <ele>667.148595</ele>
        <time>2021-11-03T16:19:17.032Z</time>
      </trkpt>
      <trkpt lat="40.119261" lon="-2.944703">
        <ele>667.189896</ele>
        <time>2021-11-03T16:19:17.032Z</time>
      </trkpt>
      <trkpt lat="40.119276" lon="-2.944626">
        <ele>667.230843</ele>
        <time>2021-11-03T16:19:17.032Z</time>
      </trkpt>
      <trkpt lat="40.119351" lon="-2.944243">
        <ele>667.358449</ele>
        <time>2021-11-03T16:19:17.032Z</time>
      </trkpt>
      <trkpt lat="40.119365" lon="-2.944168">
        <ele>667.374352</ele>
        <time>2021-11-03T16:19:17.032Z</time>
      </trkpt>
      <trkpt lat="40.119455" lon="-2.943722">
        <ele>667.469373</ele>
        <time>2021-11-03T16:19:17.032Z</time>
      </trkpt>
      <trkpt lat="40.119567" lon="-2.943226">
        <ele>667.575910</ele>
        <time>2021-11-03T16:19:17.032Z</time>
      </trkpt>
      <trkpt lat="40.119581" lon="-2.943155">
        <ele>667.591014</ele>
        <time>2021-11-03T16:19:17.032Z</time>
      </trkpt>
      <trkpt lat="40.119681" lon="-2.942666">
        <ele>667.695287</ele>
        <time>2021-11-03T16:19:17.032Z</time>
      </trkpt>
      <trkpt lat="40.119709" lon="-2.942519">
        <ele>667.726494</ele>
        <time>2021-11-03T16:19:17.032Z</time>
      </trkpt>
      <trkpt lat="40.119808" lon="-2.942065">
        <ele>668.000862</ele>
        <time>2021-11-03T16:19:17.032Z</time>
      </trkpt>
      <trkpt lat="40.119908" lon="-2.941554">
        <ele>668.721015</ele>
        <time>2021-11-03T16:19:17.032Z</time>
      </trkpt>
      <trkpt lat="40.119920" lon="-2.941485">
        <ele>668.817627</ele>
        <time>2021-11-03T16:19:17.032Z</time>
      </trkpt>
      <trkpt lat="40.119988" lon="-2.941106">
        <ele>669.349128</ele>
        <time>2021-11-03T16:19:17.032Z</time>
      </trkpt>
      <trkpt lat="40.120002" lon="-2.940983">
        <ele>669.518910</ele>
        <time>2021-11-03T16:19:17.032Z</time>
      </trkpt>
      <trkpt lat="40.120003" lon="-2.940788">
        <ele>669.785150</ele>
        <time>2021-11-03T16:19:17.032Z</time>
      </trkpt>
      <trkpt lat="40.119997" lon="-2.940584">
        <ele>670.063877</ele>
        <time>2021-11-03T16:19:17.032Z</time>
      </trkpt>
      <trkpt lat="40.119989" lon="-2.940517">
        <ele>670.156461</ele>
        <time>2021-11-03T16:19:17.032Z</time>
      </trkpt>
      <trkpt lat="40.119883" lon="-2.940035">
        <ele>670.841209</ele>
        <time>2021-11-03T16:19:17.032Z</time>
      </trkpt>
      <trkpt lat="40.119781" lon="-2.939620">
        <ele>671.494112</ele>
        <time>2021-11-03T16:19:17.032Z</time>
      </trkpt>
      <trkpt lat="40.119771" lon="-2.939551">
        <ele>671.602791</ele>
        <time>2021-11-03T16:19:17.032Z</time>
      </trkpt>
      <trkpt lat="40.119671" lon="-2.939061">
        <ele>672.387612</ele>
        <time>2021-11-03T16:19:17.032Z</time>
      </trkpt>
      <trkpt lat="40.119634" lon="-2.938922">
        <ele>672.615377</ele>
        <time>2021-11-03T16:19:17.032Z</time>
      </trkpt>
      <trkpt lat="40.119578" lon="-2.938640">
        <ele>673.066251</ele>
        <time>2021-11-03T16:19:17.032Z</time>
      </trkpt>
      <trkpt lat="40.119515" lon="-2.938363">
        <ele>673.513471</ele>
        <time>2021-11-03T16:19:17.032Z</time>
      </trkpt>
      <trkpt lat="40.119473" lon="-2.937971">
        <ele>674.126024</ele>
        <time>2021-11-03T16:19:17.032Z</time>
      </trkpt>
      <trkpt lat="40.119481" lon="-2.937731">
        <ele>674.497781</ele>
        <time>2021-11-03T16:19:17.032Z</time>
      </trkpt>
      <trkpt lat="40.119504" lon="-2.937480">
        <ele>674.915802</ele>
        <time>2021-11-03T16:19:17.032Z</time>
      </trkpt>
      <trkpt lat="40.119510" lon="-2.937402">
        <ele>675.050369</ele>
        <time>2021-11-03T16:19:17.032Z</time>
      </trkpt>
      <trkpt lat="40.119561" lon="-2.936917">
        <ele>675.890730</ele>
        <time>2021-11-03T16:19:17.032Z</time>
      </trkpt>
      <trkpt lat="40.119575" lon="-2.936839">
        <ele>676.028260</ele>
        <time>2021-11-03T16:19:17.032Z</time>
      </trkpt>
      <trkpt lat="40.119593" lon="-2.936767">
        <ele>676.158288</ele>
        <time>2021-11-03T16:19:17.032Z</time>
      </trkpt>
      <trkpt lat="40.119614" lon="-2.936703">
        <ele>676.277834</ele>
        <time>2021-11-03T16:19:17.032Z</time>
      </trkpt>
      <trkpt lat="40.119637" lon="-2.936646">
        <ele>676.388463</ele>
        <time>2021-11-03T16:19:17.032Z</time>
      </trkpt>
      <trkpt lat="40.119656" lon="-2.936593">
        <ele>676.488941</ele>
        <time>2021-11-03T16:19:17.032Z</time>
      </trkpt>
      <trkpt lat="40.119682" lon="-2.936503">
        <ele>676.654087</ele>
        <time>2021-11-03T16:19:17.032Z</time>
      </trkpt>
      <trkpt lat="40.119693" lon="-2.936465">
        <ele>676.723833</ele>
        <time>2021-11-03T16:19:17.032Z</time>
      </trkpt>
      <trkpt lat="40.119735" lon="-2.936332">
        <ele>676.970834</ele>
        <time>2021-11-03T16:19:17.032Z</time>
      </trkpt>
      <trkpt lat="40.119765" lon="-2.936275">
        <ele>677.089612</ele>
        <time>2021-11-03T16:19:17.032Z</time>
      </trkpt>
      <trkpt lat="40.119782" lon="-2.936233">
        <ele>677.171183</ele>
        <time>2021-11-03T16:19:17.032Z</time>
      </trkpt>
      <trkpt lat="40.119791" lon="-2.936213">
        <ele>677.211018</ele>
        <time>2021-11-03T16:19:17.032Z</time>
      </trkpt>
      <trkpt lat="40.119838" lon="-2.936095">
        <ele>677.439399</ele>
        <time>2021-11-03T16:19:17.032Z</time>
      </trkpt>
      <trkpt lat="40.119846" lon="-2.936071">
        <ele>677.484340</ele>
        <time>2021-11-03T16:19:17.032Z</time>
      </trkpt>
      <trkpt lat="40.119852" lon="-2.936050">
        <ele>677.522821</ele>
        <time>2021-11-03T16:19:17.032Z</time>
      </trkpt>
      <trkpt lat="40.119870" lon="-2.936014">
        <ele>677.596654</ele>
        <time>2021-11-03T16:19:17.032Z</time>
      </trkpt>
      <trkpt lat="40.119873" lon="-2.935996">
        <ele>677.628277</ele>
        <time>2021-11-03T16:19:17.032Z</time>
      </trkpt>
      <trkpt lat="40.119879" lon="-2.935980">
        <ele>677.658866</ele>
        <time>2021-11-03T16:19:17.032Z</time>
      </trkpt>
      <trkpt lat="40.119928" lon="-2.935873">
        <ele>677.872952</ele>
        <time>2021-11-03T16:19:17.032Z</time>
      </trkpt>
      <trkpt lat="40.119952" lon="-2.935810">
        <ele>677.993771</ele>
        <time>2021-11-03T16:19:17.032Z</time>
      </trkpt>
      <trkpt lat="40.119952" lon="-2.935811">
        <ele>677.995487</ele>
        <time>2021-11-03T16:19:17.032Z</time>
      </trkpt>
      <trkpt lat="40.119952" lon="-2.935811">
        <ele>677.995487</ele>
        <time>2021-11-03T16:19:17.032Z</time>
      </trkpt>
      <trkpt lat="40.119952" lon="-2.935812">
        <ele>677.997204</ele>
        <time>2021-11-03T16:19:17.032Z</time>
      </trkpt>
      <trkpt lat="40.119952" lon="-2.935812">
        <ele>677.997204</ele>
        <time>2021-11-03T16:19:17.032Z</time>
      </trkpt>
      <trkpt lat="40.119952" lon="-2.935812">
        <ele>677.997204</ele>
        <time>2021-11-03T16:19:17.032Z</time>
      </trkpt>
      <trkpt lat="40.119952" lon="-2.935812">
        <ele>677.997204</ele>
        <time>2021-11-03T16:19:17.032Z</time>
      </trkpt>
      <trkpt lat="40.119952" lon="-2.935812">
        <ele>677.997204</ele>
        <time>2021-11-03T16:19:17.032Z</time>
      </trkpt>
      <trkpt lat="40.119953" lon="-2.935812">
        <ele>677.999448</ele>
        <time>2021-11-03T16:19:17.032Z</time>
      </trkpt>
      <trkpt lat="40.119955" lon="-2.935813">
        <ele>678.004255</ele>
        <time>2021-11-03T16:19:17.032Z</time>
      </trkpt>
      <trkpt lat="40.119956" lon="-2.935813">
        <ele>678.006500</ele>
        <time>2021-11-03T16:19:17.032Z</time>
      </trkpt>
      <trkpt lat="40.119956" lon="-2.935811">
        <ele>678.009933</ele>
        <time>2021-11-03T16:19:17.032Z</time>
      </trkpt>
      <trkpt lat="40.119955" lon="-2.935813">
        <ele>678.014034</ele>
        <time>2021-11-03T16:19:17.032Z</time>
      </trkpt>
      <trkpt lat="40.119955" lon="-2.935811">
        <ele>678.017468</ele>
        <time>2021-11-03T16:19:17.032Z</time>
      </trkpt>
      <trkpt lat="40.119954" lon="-2.935809">
        <ele>678.021569</ele>
        <time>2021-11-03T16:19:17.032Z</time>
      </trkpt>
      <trkpt lat="40.119954" lon="-2.935809">
        <ele>678.021569</ele>
        <time>2021-11-03T16:19:17.032Z</time>
      </trkpt>
      <trkpt lat="40.119957" lon="-2.935805">
        <ele>678.031187</ele>
        <time>2021-11-03T16:19:17.032Z</time>
      </trkpt>
      <trkpt lat="40.119959" lon="-2.935803">
        <ele>678.036838</ele>
        <time>2021-11-03T16:19:17.032Z</time>
      </trkpt>
      <trkpt lat="40.119958" lon="-2.935802">
        <ele>678.039664</ele>
        <time>2021-11-03T16:19:17.032Z</time>
      </trkpt>
      <trkpt lat="40.119959" lon="-2.935804">
        <ele>678.043766</ele>
        <time>2021-11-03T16:19:17.032Z</time>
      </trkpt>
      <trkpt lat="40.119963" lon="-2.935788">
        <ele>678.072661</ele>
        <time>2021-11-03T16:19:17.032Z</time>
      </trkpt>
      <trkpt lat="40.119972" lon="-2.935747">
        <ele>678.145882</ele>
        <time>2021-11-03T16:19:17.032Z</time>
      </trkpt>
      <trkpt lat="40.120031" lon="-2.935521">
        <ele>678.555803</ele>
        <time>2021-11-03T16:19:17.032Z</time>
      </trkpt>
      <trkpt lat="40.120056" lon="-2.935222">
        <ele>678.926852</ele>
        <time>2021-11-03T16:19:17.032Z</time>
      </trkpt>
      <trkpt lat="40.120054" lon="-2.935166">
        <ele>678.987346</ele>
        <time>2021-11-03T16:19:17.032Z</time>
      </trkpt>
      <trkpt lat="40.119990" lon="-2.934832">
        <ele>679.358903</ele>
        <time>2021-11-03T16:19:17.032Z</time>
      </trkpt>
      <trkpt lat="40.119969" lon="-2.934779">
        <ele>679.423316</ele>
        <time>2021-11-03T16:19:17.032Z</time>
      </trkpt>
      <trkpt lat="40.119894" lon="-2.934626">
        <ele>679.619425</ele>
        <time>2021-11-03T16:19:17.032Z</time>
      </trkpt>
      <trkpt lat="40.119785" lon="-2.934419">
        <ele>679.890632</ele>
        <time>2021-11-03T16:19:17.032Z</time>
      </trkpt>
      <trkpt lat="40.119727" lon="-2.934316">
        <ele>680.028661</ele>
        <time>2021-11-03T16:19:17.032Z</time>
      </trkpt>
      <trkpt lat="40.119555" lon="-2.933982">
        <ele>680.463184</ele>
        <time>2021-11-03T16:19:17.032Z</time>
      </trkpt>
      <trkpt lat="40.119526" lon="-2.933924">
        <ele>680.537962</ele>
        <time>2021-11-03T16:19:17.032Z</time>
      </trkpt>
      <trkpt lat="40.119469" lon="-2.933809">
        <ele>680.685845</ele>
        <time>2021-11-03T16:19:17.032Z</time>
      </trkpt>
      <trkpt lat="40.119317" lon="-2.933533">
        <ele>681.052873</ele>
        <time>2021-11-03T16:19:17.032Z</time>
      </trkpt>
      <trkpt lat="40.119233" lon="-2.933293">
        <ele>681.373401</ele>
        <time>2021-11-03T16:19:17.032Z</time>
      </trkpt>
      <trkpt lat="40.119193" lon="-2.933094">
        <ele>681.662277</ele>
        <time>2021-11-03T16:19:17.032Z</time>
      </trkpt>
      <trkpt lat="40.119140" lon="-2.932662">
        <ele>682.276537</ele>
        <time>2021-11-03T16:19:17.032Z</time>
      </trkpt>
      <trkpt lat="40.119133" lon="-2.932588">
        <ele>682.381221</ele>
        <time>2021-11-03T16:19:17.032Z</time>
      </trkpt>
      <trkpt lat="40.119117" lon="-2.932440">
        <ele>682.591072</ele>
        <time>2021-11-03T16:19:17.032Z</time>
      </trkpt>
      <trkpt lat="40.119099" lon="-2.932219">
        <ele>682.903099</ele>
        <time>2021-11-03T16:19:17.032Z</time>
      </trkpt>
      <trkpt lat="40.119083" lon="-2.931932">
        <ele>683.307101</ele>
        <time>2021-11-03T16:19:17.032Z</time>
      </trkpt>
      <trkpt lat="40.119079" lon="-2.931784">
        <ele>683.515015</ele>
        <time>2021-11-03T16:19:17.032Z</time>
      </trkpt>
      <trkpt lat="40.119066" lon="-2.931414">
        <ele>684.035024</ele>
        <time>2021-11-03T16:19:17.032Z</time>
      </trkpt>
      <trkpt lat="40.119078" lon="-2.931128">
        <ele>684.437157</ele>
        <time>2021-11-03T16:19:17.032Z</time>
      </trkpt>
      <trkpt lat="40.119092" lon="-2.931060">
        <ele>684.530954</ele>
        <time>2021-11-03T16:19:17.032Z</time>
      </trkpt>
      <trkpt lat="40.119111" lon="-2.930995">
        <ele>684.595092</ele>
        <time>2021-11-03T16:19:17.032Z</time>
      </trkpt>
      <trkpt lat="40.119163" lon="-2.930875">
        <ele>684.722220</ele>
        <time>2021-11-03T16:19:17.032Z</time>
      </trkpt>
      <trkpt lat="40.119225" lon="-2.930766">
        <ele>684.847431</ele>
        <time>2021-11-03T16:19:17.032Z</time>
      </trkpt>
      <trkpt lat="40.119318" lon="-2.930595">
        <ele>685.040837</ele>
        <time>2021-11-03T16:19:17.032Z</time>
      </trkpt>
      <trkpt lat="40.119400" lon="-2.930402">
        <ele>685.244337</ele>
        <time>2021-11-03T16:19:17.032Z</time>
      </trkpt>
      <trkpt lat="40.119426" lon="-2.930334">
        <ele>685.314411</ele>
        <time>2021-11-03T16:19:17.032Z</time>
      </trkpt>
      <trkpt lat="40.119451" lon="-2.930266">
        <ele>685.383953</ele>
        <time>2021-11-03T16:19:17.032Z</time>
      </trkpt>
      <trkpt lat="40.119479" lon="-2.930200">
        <ele>685.453520</ele>
        <time>2021-11-03T16:19:17.032Z</time>
      </trkpt>
      <trkpt lat="40.119622" lon="-2.929881">
        <ele>685.794336</ele>
        <time>2021-11-03T16:19:17.032Z</time>
      </trkpt>
      <trkpt lat="40.119654" lon="-2.929817">
        <ele>685.864815</ele>
        <time>2021-11-03T16:19:17.032Z</time>
      </trkpt>
      <trkpt lat="40.119794" lon="-2.929577">
        <ele>686.143035</ele>
        <time>2021-11-03T16:19:17.032Z</time>
      </trkpt>
      <trkpt lat="40.119912" lon="-2.929412">
        <ele>686.351256</ele>
        <time>2021-11-03T16:19:17.032Z</time>
      </trkpt>
      <trkpt lat="40.120092" lon="-2.929212">
        <ele>686.635948</ele>
        <time>2021-11-03T16:19:17.032Z</time>
      </trkpt>
      <trkpt lat="40.120269" lon="-2.929001">
        <ele>686.866630</ele>
        <time>2021-11-03T16:19:17.032Z</time>
      </trkpt>
      <trkpt lat="40.120311" lon="-2.928946">
        <ele>686.920625</ele>
        <time>2021-11-03T16:19:17.032Z</time>
      </trkpt>
      <trkpt lat="40.120393" lon="-2.928838">
        <ele>687.026348</ele>
        <time>2021-11-03T16:19:17.032Z</time>
      </trkpt>
      <trkpt lat="40.120584" lon="-2.928546">
        <ele>687.293276</ele>
        <time>2021-11-03T16:19:17.032Z</time>
      </trkpt>
      <trkpt lat="40.120624" lon="-2.928400">
        <ele>687.401010</ele>
        <time>2021-11-03T16:19:17.032Z</time>
      </trkpt>
      <trkpt lat="40.120621" lon="-2.928324">
        <ele>687.453874</ele>
        <time>2021-11-03T16:19:17.032Z</time>
      </trkpt>
      <trkpt lat="40.120604" lon="-2.928252">
        <ele>687.506220</ele>
        <time>2021-11-03T16:19:17.032Z</time>
      </trkpt>
      <trkpt lat="40.120578" lon="-2.928183">
        <ele>687.559655</ele>
        <time>2021-11-03T16:19:17.032Z</time>
      </trkpt>
      <trkpt lat="40.120546" lon="-2.928119">
        <ele>687.612774</ele>
        <time>2021-11-03T16:19:17.032Z</time>
      </trkpt>
      <trkpt lat="40.120508" lon="-2.928060">
        <ele>687.666360</ele>
        <time>2021-11-03T16:19:17.032Z</time>
      </trkpt>
      <trkpt lat="40.120252" lon="-2.927669">
        <ele>688.023930</ele>
        <time>2021-11-03T16:19:17.032Z</time>
      </trkpt>
      <trkpt lat="40.120142" lon="-2.927500">
        <ele>688.178099</ele>
        <time>2021-11-03T16:19:17.032Z</time>
      </trkpt>
      <trkpt lat="40.120002" lon="-2.927256">
        <ele>688.401919</ele>
        <time>2021-11-03T16:19:17.032Z</time>
      </trkpt>
      <trkpt lat="40.119980" lon="-2.927187">
        <ele>688.463098</ele>
        <time>2021-11-03T16:19:17.032Z</time>
      </trkpt>
      <trkpt lat="40.119963" lon="-2.927115">
        <ele>688.524765</ele>
        <time>2021-11-03T16:19:17.032Z</time>
      </trkpt>
      <trkpt lat="40.119923" lon="-2.926815">
        <ele>688.773980</ele>
        <time>2021-11-03T16:19:17.032Z</time>
      </trkpt>
      <trkpt lat="40.119898" lon="-2.926112">
        <ele>689.349914</ele>
        <time>2021-11-03T16:19:17.032Z</time>
      </trkpt>
      <trkpt lat="40.119893" lon="-2.925957">
        <ele>689.476874</ele>
        <time>2021-11-03T16:19:17.032Z</time>
      </trkpt>
      <trkpt lat="40.119887" lon="-2.925261">
        <ele>690.046495</ele>
        <time>2021-11-03T16:19:17.032Z</time>
      </trkpt>
      <trkpt lat="40.119900" lon="-2.925190">
        <ele>690.106241</ele>
        <time>2021-11-03T16:19:17.032Z</time>
      </trkpt>
      <trkpt lat="40.119937" lon="-2.925056">
        <ele>690.222832</ele>
        <time>2021-11-03T16:19:17.032Z</time>
      </trkpt>
      <trkpt lat="40.120038" lon="-2.924808">
        <ele>690.347581</ele>
        <time>2021-11-03T16:19:17.032Z</time>
      </trkpt>
      <trkpt lat="40.120129" lon="-2.924636">
        <ele>690.430824</ele>
        <time>2021-11-03T16:19:17.032Z</time>
      </trkpt>
      <trkpt lat="40.120207" lon="-2.924479">
        <ele>690.505340</ele>
        <time>2021-11-03T16:19:17.032Z</time>
      </trkpt>
      <trkpt lat="40.120231" lon="-2.924428">
        <ele>690.529174</ele>
        <time>2021-11-03T16:19:17.032Z</time>
      </trkpt>
      <trkpt lat="40.120357" lon="-2.924209">
        <ele>690.638251</ele>
        <time>2021-11-03T16:19:17.032Z</time>
      </trkpt>
      <trkpt lat="40.120443" lon="-2.924108">
        <ele>690.698413</ele>
        <time>2021-11-03T16:19:17.032Z</time>
      </trkpt>
      <trkpt lat="40.120865" lon="-2.923674">
        <ele>690.977836</ele>
        <time>2021-11-03T16:19:17.032Z</time>
      </trkpt>
      <trkpt lat="40.121088" lon="-2.923449">
        <ele>691.124431</ele>
        <time>2021-11-03T16:19:17.032Z</time>
      </trkpt>
      <trkpt lat="40.121441" lon="-2.923083">
        <ele>691.698145</ele>
        <time>2021-11-03T16:19:17.032Z</time>
      </trkpt>
      <trkpt lat="40.121852" lon="-2.922606">
        <ele>692.539312</ele>
        <time>2021-11-03T16:19:17.032Z</time>
      </trkpt>
      <trkpt lat="40.122010" lon="-2.922356">
        <ele>692.918955</ele>
        <time>2021-11-03T16:19:17.032Z</time>
      </trkpt>
      <trkpt lat="40.122038" lon="-2.922304">
        <ele>692.993399</ele>
        <time>2021-11-03T16:19:17.032Z</time>
      </trkpt>
      <trkpt lat="40.122106" lon="-2.922144">
        <ele>693.207665</ele>
        <time>2021-11-03T16:19:17.032Z</time>
      </trkpt>
      <trkpt lat="40.122164" lon="-2.921965">
        <ele>693.435223</ele>
        <time>2021-11-03T16:19:17.032Z</time>
      </trkpt>
      <trkpt lat="40.122177" lon="-2.921901">
        <ele>693.512735</ele>
        <time>2021-11-03T16:19:17.032Z</time>
      </trkpt>
      <trkpt lat="40.122255" lon="-2.921525">
        <ele>694.005718</ele>
        <time>2021-11-03T16:19:17.032Z</time>
      </trkpt>
      <trkpt lat="40.122275" lon="-2.921396">
        <ele>694.341349</ele>
        <time>2021-11-03T16:19:17.032Z</time>
      </trkpt>
      <trkpt lat="40.122310" lon="-2.921209">
        <ele>694.832258</ele>
        <time>2021-11-03T16:19:17.032Z</time>
      </trkpt>
      <trkpt lat="40.122350" lon="-2.921027">
        <ele>695.315129</ele>
        <time>2021-11-03T16:19:17.032Z</time>
      </trkpt>
      <trkpt lat="40.122373" lon="-2.920906">
        <ele>695.633058</ele>
        <time>2021-11-03T16:19:17.032Z</time>
      </trkpt>
      <trkpt lat="40.122462" lon="-2.920423">
        <ele>696.899915</ele>
        <time>2021-11-03T16:19:17.032Z</time>
      </trkpt>
      <trkpt lat="40.122489" lon="-2.920304">
        <ele>697.216429</ele>
        <time>2021-11-03T16:19:17.032Z</time>
      </trkpt>
      <trkpt lat="40.122576" lon="-2.919818">
        <ele>698.489186</ele>
        <time>2021-11-03T16:19:17.032Z</time>
      </trkpt>
      <trkpt lat="40.122586" lon="-2.919758">
        <ele>698.645771</ele>
        <time>2021-11-03T16:19:17.032Z</time>
      </trkpt>
      <trkpt lat="40.122600" lon="-2.919698">
        <ele>698.805729</ele>
        <time>2021-11-03T16:19:17.032Z</time>
      </trkpt>
      <trkpt lat="40.122615" lon="-2.919641">
        <ele>698.959440</ele>
        <time>2021-11-03T16:19:17.032Z</time>
      </trkpt>
      <trkpt lat="40.122666" lon="-2.919470">
        <ele>699.427464</ele>
        <time>2021-11-03T16:19:17.032Z</time>
      </trkpt>
      <trkpt lat="40.122703" lon="-2.919357">
        <ele>699.740907</ele>
        <time>2021-11-03T16:19:17.032Z</time>
      </trkpt>
      <trkpt lat="40.122849" lon="-2.919030">
        <ele>700.702434</ele>
        <time>2021-11-03T16:19:17.032Z</time>
      </trkpt>
      <trkpt lat="40.122943" lon="-2.918820">
        <ele>701.319677</ele>
        <time>2021-11-03T16:19:17.032Z</time>
      </trkpt>
      <trkpt lat="40.122981" lon="-2.918653">
        <ele>701.761647</ele>
        <time>2021-11-03T16:19:17.032Z</time>
      </trkpt>
      <trkpt lat="40.122983" lon="-2.918535">
        <ele>702.061039</ele>
        <time>2021-11-03T16:19:17.032Z</time>
      </trkpt>
      <trkpt lat="40.122976" lon="-2.918476">
        <ele>702.212489</ele>
        <time>2021-11-03T16:19:17.032Z</time>
      </trkpt>
      <trkpt lat="40.122920" lon="-2.918409">
        <ele>702.464270</ele>
        <time>2021-11-03T16:19:17.032Z</time>
      </trkpt>
      <trkpt lat="40.122904" lon="-2.918345">
        <ele>702.635068</ele>
        <time>2021-11-03T16:19:17.032Z</time>
      </trkpt>
      <trkpt lat="40.122898" lon="-2.918289">
        <ele>702.778506</ele>
        <time>2021-11-03T16:19:17.032Z</time>
      </trkpt>
      <trkpt lat="40.122888" lon="-2.918233">
        <ele>702.924377</ele>
        <time>2021-11-03T16:19:17.032Z</time>
      </trkpt>
      <trkpt lat="40.122899" lon="-2.918173">
        <ele>703.080887</ele>
        <time>2021-11-03T16:19:17.032Z</time>
      </trkpt>
      <trkpt lat="40.122884" lon="-2.918063">
        <ele>703.364315</ele>
        <time>2021-11-03T16:19:17.032Z</time>
      </trkpt>
      <trkpt lat="40.122900" lon="-2.917999">
        <ele>703.535114</ele>
        <time>2021-11-03T16:19:17.032Z</time>
      </trkpt>
      <trkpt lat="40.122894" lon="-2.917876">
        <ele>703.847750</ele>
        <time>2021-11-03T16:19:17.032Z</time>
      </trkpt>
      <trkpt lat="40.122888" lon="-2.917816">
        <ele>704.001242</ele>
        <time>2021-11-03T16:19:17.032Z</time>
      </trkpt>
      <trkpt lat="40.122830" lon="-2.917590">
        <ele>704.605940</ele>
        <time>2021-11-03T16:19:17.032Z</time>
      </trkpt>
      <trkpt lat="40.122827" lon="-2.917530">
        <ele>704.758461</ele>
        <time>2021-11-03T16:19:17.032Z</time>
      </trkpt>
      <trkpt lat="40.122826" lon="-2.917467">
        <ele>704.918302</ele>
        <time>2021-11-03T16:19:17.032Z</time>
      </trkpt>
      <trkpt lat="40.122862" lon="-2.917329">
        <ele>705.288163</ele>
        <time>2021-11-03T16:19:17.032Z</time>
      </trkpt>
      <trkpt lat="40.122877" lon="-2.917178">
        <ele>705.674409</ele>
        <time>2021-11-03T16:19:17.032Z</time>
      </trkpt>
      <trkpt lat="40.122882" lon="-2.916885">
        <ele>705.942033</ele>
        <time>2021-11-03T16:19:17.032Z</time>
      </trkpt>
      <trkpt lat="40.122859" lon="-2.916668">
        <ele>705.985325</ele>
        <time>2021-11-03T16:19:17.032Z</time>
      </trkpt>
      <trkpt lat="40.122841" lon="-2.916463">
        <ele>706.026103</ele>
        <time>2021-11-03T16:19:17.032Z</time>
      </trkpt>
      <trkpt lat="40.122838" lon="-2.916398">
        <ele>706.038971</ele>
        <time>2021-11-03T16:19:17.032Z</time>
      </trkpt>
      <trkpt lat="40.122848" lon="-2.916336">
        <ele>706.051493</ele>
        <time>2021-11-03T16:19:17.032Z</time>
      </trkpt>
      <trkpt lat="40.122883" lon="-2.916149">
        <ele>706.089538</ele>
        <time>2021-11-03T16:19:17.032Z</time>
      </trkpt>
      <trkpt lat="40.122894" lon="-2.916085">
        <ele>706.102501</ele>
        <time>2021-11-03T16:19:17.032Z</time>
      </trkpt>
      <trkpt lat="40.122918" lon="-2.915955">
        <ele>706.128929</ele>
        <time>2021-11-03T16:19:17.032Z</time>
      </trkpt>
      <trkpt lat="40.122933" lon="-2.915891">
        <ele>706.142157</ele>
        <time>2021-11-03T16:19:17.032Z</time>
      </trkpt>
      <trkpt lat="40.122981" lon="-2.915603">
        <ele>706.200407</ele>
        <time>2021-11-03T16:19:17.032Z</time>
      </trkpt>
      <trkpt lat="40.123017" lon="-2.915525">
        <ele>706.218411</ele>
        <time>2021-11-03T16:19:17.032Z</time>
      </trkpt>
      <trkpt lat="40.123135" lon="-2.915280">
        <ele>706.275630</ele>
        <time>2021-11-03T16:19:17.032Z</time>
      </trkpt>
      <trkpt lat="40.123159" lon="-2.915205">
        <ele>706.291696</ele>
        <time>2021-11-03T16:19:17.032Z</time>
      </trkpt>
      <trkpt lat="40.123186" lon="-2.915130">
        <ele>706.308078</ele>
        <time>2021-11-03T16:19:17.032Z</time>
      </trkpt>
      <trkpt lat="40.123213" lon="-2.915057">
        <ele>706.324103</ele>
        <time>2021-11-03T16:19:17.032Z</time>
      </trkpt>
      <trkpt lat="40.123239" lon="-2.914978">
        <ele>706.341099</ele>
        <time>2021-11-03T16:19:17.032Z</time>
      </trkpt>
      <trkpt lat="40.123289" lon="-2.914823">
        <ele>706.380149</ele>
        <time>2021-11-03T16:19:17.032Z</time>
      </trkpt>
      <trkpt lat="40.123321" lon="-2.914750">
        <ele>706.409351</ele>
        <time>2021-11-03T16:19:17.032Z</time>
      </trkpt>
      <trkpt lat="40.123372" lon="-2.914610">
        <ele>706.463169</ele>
        <time>2021-11-03T16:19:17.032Z</time>
      </trkpt>
      <trkpt lat="40.123439" lon="-2.914463">
        <ele>706.522560</ele>
        <time>2021-11-03T16:19:17.032Z</time>
      </trkpt>
      <trkpt lat="40.123459" lon="-2.914390">
        <ele>706.549471</ele>
        <time>2021-11-03T16:19:17.032Z</time>
      </trkpt>
      <trkpt lat="40.123480" lon="-2.914316">
        <ele>706.576864</ele>
        <time>2021-11-03T16:19:17.032Z</time>
      </trkpt>
      <trkpt lat="40.123501" lon="-2.914243">
        <ele>706.603932</ele>
        <time>2021-11-03T16:19:17.032Z</time>
      </trkpt>
      <trkpt lat="40.123521" lon="-2.914169">
        <ele>706.631170</ele>
        <time>2021-11-03T16:19:17.032Z</time>
      </trkpt>
      <trkpt lat="40.123537" lon="-2.914097">
        <ele>706.657191</ele>
        <time>2021-11-03T16:19:17.032Z</time>
      </trkpt>
      <trkpt lat="40.123555" lon="-2.914020">
        <ele>706.685135</ele>
        <time>2021-11-03T16:19:17.032Z</time>
      </trkpt>
      <trkpt lat="40.123565" lon="-2.913946">
        <ele>706.711214</ele>
        <time>2021-11-03T16:19:17.032Z</time>
      </trkpt>
      <trkpt lat="40.123573" lon="-2.913869">
        <ele>706.738182</ele>
        <time>2021-11-03T16:19:17.032Z</time>
      </trkpt>
      <trkpt lat="40.123584" lon="-2.913626">
        <ele>706.822661</ele>
        <time>2021-11-03T16:19:17.032Z</time>
      </trkpt>
      <trkpt lat="40.123559" lon="-2.913395">
        <ele>706.903628</ele>
        <time>2021-11-03T16:19:17.032Z</time>
      </trkpt>
      <trkpt lat="40.123462" lon="-2.913040">
        <ele>707.034458</ele>
        <time>2021-11-03T16:19:17.032Z</time>
      </trkpt>
      <trkpt lat="40.123361" lon="-2.912763">
        <ele>707.140960</ele>
        <time>2021-11-03T16:19:17.032Z</time>
      </trkpt>
      <trkpt lat="40.123328" lon="-2.912628">
        <ele>707.205661</ele>
        <time>2021-11-03T16:19:17.032Z</time>
      </trkpt>
      <trkpt lat="40.123292" lon="-2.912408">
        <ele>707.453079</ele>
        <time>2021-11-03T16:19:17.032Z</time>
      </trkpt>
      <trkpt lat="40.123244" lon="-2.912191">
        <ele>707.701506</ele>
        <time>2021-11-03T16:19:17.032Z</time>
      </trkpt>
      <trkpt lat="40.123213" lon="-2.912048">
        <ele>707.864965</ele>
        <time>2021-11-03T16:19:17.032Z</time>
      </trkpt>
      <trkpt lat="40.123082" lon="-2.911479">
        <ele>708.518461</ele>
        <time>2021-11-03T16:19:17.032Z</time>
      </trkpt>
      <trkpt lat="40.122993" lon="-2.911121">
        <ele>708.932452</ele>
        <time>2021-11-03T16:19:17.032Z</time>
      </trkpt>
      <trkpt lat="40.122954" lon="-2.910813">
        <ele>709.275783</ele>
        <time>2021-11-03T16:19:17.032Z</time>
      </trkpt>
      <trkpt lat="40.122949" lon="-2.910733">
        <ele>709.364056</ele>
        <time>2021-11-03T16:19:17.032Z</time>
      </trkpt>
      <trkpt lat="40.122943" lon="-2.910654">
        <ele>709.451362</ele>
        <time>2021-11-03T16:19:17.032Z</time>
      </trkpt>
      <trkpt lat="40.122938" lon="-2.910577">
        <ele>709.536347</ele>
        <time>2021-11-03T16:19:17.032Z</time>
      </trkpt>
      <trkpt lat="40.122934" lon="-2.910500">
        <ele>709.621222</ele>
        <time>2021-11-03T16:19:17.032Z</time>
      </trkpt>
      <trkpt lat="40.122930" lon="-2.910424">
        <ele>709.705000</ele>
        <time>2021-11-03T16:19:17.032Z</time>
      </trkpt>
      <trkpt lat="40.122927" lon="-2.910347">
        <ele>709.781654</ele>
        <time>2021-11-03T16:19:17.032Z</time>
      </trkpt>
      <trkpt lat="40.122909" lon="-2.909970">
        <ele>710.028008</ele>
        <time>2021-11-03T16:19:17.032Z</time>
      </trkpt>
      <trkpt lat="40.122904" lon="-2.909748">
        <ele>710.172857</ele>
        <time>2021-11-03T16:19:17.032Z</time>
      </trkpt>
      <trkpt lat="40.122937" lon="-2.909523">
        <ele>710.322274</ele>
        <time>2021-11-03T16:19:17.032Z</time>
      </trkpt>
      <trkpt lat="40.122997" lon="-2.909384">
        <ele>710.426375</ele>
        <time>2021-11-03T16:19:17.032Z</time>
      </trkpt>
      <trkpt lat="40.123074" lon="-2.909267">
        <ele>710.527052</ele>
        <time>2021-11-03T16:19:17.032Z</time>
      </trkpt>
      <trkpt lat="40.123303" lon="-2.909023">
        <ele>710.778988</ele>
        <time>2021-11-03T16:19:17.032Z</time>
      </trkpt>
      <trkpt lat="40.123397" lon="-2.908919">
        <ele>710.884004</ele>
        <time>2021-11-03T16:19:17.032Z</time>
      </trkpt>
      <trkpt lat="40.123441" lon="-2.908865">
        <ele>710.935469</ele>
        <time>2021-11-03T16:19:17.032Z</time>
      </trkpt>
      <trkpt lat="40.123663" lon="-2.908528">
        <ele>711.225569</ele>
        <time>2021-11-03T16:19:17.032Z</time>
      </trkpt>
      <trkpt lat="40.123857" lon="-2.908063">
        <ele>711.730150</ele>
        <time>2021-11-03T16:19:17.032Z</time>
      </trkpt>
      <trkpt lat="40.123875" lon="-2.907991">
        <ele>711.808976</ele>
        <time>2021-11-03T16:19:17.032Z</time>
      </trkpt>
      <trkpt lat="40.123907" lon="-2.907843">
        <ele>711.969025</ele>
        <time>2021-11-03T16:19:17.032Z</time>
      </trkpt>
      <trkpt lat="40.123933" lon="-2.907694">
        <ele>712.128061</ele>
        <time>2021-11-03T16:19:17.032Z</time>
      </trkpt>
      <trkpt lat="40.123956" lon="-2.907549">
        <ele>712.282161</ele>
        <time>2021-11-03T16:19:17.032Z</time>
      </trkpt>
      <trkpt lat="40.124043" lon="-2.907029">
        <ele>712.836077</ele>
        <time>2021-11-03T16:19:17.032Z</time>
      </trkpt>
      <trkpt lat="40.124055" lon="-2.906850">
        <ele>713.023060</ele>
        <time>2021-11-03T16:19:17.032Z</time>
      </trkpt>
      <trkpt lat="40.124051" lon="-2.906796">
        <ele>713.079516</ele>
        <time>2021-11-03T16:19:17.032Z</time>
      </trkpt>
      <trkpt lat="40.124039" lon="-2.906749">
        <ele>713.131078</ele>
        <time>2021-11-03T16:19:17.032Z</time>
      </trkpt>
      <trkpt lat="40.123994" lon="-2.906601">
        <ele>713.296817</ele>
        <time>2021-11-03T16:19:17.032Z</time>
      </trkpt>
      <trkpt lat="40.124005" lon="-2.906563">
        <ele>713.339099</ele>
        <time>2021-11-03T16:19:17.032Z</time>
      </trkpt>
      <trkpt lat="40.124014" lon="-2.906310">
        <ele>713.602657</ele>
        <time>2021-11-03T16:19:17.032Z</time>
      </trkpt>
      <trkpt lat="40.123993" lon="-2.905880">
        <ele>713.905548</ele>
        <time>2021-11-03T16:19:17.032Z</time>
      </trkpt>
      <trkpt lat="40.123986" lon="-2.905814">
        <ele>713.941194</ele>
        <time>2021-11-03T16:19:17.032Z</time>
      </trkpt>
      <trkpt lat="40.123939" lon="-2.905462">
        <ele>714.132351</ele>
        <time>2021-11-03T16:19:17.032Z</time>
      </trkpt>
      <trkpt lat="40.123928" lon="-2.905393">
        <ele>714.170057</ele>
        <time>2021-11-03T16:19:17.032Z</time>
      </trkpt>
      <trkpt lat="40.123889" lon="-2.904975">
        <ele>714.395331</ele>
        <time>2021-11-03T16:19:17.032Z</time>
      </trkpt>
      <trkpt lat="40.123888" lon="-2.904739">
        <ele>714.521585</ele>
        <time>2021-11-03T16:19:17.032Z</time>
      </trkpt>
      <trkpt lat="40.123894" lon="-2.904662">
        <ele>714.562990</ele>
        <time>2021-11-03T16:19:17.032Z</time>
      </trkpt>
      <trkpt lat="40.124027" lon="-2.904241">
        <ele>714.806675</ele>
        <time>2021-11-03T16:19:17.032Z</time>
      </trkpt>
      <trkpt lat="40.124091" lon="-2.904062">
        <ele>714.912385</ele>
        <time>2021-11-03T16:19:17.032Z</time>
      </trkpt>
      <trkpt lat="40.124159" lon="-2.903903">
        <ele>715.009844</ele>
        <time>2021-11-03T16:19:17.032Z</time>
      </trkpt>
      <trkpt lat="40.124174" lon="-2.903862">
        <ele>715.026048</ele>
        <time>2021-11-03T16:19:17.032Z</time>
      </trkpt>
      <trkpt lat="40.124211" lon="-2.903749">
        <ele>715.069735</ele>
        <time>2021-11-03T16:19:17.032Z</time>
      </trkpt>
      <trkpt lat="40.124236" lon="-2.903711">
        <ele>715.087551</ele>
        <time>2021-11-03T16:19:17.032Z</time>
      </trkpt>
      <trkpt lat="40.124266" lon="-2.903676">
        <ele>715.106237</ele>
        <time>2021-11-03T16:19:17.032Z</time>
      </trkpt>
      <trkpt lat="40.124376" lon="-2.903515">
        <ele>715.182969</ele>
        <time>2021-11-03T16:19:17.032Z</time>
      </trkpt>
      <trkpt lat="40.124468" lon="-2.903201">
        <ele>715.302476</ele>
        <time>2021-11-03T16:19:17.032Z</time>
      </trkpt>
      <trkpt lat="40.124522" lon="-2.903069">
        <ele>715.355680</ele>
        <time>2021-11-03T16:19:17.032Z</time>
      </trkpt>
      <trkpt lat="40.124585" lon="-2.902940">
        <ele>715.410079</ele>
        <time>2021-11-03T16:19:17.032Z</time>
      </trkpt>
      <trkpt lat="40.124689" lon="-2.902759">
        <ele>715.490543</ele>
        <time>2021-11-03T16:19:17.032Z</time>
      </trkpt>
      <trkpt lat="40.124762" lon="-2.902642">
        <ele>715.544210</ele>
        <time>2021-11-03T16:19:17.032Z</time>
      </trkpt>
      <trkpt lat="40.124922" lon="-2.902411">
        <ele>715.654980</ele>
        <time>2021-11-03T16:19:17.032Z</time>
      </trkpt>
      <trkpt lat="40.124959" lon="-2.902352">
        <ele>715.682099</ele>
        <time>2021-11-03T16:19:17.032Z</time>
      </trkpt>
      <trkpt lat="40.125089" lon="-2.902161">
        <ele>715.772975</ele>
        <time>2021-11-03T16:19:17.032Z</time>
      </trkpt>
      <trkpt lat="40.125183" lon="-2.902057">
        <ele>715.830202</ele>
        <time>2021-11-03T16:19:17.032Z</time>
      </trkpt>
      <trkpt lat="40.125433" lon="-2.901836">
        <ele>716.553959</ele>
        <time>2021-11-03T16:19:17.032Z</time>
      </trkpt>
      <trkpt lat="40.125599" lon="-2.901708">
        <ele>717.063388</ele>
        <time>2021-11-03T16:19:17.032Z</time>
      </trkpt>
      <trkpt lat="40.125693" lon="-2.901619">
        <ele>717.370169</ele>
        <time>2021-11-03T16:19:17.032Z</time>
      </trkpt>
      <trkpt lat="40.125740" lon="-2.901581">
        <ele>717.516243</ele>
        <time>2021-11-03T16:19:17.032Z</time>
      </trkpt>
      <trkpt lat="40.125793" lon="-2.901558">
        <ele>717.663864</ele>
        <time>2021-11-03T16:19:17.032Z</time>
      </trkpt>
      <trkpt lat="40.125907" lon="-2.901554">
        <ele>717.965340</ele>
        <time>2021-11-03T16:19:17.032Z</time>
      </trkpt>
      <trkpt lat="40.126010" lon="-2.901623">
        <ele>718.271270</ele>
        <time>2021-11-03T16:19:17.032Z</time>
      </trkpt>
      <trkpt lat="40.126061" lon="-2.901638">
        <ele>718.409460</ele>
        <time>2021-11-03T16:19:17.032Z</time>
      </trkpt>
      <trkpt lat="40.126215" lon="-2.901587">
        <ele>718.829419</ele>
        <time>2021-11-03T16:19:17.032Z</time>
      </trkpt>
      <trkpt lat="40.126475" lon="-2.901323">
        <ele>719.699583</ele>
        <time>2021-11-03T16:19:17.032Z</time>
      </trkpt>
      <trkpt lat="40.126520" lon="-2.901278">
        <ele>719.849334</ele>
        <time>2021-11-03T16:19:17.032Z</time>
      </trkpt>
      <trkpt lat="40.126746" lon="-2.901096">
        <ele>720.550961</ele>
        <time>2021-11-03T16:19:17.032Z</time>
      </trkpt>
      <trkpt lat="40.126786" lon="-2.901070">
        <ele>720.677514</ele>
        <time>2021-11-03T16:19:17.032Z</time>
      </trkpt>
      <trkpt lat="40.126823" lon="-2.901045">
        <ele>720.801277</ele>
        <time>2021-11-03T16:19:17.032Z</time>
      </trkpt>
      <trkpt lat="40.126862" lon="-2.901020">
        <ele>720.930350</ele>
        <time>2021-11-03T16:19:17.032Z</time>
      </trkpt>
      <trkpt lat="40.126939" lon="-2.900967">
        <ele>721.188934</ele>
        <time>2021-11-03T16:19:17.032Z</time>
      </trkpt>
      <trkpt lat="40.127027" lon="-2.900907">
        <ele>721.483856</ele>
        <time>2021-11-03T16:19:17.032Z</time>
      </trkpt>
      <trkpt lat="40.127036" lon="-2.900892">
        <ele>721.527181</ele>
        <time>2021-11-03T16:19:17.032Z</time>
      </trkpt>
      <trkpt lat="40.127098" lon="-2.900848">
        <ele>721.736810</ele>
        <time>2021-11-03T16:19:17.032Z</time>
      </trkpt>
      <trkpt lat="40.127237" lon="-2.900677">
        <ele>722.303918</ele>
        <time>2021-11-03T16:19:17.032Z</time>
      </trkpt>
      <trkpt lat="40.127376" lon="-2.900523">
        <ele>722.845290</ele>
        <time>2021-11-03T16:19:17.032Z</time>
      </trkpt>
      <trkpt lat="40.127453" lon="-2.900443">
        <ele>723.137534</ele>
        <time>2021-11-03T16:19:17.032Z</time>
      </trkpt>
      <trkpt lat="40.127535" lon="-2.900358">
        <ele>723.448479</ele>
        <time>2021-11-03T16:19:17.032Z</time>
      </trkpt>
      <trkpt lat="40.127703" lon="-2.900184">
        <ele>724.085331</ele>
        <time>2021-11-03T16:19:17.032Z</time>
      </trkpt>
      <trkpt lat="40.127867" lon="-2.900018">
        <ele>724.701616</ele>
        <time>2021-11-03T16:19:17.032Z</time>
      </trkpt>
      <trkpt lat="40.127906" lon="-2.899980">
        <ele>724.846144</ele>
        <time>2021-11-03T16:19:17.032Z</time>
      </trkpt>
      <trkpt lat="40.128026" lon="-2.899871">
        <ele>725.280329</ele>
        <time>2021-11-03T16:19:17.032Z</time>
      </trkpt>
      <trkpt lat="40.128068" lon="-2.899833">
        <ele>725.432099</ele>
        <time>2021-11-03T16:19:17.032Z</time>
      </trkpt>
      <trkpt lat="40.128239" lon="-2.899658">
        <ele>726.004368</ele>
        <time>2021-11-03T16:19:17.032Z</time>
      </trkpt>
      <trkpt lat="40.128254" lon="-2.899631">
        <ele>726.038066</ele>
        <time>2021-11-03T16:19:17.032Z</time>
      </trkpt>
      <trkpt lat="40.128305" lon="-2.899584">
        <ele>726.120452</ele>
        <time>2021-11-03T16:19:17.032Z</time>
      </trkpt>
      <trkpt lat="40.128371" lon="-2.899540">
        <ele>726.218276</ele>
        <time>2021-11-03T16:19:17.032Z</time>
      </trkpt>
      <trkpt lat="40.128446" lon="-2.899470">
        <ele>726.339947</ele>
        <time>2021-11-03T16:19:17.032Z</time>
      </trkpt>
      <trkpt lat="40.128567" lon="-2.899356">
        <ele>726.536871</ele>
        <time>2021-11-03T16:19:17.032Z</time>
      </trkpt>
      <trkpt lat="40.128690" lon="-2.899254">
        <ele>726.729192</ele>
        <time>2021-11-03T16:19:17.032Z</time>
      </trkpt>
      <trkpt lat="40.128757" lon="-2.899187">
        <ele>726.840566</ele>
        <time>2021-11-03T16:19:17.032Z</time>
      </trkpt>
      <trkpt lat="40.128816" lon="-2.899101">
        <ele>726.957226</ele>
        <time>2021-11-03T16:19:17.032Z</time>
      </trkpt>
      <trkpt lat="40.128860" lon="-2.898922">
        <ele>727.147066</ele>
        <time>2021-11-03T16:19:17.032Z</time>
      </trkpt>
      <trkpt lat="40.128853" lon="-2.898786">
        <ele>727.284691</ele>
        <time>2021-11-03T16:19:17.032Z</time>
      </trkpt>
      <trkpt lat="40.128855" lon="-2.898655">
        <ele>727.416984</ele>
        <time>2021-11-03T16:19:17.032Z</time>
      </trkpt>
      <trkpt lat="40.128864" lon="-2.898591">
        <ele>727.482686</ele>
        <time>2021-11-03T16:19:17.032Z</time>
      </trkpt>
      <trkpt lat="40.128931" lon="-2.898255">
        <ele>727.833280</ele>
        <time>2021-11-03T16:19:17.032Z</time>
      </trkpt>
      <trkpt lat="40.128944" lon="-2.898187">
        <ele>727.904050</ele>
        <time>2021-11-03T16:19:17.032Z</time>
      </trkpt>
      <trkpt lat="40.128944" lon="-2.898054">
        <ele>728.038336</ele>
        <time>2021-11-03T16:19:17.032Z</time>
      </trkpt>
      <trkpt lat="40.128937" lon="-2.897985">
        <ele>728.108613</ele>
        <time>2021-11-03T16:19:17.032Z</time>
      </trkpt>
      <trkpt lat="40.128934" lon="-2.897919">
        <ele>728.175368</ele>
        <time>2021-11-03T16:19:17.032Z</time>
      </trkpt>
      <trkpt lat="40.128914" lon="-2.897782">
        <ele>728.316191</ele>
        <time>2021-11-03T16:19:17.032Z</time>
      </trkpt>
      <trkpt lat="40.128859" lon="-2.897661">
        <ele>728.640248</ele>
        <time>2021-11-03T16:19:17.032Z</time>
      </trkpt>
      <trkpt lat="40.128829" lon="-2.897609">
        <ele>728.793246</ele>
        <time>2021-11-03T16:19:17.032Z</time>
      </trkpt>
      <trkpt lat="40.128754" lon="-2.897442">
        <ele>729.248133</ele>
        <time>2021-11-03T16:19:17.032Z</time>
      </trkpt>
      <trkpt lat="40.128736" lon="-2.897372">
        <ele>729.421590</ele>
        <time>2021-11-03T16:19:17.032Z</time>
      </trkpt>
      <trkpt lat="40.128722" lon="-2.897301">
        <ele>729.593803</ele>
        <time>2021-11-03T16:19:17.032Z</time>
      </trkpt>
      <trkpt lat="40.128710" lon="-2.897229">
        <ele>729.766879</ele>
        <time>2021-11-03T16:19:17.032Z</time>
      </trkpt>
      <trkpt lat="40.128696" lon="-2.897174">
        <ele>729.903027</ele>
        <time>2021-11-03T16:19:17.032Z</time>
      </trkpt>
      <trkpt lat="40.128679" lon="-2.897108">
        <ele>730.066601</ele>
        <time>2021-11-03T16:19:17.032Z</time>
      </trkpt>
      <trkpt lat="40.128639" lon="-2.896959">
        <ele>730.437499</ele>
        <time>2021-11-03T16:19:17.032Z</time>
      </trkpt>
      <trkpt lat="40.128552" lon="-2.896679">
        <ele>731.147361</ele>
        <time>2021-11-03T16:19:17.032Z</time>
      </trkpt>
      <trkpt lat="40.128486" lon="-2.896406">
        <ele>731.819843</ele>
        <time>2021-11-03T16:19:17.032Z</time>
      </trkpt>
      <trkpt lat="40.128474" lon="-2.896338">
        <ele>731.983753</ele>
        <time>2021-11-03T16:19:17.032Z</time>
      </trkpt>
      <trkpt lat="40.128465" lon="-2.896274">
        <ele>732.136591</ele>
        <time>2021-11-03T16:19:17.032Z</time>
      </trkpt>
      <trkpt lat="40.128460" lon="-2.896210">
        <ele>732.287690</ele>
        <time>2021-11-03T16:19:17.032Z</time>
      </trkpt>
      <trkpt lat="40.128451" lon="-2.895942">
        <ele>732.917748</ele>
        <time>2021-11-03T16:19:17.032Z</time>
      </trkpt>
      <trkpt lat="40.128421" lon="-2.895814">
        <ele>733.232189</ele>
        <time>2021-11-03T16:19:17.032Z</time>
      </trkpt>
      <trkpt lat="40.128376" lon="-2.895688">
        <ele>733.558817</ele>
        <time>2021-11-03T16:19:17.032Z</time>
      </trkpt>
      <trkpt lat="40.128351" lon="-2.895627">
        <ele>733.721371</ele>
        <time>2021-11-03T16:19:17.032Z</time>
      </trkpt>
      <trkpt lat="40.128259" lon="-2.895374">
        <ele>734.078132</ele>
        <time>2021-11-03T16:19:17.032Z</time>
      </trkpt>
      <trkpt lat="40.128236" lon="-2.895312">
        <ele>734.148540</ele>
        <time>2021-11-03T16:19:17.032Z</time>
      </trkpt>
      <trkpt lat="40.128184" lon="-2.895170">
        <ele>734.309402</ele>
        <time>2021-11-03T16:19:17.032Z</time>
      </trkpt>
      <trkpt lat="40.128158" lon="-2.895099">
        <ele>734.389834</ele>
        <time>2021-11-03T16:19:17.032Z</time>
      </trkpt>
      <trkpt lat="40.128085" lon="-2.894884">
        <ele>734.630184</ele>
        <time>2021-11-03T16:19:17.032Z</time>
      </trkpt>
      <trkpt lat="40.128045" lon="-2.894737">
        <ele>734.789602</ele>
        <time>2021-11-03T16:19:17.032Z</time>
      </trkpt>
      <trkpt lat="40.128030" lon="-2.894660">
        <ele>734.870786</ele>
        <time>2021-11-03T16:19:17.032Z</time>
      </trkpt>
      <trkpt lat="40.128008" lon="-2.894495">
        <ele>735.041911</ele>
        <time>2021-11-03T16:19:17.032Z</time>
      </trkpt>
      <trkpt lat="40.128000" lon="-2.894240">
        <ele>735.302665</ele>
        <time>2021-11-03T16:19:17.032Z</time>
      </trkpt>
      <trkpt lat="40.128014" lon="-2.894158">
        <ele>735.388508</ele>
        <time>2021-11-03T16:19:17.032Z</time>
      </trkpt>
      <trkpt lat="40.128124" lon="-2.893775">
        <ele>735.806516</ele>
        <time>2021-11-03T16:19:17.032Z</time>
      </trkpt>
      <trkpt lat="40.128135" lon="-2.893697">
        <ele>735.887552</ele>
        <time>2021-11-03T16:19:17.032Z</time>
      </trkpt>
      <trkpt lat="40.128148" lon="-2.893238">
        <ele>736.449509</ele>
        <time>2021-11-03T16:19:17.032Z</time>
      </trkpt>
      <trkpt lat="40.128135" lon="-2.893165">
        <ele>736.592291</ele>
        <time>2021-11-03T16:19:17.032Z</time>
      </trkpt>
      <trkpt lat="40.128113" lon="-2.893095">
        <ele>736.736462</ele>
        <time>2021-11-03T16:19:17.032Z</time>
      </trkpt>
      <trkpt lat="40.128030" lon="-2.892899">
        <ele>737.163268</ele>
        <time>2021-11-03T16:19:17.032Z</time>
      </trkpt>
      <trkpt lat="40.128008" lon="-2.892830">
        <ele>737.305678</ele>
        <time>2021-11-03T16:19:17.032Z</time>
      </trkpt>
      <trkpt lat="40.127957" lon="-2.892632">
        <ele>737.703683</ele>
        <time>2021-11-03T16:19:17.032Z</time>
      </trkpt>
      <trkpt lat="40.127885" lon="-2.892350">
        <ele>738.270033</ele>
        <time>2021-11-03T16:19:17.032Z</time>
      </trkpt>
      <trkpt lat="40.127778" lon="-2.892014">
        <ele>738.963388</ele>
        <time>2021-11-03T16:19:17.032Z</time>
      </trkpt>
      <trkpt lat="40.127746" lon="-2.891954">
        <ele>739.102743</ele>
        <time>2021-11-03T16:19:17.032Z</time>
      </trkpt>
      <trkpt lat="40.127549" lon="-2.891492">
        <ele>740.110433</ele>
        <time>2021-11-03T16:19:17.032Z</time>
      </trkpt>
      <trkpt lat="40.127527" lon="-2.891425">
        <ele>740.249336</ele>
        <time>2021-11-03T16:19:17.032Z</time>
      </trkpt>
      <trkpt lat="40.127428" lon="-2.891009">
        <ele>741.203468</ele>
        <time>2021-11-03T16:19:17.032Z</time>
      </trkpt>
      <trkpt lat="40.127428" lon="-2.890941">
        <ele>741.379157</ele>
        <time>2021-11-03T16:19:17.032Z</time>
      </trkpt>
      <trkpt lat="40.127445" lon="-2.890878">
        <ele>741.551766</ele>
        <time>2021-11-03T16:19:17.032Z</time>
      </trkpt>
      <trkpt lat="40.127482" lon="-2.890833">
        <ele>741.722495</ele>
        <time>2021-11-03T16:19:17.032Z</time>
      </trkpt>
      <trkpt lat="40.127532" lon="-2.890814">
        <ele>741.898434</ele>
        <time>2021-11-03T16:19:17.032Z</time>
      </trkpt>
      <trkpt lat="40.127635" lon="-2.890827">
        <ele>742.248092</ele>
        <time>2021-11-03T16:19:17.032Z</time>
      </trkpt>
      <trkpt lat="40.127770" lon="-2.890880">
        <ele>742.724370</ele>
        <time>2021-11-03T16:19:17.032Z</time>
      </trkpt>
      <trkpt lat="40.127905" lon="-2.890909">
        <ele>743.186653</ele>
        <time>2021-11-03T16:19:17.032Z</time>
      </trkpt>
      <trkpt lat="40.128002" lon="-2.890918">
        <ele>743.515243</ele>
        <time>2021-11-03T16:19:17.032Z</time>
      </trkpt>
      <trkpt lat="40.128104" lon="-2.890912">
        <ele>743.860253</ele>
        <time>2021-11-03T16:19:17.032Z</time>
      </trkpt>
      <trkpt lat="40.128208" lon="-2.890886">
        <ele>744.218035</ele>
        <time>2021-11-03T16:19:17.032Z</time>
      </trkpt>
      <trkpt lat="40.128257" lon="-2.890866">
        <ele>744.391484</ele>
        <time>2021-11-03T16:19:17.032Z</time>
      </trkpt>
      <trkpt lat="40.128356" lon="-2.890816">
        <ele>744.750085</ele>
        <time>2021-11-03T16:19:17.032Z</time>
      </trkpt>
      <trkpt lat="40.128366" lon="-2.890810">
        <ele>744.787261</ele>
        <time>2021-11-03T16:19:17.032Z</time>
      </trkpt>
      <trkpt lat="40.128365" lon="-2.890806">
        <ele>744.798134</ele>
        <time>2021-11-03T16:19:17.032Z</time>
      </trkpt>
      <trkpt lat="40.128359" lon="-2.890804">
        <ele>744.819056</ele>
        <time>2021-11-03T16:19:17.032Z</time>
      </trkpt>
      <trkpt lat="40.128364" lon="-2.890801">
        <ele>744.837645</ele>
        <time>2021-11-03T16:19:17.032Z</time>
      </trkpt>
      <trkpt lat="40.128365" lon="-2.890810">
        <ele>744.861141</ele>
        <time>2021-11-03T16:19:17.032Z</time>
      </trkpt>
      <trkpt lat="40.128358" lon="-2.890837">
        <ele>744.934800</ele>
        <time>2021-11-03T16:19:17.032Z</time>
      </trkpt>
      <trkpt lat="40.128348" lon="-2.890843">
        <ele>744.971977</ele>
        <time>2021-11-03T16:19:17.032Z</time>
      </trkpt>
      <trkpt lat="40.128292" lon="-2.890850">
        <ele>745.162065</ele>
        <time>2021-11-03T16:19:17.032Z</time>
      </trkpt>
      <trkpt lat="40.128275" lon="-2.890842">
        <ele>745.223114</ele>
        <time>2021-11-03T16:19:17.032Z</time>
      </trkpt>
      <trkpt lat="40.128180" lon="-2.890829">
        <ele>745.545875</ele>
        <time>2021-11-03T16:19:17.032Z</time>
      </trkpt>
      <trkpt lat="40.128149" lon="-2.890836">
        <ele>745.652175</ele>
        <time>2021-11-03T16:19:17.032Z</time>
      </trkpt>
      <trkpt lat="40.128081" lon="-2.890843">
        <ele>745.882660</ele>
        <time>2021-11-03T16:19:17.032Z</time>
      </trkpt>
      <trkpt lat="40.127900" lon="-2.890831">
        <ele>746.495051</ele>
        <time>2021-11-03T16:19:17.032Z</time>
      </trkpt>
      <trkpt lat="40.127782" lon="-2.890766">
        <ele>746.776811</ele>
        <time>2021-11-03T16:19:17.032Z</time>
      </trkpt>
      <trkpt lat="40.127739" lon="-2.890731">
        <ele>746.731423</ele>
        <time>2021-11-03T16:19:17.032Z</time>
      </trkpt>
      <trkpt lat="40.127663" lon="-2.890635">
        <ele>746.636735</ele>
        <time>2021-11-03T16:19:17.032Z</time>
      </trkpt>
      <trkpt lat="40.127590" lon="-2.890501">
        <ele>746.523994</ele>
        <time>2021-11-03T16:19:17.032Z</time>
      </trkpt>
      <trkpt lat="40.127514" lon="-2.890354">
        <ele>746.402402</ele>
        <time>2021-11-03T16:19:17.032Z</time>
      </trkpt>
      <trkpt lat="40.127440" lon="-2.890196">
        <ele>746.275441</ele>
        <time>2021-11-03T16:19:17.032Z</time>
      </trkpt>
      <trkpt lat="40.127412" lon="-2.890114">
        <ele>746.213905</ele>
        <time>2021-11-03T16:19:17.032Z</time>
      </trkpt>
      <trkpt lat="40.127383" lon="-2.890035">
        <ele>746.153857</ele>
        <time>2021-11-03T16:19:17.032Z</time>
      </trkpt>
      <trkpt lat="40.127350" lon="-2.889968">
        <ele>746.099247</ele>
        <time>2021-11-03T16:19:17.032Z</time>
      </trkpt>
      <trkpt lat="40.127260" lon="-2.889862">
        <ele>745.990708</ele>
        <time>2021-11-03T16:19:17.032Z</time>
      </trkpt>
      <trkpt lat="40.127215" lon="-2.889803">
        <ele>745.933605</ele>
        <time>2021-11-03T16:19:17.032Z</time>
      </trkpt>
      <trkpt lat="40.127186" lon="-2.889738">
        <ele>745.882038</ele>
        <time>2021-11-03T16:19:17.032Z</time>
      </trkpt>
      <trkpt lat="40.127169" lon="-2.889668">
        <ele>745.831711</ele>
        <time>2021-11-03T16:19:17.032Z</time>
      </trkpt>
      <trkpt lat="40.127125" lon="-2.889452">
        <ele>745.678541</ele>
        <time>2021-11-03T16:19:17.032Z</time>
      </trkpt>
      <trkpt lat="40.127089" lon="-2.889299">
        <ele>745.568851</ele>
        <time>2021-11-03T16:19:17.032Z</time>
      </trkpt>
      <trkpt lat="40.127049" lon="-2.889047">
        <ele>745.392493</ele>
        <time>2021-11-03T16:19:17.032Z</time>
      </trkpt>
      <trkpt lat="40.127038" lon="-2.889009">
        <ele>745.364651</ele>
        <time>2021-11-03T16:19:17.032Z</time>
      </trkpt>
      <trkpt lat="40.126992" lon="-2.888894">
        <ele>745.275719</ele>
        <time>2021-11-03T16:19:17.032Z</time>
      </trkpt>
      <trkpt lat="40.126962" lon="-2.888861">
        <ele>745.240589</ele>
        <time>2021-11-03T16:19:17.032Z</time>
      </trkpt>
      <trkpt lat="40.126940" lon="-2.888827">
        <ele>745.210069</ele>
        <time>2021-11-03T16:19:17.032Z</time>
      </trkpt>
      <trkpt lat="40.126956" lon="-2.888740">
        <ele>745.538945</ele>
        <time>2021-11-03T16:19:17.032Z</time>
      </trkpt>
      <trkpt lat="40.126964" lon="-2.888692">
        <ele>745.780026</ele>
        <time>2021-11-03T16:19:17.032Z</time>
      </trkpt>
      <trkpt lat="40.127019" lon="-2.888627">
        <ele>746.255783</ele>
        <time>2021-11-03T16:19:17.032Z</time>
      </trkpt>
      <trkpt lat="40.127052" lon="-2.888401">
        <ele>747.384872</ele>
        <time>2021-11-03T16:19:17.032Z</time>
      </trkpt>
      <trkpt lat="40.127032" lon="-2.888356">
        <ele>747.640296</ele>
        <time>2021-11-03T16:19:17.032Z</time>
      </trkpt>
      <trkpt lat="40.126949" lon="-2.888270">
        <ele>748.319903</ele>
        <time>2021-11-03T16:19:17.032Z</time>
      </trkpt>
      <trkpt lat="40.126915" lon="-2.888246">
        <ele>748.567869</ele>
        <time>2021-11-03T16:19:17.032Z</time>
      </trkpt>
      <trkpt lat="40.126879" lon="-2.888225">
        <ele>748.820856</ele>
        <time>2021-11-03T16:19:17.032Z</time>
      </trkpt>
      <trkpt lat="40.126768" lon="-2.888173">
        <ele>749.577575</ele>
        <time>2021-11-03T16:19:17.032Z</time>
      </trkpt>
      <trkpt lat="40.126730" lon="-2.888150">
        <ele>749.846309</ele>
        <time>2021-11-03T16:19:17.032Z</time>
      </trkpt>
      <trkpt lat="40.126695" lon="-2.888122">
        <ele>750.109630</ele>
        <time>2021-11-03T16:19:17.032Z</time>
      </trkpt>
      <trkpt lat="40.126662" lon="-2.888088">
        <ele>750.379250</ele>
        <time>2021-11-03T16:19:17.032Z</time>
      </trkpt>
      <trkpt lat="40.126631" lon="-2.888050">
        <ele>750.651936</ele>
        <time>2021-11-03T16:19:17.032Z</time>
      </trkpt>
      <trkpt lat="40.126603" lon="-2.888005">
        <ele>750.936645</ele>
        <time>2021-11-03T16:19:17.032Z</time>
      </trkpt>
      <trkpt lat="40.126575" lon="-2.887954">
        <ele>751.244752</ele>
        <time>2021-11-03T16:19:17.032Z</time>
      </trkpt>
      <trkpt lat="40.126537" lon="-2.887841">
        <ele>751.850540</ele>
        <time>2021-11-03T16:19:17.032Z</time>
      </trkpt>
      <trkpt lat="40.126506" lon="-2.887666">
        <ele>752.732067</ele>
        <time>2021-11-03T16:19:17.032Z</time>
      </trkpt>
      <trkpt lat="40.126500" lon="-2.887489">
        <ele>753.601517</ele>
        <time>2021-11-03T16:19:17.032Z</time>
      </trkpt>
      <trkpt lat="40.126502" lon="-2.887458">
        <ele>753.754185</ele>
        <time>2021-11-03T16:19:17.032Z</time>
      </trkpt>
      <trkpt lat="40.126507" lon="-2.887365">
        <ele>754.211693</ele>
        <time>2021-11-03T16:19:17.032Z</time>
      </trkpt>
      <trkpt lat="40.126493" lon="-2.887271">
        <ele>754.681652</ele>
        <time>2021-11-03T16:19:17.032Z</time>
      </trkpt>
      <trkpt lat="40.126486" lon="-2.887242">
        <ele>754.830887</ele>
        <time>2021-11-03T16:19:17.032Z</time>
      </trkpt>
      <trkpt lat="40.126478" lon="-2.887212">
        <ele>754.986803</ele>
        <time>2021-11-03T16:19:17.032Z</time>
      </trkpt>
      <trkpt lat="40.126469" lon="-2.887182">
        <ele>755.144949</ele>
        <time>2021-11-03T16:19:17.032Z</time>
      </trkpt>
      <trkpt lat="40.126444" lon="-2.887095">
        <ele>755.601041</ele>
        <time>2021-11-03T16:19:17.032Z</time>
      </trkpt>
      <trkpt lat="40.126410" lon="-2.886977">
        <ele>756.219856</ele>
        <time>2021-11-03T16:19:17.032Z</time>
      </trkpt>
      <trkpt lat="40.126368" lon="-2.886861">
        <ele>756.870757</ele>
        <time>2021-11-03T16:19:17.032Z</time>
      </trkpt>
      <trkpt lat="40.126338" lon="-2.886776">
        <ele>757.418501</ele>
        <time>2021-11-03T16:19:17.032Z</time>
      </trkpt>
      <trkpt lat="40.126317" lon="-2.886722">
        <ele>757.772961</ele>
        <time>2021-11-03T16:19:17.032Z</time>
      </trkpt>
      <trkpt lat="40.126306" lon="-2.886696">
        <ele>757.946817</ele>
        <time>2021-11-03T16:19:17.032Z</time>
      </trkpt>
      <trkpt lat="40.126295" lon="-2.886670">
        <ele>758.120672</ele>
        <time>2021-11-03T16:19:17.032Z</time>
      </trkpt>
      <trkpt lat="40.126274" lon="-2.886614">
        <ele>758.485602</ele>
        <time>2021-11-03T16:19:17.032Z</time>
      </trkpt>
      <trkpt lat="40.126232" lon="-2.886478">
        <ele>759.343765</ele>
        <time>2021-11-03T16:19:17.032Z</time>
      </trkpt>
      <trkpt lat="40.126215" lon="-2.886357">
        <ele>760.063569</ele>
        <time>2021-11-03T16:19:17.032Z</time>
      </trkpt>
      <trkpt lat="40.126204" lon="-2.886287">
        <ele>760.481687</ele>
        <time>2021-11-03T16:19:17.032Z</time>
      </trkpt>
      <trkpt lat="40.126186" lon="-2.886181">
        <ele>761.116986</ele>
        <time>2021-11-03T16:19:17.032Z</time>
      </trkpt>
      <trkpt lat="40.126183" lon="-2.886143">
        <ele>761.340500</ele>
        <time>2021-11-03T16:19:17.032Z</time>
      </trkpt>
      <trkpt lat="40.126177" lon="-2.886028">
        <ele>762.014912</ele>
        <time>2021-11-03T16:19:17.032Z</time>
      </trkpt>
      <trkpt lat="40.126185" lon="-2.885903">
        <ele>762.748824</ele>
        <time>2021-11-03T16:19:17.032Z</time>
      </trkpt>
      <trkpt lat="40.126185" lon="-2.885862">
        <ele>762.988709</ele>
        <time>2021-11-03T16:19:17.032Z</time>
      </trkpt>
      <trkpt lat="40.126183" lon="-2.885820">
        <ele>763.234920</ele>
        <time>2021-11-03T16:19:17.032Z</time>
      </trkpt>
      <trkpt lat="40.126183" lon="-2.885777">
        <ele>763.486507</ele>
        <time>2021-11-03T16:19:17.032Z</time>
      </trkpt>
      <trkpt lat="40.126182" lon="-2.885694">
        <ele>763.972187</ele>
        <time>2021-11-03T16:19:17.032Z</time>
      </trkpt>
      <trkpt lat="40.126172" lon="-2.885567">
        <ele>764.719173</ele>
        <time>2021-11-03T16:19:17.032Z</time>
      </trkpt>
      <trkpt lat="40.126091" lon="-2.885252">
        <ele>766.663618</ele>
        <time>2021-11-03T16:19:17.032Z</time>
      </trkpt>
      <trkpt lat="40.126076" lon="-2.885141">
        <ele>767.323127</ele>
        <time>2021-11-03T16:19:17.032Z</time>
      </trkpt>
      <trkpt lat="40.126086" lon="-2.885026">
        <ele>768.000312</ele>
        <time>2021-11-03T16:19:17.032Z</time>
      </trkpt>
      <trkpt lat="40.126159" lon="-2.884786">
        <ele>769.511539</ele>
        <time>2021-11-03T16:19:17.032Z</time>
      </trkpt>
      <trkpt lat="40.126179" lon="-2.884672">
        <ele>770.195867</ele>
        <time>2021-11-03T16:19:17.032Z</time>
      </trkpt>
      <trkpt lat="40.126186" lon="-2.884570">
        <ele>770.855307</ele>
        <time>2021-11-03T16:19:17.032Z</time>
      </trkpt>
      <trkpt lat="40.126188" lon="-2.884471">
        <ele>771.554377</ele>
        <time>2021-11-03T16:19:17.032Z</time>
      </trkpt>
      <trkpt lat="40.126152" lon="-2.884346">
        <ele>772.497249</ele>
        <time>2021-11-03T16:19:17.032Z</time>
      </trkpt>
      <trkpt lat="40.126083" lon="-2.884233">
        <ele>773.518036</ele>
        <time>2021-11-03T16:19:17.032Z</time>
      </trkpt>
      <trkpt lat="40.126015" lon="-2.884151">
        <ele>774.371924</ele>
        <time>2021-11-03T16:19:17.032Z</time>
      </trkpt>
      <trkpt lat="40.125986" lon="-2.883997">
        <ele>775.491472</ele>
        <time>2021-11-03T16:19:17.032Z</time>
      </trkpt>
      <trkpt lat="40.126003" lon="-2.883911">
        <ele>776.118494</ele>
        <time>2021-11-03T16:19:17.032Z</time>
      </trkpt>
      <trkpt lat="40.126037" lon="-2.883759">
        <ele>777.236412</ele>
        <time>2021-11-03T16:19:17.032Z</time>
      </trkpt>
      <trkpt lat="40.126047" lon="-2.883707">
        <ele>777.614904</ele>
        <time>2021-11-03T16:19:17.032Z</time>
      </trkpt>
      <trkpt lat="40.126086" lon="-2.883603">
        <ele>778.432562</ele>
        <time>2021-11-03T16:19:17.032Z</time>
      </trkpt>
      <trkpt lat="40.126093" lon="-2.883577">
        <ele>778.627137</ele>
        <time>2021-11-03T16:19:17.032Z</time>
      </trkpt>
      <trkpt lat="40.126107" lon="-2.883530">
        <ele>778.983190</ele>
        <time>2021-11-03T16:19:17.032Z</time>
      </trkpt>
      <trkpt lat="40.126121" lon="-2.883478">
        <ele>779.372340</ele>
        <time>2021-11-03T16:19:17.032Z</time>
      </trkpt>
      <trkpt lat="40.126142" lon="-2.883423">
        <ele>779.806290</ele>
        <time>2021-11-03T16:19:17.032Z</time>
      </trkpt>
      <trkpt lat="40.126152" lon="-2.883393">
        <ele>780.037304</ele>
        <time>2021-11-03T16:19:17.032Z</time>
      </trkpt>
      <trkpt lat="40.126160" lon="-2.883243">
        <ele>781.098705</ele>
        <time>2021-11-03T16:19:17.032Z</time>
      </trkpt>
      <trkpt lat="40.126141" lon="-2.883165">
        <ele>781.676561</ele>
        <time>2021-11-03T16:19:17.032Z</time>
      </trkpt>
      <trkpt lat="40.126110" lon="-2.883097">
        <ele>782.235403</ele>
        <time>2021-11-03T16:19:17.032Z</time>
      </trkpt>
      <trkpt lat="40.126106" lon="-2.883072">
        <ele>782.415697</ele>
        <time>2021-11-03T16:19:17.032Z</time>
      </trkpt>
      <trkpt lat="40.126106" lon="-2.882983">
        <ele>783.043936</ele>
        <time>2021-11-03T16:19:17.032Z</time>
      </trkpt>
      <trkpt lat="40.126098" lon="-2.882931">
        <ele>783.418353</ele>
        <time>2021-11-03T16:19:17.032Z</time>
      </trkpt>
      <trkpt lat="40.126093" lon="-2.882841">
        <ele>784.055325</ele>
        <time>2021-11-03T16:19:17.032Z</time>
      </trkpt>
      <trkpt lat="40.126077" lon="-2.882777">
        <ele>784.530627</ele>
        <time>2021-11-03T16:19:17.032Z</time>
      </trkpt>
      <trkpt lat="40.126005" lon="-2.882597">
        <ele>785.964582</ele>
        <time>2021-11-03T16:19:17.032Z</time>
      </trkpt>
      <trkpt lat="40.125934" lon="-2.882373">
        <ele>787.493946</ele>
        <time>2021-11-03T16:19:17.032Z</time>
      </trkpt>
      <trkpt lat="40.125929" lon="-2.882337">
        <ele>787.669385</ele>
        <time>2021-11-03T16:19:17.032Z</time>
      </trkpt>
      <trkpt lat="40.125923" lon="-2.882176">
        <ele>788.442274</ele>
        <time>2021-11-03T16:19:17.032Z</time>
      </trkpt>
      <trkpt lat="40.125922" lon="-2.881987">
        <ele>789.348525</ele>
        <time>2021-11-03T16:19:17.032Z</time>
      </trkpt>
      <trkpt lat="40.125923" lon="-2.881941">
        <ele>789.569178</ele>
        <time>2021-11-03T16:19:17.032Z</time>
      </trkpt>
      <trkpt lat="40.125932" lon="-2.881750">
        <ele>790.486734</ele>
        <time>2021-11-03T16:19:17.032Z</time>
      </trkpt>
      <trkpt lat="40.125933" lon="-2.881548">
        <ele>791.455316</ele>
        <time>2021-11-03T16:19:17.032Z</time>
      </trkpt>
      <trkpt lat="40.125934" lon="-2.881491">
        <ele>791.728695</ele>
        <time>2021-11-03T16:19:17.032Z</time>
      </trkpt>
      <trkpt lat="40.125928" lon="-2.881393">
        <ele>792.200096</ele>
        <time>2021-11-03T16:19:17.032Z</time>
      </trkpt>
      <trkpt lat="40.125922" lon="-2.881358">
        <ele>792.372082</ele>
        <time>2021-11-03T16:19:17.032Z</time>
      </trkpt>
      <trkpt lat="40.125918" lon="-2.881325">
        <ele>792.532288</ele>
        <time>2021-11-03T16:19:17.032Z</time>
      </trkpt>
      <trkpt lat="40.125903" lon="-2.881206">
        <ele>793.110578</ele>
        <time>2021-11-03T16:19:17.032Z</time>
      </trkpt>
      <trkpt lat="40.125884" lon="-2.881125">
        <ele>793.516827</ele>
        <time>2021-11-03T16:19:17.032Z</time>
      </trkpt>
      <trkpt lat="40.125865" lon="-2.881003">
        <ele>794.113810</ele>
        <time>2021-11-03T16:19:17.032Z</time>
      </trkpt>
      <trkpt lat="40.125847" lon="-2.880882">
        <ele>794.704867</ele>
        <time>2021-11-03T16:19:17.032Z</time>
      </trkpt>
      <trkpt lat="40.125836" lon="-2.880803">
        <ele>795.089891</ele>
        <time>2021-11-03T16:19:17.032Z</time>
      </trkpt>
      <trkpt lat="40.125830" lon="-2.880684">
        <ele>795.661720</ele>
        <time>2021-11-03T16:19:17.032Z</time>
      </trkpt>
      <trkpt lat="40.125822" lon="-2.880608">
        <ele>796.029567</ele>
        <time>2021-11-03T16:19:17.032Z</time>
      </trkpt>
      <trkpt lat="40.125809" lon="-2.880536">
        <ele>796.384292</ele>
        <time>2021-11-03T16:19:17.032Z</time>
      </trkpt>
      <trkpt lat="40.125759" lon="-2.880358">
        <ele>797.293549</ele>
        <time>2021-11-03T16:19:17.032Z</time>
      </trkpt>
      <trkpt lat="40.125746" lon="-2.880322">
        <ele>797.484446</ele>
        <time>2021-11-03T16:19:17.032Z</time>
      </trkpt>
      <trkpt lat="40.125729" lon="-2.880286">
        <ele>797.687327</ele>
        <time>2021-11-03T16:19:17.032Z</time>
      </trkpt>
      <trkpt lat="40.125669" lon="-2.880178">
        <ele>798.327428</ele>
        <time>2021-11-03T16:19:17.032Z</time>
      </trkpt>
      <trkpt lat="40.125623" lon="-2.880106">
        <ele>798.572591</ele>
        <time>2021-11-03T16:19:17.032Z</time>
      </trkpt>
      <trkpt lat="40.125518" lon="-2.879950">
        <ele>799.046633</ele>
        <time>2021-11-03T16:19:17.032Z</time>
      </trkpt>
      <trkpt lat="40.125436" lon="-2.879819">
        <ele>799.432788</ele>
        <time>2021-11-03T16:19:17.032Z</time>
      </trkpt>
      <trkpt lat="40.125305" lon="-2.879577">
        <ele>800.109096</ele>
        <time>2021-11-03T16:19:17.032Z</time>
      </trkpt>
      <trkpt lat="40.125230" lon="-2.879426">
        <ele>800.519802</ele>
        <time>2021-11-03T16:19:17.032Z</time>
      </trkpt>
      <trkpt lat="40.125142" lon="-2.879224">
        <ele>801.050084</ele>
        <time>2021-11-03T16:19:17.032Z</time>
      </trkpt>
      <trkpt lat="40.125119" lon="-2.879172">
        <ele>801.187107</ele>
        <time>2021-11-03T16:19:17.032Z</time>
      </trkpt>
      <trkpt lat="40.125049" lon="-2.879008">
        <ele>801.615515</ele>
        <time>2021-11-03T16:19:17.032Z</time>
      </trkpt>
      <trkpt lat="40.125023" lon="-2.878957">
        <ele>801.755328</ele>
        <time>2021-11-03T16:19:17.032Z</time>
      </trkpt>
      <trkpt lat="40.124999" lon="-2.878905">
        <ele>801.893869</ele>
        <time>2021-11-03T16:19:17.032Z</time>
      </trkpt>
      <trkpt lat="40.124974" lon="-2.878856">
        <ele>802.028231</ele>
        <time>2021-11-03T16:19:17.032Z</time>
      </trkpt>
      <trkpt lat="40.124950" lon="-2.878807">
        <ele>802.160961</ele>
        <time>2021-11-03T16:19:17.032Z</time>
      </trkpt>
      <trkpt lat="40.124843" lon="-2.878591">
        <ele>802.748000</ele>
        <time>2021-11-03T16:19:17.032Z</time>
      </trkpt>
      <trkpt lat="40.124784" lon="-2.878486">
        <ele>803.045213</ele>
        <time>2021-11-03T16:19:17.032Z</time>
      </trkpt>
      <trkpt lat="40.124698" lon="-2.878332">
        <ele>803.480185</ele>
        <time>2021-11-03T16:19:17.032Z</time>
      </trkpt>
      <trkpt lat="40.124527" lon="-2.878104">
        <ele>804.424235</ele>
        <time>2021-11-03T16:19:17.032Z</time>
      </trkpt>
      <trkpt lat="40.124489" lon="-2.878065">
        <ele>804.636393</ele>
        <time>2021-11-03T16:19:17.032Z</time>
      </trkpt>
      <trkpt lat="40.124295" lon="-2.877867">
        <ele>805.717223</ele>
        <time>2021-11-03T16:19:17.032Z</time>
      </trkpt>
      <trkpt lat="40.124256" lon="-2.877826">
        <ele>805.936998</ele>
        <time>2021-11-03T16:19:17.032Z</time>
      </trkpt>
      <trkpt lat="40.124218" lon="-2.877785">
        <ele>806.153366</ele>
        <time>2021-11-03T16:19:17.032Z</time>
      </trkpt>
      <trkpt lat="40.124182" lon="-2.877742">
        <ele>806.367505</ele>
        <time>2021-11-03T16:19:17.032Z</time>
      </trkpt>
      <trkpt lat="40.124147" lon="-2.877697">
        <ele>806.583075</ele>
        <time>2021-11-03T16:19:17.032Z</time>
      </trkpt>
      <trkpt lat="40.124112" lon="-2.877652">
        <ele>806.798646</ele>
        <time>2021-11-03T16:19:17.032Z</time>
      </trkpt>
      <trkpt lat="40.124043" lon="-2.877563">
        <ele>807.224302</ele>
        <time>2021-11-03T16:19:17.032Z</time>
      </trkpt>
      <trkpt lat="40.123982" lon="-2.877467">
        <ele>807.643501</ele>
        <time>2021-11-03T16:19:17.032Z</time>
      </trkpt>
      <trkpt lat="40.123861" lon="-2.877273">
        <ele>808.484292</ele>
        <time>2021-11-03T16:19:17.032Z</time>
      </trkpt>
      <trkpt lat="40.123795" lon="-2.877190">
        <ele>808.886450</ele>
        <time>2021-11-03T16:19:17.032Z</time>
      </trkpt>
      <trkpt lat="40.123567" lon="-2.876953">
        <ele>810.165643</ele>
        <time>2021-11-03T16:19:17.032Z</time>
      </trkpt>
      <trkpt lat="40.123488" lon="-2.876883">
        <ele>810.584761</ele>
        <time>2021-11-03T16:19:17.032Z</time>
      </trkpt>
      <trkpt lat="40.123408" lon="-2.876822">
        <ele>810.991491</ele>
        <time>2021-11-03T16:19:17.032Z</time>
      </trkpt>
      <trkpt lat="40.123209" lon="-2.876655">
        <ele>811.807118</ele>
        <time>2021-11-03T16:19:17.032Z</time>
      </trkpt>
      <trkpt lat="40.123019" lon="-2.876476">
        <ele>812.229079</ele>
        <time>2021-11-03T16:19:17.032Z</time>
      </trkpt>
      <trkpt lat="40.122870" lon="-2.876318">
        <ele>812.574743</ele>
        <time>2021-11-03T16:19:17.032Z</time>
      </trkpt>
      <trkpt lat="40.122761" lon="-2.876194">
        <ele>812.835071</ele>
        <time>2021-11-03T16:19:17.032Z</time>
      </trkpt>
      <trkpt lat="40.122687" lon="-2.876118">
        <ele>813.004621</ele>
        <time>2021-11-03T16:19:17.032Z</time>
      </trkpt>
      <trkpt lat="40.122612" lon="-2.876055">
        <ele>813.165245</ele>
        <time>2021-11-03T16:19:17.032Z</time>
      </trkpt>
      <trkpt lat="40.122579" lon="-2.876017">
        <ele>813.244477</ele>
        <time>2021-11-03T16:19:17.032Z</time>
      </trkpt>
      <trkpt lat="40.122477" lon="-2.875884">
        <ele>813.504028</ele>
        <time>2021-11-03T16:19:17.032Z</time>
      </trkpt>
      <trkpt lat="40.122330" lon="-2.875695">
        <ele>813.875492</ele>
        <time>2021-11-03T16:19:17.032Z</time>
      </trkpt>
      <trkpt lat="40.122116" lon="-2.875427">
        <ele>814.409410</ele>
        <time>2021-11-03T16:19:17.032Z</time>
      </trkpt>
      <trkpt lat="40.121937" lon="-2.875226">
        <ele>814.834551</ele>
        <time>2021-11-03T16:19:17.032Z</time>
      </trkpt>
      <trkpt lat="40.121903" lon="-2.875201">
        <ele>814.906851</ele>
        <time>2021-11-03T16:19:17.032Z</time>
      </trkpt>
      <trkpt lat="40.121780" lon="-2.875133">
        <ele>815.188894</ele>
        <time>2021-11-03T16:19:17.032Z</time>
      </trkpt>
      <trkpt lat="40.121746" lon="-2.875103">
        <ele>815.275521</ele>
        <time>2021-11-03T16:19:17.032Z</time>
      </trkpt>
      <trkpt lat="40.121601" lon="-2.874962">
        <ele>815.657156</ele>
        <time>2021-11-03T16:19:17.032Z</time>
      </trkpt>
      <trkpt lat="40.121529" lon="-2.874885">
        <ele>815.853599</ele>
        <time>2021-11-03T16:19:17.032Z</time>
      </trkpt>
      <trkpt lat="40.121470" lon="-2.874799">
        <ele>816.040200</ele>
        <time>2021-11-03T16:19:17.032Z</time>
      </trkpt>
      <trkpt lat="40.121351" lon="-2.874715">
        <ele>816.325811</ele>
        <time>2021-11-03T16:19:17.032Z</time>
      </trkpt>
      <trkpt lat="40.121184" lon="-2.874611">
        <ele>816.716477</ele>
        <time>2021-11-03T16:19:17.032Z</time>
      </trkpt>
      <trkpt lat="40.121147" lon="-2.874587">
        <ele>816.803708</ele>
        <time>2021-11-03T16:19:17.032Z</time>
      </trkpt>
      <trkpt lat="40.120962" lon="-2.874433">
        <ele>817.266884</ele>
        <time>2021-11-03T16:19:17.032Z</time>
      </trkpt>
      <trkpt lat="40.120927" lon="-2.874397">
        <ele>817.360932</ele>
        <time>2021-11-03T16:19:17.032Z</time>
      </trkpt>
      <trkpt lat="40.120891" lon="-2.874364">
        <ele>817.453786</ele>
        <time>2021-11-03T16:19:17.032Z</time>
      </trkpt>
      <trkpt lat="40.120821" lon="-2.874297">
        <ele>817.636999</ele>
        <time>2021-11-03T16:19:17.032Z</time>
      </trkpt>
      <trkpt lat="40.120786" lon="-2.874260">
        <ele>817.732054</ele>
        <time>2021-11-03T16:19:17.032Z</time>
      </trkpt>
      <trkpt lat="40.120750" lon="-2.874224">
        <ele>817.827771</ele>
        <time>2021-11-03T16:19:17.032Z</time>
      </trkpt>
      <trkpt lat="40.120715" lon="-2.874189">
        <ele>817.920829</ele>
        <time>2021-11-03T16:19:17.032Z</time>
      </trkpt>
      <trkpt lat="40.120679" lon="-2.874156">
        <ele>818.013683</ele>
        <time>2021-11-03T16:19:17.032Z</time>
      </trkpt>
      <trkpt lat="40.120643" lon="-2.874126">
        <ele>818.103843</ele>
        <time>2021-11-03T16:19:17.032Z</time>
      </trkpt>
      <trkpt lat="40.120445" lon="-2.873965">
        <ele>818.596281</ele>
        <time>2021-11-03T16:19:17.032Z</time>
      </trkpt>
      <trkpt lat="40.120289" lon="-2.873834">
        <ele>819.039043</ele>
        <time>2021-11-03T16:19:17.032Z</time>
      </trkpt>
      <trkpt lat="40.120214" lon="-2.873769">
        <ele>819.261962</ele>
        <time>2021-11-03T16:19:17.032Z</time>
      </trkpt>
      <trkpt lat="40.119983" lon="-2.873578">
        <ele>819.939080</ele>
        <time>2021-11-03T16:19:17.032Z</time>
      </trkpt>
      <trkpt lat="40.119875" lon="-2.873469">
        <ele>820.277078</ele>
        <time>2021-11-03T16:19:17.032Z</time>
      </trkpt>
      <trkpt lat="40.119719" lon="-2.873313">
        <ele>820.763630</ele>
        <time>2021-11-03T16:19:17.032Z</time>
      </trkpt>
      <trkpt lat="40.119677" lon="-2.873279">
        <ele>820.886012</ele>
        <time>2021-11-03T16:19:17.032Z</time>
      </trkpt>
      <trkpt lat="40.119594" lon="-2.873206">
        <ele>821.133832</ele>
        <time>2021-11-03T16:19:17.032Z</time>
      </trkpt>
      <trkpt lat="40.119435" lon="-2.873051">
        <ele>821.625175</ele>
        <time>2021-11-03T16:19:17.032Z</time>
      </trkpt>
      <trkpt lat="40.119360" lon="-2.872976">
        <ele>821.859095</ele>
        <time>2021-11-03T16:19:17.032Z</time>
      </trkpt>
      <trkpt lat="40.119285" lon="-2.872897">
        <ele>822.097695</ele>
        <time>2021-11-03T16:19:17.032Z</time>
      </trkpt>
      <trkpt lat="40.119246" lon="-2.872860">
        <ele>822.217070</ele>
        <time>2021-11-03T16:19:17.032Z</time>
      </trkpt>
      <trkpt lat="40.119207" lon="-2.872824">
        <ele>822.335342</ele>
        <time>2021-11-03T16:19:17.032Z</time>
      </trkpt>
      <trkpt lat="40.119170" lon="-2.872785">
        <ele>822.453083</ele>
        <time>2021-11-03T16:19:17.032Z</time>
      </trkpt>
      <trkpt lat="40.119135" lon="-2.872747">
        <ele>822.565788</ele>
        <time>2021-11-03T16:19:17.032Z</time>
      </trkpt>
      <trkpt lat="40.119100" lon="-2.872707">
        <ele>822.680952</ele>
        <time>2021-11-03T16:19:17.032Z</time>
      </trkpt>
      <trkpt lat="40.119035" lon="-2.872624">
        <ele>822.906035</ele>
        <time>2021-11-03T16:19:17.032Z</time>
      </trkpt>
      <trkpt lat="40.118823" lon="-2.872382">
        <ele>823.924394</ele>
        <time>2021-11-03T16:19:17.032Z</time>
      </trkpt>
      <trkpt lat="40.118785" lon="-2.872346">
        <ele>824.122705</ele>
        <time>2021-11-03T16:19:17.032Z</time>
      </trkpt>
      <trkpt lat="40.118586" lon="-2.872169">
        <ele>825.139820</ele>
        <time>2021-11-03T16:19:17.032Z</time>
      </trkpt>
      <trkpt lat="40.118424" lon="-2.872056">
        <ele>825.915774</ele>
        <time>2021-11-03T16:19:17.032Z</time>
      </trkpt>
      <trkpt lat="40.118381" lon="-2.872033">
        <ele>826.112114</ele>
        <time>2021-11-03T16:19:17.032Z</time>
      </trkpt>
      <trkpt lat="40.118091" lon="-2.871887">
        <ele>827.425403</ele>
        <time>2021-11-03T16:19:17.032Z</time>
      </trkpt>
      <trkpt lat="40.117964" lon="-2.871824">
        <ele>827.999451</ele>
        <time>2021-11-03T16:19:17.032Z</time>
      </trkpt>
      <trkpt lat="40.117879" lon="-2.871777">
        <ele>828.389472</ele>
        <time>2021-11-03T16:19:17.032Z</time>
      </trkpt>
      <trkpt lat="40.117669" lon="-2.871675">
        <ele>829.336217</ele>
        <time>2021-11-03T16:19:17.032Z</time>
      </trkpt>
      <trkpt lat="40.117548" lon="-2.871615">
        <ele>829.883118</ele>
        <time>2021-11-03T16:19:17.032Z</time>
      </trkpt>
      <trkpt lat="40.117382" lon="-2.871553">
        <ele>830.612721</ele>
        <time>2021-11-03T16:19:17.032Z</time>
      </trkpt>
      <trkpt lat="40.117253" lon="-2.871533">
        <ele>831.235070</ele>
        <time>2021-11-03T16:19:17.032Z</time>
      </trkpt>
      <trkpt lat="40.117207" lon="-2.871532">
        <ele>831.464111</ele>
        <time>2021-11-03T16:19:17.032Z</time>
      </trkpt>
      <trkpt lat="40.117027" lon="-2.871546">
        <ele>832.361817</ele>
        <time>2021-11-03T16:19:17.032Z</time>
      </trkpt>
      <trkpt lat="40.116942" lon="-2.871518">
        <ele>832.798207</ele>
        <time>2021-11-03T16:19:17.032Z</time>
      </trkpt>
      <trkpt lat="40.116865" lon="-2.871461">
        <ele>833.238711</ele>
        <time>2021-11-03T16:19:17.032Z</time>
      </trkpt>
      <trkpt lat="40.116718" lon="-2.871330">
        <ele>834.124331</ele>
        <time>2021-11-03T16:19:17.032Z</time>
      </trkpt>
      <trkpt lat="40.116682" lon="-2.871299">
        <ele>834.338926</ele>
        <time>2021-11-03T16:19:17.032Z</time>
      </trkpt>
      <trkpt lat="40.116537" lon="-2.871182">
        <ele>835.187173</ele>
        <time>2021-11-03T16:19:17.032Z</time>
      </trkpt>
      <trkpt lat="40.116458" lon="-2.871135">
        <ele>835.619264</ele>
        <time>2021-11-03T16:19:17.032Z</time>
      </trkpt>
      <trkpt lat="40.116310" lon="-2.871021">
        <ele>836.474406</ele>
        <time>2021-11-03T16:19:17.032Z</time>
      </trkpt>
      <trkpt lat="40.116120" lon="-2.870865">
        <ele>837.591316</ele>
        <time>2021-11-03T16:19:17.032Z</time>
      </trkpt>
      <trkpt lat="40.115946" lon="-2.870699">
        <ele>838.663611</ele>
        <time>2021-11-03T16:19:17.032Z</time>
      </trkpt>
      <trkpt lat="40.115837" lon="-2.870543">
        <ele>839.468113</ele>
        <time>2021-11-03T16:19:17.032Z</time>
      </trkpt>
      <trkpt lat="40.115805" lon="-2.870507">
        <ele>839.678269</ele>
        <time>2021-11-03T16:19:17.032Z</time>
      </trkpt>
      <trkpt lat="40.115675" lon="-2.870376">
        <ele>840.413175</ele>
        <time>2021-11-03T16:19:17.032Z</time>
      </trkpt>
      <trkpt lat="40.115613" lon="-2.870298">
        <ele>840.797017</ele>
        <time>2021-11-03T16:19:17.032Z</time>
      </trkpt>
      <trkpt lat="40.115581" lon="-2.870255">
        <ele>841.001727</ele>
        <time>2021-11-03T16:19:17.032Z</time>
      </trkpt>
      <trkpt lat="40.115421" lon="-2.870009">
        <ele>842.103547</ele>
        <time>2021-11-03T16:19:17.032Z</time>
      </trkpt>
      <trkpt lat="40.115350" lon="-2.869920">
        <ele>842.542347</ele>
        <time>2021-11-03T16:19:17.032Z</time>
      </trkpt>
      <trkpt lat="40.115283" lon="-2.869822">
        <ele>842.990845</ele>
        <time>2021-11-03T16:19:17.032Z</time>
      </trkpt>
      <trkpt lat="40.115252" lon="-2.869767">
        <ele>843.223958</ele>
        <time>2021-11-03T16:19:17.032Z</time>
      </trkpt>
      <trkpt lat="40.115200" lon="-2.869650">
        <ele>843.685666</ele>
        <time>2021-11-03T16:19:17.032Z</time>
      </trkpt>
      <trkpt lat="40.115175" lon="-2.869592">
        <ele>843.912823</ele>
        <time>2021-11-03T16:19:17.032Z</time>
      </trkpt>
      <trkpt lat="40.115149" lon="-2.869538">
        <ele>844.130539</ele>
        <time>2021-11-03T16:19:17.032Z</time>
      </trkpt>
      <trkpt lat="40.115053" lon="-2.869393">
        <ele>844.784902</ele>
        <time>2021-11-03T16:19:17.032Z</time>
      </trkpt>
      <trkpt lat="40.115015" lon="-2.869351">
        <ele>845.006885</ele>
        <time>2021-11-03T16:19:17.032Z</time>
      </trkpt>
      <trkpt lat="40.114810" lon="-2.869197">
        <ele>846.061665</ele>
        <time>2021-11-03T16:19:17.032Z</time>
      </trkpt>
      <trkpt lat="40.114706" lon="-2.869079">
        <ele>846.675974</ele>
        <time>2021-11-03T16:19:17.032Z</time>
      </trkpt>
      <trkpt lat="40.114642" lon="-2.868976">
        <ele>847.128776</ele>
        <time>2021-11-03T16:19:17.032Z</time>
      </trkpt>
      <trkpt lat="40.114600" lon="-2.868907">
        <ele>847.429666</ele>
        <time>2021-11-03T16:19:17.032Z</time>
      </trkpt>
      <trkpt lat="40.114550" lon="-2.868808">
        <ele>847.858737</ele>
        <time>2021-11-03T16:19:17.032Z</time>
      </trkpt>
      <trkpt lat="40.114511" lon="-2.868738">
        <ele>848.222020</ele>
        <time>2021-11-03T16:19:17.032Z</time>
      </trkpt>
      <trkpt lat="40.114430" lon="-2.868666">
        <ele>848.759234</ele>
        <time>2021-11-03T16:19:17.032Z</time>
      </trkpt>
      <trkpt lat="40.114375" lon="-2.868610">
        <ele>849.141575</ele>
        <time>2021-11-03T16:19:17.032Z</time>
      </trkpt>
      <trkpt lat="40.114300" lon="-2.868464">
        <ele>849.879333</ele>
        <time>2021-11-03T16:19:17.032Z</time>
      </trkpt>
      <trkpt lat="40.114272" lon="-2.868378">
        <ele>850.271405</ele>
        <time>2021-11-03T16:19:17.032Z</time>
      </trkpt>
      <trkpt lat="40.114224" lon="-2.868138">
        <ele>851.311984</ele>
        <time>2021-11-03T16:19:17.032Z</time>
      </trkpt>
      <trkpt lat="40.114149" lon="-2.867840">
        <ele>852.627948</ele>
        <time>2021-11-03T16:19:17.032Z</time>
      </trkpt>
      <trkpt lat="40.114111" lon="-2.867757">
        <ele>853.033727</ele>
        <time>2021-11-03T16:19:17.032Z</time>
      </trkpt>
      <trkpt lat="40.114070" lon="-2.867677">
        <ele>853.437685</ele>
        <time>2021-11-03T16:19:17.032Z</time>
      </trkpt>
      <trkpt lat="40.114026" lon="-2.867595">
        <ele>853.857870</ele>
        <time>2021-11-03T16:19:17.032Z</time>
      </trkpt>
      <trkpt lat="40.113954" lon="-2.867461">
        <ele>854.544821</ele>
        <time>2021-11-03T16:19:17.032Z</time>
      </trkpt>
      <trkpt lat="40.113930" lon="-2.867415">
        <ele>854.778404</ele>
        <time>2021-11-03T16:19:17.032Z</time>
      </trkpt>
      <trkpt lat="40.113856" lon="-2.867279">
        <ele>855.478539</ele>
        <time>2021-11-03T16:19:17.032Z</time>
      </trkpt>
      <trkpt lat="40.113836" lon="-2.867230">
        <ele>855.711521</ele>
        <time>2021-11-03T16:19:17.032Z</time>
      </trkpt>
      <trkpt lat="40.113754" lon="-2.866887">
        <ele>857.218964</ele>
        <time>2021-11-03T16:19:17.032Z</time>
      </trkpt>
      <trkpt lat="40.113708" lon="-2.866807">
        <ele>857.625790</ele>
        <time>2021-11-03T16:19:17.032Z</time>
      </trkpt>
      <trkpt lat="40.113647" lon="-2.866747">
        <ele>857.922588</ele>
        <time>2021-11-03T16:19:17.032Z</time>
      </trkpt>
      <trkpt lat="40.113614" lon="-2.866721">
        <ele>858.072394</ele>
        <time>2021-11-03T16:19:17.032Z</time>
      </trkpt>
      <trkpt lat="40.113528" lon="-2.866598">
        <ele>858.567969</ele>
        <time>2021-11-03T16:19:17.032Z</time>
      </trkpt>
      <trkpt lat="40.113505" lon="-2.866562">
        <ele>858.707459</ele>
        <time>2021-11-03T16:19:17.032Z</time>
      </trkpt>
      <trkpt lat="40.113462" lon="-2.866482">
        <ele>858.998228</ele>
        <time>2021-11-03T16:19:17.032Z</time>
      </trkpt>
      <trkpt lat="40.113396" lon="-2.866430">
        <ele>859.297839</ele>
        <time>2021-11-03T16:19:17.032Z</time>
      </trkpt>
      <trkpt lat="40.113255" lon="-2.866392">
        <ele>859.857608</ele>
        <time>2021-11-03T16:19:17.032Z</time>
      </trkpt>
      <trkpt lat="40.113157" lon="-2.866397">
        <ele>860.238948</ele>
        <time>2021-11-03T16:19:17.032Z</time>
      </trkpt>
      <trkpt lat="40.112960" lon="-2.866440">
        <ele>861.015536</ele>
        <time>2021-11-03T16:19:17.032Z</time>
      </trkpt>
      <trkpt lat="40.112866" lon="-2.866468">
        <ele>861.390397</ele>
        <time>2021-11-03T16:19:17.032Z</time>
      </trkpt>
      <trkpt lat="40.112594" lon="-2.866490">
        <ele>862.450028</ele>
        <time>2021-11-03T16:19:17.032Z</time>
      </trkpt>
      <trkpt lat="40.112549" lon="-2.866490">
        <ele>862.625000</ele>
        <time>2021-11-03T16:19:17.032Z</time>
      </trkpt>
      <trkpt lat="40.112508" lon="-2.866483">
        <ele>862.785772</ele>
        <time>2021-11-03T16:19:17.032Z</time>
      </trkpt>
      <trkpt lat="40.112439" lon="-2.866439">
        <ele>863.084267</ele>
        <time>2021-11-03T16:19:17.032Z</time>
      </trkpt>
      <trkpt lat="40.112380" lon="-2.866367">
        <ele>863.398064</ele>
        <time>2021-11-03T16:19:17.032Z</time>
      </trkpt>
      <trkpt lat="40.112326" lon="-2.866282">
        <ele>863.726660</ele>
        <time>2021-11-03T16:19:17.032Z</time>
      </trkpt>
      <trkpt lat="40.112305" lon="-2.866233">
        <ele>863.893689</ele>
        <time>2021-11-03T16:19:17.032Z</time>
      </trkpt>
      <trkpt lat="40.112282" lon="-2.866084">
        <ele>864.345703</ele>
        <time>2021-11-03T16:19:17.032Z</time>
      </trkpt>
      <trkpt lat="40.112278" lon="-2.865985">
        <ele>864.650307</ele>
        <time>2021-11-03T16:19:17.032Z</time>
      </trkpt>
      <trkpt lat="40.112277" lon="-2.865937">
        <ele>864.819588</ele>
        <time>2021-11-03T16:19:17.032Z</time>
      </trkpt>
      <trkpt lat="40.112257" lon="-2.865704">
        <ele>865.646159</ele>
        <time>2021-11-03T16:19:17.032Z</time>
      </trkpt>
      <trkpt lat="40.112221" lon="-2.865564">
        <ele>866.166864</ele>
        <time>2021-11-03T16:19:17.032Z</time>
      </trkpt>
      <trkpt lat="40.112201" lon="-2.865522">
        <ele>866.341286</ele>
        <time>2021-11-03T16:19:17.032Z</time>
      </trkpt>
      <trkpt lat="40.112038" lon="-2.865285">
        <ele>867.464962</ele>
        <time>2021-11-03T16:19:17.032Z</time>
      </trkpt>
      <trkpt lat="40.112005" lon="-2.865250">
        <ele>867.660831</ele>
        <time>2021-11-03T16:19:17.032Z</time>
      </trkpt>
      <trkpt lat="40.111811" lon="-2.865030">
        <ele>868.844578</ele>
        <time>2021-11-03T16:19:17.032Z</time>
      </trkpt>
      <trkpt lat="40.111731" lon="-2.864974">
        <ele>869.262870</ele>
        <time>2021-11-03T16:19:17.032Z</time>
      </trkpt>
      <trkpt lat="40.111647" lon="-2.864949">
        <ele>869.659984</ele>
        <time>2021-11-03T16:19:17.032Z</time>
      </trkpt>
      <trkpt lat="40.111553" lon="-2.864958">
        <ele>870.094451</ele>
        <time>2021-11-03T16:19:17.032Z</time>
      </trkpt>
      <trkpt lat="40.111447" lon="-2.864975">
        <ele>870.586735</ele>
        <time>2021-11-03T16:19:17.032Z</time>
      </trkpt>
      <trkpt lat="40.111301" lon="-2.865006">
        <ele>871.268558</ele>
        <time>2021-11-03T16:19:17.032Z</time>
      </trkpt>
      <trkpt lat="40.111169" lon="-2.865049">
        <ele>871.895631</ele>
        <time>2021-11-03T16:19:17.032Z</time>
      </trkpt>
      <trkpt lat="40.111126" lon="-2.865060">
        <ele>872.097604</ele>
        <time>2021-11-03T16:19:17.032Z</time>
      </trkpt>
      <trkpt lat="40.110945" lon="-2.865100">
        <ele>872.946266</ele>
        <time>2021-11-03T16:19:17.032Z</time>
      </trkpt>
      <trkpt lat="40.110770" lon="-2.865118">
        <ele>873.786370</ele>
        <time>2021-11-03T16:19:17.032Z</time>
      </trkpt>
      <trkpt lat="40.110647" lon="-2.865106">
        <ele>874.376661</ele>
        <time>2021-11-03T16:19:17.032Z</time>
      </trkpt>
      <trkpt lat="40.110473" lon="-2.865103">
        <ele>875.209465</ele>
        <time>2021-11-03T16:19:17.032Z</time>
      </trkpt>
      <trkpt lat="40.110301" lon="-2.865106">
        <ele>876.032697</ele>
        <time>2021-11-03T16:19:17.032Z</time>
      </trkpt>
      <trkpt lat="40.110074" lon="-2.865122">
        <ele>877.120654</ele>
        <time>2021-11-03T16:19:17.032Z</time>
      </trkpt>
      <trkpt lat="40.109987" lon="-2.865139">
        <ele>877.541643</ele>
        <time>2021-11-03T16:19:17.032Z</time>
      </trkpt>
      <trkpt lat="40.109804" lon="-2.865153">
        <ele>878.418944</ele>
        <time>2021-11-03T16:19:17.032Z</time>
      </trkpt>
      <trkpt lat="40.109453" lon="-2.865191">
        <ele>880.104512</ele>
        <time>2021-11-03T16:19:17.032Z</time>
      </trkpt>
      <trkpt lat="40.109409" lon="-2.865197">
        <ele>880.316230</ele>
        <time>2021-11-03T16:19:17.032Z</time>
      </trkpt>
      <trkpt lat="40.109199" lon="-2.865237">
        <ele>881.331859</ele>
        <time>2021-11-03T16:19:17.032Z</time>
      </trkpt>
      <trkpt lat="40.109144" lon="-2.865251">
        <ele>881.606207</ele>
        <time>2021-11-03T16:19:17.032Z</time>
      </trkpt>
      <trkpt lat="40.109107" lon="-2.865255">
        <ele>881.793591</ele>
        <time>2021-11-03T16:19:17.032Z</time>
      </trkpt>
      <trkpt lat="40.109073" lon="-2.865261">
        <ele>881.966753</ele>
        <time>2021-11-03T16:19:17.032Z</time>
      </trkpt>
      <trkpt lat="40.109010" lon="-2.865262">
        <ele>882.284752</ele>
        <time>2021-11-03T16:19:17.032Z</time>
      </trkpt>
      <trkpt lat="40.108940" lon="-2.865279">
        <ele>882.644100</ele>
        <time>2021-11-03T16:19:17.032Z</time>
      </trkpt>
      <trkpt lat="40.108913" lon="-2.865277">
        <ele>882.780594</ele>
        <time>2021-11-03T16:19:17.032Z</time>
      </trkpt>
      <trkpt lat="40.108843" lon="-2.865303">
        <ele>883.147879</ele>
        <time>2021-11-03T16:19:17.032Z</time>
      </trkpt>
      <trkpt lat="40.108785" lon="-2.865325">
        <ele>883.452687</ele>
        <time>2021-11-03T16:19:17.032Z</time>
      </trkpt>
      <trkpt lat="40.108688" lon="-2.865354">
        <ele>883.954904</ele>
        <time>2021-11-03T16:19:17.032Z</time>
      </trkpt>
      <trkpt lat="40.108644" lon="-2.865362">
        <ele>884.179119</ele>
        <time>2021-11-03T16:19:17.032Z</time>
      </trkpt>
      <trkpt lat="40.108601" lon="-2.865372">
        <ele>884.399556</ele>
        <time>2021-11-03T16:19:17.032Z</time>
      </trkpt>
      <trkpt lat="40.108522" lon="-2.865390">
        <ele>884.804296</ele>
        <time>2021-11-03T16:19:17.032Z</time>
      </trkpt>
      <trkpt lat="40.108502" lon="-2.865392">
        <ele>884.905535</ele>
        <time>2021-11-03T16:19:17.032Z</time>
      </trkpt>
      <trkpt lat="40.108409" lon="-2.865393">
        <ele>885.374943</ele>
        <time>2021-11-03T16:19:17.032Z</time>
      </trkpt>
      <trkpt lat="40.108384" lon="-2.865389">
        <ele>885.502064</ele>
        <time>2021-11-03T16:19:17.032Z</time>
      </trkpt>
      <trkpt lat="40.108296" lon="-2.865359">
        <ele>885.961070</ele>
        <time>2021-11-03T16:19:17.032Z</time>
      </trkpt>
      <trkpt lat="40.108206" lon="-2.865314">
        <ele>886.447402</ele>
        <time>2021-11-03T16:19:17.032Z</time>
      </trkpt>
      <trkpt lat="40.108117" lon="-2.865254">
        <ele>886.952802</ele>
        <time>2021-11-03T16:19:17.032Z</time>
      </trkpt>
      <trkpt lat="40.108022" lon="-2.865218">
        <ele>887.452021</ele>
        <time>2021-11-03T16:19:17.032Z</time>
      </trkpt>
      <trkpt lat="40.107847" lon="-2.865247">
        <ele>888.342352</ele>
        <time>2021-11-03T16:19:17.032Z</time>
      </trkpt>
      <trkpt lat="40.107632" lon="-2.865359">
        <ele>889.510464</ele>
        <time>2021-11-03T16:19:17.032Z</time>
      </trkpt>
      <trkpt lat="40.107591" lon="-2.865376">
        <ele>889.727557</ele>
        <time>2021-11-03T16:19:17.032Z</time>
      </trkpt>
      <trkpt lat="40.107504" lon="-2.865407">
        <ele>890.182680</ele>
        <time>2021-11-03T16:19:17.032Z</time>
      </trkpt>
      <trkpt lat="40.107424" lon="-2.865429">
        <ele>890.580410</ele>
        <time>2021-11-03T16:19:17.032Z</time>
      </trkpt>
      <trkpt lat="40.107102" lon="-2.865483">
        <ele>891.416156</ele>
        <time>2021-11-03T16:19:17.032Z</time>
      </trkpt>
      <trkpt lat="40.107010" lon="-2.865496">
        <ele>891.654379</ele>
        <time>2021-11-03T16:19:17.032Z</time>
      </trkpt>
      <trkpt lat="40.106825" lon="-2.865513">
        <ele>892.131817</ele>
        <time>2021-11-03T16:19:17.032Z</time>
      </trkpt>
      <trkpt lat="40.106777" lon="-2.865521">
        <ele>892.256388</ele>
        <time>2021-11-03T16:19:17.032Z</time>
      </trkpt>
      <trkpt lat="40.106485" lon="-2.865574">
        <ele>893.015319</ele>
        <time>2021-11-03T16:19:17.032Z</time>
      </trkpt>
      <trkpt lat="40.106393" lon="-2.865586">
        <ele>893.253339</ele>
        <time>2021-11-03T16:19:17.032Z</time>
      </trkpt>
      <trkpt lat="40.106203" lon="-2.865585">
        <ele>893.742478</ele>
        <time>2021-11-03T16:19:17.032Z</time>
      </trkpt>
      <trkpt lat="40.106060" lon="-2.865585">
        <ele>894.110616</ele>
        <time>2021-11-03T16:19:17.032Z</time>
      </trkpt>
      <trkpt lat="40.105778" lon="-2.865576">
        <ele>894.836811</ele>
        <time>2021-11-03T16:19:17.032Z</time>
      </trkpt>
      <trkpt lat="40.105642" lon="-2.865560">
        <ele>895.188343</ele>
        <time>2021-11-03T16:19:17.032Z</time>
      </trkpt>
      <trkpt lat="40.105465" lon="-2.865507">
        <ele>895.954302</ele>
        <time>2021-11-03T16:19:17.032Z</time>
      </trkpt>
      <trkpt lat="40.105426" lon="-2.865490">
        <ele>896.128741</ele>
        <time>2021-11-03T16:19:17.032Z</time>
      </trkpt>
      <trkpt lat="40.105235" lon="-2.865370">
        <ele>897.027908</ele>
        <time>2021-11-03T16:19:17.032Z</time>
      </trkpt>
      <trkpt lat="40.105160" lon="-2.865302">
        <ele>897.415181</ele>
        <time>2021-11-03T16:19:17.032Z</time>
      </trkpt>
      <trkpt lat="40.105107" lon="-2.865211">
        <ele>897.786394</ele>
        <time>2021-11-03T16:19:17.032Z</time>
      </trkpt>
      <trkpt lat="40.105054" lon="-2.865100">
        <ele>898.211072</ele>
        <time>2021-11-03T16:19:17.032Z</time>
      </trkpt>
      <trkpt lat="40.105008" lon="-2.864980">
        <ele>898.646702</ele>
        <time>2021-11-03T16:19:17.032Z</time>
      </trkpt>
      <trkpt lat="40.104985" lon="-2.864853">
        <ele>899.070273</ele>
        <time>2021-11-03T16:19:17.032Z</time>
      </trkpt>
      <trkpt lat="40.104978" lon="-2.864791">
        <ele>899.273672</ele>
        <time>2021-11-03T16:19:17.032Z</time>
      </trkpt>
      <trkpt lat="40.104957" lon="-2.864606">
        <ele>899.880659</ele>
        <time>2021-11-03T16:19:17.032Z</time>
      </trkpt>
      <trkpt lat="40.104948" lon="-2.864419">
        <ele>900.488761</ele>
        <time>2021-11-03T16:19:17.032Z</time>
      </trkpt>
      <trkpt lat="40.104944" lon="-2.864357">
        <ele>900.690695</ele>
        <time>2021-11-03T16:19:17.032Z</time>
      </trkpt>
      <trkpt lat="40.104930" lon="-2.863995">
        <ele>901.867055</ele>
        <time>2021-11-03T16:19:17.032Z</time>
      </trkpt>
      <trkpt lat="40.104921" lon="-2.863937">
        <ele>902.059127</ele>
        <time>2021-11-03T16:19:17.032Z</time>
      </trkpt>
      <trkpt lat="40.104895" lon="-2.863821">
        <ele>902.451433</ele>
        <time>2021-11-03T16:19:17.032Z</time>
      </trkpt>
      <trkpt lat="40.104834" lon="-2.863726">
        <ele>902.853698</ele>
        <time>2021-11-03T16:19:17.032Z</time>
      </trkpt>
      <trkpt lat="40.104797" lon="-2.863687">
        <ele>903.053125</ele>
        <time>2021-11-03T16:19:17.032Z</time>
      </trkpt>
      <trkpt lat="40.104756" lon="-2.863652">
        <ele>903.258589</ele>
        <time>2021-11-03T16:19:17.032Z</time>
      </trkpt>
      <trkpt lat="40.104623" lon="-2.863569">
        <ele>903.876981</ele>
        <time>2021-11-03T16:19:17.032Z</time>
      </trkpt>
      <trkpt lat="40.104540" lon="-2.863520">
        <ele>904.259115</ele>
        <time>2021-11-03T16:19:17.032Z</time>
      </trkpt>
      <trkpt lat="40.104368" lon="-2.863333">
        <ele>905.197776</ele>
        <time>2021-11-03T16:19:17.032Z</time>
      </trkpt>
      <trkpt lat="40.104335" lon="-2.863288">
        <ele>905.397858</ele>
        <time>2021-11-03T16:19:17.032Z</time>
      </trkpt>
      <trkpt lat="40.104219" lon="-2.863079">
        <ele>906.226628</ele>
        <time>2021-11-03T16:19:17.032Z</time>
      </trkpt>
      <trkpt lat="40.104167" lon="-2.862974">
        <ele>906.628093</ele>
        <time>2021-11-03T16:19:17.032Z</time>
      </trkpt>
      <trkpt lat="40.104082" lon="-2.862825">
        <ele>907.224662</ele>
        <time>2021-11-03T16:19:17.032Z</time>
      </trkpt>
      <trkpt lat="40.104022" lon="-2.862726">
        <ele>907.630054</ele>
        <time>2021-11-03T16:19:17.032Z</time>
      </trkpt>
      <trkpt lat="40.103959" lon="-2.862632">
        <ele>908.031176</ele>
        <time>2021-11-03T16:19:17.032Z</time>
      </trkpt>
      <trkpt lat="40.103923" lon="-2.862592">
        <ele>908.229418</ele>
        <time>2021-11-03T16:19:17.032Z</time>
      </trkpt>
      <trkpt lat="40.103814" lon="-2.862484">
        <ele>908.803296</ele>
        <time>2021-11-03T16:19:17.032Z</time>
      </trkpt>
      <trkpt lat="40.103784" lon="-2.862442">
        <ele>908.987732</ele>
        <time>2021-11-03T16:19:17.032Z</time>
      </trkpt>
      <trkpt lat="40.103585" lon="-2.862289">
        <ele>909.956435</ele>
        <time>2021-11-03T16:19:17.032Z</time>
      </trkpt>
      <trkpt lat="40.103543" lon="-2.862263">
        <ele>910.151427</ele>
        <time>2021-11-03T16:19:17.032Z</time>
      </trkpt>
      <trkpt lat="40.103224" lon="-2.862025">
        <ele>911.537050</ele>
        <time>2021-11-03T16:19:17.032Z</time>
      </trkpt>
      <trkpt lat="40.103144" lon="-2.861965">
        <ele>911.878380</ele>
        <time>2021-11-03T16:19:17.032Z</time>
      </trkpt>
      <trkpt lat="40.102936" lon="-2.861812">
        <ele>912.761643</ele>
        <time>2021-11-03T16:19:17.032Z</time>
      </trkpt>
      <trkpt lat="40.102849" lon="-2.861753">
        <ele>913.124361</ele>
        <time>2021-11-03T16:19:17.032Z</time>
      </trkpt>
      <trkpt lat="40.102685" lon="-2.861620">
        <ele>913.838597</ele>
        <time>2021-11-03T16:19:17.032Z</time>
      </trkpt>
      <trkpt lat="40.102472" lon="-2.861463">
        <ele>914.743541</ele>
        <time>2021-11-03T16:19:17.032Z</time>
      </trkpt>
      <trkpt lat="40.102215" lon="-2.861280">
        <ele>915.826598</ele>
        <time>2021-11-03T16:19:17.032Z</time>
      </trkpt>
      <trkpt lat="40.102087" lon="-2.861196">
        <ele>916.356644</ele>
        <time>2021-11-03T16:19:17.032Z</time>
      </trkpt>
      <trkpt lat="40.101961" lon="-2.861111">
        <ele>916.881377</ele>
        <time>2021-11-03T16:19:17.032Z</time>
      </trkpt>
      <trkpt lat="40.101771" lon="-2.860993">
        <ele>918.194874</ele>
        <time>2021-11-03T16:19:17.032Z</time>
      </trkpt>
      <trkpt lat="40.101616" lon="-2.860889">
        <ele>919.388321</ele>
        <time>2021-11-03T16:19:17.032Z</time>
      </trkpt>
      <trkpt lat="40.101465" lon="-2.860794">
        <ele>920.536236</ele>
        <time>2021-11-03T16:19:17.032Z</time>
      </trkpt>
      <trkpt lat="40.101394" lon="-2.860744">
        <ele>921.088672</ele>
        <time>2021-11-03T16:19:17.032Z</time>
      </trkpt>
      <trkpt lat="40.101358" lon="-2.860720">
        <ele>921.365490</ele>
        <time>2021-11-03T16:19:17.032Z</time>
      </trkpt>
      <trkpt lat="40.101194" lon="-2.860617">
        <ele>922.611827</ele>
        <time>2021-11-03T16:19:17.032Z</time>
      </trkpt>
      <trkpt lat="40.101138" lon="-2.860557">
        <ele>923.107805</ele>
        <time>2021-11-03T16:19:17.032Z</time>
      </trkpt>
      <trkpt lat="40.101085" lon="-2.860490">
        <ele>923.612837</ele>
        <time>2021-11-03T16:19:17.032Z</time>
      </trkpt>
      <trkpt lat="40.100980" lon="-2.860352">
        <ele>924.632739</ele>
        <time>2021-11-03T16:19:17.032Z</time>
      </trkpt>
      <trkpt lat="40.100873" lon="-2.860215">
        <ele>925.658676</ele>
        <time>2021-11-03T16:19:17.032Z</time>
      </trkpt>
      <trkpt lat="40.100778" lon="-2.860137">
        <ele>926.427138</ele>
        <time>2021-11-03T16:19:17.032Z</time>
      </trkpt>
      <trkpt lat="40.100704" lon="-2.860112">
        <ele>926.950702</ele>
        <time>2021-11-03T16:19:17.032Z</time>
      </trkpt>
      <trkpt lat="40.100625" lon="-2.860108">
        <ele>927.492271</ele>
        <time>2021-11-03T16:19:17.032Z</time>
      </trkpt>
      <trkpt lat="40.100499" lon="-2.860108">
        <ele>928.355392</ele>
        <time>2021-11-03T16:19:17.032Z</time>
      </trkpt>
      <trkpt lat="40.100456" lon="-2.860108">
        <ele>928.649949</ele>
        <time>2021-11-03T16:19:17.032Z</time>
      </trkpt>
      <trkpt lat="40.100374" lon="-2.860107">
        <ele>929.211687</ele>
        <time>2021-11-03T16:19:17.032Z</time>
      </trkpt>
      <trkpt lat="40.100201" lon="-2.860103">
        <ele>929.105670</ele>
        <time>2021-11-03T16:19:17.032Z</time>
      </trkpt>
      <trkpt lat="40.100157" lon="-2.860106">
        <ele>929.034477</ele>
        <time>2021-11-03T16:19:17.032Z</time>
      </trkpt>
      <trkpt lat="40.099755" lon="-2.860116">
        <ele>928.384791</ele>
        <time>2021-11-03T16:19:17.032Z</time>
      </trkpt>
      <trkpt lat="40.099701" lon="-2.860115">
        <ele>928.297527</ele>
        <time>2021-11-03T16:19:17.032Z</time>
      </trkpt>
      <trkpt lat="40.099536" lon="-2.860111">
        <ele>928.030867</ele>
        <time>2021-11-03T16:19:17.032Z</time>
      </trkpt>
      <trkpt lat="40.099299" lon="-2.860075">
        <ele>927.645336</ele>
        <time>2021-11-03T16:19:17.032Z</time>
      </trkpt>
      <trkpt lat="40.099236" lon="-2.860054">
        <ele>927.540281</ele>
        <time>2021-11-03T16:19:17.032Z</time>
      </trkpt>
      <trkpt lat="40.099107" lon="-2.859999">
        <ele>927.321033</ele>
        <time>2021-11-03T16:19:17.032Z</time>
      </trkpt>
      <trkpt lat="40.098987" lon="-2.859896">
        <ele>927.089073</ele>
        <time>2021-11-03T16:19:17.032Z</time>
      </trkpt>
      <trkpt lat="40.098939" lon="-2.859825">
        <ele>926.971954</ele>
        <time>2021-11-03T16:19:17.032Z</time>
      </trkpt>
      <trkpt lat="40.098905" lon="-2.859742">
        <ele>926.855581</ele>
        <time>2021-11-03T16:19:17.032Z</time>
      </trkpt>
      <trkpt lat="40.098890" lon="-2.859652">
        <ele>926.741730</ele>
        <time>2021-11-03T16:19:17.032Z</time>
      </trkpt>
      <trkpt lat="40.098892" lon="-2.859564">
        <ele>926.632913</ele>
        <time>2021-11-03T16:19:17.032Z</time>
      </trkpt>
      <trkpt lat="40.098942" lon="-2.859394">
        <ele>926.181359</ele>
        <time>2021-11-03T16:19:17.032Z</time>
      </trkpt>
      <trkpt lat="40.098969" lon="-2.859331">
        <ele>925.560389</ele>
        <time>2021-11-03T16:19:17.032Z</time>
      </trkpt>
      <trkpt lat="40.098996" lon="-2.859269">
        <ele>924.946907</ele>
        <time>2021-11-03T16:19:17.032Z</time>
      </trkpt>
      <trkpt lat="40.099024" lon="-2.859212">
        <ele>924.364400</ele>
        <time>2021-11-03T16:19:17.032Z</time>
      </trkpt>
      <trkpt lat="40.099086" lon="-2.859101">
        <ele>923.182529</ele>
        <time>2021-11-03T16:19:17.032Z</time>
      </trkpt>
      <trkpt lat="40.099096" lon="-2.858946">
        <ele>921.844955</ele>
        <time>2021-11-03T16:19:17.032Z</time>
      </trkpt>
      <trkpt lat="40.099027" lon="-2.858912">
        <ele>921.016021</ele>
        <time>2021-11-03T16:19:17.032Z</time>
      </trkpt>
      <trkpt lat="40.098981" lon="-2.858919">
        <ele>920.495420</ele>
        <time>2021-11-03T16:19:17.032Z</time>
      </trkpt>
      <trkpt lat="40.098927" lon="-2.858934">
        <ele>919.874827</ele>
        <time>2021-11-03T16:19:17.032Z</time>
      </trkpt>
      <trkpt lat="40.098866" lon="-2.858951">
        <ele>919.173687</ele>
        <time>2021-11-03T16:19:17.032Z</time>
      </trkpt>
      <trkpt lat="40.098793" lon="-2.858963">
        <ele>918.346595</ele>
        <time>2021-11-03T16:19:17.032Z</time>
      </trkpt>
      <trkpt lat="40.098713" lon="-2.858972">
        <ele>917.443951</ele>
        <time>2021-11-03T16:19:17.032Z</time>
      </trkpt>
      <trkpt lat="40.098625" lon="-2.858971">
        <ele>916.454662</ele>
        <time>2021-11-03T16:19:17.032Z</time>
      </trkpt>
      <trkpt lat="40.098535" lon="-2.858966">
        <ele>915.442013</ele>
        <time>2021-11-03T16:19:17.032Z</time>
      </trkpt>
      <trkpt lat="40.098441" lon="-2.858959">
        <ele>914.383599</ele>
        <time>2021-11-03T16:19:17.032Z</time>
      </trkpt>
      <trkpt lat="40.098344" lon="-2.858949">
        <ele>913.289788</ele>
        <time>2021-11-03T16:19:17.032Z</time>
      </trkpt>
      <trkpt lat="40.098245" lon="-2.858938">
        <ele>912.172867</ele>
        <time>2021-11-03T16:19:17.032Z</time>
      </trkpt>
      <trkpt lat="40.098148" lon="-2.858921">
        <ele>911.072686</ele>
        <time>2021-11-03T16:19:17.032Z</time>
      </trkpt>
      <trkpt lat="40.098046" lon="-2.858901">
        <ele>909.913227</ele>
        <time>2021-11-03T16:19:17.032Z</time>
      </trkpt>
      <trkpt lat="40.097944" lon="-2.858878">
        <ele>908.749661</ele>
        <time>2021-11-03T16:19:17.032Z</time>
      </trkpt>
      <trkpt lat="40.097769" lon="-2.858816">
        <ele>906.711435</ele>
        <time>2021-11-03T16:19:17.032Z</time>
      </trkpt>
      <trkpt lat="40.097697" lon="-2.858774">
        <ele>905.885246</ele>
        <time>2021-11-03T16:19:17.032Z</time>
      </trkpt>
      <trkpt lat="40.097637" lon="-2.858725">
        <ele>905.209132</ele>
        <time>2021-11-03T16:19:17.032Z</time>
      </trkpt>
      <trkpt lat="40.097553" lon="-2.858609">
        <ele>904.041390</ele>
        <time>2021-11-03T16:19:17.032Z</time>
      </trkpt>
      <trkpt lat="40.097525" lon="-2.858536">
        <ele>903.444385</ele>
        <time>2021-11-03T16:19:17.032Z</time>
      </trkpt>
      <trkpt lat="40.097502" lon="-2.858451">
        <ele>902.785251</ele>
        <time>2021-11-03T16:19:17.032Z</time>
      </trkpt>
      <trkpt lat="40.097477" lon="-2.858359">
        <ele>902.071498</ele>
        <time>2021-11-03T16:19:17.032Z</time>
      </trkpt>
      <trkpt lat="40.097444" lon="-2.858265">
        <ele>901.315385</ele>
        <time>2021-11-03T16:19:17.032Z</time>
      </trkpt>
      <trkpt lat="40.097355" lon="-2.858068">
        <ele>899.642774</ele>
        <time>2021-11-03T16:19:17.032Z</time>
      </trkpt>
      <trkpt lat="40.097304" lon="-2.857963">
        <ele>898.733489</ele>
        <time>2021-11-03T16:19:17.032Z</time>
      </trkpt>
      <trkpt lat="40.097248" lon="-2.857856">
        <ele>897.785689</ele>
        <time>2021-11-03T16:19:17.032Z</time>
      </trkpt>
      <trkpt lat="40.097189" lon="-2.857750">
        <ele>896.827328</ele>
        <time>2021-11-03T16:19:17.032Z</time>
      </trkpt>
      <trkpt lat="40.097127" lon="-2.857646">
        <ele>895.863397</ele>
        <time>2021-11-03T16:19:17.032Z</time>
      </trkpt>
      <trkpt lat="40.097014" lon="-2.857453">
        <ele>894.086583</ele>
        <time>2021-11-03T16:19:17.032Z</time>
      </trkpt>
      <trkpt lat="40.096963" lon="-2.857360">
        <ele>893.250032</ele>
        <time>2021-11-03T16:19:17.032Z</time>
      </trkpt>
      <trkpt lat="40.096912" lon="-2.857267">
        <ele>892.413480</ele>
        <time>2021-11-03T16:19:17.032Z</time>
      </trkpt>
      <trkpt lat="40.096822" lon="-2.857078">
        <ele>890.785915</ele>
        <time>2021-11-03T16:19:17.032Z</time>
      </trkpt>
      <trkpt lat="40.096750" lon="-2.856882">
        <ele>889.196364</ele>
        <time>2021-11-03T16:19:17.032Z</time>
      </trkpt>
      <trkpt lat="40.096665" lon="-2.856557">
        <ele>887.589149</ele>
        <time>2021-11-03T16:19:17.032Z</time>
      </trkpt>
      <trkpt lat="40.096592" lon="-2.856210">
        <ele>885.969415</ele>
        <time>2021-11-03T16:19:17.032Z</time>
      </trkpt>
      <trkpt lat="40.096541" lon="-2.855978">
        <ele>884.882987</ele>
        <time>2021-11-03T16:19:17.032Z</time>
      </trkpt>
      <trkpt lat="40.096493" lon="-2.855749">
        <ele>883.814328</ele>
        <time>2021-11-03T16:19:17.032Z</time>
      </trkpt>
      <trkpt lat="40.096442" lon="-2.855516">
        <ele>882.723573</ele>
        <time>2021-11-03T16:19:17.032Z</time>
      </trkpt>
      <trkpt lat="40.096407" lon="-2.855403">
        <ele>882.174881</ele>
        <time>2021-11-03T16:19:17.032Z</time>
      </trkpt>
      <trkpt lat="40.096326" lon="-2.855188">
        <ele>881.096232</ele>
        <time>2021-11-03T16:19:17.032Z</time>
      </trkpt>
      <trkpt lat="40.096279" lon="-2.855086">
        <ele>880.560303</ele>
        <time>2021-11-03T16:19:17.032Z</time>
      </trkpt>
      <trkpt lat="40.096232" lon="-2.854986">
        <ele>880.032065</ele>
        <time>2021-11-03T16:19:17.032Z</time>
      </trkpt>
      <trkpt lat="40.096068" lon="-2.854579">
        <ele>878.177537</ele>
        <time>2021-11-03T16:19:17.032Z</time>
      </trkpt>
      <trkpt lat="40.096004" lon="-2.854374">
        <ele>877.617746</ele>
        <time>2021-11-03T16:19:17.032Z</time>
      </trkpt>
      <trkpt lat="40.095948" lon="-2.854165">
        <ele>877.057865</ele>
        <time>2021-11-03T16:19:17.032Z</time>
      </trkpt>
      <trkpt lat="40.095812" lon="-2.853747">
        <ele>875.909439</ele>
        <time>2021-11-03T16:19:17.032Z</time>
      </trkpt>
      <trkpt lat="40.095702" lon="-2.853573">
        <ele>875.338739</ele>
        <time>2021-11-03T16:19:17.032Z</time>
      </trkpt>
      <trkpt lat="40.095578" lon="-2.853422">
        <ele>874.778647</ele>
        <time>2021-11-03T16:19:17.032Z</time>
      </trkpt>
      <trkpt lat="40.095200" lon="-2.853029">
        <ele>873.182393</ele>
        <time>2021-11-03T16:19:17.032Z</time>
      </trkpt>
      <trkpt lat="40.095138" lon="-2.852967">
        <ele>872.924399</ele>
        <time>2021-11-03T16:19:17.032Z</time>
      </trkpt>
      <trkpt lat="40.094835" lon="-2.852663">
        <ele>872.251956</ele>
        <time>2021-11-03T16:19:17.032Z</time>
      </trkpt>
      <trkpt lat="40.094723" lon="-2.852533">
        <ele>872.101463</ele>
        <time>2021-11-03T16:19:17.032Z</time>
      </trkpt>
      <trkpt lat="40.094670" lon="-2.852465">
        <ele>872.026847</ele>
        <time>2021-11-03T16:19:17.032Z</time>
      </trkpt>
      <trkpt lat="40.094422" lon="-2.852116">
        <ele>871.660719</ele>
        <time>2021-11-03T16:19:17.032Z</time>
      </trkpt>
      <trkpt lat="40.094280" lon="-2.851918">
        <ele>871.452110</ele>
        <time>2021-11-03T16:19:17.032Z</time>
      </trkpt>
      <trkpt lat="40.094138" lon="-2.851739">
        <ele>871.253903</ele>
        <time>2021-11-03T16:19:17.032Z</time>
      </trkpt>
      <trkpt lat="40.094088" lon="-2.851687">
        <ele>871.189705</ele>
        <time>2021-11-03T16:19:17.032Z</time>
      </trkpt>
      <trkpt lat="40.094039" lon="-2.851636">
        <ele>871.126771</ele>
        <time>2021-11-03T16:19:17.032Z</time>
      </trkpt>
      <trkpt lat="40.093989" lon="-2.851587">
        <ele>871.063983</ele>
        <time>2021-11-03T16:19:17.032Z</time>
      </trkpt>
      <trkpt lat="40.093695" lon="-2.851325">
        <ele>870.706469</ele>
        <time>2021-11-03T16:19:17.032Z</time>
      </trkpt>
      <trkpt lat="40.093651" lon="-2.851287">
        <ele>870.897731</ele>
        <time>2021-11-03T16:19:17.032Z</time>
      </trkpt>
      <trkpt lat="40.093608" lon="-2.851250">
        <ele>871.104114</ele>
        <time>2021-11-03T16:19:17.032Z</time>
      </trkpt>
      <trkpt lat="40.093453" lon="-2.851084">
        <ele>871.907429</ele>
        <time>2021-11-03T16:19:17.032Z</time>
      </trkpt>
      <trkpt lat="40.093347" lon="-2.850936">
        <ele>872.529209</ele>
        <time>2021-11-03T16:19:17.032Z</time>
      </trkpt>
      <trkpt lat="40.093235" lon="-2.850792">
        <ele>873.159008</ele>
        <time>2021-11-03T16:19:17.032Z</time>
      </trkpt>
      <trkpt lat="40.093137" lon="-2.850735">
        <ele>873.589026</ele>
        <time>2021-11-03T16:19:17.032Z</time>
      </trkpt>
      <trkpt lat="40.093086" lon="-2.850715">
        <ele>873.802488</ele>
        <time>2021-11-03T16:19:17.032Z</time>
      </trkpt>
      <trkpt lat="40.093035" lon="-2.850700">
        <ele>874.012059</ele>
        <time>2021-11-03T16:19:17.032Z</time>
      </trkpt>
      <trkpt lat="40.092985" lon="-2.850686">
        <ele>874.217057</ele>
        <time>2021-11-03T16:19:17.032Z</time>
      </trkpt>
      <trkpt lat="40.092885" lon="-2.850655">
        <ele>874.629077</ele>
        <time>2021-11-03T16:19:17.032Z</time>
      </trkpt>
      <trkpt lat="40.092791" lon="-2.850628">
        <ele>875.014914</ele>
        <time>2021-11-03T16:19:17.032Z</time>
      </trkpt>
      <trkpt lat="40.092747" lon="-2.850614">
        <ele>875.196461</ele>
        <time>2021-11-03T16:19:17.032Z</time>
      </trkpt>
      <trkpt lat="40.092574" lon="-2.850561">
        <ele>875.908812</ele>
        <time>2021-11-03T16:19:17.032Z</time>
      </trkpt>
      <trkpt lat="40.092488" lon="-2.850534">
        <ele>876.263392</ele>
        <time>2021-11-03T16:19:17.032Z</time>
      </trkpt>
      <trkpt lat="40.092358" lon="-2.850489">
        <ele>876.802527</ele>
        <time>2021-11-03T16:19:17.032Z</time>
      </trkpt>
      <trkpt lat="40.092192" lon="-2.850420">
        <ele>877.500858</ele>
        <time>2021-11-03T16:19:17.032Z</time>
      </trkpt>
      <trkpt lat="40.092109" lon="-2.850372">
        <ele>877.864716</ele>
        <time>2021-11-03T16:19:17.032Z</time>
      </trkpt>
      <trkpt lat="40.092037" lon="-2.850312">
        <ele>878.077960</ele>
        <time>2021-11-03T16:19:17.032Z</time>
      </trkpt>
      <trkpt lat="40.091974" lon="-2.850232">
        <ele>878.275403</ele>
        <time>2021-11-03T16:19:17.032Z</time>
      </trkpt>
      <trkpt lat="40.091949" lon="-2.850183">
        <ele>878.376689</ele>
        <time>2021-11-03T16:19:17.032Z</time>
      </trkpt>
      <trkpt lat="40.091909" lon="-2.850071">
        <ele>878.589251</ele>
        <time>2021-11-03T16:19:17.032Z</time>
      </trkpt>
      <trkpt lat="40.091880" lon="-2.849950">
        <ele>878.807307</ele>
        <time>2021-11-03T16:19:17.032Z</time>
      </trkpt>
      <trkpt lat="40.091854" lon="-2.849818">
        <ele>879.041711</ele>
        <time>2021-11-03T16:19:17.032Z</time>
      </trkpt>
      <trkpt lat="40.091821" lon="-2.849683">
        <ele>879.285435</ele>
        <time>2021-11-03T16:19:17.032Z</time>
      </trkpt>
      <trkpt lat="40.091777" lon="-2.849551">
        <ele>879.533049</ele>
        <time>2021-11-03T16:19:17.032Z</time>
      </trkpt>
      <trkpt lat="40.091745" lon="-2.849493">
        <ele>879.656025</ele>
        <time>2021-11-03T16:19:17.032Z</time>
      </trkpt>
      <trkpt lat="40.091706" lon="-2.849443">
        <ele>879.778823</ele>
        <time>2021-11-03T16:19:17.032Z</time>
      </trkpt>
      <trkpt lat="40.091607" lon="-2.849381">
        <ele>880.025593</ele>
        <time>2021-11-03T16:19:17.032Z</time>
      </trkpt>
      <trkpt lat="40.091386" lon="-2.849334">
        <ele>880.528919</ele>
        <time>2021-11-03T16:19:17.032Z</time>
      </trkpt>
      <trkpt lat="40.091332" lon="-2.849328">
        <ele>880.650746</ele>
        <time>2021-11-03T16:19:17.032Z</time>
      </trkpt>
      <trkpt lat="40.090898" lon="-2.849309">
        <ele>881.626899</ele>
        <time>2021-11-03T16:19:17.032Z</time>
      </trkpt>
      <trkpt lat="40.090491" lon="-2.849358">
        <ele>881.625549</ele>
        <time>2021-11-03T16:19:17.032Z</time>
      </trkpt>
      <trkpt lat="40.090270" lon="-2.849421">
        <ele>881.340005</ele>
        <time>2021-11-03T16:19:17.032Z</time>
      </trkpt>
      <trkpt lat="40.090119" lon="-2.849488">
        <ele>881.138701</ele>
        <time>2021-11-03T16:19:17.032Z</time>
      </trkpt>
      <trkpt lat="40.089973" lon="-2.849574">
        <ele>880.936543</ele>
        <time>2021-11-03T16:19:17.032Z</time>
      </trkpt>
      <trkpt lat="40.089718" lon="-2.849724">
        <ele>880.583541</ele>
        <time>2021-11-03T16:19:17.032Z</time>
      </trkpt>
      <trkpt lat="40.089661" lon="-2.849751">
        <ele>880.507006</ele>
        <time>2021-11-03T16:19:17.032Z</time>
      </trkpt>
      <trkpt lat="40.089534" lon="-2.849790">
        <ele>880.342318</ele>
        <time>2021-11-03T16:19:17.032Z</time>
      </trkpt>
      <trkpt lat="40.089464" lon="-2.849799">
        <ele>880.253524</ele>
        <time>2021-11-03T16:19:17.032Z</time>
      </trkpt>
      <trkpt lat="40.089320" lon="-2.849796">
        <ele>880.071718</ele>
        <time>2021-11-03T16:19:17.032Z</time>
      </trkpt>
      <trkpt lat="40.089085" lon="-2.849798">
        <ele>879.775051</ele>
        <time>2021-11-03T16:19:17.032Z</time>
      </trkpt>
      <trkpt lat="40.089000" lon="-2.849810">
        <ele>879.610441</ele>
        <time>2021-11-03T16:19:17.032Z</time>
      </trkpt>
      <trkpt lat="40.088915" lon="-2.849834">
        <ele>879.168676</ele>
        <time>2021-11-03T16:19:17.032Z</time>
      </trkpt>
      <trkpt lat="40.088737" lon="-2.849882">
        <ele>878.245380</ele>
        <time>2021-11-03T16:19:17.032Z</time>
      </trkpt>
      <trkpt lat="40.088548" lon="-2.849921">
        <ele>877.273356</ele>
        <time>2021-11-03T16:19:17.032Z</time>
      </trkpt>
      <trkpt lat="40.088447" lon="-2.849929">
        <ele>876.759328</ele>
        <time>2021-11-03T16:19:17.032Z</time>
      </trkpt>
      <trkpt lat="40.088343" lon="-2.849928">
        <ele>876.230986</ele>
        <time>2021-11-03T16:19:17.032Z</time>
      </trkpt>
      <trkpt lat="40.088238" lon="-2.849919">
        <ele>875.696433</ele>
        <time>2021-11-03T16:19:17.032Z</time>
      </trkpt>
      <trkpt lat="40.088134" lon="-2.849897">
        <ele>875.161232</ele>
        <time>2021-11-03T16:19:17.032Z</time>
      </trkpt>
      <trkpt lat="40.087932" lon="-2.849826">
        <ele>874.098604</ele>
        <time>2021-11-03T16:19:17.032Z</time>
      </trkpt>
      <trkpt lat="40.087743" lon="-2.849738">
        <ele>873.079373</ele>
        <time>2021-11-03T16:19:17.032Z</time>
      </trkpt>
      <trkpt lat="40.087649" lon="-2.849688">
        <ele>872.563820</ele>
        <time>2021-11-03T16:19:17.032Z</time>
      </trkpt>
      <trkpt lat="40.087467" lon="-2.849605">
        <ele>871.584587</ele>
        <time>2021-11-03T16:19:17.032Z</time>
      </trkpt>
      <trkpt lat="40.087291" lon="-2.849581">
        <ele>870.685643</ele>
        <time>2021-11-03T16:19:17.032Z</time>
      </trkpt>
      <trkpt lat="40.087208" lon="-2.849598">
        <ele>870.426968</ele>
        <time>2021-11-03T16:19:17.032Z</time>
      </trkpt>
      <trkpt lat="40.087131" lon="-2.849627">
        <ele>870.256056</ele>
        <time>2021-11-03T16:19:17.032Z</time>
      </trkpt>
      <trkpt lat="40.086932" lon="-2.849741">
        <ele>869.792640</ele>
        <time>2021-11-03T16:19:17.032Z</time>
      </trkpt>
      <trkpt lat="40.086714" lon="-2.849883">
        <ele>869.273137</ele>
        <time>2021-11-03T16:19:17.032Z</time>
      </trkpt>
      <trkpt lat="40.086663" lon="-2.849916">
        <ele>869.151761</ele>
        <time>2021-11-03T16:19:17.032Z</time>
      </trkpt>
      <trkpt lat="40.086557" lon="-2.849977">
        <ele>868.904735</ele>
        <time>2021-11-03T16:19:17.032Z</time>
      </trkpt>
      <trkpt lat="40.086439" lon="-2.850002">
        <ele>868.649772</ele>
        <time>2021-11-03T16:19:17.032Z</time>
      </trkpt>
      <trkpt lat="40.086311" lon="-2.849992">
        <ele>868.376278</ele>
        <time>2021-11-03T16:19:17.032Z</time>
      </trkpt>
      <trkpt lat="40.086102" lon="-2.849944">
        <ele>867.923680</ele>
        <time>2021-11-03T16:19:17.032Z</time>
      </trkpt>
      <trkpt lat="40.085879" lon="-2.849879">
        <ele>867.436368</ele>
        <time>2021-11-03T16:19:17.032Z</time>
      </trkpt>
      <trkpt lat="40.085801" lon="-2.849856">
        <ele>867.265824</ele>
        <time>2021-11-03T16:19:17.032Z</time>
      </trkpt>
      <trkpt lat="40.085573" lon="-2.849805">
        <ele>866.772461</ele>
        <time>2021-11-03T16:19:17.032Z</time>
      </trkpt>
      <trkpt lat="40.085500" lon="-2.849800">
        <ele>866.619679</ele>
        <time>2021-11-03T16:19:17.032Z</time>
      </trkpt>
      <trkpt lat="40.085425" lon="-2.849803">
        <ele>866.464868</ele>
        <time>2021-11-03T16:19:17.032Z</time>
      </trkpt>
      <trkpt lat="40.085349" lon="-2.849816">
        <ele>866.306730</ele>
        <time>2021-11-03T16:19:17.032Z</time>
      </trkpt>
      <trkpt lat="40.085197" lon="-2.849855">
        <ele>865.987143</ele>
        <time>2021-11-03T16:19:17.032Z</time>
      </trkpt>
      <trkpt lat="40.085050" lon="-2.849896">
        <ele>865.677028</ele>
        <time>2021-11-03T16:19:17.032Z</time>
      </trkpt>
      <trkpt lat="40.084671" lon="-2.850004">
        <ele>864.876717</ele>
        <time>2021-11-03T16:19:17.032Z</time>
      </trkpt>
      <trkpt lat="40.084552" lon="-2.850026">
        <ele>864.628755</ele>
        <time>2021-11-03T16:19:17.032Z</time>
      </trkpt>
      <trkpt lat="40.084425" lon="-2.850034">
        <ele>864.366428</ele>
        <time>2021-11-03T16:19:17.032Z</time>
      </trkpt>
      <trkpt lat="40.084293" lon="-2.850034">
        <ele>864.094089</ele>
        <time>2021-11-03T16:19:17.032Z</time>
      </trkpt>
      <trkpt lat="40.083925" lon="-2.850008">
        <ele>863.333733</ele>
        <time>2021-11-03T16:19:17.032Z</time>
      </trkpt>
      <trkpt lat="40.083846" lon="-2.850003">
        <ele>863.170551</ele>
        <time>2021-11-03T16:19:17.032Z</time>
      </trkpt>
      <trkpt lat="40.083765" lon="-2.849997">
        <ele>863.003166</ele>
        <time>2021-11-03T16:19:17.032Z</time>
      </trkpt>
      <trkpt lat="40.083602" lon="-2.849982">
        <ele>863.012032</ele>
        <time>2021-11-03T16:19:17.032Z</time>
      </trkpt>
      <trkpt lat="40.083198" lon="-2.849959">
        <ele>863.038338</ele>
        <time>2021-11-03T16:19:17.032Z</time>
      </trkpt>
      <trkpt lat="40.083120" lon="-2.849971">
        <ele>863.043447</ele>
        <time>2021-11-03T16:19:17.032Z</time>
      </trkpt>
      <trkpt lat="40.082777" lon="-2.850082">
        <ele>863.066434</ele>
        <time>2021-11-03T16:19:17.032Z</time>
      </trkpt>
      <trkpt lat="40.082712" lon="-2.850100">
        <ele>863.070756</ele>
        <time>2021-11-03T16:19:17.032Z</time>
      </trkpt>
      <trkpt lat="40.082649" lon="-2.850121">
        <ele>863.074985</ele>
        <time>2021-11-03T16:19:17.032Z</time>
      </trkpt>
      <trkpt lat="40.082587" lon="-2.850149">
        <ele>863.079252</ele>
        <time>2021-11-03T16:19:17.032Z</time>
      </trkpt>
      <trkpt lat="40.082528" lon="-2.850187">
        <ele>863.083531</ele>
        <time>2021-11-03T16:19:17.032Z</time>
      </trkpt>
      <trkpt lat="40.082470" lon="-2.850234">
        <ele>863.087970</ele>
        <time>2021-11-03T16:19:17.032Z</time>
      </trkpt>
      <trkpt lat="40.082420" lon="-2.850286">
        <ele>863.092127</ele>
        <time>2021-11-03T16:19:17.032Z</time>
      </trkpt>
      <trkpt lat="40.082375" lon="-2.850343">
        <ele>863.096204</ele>
        <time>2021-11-03T16:19:17.032Z</time>
      </trkpt>
      <trkpt lat="40.082256" lon="-2.850520">
        <ele>863.107931</ele>
        <time>2021-11-03T16:19:17.032Z</time>
      </trkpt>
      <trkpt lat="40.082135" lon="-2.850681">
        <ele>863.142839</ele>
        <time>2021-11-03T16:19:17.032Z</time>
      </trkpt>
      <trkpt lat="40.082051" lon="-2.850776">
        <ele>863.393527</ele>
        <time>2021-11-03T16:19:17.032Z</time>
      </trkpt>
      <trkpt lat="40.082007" lon="-2.850822">
        <ele>863.520684</ele>
        <time>2021-11-03T16:19:17.032Z</time>
      </trkpt>
      <trkpt lat="40.081963" lon="-2.850865">
        <ele>863.644672</ele>
        <time>2021-11-03T16:19:17.032Z</time>
      </trkpt>
      <trkpt lat="40.081915" lon="-2.850905">
        <ele>863.773142</ele>
        <time>2021-11-03T16:19:17.032Z</time>
      </trkpt>
      <trkpt lat="40.081862" lon="-2.850942">
        <ele>863.908745</ele>
        <time>2021-11-03T16:19:17.032Z</time>
      </trkpt>
      <trkpt lat="40.081700" lon="-2.851041">
        <ele>864.312333</ele>
        <time>2021-11-03T16:19:17.032Z</time>
      </trkpt>
      <trkpt lat="40.081645" lon="-2.851072">
        <ele>864.447505</ele>
        <time>2021-11-03T16:19:17.032Z</time>
      </trkpt>
      <trkpt lat="40.081590" lon="-2.851102">
        <ele>864.582003</ele>
        <time>2021-11-03T16:19:17.032Z</time>
      </trkpt>
      <trkpt lat="40.081480" lon="-2.851162">
        <ele>864.851000</ele>
        <time>2021-11-03T16:19:17.032Z</time>
      </trkpt>
      <trkpt lat="40.081122" lon="-2.851330">
        <ele>865.709425</ele>
        <time>2021-11-03T16:19:17.032Z</time>
      </trkpt>
      <trkpt lat="40.081063" lon="-2.851356">
        <ele>865.849939</ele>
        <time>2021-11-03T16:19:17.032Z</time>
      </trkpt>
      <trkpt lat="40.080570" lon="-2.851509">
        <ele>866.993464</ele>
        <time>2021-11-03T16:19:17.032Z</time>
      </trkpt>
      <trkpt lat="40.080187" lon="-2.851608">
        <ele>866.362415</ele>
        <time>2021-11-03T16:19:17.032Z</time>
      </trkpt>
      <trkpt lat="40.079937" lon="-2.851662">
        <ele>865.693582</ele>
        <time>2021-11-03T16:19:17.032Z</time>
      </trkpt>
      <trkpt lat="40.079554" lon="-2.851742">
        <ele>864.669813</ele>
        <time>2021-11-03T16:19:17.032Z</time>
      </trkpt>
      <trkpt lat="40.079415" lon="-2.851772">
        <ele>864.297950</ele>
        <time>2021-11-03T16:19:17.032Z</time>
      </trkpt>
      <trkpt lat="40.079343" lon="-2.851787">
        <ele>864.105505</ele>
        <time>2021-11-03T16:19:17.032Z</time>
      </trkpt>
      <trkpt lat="40.079269" lon="-2.851804">
        <ele>863.907185</ele>
        <time>2021-11-03T16:19:17.032Z</time>
      </trkpt>
      <trkpt lat="40.079045" lon="-2.851855">
        <ele>863.307026</ele>
        <time>2021-11-03T16:19:17.032Z</time>
      </trkpt>
      <trkpt lat="40.078893" lon="-2.851884">
        <ele>862.901565</ele>
        <time>2021-11-03T16:19:17.032Z</time>
      </trkpt>
      <trkpt lat="40.078817" lon="-2.851895">
        <ele>862.699735</ele>
        <time>2021-11-03T16:19:17.032Z</time>
      </trkpt>
      <trkpt lat="40.078321" lon="-2.851956">
        <ele>861.904720</ele>
        <time>2021-11-03T16:19:17.032Z</time>
      </trkpt>
      <trkpt lat="40.078007" lon="-2.851981">
        <ele>861.487430</ele>
        <time>2021-11-03T16:19:17.032Z</time>
      </trkpt>
      <trkpt lat="40.077756" lon="-2.852006">
        <ele>861.153516</ele>
        <time>2021-11-03T16:19:17.032Z</time>
      </trkpt>
      <trkpt lat="40.077222" lon="-2.852066">
        <ele>860.442559</ele>
        <time>2021-11-03T16:19:17.032Z</time>
      </trkpt>
      <trkpt lat="40.076709" lon="-2.852144">
        <ele>858.857182</ele>
        <time>2021-11-03T16:19:17.032Z</time>
      </trkpt>
      <trkpt lat="40.076630" lon="-2.852155">
        <ele>858.420818</ele>
        <time>2021-11-03T16:19:17.032Z</time>
      </trkpt>
      <trkpt lat="40.076471" lon="-2.852185">
        <ele>857.538453</ele>
        <time>2021-11-03T16:19:17.032Z</time>
      </trkpt>
      <trkpt lat="40.076307" lon="-2.852240">
        <ele>856.608495</ele>
        <time>2021-11-03T16:19:17.032Z</time>
      </trkpt>
      <trkpt lat="40.076224" lon="-2.852279">
        <ele>856.124045</ele>
        <time>2021-11-03T16:19:17.032Z</time>
      </trkpt>
      <trkpt lat="40.076140" lon="-2.852328">
        <ele>855.618799</ele>
        <time>2021-11-03T16:19:17.032Z</time>
      </trkpt>
      <trkpt lat="40.075972" lon="-2.852438">
        <ele>854.586722</ele>
        <time>2021-11-03T16:19:17.032Z</time>
      </trkpt>
      <trkpt lat="40.075790" lon="-2.852551">
        <ele>853.480005</ele>
        <time>2021-11-03T16:19:17.032Z</time>
      </trkpt>
      <trkpt lat="40.075606" lon="-2.852634">
        <ele>852.410872</ele>
        <time>2021-11-03T16:19:17.032Z</time>
      </trkpt>
      <trkpt lat="40.075426" lon="-2.852694">
        <ele>851.390567</ele>
        <time>2021-11-03T16:19:17.032Z</time>
      </trkpt>
      <trkpt lat="40.075338" lon="-2.852718">
        <ele>850.896813</ele>
        <time>2021-11-03T16:19:17.032Z</time>
      </trkpt>
      <trkpt lat="40.075249" lon="-2.852736">
        <ele>850.402160</ele>
        <time>2021-11-03T16:19:17.032Z</time>
      </trkpt>
      <trkpt lat="40.075075" lon="-2.852767">
        <ele>849.793915</ele>
        <time>2021-11-03T16:19:17.032Z</time>
      </trkpt>
      <trkpt lat="40.074826" lon="-2.852834">
        <ele>849.081487</ele>
        <time>2021-11-03T16:19:17.032Z</time>
      </trkpt>
      <trkpt lat="40.074673" lon="-2.852885">
        <ele>848.638996</ele>
        <time>2021-11-03T16:19:17.032Z</time>
      </trkpt>
      <trkpt lat="40.074522" lon="-2.852915">
        <ele>848.210976</ele>
        <time>2021-11-03T16:19:17.032Z</time>
      </trkpt>
      <trkpt lat="40.074372" lon="-2.852933">
        <ele>847.788852</ele>
        <time>2021-11-03T16:19:17.032Z</time>
      </trkpt>
      <trkpt lat="40.074135" lon="-2.852920">
        <ele>847.124106</ele>
        <time>2021-11-03T16:19:17.032Z</time>
      </trkpt>
      <trkpt lat="40.074052" lon="-2.852911">
        <ele>846.890709</ele>
        <time>2021-11-03T16:19:17.032Z</time>
      </trkpt>
      <trkpt lat="40.073541" lon="-2.852890">
        <ele>845.457990</ele>
        <time>2021-11-03T16:19:17.032Z</time>
      </trkpt>
      <trkpt lat="40.073459" lon="-2.852895">
        <ele>845.227946</ele>
        <time>2021-11-03T16:19:17.032Z</time>
      </trkpt>
      <trkpt lat="40.073221" lon="-2.852910">
        <ele>844.508879</ele>
        <time>2021-11-03T16:19:17.032Z</time>
      </trkpt>
      <trkpt lat="40.072825" lon="-2.852946">
        <ele>843.295292</ele>
        <time>2021-11-03T16:19:17.032Z</time>
      </trkpt>
      <trkpt lat="40.072428" lon="-2.852973">
        <ele>842.079931</ele>
        <time>2021-11-03T16:19:17.032Z</time>
      </trkpt>
      <trkpt lat="40.072036" lon="-2.853019">
        <ele>840.876677</ele>
        <time>2021-11-03T16:19:17.032Z</time>
      </trkpt>
      <trkpt lat="40.071640" lon="-2.853090">
        <ele>839.654675</ele>
        <time>2021-11-03T16:19:17.032Z</time>
      </trkpt>
      <trkpt lat="40.071561" lon="-2.853118">
        <ele>839.364717</ele>
        <time>2021-11-03T16:19:17.032Z</time>
      </trkpt>
      <trkpt lat="40.071412" lon="-2.853197">
        <ele>838.784920</ele>
        <time>2021-11-03T16:19:17.032Z</time>
      </trkpt>
      <trkpt lat="40.071342" lon="-2.853244">
        <ele>838.501148</ele>
        <time>2021-11-03T16:19:17.032Z</time>
      </trkpt>
      <trkpt lat="40.071215" lon="-2.853345">
        <ele>837.965079</ele>
        <time>2021-11-03T16:19:17.032Z</time>
      </trkpt>
      <trkpt lat="40.070864" lon="-2.853627">
        <ele>836.479386</ele>
        <time>2021-11-03T16:19:17.032Z</time>
      </trkpt>
      <trkpt lat="40.070800" lon="-2.853664">
        <ele>836.227042</ele>
        <time>2021-11-03T16:19:17.032Z</time>
      </trkpt>
      <trkpt lat="40.070676" lon="-2.853746">
        <ele>835.725935</ele>
        <time>2021-11-03T16:19:17.032Z</time>
      </trkpt>
      <trkpt lat="40.070483" lon="-2.853880">
        <ele>834.937893</ele>
        <time>2021-11-03T16:19:17.032Z</time>
      </trkpt>
      <trkpt lat="40.070416" lon="-2.853928">
        <ele>834.662382</ele>
        <time>2021-11-03T16:19:17.032Z</time>
      </trkpt>
      <trkpt lat="40.070282" lon="-2.854034">
        <ele>834.097575</ele>
        <time>2021-11-03T16:19:17.032Z</time>
      </trkpt>
      <trkpt lat="40.070072" lon="-2.854205">
        <ele>833.205382</ele>
        <time>2021-11-03T16:19:17.032Z</time>
      </trkpt>
      <trkpt lat="40.070000" lon="-2.854265">
        <ele>833.018210</ele>
        <time>2021-11-03T16:19:17.032Z</time>
      </trkpt>
      <trkpt lat="40.069927" lon="-2.854330">
        <ele>832.858095</ele>
        <time>2021-11-03T16:19:17.032Z</time>
      </trkpt>
      <trkpt lat="40.069786" lon="-2.854476">
        <ele>832.532013</ele>
        <time>2021-11-03T16:19:17.032Z</time>
      </trkpt>
      <trkpt lat="40.069660" lon="-2.854645">
        <ele>832.204734</ele>
        <time>2021-11-03T16:19:17.032Z</time>
      </trkpt>
      <trkpt lat="40.069536" lon="-2.854883">
        <ele>831.805358</ele>
        <time>2021-11-03T16:19:17.032Z</time>
      </trkpt>
      <trkpt lat="40.069480" lon="-2.855013">
        <ele>831.598430</ele>
        <time>2021-11-03T16:19:17.032Z</time>
      </trkpt>
      <trkpt lat="40.069479" lon="-2.855115">
        <ele>831.456935</ele>
        <time>2021-11-03T16:19:17.032Z</time>
      </trkpt>
      <trkpt lat="40.069552" lon="-2.855155">
        <ele>831.313455</ele>
        <time>2021-11-03T16:19:17.032Z</time>
      </trkpt>
      <trkpt lat="40.069566" lon="-2.855154">
        <ele>831.288041</ele>
        <time>2021-11-03T16:19:17.032Z</time>
      </trkpt>
      <trkpt lat="40.069582" lon="-2.855162">
        <ele>831.256989</ele>
        <time>2021-11-03T16:19:17.032Z</time>
      </trkpt>
      <trkpt lat="40.069599" lon="-2.855168">
        <ele>831.225072</ele>
        <time>2021-11-03T16:19:17.032Z</time>
      </trkpt>
      <trkpt lat="40.069615" lon="-2.855160">
        <ele>831.194020</ele>
        <time>2021-11-03T16:19:17.032Z</time>
      </trkpt>
      <trkpt lat="40.069607" lon="-2.855132">
        <ele>831.152563</ele>
        <time>2021-11-03T16:19:17.032Z</time>
      </trkpt>
      <trkpt lat="40.069525" lon="-2.855134">
        <ele>831.003906</ele>
        <time>2021-11-03T16:19:17.032Z</time>
      </trkpt>
      <trkpt lat="40.069504" lon="-2.855127">
        <ele>830.964623</ele>
        <time>2021-11-03T16:19:17.032Z</time>
      </trkpt>
      <trkpt lat="40.069366" lon="-2.855063">
        <ele>830.699202</ele>
        <time>2021-11-03T16:19:17.032Z</time>
      </trkpt>
      <trkpt lat="40.069310" lon="-2.854987">
        <ele>830.552859</ele>
        <time>2021-11-03T16:19:17.032Z</time>
      </trkpt>
      <trkpt lat="40.069308" lon="-2.854952">
        <ele>830.504175</ele>
        <time>2021-11-03T16:19:17.032Z</time>
      </trkpt>
      <trkpt lat="40.069369" lon="-2.854824">
        <ele>830.295014</ele>
        <time>2021-11-03T16:19:17.032Z</time>
      </trkpt>
      <trkpt lat="40.069450" lon="-2.854647">
        <ele>830.008947</ele>
        <time>2021-11-03T16:19:17.032Z</time>
      </trkpt>
      <trkpt lat="40.069464" lon="-2.854605">
        <ele>829.945403</ele>
        <time>2021-11-03T16:19:17.032Z</time>
      </trkpt>
      <trkpt lat="40.069583" lon="-2.854289">
        <ele>829.866096</ele>
        <time>2021-11-03T16:19:17.032Z</time>
      </trkpt>
      <trkpt lat="40.069696" lon="-2.853958">
        <ele>829.849476</ele>
        <time>2021-11-03T16:19:17.032Z</time>
      </trkpt>
      <trkpt lat="40.069851" lon="-2.853528">
        <ele>829.827679</ele>
        <time>2021-11-03T16:19:17.032Z</time>
      </trkpt>
      <trkpt lat="40.069973" lon="-2.853185">
        <ele>829.810334</ele>
        <time>2021-11-03T16:19:17.032Z</time>
      </trkpt>
      <trkpt lat="40.070054" lon="-2.852953">
        <ele>829.798640</ele>
        <time>2021-11-03T16:19:17.032Z</time>
      </trkpt>
      <trkpt lat="40.070141" lon="-2.852710">
        <ele>829.786337</ele>
        <time>2021-11-03T16:19:17.032Z</time>
      </trkpt>
      <trkpt lat="40.070231" lon="-2.852468">
        <ele>829.773999</ele>
        <time>2021-11-03T16:19:17.032Z</time>
      </trkpt>
      <trkpt lat="40.070279" lon="-2.852346">
        <ele>829.746933</ele>
        <time>2021-11-03T16:19:17.032Z</time>
      </trkpt>
      <trkpt lat="40.070301" lon="-2.852286">
        <ele>829.730096</ele>
        <time>2021-11-03T16:19:17.032Z</time>
      </trkpt>
      <trkpt lat="40.070309" lon="-2.852168">
        <ele>829.700117</ele>
        <time>2021-11-03T16:19:17.032Z</time>
      </trkpt>
      <trkpt lat="40.070304" lon="-2.852106">
        <ele>829.684339</ele>
        <time>2021-11-03T16:19:17.032Z</time>
      </trkpt>
      <trkpt lat="40.070303" lon="-2.851968">
        <ele>829.649414</ele>
        <time>2021-11-03T16:19:17.032Z</time>
      </trkpt>
      <trkpt lat="40.070342" lon="-2.851756">
        <ele>829.594234</ele>
        <time>2021-11-03T16:19:17.032Z</time>
      </trkpt>
      <trkpt lat="40.070501" lon="-2.851308">
        <ele>829.469259</ele>
        <time>2021-11-03T16:19:17.032Z</time>
      </trkpt>
      <trkpt lat="40.070620" lon="-2.851080">
        <ele>829.399417</ele>
        <time>2021-11-03T16:19:17.032Z</time>
      </trkpt>
      <trkpt lat="40.070674" lon="-2.851003">
        <ele>829.372985</ele>
        <time>2021-11-03T16:19:17.032Z</time>
      </trkpt>
      <trkpt lat="40.070700" lon="-2.850973">
        <ele>829.361515</ele>
        <time>2021-11-03T16:19:17.032Z</time>
      </trkpt>
      <trkpt lat="40.070678" lon="-2.850975">
        <ele>829.354222</ele>
        <time>2021-11-03T16:19:17.032Z</time>
      </trkpt>
      <trkpt lat="40.070681" lon="-2.850973">
        <ele>829.353108</ele>
        <time>2021-11-03T16:19:17.032Z</time>
      </trkpt>
      <trkpt lat="40.070711" lon="-2.850948">
        <ele>829.341341</ele>
        <time>2021-11-03T16:19:17.032Z</time>
      </trkpt>
      <trkpt lat="40.070791" lon="-2.850861">
        <ele>829.306922</ele>
        <time>2021-11-03T16:19:17.032Z</time>
      </trkpt>
      <trkpt lat="40.070940" lon="-2.850694">
        <ele>829.242006</ele>
        <time>2021-11-03T16:19:17.032Z</time>
      </trkpt>
      <trkpt lat="40.070967" lon="-2.850647">
        <ele>829.227133</ele>
        <time>2021-11-03T16:19:17.032Z</time>
      </trkpt>
      <trkpt lat="40.071207" lon="-2.850194">
        <ele>829.281966</ele>
        <time>2021-11-03T16:19:17.032Z</time>
      </trkpt>
      <trkpt lat="40.071303" lon="-2.849969">
        <ele>829.357819</ele>
        <time>2021-11-03T16:19:17.032Z</time>
      </trkpt>
      <trkpt lat="40.071429" lon="-2.849674">
        <ele>829.457295</ele>
        <time>2021-11-03T16:19:17.032Z</time>
      </trkpt>
      <trkpt lat="40.071646" lon="-2.849158">
        <ele>829.630662</ele>
        <time>2021-11-03T16:19:17.032Z</time>
      </trkpt>
      <trkpt lat="40.071931" lon="-2.848491">
        <ele>829.855600</ele>
        <time>2021-11-03T16:19:17.032Z</time>
      </trkpt>
      <trkpt lat="40.071984" lon="-2.848356">
        <ele>829.974145</ele>
        <time>2021-11-03T16:19:17.032Z</time>
      </trkpt>
      <trkpt lat="40.072170" lon="-2.847902">
        <ele>830.490545</ele>
        <time>2021-11-03T16:19:17.032Z</time>
      </trkpt>
      <trkpt lat="40.072248" lon="-2.847711">
        <ele>830.707642</ele>
        <time>2021-11-03T16:19:17.032Z</time>
      </trkpt>
      <trkpt lat="40.072329" lon="-2.847518">
        <ele>830.928373</ele>
        <time>2021-11-03T16:19:17.032Z</time>
      </trkpt>
      <trkpt lat="40.072432" lon="-2.847255">
        <ele>831.224634</ele>
        <time>2021-11-03T16:19:17.032Z</time>
      </trkpt>
      <trkpt lat="40.072653" lon="-2.846648">
        <ele>831.898698</ele>
        <time>2021-11-03T16:19:17.032Z</time>
      </trkpt>
      <trkpt lat="40.072697" lon="-2.846514">
        <ele>832.044916</ele>
        <time>2021-11-03T16:19:17.032Z</time>
      </trkpt>
      <trkpt lat="40.072802" lon="-2.846168">
        <ele>832.319342</ele>
        <time>2021-11-03T16:19:17.032Z</time>
      </trkpt>
      <trkpt lat="40.072921" lon="-2.845748">
        <ele>832.536846</ele>
        <time>2021-11-03T16:19:17.032Z</time>
      </trkpt>
      <trkpt lat="40.073037" lon="-2.845189">
        <ele>832.818126</ele>
        <time>2021-11-03T16:19:17.032Z</time>
      </trkpt>
      <trkpt lat="40.073040" lon="-2.845117">
        <ele>832.853144</ele>
        <time>2021-11-03T16:19:17.032Z</time>
      </trkpt>
      <trkpt lat="40.073047" lon="-2.844888">
        <ele>832.964446</ele>
        <time>2021-11-03T16:19:17.032Z</time>
      </trkpt>
      <trkpt lat="40.073023" lon="-2.844738">
        <ele>833.038868</ele>
        <time>2021-11-03T16:19:17.032Z</time>
      </trkpt>
      <trkpt lat="40.073028" lon="-2.844364">
        <ele>833.220527</ele>
        <time>2021-11-03T16:19:17.032Z</time>
      </trkpt>
      <trkpt lat="40.073035" lon="-2.844290">
        <ele>833.256738</ele>
        <time>2021-11-03T16:19:17.032Z</time>
      </trkpt>
      <trkpt lat="40.073134" lon="-2.843707">
        <ele>833.547629</ele>
        <time>2021-11-03T16:19:17.032Z</time>
      </trkpt>
      <trkpt lat="40.073294" lon="-2.843135">
        <ele>833.844840</ele>
        <time>2021-11-03T16:19:17.032Z</time>
      </trkpt>
      <trkpt lat="40.073313" lon="-2.843063">
        <ele>833.882008</ele>
        <time>2021-11-03T16:19:17.032Z</time>
      </trkpt>
      <trkpt lat="40.073397" lon="-2.842557">
        <ele>834.134688</ele>
        <time>2021-11-03T16:19:17.032Z</time>
      </trkpt>
      <trkpt lat="40.073457" lon="-2.841817">
        <ele>834.497840</ele>
        <time>2021-11-03T16:19:17.032Z</time>
      </trkpt>
      <trkpt lat="40.073466" lon="-2.841747">
        <ele>834.485346</ele>
        <time>2021-11-03T16:19:17.032Z</time>
      </trkpt>
      <trkpt lat="40.073518" lon="-2.841466">
        <ele>834.243605</ele>
        <time>2021-11-03T16:19:17.032Z</time>
      </trkpt>
      <trkpt lat="40.073560" lon="-2.841171">
        <ele>833.992697</ele>
        <time>2021-11-03T16:19:17.032Z</time>
      </trkpt>
      <trkpt lat="40.073572" lon="-2.840941">
        <ele>833.799928</ele>
        <time>2021-11-03T16:19:17.032Z</time>
      </trkpt>
      <trkpt lat="40.073558" lon="-2.840637">
        <ele>833.545268</ele>
        <time>2021-11-03T16:19:17.032Z</time>
      </trkpt>
      <trkpt lat="40.073477" lon="-2.840258">
        <ele>833.216225</ele>
        <time>2021-11-03T16:19:17.032Z</time>
      </trkpt>
      <trkpt lat="40.073467" lon="-2.840178">
        <ele>833.148444</ele>
        <time>2021-11-03T16:19:17.032Z</time>
      </trkpt>
      <trkpt lat="40.073481" lon="-2.839841">
        <ele>832.866234</ele>
        <time>2021-11-03T16:19:17.032Z</time>
      </trkpt>
      <trkpt lat="40.073506" lon="-2.839677">
        <ele>832.726405</ele>
        <time>2021-11-03T16:19:17.032Z</time>
      </trkpt>
      <trkpt lat="40.073581" lon="-2.839279">
        <ele>832.711696</ele>
        <time>2021-11-03T16:19:17.032Z</time>
      </trkpt>
      <trkpt lat="40.073660" lon="-2.838973">
        <ele>832.975293</ele>
        <time>2021-11-03T16:19:17.032Z</time>
      </trkpt>
      <trkpt lat="40.073713" lon="-2.838831">
        <ele>833.104249</ele>
        <time>2021-11-03T16:19:17.032Z</time>
      </trkpt>
      <trkpt lat="40.073900" lon="-2.838368">
        <ele>833.531570</ele>
        <time>2021-11-03T16:19:17.032Z</time>
      </trkpt>
      <trkpt lat="40.073940" lon="-2.838238">
        <ele>833.645935</ele>
        <time>2021-11-03T16:19:17.032Z</time>
      </trkpt>
      <trkpt lat="40.073979" lon="-2.838105">
        <ele>833.762190</ele>
        <time>2021-11-03T16:19:17.032Z</time>
      </trkpt>
      <trkpt lat="40.074009" lon="-2.837969">
        <ele>833.877716</ele>
        <time>2021-11-03T16:19:17.032Z</time>
      </trkpt>
      <trkpt lat="40.074038" lon="-2.837832">
        <ele>833.993738</ele>
        <time>2021-11-03T16:19:17.032Z</time>
      </trkpt>
      <trkpt lat="40.074085" lon="-2.837464">
        <ele>834.298262</ele>
        <time>2021-11-03T16:19:17.032Z</time>
      </trkpt>
      <trkpt lat="40.074092" lon="-2.837389">
        <ele>834.359932</ele>
        <time>2021-11-03T16:19:17.032Z</time>
      </trkpt>
      <trkpt lat="40.074098" lon="-2.837313">
        <ele>834.422294</ele>
        <time>2021-11-03T16:19:17.032Z</time>
      </trkpt>
      <trkpt lat="40.074111" lon="-2.836843">
        <ele>834.705433</ele>
        <time>2021-11-03T16:19:17.032Z</time>
      </trkpt>
      <trkpt lat="40.074102" lon="-2.836606">
        <ele>834.841387</ele>
        <time>2021-11-03T16:19:17.032Z</time>
      </trkpt>
      <trkpt lat="40.074061" lon="-2.836154">
        <ele>835.102170</ele>
        <time>2021-11-03T16:19:17.032Z</time>
      </trkpt>
      <trkpt lat="40.074031" lon="-2.836088">
        <ele>835.146153</ele>
        <time>2021-11-03T16:19:17.032Z</time>
      </trkpt>
      <trkpt lat="40.073990" lon="-2.835945">
        <ele>835.233646</ele>
        <time>2021-11-03T16:19:17.032Z</time>
      </trkpt>
      <trkpt lat="40.073924" lon="-2.835812">
        <ele>835.324468</ele>
        <time>2021-11-03T16:19:17.032Z</time>
      </trkpt>
      <trkpt lat="40.073733" lon="-2.835341">
        <ele>835.629876</ele>
        <time>2021-11-03T16:19:17.032Z</time>
      </trkpt>
      <trkpt lat="40.073549" lon="-2.834948">
        <ele>836.024033</ele>
        <time>2021-11-03T16:19:17.032Z</time>
      </trkpt>
      <trkpt lat="40.073418" lon="-2.834704">
        <ele>836.476437</ele>
        <time>2021-11-03T16:19:17.032Z</time>
      </trkpt>
      <trkpt lat="40.073321" lon="-2.834535">
        <ele>836.797083</ele>
        <time>2021-11-03T16:19:17.032Z</time>
      </trkpt>
      <trkpt lat="40.073287" lon="-2.834484">
        <ele>836.899747</ele>
        <time>2021-11-03T16:19:17.032Z</time>
      </trkpt>
      <trkpt lat="40.073179" lon="-2.834335">
        <ele>837.211249</ele>
        <time>2021-11-03T16:19:17.032Z</time>
      </trkpt>
      <trkpt lat="40.072979" lon="-2.834075">
        <ele>837.770804</ele>
        <time>2021-11-03T16:19:17.032Z</time>
      </trkpt>
      <trkpt lat="40.072937" lon="-2.834018">
        <ele>837.890908</ele>
        <time>2021-11-03T16:19:17.032Z</time>
      </trkpt>
      <trkpt lat="40.072638" lon="-2.833606">
        <ele>838.752750</ele>
        <time>2021-11-03T16:19:17.032Z</time>
      </trkpt>
      <trkpt lat="40.072401" lon="-2.833317">
        <ele>839.386727</ele>
        <time>2021-11-03T16:19:17.032Z</time>
      </trkpt>
      <trkpt lat="40.072260" lon="-2.833153">
        <ele>839.506895</ele>
        <time>2021-11-03T16:19:17.032Z</time>
      </trkpt>
      <trkpt lat="40.072187" lon="-2.833072">
        <ele>839.567860</ele>
        <time>2021-11-03T16:19:17.032Z</time>
      </trkpt>
      <trkpt lat="40.072112" lon="-2.832984">
        <ele>839.632028</ele>
        <time>2021-11-03T16:19:17.032Z</time>
      </trkpt>
      <trkpt lat="40.072070" lon="-2.832941">
        <ele>839.665994</ele>
        <time>2021-11-03T16:19:17.032Z</time>
      </trkpt>
      <trkpt lat="40.071990" lon="-2.832861">
        <ele>839.730124</ele>
        <time>2021-11-03T16:19:17.032Z</time>
      </trkpt>
      <trkpt lat="40.071953" lon="-2.832818">
        <ele>839.761646</ele>
        <time>2021-11-03T16:19:17.032Z</time>
      </trkpt>
      <trkpt lat="40.071852" lon="-2.832698">
        <ele>839.848546</ele>
        <time>2021-11-03T16:19:17.032Z</time>
      </trkpt>
      <trkpt lat="40.071697" lon="-2.832527">
        <ele>839.977683</ele>
        <time>2021-11-03T16:19:17.032Z</time>
      </trkpt>
      <trkpt lat="40.071556" lon="-2.832392">
        <ele>840.088960</ele>
        <time>2021-11-03T16:19:17.032Z</time>
      </trkpt>
      <trkpt lat="40.071465" lon="-2.832303">
        <ele>840.161320</ele>
        <time>2021-11-03T16:19:17.032Z</time>
      </trkpt>
      <trkpt lat="40.071426" lon="-2.832249">
        <ele>840.197492</ele>
        <time>2021-11-03T16:19:17.032Z</time>
      </trkpt>
      <trkpt lat="40.071374" lon="-2.832121">
        <ele>840.268091</ele>
        <time>2021-11-03T16:19:17.032Z</time>
      </trkpt>
      <trkpt lat="40.071362" lon="-2.832052">
        <ele>840.302563</ele>
        <time>2021-11-03T16:19:17.032Z</time>
      </trkpt>
      <trkpt lat="40.071347" lon="-2.831589">
        <ele>840.526712</ele>
        <time>2021-11-03T16:19:17.032Z</time>
      </trkpt>
      <trkpt lat="40.071355" lon="-2.831429">
        <ele>840.448027</ele>
        <time>2021-11-03T16:19:17.032Z</time>
      </trkpt>
      <trkpt lat="40.071355" lon="-2.831296">
        <ele>840.382759</ele>
        <time>2021-11-03T16:19:17.032Z</time>
      </trkpt>
      <trkpt lat="40.071360" lon="-2.831246">
        <ele>840.358014</ele>
        <time>2021-11-03T16:19:17.032Z</time>
      </trkpt>
      <trkpt lat="40.071369" lon="-2.831203">
        <ele>840.336137</ele>
        <time>2021-11-03T16:19:17.032Z</time>
      </trkpt>
      <trkpt lat="40.071389" lon="-2.831121">
        <ele>840.293902</ele>
        <time>2021-11-03T16:19:17.032Z</time>
      </trkpt>
      <trkpt lat="40.071436" lon="-2.831052">
        <ele>840.248571</ele>
        <time>2021-11-03T16:19:17.032Z</time>
      </trkpt>
      <trkpt lat="40.071462" lon="-2.830998">
        <ele>840.217262</ele>
        <time>2021-11-03T16:19:17.032Z</time>
      </trkpt>
      <trkpt lat="40.071473" lon="-2.830811">
        <ele>840.125224</ele>
        <time>2021-11-03T16:19:17.032Z</time>
      </trkpt>
      <trkpt lat="40.071447" lon="-2.830629">
        <ele>840.034367</ele>
        <time>2021-11-03T16:19:17.032Z</time>
      </trkpt>
      <trkpt lat="40.071451" lon="-2.830568">
        <ele>840.004323</ele>
        <time>2021-11-03T16:19:17.032Z</time>
      </trkpt>
      <trkpt lat="40.071458" lon="-2.830505">
        <ele>839.973082</ele>
        <time>2021-11-03T16:19:17.032Z</time>
      </trkpt>
      <trkpt lat="40.071535" lon="-2.830229">
        <ele>839.828919</ele>
        <time>2021-11-03T16:19:17.032Z</time>
      </trkpt>
      <trkpt lat="40.071557" lon="-2.830161">
        <ele>839.792690</ele>
        <time>2021-11-03T16:19:17.032Z</time>
      </trkpt>
      <trkpt lat="40.071580" lon="-2.830091">
        <ele>839.755306</ele>
        <time>2021-11-03T16:19:17.032Z</time>
      </trkpt>
      <trkpt lat="40.071625" lon="-2.829950">
        <ele>839.680336</ele>
        <time>2021-11-03T16:19:17.032Z</time>
      </trkpt>
      <trkpt lat="40.071798" lon="-2.829461">
        <ele>839.415963</ele>
        <time>2021-11-03T16:19:17.032Z</time>
      </trkpt>
      <trkpt lat="40.071854" lon="-2.829328">
        <ele>839.391954</ele>
        <time>2021-11-03T16:19:17.032Z</time>
      </trkpt>
      <trkpt lat="40.071976" lon="-2.829113">
        <ele>839.463910</ele>
        <time>2021-11-03T16:19:17.032Z</time>
      </trkpt>
      <trkpt lat="40.072065" lon="-2.828982">
        <ele>839.511004</ele>
        <time>2021-11-03T16:19:17.032Z</time>
      </trkpt>
      <trkpt lat="40.072182" lon="-2.828851">
        <ele>839.565130</ele>
        <time>2021-11-03T16:19:17.032Z</time>
      </trkpt>
      <trkpt lat="40.072336" lon="-2.828759">
        <ele>839.624617</ele>
        <time>2021-11-03T16:19:17.032Z</time>
      </trkpt>
      <trkpt lat="40.072392" lon="-2.828746">
        <ele>839.644598</ele>
        <time>2021-11-03T16:19:17.032Z</time>
      </trkpt>
      <trkpt lat="40.072446" lon="-2.828744">
        <ele>839.663576</ele>
        <time>2021-11-03T16:19:17.032Z</time>
      </trkpt>
      <trkpt lat="40.072553" lon="-2.828772">
        <ele>839.701912</ele>
        <time>2021-11-03T16:19:17.032Z</time>
      </trkpt>
      <trkpt lat="40.072606" lon="-2.828795">
        <ele>839.721531</ele>
        <time>2021-11-03T16:19:17.032Z</time>
      </trkpt>
      <trkpt lat="40.072658" lon="-2.828823">
        <ele>839.741289</ele>
        <time>2021-11-03T16:19:17.032Z</time>
      </trkpt>
      <trkpt lat="40.072862" lon="-2.828970">
        <ele>839.823129</ele>
        <time>2021-11-03T16:19:17.032Z</time>
      </trkpt>
      <trkpt lat="40.073013" lon="-2.829091">
        <ele>839.885355</ele>
        <time>2021-11-03T16:19:17.032Z</time>
      </trkpt>
      <trkpt lat="40.073173" lon="-2.829197">
        <ele>839.948375</ele>
        <time>2021-11-03T16:19:17.032Z</time>
      </trkpt>
      <trkpt lat="40.073439" lon="-2.829385">
        <ele>840.003236</ele>
        <time>2021-11-03T16:19:17.032Z</time>
      </trkpt>
      <trkpt lat="40.073495" lon="-2.829418">
        <ele>840.002028</ele>
        <time>2021-11-03T16:19:17.032Z</time>
      </trkpt>
      <trkpt lat="40.073552" lon="-2.829447">
        <ele>840.000825</ele>
        <time>2021-11-03T16:19:17.032Z</time>
      </trkpt>
      <trkpt lat="40.073785" lon="-2.829538">
        <ele>839.996041</ele>
        <time>2021-11-03T16:19:17.032Z</time>
      </trkpt>
      <trkpt lat="40.073969" lon="-2.829559">
        <ele>839.992407</ele>
        <time>2021-11-03T16:19:17.032Z</time>
      </trkpt>
      <trkpt lat="40.074153" lon="-2.829588">
        <ele>839.988762</ele>
        <time>2021-11-03T16:19:17.032Z</time>
      </trkpt>
      <trkpt lat="40.074212" lon="-2.829612">
        <ele>839.987546</ele>
        <time>2021-11-03T16:19:17.032Z</time>
      </trkpt>
      <trkpt lat="40.074271" lon="-2.829645">
        <ele>839.986283</ele>
        <time>2021-11-03T16:19:17.032Z</time>
      </trkpt>
      <trkpt lat="40.074326" lon="-2.829684">
        <ele>839.985053</ele>
        <time>2021-11-03T16:19:17.032Z</time>
      </trkpt>
      <trkpt lat="40.074540" lon="-2.829865">
        <ele>839.980038</ele>
        <time>2021-11-03T16:19:17.032Z</time>
      </trkpt>
      <trkpt lat="40.074652" lon="-2.829938">
        <ele>839.977576</ele>
        <time>2021-11-03T16:19:17.032Z</time>
      </trkpt>
      <trkpt lat="40.074770" lon="-2.829983">
        <ele>839.975158</ele>
        <time>2021-11-03T16:19:17.032Z</time>
      </trkpt>
      <trkpt lat="40.074829" lon="-2.829992">
        <ele>839.973989</ele>
        <time>2021-11-03T16:19:17.032Z</time>
      </trkpt>
      <trkpt lat="40.074888" lon="-2.829989">
        <ele>839.972828</ele>
        <time>2021-11-03T16:19:17.032Z</time>
      </trkpt>
      <trkpt lat="40.075005" lon="-2.829956">
        <ele>839.971042</ele>
        <time>2021-11-03T16:19:17.032Z</time>
      </trkpt>
      <trkpt lat="40.075064" lon="-2.829928">
        <ele>839.976502</ele>
        <time>2021-11-03T16:19:17.032Z</time>
      </trkpt>
      <trkpt lat="40.075222" lon="-2.829817">
        <ele>839.992105</ele>
        <time>2021-11-03T16:19:17.032Z</time>
      </trkpt>
      <trkpt lat="40.075312" lon="-2.829724">
        <ele>840.002085</ele>
        <time>2021-11-03T16:19:17.032Z</time>
      </trkpt>
      <trkpt lat="40.075396" lon="-2.829614">
        <ele>840.012428</ele>
        <time>2021-11-03T16:19:17.032Z</time>
      </trkpt>
      <trkpt lat="40.075464" lon="-2.829481">
        <ele>840.023075</ele>
        <time>2021-11-03T16:19:17.032Z</time>
      </trkpt>
      <trkpt lat="40.075490" lon="-2.829406">
        <ele>840.028555</ele>
        <time>2021-11-03T16:19:17.032Z</time>
      </trkpt>
      <trkpt lat="40.075511" lon="-2.829329">
        <ele>840.033996</ele>
        <time>2021-11-03T16:19:17.032Z</time>
      </trkpt>
      <trkpt lat="40.075528" lon="-2.829250">
        <ele>840.039458</ele>
        <time>2021-11-03T16:19:17.032Z</time>
      </trkpt>
      <trkpt lat="40.075544" lon="-2.829171">
        <ele>840.044897</ele>
        <time>2021-11-03T16:19:17.032Z</time>
      </trkpt>
      <trkpt lat="40.075566" lon="-2.829007">
        <ele>840.055979</ele>
        <time>2021-11-03T16:19:17.032Z</time>
      </trkpt>
      <trkpt lat="40.075570" lon="-2.828924">
        <ele>840.061514</ele>
        <time>2021-11-03T16:19:17.032Z</time>
      </trkpt>
      <trkpt lat="40.075563" lon="-2.828375">
        <ele>840.098059</ele>
        <time>2021-11-03T16:19:17.032Z</time>
      </trkpt>
      <trkpt lat="40.075583" lon="-2.827993">
        <ele>840.123544</ele>
        <time>2021-11-03T16:19:17.032Z</time>
      </trkpt>
      <trkpt lat="40.075586" lon="-2.827894">
        <ele>840.140331</ele>
        <time>2021-11-03T16:19:17.032Z</time>
      </trkpt>
      <trkpt lat="40.075594" lon="-2.827843">
        <ele>840.155146</ele>
        <time>2021-11-03T16:19:17.032Z</time>
      </trkpt>
      <trkpt lat="40.075628" lon="-2.827736">
        <ele>840.188116</ele>
        <time>2021-11-03T16:19:17.032Z</time>
      </trkpt>
      <trkpt lat="40.075782" lon="-2.827414">
        <ele>840.296175</ele>
        <time>2021-11-03T16:19:17.032Z</time>
      </trkpt>
      <trkpt lat="40.075807" lon="-2.827356">
        <ele>840.315119</ele>
        <time>2021-11-03T16:19:17.032Z</time>
      </trkpt>
      <trkpt lat="40.075878" lon="-2.827181">
        <ele>840.371486</ele>
        <time>2021-11-03T16:19:17.032Z</time>
      </trkpt>
      <trkpt lat="40.075880" lon="-2.827173">
        <ele>840.373881</ele>
        <time>2021-11-03T16:19:17.032Z</time>
      </trkpt>
      <trkpt lat="40.075884" lon="-2.827168">
        <ele>840.375940</ele>
        <time>2021-11-03T16:19:17.032Z</time>
      </trkpt>
      <trkpt lat="40.075882" lon="-2.827173">
        <ele>840.377545</ele>
        <time>2021-11-03T16:19:17.032Z</time>
      </trkpt>
      <trkpt lat="40.075877" lon="-2.827185">
        <ele>840.381434</ele>
        <time>2021-11-03T16:19:17.032Z</time>
      </trkpt>
      <trkpt lat="40.075830" lon="-2.827277">
        <ele>840.412913</ele>
        <time>2021-11-03T16:19:17.032Z</time>
      </trkpt>
      <trkpt lat="40.075791" lon="-2.827382">
        <ele>840.446127</ele>
        <time>2021-11-03T16:19:17.032Z</time>
      </trkpt>
      <trkpt lat="40.075747" lon="-2.827484">
        <ele>840.479449</ele>
        <time>2021-11-03T16:19:17.032Z</time>
      </trkpt>
      <trkpt lat="40.075664" lon="-2.827651">
        <ele>840.536117</ele>
        <time>2021-11-03T16:19:17.032Z</time>
      </trkpt>
      <trkpt lat="40.075633" lon="-2.827696">
        <ele>840.553348</ele>
        <time>2021-11-03T16:19:17.032Z</time>
      </trkpt>
      <trkpt lat="40.075596" lon="-2.827740">
        <ele>840.571952</ele>
        <time>2021-11-03T16:19:17.032Z</time>
      </trkpt>
      <trkpt lat="40.075503" lon="-2.827810">
        <ele>840.611865</ele>
        <time>2021-11-03T16:19:17.032Z</time>
      </trkpt>
      <trkpt lat="40.075448" lon="-2.827821">
        <ele>840.632558</ele>
        <time>2021-11-03T16:19:17.032Z</time>
      </trkpt>
      <trkpt lat="40.075391" lon="-2.827809">
        <ele>840.654029</ele>
        <time>2021-11-03T16:19:17.032Z</time>
      </trkpt>
      <trkpt lat="40.075306" lon="-2.827718">
        <ele>840.694894</ele>
        <time>2021-11-03T16:19:17.032Z</time>
      </trkpt>
      <trkpt lat="40.075281" lon="-2.827650">
        <ele>840.716362</ele>
        <time>2021-11-03T16:19:17.032Z</time>
      </trkpt>
      <trkpt lat="40.075265" lon="-2.827580">
        <ele>840.737152</ele>
        <time>2021-11-03T16:19:17.032Z</time>
      </trkpt>
      <trkpt lat="40.075253" lon="-2.827370">
        <ele>840.805255</ele>
        <time>2021-11-03T16:19:17.032Z</time>
      </trkpt>
      <trkpt lat="40.075243" lon="-2.827170">
        <ele>841.270725</ele>
        <time>2021-11-03T16:19:17.032Z</time>
      </trkpt>
      <trkpt lat="40.075241" lon="-2.827024">
        <ele>841.609848</ele>
        <time>2021-11-03T16:19:17.032Z</time>
      </trkpt>
      <trkpt lat="40.075242" lon="-2.826713">
        <ele>842.332120</ele>
        <time>2021-11-03T16:19:17.032Z</time>
      </trkpt>
      <trkpt lat="40.075245" lon="-2.826480">
        <ele>842.873314</ele>
        <time>2021-11-03T16:19:17.032Z</time>
      </trkpt>
      <trkpt lat="40.075231" lon="-2.826245">
        <ele>843.420728</ele>
        <time>2021-11-03T16:19:17.032Z</time>
      </trkpt>
      <trkpt lat="40.075216" lon="-2.826171">
        <ele>843.598513</ele>
        <time>2021-11-03T16:19:17.032Z</time>
      </trkpt>
      <trkpt lat="40.075169" lon="-2.825971">
        <ele>844.084403</ele>
        <time>2021-11-03T16:19:17.032Z</time>
      </trkpt>
      <trkpt lat="40.075154" lon="-2.825910">
        <ele>844.233204</ele>
        <time>2021-11-03T16:19:17.032Z</time>
      </trkpt>
      <trkpt lat="40.075102" lon="-2.825666">
        <ele>844.821436</ele>
        <time>2021-11-03T16:19:17.032Z</time>
      </trkpt>
      <trkpt lat="40.075079" lon="-2.825544">
        <ele>845.113241</ele>
        <time>2021-11-03T16:19:17.032Z</time>
      </trkpt>
      <trkpt lat="40.075070" lon="-2.825483">
        <ele>845.257517</ele>
        <time>2021-11-03T16:19:17.032Z</time>
      </trkpt>
      <trkpt lat="40.075053" lon="-2.825301">
        <ele>845.683331</ele>
        <time>2021-11-03T16:19:17.032Z</time>
      </trkpt>
      <trkpt lat="40.075052" lon="-2.825119">
        <ele>846.106019</ele>
        <time>2021-11-03T16:19:17.032Z</time>
      </trkpt>
      <trkpt lat="40.075057" lon="-2.824873">
        <ele>846.648772</ele>
        <time>2021-11-03T16:19:17.032Z</time>
      </trkpt>
      <trkpt lat="40.075054" lon="-2.824807">
        <ele>846.791873</ele>
        <time>2021-11-03T16:19:17.032Z</time>
      </trkpt>
      <trkpt lat="40.075050" lon="-2.824742">
        <ele>846.933012</ele>
        <time>2021-11-03T16:19:17.032Z</time>
      </trkpt>
      <trkpt lat="40.075048" lon="-2.824677">
        <ele>847.073811</ele>
        <time>2021-11-03T16:19:17.032Z</time>
      </trkpt>
      <trkpt lat="40.075024" lon="-2.824209">
        <ele>848.089014</ele>
        <time>2021-11-03T16:19:17.032Z</time>
      </trkpt>
      <trkpt lat="40.075016" lon="-2.824143">
        <ele>848.233645</ele>
        <time>2021-11-03T16:19:17.032Z</time>
      </trkpt>
      <trkpt lat="40.074936" lon="-2.823777">
        <ele>849.057495</ele>
        <time>2021-11-03T16:19:17.032Z</time>
      </trkpt>
      <trkpt lat="40.074817" lon="-2.823387">
        <ele>849.966241</ele>
        <time>2021-11-03T16:19:17.032Z</time>
      </trkpt>
      <trkpt lat="40.074772" lon="-2.823267">
        <ele>850.255479</ele>
        <time>2021-11-03T16:19:17.032Z</time>
      </trkpt>
      <trkpt lat="40.074738" lon="-2.823145">
        <ele>850.536503</ele>
        <time>2021-11-03T16:19:17.032Z</time>
      </trkpt>
      <trkpt lat="40.074725" lon="-2.823090">
        <ele>850.661094</ele>
        <time>2021-11-03T16:19:17.032Z</time>
      </trkpt>
      <trkpt lat="40.074698" lon="-2.822985">
        <ele>850.900844</ele>
        <time>2021-11-03T16:19:17.032Z</time>
      </trkpt>
      <trkpt lat="40.074648" lon="-2.822833">
        <ele>851.258942</ele>
        <time>2021-11-03T16:19:17.032Z</time>
      </trkpt>
      <trkpt lat="40.074614" lon="-2.822728">
        <ele>851.596770</ele>
        <time>2021-11-03T16:19:17.032Z</time>
      </trkpt>
      <trkpt lat="40.074510" lon="-2.822445">
        <ele>852.654981</ele>
        <time>2021-11-03T16:19:17.032Z</time>
      </trkpt>
      <trkpt lat="40.074492" lon="-2.822397">
        <ele>852.835159</ele>
        <time>2021-11-03T16:19:17.032Z</time>
      </trkpt>
      <trkpt lat="40.074413" lon="-2.822190">
        <ele>853.614860</ele>
        <time>2021-11-03T16:19:17.032Z</time>
      </trkpt>
      <trkpt lat="40.074353" lon="-2.822031">
        <ele>854.212428</ele>
        <time>2021-11-03T16:19:17.032Z</time>
      </trkpt>
      <trkpt lat="40.074203" lon="-2.821667">
        <ele>855.605971</ele>
        <time>2021-11-03T16:19:17.032Z</time>
      </trkpt>
      <trkpt lat="40.074182" lon="-2.821614">
        <ele>855.807148</ele>
        <time>2021-11-03T16:19:17.032Z</time>
      </trkpt>
      <trkpt lat="40.074163" lon="-2.821560">
        <ele>856.007487</ele>
        <time>2021-11-03T16:19:17.032Z</time>
      </trkpt>
      <trkpt lat="40.074125" lon="-2.821454">
        <ele>856.402049</ele>
        <time>2021-11-03T16:19:17.032Z</time>
      </trkpt>
      <trkpt lat="40.074054" lon="-2.821243">
        <ele>857.179000</ele>
        <time>2021-11-03T16:19:17.032Z</time>
      </trkpt>
      <trkpt lat="40.073987" lon="-2.821036">
        <ele>857.936591</ele>
        <time>2021-11-03T16:19:17.032Z</time>
      </trkpt>
      <trkpt lat="40.073938" lon="-2.820887">
        <ele>858.483246</ele>
        <time>2021-11-03T16:19:17.032Z</time>
      </trkpt>
      <trkpt lat="40.073881" lon="-2.820740">
        <ele>859.038728</ele>
        <time>2021-11-03T16:19:17.032Z</time>
      </trkpt>
      <trkpt lat="40.073824" lon="-2.820599">
        <ele>859.484569</ele>
        <time>2021-11-03T16:19:17.032Z</time>
      </trkpt>
      <trkpt lat="40.073769" lon="-2.820457">
        <ele>859.862881</ele>
        <time>2021-11-03T16:19:17.032Z</time>
      </trkpt>
      <trkpt lat="40.073729" lon="-2.820359">
        <ele>860.126895</ele>
        <time>2021-11-03T16:19:17.032Z</time>
      </trkpt>
      <trkpt lat="40.073692" lon="-2.820261">
        <ele>860.386653</ele>
        <time>2021-11-03T16:19:17.032Z</time>
      </trkpt>
      <trkpt lat="40.073649" lon="-2.820166">
        <ele>860.649017</ele>
        <time>2021-11-03T16:19:17.032Z</time>
      </trkpt>
      <trkpt lat="40.073629" lon="-2.820117">
        <ele>860.781024</ele>
        <time>2021-11-03T16:19:17.032Z</time>
      </trkpt>
      <trkpt lat="40.073607" lon="-2.820067">
        <ele>860.918122</ele>
        <time>2021-11-03T16:19:17.032Z</time>
      </trkpt>
      <trkpt lat="40.073524" lon="-2.819857">
        <ele>861.479949</ele>
        <time>2021-11-03T16:19:17.032Z</time>
      </trkpt>
      <trkpt lat="40.073484" lon="-2.819743">
        <ele>861.778058</ele>
        <time>2021-11-03T16:19:17.032Z</time>
      </trkpt>
      <trkpt lat="40.073297" lon="-2.819286">
        <ele>863.009918</ele>
        <time>2021-11-03T16:19:17.032Z</time>
      </trkpt>
      <trkpt lat="40.073191" lon="-2.819032">
        <ele>863.697634</ele>
        <time>2021-11-03T16:19:17.032Z</time>
      </trkpt>
      <trkpt lat="40.073163" lon="-2.818965">
        <ele>863.879098</ele>
        <time>2021-11-03T16:19:17.032Z</time>
      </trkpt>
      <trkpt lat="40.073107" lon="-2.818828">
        <ele>864.248301</ele>
        <time>2021-11-03T16:19:17.032Z</time>
      </trkpt>
      <trkpt lat="40.073048" lon="-2.818683">
        <ele>864.638668</ele>
        <time>2021-11-03T16:19:17.032Z</time>
      </trkpt>
      <trkpt lat="40.072933" lon="-2.818397">
        <ele>865.002776</ele>
        <time>2021-11-03T16:19:17.032Z</time>
      </trkpt>
      <trkpt lat="40.072900" lon="-2.818331">
        <ele>865.053609</ele>
        <time>2021-11-03T16:19:17.032Z</time>
      </trkpt>
      <trkpt lat="40.072863" lon="-2.818266">
        <ele>865.105843</ele>
        <time>2021-11-03T16:19:17.032Z</time>
      </trkpt>
      <trkpt lat="40.072779" lon="-2.818152">
        <ele>865.207883</ele>
        <time>2021-11-03T16:19:17.032Z</time>
      </trkpt>
      <trkpt lat="40.072682" lon="-2.818043">
        <ele>865.315675</ele>
        <time>2021-11-03T16:19:17.032Z</time>
      </trkpt>
      <trkpt lat="40.072428" lon="-2.817817">
        <ele>865.574590</ele>
        <time>2021-11-03T16:19:17.032Z</time>
      </trkpt>
      <trkpt lat="40.072273" lon="-2.817646">
        <ele>865.745508</ele>
        <time>2021-11-03T16:19:17.032Z</time>
      </trkpt>
      <trkpt lat="40.072165" lon="-2.817514">
        <ele>865.870106</ele>
        <time>2021-11-03T16:19:17.032Z</time>
      </trkpt>
      <trkpt lat="40.072022" lon="-2.817340">
        <ele>866.034740</ele>
        <time>2021-11-03T16:19:17.032Z</time>
      </trkpt>
      <trkpt lat="40.071871" lon="-2.817143">
        <ele>866.214523</ele>
        <time>2021-11-03T16:19:17.032Z</time>
      </trkpt>
      <trkpt lat="40.071789" lon="-2.817040">
        <ele>866.310358</ele>
        <time>2021-11-03T16:19:17.032Z</time>
      </trkpt>
      <trkpt lat="40.071620" lon="-2.816836">
        <ele>866.409626</ele>
        <time>2021-11-03T16:19:17.032Z</time>
      </trkpt>
      <trkpt lat="40.071539" lon="-2.816730">
        <ele>866.439162</ele>
        <time>2021-11-03T16:19:17.032Z</time>
      </trkpt>
      <trkpt lat="40.071158" lon="-2.816221">
        <ele>866.579552</ele>
        <time>2021-11-03T16:19:17.032Z</time>
      </trkpt>
      <trkpt lat="40.070989" lon="-2.815982">
        <ele>866.643714</ele>
        <time>2021-11-03T16:19:17.032Z</time>
      </trkpt>
      <trkpt lat="40.070780" lon="-2.815696">
        <ele>866.721688</ele>
        <time>2021-11-03T16:19:17.032Z</time>
      </trkpt>
      <trkpt lat="40.070541" lon="-2.815416">
        <ele>866.804393</ele>
        <time>2021-11-03T16:19:17.032Z</time>
      </trkpt>
      <trkpt lat="40.070358" lon="-2.815173">
        <ele>866.867866</ele>
        <time>2021-11-03T16:19:17.032Z</time>
      </trkpt>
      <trkpt lat="40.070251" lon="-2.815025">
        <ele>866.904268</ele>
        <time>2021-11-03T16:19:17.032Z</time>
      </trkpt>
      <trkpt lat="40.070216" lon="-2.814976">
        <ele>866.916252</ele>
        <time>2021-11-03T16:19:17.032Z</time>
      </trkpt>
      <trkpt lat="40.070143" lon="-2.814879">
        <ele>866.940575</ele>
        <time>2021-11-03T16:19:17.032Z</time>
      </trkpt>
      <trkpt lat="40.070070" lon="-2.814782">
        <ele>866.964899</ele>
        <time>2021-11-03T16:19:17.032Z</time>
      </trkpt>
      <trkpt lat="40.069926" lon="-2.814579">
        <ele>867.014387</ele>
        <time>2021-11-03T16:19:17.032Z</time>
      </trkpt>
      <trkpt lat="40.069848" lon="-2.814476">
        <ele>867.040295</ele>
        <time>2021-11-03T16:19:17.032Z</time>
      </trkpt>
      <trkpt lat="40.069576" lon="-2.814064">
        <ele>867.137579</ele>
        <time>2021-11-03T16:19:17.032Z</time>
      </trkpt>
      <trkpt lat="40.069545" lon="-2.813993">
        <ele>867.152194</ele>
        <time>2021-11-03T16:19:17.032Z</time>
      </trkpt>
      <trkpt lat="40.069426" lon="-2.813638">
        <ele>867.221486</ele>
        <time>2021-11-03T16:19:17.032Z</time>
      </trkpt>
      <trkpt lat="40.069377" lon="-2.813493">
        <ele>867.249826</ele>
        <time>2021-11-03T16:19:17.032Z</time>
      </trkpt>
      <trkpt lat="40.069308" lon="-2.813359">
        <ele>867.285636</ele>
        <time>2021-11-03T16:19:17.032Z</time>
      </trkpt>
      <trkpt lat="40.069216" lon="-2.813252">
        <ele>867.321776</ele>
        <time>2021-11-03T16:19:17.032Z</time>
      </trkpt>
      <trkpt lat="40.069164" lon="-2.813209">
        <ele>867.339834</ele>
        <time>2021-11-03T16:19:17.032Z</time>
      </trkpt>
      <trkpt lat="40.068958" lon="-2.813063">
        <ele>867.408601</ele>
        <time>2021-11-03T16:19:17.032Z</time>
      </trkpt>
      <trkpt lat="40.068907" lon="-2.813029">
        <ele>867.425402</ele>
        <time>2021-11-03T16:19:17.032Z</time>
      </trkpt>
      <trkpt lat="40.068760" lon="-2.812927">
        <ele>867.474242</ele>
        <time>2021-11-03T16:19:17.032Z</time>
      </trkpt>
      <trkpt lat="40.068567" lon="-2.812780">
        <ele>867.539794</ele>
        <time>2021-11-03T16:19:17.032Z</time>
      </trkpt>
      <trkpt lat="40.068160" lon="-2.812521">
        <ele>867.672634</ele>
        <time>2021-11-03T16:19:17.032Z</time>
      </trkpt>
      <trkpt lat="40.067760" lon="-2.812237">
        <ele>868.098524</ele>
        <time>2021-11-03T16:19:17.032Z</time>
      </trkpt>
      <trkpt lat="40.067613" lon="-2.812133">
        <ele>868.682483</ele>
        <time>2021-11-03T16:19:17.032Z</time>
      </trkpt>
      <trkpt lat="40.067514" lon="-2.812067">
        <ele>869.070735</ele>
        <time>2021-11-03T16:19:17.032Z</time>
      </trkpt>
      <trkpt lat="40.067418" lon="-2.812004">
        <ele>869.446014</ele>
        <time>2021-11-03T16:19:17.032Z</time>
      </trkpt>
      <trkpt lat="40.067229" lon="-2.811873">
        <ele>870.193392</ele>
        <time>2021-11-03T16:19:17.032Z</time>
      </trkpt>
      <trkpt lat="40.067183" lon="-2.811840">
        <ele>870.376711</ele>
        <time>2021-11-03T16:19:17.032Z</time>
      </trkpt>
      <trkpt lat="40.067046" lon="-2.811743">
        <ele>870.921042</ele>
        <time>2021-11-03T16:19:17.032Z</time>
      </trkpt>
      <trkpt lat="40.066905" lon="-2.811646">
        <ele>871.477698</ele>
        <time>2021-11-03T16:19:17.032Z</time>
      </trkpt>
      <trkpt lat="40.066763" lon="-2.811548">
        <ele>872.038692</ele>
        <time>2021-11-03T16:19:17.032Z</time>
      </trkpt>
      <trkpt lat="40.066671" lon="-2.811482">
        <ele>872.405330</ele>
        <time>2021-11-03T16:19:17.032Z</time>
      </trkpt>
      <trkpt lat="40.066392" lon="-2.811298">
        <ele>873.497078</ele>
        <time>2021-11-03T16:19:17.032Z</time>
      </trkpt>
      <trkpt lat="40.066349" lon="-2.811271">
        <ele>873.663735</ele>
        <time>2021-11-03T16:19:17.032Z</time>
      </trkpt>
      <trkpt lat="40.066308" lon="-2.811239">
        <ele>873.830568</ele>
        <time>2021-11-03T16:19:17.032Z</time>
      </trkpt>
      <trkpt lat="40.066270" lon="-2.811203">
        <ele>873.994534</ele>
        <time>2021-11-03T16:19:17.032Z</time>
      </trkpt>
      <trkpt lat="40.066164" lon="-2.811094">
        <ele>874.653403</ele>
        <time>2021-11-03T16:19:17.032Z</time>
      </trkpt>
      <trkpt lat="40.066132" lon="-2.811054">
        <ele>874.880134</ele>
        <time>2021-11-03T16:19:17.032Z</time>
      </trkpt>
      <trkpt lat="40.066067" lon="-2.810972">
        <ele>875.342719</ele>
        <time>2021-11-03T16:19:17.032Z</time>
      </trkpt>
      <trkpt lat="40.065944" lon="-2.810797">
        <ele>876.273723</ele>
        <time>2021-11-03T16:19:17.032Z</time>
      </trkpt>
      <trkpt lat="40.065886" lon="-2.810716">
        <ele>876.708364</ele>
        <time>2021-11-03T16:19:17.032Z</time>
      </trkpt>
      <trkpt lat="40.065831" lon="-2.810639">
        <ele>877.121067</ele>
        <time>2021-11-03T16:19:17.032Z</time>
      </trkpt>
      <trkpt lat="40.065714" lon="-2.810474">
        <ele>878.002442</ele>
        <time>2021-11-03T16:19:17.032Z</time>
      </trkpt>
      <trkpt lat="40.065633" lon="-2.810369">
        <ele>878.586612</ele>
        <time>2021-11-03T16:19:17.032Z</time>
      </trkpt>
      <trkpt lat="40.065597" lon="-2.810309">
        <ele>878.885349</ele>
        <time>2021-11-03T16:19:17.032Z</time>
      </trkpt>
      <trkpt lat="40.065588" lon="-2.810245">
        <ele>879.140319</ele>
        <time>2021-11-03T16:19:17.032Z</time>
      </trkpt>
      <trkpt lat="40.065599" lon="-2.810222">
        <ele>879.246591</ele>
        <time>2021-11-03T16:19:17.032Z</time>
      </trkpt>
      <trkpt lat="40.065625" lon="-2.810185">
        <ele>879.443412</ele>
        <time>2021-11-03T16:19:17.032Z</time>
      </trkpt>
      <trkpt lat="40.065633" lon="-2.810183">
        <ele>879.485114</ele>
        <time>2021-11-03T16:19:17.032Z</time>
      </trkpt>
      <trkpt lat="40.065635" lon="-2.810188">
        <ele>879.507221</ele>
        <time>2021-11-03T16:19:17.032Z</time>
      </trkpt>
      <trkpt lat="40.065639" lon="-2.810182">
        <ele>879.538400</ele>
        <time>2021-11-03T16:19:17.032Z</time>
      </trkpt>
      <trkpt lat="40.065648" lon="-2.810169">
        <ele>879.607087</ele>
        <time>2021-11-03T16:19:17.032Z</time>
      </trkpt>
      <trkpt lat="40.065653" lon="-2.810158">
        <ele>879.657217</ele>
        <time>2021-11-03T16:19:17.032Z</time>
      </trkpt>
      <trkpt lat="40.065653" lon="-2.810145">
        <ele>879.708155</ele>
        <time>2021-11-03T16:19:17.032Z</time>
      </trkpt>
      <trkpt lat="40.065640" lon="-2.810113">
        <ele>879.850112</ele>
        <time>2021-11-03T16:19:17.032Z</time>
      </trkpt>
      <trkpt lat="40.065647" lon="-2.810096">
        <ele>879.925753</ele>
        <time>2021-11-03T16:19:17.032Z</time>
      </trkpt>
      <trkpt lat="40.065661" lon="-2.810109">
        <ele>880.013687</ele>
        <time>2021-11-03T16:19:17.032Z</time>
      </trkpt>
      <trkpt lat="40.065664" lon="-2.810115">
        <ele>880.041770</ele>
        <time>2021-11-03T16:19:17.032Z</time>
      </trkpt>
      <trkpt lat="40.065657" lon="-2.810126">
        <ele>880.097825</ele>
        <time>2021-11-03T16:19:17.032Z</time>
      </trkpt>
      <trkpt lat="40.065643" lon="-2.810137">
        <ele>880.181465</ele>
        <time>2021-11-03T16:19:17.032Z</time>
      </trkpt>
      <trkpt lat="40.065625" lon="-2.810141">
        <ele>880.274946</ele>
        <time>2021-11-03T16:19:17.032Z</time>
      </trkpt>
      <trkpt lat="40.065554" lon="-2.810117">
        <ele>880.650426</ele>
        <time>2021-11-03T16:19:17.032Z</time>
      </trkpt>
      <trkpt lat="40.065394" lon="-2.810098">
        <ele>881.472988</ele>
        <time>2021-11-03T16:19:17.032Z</time>
      </trkpt>
      <trkpt lat="40.065363" lon="-2.810092">
        <ele>881.633437</ele>
        <time>2021-11-03T16:19:17.032Z</time>
      </trkpt>
      <trkpt lat="40.065332" lon="-2.810085">
        <ele>881.794506</ele>
        <time>2021-11-03T16:19:17.032Z</time>
      </trkpt>
      <trkpt lat="40.065205" lon="-2.810040">
        <ele>882.468218</ele>
        <time>2021-11-03T16:19:17.032Z</time>
      </trkpt>
      <trkpt lat="40.065145" lon="-2.810018">
        <ele>882.787278</ele>
        <time>2021-11-03T16:19:17.032Z</time>
      </trkpt>
      <trkpt lat="40.065055" lon="-2.809968">
        <ele>883.282334</ele>
        <time>2021-11-03T16:19:17.032Z</time>
      </trkpt>
      <trkpt lat="40.065025" lon="-2.809949">
        <ele>883.394154</ele>
        <time>2021-11-03T16:19:17.032Z</time>
      </trkpt>
      <trkpt lat="40.064909" lon="-2.809845">
        <ele>883.866011</ele>
        <time>2021-11-03T16:19:17.032Z</time>
      </trkpt>
      <trkpt lat="40.064880" lon="-2.809816">
        <ele>883.988497</ele>
        <time>2021-11-03T16:19:17.032Z</time>
      </trkpt>
      <trkpt lat="40.064788" lon="-2.809745">
        <ele>884.346877</ele>
        <time>2021-11-03T16:19:17.032Z</time>
      </trkpt>
      <trkpt lat="40.064721" lon="-2.809708">
        <ele>884.590848</ele>
        <time>2021-11-03T16:19:17.032Z</time>
      </trkpt>
      <trkpt lat="40.064686" lon="-2.809697">
        <ele>884.711590</ele>
        <time>2021-11-03T16:19:17.032Z</time>
      </trkpt>
      <trkpt lat="40.064577" lon="-2.809682">
        <ele>885.079209</ele>
        <time>2021-11-03T16:19:17.032Z</time>
      </trkpt>
      <trkpt lat="40.064468" lon="-2.809676">
        <ele>885.445130</ele>
        <time>2021-11-03T16:19:17.032Z</time>
      </trkpt>
      <trkpt lat="40.064358" lon="-2.809669">
        <ele>885.814519</ele>
        <time>2021-11-03T16:19:17.032Z</time>
      </trkpt>
      <trkpt lat="40.064282" lon="-2.809653">
        <ele>886.072718</ele>
        <time>2021-11-03T16:19:17.032Z</time>
      </trkpt>
      <trkpt lat="40.064160" lon="-2.809613">
        <ele>886.494605</ele>
        <time>2021-11-03T16:19:17.032Z</time>
      </trkpt>
      <trkpt lat="40.064001" lon="-2.809536">
        <ele>887.063358</ele>
        <time>2021-11-03T16:19:17.032Z</time>
      </trkpt>
      <trkpt lat="40.063812" lon="-2.809429">
        <ele>887.754229</ele>
        <time>2021-11-03T16:19:17.032Z</time>
      </trkpt>
      <trkpt lat="40.063700" lon="-2.809386">
        <ele>888.145770</ele>
        <time>2021-11-03T16:19:17.032Z</time>
      </trkpt>
      <trkpt lat="40.063583" lon="-2.809375">
        <ele>888.539214</ele>
        <time>2021-11-03T16:19:17.032Z</time>
      </trkpt>
      <trkpt lat="40.063546" lon="-2.809380">
        <ele>888.663978</ele>
        <time>2021-11-03T16:19:17.032Z</time>
      </trkpt>
      <trkpt lat="40.063427" lon="-2.809384">
        <ele>889.063248</ele>
        <time>2021-11-03T16:19:17.032Z</time>
      </trkpt>
      <trkpt lat="40.063331" lon="-2.809376">
        <ele>889.095694</ele>
        <time>2021-11-03T16:19:17.032Z</time>
      </trkpt>
      <trkpt lat="40.063290" lon="-2.809335">
        <ele>888.652032</ele>
        <time>2021-11-03T16:19:17.032Z</time>
      </trkpt>
      <trkpt lat="40.063281" lon="-2.809277">
        <ele>888.262826</ele>
        <time>2021-11-03T16:19:17.032Z</time>
      </trkpt>
      <trkpt lat="40.063270" lon="-2.809250">
        <ele>888.061665</ele>
        <time>2021-11-03T16:19:17.032Z</time>
      </trkpt>
      <trkpt lat="40.063296" lon="-2.809114">
        <ele>887.139760</ele>
        <time>2021-11-03T16:19:17.032Z</time>
      </trkpt>
      <trkpt lat="40.063299" lon="-2.809083">
        <ele>886.934261</ele>
        <time>2021-11-03T16:19:17.032Z</time>
      </trkpt>
      <trkpt lat="40.063232" lon="-2.809009">
        <ele>886.180387</ele>
        <time>2021-11-03T16:19:17.032Z</time>
      </trkpt>
      <trkpt lat="40.063193" lon="-2.808962">
        <ele>885.724472</ele>
        <time>2021-11-03T16:19:17.032Z</time>
      </trkpt>
      <trkpt lat="40.063144" lon="-2.808946">
        <ele>885.290458</ele>
        <time>2021-11-03T16:19:17.032Z</time>
      </trkpt>
      <trkpt lat="40.063119" lon="-2.808945">
        <ele>885.075528</ele>
        <time>2021-11-03T16:19:17.032Z</time>
      </trkpt>
      <trkpt lat="40.063025" lon="-2.808935">
        <ele>884.265099</ele>
        <time>2021-11-03T16:19:17.032Z</time>
      </trkpt>
      <trkpt lat="40.062985" lon="-2.808933">
        <ele>883.921121</ele>
        <time>2021-11-03T16:19:17.032Z</time>
      </trkpt>
      <trkpt lat="40.062943" lon="-2.808937">
        <ele>883.559251</ele>
        <time>2021-11-03T16:19:17.032Z</time>
      </trkpt>
      <trkpt lat="40.062862" lon="-2.808949">
        <ele>882.858745</ele>
        <time>2021-11-03T16:19:17.032Z</time>
      </trkpt>
      <trkpt lat="40.062775" lon="-2.808954">
        <ele>882.110418</ele>
        <time>2021-11-03T16:19:17.032Z</time>
      </trkpt>
      <trkpt lat="40.062729" lon="-2.808964">
        <ele>881.709699</ele>
        <time>2021-11-03T16:19:17.032Z</time>
      </trkpt>
      <trkpt lat="40.062682" lon="-2.808971">
        <ele>881.303205</ele>
        <time>2021-11-03T16:19:17.032Z</time>
      </trkpt>
      <trkpt lat="40.062591" lon="-2.808963">
        <ele>880.519460</ele>
        <time>2021-11-03T16:19:17.032Z</time>
      </trkpt>
      <trkpt lat="40.062539" lon="-2.808947">
        <ele>880.060393</ele>
        <time>2021-11-03T16:19:17.032Z</time>
      </trkpt>
      <trkpt lat="40.062483" lon="-2.808933">
        <ele>879.570447</ele>
        <time>2021-11-03T16:19:17.032Z</time>
      </trkpt>
      <trkpt lat="40.062381" lon="-2.808895">
        <ele>878.659012</ele>
        <time>2021-11-03T16:19:17.032Z</time>
      </trkpt>
      <trkpt lat="40.062335" lon="-2.808859">
        <ele>878.198245</ele>
        <time>2021-11-03T16:19:17.032Z</time>
      </trkpt>
      <trkpt lat="40.062206" lon="-2.808755">
        <ele>876.895694</ele>
        <time>2021-11-03T16:19:17.032Z</time>
      </trkpt>
      <trkpt lat="40.062162" lon="-2.808727">
        <ele>876.475135</ele>
        <time>2021-11-03T16:19:17.032Z</time>
      </trkpt>
      <trkpt lat="40.062119" lon="-2.808699">
        <ele>876.062285</ele>
        <time>2021-11-03T16:19:17.032Z</time>
      </trkpt>
      <trkpt lat="40.062030" lon="-2.808665">
        <ele>875.265475</ele>
        <time>2021-11-03T16:19:17.032Z</time>
      </trkpt>
      <trkpt lat="40.061991" lon="-2.808634">
        <ele>874.873198</ele>
        <time>2021-11-03T16:19:17.032Z</time>
      </trkpt>
      <trkpt lat="40.061949" lon="-2.808618">
        <ele>874.497258</ele>
        <time>2021-11-03T16:19:17.032Z</time>
      </trkpt>
      <trkpt lat="40.061935" lon="-2.808597">
        <ele>874.314097</ele>
        <time>2021-11-03T16:19:17.032Z</time>
      </trkpt>
      <trkpt lat="40.061928" lon="-2.808434">
        <ele>873.941712</ele>
        <time>2021-11-03T16:19:17.032Z</time>
      </trkpt>
      <trkpt lat="40.061930" lon="-2.808388">
        <ele>873.988217</ele>
        <time>2021-11-03T16:19:17.032Z</time>
      </trkpt>
      <trkpt lat="40.061975" lon="-2.808078">
        <ele>874.306689</ele>
        <time>2021-11-03T16:19:17.032Z</time>
      </trkpt>
      <trkpt lat="40.062000" lon="-2.807992">
        <ele>874.399543</ele>
        <time>2021-11-03T16:19:17.032Z</time>
      </trkpt>
      <trkpt lat="40.062006" lon="-2.807949">
        <ele>874.443660</ele>
        <time>2021-11-03T16:19:17.032Z</time>
      </trkpt>
      <trkpt lat="40.062003" lon="-2.807867">
        <ele>874.526520</ele>
        <time>2021-11-03T16:19:17.032Z</time>
      </trkpt>
      <trkpt lat="40.061992" lon="-2.807788">
        <ele>874.607566</ele>
        <time>2021-11-03T16:19:17.032Z</time>
      </trkpt>
      <trkpt lat="40.061984" lon="-2.807749">
        <ele>874.648319</ele>
        <time>2021-11-03T16:19:17.032Z</time>
      </trkpt>
      <trkpt lat="40.061941" lon="-2.807639">
        <ele>874.772990</ele>
        <time>2021-11-03T16:19:17.032Z</time>
      </trkpt>
      <trkpt lat="40.061922" lon="-2.807570">
        <ele>874.847005</ele>
        <time>2021-11-03T16:19:17.032Z</time>
      </trkpt>
      <trkpt lat="40.061916" lon="-2.807458">
        <ele>874.960327</ele>
        <time>2021-11-03T16:19:17.032Z</time>
      </trkpt>
      <trkpt lat="40.061963" lon="-2.807257">
        <ele>875.172461</ele>
        <time>2021-11-03T16:19:17.032Z</time>
      </trkpt>
      <trkpt lat="40.061958" lon="-2.807246">
        <ele>875.185374</ele>
        <time>2021-11-03T16:19:17.032Z</time>
      </trkpt>
      <trkpt lat="40.061929" lon="-2.807233">
        <ele>875.225808</ele>
        <time>2021-11-03T16:19:17.032Z</time>
      </trkpt>
      <trkpt lat="40.061919" lon="-2.807220">
        <ele>875.244411</ele>
        <time>2021-11-03T16:19:17.032Z</time>
      </trkpt>
      <trkpt lat="40.061906" lon="-2.807183">
        <ele>875.285504</ele>
        <time>2021-11-03T16:19:17.032Z</time>
      </trkpt>
      <trkpt lat="40.061896" lon="-2.807106">
        <ele>875.364334</ele>
        <time>2021-11-03T16:19:17.032Z</time>
      </trkpt>
      <trkpt lat="40.061875" lon="-2.806978">
        <ele>875.496464</ele>
        <time>2021-11-03T16:19:17.032Z</time>
      </trkpt>
      <trkpt lat="40.061865" lon="-2.806754">
        <ele>875.722940</ele>
        <time>2021-11-03T16:19:17.032Z</time>
      </trkpt>
      <trkpt lat="40.061864" lon="-2.806715">
        <ele>875.762326</ele>
        <time>2021-11-03T16:19:17.032Z</time>
      </trkpt>
      <trkpt lat="40.061862" lon="-2.806678">
        <ele>875.799765</ele>
        <time>2021-11-03T16:19:17.032Z</time>
      </trkpt>
      <trkpt lat="40.061862" lon="-2.806641">
        <ele>875.837110</ele>
        <time>2021-11-03T16:19:17.032Z</time>
      </trkpt>
      <trkpt lat="40.061864" lon="-2.806602">
        <ele>875.876563</ele>
        <time>2021-11-03T16:19:17.032Z</time>
      </trkpt>
      <trkpt lat="40.061865" lon="-2.806564">
        <ele>875.914940</ele>
        <time>2021-11-03T16:19:17.032Z</time>
      </trkpt>
      <trkpt lat="40.061864" lon="-2.806525">
        <ele>875.954327</ele>
        <time>2021-11-03T16:19:17.032Z</time>
      </trkpt>
      <trkpt lat="40.061862" lon="-2.806487">
        <ele>875.992772</ele>
        <time>2021-11-03T16:19:17.032Z</time>
      </trkpt>
      <trkpt lat="40.061855" lon="-2.806377">
        <ele>876.104182</ele>
        <time>2021-11-03T16:19:17.032Z</time>
      </trkpt>
      <trkpt lat="40.061852" lon="-2.806303">
        <ele>876.178978</ele>
        <time>2021-11-03T16:19:17.032Z</time>
      </trkpt>
      <trkpt lat="40.061836" lon="-2.806163">
        <ele>876.549077</ele>
        <time>2021-11-03T16:19:17.032Z</time>
      </trkpt>
      <trkpt lat="40.061822" lon="-2.806099">
        <ele>876.766794</ele>
        <time>2021-11-03T16:19:17.032Z</time>
      </trkpt>
      <trkpt lat="40.061812" lon="-2.806051">
        <ele>876.929508</ele>
        <time>2021-11-03T16:19:17.032Z</time>
      </trkpt>
      <trkpt lat="40.061812" lon="-2.805976">
        <ele>877.174821</ele>
        <time>2021-11-03T16:19:17.032Z</time>
      </trkpt>
      <trkpt lat="40.061805" lon="-2.805785">
        <ele>877.800270</ele>
        <time>2021-11-03T16:19:17.032Z</time>
      </trkpt>
      <trkpt lat="40.061798" lon="-2.805702">
        <ele>878.073394</ele>
        <time>2021-11-03T16:19:17.032Z</time>
      </trkpt>
      <trkpt lat="40.061786" lon="-2.805481">
        <ele>878.798070</ele>
        <time>2021-11-03T16:19:17.032Z</time>
      </trkpt>
      <trkpt lat="40.061779" lon="-2.805390">
        <ele>879.097217</ele>
        <time>2021-11-03T16:19:17.032Z</time>
      </trkpt>
      <trkpt lat="40.061776" lon="-2.805344">
        <ele>879.248222</ele>
        <time>2021-11-03T16:19:17.032Z</time>
      </trkpt>
      <trkpt lat="40.061773" lon="-2.805298">
        <ele>879.399226</ele>
        <time>2021-11-03T16:19:17.032Z</time>
      </trkpt>
      <trkpt lat="40.061747" lon="-2.804918">
        <ele>880.647108</ele>
        <time>2021-11-03T16:19:17.032Z</time>
      </trkpt>
      <trkpt lat="40.061745" lon="-2.804871">
        <ele>880.801076</ele>
        <time>2021-11-03T16:19:17.032Z</time>
      </trkpt>
      <trkpt lat="40.061743" lon="-2.804824">
        <ele>880.955043</ele>
        <time>2021-11-03T16:19:17.032Z</time>
      </trkpt>
      <trkpt lat="40.061725" lon="-2.804532">
        <ele>881.913226</ele>
        <time>2021-11-03T16:19:17.032Z</time>
      </trkpt>
      <trkpt lat="40.061718" lon="-2.804433">
        <ele>882.238420</ele>
        <time>2021-11-03T16:19:17.032Z</time>
      </trkpt>
      <trkpt lat="40.061710" lon="-2.804280">
        <ele>882.740028</ele>
        <time>2021-11-03T16:19:17.032Z</time>
      </trkpt>
      <trkpt lat="40.061691" lon="-2.803954">
        <ele>883.809415</ele>
        <time>2021-11-03T16:19:17.032Z</time>
      </trkpt>
      <trkpt lat="40.061675" lon="-2.803694">
        <ele>884.870315</ele>
        <time>2021-11-03T16:19:17.032Z</time>
      </trkpt>
      <trkpt lat="40.061670" lon="-2.803595">
        <ele>885.284083</ele>
        <time>2021-11-03T16:19:17.032Z</time>
      </trkpt>
      <trkpt lat="40.061668" lon="-2.803543">
        <ele>885.501217</ele>
        <time>2021-11-03T16:19:17.032Z</time>
      </trkpt>
      <trkpt lat="40.061656" lon="-2.803310">
        <ele>886.475118</ele>
        <time>2021-11-03T16:19:17.032Z</time>
      </trkpt>
      <trkpt lat="40.061644" lon="-2.803110">
        <ele>887.311758</ele>
        <time>2021-11-03T16:19:17.032Z</time>
      </trkpt>
      <trkpt lat="40.061638" lon="-2.802963">
        <ele>887.925678</ele>
        <time>2021-11-03T16:19:17.032Z</time>
      </trkpt>
      <trkpt lat="40.061630" lon="-2.802869">
        <ele>888.320112</ele>
        <time>2021-11-03T16:19:17.032Z</time>
      </trkpt>
      <trkpt lat="40.061627" lon="-2.802824">
        <ele>888.508491</ele>
        <time>2021-11-03T16:19:17.032Z</time>
      </trkpt>
      <trkpt lat="40.061621" lon="-2.802560">
        <ele>889.609963</ele>
        <time>2021-11-03T16:19:17.032Z</time>
      </trkpt>
      <trkpt lat="40.061616" lon="-2.802518">
        <ele>889.787226</ele>
        <time>2021-11-03T16:19:17.032Z</time>
      </trkpt>
      <trkpt lat="40.061600" lon="-2.802299">
        <ele>890.704697</ele>
        <time>2021-11-03T16:19:17.032Z</time>
      </trkpt>
      <trkpt lat="40.061598" lon="-2.802257">
        <ele>890.880192</ele>
        <time>2021-11-03T16:19:17.032Z</time>
      </trkpt>
      <trkpt lat="40.061593" lon="-2.802059">
        <ele>891.706382</ele>
        <time>2021-11-03T16:19:17.032Z</time>
      </trkpt>
      <trkpt lat="40.061590" lon="-2.801997">
        <ele>891.965463</ele>
        <time>2021-11-03T16:19:17.032Z</time>
      </trkpt>
      <trkpt lat="40.061577" lon="-2.801872">
        <ele>892.491555</ele>
        <time>2021-11-03T16:19:17.032Z</time>
      </trkpt>
      <trkpt lat="40.061570" lon="-2.801826">
        <ele>892.687149</ele>
        <time>2021-11-03T16:19:17.032Z</time>
      </trkpt>
      <trkpt lat="40.061572" lon="-2.801764">
        <ele>892.945944</ele>
        <time>2021-11-03T16:19:17.032Z</time>
      </trkpt>
      <trkpt lat="40.061569" lon="-2.801707">
        <ele>893.184218</ele>
        <time>2021-11-03T16:19:17.032Z</time>
      </trkpt>
      <trkpt lat="40.061541" lon="-2.801537">
        <ele>893.781731</ele>
        <time>2021-11-03T16:19:17.032Z</time>
      </trkpt>
      <trkpt lat="40.061536" lon="-2.801501">
        <ele>893.837567</ele>
        <time>2021-11-03T16:19:17.032Z</time>
      </trkpt>
      <trkpt lat="40.061522" lon="-2.801392">
        <ele>894.006236</ele>
        <time>2021-11-03T16:19:17.032Z</time>
      </trkpt>
      <trkpt lat="40.061522" lon="-2.801325">
        <ele>894.108483</ele>
        <time>2021-11-03T16:19:17.032Z</time>
      </trkpt>
      <trkpt lat="40.061524" lon="-2.801318">
        <ele>894.119885</ele>
        <time>2021-11-03T16:19:17.032Z</time>
      </trkpt>
      <trkpt lat="40.061530" lon="-2.801318">
        <ele>894.131849</ele>
        <time>2021-11-03T16:19:17.032Z</time>
      </trkpt>
      <trkpt lat="40.061560" lon="-2.801298">
        <ele>894.199004</ele>
        <time>2021-11-03T16:19:17.032Z</time>
      </trkpt>
      <trkpt lat="40.061566" lon="-2.801277">
        <ele>894.233212</ele>
        <time>2021-11-03T16:19:17.032Z</time>
      </trkpt>
      <trkpt lat="40.061578" lon="-2.801213">
        <ele>894.333770</ele>
        <time>2021-11-03T16:19:17.032Z</time>
      </trkpt>
      <trkpt lat="40.061582" lon="-2.801211">
        <ele>894.342309</ele>
        <time>2021-11-03T16:19:17.032Z</time>
      </trkpt>
      <trkpt lat="40.061582" lon="-2.801211">
        <ele>894.342309</ele>
        <time>2021-11-03T16:19:17.032Z</time>
      </trkpt>
      <trkpt lat="40.061582" lon="-2.801211">
        <ele>894.342309</ele>
        <time>2021-11-03T16:19:17.032Z</time>
      </trkpt>
      <trkpt lat="40.061588" lon="-2.801210">
        <ele>894.354370</ele>
        <time>2021-11-03T16:19:17.032Z</time>
      </trkpt>
      <trkpt lat="40.061588" lon="-2.801210">
        <ele>894.354370</ele>
        <time>2021-11-03T16:19:17.032Z</time>
      </trkpt>
      <trkpt lat="40.061589" lon="-2.801211">
        <ele>894.356881</ele>
        <time>2021-11-03T16:19:17.032Z</time>
      </trkpt>
      <trkpt lat="40.061589" lon="-2.801211">
        <ele>894.356881</ele>
        <time>2021-11-03T16:19:17.032Z</time>
      </trkpt>
      <trkpt lat="40.061590" lon="-2.801212">
        <ele>894.359392</ele>
        <time>2021-11-03T16:19:17.032Z</time>
      </trkpt>
      <trkpt lat="40.061590" lon="-2.801212">
        <ele>894.359392</ele>
        <time>2021-11-03T16:19:17.032Z</time>
      </trkpt>
      <trkpt lat="40.061591" lon="-2.801216">
        <ele>894.365814</ele>
        <time>2021-11-03T16:19:17.032Z</time>
      </trkpt>
      <trkpt lat="40.061591" lon="-2.801216">
        <ele>894.365814</ele>
        <time>2021-11-03T16:19:17.032Z</time>
      </trkpt>
      <trkpt lat="40.061591" lon="-2.801216">
        <ele>894.365814</ele>
        <time>2021-11-03T16:19:17.032Z</time>
      </trkpt>
      <trkpt lat="40.061589" lon="-2.801214">
        <ele>894.370836</ele>
        <time>2021-11-03T16:19:17.032Z</time>
      </trkpt>
      <trkpt lat="40.061590" lon="-2.801214">
        <ele>894.372830</ele>
        <time>2021-11-03T16:19:17.032Z</time>
      </trkpt>
      <trkpt lat="40.061593" lon="-2.801206">
        <ele>894.386425</ele>
        <time>2021-11-03T16:19:17.032Z</time>
      </trkpt>
      <trkpt lat="40.061598" lon="-2.801193">
        <ele>894.408628</ele>
        <time>2021-11-03T16:19:17.032Z</time>
      </trkpt>
      <trkpt lat="40.061645" lon="-2.801067">
        <ele>894.622536</ele>
        <time>2021-11-03T16:19:17.032Z</time>
      </trkpt>
      <trkpt lat="40.061686" lon="-2.801002">
        <ele>894.751078</ele>
        <time>2021-11-03T16:19:17.032Z</time>
      </trkpt>
      <trkpt lat="40.061790" lon="-2.800855">
        <ele>895.056574</ele>
        <time>2021-11-03T16:19:17.032Z</time>
      </trkpt>
      <trkpt lat="40.061854" lon="-2.800709">
        <ele>895.313338</ele>
        <time>2021-11-03T16:19:17.032Z</time>
      </trkpt>
      <trkpt lat="40.061870" lon="-2.800657">
        <ele>895.398867</ele>
        <time>2021-11-03T16:19:17.032Z</time>
      </trkpt>
      <trkpt lat="40.061888" lon="-2.800550">
        <ele>895.566054</ele>
        <time>2021-11-03T16:19:17.032Z</time>
      </trkpt>
      <trkpt lat="40.061884" lon="-2.800228">
        <ele>896.057514</ele>
        <time>2021-11-03T16:19:17.032Z</time>
      </trkpt>
      <trkpt lat="40.061881" lon="-2.800175">
        <ele>896.138617</ele>
        <time>2021-11-03T16:19:17.032Z</time>
      </trkpt>
      <trkpt lat="40.061878" lon="-2.800068">
        <ele>896.302016</ele>
        <time>2021-11-03T16:19:17.032Z</time>
      </trkpt>
      <trkpt lat="40.061883" lon="-2.799959">
        <ele>896.468656</ele>
        <time>2021-11-03T16:19:17.032Z</time>
      </trkpt>
      <trkpt lat="40.061890" lon="-2.799903">
        <ele>896.555248</ele>
        <time>2021-11-03T16:19:17.032Z</time>
      </trkpt>
      <trkpt lat="40.061916" lon="-2.799780">
        <ele>896.749983</ele>
        <time>2021-11-03T16:19:17.032Z</time>
      </trkpt>
      <trkpt lat="40.062046" lon="-2.799438">
        <ele>897.281149</ele>
        <time>2021-11-03T16:19:17.032Z</time>
      </trkpt>
      <trkpt lat="40.062109" lon="-2.799283">
        <ele>897.188079</ele>
        <time>2021-11-03T16:19:17.032Z</time>
      </trkpt>
      <trkpt lat="40.062171" lon="-2.799122">
        <ele>897.092500</ele>
        <time>2021-11-03T16:19:17.032Z</time>
      </trkpt>
      <trkpt lat="40.062226" lon="-2.798953">
        <ele>896.995112</ele>
        <time>2021-11-03T16:19:17.032Z</time>
      </trkpt>
      <trkpt lat="40.062283" lon="-2.798787">
        <ele>896.898627</ele>
        <time>2021-11-03T16:19:17.032Z</time>
      </trkpt>
      <trkpt lat="40.062364" lon="-2.798546">
        <ele>896.759042</ele>
        <time>2021-11-03T16:19:17.032Z</time>
      </trkpt>
      <trkpt lat="40.062518" lon="-2.798134">
        <ele>896.515890</ele>
        <time>2021-11-03T16:19:17.032Z</time>
      </trkpt>
      <trkpt lat="40.062543" lon="-2.798071">
        <ele>896.478257</ele>
        <time>2021-11-03T16:19:17.032Z</time>
      </trkpt>
      <trkpt lat="40.062710" lon="-2.797655">
        <ele>896.229143</ele>
        <time>2021-11-03T16:19:17.032Z</time>
      </trkpt>
      <trkpt lat="40.062864" lon="-2.797284">
        <ele>896.194240</ele>
        <time>2021-11-03T16:19:17.032Z</time>
      </trkpt>
      <trkpt lat="40.062882" lon="-2.797236">
        <ele>896.290889</ele>
        <time>2021-11-03T16:19:17.032Z</time>
      </trkpt>
      <trkpt lat="40.062910" lon="-2.797156">
        <ele>896.449949</ele>
        <time>2021-11-03T16:19:17.032Z</time>
      </trkpt>
      <trkpt lat="40.062935" lon="-2.797102">
        <ele>896.564062</ele>
        <time>2021-11-03T16:19:17.032Z</time>
      </trkpt>
      <trkpt lat="40.062960" lon="-2.796967">
        <ele>896.815205</ele>
        <time>2021-11-03T16:19:17.032Z</time>
      </trkpt>
      <trkpt lat="40.062880" lon="-2.796846">
        <ele>897.104322</ele>
        <time>2021-11-03T16:19:17.032Z</time>
      </trkpt>
      <trkpt lat="40.062758" lon="-2.796723">
        <ele>897.468380</ele>
        <time>2021-11-03T16:19:17.032Z</time>
      </trkpt>
      <trkpt lat="40.062664" lon="-2.796625">
        <ele>897.752489</ele>
        <time>2021-11-03T16:19:17.032Z</time>
      </trkpt>
      <trkpt lat="40.062633" lon="-2.796592">
        <ele>897.846958</ele>
        <time>2021-11-03T16:19:17.032Z</time>
      </trkpt>
      <trkpt lat="40.062574" lon="-2.796524">
        <ele>898.032826</ele>
        <time>2021-11-03T16:19:17.032Z</time>
      </trkpt>
      <trkpt lat="40.062512" lon="-2.796458">
        <ele>898.221763</ele>
        <time>2021-11-03T16:19:17.032Z</time>
      </trkpt>
      <trkpt lat="40.062329" lon="-2.796260">
        <ele>898.783096</ele>
        <time>2021-11-03T16:19:17.032Z</time>
      </trkpt>
      <trkpt lat="40.062265" lon="-2.796197">
        <ele>898.972407</ele>
        <time>2021-11-03T16:19:17.032Z</time>
      </trkpt>
      <trkpt lat="40.062045" lon="-2.795960">
        <ele>899.646046</ele>
        <time>2021-11-03T16:19:17.032Z</time>
      </trkpt>
      <trkpt lat="40.061950" lon="-2.795859">
        <ele>899.935399</ele>
        <time>2021-11-03T16:19:17.032Z</time>
      </trkpt>
      <trkpt lat="40.061702" lon="-2.795589">
        <ele>900.828184</ele>
        <time>2021-11-03T16:19:17.032Z</time>
      </trkpt>
      <trkpt lat="40.061612" lon="-2.795488">
        <ele>901.199545</ele>
        <time>2021-11-03T16:19:17.032Z</time>
      </trkpt>
      <trkpt lat="40.061363" lon="-2.795225">
        <ele>902.201773</ele>
        <time>2021-11-03T16:19:17.032Z</time>
      </trkpt>
      <trkpt lat="40.061302" lon="-2.795160">
        <ele>902.448160</ele>
        <time>2021-11-03T16:19:17.032Z</time>
      </trkpt>
      <trkpt lat="40.061271" lon="-2.795127">
        <ele>902.573324</ele>
        <time>2021-11-03T16:19:17.032Z</time>
      </trkpt>
      <trkpt lat="40.061117" lon="-2.794963">
        <ele>903.195202</ele>
        <time>2021-11-03T16:19:17.032Z</time>
      </trkpt>
      <trkpt lat="40.061087" lon="-2.794931">
        <ele>903.316425</ele>
        <time>2021-11-03T16:19:17.032Z</time>
      </trkpt>
      <trkpt lat="40.061027" lon="-2.794865">
        <ele>903.561931</ele>
        <time>2021-11-03T16:19:17.032Z</time>
      </trkpt>
      <trkpt lat="40.060997" lon="-2.794834">
        <ele>903.681654</ele>
        <time>2021-11-03T16:19:17.032Z</time>
      </trkpt>
      <trkpt lat="40.060938" lon="-2.794769">
        <ele>903.923223</ele>
        <time>2021-11-03T16:19:17.032Z</time>
      </trkpt>
      <trkpt lat="40.060752" lon="-2.794569">
        <ele>904.677242</ele>
        <time>2021-11-03T16:19:17.032Z</time>
      </trkpt>
      <trkpt lat="40.060720" lon="-2.794535">
        <ele>904.806346</ele>
        <time>2021-11-03T16:19:17.032Z</time>
      </trkpt>
      <trkpt lat="40.060689" lon="-2.794502">
        <ele>904.931509</ele>
        <time>2021-11-03T16:19:17.032Z</time>
      </trkpt>
      <trkpt lat="40.060626" lon="-2.794434">
        <ele>905.187296</ele>
        <time>2021-11-03T16:19:17.032Z</time>
      </trkpt>
      <trkpt lat="40.060564" lon="-2.794366">
        <ele>905.440678</ele>
        <time>2021-11-03T16:19:17.032Z</time>
      </trkpt>
      <trkpt lat="40.060501" lon="-2.794296">
        <ele>905.699543</ele>
        <time>2021-11-03T16:19:17.032Z</time>
      </trkpt>
      <trkpt lat="40.060404" lon="-2.794192">
        <ele>905.763664</ele>
        <time>2021-11-03T16:19:17.032Z</time>
      </trkpt>
      <trkpt lat="40.060300" lon="-2.794083">
        <ele>905.348470</ele>
        <time>2021-11-03T16:19:17.032Z</time>
      </trkpt>
      <trkpt lat="40.060225" lon="-2.794008">
        <ele>905.054352</ele>
        <time>2021-11-03T16:19:17.032Z</time>
      </trkpt>
      <trkpt lat="40.060026" lon="-2.793788">
        <ele>904.242564</ele>
        <time>2021-11-03T16:19:17.032Z</time>
      </trkpt>
      <trkpt lat="40.059892" lon="-2.793645">
        <ele>903.703766</ele>
        <time>2021-11-03T16:19:17.032Z</time>
      </trkpt>
      <trkpt lat="40.059751" lon="-2.793489">
        <ele>903.128393</ele>
        <time>2021-11-03T16:19:17.032Z</time>
      </trkpt>
      <trkpt lat="40.059557" lon="-2.793276">
        <ele>902.339261</ele>
        <time>2021-11-03T16:19:17.032Z</time>
      </trkpt>
      <trkpt lat="40.059509" lon="-2.793220">
        <ele>902.138863</ele>
        <time>2021-11-03T16:19:17.032Z</time>
      </trkpt>
      <trkpt lat="40.059460" lon="-2.793162">
        <ele>901.932962</ele>
        <time>2021-11-03T16:19:17.032Z</time>
      </trkpt>
      <trkpt lat="40.059408" lon="-2.793107">
        <ele>901.724616</ele>
        <time>2021-11-03T16:19:17.032Z</time>
      </trkpt>
      <trkpt lat="40.059357" lon="-2.793056">
        <ele>901.524615</ele>
        <time>2021-11-03T16:19:17.032Z</time>
      </trkpt>
      <trkpt lat="40.059205" lon="-2.792886">
        <ele>900.901525</ele>
        <time>2021-11-03T16:19:17.032Z</time>
      </trkpt>
      <trkpt lat="40.059100" lon="-2.792767">
        <ele>900.468664</ele>
        <time>2021-11-03T16:19:17.032Z</time>
      </trkpt>
      <trkpt lat="40.058991" lon="-2.792651">
        <ele>900.327767</ele>
        <time>2021-11-03T16:19:17.032Z</time>
      </trkpt>
      <trkpt lat="40.058902" lon="-2.792584">
        <ele>900.329303</ele>
        <time>2021-11-03T16:19:17.032Z</time>
      </trkpt>
      <trkpt lat="40.058794" lon="-2.792493">
        <ele>900.331225</ele>
        <time>2021-11-03T16:19:17.032Z</time>
      </trkpt>
      <trkpt lat="40.058741" lon="-2.792454">
        <ele>900.332134</ele>
        <time>2021-11-03T16:19:17.032Z</time>
      </trkpt>
      <trkpt lat="40.058656" lon="-2.792364">
        <ele>900.333771</ele>
        <time>2021-11-03T16:19:17.032Z</time>
      </trkpt>
      <trkpt lat="40.058596" lon="-2.792212">
        <ele>900.335728</ele>
        <time>2021-11-03T16:19:17.032Z</time>
      </trkpt>
      <trkpt lat="40.058568" lon="-2.792172">
        <ele>900.336349</ele>
        <time>2021-11-03T16:19:17.032Z</time>
      </trkpt>
      <trkpt lat="40.058352" lon="-2.791919">
        <ele>900.340687</ele>
        <time>2021-11-03T16:19:17.032Z</time>
      </trkpt>
      <trkpt lat="40.058292" lon="-2.791849">
        <ele>900.341890</ele>
        <time>2021-11-03T16:19:17.032Z</time>
      </trkpt>
      <trkpt lat="40.058230" lon="-2.791782">
        <ele>900.343093</ele>
        <time>2021-11-03T16:19:17.032Z</time>
      </trkpt>
      <trkpt lat="40.058086" lon="-2.791587">
        <ele>900.346195</ele>
        <time>2021-11-03T16:19:17.032Z</time>
      </trkpt>
      <trkpt lat="40.058033" lon="-2.791498">
        <ele>900.347485</ele>
        <time>2021-11-03T16:19:17.032Z</time>
      </trkpt>
      <trkpt lat="40.057789" lon="-2.791030">
        <ele>900.424970</ele>
        <time>2021-11-03T16:19:17.032Z</time>
      </trkpt>
      <trkpt lat="40.057725" lon="-2.790915">
        <ele>900.586917</ele>
        <time>2021-11-03T16:19:17.032Z</time>
      </trkpt>
      <trkpt lat="40.057659" lon="-2.790800">
        <ele>900.750632</ele>
        <time>2021-11-03T16:19:17.032Z</time>
      </trkpt>
      <trkpt lat="40.057528" lon="-2.790580">
        <ele>901.068107</ele>
        <time>2021-11-03T16:19:17.032Z</time>
      </trkpt>
      <trkpt lat="40.057281" lon="-2.790130">
        <ele>901.698822</ele>
        <time>2021-11-03T16:19:17.032Z</time>
      </trkpt>
      <trkpt lat="40.057138" lon="-2.789882">
        <ele>902.052477</ele>
        <time>2021-11-03T16:19:17.032Z</time>
      </trkpt>
      <trkpt lat="40.057092" lon="-2.789791">
        <ele>902.176689</ele>
        <time>2021-11-03T16:19:17.032Z</time>
      </trkpt>
      <trkpt lat="40.057042" lon="-2.789699">
        <ele>902.305205</ele>
        <time>2021-11-03T16:19:17.032Z</time>
      </trkpt>
      <trkpt lat="40.056914" lon="-2.789479">
        <ele>902.619960</ele>
        <time>2021-11-03T16:19:17.032Z</time>
      </trkpt>
      <trkpt lat="40.056889" lon="-2.789434">
        <ele>902.683293</ele>
        <time>2021-11-03T16:19:17.032Z</time>
      </trkpt>
      <trkpt lat="40.056864" lon="-2.789386">
        <ele>902.749422</ele>
        <time>2021-11-03T16:19:17.032Z</time>
      </trkpt>
      <trkpt lat="40.056810" lon="-2.789289">
        <ele>902.886037</ele>
        <time>2021-11-03T16:19:17.032Z</time>
      </trkpt>
      <trkpt lat="40.056785" lon="-2.789238">
        <ele>902.955018</ele>
        <time>2021-11-03T16:19:17.032Z</time>
      </trkpt>
      <trkpt lat="40.056740" lon="-2.789120">
        <ele>903.098179</ele>
        <time>2021-11-03T16:19:17.032Z</time>
      </trkpt>
      <trkpt lat="40.056719" lon="-2.789057">
        <ele>903.169178</ele>
        <time>2021-11-03T16:19:17.032Z</time>
      </trkpt>
      <trkpt lat="40.056703" lon="-2.788992">
        <ele>903.239727</ele>
        <time>2021-11-03T16:19:17.032Z</time>
      </trkpt>
      <trkpt lat="40.056674" lon="-2.788859">
        <ele>903.382615</ele>
        <time>2021-11-03T16:19:17.032Z</time>
      </trkpt>
      <trkpt lat="40.056635" lon="-2.788671">
        <ele>903.583873</ele>
        <time>2021-11-03T16:19:17.032Z</time>
      </trkpt>
      <trkpt lat="40.056612" lon="-2.788518">
        <ele>903.744980</ele>
        <time>2021-11-03T16:19:17.032Z</time>
      </trkpt>
      <trkpt lat="40.056606" lon="-2.788487">
        <ele>903.778019</ele>
        <time>2021-11-03T16:19:17.032Z</time>
      </trkpt>
      <trkpt lat="40.056544" lon="-2.788242">
        <ele>904.044641</ele>
        <time>2021-11-03T16:19:17.032Z</time>
      </trkpt>
      <trkpt lat="40.056527" lon="-2.788158">
        <ele>904.134417</ele>
        <time>2021-11-03T16:19:17.032Z</time>
      </trkpt>
      <trkpt lat="40.056512" lon="-2.788066">
        <ele>904.231608</ele>
        <time>2021-11-03T16:19:17.032Z</time>
      </trkpt>
      <trkpt lat="40.056475" lon="-2.787881">
        <ele>904.429177</ele>
        <time>2021-11-03T16:19:17.032Z</time>
      </trkpt>
      <trkpt lat="40.056436" lon="-2.787693">
        <ele>904.630435</ele>
        <time>2021-11-03T16:19:17.032Z</time>
      </trkpt>
      <trkpt lat="40.056415" lon="-2.787598">
        <ele>904.732605</ele>
        <time>2021-11-03T16:19:17.032Z</time>
      </trkpt>
      <trkpt lat="40.056406" lon="-2.787549">
        <ele>904.784672</ele>
        <time>2021-11-03T16:19:17.032Z</time>
      </trkpt>
      <trkpt lat="40.056396" lon="-2.787501">
        <ele>904.836072</ele>
        <time>2021-11-03T16:19:17.032Z</time>
      </trkpt>
      <trkpt lat="40.056385" lon="-2.787455">
        <ele>904.885867</ele>
        <time>2021-11-03T16:19:17.032Z</time>
      </trkpt>
      <trkpt lat="40.056293" lon="-2.787178">
        <ele>905.197861</ele>
        <time>2021-11-03T16:19:17.032Z</time>
      </trkpt>
      <trkpt lat="40.056145" lon="-2.786831">
        <ele>905.199709</ele>
        <time>2021-11-03T16:19:17.032Z</time>
      </trkpt>
      <trkpt lat="40.056061" lon="-2.786608">
        <ele>904.759189</ele>
        <time>2021-11-03T16:19:17.032Z</time>
      </trkpt>
      <trkpt lat="40.055998" lon="-2.786450">
        <ele>904.443426</ele>
        <time>2021-11-03T16:19:17.032Z</time>
      </trkpt>
      <trkpt lat="40.055936" lon="-2.786299">
        <ele>904.139713</ele>
        <time>2021-11-03T16:19:17.032Z</time>
      </trkpt>
      <trkpt lat="40.055907" lon="-2.786224">
        <ele>903.990782</ele>
        <time>2021-11-03T16:19:17.032Z</time>
      </trkpt>
      <trkpt lat="40.055825" lon="-2.785999">
        <ele>903.549088</ele>
        <time>2021-11-03T16:19:17.032Z</time>
      </trkpt>
      <trkpt lat="40.055798" lon="-2.785926">
        <ele>903.405387</ele>
        <time>2021-11-03T16:19:17.032Z</time>
      </trkpt>
      <trkpt lat="40.055671" lon="-2.785585">
        <ele>902.733237</ele>
        <time>2021-11-03T16:19:17.032Z</time>
      </trkpt>
      <trkpt lat="40.055624" lon="-2.785451">
        <ele>902.471983</ele>
        <time>2021-11-03T16:19:17.032Z</time>
      </trkpt>
      <trkpt lat="40.055388" lon="-2.784821">
        <ele>901.296865</ele>
        <time>2021-11-03T16:19:17.032Z</time>
      </trkpt>
      <trkpt lat="40.055231" lon="-2.784390">
        <ele>901.350181</ele>
        <time>2021-11-03T16:19:17.032Z</time>
      </trkpt>
      <trkpt lat="40.055147" lon="-2.784168">
        <ele>901.377842</ele>
        <time>2021-11-03T16:19:17.032Z</time>
      </trkpt>
      <trkpt lat="40.055085" lon="-2.784019">
        <ele>901.396786</ele>
        <time>2021-11-03T16:19:17.032Z</time>
      </trkpt>
      <trkpt lat="40.055026" lon="-2.783872">
        <ele>901.415326</ele>
        <time>2021-11-03T16:19:17.032Z</time>
      </trkpt>
      <trkpt lat="40.054963" lon="-2.783673">
        <ele>901.439380</ele>
        <time>2021-11-03T16:19:17.032Z</time>
      </trkpt>
      <trkpt lat="40.054850" lon="-2.783332">
        <ele>901.480886</ele>
        <time>2021-11-03T16:19:17.032Z</time>
      </trkpt>
      <trkpt lat="40.054815" lon="-2.783222">
        <ele>901.494192</ele>
        <time>2021-11-03T16:19:17.032Z</time>
      </trkpt>
      <trkpt lat="40.054733" lon="-2.783014">
        <ele>901.520326</ele>
        <time>2021-11-03T16:19:17.032Z</time>
      </trkpt>
      <trkpt lat="40.054710" lon="-2.782964">
        <ele>901.526842</ele>
        <time>2021-11-03T16:19:17.032Z</time>
      </trkpt>
      <trkpt lat="40.054686" lon="-2.782916">
        <ele>901.533246</ele>
        <time>2021-11-03T16:19:17.032Z</time>
      </trkpt>
      <trkpt lat="40.054662" lon="-2.782869">
        <ele>901.539556</ele>
        <time>2021-11-03T16:19:17.032Z</time>
      </trkpt>
      <trkpt lat="40.054637" lon="-2.782821">
        <ele>901.546042</ele>
        <time>2021-11-03T16:19:17.032Z</time>
      </trkpt>
      <trkpt lat="40.054454" lon="-2.782486">
        <ele>902.121493</ele>
        <time>2021-11-03T16:19:17.032Z</time>
      </trkpt>
      <trkpt lat="40.054401" lon="-2.782386">
        <ele>902.331050</ele>
        <time>2021-11-03T16:19:17.032Z</time>
      </trkpt>
      <trkpt lat="40.054370" lon="-2.782338">
        <ele>902.439252</ele>
        <time>2021-11-03T16:19:17.032Z</time>
      </trkpt>
      <trkpt lat="40.054253" lon="-2.782240">
        <ele>902.752079</ele>
        <time>2021-11-03T16:19:17.032Z</time>
      </trkpt>
      <trkpt lat="40.054158" lon="-2.782205">
        <ele>902.974249</ele>
        <time>2021-11-03T16:19:17.032Z</time>
      </trkpt>
      <trkpt lat="40.054157" lon="-2.782208">
        <ele>902.979886</ele>
        <time>2021-11-03T16:19:17.032Z</time>
      </trkpt>
      <trkpt lat="40.054159" lon="-2.782212">
        <ele>902.988118</ele>
        <time>2021-11-03T16:19:17.032Z</time>
      </trkpt>
      <trkpt lat="40.054159" lon="-2.782212">
        <ele>902.988118</ele>
        <time>2021-11-03T16:19:17.032Z</time>
      </trkpt>
      <trkpt lat="40.054160" lon="-2.782213">
        <ele>902.990952</ele>
        <time>2021-11-03T16:19:17.032Z</time>
      </trkpt>
      <trkpt lat="40.054162" lon="-2.782216">
        <ele>902.997807</ele>
        <time>2021-11-03T16:19:17.032Z</time>
      </trkpt>
      <trkpt lat="40.054162" lon="-2.782218">
        <ele>903.001252</ele>
        <time>2021-11-03T16:19:17.032Z</time>
      </trkpt>
      <trkpt lat="40.054163" lon="-2.782218">
        <ele>903.003503</ele>
        <time>2021-11-03T16:19:17.032Z</time>
      </trkpt>
      <trkpt lat="40.054151" lon="-2.782215">
        <ele>903.031003</ele>
        <time>2021-11-03T16:19:17.032Z</time>
      </trkpt>
      <trkpt lat="40.054134" lon="-2.782209">
        <ele>903.070640</ele>
        <time>2021-11-03T16:19:17.032Z</time>
      </trkpt>
      <trkpt lat="40.054125" lon="-2.782202">
        <ele>903.094215</ele>
        <time>2021-11-03T16:19:17.032Z</time>
      </trkpt>
      <trkpt lat="40.054104" lon="-2.782188">
        <ele>903.147282</ele>
        <time>2021-11-03T16:19:17.032Z</time>
      </trkpt>
      <trkpt lat="40.054093" lon="-2.782184">
        <ele>903.172982</ele>
        <time>2021-11-03T16:19:17.032Z</time>
      </trkpt>
      <trkpt lat="40.054076" lon="-2.782182">
        <ele>903.211402</ele>
        <time>2021-11-03T16:19:17.032Z</time>
      </trkpt>
      <trkpt lat="40.054030" lon="-2.782169">
        <ele>903.317335</ele>
        <time>2021-11-03T16:19:17.032Z</time>
      </trkpt>
      <trkpt lat="40.053889" lon="-2.782149">
        <ele>903.636570</ele>
        <time>2021-11-03T16:19:17.032Z</time>
      </trkpt>
      <trkpt lat="40.053711" lon="-2.782106">
        <ele>904.044012</ele>
        <time>2021-11-03T16:19:17.032Z</time>
      </trkpt>
      <trkpt lat="40.053649" lon="-2.782091">
        <ele>904.185938</ele>
        <time>2021-11-03T16:19:17.032Z</time>
      </trkpt>
      <trkpt lat="40.053431" lon="-2.782048">
        <ele>904.682184</ele>
        <time>2021-11-03T16:19:17.032Z</time>
      </trkpt>
      <trkpt lat="40.053398" lon="-2.782045">
        <ele>904.756641</ele>
        <time>2021-11-03T16:19:17.032Z</time>
      </trkpt>
      <trkpt lat="40.053305" lon="-2.782024">
        <ele>904.969074</ele>
        <time>2021-11-03T16:19:17.032Z</time>
      </trkpt>
      <trkpt lat="40.053180" lon="-2.781993">
        <ele>905.255454</ele>
        <time>2021-11-03T16:19:17.032Z</time>
      </trkpt>
      <trkpt lat="40.053149" lon="-2.781986">
        <ele>905.326265</ele>
        <time>2021-11-03T16:19:17.032Z</time>
      </trkpt>
      <trkpt lat="40.053089" lon="-2.781973">
        <ele>905.463161</ele>
        <time>2021-11-03T16:19:17.032Z</time>
      </trkpt>
      <trkpt lat="40.052971" lon="-2.781942">
        <ele>905.902454</ele>
        <time>2021-11-03T16:19:17.032Z</time>
      </trkpt>
      <trkpt lat="40.052886" lon="-2.781921">
        <ele>906.348776</ele>
        <time>2021-11-03T16:19:17.032Z</time>
      </trkpt>
      <trkpt lat="40.052828" lon="-2.781906">
        <ele>906.653828</ele>
        <time>2021-11-03T16:19:17.032Z</time>
      </trkpt>
      <trkpt lat="40.052800" lon="-2.781898">
        <ele>906.801706</ele>
        <time>2021-11-03T16:19:17.032Z</time>
      </trkpt>
      <trkpt lat="40.052717" lon="-2.781876">
        <ele>907.238661</ele>
        <time>2021-11-03T16:19:17.032Z</time>
      </trkpt>
      <trkpt lat="40.052690" lon="-2.781870">
        <ele>907.379966</ele>
        <time>2021-11-03T16:19:17.032Z</time>
      </trkpt>
      <trkpt lat="40.052586" lon="-2.781843">
        <ele>907.927036</ele>
        <time>2021-11-03T16:19:17.032Z</time>
      </trkpt>
      <trkpt lat="40.052532" lon="-2.781832">
        <ele>908.209010</ele>
        <time>2021-11-03T16:19:17.032Z</time>
      </trkpt>
      <trkpt lat="40.052479" lon="-2.781814">
        <ele>908.491548</ele>
        <time>2021-11-03T16:19:17.032Z</time>
      </trkpt>
      <trkpt lat="40.052361" lon="-2.781784">
        <ele>909.111778</ele>
        <time>2021-11-03T16:19:17.032Z</time>
      </trkpt>
      <trkpt lat="40.052303" lon="-2.781771">
        <ele>909.415396</ele>
        <time>2021-11-03T16:19:17.032Z</time>
      </trkpt>
      <trkpt lat="40.052274" lon="-2.781765">
        <ele>909.566883</ele>
        <time>2021-11-03T16:19:17.032Z</time>
      </trkpt>
      <trkpt lat="40.052159" lon="-2.781739">
        <ele>910.169034</ele>
        <time>2021-11-03T16:19:17.032Z</time>
      </trkpt>
      <trkpt lat="40.052044" lon="-2.781695">
        <ele>910.787287</ele>
        <time>2021-11-03T16:19:17.032Z</time>
      </trkpt>
      <trkpt lat="40.052019" lon="-2.781677">
        <ele>910.934565</ele>
        <time>2021-11-03T16:19:17.032Z</time>
      </trkpt>
      <trkpt lat="40.051924" lon="-2.781569">
        <ele>911.584307</ele>
        <time>2021-11-03T16:19:17.032Z</time>
      </trkpt>
      <trkpt lat="40.051881" lon="-2.781500">
        <ele>911.935700</ele>
        <time>2021-11-03T16:19:17.032Z</time>
      </trkpt>
      <trkpt lat="40.051778" lon="-2.781305">
        <ele>912.871376</ele>
        <time>2021-11-03T16:19:17.032Z</time>
      </trkpt>
      <trkpt lat="40.051736" lon="-2.781226">
        <ele>913.251243</ele>
        <time>2021-11-03T16:19:17.032Z</time>
      </trkpt>
      <trkpt lat="40.051632" lon="-2.781029">
        <ele>914.196351</ele>
        <time>2021-11-03T16:19:17.032Z</time>
      </trkpt>
      <trkpt lat="40.051568" lon="-2.780912">
        <ele>914.764281</ele>
        <time>2021-11-03T16:19:17.032Z</time>
      </trkpt>
      <trkpt lat="40.051526" lon="-2.780832">
        <ele>915.183075</ele>
        <time>2021-11-03T16:19:17.032Z</time>
      </trkpt>
      <trkpt lat="40.051415" lon="-2.780632">
        <ele>916.290708</ele>
        <time>2021-11-03T16:19:17.032Z</time>
      </trkpt>
      <trkpt lat="40.051302" lon="-2.780410">
        <ele>917.486057</ele>
        <time>2021-11-03T16:19:17.032Z</time>
      </trkpt>
      <trkpt lat="40.051263" lon="-2.780345">
        <ele>917.856355</ele>
        <time>2021-11-03T16:19:17.032Z</time>
      </trkpt>
      <trkpt lat="40.051208" lon="-2.780247">
        <ele>918.401201</ele>
        <time>2021-11-03T16:19:17.032Z</time>
      </trkpt>
      <trkpt lat="40.051135" lon="-2.780113">
        <ele>919.138635</ele>
        <time>2021-11-03T16:19:17.032Z</time>
      </trkpt>
      <trkpt lat="40.051116" lon="-2.780079">
        <ele>919.327381</ele>
        <time>2021-11-03T16:19:17.032Z</time>
      </trkpt>
      <trkpt lat="40.051079" lon="-2.780011">
        <ele>919.701449</ele>
        <time>2021-11-03T16:19:17.032Z</time>
      </trkpt>
      <trkpt lat="40.051004" lon="-2.779878">
        <ele>920.442123</ele>
        <time>2021-11-03T16:19:17.032Z</time>
      </trkpt>
      <trkpt lat="40.050914" lon="-2.779715">
        <ele>921.343252</ele>
        <time>2021-11-03T16:19:17.032Z</time>
      </trkpt>
      <trkpt lat="40.050884" lon="-2.779647">
        <ele>921.695156</ele>
        <time>2021-11-03T16:19:17.032Z</time>
      </trkpt>
      <trkpt lat="40.050864" lon="-2.779525">
        <ele>922.254570</ele>
        <time>2021-11-03T16:19:17.032Z</time>
      </trkpt>
      <trkpt lat="40.050867" lon="-2.779483">
        <ele>922.443703</ele>
        <time>2021-11-03T16:19:17.032Z</time>
      </trkpt>
      <trkpt lat="40.050879" lon="-2.779399">
        <ele>922.826836</ele>
        <time>2021-11-03T16:19:17.032Z</time>
      </trkpt>
      <trkpt lat="40.050912" lon="-2.779275">
        <ele>923.415456</ele>
        <time>2021-11-03T16:19:17.032Z</time>
      </trkpt>
      <trkpt lat="40.050977" lon="-2.779068">
        <ele>924.418635</ele>
        <time>2021-11-03T16:19:17.032Z</time>
      </trkpt>
      <trkpt lat="40.050989" lon="-2.779026">
        <ele>924.619640</ele>
        <time>2021-11-03T16:19:17.032Z</time>
      </trkpt>
      <trkpt lat="40.051001" lon="-2.778983">
        <ele>924.824852</ele>
        <time>2021-11-03T16:19:17.032Z</time>
      </trkpt>
      <trkpt lat="40.051097" lon="-2.778667">
        <ele>925.340584</ele>
        <time>2021-11-03T16:19:17.032Z</time>
      </trkpt>
      <trkpt lat="40.051194" lon="-2.778348">
        <ele>925.210696</ele>
        <time>2021-11-03T16:19:17.032Z</time>
      </trkpt>
      <trkpt lat="40.051216" lon="-2.778251">
        <ele>925.172412</ele>
        <time>2021-11-03T16:19:17.032Z</time>
      </trkpt>
      <trkpt lat="40.051231" lon="-2.778149">
        <ele>925.133109</ele>
        <time>2021-11-03T16:19:17.032Z</time>
      </trkpt>
      <trkpt lat="40.051242" lon="-2.778038">
        <ele>925.090754</ele>
        <time>2021-11-03T16:19:17.032Z</time>
      </trkpt>
      <trkpt lat="40.051250" lon="-2.777843">
        <ele>925.016858</ele>
        <time>2021-11-03T16:19:17.032Z</time>
      </trkpt>
      <trkpt lat="40.051251" lon="-2.777770">
        <ele>924.989230</ele>
        <time>2021-11-03T16:19:17.032Z</time>
      </trkpt>
      <trkpt lat="40.051251" lon="-2.777551">
        <ele>924.906358</ele>
        <time>2021-11-03T16:19:17.032Z</time>
      </trkpt>
      <trkpt lat="40.051249" lon="-2.777316">
        <ele>924.817426</ele>
        <time>2021-11-03T16:19:17.032Z</time>
      </trkpt>
      <trkpt lat="40.051248" lon="-2.777238">
        <ele>924.787906</ele>
        <time>2021-11-03T16:19:17.032Z</time>
      </trkpt>
      <trkpt lat="40.051248" lon="-2.776940">
        <ele>924.675139</ele>
        <time>2021-11-03T16:19:17.032Z</time>
      </trkpt>
      <trkpt lat="40.051248" lon="-2.776723">
        <ele>924.593024</ele>
        <time>2021-11-03T16:19:17.032Z</time>
      </trkpt>
      <trkpt lat="40.051247" lon="-2.776653">
        <ele>924.566531</ele>
        <time>2021-11-03T16:19:17.032Z</time>
      </trkpt>
      <trkpt lat="40.051248" lon="-2.776230">
        <ele>925.411211</ele>
        <time>2021-11-03T16:19:17.032Z</time>
      </trkpt>
      <trkpt lat="40.051250" lon="-2.776178">
        <ele>925.551851</ele>
        <time>2021-11-03T16:19:17.032Z</time>
      </trkpt>
      <trkpt lat="40.051248" lon="-2.775923">
        <ele>926.240694</ele>
        <time>2021-11-03T16:19:17.032Z</time>
      </trkpt>
      <trkpt lat="40.051246" lon="-2.775829">
        <ele>926.494705</ele>
        <time>2021-11-03T16:19:17.032Z</time>
      </trkpt>
      <trkpt lat="40.051249" lon="-2.775648">
        <ele>926.983737</ele>
        <time>2021-11-03T16:19:17.032Z</time>
      </trkpt>
      <trkpt lat="40.051250" lon="-2.775476">
        <ele>927.448358</ele>
        <time>2021-11-03T16:19:17.032Z</time>
      </trkpt>
      <trkpt lat="40.051245" lon="-2.775413">
        <ele>927.619446</ele>
        <time>2021-11-03T16:19:17.032Z</time>
      </trkpt>
      <trkpt lat="40.051239" lon="-2.775398">
        <ele>927.665162</ele>
        <time>2021-11-03T16:19:17.032Z</time>
      </trkpt>
      <trkpt lat="40.051235" lon="-2.775377">
        <ele>927.723617</ele>
        <time>2021-11-03T16:19:17.032Z</time>
      </trkpt>
      <trkpt lat="40.051248" lon="-2.775353">
        <ele>927.803036</ele>
        <time>2021-11-03T16:19:17.032Z</time>
      </trkpt>
      <trkpt lat="40.051317" lon="-2.775327">
        <ele>928.056450</ele>
        <time>2021-11-03T16:19:17.032Z</time>
      </trkpt>
      <trkpt lat="40.051374" lon="-2.775303">
        <ele>928.267782</ele>
        <time>2021-11-03T16:19:17.032Z</time>
      </trkpt>
      <trkpt lat="40.051402" lon="-2.775287">
        <ele>928.375628</ele>
        <time>2021-11-03T16:19:17.032Z</time>
      </trkpt>
      <trkpt lat="40.051471" lon="-2.775263">
        <ele>928.627599</ele>
        <time>2021-11-03T16:19:17.032Z</time>
      </trkpt>
      <trkpt lat="40.051482" lon="-2.775263">
        <ele>928.666416</ele>
        <time>2021-11-03T16:19:17.032Z</time>
      </trkpt>
      <trkpt lat="40.051478" lon="-2.775263">
        <ele>928.680532</ele>
        <time>2021-11-03T16:19:17.032Z</time>
      </trkpt>
      <trkpt lat="40.051477" lon="-2.775263">
        <ele>928.684060</ele>
        <time>2021-11-03T16:19:17.032Z</time>
      </trkpt>
      <trkpt lat="40.051470" lon="-2.775262">
        <ele>928.708909</ele>
        <time>2021-11-03T16:19:17.032Z</time>
      </trkpt>
      <trkpt lat="40.051471" lon="-2.775262">
        <ele>928.712438</ele>
        <time>2021-11-03T16:19:17.032Z</time>
      </trkpt>
      <trkpt lat="40.051474" lon="-2.775264">
        <ele>928.724323</ele>
        <time>2021-11-03T16:19:17.032Z</time>
      </trkpt>
      <trkpt lat="40.051484" lon="-2.775266">
        <ele>928.760023</ele>
        <time>2021-11-03T16:19:17.032Z</time>
      </trkpt>
      <trkpt lat="40.051485" lon="-2.775267">
        <ele>928.764467</ele>
        <time>2021-11-03T16:19:17.032Z</time>
      </trkpt>
      <trkpt lat="40.051486" lon="-2.775268">
        <ele>928.768911</ele>
        <time>2021-11-03T16:19:17.032Z</time>
      </trkpt>
      <trkpt lat="40.051484" lon="-2.775270">
        <ele>928.777799</ele>
        <time>2021-11-03T16:19:17.032Z</time>
      </trkpt>
      <trkpt lat="40.051480" lon="-2.775269">
        <ele>928.792170</ele>
        <time>2021-11-03T16:19:17.032Z</time>
      </trkpt>
      <trkpt lat="40.051476" lon="-2.775270">
        <ele>928.806542</ele>
        <time>2021-11-03T16:19:17.032Z</time>
      </trkpt>
      <trkpt lat="40.051472" lon="-2.775266">
        <ele>928.824317</ele>
        <time>2021-11-03T16:19:17.032Z</time>
      </trkpt>
      <trkpt lat="40.051488" lon="-2.775252">
        <ele>928.892273</ele>
        <time>2021-11-03T16:19:17.032Z</time>
      </trkpt>
      <trkpt lat="40.051582" lon="-2.775236">
        <ele>929.226786</ele>
        <time>2021-11-03T16:19:17.032Z</time>
      </trkpt>
      <trkpt lat="40.051679" lon="-2.775213">
        <ele>929.574674</ele>
        <time>2021-11-03T16:19:17.032Z</time>
      </trkpt>
      <trkpt lat="40.051783" lon="-2.775189">
        <ele>929.947353</ele>
        <time>2021-11-03T16:19:17.032Z</time>
      </trkpt>
      <trkpt lat="40.051819" lon="-2.775180">
        <ele>930.076696</ele>
        <time>2021-11-03T16:19:17.032Z</time>
      </trkpt>
      <trkpt lat="40.051893" lon="-2.775159">
        <ele>930.343918</ele>
        <time>2021-11-03T16:19:17.032Z</time>
      </trkpt>
      <trkpt lat="40.052151" lon="-2.775076">
        <ele>930.890860</ele>
        <time>2021-11-03T16:19:17.032Z</time>
      </trkpt>
      <trkpt lat="40.052253" lon="-2.775024">
        <ele>930.904089</ele>
        <time>2021-11-03T16:19:17.032Z</time>
      </trkpt>
      <trkpt lat="40.052390" lon="-2.774950">
        <ele>930.922000</ele>
        <time>2021-11-03T16:19:17.032Z</time>
      </trkpt>
      <trkpt lat="40.052458" lon="-2.774909">
        <ele>930.931048</ele>
        <time>2021-11-03T16:19:17.032Z</time>
      </trkpt>
      <trkpt lat="40.052491" lon="-2.774890">
        <ele>930.935405</ele>
        <time>2021-11-03T16:19:17.032Z</time>
      </trkpt>
      <trkpt lat="40.052524" lon="-2.774870">
        <ele>930.939800</ele>
        <time>2021-11-03T16:19:17.032Z</time>
      </trkpt>
      <trkpt lat="40.052639" lon="-2.774807">
        <ele>930.954867</ele>
        <time>2021-11-03T16:19:17.032Z</time>
      </trkpt>
      <trkpt lat="40.052677" lon="-2.774787">
        <ele>930.959816</ele>
        <time>2021-11-03T16:19:17.032Z</time>
      </trkpt>
      <trkpt lat="40.052794" lon="-2.774723">
        <ele>930.975141</ele>
        <time>2021-11-03T16:19:17.032Z</time>
      </trkpt>
      <trkpt lat="40.052944" lon="-2.774644">
        <ele>930.994681</ele>
        <time>2021-11-03T16:19:17.032Z</time>
      </trkpt>
      <trkpt lat="40.053157" lon="-2.774512">
        <ele>931.023164</ele>
        <time>2021-11-03T16:19:17.032Z</time>
      </trkpt>
      <trkpt lat="40.053228" lon="-2.774461">
        <ele>931.032953</ele>
        <time>2021-11-03T16:19:17.032Z</time>
      </trkpt>
      <trkpt lat="40.053302" lon="-2.774414">
        <ele>931.042894</ele>
        <time>2021-11-03T16:19:17.032Z</time>
      </trkpt>
      <trkpt lat="40.053343" lon="-2.774388">
        <ele>931.048401</ele>
        <time>2021-11-03T16:19:17.032Z</time>
      </trkpt>
      <trkpt lat="40.053511" lon="-2.774272">
        <ele>931.071359</ele>
        <time>2021-11-03T16:19:17.032Z</time>
      </trkpt>
      <trkpt lat="40.053642" lon="-2.774169">
        <ele>931.089831</ele>
        <time>2021-11-03T16:19:17.032Z</time>
      </trkpt>
      <trkpt lat="40.053729" lon="-2.774109">
        <ele>931.130645</ele>
        <time>2021-11-03T16:19:17.032Z</time>
      </trkpt>
      <trkpt lat="40.053812" lon="-2.774048">
        <ele>931.187139</ele>
        <time>2021-11-03T16:19:17.032Z</time>
      </trkpt>
      <trkpt lat="40.053895" lon="-2.773988">
        <ele>931.243412</ele>
        <time>2021-11-03T16:19:17.032Z</time>
      </trkpt>
      <trkpt lat="40.053938" lon="-2.773966">
        <ele>931.270807</ele>
        <time>2021-11-03T16:19:17.032Z</time>
      </trkpt>
      <trkpt lat="40.054070" lon="-2.773903">
        <ele>931.354174</ele>
        <time>2021-11-03T16:19:17.032Z</time>
      </trkpt>
      <trkpt lat="40.054364" lon="-2.773804">
        <ele>931.534283</ele>
        <time>2021-11-03T16:19:17.032Z</time>
      </trkpt>
      <trkpt lat="40.054450" lon="-2.773781">
        <ele>931.586358</ele>
        <time>2021-11-03T16:19:17.032Z</time>
      </trkpt>
      <trkpt lat="40.054533" lon="-2.773749">
        <ele>931.637695</ele>
        <time>2021-11-03T16:19:17.032Z</time>
      </trkpt>
      <trkpt lat="40.054575" lon="-2.773742">
        <ele>931.662812</ele>
        <time>2021-11-03T16:19:17.032Z</time>
      </trkpt>
      <trkpt lat="40.054615" lon="-2.773728">
        <ele>931.687378</ele>
        <time>2021-11-03T16:19:17.032Z</time>
      </trkpt>
      <trkpt lat="40.054736" lon="-2.773668">
        <ele>931.764155</ele>
        <time>2021-11-03T16:19:17.032Z</time>
      </trkpt>
      <trkpt lat="40.054817" lon="-2.773632">
        <ele>931.814910</ele>
        <time>2021-11-03T16:19:17.032Z</time>
      </trkpt>
      <trkpt lat="40.054984" lon="-2.773560">
        <ele>931.919234</ele>
        <time>2021-11-03T16:19:17.032Z</time>
      </trkpt>
      <trkpt lat="40.055148" lon="-2.773488">
        <ele>932.021869</ele>
        <time>2021-11-03T16:19:17.032Z</time>
      </trkpt>
      <trkpt lat="40.055232" lon="-2.773455">
        <ele>932.073904</ele>
        <time>2021-11-03T16:19:17.032Z</time>
      </trkpt>
      <trkpt lat="40.055408" lon="-2.773382">
        <ele>932.271672</ele>
        <time>2021-11-03T16:19:17.032Z</time>
      </trkpt>
      <trkpt lat="40.055670" lon="-2.773286">
        <ele>933.076661</ele>
        <time>2021-11-03T16:19:17.032Z</time>
      </trkpt>
      <trkpt lat="40.055795" lon="-2.773241">
        <ele>933.460235</ele>
        <time>2021-11-03T16:19:17.032Z</time>
      </trkpt>
      <trkpt lat="40.056024" lon="-2.773230">
        <ele>934.138151</ele>
        <time>2021-11-03T16:19:17.032Z</time>
      </trkpt>
      <trkpt lat="40.056166" lon="-2.773215">
        <ele>934.559605</ele>
        <time>2021-11-03T16:19:17.032Z</time>
      </trkpt>
      <trkpt lat="40.056213" lon="-2.773209">
        <ele>934.699309</ele>
        <time>2021-11-03T16:19:17.032Z</time>
      </trkpt>
      <trkpt lat="40.056305" lon="-2.773197">
        <ele>934.972828</ele>
        <time>2021-11-03T16:19:17.032Z</time>
      </trkpt>
      <trkpt lat="40.056445" lon="-2.773178">
        <ele>935.389223</ele>
        <time>2021-11-03T16:19:17.032Z</time>
      </trkpt>
      <trkpt lat="40.056629" lon="-2.773161">
        <ele>935.934916</ele>
        <time>2021-11-03T16:19:17.032Z</time>
      </trkpt>
      <trkpt lat="40.056764" lon="-2.773151">
        <ele>936.334933</ele>
        <time>2021-11-03T16:19:17.032Z</time>
      </trkpt>
      <trkpt lat="40.056809" lon="-2.773149">
        <ele>936.468135</ele>
        <time>2021-11-03T16:19:17.032Z</time>
      </trkpt>
      <trkpt lat="40.056983" lon="-2.773142">
        <ele>936.983128</ele>
        <time>2021-11-03T16:19:17.032Z</time>
      </trkpt>
      <trkpt lat="40.057026" lon="-2.773147">
        <ele>937.110840</ele>
        <time>2021-11-03T16:19:17.032Z</time>
      </trkpt>
      <trkpt lat="40.057115" lon="-2.773146">
        <ele>937.374141</ele>
        <time>2021-11-03T16:19:17.032Z</time>
      </trkpt>
      <trkpt lat="40.057287" lon="-2.773136">
        <ele>937.696926</ele>
        <time>2021-11-03T16:19:17.032Z</time>
      </trkpt>
      <trkpt lat="40.057463" lon="-2.773130">
        <ele>937.975569</ele>
        <time>2021-11-03T16:19:17.032Z</time>
      </trkpt>
      <trkpt lat="40.057548" lon="-2.773123">
        <ele>938.110362</ele>
        <time>2021-11-03T16:19:17.032Z</time>
      </trkpt>
      <trkpt lat="40.057754" lon="-2.773104">
        <ele>938.437202</ele>
        <time>2021-11-03T16:19:17.032Z</time>
      </trkpt>
      <trkpt lat="40.057832" lon="-2.773095">
        <ele>938.561130</ele>
        <time>2021-11-03T16:19:17.032Z</time>
      </trkpt>
      <trkpt lat="40.057873" lon="-2.773096">
        <ele>938.626030</ele>
        <time>2021-11-03T16:19:17.032Z</time>
      </trkpt>
      <trkpt lat="40.057915" lon="-2.773096">
        <ele>938.692502</ele>
        <time>2021-11-03T16:19:17.032Z</time>
      </trkpt>
      <trkpt lat="40.058043" lon="-2.773092">
        <ele>938.895141</ele>
        <time>2021-11-03T16:19:17.032Z</time>
      </trkpt>
      <trkpt lat="40.058128" lon="-2.773089">
        <ele>939.029716</ele>
        <time>2021-11-03T16:19:17.032Z</time>
      </trkpt>
      <trkpt lat="40.058210" lon="-2.773089">
        <ele>939.159494</ele>
        <time>2021-11-03T16:19:17.032Z</time>
      </trkpt>
      <trkpt lat="40.058290" lon="-2.773092">
        <ele>939.286159</ele>
        <time>2021-11-03T16:19:17.032Z</time>
      </trkpt>
      <trkpt lat="40.058332" lon="-2.773094">
        <ele>939.352675</ele>
        <time>2021-11-03T16:19:17.032Z</time>
      </trkpt>
      <trkpt lat="40.058534" lon="-2.773090">
        <ele>939.672410</ele>
        <time>2021-11-03T16:19:17.032Z</time>
      </trkpt>
      <trkpt lat="40.058781" lon="-2.773067">
        <ele>940.064319</ele>
        <time>2021-11-03T16:19:17.032Z</time>
      </trkpt>
      <trkpt lat="40.058921" lon="-2.773049">
        <ele>940.286961</ele>
        <time>2021-11-03T16:19:17.032Z</time>
      </trkpt>
      <trkpt lat="40.059070" lon="-2.773019">
        <ele>939.662042</ele>
        <time>2021-11-03T16:19:17.032Z</time>
      </trkpt>
      <trkpt lat="40.059228" lon="-2.772967">
        <ele>938.787352</ele>
        <time>2021-11-03T16:19:17.032Z</time>
      </trkpt>
      <trkpt lat="40.059311" lon="-2.772934">
        <ele>938.321608</ele>
        <time>2021-11-03T16:19:17.032Z</time>
      </trkpt>
      <trkpt lat="40.059394" lon="-2.772899">
        <ele>937.853405</ele>
        <time>2021-11-03T16:19:17.032Z</time>
      </trkpt>
      <trkpt lat="40.059646" lon="-2.772793">
        <ele>936.432210</ele>
        <time>2021-11-03T16:19:17.032Z</time>
      </trkpt>
      <trkpt lat="40.059814" lon="-2.772717">
        <ele>935.477803</ele>
        <time>2021-11-03T16:19:17.032Z</time>
      </trkpt>
      <trkpt lat="40.059977" lon="-2.772639">
        <ele>934.545925</ele>
        <time>2021-11-03T16:19:17.032Z</time>
      </trkpt>
      <trkpt lat="40.060370" lon="-2.772432">
        <ele>932.271193</ele>
        <time>2021-11-03T16:19:17.032Z</time>
      </trkpt>
      <trkpt lat="40.060449" lon="-2.772386">
        <ele>931.806888</ele>
        <time>2021-11-03T16:19:17.032Z</time>
      </trkpt>
      <trkpt lat="40.060601" lon="-2.772292">
        <ele>930.904117</ele>
        <time>2021-11-03T16:19:17.032Z</time>
      </trkpt>
      <trkpt lat="40.060965" lon="-2.772075">
        <ele>931.242589</ele>
        <time>2021-11-03T16:19:17.032Z</time>
      </trkpt>
      <trkpt lat="40.061032" lon="-2.772037">
        <ele>931.359038</ele>
        <time>2021-11-03T16:19:17.032Z</time>
      </trkpt>
      <trkpt lat="40.061316" lon="-2.771879">
        <ele>931.851162</ele>
        <time>2021-11-03T16:19:17.032Z</time>
      </trkpt>
      <trkpt lat="40.061466" lon="-2.771789">
        <ele>932.114320</ele>
        <time>2021-11-03T16:19:17.032Z</time>
      </trkpt>
      <trkpt lat="40.061512" lon="-2.771759">
        <ele>932.196287</ele>
        <time>2021-11-03T16:19:17.032Z</time>
      </trkpt>
      <trkpt lat="40.061602" lon="-2.771700">
        <ele>932.356824</ele>
        <time>2021-11-03T16:19:17.032Z</time>
      </trkpt>
      <trkpt lat="40.061690" lon="-2.771644">
        <ele>932.512879</ele>
        <time>2021-11-03T16:19:17.032Z</time>
      </trkpt>
      <trkpt lat="40.061775" lon="-2.771587">
        <ele>932.665203</ele>
        <time>2021-11-03T16:19:17.032Z</time>
      </trkpt>
      <trkpt lat="40.061860" lon="-2.771529">
        <ele>932.818087</ele>
        <time>2021-11-03T16:19:17.032Z</time>
      </trkpt>
      <trkpt lat="40.062022" lon="-2.771412">
        <ele>933.113197</ele>
        <time>2021-11-03T16:19:17.032Z</time>
      </trkpt>
      <trkpt lat="40.062228" lon="-2.771270">
        <ele>933.484530</ele>
        <time>2021-11-03T16:19:17.032Z</time>
      </trkpt>
      <trkpt lat="40.062394" lon="-2.771138">
        <ele>933.708466</ele>
        <time>2021-11-03T16:19:17.032Z</time>
      </trkpt>
      <trkpt lat="40.062509" lon="-2.771027">
        <ele>933.859182</ele>
        <time>2021-11-03T16:19:17.032Z</time>
      </trkpt>
      <trkpt lat="40.062624" lon="-2.770923">
        <ele>934.006613</ele>
        <time>2021-11-03T16:19:17.032Z</time>
      </trkpt>
      <trkpt lat="40.062697" lon="-2.770863">
        <ele>934.097524</ele>
        <time>2021-11-03T16:19:17.032Z</time>
      </trkpt>
      <trkpt lat="40.062913" lon="-2.770701">
        <ele>934.360062</ele>
        <time>2021-11-03T16:19:17.032Z</time>
      </trkpt>
      <trkpt lat="40.063028" lon="-2.770628">
        <ele>934.494837</ele>
        <time>2021-11-03T16:19:17.032Z</time>
      </trkpt>
      <trkpt lat="40.063068" lon="-2.770602">
        <ele>934.541932</ele>
        <time>2021-11-03T16:19:17.032Z</time>
      </trkpt>
      <trkpt lat="40.063365" lon="-2.770425">
        <ele>934.886040</ele>
        <time>2021-11-03T16:19:17.032Z</time>
      </trkpt>
      <trkpt lat="40.063411" lon="-2.770403">
        <ele>934.937676</ele>
        <time>2021-11-03T16:19:17.032Z</time>
      </trkpt>
      <trkpt lat="40.063457" lon="-2.770380">
        <ele>934.989596</ele>
        <time>2021-11-03T16:19:17.032Z</time>
      </trkpt>
      <trkpt lat="40.063655" lon="-2.770301">
        <ele>935.207829</ele>
        <time>2021-11-03T16:19:17.032Z</time>
      </trkpt>
      <trkpt lat="40.063823" lon="-2.770230">
        <ele>935.393958</ele>
        <time>2021-11-03T16:19:17.032Z</time>
      </trkpt>
      <trkpt lat="40.063877" lon="-2.770202">
        <ele>935.457955</ele>
        <time>2021-11-03T16:19:17.032Z</time>
      </trkpt>
      <trkpt lat="40.063976" lon="-2.770149">
        <ele>935.587710</ele>
        <time>2021-11-03T16:19:17.032Z</time>
      </trkpt>
      <trkpt lat="40.064025" lon="-2.770123">
        <ele>935.651851</ele>
        <time>2021-11-03T16:19:17.032Z</time>
      </trkpt>
      <trkpt lat="40.064487" lon="-2.769858">
        <ele>936.263779</ele>
        <time>2021-11-03T16:19:17.032Z</time>
      </trkpt>
      <trkpt lat="40.064580" lon="-2.769812">
        <ele>936.384381</ele>
        <time>2021-11-03T16:19:17.032Z</time>
      </trkpt>
      <trkpt lat="40.064744" lon="-2.769722">
        <ele>936.600111</ele>
        <time>2021-11-03T16:19:17.032Z</time>
      </trkpt>
      <trkpt lat="40.064778" lon="-2.769703">
        <ele>936.644960</ele>
        <time>2021-11-03T16:19:17.032Z</time>
      </trkpt>
      <trkpt lat="40.064832" lon="-2.769624">
        <ele>936.743275</ele>
        <time>2021-11-03T16:19:17.032Z</time>
      </trkpt>
      <trkpt lat="40.064830" lon="-2.769592">
        <ele>936.773076</ele>
        <time>2021-11-03T16:19:17.032Z</time>
      </trkpt>
      <trkpt lat="40.064807" lon="-2.769477">
        <ele>936.883401</ele>
        <time>2021-11-03T16:19:17.032Z</time>
      </trkpt>
      <trkpt lat="40.064777" lon="-2.769390">
        <ele>936.971971</ele>
        <time>2021-11-03T16:19:17.032Z</time>
      </trkpt>
      <trkpt lat="40.064689" lon="-2.769100">
        <ele>937.261531</ele>
        <time>2021-11-03T16:19:17.032Z</time>
      </trkpt>
      <trkpt lat="40.064675" lon="-2.769051">
        <ele>937.310078</ele>
        <time>2021-11-03T16:19:17.032Z</time>
      </trkpt>
      <trkpt lat="40.064646" lon="-2.768951">
        <ele>937.409337</ele>
        <time>2021-11-03T16:19:17.032Z</time>
      </trkpt>
      <trkpt lat="40.064616" lon="-2.768850">
        <ele>937.509896</ele>
        <time>2021-11-03T16:19:17.032Z</time>
      </trkpt>
      <trkpt lat="40.064586" lon="-2.768749">
        <ele>937.610456</ele>
        <time>2021-11-03T16:19:17.032Z</time>
      </trkpt>
      <trkpt lat="40.064572" lon="-2.768695">
        <ele>937.553785</ele>
        <time>2021-11-03T16:19:17.032Z</time>
      </trkpt>
      <trkpt lat="40.064544" lon="-2.768584">
        <ele>937.398513</ele>
        <time>2021-11-03T16:19:17.032Z</time>
      </trkpt>
      <trkpt lat="40.064515" lon="-2.768474">
        <ele>937.243947</ele>
        <time>2021-11-03T16:19:17.032Z</time>
      </trkpt>
      <trkpt lat="40.064471" lon="-2.768310">
        <ele>937.013067</ele>
        <time>2021-11-03T16:19:17.032Z</time>
      </trkpt>
      <trkpt lat="40.064439" lon="-2.768193">
        <ele>936.848000</ele>
        <time>2021-11-03T16:19:17.032Z</time>
      </trkpt>
      <trkpt lat="40.064372" lon="-2.767941">
        <ele>936.493581</ele>
        <time>2021-11-03T16:19:17.032Z</time>
      </trkpt>
      <trkpt lat="40.064284" lon="-2.767613">
        <ele>936.031820</ele>
        <time>2021-11-03T16:19:17.032Z</time>
      </trkpt>
      <trkpt lat="40.064197" lon="-2.767291">
        <ele>935.578154</ele>
        <time>2021-11-03T16:19:17.032Z</time>
      </trkpt>
      <trkpt lat="40.064143" lon="-2.767093">
        <ele>935.298899</ele>
        <time>2021-11-03T16:19:17.032Z</time>
      </trkpt>
      <trkpt lat="40.064110" lon="-2.766967">
        <ele>935.121972</ele>
        <time>2021-11-03T16:19:17.032Z</time>
      </trkpt>
      <trkpt lat="40.064093" lon="-2.766903">
        <ele>935.031970</ele>
        <time>2021-11-03T16:19:17.032Z</time>
      </trkpt>
      <trkpt lat="40.064054" lon="-2.766770">
        <ele>934.842748</ele>
        <time>2021-11-03T16:19:17.032Z</time>
      </trkpt>
      <trkpt lat="40.064010" lon="-2.766634">
        <ele>934.646584</ele>
        <time>2021-11-03T16:19:17.032Z</time>
      </trkpt>
      <trkpt lat="40.063979" lon="-2.766572">
        <ele>934.548194</ele>
        <time>2021-11-03T16:19:17.032Z</time>
      </trkpt>
      <trkpt lat="40.063943" lon="-2.766515">
        <ele>934.439885</ele>
        <time>2021-11-03T16:19:17.032Z</time>
      </trkpt>
      <trkpt lat="40.063904" lon="-2.766459">
        <ele>934.317147</ele>
        <time>2021-11-03T16:19:17.032Z</time>
      </trkpt>
      <trkpt lat="40.063864" lon="-2.766405">
        <ele>934.195324</ele>
        <time>2021-11-03T16:19:17.032Z</time>
      </trkpt>
      <trkpt lat="40.063821" lon="-2.766355">
        <ele>934.073402</ele>
        <time>2021-11-03T16:19:17.032Z</time>
      </trkpt>
      <trkpt lat="40.063728" lon="-2.766266">
        <ele>933.829235</ele>
        <time>2021-11-03T16:19:17.032Z</time>
      </trkpt>
      <trkpt lat="40.063680" lon="-2.766225">
        <ele>933.707768</ele>
        <time>2021-11-03T16:19:17.032Z</time>
      </trkpt>
      <trkpt lat="40.063590" lon="-2.766143">
        <ele>933.475369</ele>
        <time>2021-11-03T16:19:17.032Z</time>
      </trkpt>
      <trkpt lat="40.063229" lon="-2.765796">
        <ele>932.526112</ele>
        <time>2021-11-03T16:19:17.032Z</time>
      </trkpt>
      <trkpt lat="40.063003" lon="-2.765586">
        <ele>931.938713</ele>
        <time>2021-11-03T16:19:17.032Z</time>
      </trkpt>
      <trkpt lat="40.062872" lon="-2.765461">
        <ele>931.595127</ele>
        <time>2021-11-03T16:19:17.032Z</time>
      </trkpt>
      <trkpt lat="40.062790" lon="-2.765379">
        <ele>931.376411</ele>
        <time>2021-11-03T16:19:17.032Z</time>
      </trkpt>
      <trkpt lat="40.062379" lon="-2.764981">
        <ele>930.504068</ele>
        <time>2021-11-03T16:19:17.032Z</time>
      </trkpt>
      <trkpt lat="40.061957" lon="-2.764570">
        <ele>929.987775</ele>
        <time>2021-11-03T16:19:17.032Z</time>
      </trkpt>
      <trkpt lat="40.061911" lon="-2.764524">
        <ele>929.930954</ele>
        <time>2021-11-03T16:19:17.032Z</time>
      </trkpt>
      <trkpt lat="40.061629" lon="-2.764259">
        <ele>929.590223</ele>
        <time>2021-11-03T16:19:17.032Z</time>
      </trkpt>
      <trkpt lat="40.061537" lon="-2.764185">
        <ele>929.484249</ele>
        <time>2021-11-03T16:19:17.032Z</time>
      </trkpt>
      <trkpt lat="40.061366" lon="-2.764027">
        <ele>929.278808</ele>
        <time>2021-11-03T16:19:17.032Z</time>
      </trkpt>
      <trkpt lat="40.061240" lon="-2.763921">
        <ele>929.131809</ele>
        <time>2021-11-03T16:19:17.032Z</time>
      </trkpt>
      <trkpt lat="40.061041" lon="-2.763728">
        <ele>928.933909</ele>
        <time>2021-11-03T16:19:17.032Z</time>
      </trkpt>
      <trkpt lat="40.060964" lon="-2.763654">
        <ele>928.967658</ele>
        <time>2021-11-03T16:19:17.032Z</time>
      </trkpt>
      <trkpt lat="40.060926" lon="-2.763617">
        <ele>928.984390</ele>
        <time>2021-11-03T16:19:17.032Z</time>
      </trkpt>
      <trkpt lat="40.060624" lon="-2.763322">
        <ele>929.117522</ele>
        <time>2021-11-03T16:19:17.032Z</time>
      </trkpt>
      <trkpt lat="40.060586" lon="-2.763286">
        <ele>929.134095</ele>
        <time>2021-11-03T16:19:17.032Z</time>
      </trkpt>
      <trkpt lat="40.060400" lon="-2.763108">
        <ele>929.215497</ele>
        <time>2021-11-03T16:19:17.032Z</time>
      </trkpt>
      <trkpt lat="40.060328" lon="-2.763037">
        <ele>929.247346</ele>
        <time>2021-11-03T16:19:17.032Z</time>
      </trkpt>
      <trkpt lat="40.060183" lon="-2.762897">
        <ele>929.311003</ele>
        <time>2021-11-03T16:19:17.032Z</time>
      </trkpt>
      <trkpt lat="40.060108" lon="-2.762825">
        <ele>929.343863</ele>
        <time>2021-11-03T16:19:17.032Z</time>
      </trkpt>
      <trkpt lat="40.059853" lon="-2.762586">
        <ele>929.454665</ele>
        <time>2021-11-03T16:19:17.032Z</time>
      </trkpt>
      <trkpt lat="40.059556" lon="-2.762292">
        <ele>929.545160</ele>
        <time>2021-11-03T16:19:17.032Z</time>
      </trkpt>
      <trkpt lat="40.059475" lon="-2.762207">
        <ele>929.530313</ele>
        <time>2021-11-03T16:19:17.032Z</time>
      </trkpt>
      <trkpt lat="40.059394" lon="-2.762125">
        <ele>929.515669</ele>
        <time>2021-11-03T16:19:17.032Z</time>
      </trkpt>
      <trkpt lat="40.059268" lon="-2.762010">
        <ele>929.493703</ele>
        <time>2021-11-03T16:19:17.032Z</time>
      </trkpt>
      <trkpt lat="40.058851" lon="-2.761623">
        <ele>929.420604</ele>
        <time>2021-11-03T16:19:17.032Z</time>
      </trkpt>
      <trkpt lat="40.058766" lon="-2.761542">
        <ele>929.405569</ele>
        <time>2021-11-03T16:19:17.032Z</time>
      </trkpt>
      <trkpt lat="40.058606" lon="-2.761396">
        <ele>929.377678</ele>
        <time>2021-11-03T16:19:17.032Z</time>
      </trkpt>
      <trkpt lat="40.058522" lon="-2.761327">
        <ele>929.363498</ele>
        <time>2021-11-03T16:19:17.032Z</time>
      </trkpt>
      <trkpt lat="40.058351" lon="-2.761174">
        <ele>929.333878</ele>
        <time>2021-11-03T16:19:17.032Z</time>
      </trkpt>
      <trkpt lat="40.058251" lon="-2.761102">
        <ele>929.317561</ele>
        <time>2021-11-03T16:19:17.032Z</time>
      </trkpt>
      <trkpt lat="40.058197" lon="-2.761066">
        <ele>929.308897</ele>
        <time>2021-11-03T16:19:17.032Z</time>
      </trkpt>
      <trkpt lat="40.058142" lon="-2.761030">
        <ele>929.300105</ele>
        <time>2021-11-03T16:19:17.032Z</time>
      </trkpt>
      <trkpt lat="40.057981" lon="-2.760920">
        <ele>928.474818</ele>
        <time>2021-11-03T16:19:17.032Z</time>
      </trkpt>
      <trkpt lat="40.057765" lon="-2.760766">
        <ele>927.350269</ele>
        <time>2021-11-03T16:19:17.032Z</time>
      </trkpt>
      <trkpt lat="40.057710" lon="-2.760726">
        <ele>927.062596</ele>
        <time>2021-11-03T16:19:17.032Z</time>
      </trkpt>
      <trkpt lat="40.057382" lon="-2.760499">
        <ele>925.366296</ele>
        <time>2021-11-03T16:19:17.032Z</time>
      </trkpt>
      <trkpt lat="40.057330" lon="-2.760461">
        <ele>925.094005</ele>
        <time>2021-11-03T16:19:17.032Z</time>
      </trkpt>
      <trkpt lat="40.057225" lon="-2.760384">
        <ele>924.543725</ele>
        <time>2021-11-03T16:19:17.032Z</time>
      </trkpt>
      <trkpt lat="40.057006" lon="-2.760227">
        <ele>923.402108</ele>
        <time>2021-11-03T16:19:17.032Z</time>
      </trkpt>
      <trkpt lat="40.056838" lon="-2.760107">
        <ele>922.527083</ele>
        <time>2021-11-03T16:19:17.032Z</time>
      </trkpt>
      <trkpt lat="40.056783" lon="-2.760069">
        <ele>922.242747</ele>
        <time>2021-11-03T16:19:17.032Z</time>
      </trkpt>
      <trkpt lat="40.056675" lon="-2.759992">
        <ele>921.680470</ele>
        <time>2021-11-03T16:19:17.032Z</time>
      </trkpt>
      <trkpt lat="40.056452" lon="-2.759830">
        <ele>920.634174</ele>
        <time>2021-11-03T16:19:17.032Z</time>
      </trkpt>
      <trkpt lat="40.056394" lon="-2.759788">
        <ele>920.395296</ele>
        <time>2021-11-03T16:19:17.032Z</time>
      </trkpt>
      <trkpt lat="40.056273" lon="-2.759705">
        <ele>919.902996</ele>
        <time>2021-11-03T16:19:17.032Z</time>
      </trkpt>
      <trkpt lat="40.056093" lon="-2.759581">
        <ele>919.169970</ele>
        <time>2021-11-03T16:19:17.032Z</time>
      </trkpt>
      <trkpt lat="40.055858" lon="-2.759415">
        <ele>918.207624</ele>
        <time>2021-11-03T16:19:17.032Z</time>
      </trkpt>
      <trkpt lat="40.055688" lon="-2.759284">
        <ele>917.496651</ele>
        <time>2021-11-03T16:19:17.032Z</time>
      </trkpt>
      <trkpt lat="40.055573" lon="-2.759199">
        <ele>917.020689</ele>
        <time>2021-11-03T16:19:17.032Z</time>
      </trkpt>
      <trkpt lat="40.055515" lon="-2.759156">
        <ele>916.780461</ele>
        <time>2021-11-03T16:19:17.032Z</time>
      </trkpt>
      <trkpt lat="40.055457" lon="-2.759115">
        <ele>916.542906</ele>
        <time>2021-11-03T16:19:17.032Z</time>
      </trkpt>
      <trkpt lat="40.055171" lon="-2.758910">
        <ele>915.367785</ele>
        <time>2021-11-03T16:19:17.032Z</time>
      </trkpt>
      <trkpt lat="40.055059" lon="-2.758829">
        <ele>914.906639</ele>
        <time>2021-11-03T16:19:17.032Z</time>
      </trkpt>
      <trkpt lat="40.054841" lon="-2.758664">
        <ele>914.175164</ele>
        <time>2021-11-03T16:19:17.032Z</time>
      </trkpt>
      <trkpt lat="40.054733" lon="-2.758582">
        <ele>913.856867</ele>
        <time>2021-11-03T16:19:17.032Z</time>
      </trkpt>
      <trkpt lat="40.054623" lon="-2.758503">
        <ele>913.537014</ele>
        <time>2021-11-03T16:19:17.032Z</time>
      </trkpt>
      <trkpt lat="40.054405" lon="-2.758340">
        <ele>912.896979</ele>
        <time>2021-11-03T16:19:17.032Z</time>
      </trkpt>
      <trkpt lat="40.054296" lon="-2.758258">
        <ele>912.576477</ele>
        <time>2021-11-03T16:19:17.032Z</time>
      </trkpt>
      <trkpt lat="40.054074" lon="-2.758105">
        <ele>911.936906</ele>
        <time>2021-11-03T16:19:17.032Z</time>
      </trkpt>
      <trkpt lat="40.053909" lon="-2.757983">
        <ele>911.453798</ele>
        <time>2021-11-03T16:19:17.032Z</time>
      </trkpt>
      <trkpt lat="40.053802" lon="-2.757895">
        <ele>911.131622</ele>
        <time>2021-11-03T16:19:17.032Z</time>
      </trkpt>
      <trkpt lat="40.053652" lon="-2.757749">
        <ele>910.654985</ele>
        <time>2021-11-03T16:19:17.032Z</time>
      </trkpt>
      <trkpt lat="40.053557" lon="-2.757642">
        <ele>910.335370</ele>
        <time>2021-11-03T16:19:17.032Z</time>
      </trkpt>
      <trkpt lat="40.053459" lon="-2.757539">
        <ele>910.020895</ele>
        <time>2021-11-03T16:19:17.032Z</time>
      </trkpt>
      <trkpt lat="40.053411" lon="-2.757486">
        <ele>910.209821</ele>
        <time>2021-11-03T16:19:17.032Z</time>
      </trkpt>
      <trkpt lat="40.053265" lon="-2.757335">
        <ele>910.769595</ele>
        <time>2021-11-03T16:19:17.032Z</time>
      </trkpt>
      <trkpt lat="40.053134" lon="-2.757207">
        <ele>911.261351</ele>
        <time>2021-11-03T16:19:17.032Z</time>
      </trkpt>
      <trkpt lat="40.052858" lon="-2.756917">
        <ele>912.326083</ele>
        <time>2021-11-03T16:19:17.032Z</time>
      </trkpt>
      <trkpt lat="40.052761" lon="-2.756808">
        <ele>912.710702</ele>
        <time>2021-11-03T16:19:17.032Z</time>
      </trkpt>
      <trkpt lat="40.052688" lon="-2.756693">
        <ele>913.054473</ele>
        <time>2021-11-03T16:19:17.032Z</time>
      </trkpt>
      <trkpt lat="40.052628" lon="-2.756568">
        <ele>913.393975</ele>
        <time>2021-11-03T16:19:17.032Z</time>
      </trkpt>
      <trkpt lat="40.052608" lon="-2.756526">
        <ele>913.507793</ele>
        <time>2021-11-03T16:19:17.032Z</time>
      </trkpt>
      <trkpt lat="40.052569" lon="-2.756439">
        <ele>913.739785</ele>
        <time>2021-11-03T16:19:17.032Z</time>
      </trkpt>
      <trkpt lat="40.052549" lon="-2.756395">
        <ele>913.857536</ele>
        <time>2021-11-03T16:19:17.032Z</time>
      </trkpt>
      <trkpt lat="40.052419" lon="-2.756137">
        <ele>914.568281</ele>
        <time>2021-11-03T16:19:17.032Z</time>
      </trkpt>
      <trkpt lat="40.052357" lon="-2.756007">
        <ele>914.920726</ele>
        <time>2021-11-03T16:19:17.032Z</time>
      </trkpt>
      <trkpt lat="40.052269" lon="-2.755835">
        <ele>915.396773</ele>
        <time>2021-11-03T16:19:17.032Z</time>
      </trkpt>
      <trkpt lat="40.052137" lon="-2.755580">
        <ele>915.858425</ele>
        <time>2021-11-03T16:19:17.032Z</time>
      </trkpt>
      <trkpt lat="40.052113" lon="-2.755538">
        <ele>915.935314</ele>
        <time>2021-11-03T16:19:17.032Z</time>
      </trkpt>
      <trkpt lat="40.052088" lon="-2.755496">
        <ele>916.013364</ele>
        <time>2021-11-03T16:19:17.032Z</time>
      </trkpt>
      <trkpt lat="40.052034" lon="-2.755417">
        <ele>916.168739</ele>
        <time>2021-11-03T16:19:17.032Z</time>
      </trkpt>
      <trkpt lat="40.051933" lon="-2.755309">
        <ele>916.418879</ele>
        <time>2021-11-03T16:19:17.032Z</time>
      </trkpt>
      <trkpt lat="40.051613" lon="-2.755062">
        <ele>917.131203</ele>
        <time>2021-11-03T16:19:17.032Z</time>
      </trkpt>
      <trkpt lat="40.051574" lon="-2.755029">
        <ele>917.220255</ele>
        <time>2021-11-03T16:19:17.032Z</time>
      </trkpt>
      <trkpt lat="40.051494" lon="-2.754966">
        <ele>917.399276</ele>
        <time>2021-11-03T16:19:17.032Z</time>
      </trkpt>
      <trkpt lat="40.051335" lon="-2.754835">
        <ele>917.759537</ele>
        <time>2021-11-03T16:19:17.032Z</time>
      </trkpt>
      <trkpt lat="40.051218" lon="-2.754736">
        <ele>918.026692</ele>
        <time>2021-11-03T16:19:17.032Z</time>
      </trkpt>
      <trkpt lat="40.051024" lon="-2.754581">
        <ele>918.462513</ele>
        <time>2021-11-03T16:19:17.032Z</time>
      </trkpt>
      <trkpt lat="40.050715" lon="-2.754322">
        <ele>918.799441</ele>
        <time>2021-11-03T16:19:17.032Z</time>
      </trkpt>
      <trkpt lat="40.050417" lon="-2.754082">
        <ele>918.635029</ele>
        <time>2021-11-03T16:19:17.032Z</time>
      </trkpt>
      <trkpt lat="40.050053" lon="-2.753782">
        <ele>918.432902</ele>
        <time>2021-11-03T16:19:17.032Z</time>
      </trkpt>
      <trkpt lat="40.049744" lon="-2.753523">
        <ele>918.260479</ele>
        <time>2021-11-03T16:19:17.032Z</time>
      </trkpt>
      <trkpt lat="40.049690" lon="-2.753478">
        <ele>918.230398</ele>
        <time>2021-11-03T16:19:17.032Z</time>
      </trkpt>
      <trkpt lat="40.049635" lon="-2.753432">
        <ele>918.199728</ele>
        <time>2021-11-03T16:19:17.032Z</time>
      </trkpt>
      <trkpt lat="40.049580" lon="-2.753386">
        <ele>918.169057</ele>
        <time>2021-11-03T16:19:17.032Z</time>
      </trkpt>
      <trkpt lat="40.049524" lon="-2.753338">
        <ele>918.137601</ele>
        <time>2021-11-03T16:19:17.032Z</time>
      </trkpt>
      <trkpt lat="40.049412" lon="-2.753243">
        <ele>918.074886</ele>
        <time>2021-11-03T16:19:17.032Z</time>
      </trkpt>
      <trkpt lat="40.049298" lon="-2.753146">
        <ele>917.966102</ele>
        <time>2021-11-03T16:19:17.032Z</time>
      </trkpt>
      <trkpt lat="40.049021" lon="-2.752910">
        <ele>917.372337</ele>
        <time>2021-11-03T16:19:17.032Z</time>
      </trkpt>
      <trkpt lat="40.048967" lon="-2.752865">
        <ele>917.257335</ele>
        <time>2021-11-03T16:19:17.032Z</time>
      </trkpt>
      <trkpt lat="40.048701" lon="-2.752637">
        <ele>916.686116</ele>
        <time>2021-11-03T16:19:17.032Z</time>
      </trkpt>
      <trkpt lat="40.048651" lon="-2.752585">
        <ele>916.571368</ele>
        <time>2021-11-03T16:19:17.032Z</time>
      </trkpt>
      <trkpt lat="40.048599" lon="-2.752536">
        <ele>916.456249</ele>
        <time>2021-11-03T16:19:17.032Z</time>
      </trkpt>
      <trkpt lat="40.048383" lon="-2.752350">
        <ele>915.991754</ele>
        <time>2021-11-03T16:19:17.032Z</time>
      </trkpt>
      <trkpt lat="40.048157" lon="-2.752160">
        <ele>915.509213</ele>
        <time>2021-11-03T16:19:17.032Z</time>
      </trkpt>
      <trkpt lat="40.048100" lon="-2.752111">
        <ele>915.386700</ele>
        <time>2021-11-03T16:19:17.032Z</time>
      </trkpt>
      <trkpt lat="40.047986" lon="-2.752014">
        <ele>915.142428</ele>
        <time>2021-11-03T16:19:17.032Z</time>
      </trkpt>
      <trkpt lat="40.047872" lon="-2.751917">
        <ele>914.898156</ele>
        <time>2021-11-03T16:19:17.032Z</time>
      </trkpt>
      <trkpt lat="40.047653" lon="-2.751733">
        <ele>914.236333</ele>
        <time>2021-11-03T16:19:17.032Z</time>
      </trkpt>
      <trkpt lat="40.047493" lon="-2.751597">
        <ele>913.712069</ele>
        <time>2021-11-03T16:19:17.032Z</time>
      </trkpt>
      <trkpt lat="40.047385" lon="-2.751509">
        <ele>913.362484</ele>
        <time>2021-11-03T16:19:17.032Z</time>
      </trkpt>
      <trkpt lat="40.046978" lon="-2.751123">
        <ele>911.981158</ele>
        <time>2021-11-03T16:19:17.032Z</time>
      </trkpt>
      <trkpt lat="40.046790" lon="-2.750754">
        <ele>911.049245</ele>
        <time>2021-11-03T16:19:17.032Z</time>
      </trkpt>
      <trkpt lat="40.046645" lon="-2.750436">
        <ele>910.271052</ele>
        <time>2021-11-03T16:19:17.032Z</time>
      </trkpt>
      <trkpt lat="40.046613" lon="-2.750354">
        <ele>910.077543</ele>
        <time>2021-11-03T16:19:17.032Z</time>
      </trkpt>
      <trkpt lat="40.046546" lon="-2.750194">
        <ele>909.608722</ele>
        <time>2021-11-03T16:19:17.032Z</time>
      </trkpt>
      <trkpt lat="40.046430" lon="-2.749867">
        <ele>908.455393</ele>
        <time>2021-11-03T16:19:17.032Z</time>
      </trkpt>
      <trkpt lat="40.046390" lon="-2.749683">
        <ele>907.843292</ele>
        <time>2021-11-03T16:19:17.032Z</time>
      </trkpt>
      <trkpt lat="40.046374" lon="-2.749587">
        <ele>907.528884</ele>
        <time>2021-11-03T16:19:17.032Z</time>
      </trkpt>
      <trkpt lat="40.046346" lon="-2.749389">
        <ele>906.884542</ele>
        <time>2021-11-03T16:19:17.032Z</time>
      </trkpt>
      <trkpt lat="40.046297" lon="-2.749084">
        <ele>905.887245</ele>
        <time>2021-11-03T16:19:17.032Z</time>
      </trkpt>
      <trkpt lat="40.046255" lon="-2.748882">
        <ele>905.217403</ele>
        <time>2021-11-03T16:19:17.032Z</time>
      </trkpt>
      <trkpt lat="40.046193" lon="-2.748489">
        <ele>903.933329</ele>
        <time>2021-11-03T16:19:17.032Z</time>
      </trkpt>
      <trkpt lat="40.046145" lon="-2.748139">
        <ele>902.795455</ele>
        <time>2021-11-03T16:19:17.032Z</time>
      </trkpt>
      <trkpt lat="40.046128" lon="-2.748059">
        <ele>902.529765</ele>
        <time>2021-11-03T16:19:17.032Z</time>
      </trkpt>
      <trkpt lat="40.046061" lon="-2.747932">
        <ele>902.184861</ele>
        <time>2021-11-03T16:19:17.032Z</time>
      </trkpt>
      <trkpt lat="40.046015" lon="-2.747886">
        <ele>902.061661</ele>
        <time>2021-11-03T16:19:17.032Z</time>
      </trkpt>
      <trkpt lat="40.045917" lon="-2.747810">
        <ele>901.819287</ele>
        <time>2021-11-03T16:19:17.032Z</time>
      </trkpt>
      <trkpt lat="40.045836" lon="-2.747752">
        <ele>901.622845</ele>
        <time>2021-11-03T16:19:17.032Z</time>
      </trkpt>
      <trkpt lat="40.045741" lon="-2.747679">
        <ele>901.388449</ele>
        <time>2021-11-03T16:19:17.032Z</time>
      </trkpt>
      <trkpt lat="40.045595" lon="-2.747556">
        <ele>901.018984</ele>
        <time>2021-11-03T16:19:17.032Z</time>
      </trkpt>
      <trkpt lat="40.045546" lon="-2.747515">
        <ele>900.895232</ele>
        <time>2021-11-03T16:19:17.032Z</time>
      </trkpt>
      <trkpt lat="40.045441" lon="-2.747449">
        <ele>900.647426</ele>
        <time>2021-11-03T16:19:17.032Z</time>
      </trkpt>
      <trkpt lat="40.045314" lon="-2.747404">
        <ele>900.367580</ele>
        <time>2021-11-03T16:19:17.032Z</time>
      </trkpt>
      <trkpt lat="40.045234" lon="-2.747381">
        <ele>900.193375</ele>
        <time>2021-11-03T16:19:17.032Z</time>
      </trkpt>
      <trkpt lat="40.045195" lon="-2.747357">
        <ele>900.101692</ele>
        <time>2021-11-03T16:19:17.032Z</time>
      </trkpt>
      <trkpt lat="40.045160" lon="-2.747322">
        <ele>900.007953</ele>
        <time>2021-11-03T16:19:17.032Z</time>
      </trkpt>
      <trkpt lat="40.045097" lon="-2.747239">
        <ele>899.817663</ele>
        <time>2021-11-03T16:19:17.032Z</time>
      </trkpt>
      <trkpt lat="40.045017" lon="-2.747075">
        <ele>899.501067</ele>
        <time>2021-11-03T16:19:17.032Z</time>
      </trkpt>
      <trkpt lat="40.044942" lon="-2.746965">
        <ele>899.261251</ele>
        <time>2021-11-03T16:19:17.032Z</time>
      </trkpt>
      <trkpt lat="40.044807" lon="-2.746822">
        <ele>898.891620</ele>
        <time>2021-11-03T16:19:17.032Z</time>
      </trkpt>
      <trkpt lat="40.044666" lon="-2.746690">
        <ele>898.522705</ele>
        <time>2021-11-03T16:19:17.032Z</time>
      </trkpt>
      <trkpt lat="40.044620" lon="-2.746646">
        <ele>898.495663</ele>
        <time>2021-11-03T16:19:17.032Z</time>
      </trkpt>
      <trkpt lat="40.044485" lon="-2.746514">
        <ele>898.437990</ele>
        <time>2021-11-03T16:19:17.032Z</time>
      </trkpt>
      <trkpt lat="40.044442" lon="-2.746469">
        <ele>898.419147</ele>
        <time>2021-11-03T16:19:17.032Z</time>
      </trkpt>
      <trkpt lat="40.044397" lon="-2.746425">
        <ele>898.399922</ele>
        <time>2021-11-03T16:19:17.032Z</time>
      </trkpt>
      <trkpt lat="40.044307" lon="-2.746336">
        <ele>898.361317</ele>
        <time>2021-11-03T16:19:17.032Z</time>
      </trkpt>
      <trkpt lat="40.044262" lon="-2.746290">
        <ele>898.341774</ele>
        <time>2021-11-03T16:19:17.032Z</time>
      </trkpt>
      <trkpt lat="40.044217" lon="-2.746244">
        <ele>898.322231</ele>
        <time>2021-11-03T16:19:17.032Z</time>
      </trkpt>
      <trkpt lat="40.044171" lon="-2.746199">
        <ele>898.302576</ele>
        <time>2021-11-03T16:19:17.032Z</time>
      </trkpt>
      <trkpt lat="40.044081" lon="-2.746109">
        <ele>898.263812</ele>
        <time>2021-11-03T16:19:17.032Z</time>
      </trkpt>
      <trkpt lat="40.043959" lon="-2.745981">
        <ele>898.210295</ele>
        <time>2021-11-03T16:19:17.032Z</time>
      </trkpt>
      <trkpt lat="40.043933" lon="-2.745924">
        <ele>898.192923</ele>
        <time>2021-11-03T16:19:17.032Z</time>
      </trkpt>
      <trkpt lat="40.043897" lon="-2.745819">
        <ele>898.162800</ele>
        <time>2021-11-03T16:19:17.032Z</time>
      </trkpt>
      <trkpt lat="40.043862" lon="-2.745770">
        <ele>898.145254</ele>
        <time>2021-11-03T16:19:17.032Z</time>
      </trkpt>
      <trkpt lat="40.043803" lon="-2.745734">
        <ele>898.122983</ele>
        <time>2021-11-03T16:19:17.032Z</time>
      </trkpt>
      <trkpt lat="40.043748" lon="-2.745689">
        <ele>898.100787</ele>
        <time>2021-11-03T16:19:17.032Z</time>
      </trkpt>
      <trkpt lat="40.043636" lon="-2.745603">
        <ele>898.056355</ele>
        <time>2021-11-03T16:19:17.032Z</time>
      </trkpt>
      <trkpt lat="40.043474" lon="-2.745495">
        <ele>897.994151</ele>
        <time>2021-11-03T16:19:17.032Z</time>
      </trkpt>
      <trkpt lat="40.043352" lon="-2.745480">
        <ele>897.952242</ele>
        <time>2021-11-03T16:19:17.032Z</time>
      </trkpt>
      <trkpt lat="40.043229" lon="-2.745481">
        <ele>897.910175</ele>
        <time>2021-11-03T16:19:17.032Z</time>
      </trkpt>
      <trkpt lat="40.043117" lon="-2.745443">
        <ele>897.986756</ele>
        <time>2021-11-03T16:19:17.032Z</time>
      </trkpt>
      <trkpt lat="40.043070" lon="-2.745403">
        <ele>898.047236</ele>
        <time>2021-11-03T16:19:17.032Z</time>
      </trkpt>
      <trkpt lat="40.043032" lon="-2.745353">
        <ele>898.105388</ele>
        <time>2021-11-03T16:19:17.032Z</time>
      </trkpt>
      <trkpt lat="40.042975" lon="-2.745232">
        <ele>898.222654</ele>
        <time>2021-11-03T16:19:17.032Z</time>
      </trkpt>
      <trkpt lat="40.042954" lon="-2.745167">
        <ele>898.280886</ele>
        <time>2021-11-03T16:19:17.032Z</time>
      </trkpt>
      <trkpt lat="40.042904" lon="-2.745039">
        <ele>898.399495</ele>
        <time>2021-11-03T16:19:17.032Z</time>
      </trkpt>
      <trkpt lat="40.042827" lon="-2.744936">
        <ele>898.518322</ele>
        <time>2021-11-03T16:19:17.032Z</time>
      </trkpt>
      <trkpt lat="40.042497" lon="-2.744613">
        <ele>898.962917</ele>
        <time>2021-11-03T16:19:17.032Z</time>
      </trkpt>
      <trkpt lat="40.042409" lon="-2.744535">
        <ele>899.077576</ele>
        <time>2021-11-03T16:19:17.032Z</time>
      </trkpt>
      <trkpt lat="40.042366" lon="-2.744495">
        <ele>899.134491</ele>
        <time>2021-11-03T16:19:17.032Z</time>
      </trkpt>
      <trkpt lat="40.042322" lon="-2.744454">
        <ele>899.192764</ele>
        <time>2021-11-03T16:19:17.032Z</time>
      </trkpt>
      <trkpt lat="40.042279" lon="-2.744414">
        <ele>899.249679</ele>
        <time>2021-11-03T16:19:17.032Z</time>
      </trkpt>
      <trkpt lat="40.042235" lon="-2.744374">
        <ele>899.307476</ele>
        <time>2021-11-03T16:19:17.032Z</time>
      </trkpt>
      <trkpt lat="40.042190" lon="-2.744334">
        <ele>899.366162</ele>
        <time>2021-11-03T16:19:17.032Z</time>
      </trkpt>
      <trkpt lat="40.042055" lon="-2.744209">
        <ele>899.544572</ele>
        <time>2021-11-03T16:19:17.032Z</time>
      </trkpt>
      <trkpt lat="40.041813" lon="-2.744010">
        <ele>899.824242</ele>
        <time>2021-11-03T16:19:17.032Z</time>
      </trkpt>
      <trkpt lat="40.041713" lon="-2.743933">
        <ele>899.711938</ele>
        <time>2021-11-03T16:19:17.032Z</time>
      </trkpt>
      <trkpt lat="40.041300" lon="-2.743657">
        <ele>899.263120</ele>
        <time>2021-11-03T16:19:17.032Z</time>
      </trkpt>
      <trkpt lat="40.041191" lon="-2.743598">
        <ele>899.148971</ele>
        <time>2021-11-03T16:19:17.032Z</time>
      </trkpt>
      <trkpt lat="40.041025" lon="-2.743512">
        <ele>898.976203</ele>
        <time>2021-11-03T16:19:17.032Z</time>
      </trkpt>
      <trkpt lat="40.040857" lon="-2.743433">
        <ele>898.803458</ele>
        <time>2021-11-03T16:19:17.032Z</time>
      </trkpt>
      <trkpt lat="40.040573" lon="-2.743324">
        <ele>898.517084</ele>
        <time>2021-11-03T16:19:17.032Z</time>
      </trkpt>
      <trkpt lat="40.040516" lon="-2.743306">
        <ele>898.460350</ele>
        <time>2021-11-03T16:19:17.032Z</time>
      </trkpt>
      <trkpt lat="40.040457" lon="-2.743288">
        <ele>898.401734</ele>
        <time>2021-11-03T16:19:17.032Z</time>
      </trkpt>
      <trkpt lat="40.040217" lon="-2.743224">
        <ele>898.164755</ele>
        <time>2021-11-03T16:19:17.032Z</time>
      </trkpt>
      <trkpt lat="40.040155" lon="-2.743209">
        <ele>898.103752</ele>
        <time>2021-11-03T16:19:17.032Z</time>
      </trkpt>
      <trkpt lat="40.039904" lon="-2.743163">
        <ele>897.448772</ele>
        <time>2021-11-03T16:19:17.032Z</time>
      </trkpt>
      <trkpt lat="40.039839" lon="-2.743156">
        <ele>897.277552</ele>
        <time>2021-11-03T16:19:17.032Z</time>
      </trkpt>
      <trkpt lat="40.039707" lon="-2.743135">
        <ele>896.928459</ele>
        <time>2021-11-03T16:19:17.032Z</time>
      </trkpt>
      <trkpt lat="40.039168" lon="-2.743060">
        <ele>895.505445</ele>
        <time>2021-11-03T16:19:17.032Z</time>
      </trkpt>
      <trkpt lat="40.039103" lon="-2.743051">
        <ele>895.333848</ele>
        <time>2021-11-03T16:19:17.032Z</time>
      </trkpt>
      <trkpt lat="40.038840" lon="-2.743010">
        <ele>894.638508</ele>
        <time>2021-11-03T16:19:17.032Z</time>
      </trkpt>
      <trkpt lat="40.038638" lon="-2.742983">
        <ele>894.105439</ele>
        <time>2021-11-03T16:19:17.032Z</time>
      </trkpt>
      <trkpt lat="40.038571" lon="-2.742974">
        <ele>893.928620</ele>
        <time>2021-11-03T16:19:17.032Z</time>
      </trkpt>
      <trkpt lat="40.038505" lon="-2.742964">
        <ele>893.754192</ele>
        <time>2021-11-03T16:19:17.032Z</time>
      </trkpt>
      <trkpt lat="40.038116" lon="-2.742903">
        <ele>893.162857</ele>
        <time>2021-11-03T16:19:17.032Z</time>
      </trkpt>
      <trkpt lat="40.037856" lon="-2.742865">
        <ele>892.937908</ele>
        <time>2021-11-03T16:19:17.032Z</time>
      </trkpt>
      <trkpt lat="40.037791" lon="-2.742854">
        <ele>892.881553</ele>
        <time>2021-11-03T16:19:17.032Z</time>
      </trkpt>
      <trkpt lat="40.037545" lon="-2.742814">
        <ele>892.668405</ele>
        <time>2021-11-03T16:19:17.032Z</time>
      </trkpt>
      <trkpt lat="40.037487" lon="-2.742813">
        <ele>892.618531</ele>
        <time>2021-11-03T16:19:17.032Z</time>
      </trkpt>
      <trkpt lat="40.037431" lon="-2.742826">
        <ele>892.569626</ele>
        <time>2021-11-03T16:19:17.032Z</time>
      </trkpt>
      <trkpt lat="40.037380" lon="-2.742849">
        <ele>892.523235</ele>
        <time>2021-11-03T16:19:17.032Z</time>
      </trkpt>
      <trkpt lat="40.037201" lon="-2.742917">
        <ele>892.362949</ele>
        <time>2021-11-03T16:19:17.032Z</time>
      </trkpt>
      <trkpt lat="40.037094" lon="-2.742873">
        <ele>892.266497</ele>
        <time>2021-11-03T16:19:17.032Z</time>
      </trkpt>
      <trkpt lat="40.037069" lon="-2.742834">
        <ele>892.233012</ele>
        <time>2021-11-03T16:19:17.032Z</time>
      </trkpt>
      <trkpt lat="40.037041" lon="-2.742732">
        <ele>892.161680</ele>
        <time>2021-11-03T16:19:17.032Z</time>
      </trkpt>
      <trkpt lat="40.037040" lon="-2.742672">
        <ele>892.122172</ele>
        <time>2021-11-03T16:19:17.032Z</time>
      </trkpt>
      <trkpt lat="40.037050" lon="-2.742614">
        <ele>892.083035</ele>
        <time>2021-11-03T16:19:17.032Z</time>
      </trkpt>
      <trkpt lat="40.037071" lon="-2.742559">
        <ele>892.042575</ele>
        <time>2021-11-03T16:19:17.032Z</time>
      </trkpt>
      <trkpt lat="40.037121" lon="-2.742447">
        <ele>891.957227</ele>
        <time>2021-11-03T16:19:17.032Z</time>
      </trkpt>
      <trkpt lat="40.037137" lon="-2.742387">
        <ele>891.915402</ele>
        <time>2021-11-03T16:19:17.032Z</time>
      </trkpt>
      <trkpt lat="40.037145" lon="-2.742323">
        <ele>891.872713</ele>
        <time>2021-11-03T16:19:17.032Z</time>
      </trkpt>
      <trkpt lat="40.037148" lon="-2.742194">
        <ele>891.883936</ele>
        <time>2021-11-03T16:19:17.032Z</time>
      </trkpt>
      <trkpt lat="40.037135" lon="-2.742009">
        <ele>892.044849</ele>
        <time>2021-11-03T16:19:17.032Z</time>
      </trkpt>
      <trkpt lat="40.037113" lon="-2.741750">
        <ele>892.270561</ele>
        <time>2021-11-03T16:19:17.032Z</time>
      </trkpt>
      <trkpt lat="40.037069" lon="-2.741505">
        <ele>892.488529</ele>
        <time>2021-11-03T16:19:17.032Z</time>
      </trkpt>
      <trkpt lat="40.037003" lon="-2.741271">
        <ele>892.704527</ele>
        <time>2021-11-03T16:19:17.032Z</time>
      </trkpt>
      <trkpt lat="40.036934" lon="-2.741105">
        <ele>892.868132</ele>
        <time>2021-11-03T16:19:17.032Z</time>
      </trkpt>
      <trkpt lat="40.036855" lon="-2.740879">
        <ele>893.083322</ele>
        <time>2021-11-03T16:19:17.032Z</time>
      </trkpt>
      <trkpt lat="40.036815" lon="-2.740771">
        <ele>893.187238</ele>
        <time>2021-11-03T16:19:17.032Z</time>
      </trkpt>
      <trkpt lat="40.036766" lon="-2.740655">
        <ele>893.301990</ele>
        <time>2021-11-03T16:19:17.032Z</time>
      </trkpt>
      <trkpt lat="40.036695" lon="-2.740487">
        <ele>893.468202</ele>
        <time>2021-11-03T16:19:17.032Z</time>
      </trkpt>
      <trkpt lat="40.036672" lon="-2.740430">
        <ele>893.524011</ele>
        <time>2021-11-03T16:19:17.032Z</time>
      </trkpt>
      <trkpt lat="40.036651" lon="-2.740370">
        <ele>893.581153</ele>
        <time>2021-11-03T16:19:17.032Z</time>
      </trkpt>
      <trkpt lat="40.036626" lon="-2.740314">
        <ele>893.637302</ele>
        <time>2021-11-03T16:19:17.032Z</time>
      </trkpt>
      <trkpt lat="40.036586" lon="-2.740201">
        <ele>893.745133</ele>
        <time>2021-11-03T16:19:17.032Z</time>
      </trkpt>
      <trkpt lat="40.036593" lon="-2.740093">
        <ele>893.839014</ele>
        <time>2021-11-03T16:19:17.032Z</time>
      </trkpt>
      <trkpt lat="40.036609" lon="-2.740041">
        <ele>893.919276</ele>
        <time>2021-11-03T16:19:17.032Z</time>
      </trkpt>
      <trkpt lat="40.036630" lon="-2.739994">
        <ele>894.030158</ele>
        <time>2021-11-03T16:19:17.032Z</time>
      </trkpt>
      <trkpt lat="40.036703" lon="-2.739891">
        <ele>894.316147</ele>
        <time>2021-11-03T16:19:17.032Z</time>
      </trkpt>
      <trkpt lat="40.036893" lon="-2.739705">
        <ele>894.948064</ele>
        <time>2021-11-03T16:19:17.032Z</time>
      </trkpt>
      <trkpt lat="40.037043" lon="-2.739575">
        <ele>895.427151</ele>
        <time>2021-11-03T16:19:17.032Z</time>
      </trkpt>
      <trkpt lat="40.037150" lon="-2.739461">
        <ele>895.794637</ele>
        <time>2021-11-03T16:19:17.032Z</time>
      </trkpt>
      <trkpt lat="40.037246" lon="-2.739389">
        <ele>896.089249</ele>
        <time>2021-11-03T16:19:17.032Z</time>
      </trkpt>
      <trkpt lat="40.037260" lon="-2.739340">
        <ele>896.195816</ele>
        <time>2021-11-03T16:19:17.032Z</time>
      </trkpt>
      <trkpt lat="40.037281" lon="-2.739288">
        <ele>896.315606</ele>
        <time>2021-11-03T16:19:17.032Z</time>
      </trkpt>
      <trkpt lat="40.037353" lon="-2.739139">
        <ele>896.674617</ele>
        <time>2021-11-03T16:19:17.032Z</time>
      </trkpt>
      <trkpt lat="40.037388" lon="-2.739033">
        <ele>896.909830</ele>
        <time>2021-11-03T16:19:17.032Z</time>
      </trkpt>
      <trkpt lat="40.037397" lon="-2.738979">
        <ele>897.022436</ele>
        <time>2021-11-03T16:19:17.032Z</time>
      </trkpt>
      <trkpt lat="40.037407" lon="-2.738926">
        <ele>897.133658</ele>
        <time>2021-11-03T16:19:17.032Z</time>
      </trkpt>
      <trkpt lat="40.037436" lon="-2.738776">
        <ele>897.448888</ele>
        <time>2021-11-03T16:19:17.032Z</time>
      </trkpt>
      <trkpt lat="40.037452" lon="-2.738727">
        <ele>897.557431</ele>
        <time>2021-11-03T16:19:17.032Z</time>
      </trkpt>
      <trkpt lat="40.037476" lon="-2.738684">
        <ele>897.665856</ele>
        <time>2021-11-03T16:19:17.032Z</time>
      </trkpt>
      <trkpt lat="40.037458" lon="-2.738536">
        <ele>897.971198</ele>
        <time>2021-11-03T16:19:17.032Z</time>
      </trkpt>
      <trkpt lat="40.037451" lon="-2.738442">
        <ele>898.163634</ele>
        <time>2021-11-03T16:19:17.032Z</time>
      </trkpt>
      <trkpt lat="40.037453" lon="-2.738294">
        <ele>898.465242</ele>
        <time>2021-11-03T16:19:17.032Z</time>
      </trkpt>
      <trkpt lat="40.037441" lon="-2.738222">
        <ele>898.615383</ele>
        <time>2021-11-03T16:19:17.032Z</time>
      </trkpt>
      <trkpt lat="40.037438" lon="-2.738163">
        <ele>898.584784</ele>
        <time>2021-11-03T16:19:17.032Z</time>
      </trkpt>
      <trkpt lat="40.037435" lon="-2.738160">
        <ele>898.576964</ele>
        <time>2021-11-03T16:19:17.032Z</time>
      </trkpt>
      <trkpt lat="40.037436" lon="-2.738162">
        <ele>898.573179</ele>
        <time>2021-11-03T16:19:17.032Z</time>
      </trkpt>
      <trkpt lat="40.037436" lon="-2.738162">
        <ele>898.573179</ele>
        <time>2021-11-03T16:19:17.032Z</time>
      </trkpt>
      <trkpt lat="40.037437" lon="-2.738162">
        <ele>898.571110</ele>
        <time>2021-11-03T16:19:17.032Z</time>
      </trkpt>
      <trkpt lat="40.037437" lon="-2.738163">
        <ele>898.569525</ele>
        <time>2021-11-03T16:19:17.032Z</time>
      </trkpt>
      <trkpt lat="40.037437" lon="-2.738162">
        <ele>898.567941</ele>
        <time>2021-11-03T16:19:17.032Z</time>
      </trkpt>
      <trkpt lat="40.037430" lon="-2.738168">
        <ele>898.550613</ele>
        <time>2021-11-03T16:19:17.032Z</time>
      </trkpt>
      <trkpt lat="40.037426" lon="-2.738169">
        <ele>898.542185</ele>
        <time>2021-11-03T16:19:17.032Z</time>
      </trkpt>
      <trkpt lat="40.037416" lon="-2.738183">
        <ele>898.511847</ele>
        <time>2021-11-03T16:19:17.032Z</time>
      </trkpt>
      <trkpt lat="40.037414" lon="-2.738184">
        <ele>898.507415</ele>
        <time>2021-11-03T16:19:17.032Z</time>
      </trkpt>
      <trkpt lat="40.037413" lon="-2.738185">
        <ele>898.504809</ele>
        <time>2021-11-03T16:19:17.032Z</time>
      </trkpt>
      <trkpt lat="40.037413" lon="-2.738186">
        <ele>898.503224</ele>
        <time>2021-11-03T16:19:17.032Z</time>
      </trkpt>
      <trkpt lat="40.037413" lon="-2.738186">
        <ele>898.503224</ele>
        <time>2021-11-03T16:19:17.032Z</time>
      </trkpt>
      <trkpt lat="40.037413" lon="-2.738187">
        <ele>898.501640</ele>
        <time>2021-11-03T16:19:17.032Z</time>
      </trkpt>
      <trkpt lat="40.037414" lon="-2.738185">
        <ele>898.497855</ele>
        <time>2021-11-03T16:19:17.032Z</time>
      </trkpt>
      <trkpt lat="40.037421" lon="-2.738169">
        <ele>898.468656</ele>
        <time>2021-11-03T16:19:17.032Z</time>
      </trkpt>
      <trkpt lat="40.037438" lon="-2.738128">
        <ele>898.394777</ele>
        <time>2021-11-03T16:19:17.032Z</time>
      </trkpt>
      <trkpt lat="40.037461" lon="-2.738009">
        <ele>898.200307</ele>
        <time>2021-11-03T16:19:17.032Z</time>
      </trkpt>
      <trkpt lat="40.037472" lon="-2.737955">
        <ele>898.111768</ele>
        <time>2021-11-03T16:19:17.032Z</time>
      </trkpt>
      <trkpt lat="40.037496" lon="-2.737832">
        <ele>897.910647</ele>
        <time>2021-11-03T16:19:17.032Z</time>
      </trkpt>
      <trkpt lat="40.037525" lon="-2.737692">
        <ele>897.680843</ele>
        <time>2021-11-03T16:19:17.032Z</time>
      </trkpt>
      <trkpt lat="40.037539" lon="-2.737624">
        <ele>897.569271</ele>
        <time>2021-11-03T16:19:17.032Z</time>
      </trkpt>
      <trkpt lat="40.037565" lon="-2.737490">
        <ele>897.350238</ele>
        <time>2021-11-03T16:19:17.032Z</time>
      </trkpt>
      <trkpt lat="40.037562" lon="-2.737420">
        <ele>897.239150</ele>
        <time>2021-11-03T16:19:17.032Z</time>
      </trkpt>
      <trkpt lat="40.037530" lon="-2.737358">
        <ele>897.120674</ele>
        <time>2021-11-03T16:19:17.032Z</time>
      </trkpt>
      <trkpt lat="40.037418" lon="-2.737266">
        <ele>896.846858</ele>
        <time>2021-11-03T16:19:17.032Z</time>
      </trkpt>
      <trkpt lat="40.037305" lon="-2.737205">
        <ele>896.593814</ele>
        <time>2021-11-03T16:19:17.032Z</time>
      </trkpt>
      <trkpt lat="40.037153" lon="-2.737097">
        <ele>896.235710</ele>
        <time>2021-11-03T16:19:17.032Z</time>
      </trkpt>
      <trkpt lat="40.037016" lon="-2.736990">
        <ele>895.905360</ele>
        <time>2021-11-03T16:19:17.032Z</time>
      </trkpt>
      <trkpt lat="40.036813" lon="-2.736852">
        <ele>895.431746</ele>
        <time>2021-11-03T16:19:17.032Z</time>
      </trkpt>
      <trkpt lat="40.036775" lon="-2.736828">
        <ele>895.344392</ele>
        <time>2021-11-03T16:19:17.032Z</time>
      </trkpt>
      <trkpt lat="40.036598" lon="-2.736700">
        <ele>894.930249</ele>
        <time>2021-11-03T16:19:17.032Z</time>
      </trkpt>
      <trkpt lat="40.036507" lon="-2.736513">
        <ele>895.145063</ele>
        <time>2021-11-03T16:19:17.032Z</time>
      </trkpt>
      <trkpt lat="40.036332" lon="-2.736120">
        <ele>895.585827</ele>
        <time>2021-11-03T16:19:17.032Z</time>
      </trkpt>
      <trkpt lat="40.036257" lon="-2.735960">
        <ele>895.767708</ele>
        <time>2021-11-03T16:19:17.032Z</time>
      </trkpt>
      <trkpt lat="40.036102" lon="-2.735598">
        <ele>896.169818</ele>
        <time>2021-11-03T16:19:17.032Z</time>
      </trkpt>
      <trkpt lat="40.035965" lon="-2.735301">
        <ele>896.505978</ele>
        <time>2021-11-03T16:19:17.032Z</time>
      </trkpt>
      <trkpt lat="40.034883" lon="-2.731329">
        <ele>904.800790</ele>
        <time>2021-11-03T16:19:17.032Z</time>
      </trkpt>
      <trkpt lat="40.034872" lon="-2.731327">
        <ele>904.852542</ele>
        <time>2021-11-03T16:19:17.032Z</time>
      </trkpt>
      <trkpt lat="40.034548" lon="-2.730900">
        <ele>906.997369</ele>
        <time>2021-11-03T16:19:17.032Z</time>
      </trkpt>
      <trkpt lat="40.034020" lon="-2.727887">
        <ele>908.724637</ele>
        <time>2021-11-03T16:19:17.032Z</time>
      </trkpt>
      <trkpt lat="40.032926" lon="-2.725808">
        <ele>901.397939</ele>
        <time>2021-11-03T16:19:17.032Z</time>
      </trkpt>
      <trkpt lat="40.032670" lon="-2.724872">
        <ele>899.808558</ele>
        <time>2021-11-03T16:19:17.032Z</time>
      </trkpt>
      <trkpt lat="40.032808" lon="-2.723953">
        <ele>898.310989</ele>
        <time>2021-11-03T16:19:17.032Z</time>
      </trkpt>
      <trkpt lat="40.033628" lon="-2.722499">
        <ele>892.500443</ele>
        <time>2021-11-03T16:19:17.032Z</time>
      </trkpt>
      <trkpt lat="40.033664" lon="-2.721434">
        <ele>890.640307</ele>
        <time>2021-11-03T16:19:17.032Z</time>
      </trkpt>
      <trkpt lat="40.032971" lon="-2.720062">
        <ele>891.556633</ele>
        <time>2021-11-03T16:19:17.032Z</time>
      </trkpt>
      <trkpt lat="40.032523" lon="-2.719728">
        <ele>893.121892</ele>
        <time>2021-11-03T16:19:17.032Z</time>
      </trkpt>
      <trkpt lat="40.032653" lon="-2.718974">
        <ele>895.858369</ele>
        <time>2021-11-03T16:19:17.032Z</time>
      </trkpt>
      <trkpt lat="40.031725" lon="-2.714807">
        <ele>900.087330</ele>
        <time>2021-11-03T16:19:17.032Z</time>
      </trkpt>
      <trkpt lat="40.031322" lon="-2.713922">
        <ele>900.095824</ele>
        <time>2021-11-03T16:19:17.032Z</time>
      </trkpt>
      <trkpt lat="40.030239" lon="-2.712367">
        <ele>899.574706</ele>
        <time>2021-11-03T16:19:17.032Z</time>
      </trkpt>
      <trkpt lat="40.029849" lon="-2.711511">
        <ele>898.495092</ele>
        <time>2021-11-03T16:19:17.032Z</time>
      </trkpt>
      <trkpt lat="40.029237" lon="-2.706776">
        <ele>881.761184</ele>
        <time>2021-11-03T16:19:17.032Z</time>
      </trkpt>
      <trkpt lat="40.029310" lon="-2.705522">
        <ele>880.669290</ele>
        <time>2021-11-03T16:19:17.032Z</time>
      </trkpt>
      <trkpt lat="40.030106" lon="-2.702274">
        <ele>880.087053</ele>
        <time>2021-11-03T16:19:17.032Z</time>
      </trkpt>
      <trkpt lat="40.030680" lon="-2.694465">
        <ele>877.947184</ele>
        <time>2021-11-03T16:19:17.032Z</time>
      </trkpt>
      <trkpt lat="40.031908" lon="-2.685845">
        <ele>861.099566</ele>
        <time>2021-11-03T16:19:17.032Z</time>
      </trkpt>
      <trkpt lat="40.031446" lon="-2.685484">
        <ele>860.722205</ele>
        <time>2021-11-03T16:19:17.032Z</time>
      </trkpt>
      <trkpt lat="40.030564" lon="-2.685416">
        <ele>860.102912</ele>
        <time>2021-11-03T16:19:17.032Z</time>
      </trkpt>
      <trkpt lat="40.029980" lon="-2.685592">
        <ele>860.089065</ele>
        <time>2021-11-03T16:19:17.032Z</time>
      </trkpt>
      <trkpt lat="40.029534" lon="-2.684696">
        <ele>860.074041</ele>
        <time>2021-11-03T16:19:17.032Z</time>
      </trkpt>
      <trkpt lat="40.028186" lon="-2.684261">
        <ele>860.029731</ele>
        <time>2021-11-03T16:19:17.032Z</time>
      </trkpt>
      <trkpt lat="40.026728" lon="-2.683237">
        <ele>860.000113</ele>
        <time>2021-11-03T16:19:17.032Z</time>
      </trkpt>
      <trkpt lat="40.026414" lon="-2.682803">
        <ele>860.000058</ele>
        <time>2021-11-03T16:19:17.032Z</time>
      </trkpt>
      <trkpt lat="40.025652" lon="-2.680932">
        <ele>860.000000</ele>
        <time>2021-11-03T16:19:17.032Z</time>
      </trkpt>
      <trkpt lat="40.024006" lon="-2.679085">
        <ele>860.017806</ele>
        <time>2021-11-03T16:19:17.032Z</time>
      </trkpt>
      <trkpt lat="40.023786" lon="-2.679317">
        <ele>860.021134</ele>
        <time>2021-11-03T16:19:17.032Z</time>
      </trkpt>
      <trkpt lat="40.023838" lon="-2.680711">
        <ele>860.058560</ele>
        <time>2021-11-03T16:19:17.032Z</time>
      </trkpt>
      <trkpt lat="40.023625" lon="-2.680907">
        <ele>860.067700</ele>
        <time>2021-11-03T16:19:17.032Z</time>
      </trkpt>
      <trkpt lat="40.023346" lon="-2.680882">
        <ele>860.077510</ele>
        <time>2021-11-03T16:19:17.032Z</time>
      </trkpt>
      <trkpt lat="40.023153" lon="-2.678841">
        <ele>860.048245</ele>
        <time>2021-11-03T16:19:17.032Z</time>
      </trkpt>
      <trkpt lat="40.022998" lon="-2.678389">
        <ele>860.038365</ele>
        <time>2021-11-03T16:19:17.032Z</time>
      </trkpt>
      <trkpt lat="40.020692" lon="-2.676875">
        <ele>860.008370</ele>
        <time>2021-11-03T16:19:17.032Z</time>
      </trkpt>
      <trkpt lat="40.013698" lon="-2.671661">
        <ele>860.092107</ele>
        <time>2021-11-03T16:19:17.032Z</time>
      </trkpt>
      <trkpt lat="40.013687" lon="-2.671474">
        <ele>860.093184</ele>
        <time>2021-11-03T16:19:17.032Z</time>
      </trkpt>
      <trkpt lat="40.016527" lon="-2.665612">
        <ele>860.005171</ele>
        <time>2021-11-03T16:19:17.032Z</time>
      </trkpt>
      <trkpt lat="40.016054" lon="-2.664425">
        <ele>860.001547</ele>
        <time>2021-11-03T16:19:17.032Z</time>
      </trkpt>
      <trkpt lat="40.015489" lon="-2.662011">
        <ele>860.007051</ele>
        <time>2021-11-03T16:19:17.032Z</time>
      </trkpt>
      <trkpt lat="40.014331" lon="-2.653941">
        <ele>860.085782</ele>
        <time>2021-11-03T16:19:17.032Z</time>
      </trkpt>
      <trkpt lat="40.012230" lon="-2.651709">
        <ele>860.040286</ele>
        <time>2021-11-03T16:19:17.032Z</time>
      </trkpt>
      <trkpt lat="40.012466" lon="-2.651045">
        <ele>860.041539</ele>
        <time>2021-11-03T16:19:17.032Z</time>
      </trkpt>
      <trkpt lat="40.012643" lon="-2.649834">
        <ele>860.027025</ele>
        <time>2021-11-03T16:19:17.032Z</time>
      </trkpt>
      <trkpt lat="40.012362" lon="-2.647858">
        <ele>860.022796</ele>
        <time>2021-11-03T16:19:17.032Z</time>
      </trkpt>
      <trkpt lat="40.011431" lon="-2.647904">
        <ele>860.056953</ele>
        <time>2021-11-03T16:19:17.032Z</time>
      </trkpt>
      <trkpt lat="40.009245" lon="-2.647533">
        <ele>860.016437</ele>
        <time>2021-11-03T16:19:17.032Z</time>
      </trkpt>
      <trkpt lat="40.005693" lon="-2.645613">
        <ele>861.112650</ele>
        <time>2021-11-03T16:19:17.032Z</time>
      </trkpt>
      <trkpt lat="40.000074" lon="-2.640289">
        <ele>878.743983</ele>
        <time>2021-11-03T16:19:17.032Z</time>
      </trkpt>
      <trkpt lat="39.996367" lon="-2.639409">
        <ele>870.856469</ele>
        <time>2021-11-03T16:19:17.032Z</time>
      </trkpt>
      <trkpt lat="39.994034" lon="-2.637044">
        <ele>870.012967</ele>
        <time>2021-11-03T16:19:17.032Z</time>
      </trkpt>
      <trkpt lat="39.992077" lon="-2.635638">
        <ele>870.000027</ele>
        <time>2021-11-03T16:19:17.032Z</time>
      </trkpt>
      <trkpt lat="39.991055" lon="-2.634548">
        <ele>870.006577</ele>
        <time>2021-11-03T16:19:17.032Z</time>
      </trkpt>
      <trkpt lat="39.990351" lon="-2.634113">
        <ele>870.016324</ele>
        <time>2021-11-03T16:19:17.032Z</time>
      </trkpt>
      <trkpt lat="39.989206" lon="-2.633676">
        <ele>870.047708</ele>
        <time>2021-11-03T16:19:17.032Z</time>
      </trkpt>
      <trkpt lat="39.988242" lon="-2.632827">
        <ele>870.065617</ele>
        <time>2021-11-03T16:19:17.032Z</time>
      </trkpt>
      <trkpt lat="39.987347" lon="-2.632284">
        <ele>870.076520</ele>
        <time>2021-11-03T16:19:17.032Z</time>
      </trkpt>
      <trkpt lat="39.985129" lon="-2.631241">
        <ele>870.082208</ele>
        <time>2021-11-03T16:19:17.032Z</time>
      </trkpt>
      <trkpt lat="39.983224" lon="-2.629529">
        <ele>870.018974</ele>
        <time>2021-11-03T16:19:17.032Z</time>
      </trkpt>
      <trkpt lat="39.982232" lon="-2.628158">
        <ele>870.015216</ele>
        <time>2021-11-03T16:19:17.032Z</time>
      </trkpt>
      <trkpt lat="39.979539" lon="-2.626624">
        <ele>870.067373</ele>
        <time>2021-11-03T16:19:17.032Z</time>
      </trkpt>
      <trkpt lat="39.977901" lon="-2.624362">
        <ele>863.640633</ele>
        <time>2021-11-03T16:19:17.032Z</time>
      </trkpt>
      <trkpt lat="39.977022" lon="-2.623735">
        <ele>854.475510</ele>
        <time>2021-11-03T16:19:17.032Z</time>
      </trkpt>
      <trkpt lat="39.975366" lon="-2.622124">
        <ele>850.000010</ele>
        <time>2021-11-03T16:19:17.032Z</time>
      </trkpt>
      <trkpt lat="39.975021" lon="-2.621496">
        <ele>850.000055</ele>
        <time>2021-11-03T16:19:17.032Z</time>
      </trkpt>
      <trkpt lat="39.974083" lon="-2.620582">
        <ele>850.004561</ele>
        <time>2021-11-03T16:19:17.032Z</time>
      </trkpt>
      <trkpt lat="39.973612" lon="-2.619830">
        <ele>850.037843</ele>
        <time>2021-11-03T16:19:17.032Z</time>
      </trkpt>
      <trkpt lat="39.973352" lon="-2.619059">
        <ele>850.066710</ele>
        <time>2021-11-03T16:19:17.032Z</time>
      </trkpt>
      <trkpt lat="39.972685" lon="-2.618880">
        <ele>850.068757</ele>
        <time>2021-11-03T16:19:17.032Z</time>
      </trkpt>
      <trkpt lat="39.971334" lon="-2.617460">
        <ele>850.019343</ele>
        <time>2021-11-03T16:19:17.032Z</time>
      </trkpt>
      <trkpt lat="39.969944" lon="-2.616356">
        <ele>850.152016</ele>
        <time>2021-11-03T16:19:17.032Z</time>
      </trkpt>
      <trkpt lat="39.968711" lon="-2.615671">
        <ele>851.651783</ele>
        <time>2021-11-03T16:19:17.032Z</time>
      </trkpt>
      <trkpt lat="39.966748" lon="-2.614846">
        <ele>858.824165</ele>
        <time>2021-11-03T16:19:17.032Z</time>
      </trkpt>
      <trkpt lat="39.963837" lon="-2.612036">
        <ele>859.908908</ele>
        <time>2021-11-03T16:19:17.032Z</time>
      </trkpt>
      <trkpt lat="39.963590" lon="-2.611940">
        <ele>858.804256</ele>
        <time>2021-11-03T16:19:17.032Z</time>
      </trkpt>
      <trkpt lat="39.963102" lon="-2.612012">
        <ele>856.372264</ele>
        <time>2021-11-03T16:19:17.032Z</time>
      </trkpt>
      <trkpt lat="39.962486" lon="-2.611673">
        <ele>853.061553</ele>
        <time>2021-11-03T16:19:17.032Z</time>
      </trkpt>
      <trkpt lat="39.961458" lon="-2.610043">
        <ele>850.366825</ele>
        <time>2021-11-03T16:19:17.032Z</time>
      </trkpt>
      <trkpt lat="39.961033" lon="-2.608383">
        <ele>850.648643</ele>
        <time>2021-11-03T16:19:17.032Z</time>
      </trkpt>
      <trkpt lat="39.960723" lon="-2.607839">
        <ele>851.064809</ele>
        <time>2021-11-03T16:19:17.032Z</time>
      </trkpt>
      <trkpt lat="39.958476" lon="-2.606694">
        <ele>855.635801</ele>
        <time>2021-11-03T16:19:17.032Z</time>
      </trkpt>
      <trkpt lat="39.957052" lon="-2.606428">
        <ele>856.191374</ele>
        <time>2021-11-03T16:19:17.032Z</time>
      </trkpt>
      <trkpt lat="39.955613" lon="-2.605680">
        <ele>856.910158</ele>
        <time>2021-11-03T16:19:17.032Z</time>
      </trkpt>
      <trkpt lat="39.953511" lon="-2.603924">
        <ele>859.665420</ele>
        <time>2021-11-03T16:19:17.032Z</time>
      </trkpt>
      <trkpt lat="39.951260" lon="-2.602805">
        <ele>862.039139</ele>
        <time>2021-11-03T16:19:17.032Z</time>
      </trkpt>
      <trkpt lat="39.949214" lon="-2.601537">
        <ele>868.382234</ele>
        <time>2021-11-03T16:19:17.032Z</time>
      </trkpt>
      <trkpt lat="39.949043" lon="-2.599976">
        <ele>873.365409</ele>
        <time>2021-11-03T16:19:17.032Z</time>
      </trkpt>
      <trkpt lat="39.948753" lon="-2.599104">
        <ele>877.021190</ele>
        <time>2021-11-03T16:19:17.032Z</time>
      </trkpt>
      <trkpt lat="39.949209" lon="-2.597364">
        <ele>879.622423</ele>
        <time>2021-11-03T16:19:17.032Z</time>
      </trkpt>
      <trkpt lat="39.949565" lon="-2.596642">
        <ele>879.961634</ele>
        <time>2021-11-03T16:19:17.032Z</time>
      </trkpt>
      <trkpt lat="39.949577" lon="-2.596286">
        <ele>880.035306</ele>
        <time>2021-11-03T16:19:17.032Z</time>
      </trkpt>
      <trkpt lat="39.949401" lon="-2.594639">
        <ele>880.012577</ele>
        <time>2021-11-03T16:19:17.032Z</time>
      </trkpt>
      <trkpt lat="39.948448" lon="-2.591966">
        <ele>880.000000</ele>
        <time>2021-11-03T16:19:17.032Z</time>
      </trkpt>
      <trkpt lat="39.946477" lon="-2.588268">
        <ele>882.000995</ele>
        <time>2021-11-03T16:19:17.032Z</time>
      </trkpt>
      <trkpt lat="39.945855" lon="-2.586797">
        <ele>887.292768</ele>
        <time>2021-11-03T16:19:17.032Z</time>
      </trkpt>
      <trkpt lat="39.945156" lon="-2.585687">
        <ele>889.886456</ele>
        <time>2021-11-03T16:19:17.032Z</time>
      </trkpt>
      <trkpt lat="39.943900" lon="-2.581854">
        <ele>890.000000</ele>
        <time>2021-11-03T16:19:17.032Z</time>
      </trkpt>
      <trkpt lat="39.943034" lon="-2.580553">
        <ele>890.000000</ele>
        <time>2021-11-03T16:19:17.032Z</time>
      </trkpt>
      <trkpt lat="39.942264" lon="-2.578743">
        <ele>890.000000</ele>
        <time>2021-11-03T16:19:17.032Z</time>
      </trkpt>
      <trkpt lat="39.939885" lon="-2.574234">
        <ele>890.000000</ele>
        <time>2021-11-03T16:19:17.032Z</time>
      </trkpt>
      <trkpt lat="39.938705" lon="-2.570903">
        <ele>890.007776</ele>
        <time>2021-11-03T16:19:17.032Z</time>
      </trkpt>
      <trkpt lat="39.935423" lon="-2.564838">
        <ele>890.071665</ele>
        <time>2021-11-03T16:19:17.032Z</time>
      </trkpt>
      <trkpt lat="39.934504" lon="-2.562842">
        <ele>890.038938</ele>
        <time>2021-11-03T16:19:17.032Z</time>
      </trkpt>
      <trkpt lat="39.933196" lon="-2.560636">
        <ele>890.080128</ele>
        <time>2021-11-03T16:19:17.032Z</time>
      </trkpt>
      <trkpt lat="39.931482" lon="-2.556155">
        <ele>890.006814</ele>
        <time>2021-11-03T16:19:17.032Z</time>
      </trkpt>
      <trkpt lat="39.930322" lon="-2.553749">
        <ele>890.000000</ele>
        <time>2021-11-03T16:19:17.032Z</time>
      </trkpt>
      <trkpt lat="39.927837" lon="-2.543526">
        <ele>890.013450</ele>
        <time>2021-11-03T16:19:17.032Z</time>
      </trkpt>
      <trkpt lat="39.927959" lon="-2.540332">
        <ele>891.897448</ele>
        <time>2021-11-03T16:19:17.032Z</time>
      </trkpt>
      <trkpt lat="39.928640" lon="-2.535318">
        <ele>907.740249</ele>
        <time>2021-11-03T16:19:17.032Z</time>
      </trkpt>
      <trkpt lat="39.929106" lon="-2.533520">
        <ele>908.402577</ele>
        <time>2021-11-03T16:19:17.032Z</time>
      </trkpt>
      <trkpt lat="39.929171" lon="-2.532632">
        <ele>905.747289</ele>
        <time>2021-11-03T16:19:17.032Z</time>
      </trkpt>
      <trkpt lat="39.928803" lon="-2.529991">
        <ele>897.096224</ele>
        <time>2021-11-03T16:19:17.032Z</time>
      </trkpt>
      <trkpt lat="39.927771" lon="-2.527007">
        <ele>886.732957</ele>
        <time>2021-11-03T16:19:17.032Z</time>
      </trkpt>
      <trkpt lat="39.927610" lon="-2.526770">
        <ele>885.725420</ele>
        <time>2021-11-03T16:19:17.032Z</time>
      </trkpt>
      <trkpt lat="39.925768" lon="-2.525565">
        <ele>880.054037</ele>
        <time>2021-11-03T16:19:17.032Z</time>
      </trkpt>
      <trkpt lat="39.924909" lon="-2.526079">
        <ele>880.079651</ele>
        <time>2021-11-03T16:19:17.032Z</time>
      </trkpt>
      <trkpt lat="39.922705" lon="-2.526324">
        <ele>880.089290</ele>
        <time>2021-11-03T16:19:17.032Z</time>
      </trkpt>
      <trkpt lat="39.920655" lon="-2.524908">
        <ele>873.735576</ele>
        <time>2021-11-03T16:19:17.032Z</time>
      </trkpt>
      <trkpt lat="39.919491" lon="-2.524539">
        <ele>864.852789</ele>
        <time>2021-11-03T16:19:17.032Z</time>
      </trkpt>
      <trkpt lat="39.918574" lon="-2.524540">
        <ele>862.176309</ele>
        <time>2021-11-03T16:19:17.032Z</time>
      </trkpt>
      <trkpt lat="39.916875" lon="-2.524174">
        <ele>860.363765</ele>
        <time>2021-11-03T16:19:17.032Z</time>
      </trkpt>
      <trkpt lat="39.916280" lon="-2.523749">
        <ele>860.541606</ele>
        <time>2021-11-03T16:19:17.032Z</time>
      </trkpt>
      <trkpt lat="39.914067" lon="-2.517626">
        <ele>869.349191</ele>
        <time>2021-11-03T16:19:17.032Z</time>
      </trkpt>
      <trkpt lat="39.912956" lon="-2.513792">
        <ele>870.032189</ele>
        <time>2021-11-03T16:19:17.032Z</time>
      </trkpt>
      <trkpt lat="39.912318" lon="-2.512841">
        <ele>870.055462</ele>
        <time>2021-11-03T16:19:17.032Z</time>
      </trkpt>
      <trkpt lat="39.911066" lon="-2.511985">
        <ele>870.050483</ele>
        <time>2021-11-03T16:19:17.032Z</time>
      </trkpt>
      <trkpt lat="39.910494" lon="-2.511382">
        <ele>870.065227</ele>
        <time>2021-11-03T16:19:17.032Z</time>
      </trkpt>
      <trkpt lat="39.910168" lon="-2.510718">
        <ele>870.082092</ele>
        <time>2021-11-03T16:19:17.032Z</time>
      </trkpt>
      <trkpt lat="39.909738" lon="-2.509134">
        <ele>871.219561</ele>
        <time>2021-11-03T16:19:17.032Z</time>
      </trkpt>
      <trkpt lat="39.909299" lon="-2.508264">
        <ele>872.602257</ele>
        <time>2021-11-03T16:19:17.032Z</time>
      </trkpt>
      <trkpt lat="39.908449" lon="-2.506813">
        <ele>877.177785</ele>
        <time>2021-11-03T16:19:17.032Z</time>
      </trkpt>
      <trkpt lat="39.906926" lon="-2.504830">
        <ele>880.691873</ele>
        <time>2021-11-03T16:19:17.032Z</time>
      </trkpt>
      <trkpt lat="39.906444" lon="-2.503996">
        <ele>882.850579</ele>
        <time>2021-11-03T16:19:17.032Z</time>
      </trkpt>
      <trkpt lat="39.906241" lon="-2.502966">
        <ele>886.829252</ele>
        <time>2021-11-03T16:19:17.032Z</time>
      </trkpt>
      <trkpt lat="39.906418" lon="-2.499857">
        <ele>890.722963</ele>
        <time>2021-11-03T16:19:17.032Z</time>
      </trkpt>
      <trkpt lat="39.906179" lon="-2.495723">
        <ele>900.489822</ele>
        <time>2021-11-03T16:19:17.032Z</time>
      </trkpt>
      <trkpt lat="39.906022" lon="-2.495236">
        <ele>901.909550</ele>
        <time>2021-11-03T16:19:17.032Z</time>
      </trkpt>
      <trkpt lat="39.905314" lon="-2.494191">
        <ele>907.723739</ele>
        <time>2021-11-03T16:19:17.032Z</time>
      </trkpt>
      <trkpt lat="39.905085" lon="-2.493599">
        <ele>910.488628</ele>
        <time>2021-11-03T16:19:17.032Z</time>
      </trkpt>
      <trkpt lat="39.904058" lon="-2.488542">
        <ele>928.637281</ele>
        <time>2021-11-03T16:19:17.032Z</time>
      </trkpt>
      <trkpt lat="39.903537" lon="-2.487266">
        <ele>930.338053</ele>
        <time>2021-11-03T16:19:17.032Z</time>
      </trkpt>
      <trkpt lat="39.903282" lon="-2.486906">
        <ele>930.914589</ele>
        <time>2021-11-03T16:19:17.032Z</time>
      </trkpt>
      <trkpt lat="39.902087" lon="-2.486110">
        <ele>935.787568</ele>
        <time>2021-11-03T16:19:17.032Z</time>
      </trkpt>
      <trkpt lat="39.901498" lon="-2.485558">
        <ele>938.155933</ele>
        <time>2021-11-03T16:19:17.032Z</time>
      </trkpt>
      <trkpt lat="39.901028" lon="-2.484665">
        <ele>939.086287</ele>
        <time>2021-11-03T16:19:17.032Z</time>
      </trkpt>
      <trkpt lat="39.900562" lon="-2.483345">
        <ele>941.236496</ele>
        <time>2021-11-03T16:19:17.032Z</time>
      </trkpt>
      <trkpt lat="39.900496" lon="-2.482573">
        <ele>943.704183</ele>
        <time>2021-11-03T16:19:17.032Z</time>
      </trkpt>
      <trkpt lat="39.900939" lon="-2.481443">
        <ele>947.842128</ele>
        <time>2021-11-03T16:19:17.032Z</time>
      </trkpt>
      <trkpt lat="39.901060" lon="-2.480653">
        <ele>951.351566</ele>
        <time>2021-11-03T16:19:17.032Z</time>
      </trkpt>
      <trkpt lat="39.900948" lon="-2.479010">
        <ele>958.513943</ele>
        <time>2021-11-03T16:19:17.032Z</time>
      </trkpt>
      <trkpt lat="39.900639" lon="-2.478129">
        <ele>962.621586</ele>
        <time>2021-11-03T16:19:17.032Z</time>
      </trkpt>
      <trkpt lat="39.899965" lon="-2.477387">
        <ele>967.497880</ele>
        <time>2021-11-03T16:19:17.032Z</time>
      </trkpt>
      <trkpt lat="39.898882" lon="-2.476888">
        <ele>969.129603</ele>
        <time>2021-11-03T16:19:17.032Z</time>
      </trkpt>
      <trkpt lat="39.898238" lon="-2.476350">
        <ele>970.033718</ele>
        <time>2021-11-03T16:19:17.032Z</time>
      </trkpt>
      <trkpt lat="39.879299" lon="-2.454072">
        <ele>970.089253</ele>
        <time>2021-11-03T16:19:17.032Z</time>
      </trkpt>
      <trkpt lat="39.876562" lon="-2.448999">
        <ele>966.186291</ele>
        <time>2021-11-03T16:19:17.032Z</time>
      </trkpt>
      <trkpt lat="39.873802" lon="-2.445309">
        <ele>923.543621</ele>
        <time>2021-11-03T16:19:17.032Z</time>
      </trkpt>
      <trkpt lat="39.872216" lon="-2.441940">
        <ele>920.087803</ele>
        <time>2021-11-03T16:19:17.032Z</time>
      </trkpt>
      <trkpt lat="39.872010" lon="-2.441711">
        <ele>920.094341</ele>
        <time>2021-11-03T16:19:17.032Z</time>
      </trkpt>
      <trkpt lat="39.872064" lon="-2.441300">
        <ele>920.098073</ele>
        <time>2021-11-03T16:19:17.032Z</time>
      </trkpt>
      <trkpt lat="39.872315" lon="-2.441112">
        <ele>920.098416</ele>
        <time>2021-11-03T16:19:17.032Z</time>
      </trkpt>
      <trkpt lat="39.872342" lon="-2.440960">
        <ele>920.098558</ele>
        <time>2021-11-03T16:19:17.032Z</time>
      </trkpt>
      <trkpt lat="39.872261" lon="-2.440397">
        <ele>920.099080</ele>
        <time>2021-11-03T16:19:17.032Z</time>
      </trkpt>
      <trkpt lat="39.872189" lon="-2.439787">
        <ele>920.099642</ele>
        <time>2021-11-03T16:19:17.032Z</time>
      </trkpt>
      <trkpt lat="39.872189" lon="-2.439681">
        <ele>920.099738</ele>
        <time>2021-11-03T16:19:17.032Z</time>
      </trkpt>
      <trkpt lat="39.872342" lon="-2.439517">
        <ele>920.099973</ele>
        <time>2021-11-03T16:19:17.032Z</time>
      </trkpt>
      <trkpt lat="39.872351" lon="-2.439282">
        <ele>920.100000</ele>
        <time>2021-11-03T16:19:17.032Z</time>
      </trkpt>
      <trkpt lat="39.872414" lon="-2.438954">
        <ele>920.100000</ele>
        <time>2021-11-03T16:19:17.032Z</time>
      </trkpt>
      <trkpt lat="39.872495" lon="-2.438789">
        <ele>920.100000</ele>
        <time>2021-11-03T16:19:17.032Z</time>
      </trkpt>
      <trkpt lat="39.872558" lon="-2.438637">
        <ele>920.100000</ele>
        <time>2021-11-03T16:19:17.032Z</time>
      </trkpt>
      <trkpt lat="39.872656" lon="-2.438496">
        <ele>920.100000</ele>
        <time>2021-11-03T16:19:17.032Z</time>
      </trkpt>
      <trkpt lat="39.872764" lon="-2.438379">
        <ele>920.100000</ele>
        <time>2021-11-03T16:19:17.032Z</time>
      </trkpt>
      <trkpt lat="39.867269" lon="-2.441171">
        <ele>910.099976</ele>
        <time>2021-11-03T16:19:53.349Z</time>
      </trkpt>
      <trkpt lat="39.866715" lon="-2.441326">
        <ele>910.099976</ele>
        <time>2021-11-03T16:19:53.349Z</time>
      </trkpt>
      <trkpt lat="39.861204" lon="-2.444907">
        <ele>912.423108</ele>
        <time>2021-11-03T16:19:53.349Z</time>
      </trkpt>
      <trkpt lat="39.859872" lon="-2.445296">
        <ele>918.389799</ele>
        <time>2021-11-03T16:19:53.349Z</time>
      </trkpt>
      <trkpt lat="39.858940" lon="-2.444919">
        <ele>919.321282</ele>
        <time>2021-11-03T16:19:53.349Z</time>
      </trkpt>
      <trkpt lat="39.857449" lon="-2.445350">
        <ele>920.076248</ele>
        <time>2021-11-03T16:19:53.349Z</time>
      </trkpt>
      <trkpt lat="39.855627" lon="-2.445230">
        <ele>920.023984</ele>
        <time>2021-11-03T16:19:53.349Z</time>
      </trkpt>
      <trkpt lat="39.852579" lon="-2.444175">
        <ele>920.964354</ele>
        <time>2021-11-03T16:19:53.349Z</time>
      </trkpt>
      <trkpt lat="39.849150" lon="-2.444210">
        <ele>929.311736</ele>
        <time>2021-11-03T16:19:53.349Z</time>
      </trkpt>
      <trkpt lat="39.848266" lon="-2.444547">
        <ele>929.742895</ele>
        <time>2021-11-03T16:19:53.349Z</time>
      </trkpt>
      <trkpt lat="39.847313" lon="-2.444533">
        <ele>930.099976</ele>
        <time>2021-11-03T16:19:53.349Z</time>
      </trkpt>
      <trkpt lat="39.846455" lon="-2.444702">
        <ele>930.099976</ele>
        <time>2021-11-03T16:19:53.349Z</time>
      </trkpt>
      <trkpt lat="39.845886" lon="-2.444404">
        <ele>930.099976</ele>
        <time>2021-11-03T16:19:53.349Z</time>
      </trkpt>
      <trkpt lat="39.844777" lon="-2.444287">
        <ele>929.821992</ele>
        <time>2021-11-03T16:19:53.349Z</time>
      </trkpt>
      <trkpt lat="39.844056" lon="-2.443922">
        <ele>929.603739</ele>
        <time>2021-11-03T16:19:53.349Z</time>
      </trkpt>
      <trkpt lat="39.838542" lon="-2.445167">
        <ele>919.679880</ele>
        <time>2021-11-03T16:19:53.349Z</time>
      </trkpt>
      <trkpt lat="39.838191" lon="-2.445033">
        <ele>918.904909</ele>
        <time>2021-11-03T16:19:53.349Z</time>
      </trkpt>
      <trkpt lat="39.837893" lon="-2.444496">
        <ele>917.826998</ele>
        <time>2021-11-03T16:19:53.349Z</time>
      </trkpt>
      <trkpt lat="39.838261" lon="-2.445214">
        <ele>916.422578</ele>
        <time>2021-11-03T16:19:53.349Z</time>
      </trkpt>
      <trkpt lat="39.836275" lon="-2.443755">
        <ele>904.394939</ele>
        <time>2021-11-03T16:19:53.349Z</time>
      </trkpt>
      <trkpt lat="39.835782" lon="-2.443115">
        <ele>901.673363</ele>
        <time>2021-11-03T16:19:53.349Z</time>
      </trkpt>
      <trkpt lat="39.835138" lon="-2.442795">
        <ele>898.978454</ele>
        <time>2021-11-03T16:19:53.349Z</time>
      </trkpt>
      <trkpt lat="39.833176" lon="-2.442676">
        <ele>891.482772</ele>
        <time>2021-11-03T16:19:53.349Z</time>
      </trkpt>
      <trkpt lat="39.830254" lon="-2.441811">
        <ele>893.868793</ele>
        <time>2021-11-03T16:19:53.349Z</time>
      </trkpt>
      <trkpt lat="39.829361" lon="-2.441953">
        <ele>896.361004</ele>
        <time>2021-11-03T16:19:53.349Z</time>
      </trkpt>
      <trkpt lat="39.828476" lon="-2.442458">
        <ele>898.973382</ele>
        <time>2021-11-03T16:19:53.349Z</time>
      </trkpt>
      <trkpt lat="39.827865" lon="-2.442580">
        <ele>900.606232</ele>
        <time>2021-11-03T16:19:53.349Z</time>
      </trkpt>
      <trkpt lat="39.827296" lon="-2.442577">
        <ele>902.044270</ele>
        <time>2021-11-03T16:19:53.349Z</time>
      </trkpt>
      <trkpt lat="39.825127" lon="-2.442105">
        <ele>909.959917</ele>
        <time>2021-11-03T16:19:53.349Z</time>
      </trkpt>
      <trkpt lat="39.823102" lon="-2.440839">
        <ele>917.556501</ele>
        <time>2021-11-03T16:19:53.349Z</time>
      </trkpt>
      <trkpt lat="39.822839" lon="-2.440414">
        <ele>916.929475</ele>
        <time>2021-11-03T16:19:53.349Z</time>
      </trkpt>
      <trkpt lat="39.822574" lon="-2.439302">
        <ele>913.035453</ele>
        <time>2021-11-03T16:19:53.349Z</time>
      </trkpt>
      <trkpt lat="39.822244" lon="-2.438931">
        <ele>911.136842</ele>
        <time>2021-11-03T16:19:53.349Z</time>
      </trkpt>
      <trkpt lat="39.819822" lon="-2.439081">
        <ele>909.397916</ele>
        <time>2021-11-03T16:19:53.349Z</time>
      </trkpt>
      <trkpt lat="39.813513" lon="-2.436890">
        <ele>900.490289</ele>
        <time>2021-11-03T16:19:53.349Z</time>
      </trkpt>
      <trkpt lat="39.812479" lon="-2.436685">
        <ele>899.935017</ele>
        <time>2021-11-03T16:19:53.349Z</time>
      </trkpt>
      <trkpt lat="39.811146" lon="-2.436700">
        <ele>898.422934</ele>
        <time>2021-11-03T16:19:53.349Z</time>
      </trkpt>
      <trkpt lat="39.809160" lon="-2.436087">
        <ele>892.092800</ele>
        <time>2021-11-03T16:19:53.349Z</time>
      </trkpt>
      <trkpt lat="39.806693" lon="-2.435784">
        <ele>886.849044</ele>
        <time>2021-11-03T16:19:53.349Z</time>
      </trkpt>
      <trkpt lat="39.805484" lon="-2.436142">
        <ele>883.390122</ele>
        <time>2021-11-03T16:19:53.349Z</time>
      </trkpt>
      <trkpt lat="39.802707" lon="-2.435855">
        <ele>880.099976</ele>
        <time>2021-11-03T16:19:53.349Z</time>
      </trkpt>
      <trkpt lat="39.800254" lon="-2.434255">
        <ele>880.079450</ele>
        <time>2021-11-03T16:19:53.349Z</time>
      </trkpt>
      <trkpt lat="39.798137" lon="-2.433579">
        <ele>880.029909</ele>
        <time>2021-11-03T16:19:53.349Z</time>
      </trkpt>
      <trkpt lat="39.797548" lon="-2.433269">
        <ele>880.019307</ele>
        <time>2021-11-03T16:19:53.349Z</time>
      </trkpt>
      <trkpt lat="39.796547" lon="-2.432284">
        <ele>880.074446</ele>
        <time>2021-11-03T16:19:53.349Z</time>
      </trkpt>
      <trkpt lat="39.795209" lon="-2.430426">
        <ele>880.099114</ele>
        <time>2021-11-03T16:19:53.349Z</time>
      </trkpt>
      <trkpt lat="39.794250" lon="-2.429835">
        <ele>880.084949</ele>
        <time>2021-11-03T16:19:53.349Z</time>
      </trkpt>
      <trkpt lat="39.790441" lon="-2.428922">
        <ele>881.592346</ele>
        <time>2021-11-03T16:19:53.349Z</time>
      </trkpt>
      <trkpt lat="39.788260" lon="-2.426592">
        <ele>888.959877</ele>
        <time>2021-11-03T16:19:53.349Z</time>
      </trkpt>
      <trkpt lat="39.788138" lon="-2.426770">
        <ele>889.092090</ele>
        <time>2021-11-03T16:19:53.349Z</time>
      </trkpt>
      <trkpt lat="39.787871" lon="-2.426393">
        <ele>889.376285</ele>
        <time>2021-11-03T16:19:53.349Z</time>
      </trkpt>
      <trkpt lat="39.787025" lon="-2.425999">
        <ele>890.024461</ele>
        <time>2021-11-03T16:19:53.349Z</time>
      </trkpt>
      <trkpt lat="39.784340" lon="-2.424011">
        <ele>892.377837</ele>
        <time>2021-11-03T16:19:53.349Z</time>
      </trkpt>
      <trkpt lat="39.784392" lon="-2.422936">
        <ele>894.293475</ele>
        <time>2021-11-03T16:19:53.349Z</time>
      </trkpt>
      <trkpt lat="39.784394" lon="-2.422888">
        <ele>894.420407</ele>
        <time>2021-11-03T16:19:53.349Z</time>
      </trkpt>
      <trkpt lat="39.784379" lon="-2.422806">
        <ele>894.642980</ele>
        <time>2021-11-03T16:19:53.349Z</time>
      </trkpt>
      <trkpt lat="39.784372" lon="-2.422756">
        <ele>894.777180</ele>
        <time>2021-11-03T16:19:53.349Z</time>
      </trkpt>
      <trkpt lat="39.784354" lon="-2.422646">
        <ele>895.074151</ele>
        <time>2021-11-03T16:19:53.349Z</time>
      </trkpt>
      <trkpt lat="39.784345" lon="-2.422527">
        <ele>895.389893</ele>
        <time>2021-11-03T16:19:53.349Z</time>
      </trkpt>
      <trkpt lat="39.784336" lon="-2.422172">
        <ele>896.327792</ele>
        <time>2021-11-03T16:19:53.349Z</time>
      </trkpt>
      <trkpt lat="39.784316" lon="-2.421974">
        <ele>896.855115</ele>
        <time>2021-11-03T16:19:53.349Z</time>
      </trkpt>
      <trkpt lat="39.784249" lon="-2.421778">
        <ele>897.421555</ele>
        <time>2021-11-03T16:19:53.349Z</time>
      </trkpt>
      <trkpt lat="39.784221" lon="-2.421664">
        <ele>897.737578</ele>
        <time>2021-11-03T16:19:53.349Z</time>
      </trkpt>
      <trkpt lat="39.784212" lon="-2.421627">
        <ele>897.840056</ele>
        <time>2021-11-03T16:19:53.349Z</time>
      </trkpt>
      <trkpt lat="39.784182" lon="-2.421508">
        <ele>898.170757</ele>
        <time>2021-11-03T16:19:53.349Z</time>
      </trkpt>
      <trkpt lat="39.784174" lon="-2.421471">
        <ele>898.272250</ele>
        <time>2021-11-03T16:19:53.349Z</time>
      </trkpt>
      <trkpt lat="39.784175" lon="-2.421372">
        <ele>898.533686</ele>
        <time>2021-11-03T16:19:53.349Z</time>
      </trkpt>
      <trkpt lat="39.784168" lon="-2.421283">
        <ele>898.769922</ele>
        <time>2021-11-03T16:19:53.349Z</time>
      </trkpt>
      <trkpt lat="39.784160" lon="-2.421241">
        <ele>898.884181</ele>
        <time>2021-11-03T16:19:53.349Z</time>
      </trkpt>
      <trkpt lat="39.784144" lon="-2.421205">
        <ele>898.993994</ele>
        <time>2021-11-03T16:19:53.349Z</time>
      </trkpt>
      <trkpt lat="39.784088" lon="-2.421138">
        <ele>899.255387</ele>
        <time>2021-11-03T16:19:53.349Z</time>
      </trkpt>
      <trkpt lat="39.784050" lon="-2.421057">
        <ele>899.505978</ele>
        <time>2021-11-03T16:19:53.349Z</time>
      </trkpt>
      <trkpt lat="39.784013" lon="-2.420975">
        <ele>899.740015</ele>
        <time>2021-11-03T16:19:53.349Z</time>
      </trkpt>
      <trkpt lat="39.783956" lon="-2.420855">
        <ele>899.820159</ele>
        <time>2021-11-03T16:19:53.349Z</time>
      </trkpt>
      <trkpt lat="39.783804" lon="-2.420657">
        <ele>899.979152</ele>
        <time>2021-11-03T16:19:53.349Z</time>
      </trkpt>
      <trkpt lat="39.783757" lon="-2.420584">
        <ele>900.033255</ele>
        <time>2021-11-03T16:19:53.349Z</time>
      </trkpt>
      <trkpt lat="39.783736" lon="-2.420544">
        <ele>900.060775</ele>
        <time>2021-11-03T16:19:53.349Z</time>
      </trkpt>
      <trkpt lat="39.783590" lon="-2.420257">
        <ele>900.256307</ele>
        <time>2021-11-03T16:19:53.349Z</time>
      </trkpt>
      <trkpt lat="39.783544" lon="-2.420143">
        <ele>900.329455</ele>
        <time>2021-11-03T16:19:53.349Z</time>
      </trkpt>
      <trkpt lat="39.783513" lon="-2.419968">
        <ele>900.431480</ele>
        <time>2021-11-03T16:19:53.349Z</time>
      </trkpt>
      <trkpt lat="39.783498" lon="-2.419794">
        <ele>900.530949</ele>
        <time>2021-11-03T16:19:53.349Z</time>
      </trkpt>
      <trkpt lat="39.783491" lon="-2.419670">
        <ele>900.601583</ele>
        <time>2021-11-03T16:19:53.349Z</time>
      </trkpt>
      <trkpt lat="39.783470" lon="-2.419296">
        <ele>900.814618</ele>
        <time>2021-11-03T16:19:53.349Z</time>
      </trkpt>
      <trkpt lat="39.783394" lon="-2.418963">
        <ele>901.011962</ele>
        <time>2021-11-03T16:19:53.349Z</time>
      </trkpt>
      <trkpt lat="39.783354" lon="-2.418857">
        <ele>901.062488</ele>
        <time>2021-11-03T16:19:53.349Z</time>
      </trkpt>
      <trkpt lat="39.783256" lon="-2.418658">
        <ele>901.038389</ele>
        <time>2021-11-03T16:19:53.349Z</time>
      </trkpt>
      <trkpt lat="39.783208" lon="-2.418562">
        <ele>901.026711</ele>
        <time>2021-11-03T16:19:53.349Z</time>
      </trkpt>
      <trkpt lat="39.783159" lon="-2.418473">
        <ele>901.015548</ele>
        <time>2021-11-03T16:19:53.349Z</time>
      </trkpt>
      <trkpt lat="39.783038" lon="-2.418271">
        <ele>900.989433</ele>
        <time>2021-11-03T16:19:53.349Z</time>
      </trkpt>
      <trkpt lat="39.782936" lon="-2.418095">
        <ele>900.966957</ele>
        <time>2021-11-03T16:19:53.349Z</time>
      </trkpt>
      <trkpt lat="39.782907" lon="-2.418054">
        <ele>900.961275</ele>
        <time>2021-11-03T16:19:53.349Z</time>
      </trkpt>
      <trkpt lat="39.782737" lon="-2.417779">
        <ele>900.925289</ele>
        <time>2021-11-03T16:19:53.349Z</time>
      </trkpt>
      <trkpt lat="39.782709" lon="-2.417735">
        <ele>900.919464</ele>
        <time>2021-11-03T16:19:53.349Z</time>
      </trkpt>
      <trkpt lat="39.782656" lon="-2.417656">
        <ele>900.908772</ele>
        <time>2021-11-03T16:19:53.349Z</time>
      </trkpt>
      <trkpt lat="39.782571" lon="-2.417534">
        <ele>900.891981</ele>
        <time>2021-11-03T16:19:53.349Z</time>
      </trkpt>
      <trkpt lat="39.782544" lon="-2.417492">
        <ele>900.886398</ele>
        <time>2021-11-03T16:19:53.349Z</time>
      </trkpt>
      <trkpt lat="39.782399" lon="-2.417314">
        <ele>900.859949</ele>
        <time>2021-11-03T16:19:53.349Z</time>
      </trkpt>
      <trkpt lat="39.782242" lon="-2.417109">
        <ele>900.830439</ele>
        <time>2021-11-03T16:19:53.349Z</time>
      </trkpt>
      <trkpt lat="39.782223" lon="-2.417080">
        <ele>900.826553</ele>
        <time>2021-11-03T16:19:53.349Z</time>
      </trkpt>
      <trkpt lat="39.782175" lon="-2.417022">
        <ele>900.546972</ele>
        <time>2021-11-03T16:19:53.349Z</time>
      </trkpt>
      <trkpt lat="39.782155" lon="-2.416991">
        <ele>900.411306</ele>
        <time>2021-11-03T16:19:53.349Z</time>
      </trkpt>
      <trkpt lat="39.782111" lon="-2.416918">
        <ele>900.100345</ele>
        <time>2021-11-03T16:19:53.349Z</time>
      </trkpt>
      <trkpt lat="39.782086" lon="-2.416878">
        <ele>899.927531</ele>
        <time>2021-11-03T16:19:53.349Z</time>
      </trkpt>
      <trkpt lat="39.782062" lon="-2.416836">
        <ele>899.752104</ele>
        <time>2021-11-03T16:19:53.349Z</time>
      </trkpt>
      <trkpt lat="39.782035" lon="-2.416791">
        <ele>899.560747</ele>
        <time>2021-11-03T16:19:53.349Z</time>
      </trkpt>
      <trkpt lat="39.781975" lon="-2.416698">
        <ele>899.153746</ele>
        <time>2021-11-03T16:19:53.349Z</time>
      </trkpt>
      <trkpt lat="39.781943" lon="-2.416650">
        <ele>898.940758</ele>
        <time>2021-11-03T16:19:53.349Z</time>
      </trkpt>
      <trkpt lat="39.781847" lon="-2.416506">
        <ele>898.301794</ele>
        <time>2021-11-03T16:19:53.349Z</time>
      </trkpt>
      <trkpt lat="39.781716" lon="-2.416299">
        <ele>897.402994</ele>
        <time>2021-11-03T16:19:53.349Z</time>
      </trkpt>
      <trkpt lat="39.781683" lon="-2.416244">
        <ele>897.169112</ele>
        <time>2021-11-03T16:19:53.349Z</time>
      </trkpt>
      <trkpt lat="39.781610" lon="-2.416132">
        <ele>896.676872</ele>
        <time>2021-11-03T16:19:53.349Z</time>
      </trkpt>
      <trkpt lat="39.781496" lon="-2.415963">
        <ele>895.923152</ele>
        <time>2021-11-03T16:19:53.349Z</time>
      </trkpt>
      <trkpt lat="39.781382" lon="-2.415790">
        <ele>895.159303</ele>
        <time>2021-11-03T16:19:53.349Z</time>
      </trkpt>
      <trkpt lat="39.781307" lon="-2.415680">
        <ele>894.666409</ele>
        <time>2021-11-03T16:19:53.349Z</time>
      </trkpt>
      <trkpt lat="39.781271" lon="-2.415626">
        <ele>894.426797</ele>
        <time>2021-11-03T16:19:53.349Z</time>
      </trkpt>
      <trkpt lat="39.781234" lon="-2.415569">
        <ele>894.176709</ele>
        <time>2021-11-03T16:19:53.349Z</time>
      </trkpt>
      <trkpt lat="39.781036" lon="-2.415302">
        <ele>892.946180</ele>
        <time>2021-11-03T16:19:53.349Z</time>
      </trkpt>
      <trkpt lat="39.780974" lon="-2.415220">
        <ele>892.665113</ele>
        <time>2021-11-03T16:19:53.349Z</time>
      </trkpt>
      <trkpt lat="39.780860" lon="-2.415066">
        <ele>892.142666</ele>
        <time>2021-11-03T16:19:53.349Z</time>
      </trkpt>
      <trkpt lat="39.780806" lon="-2.414985">
        <ele>891.880665</ele>
        <time>2021-11-03T16:19:53.349Z</time>
      </trkpt>
      <trkpt lat="39.780648" lon="-2.414740">
        <ele>891.099197</ele>
        <time>2021-11-03T16:19:53.349Z</time>
      </trkpt>
      <trkpt lat="39.780522" lon="-2.414597">
        <ele>890.567632</ele>
        <time>2021-11-03T16:19:53.349Z</time>
      </trkpt>
      <trkpt lat="39.780483" lon="-2.414579">
        <ele>890.436068</ele>
        <time>2021-11-03T16:19:53.349Z</time>
      </trkpt>
      <trkpt lat="39.780480" lon="-2.414579">
        <ele>890.426530</ele>
        <time>2021-11-03T16:19:53.349Z</time>
      </trkpt>
      <trkpt lat="39.780367" lon="-2.414571">
        <ele>890.066729</ele>
        <time>2021-11-03T16:19:53.349Z</time>
      </trkpt>
      <trkpt lat="39.780332" lon="-2.414559">
        <ele>889.951653</ele>
        <time>2021-11-03T16:19:53.349Z</time>
      </trkpt>
      <trkpt lat="39.780292" lon="-2.414533">
        <ele>889.809494</ele>
        <time>2021-11-03T16:19:53.349Z</time>
      </trkpt>
      <trkpt lat="39.780258" lon="-2.414485">
        <ele>889.649994</ele>
        <time>2021-11-03T16:19:53.349Z</time>
      </trkpt>
      <trkpt lat="39.780225" lon="-2.414420">
        <ele>889.459649</ele>
        <time>2021-11-03T16:19:53.349Z</time>
      </trkpt>
      <trkpt lat="39.780191" lon="-2.414344">
        <ele>889.244781</ele>
        <time>2021-11-03T16:19:53.349Z</time>
      </trkpt>
      <trkpt lat="39.780158" lon="-2.414262">
        <ele>889.018616</ele>
        <time>2021-11-03T16:19:53.349Z</time>
      </trkpt>
      <trkpt lat="39.780126" lon="-2.414175">
        <ele>888.782951</ele>
        <time>2021-11-03T16:19:53.349Z</time>
      </trkpt>
      <trkpt lat="39.780061" lon="-2.413988">
        <ele>888.281478</ele>
        <time>2021-11-03T16:19:53.349Z</time>
      </trkpt>
      <trkpt lat="39.780028" lon="-2.413891">
        <ele>888.022287</ele>
        <time>2021-11-03T16:19:53.349Z</time>
      </trkpt>
      <trkpt lat="39.779880" lon="-2.413492">
        <ele>887.143755</ele>
        <time>2021-11-03T16:19:53.349Z</time>
      </trkpt>
      <trkpt lat="39.779799" lon="-2.413290">
        <ele>886.938448</ele>
        <time>2021-11-03T16:19:53.349Z</time>
      </trkpt>
      <trkpt lat="39.779671" lon="-2.412998">
        <ele>886.635535</ele>
        <time>2021-11-03T16:19:53.349Z</time>
      </trkpt>
      <trkpt lat="39.779626" lon="-2.412904">
        <ele>886.535743</ele>
        <time>2021-11-03T16:19:53.349Z</time>
      </trkpt>
      <trkpt lat="39.779496" lon="-2.412640">
        <ele>886.253210</ele>
        <time>2021-11-03T16:19:53.349Z</time>
      </trkpt>
      <trkpt lat="39.779258" lon="-2.412152">
        <ele>885.732403</ele>
        <time>2021-11-03T16:19:53.349Z</time>
      </trkpt>
      <trkpt lat="39.779218" lon="-2.412074">
        <ele>885.647906</ele>
        <time>2021-11-03T16:19:53.349Z</time>
      </trkpt>
      <trkpt lat="39.778988" lon="-2.411601">
        <ele>885.156333</ele>
        <time>2021-11-03T16:19:53.349Z</time>
      </trkpt>
      <trkpt lat="39.778910" lon="-2.411443">
        <ele>885.194044</ele>
        <time>2021-11-03T16:19:53.349Z</time>
      </trkpt>
      <trkpt lat="39.778828" lon="-2.411291">
        <ele>885.231338</ele>
        <time>2021-11-03T16:19:53.349Z</time>
      </trkpt>
      <trkpt lat="39.778595" lon="-2.410829">
        <ele>885.342308</ele>
        <time>2021-11-03T16:19:53.349Z</time>
      </trkpt>
      <trkpt lat="39.778554" lon="-2.410756">
        <ele>885.360466</ele>
        <time>2021-11-03T16:19:53.349Z</time>
      </trkpt>
      <trkpt lat="39.778308" lon="-2.410332">
        <ele>885.467152</ele>
        <time>2021-11-03T16:19:53.349Z</time>
      </trkpt>
      <trkpt lat="39.778183" lon="-2.410126">
        <ele>885.519861</ele>
        <time>2021-11-03T16:19:53.349Z</time>
      </trkpt>
      <trkpt lat="39.778098" lon="-2.409989">
        <ele>885.555219</ele>
        <time>2021-11-03T16:19:53.349Z</time>
      </trkpt>
      <trkpt lat="39.777845" lon="-2.409579">
        <ele>885.357454</ele>
        <time>2021-11-03T16:19:53.349Z</time>
      </trkpt>
      <trkpt lat="39.777755" lon="-2.409454">
        <ele>885.108451</ele>
        <time>2021-11-03T16:19:53.349Z</time>
      </trkpt>
      <trkpt lat="39.777657" lon="-2.409332">
        <ele>884.851902</ele>
        <time>2021-11-03T16:19:53.349Z</time>
      </trkpt>
      <trkpt lat="39.777508" lon="-2.409144">
        <ele>884.459310</ele>
        <time>2021-11-03T16:19:53.349Z</time>
      </trkpt>
      <trkpt lat="39.777360" lon="-2.408960">
        <ele>884.072113</ele>
        <time>2021-11-03T16:19:53.349Z</time>
      </trkpt>
      <trkpt lat="39.777309" lon="-2.408899">
        <ele>883.941078</ele>
        <time>2021-11-03T16:19:53.349Z</time>
      </trkpt>
      <trkpt lat="39.777258" lon="-2.408835">
        <ele>883.807053</ele>
        <time>2021-11-03T16:19:53.349Z</time>
      </trkpt>
      <trkpt lat="39.776957" lon="-2.408459">
        <ele>883.017783</ele>
        <time>2021-11-03T16:19:53.349Z</time>
      </trkpt>
      <trkpt lat="39.776859" lon="-2.408333">
        <ele>882.757178</ele>
        <time>2021-11-03T16:19:53.349Z</time>
      </trkpt>
      <trkpt lat="39.776656" lon="-2.408088">
        <ele>882.233440</ele>
        <time>2021-11-03T16:19:53.349Z</time>
      </trkpt>
      <trkpt lat="39.776397" lon="-2.407773">
        <ele>881.634860</ele>
        <time>2021-11-03T16:19:53.349Z</time>
      </trkpt>
      <trkpt lat="39.776080" lon="-2.407392">
        <ele>880.907799</ele>
        <time>2021-11-03T16:19:53.349Z</time>
      </trkpt>
      <trkpt lat="39.776028" lon="-2.407327">
        <ele>880.786312</ele>
        <time>2021-11-03T16:19:53.349Z</time>
      </trkpt>
      <trkpt lat="39.775821" lon="-2.407074">
        <ele>880.307829</ele>
        <time>2021-11-03T16:19:53.349Z</time>
      </trkpt>
      <trkpt lat="39.775668" lon="-2.406882">
        <ele>879.949703</ele>
        <time>2021-11-03T16:19:53.349Z</time>
      </trkpt>
      <trkpt lat="39.775617" lon="-2.406821">
        <ele>879.832991</ele>
        <time>2021-11-03T16:19:53.349Z</time>
      </trkpt>
      <trkpt lat="39.775565" lon="-2.406758">
        <ele>879.713283</ele>
        <time>2021-11-03T16:19:53.349Z</time>
      </trkpt>
      <trkpt lat="39.775459" lon="-2.406637">
        <ele>879.475710</ele>
        <time>2021-11-03T16:19:53.349Z</time>
      </trkpt>
      <trkpt lat="39.775249" lon="-2.406386">
        <ele>879.056848</ele>
        <time>2021-11-03T16:19:53.349Z</time>
      </trkpt>
      <trkpt lat="39.775198" lon="-2.406319">
        <ele>878.973071</ele>
        <time>2021-11-03T16:19:53.349Z</time>
      </trkpt>
      <trkpt lat="39.775044" lon="-2.406126">
        <ele>878.725906</ele>
        <time>2021-11-03T16:19:53.349Z</time>
      </trkpt>
      <trkpt lat="39.774993" lon="-2.406064">
        <ele>878.645225</ele>
        <time>2021-11-03T16:19:53.349Z</time>
      </trkpt>
      <trkpt lat="39.774942" lon="-2.406002">
        <ele>878.564543</ele>
        <time>2021-11-03T16:19:53.349Z</time>
      </trkpt>
      <trkpt lat="39.774792" lon="-2.405815">
        <ele>878.324405</ele>
        <time>2021-11-03T16:19:53.349Z</time>
      </trkpt>
      <trkpt lat="39.774742" lon="-2.405751">
        <ele>878.243328</ele>
        <time>2021-11-03T16:19:53.349Z</time>
      </trkpt>
      <trkpt lat="39.774646" lon="-2.405624">
        <ele>878.085070</ele>
        <time>2021-11-03T16:19:53.349Z</time>
      </trkpt>
      <trkpt lat="39.774364" lon="-2.405237">
        <ele>877.611282</ele>
        <time>2021-11-03T16:19:53.349Z</time>
      </trkpt>
      <trkpt lat="39.774087" lon="-2.404820">
        <ele>877.121608</ele>
        <time>2021-11-03T16:19:53.349Z</time>
      </trkpt>
      <trkpt lat="39.774039" lon="-2.404751">
        <ele>877.091528</ele>
        <time>2021-11-03T16:19:53.349Z</time>
      </trkpt>
      <trkpt lat="39.773762" lon="-2.404316">
        <ele>876.949579</ele>
        <time>2021-11-03T16:19:53.349Z</time>
      </trkpt>
      <trkpt lat="39.773630" lon="-2.404091">
        <ele>876.878453</ele>
        <time>2021-11-03T16:19:53.349Z</time>
      </trkpt>
      <trkpt lat="39.773585" lon="-2.404016">
        <ele>876.854544</ele>
        <time>2021-11-03T16:19:53.349Z</time>
      </trkpt>
      <trkpt lat="39.773368" lon="-2.403658">
        <ele>876.739976</ele>
        <time>2021-11-03T16:19:53.349Z</time>
      </trkpt>
      <trkpt lat="39.773200" lon="-2.403383">
        <ele>876.651704</ele>
        <time>2021-11-03T16:19:53.349Z</time>
      </trkpt>
      <trkpt lat="39.773001" lon="-2.403056">
        <ele>876.546897</ele>
        <time>2021-11-03T16:19:53.349Z</time>
      </trkpt>
      <trkpt lat="39.772772" lon="-2.402669">
        <ele>877.143132</ele>
        <time>2021-11-03T16:19:53.349Z</time>
      </trkpt>
      <trkpt lat="39.772661" lon="-2.402479">
        <ele>877.514086</ele>
        <time>2021-11-03T16:19:53.349Z</time>
      </trkpt>
      <trkpt lat="39.772519" lon="-2.402221">
        <ele>878.007324</ele>
        <time>2021-11-03T16:19:53.349Z</time>
      </trkpt>
      <trkpt lat="39.772441" lon="-2.402093">
        <ele>878.261226</ele>
        <time>2021-11-03T16:19:53.349Z</time>
      </trkpt>
      <trkpt lat="39.772403" lon="-2.402028">
        <ele>878.388164</ele>
        <time>2021-11-03T16:19:53.349Z</time>
      </trkpt>
      <trkpt lat="39.772170" lon="-2.401641">
        <ele>879.152280</ele>
        <time>2021-11-03T16:19:53.349Z</time>
      </trkpt>
      <trkpt lat="39.772094" lon="-2.401509">
        <ele>879.408638</ele>
        <time>2021-11-03T16:19:53.349Z</time>
      </trkpt>
      <trkpt lat="39.772056" lon="-2.401445">
        <ele>879.534342</ele>
        <time>2021-11-03T16:19:53.349Z</time>
      </trkpt>
      <trkpt lat="39.771831" lon="-2.401052">
        <ele>880.213701</ele>
        <time>2021-11-03T16:19:53.349Z</time>
      </trkpt>
      <trkpt lat="39.771754" lon="-2.400924">
        <ele>880.311524</ele>
        <time>2021-11-03T16:19:53.349Z</time>
      </trkpt>
      <trkpt lat="39.771715" lon="-2.400859">
        <ele>880.361150</ele>
        <time>2021-11-03T16:19:53.349Z</time>
      </trkpt>
      <trkpt lat="39.771524" lon="-2.400534">
        <ele>880.607368</ele>
        <time>2021-11-03T16:19:53.349Z</time>
      </trkpt>
      <trkpt lat="39.771449" lon="-2.400406">
        <ele>880.704234</ele>
        <time>2021-11-03T16:19:53.349Z</time>
      </trkpt>
      <trkpt lat="39.771297" lon="-2.400150">
        <ele>880.898918</ele>
        <time>2021-11-03T16:19:53.349Z</time>
      </trkpt>
      <trkpt lat="39.771066" lon="-2.399763">
        <ele>881.193811</ele>
        <time>2021-11-03T16:19:53.349Z</time>
      </trkpt>
      <trkpt lat="39.770877" lon="-2.399438">
        <ele>881.439082</ele>
        <time>2021-11-03T16:19:53.349Z</time>
      </trkpt>
      <trkpt lat="39.770727" lon="-2.399180">
        <ele>881.666530</ele>
        <time>2021-11-03T16:19:53.349Z</time>
      </trkpt>
      <trkpt lat="39.770545" lon="-2.398849">
        <ele>882.037337</ele>
        <time>2021-11-03T16:19:53.349Z</time>
      </trkpt>
      <trkpt lat="39.770354" lon="-2.398523">
        <ele>882.410818</ele>
        <time>2021-11-03T16:19:53.349Z</time>
      </trkpt>
      <trkpt lat="39.770318" lon="-2.398460">
        <ele>882.482344</ele>
        <time>2021-11-03T16:19:53.349Z</time>
      </trkpt>
      <trkpt lat="39.770242" lon="-2.398331">
        <ele>882.630436</ele>
        <time>2021-11-03T16:19:53.349Z</time>
      </trkpt>
      <trkpt lat="39.770165" lon="-2.398201">
        <ele>882.779972</ele>
        <time>2021-11-03T16:19:53.349Z</time>
      </trkpt>
      <trkpt lat="39.769977" lon="-2.397886">
        <ele>883.143342</ele>
        <time>2021-11-03T16:19:53.349Z</time>
      </trkpt>
      <trkpt lat="39.769867" lon="-2.397698">
        <ele>883.358619</ele>
        <time>2021-11-03T16:19:53.349Z</time>
      </trkpt>
      <trkpt lat="39.769754" lon="-2.397506">
        <ele>883.578952</ele>
        <time>2021-11-03T16:19:53.349Z</time>
      </trkpt>
      <trkpt lat="39.769520" lon="-2.397126">
        <ele>883.975288</ele>
        <time>2021-11-03T16:19:53.349Z</time>
      </trkpt>
      <trkpt lat="39.769481" lon="-2.397061">
        <ele>884.039327</ele>
        <time>2021-11-03T16:19:53.349Z</time>
      </trkpt>
      <trkpt lat="39.769405" lon="-2.396935">
        <ele>884.163714</ele>
        <time>2021-11-03T16:19:53.349Z</time>
      </trkpt>
      <trkpt lat="39.769178" lon="-2.396546">
        <ele>884.543021</ele>
        <time>2021-11-03T16:19:53.349Z</time>
      </trkpt>
      <trkpt lat="39.769141" lon="-2.396483">
        <ele>884.604596</ele>
        <time>2021-11-03T16:19:53.349Z</time>
      </trkpt>
      <trkpt lat="39.768956" lon="-2.396164">
        <ele>884.914946</ele>
        <time>2021-11-03T16:19:53.349Z</time>
      </trkpt>
      <trkpt lat="39.768733" lon="-2.395787">
        <ele>885.284396</ele>
        <time>2021-11-03T16:19:53.349Z</time>
      </trkpt>
      <trkpt lat="39.768621" lon="-2.395598">
        <ele>885.469737</ele>
        <time>2021-11-03T16:19:53.349Z</time>
      </trkpt>
      <trkpt lat="39.768511" lon="-2.395403">
        <ele>885.832571</ele>
        <time>2021-11-03T16:19:53.349Z</time>
      </trkpt>
      <trkpt lat="39.768438" lon="-2.395272">
        <ele>886.117491</ele>
        <time>2021-11-03T16:19:53.349Z</time>
      </trkpt>
      <trkpt lat="39.768295" lon="-2.395013">
        <ele>886.679028</ele>
        <time>2021-11-03T16:19:53.349Z</time>
      </trkpt>
      <trkpt lat="39.768225" lon="-2.394879">
        <ele>886.964324</ele>
        <time>2021-11-03T16:19:53.349Z</time>
      </trkpt>
      <trkpt lat="39.768156" lon="-2.394744">
        <ele>887.249803</ele>
        <time>2021-11-03T16:19:53.349Z</time>
      </trkpt>
      <trkpt lat="39.768029" lon="-2.394475">
        <ele>887.805703</ele>
        <time>2021-11-03T16:19:53.349Z</time>
      </trkpt>
      <trkpt lat="39.767846" lon="-2.394065">
        <ele>888.640569</ele>
        <time>2021-11-03T16:19:53.349Z</time>
      </trkpt>
      <trkpt lat="39.767686" lon="-2.393723">
        <ele>889.345578</ele>
        <time>2021-11-03T16:19:53.349Z</time>
      </trkpt>
      <trkpt lat="39.767628" lon="-2.393585">
        <ele>889.622538</ele>
        <time>2021-11-03T16:19:53.349Z</time>
      </trkpt>
      <trkpt lat="39.767600" lon="-2.393517">
        <ele>889.832159</ele>
        <time>2021-11-03T16:19:53.349Z</time>
      </trkpt>
      <trkpt lat="39.767438" lon="-2.393115">
        <ele>891.129888</ele>
        <time>2021-11-03T16:19:53.349Z</time>
      </trkpt>
      <trkpt lat="39.767363" lon="-2.392910">
        <ele>891.779004</ele>
        <time>2021-11-03T16:19:53.349Z</time>
      </trkpt>
      <trkpt lat="39.767269" lon="-2.392631">
        <ele>892.649952</ele>
        <time>2021-11-03T16:19:53.349Z</time>
      </trkpt>
      <trkpt lat="39.767245" lon="-2.392564">
        <ele>892.861290</ele>
        <time>2021-11-03T16:19:53.349Z</time>
      </trkpt>
      <trkpt lat="39.767221" lon="-2.392496">
        <ele>893.075224</ele>
        <time>2021-11-03T16:19:53.349Z</time>
      </trkpt>
      <trkpt lat="39.767197" lon="-2.392427">
        <ele>893.291759</ele>
        <time>2021-11-03T16:19:53.349Z</time>
      </trkpt>
      <trkpt lat="39.767150" lon="-2.392287">
        <ele>893.728544</ele>
        <time>2021-11-03T16:19:53.349Z</time>
      </trkpt>
      <trkpt lat="39.767130" lon="-2.392217">
        <ele>893.942059</ele>
        <time>2021-11-03T16:19:53.349Z</time>
      </trkpt>
      <trkpt lat="39.767086" lon="-2.392072">
        <ele>894.387763</ele>
        <time>2021-11-03T16:19:53.349Z</time>
      </trkpt>
      <trkpt lat="39.767016" lon="-2.391857">
        <ele>895.055339</ele>
        <time>2021-11-03T16:19:53.349Z</time>
      </trkpt>
      <trkpt lat="39.766941" lon="-2.391650">
        <ele>895.709625</ele>
        <time>2021-11-03T16:19:53.349Z</time>
      </trkpt>
      <trkpt lat="39.766869" lon="-2.391442">
        <ele>896.370934</ele>
        <time>2021-11-03T16:19:53.349Z</time>
      </trkpt>
      <trkpt lat="39.766742" lon="-2.391096">
        <ele>897.783782</ele>
        <time>2021-11-03T16:19:53.349Z</time>
      </trkpt>
      <trkpt lat="39.766577" lon="-2.390679">
        <ele>899.511987</ele>
        <time>2021-11-03T16:19:53.349Z</time>
      </trkpt>
      <trkpt lat="39.766479" lon="-2.390477">
        <ele>900.392180</ele>
        <time>2021-11-03T16:19:53.349Z</time>
      </trkpt>
      <trkpt lat="39.766445" lon="-2.390417">
        <ele>900.666856</ele>
        <time>2021-11-03T16:19:53.349Z</time>
      </trkpt>
      <trkpt lat="39.766232" lon="-2.390065">
        <ele>902.317608</ele>
        <time>2021-11-03T16:19:53.349Z</time>
      </trkpt>
      <trkpt lat="39.766193" lon="-2.390011">
        <ele>902.590642</ele>
        <time>2021-11-03T16:19:53.349Z</time>
      </trkpt>
      <trkpt lat="39.766112" lon="-2.389905">
        <ele>903.141406</ele>
        <time>2021-11-03T16:19:53.349Z</time>
      </trkpt>
      <trkpt lat="39.766030" lon="-2.389803">
        <ele>903.685272</ele>
        <time>2021-11-03T16:19:53.349Z</time>
      </trkpt>
      <trkpt lat="39.765849" lon="-2.389614">
        <ele>904.797882</ele>
        <time>2021-11-03T16:19:53.349Z</time>
      </trkpt>
      <trkpt lat="39.765759" lon="-2.389523">
        <ele>905.356725</ele>
        <time>2021-11-03T16:19:53.349Z</time>
      </trkpt>
      <trkpt lat="39.765577" lon="-2.389336">
        <ele>906.503741</ele>
        <time>2021-11-03T16:19:53.349Z</time>
      </trkpt>
      <trkpt lat="39.765438" lon="-2.389197">
        <ele>907.370837</ele>
        <time>2021-11-03T16:19:53.349Z</time>
      </trkpt>
      <trkpt lat="39.765261" lon="-2.388999">
        <ele>908.525372</ele>
        <time>2021-11-03T16:19:53.349Z</time>
      </trkpt>
      <trkpt lat="39.765177" lon="-2.388895">
        <ele>909.098888</ele>
        <time>2021-11-03T16:19:53.349Z</time>
      </trkpt>
      <trkpt lat="39.765138" lon="-2.388840">
        <ele>909.383362</ele>
        <time>2021-11-03T16:19:53.349Z</time>
      </trkpt>
      <trkpt lat="39.764984" lon="-2.388616">
        <ele>910.525865</ele>
        <time>2021-11-03T16:19:53.349Z</time>
      </trkpt>
      <trkpt lat="39.764887" lon="-2.388435">
        <ele>911.364704</ele>
        <time>2021-11-03T16:19:53.349Z</time>
      </trkpt>
      <trkpt lat="39.764857" lon="-2.388371">
        <ele>911.649686</ele>
        <time>2021-11-03T16:19:53.349Z</time>
      </trkpt>
      <trkpt lat="39.764693" lon="-2.387971">
        <ele>913.373173</ele>
        <time>2021-11-03T16:19:53.349Z</time>
      </trkpt>
      <trkpt lat="39.764577" lon="-2.387547">
        <ele>915.202348</ele>
        <time>2021-11-03T16:19:53.349Z</time>
      </trkpt>
      <trkpt lat="39.764540" lon="-2.387401">
        <ele>915.842689</ele>
        <time>2021-11-03T16:19:53.349Z</time>
      </trkpt>
      <trkpt lat="39.764508" lon="-2.387253">
        <ele>916.483086</ele>
        <time>2021-11-03T16:19:53.349Z</time>
      </trkpt>
      <trkpt lat="39.764461" lon="-2.387032">
        <ele>917.438214</ele>
        <time>2021-11-03T16:19:53.349Z</time>
      </trkpt>
      <trkpt lat="39.764419" lon="-2.386815">
        <ele>918.370311</ele>
        <time>2021-11-03T16:19:53.349Z</time>
      </trkpt>
      <trkpt lat="39.764403" lon="-2.386742">
        <ele>918.686502</ele>
        <time>2021-11-03T16:19:53.349Z</time>
      </trkpt>
      <trkpt lat="39.764371" lon="-2.386596">
        <ele>919.318884</ele>
        <time>2021-11-03T16:19:53.349Z</time>
      </trkpt>
      <trkpt lat="39.764291" lon="-2.386233">
        <ele>920.891832</ele>
        <time>2021-11-03T16:19:53.349Z</time>
      </trkpt>
      <trkpt lat="39.764262" lon="-2.386085">
        <ele>921.528022</ele>
        <time>2021-11-03T16:19:53.349Z</time>
      </trkpt>
      <trkpt lat="39.764217" lon="-2.385862">
        <ele>922.488375</ele>
        <time>2021-11-03T16:19:53.349Z</time>
      </trkpt>
      <trkpt lat="39.764164" lon="-2.385571">
        <ele>923.712540</ele>
        <time>2021-11-03T16:19:53.349Z</time>
      </trkpt>
      <trkpt lat="39.764117" lon="-2.385275">
        <ele>924.776570</ele>
        <time>2021-11-03T16:19:53.349Z</time>
      </trkpt>
      <trkpt lat="39.764096" lon="-2.385128">
        <ele>925.302926</ele>
        <time>2021-11-03T16:19:53.349Z</time>
      </trkpt>
      <trkpt lat="39.764021" lon="-2.384686">
        <ele>926.896394</ele>
        <time>2021-11-03T16:19:53.349Z</time>
      </trkpt>
      <trkpt lat="39.763995" lon="-2.384458">
        <ele>927.707826</ele>
        <time>2021-11-03T16:19:53.349Z</time>
      </trkpt>
      <trkpt lat="39.763983" lon="-2.384307">
        <ele>928.242237</ele>
        <time>2021-11-03T16:19:53.349Z</time>
      </trkpt>
      <trkpt lat="39.763952" lon="-2.383932">
        <ele>929.569993</ele>
        <time>2021-11-03T16:19:53.349Z</time>
      </trkpt>
      <trkpt lat="39.763935" lon="-2.383781">
        <ele>930.107242</ele>
        <time>2021-11-03T16:19:53.349Z</time>
      </trkpt>
      <trkpt lat="39.763918" lon="-2.383630">
        <ele>930.644492</ele>
        <time>2021-11-03T16:19:53.349Z</time>
      </trkpt>
      <trkpt lat="39.763882" lon="-2.383335">
        <ele>931.696012</ele>
        <time>2021-11-03T16:19:53.349Z</time>
      </trkpt>
      <trkpt lat="39.763827" lon="-2.383045">
        <ele>932.337665</ele>
        <time>2021-11-03T16:19:53.349Z</time>
      </trkpt>
      <trkpt lat="39.763757" lon="-2.382679">
        <ele>933.070736</ele>
        <time>2021-11-03T16:19:53.349Z</time>
      </trkpt>
      <trkpt lat="39.763709" lon="-2.382457">
        <ele>933.518974</ele>
        <time>2021-11-03T16:19:53.349Z</time>
      </trkpt>
      <trkpt lat="39.763674" lon="-2.382310">
        <ele>933.818086</ele>
        <time>2021-11-03T16:19:53.349Z</time>
      </trkpt>
      <trkpt lat="39.763597" lon="-2.382026">
        <ele>934.403418</ele>
        <time>2021-11-03T16:19:53.349Z</time>
      </trkpt>
      <trkpt lat="39.763558" lon="-2.381881">
        <ele>934.702005</ele>
        <time>2021-11-03T16:19:53.349Z</time>
      </trkpt>
      <trkpt lat="39.763494" lon="-2.381669">
        <ele>935.144702</ele>
        <time>2021-11-03T16:19:53.349Z</time>
      </trkpt>
      <trkpt lat="39.763380" lon="-2.381309">
        <ele>935.901474</ele>
        <time>2021-11-03T16:19:53.349Z</time>
      </trkpt>
      <trkpt lat="39.763333" lon="-2.381161">
        <ele>936.212720</ele>
        <time>2021-11-03T16:19:53.349Z</time>
      </trkpt>
      <trkpt lat="39.763309" lon="-2.381088">
        <ele>936.367041</ele>
        <time>2021-11-03T16:19:53.349Z</time>
      </trkpt>
      <trkpt lat="39.763286" lon="-2.381014">
        <ele>936.504301</ele>
        <time>2021-11-03T16:19:53.349Z</time>
      </trkpt>
      <trkpt lat="39.763145" lon="-2.380574">
        <ele>937.314014</ele>
        <time>2021-11-03T16:19:53.349Z</time>
      </trkpt>
      <trkpt lat="39.763097" lon="-2.380428">
        <ele>937.583735</ele>
        <time>2021-11-03T16:19:53.349Z</time>
      </trkpt>
      <trkpt lat="39.763004" lon="-2.380134">
        <ele>938.123746</ele>
        <time>2021-11-03T16:19:53.349Z</time>
      </trkpt>
      <trkpt lat="39.762980" lon="-2.380060">
        <ele>938.260170</ele>
        <time>2021-11-03T16:19:53.349Z</time>
      </trkpt>
      <trkpt lat="39.762885" lon="-2.379756">
        <ele>938.817576</ele>
        <time>2021-11-03T16:19:53.349Z</time>
      </trkpt>
      <trkpt lat="39.762763" lon="-2.379382">
        <ele>939.507677</ele>
        <time>2021-11-03T16:19:53.349Z</time>
      </trkpt>
      <trkpt lat="39.762639" lon="-2.379002">
        <ele>940.208887</ele>
        <time>2021-11-03T16:19:53.349Z</time>
      </trkpt>
      <trkpt lat="39.762514" lon="-2.378625">
        <ele>940.269399</ele>
        <time>2021-11-03T16:19:53.349Z</time>
      </trkpt>
      <trkpt lat="39.762490" lon="-2.378551">
        <ele>940.248275</ele>
        <time>2021-11-03T16:19:53.349Z</time>
      </trkpt>
      <trkpt lat="39.762353" lon="-2.378103">
        <ele>940.121468</ele>
        <time>2021-11-03T16:19:53.349Z</time>
      </trkpt>
      <trkpt lat="39.762277" lon="-2.377883">
        <ele>940.058033</ele>
        <time>2021-11-03T16:19:53.349Z</time>
      </trkpt>
      <trkpt lat="39.762131" lon="-2.377430">
        <ele>939.928843</ele>
        <time>2021-11-03T16:19:53.349Z</time>
      </trkpt>
      <trkpt lat="39.762058" lon="-2.377203">
        <ele>939.864127</ele>
        <time>2021-11-03T16:19:53.349Z</time>
      </trkpt>
      <trkpt lat="39.761915" lon="-2.376763">
        <ele>939.738091</ele>
        <time>2021-11-03T16:19:53.349Z</time>
      </trkpt>
      <trkpt lat="39.761869" lon="-2.376616">
        <ele>939.678311</ele>
        <time>2021-11-03T16:19:53.349Z</time>
      </trkpt>
      <trkpt lat="39.761744" lon="-2.376264">
        <ele>939.532265</ele>
        <time>2021-11-03T16:19:53.349Z</time>
      </trkpt>
      <trkpt lat="39.761721" lon="-2.376192">
        <ele>939.502897</ele>
        <time>2021-11-03T16:19:53.349Z</time>
      </trkpt>
      <trkpt lat="39.761699" lon="-2.376119">
        <ele>939.473363</ele>
        <time>2021-11-03T16:19:53.349Z</time>
      </trkpt>
      <trkpt lat="39.761576" lon="-2.375667">
        <ele>939.292762</ele>
        <time>2021-11-03T16:19:53.349Z</time>
      </trkpt>
      <trkpt lat="39.761539" lon="-2.375515">
        <ele>939.232708</ele>
        <time>2021-11-03T16:19:53.349Z</time>
      </trkpt>
      <trkpt lat="39.761484" lon="-2.375288">
        <ele>939.143060</ele>
        <time>2021-11-03T16:19:53.349Z</time>
      </trkpt>
      <trkpt lat="39.761392" lon="-2.374823">
        <ele>938.962206</ele>
        <time>2021-11-03T16:19:53.349Z</time>
      </trkpt>
      <trkpt lat="39.761313" lon="-2.374343">
        <ele>938.984157</ele>
        <time>2021-11-03T16:19:53.349Z</time>
      </trkpt>
      <trkpt lat="39.761237" lon="-2.373857">
        <ele>939.275675</ele>
        <time>2021-11-03T16:19:53.349Z</time>
      </trkpt>
      <trkpt lat="39.761214" lon="-2.373696">
        <ele>939.371930</ele>
        <time>2021-11-03T16:19:53.349Z</time>
      </trkpt>
      <trkpt lat="39.761202" lon="-2.373614">
        <ele>939.420994</ele>
        <time>2021-11-03T16:19:53.349Z</time>
      </trkpt>
      <trkpt lat="39.761167" lon="-2.373369">
        <ele>939.567469</ele>
        <time>2021-11-03T16:19:53.349Z</time>
      </trkpt>
      <trkpt lat="39.761132" lon="-2.373127">
        <ele>939.712211</ele>
        <time>2021-11-03T16:19:53.349Z</time>
      </trkpt>
      <trkpt lat="39.761070" lon="-2.372660">
        <ele>939.990774</ele>
        <time>2021-11-03T16:19:53.349Z</time>
      </trkpt>
      <trkpt lat="39.761048" lon="-2.372504">
        <ele>940.084000</ele>
        <time>2021-11-03T16:19:53.349Z</time>
      </trkpt>
      <trkpt lat="39.761033" lon="-2.372425">
        <ele>940.131831</ele>
        <time>2021-11-03T16:19:53.349Z</time>
      </trkpt>
      <trkpt lat="39.761018" lon="-2.372346">
        <ele>940.179663</ele>
        <time>2021-11-03T16:19:53.349Z</time>
      </trkpt>
      <trkpt lat="39.760936" lon="-2.371865">
        <ele>940.340061</ele>
        <time>2021-11-03T16:19:53.349Z</time>
      </trkpt>
      <trkpt lat="39.760908" lon="-2.371705">
        <ele>940.383677</ele>
        <time>2021-11-03T16:19:53.349Z</time>
      </trkpt>
      <trkpt lat="39.760832" lon="-2.371229">
        <ele>940.512898</ele>
        <time>2021-11-03T16:19:53.349Z</time>
      </trkpt>
      <trkpt lat="39.760821" lon="-2.371148">
        <ele>940.534761</ele>
        <time>2021-11-03T16:19:53.349Z</time>
      </trkpt>
      <trkpt lat="39.760743" lon="-2.370670">
        <ele>940.664644</ele>
        <time>2021-11-03T16:19:53.349Z</time>
      </trkpt>
      <trkpt lat="39.760686" lon="-2.370269">
        <ele>940.773036</ele>
        <time>2021-11-03T16:19:53.349Z</time>
      </trkpt>
      <trkpt lat="39.760634" lon="-2.369779">
        <ele>940.488799</ele>
        <time>2021-11-03T16:19:53.349Z</time>
      </trkpt>
      <trkpt lat="39.760616" lon="-2.369531">
        <ele>939.995439</ele>
        <time>2021-11-03T16:19:53.349Z</time>
      </trkpt>
      <trkpt lat="39.760609" lon="-2.369360">
        <ele>939.656286</ele>
        <time>2021-11-03T16:19:53.349Z</time>
      </trkpt>
      <trkpt lat="39.760597" lon="-2.368924">
        <ele>938.792214</ele>
        <time>2021-11-03T16:19:53.349Z</time>
      </trkpt>
      <trkpt lat="39.760596" lon="-2.368836">
        <ele>938.617906</ele>
        <time>2021-11-03T16:19:53.349Z</time>
      </trkpt>
      <trkpt lat="39.760598" lon="-2.368565">
        <ele>938.081153</ele>
        <time>2021-11-03T16:19:53.349Z</time>
      </trkpt>
      <trkpt lat="39.760608" lon="-2.368285">
        <ele>937.526001</ele>
        <time>2021-11-03T16:19:53.349Z</time>
      </trkpt>
      <trkpt lat="39.760616" lon="-2.368096">
        <ele>937.151111</ele>
        <time>2021-11-03T16:19:53.349Z</time>
      </trkpt>
      <trkpt lat="39.760632" lon="-2.367804">
        <ele>936.571324</ele>
        <time>2021-11-03T16:19:53.349Z</time>
      </trkpt>
      <trkpt lat="39.760665" lon="-2.367407">
        <ele>936.243945</ele>
        <time>2021-11-03T16:19:53.349Z</time>
      </trkpt>
      <trkpt lat="39.760697" lon="-2.367091">
        <ele>936.276403</ele>
        <time>2021-11-03T16:19:53.349Z</time>
      </trkpt>
      <trkpt lat="39.760735" lon="-2.366659">
        <ele>936.320684</ele>
        <time>2021-11-03T16:19:53.349Z</time>
      </trkpt>
      <trkpt lat="39.760786" lon="-2.366141">
        <ele>936.373866</ele>
        <time>2021-11-03T16:19:53.349Z</time>
      </trkpt>
      <trkpt lat="39.760786" lon="-2.366141">
        <ele>936.373866</ele>
        <time>2021-11-03T16:19:53.349Z</time>
      </trkpt>
      <trkpt lat="39.760843" lon="-2.365582">
        <ele>936.431291</ele>
        <time>2021-11-03T16:19:53.349Z</time>
      </trkpt>
      <trkpt lat="39.760867" lon="-2.365315">
        <ele>936.458667</ele>
        <time>2021-11-03T16:19:53.349Z</time>
      </trkpt>
      <trkpt lat="39.760917" lon="-2.364800">
        <ele>936.136385</ele>
        <time>2021-11-03T16:19:53.349Z</time>
      </trkpt>
      <trkpt lat="39.760945" lon="-2.364539">
        <ele>935.969518</ele>
        <time>2021-11-03T16:19:53.349Z</time>
      </trkpt>
      <trkpt lat="39.760989" lon="-2.364189">
        <ele>935.744955</ele>
        <time>2021-11-03T16:19:53.349Z</time>
      </trkpt>
      <trkpt lat="39.761000" lon="-2.364092">
        <ele>935.682870</ele>
        <time>2021-11-03T16:19:53.349Z</time>
      </trkpt>
      <trkpt lat="39.761006" lon="-2.364000">
        <ele>935.624406</ele>
        <time>2021-11-03T16:19:53.349Z</time>
      </trkpt>
      <trkpt lat="39.761041" lon="-2.363482">
        <ele>935.295145</ele>
        <time>2021-11-03T16:19:53.349Z</time>
      </trkpt>
      <trkpt lat="39.761047" lon="-2.363391">
        <ele>935.237312</ele>
        <time>2021-11-03T16:19:53.349Z</time>
      </trkpt>
      <trkpt lat="39.761089" lon="-2.362859">
        <ele>934.808600</ele>
        <time>2021-11-03T16:19:53.349Z</time>
      </trkpt>
      <trkpt lat="39.761105" lon="-2.362680">
        <ele>934.564913</ele>
        <time>2021-11-03T16:19:53.349Z</time>
      </trkpt>
      <trkpt lat="39.761155" lon="-2.362319">
        <ele>934.068885</ele>
        <time>2021-11-03T16:19:53.349Z</time>
      </trkpt>
      <trkpt lat="39.761192" lon="-2.362140">
        <ele>933.818231</ele>
        <time>2021-11-03T16:19:53.349Z</time>
      </trkpt>
      <trkpt lat="39.761381" lon="-2.361638">
        <ele>933.062350</ele>
        <time>2021-11-03T16:19:53.349Z</time>
      </trkpt>
      <trkpt lat="39.761406" lon="-2.361552">
        <ele>932.938018</ele>
        <time>2021-11-03T16:19:53.349Z</time>
      </trkpt>
      <trkpt lat="39.761421" lon="-2.361462">
        <ele>932.813486</ele>
        <time>2021-11-03T16:19:53.349Z</time>
      </trkpt>
      <trkpt lat="39.761437" lon="-2.361280">
        <ele>932.565771</ele>
        <time>2021-11-03T16:19:53.349Z</time>
      </trkpt>
      <trkpt lat="39.761491" lon="-2.361111">
        <ele>932.318283</ele>
        <time>2021-11-03T16:19:53.349Z</time>
      </trkpt>
      <trkpt lat="39.761523" lon="-2.361024">
        <ele>932.187862</ele>
        <time>2021-11-03T16:19:53.349Z</time>
      </trkpt>
      <trkpt lat="39.761590" lon="-2.360751">
        <ele>931.776567</ele>
        <time>2021-11-03T16:19:53.349Z</time>
      </trkpt>
      <trkpt lat="39.761594" lon="-2.360655">
        <ele>931.419897</ele>
        <time>2021-11-03T16:19:53.349Z</time>
      </trkpt>
      <trkpt lat="39.761592" lon="-2.360464">
        <ele>930.711246</ele>
        <time>2021-11-03T16:19:53.349Z</time>
      </trkpt>
      <trkpt lat="39.761594" lon="-2.360281">
        <ele>930.032271</ele>
        <time>2021-11-03T16:19:53.349Z</time>
      </trkpt>
      <trkpt lat="39.761681" lon="-2.360036">
        <ele>929.031061</ele>
        <time>2021-11-03T16:19:53.349Z</time>
      </trkpt>
      <trkpt lat="39.761712" lon="-2.359954">
        <ele>928.692054</ele>
        <time>2021-11-03T16:19:53.349Z</time>
      </trkpt>
      <trkpt lat="39.761739" lon="-2.359868">
        <ele>928.347423</ele>
        <time>2021-11-03T16:19:53.349Z</time>
      </trkpt>
      <trkpt lat="39.761841" lon="-2.359519">
        <ele>926.962261</ele>
        <time>2021-11-03T16:19:53.349Z</time>
      </trkpt>
      <trkpt lat="39.761920" lon="-2.359268">
        <ele>925.956059</ele>
        <time>2021-11-03T16:19:53.349Z</time>
      </trkpt>
      <trkpt lat="39.761945" lon="-2.359184">
        <ele>925.621890</ele>
        <time>2021-11-03T16:19:53.349Z</time>
      </trkpt>
      <trkpt lat="39.761974" lon="-2.359093">
        <ele>925.256433</ele>
        <time>2021-11-03T16:19:53.349Z</time>
      </trkpt>
      <trkpt lat="39.762002" lon="-2.359002">
        <ele>924.892796</ele>
        <time>2021-11-03T16:19:53.349Z</time>
      </trkpt>
      <trkpt lat="39.762031" lon="-2.358906">
        <ele>924.510138</ele>
        <time>2021-11-03T16:19:53.349Z</time>
      </trkpt>
      <trkpt lat="39.762159" lon="-2.358499">
        <ele>922.835732</ele>
        <time>2021-11-03T16:19:53.349Z</time>
      </trkpt>
      <trkpt lat="39.762192" lon="-2.358392">
        <ele>922.335811</ele>
        <time>2021-11-03T16:19:53.349Z</time>
      </trkpt>
      <trkpt lat="39.762252" lon="-2.358179">
        <ele>921.352145</ele>
        <time>2021-11-03T16:19:53.349Z</time>
      </trkpt>
      <trkpt lat="39.762282" lon="-2.358072">
        <ele>920.858276</ele>
        <time>2021-11-03T16:19:53.349Z</time>
      </trkpt>
      <trkpt lat="39.762313" lon="-2.357963">
        <ele>920.354322</ele>
        <time>2021-11-03T16:19:53.349Z</time>
      </trkpt>
      <trkpt lat="39.762382" lon="-2.357737">
        <ele>919.299883</ele>
        <time>2021-11-03T16:19:53.349Z</time>
      </trkpt>
      <trkpt lat="39.762450" lon="-2.357508">
        <ele>918.235389</ele>
        <time>2021-11-03T16:19:53.349Z</time>
      </trkpt>
      <trkpt lat="39.762482" lon="-2.357389">
        <ele>917.688724</ele>
        <time>2021-11-03T16:19:53.349Z</time>
      </trkpt>
      <trkpt lat="39.762618" lon="-2.356926">
        <ele>915.539502</ele>
        <time>2021-11-03T16:19:53.349Z</time>
      </trkpt>
      <trkpt lat="39.762645" lon="-2.356816">
        <ele>915.038799</ele>
        <time>2021-11-03T16:19:53.349Z</time>
      </trkpt>
      <trkpt lat="39.762719" lon="-2.356552">
        <ele>913.820325</ele>
        <time>2021-11-03T16:19:53.349Z</time>
      </trkpt>
      <trkpt lat="39.762692" lon="-2.356468">
        <ele>913.425528</ele>
        <time>2021-11-03T16:19:53.349Z</time>
      </trkpt>
      <trkpt lat="39.762659" lon="-2.356477">
        <ele>913.235332</ele>
        <time>2021-11-03T16:19:53.349Z</time>
      </trkpt>
      <trkpt lat="39.762625" lon="-2.356513">
        <ele>912.988044</ele>
        <time>2021-11-03T16:19:53.349Z</time>
      </trkpt>
      <trkpt lat="39.762531" lon="-2.356627">
        <ele>912.206455</ele>
        <time>2021-11-03T16:19:53.349Z</time>
      </trkpt>
      <trkpt lat="39.762419" lon="-2.356707">
        <ele>911.429332</ele>
        <time>2021-11-03T16:19:53.349Z</time>
      </trkpt>
      <trkpt lat="39.762372" lon="-2.356709">
        <ele>911.143321</ele>
        <time>2021-11-03T16:19:53.349Z</time>
      </trkpt>
      <trkpt lat="39.762337" lon="-2.356687">
        <ele>910.906901</ele>
        <time>2021-11-03T16:19:53.349Z</time>
      </trkpt>
      <trkpt lat="39.762316" lon="-2.356645">
        <ele>910.672653</ele>
        <time>2021-11-03T16:19:53.349Z</time>
      </trkpt>
      <trkpt lat="39.762301" lon="-2.356590">
        <ele>910.399806</ele>
        <time>2021-11-03T16:19:53.349Z</time>
      </trkpt>
      <trkpt lat="39.762289" lon="-2.356539">
        <ele>910.150444</ele>
        <time>2021-11-03T16:19:53.349Z</time>
      </trkpt>
      <trkpt lat="39.762277" lon="-2.356473">
        <ele>909.833359</ele>
        <time>2021-11-03T16:19:53.349Z</time>
      </trkpt>
      <trkpt lat="39.762238" lon="-2.356325">
        <ele>909.101883</ele>
        <time>2021-11-03T16:19:53.349Z</time>
      </trkpt>
      <trkpt lat="39.762233" lon="-2.356281">
        <ele>908.893932</ele>
        <time>2021-11-03T16:19:53.349Z</time>
      </trkpt>
      <trkpt lat="39.762227" lon="-2.356237">
        <ele>908.685006</ele>
        <time>2021-11-03T16:19:53.349Z</time>
      </trkpt>
      <trkpt lat="39.762176" lon="-2.356066">
        <ele>907.827459</ele>
        <time>2021-11-03T16:19:53.349Z</time>
      </trkpt>
      <trkpt lat="39.762147" lon="-2.355974">
        <ele>907.362569</ele>
        <time>2021-11-03T16:19:53.349Z</time>
      </trkpt>
      <trkpt lat="39.762103" lon="-2.355894">
        <ele>906.902665</ele>
        <time>2021-11-03T16:19:53.349Z</time>
      </trkpt>
      <trkpt lat="39.762054" lon="-2.355819">
        <ele>906.442477</ele>
        <time>2021-11-03T16:19:53.349Z</time>
      </trkpt>
      <trkpt lat="39.761965" lon="-2.355670">
        <ele>905.560263</ele>
        <time>2021-11-03T16:19:53.349Z</time>
      </trkpt>
      <trkpt lat="39.761880" lon="-2.355487">
        <ele>904.560614</ele>
        <time>2021-11-03T16:19:53.349Z</time>
      </trkpt>
      <trkpt lat="39.761849" lon="-2.355385">
        <ele>904.047808</ele>
        <time>2021-11-03T16:19:53.349Z</time>
      </trkpt>
      <trkpt lat="39.761821" lon="-2.355281">
        <ele>903.532611</ele>
        <time>2021-11-03T16:19:53.349Z</time>
      </trkpt>
      <trkpt lat="39.761759" lon="-2.355068">
        <ele>902.467756</ele>
        <time>2021-11-03T16:19:53.349Z</time>
      </trkpt>
      <trkpt lat="39.761706" lon="-2.354854">
        <ele>901.829301</ele>
        <time>2021-11-03T16:19:53.349Z</time>
      </trkpt>
      <trkpt lat="39.761676" lon="-2.354748">
        <ele>901.646309</ele>
        <time>2021-11-03T16:19:53.349Z</time>
      </trkpt>
      <trkpt lat="39.761643" lon="-2.354646">
        <ele>901.467028</ele>
        <time>2021-11-03T16:19:53.349Z</time>
      </trkpt>
      <trkpt lat="39.761607" lon="-2.354546">
        <ele>901.288139</ele>
        <time>2021-11-03T16:19:53.349Z</time>
      </trkpt>
      <trkpt lat="39.761568" lon="-2.354440">
        <ele>901.097760</ele>
        <time>2021-11-03T16:19:53.349Z</time>
      </trkpt>
      <trkpt lat="39.761495" lon="-2.354239">
        <ele>900.737621</ele>
        <time>2021-11-03T16:19:53.349Z</time>
      </trkpt>
      <trkpt lat="39.761455" lon="-2.354143">
        <ele>900.560721</ele>
        <time>2021-11-03T16:19:53.349Z</time>
      </trkpt>
      <trkpt lat="39.761415" lon="-2.354056">
        <ele>900.396492</ele>
        <time>2021-11-03T16:19:53.349Z</time>
      </trkpt>
      <trkpt lat="39.761313" lon="-2.353938">
        <ele>900.108825</ele>
        <time>2021-11-03T16:19:53.349Z</time>
      </trkpt>
      <trkpt lat="39.761205" lon="-2.353860">
        <ele>899.848495</ele>
        <time>2021-11-03T16:19:53.349Z</time>
      </trkpt>
      <trkpt lat="39.761110" lon="-2.353795">
        <ele>899.622283</ele>
        <time>2021-11-03T16:19:53.349Z</time>
      </trkpt>
      <trkpt lat="39.761061" lon="-2.353703">
        <ele>899.440960</ele>
        <time>2021-11-03T16:19:53.349Z</time>
      </trkpt>
      <trkpt lat="39.761050" lon="-2.353636">
        <ele>899.329969</ele>
        <time>2021-11-03T16:19:53.349Z</time>
      </trkpt>
      <trkpt lat="39.761044" lon="-2.353559">
        <ele>899.204587</ele>
        <time>2021-11-03T16:19:53.349Z</time>
      </trkpt>
      <trkpt lat="39.761039" lon="-2.353479">
        <ele>899.074556</ele>
        <time>2021-11-03T16:19:53.349Z</time>
      </trkpt>
      <trkpt lat="39.761027" lon="-2.353307">
        <ele>898.794763</ele>
        <time>2021-11-03T16:19:53.349Z</time>
      </trkpt>
      <trkpt lat="39.761016" lon="-2.353226">
        <ele>898.661508</ele>
        <time>2021-11-03T16:19:53.349Z</time>
      </trkpt>
      <trkpt lat="39.760986" lon="-2.353062">
        <ele>898.388402</ele>
        <time>2021-11-03T16:19:53.349Z</time>
      </trkpt>
      <trkpt lat="39.760981" lon="-2.352980">
        <ele>898.247655</ele>
        <time>2021-11-03T16:19:53.349Z</time>
      </trkpt>
      <trkpt lat="39.760974" lon="-2.352816">
        <ele>897.161488</ele>
        <time>2021-11-03T16:19:53.349Z</time>
      </trkpt>
      <trkpt lat="39.760972" lon="-2.352657">
        <ele>896.109915</ele>
        <time>2021-11-03T16:19:53.349Z</time>
      </trkpt>
      <trkpt lat="39.760967" lon="-2.352165">
        <ele>892.856141</ele>
        <time>2021-11-03T16:19:53.349Z</time>
      </trkpt>
      <trkpt lat="39.760979" lon="-2.352092">
        <ele>892.362494</ele>
        <time>2021-11-03T16:19:53.349Z</time>
      </trkpt>
      <trkpt lat="39.760998" lon="-2.352011">
        <ele>891.802477</ele>
        <time>2021-11-03T16:19:53.349Z</time>
      </trkpt>
      <trkpt lat="39.761032" lon="-2.351895">
        <ele>890.981527</ele>
        <time>2021-11-03T16:19:53.349Z</time>
      </trkpt>
      <trkpt lat="39.761044" lon="-2.351850">
        <ele>890.666556</ele>
        <time>2021-11-03T16:19:53.349Z</time>
      </trkpt>
      <trkpt lat="39.761060" lon="-2.351808">
        <ele>890.356585</ele>
        <time>2021-11-03T16:19:53.349Z</time>
      </trkpt>
      <trkpt lat="39.761066" lon="-2.351808">
        <ele>890.304971</ele>
        <time>2021-11-03T16:19:53.349Z</time>
      </trkpt>
      <trkpt lat="39.761064" lon="-2.351877">
        <ele>889.848366</ele>
        <time>2021-11-03T16:19:53.349Z</time>
      </trkpt>
      <trkpt lat="39.761109" lon="-2.351895">
        <ele>889.443374</ele>
        <time>2021-11-03T16:19:53.349Z</time>
      </trkpt>
      <trkpt lat="39.761138" lon="-2.351802">
        <ele>888.779714</ele>
        <time>2021-11-03T16:19:53.349Z</time>
      </trkpt>
      <trkpt lat="39.761145" lon="-2.351730">
        <ele>888.299802</ele>
        <time>2021-11-03T16:19:53.349Z</time>
      </trkpt>
      <trkpt lat="39.761147" lon="-2.351640">
        <ele>887.704405</ele>
        <time>2021-11-03T16:19:53.349Z</time>
      </trkpt>
      <trkpt lat="39.761141" lon="-2.351539">
        <ele>887.034524</ele>
        <time>2021-11-03T16:19:53.349Z</time>
      </trkpt>
      <trkpt lat="39.761126" lon="-2.351425">
        <ele>886.269705</ele>
        <time>2021-11-03T16:19:53.349Z</time>
      </trkpt>
      <trkpt lat="39.761097" lon="-2.351309">
        <ele>885.463077</ele>
        <time>2021-11-03T16:19:53.349Z</time>
      </trkpt>
      <trkpt lat="39.761067" lon="-2.351183">
        <ele>884.590817</ele>
        <time>2021-11-03T16:19:53.349Z</time>
      </trkpt>
      <trkpt lat="39.761036" lon="-2.351055">
        <ele>883.703368</ele>
        <time>2021-11-03T16:19:53.349Z</time>
      </trkpt>
      <trkpt lat="39.761004" lon="-2.350925">
        <ele>882.800709</ele>
        <time>2021-11-03T16:19:53.349Z</time>
      </trkpt>
      <trkpt lat="39.760972" lon="-2.350793">
        <ele>881.639643</ele>
        <time>2021-11-03T16:19:53.349Z</time>
      </trkpt>
      <trkpt lat="39.760942" lon="-2.350661">
        <ele>880.480694</ele>
        <time>2021-11-03T16:19:53.349Z</time>
      </trkpt>
      <trkpt lat="39.760921" lon="-2.350523">
        <ele>879.296236</ele>
        <time>2021-11-03T16:19:53.349Z</time>
      </trkpt>
      <trkpt lat="39.760905" lon="-2.350387">
        <ele>878.137832</ele>
        <time>2021-11-03T16:19:53.349Z</time>
      </trkpt>
      <trkpt lat="39.760892" lon="-2.350256">
        <ele>877.025705</ele>
        <time>2021-11-03T16:19:53.349Z</time>
      </trkpt>
      <trkpt lat="39.760877" lon="-2.350019">
        <ele>875.023495</ele>
        <time>2021-11-03T16:19:53.349Z</time>
      </trkpt>
      <trkpt lat="39.760869" lon="-2.349792">
        <ele>873.110227</ele>
        <time>2021-11-03T16:19:53.349Z</time>
      </trkpt>
      <trkpt lat="39.760871" lon="-2.349684">
        <ele>872.200640</ele>
        <time>2021-11-03T16:19:53.349Z</time>
      </trkpt>
      <trkpt lat="39.760879" lon="-2.349594">
        <ele>871.437823</ele>
        <time>2021-11-03T16:19:53.349Z</time>
      </trkpt>
      <trkpt lat="39.760897" lon="-2.349531">
        <ele>870.871931</ele>
        <time>2021-11-03T16:19:53.349Z</time>
      </trkpt>
      <trkpt lat="39.760928" lon="-2.349482">
        <ele>870.337615</ele>
        <time>2021-11-03T16:19:53.349Z</time>
      </trkpt>
      <trkpt lat="39.760982" lon="-2.349447">
        <ele>869.676816</ele>
        <time>2021-11-03T16:19:53.349Z</time>
      </trkpt>
      <trkpt lat="39.761088" lon="-2.349344">
        <ele>868.227681</ele>
        <time>2021-11-03T16:19:53.349Z</time>
      </trkpt>
      <trkpt lat="39.761060" lon="-2.349194">
        <ele>866.928035</ele>
        <time>2021-11-03T16:19:53.349Z</time>
      </trkpt>
      <trkpt lat="39.761013" lon="-2.349128">
        <ele>866.170540</ele>
        <time>2021-11-03T16:19:53.349Z</time>
      </trkpt>
      <trkpt lat="39.760960" lon="-2.349063">
        <ele>865.372736</ele>
        <time>2021-11-03T16:19:53.349Z</time>
      </trkpt>
      <trkpt lat="39.760794" lon="-2.348878">
        <ele>863.019545</ele>
        <time>2021-11-03T16:19:53.349Z</time>
      </trkpt>
      <trkpt lat="39.760620" lon="-2.348675">
        <ele>861.446510</ele>
        <time>2021-11-03T16:19:53.349Z</time>
      </trkpt>
      <trkpt lat="39.760507" lon="-2.348523">
        <ele>860.352518</ele>
        <time>2021-11-03T16:19:53.349Z</time>
      </trkpt>
      <trkpt lat="39.760398" lon="-2.348369">
        <ele>859.269476</ele>
        <time>2021-11-03T16:19:53.349Z</time>
      </trkpt>
      <trkpt lat="39.760350" lon="-2.348298">
        <ele>858.780296</ele>
        <time>2021-11-03T16:19:53.349Z</time>
      </trkpt>
      <trkpt lat="39.760300" lon="-2.348238">
        <ele>858.322471</ele>
        <time>2021-11-03T16:19:53.349Z</time>
      </trkpt>
      <trkpt lat="39.760158" lon="-2.348199">
        <ele>857.345707</ele>
        <time>2021-11-03T16:19:53.349Z</time>
      </trkpt>
      <trkpt lat="39.760080" lon="-2.348185">
        <ele>856.815774</ele>
        <time>2021-11-03T16:19:53.349Z</time>
      </trkpt>
      <trkpt lat="39.760005" lon="-2.348154">
        <ele>856.286137</ele>
        <time>2021-11-03T16:19:53.349Z</time>
      </trkpt>
      <trkpt lat="39.759940" lon="-2.348096">
        <ele>855.755643</ele>
        <time>2021-11-03T16:19:53.349Z</time>
      </trkpt>
      <trkpt lat="39.759882" lon="-2.348021">
        <ele>855.205239</ele>
        <time>2021-11-03T16:19:53.349Z</time>
      </trkpt>
      <trkpt lat="39.759770" lon="-2.347847">
        <ele>854.031092</ele>
        <time>2021-11-03T16:19:53.349Z</time>
      </trkpt>
      <trkpt lat="39.759658" lon="-2.347673">
        <ele>852.856945</ele>
        <time>2021-11-03T16:19:53.349Z</time>
      </trkpt>
      <trkpt lat="39.759602" lon="-2.347583">
        <ele>852.257888</ele>
        <time>2021-11-03T16:19:53.349Z</time>
      </trkpt>
      <trkpt lat="39.759489" lon="-2.347400">
        <ele>851.043465</ele>
        <time>2021-11-03T16:19:53.349Z</time>
      </trkpt>
      <trkpt lat="39.759358" lon="-2.347221">
        <ele>850.423654</ele>
        <time>2021-11-03T16:19:53.349Z</time>
      </trkpt>
      <trkpt lat="39.759283" lon="-2.347141">
        <ele>850.124948</ele>
        <time>2021-11-03T16:19:53.349Z</time>
      </trkpt>
      <trkpt lat="39.759201" lon="-2.347072">
        <ele>849.824178</ele>
        <time>2021-11-03T16:19:53.349Z</time>
      </trkpt>
      <trkpt lat="39.758944" lon="-2.346910">
        <ele>848.944650</ele>
        <time>2021-11-03T16:19:53.349Z</time>
      </trkpt>
      <trkpt lat="39.758609" lon="-2.346693">
        <ele>847.792093</ele>
        <time>2021-11-03T16:19:53.349Z</time>
      </trkpt>
      <trkpt lat="39.758533" lon="-2.346640">
        <ele>847.526519</ele>
        <time>2021-11-03T16:19:53.349Z</time>
      </trkpt>
      <trkpt lat="39.758146" lon="-2.346387">
        <ele>846.192603</ele>
        <time>2021-11-03T16:19:53.349Z</time>
      </trkpt>
      <trkpt lat="39.758069" lon="-2.346338">
        <ele>845.928606</ele>
        <time>2021-11-03T16:19:53.349Z</time>
      </trkpt>
      <trkpt lat="39.757913" lon="-2.346253">
        <ele>845.459757</ele>
        <time>2021-11-03T16:19:53.349Z</time>
      </trkpt>
      <trkpt lat="39.757651" lon="-2.346107">
        <ele>845.991374</ele>
        <time>2021-11-03T16:19:53.349Z</time>
      </trkpt>
      <trkpt lat="39.757601" lon="-2.346067">
        <ele>846.100856</ele>
        <time>2021-11-03T16:19:53.349Z</time>
      </trkpt>
      <trkpt lat="39.757558" lon="-2.346009">
        <ele>846.216390</ele>
        <time>2021-11-03T16:19:53.349Z</time>
      </trkpt>
      <trkpt lat="39.757490" lon="-2.345876">
        <ele>846.445415</ele>
        <time>2021-11-03T16:19:53.349Z</time>
      </trkpt>
      <trkpt lat="39.757456" lon="-2.345798">
        <ele>846.573982</ele>
        <time>2021-11-03T16:19:53.349Z</time>
      </trkpt>
      <trkpt lat="39.757430" lon="-2.345725">
        <ele>846.689340</ele>
        <time>2021-11-03T16:19:53.349Z</time>
      </trkpt>
      <trkpt lat="39.757397" lon="-2.345650">
        <ele>846.813246</ele>
        <time>2021-11-03T16:19:53.349Z</time>
      </trkpt>
      <trkpt lat="39.757363" lon="-2.345576">
        <ele>846.936856</ele>
        <time>2021-11-03T16:19:53.349Z</time>
      </trkpt>
      <trkpt lat="39.757273" lon="-2.345356">
        <ele>847.294184</ele>
        <time>2021-11-03T16:19:53.349Z</time>
      </trkpt>
      <trkpt lat="39.757219" lon="-2.345208">
        <ele>847.529081</ele>
        <time>2021-11-03T16:19:53.349Z</time>
      </trkpt>
      <trkpt lat="39.757162" lon="-2.345067">
        <ele>847.757501</ele>
        <time>2021-11-03T16:19:53.349Z</time>
      </trkpt>
      <trkpt lat="39.757016" lon="-2.344706">
        <ele>848.342379</ele>
        <time>2021-11-03T16:19:53.349Z</time>
      </trkpt>
      <trkpt lat="39.756840" lon="-2.344269">
        <ele>848.736146</ele>
        <time>2021-11-03T16:19:53.349Z</time>
      </trkpt>
      <trkpt lat="39.756810" lon="-2.344195">
        <ele>848.708525</ele>
        <time>2021-11-03T16:19:53.349Z</time>
      </trkpt>
      <trkpt lat="39.756749" lon="-2.344049">
        <ele>848.653663</ele>
        <time>2021-11-03T16:19:53.349Z</time>
      </trkpt>
      <trkpt lat="39.756574" lon="-2.343607">
        <ele>848.489516</ele>
        <time>2021-11-03T16:19:53.349Z</time>
      </trkpt>
      <trkpt lat="39.756546" lon="-2.343535">
        <ele>848.462877</ele>
        <time>2021-11-03T16:19:53.349Z</time>
      </trkpt>
      <trkpt lat="39.756491" lon="-2.343391">
        <ele>848.409789</ele>
        <time>2021-11-03T16:19:53.349Z</time>
      </trkpt>
      <trkpt lat="39.756353" lon="-2.343053">
        <ele>848.283433</ele>
        <time>2021-11-03T16:19:53.349Z</time>
      </trkpt>
      <trkpt lat="39.756325" lon="-2.342987">
        <ele>848.258545</ele>
        <time>2021-11-03T16:19:53.349Z</time>
      </trkpt>
      <trkpt lat="39.756162" lon="-2.342601">
        <ele>848.113142</ele>
        <time>2021-11-03T16:19:53.349Z</time>
      </trkpt>
      <trkpt lat="39.756135" lon="-2.342538">
        <ele>848.089328</ele>
        <time>2021-11-03T16:19:53.349Z</time>
      </trkpt>
      <trkpt lat="39.756085" lon="-2.342411">
        <ele>848.042219</ele>
        <time>2021-11-03T16:19:53.349Z</time>
      </trkpt>
      <trkpt lat="39.755987" lon="-2.342152">
        <ele>847.249290</ele>
        <time>2021-11-03T16:19:53.349Z</time>
      </trkpt>
      <trkpt lat="39.755879" lon="-2.341864">
        <ele>846.165612</ele>
        <time>2021-11-03T16:19:53.349Z</time>
      </trkpt>
      <trkpt lat="39.755845" lon="-2.341785">
        <ele>845.859426</ele>
        <time>2021-11-03T16:19:53.349Z</time>
      </trkpt>
      <trkpt lat="39.755812" lon="-2.341703">
        <ele>845.546413</ele>
        <time>2021-11-03T16:19:53.349Z</time>
      </trkpt>
      <trkpt lat="39.755779" lon="-2.341619">
        <ele>845.227391</ele>
        <time>2021-11-03T16:19:53.349Z</time>
      </trkpt>
      <trkpt lat="39.755745" lon="-2.341532">
        <ele>844.897333</ele>
        <time>2021-11-03T16:19:53.349Z</time>
      </trkpt>
      <trkpt lat="39.755672" lon="-2.341348">
        <ele>844.197088</ele>
        <time>2021-11-03T16:19:53.349Z</time>
      </trkpt>
      <trkpt lat="39.755600" lon="-2.341159">
        <ele>843.483739</ele>
        <time>2021-11-03T16:19:53.349Z</time>
      </trkpt>
      <trkpt lat="39.755532" lon="-2.340961">
        <ele>842.750344</ele>
        <time>2021-11-03T16:19:53.349Z</time>
      </trkpt>
      <trkpt lat="39.755398" lon="-2.340575">
        <ele>841.318008</ele>
        <time>2021-11-03T16:19:53.349Z</time>
      </trkpt>
      <trkpt lat="39.755308" lon="-2.340307">
        <ele>840.328957</ele>
        <time>2021-11-03T16:19:53.349Z</time>
      </trkpt>
      <trkpt lat="39.755221" lon="-2.340062">
        <ele>840.180977</ele>
        <time>2021-11-03T16:19:53.349Z</time>
      </trkpt>
      <trkpt lat="39.755167" lon="-2.339943">
        <ele>840.228741</ele>
        <time>2021-11-03T16:19:53.349Z</time>
      </trkpt>
      <trkpt lat="39.754993" lon="-2.339650">
        <ele>840.356716</ele>
        <time>2021-11-03T16:19:53.349Z</time>
      </trkpt>
      <trkpt lat="39.754715" lon="-2.339309">
        <ele>840.528520</ele>
        <time>2021-11-03T16:19:53.349Z</time>
      </trkpt>
      <trkpt lat="39.754632" lon="-2.339184">
        <ele>840.585612</ele>
        <time>2021-11-03T16:19:53.349Z</time>
      </trkpt>
      <trkpt lat="39.754598" lon="-2.339115">
        <ele>840.613941</ele>
        <time>2021-11-03T16:19:53.349Z</time>
      </trkpt>
      <trkpt lat="39.754481" lon="-2.338812">
        <ele>840.731145</ele>
        <time>2021-11-03T16:19:53.349Z</time>
      </trkpt>
      <trkpt lat="39.754337" lon="-2.338383">
        <ele>840.892952</ele>
        <time>2021-11-03T16:19:53.349Z</time>
      </trkpt>
      <trkpt lat="39.754263" lon="-2.338186">
        <ele>841.037667</ele>
        <time>2021-11-03T16:19:53.349Z</time>
      </trkpt>
      <trkpt lat="39.754216" lon="-2.338056">
        <ele>841.155808</ele>
        <time>2021-11-03T16:19:53.349Z</time>
      </trkpt>
      <trkpt lat="39.754193" lon="-2.337990">
        <ele>841.215402</ele>
        <time>2021-11-03T16:19:53.349Z</time>
      </trkpt>
      <trkpt lat="39.754169" lon="-2.337925">
        <ele>841.274702</ele>
        <time>2021-11-03T16:19:53.349Z</time>
      </trkpt>
      <trkpt lat="39.754146" lon="-2.337859">
        <ele>841.334295</ele>
        <time>2021-11-03T16:19:53.349Z</time>
      </trkpt>
      <trkpt lat="39.754049" lon="-2.337603">
        <ele>841.569007</ele>
        <time>2021-11-03T16:19:53.349Z</time>
      </trkpt>
      <trkpt lat="39.753932" lon="-2.337346">
        <ele>841.814637</ele>
        <time>2021-11-03T16:19:53.349Z</time>
      </trkpt>
      <trkpt lat="39.753791" lon="-2.337079">
        <ele>842.081028</ele>
        <time>2021-11-03T16:19:53.349Z</time>
      </trkpt>
      <trkpt lat="39.753715" lon="-2.336945">
        <ele>842.217971</ele>
        <time>2021-11-03T16:19:53.349Z</time>
      </trkpt>
      <trkpt lat="39.753645" lon="-2.336813">
        <ele>842.349847</ele>
        <time>2021-11-03T16:19:53.349Z</time>
      </trkpt>
      <trkpt lat="39.753548" lon="-2.336609">
        <ele>842.547109</ele>
        <time>2021-11-03T16:19:53.349Z</time>
      </trkpt>
      <trkpt lat="39.753518" lon="-2.336547">
        <ele>842.607356</ele>
        <time>2021-11-03T16:19:53.349Z</time>
      </trkpt>
      <trkpt lat="39.753456" lon="-2.336423">
        <ele>842.729002</ele>
        <time>2021-11-03T16:19:53.349Z</time>
      </trkpt>
      <trkpt lat="39.753309" lon="-2.336093">
        <ele>842.547735</ele>
        <time>2021-11-03T16:19:53.349Z</time>
      </trkpt>
      <trkpt lat="39.753185" lon="-2.335792">
        <ele>842.133165</ele>
        <time>2021-11-03T16:19:53.349Z</time>
      </trkpt>
      <trkpt lat="39.753124" lon="-2.335613">
        <ele>841.895467</ele>
        <time>2021-11-03T16:19:53.349Z</time>
      </trkpt>
      <trkpt lat="39.753064" lon="-2.335422">
        <ele>841.644983</ele>
        <time>2021-11-03T16:19:53.349Z</time>
      </trkpt>
      <trkpt lat="39.753001" lon="-2.335233">
        <ele>841.394898</ele>
        <time>2021-11-03T16:19:53.349Z</time>
      </trkpt>
      <trkpt lat="39.752866" lon="-2.334870">
        <ele>840.905360</ele>
        <time>2021-11-03T16:19:53.349Z</time>
      </trkpt>
      <trkpt lat="39.752722" lon="-2.334359">
        <ele>840.244641</ele>
        <time>2021-11-03T16:19:53.349Z</time>
      </trkpt>
      <trkpt lat="39.752699" lon="-2.334280">
        <ele>840.142087</ele>
        <time>2021-11-03T16:19:53.349Z</time>
      </trkpt>
      <trkpt lat="39.752605" lon="-2.333986">
        <ele>840.312081</ele>
        <time>2021-11-03T16:19:53.349Z</time>
      </trkpt>
      <trkpt lat="39.752554" lon="-2.333848">
        <ele>840.544941</ele>
        <time>2021-11-03T16:19:53.349Z</time>
      </trkpt>
      <trkpt lat="39.752429" lon="-2.333447">
        <ele>841.203010</ele>
        <time>2021-11-03T16:19:53.349Z</time>
      </trkpt>
      <trkpt lat="39.752385" lon="-2.333309">
        <ele>841.430215</ele>
        <time>2021-11-03T16:19:53.349Z</time>
      </trkpt>
      <trkpt lat="39.752363" lon="-2.333240">
        <ele>841.543817</ele>
        <time>2021-11-03T16:19:53.349Z</time>
      </trkpt>
      <trkpt lat="39.752338" lon="-2.333173">
        <ele>841.657079</ele>
        <time>2021-11-03T16:19:53.349Z</time>
      </trkpt>
      <trkpt lat="39.752287" lon="-2.333042">
        <ele>841.880393</ele>
        <time>2021-11-03T16:19:53.349Z</time>
      </trkpt>
      <trkpt lat="39.752132" lon="-2.332714">
        <ele>842.465919</ele>
        <time>2021-11-03T16:19:53.349Z</time>
      </trkpt>
      <trkpt lat="39.751892" lon="-2.332333">
        <ele>843.215007</ele>
        <time>2021-11-03T16:19:53.349Z</time>
      </trkpt>
      <trkpt lat="39.751803" lon="-2.332208">
        <ele>843.474110</ele>
        <time>2021-11-03T16:19:53.349Z</time>
      </trkpt>
      <trkpt lat="39.751707" lon="-2.332077">
        <ele>843.410242</ele>
        <time>2021-11-03T16:19:53.349Z</time>
      </trkpt>
      <trkpt lat="39.751563" lon="-2.331881">
        <ele>843.082021</ele>
        <time>2021-11-03T16:19:53.349Z</time>
      </trkpt>
      <trkpt lat="39.751514" lon="-2.331817">
        <ele>842.972670</ele>
        <time>2021-11-03T16:19:53.349Z</time>
      </trkpt>
      <trkpt lat="39.751416" lon="-2.331691">
        <ele>842.755676</ele>
        <time>2021-11-03T16:19:53.349Z</time>
      </trkpt>
      <trkpt lat="39.751137" lon="-2.331332">
        <ele>842.137665</ele>
        <time>2021-11-03T16:19:53.349Z</time>
      </trkpt>
      <trkpt lat="39.751053" lon="-2.331217">
        <ele>841.945617</ele>
        <time>2021-11-03T16:19:53.349Z</time>
      </trkpt>
      <trkpt lat="39.750810" lon="-2.330869">
        <ele>841.376459</ele>
        <time>2021-11-03T16:19:53.349Z</time>
      </trkpt>
      <trkpt lat="39.750729" lon="-2.330759">
        <ele>841.192053</ele>
        <time>2021-11-03T16:19:53.349Z</time>
      </trkpt>
      <trkpt lat="39.750482" lon="-2.330424">
        <ele>840.802767</ele>
        <time>2021-11-03T16:19:53.349Z</time>
      </trkpt>
      <trkpt lat="39.750402" lon="-2.330315">
        <ele>840.941542</ele>
        <time>2021-11-03T16:19:53.349Z</time>
      </trkpt>
      <trkpt lat="39.750363" lon="-2.330256">
        <ele>841.013197</ele>
        <time>2021-11-03T16:19:53.349Z</time>
      </trkpt>
      <trkpt lat="39.750114" lon="-2.329912">
        <ele>841.448299</ele>
        <time>2021-11-03T16:19:53.349Z</time>
      </trkpt>
      <trkpt lat="39.749988" lon="-2.329736">
        <ele>841.669767</ele>
        <time>2021-11-03T16:19:53.349Z</time>
      </trkpt>
      <trkpt lat="39.749822" lon="-2.329503">
        <ele>841.962304</ele>
        <time>2021-11-03T16:19:53.349Z</time>
      </trkpt>
      <trkpt lat="39.749737" lon="-2.329393">
        <ele>842.105928</ele>
        <time>2021-11-03T16:19:53.349Z</time>
      </trkpt>
      <trkpt lat="39.749565" lon="-2.329163">
        <ele>842.401410</ele>
        <time>2021-11-03T16:19:53.349Z</time>
      </trkpt>
      <trkpt lat="39.749522" lon="-2.329104">
        <ele>842.476277</ele>
        <time>2021-11-03T16:19:53.349Z</time>
      </trkpt>
      <trkpt lat="39.749271" lon="-2.328762">
        <ele>842.928255</ele>
        <time>2021-11-03T16:19:53.349Z</time>
      </trkpt>
      <trkpt lat="39.749228" lon="-2.328704">
        <ele>843.044679</ele>
        <time>2021-11-03T16:19:53.349Z</time>
      </trkpt>
      <trkpt lat="39.749142" lon="-2.328586">
        <ele>843.279616</ele>
        <time>2021-11-03T16:19:53.349Z</time>
      </trkpt>
      <trkpt lat="39.749013" lon="-2.328413">
        <ele>843.627851</ele>
        <time>2021-11-03T16:19:53.349Z</time>
      </trkpt>
      <trkpt lat="39.748760" lon="-2.328067">
        <ele>844.317811</ele>
        <time>2021-11-03T16:19:53.349Z</time>
      </trkpt>
      <trkpt lat="39.748718" lon="-2.328011">
        <ele>844.430853</ele>
        <time>2021-11-03T16:19:53.349Z</time>
      </trkpt>
      <trkpt lat="39.748478" lon="-2.327671">
        <ele>845.097798</ele>
        <time>2021-11-03T16:19:53.349Z</time>
      </trkpt>
      <trkpt lat="39.748398" lon="-2.327562">
        <ele>845.315542</ele>
        <time>2021-11-03T16:19:53.349Z</time>
      </trkpt>
      <trkpt lat="39.748360" lon="-2.327508">
        <ele>845.421320</ele>
        <time>2021-11-03T16:19:53.349Z</time>
      </trkpt>
      <trkpt lat="39.748244" lon="-2.327352">
        <ele>845.734913</ele>
        <time>2021-11-03T16:19:53.349Z</time>
      </trkpt>
      <trkpt lat="39.748166" lon="-2.327252">
        <ele>845.940751</ele>
        <time>2021-11-03T16:19:53.349Z</time>
      </trkpt>
      <trkpt lat="39.748091" lon="-2.327147">
        <ele>846.147845</ele>
        <time>2021-11-03T16:19:53.349Z</time>
      </trkpt>
      <trkpt lat="39.748013" lon="-2.327042">
        <ele>846.202376</ele>
        <time>2021-11-03T16:19:53.349Z</time>
      </trkpt>
      <trkpt lat="39.747894" lon="-2.326883">
        <ele>845.999891</ele>
        <time>2021-11-03T16:19:53.349Z</time>
      </trkpt>
      <trkpt lat="39.747692" lon="-2.326607">
        <ele>845.652164</ele>
        <time>2021-11-03T16:19:53.349Z</time>
      </trkpt>
      <trkpt lat="39.747530" lon="-2.326390">
        <ele>845.376153</ele>
        <time>2021-11-03T16:19:53.349Z</time>
      </trkpt>
      <trkpt lat="39.747404" lon="-2.326230">
        <ele>845.167151</ele>
        <time>2021-11-03T16:19:53.349Z</time>
      </trkpt>
      <trkpt lat="39.747160" lon="-2.325900">
        <ele>844.749356</ele>
        <time>2021-11-03T16:19:53.349Z</time>
      </trkpt>
      <trkpt lat="39.747119" lon="-2.325846">
        <ele>844.680101</ele>
        <time>2021-11-03T16:19:53.349Z</time>
      </trkpt>
      <trkpt lat="39.746846" lon="-2.325504">
        <ele>844.230224</ele>
        <time>2021-11-03T16:19:53.349Z</time>
      </trkpt>
      <trkpt lat="39.746794" lon="-2.325442">
        <ele>844.146498</ele>
        <time>2021-11-03T16:19:53.349Z</time>
      </trkpt>
      <trkpt lat="39.746739" lon="-2.325382">
        <ele>844.096285</ele>
        <time>2021-11-03T16:19:53.349Z</time>
      </trkpt>
      <trkpt lat="39.746683" lon="-2.325326">
        <ele>844.056308</ele>
        <time>2021-11-03T16:19:53.349Z</time>
      </trkpt>
      <trkpt lat="39.746570" lon="-2.325206">
        <ele>843.973747</ele>
        <time>2021-11-03T16:19:53.349Z</time>
      </trkpt>
      <trkpt lat="39.746395" lon="-2.325011">
        <ele>843.843329</ele>
        <time>2021-11-03T16:19:53.349Z</time>
      </trkpt>
      <trkpt lat="39.746214" lon="-2.324822">
        <ele>843.711965</ele>
        <time>2021-11-03T16:19:53.349Z</time>
      </trkpt>
      <trkpt lat="39.745917" lon="-2.324518">
        <ele>843.498070</ele>
        <time>2021-11-03T16:19:53.349Z</time>
      </trkpt>
      <trkpt lat="39.745748" lon="-2.324344">
        <ele>843.376085</ele>
        <time>2021-11-03T16:19:53.349Z</time>
      </trkpt>
      <trkpt lat="39.745591" lon="-2.324184">
        <ele>843.263204</ele>
        <time>2021-11-03T16:19:53.349Z</time>
      </trkpt>
      <trkpt lat="39.745502" lon="-2.324087">
        <ele>843.197488</ele>
        <time>2021-11-03T16:19:53.349Z</time>
      </trkpt>
      <trkpt lat="39.745382" lon="-2.323963">
        <ele>843.110749</ele>
        <time>2021-11-03T16:19:53.349Z</time>
      </trkpt>
      <trkpt lat="39.745343" lon="-2.323928">
        <ele>843.091220</ele>
        <time>2021-11-03T16:19:53.349Z</time>
      </trkpt>
      <trkpt lat="39.745120" lon="-2.323700">
        <ele>842.975132</ele>
        <time>2021-11-03T16:19:53.349Z</time>
      </trkpt>
      <trkpt lat="39.745079" lon="-2.323658">
        <ele>842.953773</ele>
        <time>2021-11-03T16:19:53.349Z</time>
      </trkpt>
      <trkpt lat="39.745038" lon="-2.323616">
        <ele>842.932414</ele>
        <time>2021-11-03T16:19:53.349Z</time>
      </trkpt>
      <trkpt lat="39.744952" lon="-2.323536">
        <ele>842.889142</ele>
        <time>2021-11-03T16:19:53.349Z</time>
      </trkpt>
      <trkpt lat="39.744864" lon="-2.323453">
        <ele>842.844654</ele>
        <time>2021-11-03T16:19:53.349Z</time>
      </trkpt>
      <trkpt lat="39.744723" lon="-2.323332">
        <ele>842.775520</ele>
        <time>2021-11-03T16:19:53.349Z</time>
      </trkpt>
      <trkpt lat="39.744527" lon="-2.323164">
        <ele>842.679452</ele>
        <time>2021-11-03T16:19:53.349Z</time>
      </trkpt>
      <trkpt lat="39.744419" lon="-2.323093">
        <ele>842.629927</ele>
        <time>2021-11-03T16:19:53.349Z</time>
      </trkpt>
      <trkpt lat="39.744297" lon="-2.323055">
        <ele>842.578587</ele>
        <time>2021-11-03T16:19:53.349Z</time>
      </trkpt>
      <trkpt lat="39.744161" lon="-2.323066">
        <ele>842.522821</ele>
        <time>2021-11-03T16:19:53.349Z</time>
      </trkpt>
      <trkpt lat="39.744090" lon="-2.323085">
        <ele>842.493155</ele>
        <time>2021-11-03T16:19:53.349Z</time>
      </trkpt>
      <trkpt lat="39.744015" lon="-2.323107">
        <ele>842.461690</ele>
        <time>2021-11-03T16:19:53.349Z</time>
      </trkpt>
      <trkpt lat="39.743937" lon="-2.323130">
        <ele>842.428958</ele>
        <time>2021-11-03T16:19:53.349Z</time>
      </trkpt>
      <trkpt lat="39.743774" lon="-2.323159">
        <ele>842.204129</ele>
        <time>2021-11-03T16:19:53.349Z</time>
      </trkpt>
      <trkpt lat="39.743600" lon="-2.323148">
        <ele>841.236370</ele>
        <time>2021-11-03T16:19:53.349Z</time>
      </trkpt>
      <trkpt lat="39.743420" lon="-2.323086">
        <ele>840.201944</ele>
        <time>2021-11-03T16:19:53.349Z</time>
      </trkpt>
      <trkpt lat="39.743333" lon="-2.323032">
        <ele>839.666414</ele>
        <time>2021-11-03T16:19:53.349Z</time>
      </trkpt>
      <trkpt lat="39.743252" lon="-2.322963">
        <ele>839.128502</ele>
        <time>2021-11-03T16:19:53.349Z</time>
      </trkpt>
      <trkpt lat="39.743121" lon="-2.322773">
        <ele>838.038414</ele>
        <time>2021-11-03T16:19:53.349Z</time>
      </trkpt>
      <trkpt lat="39.742974" lon="-2.322287">
        <ele>835.807594</ele>
        <time>2021-11-03T16:19:53.349Z</time>
      </trkpt>
      <trkpt lat="39.742919" lon="-2.321795">
        <ele>833.683890</ele>
        <time>2021-11-03T16:19:53.349Z</time>
      </trkpt>
      <trkpt lat="39.742897" lon="-2.321551">
        <ele>832.634487</ele>
        <time>2021-11-03T16:19:53.349Z</time>
      </trkpt>
      <trkpt lat="39.742833" lon="-2.321319">
        <ele>831.924762</ele>
        <time>2021-11-03T16:19:53.349Z</time>
      </trkpt>
      <trkpt lat="39.742740" lon="-2.321102">
        <ele>831.318406</ele>
        <time>2021-11-03T16:19:53.349Z</time>
      </trkpt>
      <trkpt lat="39.742646" lon="-2.320885">
        <ele>830.710498</ele>
        <time>2021-11-03T16:19:53.349Z</time>
      </trkpt>
      <trkpt lat="39.742600" lon="-2.320776">
        <ele>830.407020</ele>
        <time>2021-11-03T16:19:53.349Z</time>
      </trkpt>
      <trkpt lat="39.742548" lon="-2.320673">
        <ele>830.106277</ele>
        <time>2021-11-03T16:19:53.349Z</time>
      </trkpt>
      <trkpt lat="39.742423" lon="-2.320499">
        <ele>829.525073</ele>
        <time>2021-11-03T16:19:53.349Z</time>
      </trkpt>
      <trkpt lat="39.742352" lon="-2.320431">
        <ele>829.245182</ele>
        <time>2021-11-03T16:19:53.349Z</time>
      </trkpt>
      <trkpt lat="39.741990" lon="-2.320183">
        <ele>827.946420</ele>
        <time>2021-11-03T16:19:53.349Z</time>
      </trkpt>
      <trkpt lat="39.741780" lon="-2.320066">
        <ele>827.221234</ele>
        <time>2021-11-03T16:19:53.349Z</time>
      </trkpt>
      <trkpt lat="39.741631" lon="-2.320020">
        <ele>826.735127</ele>
        <time>2021-11-03T16:19:53.349Z</time>
      </trkpt>
      <trkpt lat="39.741293" lon="-2.319975">
        <ele>826.682390</ele>
        <time>2021-11-03T16:19:53.349Z</time>
      </trkpt>
      <trkpt lat="39.741229" lon="-2.319961">
        <ele>826.684322</ele>
        <time>2021-11-03T16:19:53.349Z</time>
      </trkpt>
      <trkpt lat="39.740996" lon="-2.319936">
        <ele>826.691282</ele>
        <time>2021-11-03T16:19:53.349Z</time>
      </trkpt>
      <trkpt lat="39.740941" lon="-2.319930">
        <ele>826.692925</ele>
        <time>2021-11-03T16:19:53.349Z</time>
      </trkpt>
      <trkpt lat="39.740884" lon="-2.319922">
        <ele>826.694632</ele>
        <time>2021-11-03T16:19:53.349Z</time>
      </trkpt>
      <trkpt lat="39.740771" lon="-2.319909">
        <ele>826.698009</ele>
        <time>2021-11-03T16:19:53.349Z</time>
      </trkpt>
      <trkpt lat="39.740422" lon="-2.319865">
        <ele>826.708447</ele>
        <time>2021-11-03T16:19:53.349Z</time>
      </trkpt>
      <trkpt lat="39.740358" lon="-2.319853">
        <ele>826.710371</ele>
        <time>2021-11-03T16:19:53.349Z</time>
      </trkpt>
      <trkpt lat="39.740078" lon="-2.319804">
        <ele>826.718782</ele>
        <time>2021-11-03T16:19:53.349Z</time>
      </trkpt>
      <trkpt lat="39.740000" lon="-2.319791">
        <ele>826.721123</ele>
        <time>2021-11-03T16:19:53.349Z</time>
      </trkpt>
      <trkpt lat="39.739919" lon="-2.319774">
        <ele>826.723565</ele>
        <time>2021-11-03T16:19:53.349Z</time>
      </trkpt>
      <trkpt lat="39.739837" lon="-2.319749">
        <ele>826.726072</ele>
        <time>2021-11-03T16:19:53.349Z</time>
      </trkpt>
      <trkpt lat="39.739752" lon="-2.319717">
        <ele>826.122607</ele>
        <time>2021-11-03T16:19:53.349Z</time>
      </trkpt>
      <trkpt lat="39.739666" lon="-2.319676">
        <ele>825.407916</ele>
        <time>2021-11-03T16:19:53.349Z</time>
      </trkpt>
      <trkpt lat="39.739581" lon="-2.319627">
        <ele>824.682458</ele>
        <time>2021-11-03T16:19:53.349Z</time>
      </trkpt>
      <trkpt lat="39.739410" lon="-2.319513">
        <ele>823.183115</ele>
        <time>2021-11-03T16:19:53.349Z</time>
      </trkpt>
      <trkpt lat="39.739232" lon="-2.319392">
        <ele>821.615958</ele>
        <time>2021-11-03T16:19:53.349Z</time>
      </trkpt>
      <trkpt lat="39.739141" lon="-2.319329">
        <ele>820.811579</ele>
        <time>2021-11-03T16:19:53.349Z</time>
      </trkpt>
      <trkpt lat="39.739050" lon="-2.319264">
        <ele>820.001491</ele>
        <time>2021-11-03T16:19:53.349Z</time>
      </trkpt>
      <trkpt lat="39.738864" lon="-2.319140">
        <ele>818.370624</ele>
        <time>2021-11-03T16:19:53.349Z</time>
      </trkpt>
      <trkpt lat="39.738680" lon="-2.319018">
        <ele>816.759113</ele>
        <time>2021-11-03T16:19:53.349Z</time>
      </trkpt>
      <trkpt lat="39.738500" lon="-2.318894">
        <ele>815.169761</ele>
        <time>2021-11-03T16:19:53.349Z</time>
      </trkpt>
      <trkpt lat="39.738325" lon="-2.318779">
        <ele>813.639877</ele>
        <time>2021-11-03T16:19:53.349Z</time>
      </trkpt>
      <trkpt lat="39.738072" lon="-2.318606">
        <ele>812.509497</ele>
        <time>2021-11-03T16:19:53.349Z</time>
      </trkpt>
      <trkpt lat="39.737913" lon="-2.318501">
        <ele>812.311151</ele>
        <time>2021-11-03T16:19:53.349Z</time>
      </trkpt>
      <trkpt lat="39.737837" lon="-2.318451">
        <ele>812.216417</ele>
        <time>2021-11-03T16:19:53.349Z</time>
      </trkpt>
      <trkpt lat="39.737415" lon="-2.318173">
        <ele>811.690250</ele>
        <time>2021-11-03T16:19:53.349Z</time>
      </trkpt>
      <trkpt lat="39.737347" lon="-2.318128">
        <ele>811.605386</ele>
        <time>2021-11-03T16:19:53.349Z</time>
      </trkpt>
      <trkpt lat="39.736944" lon="-2.317870">
        <ele>811.105769</ele>
        <time>2021-11-03T16:19:53.349Z</time>
      </trkpt>
      <trkpt lat="39.736813" lon="-2.317785">
        <ele>810.942931</ele>
        <time>2021-11-03T16:19:53.349Z</time>
      </trkpt>
      <trkpt lat="39.736435" lon="-2.317544">
        <ele>810.919395</ele>
        <time>2021-11-03T16:19:53.349Z</time>
      </trkpt>
      <trkpt lat="39.736262" lon="-2.317420">
        <ele>811.149727</ele>
        <time>2021-11-03T16:19:53.349Z</time>
      </trkpt>
      <trkpt lat="39.735922" lon="-2.317201">
        <ele>811.592137</ele>
        <time>2021-11-03T16:19:53.349Z</time>
      </trkpt>
      <trkpt lat="39.735757" lon="-2.317101">
        <ele>811.804397</ele>
        <time>2021-11-03T16:19:53.349Z</time>
      </trkpt>
      <trkpt lat="39.735703" lon="-2.317066">
        <ele>811.874749</ele>
        <time>2021-11-03T16:19:53.349Z</time>
      </trkpt>
      <trkpt lat="39.735596" lon="-2.316999">
        <ele>812.013223</ele>
        <time>2021-11-03T16:19:53.349Z</time>
      </trkpt>
      <trkpt lat="39.735439" lon="-2.316898">
        <ele>812.217462</ele>
        <time>2021-11-03T16:19:53.349Z</time>
      </trkpt>
      <trkpt lat="39.735132" lon="-2.316694">
        <ele>812.619455</ele>
        <time>2021-11-03T16:19:53.349Z</time>
      </trkpt>
      <trkpt lat="39.735080" lon="-2.316660">
        <ele>812.687320</ele>
        <time>2021-11-03T16:19:53.349Z</time>
      </trkpt>
      <trkpt lat="39.734876" lon="-2.316519">
        <ele>813.178876</ele>
        <time>2021-11-03T16:19:53.349Z</time>
      </trkpt>
      <trkpt lat="39.734775" lon="-2.316449">
        <ele>813.489152</ele>
        <time>2021-11-03T16:19:53.349Z</time>
      </trkpt>
      <trkpt lat="39.734566" lon="-2.316318">
        <ele>814.118143</ele>
        <time>2021-11-03T16:19:53.349Z</time>
      </trkpt>
      <trkpt lat="39.734338" lon="-2.316224">
        <ele>814.766579</ele>
        <time>2021-11-03T16:19:53.349Z</time>
      </trkpt>
      <trkpt lat="39.734164" lon="-2.316185">
        <ele>815.245254</ele>
        <time>2021-11-03T16:19:53.349Z</time>
      </trkpt>
      <trkpt lat="39.733989" lon="-2.316149">
        <ele>815.725583</ele>
        <time>2021-11-03T16:19:53.349Z</time>
      </trkpt>
      <trkpt lat="39.733754" lon="-2.316099">
        <ele>816.371146</ele>
        <time>2021-11-03T16:19:53.349Z</time>
      </trkpt>
      <trkpt lat="39.733640" lon="-2.316074">
        <ele>816.684566</ele>
        <time>2021-11-03T16:19:53.349Z</time>
      </trkpt>
      <trkpt lat="39.733527" lon="-2.316047">
        <ele>816.996041</ele>
        <time>2021-11-03T16:19:53.349Z</time>
      </trkpt>
      <trkpt lat="39.733470" lon="-2.316032">
        <ele>817.153702</ele>
        <time>2021-11-03T16:19:53.349Z</time>
      </trkpt>
      <trkpt lat="39.733245" lon="-2.315972">
        <ele>817.846564</ele>
        <time>2021-11-03T16:19:53.349Z</time>
      </trkpt>
      <trkpt lat="39.733078" lon="-2.315950">
        <ele>818.588877</ele>
        <time>2021-11-03T16:19:53.349Z</time>
      </trkpt>
      <trkpt lat="39.732968" lon="-2.315985">
        <ele>819.089687</ele>
        <time>2021-11-03T16:19:53.349Z</time>
      </trkpt>
      <trkpt lat="39.732920" lon="-2.316020">
        <ele>819.333057</ele>
        <time>2021-11-03T16:19:53.349Z</time>
      </trkpt>
      <trkpt lat="39.732875" lon="-2.316062">
        <ele>819.578019</ele>
        <time>2021-11-03T16:19:53.349Z</time>
      </trkpt>
      <trkpt lat="39.732835" lon="-2.316110">
        <ele>819.818727</ele>
        <time>2021-11-03T16:19:53.349Z</time>
      </trkpt>
      <trkpt lat="39.732727" lon="-2.316272">
        <ele>820.547879</ele>
        <time>2021-11-03T16:19:53.349Z</time>
      </trkpt>
      <trkpt lat="39.732688" lon="-2.316319">
        <ele>820.783032</ele>
        <time>2021-11-03T16:19:53.349Z</time>
      </trkpt>
      <trkpt lat="39.732604" lon="-2.316396">
        <ele>821.237535</ele>
        <time>2021-11-03T16:19:53.349Z</time>
      </trkpt>
      <trkpt lat="39.732557" lon="-2.316422">
        <ele>821.463413</ele>
        <time>2021-11-03T16:19:53.349Z</time>
      </trkpt>
      <trkpt lat="39.732506" lon="-2.316439">
        <ele>821.696245</ele>
        <time>2021-11-03T16:19:53.349Z</time>
      </trkpt>
      <trkpt lat="39.732292" lon="-2.316479">
        <ele>822.652356</ele>
        <time>2021-11-03T16:19:53.349Z</time>
      </trkpt>
      <trkpt lat="39.732183" lon="-2.316499">
        <ele>823.139168</ele>
        <time>2021-11-03T16:19:53.349Z</time>
      </trkpt>
      <trkpt lat="39.732025" lon="-2.316522">
        <ele>823.842265</ele>
        <time>2021-11-03T16:19:53.349Z</time>
      </trkpt>
      <trkpt lat="39.731972" lon="-2.316531">
        <ele>824.078640</ele>
        <time>2021-11-03T16:19:53.349Z</time>
      </trkpt>
      <trkpt lat="39.731816" lon="-2.316555">
        <ele>824.773338</ele>
        <time>2021-11-03T16:19:53.349Z</time>
      </trkpt>
      <trkpt lat="39.731715" lon="-2.316563">
        <ele>825.220824</ele>
        <time>2021-11-03T16:19:53.349Z</time>
      </trkpt>
      <trkpt lat="39.731564" lon="-2.316566">
        <ele>825.822145</ele>
        <time>2021-11-03T16:19:53.349Z</time>
      </trkpt>
      <trkpt lat="39.731410" lon="-2.316546">
        <ele>826.337454</ele>
        <time>2021-11-03T16:19:53.349Z</time>
      </trkpt>
      <trkpt lat="39.731146" lon="-2.316494">
        <ele>827.226496</ele>
        <time>2021-11-03T16:19:53.349Z</time>
      </trkpt>
      <trkpt lat="39.731039" lon="-2.316474">
        <ele>827.586425</ele>
        <time>2021-11-03T16:19:53.349Z</time>
      </trkpt>
      <trkpt lat="39.730873" lon="-2.316461">
        <ele>828.140139</ele>
        <time>2021-11-03T16:19:53.349Z</time>
      </trkpt>
      <trkpt lat="39.730769" lon="-2.316469">
        <ele>828.487023</ele>
        <time>2021-11-03T16:19:53.349Z</time>
      </trkpt>
      <trkpt lat="39.730669" lon="-2.316495">
        <ele>828.826573</ele>
        <time>2021-11-03T16:19:53.349Z</time>
      </trkpt>
      <trkpt lat="39.730570" lon="-2.316532">
        <ele>829.169549</ele>
        <time>2021-11-03T16:19:53.349Z</time>
      </trkpt>
      <trkpt lat="39.730521" lon="-2.316556">
        <ele>829.343890</ele>
        <time>2021-11-03T16:19:53.349Z</time>
      </trkpt>
      <trkpt lat="39.730228" lon="-2.316689">
        <ele>830.377199</ele>
        <time>2021-11-03T16:19:53.349Z</time>
      </trkpt>
      <trkpt lat="39.730174" lon="-2.316705">
        <ele>830.561606</ele>
        <time>2021-11-03T16:19:53.349Z</time>
      </trkpt>
      <trkpt lat="39.729933" lon="-2.316718">
        <ele>831.364730</ele>
        <time>2021-11-03T16:19:53.349Z</time>
      </trkpt>
      <trkpt lat="39.729868" lon="-2.316704">
        <ele>831.584102</ele>
        <time>2021-11-03T16:19:53.349Z</time>
      </trkpt>
      <trkpt lat="39.729733" lon="-2.316650">
        <ele>830.993792</ele>
        <time>2021-11-03T16:19:53.349Z</time>
      </trkpt>
      <trkpt lat="39.729667" lon="-2.316607">
        <ele>830.655350</ele>
        <time>2021-11-03T16:19:53.349Z</time>
      </trkpt>
      <trkpt lat="39.729606" lon="-2.316553">
        <ele>830.317029</ele>
        <time>2021-11-03T16:19:53.349Z</time>
      </trkpt>
      <trkpt lat="39.729549" lon="-2.316486">
        <ele>829.964757</ele>
        <time>2021-11-03T16:19:53.349Z</time>
      </trkpt>
      <trkpt lat="39.729443" lon="-2.316320">
        <ele>829.204010</ele>
        <time>2021-11-03T16:19:53.349Z</time>
      </trkpt>
      <trkpt lat="39.729394" lon="-2.316228">
        <ele>828.809436</ele>
        <time>2021-11-03T16:19:53.349Z</time>
      </trkpt>
      <trkpt lat="39.729343" lon="-2.316133">
        <ele>828.400942</ele>
        <time>2021-11-03T16:19:53.349Z</time>
      </trkpt>
      <trkpt lat="39.729155" lon="-2.315713">
        <ele>826.687505</ele>
        <time>2021-11-03T16:19:53.349Z</time>
      </trkpt>
      <trkpt lat="39.729009" lon="-2.315396">
        <ele>825.384697</ele>
        <time>2021-11-03T16:19:53.349Z</time>
      </trkpt>
      <trkpt lat="39.728961" lon="-2.315294">
        <ele>824.963070</ele>
        <time>2021-11-03T16:19:53.349Z</time>
      </trkpt>
      <trkpt lat="39.728911" lon="-2.315194">
        <ele>824.542515</ele>
        <time>2021-11-03T16:19:53.349Z</time>
      </trkpt>
      <trkpt lat="39.728861" lon="-2.315095">
        <ele>824.124911</ele>
        <time>2021-11-03T16:19:53.349Z</time>
      </trkpt>
      <trkpt lat="39.728813" lon="-2.314997">
        <ele>823.715247</ele>
        <time>2021-11-03T16:19:53.349Z</time>
      </trkpt>
      <trkpt lat="39.728765" lon="-2.314902">
        <ele>823.363184</ele>
        <time>2021-11-03T16:19:53.349Z</time>
      </trkpt>
      <trkpt lat="39.728720" lon="-2.314811">
        <ele>823.371662</ele>
        <time>2021-11-03T16:19:53.349Z</time>
      </trkpt>
      <trkpt lat="39.728501" lon="-2.314404">
        <ele>823.410584</ele>
        <time>2021-11-03T16:19:53.349Z</time>
      </trkpt>
      <trkpt lat="39.728361" lon="-2.314101">
        <ele>823.438282</ele>
        <time>2021-11-03T16:19:53.349Z</time>
      </trkpt>
      <trkpt lat="39.728327" lon="-2.314030">
        <ele>823.444836</ele>
        <time>2021-11-03T16:19:53.349Z</time>
      </trkpt>
      <trkpt lat="39.728294" lon="-2.313962">
        <ele>823.451136</ele>
        <time>2021-11-03T16:19:53.349Z</time>
      </trkpt>
      <trkpt lat="39.728261" lon="-2.313896">
        <ele>823.457305</ele>
        <time>2021-11-03T16:19:53.349Z</time>
      </trkpt>
      <trkpt lat="39.728227" lon="-2.313829">
        <ele>823.463595</ele>
        <time>2021-11-03T16:19:53.349Z</time>
      </trkpt>
      <trkpt lat="39.728123" lon="-2.313635">
        <ele>823.482125</ele>
        <time>2021-11-03T16:19:53.349Z</time>
      </trkpt>
      <trkpt lat="39.727998" lon="-2.313456">
        <ele>823.501071</ele>
        <time>2021-11-03T16:19:53.349Z</time>
      </trkpt>
      <trkpt lat="39.727947" lon="-2.313404">
        <ele>823.507674</ele>
        <time>2021-11-03T16:19:53.349Z</time>
      </trkpt>
      <trkpt lat="39.727834" lon="-2.313309">
        <ele>823.521384</ele>
        <time>2021-11-03T16:19:53.349Z</time>
      </trkpt>
      <trkpt lat="39.727635" lon="-2.313194">
        <ele>823.543571</ele>
        <time>2021-11-03T16:19:53.349Z</time>
      </trkpt>
      <trkpt lat="39.727422" lon="-2.313075">
        <ele>822.468877</ele>
        <time>2021-11-03T16:19:53.349Z</time>
      </trkpt>
      <trkpt lat="39.727347" lon="-2.313035">
        <ele>822.061222</ele>
        <time>2021-11-03T16:19:53.349Z</time>
      </trkpt>
      <trkpt lat="39.727273" lon="-2.312995">
        <ele>821.658215</ele>
        <time>2021-11-03T16:19:53.349Z</time>
      </trkpt>
      <trkpt lat="39.727200" lon="-2.312949">
        <ele>821.250273</ele>
        <time>2021-11-03T16:19:53.349Z</time>
      </trkpt>
      <trkpt lat="39.727128" lon="-2.312907">
        <ele>820.853431</ele>
        <time>2021-11-03T16:19:53.349Z</time>
      </trkpt>
      <trkpt lat="39.727056" lon="-2.312859">
        <ele>820.446538</ele>
        <time>2021-11-03T16:19:53.349Z</time>
      </trkpt>
      <trkpt lat="39.726985" lon="-2.312814">
        <ele>820.049333</ele>
        <time>2021-11-03T16:19:53.349Z</time>
      </trkpt>
      <trkpt lat="39.726845" lon="-2.312730">
        <ele>819.273957</ele>
        <time>2021-11-03T16:19:53.349Z</time>
      </trkpt>
      <trkpt lat="39.726774" lon="-2.312690">
        <ele>818.884837</ele>
        <time>2021-11-03T16:19:53.349Z</time>
      </trkpt>
      <trkpt lat="39.726702" lon="-2.312647">
        <ele>818.486395</ele>
        <time>2021-11-03T16:19:53.349Z</time>
      </trkpt>
      <trkpt lat="39.726630" lon="-2.312605">
        <ele>818.089552</ele>
        <time>2021-11-03T16:19:53.349Z</time>
      </trkpt>
      <trkpt lat="39.726211" lon="-2.312352">
        <ele>815.766360</ele>
        <time>2021-11-03T16:19:53.349Z</time>
      </trkpt>
      <trkpt lat="39.726078" lon="-2.312272">
        <ele>815.029426</ele>
        <time>2021-11-03T16:19:53.349Z</time>
      </trkpt>
      <trkpt lat="39.725882" lon="-2.312159">
        <ele>814.617421</ele>
        <time>2021-11-03T16:19:53.349Z</time>
      </trkpt>
      <trkpt lat="39.725759" lon="-2.312105">
        <ele>814.756572</ele>
        <time>2021-11-03T16:19:53.349Z</time>
      </trkpt>
      <trkpt lat="39.725635" lon="-2.312094">
        <ele>814.889791</ele>
        <time>2021-11-03T16:19:53.349Z</time>
      </trkpt>
      <trkpt lat="39.725518" lon="-2.312133">
        <ele>815.019253</ele>
        <time>2021-11-03T16:19:53.349Z</time>
      </trkpt>
      <trkpt lat="39.725468" lon="-2.312171">
        <ele>815.081330</ele>
        <time>2021-11-03T16:19:53.349Z</time>
      </trkpt>
      <trkpt lat="39.725314" lon="-2.312299">
        <ele>815.277241</ele>
        <time>2021-11-03T16:19:53.349Z</time>
      </trkpt>
      <trkpt lat="39.725256" lon="-2.312330">
        <ele>815.344457</ele>
        <time>2021-11-03T16:19:53.349Z</time>
      </trkpt>
      <trkpt lat="39.725131" lon="-2.312369">
        <ele>815.482242</ele>
        <time>2021-11-03T16:19:53.349Z</time>
      </trkpt>
      <trkpt lat="39.725069" lon="-2.312372">
        <ele>815.548743</ele>
        <time>2021-11-03T16:19:53.349Z</time>
      </trkpt>
      <trkpt lat="39.725009" lon="-2.312363">
        <ele>815.613481</ele>
        <time>2021-11-03T16:19:53.349Z</time>
      </trkpt>
      <trkpt lat="39.724779" lon="-2.312301">
        <ele>815.865250</ele>
        <time>2021-11-03T16:19:53.349Z</time>
      </trkpt>
      <trkpt lat="39.724614" lon="-2.312245">
        <ele>816.048032</ele>
        <time>2021-11-03T16:19:53.349Z</time>
      </trkpt>
      <trkpt lat="39.724444" lon="-2.312182">
        <ele>816.237505</ele>
        <time>2021-11-03T16:19:53.349Z</time>
      </trkpt>
      <trkpt lat="39.724384" lon="-2.312162">
        <ele>816.303896</ele>
        <time>2021-11-03T16:19:53.349Z</time>
      </trkpt>
      <trkpt lat="39.723995" lon="-2.312029">
        <ele>816.202872</ele>
        <time>2021-11-03T16:19:53.349Z</time>
      </trkpt>
      <trkpt lat="39.723925" lon="-2.312006">
        <ele>816.146013</ele>
        <time>2021-11-03T16:19:53.349Z</time>
      </trkpt>
      <trkpt lat="39.723496" lon="-2.311872">
        <ele>815.798557</ele>
        <time>2021-11-03T16:19:53.349Z</time>
      </trkpt>
      <trkpt lat="39.723430" lon="-2.311854">
        <ele>815.745450</ele>
        <time>2021-11-03T16:19:53.349Z</time>
      </trkpt>
      <trkpt lat="39.723364" lon="-2.311832">
        <ele>815.691793</ele>
        <time>2021-11-03T16:19:53.349Z</time>
      </trkpt>
      <trkpt lat="39.722993" lon="-2.311724">
        <ele>815.392392</ele>
        <time>2021-11-03T16:19:53.349Z</time>
      </trkpt>
      <trkpt lat="39.722636" lon="-2.311619">
        <ele>815.104146</ele>
        <time>2021-11-03T16:19:53.349Z</time>
      </trkpt>
      <trkpt lat="39.722476" lon="-2.311535">
        <ele>815.126847</ele>
        <time>2021-11-03T16:19:53.349Z</time>
      </trkpt>
      <trkpt lat="39.722202" lon="-2.311288">
        <ele>815.820551</ele>
        <time>2021-11-03T16:19:53.349Z</time>
      </trkpt>
      <trkpt lat="39.722125" lon="-2.311198">
        <ele>816.035978</ele>
        <time>2021-11-03T16:19:53.349Z</time>
      </trkpt>
      <trkpt lat="39.722008" lon="-2.311064">
        <ele>816.360386</ele>
        <time>2021-11-03T16:19:53.349Z</time>
      </trkpt>
      <trkpt lat="39.721933" lon="-2.310970">
        <ele>816.577129</ele>
        <time>2021-11-03T16:19:53.349Z</time>
      </trkpt>
      <trkpt lat="39.721856" lon="-2.310878">
        <ele>816.794709</ele>
        <time>2021-11-03T16:19:53.349Z</time>
      </trkpt>
      <trkpt lat="39.721770" lon="-2.310809">
        <ele>817.004967</ele>
        <time>2021-11-03T16:19:53.349Z</time>
      </trkpt>
      <trkpt lat="39.721627" lon="-2.310736">
        <ele>817.324602</ele>
        <time>2021-11-03T16:19:53.349Z</time>
      </trkpt>
      <trkpt lat="39.721577" lon="-2.310716">
        <ele>817.433443</ele>
        <time>2021-11-03T16:19:53.349Z</time>
      </trkpt>
      <trkpt lat="39.721254" lon="-2.310603">
        <ele>818.129374</ele>
        <time>2021-11-03T16:19:53.349Z</time>
      </trkpt>
      <trkpt lat="39.721191" lon="-2.310583">
        <ele>818.264302</ele>
        <time>2021-11-03T16:19:53.349Z</time>
      </trkpt>
      <trkpt lat="39.721126" lon="-2.310560">
        <ele>818.404459</ele>
        <time>2021-11-03T16:19:53.349Z</time>
      </trkpt>
      <trkpt lat="39.721057" lon="-2.310537">
        <ele>818.552662</ele>
        <time>2021-11-03T16:19:53.349Z</time>
      </trkpt>
      <trkpt lat="39.720915" lon="-2.310489">
        <ele>818.727072</ele>
        <time>2021-11-03T16:19:53.349Z</time>
      </trkpt>
      <trkpt lat="39.720774" lon="-2.310436">
        <ele>818.647881</ele>
        <time>2021-11-03T16:19:53.349Z</time>
      </trkpt>
      <trkpt lat="39.720575" lon="-2.310342">
        <ele>818.533645</ele>
        <time>2021-11-03T16:19:53.349Z</time>
      </trkpt>
      <trkpt lat="39.720459" lon="-2.310238">
        <ele>818.457619</ele>
        <time>2021-11-03T16:19:53.349Z</time>
      </trkpt>
      <trkpt lat="39.720134" lon="-2.309857">
        <ele>818.221508</ele>
        <time>2021-11-03T16:19:53.349Z</time>
      </trkpt>
      <trkpt lat="39.720030" lon="-2.309734">
        <ele>818.145651</ele>
        <time>2021-11-03T16:19:53.349Z</time>
      </trkpt>
      <trkpt lat="39.719886" lon="-2.309563">
        <ele>818.040425</ele>
        <time>2021-11-03T16:19:53.349Z</time>
      </trkpt>
      <trkpt lat="39.719798" lon="-2.309465">
        <ele>817.977908</ele>
        <time>2021-11-03T16:19:53.349Z</time>
      </trkpt>
      <trkpt lat="39.719757" lon="-2.309418">
        <ele>817.948415</ele>
        <time>2021-11-03T16:19:53.349Z</time>
      </trkpt>
      <trkpt lat="39.719717" lon="-2.309371">
        <ele>817.919325</ele>
        <time>2021-11-03T16:19:53.349Z</time>
      </trkpt>
      <trkpt lat="39.719677" lon="-2.309325">
        <ele>817.890512</ele>
        <time>2021-11-03T16:19:53.349Z</time>
      </trkpt>
      <trkpt lat="39.719600" lon="-2.309231">
        <ele>817.833523</ele>
        <time>2021-11-03T16:19:53.349Z</time>
      </trkpt>
      <trkpt lat="39.719349" lon="-2.308925">
        <ele>818.019539</ele>
        <time>2021-11-03T16:19:53.349Z</time>
      </trkpt>
      <trkpt lat="39.719213" lon="-2.308736">
        <ele>818.206305</ele>
        <time>2021-11-03T16:19:53.349Z</time>
      </trkpt>
      <trkpt lat="39.719114" lon="-2.308595">
        <ele>818.344072</ele>
        <time>2021-11-03T16:19:53.349Z</time>
      </trkpt>
      <trkpt lat="39.719064" lon="-2.308521">
        <ele>818.415149</ele>
        <time>2021-11-03T16:19:53.349Z</time>
      </trkpt>
      <trkpt lat="39.718775" lon="-2.308079">
        <ele>818.833778</ele>
        <time>2021-11-03T16:19:53.349Z</time>
      </trkpt>
      <trkpt lat="39.718687" lon="-2.307945">
        <ele>818.960927</ele>
        <time>2021-11-03T16:19:53.349Z</time>
      </trkpt>
      <trkpt lat="39.718438" lon="-2.307581">
        <ele>819.312452</ele>
        <time>2021-11-03T16:19:53.349Z</time>
      </trkpt>
      <trkpt lat="39.718350" lon="-2.307461">
        <ele>819.432098</ele>
        <time>2021-11-03T16:19:53.349Z</time>
      </trkpt>
      <trkpt lat="39.718217" lon="-2.307278">
        <ele>818.923682</ele>
        <time>2021-11-03T16:19:53.349Z</time>
      </trkpt>
      <trkpt lat="39.717983" lon="-2.306980">
        <ele>817.745513</ele>
        <time>2021-11-03T16:19:53.349Z</time>
      </trkpt>
      <trkpt lat="39.717823" lon="-2.306826">
        <ele>817.029479</ele>
        <time>2021-11-03T16:19:53.349Z</time>
      </trkpt>
      <trkpt lat="39.717701" lon="-2.306777">
        <ele>816.570211</ele>
        <time>2021-11-03T16:19:53.349Z</time>
      </trkpt>
      <trkpt lat="39.717572" lon="-2.306768">
        <ele>816.105561</ele>
        <time>2021-11-03T16:19:53.349Z</time>
      </trkpt>
      <trkpt lat="39.717439" lon="-2.306731">
        <ele>815.616363</ele>
        <time>2021-11-03T16:19:53.349Z</time>
      </trkpt>
      <trkpt lat="39.717374" lon="-2.306699">
        <ele>815.366372</ele>
        <time>2021-11-03T16:19:53.349Z</time>
      </trkpt>
      <trkpt lat="39.717182" lon="-2.306577">
        <ele>814.597721</ele>
        <time>2021-11-03T16:19:53.349Z</time>
      </trkpt>
      <trkpt lat="39.717051" lon="-2.306500">
        <ele>814.080624</ele>
        <time>2021-11-03T16:19:53.349Z</time>
      </trkpt>
      <trkpt lat="39.716989" lon="-2.306461">
        <ele>813.832893</ele>
        <time>2021-11-03T16:19:53.349Z</time>
      </trkpt>
      <trkpt lat="39.716925" lon="-2.306423">
        <ele>813.579829</ele>
        <time>2021-11-03T16:19:53.349Z</time>
      </trkpt>
      <trkpt lat="39.716801" lon="-2.306345">
        <ele>813.084365</ele>
        <time>2021-11-03T16:19:53.349Z</time>
      </trkpt>
      <trkpt lat="39.716545" lon="-2.306183">
        <ele>812.901023</ele>
        <time>2021-11-03T16:19:53.349Z</time>
      </trkpt>
      <trkpt lat="39.716405" lon="-2.306087">
        <ele>812.840121</ele>
        <time>2021-11-03T16:19:53.349Z</time>
      </trkpt>
      <trkpt lat="39.716333" lon="-2.306037">
        <ele>812.808713</ele>
        <time>2021-11-03T16:19:53.349Z</time>
      </trkpt>
      <trkpt lat="39.716257" lon="-2.305992">
        <ele>812.776581</ele>
        <time>2021-11-03T16:19:53.349Z</time>
      </trkpt>
      <trkpt lat="39.716181" lon="-2.305958">
        <ele>812.745655</ele>
        <time>2021-11-03T16:19:53.349Z</time>
      </trkpt>
      <trkpt lat="39.716022" lon="-2.305915">
        <ele>812.683167</ele>
        <time>2021-11-03T16:19:53.349Z</time>
      </trkpt>
      <trkpt lat="39.715870" lon="-2.305911">
        <ele>812.624670</ele>
        <time>2021-11-03T16:19:53.349Z</time>
      </trkpt>
      <trkpt lat="39.715801" lon="-2.305925">
        <ele>812.597800</ele>
        <time>2021-11-03T16:19:53.349Z</time>
      </trkpt>
      <trkpt lat="39.715736" lon="-2.305945">
        <ele>812.572099</ele>
        <time>2021-11-03T16:19:53.349Z</time>
      </trkpt>
      <trkpt lat="39.715617" lon="-2.305994">
        <ele>812.524070</ele>
        <time>2021-11-03T16:19:53.349Z</time>
      </trkpt>
      <trkpt lat="39.715506" lon="-2.306037">
        <ele>812.479504</ele>
        <time>2021-11-03T16:19:53.349Z</time>
      </trkpt>
      <trkpt lat="39.715393" lon="-2.306064">
        <ele>812.435297</ele>
        <time>2021-11-03T16:19:53.349Z</time>
      </trkpt>
      <trkpt lat="39.715223" lon="-2.306076">
        <ele>812.369790</ele>
        <time>2021-11-03T16:19:53.349Z</time>
      </trkpt>
      <trkpt lat="39.715113" lon="-2.306076">
        <ele>812.327466</ele>
        <time>2021-11-03T16:19:53.349Z</time>
      </trkpt>
      <trkpt lat="39.715059" lon="-2.306078">
        <ele>812.351826</ele>
        <time>2021-11-03T16:19:53.349Z</time>
      </trkpt>
      <trkpt lat="39.714904" lon="-2.306093">
        <ele>813.194152</ele>
        <time>2021-11-03T16:19:53.349Z</time>
      </trkpt>
      <trkpt lat="39.714806" lon="-2.306115">
        <ele>813.733110</ele>
        <time>2021-11-03T16:19:53.349Z</time>
      </trkpt>
      <trkpt lat="39.714709" lon="-2.306151">
        <ele>814.279792</ele>
        <time>2021-11-03T16:19:53.349Z</time>
      </trkpt>
      <trkpt lat="39.714662" lon="-2.306176">
        <ele>814.554999</ele>
        <time>2021-11-03T16:19:53.349Z</time>
      </trkpt>
      <trkpt lat="39.714517" lon="-2.306257">
        <ele>815.410286</ele>
        <time>2021-11-03T16:19:53.349Z</time>
      </trkpt>
      <trkpt lat="39.714417" lon="-2.306298">
        <ele>815.978537</ele>
        <time>2021-11-03T16:19:53.349Z</time>
      </trkpt>
      <trkpt lat="39.714366" lon="-2.306309">
        <ele>816.258703</ele>
        <time>2021-11-03T16:19:53.349Z</time>
      </trkpt>
      <trkpt lat="39.714264" lon="-2.306311">
        <ele>816.811541</ele>
        <time>2021-11-03T16:19:53.349Z</time>
      </trkpt>
      <trkpt lat="39.714055" lon="-2.306288">
        <ele>817.948240</ele>
        <time>2021-11-03T16:19:53.349Z</time>
      </trkpt>
      <trkpt lat="39.713998" lon="-2.306290">
        <ele>818.257256</ele>
        <time>2021-11-03T16:19:53.349Z</time>
      </trkpt>
      <trkpt lat="39.713830" lon="-2.306306">
        <ele>819.170149</ele>
        <time>2021-11-03T16:19:53.349Z</time>
      </trkpt>
      <trkpt lat="39.713775" lon="-2.306302">
        <ele>819.468681</ele>
        <time>2021-11-03T16:19:53.349Z</time>
      </trkpt>
      <trkpt lat="39.713725" lon="-2.306289">
        <ele>819.745015</ele>
        <time>2021-11-03T16:19:53.349Z</time>
      </trkpt>
      <trkpt lat="39.713630" lon="-2.306241">
        <ele>820.297375</ele>
        <time>2021-11-03T16:19:53.349Z</time>
      </trkpt>
      <trkpt lat="39.713585" lon="-2.306213">
        <ele>820.567743</ele>
        <time>2021-11-03T16:19:53.349Z</time>
      </trkpt>
      <trkpt lat="39.713540" lon="-2.306183">
        <ele>820.841813</ele>
        <time>2021-11-03T16:19:53.349Z</time>
      </trkpt>
      <trkpt lat="39.713447" lon="-2.306134">
        <ele>821.385637</ele>
        <time>2021-11-03T16:19:53.349Z</time>
      </trkpt>
      <trkpt lat="39.713196" lon="-2.306018">
        <ele>821.914330</ele>
        <time>2021-11-03T16:19:53.349Z</time>
      </trkpt>
      <trkpt lat="39.713032" lon="-2.305931">
        <ele>821.736736</ele>
        <time>2021-11-03T16:19:53.349Z</time>
      </trkpt>
      <trkpt lat="39.712977" lon="-2.305896">
        <ele>821.675339</ele>
        <time>2021-11-03T16:19:53.349Z</time>
      </trkpt>
      <trkpt lat="39.712862" lon="-2.305806">
        <ele>821.540755</ele>
        <time>2021-11-03T16:19:53.349Z</time>
      </trkpt>
      <trkpt lat="39.712741" lon="-2.305703">
        <ele>821.395741</ele>
        <time>2021-11-03T16:19:53.349Z</time>
      </trkpt>
      <trkpt lat="39.712675" lon="-2.305655">
        <ele>821.319916</ele>
        <time>2021-11-03T16:19:53.349Z</time>
      </trkpt>
      <trkpt lat="39.712606" lon="-2.305619">
        <ele>821.245371</ele>
        <time>2021-11-03T16:19:53.349Z</time>
      </trkpt>
      <trkpt lat="39.712534" lon="-2.305591">
        <ele>821.170021</ele>
        <time>2021-11-03T16:19:53.349Z</time>
      </trkpt>
      <trkpt lat="39.712460" lon="-2.305573">
        <ele>821.094540</ele>
        <time>2021-11-03T16:19:53.349Z</time>
      </trkpt>
      <trkpt lat="39.712164" lon="-2.305557">
        <ele>820.797507</ele>
        <time>2021-11-03T16:19:53.349Z</time>
      </trkpt>
      <trkpt lat="39.712092" lon="-2.305560">
        <ele>820.725281</ele>
        <time>2021-11-03T16:19:53.349Z</time>
      </trkpt>
      <trkpt lat="39.711885" lon="-2.305531">
        <ele>820.516536</ele>
        <time>2021-11-03T16:19:53.349Z</time>
      </trkpt>
      <trkpt lat="39.711823" lon="-2.305506">
        <ele>820.451452</ele>
        <time>2021-11-03T16:19:53.349Z</time>
      </trkpt>
      <trkpt lat="39.711765" lon="-2.305474">
        <ele>820.388279</ele>
        <time>2021-11-03T16:19:53.349Z</time>
      </trkpt>
      <trkpt lat="39.711510" lon="-2.305259">
        <ele>820.270144</ele>
        <time>2021-11-03T16:19:53.349Z</time>
      </trkpt>
      <trkpt lat="39.711419" lon="-2.305139">
        <ele>820.282606</ele>
        <time>2021-11-03T16:19:53.349Z</time>
      </trkpt>
      <trkpt lat="39.711294" lon="-2.304942">
        <ele>820.301491</ele>
        <time>2021-11-03T16:19:53.349Z</time>
      </trkpt>
      <trkpt lat="39.711183" lon="-2.304876">
        <ele>820.313226</ele>
        <time>2021-11-03T16:19:53.349Z</time>
      </trkpt>
      <trkpt lat="39.711124" lon="-2.304879">
        <ele>820.318902</ele>
        <time>2021-11-03T16:19:53.349Z</time>
      </trkpt>
      <trkpt lat="39.711068" lon="-2.304901">
        <ele>820.324526</ele>
        <time>2021-11-03T16:19:53.349Z</time>
      </trkpt>
      <trkpt lat="39.710932" lon="-2.305011">
        <ele>820.339925</ele>
        <time>2021-11-03T16:19:53.349Z</time>
      </trkpt>
      <trkpt lat="39.710815" lon="-2.305111">
        <ele>820.353386</ele>
        <time>2021-11-03T16:19:53.349Z</time>
      </trkpt>
      <trkpt lat="39.710733" lon="-2.305181">
        <ele>820.362817</ele>
        <time>2021-11-03T16:19:53.349Z</time>
      </trkpt>
      <trkpt lat="39.710688" lon="-2.305224">
        <ele>820.368186</ele>
        <time>2021-11-03T16:19:53.349Z</time>
      </trkpt>
      <trkpt lat="39.710605" lon="-2.305291">
        <ele>820.377579</ele>
        <time>2021-11-03T16:19:53.349Z</time>
      </trkpt>
      <trkpt lat="39.710460" lon="-2.305422">
        <ele>820.394554</ele>
        <time>2021-11-03T16:19:53.349Z</time>
      </trkpt>
      <trkpt lat="39.710291" lon="-2.305588">
        <ele>820.414918</ele>
        <time>2021-11-03T16:19:53.349Z</time>
      </trkpt>
      <trkpt lat="39.710226" lon="-2.305646">
        <ele>820.422497</ele>
        <time>2021-11-03T16:19:53.349Z</time>
      </trkpt>
      <trkpt lat="39.710157" lon="-2.305709">
        <ele>820.419563</ele>
        <time>2021-11-03T16:19:53.349Z</time>
      </trkpt>
      <trkpt lat="39.710085" lon="-2.305772">
        <ele>820.404121</ele>
        <time>2021-11-03T16:19:53.349Z</time>
      </trkpt>
      <trkpt lat="39.710010" lon="-2.305829">
        <ele>820.388663</ele>
        <time>2021-11-03T16:19:53.349Z</time>
      </trkpt>
      <trkpt lat="39.709857" lon="-2.305948">
        <ele>820.356940</ele>
        <time>2021-11-03T16:19:53.349Z</time>
      </trkpt>
      <trkpt lat="39.709779" lon="-2.306011">
        <ele>820.340601</ele>
        <time>2021-11-03T16:19:53.349Z</time>
      </trkpt>
      <trkpt lat="39.709702" lon="-2.306073">
        <ele>820.324485</ele>
        <time>2021-11-03T16:19:53.349Z</time>
      </trkpt>
      <trkpt lat="39.709478" lon="-2.306269">
        <ele>820.276442</ele>
        <time>2021-11-03T16:19:53.349Z</time>
      </trkpt>
      <trkpt lat="39.709338" lon="-2.306411">
        <ele>820.244847</ele>
        <time>2021-11-03T16:19:53.349Z</time>
      </trkpt>
      <trkpt lat="39.709156" lon="-2.306580">
        <ele>820.205051</ele>
        <time>2021-11-03T16:19:53.349Z</time>
      </trkpt>
      <trkpt lat="39.709059" lon="-2.306670">
        <ele>820.183847</ele>
        <time>2021-11-03T16:19:53.349Z</time>
      </trkpt>
      <trkpt lat="39.709018" lon="-2.306712">
        <ele>820.174559</ele>
        <time>2021-11-03T16:19:53.349Z</time>
      </trkpt>
      <trkpt lat="39.708972" lon="-2.306763">
        <ele>820.163801</ele>
        <time>2021-11-03T16:19:53.349Z</time>
      </trkpt>
      <trkpt lat="39.708944" lon="-2.306823">
        <ele>820.154196</ele>
        <time>2021-11-03T16:19:53.349Z</time>
      </trkpt>
      <trkpt lat="39.708930" lon="-2.306891">
        <ele>820.144561</ele>
        <time>2021-11-03T16:19:53.349Z</time>
      </trkpt>
      <trkpt lat="39.708925" lon="-2.306962">
        <ele>820.134802</ele>
        <time>2021-11-03T16:19:53.349Z</time>
      </trkpt>
      <trkpt lat="39.708938" lon="-2.307036">
        <ele>820.124412</ele>
        <time>2021-11-03T16:19:53.349Z</time>
      </trkpt>
      <trkpt lat="39.708956" lon="-2.307114">
        <ele>820.113266</ele>
        <time>2021-11-03T16:19:53.349Z</time>
      </trkpt>
      <trkpt lat="39.708982" lon="-2.307185">
        <ele>820.048089</ele>
        <time>2021-11-03T16:19:53.349Z</time>
      </trkpt>
      <trkpt lat="39.709111" lon="-2.307547">
        <ele>819.286891</ele>
        <time>2021-11-03T16:19:53.349Z</time>
      </trkpt>
      <trkpt lat="39.709208" lon="-2.307856">
        <ele>818.650126</ele>
        <time>2021-11-03T16:19:53.349Z</time>
      </trkpt>
      <trkpt lat="39.709251" lon="-2.308022">
        <ele>818.315926</ele>
        <time>2021-11-03T16:19:53.349Z</time>
      </trkpt>
      <trkpt lat="39.709265" lon="-2.308110">
        <ele>818.144471</ele>
        <time>2021-11-03T16:19:53.349Z</time>
      </trkpt>
      <trkpt lat="39.709287" lon="-2.308288">
        <ele>817.800493</ele>
        <time>2021-11-03T16:19:53.349Z</time>
      </trkpt>
      <trkpt lat="39.709277" lon="-2.308385">
        <ele>817.613764</ele>
        <time>2021-11-03T16:19:53.349Z</time>
      </trkpt>
      <trkpt lat="39.709244" lon="-2.308477">
        <ele>817.420085</ele>
        <time>2021-11-03T16:19:53.349Z</time>
      </trkpt>
      <trkpt lat="39.709193" lon="-2.308559">
        <ele>817.218895</ele>
        <time>2021-11-03T16:19:53.349Z</time>
      </trkpt>
      <trkpt lat="39.709133" lon="-2.308634">
        <ele>817.012444</ele>
        <time>2021-11-03T16:19:53.349Z</time>
      </trkpt>
      <trkpt lat="39.708990" lon="-2.308774">
        <ele>816.568439</ele>
        <time>2021-11-03T16:19:53.349Z</time>
      </trkpt>
      <trkpt lat="39.708912" lon="-2.308841">
        <ele>816.336563</ele>
        <time>2021-11-03T16:19:53.349Z</time>
      </trkpt>
      <trkpt lat="39.708832" lon="-2.308908">
        <ele>816.100533</ele>
        <time>2021-11-03T16:19:53.349Z</time>
      </trkpt>
      <trkpt lat="39.708755" lon="-2.308976">
        <ele>815.869656</ele>
        <time>2021-11-03T16:19:53.349Z</time>
      </trkpt>
      <trkpt lat="39.708603" lon="-2.309118">
        <ele>815.558990</ele>
        <time>2021-11-03T16:19:53.349Z</time>
      </trkpt>
      <trkpt lat="39.708392" lon="-2.309326">
        <ele>815.321888</ele>
        <time>2021-11-03T16:19:53.349Z</time>
      </trkpt>
      <trkpt lat="39.708013" lon="-2.309697">
        <ele>814.897089</ele>
        <time>2021-11-03T16:19:53.349Z</time>
      </trkpt>
      <trkpt lat="39.707955" lon="-2.309756">
        <ele>814.831147</ele>
        <time>2021-11-03T16:19:53.349Z</time>
      </trkpt>
      <trkpt lat="39.707790" lon="-2.309927">
        <ele>814.642206</ele>
        <time>2021-11-03T16:19:53.349Z</time>
      </trkpt>
      <trkpt lat="39.707642" lon="-2.310089">
        <ele>814.468968</ele>
        <time>2021-11-03T16:19:53.349Z</time>
      </trkpt>
      <trkpt lat="39.707408" lon="-2.310320">
        <ele>814.205884</ele>
        <time>2021-11-03T16:19:53.349Z</time>
      </trkpt>
      <trkpt lat="39.707313" lon="-2.310411">
        <ele>814.100224</ele>
        <time>2021-11-03T16:19:53.349Z</time>
      </trkpt>
      <trkpt lat="39.707036" lon="-2.310644">
        <ele>812.879861</ele>
        <time>2021-11-03T16:19:53.349Z</time>
      </trkpt>
      <trkpt lat="39.706973" lon="-2.310698">
        <ele>812.541186</ele>
        <time>2021-11-03T16:19:53.349Z</time>
      </trkpt>
      <trkpt lat="39.706836" lon="-2.310809">
        <ele>811.816684</ele>
        <time>2021-11-03T16:19:53.349Z</time>
      </trkpt>
      <trkpt lat="39.706680" lon="-2.310915">
        <ele>811.026687</ele>
        <time>2021-11-03T16:19:53.349Z</time>
      </trkpt>
      <trkpt lat="39.706599" lon="-2.310974">
        <ele>810.609983</ele>
        <time>2021-11-03T16:19:53.349Z</time>
      </trkpt>
      <trkpt lat="39.706519" lon="-2.311037">
        <ele>810.190201</ele>
        <time>2021-11-03T16:19:53.349Z</time>
      </trkpt>
      <trkpt lat="39.706357" lon="-2.311162">
        <ele>809.344715</ele>
        <time>2021-11-03T16:19:53.349Z</time>
      </trkpt>
      <trkpt lat="39.706050" lon="-2.311380">
        <ele>807.774744</ele>
        <time>2021-11-03T16:19:53.349Z</time>
      </trkpt>
      <trkpt lat="39.705639" lon="-2.311692">
        <ele>806.062976</ele>
        <time>2021-11-03T16:19:53.349Z</time>
      </trkpt>
      <trkpt lat="39.705575" lon="-2.311738">
        <ele>806.163854</ele>
        <time>2021-11-03T16:19:53.349Z</time>
      </trkpt>
      <trkpt lat="39.705287" lon="-2.311958">
        <ele>806.624643</ele>
        <time>2021-11-03T16:19:53.349Z</time>
      </trkpt>
      <trkpt lat="39.705182" lon="-2.312047">
        <ele>806.797553</ele>
        <time>2021-11-03T16:19:53.349Z</time>
      </trkpt>
      <trkpt lat="39.704989" lon="-2.312227">
        <ele>807.125216</ele>
        <time>2021-11-03T16:19:53.349Z</time>
      </trkpt>
      <trkpt lat="39.704850" lon="-2.312365">
        <ele>807.366483</ele>
        <time>2021-11-03T16:19:53.349Z</time>
      </trkpt>
      <trkpt lat="39.704725" lon="-2.312519">
        <ele>807.604052</ele>
        <time>2021-11-03T16:19:53.349Z</time>
      </trkpt>
      <trkpt lat="39.704649" lon="-2.312644">
        <ele>807.773129</ele>
        <time>2021-11-03T16:19:53.349Z</time>
      </trkpt>
      <trkpt lat="39.704614" lon="-2.312712">
        <ele>807.859953</ele>
        <time>2021-11-03T16:19:53.349Z</time>
      </trkpt>
      <trkpt lat="39.704472" lon="-2.313098">
        <ele>808.314010</ele>
        <time>2021-11-03T16:19:53.349Z</time>
      </trkpt>
      <trkpt lat="39.704451" lon="-2.313185">
        <ele>808.410774</ele>
        <time>2021-11-03T16:19:53.349Z</time>
      </trkpt>
      <trkpt lat="39.704433" lon="-2.313275">
        <ele>808.456101</ele>
        <time>2021-11-03T16:19:53.349Z</time>
      </trkpt>
      <trkpt lat="39.704414" lon="-2.313439">
        <ele>808.488074</ele>
        <time>2021-11-03T16:19:53.349Z</time>
      </trkpt>
      <trkpt lat="39.704419" lon="-2.313569">
        <ele>808.513166</ele>
        <time>2021-11-03T16:19:53.349Z</time>
      </trkpt>
      <trkpt lat="39.704434" lon="-2.313699">
        <ele>808.538508</ele>
        <time>2021-11-03T16:19:53.349Z</time>
      </trkpt>
      <trkpt lat="39.704445" lon="-2.313764">
        <ele>808.551338</ele>
        <time>2021-11-03T16:19:53.349Z</time>
      </trkpt>
      <trkpt lat="39.704515" lon="-2.314085">
        <ele>808.615657</ele>
        <time>2021-11-03T16:19:53.349Z</time>
      </trkpt>
      <trkpt lat="39.704588" lon="-2.314314">
        <ele>808.663443</ele>
        <time>2021-11-03T16:19:53.349Z</time>
      </trkpt>
      <trkpt lat="39.704622" lon="-2.314407">
        <ele>808.683293</ele>
        <time>2021-11-03T16:19:53.349Z</time>
      </trkpt>
      <trkpt lat="39.704662" lon="-2.314580">
        <ele>808.718117</ele>
        <time>2021-11-03T16:19:53.349Z</time>
      </trkpt>
      <trkpt lat="39.704681" lon="-2.314700">
        <ele>808.741735</ele>
        <time>2021-11-03T16:19:53.349Z</time>
      </trkpt>
      <trkpt lat="39.704690" lon="-2.314814">
        <ele>808.763827</ele>
        <time>2021-11-03T16:19:53.349Z</time>
      </trkpt>
      <trkpt lat="39.704687" lon="-2.314818">
        <ele>808.764904</ele>
        <time>2021-11-03T16:19:53.349Z</time>
      </trkpt>
      <trkpt lat="39.704688" lon="-2.314815">
        <ele>808.765534</ele>
        <time>2021-11-03T16:19:53.349Z</time>
      </trkpt>
      <trkpt lat="39.704695" lon="-2.314901">
        <ele>808.782206</ele>
        <time>2021-11-03T16:19:53.349Z</time>
      </trkpt>
      <trkpt lat="39.704704" lon="-2.314927">
        <ele>808.787702</ele>
        <time>2021-11-03T16:19:53.349Z</time>
      </trkpt>
      <trkpt lat="39.704713" lon="-2.314957">
        <ele>808.793909</ele>
        <time>2021-11-03T16:19:53.349Z</time>
      </trkpt>
      <trkpt lat="39.704769" lon="-2.315167">
        <ele>808.836756</ele>
        <time>2021-11-03T16:19:53.349Z</time>
      </trkpt>
      <trkpt lat="39.704878" lon="-2.315443">
        <ele>808.896636</ele>
        <time>2021-11-03T16:19:53.349Z</time>
      </trkpt>
      <trkpt lat="39.704903" lon="-2.315506">
        <ele>808.910923</ele>
        <time>2021-11-03T16:19:53.349Z</time>
      </trkpt>
      <trkpt lat="39.705018" lon="-2.315788">
        <ele>808.975247</ele>
        <time>2021-11-03T16:19:53.349Z</time>
      </trkpt>
      <trkpt lat="39.705047" lon="-2.315865">
        <ele>808.992526</ele>
        <time>2021-11-03T16:19:53.349Z</time>
      </trkpt>
      <trkpt lat="39.705076" lon="-2.315943">
        <ele>809.009985</ele>
        <time>2021-11-03T16:19:53.349Z</time>
      </trkpt>
      <trkpt lat="39.705103" lon="-2.316024">
        <ele>809.027776</ele>
        <time>2021-11-03T16:19:53.349Z</time>
      </trkpt>
      <trkpt lat="39.705153" lon="-2.316188">
        <ele>809.063329</ele>
        <time>2021-11-03T16:19:53.349Z</time>
      </trkpt>
      <trkpt lat="39.705222" lon="-2.316535">
        <ele>809.135562</ele>
        <time>2021-11-03T16:19:53.349Z</time>
      </trkpt>
      <trkpt lat="39.705260" lon="-2.316799">
        <ele>809.189691</ele>
        <time>2021-11-03T16:19:53.349Z</time>
      </trkpt>
      <trkpt lat="39.705297" lon="-2.316976">
        <ele>809.226657</ele>
        <time>2021-11-03T16:19:53.349Z</time>
      </trkpt>
      <trkpt lat="39.705350" lon="-2.317147">
        <ele>809.263811</ele>
        <time>2021-11-03T16:19:53.349Z</time>
      </trkpt>
      <trkpt lat="39.705378" lon="-2.317228">
        <ele>809.281708</ele>
        <time>2021-11-03T16:19:53.349Z</time>
      </trkpt>
      <trkpt lat="39.705449" lon="-2.317565">
        <ele>809.352127</ele>
        <time>2021-11-03T16:19:53.349Z</time>
      </trkpt>
      <trkpt lat="39.705475" lon="-2.317745">
        <ele>809.473093</ele>
        <time>2021-11-03T16:19:53.349Z</time>
      </trkpt>
      <trkpt lat="39.705489" lon="-2.318009">
        <ele>809.722082</ele>
        <time>2021-11-03T16:19:53.349Z</time>
      </trkpt>
      <trkpt lat="39.705512" lon="-2.318523">
        <ele>810.206526</ele>
        <time>2021-11-03T16:19:53.349Z</time>
      </trkpt>
      <trkpt lat="39.705516" lon="-2.318695">
        <ele>810.368436</ele>
        <time>2021-11-03T16:19:53.349Z</time>
      </trkpt>
      <trkpt lat="39.705535" lon="-2.319211">
        <ele>810.854500</ele>
        <time>2021-11-03T16:19:53.349Z</time>
      </trkpt>
      <trkpt lat="39.705549" lon="-2.319294">
        <ele>810.934451</ele>
        <time>2021-11-03T16:19:53.349Z</time>
      </trkpt>
      <trkpt lat="39.705569" lon="-2.319457">
        <ele>811.089757</ele>
        <time>2021-11-03T16:19:53.349Z</time>
      </trkpt>
      <trkpt lat="39.705559" lon="-2.319707">
        <ele>811.325301</ele>
        <time>2021-11-03T16:19:53.349Z</time>
      </trkpt>
      <trkpt lat="39.705547" lon="-2.319966">
        <ele>811.565522</ele>
        <time>2021-11-03T16:19:53.349Z</time>
      </trkpt>
      <trkpt lat="39.705546" lon="-2.320317">
        <ele>811.531863</ele>
        <time>2021-11-03T16:19:53.349Z</time>
      </trkpt>
      <trkpt lat="39.705531" lon="-2.320839">
        <ele>811.481770</ele>
        <time>2021-11-03T16:19:53.349Z</time>
      </trkpt>
      <trkpt lat="39.705515" lon="-2.321014">
        <ele>811.464871</ele>
        <time>2021-11-03T16:19:53.349Z</time>
      </trkpt>
      <trkpt lat="39.705467" lon="-2.321532">
        <ele>811.414838</ele>
        <time>2021-11-03T16:19:53.349Z</time>
      </trkpt>
      <trkpt lat="39.705457" lon="-2.321702">
        <ele>811.398488</ele>
        <time>2021-11-03T16:19:53.349Z</time>
      </trkpt>
      <trkpt lat="39.705426" lon="-2.321950">
        <ele>811.374394</ele>
        <time>2021-11-03T16:19:53.349Z</time>
      </trkpt>
      <trkpt lat="39.705392" lon="-2.322106">
        <ele>811.358845</ele>
        <time>2021-11-03T16:19:53.349Z</time>
      </trkpt>
      <trkpt lat="39.705356" lon="-2.322249">
        <ele>811.344417</ele>
        <time>2021-11-03T16:19:53.349Z</time>
      </trkpt>
      <trkpt lat="39.705271" lon="-2.322459">
        <ele>811.479766</ele>
        <time>2021-11-03T16:19:53.349Z</time>
      </trkpt>
      <trkpt lat="39.705208" lon="-2.322595">
        <ele>811.584722</ele>
        <time>2021-11-03T16:19:53.349Z</time>
      </trkpt>
      <trkpt lat="39.705092" lon="-2.322879">
        <ele>811.797306</ele>
        <time>2021-11-03T16:19:53.349Z</time>
      </trkpt>
      <trkpt lat="39.704925" lon="-2.323297">
        <ele>812.108703</ele>
        <time>2021-11-03T16:19:53.349Z</time>
      </trkpt>
      <trkpt lat="39.704902" lon="-2.323368">
        <ele>812.159635</ele>
        <time>2021-11-03T16:19:53.349Z</time>
      </trkpt>
      <trkpt lat="39.704881" lon="-2.323439">
        <ele>812.209925</ele>
        <time>2021-11-03T16:19:53.349Z</time>
      </trkpt>
      <trkpt lat="39.704832" lon="-2.323580">
        <ele>812.312215</ele>
        <time>2021-11-03T16:19:53.349Z</time>
      </trkpt>
      <trkpt lat="39.704732" lon="-2.323956">
        <ele>812.575238</ele>
        <time>2021-11-03T16:19:53.349Z</time>
      </trkpt>
      <trkpt lat="39.704678" lon="-2.324187">
        <ele>812.734856</ele>
        <time>2021-11-03T16:19:53.349Z</time>
      </trkpt>
      <trkpt lat="39.704581" lon="-2.324650">
        <ele>813.078912</ele>
        <time>2021-11-03T16:19:53.349Z</time>
      </trkpt>
      <trkpt lat="39.704478" lon="-2.325131">
        <ele>813.462708</ele>
        <time>2021-11-03T16:19:53.349Z</time>
      </trkpt>
      <trkpt lat="39.704437" lon="-2.325288">
        <ele>813.590156</ele>
        <time>2021-11-03T16:19:53.349Z</time>
      </trkpt>
      <trkpt lat="39.704332" lon="-2.325757">
        <ele>813.965628</ele>
        <time>2021-11-03T16:19:53.349Z</time>
      </trkpt>
      <trkpt lat="39.704316" lon="-2.325833">
        <ele>814.026196</ele>
        <time>2021-11-03T16:19:53.349Z</time>
      </trkpt>
      <trkpt lat="39.704281" lon="-2.325985">
        <ele>814.148159</ele>
        <time>2021-11-03T16:19:53.349Z</time>
      </trkpt>
      <trkpt lat="39.704175" lon="-2.326439">
        <ele>814.512864</ele>
        <time>2021-11-03T16:19:53.349Z</time>
      </trkpt>
      <trkpt lat="39.704101" lon="-2.326750">
        <ele>814.787766</ele>
        <time>2021-11-03T16:19:53.349Z</time>
      </trkpt>
      <trkpt lat="39.703983" lon="-2.327203">
        <ele>815.270724</ele>
        <time>2021-11-03T16:19:53.349Z</time>
      </trkpt>
      <trkpt lat="39.703944" lon="-2.327358">
        <ele>815.435405</ele>
        <time>2021-11-03T16:19:53.349Z</time>
      </trkpt>
      <trkpt lat="39.703811" lon="-2.327813">
        <ele>815.926920</ele>
        <time>2021-11-03T16:19:53.349Z</time>
      </trkpt>
      <trkpt lat="39.703789" lon="-2.327885">
        <ele>816.005151</ele>
        <time>2021-11-03T16:19:53.349Z</time>
      </trkpt>
      <trkpt lat="39.703738" lon="-2.328031">
        <ele>816.167071</ele>
        <time>2021-11-03T16:19:53.349Z</time>
      </trkpt>
      <trkpt lat="39.703656" lon="-2.328252">
        <ele>816.414841</ele>
        <time>2021-11-03T16:19:53.349Z</time>
      </trkpt>
      <trkpt lat="39.703555" lon="-2.328541">
        <ele>816.735379</ele>
        <time>2021-11-03T16:19:53.349Z</time>
      </trkpt>
      <trkpt lat="39.703414" lon="-2.328955">
        <ele>817.213402</ele>
        <time>2021-11-03T16:19:53.349Z</time>
      </trkpt>
      <trkpt lat="39.703366" lon="-2.329089">
        <ele>817.383767</ele>
        <time>2021-11-03T16:19:53.349Z</time>
      </trkpt>
      <trkpt lat="39.703340" lon="-2.329148">
        <ele>817.462134</ele>
        <time>2021-11-03T16:19:53.349Z</time>
      </trkpt>
      <trkpt lat="39.703260" lon="-2.329213">
        <ele>817.603472</ele>
        <time>2021-11-03T16:19:53.349Z</time>
      </trkpt>
      <trkpt lat="39.703200" lon="-2.329166">
        <ele>817.708419</ele>
        <time>2021-11-03T16:19:53.349Z</time>
      </trkpt>
      <trkpt lat="39.703192" lon="-2.329106">
        <ele>817.778605</ele>
        <time>2021-11-03T16:19:53.349Z</time>
      </trkpt>
      <trkpt lat="39.703189" lon="-2.329040">
        <ele>817.854808</ele>
        <time>2021-11-03T16:19:53.349Z</time>
      </trkpt>
      <trkpt lat="39.703189" lon="-2.328969">
        <ele>817.936642</ele>
        <time>2021-11-03T16:19:53.349Z</time>
      </trkpt>
      <trkpt lat="39.703186" lon="-2.328895">
        <ele>818.022051</ele>
        <time>2021-11-03T16:19:53.349Z</time>
      </trkpt>
      <trkpt lat="39.703172" lon="-2.328671">
        <ele>818.281080</ele>
        <time>2021-11-03T16:19:53.349Z</time>
      </trkpt>
      <trkpt lat="39.703153" lon="-2.328522">
        <ele>818.455158</ele>
        <time>2021-11-03T16:19:53.349Z</time>
      </trkpt>
      <trkpt lat="39.703138" lon="-2.328378">
        <ele>818.622644</ele>
        <time>2021-11-03T16:19:53.349Z</time>
      </trkpt>
      <trkpt lat="39.703095" lon="-2.328095">
        <ele>818.955126</ele>
        <time>2021-11-03T16:19:53.349Z</time>
      </trkpt>
      <trkpt lat="39.703050" lon="-2.327789">
        <ele>819.314202</ele>
        <time>2021-11-03T16:19:53.349Z</time>
      </trkpt>
      <trkpt lat="39.703007" lon="-2.327478">
        <ele>819.678399</ele>
        <time>2021-11-03T16:19:53.349Z</time>
      </trkpt>
      <trkpt lat="39.702995" lon="-2.327403">
        <ele>819.767661</ele>
        <time>2021-11-03T16:19:53.349Z</time>
      </trkpt>
      <trkpt lat="39.702960" lon="-2.327175">
        <ele>820.045295</ele>
        <time>2021-11-03T16:19:53.349Z</time>
      </trkpt>
      <trkpt lat="39.702878" lon="-2.326732">
        <ele>820.589401</ele>
        <time>2021-11-03T16:19:53.349Z</time>
      </trkpt>
      <trkpt lat="39.702848" lon="-2.326583">
        <ele>820.773322</ele>
        <time>2021-11-03T16:19:53.349Z</time>
      </trkpt>
      <trkpt lat="39.702836" lon="-2.326506">
        <ele>820.867140</ele>
        <time>2021-11-03T16:19:53.349Z</time>
      </trkpt>
      <trkpt lat="39.702766" lon="-2.326056">
        <ele>821.415384</ele>
        <time>2021-11-03T16:19:53.349Z</time>
      </trkpt>
      <trkpt lat="39.702740" lon="-2.325908">
        <ele>821.596668</ele>
        <time>2021-11-03T16:19:53.349Z</time>
      </trkpt>
      <trkpt lat="39.702682" lon="-2.325604">
        <ele>821.970688</ele>
        <time>2021-11-03T16:19:53.349Z</time>
      </trkpt>
      <trkpt lat="39.702651" lon="-2.325453">
        <ele>822.157316</ele>
        <time>2021-11-03T16:19:53.349Z</time>
      </trkpt>
      <trkpt lat="39.702598" lon="-2.325233">
        <ele>822.432609</ele>
        <time>2021-11-03T16:19:53.349Z</time>
      </trkpt>
      <trkpt lat="39.702557" lon="-2.325093">
        <ele>822.642912</ele>
        <time>2021-11-03T16:19:53.349Z</time>
      </trkpt>
      <trkpt lat="39.702476" lon="-2.324902">
        <ele>823.005713</ele>
        <time>2021-11-03T16:19:53.349Z</time>
      </trkpt>
      <trkpt lat="39.702277" lon="-2.324681">
        <ele>823.571654</ele>
        <time>2021-11-03T16:19:53.349Z</time>
      </trkpt>
      <trkpt lat="39.702057" lon="-2.324457">
        <ele>824.175905</ele>
        <time>2021-11-03T16:19:53.349Z</time>
      </trkpt>
      <trkpt lat="39.701881" lon="-2.324260">
        <ele>824.678107</ele>
        <time>2021-11-03T16:19:53.349Z</time>
      </trkpt>
      <trkpt lat="39.701747" lon="-2.324123">
        <ele>825.046730</ele>
        <time>2021-11-03T16:19:53.349Z</time>
      </trkpt>
      <trkpt lat="39.701658" lon="-2.324026">
        <ele>825.297864</ele>
        <time>2021-11-03T16:19:53.349Z</time>
      </trkpt>
      <trkpt lat="39.701487" lon="-2.323805">
        <ele>825.819265</ele>
        <time>2021-11-03T16:19:53.349Z</time>
      </trkpt>
      <trkpt lat="39.701448" lon="-2.323747">
        <ele>825.947406</ele>
        <time>2021-11-03T16:19:53.349Z</time>
      </trkpt>
      <trkpt lat="39.701238" lon="-2.323394">
        <ele>826.677981</ele>
        <time>2021-11-03T16:19:53.349Z</time>
      </trkpt>
      <trkpt lat="39.701205" lon="-2.323334">
        <ele>826.795332</ele>
        <time>2021-11-03T16:19:53.349Z</time>
      </trkpt>
      <trkpt lat="39.701171" lon="-2.323274">
        <ele>826.913898</ele>
        <time>2021-11-03T16:19:53.349Z</time>
      </trkpt>
      <trkpt lat="39.701067" lon="-2.323095">
        <ele>827.270793</ele>
        <time>2021-11-03T16:19:53.349Z</time>
      </trkpt>
      <trkpt lat="39.700868" lon="-2.322746">
        <ele>827.961967</ele>
        <time>2021-11-03T16:19:53.349Z</time>
      </trkpt>
      <trkpt lat="39.700703" lon="-2.322454">
        <ele>828.538418</ele>
        <time>2021-11-03T16:19:53.349Z</time>
      </trkpt>
      <trkpt lat="39.700571" lon="-2.322215">
        <ele>829.006531</ele>
        <time>2021-11-03T16:19:53.349Z</time>
      </trkpt>
      <trkpt lat="39.700477" lon="-2.322040">
        <ele>829.346123</ele>
        <time>2021-11-03T16:19:53.349Z</time>
      </trkpt>
      <trkpt lat="39.700349" lon="-2.321804">
        <ele>829.805553</ele>
        <time>2021-11-03T16:19:53.349Z</time>
      </trkpt>
      <trkpt lat="39.700249" lon="-2.321634">
        <ele>830.144375</ele>
        <time>2021-11-03T16:19:53.349Z</time>
      </trkpt>
      <trkpt lat="39.700173" lon="-2.321526">
        <ele>830.311161</ele>
        <time>2021-11-03T16:19:53.349Z</time>
      </trkpt>
      <trkpt lat="39.699956" lon="-2.321270">
        <ele>830.745216</ele>
        <time>2021-11-03T16:19:53.349Z</time>
      </trkpt>
      <trkpt lat="39.699763" lon="-2.321089">
        <ele>831.097716</ele>
        <time>2021-11-03T16:19:53.349Z</time>
      </trkpt>
      <trkpt lat="39.699570" lon="-2.320918">
        <ele>831.443671</ele>
        <time>2021-11-03T16:19:53.349Z</time>
      </trkpt>
      <trkpt lat="39.699474" lon="-2.320838">
        <ele>831.612574</ele>
        <time>2021-11-03T16:19:53.349Z</time>
      </trkpt>
      <trkpt lat="39.699190" lon="-2.320597">
        <ele>832.114928</ele>
        <time>2021-11-03T16:19:53.349Z</time>
      </trkpt>
      <trkpt lat="39.699144" lon="-2.320558">
        <ele>832.196273</ele>
        <time>2021-11-03T16:19:53.349Z</time>
      </trkpt>
      <trkpt lat="39.699051" lon="-2.320477">
        <ele>832.362085</ele>
        <time>2021-11-03T16:19:53.349Z</time>
      </trkpt>
      <trkpt lat="39.698754" lon="-2.320231">
        <ele>832.804254</ele>
        <time>2021-11-03T16:19:53.349Z</time>
      </trkpt>
      <trkpt lat="39.698657" lon="-2.320145">
        <ele>832.804481</ele>
        <time>2021-11-03T16:19:53.349Z</time>
      </trkpt>
      <trkpt lat="39.698466" lon="-2.319993">
        <ele>832.804914</ele>
        <time>2021-11-03T16:19:53.349Z</time>
      </trkpt>
      <trkpt lat="39.698375" lon="-2.319889">
        <ele>832.805148</ele>
        <time>2021-11-03T16:19:53.349Z</time>
      </trkpt>
      <trkpt lat="39.698182" lon="-2.319724">
        <ele>832.805595</ele>
        <time>2021-11-03T16:19:53.349Z</time>
      </trkpt>
      <trkpt lat="39.698033" lon="-2.319599">
        <ele>832.805938</ele>
        <time>2021-11-03T16:19:53.349Z</time>
      </trkpt>
      <trkpt lat="39.697785" lon="-2.319371">
        <ele>832.806526</ele>
        <time>2021-11-03T16:19:53.349Z</time>
      </trkpt>
      <trkpt lat="39.697680" lon="-2.319281">
        <ele>832.806769</ele>
        <time>2021-11-03T16:19:53.349Z</time>
      </trkpt>
      <trkpt lat="39.697630" lon="-2.319243">
        <ele>832.806881</ele>
        <time>2021-11-03T16:19:53.349Z</time>
      </trkpt>
      <trkpt lat="39.697491" lon="-2.319106">
        <ele>832.807218</ele>
        <time>2021-11-03T16:19:53.349Z</time>
      </trkpt>
      <trkpt lat="39.697420" lon="-2.318989">
        <ele>832.807440</ele>
        <time>2021-11-03T16:19:53.349Z</time>
      </trkpt>
      <trkpt lat="39.697329" lon="-2.318810">
        <ele>832.750273</ele>
        <time>2021-11-03T16:19:53.349Z</time>
      </trkpt>
      <trkpt lat="39.697247" lon="-2.318704">
        <ele>832.652203</ele>
        <time>2021-11-03T16:19:53.349Z</time>
      </trkpt>
      <trkpt lat="39.697001" lon="-2.318392">
        <ele>832.360741</ele>
        <time>2021-11-03T16:19:53.349Z</time>
      </trkpt>
      <trkpt lat="39.696956" lon="-2.318337">
        <ele>832.308361</ele>
        <time>2021-11-03T16:19:53.349Z</time>
      </trkpt>
      <trkpt lat="39.696868" lon="-2.318227">
        <ele>832.204828</ele>
        <time>2021-11-03T16:19:53.349Z</time>
      </trkpt>
      <trkpt lat="39.696635" lon="-2.317933">
        <ele>831.929456</ele>
        <time>2021-11-03T16:19:53.349Z</time>
      </trkpt>
      <trkpt lat="39.696384" lon="-2.317628">
        <ele>831.638081</ele>
        <time>2021-11-03T16:19:53.349Z</time>
      </trkpt>
      <trkpt lat="39.696227" lon="-2.317433">
        <ele>831.453934</ele>
        <time>2021-11-03T16:19:53.349Z</time>
      </trkpt>
      <trkpt lat="39.696176" lon="-2.317367">
        <ele>831.392905</ele>
        <time>2021-11-03T16:19:53.349Z</time>
      </trkpt>
      <trkpt lat="39.695961" lon="-2.317089">
        <ele>831.022391</ele>
        <time>2021-11-03T16:19:53.349Z</time>
      </trkpt>
      <trkpt lat="39.695856" lon="-2.316949">
        <ele>830.796296</ele>
        <time>2021-11-03T16:19:53.349Z</time>
      </trkpt>
      <trkpt lat="39.695802" lon="-2.316878">
        <ele>830.680845</ele>
        <time>2021-11-03T16:19:53.349Z</time>
      </trkpt>
      <trkpt lat="39.695748" lon="-2.316808">
        <ele>830.566212</ele>
        <time>2021-11-03T16:19:53.349Z</time>
      </trkpt>
      <trkpt lat="39.695634" lon="-2.316662">
        <ele>830.325658</ele>
        <time>2021-11-03T16:19:53.349Z</time>
      </trkpt>
      <trkpt lat="39.695467" lon="-2.316439">
        <ele>829.965783</ele>
        <time>2021-11-03T16:19:53.349Z</time>
      </trkpt>
      <trkpt lat="39.695299" lon="-2.316219">
        <ele>829.607328</ele>
        <time>2021-11-03T16:19:53.349Z</time>
      </trkpt>
      <trkpt lat="39.694985" lon="-2.315813">
        <ele>828.941606</ele>
        <time>2021-11-03T16:19:53.349Z</time>
      </trkpt>
      <trkpt lat="39.694887" lon="-2.315697">
        <ele>828.742377</ele>
        <time>2021-11-03T16:19:53.349Z</time>
      </trkpt>
      <trkpt lat="39.694751" lon="-2.315531">
        <ele>828.634551</ele>
        <time>2021-11-03T16:19:53.349Z</time>
      </trkpt>
      <trkpt lat="39.694669" lon="-2.315429">
        <ele>828.715270</ele>
        <time>2021-11-03T16:19:53.349Z</time>
      </trkpt>
      <trkpt lat="39.694628" lon="-2.315378">
        <ele>828.755629</ele>
        <time>2021-11-03T16:19:53.349Z</time>
      </trkpt>
      <trkpt lat="39.694591" lon="-2.315321">
        <ele>828.796435</ele>
        <time>2021-11-03T16:19:53.349Z</time>
      </trkpt>
      <trkpt lat="39.694525" lon="-2.315207">
        <ele>828.874499</ele>
        <time>2021-11-03T16:19:53.349Z</time>
      </trkpt>
      <trkpt lat="39.694496" lon="-2.315148">
        <ele>828.912808</ele>
        <time>2021-11-03T16:19:53.349Z</time>
      </trkpt>
      <trkpt lat="39.694406" lon="-2.314960">
        <ele>829.033964</ele>
        <time>2021-11-03T16:19:53.349Z</time>
      </trkpt>
      <trkpt lat="39.694370" lon="-2.314902">
        <ele>829.074740</ele>
        <time>2021-11-03T16:19:53.349Z</time>
      </trkpt>
      <trkpt lat="39.694271" lon="-2.314818">
        <ele>829.158818</ele>
        <time>2021-11-03T16:19:53.349Z</time>
      </trkpt>
      <trkpt lat="39.694155" lon="-2.314818">
        <ele>829.241310</ele>
        <time>2021-11-03T16:19:53.349Z</time>
      </trkpt>
      <trkpt lat="39.694098" lon="-2.314842">
        <ele>829.283919</ele>
        <time>2021-11-03T16:19:53.349Z</time>
      </trkpt>
      <trkpt lat="39.694043" lon="-2.314876">
        <ele>829.327230</ele>
        <time>2021-11-03T16:19:53.349Z</time>
      </trkpt>
      <trkpt lat="39.693989" lon="-2.314916">
        <ele>829.371431</ele>
        <time>2021-11-03T16:19:53.349Z</time>
      </trkpt>
      <trkpt lat="39.693883" lon="-2.314987">
        <ele>829.456234</ele>
        <time>2021-11-03T16:19:53.349Z</time>
      </trkpt>
      <trkpt lat="39.693827" lon="-2.315012">
        <ele>829.498342</ele>
        <time>2021-11-03T16:19:53.349Z</time>
      </trkpt>
      <trkpt lat="39.693486" lon="-2.315116">
        <ele>829.747426</ele>
        <time>2021-11-03T16:19:53.349Z</time>
      </trkpt>
      <trkpt lat="39.693165" lon="-2.315252">
        <ele>829.705922</ele>
        <time>2021-11-03T16:19:53.349Z</time>
      </trkpt>
      <trkpt lat="39.693058" lon="-2.315298">
        <ele>829.611562</ele>
        <time>2021-11-03T16:19:53.349Z</time>
      </trkpt>
      <trkpt lat="39.692908" lon="-2.315352">
        <ele>829.481246</ele>
        <time>2021-11-03T16:19:53.349Z</time>
      </trkpt>
      <trkpt lat="39.692861" lon="-2.315345">
        <ele>829.441638</ele>
        <time>2021-11-03T16:19:53.349Z</time>
      </trkpt>
      <trkpt lat="39.692820" lon="-2.315317">
        <ele>829.402860</ele>
        <time>2021-11-03T16:19:53.349Z</time>
      </trkpt>
      <trkpt lat="39.692772" lon="-2.315208">
        <ele>829.321951</ele>
        <time>2021-11-03T16:19:53.349Z</time>
      </trkpt>
      <trkpt lat="39.692714" lon="-2.314900">
        <ele>829.117669</ele>
        <time>2021-11-03T16:19:53.349Z</time>
      </trkpt>
      <trkpt lat="39.692699" lon="-2.314813">
        <ele>829.060230</ele>
        <time>2021-11-03T16:19:53.349Z</time>
      </trkpt>
      <trkpt lat="39.692643" lon="-2.314544">
        <ele>828.880698</ele>
        <time>2021-11-03T16:19:53.349Z</time>
      </trkpt>
      <trkpt lat="39.692571" lon="-2.314183">
        <ele>828.640441</ele>
        <time>2021-11-03T16:19:53.349Z</time>
      </trkpt>
      <trkpt lat="39.692470" lon="-2.313642">
        <ele>828.274517</ele>
        <time>2021-11-03T16:19:53.349Z</time>
      </trkpt>
      <trkpt lat="39.692431" lon="-2.313469">
        <ele>828.146392</ele>
        <time>2021-11-03T16:19:53.349Z</time>
      </trkpt>
      <trkpt lat="39.692380" lon="-2.313303">
        <ele>828.019354</ele>
        <time>2021-11-03T16:19:53.349Z</time>
      </trkpt>
      <trkpt lat="39.692293" lon="-2.313053">
        <ele>827.824345</ele>
        <time>2021-11-03T16:19:53.349Z</time>
      </trkpt>
      <trkpt lat="39.692263" lon="-2.312971">
        <ele>827.759812</ele>
        <time>2021-11-03T16:19:53.349Z</time>
      </trkpt>
      <trkpt lat="39.692116" lon="-2.312549">
        <ele>827.430581</ele>
        <time>2021-11-03T16:19:53.349Z</time>
      </trkpt>
      <trkpt lat="39.692085" lon="-2.312462">
        <ele>827.362439</ele>
        <time>2021-11-03T16:19:53.349Z</time>
      </trkpt>
      <trkpt lat="39.692054" lon="-2.312374">
        <ele>827.293651</ele>
        <time>2021-11-03T16:19:53.349Z</time>
      </trkpt>
      <trkpt lat="39.691871" lon="-2.311874">
        <ele>826.900132</ele>
        <time>2021-11-03T16:19:53.349Z</time>
      </trkpt>
      <trkpt lat="39.691789" lon="-2.311738">
        <ele>826.777333</ele>
        <time>2021-11-03T16:19:53.349Z</time>
      </trkpt>
      <trkpt lat="39.691728" lon="-2.311594">
        <ele>826.644511</ele>
        <time>2021-11-03T16:19:53.349Z</time>
      </trkpt>
      <trkpt lat="39.691706" lon="-2.311523">
        <ele>826.561559</ele>
        <time>2021-11-03T16:19:53.349Z</time>
      </trkpt>
      <trkpt lat="39.691661" lon="-2.311379">
        <ele>826.393119</ele>
        <time>2021-11-03T16:19:53.349Z</time>
      </trkpt>
      <trkpt lat="39.691601" lon="-2.311238">
        <ele>826.218499</ele>
        <time>2021-11-03T16:19:53.349Z</time>
      </trkpt>
      <trkpt lat="39.691569" lon="-2.311171">
        <ele>826.133037</ele>
        <time>2021-11-03T16:19:53.349Z</time>
      </trkpt>
      <trkpt lat="39.691538" lon="-2.311104">
        <ele>826.048309</ele>
        <time>2021-11-03T16:19:53.349Z</time>
      </trkpt>
      <trkpt lat="39.691318" lon="-2.310721">
        <ele>825.530332</ele>
        <time>2021-11-03T16:19:53.349Z</time>
      </trkpt>
      <trkpt lat="39.691275" lon="-2.310663">
        <ele>825.443045</ele>
        <time>2021-11-03T16:19:53.349Z</time>
      </trkpt>
      <trkpt lat="39.691044" lon="-2.310377">
        <ele>824.993688</ele>
        <time>2021-11-03T16:19:53.349Z</time>
      </trkpt>
      <trkpt lat="39.690996" lon="-2.310316">
        <ele>824.899132</ele>
        <time>2021-11-03T16:19:53.349Z</time>
      </trkpt>
      <trkpt lat="39.690696" lon="-2.309927">
        <ele>824.302254</ele>
        <time>2021-11-03T16:19:53.349Z</time>
      </trkpt>
      <trkpt lat="39.690648" lon="-2.309859">
        <ele>824.202246</ele>
        <time>2021-11-03T16:19:53.349Z</time>
      </trkpt>
      <trkpt lat="39.690604" lon="-2.309793">
        <ele>824.089731</ele>
        <time>2021-11-03T16:19:53.349Z</time>
      </trkpt>
      <trkpt lat="39.690414" lon="-2.309491">
        <ele>823.516225</ele>
        <time>2021-11-03T16:19:53.349Z</time>
      </trkpt>
      <trkpt lat="39.690195" lon="-2.309147">
        <ele>822.859832</ele>
        <time>2021-11-03T16:19:53.349Z</time>
      </trkpt>
      <trkpt lat="39.690074" lon="-2.308969">
        <ele>822.510650</ele>
        <time>2021-11-03T16:19:53.349Z</time>
      </trkpt>
      <trkpt lat="39.689812" lon="-2.308624">
        <ele>821.798020</ele>
        <time>2021-11-03T16:19:53.349Z</time>
      </trkpt>
      <trkpt lat="39.689762" lon="-2.308574">
        <ele>821.677482</ele>
        <time>2021-11-03T16:19:53.349Z</time>
      </trkpt>
      <trkpt lat="39.689661" lon="-2.308475">
        <ele>821.435776</ele>
        <time>2021-11-03T16:19:53.349Z</time>
      </trkpt>
      <trkpt lat="39.689509" lon="-2.308335">
        <ele>821.079825</ele>
        <time>2021-11-03T16:19:53.349Z</time>
      </trkpt>
      <trkpt lat="39.689411" lon="-2.308244">
        <ele>820.849701</ele>
        <time>2021-11-03T16:19:53.349Z</time>
      </trkpt>
      <trkpt lat="39.689277" lon="-2.308089">
        <ele>820.327237</ele>
        <time>2021-11-03T16:19:53.349Z</time>
      </trkpt>
      <trkpt lat="39.689041" lon="-2.307835">
        <ele>819.250931</ele>
        <time>2021-11-03T16:19:53.349Z</time>
      </trkpt>
      <trkpt lat="39.688716" lon="-2.307509">
        <ele>817.808888</ele>
        <time>2021-11-03T16:19:53.349Z</time>
      </trkpt>
      <trkpt lat="39.688660" lon="-2.307449">
        <ele>817.553959</ele>
        <time>2021-11-03T16:19:53.349Z</time>
      </trkpt>
      <trkpt lat="39.688550" lon="-2.307326">
        <ele>817.044250</ele>
        <time>2021-11-03T16:19:53.349Z</time>
      </trkpt>
      <trkpt lat="39.688269" lon="-2.307025">
        <ele>815.765176</ele>
        <time>2021-11-03T16:19:53.349Z</time>
      </trkpt>
      <trkpt lat="39.688148" lon="-2.306895">
        <ele>815.213732</ele>
        <time>2021-11-03T16:19:53.349Z</time>
      </trkpt>
      <trkpt lat="39.688081" lon="-2.306823">
        <ele>814.908358</ele>
        <time>2021-11-03T16:19:53.349Z</time>
      </trkpt>
      <trkpt lat="39.688016" lon="-2.306748">
        <ele>814.603042</ele>
        <time>2021-11-03T16:19:53.349Z</time>
      </trkpt>
      <trkpt lat="39.687947" lon="-2.306668">
        <ele>814.347138</ele>
        <time>2021-11-03T16:19:53.349Z</time>
      </trkpt>
      <trkpt lat="39.687876" lon="-2.306586">
        <ele>814.196623</ele>
        <time>2021-11-03T16:19:53.349Z</time>
      </trkpt>
      <trkpt lat="39.687804" lon="-2.306499">
        <ele>814.040833</ele>
        <time>2021-11-03T16:19:53.349Z</time>
      </trkpt>
      <trkpt lat="39.687468" lon="-2.306062">
        <ele>813.287564</ele>
        <time>2021-11-03T16:19:53.349Z</time>
      </trkpt>
      <trkpt lat="39.687275" lon="-2.305876">
        <ele>812.906818</ele>
        <time>2021-11-03T16:19:53.349Z</time>
      </trkpt>
      <trkpt lat="39.687218" lon="-2.305816">
        <ele>812.790582</ele>
        <time>2021-11-03T16:19:53.349Z</time>
      </trkpt>
      <trkpt lat="39.687161" lon="-2.305756">
        <ele>812.674347</ele>
        <time>2021-11-03T16:19:53.349Z</time>
      </trkpt>
      <trkpt lat="39.686896" lon="-2.305499">
        <ele>812.150388</ele>
        <time>2021-11-03T16:19:53.349Z</time>
      </trkpt>
      <trkpt lat="39.686845" lon="-2.305452">
        <ele>812.051315</ele>
        <time>2021-11-03T16:19:53.349Z</time>
      </trkpt>
      <trkpt lat="39.686797" lon="-2.305404">
        <ele>811.955342</ele>
        <time>2021-11-03T16:19:53.349Z</time>
      </trkpt>
      <trkpt lat="39.686707" lon="-2.305306">
        <ele>811.769282</ele>
        <time>2021-11-03T16:19:53.349Z</time>
      </trkpt>
      <trkpt lat="39.686620" lon="-2.305214">
        <ele>811.591546</ele>
        <time>2021-11-03T16:19:53.349Z</time>
      </trkpt>
      <trkpt lat="39.686490" lon="-2.305088">
        <ele>811.824976</ele>
        <time>2021-11-03T16:19:53.349Z</time>
      </trkpt>
      <trkpt lat="39.686447" lon="-2.305045">
        <ele>811.931411</ele>
        <time>2021-11-03T16:19:53.349Z</time>
      </trkpt>
      <trkpt lat="39.686275" lon="-2.304886">
        <ele>812.345477</ele>
        <time>2021-11-03T16:19:53.349Z</time>
      </trkpt>
      <trkpt lat="39.686179" lon="-2.304837">
        <ele>812.547801</ele>
        <time>2021-11-03T16:19:53.349Z</time>
      </trkpt>
      <trkpt lat="39.686129" lon="-2.304820">
        <ele>812.649184</ele>
        <time>2021-11-03T16:19:53.349Z</time>
      </trkpt>
      <trkpt lat="39.686034" lon="-2.304792">
        <ele>812.840273</ele>
        <time>2021-11-03T16:19:53.349Z</time>
      </trkpt>
      <trkpt lat="39.685893" lon="-2.304757">
        <ele>813.121865</ele>
        <time>2021-11-03T16:19:53.349Z</time>
      </trkpt>
      <trkpt lat="39.685845" lon="-2.304742">
        <ele>813.218708</ele>
        <time>2021-11-03T16:19:53.349Z</time>
      </trkpt>
      <trkpt lat="39.685796" lon="-2.304730">
        <ele>813.316520</ele>
        <time>2021-11-03T16:19:53.349Z</time>
      </trkpt>
      <trkpt lat="39.685696" lon="-2.304704">
        <ele>813.516571</ele>
        <time>2021-11-03T16:19:53.349Z</time>
      </trkpt>
      <trkpt lat="39.685431" lon="-2.304636">
        <ele>814.046443</ele>
        <time>2021-11-03T16:19:53.349Z</time>
      </trkpt>
      <trkpt lat="39.685095" lon="-2.304544">
        <ele>814.720026</ele>
        <time>2021-11-03T16:19:53.349Z</time>
      </trkpt>
      <trkpt lat="39.684983" lon="-2.304514">
        <ele>814.944348</ele>
        <time>2021-11-03T16:19:53.349Z</time>
      </trkpt>
      <trkpt lat="39.684927" lon="-2.304498">
        <ele>815.056824</ele>
        <time>2021-11-03T16:19:53.349Z</time>
      </trkpt>
      <trkpt lat="39.684585" lon="-2.304400">
        <ele>815.196247</ele>
        <time>2021-11-03T16:19:53.349Z</time>
      </trkpt>
      <trkpt lat="39.684469" lon="-2.304372">
        <ele>815.236206</ele>
        <time>2021-11-03T16:19:53.349Z</time>
      </trkpt>
      <trkpt lat="39.684130" lon="-2.304286">
        <ele>815.353188</ele>
        <time>2021-11-03T16:19:53.349Z</time>
      </trkpt>
      <trkpt lat="39.683909" lon="-2.304227">
        <ele>815.429600</ele>
        <time>2021-11-03T16:19:53.349Z</time>
      </trkpt>
      <trkpt lat="39.683801" lon="-2.304198">
        <ele>815.466950</ele>
        <time>2021-11-03T16:19:53.349Z</time>
      </trkpt>
      <trkpt lat="39.683464" lon="-2.304111">
        <ele>815.583317</ele>
        <time>2021-11-03T16:19:53.349Z</time>
      </trkpt>
      <trkpt lat="39.683406" lon="-2.304096">
        <ele>815.603346</ele>
        <time>2021-11-03T16:19:53.349Z</time>
      </trkpt>
      <trkpt lat="39.683044" lon="-2.303989">
        <ele>816.028488</ele>
        <time>2021-11-03T16:19:53.349Z</time>
      </trkpt>
      <trkpt lat="39.682985" lon="-2.303969">
        <ele>816.212134</ele>
        <time>2021-11-03T16:19:53.349Z</time>
      </trkpt>
      <trkpt lat="39.682866" lon="-2.303930">
        <ele>816.581767</ele>
        <time>2021-11-03T16:19:53.349Z</time>
      </trkpt>
      <trkpt lat="39.682571" lon="-2.303852">
        <ele>817.488468</ele>
        <time>2021-11-03T16:19:53.349Z</time>
      </trkpt>
      <trkpt lat="39.682244" lon="-2.303759">
        <ele>818.496654</ele>
        <time>2021-11-03T16:19:53.349Z</time>
      </trkpt>
      <trkpt lat="39.682091" lon="-2.303718">
        <ele>818.967163</ele>
        <time>2021-11-03T16:19:53.349Z</time>
      </trkpt>
      <trkpt lat="39.681990" lon="-2.303690">
        <ele>819.278205</ele>
        <time>2021-11-03T16:19:53.349Z</time>
      </trkpt>
      <trkpt lat="39.681794" lon="-2.303626">
        <ele>819.886880</ele>
        <time>2021-11-03T16:19:53.349Z</time>
      </trkpt>
      <trkpt lat="39.681655" lon="-2.303578">
        <ele>820.320058</ele>
        <time>2021-11-03T16:19:53.349Z</time>
      </trkpt>
      <trkpt lat="39.681403" lon="-2.303513">
        <ele>821.093851</ele>
        <time>2021-11-03T16:19:53.349Z</time>
      </trkpt>
      <trkpt lat="39.681302" lon="-2.303500">
        <ele>821.294768</ele>
        <time>2021-11-03T16:19:53.349Z</time>
      </trkpt>
      <trkpt lat="39.681202" lon="-2.303506">
        <ele>821.487784</ele>
        <time>2021-11-03T16:19:53.349Z</time>
      </trkpt>
      <trkpt lat="39.681152" lon="-2.303516">
        <ele>821.585325</ele>
        <time>2021-11-03T16:19:53.349Z</time>
      </trkpt>
      <trkpt lat="39.681063" lon="-2.303551">
        <ele>821.764614</ele>
        <time>2021-11-03T16:19:53.349Z</time>
      </trkpt>
      <trkpt lat="39.681016" lon="-2.303568">
        <ele>821.858681</ele>
        <time>2021-11-03T16:19:53.349Z</time>
      </trkpt>
      <trkpt lat="39.680872" lon="-2.303638">
        <ele>822.155123</ele>
        <time>2021-11-03T16:19:53.349Z</time>
      </trkpt>
      <trkpt lat="39.680775" lon="-2.303685">
        <ele>822.354730</ele>
        <time>2021-11-03T16:19:53.349Z</time>
      </trkpt>
      <trkpt lat="39.680726" lon="-2.303708">
        <ele>822.455183</ele>
        <time>2021-11-03T16:19:53.349Z</time>
      </trkpt>
      <trkpt lat="39.680625" lon="-2.303758">
        <ele>822.663577</ele>
        <time>2021-11-03T16:19:53.349Z</time>
      </trkpt>
      <trkpt lat="39.680399" lon="-2.303843">
        <ele>823.117217</ele>
        <time>2021-11-03T16:19:53.349Z</time>
      </trkpt>
      <trkpt lat="39.680341" lon="-2.303866">
        <ele>823.234140</ele>
        <time>2021-11-03T16:19:53.349Z</time>
      </trkpt>
      <trkpt lat="39.680223" lon="-2.303917">
        <ele>823.473913</ele>
        <time>2021-11-03T16:19:53.349Z</time>
      </trkpt>
      <trkpt lat="39.679882" lon="-2.304065">
        <ele>824.167108</ele>
        <time>2021-11-03T16:19:53.349Z</time>
      </trkpt>
      <trkpt lat="39.679766" lon="-2.304113">
        <ele>824.401837</ele>
        <time>2021-11-03T16:19:53.349Z</time>
      </trkpt>
      <trkpt lat="39.679419" lon="-2.304261">
        <ele>824.388321</ele>
        <time>2021-11-03T16:19:53.349Z</time>
      </trkpt>
      <trkpt lat="39.679363" lon="-2.304283">
        <ele>824.348277</ele>
        <time>2021-11-03T16:19:53.349Z</time>
      </trkpt>
      <trkpt lat="39.679017" lon="-2.304407">
        <ele>824.102604</ele>
        <time>2021-11-03T16:19:53.349Z</time>
      </trkpt>
      <trkpt lat="39.678780" lon="-2.304487">
        <ele>823.934998</ele>
        <time>2021-11-03T16:19:53.349Z</time>
      </trkpt>
      <trkpt lat="39.678540" lon="-2.304570">
        <ele>823.765004</ele>
        <time>2021-11-03T16:19:53.349Z</time>
      </trkpt>
      <trkpt lat="39.678302" lon="-2.304651">
        <ele>823.596603</ele>
        <time>2021-11-03T16:19:53.349Z</time>
      </trkpt>
      <trkpt lat="39.677940" lon="-2.304772">
        <ele>823.342345</ele>
        <time>2021-11-03T16:19:53.349Z</time>
      </trkpt>
      <trkpt lat="39.677880" lon="-2.304792">
        <ele>823.315042</ele>
        <time>2021-11-03T16:19:53.349Z</time>
      </trkpt>
      <trkpt lat="39.677517" lon="-2.304917">
        <ele>823.149518</ele>
        <time>2021-11-03T16:19:53.349Z</time>
      </trkpt>
      <trkpt lat="39.677457" lon="-2.304938">
        <ele>823.122129</ele>
        <time>2021-11-03T16:19:53.349Z</time>
      </trkpt>
      <trkpt lat="39.677105" lon="-2.305059">
        <ele>822.961638</ele>
        <time>2021-11-03T16:19:53.349Z</time>
      </trkpt>
      <trkpt lat="39.676873" lon="-2.305128">
        <ele>822.856734</ele>
        <time>2021-11-03T16:19:53.349Z</time>
      </trkpt>
      <trkpt lat="39.676526" lon="-2.305248">
        <ele>822.698461</ele>
        <time>2021-11-03T16:19:53.349Z</time>
      </trkpt>
      <trkpt lat="39.676471" lon="-2.305266">
        <ele>822.673461</ele>
        <time>2021-11-03T16:19:53.349Z</time>
      </trkpt>
      <trkpt lat="39.676362" lon="-2.305304">
        <ele>822.623718</ele>
        <time>2021-11-03T16:19:53.349Z</time>
      </trkpt>
      <trkpt lat="39.676028" lon="-2.305412">
        <ele>822.455258</ele>
        <time>2021-11-03T16:19:53.349Z</time>
      </trkpt>
      <trkpt lat="39.675798" lon="-2.305484">
        <ele>822.329258</ele>
        <time>2021-11-03T16:19:53.349Z</time>
      </trkpt>
      <trkpt lat="39.675518" lon="-2.305570">
        <ele>822.176025</ele>
        <time>2021-11-03T16:19:53.349Z</time>
      </trkpt>
      <trkpt lat="39.675171" lon="-2.305686">
        <ele>821.985200</ele>
        <time>2021-11-03T16:19:53.349Z</time>
      </trkpt>
      <trkpt lat="39.674886" lon="-2.305773">
        <ele>821.829280</ele>
        <time>2021-11-03T16:19:53.349Z</time>
      </trkpt>
      <trkpt lat="39.674663" lon="-2.305836">
        <ele>821.707739</ele>
        <time>2021-11-03T16:19:53.349Z</time>
      </trkpt>
      <trkpt lat="39.674380" lon="-2.305933">
        <ele>821.561279</ele>
        <time>2021-11-03T16:19:53.349Z</time>
      </trkpt>
      <trkpt lat="39.674151" lon="-2.306005">
        <ele>821.463513</ele>
        <time>2021-11-03T16:19:53.349Z</time>
      </trkpt>
      <trkpt lat="39.673820" lon="-2.306110">
        <ele>821.322130</ele>
        <time>2021-11-03T16:19:53.349Z</time>
      </trkpt>
      <trkpt lat="39.673474" lon="-2.306229">
        <ele>821.173612</ele>
        <time>2021-11-03T16:19:53.349Z</time>
      </trkpt>
      <trkpt lat="39.673355" lon="-2.306265">
        <ele>821.122912</ele>
        <time>2021-11-03T16:19:53.349Z</time>
      </trkpt>
      <trkpt lat="39.673118" lon="-2.306340">
        <ele>821.021693</ele>
        <time>2021-11-03T16:19:53.349Z</time>
      </trkpt>
      <trkpt lat="39.672940" lon="-2.306402">
        <ele>820.945224</ele>
        <time>2021-11-03T16:19:53.349Z</time>
      </trkpt>
      <trkpt lat="39.672883" lon="-2.306425">
        <ele>820.920457</ele>
        <time>2021-11-03T16:19:53.349Z</time>
      </trkpt>
      <trkpt lat="39.672535" lon="-2.306545">
        <ele>821.054503</ele>
        <time>2021-11-03T16:19:53.349Z</time>
      </trkpt>
      <trkpt lat="39.672478" lon="-2.306565">
        <ele>821.120073</ele>
        <time>2021-11-03T16:19:53.349Z</time>
      </trkpt>
      <trkpt lat="39.672367" lon="-2.306597">
        <ele>821.246343</ele>
        <time>2021-11-03T16:19:53.349Z</time>
      </trkpt>
      <trkpt lat="39.672037" lon="-2.306689">
        <ele>821.621170</ele>
        <time>2021-11-03T16:19:53.349Z</time>
      </trkpt>
      <trkpt lat="39.671698" lon="-2.306792">
        <ele>822.007808</ele>
        <time>2021-11-03T16:19:53.349Z</time>
      </trkpt>
      <trkpt lat="39.671586" lon="-2.306829">
        <ele>822.136149</ele>
        <time>2021-11-03T16:19:53.349Z</time>
      </trkpt>
      <trkpt lat="39.671472" lon="-2.306860">
        <ele>822.265496</ele>
        <time>2021-11-03T16:19:53.349Z</time>
      </trkpt>
      <trkpt lat="39.671144" lon="-2.306950">
        <ele>822.637794</ele>
        <time>2021-11-03T16:19:53.349Z</time>
      </trkpt>
      <trkpt lat="39.670868" lon="-2.307028">
        <ele>822.805414</ele>
        <time>2021-11-03T16:19:53.349Z</time>
      </trkpt>
      <trkpt lat="39.670707" lon="-2.307084">
        <ele>822.735033</ele>
        <time>2021-11-03T16:19:53.349Z</time>
      </trkpt>
      <trkpt lat="39.670602" lon="-2.307119">
        <ele>822.689257</ele>
        <time>2021-11-03T16:19:53.349Z</time>
      </trkpt>
      <trkpt lat="39.670497" lon="-2.307152">
        <ele>822.643639</ele>
        <time>2021-11-03T16:19:53.349Z</time>
      </trkpt>
      <trkpt lat="39.670342" lon="-2.307206">
        <ele>822.575873</ele>
        <time>2021-11-03T16:19:53.349Z</time>
      </trkpt>
      <trkpt lat="39.670293" lon="-2.307223">
        <ele>822.554456</ele>
        <time>2021-11-03T16:19:53.349Z</time>
      </trkpt>
      <trkpt lat="39.670090" lon="-2.307291">
        <ele>822.465930</ele>
        <time>2021-11-03T16:19:53.349Z</time>
      </trkpt>
      <trkpt lat="39.669983" lon="-2.307326">
        <ele>822.419335</ele>
        <time>2021-11-03T16:19:53.349Z</time>
      </trkpt>
      <trkpt lat="39.669700" lon="-2.307413">
        <ele>822.296530</ele>
        <time>2021-11-03T16:19:53.349Z</time>
      </trkpt>
      <trkpt lat="39.669525" lon="-2.307471">
        <ele>822.220264</ele>
        <time>2021-11-03T16:19:53.349Z</time>
      </trkpt>
      <trkpt lat="39.669161" lon="-2.307583">
        <ele>822.004862</ele>
        <time>2021-11-03T16:19:53.349Z</time>
      </trkpt>
      <trkpt lat="39.669101" lon="-2.307602">
        <ele>821.915897</ele>
        <time>2021-11-03T16:19:53.349Z</time>
      </trkpt>
      <trkpt lat="39.668978" lon="-2.307639">
        <ele>821.734019</ele>
        <time>2021-11-03T16:19:53.349Z</time>
      </trkpt>
      <trkpt lat="39.668918" lon="-2.307657">
        <ele>821.645311</ele>
        <time>2021-11-03T16:19:53.349Z</time>
      </trkpt>
      <trkpt lat="39.668797" lon="-2.307696">
        <ele>821.465718</ele>
        <time>2021-11-03T16:19:53.349Z</time>
      </trkpt>
      <trkpt lat="39.668678" lon="-2.307740">
        <ele>821.287482</ele>
        <time>2021-11-03T16:19:53.349Z</time>
      </trkpt>
      <trkpt lat="39.668558" lon="-2.307777">
        <ele>821.109812</ele>
        <time>2021-11-03T16:19:53.349Z</time>
      </trkpt>
      <trkpt lat="39.668499" lon="-2.307796">
        <ele>821.022246</ele>
        <time>2021-11-03T16:19:53.349Z</time>
      </trkpt>
      <trkpt lat="39.668443" lon="-2.307816">
        <ele>820.938581</ele>
        <time>2021-11-03T16:19:53.349Z</time>
      </trkpt>
      <trkpt lat="39.668228" lon="-2.307887">
        <ele>820.619009</ele>
        <time>2021-11-03T16:19:53.349Z</time>
      </trkpt>
      <trkpt lat="39.667940" lon="-2.307977">
        <ele>820.192292</ele>
        <time>2021-11-03T16:19:53.349Z</time>
      </trkpt>
      <trkpt lat="39.667884" lon="-2.307996">
        <ele>820.108914</ele>
        <time>2021-11-03T16:19:53.349Z</time>
      </trkpt>
      <trkpt lat="39.667655" lon="-2.308072">
        <ele>819.768429</ele>
        <time>2021-11-03T16:19:53.349Z</time>
      </trkpt>
      <trkpt lat="39.667427" lon="-2.308147">
        <ele>819.520796</ele>
        <time>2021-11-03T16:19:53.349Z</time>
      </trkpt>
      <trkpt lat="39.667084" lon="-2.308252">
        <ele>819.720472</ele>
        <time>2021-11-03T16:19:53.349Z</time>
      </trkpt>
      <trkpt lat="39.667027" lon="-2.308269">
        <ele>819.753609</ele>
        <time>2021-11-03T16:19:53.349Z</time>
      </trkpt>
      <trkpt lat="39.666799" lon="-2.308340">
        <ele>819.886460</ele>
        <time>2021-11-03T16:19:53.349Z</time>
      </trkpt>
      <trkpt lat="39.666573" lon="-2.308409">
        <ele>820.018006</ele>
        <time>2021-11-03T16:19:53.349Z</time>
      </trkpt>
      <trkpt lat="39.666516" lon="-2.308425">
        <ele>820.051049</ele>
        <time>2021-11-03T16:19:53.349Z</time>
      </trkpt>
      <trkpt lat="39.666179" lon="-2.308520">
        <ele>820.246446</ele>
        <time>2021-11-03T16:19:53.349Z</time>
      </trkpt>
      <trkpt lat="39.666074" lon="-2.308555">
        <ele>820.307869</ele>
        <time>2021-11-03T16:19:53.349Z</time>
      </trkpt>
      <trkpt lat="39.665864" lon="-2.308617">
        <ele>820.429894</ele>
        <time>2021-11-03T16:19:53.349Z</time>
      </trkpt>
      <trkpt lat="39.665810" lon="-2.308632">
        <ele>820.461184</ele>
        <time>2021-11-03T16:19:53.349Z</time>
      </trkpt>
      <trkpt lat="39.665705" lon="-2.308671">
        <ele>820.520035</ele>
        <time>2021-11-03T16:19:53.349Z</time>
      </trkpt>
      <trkpt lat="39.665652" lon="-2.308689">
        <ele>820.540454</ele>
        <time>2021-11-03T16:19:53.349Z</time>
      </trkpt>
      <trkpt lat="39.665338" lon="-2.308807">
        <ele>820.662294</ele>
        <time>2021-11-03T16:19:53.349Z</time>
      </trkpt>
      <trkpt lat="39.665295" lon="-2.308829">
        <ele>820.679520</ele>
        <time>2021-11-03T16:19:53.349Z</time>
      </trkpt>
      <trkpt lat="39.665132" lon="-2.308905">
        <ele>820.744072</ele>
        <time>2021-11-03T16:19:53.349Z</time>
      </trkpt>
      <trkpt lat="39.664933" lon="-2.308967">
        <ele>820.820351</ele>
        <time>2021-11-03T16:19:53.349Z</time>
      </trkpt>
      <trkpt lat="39.664897" lon="-2.308975">
        <ele>820.833964</ele>
        <time>2021-11-03T16:19:53.349Z</time>
      </trkpt>
      <trkpt lat="39.664858" lon="-2.308980">
        <ele>820.848572</ele>
        <time>2021-11-03T16:19:53.349Z</time>
      </trkpt>
      <trkpt lat="39.664735" lon="-2.308998">
        <ele>820.894709</ele>
        <time>2021-11-03T16:19:53.349Z</time>
      </trkpt>
      <trkpt lat="39.664570" lon="-2.309035">
        <ele>820.957121</ele>
        <time>2021-11-03T16:19:53.349Z</time>
      </trkpt>
      <trkpt lat="39.664527" lon="-2.309043">
        <ele>820.973312</ele>
        <time>2021-11-03T16:19:53.349Z</time>
      </trkpt>
      <trkpt lat="39.664313" lon="-2.309109">
        <ele>821.055296</ele>
        <time>2021-11-03T16:19:53.349Z</time>
      </trkpt>
      <trkpt lat="39.664048" lon="-2.309200">
        <ele>821.157465</ele>
        <time>2021-11-03T16:19:53.349Z</time>
      </trkpt>
      <trkpt lat="39.663790" lon="-2.309296">
        <ele>821.548185</ele>
        <time>2021-11-03T16:19:53.349Z</time>
      </trkpt>
      <trkpt lat="39.663749" lon="-2.309315">
        <ele>821.629146</ele>
        <time>2021-11-03T16:19:53.349Z</time>
      </trkpt>
      <trkpt lat="39.663664" lon="-2.309358">
        <ele>821.798799</ele>
        <time>2021-11-03T16:19:53.349Z</time>
      </trkpt>
      <trkpt lat="39.663444" lon="-2.309438">
        <ele>822.223697</ele>
        <time>2021-11-03T16:19:53.349Z</time>
      </trkpt>
      <trkpt lat="39.663186" lon="-2.309504">
        <ele>822.712757</ele>
        <time>2021-11-03T16:19:53.349Z</time>
      </trkpt>
      <trkpt lat="39.663096" lon="-2.309522">
        <ele>822.882116</ele>
        <time>2021-11-03T16:19:53.349Z</time>
      </trkpt>
      <trkpt lat="39.662883" lon="-2.309576">
        <ele>823.285740</ele>
        <time>2021-11-03T16:19:53.349Z</time>
      </trkpt>
      <trkpt lat="39.662840" lon="-2.309591">
        <ele>823.368548</ele>
        <time>2021-11-03T16:19:53.349Z</time>
      </trkpt>
      <trkpt lat="39.662753" lon="-2.309619">
        <ele>823.535248</ele>
        <time>2021-11-03T16:19:53.349Z</time>
      </trkpt>
      <trkpt lat="39.662569" lon="-2.309674">
        <ele>823.886405</ele>
        <time>2021-11-03T16:19:53.349Z</time>
      </trkpt>
      <trkpt lat="39.662475" lon="-2.309702">
        <ele>824.065769</ele>
        <time>2021-11-03T16:19:53.349Z</time>
      </trkpt>
      <trkpt lat="39.662427" lon="-2.309718">
        <ele>824.157935</ele>
        <time>2021-11-03T16:19:53.349Z</time>
      </trkpt>
      <trkpt lat="39.662284" lon="-2.309760">
        <ele>824.430608</ele>
        <time>2021-11-03T16:19:53.349Z</time>
      </trkpt>
      <trkpt lat="39.662090" lon="-2.309816">
        <ele>824.954137</ele>
        <time>2021-11-03T16:19:53.349Z</time>
      </trkpt>
      <trkpt lat="39.661936" lon="-2.309864">
        <ele>825.416371</ele>
        <time>2021-11-03T16:19:53.349Z</time>
      </trkpt>
      <trkpt lat="39.661886" lon="-2.309880">
        <ele>825.566668</ele>
        <time>2021-11-03T16:19:53.349Z</time>
      </trkpt>
      <trkpt lat="39.661784" lon="-2.309910">
        <ele>825.871909</ele>
        <time>2021-11-03T16:19:53.349Z</time>
      </trkpt>
      <trkpt lat="39.661633" lon="-2.309958">
        <ele>826.325633</ele>
        <time>2021-11-03T16:19:53.349Z</time>
      </trkpt>
      <trkpt lat="39.661345" lon="-2.310057">
        <ele>827.195147</ele>
        <time>2021-11-03T16:19:53.349Z</time>
      </trkpt>
      <trkpt lat="39.661298" lon="-2.310070">
        <ele>827.335400</ele>
        <time>2021-11-03T16:19:53.349Z</time>
      </trkpt>
      <trkpt lat="39.661052" lon="-2.310138">
        <ele>828.069472</ele>
        <time>2021-11-03T16:19:53.349Z</time>
      </trkpt>
      <trkpt lat="39.660908" lon="-2.310182">
        <ele>828.501233</ele>
        <time>2021-11-03T16:19:53.349Z</time>
      </trkpt>
      <trkpt lat="39.660623" lon="-2.310271">
        <ele>829.356756</ele>
        <time>2021-11-03T16:19:53.349Z</time>
      </trkpt>
      <trkpt lat="39.660533" lon="-2.310304">
        <ele>829.629701</ele>
        <time>2021-11-03T16:19:53.349Z</time>
      </trkpt>
      <trkpt lat="39.660443" lon="-2.310332">
        <ele>830.092046</ele>
        <time>2021-11-03T16:19:53.349Z</time>
      </trkpt>
      <trkpt lat="39.660223" lon="-2.310393">
        <ele>831.797921</ele>
        <time>2021-11-03T16:19:53.349Z</time>
      </trkpt>
      <trkpt lat="39.660095" lon="-2.310432">
        <ele>832.794908</ele>
        <time>2021-11-03T16:19:53.349Z</time>
      </trkpt>
      <trkpt lat="39.659973" lon="-2.310474">
        <ele>833.751991</ele>
        <time>2021-11-03T16:19:53.349Z</time>
      </trkpt>
      <trkpt lat="39.659891" lon="-2.310501">
        <ele>834.393476</ele>
        <time>2021-11-03T16:19:53.349Z</time>
      </trkpt>
      <trkpt lat="39.659769" lon="-2.310540">
        <ele>835.346223</ele>
        <time>2021-11-03T16:19:53.349Z</time>
      </trkpt>
      <trkpt lat="39.659650" lon="-2.310582">
        <ele>836.281334</ele>
        <time>2021-11-03T16:19:53.349Z</time>
      </trkpt>
      <trkpt lat="39.659533" lon="-2.310621">
        <ele>837.197309</ele>
        <time>2021-11-03T16:19:53.349Z</time>
      </trkpt>
      <trkpt lat="39.659456" lon="-2.310645">
        <ele>837.797786</ele>
        <time>2021-11-03T16:19:53.349Z</time>
      </trkpt>
      <trkpt lat="39.659419" lon="-2.310655">
        <ele>838.084371</ele>
        <time>2021-11-03T16:19:53.349Z</time>
      </trkpt>
      <trkpt lat="39.659324" lon="-2.310683">
        <ele>838.823082</ele>
        <time>2021-11-03T16:19:53.349Z</time>
      </trkpt>
      <trkpt lat="39.659274" lon="-2.310699">
        <ele>839.213576</ele>
        <time>2021-11-03T16:19:53.349Z</time>
      </trkpt>
      <trkpt lat="39.659250" lon="-2.310707">
        <ele>839.401468</ele>
        <time>2021-11-03T16:19:53.349Z</time>
      </trkpt>
      <trkpt lat="39.659226" lon="-2.310719">
        <ele>839.596481</ele>
        <time>2021-11-03T16:19:53.349Z</time>
      </trkpt>
      <trkpt lat="39.659201" lon="-2.310723">
        <ele>839.787492</ele>
        <time>2021-11-03T16:19:53.349Z</time>
      </trkpt>
      <trkpt lat="39.659179" lon="-2.310723">
        <ele>839.954321</ele>
        <time>2021-11-03T16:19:53.349Z</time>
      </trkpt>
      <trkpt lat="39.659138" lon="-2.310699">
        <ele>840.295342</ele>
        <time>2021-11-03T16:19:53.349Z</time>
      </trkpt>
      <trkpt lat="39.659118" lon="-2.310684">
        <ele>840.470471</ele>
        <time>2021-11-03T16:19:53.349Z</time>
      </trkpt>
      <trkpt lat="39.659066" lon="-2.310572">
        <ele>841.234020</ele>
        <time>2021-11-03T16:19:53.349Z</time>
      </trkpt>
      <trkpt lat="39.659045" lon="-2.310487">
        <ele>841.755170</ele>
        <time>2021-11-03T16:19:53.349Z</time>
      </trkpt>
      <trkpt lat="39.659023" lon="-2.310410">
        <ele>842.234650</ele>
        <time>2021-11-03T16:19:53.349Z</time>
      </trkpt>
      <trkpt lat="39.658965" lon="-2.310222">
        <ele>843.417028</ele>
        <time>2021-11-03T16:19:53.349Z</time>
      </trkpt>
      <trkpt lat="39.658965" lon="-2.310222">
        <ele>843.417028</ele>
        <time>2021-11-03T16:19:53.349Z</time>
      </trkpt>
      <trkpt lat="39.658952" lon="-2.310165">
        <ele>843.215991</ele>
        <time>2021-11-03T16:19:53.349Z</time>
      </trkpt>
      <trkpt lat="39.658932" lon="-2.310050">
        <ele>842.811416</ele>
        <time>2021-11-03T16:19:53.349Z</time>
      </trkpt>
      <trkpt lat="39.658904" lon="-2.310010">
        <ele>842.625895</ele>
        <time>2021-11-03T16:19:53.349Z</time>
      </trkpt>
      <trkpt lat="39.658839" lon="-2.309952">
        <ele>842.274387</ele>
        <time>2021-11-03T16:19:53.349Z</time>
      </trkpt>
      <trkpt lat="39.658752" lon="-2.309921">
        <ele>841.872266</ele>
        <time>2021-11-03T16:19:53.349Z</time>
      </trkpt>
      <trkpt lat="39.658739" lon="-2.309922">
        <ele>841.814218</ele>
        <time>2021-11-03T16:19:53.349Z</time>
      </trkpt>
      <trkpt lat="39.658677" lon="-2.309912">
        <ele>841.535736</ele>
        <time>2021-11-03T16:19:53.349Z</time>
      </trkpt>
      <trkpt lat="39.658665" lon="-2.309910">
        <ele>841.481809</ele>
        <time>2021-11-03T16:19:53.349Z</time>
      </trkpt>
      <trkpt lat="39.658657" lon="-2.309906">
        <ele>841.443599</ele>
        <time>2021-11-03T16:19:53.349Z</time>
      </trkpt>
      <trkpt lat="39.658607" lon="-2.309894">
        <ele>841.216956</ele>
        <time>2021-11-03T16:19:53.349Z</time>
      </trkpt>
      <trkpt lat="39.658579" lon="-2.309898">
        <ele>841.091396</ele>
        <time>2021-11-03T16:19:53.349Z</time>
      </trkpt>
      <trkpt lat="39.658556" lon="-2.309899">
        <ele>840.988818</ele>
        <time>2021-11-03T16:19:53.349Z</time>
      </trkpt>
      <trkpt lat="39.658517" lon="-2.309909">
        <ele>840.811624</ele>
        <time>2021-11-03T16:19:53.349Z</time>
      </trkpt>
      <trkpt lat="39.658507" lon="-2.309913">
        <ele>840.764984</ele>
        <time>2021-11-03T16:19:53.349Z</time>
      </trkpt>
      <trkpt lat="39.658458" lon="-2.309897">
        <ele>840.539775</ele>
        <time>2021-11-03T16:19:53.349Z</time>
      </trkpt>
      <trkpt lat="39.658441" lon="-2.309882">
        <ele>840.448170</ele>
        <time>2021-11-03T16:19:53.349Z</time>
      </trkpt>
      <trkpt lat="39.658274" lon="-2.309779">
        <ele>839.624129</ele>
        <time>2021-11-03T16:19:53.349Z</time>
      </trkpt>
      <trkpt lat="39.658223" lon="-2.309756">
        <ele>839.383489</ele>
        <time>2021-11-03T16:19:53.349Z</time>
      </trkpt>
      <trkpt lat="39.658166" lon="-2.309748">
        <ele>839.127937</ele>
        <time>2021-11-03T16:19:53.349Z</time>
      </trkpt>
      <trkpt lat="39.658103" lon="-2.309742">
        <ele>838.846366</ele>
        <time>2021-11-03T16:19:53.349Z</time>
      </trkpt>
      <trkpt lat="39.658033" lon="-2.309733">
        <ele>838.532823</ele>
        <time>2021-11-03T16:19:53.349Z</time>
      </trkpt>
      <trkpt lat="39.657870" lon="-2.309685">
        <ele>837.787827</ele>
        <time>2021-11-03T16:19:53.349Z</time>
      </trkpt>
      <trkpt lat="39.657688" lon="-2.309629">
        <ele>836.954127</ele>
        <time>2021-11-03T16:19:53.349Z</time>
      </trkpt>
      <trkpt lat="39.657595" lon="-2.309601">
        <ele>836.528597</ele>
        <time>2021-11-03T16:19:53.349Z</time>
      </trkpt>
      <trkpt lat="39.657502" lon="-2.309574">
        <ele>836.103829</ele>
        <time>2021-11-03T16:19:53.349Z</time>
      </trkpt>
      <trkpt lat="39.657319" lon="-2.309520">
        <ele>835.306950</ele>
        <time>2021-11-03T16:19:53.349Z</time>
      </trkpt>
      <trkpt lat="39.657053" lon="-2.309440">
        <ele>834.448983</ele>
        <time>2021-11-03T16:19:53.349Z</time>
      </trkpt>
      <trkpt lat="39.656967" lon="-2.309415">
        <ele>834.172060</ele>
        <time>2021-11-03T16:19:53.349Z</time>
      </trkpt>
      <trkpt lat="39.656882" lon="-2.309390">
        <ele>833.898202</ele>
        <time>2021-11-03T16:19:53.349Z</time>
      </trkpt>
      <trkpt lat="39.656713" lon="-2.309343">
        <ele>833.355116</ele>
        <time>2021-11-03T16:19:53.349Z</time>
      </trkpt>
      <trkpt lat="39.656232" lon="-2.309199">
        <ele>831.804039</ele>
        <time>2021-11-03T16:19:53.349Z</time>
      </trkpt>
      <trkpt lat="39.656157" lon="-2.309178">
        <ele>831.562953</ele>
        <time>2021-11-03T16:19:53.349Z</time>
      </trkpt>
      <trkpt lat="39.656085" lon="-2.309157">
        <ele>831.331073</ele>
        <time>2021-11-03T16:19:53.349Z</time>
      </trkpt>
      <trkpt lat="39.655687" lon="-2.309042">
        <ele>830.049863</ele>
        <time>2021-11-03T16:19:53.349Z</time>
      </trkpt>
      <trkpt lat="39.655448" lon="-2.308974">
        <ele>830.513973</ele>
        <time>2021-11-03T16:19:53.349Z</time>
      </trkpt>
      <trkpt lat="39.655222" lon="-2.308906">
        <ele>831.702719</ele>
        <time>2021-11-03T16:19:53.349Z</time>
      </trkpt>
      <trkpt lat="39.655168" lon="-2.308891">
        <ele>831.985686</ele>
        <time>2021-11-03T16:19:53.349Z</time>
      </trkpt>
      <trkpt lat="39.655057" lon="-2.308859">
        <ele>832.568319</ele>
        <time>2021-11-03T16:19:53.349Z</time>
      </trkpt>
      <trkpt lat="39.654890" lon="-2.308806">
        <ele>833.449243</ele>
        <time>2021-11-03T16:19:53.349Z</time>
      </trkpt>
      <trkpt lat="39.654775" lon="-2.308773">
        <ele>834.052741</ele>
        <time>2021-11-03T16:19:53.349Z</time>
      </trkpt>
      <trkpt lat="39.654434" lon="-2.308674">
        <ele>835.843227</ele>
        <time>2021-11-03T16:19:53.349Z</time>
      </trkpt>
      <trkpt lat="39.654378" lon="-2.308657">
        <ele>836.137919</ele>
        <time>2021-11-03T16:19:53.349Z</time>
      </trkpt>
      <trkpt lat="39.654321" lon="-2.308638">
        <ele>836.439466</ele>
        <time>2021-11-03T16:19:53.349Z</time>
      </trkpt>
      <trkpt lat="39.654213" lon="-2.308609">
        <ele>837.004587</ele>
        <time>2021-11-03T16:19:53.349Z</time>
      </trkpt>
      <trkpt lat="39.654104" lon="-2.308582">
        <ele>837.573196</ele>
        <time>2021-11-03T16:19:53.349Z</time>
      </trkpt>
      <trkpt lat="39.653942" lon="-2.308534">
        <ele>838.424650</ele>
        <time>2021-11-03T16:19:53.349Z</time>
      </trkpt>
      <trkpt lat="39.653778" lon="-2.308483">
        <ele>839.232417</ele>
        <time>2021-11-03T16:19:53.349Z</time>
      </trkpt>
      <trkpt lat="39.653615" lon="-2.308439">
        <ele>839.936370</ele>
        <time>2021-11-03T16:19:53.349Z</time>
      </trkpt>
      <trkpt lat="39.653452" lon="-2.308396">
        <ele>840.639669</ele>
        <time>2021-11-03T16:19:53.349Z</time>
      </trkpt>
      <trkpt lat="39.653230" lon="-2.308344">
        <ele>841.593512</ele>
        <time>2021-11-03T16:19:53.349Z</time>
      </trkpt>
      <trkpt lat="39.653058" lon="-2.308300">
        <ele>842.334766</ele>
        <time>2021-11-03T16:19:53.349Z</time>
      </trkpt>
      <trkpt lat="39.652999" lon="-2.308285">
        <ele>842.588975</ele>
        <time>2021-11-03T16:19:53.349Z</time>
      </trkpt>
      <trkpt lat="39.652942" lon="-2.308271">
        <ele>842.834264</ele>
        <time>2021-11-03T16:19:53.349Z</time>
      </trkpt>
      <trkpt lat="39.652886" lon="-2.308256">
        <ele>843.076036</ele>
        <time>2021-11-03T16:19:53.349Z</time>
      </trkpt>
      <trkpt lat="39.652668" lon="-2.308193">
        <ele>844.020365</ele>
        <time>2021-11-03T16:19:53.349Z</time>
      </trkpt>
      <trkpt lat="39.652615" lon="-2.308176">
        <ele>844.251202</ele>
        <time>2021-11-03T16:19:53.349Z</time>
      </trkpt>
      <trkpt lat="39.652278" lon="-2.308077">
        <ele>845.712161</ele>
        <time>2021-11-03T16:19:53.349Z</time>
      </trkpt>
      <trkpt lat="39.652167" lon="-2.308048">
        <ele>846.190912</ele>
        <time>2021-11-03T16:19:53.349Z</time>
      </trkpt>
      <trkpt lat="39.652052" lon="-2.308017">
        <ele>846.606523</ele>
        <time>2021-11-03T16:19:53.349Z</time>
      </trkpt>
      <trkpt lat="39.651759" lon="-2.307944">
        <ele>846.985381</ele>
        <time>2021-11-03T16:19:53.349Z</time>
      </trkpt>
      <trkpt lat="39.651643" lon="-2.307919">
        <ele>847.134701</ele>
        <time>2021-11-03T16:19:53.349Z</time>
      </trkpt>
      <trkpt lat="39.651304" lon="-2.307839">
        <ele>847.572237</ele>
        <time>2021-11-03T16:19:53.349Z</time>
      </trkpt>
      <trkpt lat="39.651252" lon="-2.307828">
        <ele>847.639141</ele>
        <time>2021-11-03T16:19:53.349Z</time>
      </trkpt>
      <trkpt lat="39.651147" lon="-2.307798">
        <ele>847.775666</ele>
        <time>2021-11-03T16:19:53.349Z</time>
      </trkpt>
      <trkpt lat="39.651040" lon="-2.307767">
        <ele>847.914883</ele>
        <time>2021-11-03T16:19:53.349Z</time>
      </trkpt>
      <trkpt lat="39.650815" lon="-2.307712">
        <ele>848.205622</ele>
        <time>2021-11-03T16:19:53.349Z</time>
      </trkpt>
      <trkpt lat="39.650700" lon="-2.307682">
        <ele>848.354574</ele>
        <time>2021-11-03T16:19:53.349Z</time>
      </trkpt>
      <trkpt lat="39.650526" lon="-2.307626">
        <ele>848.582216</ele>
        <time>2021-11-03T16:19:53.349Z</time>
      </trkpt>
      <trkpt lat="39.650416" lon="-2.307589">
        <ele>848.726511</ele>
        <time>2021-11-03T16:19:53.349Z</time>
      </trkpt>
      <trkpt lat="39.650200" lon="-2.307519">
        <ele>848.976987</ele>
        <time>2021-11-03T16:19:53.349Z</time>
      </trkpt>
      <trkpt lat="39.649986" lon="-2.307442">
        <ele>849.199739</ele>
        <time>2021-11-03T16:19:53.349Z</time>
      </trkpt>
      <trkpt lat="39.649877" lon="-2.307394">
        <ele>849.315192</ele>
        <time>2021-11-03T16:19:53.349Z</time>
      </trkpt>
      <trkpt lat="39.649823" lon="-2.307370">
        <ele>849.372444</ele>
        <time>2021-11-03T16:19:53.349Z</time>
      </trkpt>
      <trkpt lat="39.649770" lon="-2.307345">
        <ele>849.429006</ele>
        <time>2021-11-03T16:19:53.349Z</time>
      </trkpt>
      <trkpt lat="39.649511" lon="-2.307211">
        <ele>849.708668</ele>
        <time>2021-11-03T16:19:53.349Z</time>
      </trkpt>
      <trkpt lat="39.649352" lon="-2.307133">
        <ele>849.879161</ele>
        <time>2021-11-03T16:19:53.349Z</time>
      </trkpt>
      <trkpt lat="39.649184" lon="-2.307056">
        <ele>850.057869</ele>
        <time>2021-11-03T16:19:53.349Z</time>
      </trkpt>
      <trkpt lat="39.649074" lon="-2.307008">
        <ele>850.174273</ele>
        <time>2021-11-03T16:19:53.349Z</time>
      </trkpt>
      <trkpt lat="39.648744" lon="-2.306830">
        <ele>850.532714</ele>
        <time>2021-11-03T16:19:53.349Z</time>
      </trkpt>
      <trkpt lat="39.648685" lon="-2.306795">
        <ele>850.597779</ele>
        <time>2021-11-03T16:19:53.349Z</time>
      </trkpt>
      <trkpt lat="39.648628" lon="-2.306768">
        <ele>850.658640</ele>
        <time>2021-11-03T16:19:53.349Z</time>
      </trkpt>
      <trkpt lat="39.648569" lon="-2.306735">
        <ele>850.695401</ele>
        <time>2021-11-03T16:19:53.349Z</time>
      </trkpt>
      <trkpt lat="39.648510" lon="-2.306707">
        <ele>850.730744</ele>
        <time>2021-11-03T16:19:53.349Z</time>
      </trkpt>
      <trkpt lat="39.648328" lon="-2.306616">
        <ele>850.840474</ele>
        <time>2021-11-03T16:19:53.349Z</time>
      </trkpt>
      <trkpt lat="39.648152" lon="-2.306525">
        <ele>850.947061</ele>
        <time>2021-11-03T16:19:53.349Z</time>
      </trkpt>
      <trkpt lat="39.647896" lon="-2.306373">
        <ele>851.105440</ele>
        <time>2021-11-03T16:19:53.349Z</time>
      </trkpt>
      <trkpt lat="39.647850" lon="-2.306337">
        <ele>851.135658</ele>
        <time>2021-11-03T16:19:53.349Z</time>
      </trkpt>
      <trkpt lat="39.647806" lon="-2.306297">
        <ele>851.165877</ele>
        <time>2021-11-03T16:19:53.349Z</time>
      </trkpt>
      <trkpt lat="39.647646" lon="-2.306092">
        <ele>851.292338</ele>
        <time>2021-11-03T16:19:53.349Z</time>
      </trkpt>
      <trkpt lat="39.647529" lon="-2.305908">
        <ele>851.395722</ele>
        <time>2021-11-03T16:19:53.349Z</time>
      </trkpt>
      <trkpt lat="39.647452" lon="-2.305788">
        <ele>851.463396</ele>
        <time>2021-11-03T16:19:53.349Z</time>
      </trkpt>
      <trkpt lat="39.647297" lon="-2.305547">
        <ele>851.599437</ele>
        <time>2021-11-03T16:19:53.349Z</time>
      </trkpt>
      <trkpt lat="39.647186" lon="-2.305356">
        <ele>851.734679</ele>
        <time>2021-11-03T16:19:53.349Z</time>
      </trkpt>
      <trkpt lat="39.647150" lon="-2.305295">
        <ele>851.801831</ele>
        <time>2021-11-03T16:19:53.349Z</time>
      </trkpt>
      <trkpt lat="39.647076" lon="-2.305174">
        <ele>851.936843</ele>
        <time>2021-11-03T16:19:53.349Z</time>
      </trkpt>
      <trkpt lat="39.646901" lon="-2.304886">
        <ele>852.257396</ele>
        <time>2021-11-03T16:19:53.349Z</time>
      </trkpt>
      <trkpt lat="39.646797" lon="-2.304717">
        <ele>852.446422</ele>
        <time>2021-11-03T16:19:53.349Z</time>
      </trkpt>
      <trkpt lat="39.646763" lon="-2.304663">
        <ele>852.507370</ele>
        <time>2021-11-03T16:19:53.349Z</time>
      </trkpt>
      <trkpt lat="39.646559" lon="-2.304328">
        <ele>852.880546</ele>
        <time>2021-11-03T16:19:53.349Z</time>
      </trkpt>
      <trkpt lat="39.646385" lon="-2.304045">
        <ele>853.196973</ele>
        <time>2021-11-03T16:19:53.349Z</time>
      </trkpt>
      <trkpt lat="39.646167" lon="-2.303701">
        <ele>853.586247</ele>
        <time>2021-11-03T16:19:53.349Z</time>
      </trkpt>
      <trkpt lat="39.646133" lon="-2.303643">
        <ele>853.649940</ele>
        <time>2021-11-03T16:19:53.349Z</time>
      </trkpt>
      <trkpt lat="39.646066" lon="-2.303531">
        <ele>853.864575</ele>
        <time>2021-11-03T16:19:53.349Z</time>
      </trkpt>
      <trkpt lat="39.645962" lon="-2.303364">
        <ele>854.332164</ele>
        <time>2021-11-03T16:19:53.349Z</time>
      </trkpt>
      <trkpt lat="39.645820" lon="-2.303143">
        <ele>854.958796</ele>
        <time>2021-11-03T16:19:53.349Z</time>
      </trkpt>
      <trkpt lat="39.645625" lon="-2.302820">
        <ele>855.852345</ele>
        <time>2021-11-03T16:19:53.349Z</time>
      </trkpt>
      <trkpt lat="39.645593" lon="-2.302767">
        <ele>855.998970</ele>
        <time>2021-11-03T16:19:53.349Z</time>
      </trkpt>
      <trkpt lat="39.645560" lon="-2.302716">
        <ele>856.143997</ele>
        <time>2021-11-03T16:19:53.349Z</time>
      </trkpt>
      <trkpt lat="39.645397" lon="-2.302460">
        <ele>856.867182</ele>
        <time>2021-11-03T16:19:53.349Z</time>
      </trkpt>
      <trkpt lat="39.645304" lon="-2.302301">
        <ele>857.301876</ele>
        <time>2021-11-03T16:19:53.349Z</time>
      </trkpt>
      <trkpt lat="39.645273" lon="-2.302248">
        <ele>857.446774</ele>
        <time>2021-11-03T16:19:53.349Z</time>
      </trkpt>
      <trkpt lat="39.645111" lon="-2.301992">
        <ele>858.168162</ele>
        <time>2021-11-03T16:19:53.349Z</time>
      </trkpt>
      <trkpt lat="39.645047" lon="-2.301886">
        <ele>858.461414</ele>
        <time>2021-11-03T16:19:53.349Z</time>
      </trkpt>
      <trkpt lat="39.644951" lon="-2.301730">
        <ele>858.895289</ele>
        <time>2021-11-03T16:19:53.349Z</time>
      </trkpt>
      <trkpt lat="39.644816" lon="-2.301521">
        <ele>859.483838</ele>
        <time>2021-11-03T16:19:53.349Z</time>
      </trkpt>
      <trkpt lat="39.644714" lon="-2.301353">
        <ele>859.945407</ele>
        <time>2021-11-03T16:19:53.349Z</time>
      </trkpt>
      <trkpt lat="39.644578" lon="-2.301136">
        <ele>860.549047</ele>
        <time>2021-11-03T16:19:53.349Z</time>
      </trkpt>
      <trkpt lat="39.644447" lon="-2.300928">
        <ele>861.128787</ele>
        <time>2021-11-03T16:19:53.349Z</time>
      </trkpt>
      <trkpt lat="39.644378" lon="-2.300836">
        <ele>861.405865</ele>
        <time>2021-11-03T16:19:53.349Z</time>
      </trkpt>
      <trkpt lat="39.644281" lon="-2.300674">
        <ele>861.848607</ele>
        <time>2021-11-03T16:19:53.349Z</time>
      </trkpt>
      <trkpt lat="39.644160" lon="-2.300483">
        <ele>862.382221</ele>
        <time>2021-11-03T16:19:53.349Z</time>
      </trkpt>
      <trkpt lat="39.644033" lon="-2.300274">
        <ele>862.956625</ele>
        <time>2021-11-03T16:19:53.349Z</time>
      </trkpt>
      <trkpt lat="39.643901" lon="-2.300055">
        <ele>863.556649</ele>
        <time>2021-11-03T16:19:53.349Z</time>
      </trkpt>
      <trkpt lat="39.643867" lon="-2.300002">
        <ele>863.705478</ele>
        <time>2021-11-03T16:19:53.349Z</time>
      </trkpt>
      <trkpt lat="39.643833" lon="-2.299949">
        <ele>863.844757</ele>
        <time>2021-11-03T16:19:53.349Z</time>
      </trkpt>
      <trkpt lat="39.643665" lon="-2.299676">
        <ele>864.160336</ele>
        <time>2021-11-03T16:19:53.349Z</time>
      </trkpt>
      <trkpt lat="39.643557" lon="-2.299515">
        <ele>864.353154</ele>
        <time>2021-11-03T16:19:53.349Z</time>
      </trkpt>
      <trkpt lat="39.643453" lon="-2.299346">
        <ele>864.548513</ele>
        <time>2021-11-03T16:19:53.349Z</time>
      </trkpt>
      <trkpt lat="39.643251" lon="-2.299009">
        <ele>864.934166</ele>
        <time>2021-11-03T16:19:53.349Z</time>
      </trkpt>
      <trkpt lat="39.643215" lon="-2.298953">
        <ele>865.000042</ele>
        <time>2021-11-03T16:19:53.349Z</time>
      </trkpt>
      <trkpt lat="39.643179" lon="-2.298897">
        <ele>865.065918</ele>
        <time>2021-11-03T16:19:53.349Z</time>
      </trkpt>
      <trkpt lat="39.643108" lon="-2.298784">
        <ele>865.197620</ele>
        <time>2021-11-03T16:19:53.349Z</time>
      </trkpt>
      <trkpt lat="39.643034" lon="-2.298671">
        <ele>865.331574</ele>
        <time>2021-11-03T16:19:53.349Z</time>
      </trkpt>
      <trkpt lat="39.642997" lon="-2.298612">
        <ele>865.400286</ele>
        <time>2021-11-03T16:19:53.349Z</time>
      </trkpt>
      <trkpt lat="39.642919" lon="-2.298499">
        <ele>865.537326</ele>
        <time>2021-11-03T16:19:53.349Z</time>
      </trkpt>
      <trkpt lat="39.642634" lon="-2.298211">
        <ele>865.937659</ele>
        <time>2021-11-03T16:19:53.349Z</time>
      </trkpt>
      <trkpt lat="39.642324" lon="-2.297950">
        <ele>865.634900</ele>
        <time>2021-11-03T16:19:53.349Z</time>
      </trkpt>
      <trkpt lat="39.642274" lon="-2.297904">
        <ele>865.584686</ele>
        <time>2021-11-03T16:19:53.349Z</time>
      </trkpt>
      <trkpt lat="39.641984" lon="-2.297623">
        <ele>865.288171</ele>
        <time>2021-11-03T16:19:53.349Z</time>
      </trkpt>
      <trkpt lat="39.641939" lon="-2.297576">
        <ele>865.240847</ele>
        <time>2021-11-03T16:19:53.349Z</time>
      </trkpt>
      <trkpt lat="39.641894" lon="-2.297529">
        <ele>865.193524</ele>
        <time>2021-11-03T16:19:53.349Z</time>
      </trkpt>
      <trkpt lat="39.641760" lon="-2.297381">
        <ele>865.049368</ele>
        <time>2021-11-03T16:19:53.349Z</time>
      </trkpt>
      <trkpt lat="39.641545" lon="-2.297106">
        <ele>864.802067</ele>
        <time>2021-11-03T16:19:53.349Z</time>
      </trkpt>
      <trkpt lat="39.641274" lon="-2.296789">
        <ele>864.503175</ele>
        <time>2021-11-03T16:19:53.349Z</time>
      </trkpt>
      <trkpt lat="39.641225" lon="-2.296746">
        <ele>864.466239</ele>
        <time>2021-11-03T16:19:53.349Z</time>
      </trkpt>
      <trkpt lat="39.641082" lon="-2.296612">
        <ele>864.411704</ele>
        <time>2021-11-03T16:19:53.349Z</time>
      </trkpt>
      <trkpt lat="39.640947" lon="-2.296467">
        <ele>864.357525</ele>
        <time>2021-11-03T16:19:53.349Z</time>
      </trkpt>
      <trkpt lat="39.640900" lon="-2.296422">
        <ele>864.339466</ele>
        <time>2021-11-03T16:19:53.349Z</time>
      </trkpt>
      <trkpt lat="39.640754" lon="-2.296291">
        <ele>864.284586</ele>
        <time>2021-11-03T16:19:53.349Z</time>
      </trkpt>
      <trkpt lat="39.640656" lon="-2.296206">
        <ele>864.248140</ele>
        <time>2021-11-03T16:19:53.349Z</time>
      </trkpt>
      <trkpt lat="39.640607" lon="-2.296163">
        <ele>864.229851</ele>
        <time>2021-11-03T16:19:53.349Z</time>
      </trkpt>
      <trkpt lat="39.640458" lon="-2.296032">
        <ele>864.174205</ele>
        <time>2021-11-03T16:19:53.349Z</time>
      </trkpt>
      <trkpt lat="39.640163" lon="-2.295771">
        <ele>864.063813</ele>
        <time>2021-11-03T16:19:53.349Z</time>
      </trkpt>
      <trkpt lat="39.639962" lon="-2.295599">
        <ele>863.989370</ele>
        <time>2021-11-03T16:19:53.349Z</time>
      </trkpt>
      <trkpt lat="39.639675" lon="-2.295362">
        <ele>863.449031</ele>
        <time>2021-11-03T16:19:53.349Z</time>
      </trkpt>
      <trkpt lat="39.639522" lon="-2.295265">
        <ele>862.697774</ele>
        <time>2021-11-03T16:19:53.349Z</time>
      </trkpt>
      <trkpt lat="39.639198" lon="-2.295097">
        <ele>861.158402</ele>
        <time>2021-11-03T16:19:53.349Z</time>
      </trkpt>
      <trkpt lat="39.639144" lon="-2.295071">
        <ele>860.904282</ele>
        <time>2021-11-03T16:19:53.349Z</time>
      </trkpt>
      <trkpt lat="39.639035" lon="-2.295018">
        <ele>860.390720</ele>
        <time>2021-11-03T16:19:53.349Z</time>
      </trkpt>
      <trkpt lat="39.638860" lon="-2.294937">
        <ele>859.570966</ele>
        <time>2021-11-03T16:19:53.349Z</time>
      </trkpt>
      <trkpt lat="39.638737" lon="-2.294871">
        <ele>858.983732</ele>
        <time>2021-11-03T16:19:53.349Z</time>
      </trkpt>
      <trkpt lat="39.638605" lon="-2.294805">
        <ele>858.359612</ele>
        <time>2021-11-03T16:19:53.349Z</time>
      </trkpt>
      <trkpt lat="39.638468" lon="-2.294761">
        <ele>857.736899</ele>
        <time>2021-11-03T16:19:53.349Z</time>
      </trkpt>
      <trkpt lat="39.638397" lon="-2.294747">
        <ele>857.420028</ele>
        <time>2021-11-03T16:19:53.349Z</time>
      </trkpt>
      <trkpt lat="39.638326" lon="-2.294738">
        <ele>857.105259</ele>
        <time>2021-11-03T16:19:53.349Z</time>
      </trkpt>
      <trkpt lat="39.638257" lon="-2.294730">
        <ele>856.799592</ele>
        <time>2021-11-03T16:19:53.349Z</time>
      </trkpt>
      <trkpt lat="39.638121" lon="-2.294725">
        <ele>856.199266</ele>
        <time>2021-11-03T16:19:53.349Z</time>
      </trkpt>
      <trkpt lat="39.637987" lon="-2.294733">
        <ele>855.909271</ele>
        <time>2021-11-03T16:19:53.349Z</time>
      </trkpt>
      <trkpt lat="39.637610" lon="-2.294703">
        <ele>855.590548</ele>
        <time>2021-11-03T16:19:53.349Z</time>
      </trkpt>
      <trkpt lat="39.637551" lon="-2.294678">
        <ele>855.538178</ele>
        <time>2021-11-03T16:19:53.349Z</time>
      </trkpt>
      <trkpt lat="39.637436" lon="-2.294611">
        <ele>855.431818</ele>
        <time>2021-11-03T16:19:53.349Z</time>
      </trkpt>
      <trkpt lat="39.637384" lon="-2.294565">
        <ele>855.378724</ele>
        <time>2021-11-03T16:19:53.349Z</time>
      </trkpt>
      <trkpt lat="39.637335" lon="-2.294513">
        <ele>855.325324</ele>
        <time>2021-11-03T16:19:53.349Z</time>
      </trkpt>
      <trkpt lat="39.637287" lon="-2.294457">
        <ele>855.270873</ele>
        <time>2021-11-03T16:19:53.349Z</time>
      </trkpt>
      <trkpt lat="39.637197" lon="-2.294337">
        <ele>855.162022</ele>
        <time>2021-11-03T16:19:53.349Z</time>
      </trkpt>
      <trkpt lat="39.637018" lon="-2.294090">
        <ele>854.941617</ele>
        <time>2021-11-03T16:19:53.349Z</time>
      </trkpt>
      <trkpt lat="39.636759" lon="-2.293752">
        <ele>854.631762</ele>
        <time>2021-11-03T16:19:53.349Z</time>
      </trkpt>
      <trkpt lat="39.636675" lon="-2.293649">
        <ele>854.534271</ele>
        <time>2021-11-03T16:19:53.349Z</time>
      </trkpt>
      <trkpt lat="39.636633" lon="-2.293596">
        <ele>854.484852</ele>
        <time>2021-11-03T16:19:53.349Z</time>
      </trkpt>
      <trkpt lat="39.636546" lon="-2.293489">
        <ele>854.159100</ele>
        <time>2021-11-03T16:19:53.349Z</time>
      </trkpt>
      <trkpt lat="39.636461" lon="-2.293376">
        <ele>853.765166</ele>
        <time>2021-11-03T16:19:53.349Z</time>
      </trkpt>
      <trkpt lat="39.636381" lon="-2.293264">
        <ele>853.384202</ele>
        <time>2021-11-03T16:19:53.349Z</time>
      </trkpt>
      <trkpt lat="39.636253" lon="-2.293095">
        <ele>852.793057</ele>
        <time>2021-11-03T16:19:53.349Z</time>
      </trkpt>
      <trkpt lat="39.636002" lon="-2.292751">
        <ele>851.611246</ele>
        <time>2021-11-03T16:19:53.349Z</time>
      </trkpt>
      <trkpt lat="39.635820" lon="-2.292526">
        <ele>850.797468</ele>
        <time>2021-11-03T16:19:53.349Z</time>
      </trkpt>
      <trkpt lat="39.635625" lon="-2.292296">
        <ele>849.944367</ele>
        <time>2021-11-03T16:19:53.349Z</time>
      </trkpt>
      <trkpt lat="39.635573" lon="-2.292237">
        <ele>849.720744</ele>
        <time>2021-11-03T16:19:53.349Z</time>
      </trkpt>
      <trkpt lat="39.635376" lon="-2.292010">
        <ele>848.867821</ele>
        <time>2021-11-03T16:19:53.349Z</time>
      </trkpt>
      <trkpt lat="39.635227" lon="-2.291836">
        <ele>847.805094</ele>
        <time>2021-11-03T16:19:53.349Z</time>
      </trkpt>
      <trkpt lat="39.635123" lon="-2.291725">
        <ele>846.938990</ele>
        <time>2021-11-03T16:19:53.349Z</time>
      </trkpt>
      <trkpt lat="39.635072" lon="-2.291667">
        <ele>846.502829</ele>
        <time>2021-11-03T16:19:53.349Z</time>
      </trkpt>
      <trkpt lat="39.634863" lon="-2.291436">
        <ele>844.737073</ele>
        <time>2021-11-03T16:19:53.349Z</time>
      </trkpt>
      <trkpt lat="39.634760" lon="-2.291321">
        <ele>843.863138</ele>
        <time>2021-11-03T16:19:53.349Z</time>
      </trkpt>
      <trkpt lat="39.634659" lon="-2.291201">
        <ele>842.982387</ele>
        <time>2021-11-03T16:19:53.349Z</time>
      </trkpt>
      <trkpt lat="39.634609" lon="-2.291139">
        <ele>842.537595</ele>
        <time>2021-11-03T16:19:53.349Z</time>
      </trkpt>
      <trkpt lat="39.634556" lon="-2.291077">
        <ele>842.078650</ele>
        <time>2021-11-03T16:19:53.349Z</time>
      </trkpt>
      <trkpt lat="39.634447" lon="-2.290948">
        <ele>841.129823</ele>
        <time>2021-11-03T16:19:53.349Z</time>
      </trkpt>
      <trkpt lat="39.634387" lon="-2.290889">
        <ele>840.645613</ele>
        <time>2021-11-03T16:19:53.349Z</time>
      </trkpt>
      <trkpt lat="39.634322" lon="-2.290823">
        <ele>840.114757</ele>
        <time>2021-11-03T16:19:53.349Z</time>
      </trkpt>
      <trkpt lat="39.634128" lon="-2.290659">
        <ele>838.625450</ele>
        <time>2021-11-03T16:19:53.349Z</time>
      </trkpt>
      <trkpt lat="39.633938" lon="-2.290530">
        <ele>837.246062</ele>
        <time>2021-11-03T16:19:53.349Z</time>
      </trkpt>
      <trkpt lat="39.633543" lon="-2.290306">
        <ele>836.034831</ele>
        <time>2021-11-03T16:19:53.349Z</time>
      </trkpt>
      <trkpt lat="39.633409" lon="-2.290262">
        <ele>835.681074</ele>
        <time>2021-11-03T16:19:53.349Z</time>
      </trkpt>
      <trkpt lat="39.633343" lon="-2.290246">
        <ele>835.509235</ele>
        <time>2021-11-03T16:19:53.349Z</time>
      </trkpt>
      <trkpt lat="39.633139" lon="-2.290233">
        <ele>834.986489</ele>
        <time>2021-11-03T16:19:53.349Z</time>
      </trkpt>
      <trkpt lat="39.632941" lon="-2.290259">
        <ele>834.477142</ele>
        <time>2021-11-03T16:19:53.349Z</time>
      </trkpt>
      <trkpt lat="39.632878" lon="-2.290283">
        <ele>834.309103</ele>
        <time>2021-11-03T16:19:53.349Z</time>
      </trkpt>
      <trkpt lat="39.632816" lon="-2.290314">
        <ele>834.139062</ele>
        <time>2021-11-03T16:19:53.349Z</time>
      </trkpt>
      <trkpt lat="39.632756" lon="-2.290347">
        <ele>833.972290</ele>
        <time>2021-11-03T16:19:53.349Z</time>
      </trkpt>
      <trkpt lat="39.632477" lon="-2.290577">
        <ele>833.126456</ele>
        <time>2021-11-03T16:19:53.349Z</time>
      </trkpt>
      <trkpt lat="39.632418" lon="-2.290619">
        <ele>832.954246</ele>
        <time>2021-11-03T16:19:53.349Z</time>
      </trkpt>
      <trkpt lat="39.632211" lon="-2.290706">
        <ele>832.352739</ele>
        <time>2021-11-03T16:19:53.349Z</time>
      </trkpt>
      <trkpt lat="39.631988" lon="-2.290766">
        <ele>831.374240</ele>
        <time>2021-11-03T16:19:53.349Z</time>
      </trkpt>
      <trkpt lat="39.631836" lon="-2.290796">
        <ele>830.713653</ele>
        <time>2021-11-03T16:19:53.349Z</time>
      </trkpt>
      <trkpt lat="39.631761" lon="-2.290802">
        <ele>830.390796</ele>
        <time>2021-11-03T16:19:53.349Z</time>
      </trkpt>
      <trkpt lat="39.631687" lon="-2.290800">
        <ele>830.072777</ele>
        <time>2021-11-03T16:19:53.349Z</time>
      </trkpt>
      <trkpt lat="39.631542" lon="-2.290765">
        <ele>829.439095</ele>
        <time>2021-11-03T16:19:53.349Z</time>
      </trkpt>
      <trkpt lat="39.631471" lon="-2.290738">
        <ele>829.121221</ele>
        <time>2021-11-03T16:19:53.349Z</time>
      </trkpt>
      <trkpt lat="39.631337" lon="-2.290672">
        <ele>828.505443</ele>
        <time>2021-11-03T16:19:53.349Z</time>
      </trkpt>
      <trkpt lat="39.631000" lon="-2.290485">
        <ele>826.930800</ele>
        <time>2021-11-03T16:19:53.349Z</time>
      </trkpt>
      <trkpt lat="39.630933" lon="-2.290451">
        <ele>826.621721</ele>
        <time>2021-11-03T16:19:53.349Z</time>
      </trkpt>
      <trkpt lat="39.630866" lon="-2.290418">
        <ele>826.313832</ele>
        <time>2021-11-03T16:19:53.349Z</time>
      </trkpt>
      <trkpt lat="39.630736" lon="-2.290348">
        <ele>825.709146</ele>
        <time>2021-11-03T16:19:53.349Z</time>
      </trkpt>
      <trkpt lat="39.630478" lon="-2.290209">
        <ele>824.604826</ele>
        <time>2021-11-03T16:19:53.349Z</time>
      </trkpt>
      <trkpt lat="39.630415" lon="-2.290172">
        <ele>824.433671</ele>
        <time>2021-11-03T16:19:53.349Z</time>
      </trkpt>
      <trkpt lat="39.630226" lon="-2.290069">
        <ele>823.926301</ele>
        <time>2021-11-03T16:19:53.349Z</time>
      </trkpt>
      <trkpt lat="39.630099" lon="-2.290001">
        <ele>823.586257</ele>
        <time>2021-11-03T16:19:53.349Z</time>
      </trkpt>
      <trkpt lat="39.629717" lon="-2.289801">
        <ele>822.566711</ele>
        <time>2021-11-03T16:19:53.349Z</time>
      </trkpt>
      <trkpt lat="39.629653" lon="-2.289769">
        <ele>822.396952</ele>
        <time>2021-11-03T16:19:53.349Z</time>
      </trkpt>
      <trkpt lat="39.629523" lon="-2.289706">
        <ele>822.053479</ele>
        <time>2021-11-03T16:19:53.349Z</time>
      </trkpt>
      <trkpt lat="39.629325" lon="-2.289605">
        <ele>821.526901</ele>
        <time>2021-11-03T16:19:53.349Z</time>
      </trkpt>
      <trkpt lat="39.629062" lon="-2.289467">
        <ele>820.824745</ele>
        <time>2021-11-03T16:19:53.349Z</time>
      </trkpt>
      <trkpt lat="39.628743" lon="-2.289305">
        <ele>820.248941</ele>
        <time>2021-11-03T16:19:53.349Z</time>
      </trkpt>
      <trkpt lat="39.628682" lon="-2.289270">
        <ele>820.230620</ele>
        <time>2021-11-03T16:19:53.349Z</time>
      </trkpt>
      <trkpt lat="39.628621" lon="-2.289238">
        <ele>820.212547</ele>
        <time>2021-11-03T16:19:53.349Z</time>
      </trkpt>
      <trkpt lat="39.628280" lon="-2.289076">
        <ele>820.112795</ele>
        <time>2021-11-03T16:19:53.349Z</time>
      </trkpt>
      <trkpt lat="39.628230" lon="-2.289046">
        <ele>820.097663</ele>
        <time>2021-11-03T16:19:53.349Z</time>
      </trkpt>
      <trkpt lat="39.627905" lon="-2.288875">
        <ele>820.001328</ele>
        <time>2021-11-03T16:19:53.349Z</time>
      </trkpt>
      <trkpt lat="39.627849" lon="-2.288847">
        <ele>819.984843</ele>
        <time>2021-11-03T16:19:53.349Z</time>
      </trkpt>
      <trkpt lat="39.627507" lon="-2.288662">
        <ele>819.883062</ele>
        <time>2021-11-03T16:19:53.349Z</time>
      </trkpt>
      <trkpt lat="39.627393" lon="-2.288606">
        <ele>819.849578</ele>
        <time>2021-11-03T16:19:53.349Z</time>
      </trkpt>
      <trkpt lat="39.627335" lon="-2.288579">
        <ele>819.832651</ele>
        <time>2021-11-03T16:19:53.349Z</time>
      </trkpt>
      <trkpt lat="39.626983" lon="-2.288403">
        <ele>819.291734</ele>
        <time>2021-11-03T16:19:53.349Z</time>
      </trkpt>
      <trkpt lat="39.626924" lon="-2.288372">
        <ele>819.146306</ele>
        <time>2021-11-03T16:19:53.349Z</time>
      </trkpt>
      <trkpt lat="39.626865" lon="-2.288344">
        <ele>819.002776</ele>
        <time>2021-11-03T16:19:53.349Z</time>
      </trkpt>
      <trkpt lat="39.626686" lon="-2.288256">
        <ele>818.565445</ele>
        <time>2021-11-03T16:19:53.349Z</time>
      </trkpt>
      <trkpt lat="39.626449" lon="-2.288137">
        <ele>817.984846</ele>
        <time>2021-11-03T16:19:53.349Z</time>
      </trkpt>
      <trkpt lat="39.626391" lon="-2.288107">
        <ele>817.842194</ele>
        <time>2021-11-03T16:19:53.349Z</time>
      </trkpt>
      <trkpt lat="39.626169" lon="-2.287989">
        <ele>817.294091</ele>
        <time>2021-11-03T16:19:53.349Z</time>
      </trkpt>
      <trkpt lat="39.625940" lon="-2.287891">
        <ele>816.743164</ele>
        <time>2021-11-03T16:19:53.349Z</time>
      </trkpt>
      <trkpt lat="39.625582" lon="-2.287774">
        <ele>815.899663</ele>
        <time>2021-11-03T16:19:53.349Z</time>
      </trkpt>
      <trkpt lat="39.625466" lon="-2.287735">
        <ele>815.691692</ele>
        <time>2021-11-03T16:19:53.349Z</time>
      </trkpt>
      <trkpt lat="39.625108" lon="-2.287616">
        <ele>815.890998</ele>
        <time>2021-11-03T16:19:53.349Z</time>
      </trkpt>
      <trkpt lat="39.625048" lon="-2.287594">
        <ele>815.924623</ele>
        <time>2021-11-03T16:19:53.349Z</time>
      </trkpt>
      <trkpt lat="39.624989" lon="-2.287572">
        <ele>815.957729</ele>
        <time>2021-11-03T16:19:53.349Z</time>
      </trkpt>
      <trkpt lat="39.624812" lon="-2.287506">
        <ele>816.057049</ele>
        <time>2021-11-03T16:19:53.349Z</time>
      </trkpt>
      <trkpt lat="39.624589" lon="-2.287421">
        <ele>816.182394</ele>
        <time>2021-11-03T16:19:53.349Z</time>
      </trkpt>
      <trkpt lat="39.624533" lon="-2.287400">
        <ele>816.213831</ele>
        <time>2021-11-03T16:19:53.349Z</time>
      </trkpt>
      <trkpt lat="39.624477" lon="-2.287381">
        <ele>816.245047</ele>
        <time>2021-11-03T16:19:53.349Z</time>
      </trkpt>
      <trkpt lat="39.624150" lon="-2.287274">
        <ele>816.426921</ele>
        <time>2021-11-03T16:19:53.349Z</time>
      </trkpt>
      <trkpt lat="39.624041" lon="-2.287237">
        <ele>816.487684</ele>
        <time>2021-11-03T16:19:53.349Z</time>
      </trkpt>
      <trkpt lat="39.623693" lon="-2.287109">
        <ele>816.714955</ele>
        <time>2021-11-03T16:19:53.349Z</time>
      </trkpt>
      <trkpt lat="39.623573" lon="-2.287068">
        <ele>816.846049</ele>
        <time>2021-11-03T16:19:53.349Z</time>
      </trkpt>
      <trkpt lat="39.623223" lon="-2.286961">
        <ele>817.225929</ele>
        <time>2021-11-03T16:19:53.349Z</time>
      </trkpt>
      <trkpt lat="39.623165" lon="-2.286941">
        <ele>817.289329</ele>
        <time>2021-11-03T16:19:53.349Z</time>
      </trkpt>
      <trkpt lat="39.623053" lon="-2.286898">
        <ele>817.412720</ele>
        <time>2021-11-03T16:19:53.349Z</time>
      </trkpt>
      <trkpt lat="39.622999" lon="-2.286878">
        <ele>817.472045</ele>
        <time>2021-11-03T16:19:53.349Z</time>
      </trkpt>
      <trkpt lat="39.622838" lon="-2.286824">
        <ele>817.647723</ele>
        <time>2021-11-03T16:19:53.349Z</time>
      </trkpt>
      <trkpt lat="39.622627" lon="-2.286753">
        <ele>817.878005</ele>
        <time>2021-11-03T16:19:53.349Z</time>
      </trkpt>
      <trkpt lat="39.622571" lon="-2.286732">
        <ele>817.939586</ele>
        <time>2021-11-03T16:19:53.349Z</time>
      </trkpt>
      <trkpt lat="39.622406" lon="-2.286673">
        <ele>818.120395</ele>
        <time>2021-11-03T16:19:53.349Z</time>
      </trkpt>
      <trkpt lat="39.622301" lon="-2.286633">
        <ele>818.236003</ele>
        <time>2021-11-03T16:19:53.349Z</time>
      </trkpt>
      <trkpt lat="39.622197" lon="-2.286597">
        <ele>818.349714</ele>
        <time>2021-11-03T16:19:53.349Z</time>
      </trkpt>
      <trkpt lat="39.621898" lon="-2.286502">
        <ele>818.746463</ele>
        <time>2021-11-03T16:19:53.349Z</time>
      </trkpt>
      <trkpt lat="39.621800" lon="-2.286466">
        <ele>818.915385</ele>
        <time>2021-11-03T16:19:53.349Z</time>
      </trkpt>
      <trkpt lat="39.621557" lon="-2.286375">
        <ele>819.334852</ele>
        <time>2021-11-03T16:19:53.349Z</time>
      </trkpt>
      <trkpt lat="39.621354" lon="-2.286301">
        <ele>819.684564</ele>
        <time>2021-11-03T16:19:53.349Z</time>
      </trkpt>
      <trkpt lat="39.621058" lon="-2.286200">
        <ele>820.192177</ele>
        <time>2021-11-03T16:19:53.349Z</time>
      </trkpt>
      <trkpt lat="39.621012" lon="-2.286180">
        <ele>820.272637</ele>
        <time>2021-11-03T16:19:53.349Z</time>
      </trkpt>
      <trkpt lat="39.620869" lon="-2.286124">
        <ele>820.520369</ele>
        <time>2021-11-03T16:19:53.349Z</time>
      </trkpt>
      <trkpt lat="39.620677" lon="-2.286104">
        <ele>820.839839</ele>
        <time>2021-11-03T16:19:53.349Z</time>
      </trkpt>
      <trkpt lat="39.620625" lon="-2.286112">
        <ele>820.926689</ele>
        <time>2021-11-03T16:19:53.349Z</time>
      </trkpt>
      <trkpt lat="39.620458" lon="-2.286141">
        <ele>821.206138</ele>
        <time>2021-11-03T16:19:53.349Z</time>
      </trkpt>
      <trkpt lat="39.620350" lon="-2.286167">
        <ele>821.388318</ele>
        <time>2021-11-03T16:19:53.349Z</time>
      </trkpt>
      <trkpt lat="39.620236" lon="-2.286199">
        <ele>821.487627</ele>
        <time>2021-11-03T16:19:53.349Z</time>
      </trkpt>
      <trkpt lat="39.619937" lon="-2.286284">
        <ele>821.023521</ele>
        <time>2021-11-03T16:19:53.349Z</time>
      </trkpt>
      <trkpt lat="39.619882" lon="-2.286300">
        <ele>820.938059</ele>
        <time>2021-11-03T16:19:53.349Z</time>
      </trkpt>
      <trkpt lat="39.619767" lon="-2.286333">
        <ele>820.759480</ele>
        <time>2021-11-03T16:19:53.349Z</time>
      </trkpt>
      <trkpt lat="39.619648" lon="-2.286362">
        <ele>820.575893</ele>
        <time>2021-11-03T16:19:53.349Z</time>
      </trkpt>
      <trkpt lat="39.619528" lon="-2.286394">
        <ele>820.390142</ele>
        <time>2021-11-03T16:19:53.349Z</time>
      </trkpt>
      <trkpt lat="39.619153" lon="-2.286498">
        <ele>819.808713</ele>
        <time>2021-11-03T16:19:53.349Z</time>
      </trkpt>
      <trkpt lat="39.619091" lon="-2.286518">
        <ele>819.711846</ele>
        <time>2021-11-03T16:19:53.349Z</time>
      </trkpt>
      <trkpt lat="39.619021" lon="-2.286531">
        <ele>819.604627</ele>
        <time>2021-11-03T16:19:53.349Z</time>
      </trkpt>
      <trkpt lat="39.618817" lon="-2.286560">
        <ele>819.293460</ele>
        <time>2021-11-03T16:19:53.349Z</time>
      </trkpt>
      <trkpt lat="39.618742" lon="-2.286566">
        <ele>819.179525</ele>
        <time>2021-11-03T16:19:53.349Z</time>
      </trkpt>
      <trkpt lat="39.618597" lon="-2.286552">
        <ele>818.959060</ele>
        <time>2021-11-03T16:19:53.349Z</time>
      </trkpt>
      <trkpt lat="39.618470" lon="-2.286498">
        <ele>818.780306</ele>
        <time>2021-11-03T16:19:53.349Z</time>
      </trkpt>
      <trkpt lat="39.618214" lon="-2.286297">
        <ele>818.547996</ele>
        <time>2021-11-03T16:19:53.349Z</time>
      </trkpt>
      <trkpt lat="39.618025" lon="-2.286138">
        <ele>818.373118</ele>
        <time>2021-11-03T16:19:53.349Z</time>
      </trkpt>
      <trkpt lat="39.617928" lon="-2.286057">
        <ele>818.283561</ele>
        <time>2021-11-03T16:19:53.349Z</time>
      </trkpt>
      <trkpt lat="39.617828" lon="-2.285982">
        <ele>818.193885</ele>
        <time>2021-11-03T16:19:53.349Z</time>
      </trkpt>
      <trkpt lat="39.617778" lon="-2.285945">
        <ele>818.149195</ele>
        <time>2021-11-03T16:19:53.349Z</time>
      </trkpt>
      <trkpt lat="39.617525" lon="-2.285745">
        <ele>817.919186</ele>
        <time>2021-11-03T16:19:53.349Z</time>
      </trkpt>
      <trkpt lat="39.617422" lon="-2.285670">
        <ele>817.827485</ele>
        <time>2021-11-03T16:19:53.349Z</time>
      </trkpt>
      <trkpt lat="39.617320" lon="-2.285589">
        <ele>817.734639</ele>
        <time>2021-11-03T16:19:53.349Z</time>
      </trkpt>
      <trkpt lat="39.617222" lon="-2.285512">
        <ele>817.645690</ele>
        <time>2021-11-03T16:19:53.349Z</time>
      </trkpt>
      <trkpt lat="39.617125" lon="-2.285435">
        <ele>817.557405</ele>
        <time>2021-11-03T16:19:53.349Z</time>
      </trkpt>
      <trkpt lat="39.617077" lon="-2.285393">
        <ele>817.512457</ele>
        <time>2021-11-03T16:19:53.349Z</time>
      </trkpt>
      <trkpt lat="39.616788" lon="-2.285123">
        <ele>817.479416</ele>
        <time>2021-11-03T16:19:53.349Z</time>
      </trkpt>
      <trkpt lat="39.616742" lon="-2.285075">
        <ele>817.498164</ele>
        <time>2021-11-03T16:19:53.349Z</time>
      </trkpt>
      <trkpt lat="39.616653" lon="-2.284976">
        <ele>817.535394</ele>
        <time>2021-11-03T16:19:53.349Z</time>
      </trkpt>
      <trkpt lat="39.616342" lon="-2.284724">
        <ele>817.651851</ele>
        <time>2021-11-03T16:19:53.349Z</time>
      </trkpt>
      <trkpt lat="39.616128" lon="-2.284618">
        <ele>817.724609</ele>
        <time>2021-11-03T16:19:53.349Z</time>
      </trkpt>
      <trkpt lat="39.616018" lon="-2.284567">
        <ele>817.761713</ele>
        <time>2021-11-03T16:19:53.349Z</time>
      </trkpt>
      <trkpt lat="39.615703" lon="-2.284391">
        <ele>817.870649</ele>
        <time>2021-11-03T16:19:53.349Z</time>
      </trkpt>
      <trkpt lat="39.615652" lon="-2.284357">
        <ele>817.888861</ele>
        <time>2021-11-03T16:19:53.349Z</time>
      </trkpt>
      <trkpt lat="39.615514" lon="-2.284245">
        <ele>817.940560</ele>
        <time>2021-11-03T16:19:53.349Z</time>
      </trkpt>
      <trkpt lat="39.615436" lon="-2.284152">
        <ele>817.974202</ele>
        <time>2021-11-03T16:19:53.349Z</time>
      </trkpt>
      <trkpt lat="39.615351" lon="-2.283999">
        <ele>817.908540</ele>
        <time>2021-11-03T16:19:53.349Z</time>
      </trkpt>
      <trkpt lat="39.615329" lon="-2.283942">
        <ele>817.880824</ele>
        <time>2021-11-03T16:19:53.349Z</time>
      </trkpt>
      <trkpt lat="39.615311" lon="-2.283885">
        <ele>817.854042</ele>
        <time>2021-11-03T16:19:53.349Z</time>
      </trkpt>
      <trkpt lat="39.615293" lon="-2.283831">
        <ele>817.828463</ele>
        <time>2021-11-03T16:19:53.349Z</time>
      </trkpt>
      <trkpt lat="39.615208" lon="-2.283595">
        <ele>817.715205</ele>
        <time>2021-11-03T16:19:53.349Z</time>
      </trkpt>
      <trkpt lat="39.615167" lon="-2.283475">
        <ele>817.658136</ele>
        <time>2021-11-03T16:19:53.349Z</time>
      </trkpt>
      <trkpt lat="39.615145" lon="-2.283421">
        <ele>817.631579</ele>
        <time>2021-11-03T16:19:53.349Z</time>
      </trkpt>
      <trkpt lat="39.615120" lon="-2.283375">
        <ele>817.607105</ele>
        <time>2021-11-03T16:19:53.349Z</time>
      </trkpt>
      <trkpt lat="39.615068" lon="-2.283297">
        <ele>817.562261</ele>
        <time>2021-11-03T16:19:53.349Z</time>
      </trkpt>
      <trkpt lat="39.615036" lon="-2.283265">
        <ele>817.539465</ele>
        <time>2021-11-03T16:19:53.349Z</time>
      </trkpt>
      <trkpt lat="39.614998" lon="-2.283229">
        <ele>817.512916</ele>
        <time>2021-11-03T16:19:53.349Z</time>
      </trkpt>
      <trkpt lat="39.614918" lon="-2.283170">
        <ele>817.460992</ele>
        <time>2021-11-03T16:19:53.349Z</time>
      </trkpt>
      <trkpt lat="39.614877" lon="-2.283148">
        <ele>817.435955</ele>
        <time>2021-11-03T16:19:53.349Z</time>
      </trkpt>
      <trkpt lat="39.614828" lon="-2.283118">
        <ele>817.405381</ele>
        <time>2021-11-03T16:19:53.349Z</time>
      </trkpt>
      <trkpt lat="39.614722" lon="-2.283075">
        <ele>817.342708</ele>
        <time>2021-11-03T16:19:53.349Z</time>
      </trkpt>
      <trkpt lat="39.614604" lon="-2.283052">
        <ele>817.275369</ele>
        <time>2021-11-03T16:19:53.349Z</time>
      </trkpt>
      <trkpt lat="39.614538" lon="-2.283044">
        <ele>817.237960</ele>
        <time>2021-11-03T16:19:53.349Z</time>
      </trkpt>
      <trkpt lat="39.614408" lon="-2.283017">
        <ele>817.163663</ele>
        <time>2021-11-03T16:19:53.349Z</time>
      </trkpt>
      <trkpt lat="39.614299" lon="-2.282991">
        <ele>817.101120</ele>
        <time>2021-11-03T16:19:53.349Z</time>
      </trkpt>
      <trkpt lat="39.614245" lon="-2.282945">
        <ele>817.064670</ele>
        <time>2021-11-03T16:19:53.349Z</time>
      </trkpt>
      <trkpt lat="39.614102" lon="-2.282913">
        <ele>816.982778</ele>
        <time>2021-11-03T16:19:53.349Z</time>
      </trkpt>
      <trkpt lat="39.614005" lon="-2.282740">
        <ele>816.741486</ele>
        <time>2021-11-03T16:19:53.349Z</time>
      </trkpt>
      <trkpt lat="39.613897" lon="-2.282576">
        <ele>816.462955</ele>
        <time>2021-11-03T16:19:53.349Z</time>
      </trkpt>
      <trkpt lat="39.613841" lon="-2.282444">
        <ele>816.268417</ele>
        <time>2021-11-03T16:19:53.349Z</time>
      </trkpt>
      <trkpt lat="39.613727" lon="-2.282019">
        <ele>815.687452</ele>
        <time>2021-11-03T16:19:53.349Z</time>
      </trkpt>
      <trkpt lat="39.613695" lon="-2.281893">
        <ele>815.516180</ele>
        <time>2021-11-03T16:19:53.349Z</time>
      </trkpt>
      <trkpt lat="39.613673" lon="-2.281769">
        <ele>815.351911</ele>
        <time>2021-11-03T16:19:53.349Z</time>
      </trkpt>
      <trkpt lat="39.613637" lon="-2.281616">
        <ele>815.145386</ele>
        <time>2021-11-03T16:19:53.349Z</time>
      </trkpt>
      <trkpt lat="39.613615" lon="-2.281455">
        <ele>814.934297</ele>
        <time>2021-11-03T16:19:53.349Z</time>
      </trkpt>
      <trkpt lat="39.613580" lon="-2.281162">
        <ele>814.551525</ele>
        <time>2021-11-03T16:19:53.349Z</time>
      </trkpt>
      <trkpt lat="39.613561" lon="-2.281118">
        <ele>814.486407</ele>
        <time>2021-11-03T16:19:53.349Z</time>
      </trkpt>
      <trkpt lat="39.613550" lon="-2.281092">
        <ele>814.448114</ele>
        <time>2021-11-03T16:19:53.349Z</time>
      </trkpt>
      <trkpt lat="39.613545" lon="-2.281065">
        <ele>814.412265</ele>
        <time>2021-11-03T16:19:53.349Z</time>
      </trkpt>
      <trkpt lat="39.613541" lon="-2.280982">
        <ele>814.304906</ele>
        <time>2021-11-03T16:19:53.349Z</time>
      </trkpt>
      <trkpt lat="39.613476" lon="-2.280797">
        <ele>814.042410</ele>
        <time>2021-11-03T16:19:53.349Z</time>
      </trkpt>
      <trkpt lat="39.613402" lon="-2.280600">
        <ele>814.014779</ele>
        <time>2021-11-03T16:19:53.349Z</time>
      </trkpt>
      <trkpt lat="39.613334" lon="-2.280543">
        <ele>814.060041</ele>
        <time>2021-11-03T16:19:53.349Z</time>
      </trkpt>
      <trkpt lat="39.613178" lon="-2.280522">
        <ele>814.147741</ele>
        <time>2021-11-03T16:19:53.349Z</time>
      </trkpt>
      <trkpt lat="39.613138" lon="-2.280497">
        <ele>814.172566</ele>
        <time>2021-11-03T16:19:53.349Z</time>
      </trkpt>
      <trkpt lat="39.613101" lon="-2.280461">
        <ele>814.198422</ele>
        <time>2021-11-03T16:19:53.349Z</time>
      </trkpt>
      <trkpt lat="39.613031" lon="-2.280382">
        <ele>814.250290</ele>
        <time>2021-11-03T16:19:53.349Z</time>
      </trkpt>
      <trkpt lat="39.613003" lon="-2.280335">
        <ele>814.275884</ele>
        <time>2021-11-03T16:19:53.349Z</time>
      </trkpt>
      <trkpt lat="39.612975" lon="-2.280290">
        <ele>814.300802</ele>
        <time>2021-11-03T16:19:53.349Z</time>
      </trkpt>
      <trkpt lat="39.612915" lon="-2.280207">
        <ele>814.349832</ele>
        <time>2021-11-03T16:19:53.349Z</time>
      </trkpt>
      <trkpt lat="39.612889" lon="-2.280163">
        <ele>814.373720</ele>
        <time>2021-11-03T16:19:53.349Z</time>
      </trkpt>
      <trkpt lat="39.612816" lon="-2.280016">
        <ele>814.449060</ele>
        <time>2021-11-03T16:19:53.349Z</time>
      </trkpt>
      <trkpt lat="39.612773" lon="-2.279927">
        <ele>814.494316</ele>
        <time>2021-11-03T16:19:53.349Z</time>
      </trkpt>
      <trkpt lat="39.612754" lon="-2.279895">
        <ele>814.511719</ele>
        <time>2021-11-03T16:19:53.349Z</time>
      </trkpt>
      <trkpt lat="39.612688" lon="-2.279790">
        <ele>814.570097</ele>
        <time>2021-11-03T16:19:53.349Z</time>
      </trkpt>
      <trkpt lat="39.612624" lon="-2.279647">
        <ele>814.641339</ele>
        <time>2021-11-03T16:19:53.349Z</time>
      </trkpt>
      <trkpt lat="39.612493" lon="-2.279378">
        <ele>814.778429</ele>
        <time>2021-11-03T16:19:53.349Z</time>
      </trkpt>
      <trkpt lat="39.612421" lon="-2.279214">
        <ele>814.859743</ele>
        <time>2021-11-03T16:19:53.349Z</time>
      </trkpt>
      <trkpt lat="39.612365" lon="-2.279132">
        <ele>814.906948</ele>
        <time>2021-11-03T16:19:53.349Z</time>
      </trkpt>
      <trkpt lat="39.612338" lon="-2.279087">
        <ele>814.931519</ele>
        <time>2021-11-03T16:19:53.349Z</time>
      </trkpt>
      <trkpt lat="39.612308" lon="-2.279036">
        <ele>814.962542</ele>
        <time>2021-11-03T16:19:53.349Z</time>
      </trkpt>
      <trkpt lat="39.612215" lon="-2.278873">
        <ele>815.168160</ele>
        <time>2021-11-03T16:19:53.349Z</time>
      </trkpt>
      <trkpt lat="39.612189" lon="-2.278820">
        <ele>815.231856</ele>
        <time>2021-11-03T16:19:53.349Z</time>
      </trkpt>
      <trkpt lat="39.612007" lon="-2.278433">
        <ele>815.691487</ele>
        <time>2021-11-03T16:19:53.349Z</time>
      </trkpt>
      <trkpt lat="39.611890" lon="-2.278244">
        <ele>815.937273</ele>
        <time>2021-11-03T16:19:53.349Z</time>
      </trkpt>
      <trkpt lat="39.611865" lon="-2.278203">
        <ele>815.990280</ele>
        <time>2021-11-03T16:19:53.349Z</time>
      </trkpt>
      <trkpt lat="39.611798" lon="-2.278072">
        <ele>816.149678</ele>
        <time>2021-11-03T16:19:53.349Z</time>
      </trkpt>
      <trkpt lat="39.611747" lon="-2.277936">
        <ele>816.303011</ele>
        <time>2021-11-03T16:19:53.349Z</time>
      </trkpt>
      <trkpt lat="39.611578" lon="-2.277575">
        <ele>816.731236</ele>
        <time>2021-11-03T16:19:53.349Z</time>
      </trkpt>
      <trkpt lat="39.611541" lon="-2.277481">
        <ele>816.838244</ele>
        <time>2021-11-03T16:19:53.349Z</time>
      </trkpt>
      <trkpt lat="39.611445" lon="-2.277254">
        <ele>817.100754</ele>
        <time>2021-11-03T16:19:53.349Z</time>
      </trkpt>
      <trkpt lat="39.611325" lon="-2.277049">
        <ele>817.350440</ele>
        <time>2021-11-03T16:19:53.349Z</time>
      </trkpt>
      <trkpt lat="39.611180" lon="-2.276874">
        <ele>817.534028</ele>
        <time>2021-11-03T16:19:53.349Z</time>
      </trkpt>
      <trkpt lat="39.611091" lon="-2.276777">
        <ele>817.641786</ele>
        <time>2021-11-03T16:19:53.349Z</time>
      </trkpt>
      <trkpt lat="39.610936" lon="-2.276627">
        <ele>817.821057</ele>
        <time>2021-11-03T16:19:53.349Z</time>
      </trkpt>
      <trkpt lat="39.610872" lon="-2.276572">
        <ele>817.892228</ele>
        <time>2021-11-03T16:19:53.349Z</time>
      </trkpt>
      <trkpt lat="39.610810" lon="-2.276514">
        <ele>817.963092</ele>
        <time>2021-11-03T16:19:53.349Z</time>
      </trkpt>
      <trkpt lat="39.610533" lon="-2.276191">
        <ele>818.308359</ele>
        <time>2021-11-03T16:19:53.349Z</time>
      </trkpt>
      <trkpt lat="39.610505" lon="-2.276149">
        <ele>818.348036</ele>
        <time>2021-11-03T16:19:53.349Z</time>
      </trkpt>
      <trkpt lat="39.610358" lon="-2.275922">
        <ele>818.559872</ele>
        <time>2021-11-03T16:19:53.349Z</time>
      </trkpt>
      <trkpt lat="39.610165" lon="-2.275662">
        <ele>818.817792</ele>
        <time>2021-11-03T16:19:53.349Z</time>
      </trkpt>
      <trkpt lat="39.610075" lon="-2.275537">
        <ele>818.940012</ele>
        <time>2021-11-03T16:19:53.349Z</time>
      </trkpt>
      <trkpt lat="39.609833" lon="-2.275208">
        <ele>819.213871</ele>
        <time>2021-11-03T16:19:53.349Z</time>
      </trkpt>
      <trkpt lat="39.609561" lon="-2.274904">
        <ele>819.484579</ele>
        <time>2021-11-03T16:19:53.349Z</time>
      </trkpt>
      <trkpt lat="39.609396" lon="-2.274774">
        <ele>819.630151</ele>
        <time>2021-11-03T16:19:53.349Z</time>
      </trkpt>
      <trkpt lat="39.609362" lon="-2.274751">
        <ele>819.659067</ele>
        <time>2021-11-03T16:19:53.349Z</time>
      </trkpt>
      <trkpt lat="39.609257" lon="-2.274694">
        <ele>819.744904</ele>
        <time>2021-11-03T16:19:53.349Z</time>
      </trkpt>
      <trkpt lat="39.609139" lon="-2.274647">
        <ele>819.837995</ele>
        <time>2021-11-03T16:19:53.349Z</time>
      </trkpt>
      <trkpt lat="39.609094" lon="-2.274634">
        <ele>819.872764</ele>
        <time>2021-11-03T16:19:53.349Z</time>
      </trkpt>
      <trkpt lat="39.609002" lon="-2.274607">
        <ele>819.943902</ele>
        <time>2021-11-03T16:19:53.349Z</time>
      </trkpt>
      <trkpt lat="39.608953" lon="-2.274592">
        <ele>819.981871</ele>
        <time>2021-11-03T16:19:53.349Z</time>
      </trkpt>
      <trkpt lat="39.608590" lon="-2.274475">
        <ele>820.263958</ele>
        <time>2021-11-03T16:19:53.349Z</time>
      </trkpt>
      <trkpt lat="39.608537" lon="-2.274455">
        <ele>820.305585</ele>
        <time>2021-11-03T16:19:53.349Z</time>
      </trkpt>
      <trkpt lat="39.608483" lon="-2.274437">
        <ele>820.347633</ele>
        <time>2021-11-03T16:19:53.349Z</time>
      </trkpt>
      <trkpt lat="39.608273" lon="-2.274363">
        <ele>820.238460</ele>
        <time>2021-11-03T16:19:53.349Z</time>
      </trkpt>
      <trkpt lat="39.607968" lon="-2.274268">
        <ele>820.080776</ele>
        <time>2021-11-03T16:19:53.349Z</time>
      </trkpt>
      <trkpt lat="39.607579" lon="-2.274129">
        <ele>819.877942</ele>
        <time>2021-11-03T16:19:53.349Z</time>
      </trkpt>
      <trkpt lat="39.607482" lon="-2.274092">
        <ele>819.827116</ele>
        <time>2021-11-03T16:19:53.349Z</time>
      </trkpt>
      <trkpt lat="39.607433" lon="-2.274082">
        <ele>819.802180</ele>
        <time>2021-11-03T16:19:53.349Z</time>
      </trkpt>
      <trkpt lat="39.607383" lon="-2.274070">
        <ele>819.776618</ele>
        <time>2021-11-03T16:19:53.349Z</time>
      </trkpt>
      <trkpt lat="39.607229" lon="-2.273990">
        <ele>819.693228</ele>
        <time>2021-11-03T16:19:53.349Z</time>
      </trkpt>
      <trkpt lat="39.607126" lon="-2.273938">
        <ele>819.637669</ele>
        <time>2021-11-03T16:19:53.349Z</time>
      </trkpt>
      <trkpt lat="39.606832" lon="-2.273766">
        <ele>819.475548</ele>
        <time>2021-11-03T16:19:53.349Z</time>
      </trkpt>
      <trkpt lat="39.606784" lon="-2.273739">
        <ele>819.449249</ele>
        <time>2021-11-03T16:19:53.349Z</time>
      </trkpt>
      <trkpt lat="39.606736" lon="-2.273711">
        <ele>819.436242</ele>
        <time>2021-11-03T16:19:53.349Z</time>
      </trkpt>
      <trkpt lat="39.606689" lon="-2.273682">
        <ele>819.427034</ele>
        <time>2021-11-03T16:19:53.349Z</time>
      </trkpt>
      <trkpt lat="39.606414" lon="-2.273537">
        <ele>819.374516</ele>
        <time>2021-11-03T16:19:53.349Z</time>
      </trkpt>
      <trkpt lat="39.606097" lon="-2.273402">
        <ele>819.315487</ele>
        <time>2021-11-03T16:19:53.349Z</time>
      </trkpt>
      <trkpt lat="39.605882" lon="-2.273330">
        <ele>819.276201</ele>
        <time>2021-11-03T16:19:53.349Z</time>
      </trkpt>
      <trkpt lat="39.605754" lon="-2.273286">
        <ele>819.252773</ele>
        <time>2021-11-03T16:19:53.349Z</time>
      </trkpt>
      <trkpt lat="39.605623" lon="-2.273248">
        <ele>819.229023</ele>
        <time>2021-11-03T16:19:53.349Z</time>
      </trkpt>
      <trkpt lat="39.605537" lon="-2.273290">
        <ele>819.212765</ele>
        <time>2021-11-03T16:19:53.349Z</time>
      </trkpt>
      <trkpt lat="39.605481" lon="-2.273403">
        <ele>819.194450</ele>
        <time>2021-11-03T16:19:53.349Z</time>
      </trkpt>
      <trkpt lat="39.605462" lon="-2.273470">
        <ele>819.184718</ele>
        <time>2021-11-03T16:19:53.349Z</time>
      </trkpt>
      <trkpt lat="39.605263" lon="-2.274009">
        <ele>819.381096</ele>
        <time>2021-11-03T16:19:53.349Z</time>
      </trkpt>
      <trkpt lat="39.605158" lon="-2.274259">
        <ele>819.831025</ele>
        <time>2021-11-03T16:19:53.349Z</time>
      </trkpt>
      <trkpt lat="39.605038" lon="-2.274484">
        <ele>820.263439</ele>
        <time>2021-11-03T16:19:53.349Z</time>
      </trkpt>
      <trkpt lat="39.605002" lon="-2.274529">
        <ele>820.365947</ele>
        <time>2021-11-03T16:19:53.349Z</time>
      </trkpt>
      <trkpt lat="39.604961" lon="-2.274568">
        <ele>820.470201</ele>
        <time>2021-11-03T16:19:53.349Z</time>
      </trkpt>
      <trkpt lat="39.604872" lon="-2.274630">
        <ele>820.677367</ele>
        <time>2021-11-03T16:19:53.349Z</time>
      </trkpt>
      <trkpt lat="39.604780" lon="-2.274676">
        <ele>820.879572</ele>
        <time>2021-11-03T16:19:53.349Z</time>
      </trkpt>
      <trkpt lat="39.604738" lon="-2.274704">
        <ele>820.976411</ele>
        <time>2021-11-03T16:19:53.349Z</time>
      </trkpt>
      <trkpt lat="39.604578" lon="-2.274786">
        <ele>821.329221</ele>
        <time>2021-11-03T16:19:53.349Z</time>
      </trkpt>
      <trkpt lat="39.604507" lon="-2.274740">
        <ele>821.491974</ele>
        <time>2021-11-03T16:19:53.349Z</time>
      </trkpt>
      <trkpt lat="39.604475" lon="-2.274705">
        <ele>821.577801</ele>
        <time>2021-11-03T16:19:53.349Z</time>
      </trkpt>
      <trkpt lat="39.604444" lon="-2.274668">
        <ele>821.664176</ele>
        <time>2021-11-03T16:19:53.349Z</time>
      </trkpt>
      <trkpt lat="39.604313" lon="-2.274537">
        <ele>822.003349</ele>
        <time>2021-11-03T16:19:53.349Z</time>
      </trkpt>
      <trkpt lat="39.604284" lon="-2.274514">
        <ele>822.073053</ele>
        <time>2021-11-03T16:19:53.349Z</time>
      </trkpt>
      <trkpt lat="39.604182" lon="-2.274449">
        <ele>822.306106</ele>
        <time>2021-11-03T16:19:53.349Z</time>
      </trkpt>
      <trkpt lat="39.604102" lon="-2.274401">
        <ele>822.486867</ele>
        <time>2021-11-03T16:19:53.349Z</time>
      </trkpt>
      <trkpt lat="39.604076" lon="-2.274381">
        <ele>822.548853</ele>
        <time>2021-11-03T16:19:53.349Z</time>
      </trkpt>
      <trkpt lat="39.603927" lon="-2.274214">
        <ele>823.101167</ele>
        <time>2021-11-03T16:19:53.349Z</time>
      </trkpt>
      <trkpt lat="39.603891" lon="-2.274156">
        <ele>823.345217</ele>
        <time>2021-11-03T16:19:53.349Z</time>
      </trkpt>
      <trkpt lat="39.603779" lon="-2.274036">
        <ele>823.962874</ele>
        <time>2021-11-03T16:19:53.349Z</time>
      </trkpt>
      <trkpt lat="39.603755" lon="-2.274013">
        <ele>824.089753</ele>
        <time>2021-11-03T16:19:53.349Z</time>
      </trkpt>
      <trkpt lat="39.603680" lon="-2.273937">
        <ele>824.494423</ele>
        <time>2021-11-03T16:19:53.349Z</time>
      </trkpt>
      <trkpt lat="39.603578" lon="-2.273837">
        <ele>825.038069</ele>
        <time>2021-11-03T16:19:53.349Z</time>
      </trkpt>
      <trkpt lat="39.603447" lon="-2.273709">
        <ele>825.735431</ele>
        <time>2021-11-03T16:19:53.349Z</time>
      </trkpt>
      <trkpt lat="39.603394" lon="-2.273659">
        <ele>826.014089</ele>
        <time>2021-11-03T16:19:53.349Z</time>
      </trkpt>
      <trkpt lat="39.603343" lon="-2.273606">
        <ele>826.291948</ele>
        <time>2021-11-03T16:19:53.349Z</time>
      </trkpt>
      <trkpt lat="39.603216" lon="-2.273478">
        <ele>826.975796</ele>
        <time>2021-11-03T16:19:53.349Z</time>
      </trkpt>
      <trkpt lat="39.603170" lon="-2.273425">
        <ele>827.237394</ele>
        <time>2021-11-03T16:19:53.349Z</time>
      </trkpt>
      <trkpt lat="39.603147" lon="-2.273397">
        <ele>827.371507</ele>
        <time>2021-11-03T16:19:53.349Z</time>
      </trkpt>
      <trkpt lat="39.602990" lon="-2.273148">
        <ele>828.425810</ele>
        <time>2021-11-03T16:19:53.349Z</time>
      </trkpt>
      <trkpt lat="39.602895" lon="-2.272989">
        <ele>829.085119</ele>
        <time>2021-11-03T16:19:53.349Z</time>
      </trkpt>
      <trkpt lat="39.602862" lon="-2.272926">
        <ele>829.334746</ele>
        <time>2021-11-03T16:19:53.349Z</time>
      </trkpt>
      <trkpt lat="39.602791" lon="-2.272806">
        <ele>829.830524</ele>
        <time>2021-11-03T16:19:53.349Z</time>
      </trkpt>
      <trkpt lat="39.602739" lon="-2.272714">
        <ele>830.204408</ele>
        <time>2021-11-03T16:19:53.349Z</time>
      </trkpt>
      <trkpt lat="39.602616" lon="-2.272500">
        <ele>830.891736</ele>
        <time>2021-11-03T16:19:53.349Z</time>
      </trkpt>
      <trkpt lat="39.602598" lon="-2.272470">
        <ele>830.978372</ele>
        <time>2021-11-03T16:19:53.349Z</time>
      </trkpt>
      <trkpt lat="39.602492" lon="-2.272281">
        <ele>831.511014</ele>
        <time>2021-11-03T16:19:53.349Z</time>
      </trkpt>
      <trkpt lat="39.602420" lon="-2.272154">
        <ele>831.870277</ele>
        <time>2021-11-03T16:19:53.349Z</time>
      </trkpt>
      <trkpt lat="39.602385" lon="-2.272095">
        <ele>832.039937</ele>
        <time>2021-11-03T16:19:53.349Z</time>
      </trkpt>
      <trkpt lat="39.602366" lon="-2.272060">
        <ele>832.137491</ele>
        <time>2021-11-03T16:19:53.349Z</time>
      </trkpt>
      <trkpt lat="39.602289" lon="-2.271929">
        <ele>832.512914</ele>
        <time>2021-11-03T16:19:53.349Z</time>
      </trkpt>
      <trkpt lat="39.602212" lon="-2.271794">
        <ele>832.895623</ele>
        <time>2021-11-03T16:19:53.349Z</time>
      </trkpt>
      <trkpt lat="39.602155" lon="-2.271691">
        <ele>833.184571</ele>
        <time>2021-11-03T16:19:53.349Z</time>
      </trkpt>
      <trkpt lat="39.602097" lon="-2.271588">
        <ele>833.475254</ele>
        <time>2021-11-03T16:19:53.349Z</time>
      </trkpt>
      <trkpt lat="39.602056" lon="-2.271523">
        <ele>833.666657</ele>
        <time>2021-11-03T16:19:53.349Z</time>
      </trkpt>
      <trkpt lat="39.601982" lon="-2.271396">
        <ele>834.029457</ele>
        <time>2021-11-03T16:19:53.349Z</time>
      </trkpt>
      <trkpt lat="39.601964" lon="-2.271365">
        <ele>834.117903</ele>
        <time>2021-11-03T16:19:53.349Z</time>
      </trkpt>
      <trkpt lat="39.601908" lon="-2.271277">
        <ele>834.377958</ele>
        <time>2021-11-03T16:19:53.349Z</time>
      </trkpt>
      <trkpt lat="39.601815" lon="-2.271124">
        <ele>834.821994</ele>
        <time>2021-11-03T16:19:53.349Z</time>
      </trkpt>
      <trkpt lat="39.601797" lon="-2.271092">
        <ele>834.912270</ele>
        <time>2021-11-03T16:19:53.349Z</time>
      </trkpt>
      <trkpt lat="39.601740" lon="-2.271002">
        <ele>835.177723</ele>
        <time>2021-11-03T16:19:53.349Z</time>
      </trkpt>
      <trkpt lat="39.601649" lon="-2.270848">
        <ele>835.619927</ele>
        <time>2021-11-03T16:19:53.349Z</time>
      </trkpt>
      <trkpt lat="39.601574" lon="-2.270727">
        <ele>835.943442</ele>
        <time>2021-11-03T16:19:53.349Z</time>
      </trkpt>
      <trkpt lat="39.601462" lon="-2.270540">
        <ele>836.397453</ele>
        <time>2021-11-03T16:19:53.349Z</time>
      </trkpt>
      <trkpt lat="39.601425" lon="-2.270476">
        <ele>836.550826</ele>
        <time>2021-11-03T16:19:53.349Z</time>
      </trkpt>
      <trkpt lat="39.601243" lon="-2.270170">
        <ele>837.291815</ele>
        <time>2021-11-03T16:19:53.349Z</time>
      </trkpt>
      <trkpt lat="39.601200" lon="-2.270100">
        <ele>837.463421</ele>
        <time>2021-11-03T16:19:53.349Z</time>
      </trkpt>
      <trkpt lat="39.601157" lon="-2.270030">
        <ele>837.635026</ele>
        <time>2021-11-03T16:19:53.349Z</time>
      </trkpt>
      <trkpt lat="39.601029" lon="-2.269819">
        <ele>838.149800</ele>
        <time>2021-11-03T16:19:53.349Z</time>
      </trkpt>
      <trkpt lat="39.601008" lon="-2.269785">
        <ele>838.233329</ele>
        <time>2021-11-03T16:19:53.349Z</time>
      </trkpt>
      <trkpt lat="39.600839" lon="-2.269510">
        <ele>838.907605</ele>
        <time>2021-11-03T16:19:53.349Z</time>
      </trkpt>
      <trkpt lat="39.600779" lon="-2.269407">
        <ele>839.155119</ele>
        <time>2021-11-03T16:19:53.349Z</time>
      </trkpt>
      <trkpt lat="39.600703" lon="-2.269280">
        <ele>839.463362</ele>
        <time>2021-11-03T16:19:53.349Z</time>
      </trkpt>
      <trkpt lat="39.600683" lon="-2.269251">
        <ele>839.537967</ele>
        <time>2021-11-03T16:19:53.349Z</time>
      </trkpt>
      <trkpt lat="39.600644" lon="-2.269193">
        <ele>839.685529</ele>
        <time>2021-11-03T16:19:53.349Z</time>
      </trkpt>
      <trkpt lat="39.600584" lon="-2.269110">
        <ele>839.903691</ele>
        <time>2021-11-03T16:19:53.349Z</time>
      </trkpt>
      <trkpt lat="39.600522" lon="-2.269027">
        <ele>840.125287</ele>
        <time>2021-11-03T16:19:53.349Z</time>
      </trkpt>
      <trkpt lat="39.600481" lon="-2.268973">
        <ele>840.277245</ele>
        <time>2021-11-03T16:19:53.349Z</time>
      </trkpt>
      <trkpt lat="39.600330" lon="-2.268790">
        <ele>841.049812</ele>
        <time>2021-11-03T16:19:53.349Z</time>
      </trkpt>
      <trkpt lat="39.600287" lon="-2.268740">
        <ele>841.265706</ele>
        <time>2021-11-03T16:19:53.349Z</time>
      </trkpt>
      <trkpt lat="39.600157" lon="-2.268589">
        <ele>841.918097</ele>
        <time>2021-11-03T16:19:53.349Z</time>
      </trkpt>
      <trkpt lat="39.600023" lon="-2.268440">
        <ele>842.577946</ele>
        <time>2021-11-03T16:19:53.349Z</time>
      </trkpt>
      <trkpt lat="39.599979" lon="-2.268389">
        <ele>842.798549</ele>
        <time>2021-11-03T16:19:53.349Z</time>
      </trkpt>
      <trkpt lat="39.599934" lon="-2.268340">
        <ele>843.018207</ele>
        <time>2021-11-03T16:19:53.349Z</time>
      </trkpt>
      <trkpt lat="39.599796" lon="-2.268187">
        <ele>843.696915</ele>
        <time>2021-11-03T16:19:53.349Z</time>
      </trkpt>
      <trkpt lat="39.599749" lon="-2.268134">
        <ele>843.929745</ele>
        <time>2021-11-03T16:19:53.349Z</time>
      </trkpt>
      <trkpt lat="39.599589" lon="-2.267951">
        <ele>844.727245</ele>
        <time>2021-11-03T16:19:53.349Z</time>
      </trkpt>
      <trkpt lat="39.599567" lon="-2.267923">
        <ele>844.842470</ele>
        <time>2021-11-03T16:19:53.349Z</time>
      </trkpt>
      <trkpt lat="39.599374" lon="-2.267682">
        <ele>845.844003</ele>
        <time>2021-11-03T16:19:53.349Z</time>
      </trkpt>
      <trkpt lat="39.599353" lon="-2.267656">
        <ele>845.952534</ele>
        <time>2021-11-03T16:19:53.349Z</time>
      </trkpt>
      <trkpt lat="39.599162" lon="-2.267411">
        <ele>846.956760</ele>
        <time>2021-11-03T16:19:53.349Z</time>
      </trkpt>
      <trkpt lat="39.599140" lon="-2.267385">
        <ele>847.064767</ele>
        <time>2021-11-03T16:19:53.349Z</time>
      </trkpt>
      <trkpt lat="39.599102" lon="-2.267335">
        <ele>847.259330</ele>
        <time>2021-11-03T16:19:53.349Z</time>
      </trkpt>
      <trkpt lat="39.599074" lon="-2.267276">
        <ele>847.451298</ele>
        <time>2021-11-03T16:19:53.349Z</time>
      </trkpt>
      <trkpt lat="39.599061" lon="-2.267246">
        <ele>847.546652</ele>
        <time>2021-11-03T16:19:53.349Z</time>
      </trkpt>
      <trkpt lat="39.599049" lon="-2.267215">
        <ele>847.642762</ele>
        <time>2021-11-03T16:19:53.349Z</time>
      </trkpt>
      <trkpt lat="39.599039" lon="-2.267185">
        <ele>847.733318</ele>
        <time>2021-11-03T16:19:53.349Z</time>
      </trkpt>
      <trkpt lat="39.599024" lon="-2.267120">
        <ele>847.921296</ele>
        <time>2021-11-03T16:19:53.349Z</time>
      </trkpt>
      <trkpt lat="39.599013" lon="-2.267054">
        <ele>848.108370</ele>
        <time>2021-11-03T16:19:53.349Z</time>
      </trkpt>
      <trkpt lat="39.598980" lon="-2.266965">
        <ele>848.381998</ele>
        <time>2021-11-03T16:19:53.349Z</time>
      </trkpt>
      <trkpt lat="39.598935" lon="-2.266844">
        <ele>848.754219</ele>
        <time>2021-11-03T16:19:53.349Z</time>
      </trkpt>
      <trkpt lat="39.598897" lon="-2.266722">
        <ele>849.118778</ele>
        <time>2021-11-03T16:19:53.349Z</time>
      </trkpt>
      <trkpt lat="39.598873" lon="-2.266662">
        <ele>849.306065</ele>
        <time>2021-11-03T16:19:53.349Z</time>
      </trkpt>
      <trkpt lat="39.598830" lon="-2.266537">
        <ele>849.685309</ele>
        <time>2021-11-03T16:19:53.349Z</time>
      </trkpt>
      <trkpt lat="39.598791" lon="-2.266415">
        <ele>850.051231</ele>
        <time>2021-11-03T16:19:53.349Z</time>
      </trkpt>
      <trkpt lat="39.598751" lon="-2.266293">
        <ele>850.418545</ele>
        <time>2021-11-03T16:19:53.349Z</time>
      </trkpt>
      <trkpt lat="39.598741" lon="-2.266262">
        <ele>850.511650</ele>
        <time>2021-11-03T16:19:53.349Z</time>
      </trkpt>
      <trkpt lat="39.598730" lon="-2.266231">
        <ele>850.606202</ele>
        <time>2021-11-03T16:19:53.349Z</time>
      </trkpt>
      <trkpt lat="39.598698" lon="-2.266138">
        <ele>850.888372</ele>
        <time>2021-11-03T16:19:53.349Z</time>
      </trkpt>
      <trkpt lat="39.598687" lon="-2.266108">
        <ele>850.980414</ele>
        <time>2021-11-03T16:19:53.349Z</time>
      </trkpt>
      <trkpt lat="39.598643" lon="-2.265980">
        <ele>851.368714</ele>
        <time>2021-11-03T16:19:53.349Z</time>
      </trkpt>
      <trkpt lat="39.598598" lon="-2.265850">
        <ele>851.763541</ele>
        <time>2021-11-03T16:19:53.349Z</time>
      </trkpt>
      <trkpt lat="39.598489" lon="-2.265509">
        <ele>852.786314</ele>
        <time>2021-11-03T16:19:53.349Z</time>
      </trkpt>
      <trkpt lat="39.598392" lon="-2.265229">
        <ele>853.402920</ele>
        <time>2021-11-03T16:19:53.349Z</time>
      </trkpt>
      <trkpt lat="39.598241" lon="-2.264830">
        <ele>853.089779</ele>
        <time>2021-11-03T16:19:53.349Z</time>
      </trkpt>
      <trkpt lat="39.598187" lon="-2.264682">
        <ele>852.974424</ele>
        <time>2021-11-03T16:19:53.349Z</time>
      </trkpt>
      <trkpt lat="39.598168" lon="-2.264630">
        <ele>852.933884</ele>
        <time>2021-11-03T16:19:53.349Z</time>
      </trkpt>
      <trkpt lat="39.598107" lon="-2.264479">
        <ele>852.813781</ele>
        <time>2021-11-03T16:19:53.349Z</time>
      </trkpt>
      <trkpt lat="39.598085" lon="-2.264425">
        <ele>852.770752</ele>
        <time>2021-11-03T16:19:53.349Z</time>
      </trkpt>
      <trkpt lat="39.597956" lon="-2.264104">
        <ele>852.515720</ele>
        <time>2021-11-03T16:19:53.349Z</time>
      </trkpt>
      <trkpt lat="39.597842" lon="-2.263853">
        <ele>852.310475</ele>
        <time>2021-11-03T16:19:53.349Z</time>
      </trkpt>
      <trkpt lat="39.597820" lon="-2.263802">
        <ele>852.269302</ele>
        <time>2021-11-03T16:19:53.349Z</time>
      </trkpt>
      <trkpt lat="39.597753" lon="-2.263650">
        <ele>852.145945</ele>
        <time>2021-11-03T16:19:53.349Z</time>
      </trkpt>
      <trkpt lat="39.597687" lon="-2.263498">
        <ele>852.023039</ele>
        <time>2021-11-03T16:19:53.349Z</time>
      </trkpt>
      <trkpt lat="39.597554" lon="-2.263196">
        <ele>851.872377</ele>
        <time>2021-11-03T16:19:53.349Z</time>
      </trkpt>
      <trkpt lat="39.597330" lon="-2.262695">
        <ele>852.840629</ele>
        <time>2021-11-03T16:19:53.349Z</time>
      </trkpt>
      <trkpt lat="39.597287" lon="-2.262597">
        <ele>853.029146</ele>
        <time>2021-11-03T16:19:53.349Z</time>
      </trkpt>
      <trkpt lat="39.597209" lon="-2.262408">
        <ele>853.387543</ele>
        <time>2021-11-03T16:19:53.349Z</time>
      </trkpt>
      <trkpt lat="39.597095" lon="-2.262137">
        <ele>853.903663</ele>
        <time>2021-11-03T16:19:53.349Z</time>
      </trkpt>
      <trkpt lat="39.596977" lon="-2.261855">
        <ele>854.440082</ele>
        <time>2021-11-03T16:19:53.349Z</time>
      </trkpt>
      <trkpt lat="39.596945" lon="-2.261779">
        <ele>854.584856</ele>
        <time>2021-11-03T16:19:53.349Z</time>
      </trkpt>
      <trkpt lat="39.596878" lon="-2.261625">
        <ele>854.880485</ele>
        <time>2021-11-03T16:19:53.349Z</time>
      </trkpt>
      <trkpt lat="39.596793" lon="-2.261422">
        <ele>855.266691</ele>
        <time>2021-11-03T16:19:53.349Z</time>
      </trkpt>
      <trkpt lat="39.596617" lon="-2.261024">
        <ele>856.296254</ele>
        <time>2021-11-03T16:19:53.349Z</time>
      </trkpt>
      <trkpt lat="39.596531" lon="-2.260829">
        <ele>856.974408</ele>
        <time>2021-11-03T16:19:53.349Z</time>
      </trkpt>
      <trkpt lat="39.596482" lon="-2.260716">
        <ele>857.365774</ele>
        <time>2021-11-03T16:19:53.349Z</time>
      </trkpt>
      <trkpt lat="39.596451" lon="-2.260640">
        <ele>857.625322</ele>
        <time>2021-11-03T16:19:53.349Z</time>
      </trkpt>
      <trkpt lat="39.596313" lon="-2.260363">
        <ele>858.620920</ele>
        <time>2021-11-03T16:19:53.349Z</time>
      </trkpt>
      <trkpt lat="39.596254" lon="-2.260270">
        <ele>858.984520</ele>
        <time>2021-11-03T16:19:53.349Z</time>
      </trkpt>
      <trkpt lat="39.596186" lon="-2.260140">
        <ele>859.458768</ele>
        <time>2021-11-03T16:19:53.349Z</time>
      </trkpt>
      <trkpt lat="39.596120" lon="-2.260010">
        <ele>859.928660</ele>
        <time>2021-11-03T16:19:53.349Z</time>
      </trkpt>
      <trkpt lat="39.596058" lon="-2.259883">
        <ele>860.382444</ele>
        <time>2021-11-03T16:19:53.349Z</time>
      </trkpt>
      <trkpt lat="39.595981" lon="-2.259725">
        <ele>860.946714</ele>
        <time>2021-11-03T16:19:53.349Z</time>
      </trkpt>
      <trkpt lat="39.595935" lon="-2.259629">
        <ele>861.287928</ele>
        <time>2021-11-03T16:19:53.349Z</time>
      </trkpt>
      <trkpt lat="39.595862" lon="-2.259475">
        <ele>861.833662</ele>
        <time>2021-11-03T16:19:53.349Z</time>
      </trkpt>
      <trkpt lat="39.595825" lon="-2.259422">
        <ele>862.049523</ele>
        <time>2021-11-03T16:19:53.349Z</time>
      </trkpt>
      <trkpt lat="39.595696" lon="-2.259172">
        <ele>862.862785</ele>
        <time>2021-11-03T16:19:53.349Z</time>
      </trkpt>
      <trkpt lat="39.595678" lon="-2.259142">
        <ele>862.924250</ele>
        <time>2021-11-03T16:19:53.349Z</time>
      </trkpt>
      <trkpt lat="39.595578" lon="-2.259003">
        <ele>863.231667</ele>
        <time>2021-11-03T16:19:53.349Z</time>
      </trkpt>
      <trkpt lat="39.595491" lon="-2.258896">
        <ele>863.483129</ele>
        <time>2021-11-03T16:19:53.349Z</time>
      </trkpt>
      <trkpt lat="39.595342" lon="-2.258762">
        <ele>863.863442</ele>
        <time>2021-11-03T16:19:53.349Z</time>
      </trkpt>
      <trkpt lat="39.595237" lon="-2.258678">
        <ele>864.122216</ele>
        <time>2021-11-03T16:19:53.349Z</time>
      </trkpt>
      <trkpt lat="39.595018" lon="-2.258487">
        <ele>864.675775</ele>
        <time>2021-11-03T16:19:53.349Z</time>
      </trkpt>
      <trkpt lat="39.594834" lon="-2.258288">
        <ele>865.178271</ele>
        <time>2021-11-03T16:19:53.349Z</time>
      </trkpt>
      <trkpt lat="39.594762" lon="-2.258191">
        <ele>865.395999</ele>
        <time>2021-11-03T16:19:53.349Z</time>
      </trkpt>
      <trkpt lat="39.594674" lon="-2.258054">
        <ele>865.684329</ele>
        <time>2021-11-03T16:19:53.349Z</time>
      </trkpt>
      <trkpt lat="39.594529" lon="-2.257813">
        <ele>866.178623</ele>
        <time>2021-11-03T16:19:53.349Z</time>
      </trkpt>
      <trkpt lat="39.594465" lon="-2.257704">
        <ele>866.400158</ele>
        <time>2021-11-03T16:19:53.349Z</time>
      </trkpt>
      <trkpt lat="39.594278" lon="-2.257383">
        <ele>865.817883</ele>
        <time>2021-11-03T16:19:53.349Z</time>
      </trkpt>
      <trkpt lat="39.594103" lon="-2.257093">
        <ele>865.012185</ele>
        <time>2021-11-03T16:19:53.349Z</time>
      </trkpt>
      <trkpt lat="39.594071" lon="-2.257039">
        <ele>864.863178</ele>
        <time>2021-11-03T16:19:53.349Z</time>
      </trkpt>
      <trkpt lat="39.593970" lon="-2.256870">
        <ele>864.395365</ele>
        <time>2021-11-03T16:19:53.349Z</time>
      </trkpt>
      <trkpt lat="39.593901" lon="-2.256751">
        <ele>864.069608</ele>
        <time>2021-11-03T16:19:53.349Z</time>
      </trkpt>
      <trkpt lat="39.593797" lon="-2.256567">
        <ele>863.570468</ele>
        <time>2021-11-03T16:19:53.349Z</time>
      </trkpt>
      <trkpt lat="39.593660" lon="-2.256316">
        <ele>862.897659</ele>
        <time>2021-11-03T16:19:53.349Z</time>
      </trkpt>
      <trkpt lat="39.593539" lon="-2.256053">
        <ele>862.227643</ele>
        <time>2021-11-03T16:19:53.349Z</time>
      </trkpt>
      <trkpt lat="39.593516" lon="-2.255983">
        <ele>862.061187</ele>
        <time>2021-11-03T16:19:53.349Z</time>
      </trkpt>
      <trkpt lat="39.593460" lon="-2.255769">
        <ele>861.566831</ele>
        <time>2021-11-03T16:19:53.349Z</time>
      </trkpt>
      <trkpt lat="39.593404" lon="-2.255483">
        <ele>861.191516</ele>
        <time>2021-11-03T16:19:53.349Z</time>
      </trkpt>
      <trkpt lat="39.593342" lon="-2.255208">
        <ele>860.903562</ele>
        <time>2021-11-03T16:19:53.349Z</time>
      </trkpt>
      <trkpt lat="39.593235" lon="-2.254880">
        <ele>860.545607</ele>
        <time>2021-11-03T16:19:53.349Z</time>
      </trkpt>
      <trkpt lat="39.593038" lon="-2.254452">
        <ele>860.044586</ele>
        <time>2021-11-03T16:19:53.349Z</time>
      </trkpt>
      <trkpt lat="39.592980" lon="-2.254330">
        <ele>859.900522</ele>
        <time>2021-11-03T16:19:53.349Z</time>
      </trkpt>
      <trkpt lat="39.592805" lon="-2.253962">
        <ele>859.465934</ele>
        <time>2021-11-03T16:19:53.349Z</time>
      </trkpt>
      <trkpt lat="39.592615" lon="-2.253545">
        <ele>859.219236</ele>
        <time>2021-11-03T16:19:53.349Z</time>
      </trkpt>
      <trkpt lat="39.592589" lon="-2.253486">
        <ele>859.321244</ele>
        <time>2021-11-03T16:19:53.349Z</time>
      </trkpt>
      <trkpt lat="39.592354" lon="-2.252996">
        <ele>860.187474</ele>
        <time>2021-11-03T16:19:53.349Z</time>
      </trkpt>
      <trkpt lat="39.592235" lon="-2.252623">
        <ele>860.793385</ele>
        <time>2021-11-03T16:19:53.349Z</time>
      </trkpt>
      <trkpt lat="39.592212" lon="-2.252460">
        <ele>861.042097</ele>
        <time>2021-11-03T16:19:53.349Z</time>
      </trkpt>
      <trkpt lat="39.592199" lon="-2.252303">
        <ele>861.279093</ele>
        <time>2021-11-03T16:19:53.349Z</time>
      </trkpt>
      <trkpt lat="39.592195" lon="-2.252202">
        <ele>861.430882</ele>
        <time>2021-11-03T16:19:53.349Z</time>
      </trkpt>
      <trkpt lat="39.592173" lon="-2.251898">
        <ele>861.889159</ele>
        <time>2021-11-03T16:19:53.349Z</time>
      </trkpt>
      <trkpt lat="39.592163" lon="-2.251666">
        <ele>862.237909</ele>
        <time>2021-11-03T16:19:53.349Z</time>
      </trkpt>
      <trkpt lat="39.592161" lon="-2.251585">
        <ele>862.359543</ele>
        <time>2021-11-03T16:19:53.349Z</time>
      </trkpt>
      <trkpt lat="39.592149" lon="-2.251361">
        <ele>862.696140</ele>
        <time>2021-11-03T16:19:53.349Z</time>
      </trkpt>
      <trkpt lat="39.592148" lon="-2.251326">
        <ele>862.748523</ele>
        <time>2021-11-03T16:19:53.349Z</time>
      </trkpt>
      <trkpt lat="39.592130" lon="-2.251036">
        <ele>863.183662</ele>
        <time>2021-11-03T16:19:53.349Z</time>
      </trkpt>
      <trkpt lat="39.592102" lon="-2.250729">
        <ele>863.646027</ele>
        <time>2021-11-03T16:19:53.349Z</time>
      </trkpt>
      <trkpt lat="39.592094" lon="-2.250651">
        <ele>863.763715</ele>
        <time>2021-11-03T16:19:53.349Z</time>
      </trkpt>
      <trkpt lat="39.592091" lon="-2.250612">
        <ele>863.822334</ele>
        <time>2021-11-03T16:19:53.349Z</time>
      </trkpt>
      <trkpt lat="39.592056" lon="-2.250138">
        <ele>864.534513</ele>
        <time>2021-11-03T16:19:53.349Z</time>
      </trkpt>
      <trkpt lat="39.592034" lon="-2.249760">
        <ele>865.101473</ele>
        <time>2021-11-03T16:19:53.349Z</time>
      </trkpt>
      <trkpt lat="39.592004" lon="-2.249341">
        <ele>865.730844</ele>
        <time>2021-11-03T16:19:53.349Z</time>
      </trkpt>
      <trkpt lat="39.591996" lon="-2.249247">
        <ele>865.872289</ele>
        <time>2021-11-03T16:19:53.349Z</time>
      </trkpt>
      <trkpt lat="39.591960" lon="-2.248860">
        <ele>866.088106</ele>
        <time>2021-11-03T16:19:53.349Z</time>
      </trkpt>
      <trkpt lat="39.591914" lon="-2.248257">
        <ele>866.131785</ele>
        <time>2021-11-03T16:19:53.349Z</time>
      </trkpt>
      <trkpt lat="39.591898" lon="-2.248053">
        <ele>866.146566</ele>
        <time>2021-11-03T16:19:53.349Z</time>
      </trkpt>
      <trkpt lat="39.591860" lon="-2.247585">
        <ele>866.180489</ele>
        <time>2021-11-03T16:19:53.349Z</time>
      </trkpt>
      <trkpt lat="39.591804" lon="-2.246855">
        <ele>866.233370</ele>
        <time>2021-11-03T16:19:53.349Z</time>
      </trkpt>
      <trkpt lat="39.591799" lon="-2.246804">
        <ele>866.237076</ele>
        <time>2021-11-03T16:19:53.349Z</time>
      </trkpt>
      <trkpt lat="39.591771" lon="-2.246385">
        <ele>866.093114</ele>
        <time>2021-11-03T16:19:53.349Z</time>
      </trkpt>
      <trkpt lat="39.591706" lon="-2.245853">
        <ele>865.903567</ele>
        <time>2021-11-03T16:19:53.349Z</time>
      </trkpt>
      <trkpt lat="39.591577" lon="-2.245502">
        <ele>865.766724</ele>
        <time>2021-11-03T16:19:53.349Z</time>
      </trkpt>
      <trkpt lat="39.591554" lon="-2.245455">
        <ele>865.747132</ele>
        <time>2021-11-03T16:19:53.349Z</time>
      </trkpt>
      <trkpt lat="39.591404" lon="-2.245165">
        <ele>865.624226</ele>
        <time>2021-11-03T16:19:53.349Z</time>
      </trkpt>
      <trkpt lat="39.591269" lon="-2.244912">
        <ele>865.515936</ele>
        <time>2021-11-03T16:19:53.349Z</time>
      </trkpt>
      <trkpt lat="39.591159" lon="-2.244698">
        <ele>865.425414</ele>
        <time>2021-11-03T16:19:53.349Z</time>
      </trkpt>
      <trkpt lat="39.591017" lon="-2.244423">
        <ele>865.260930</ele>
        <time>2021-11-03T16:19:53.349Z</time>
      </trkpt>
      <trkpt lat="39.590957" lon="-2.244308">
        <ele>865.190238</ele>
        <time>2021-11-03T16:19:53.349Z</time>
      </trkpt>
      <trkpt lat="39.590707" lon="-2.243842">
        <ele>864.901212</ele>
        <time>2021-11-03T16:19:53.349Z</time>
      </trkpt>
      <trkpt lat="39.590588" lon="-2.243613">
        <ele>864.760619</ele>
        <time>2021-11-03T16:19:53.349Z</time>
      </trkpt>
      <trkpt lat="39.590444" lon="-2.243353">
        <ele>864.597637</ele>
        <time>2021-11-03T16:19:53.349Z</time>
      </trkpt>
      <trkpt lat="39.590357" lon="-2.243228">
        <ele>864.511899</ele>
        <time>2021-11-03T16:19:53.349Z</time>
      </trkpt>
      <trkpt lat="39.590306" lon="-2.243149">
        <ele>864.459440</ele>
        <time>2021-11-03T16:19:53.349Z</time>
      </trkpt>
      <trkpt lat="39.590203" lon="-2.243126">
        <ele>864.390404</ele>
        <time>2021-11-03T16:19:53.349Z</time>
      </trkpt>
      <trkpt lat="39.590167" lon="-2.243147">
        <ele>864.364332</ele>
        <time>2021-11-03T16:19:53.349Z</time>
      </trkpt>
      <trkpt lat="39.590028" lon="-2.243275">
        <ele>864.251748</ele>
        <time>2021-11-03T16:19:53.349Z</time>
      </trkpt>
      <trkpt lat="39.589637" lon="-2.243628">
        <ele>864.412176</ele>
        <time>2021-11-03T16:19:53.349Z</time>
      </trkpt>
      <trkpt lat="39.589554" lon="-2.243689">
        <ele>864.451951</ele>
        <time>2021-11-03T16:19:53.349Z</time>
      </trkpt>
      <trkpt lat="39.589206" lon="-2.243895">
        <ele>864.611445</ele>
        <time>2021-11-03T16:19:53.349Z</time>
      </trkpt>
      <trkpt lat="39.589161" lon="-2.243916">
        <ele>864.631385</ele>
        <time>2021-11-03T16:19:53.349Z</time>
      </trkpt>
      <trkpt lat="39.589072" lon="-2.243954">
        <ele>864.670454</ele>
        <time>2021-11-03T16:19:53.349Z</time>
      </trkpt>
      <trkpt lat="39.588843" lon="-2.244009">
        <ele>864.767564</ele>
        <time>2021-11-03T16:19:53.349Z</time>
      </trkpt>
      <trkpt lat="39.588421" lon="-2.244010">
        <ele>864.943529</ele>
        <time>2021-11-03T16:19:53.349Z</time>
      </trkpt>
      <trkpt lat="39.588006" lon="-2.243930">
        <ele>865.482233</ele>
        <time>2021-11-03T16:19:53.349Z</time>
      </trkpt>
      <trkpt lat="39.587869" lon="-2.243896">
        <ele>865.691363</ele>
        <time>2021-11-03T16:19:53.349Z</time>
      </trkpt>
      <trkpt lat="39.587368" lon="-2.243775">
        <ele>866.455423</ele>
        <time>2021-11-03T16:19:53.349Z</time>
      </trkpt>
      <trkpt lat="39.587323" lon="-2.243766">
        <ele>866.523689</ele>
        <time>2021-11-03T16:19:53.349Z</time>
      </trkpt>
      <trkpt lat="39.586989" lon="-2.243695">
        <ele>867.031138</ele>
        <time>2021-11-03T16:19:53.349Z</time>
      </trkpt>
      <trkpt lat="39.586941" lon="-2.243684">
        <ele>867.104219</ele>
        <time>2021-11-03T16:19:53.349Z</time>
      </trkpt>
      <trkpt lat="39.586638" lon="-2.243618">
        <ele>867.564870</ele>
        <time>2021-11-03T16:19:53.349Z</time>
      </trkpt>
      <trkpt lat="39.586135" lon="-2.243557">
        <ele>867.130850</ele>
        <time>2021-11-03T16:19:53.349Z</time>
      </trkpt>
      <trkpt lat="39.586075" lon="-2.243552">
        <ele>867.055053</ele>
        <time>2021-11-03T16:19:53.349Z</time>
      </trkpt>
      <trkpt lat="39.585953" lon="-2.243540">
        <ele>866.900806</ele>
        <time>2021-11-03T16:19:53.349Z</time>
      </trkpt>
      <trkpt lat="39.585834" lon="-2.243531">
        <ele>866.750528</ele>
        <time>2021-11-03T16:19:53.349Z</time>
      </trkpt>
      <trkpt lat="39.585424" lon="-2.243512">
        <ele>866.233312</ele>
        <time>2021-11-03T16:19:53.349Z</time>
      </trkpt>
      <trkpt lat="39.585308" lon="-2.243502">
        <ele>866.086749</ele>
        <time>2021-11-03T16:19:53.349Z</time>
      </trkpt>
      <trkpt lat="39.584905" lon="-2.243479">
        <ele>865.578196</ele>
        <time>2021-11-03T16:19:53.349Z</time>
      </trkpt>
      <trkpt lat="39.584847" lon="-2.243477">
        <ele>865.505050</ele>
        <time>2021-11-03T16:19:53.349Z</time>
      </trkpt>
      <trkpt lat="39.584443" lon="-2.243470">
        <ele>864.608505</ele>
        <time>2021-11-03T16:19:53.349Z</time>
      </trkpt>
      <trkpt lat="39.584327" lon="-2.243483">
        <ele>864.323727</ele>
        <time>2021-11-03T16:19:53.349Z</time>
      </trkpt>
      <trkpt lat="39.583874" lon="-2.243640">
        <ele>863.176901</ele>
        <time>2021-11-03T16:19:53.349Z</time>
      </trkpt>
      <trkpt lat="39.583655" lon="-2.243735">
        <ele>862.612113</ele>
        <time>2021-11-03T16:19:53.349Z</time>
      </trkpt>
      <trkpt lat="39.583601" lon="-2.243759">
        <ele>862.472502</ele>
        <time>2021-11-03T16:19:53.349Z</time>
      </trkpt>
      <trkpt lat="39.583490" lon="-2.243803">
        <ele>862.188623</ele>
        <time>2021-11-03T16:19:53.349Z</time>
      </trkpt>
      <trkpt lat="39.583379" lon="-2.243850">
        <ele>861.903040</ele>
        <time>2021-11-03T16:19:53.349Z</time>
      </trkpt>
      <trkpt lat="39.583045" lon="-2.243998">
        <ele>861.039793</ele>
        <time>2021-11-03T16:19:53.349Z</time>
      </trkpt>
      <trkpt lat="39.582720" lon="-2.244168">
        <ele>861.132271</ele>
        <time>2021-11-03T16:19:53.349Z</time>
      </trkpt>
      <trkpt lat="39.582392" lon="-2.244473">
        <ele>861.280521</ele>
        <time>2021-11-03T16:19:53.349Z</time>
      </trkpt>
      <trkpt lat="39.582351" lon="-2.244525">
        <ele>861.301584</ele>
        <time>2021-11-03T16:19:53.349Z</time>
      </trkpt>
      <trkpt lat="39.581993" lon="-2.244996">
        <ele>861.488889</ele>
        <time>2021-11-03T16:19:53.349Z</time>
      </trkpt>
      <trkpt lat="39.581734" lon="-2.245372">
        <ele>861.631675</ele>
        <time>2021-11-03T16:19:53.349Z</time>
      </trkpt>
      <trkpt lat="39.581475" lon="-2.245730">
        <ele>861.636526</ele>
        <time>2021-11-03T16:19:53.349Z</time>
      </trkpt>
      <trkpt lat="39.581437" lon="-2.245778">
        <ele>861.630291</ele>
        <time>2021-11-03T16:19:53.349Z</time>
      </trkpt>
      <trkpt lat="39.581204" lon="-2.246041">
        <ele>861.593985</ele>
        <time>2021-11-03T16:19:53.349Z</time>
      </trkpt>
      <trkpt lat="39.581115" lon="-2.246114">
        <ele>861.581606</ele>
        <time>2021-11-03T16:19:53.349Z</time>
      </trkpt>
      <trkpt lat="39.580636" lon="-2.246464">
        <ele>861.516978</ele>
        <time>2021-11-03T16:19:53.349Z</time>
      </trkpt>
      <trkpt lat="39.580535" lon="-2.246535">
        <ele>861.503474</ele>
        <time>2021-11-03T16:19:53.349Z</time>
      </trkpt>
      <trkpt lat="39.580329" lon="-2.246681">
        <ele>861.475878</ele>
        <time>2021-11-03T16:19:53.349Z</time>
      </trkpt>
      <trkpt lat="39.579952" lon="-2.246950">
        <ele>861.194171</ele>
        <time>2021-11-03T16:19:53.349Z</time>
      </trkpt>
      <trkpt lat="39.579893" lon="-2.246989">
        <ele>861.130692</ele>
        <time>2021-11-03T16:19:53.349Z</time>
      </trkpt>
      <trkpt lat="39.579522" lon="-2.247224">
        <ele>860.734900</ele>
        <time>2021-11-03T16:19:53.349Z</time>
      </trkpt>
      <trkpt lat="39.579329" lon="-2.247329">
        <ele>860.534268</ele>
        <time>2021-11-03T16:19:53.349Z</time>
      </trkpt>
      <trkpt lat="39.579085" lon="-2.247458">
        <ele>860.281677</ele>
        <time>2021-11-03T16:19:53.349Z</time>
      </trkpt>
      <trkpt lat="39.578918" lon="-2.247567">
        <ele>860.102461</ele>
        <time>2021-11-03T16:19:53.349Z</time>
      </trkpt>
      <trkpt lat="39.578759" lon="-2.247690">
        <ele>859.924993</ele>
        <time>2021-11-03T16:19:53.349Z</time>
      </trkpt>
      <trkpt lat="39.578407" lon="-2.247997">
        <ele>859.912060</ele>
        <time>2021-11-03T16:19:53.349Z</time>
      </trkpt>
      <trkpt lat="39.578360" lon="-2.248041">
        <ele>859.958282</ele>
        <time>2021-11-03T16:19:53.349Z</time>
      </trkpt>
      <trkpt lat="39.578268" lon="-2.248129">
        <ele>860.049437</ele>
        <time>2021-11-03T16:19:53.349Z</time>
      </trkpt>
      <trkpt lat="39.577991" lon="-2.248331">
        <ele>860.302849</ele>
        <time>2021-11-03T16:19:53.349Z</time>
      </trkpt>
      <trkpt lat="39.577845" lon="-2.248418">
        <ele>860.430979</ele>
        <time>2021-11-03T16:19:53.349Z</time>
      </trkpt>
      <trkpt lat="39.577438" lon="-2.248654">
        <ele>860.786506</ele>
        <time>2021-11-03T16:19:53.349Z</time>
      </trkpt>
      <trkpt lat="39.577256" lon="-2.248754">
        <ele>860.944131</ele>
        <time>2021-11-03T16:19:53.349Z</time>
      </trkpt>
      <trkpt lat="39.576873" lon="-2.248966">
        <ele>861.037818</ele>
        <time>2021-11-03T16:19:53.349Z</time>
      </trkpt>
      <trkpt lat="39.576563" lon="-2.249127">
        <ele>860.719001</ele>
        <time>2021-11-03T16:19:53.349Z</time>
      </trkpt>
      <trkpt lat="39.576296" lon="-2.249274">
        <ele>860.442071</ele>
        <time>2021-11-03T16:19:53.349Z</time>
      </trkpt>
      <trkpt lat="39.576080" lon="-2.249399">
        <ele>860.216252</ele>
        <time>2021-11-03T16:19:53.349Z</time>
      </trkpt>
      <trkpt lat="39.575869" lon="-2.249547">
        <ele>859.987235</ele>
        <time>2021-11-03T16:19:53.349Z</time>
      </trkpt>
      <trkpt lat="39.575613" lon="-2.249864">
        <ele>859.649349</ele>
        <time>2021-11-03T16:19:53.349Z</time>
      </trkpt>
      <trkpt lat="39.575422" lon="-2.250235">
        <ele>859.567937</ele>
        <time>2021-11-03T16:19:53.349Z</time>
      </trkpt>
      <trkpt lat="39.575391" lon="-2.250296">
        <ele>859.616783</ele>
        <time>2021-11-03T16:19:53.349Z</time>
      </trkpt>
      <trkpt lat="39.575161" lon="-2.250800">
        <ele>860.008344</ele>
        <time>2021-11-03T16:19:53.349Z</time>
      </trkpt>
      <trkpt lat="39.575101" lon="-2.250923">
        <ele>860.105657</ele>
        <time>2021-11-03T16:19:53.349Z</time>
      </trkpt>
      <trkpt lat="39.574870" lon="-2.251318">
        <ele>860.437128</ele>
        <time>2021-11-03T16:19:53.349Z</time>
      </trkpt>
      <trkpt lat="39.574568" lon="-2.251729">
        <ele>860.816739</ele>
        <time>2021-11-03T16:19:53.349Z</time>
      </trkpt>
      <trkpt lat="39.574488" lon="-2.251820">
        <ele>860.909018</ele>
        <time>2021-11-03T16:19:53.349Z</time>
      </trkpt>
      <trkpt lat="39.574104" lon="-2.252194">
        <ele>861.499089</ele>
        <time>2021-11-03T16:19:53.349Z</time>
      </trkpt>
      <trkpt lat="39.573736" lon="-2.252479">
        <ele>862.075635</ele>
        <time>2021-11-03T16:19:53.349Z</time>
      </trkpt>
      <trkpt lat="39.573255" lon="-2.252807">
        <ele>862.806636</ele>
        <time>2021-11-03T16:19:53.349Z</time>
      </trkpt>
      <trkpt lat="39.573207" lon="-2.252836">
        <ele>862.877867</ele>
        <time>2021-11-03T16:19:53.349Z</time>
      </trkpt>
      <trkpt lat="39.573014" lon="-2.252918">
        <ele>863.151067</ele>
        <time>2021-11-03T16:19:53.349Z</time>
      </trkpt>
      <trkpt lat="39.572917" lon="-2.252931">
        <ele>863.282249</ele>
        <time>2021-11-03T16:19:53.349Z</time>
      </trkpt>
      <trkpt lat="39.572823" lon="-2.252931">
        <ele>863.408702</ele>
        <time>2021-11-03T16:19:53.349Z</time>
      </trkpt>
      <trkpt lat="39.572650" lon="-2.252893">
        <ele>863.533455</ele>
        <time>2021-11-03T16:19:53.349Z</time>
      </trkpt>
      <trkpt lat="39.572567" lon="-2.252856">
        <ele>863.590328</ele>
        <time>2021-11-03T16:19:53.349Z</time>
      </trkpt>
      <trkpt lat="39.572367" lon="-2.252714">
        <ele>863.738074</ele>
        <time>2021-11-03T16:19:53.349Z</time>
      </trkpt>
      <trkpt lat="39.572068" lon="-2.252502">
        <ele>863.958884</ele>
        <time>2021-11-03T16:19:53.349Z</time>
      </trkpt>
      <trkpt lat="39.571978" lon="-2.252437">
        <ele>864.025636</ele>
        <time>2021-11-03T16:19:53.349Z</time>
      </trkpt>
      <trkpt lat="39.571494" lon="-2.252088">
        <ele>864.384474</ele>
        <time>2021-11-03T16:19:53.349Z</time>
      </trkpt>
      <trkpt lat="39.571442" lon="-2.252060">
        <ele>864.420959</ele>
        <time>2021-11-03T16:19:53.349Z</time>
      </trkpt>
      <trkpt lat="39.571277" lon="-2.252015">
        <ele>864.530221</ele>
        <time>2021-11-03T16:19:53.349Z</time>
      </trkpt>
      <trkpt lat="39.571161" lon="-2.252007">
        <ele>864.514243</ele>
        <time>2021-11-03T16:19:53.349Z</time>
      </trkpt>
      <trkpt lat="39.570979" lon="-2.252045">
        <ele>863.533384</ele>
        <time>2021-11-03T16:19:53.349Z</time>
      </trkpt>
      <trkpt lat="39.570855" lon="-2.252092">
        <ele>862.846012</ele>
        <time>2021-11-03T16:19:53.349Z</time>
      </trkpt>
      <trkpt lat="39.570666" lon="-2.252186">
        <ele>861.768996</ele>
        <time>2021-11-03T16:19:53.349Z</time>
      </trkpt>
      <trkpt lat="39.570597" lon="-2.252207">
        <ele>861.391888</ele>
        <time>2021-11-03T16:19:53.349Z</time>
      </trkpt>
      <trkpt lat="39.570527" lon="-2.252230">
        <ele>861.007667</ele>
        <time>2021-11-03T16:19:53.349Z</time>
      </trkpt>
      <trkpt lat="39.570379" lon="-2.252276">
        <ele>860.197893</ele>
        <time>2021-11-03T16:19:53.349Z</time>
      </trkpt>
      <trkpt lat="39.570217" lon="-2.252301">
        <ele>859.329835</ele>
        <time>2021-11-03T16:19:53.349Z</time>
      </trkpt>
      <trkpt lat="39.569954" lon="-2.252326">
        <ele>857.926695</ele>
        <time>2021-11-03T16:19:53.349Z</time>
      </trkpt>
      <trkpt lat="39.569861" lon="-2.252335">
        <ele>857.430480</ele>
        <time>2021-11-03T16:19:53.349Z</time>
      </trkpt>
      <trkpt lat="39.569766" lon="-2.252349">
        <ele>856.921746</ele>
        <time>2021-11-03T16:19:53.349Z</time>
      </trkpt>
      <trkpt lat="39.569670" lon="-2.252371">
        <ele>856.403034</ele>
        <time>2021-11-03T16:19:53.349Z</time>
      </trkpt>
      <trkpt lat="39.569574" lon="-2.252401">
        <ele>855.877620</ele>
        <time>2021-11-03T16:19:53.349Z</time>
      </trkpt>
      <trkpt lat="39.569478" lon="-2.252439">
        <ele>855.343567</ele>
        <time>2021-11-03T16:19:53.349Z</time>
      </trkpt>
      <trkpt lat="39.569287" lon="-2.252527">
        <ele>854.428749</ele>
        <time>2021-11-03T16:19:53.349Z</time>
      </trkpt>
      <trkpt lat="39.569193" lon="-2.252573">
        <ele>854.009275</ele>
        <time>2021-11-03T16:19:53.349Z</time>
      </trkpt>
      <trkpt lat="39.569099" lon="-2.252617">
        <ele>853.592029</ele>
        <time>2021-11-03T16:19:53.349Z</time>
      </trkpt>
      <trkpt lat="39.569006" lon="-2.252659">
        <ele>853.180868</ele>
        <time>2021-11-03T16:19:53.349Z</time>
      </trkpt>
      <trkpt lat="39.568638" lon="-2.252831">
        <ele>851.547672</ele>
        <time>2021-11-03T16:19:53.349Z</time>
      </trkpt>
      <trkpt lat="39.568368" lon="-2.252946">
        <ele>850.361131</ele>
        <time>2021-11-03T16:19:53.349Z</time>
      </trkpt>
      <trkpt lat="39.568280" lon="-2.252980">
        <ele>849.977755</ele>
        <time>2021-11-03T16:19:53.349Z</time>
      </trkpt>
      <trkpt lat="39.568193" lon="-2.253004">
        <ele>849.606381</ele>
        <time>2021-11-03T16:19:53.349Z</time>
      </trkpt>
      <trkpt lat="39.567929" lon="-2.253034">
        <ele>848.499881</ele>
        <time>2021-11-03T16:19:53.349Z</time>
      </trkpt>
      <trkpt lat="39.567840" lon="-2.253037">
        <ele>848.128154</ele>
        <time>2021-11-03T16:19:53.349Z</time>
      </trkpt>
      <trkpt lat="39.567749" lon="-2.253043">
        <ele>847.747711</ele>
        <time>2021-11-03T16:19:53.349Z</time>
      </trkpt>
      <trkpt lat="39.567657" lon="-2.253049">
        <ele>847.377292</ele>
        <time>2021-11-03T16:19:53.349Z</time>
      </trkpt>
      <trkpt lat="39.567565" lon="-2.253055">
        <ele>847.028529</ele>
        <time>2021-11-03T16:19:53.349Z</time>
      </trkpt>
      <trkpt lat="39.567472" lon="-2.253065">
        <ele>846.675213</ele>
        <time>2021-11-03T16:19:53.349Z</time>
      </trkpt>
      <trkpt lat="39.567287" lon="-2.253096">
        <ele>845.968962</ele>
        <time>2021-11-03T16:19:53.349Z</time>
      </trkpt>
      <trkpt lat="39.567016" lon="-2.253160">
        <ele>844.926059</ele>
        <time>2021-11-03T16:19:53.349Z</time>
      </trkpt>
      <trkpt lat="39.566838" lon="-2.253204">
        <ele>844.240004</ele>
        <time>2021-11-03T16:19:53.349Z</time>
      </trkpt>
      <trkpt lat="39.566575" lon="-2.253264">
        <ele>843.228974</ele>
        <time>2021-11-03T16:19:53.349Z</time>
      </trkpt>
      <trkpt lat="39.565983" lon="-2.253343">
        <ele>840.975764</ele>
        <time>2021-11-03T16:19:53.349Z</time>
      </trkpt>
      <trkpt lat="39.565898" lon="-2.253341">
        <ele>840.672458</ele>
        <time>2021-11-03T16:19:53.349Z</time>
      </trkpt>
      <trkpt lat="39.565482" lon="-2.253303">
        <ele>839.661551</ele>
        <time>2021-11-03T16:19:53.349Z</time>
      </trkpt>
      <trkpt lat="39.565400" lon="-2.253295">
        <ele>839.462217</ele>
        <time>2021-11-03T16:19:53.349Z</time>
      </trkpt>
      <trkpt lat="39.565161" lon="-2.253267">
        <ele>838.880508</ele>
        <time>2021-11-03T16:19:53.349Z</time>
      </trkpt>
      <trkpt lat="39.564854" lon="-2.253168">
        <ele>838.113670</ele>
        <time>2021-11-03T16:19:53.349Z</time>
      </trkpt>
      <trkpt lat="39.564703" lon="-2.253097">
        <ele>837.724331</ele>
        <time>2021-11-03T16:19:53.349Z</time>
      </trkpt>
      <trkpt lat="39.564408" lon="-2.252939">
        <ele>836.950675</ele>
        <time>2021-11-03T16:19:53.349Z</time>
      </trkpt>
      <trkpt lat="39.564335" lon="-2.252901">
        <ele>836.760002</ele>
        <time>2021-11-03T16:19:53.349Z</time>
      </trkpt>
      <trkpt lat="39.564189" lon="-2.252824">
        <ele>836.377956</ele>
        <time>2021-11-03T16:19:53.349Z</time>
      </trkpt>
      <trkpt lat="39.563828" lon="-2.252636">
        <ele>835.037560</ele>
        <time>2021-11-03T16:19:53.349Z</time>
      </trkpt>
      <trkpt lat="39.563675" lon="-2.252570">
        <ele>834.476107</ele>
        <time>2021-11-03T16:19:53.349Z</time>
      </trkpt>
      <trkpt lat="39.563518" lon="-2.252511">
        <ele>833.906933</ele>
        <time>2021-11-03T16:19:53.349Z</time>
      </trkpt>
      <trkpt lat="39.563438" lon="-2.252484">
        <ele>833.619088</ele>
        <time>2021-11-03T16:19:53.349Z</time>
      </trkpt>
      <trkpt lat="39.563198" lon="-2.252409">
        <ele>832.759467</ele>
        <time>2021-11-03T16:19:53.349Z</time>
      </trkpt>
      <trkpt lat="39.562959" lon="-2.252337">
        <ele>831.905089</ele>
        <time>2021-11-03T16:19:53.349Z</time>
      </trkpt>
      <trkpt lat="39.562881" lon="-2.252313">
        <ele>831.625946</ele>
        <time>2021-11-03T16:19:53.349Z</time>
      </trkpt>
      <trkpt lat="39.562648" lon="-2.252246">
        <ele>830.794914</ele>
        <time>2021-11-03T16:19:53.349Z</time>
      </trkpt>
      <trkpt lat="39.562182" lon="-2.252112">
        <ele>829.245035</ele>
        <time>2021-11-03T16:19:53.349Z</time>
      </trkpt>
      <trkpt lat="39.562023" lon="-2.252065">
        <ele>828.744274</ele>
        <time>2021-11-03T16:19:53.349Z</time>
      </trkpt>
      <trkpt lat="39.561943" lon="-2.252043">
        <ele>828.493157</ele>
        <time>2021-11-03T16:19:53.349Z</time>
      </trkpt>
      <trkpt lat="39.561451" lon="-2.251951">
        <ele>826.966748</ele>
        <time>2021-11-03T16:19:53.349Z</time>
      </trkpt>
      <trkpt lat="39.561285" lon="-2.251932">
        <ele>826.455029</ele>
        <time>2021-11-03T16:19:53.349Z</time>
      </trkpt>
      <trkpt lat="39.560713" lon="-2.251869">
        <ele>824.692261</ele>
        <time>2021-11-03T16:19:53.349Z</time>
      </trkpt>
      <trkpt lat="39.560477" lon="-2.251836">
        <ele>824.055459</ele>
        <time>2021-11-03T16:19:53.349Z</time>
      </trkpt>
      <trkpt lat="39.560009" lon="-2.251758">
        <ele>822.830458</ele>
        <time>2021-11-03T16:19:53.349Z</time>
      </trkpt>
      <trkpt lat="39.559930" lon="-2.251746">
        <ele>822.623958</ele>
        <time>2021-11-03T16:19:53.349Z</time>
      </trkpt>
      <trkpt lat="39.559542" lon="-2.251765">
        <ele>821.615923</ele>
        <time>2021-11-03T16:19:53.349Z</time>
      </trkpt>
      <trkpt lat="39.559390" lon="-2.251782">
        <ele>821.219840</ele>
        <time>2021-11-03T16:19:53.349Z</time>
      </trkpt>
      <trkpt lat="39.559169" lon="-2.251823">
        <ele>820.640245</ele>
        <time>2021-11-03T16:19:53.349Z</time>
      </trkpt>
      <trkpt lat="39.559097" lon="-2.251837">
        <ele>820.451231</ele>
        <time>2021-11-03T16:19:53.349Z</time>
      </trkpt>
      <trkpt lat="39.559023" lon="-2.251850">
        <ele>820.257360</ele>
        <time>2021-11-03T16:19:53.349Z</time>
      </trkpt>
      <trkpt lat="39.558727" lon="-2.251924">
        <ele>819.631774</ele>
        <time>2021-11-03T16:19:53.349Z</time>
      </trkpt>
      <trkpt lat="39.558347" lon="-2.252032">
        <ele>819.004049</ele>
        <time>2021-11-03T16:19:53.349Z</time>
      </trkpt>
      <trkpt lat="39.558271" lon="-2.252052">
        <ele>818.878915</ele>
        <time>2021-11-03T16:19:53.349Z</time>
      </trkpt>
      <trkpt lat="39.557967" lon="-2.252089">
        <ele>818.386219</ele>
        <time>2021-11-03T16:19:53.349Z</time>
      </trkpt>
      <trkpt lat="39.557893" lon="-2.252082">
        <ele>818.266493</ele>
        <time>2021-11-03T16:19:53.349Z</time>
      </trkpt>
      <trkpt lat="39.557464" lon="-2.252076">
        <ele>817.574208</ele>
        <time>2021-11-03T16:19:53.349Z</time>
      </trkpt>
      <trkpt lat="39.556887" lon="-2.252049">
        <ele>817.049268</ele>
        <time>2021-11-03T16:19:53.349Z</time>
      </trkpt>
      <trkpt lat="39.556563" lon="-2.252042">
        <ele>817.143215</ele>
        <time>2021-11-03T16:19:53.349Z</time>
      </trkpt>
      <trkpt lat="39.556510" lon="-2.252046">
        <ele>817.158607</ele>
        <time>2021-11-03T16:19:53.349Z</time>
      </trkpt>
      <trkpt lat="39.556134" lon="-2.252129">
        <ele>817.269184</ele>
        <time>2021-11-03T16:19:53.349Z</time>
      </trkpt>
      <trkpt lat="39.555961" lon="-2.252177">
        <ele>817.320475</ele>
        <time>2021-11-03T16:19:53.349Z</time>
      </trkpt>
      <trkpt lat="39.555651" lon="-2.252281">
        <ele>817.413307</ele>
        <time>2021-11-03T16:19:53.349Z</time>
      </trkpt>
      <trkpt lat="39.555588" lon="-2.252311">
        <ele>817.432764</ele>
        <time>2021-11-03T16:19:53.349Z</time>
      </trkpt>
      <trkpt lat="39.555465" lon="-2.252377">
        <ele>817.471356</ele>
        <time>2021-11-03T16:19:53.349Z</time>
      </trkpt>
      <trkpt lat="39.555406" lon="-2.252417">
        <ele>817.490657</ele>
        <time>2021-11-03T16:19:53.349Z</time>
      </trkpt>
      <trkpt lat="39.555352" lon="-2.252466">
        <ele>817.499994</ele>
        <time>2021-11-03T16:19:53.349Z</time>
      </trkpt>
      <trkpt lat="39.555303" lon="-2.252524">
        <ele>817.327651</ele>
        <time>2021-11-03T16:19:53.349Z</time>
      </trkpt>
      <trkpt lat="39.555220" lon="-2.252655">
        <ele>816.988022</ele>
        <time>2021-11-03T16:19:53.349Z</time>
      </trkpt>
      <trkpt lat="39.555184" lon="-2.252725">
        <ele>816.819480</ele>
        <time>2021-11-03T16:19:53.349Z</time>
      </trkpt>
      <trkpt lat="39.555007" lon="-2.253098">
        <ele>815.942179</ele>
        <time>2021-11-03T16:19:53.349Z</time>
      </trkpt>
      <trkpt lat="39.554971" lon="-2.253176">
        <ele>815.760088</ele>
        <time>2021-11-03T16:19:53.349Z</time>
      </trkpt>
      <trkpt lat="39.554935" lon="-2.253254">
        <ele>815.577997</ele>
        <time>2021-11-03T16:19:53.349Z</time>
      </trkpt>
      <trkpt lat="39.554897" lon="-2.253331">
        <ele>815.394874</ele>
        <time>2021-11-03T16:19:53.349Z</time>
      </trkpt>
      <trkpt lat="39.554859" lon="-2.253409">
        <ele>815.210060</ele>
        <time>2021-11-03T16:19:53.349Z</time>
      </trkpt>
      <trkpt lat="39.554745" lon="-2.253634">
        <ele>814.670773</ele>
        <time>2021-11-03T16:19:53.349Z</time>
      </trkpt>
      <trkpt lat="39.554674" lon="-2.253752">
        <ele>814.370958</ele>
        <time>2021-11-03T16:19:53.349Z</time>
      </trkpt>
      <trkpt lat="39.554544" lon="-2.253874">
        <ele>813.954088</ele>
        <time>2021-11-03T16:19:53.349Z</time>
      </trkpt>
      <trkpt lat="39.554503" lon="-2.253881">
        <ele>813.846654</ele>
        <time>2021-11-03T16:19:53.349Z</time>
      </trkpt>
      <trkpt lat="39.554408" lon="-2.253868">
        <ele>813.598481</ele>
        <time>2021-11-03T16:19:53.349Z</time>
      </trkpt>
      <trkpt lat="39.554356" lon="-2.253851">
        <ele>813.459163</ele>
        <time>2021-11-03T16:19:53.349Z</time>
      </trkpt>
      <trkpt lat="39.554302" lon="-2.253827">
        <ele>813.310866</ele>
        <time>2021-11-03T16:19:53.349Z</time>
      </trkpt>
      <trkpt lat="39.554126" lon="-2.253734">
        <ele>812.800459</ele>
        <time>2021-11-03T16:19:53.349Z</time>
      </trkpt>
      <trkpt lat="39.554063" lon="-2.253700">
        <ele>812.466665</ele>
        <time>2021-11-03T16:19:53.349Z</time>
      </trkpt>
      <trkpt lat="39.553997" lon="-2.253667">
        <ele>812.120650</ele>
        <time>2021-11-03T16:19:53.349Z</time>
      </trkpt>
      <trkpt lat="39.553860" lon="-2.253594">
        <ele>811.396128</ele>
        <time>2021-11-03T16:19:53.349Z</time>
      </trkpt>
      <trkpt lat="39.553637" lon="-2.253479">
        <ele>810.222203</ele>
        <time>2021-11-03T16:19:53.349Z</time>
      </trkpt>
      <trkpt lat="39.553477" lon="-2.253395">
        <ele>809.377833</ele>
        <time>2021-11-03T16:19:53.349Z</time>
      </trkpt>
      <trkpt lat="39.553313" lon="-2.253309">
        <ele>808.512496</ele>
        <time>2021-11-03T16:19:53.349Z</time>
      </trkpt>
      <trkpt lat="39.553146" lon="-2.253216">
        <ele>807.623454</ele>
        <time>2021-11-03T16:19:53.349Z</time>
      </trkpt>
      <trkpt lat="39.552893" lon="-2.253059">
        <ele>806.251475</ele>
        <time>2021-11-03T16:19:53.349Z</time>
      </trkpt>
      <trkpt lat="39.552729" lon="-2.252944">
        <ele>805.339481</ele>
        <time>2021-11-03T16:19:53.349Z</time>
      </trkpt>
      <trkpt lat="39.552574" lon="-2.252828">
        <ele>804.464084</ele>
        <time>2021-11-03T16:19:53.349Z</time>
      </trkpt>
      <trkpt lat="39.552429" lon="-2.252717">
        <ele>804.465853</ele>
        <time>2021-11-03T16:19:53.349Z</time>
      </trkpt>
      <trkpt lat="39.552238" lon="-2.252556">
        <ele>805.667756</ele>
        <time>2021-11-03T16:19:53.349Z</time>
      </trkpt>
      <trkpt lat="39.552015" lon="-2.252380">
        <ele>807.045086</ele>
        <time>2021-11-03T16:19:53.349Z</time>
      </trkpt>
      <trkpt lat="39.551916" lon="-2.252305">
        <ele>807.650016</ele>
        <time>2021-11-03T16:19:53.349Z</time>
      </trkpt>
      <trkpt lat="39.551825" lon="-2.252243">
        <ele>808.192372</ele>
        <time>2021-11-03T16:19:53.349Z</time>
      </trkpt>
      <trkpt lat="39.551707" lon="-2.252172">
        <ele>808.878705</ele>
        <time>2021-11-03T16:19:53.349Z</time>
      </trkpt>
      <trkpt lat="39.551615" lon="-2.252116">
        <ele>809.414920</ele>
        <time>2021-11-03T16:19:53.349Z</time>
      </trkpt>
      <trkpt lat="39.551527" lon="-2.252077">
        <ele>809.905587</ele>
        <time>2021-11-03T16:19:53.349Z</time>
      </trkpt>
      <trkpt lat="39.551446" lon="-2.252053">
        <ele>810.343972</ele>
        <time>2021-11-03T16:19:53.349Z</time>
      </trkpt>
      <trkpt lat="39.551359" lon="-2.252022">
        <ele>810.820012</ele>
        <time>2021-11-03T16:19:53.349Z</time>
      </trkpt>
      <trkpt lat="39.551330" lon="-2.252011">
        <ele>810.979432</ele>
        <time>2021-11-03T16:19:53.349Z</time>
      </trkpt>
      <trkpt lat="39.551240" lon="-2.251979">
        <ele>811.471814</ele>
        <time>2021-11-03T16:19:53.349Z</time>
      </trkpt>
      <trkpt lat="39.551153" lon="-2.251961">
        <ele>811.936649</ele>
        <time>2021-11-03T16:19:53.349Z</time>
      </trkpt>
      <trkpt lat="39.551034" lon="-2.251937">
        <ele>812.572064</ele>
        <time>2021-11-03T16:19:53.349Z</time>
      </trkpt>
      <trkpt lat="39.550876" lon="-2.251901">
        <ele>813.418474</ele>
        <time>2021-11-03T16:19:53.349Z</time>
      </trkpt>
      <trkpt lat="39.550858" lon="-2.251903">
        <ele>813.513793</ele>
        <time>2021-11-03T16:19:53.349Z</time>
      </trkpt>
      <trkpt lat="39.550845" lon="-2.251896">
        <ele>813.492861</ele>
        <time>2021-11-03T16:19:53.349Z</time>
      </trkpt>
      <trkpt lat="39.550823" lon="-2.251870">
        <ele>813.402758</ele>
        <time>2021-11-03T16:19:53.349Z</time>
      </trkpt>
      <trkpt lat="39.550803" lon="-2.251870">
        <ele>813.342213</ele>
        <time>2021-11-03T16:19:53.349Z</time>
      </trkpt>
      <trkpt lat="39.550717" lon="-2.251865">
        <ele>813.081609</ele>
        <time>2021-11-03T16:19:53.349Z</time>
      </trkpt>
      <trkpt lat="39.550643" lon="-2.251865">
        <ele>812.857594</ele>
        <time>2021-11-03T16:19:53.349Z</time>
      </trkpt>
      <trkpt lat="39.550472" lon="-2.251877">
        <ele>812.339178</ele>
        <time>2021-11-03T16:19:53.349Z</time>
      </trkpt>
      <trkpt lat="39.550378" lon="-2.251866">
        <ele>812.053462</ele>
        <time>2021-11-03T16:19:53.349Z</time>
      </trkpt>
      <trkpt lat="39.550285" lon="-2.251858">
        <ele>811.771310</ele>
        <time>2021-11-03T16:19:53.349Z</time>
      </trkpt>
      <trkpt lat="39.550050" lon="-2.251852">
        <ele>811.059771</ele>
        <time>2021-11-03T16:19:53.349Z</time>
      </trkpt>
      <trkpt lat="39.549690" lon="-2.251913">
        <ele>809.960703</ele>
        <time>2021-11-03T16:19:53.349Z</time>
      </trkpt>
      <trkpt lat="39.549512" lon="-2.251964">
        <ele>809.408861</ele>
        <time>2021-11-03T16:19:53.349Z</time>
      </trkpt>
      <trkpt lat="39.549395" lon="-2.251949">
        <ele>809.052948</ele>
        <time>2021-11-03T16:19:53.349Z</time>
      </trkpt>
      <trkpt lat="39.549263" lon="-2.251922">
        <ele>808.648413</ele>
        <time>2021-11-03T16:19:53.349Z</time>
      </trkpt>
      <trkpt lat="39.549196" lon="-2.251897">
        <ele>808.437360</ele>
        <time>2021-11-03T16:19:53.349Z</time>
      </trkpt>
      <trkpt lat="39.549062" lon="-2.251829">
        <ele>808.001185</ele>
        <time>2021-11-03T16:19:53.349Z</time>
      </trkpt>
      <trkpt lat="39.548997" lon="-2.251787">
        <ele>807.779780</ele>
        <time>2021-11-03T16:19:53.349Z</time>
      </trkpt>
      <trkpt lat="39.548936" lon="-2.251737">
        <ele>807.559772</ele>
        <time>2021-11-03T16:19:53.349Z</time>
      </trkpt>
      <trkpt lat="39.548876" lon="-2.251685">
        <ele>807.339759</ele>
        <time>2021-11-03T16:19:53.349Z</time>
      </trkpt>
      <trkpt lat="39.548820" lon="-2.251634">
        <ele>807.131135</ele>
        <time>2021-11-03T16:19:53.349Z</time>
      </trkpt>
      <trkpt lat="39.548764" lon="-2.251590">
        <ele>806.931513</ele>
        <time>2021-11-03T16:19:53.349Z</time>
      </trkpt>
      <trkpt lat="39.548711" lon="-2.251550">
        <ele>806.744558</ele>
        <time>2021-11-03T16:19:53.349Z</time>
      </trkpt>
      <trkpt lat="39.548576" lon="-2.251471">
        <ele>806.293011</ele>
        <time>2021-11-03T16:19:53.349Z</time>
      </trkpt>
      <trkpt lat="39.548473" lon="-2.251419">
        <ele>805.956032</ele>
        <time>2021-11-03T16:19:53.349Z</time>
      </trkpt>
      <trkpt lat="39.548419" lon="-2.251374">
        <ele>805.760339</ele>
        <time>2021-11-03T16:19:53.349Z</time>
      </trkpt>
      <trkpt lat="39.548395" lon="-2.251284">
        <ele>805.536465</ele>
        <time>2021-11-03T16:19:53.349Z</time>
      </trkpt>
      <trkpt lat="39.548398" lon="-2.251240">
        <ele>805.432622</ele>
        <time>2021-11-03T16:19:53.349Z</time>
      </trkpt>
      <trkpt lat="39.548447" lon="-2.251189">
        <ele>805.241070</ele>
        <time>2021-11-03T16:19:53.349Z</time>
      </trkpt>
      <trkpt lat="39.548566" lon="-2.251070">
        <ele>804.782933</ele>
        <time>2021-11-03T16:19:53.349Z</time>
      </trkpt>
      <trkpt lat="39.548671" lon="-2.250804">
        <ele>804.080425</ele>
        <time>2021-11-03T16:19:53.349Z</time>
      </trkpt>
      <trkpt lat="39.548694" lon="-2.250762">
        <ele>803.959322</ele>
        <time>2021-11-03T16:19:53.349Z</time>
      </trkpt>
      <trkpt lat="39.548833" lon="-2.250616">
        <ele>803.413984</ele>
        <time>2021-11-03T16:19:53.349Z</time>
      </trkpt>
      <trkpt lat="39.549014" lon="-2.250409">
        <ele>802.678238</ele>
        <time>2021-11-03T16:19:53.349Z</time>
      </trkpt>
      <trkpt lat="39.549068" lon="-2.250330">
        <ele>802.935595</ele>
        <time>2021-11-03T16:19:53.349Z</time>
      </trkpt>
      <trkpt lat="39.549096" lon="-2.250287">
        <ele>803.199254</ele>
        <time>2021-11-03T16:19:53.349Z</time>
      </trkpt>
      <trkpt lat="39.549179" lon="-2.250101">
        <ele>804.205989</ele>
        <time>2021-11-03T16:19:53.349Z</time>
      </trkpt>
      <trkpt lat="39.549211" lon="-2.249952">
        <ele>804.930567</ele>
        <time>2021-11-03T16:19:53.349Z</time>
      </trkpt>
      <trkpt lat="39.549213" lon="-2.249907">
        <ele>805.141726</ele>
        <time>2021-11-03T16:19:53.349Z</time>
      </trkpt>
      <trkpt lat="39.549252" lon="-2.249798">
        <ele>805.704645</ele>
        <time>2021-11-03T16:19:53.349Z</time>
      </trkpt>
      <trkpt lat="39.549247" lon="-2.249696">
        <ele>806.183442</ele>
        <time>2021-11-03T16:19:53.349Z</time>
      </trkpt>
      <trkpt lat="39.549246" lon="-2.249661">
        <ele>806.347516</ele>
        <time>2021-11-03T16:19:53.349Z</time>
      </trkpt>
      <trkpt lat="39.549248" lon="-2.249628">
        <ele>806.502586</ele>
        <time>2021-11-03T16:19:53.349Z</time>
      </trkpt>
      <trkpt lat="39.549253" lon="-2.249498">
        <ele>807.112344</ele>
        <time>2021-11-03T16:19:53.349Z</time>
      </trkpt>
      <trkpt lat="39.549267" lon="-2.249347">
        <ele>807.824818</ele>
        <time>2021-11-03T16:19:53.349Z</time>
      </trkpt>
      <trkpt lat="39.549270" lon="-2.249316">
        <ele>807.971181</ele>
        <time>2021-11-03T16:19:53.349Z</time>
      </trkpt>
      <trkpt lat="39.549286" lon="-2.249161">
        <ele>808.703775</ele>
        <time>2021-11-03T16:19:53.349Z</time>
      </trkpt>
      <trkpt lat="39.549278" lon="-2.249077">
        <ele>809.100274</ele>
        <time>2021-11-03T16:19:53.349Z</time>
      </trkpt>
      <trkpt lat="39.549273" lon="-2.249025">
        <ele>809.345761</ele>
        <time>2021-11-03T16:19:53.349Z</time>
      </trkpt>
      <trkpt lat="39.549273" lon="-2.248999">
        <ele>809.467561</ele>
        <time>2021-11-03T16:19:53.349Z</time>
      </trkpt>
      <trkpt lat="39.549274" lon="-2.248971">
        <ele>809.598871</ele>
        <time>2021-11-03T16:19:53.349Z</time>
      </trkpt>
      <trkpt lat="39.549273" lon="-2.248882">
        <ele>810.015847</ele>
        <time>2021-11-03T16:19:53.349Z</time>
      </trkpt>
      <trkpt lat="39.549274" lon="-2.248850">
        <ele>810.165878</ele>
        <time>2021-11-03T16:19:53.349Z</time>
      </trkpt>
      <trkpt lat="39.549276" lon="-2.248817">
        <ele>810.320948</ele>
        <time>2021-11-03T16:19:53.349Z</time>
      </trkpt>
      <trkpt lat="39.549279" lon="-2.248786">
        <ele>810.467310</ele>
        <time>2021-11-03T16:19:53.349Z</time>
      </trkpt>
      <trkpt lat="39.549281" lon="-2.248755">
        <ele>810.613041</ele>
        <time>2021-11-03T16:19:53.349Z</time>
      </trkpt>
      <trkpt lat="39.549282" lon="-2.248724">
        <ele>810.758391</ele>
        <time>2021-11-03T16:19:53.349Z</time>
      </trkpt>
      <trkpt lat="39.549284" lon="-2.248690">
        <ele>810.918131</ele>
        <time>2021-11-03T16:19:53.349Z</time>
      </trkpt>
      <trkpt lat="39.549286" lon="-2.248624">
        <ele>811.227555</ele>
        <time>2021-11-03T16:19:53.349Z</time>
      </trkpt>
      <trkpt lat="39.549291" lon="-2.248453">
        <ele>812.029202</ele>
        <time>2021-11-03T16:19:53.349Z</time>
      </trkpt>
      <trkpt lat="39.549297" lon="-2.248353">
        <ele>812.499080</ele>
        <time>2021-11-03T16:19:53.349Z</time>
      </trkpt>
      <trkpt lat="39.549300" lon="-2.248189">
        <ele>813.267574</ele>
        <time>2021-11-03T16:19:53.349Z</time>
      </trkpt>
      <trkpt lat="39.549300" lon="-2.248155">
        <ele>813.426852</ele>
        <time>2021-11-03T16:19:53.349Z</time>
      </trkpt>
      <trkpt lat="39.549301" lon="-2.248052">
        <ele>813.725861</ele>
        <time>2021-11-03T16:19:53.349Z</time>
      </trkpt>
      <trkpt lat="39.549326" lon="-2.247922">
        <ele>814.052649</ele>
        <time>2021-11-03T16:19:53.349Z</time>
      </trkpt>
      <trkpt lat="39.549359" lon="-2.247824">
        <ele>814.313473</ele>
        <time>2021-11-03T16:19:53.349Z</time>
      </trkpt>
      <trkpt lat="39.549395" lon="-2.247727">
        <ele>814.576039</ele>
        <time>2021-11-03T16:19:53.349Z</time>
      </trkpt>
      <trkpt lat="39.549405" lon="-2.247697">
        <ele>814.655754</ele>
        <time>2021-11-03T16:19:53.349Z</time>
      </trkpt>
      <trkpt lat="39.549416" lon="-2.247668">
        <ele>814.734581</ele>
        <time>2021-11-03T16:19:53.349Z</time>
      </trkpt>
      <trkpt lat="39.549460" lon="-2.247496">
        <ele>815.176580</ele>
        <time>2021-11-03T16:19:53.349Z</time>
      </trkpt>
      <trkpt lat="39.549521" lon="-2.247295">
        <ele>815.703431</ele>
        <time>2021-11-03T16:19:53.349Z</time>
      </trkpt>
      <trkpt lat="39.549532" lon="-2.247260">
        <ele>815.795616</ele>
        <time>2021-11-03T16:19:53.349Z</time>
      </trkpt>
      <trkpt lat="39.549616" lon="-2.246996">
        <ele>816.492188</ele>
        <time>2021-11-03T16:19:53.349Z</time>
      </trkpt>
      <trkpt lat="39.549642" lon="-2.246928">
        <ele>816.677313</ele>
        <time>2021-11-03T16:19:53.349Z</time>
      </trkpt>
      <trkpt lat="39.549720" lon="-2.246754">
        <ele>817.168212</ele>
        <time>2021-11-03T16:19:53.349Z</time>
      </trkpt>
      <trkpt lat="39.549755" lon="-2.246680">
        <ele>817.379949</ele>
        <time>2021-11-03T16:19:53.349Z</time>
      </trkpt>
      <trkpt lat="39.549773" lon="-2.246642">
        <ele>817.488724</ele>
        <time>2021-11-03T16:19:53.349Z</time>
      </trkpt>
      <trkpt lat="39.549910" lon="-2.246331">
        <ele>818.362321</ele>
        <time>2021-11-03T16:19:53.349Z</time>
      </trkpt>
      <trkpt lat="39.549992" lon="-2.246064">
        <ele>819.063293</ele>
        <time>2021-11-03T16:19:53.349Z</time>
      </trkpt>
      <trkpt lat="39.550032" lon="-2.245891">
        <ele>819.110802</ele>
        <time>2021-11-03T16:19:53.349Z</time>
      </trkpt>
      <trkpt lat="39.550067" lon="-2.245775">
        <ele>818.999892</ele>
        <time>2021-11-03T16:19:53.349Z</time>
      </trkpt>
      <trkpt lat="39.550091" lon="-2.245653">
        <ele>818.887787</ele>
        <time>2021-11-03T16:19:53.349Z</time>
      </trkpt>
      <trkpt lat="39.550106" lon="-2.245592">
        <ele>818.830779</ele>
        <time>2021-11-03T16:19:53.349Z</time>
      </trkpt>
      <trkpt lat="39.550164" lon="-2.245409">
        <ele>818.654612</ele>
        <time>2021-11-03T16:19:53.349Z</time>
      </trkpt>
      <trkpt lat="39.550252" lon="-2.245234">
        <ele>818.468589</ele>
        <time>2021-11-03T16:19:53.349Z</time>
      </trkpt>
      <trkpt lat="39.550491" lon="-2.244769">
        <ele>817.971014</ele>
        <time>2021-11-03T16:19:53.349Z</time>
      </trkpt>
      <trkpt lat="39.550711" lon="-2.244273">
        <ele>817.461535</ele>
        <time>2021-11-03T16:19:53.349Z</time>
      </trkpt>
      <trkpt lat="39.550740" lon="-2.244211">
        <ele>817.396969</ele>
        <time>2021-11-03T16:19:53.349Z</time>
      </trkpt>
      <trkpt lat="39.550852" lon="-2.243960">
        <ele>817.139211</ele>
        <time>2021-11-03T16:19:53.349Z</time>
      </trkpt>
      <trkpt lat="39.550928" lon="-2.243764">
        <ele>817.409094</ele>
        <time>2021-11-03T16:19:53.349Z</time>
      </trkpt>
      <trkpt lat="39.550945" lon="-2.243695">
        <ele>817.498203</ele>
        <time>2021-11-03T16:19:53.349Z</time>
      </trkpt>
      <trkpt lat="39.550968" lon="-2.243555">
        <ele>817.674291</ele>
        <time>2021-11-03T16:19:53.349Z</time>
      </trkpt>
      <trkpt lat="39.550976" lon="-2.243487">
        <ele>817.758910</ele>
        <time>2021-11-03T16:19:53.349Z</time>
      </trkpt>
      <trkpt lat="39.551012" lon="-2.243229">
        <ele>818.081446</ele>
        <time>2021-11-03T16:19:53.349Z</time>
      </trkpt>
      <trkpt lat="39.551086" lon="-2.242649">
        <ele>818.804640</ele>
        <time>2021-11-03T16:19:53.349Z</time>
      </trkpt>
      <trkpt lat="39.551094" lon="-2.242597">
        <ele>818.869869</ele>
        <time>2021-11-03T16:19:53.349Z</time>
      </trkpt>
      <trkpt lat="39.551135" lon="-2.242298">
        <ele>819.243457</ele>
        <time>2021-11-03T16:19:53.349Z</time>
      </trkpt>
      <trkpt lat="39.551155" lon="-2.242164">
        <ele>819.411358</ele>
        <time>2021-11-03T16:19:53.349Z</time>
      </trkpt>
      <trkpt lat="39.551178" lon="-2.242031">
        <ele>819.579033</ele>
        <time>2021-11-03T16:19:53.349Z</time>
      </trkpt>
      <trkpt lat="39.551186" lon="-2.241986">
        <ele>819.635843</ele>
        <time>2021-11-03T16:19:53.349Z</time>
      </trkpt>
      <trkpt lat="39.551215" lon="-2.241857">
        <ele>819.801140</ele>
        <time>2021-11-03T16:19:53.349Z</time>
      </trkpt>
      <trkpt lat="39.551220" lon="-2.241812">
        <ele>819.857069</ele>
        <time>2021-11-03T16:19:53.349Z</time>
      </trkpt>
      <trkpt lat="39.551249" lon="-2.241546">
        <ele>820.296373</ele>
        <time>2021-11-03T16:19:53.349Z</time>
      </trkpt>
      <trkpt lat="39.551291" lon="-2.241288">
        <ele>820.817954</ele>
        <time>2021-11-03T16:19:53.349Z</time>
      </trkpt>
      <trkpt lat="39.551300" lon="-2.241245">
        <ele>820.906087</ele>
        <time>2021-11-03T16:19:53.349Z</time>
      </trkpt>
      <trkpt lat="39.551378" lon="-2.240943">
        <ele>821.536074</ele>
        <time>2021-11-03T16:19:53.349Z</time>
      </trkpt>
      <trkpt lat="39.551423" lon="-2.240587">
        <ele>822.249651</ele>
        <time>2021-11-03T16:19:53.349Z</time>
      </trkpt>
      <trkpt lat="39.551429" lon="-2.240480">
        <ele>822.461858</ele>
        <time>2021-11-03T16:19:53.349Z</time>
      </trkpt>
      <trkpt lat="39.551433" lon="-2.240425">
        <ele>822.571133</ele>
        <time>2021-11-03T16:19:53.349Z</time>
      </trkpt>
      <trkpt lat="39.551434" lon="-2.240370">
        <ele>822.679954</ele>
        <time>2021-11-03T16:19:53.349Z</time>
      </trkpt>
      <trkpt lat="39.551435" lon="-2.240263">
        <ele>822.891618</ele>
        <time>2021-11-03T16:19:53.349Z</time>
      </trkpt>
      <trkpt lat="39.551440" lon="-2.240210">
        <ele>822.997235</ele>
        <time>2021-11-03T16:19:53.349Z</time>
      </trkpt>
      <trkpt lat="39.551453" lon="-2.239859">
        <ele>823.692322</ele>
        <time>2021-11-03T16:19:53.349Z</time>
      </trkpt>
      <trkpt lat="39.551462" lon="-2.239491">
        <ele>824.420601</ele>
        <time>2021-11-03T16:19:53.349Z</time>
      </trkpt>
      <trkpt lat="39.551460" lon="-2.239445">
        <ele>824.511735</ele>
        <time>2021-11-03T16:19:53.349Z</time>
      </trkpt>
      <trkpt lat="39.551423" lon="-2.238983">
        <ele>825.445697</ele>
        <time>2021-11-03T16:19:53.349Z</time>
      </trkpt>
      <trkpt lat="39.551418" lon="-2.238937">
        <ele>825.539315</ele>
        <time>2021-11-03T16:19:53.349Z</time>
      </trkpt>
      <trkpt lat="39.551413" lon="-2.238891">
        <ele>825.632933</ele>
        <time>2021-11-03T16:19:53.349Z</time>
      </trkpt>
      <trkpt lat="39.551409" lon="-2.238845">
        <ele>825.726221</ele>
        <time>2021-11-03T16:19:53.349Z</time>
      </trkpt>
      <trkpt lat="39.551404" lon="-2.238799">
        <ele>825.819839</ele>
        <time>2021-11-03T16:19:53.349Z</time>
      </trkpt>
      <trkpt lat="39.551399" lon="-2.238753">
        <ele>825.913457</ele>
        <time>2021-11-03T16:19:53.349Z</time>
      </trkpt>
      <trkpt lat="39.551397" lon="-2.238707">
        <ele>826.006305</ele>
        <time>2021-11-03T16:19:53.349Z</time>
      </trkpt>
      <trkpt lat="39.551400" lon="-2.238661">
        <ele>826.099337</ele>
        <time>2021-11-03T16:19:53.349Z</time>
      </trkpt>
      <trkpt lat="39.551401" lon="-2.238614">
        <ele>826.194090</ele>
        <time>2021-11-03T16:19:53.349Z</time>
      </trkpt>
      <trkpt lat="39.551399" lon="-2.238568">
        <ele>826.286938</ele>
        <time>2021-11-03T16:19:53.349Z</time>
      </trkpt>
      <trkpt lat="39.551396" lon="-2.238522">
        <ele>826.379970</ele>
        <time>2021-11-03T16:19:53.349Z</time>
      </trkpt>
      <trkpt lat="39.551394" lon="-2.238474">
        <ele>826.476843</ele>
        <time>2021-11-03T16:19:53.349Z</time>
      </trkpt>
      <trkpt lat="39.551393" lon="-2.238427">
        <ele>826.571596</ele>
        <time>2021-11-03T16:19:53.349Z</time>
      </trkpt>
      <trkpt lat="39.551392" lon="-2.238380">
        <ele>826.666348</ele>
        <time>2021-11-03T16:19:53.349Z</time>
      </trkpt>
      <trkpt lat="39.551394" lon="-2.238288">
        <ele>826.851824</ele>
        <time>2021-11-03T16:19:53.349Z</time>
      </trkpt>
      <trkpt lat="39.551406" lon="-2.238154">
        <ele>827.123682</ele>
        <time>2021-11-03T16:19:53.349Z</time>
      </trkpt>
      <trkpt lat="39.551453" lon="-2.237938">
        <ele>827.575975</ele>
        <time>2021-11-03T16:19:53.349Z</time>
      </trkpt>
      <trkpt lat="39.551481" lon="-2.237856">
        <ele>827.756704</ele>
        <time>2021-11-03T16:19:53.349Z</time>
      </trkpt>
      <trkpt lat="39.551563" lon="-2.237648">
        <ele>828.227485</ele>
        <time>2021-11-03T16:19:53.349Z</time>
      </trkpt>
      <trkpt lat="39.551616" lon="-2.237524">
        <ele>828.513200</ele>
        <time>2021-11-03T16:19:53.349Z</time>
      </trkpt>
      <trkpt lat="39.551671" lon="-2.237403">
        <ele>828.796261</ele>
        <time>2021-11-03T16:19:53.349Z</time>
      </trkpt>
      <trkpt lat="39.551813" lon="-2.237143">
        <ele>829.423345</ele>
        <time>2021-11-03T16:19:53.349Z</time>
      </trkpt>
      <trkpt lat="39.551855" lon="-2.237070">
        <ele>829.582886</ele>
        <time>2021-11-03T16:19:53.349Z</time>
      </trkpt>
      <trkpt lat="39.551953" lon="-2.236932">
        <ele>829.911507</ele>
        <time>2021-11-03T16:19:53.349Z</time>
      </trkpt>
      <trkpt lat="39.552110" lon="-2.236708">
        <ele>830.441742</ele>
        <time>2021-11-03T16:19:53.349Z</time>
      </trkpt>
      <trkpt lat="39.552336" lon="-2.236418">
        <ele>831.163968</ele>
        <time>2021-11-03T16:19:53.349Z</time>
      </trkpt>
      <trkpt lat="39.552454" lon="-2.236278">
        <ele>831.527274</ele>
        <time>2021-11-03T16:19:53.349Z</time>
      </trkpt>
      <trkpt lat="39.552665" lon="-2.236048">
        <ele>832.153418</ele>
        <time>2021-11-03T16:19:53.349Z</time>
      </trkpt>
      <trkpt lat="39.552889" lon="-2.235753">
        <ele>832.878633</ele>
        <time>2021-11-03T16:19:53.349Z</time>
      </trkpt>
      <trkpt lat="39.552913" lon="-2.235713">
        <ele>832.967410</ele>
        <time>2021-11-03T16:19:53.349Z</time>
      </trkpt>
      <trkpt lat="39.553054" lon="-2.235412">
        <ele>833.557780</ele>
        <time>2021-11-03T16:19:53.349Z</time>
      </trkpt>
      <trkpt lat="39.553088" lon="-2.235331">
        <ele>833.694782</ele>
        <time>2021-11-03T16:19:53.349Z</time>
      </trkpt>
      <trkpt lat="39.553137" lon="-2.235212">
        <ele>833.895188</ele>
        <time>2021-11-03T16:19:53.349Z</time>
      </trkpt>
      <trkpt lat="39.553209" lon="-2.235052">
        <ele>834.170390</ele>
        <time>2021-11-03T16:19:53.349Z</time>
      </trkpt>
      <trkpt lat="39.553280" lon="-2.234895">
        <ele>834.440772</ele>
        <time>2021-11-03T16:19:53.349Z</time>
      </trkpt>
      <trkpt lat="39.553389" lon="-2.234708">
        <ele>834.789010</ele>
        <time>2021-11-03T16:19:53.349Z</time>
      </trkpt>
      <trkpt lat="39.553464" lon="-2.234597">
        <ele>835.008257</ele>
        <time>2021-11-03T16:19:53.349Z</time>
      </trkpt>
      <trkpt lat="39.553596" lon="-2.234413">
        <ele>835.381605</ele>
        <time>2021-11-03T16:19:53.349Z</time>
      </trkpt>
      <trkpt lat="39.553839" lon="-2.234061">
        <ele>836.083468</ele>
        <time>2021-11-03T16:19:53.349Z</time>
      </trkpt>
      <trkpt lat="39.554022" lon="-2.233705">
        <ele>836.719063</ele>
        <time>2021-11-03T16:19:53.349Z</time>
      </trkpt>
      <trkpt lat="39.554109" lon="-2.233519">
        <ele>836.764411</ele>
        <time>2021-11-03T16:19:53.349Z</time>
      </trkpt>
      <trkpt lat="39.554208" lon="-2.233328">
        <ele>836.538245</ele>
        <time>2021-11-03T16:19:53.349Z</time>
      </trkpt>
      <trkpt lat="39.554396" lon="-2.232956">
        <ele>836.101150</ele>
        <time>2021-11-03T16:19:53.349Z</time>
      </trkpt>
      <trkpt lat="39.554533" lon="-2.232680">
        <ele>835.778579</ele>
        <time>2021-11-03T16:19:53.349Z</time>
      </trkpt>
      <trkpt lat="39.554615" lon="-2.232508">
        <ele>835.579853</ele>
        <time>2021-11-03T16:19:53.349Z</time>
      </trkpt>
      <trkpt lat="39.554785" lon="-2.232149">
        <ele>835.165842</ele>
        <time>2021-11-03T16:19:53.349Z</time>
      </trkpt>
      <trkpt lat="39.554814" lon="-2.232088">
        <ele>835.095418</ele>
        <time>2021-11-03T16:19:53.349Z</time>
      </trkpt>
      <trkpt lat="39.554905" lon="-2.231903">
        <ele>834.879774</ele>
        <time>2021-11-03T16:19:53.349Z</time>
      </trkpt>
      <trkpt lat="39.555008" lon="-2.231714">
        <ele>834.652334</ele>
        <time>2021-11-03T16:19:53.349Z</time>
      </trkpt>
      <trkpt lat="39.555071" lon="-2.231583">
        <ele>834.612954</ele>
        <time>2021-11-03T16:19:53.349Z</time>
      </trkpt>
      <trkpt lat="39.555223" lon="-2.231255">
        <ele>834.752318</ele>
        <time>2021-11-03T16:19:53.349Z</time>
      </trkpt>
      <trkpt lat="39.555315" lon="-2.231070">
        <ele>834.832489</ele>
        <time>2021-11-03T16:19:53.349Z</time>
      </trkpt>
      <trkpt lat="39.555597" lon="-2.230580">
        <ele>835.055163</ele>
        <time>2021-11-03T16:19:53.349Z</time>
      </trkpt>
      <trkpt lat="39.555858" lon="-2.230171">
        <ele>835.248508</ele>
        <time>2021-11-03T16:19:53.349Z</time>
      </trkpt>
      <trkpt lat="39.556080" lon="-2.229833">
        <ele>835.410206</ele>
        <time>2021-11-03T16:19:53.349Z</time>
      </trkpt>
      <trkpt lat="39.556188" lon="-2.229668">
        <ele>835.621369</ele>
        <time>2021-11-03T16:19:53.349Z</time>
      </trkpt>
      <trkpt lat="39.556372" lon="-2.229382">
        <ele>836.072562</ele>
        <time>2021-11-03T16:19:53.349Z</time>
      </trkpt>
      <trkpt lat="39.556476" lon="-2.229218">
        <ele>836.329774</ele>
        <time>2021-11-03T16:19:53.349Z</time>
      </trkpt>
      <trkpt lat="39.556584" lon="-2.229054">
        <ele>836.591023</ele>
        <time>2021-11-03T16:19:53.349Z</time>
      </trkpt>
      <trkpt lat="39.556746" lon="-2.228805">
        <ele>836.985666</ele>
        <time>2021-11-03T16:19:53.349Z</time>
      </trkpt>
      <trkpt lat="39.556937" lon="-2.228516">
        <ele>837.446734</ele>
        <time>2021-11-03T16:19:53.349Z</time>
      </trkpt>
      <trkpt lat="39.556962" lon="-2.228474">
        <ele>837.511005</ele>
        <time>2021-11-03T16:19:53.349Z</time>
      </trkpt>
      <trkpt lat="39.557032" lon="-2.228339">
        <ele>837.708067</ele>
        <time>2021-11-03T16:19:53.349Z</time>
      </trkpt>
      <trkpt lat="39.557160" lon="-2.227941">
        <ele>838.230413</ele>
        <time>2021-11-03T16:19:53.349Z</time>
      </trkpt>
      <trkpt lat="39.557235" lon="-2.227621">
        <ele>837.564200</ele>
        <time>2021-11-03T16:19:53.349Z</time>
      </trkpt>
      <trkpt lat="39.557262" lon="-2.227514">
        <ele>837.313689</ele>
        <time>2021-11-03T16:19:53.349Z</time>
      </trkpt>
      <trkpt lat="39.557394" lon="-2.227113">
        <ele>836.343507</ele>
        <time>2021-11-03T16:19:53.349Z</time>
      </trkpt>
      <trkpt lat="39.557515" lon="-2.226801">
        <ele>835.566399</ele>
        <time>2021-11-03T16:19:53.349Z</time>
      </trkpt>
      <trkpt lat="39.557573" lon="-2.226678">
        <ele>835.245584</ele>
        <time>2021-11-03T16:19:53.349Z</time>
      </trkpt>
      <trkpt lat="39.557636" lon="-2.226547">
        <ele>834.902041</ele>
        <time>2021-11-03T16:19:53.349Z</time>
      </trkpt>
      <trkpt lat="39.557706" lon="-2.226409">
        <ele>834.534483</ele>
        <time>2021-11-03T16:19:53.349Z</time>
      </trkpt>
      <trkpt lat="39.557819" lon="-2.226189">
        <ele>833.946282</ele>
        <time>2021-11-03T16:19:53.349Z</time>
      </trkpt>
      <trkpt lat="39.557938" lon="-2.225962">
        <ele>833.335492</ele>
        <time>2021-11-03T16:19:53.349Z</time>
      </trkpt>
      <trkpt lat="39.557975" lon="-2.225885">
        <ele>833.133610</ele>
        <time>2021-11-03T16:19:53.349Z</time>
      </trkpt>
      <trkpt lat="39.558081" lon="-2.225658">
        <ele>833.134305</ele>
        <time>2021-11-03T16:19:53.349Z</time>
      </trkpt>
      <trkpt lat="39.558148" lon="-2.225517">
        <ele>833.181664</ele>
        <time>2021-11-03T16:19:53.349Z</time>
      </trkpt>
      <trkpt lat="39.558411" lon="-2.224985">
        <ele>833.362367</ele>
        <time>2021-11-03T16:19:53.349Z</time>
      </trkpt>
      <trkpt lat="39.558498" lon="-2.224795">
        <ele>833.425553</ele>
        <time>2021-11-03T16:19:53.349Z</time>
      </trkpt>
      <trkpt lat="39.558552" lon="-2.224669">
        <ele>833.466773</ele>
        <time>2021-11-03T16:19:53.349Z</time>
      </trkpt>
      <trkpt lat="39.558656" lon="-2.224430">
        <ele>833.545244</ele>
        <time>2021-11-03T16:19:53.349Z</time>
      </trkpt>
      <trkpt lat="39.558758" lon="-2.224225">
        <ele>833.615007</ele>
        <time>2021-11-03T16:19:53.349Z</time>
      </trkpt>
      <trkpt lat="39.558851" lon="-2.224040">
        <ele>833.678156</ele>
        <time>2021-11-03T16:19:53.349Z</time>
      </trkpt>
      <trkpt lat="39.558972" lon="-2.223799">
        <ele>833.926402</ele>
        <time>2021-11-03T16:19:53.349Z</time>
      </trkpt>
      <trkpt lat="39.559008" lon="-2.223724">
        <ele>834.110876</ele>
        <time>2021-11-03T16:19:53.349Z</time>
      </trkpt>
      <trkpt lat="39.559079" lon="-2.223569">
        <ele>834.487337</ele>
        <time>2021-11-03T16:19:53.349Z</time>
      </trkpt>
      <trkpt lat="39.559206" lon="-2.223294">
        <ele>835.156683</ele>
        <time>2021-11-03T16:19:53.349Z</time>
      </trkpt>
      <trkpt lat="39.559321" lon="-2.223033">
        <ele>835.784381</ele>
        <time>2021-11-03T16:19:53.349Z</time>
      </trkpt>
      <trkpt lat="39.559418" lon="-2.222830">
        <ele>836.283060</ele>
        <time>2021-11-03T16:19:53.349Z</time>
      </trkpt>
      <trkpt lat="39.559500" lon="-2.222663">
        <ele>836.696476</ele>
        <time>2021-11-03T16:19:53.349Z</time>
      </trkpt>
      <trkpt lat="39.559517" lon="-2.222628">
        <ele>836.782851</ele>
        <time>2021-11-03T16:19:53.349Z</time>
      </trkpt>
      <trkpt lat="39.559658" lon="-2.222343">
        <ele>837.489927</ele>
        <time>2021-11-03T16:19:53.349Z</time>
      </trkpt>
      <trkpt lat="39.559709" lon="-2.222230">
        <ele>837.763329</ele>
        <time>2021-11-03T16:19:53.349Z</time>
      </trkpt>
      <trkpt lat="39.559861" lon="-2.221879">
        <ele>838.603926</ele>
        <time>2021-11-03T16:19:53.349Z</time>
      </trkpt>
      <trkpt lat="39.559988" lon="-2.221536">
        <ele>839.851526</ele>
        <time>2021-11-03T16:19:53.349Z</time>
      </trkpt>
      <trkpt lat="39.560018" lon="-2.221449">
        <ele>840.164220</ele>
        <time>2021-11-03T16:19:53.349Z</time>
      </trkpt>
      <trkpt lat="39.560035" lon="-2.221407">
        <ele>840.319857</ele>
        <time>2021-11-03T16:19:53.349Z</time>
      </trkpt>
      <trkpt lat="39.560117" lon="-2.221146">
        <ele>841.244561</ele>
        <time>2021-11-03T16:19:53.349Z</time>
      </trkpt>
      <trkpt lat="39.560190" lon="-2.220909">
        <ele>842.081908</ele>
        <time>2021-11-03T16:19:53.349Z</time>
      </trkpt>
      <trkpt lat="39.560222" lon="-2.220800">
        <ele>842.464583</ele>
        <time>2021-11-03T16:19:53.349Z</time>
      </trkpt>
      <trkpt lat="39.560260" lon="-2.220659">
        <ele>842.954647</ele>
        <time>2021-11-03T16:19:53.349Z</time>
      </trkpt>
      <trkpt lat="39.560268" lon="-2.220625">
        <ele>843.071279</ele>
        <time>2021-11-03T16:19:53.349Z</time>
      </trkpt>
      <trkpt lat="39.560304" lon="-2.220497">
        <ele>843.518312</ele>
        <time>2021-11-03T16:19:53.349Z</time>
      </trkpt>
      <trkpt lat="39.560321" lon="-2.220438">
        <ele>843.724965</ele>
        <time>2021-11-03T16:19:53.349Z</time>
      </trkpt>
      <trkpt lat="39.560337" lon="-2.220382">
        <ele>843.920909</ele>
        <time>2021-11-03T16:19:53.349Z</time>
      </trkpt>
      <trkpt lat="39.560384" lon="-2.220216">
        <ele>844.501111</ele>
        <time>2021-11-03T16:19:53.349Z</time>
      </trkpt>
      <trkpt lat="39.560392" lon="-2.220188">
        <ele>844.599083</ele>
        <time>2021-11-03T16:19:53.349Z</time>
      </trkpt>
      <trkpt lat="39.560446" lon="-2.220001">
        <ele>845.254245</ele>
        <time>2021-11-03T16:19:53.349Z</time>
      </trkpt>
      <trkpt lat="39.560464" lon="-2.219948">
        <ele>845.444259</ele>
        <time>2021-11-03T16:19:53.349Z</time>
      </trkpt>
      <trkpt lat="39.560515" lon="-2.219794">
        <ele>845.994166</ele>
        <time>2021-11-03T16:19:53.349Z</time>
      </trkpt>
      <trkpt lat="39.560568" lon="-2.219602">
        <ele>846.699535</ele>
        <time>2021-11-03T16:19:53.349Z</time>
      </trkpt>
      <trkpt lat="39.560581" lon="-2.219546">
        <ele>846.908666</ele>
        <time>2021-11-03T16:19:53.349Z</time>
      </trkpt>
      <trkpt lat="39.560611" lon="-2.219437">
        <ele>847.322529</ele>
        <time>2021-11-03T16:19:53.349Z</time>
      </trkpt>
      <trkpt lat="39.560636" lon="-2.219359">
        <ele>847.624591</ele>
        <time>2021-11-03T16:19:53.349Z</time>
      </trkpt>
      <trkpt lat="39.560651" lon="-2.219303">
        <ele>847.836582</ele>
        <time>2021-11-03T16:19:53.349Z</time>
      </trkpt>
      <trkpt lat="39.560702" lon="-2.219171">
        <ele>848.364554</ele>
        <time>2021-11-03T16:19:53.349Z</time>
      </trkpt>
      <trkpt lat="39.560737" lon="-2.219093">
        <ele>848.687276</ele>
        <time>2021-11-03T16:19:53.349Z</time>
      </trkpt>
      <trkpt lat="39.560806" lon="-2.218989">
        <ele>849.177916</ele>
        <time>2021-11-03T16:19:53.349Z</time>
      </trkpt>
      <trkpt lat="39.560843" lon="-2.218938">
        <ele>849.428337</ele>
        <time>2021-11-03T16:19:53.349Z</time>
      </trkpt>
      <trkpt lat="39.560882" lon="-2.218887">
        <ele>849.685203</ele>
        <time>2021-11-03T16:19:53.349Z</time>
      </trkpt>
      <trkpt lat="39.560989" lon="-2.218760">
        <ele>850.357918</ele>
        <time>2021-11-03T16:19:53.349Z</time>
      </trkpt>
      <trkpt lat="39.561082" lon="-2.218656">
        <ele>850.927454</ele>
        <time>2021-11-03T16:19:53.349Z</time>
      </trkpt>
      <trkpt lat="39.561230" lon="-2.218496">
        <ele>851.821082</ele>
        <time>2021-11-03T16:19:53.349Z</time>
      </trkpt>
      <trkpt lat="39.561276" lon="-2.218441">
        <ele>852.111258</ele>
        <time>2021-11-03T16:19:53.349Z</time>
      </trkpt>
      <trkpt lat="39.561426" lon="-2.218243">
        <ele>853.103901</ele>
        <time>2021-11-03T16:19:53.349Z</time>
      </trkpt>
      <trkpt lat="39.561584" lon="-2.218052">
        <ele>854.105664</ele>
        <time>2021-11-03T16:19:53.349Z</time>
      </trkpt>
      <trkpt lat="39.561789" lon="-2.217803">
        <ele>855.359998</ele>
        <time>2021-11-03T16:19:53.349Z</time>
      </trkpt>
      <trkpt lat="39.561809" lon="-2.217773">
        <ele>855.493318</ele>
        <time>2021-11-03T16:19:53.349Z</time>
      </trkpt>
      <trkpt lat="39.561875" lon="-2.217601">
        <ele>856.139148</ele>
        <time>2021-11-03T16:19:53.349Z</time>
      </trkpt>
      <trkpt lat="39.561954" lon="-2.217492">
        <ele>856.642039</ele>
        <time>2021-11-03T16:19:53.349Z</time>
      </trkpt>
      <trkpt lat="39.562002" lon="-2.217448">
        <ele>856.898317</ele>
        <time>2021-11-03T16:19:53.349Z</time>
      </trkpt>
      <trkpt lat="39.562048" lon="-2.217400">
        <ele>857.155732</ele>
        <time>2021-11-03T16:19:53.349Z</time>
      </trkpt>
      <trkpt lat="39.562163" lon="-2.217272">
        <ele>857.816456</ele>
        <time>2021-11-03T16:19:53.349Z</time>
      </trkpt>
      <trkpt lat="39.562243" lon="-2.217159">
        <ele>858.332164</ele>
        <time>2021-11-03T16:19:53.349Z</time>
      </trkpt>
      <trkpt lat="39.562261" lon="-2.217129">
        <ele>858.459950</ele>
        <time>2021-11-03T16:19:53.349Z</time>
      </trkpt>
      <trkpt lat="39.562278" lon="-2.217099">
        <ele>858.585104</ele>
        <time>2021-11-03T16:19:53.349Z</time>
      </trkpt>
      <trkpt lat="39.562410" lon="-2.216860">
        <ele>859.573377</ele>
        <time>2021-11-03T16:19:53.349Z</time>
      </trkpt>
      <trkpt lat="39.562475" lon="-2.216694">
        <ele>860.199225</ele>
        <time>2021-11-03T16:19:53.349Z</time>
      </trkpt>
      <trkpt lat="39.562533" lon="-2.216524">
        <ele>860.824127</ele>
        <time>2021-11-03T16:19:53.349Z</time>
      </trkpt>
      <trkpt lat="39.562554" lon="-2.216455">
        <ele>861.073485</ele>
        <time>2021-11-03T16:19:53.349Z</time>
      </trkpt>
      <trkpt lat="39.562636" lon="-2.216128">
        <ele>862.229359</ele>
        <time>2021-11-03T16:19:53.349Z</time>
      </trkpt>
      <trkpt lat="39.562645" lon="-2.216091">
        <ele>862.359776</ele>
        <time>2021-11-03T16:19:53.349Z</time>
      </trkpt>
      <trkpt lat="39.562742" lon="-2.215733">
        <ele>863.055716</ele>
        <time>2021-11-03T16:19:53.349Z</time>
      </trkpt>
      <trkpt lat="39.562761" lon="-2.215663">
        <ele>863.183715</ele>
        <time>2021-11-03T16:19:53.349Z</time>
      </trkpt>
      <trkpt lat="39.562808" lon="-2.215520">
        <ele>863.451836</ele>
        <time>2021-11-03T16:19:53.349Z</time>
      </trkpt>
      <trkpt lat="39.562835" lon="-2.215452">
        <ele>863.583762</ele>
        <time>2021-11-03T16:19:53.349Z</time>
      </trkpt>
      <trkpt lat="39.562901" lon="-2.215326">
        <ele>863.846500</ele>
        <time>2021-11-03T16:19:53.349Z</time>
      </trkpt>
      <trkpt lat="39.563013" lon="-2.215149">
        <ele>864.241449</ele>
        <time>2021-11-03T16:19:53.349Z</time>
      </trkpt>
      <trkpt lat="39.563118" lon="-2.215010">
        <ele>864.577097</ele>
        <time>2021-11-03T16:19:53.349Z</time>
      </trkpt>
      <trkpt lat="39.563140" lon="-2.214984">
        <ele>864.643682</ele>
        <time>2021-11-03T16:19:53.349Z</time>
      </trkpt>
      <trkpt lat="39.563411" lon="-2.214688">
        <ele>865.436295</ele>
        <time>2021-11-03T16:19:53.349Z</time>
      </trkpt>
      <trkpt lat="39.563681" lon="-2.214381">
        <ele>866.239574</ele>
        <time>2021-11-03T16:19:53.349Z</time>
      </trkpt>
      <trkpt lat="39.563861" lon="-2.214065">
        <ele>865.854431</ele>
        <time>2021-11-03T16:19:53.349Z</time>
      </trkpt>
      <trkpt lat="39.563889" lon="-2.214004">
        <ele>865.686583</ele>
        <time>2021-11-03T16:19:53.349Z</time>
      </trkpt>
      <trkpt lat="39.563964" lon="-2.213808">
        <ele>865.169248</ele>
        <time>2021-11-03T16:19:53.349Z</time>
      </trkpt>
      <trkpt lat="39.564008" lon="-2.213672">
        <ele>864.820544</ele>
        <time>2021-11-03T16:19:53.349Z</time>
      </trkpt>
      <trkpt lat="39.564024" lon="-2.213600">
        <ele>864.643388</ele>
        <time>2021-11-03T16:19:53.349Z</time>
      </trkpt>
      <trkpt lat="39.564033" lon="-2.213527">
        <ele>864.468606</ele>
        <time>2021-11-03T16:19:53.349Z</time>
      </trkpt>
      <trkpt lat="39.564038" lon="-2.213452">
        <ele>864.290626</ele>
        <time>2021-11-03T16:19:53.349Z</time>
      </trkpt>
      <trkpt lat="39.564024" lon="-2.213231">
        <ele>863.766369</ele>
        <time>2021-11-03T16:19:53.349Z</time>
      </trkpt>
      <trkpt lat="39.564009" lon="-2.213158">
        <ele>863.587754</ele>
        <time>2021-11-03T16:19:53.349Z</time>
      </trkpt>
      <trkpt lat="39.563963" lon="-2.212936">
        <ele>863.044265</ele>
        <time>2021-11-03T16:19:53.349Z</time>
      </trkpt>
      <trkpt lat="39.563928" lon="-2.212790">
        <ele>862.682782</ele>
        <time>2021-11-03T16:19:53.349Z</time>
      </trkpt>
      <trkpt lat="39.563891" lon="-2.212648">
        <ele>862.328402</ele>
        <time>2021-11-03T16:19:53.349Z</time>
      </trkpt>
      <trkpt lat="39.563811" lon="-2.212359">
        <ele>861.602423</ele>
        <time>2021-11-03T16:19:53.349Z</time>
      </trkpt>
      <trkpt lat="39.563715" lon="-2.211999">
        <ele>860.847713</ele>
        <time>2021-11-03T16:19:53.349Z</time>
      </trkpt>
      <trkpt lat="39.563674" lon="-2.211852">
        <ele>860.692915</ele>
        <time>2021-11-03T16:19:53.349Z</time>
      </trkpt>
      <trkpt lat="39.563537" lon="-2.211435">
        <ele>860.244054</ele>
        <time>2021-11-03T16:19:53.349Z</time>
      </trkpt>
      <trkpt lat="39.563338" lon="-2.211071">
        <ele>859.802173</ele>
        <time>2021-11-03T16:19:53.349Z</time>
      </trkpt>
      <trkpt lat="39.563259" lon="-2.210964">
        <ele>859.655464</ele>
        <time>2021-11-03T16:19:53.349Z</time>
      </trkpt>
      <trkpt lat="39.563050" lon="-2.210624">
        <ele>859.224855</ele>
        <time>2021-11-03T16:19:53.349Z</time>
      </trkpt>
      <trkpt lat="39.562900" lon="-2.210152">
        <ele>858.719305</ele>
        <time>2021-11-03T16:19:53.349Z</time>
      </trkpt>
      <trkpt lat="39.562880" lon="-2.210005">
        <ele>858.647310</ele>
        <time>2021-11-03T16:19:53.349Z</time>
      </trkpt>
      <trkpt lat="39.562876" lon="-2.209856">
        <ele>858.657246</ele>
        <time>2021-11-03T16:19:53.349Z</time>
      </trkpt>
      <trkpt lat="39.562876" lon="-2.209782">
        <ele>858.662177</ele>
        <time>2021-11-03T16:19:53.349Z</time>
      </trkpt>
      <trkpt lat="39.562851" lon="-2.209204">
        <ele>858.700758</ele>
        <time>2021-11-03T16:19:53.349Z</time>
      </trkpt>
      <trkpt lat="39.562858" lon="-2.208478">
        <ele>858.749146</ele>
        <time>2021-11-03T16:19:53.349Z</time>
      </trkpt>
      <trkpt lat="39.562879" lon="-2.207754">
        <ele>858.797430</ele>
        <time>2021-11-03T16:19:53.349Z</time>
      </trkpt>
      <trkpt lat="39.562888" lon="-2.207618">
        <ele>858.844499</ele>
        <time>2021-11-03T16:19:53.349Z</time>
      </trkpt>
      <trkpt lat="39.562966" lon="-2.207172">
        <ele>859.010951</ele>
        <time>2021-11-03T16:19:53.349Z</time>
      </trkpt>
      <trkpt lat="39.562984" lon="-2.207110">
        <ele>859.035064</ele>
        <time>2021-11-03T16:19:53.349Z</time>
      </trkpt>
      <trkpt lat="39.563191" lon="-2.206551">
        <ele>859.260773</ele>
        <time>2021-11-03T16:19:53.349Z</time>
      </trkpt>
      <trkpt lat="39.563340" lon="-2.206165">
        <ele>859.417889</ele>
        <time>2021-11-03T16:19:53.349Z</time>
      </trkpt>
      <trkpt lat="39.563442" lon="-2.205900">
        <ele>859.525692</ele>
        <time>2021-11-03T16:19:53.349Z</time>
      </trkpt>
      <trkpt lat="39.563490" lon="-2.205765">
        <ele>859.579801</ele>
        <time>2021-11-03T16:19:53.349Z</time>
      </trkpt>
      <trkpt lat="39.563586" lon="-2.205368">
        <ele>859.778543</ele>
        <time>2021-11-03T16:19:53.349Z</time>
      </trkpt>
      <trkpt lat="39.563591" lon="-2.205235">
        <ele>859.854283</ele>
        <time>2021-11-03T16:19:53.349Z</time>
      </trkpt>
      <trkpt lat="39.563574" lon="-2.205037">
        <ele>859.967602</ele>
        <time>2021-11-03T16:19:53.349Z</time>
      </trkpt>
      <trkpt lat="39.563563" lon="-2.204971">
        <ele>860.006010</ele>
        <time>2021-11-03T16:19:53.349Z</time>
      </trkpt>
      <trkpt lat="39.563498" lon="-2.204653">
        <ele>860.193139</ele>
        <time>2021-11-03T16:19:53.349Z</time>
      </trkpt>
      <trkpt lat="39.563405" lon="-2.204205">
        <ele>860.457040</ele>
        <time>2021-11-03T16:19:53.349Z</time>
      </trkpt>
      <trkpt lat="39.563376" lon="-2.204078">
        <ele>860.532380</ele>
        <time>2021-11-03T16:19:53.349Z</time>
      </trkpt>
      <trkpt lat="39.563306" lon="-2.203645">
        <ele>860.784029</ele>
        <time>2021-11-03T16:19:53.349Z</time>
      </trkpt>
      <trkpt lat="39.563292" lon="-2.203515">
        <ele>860.858691</ele>
        <time>2021-11-03T16:19:53.349Z</time>
      </trkpt>
      <trkpt lat="39.563271" lon="-2.202903">
        <ele>861.399560</ele>
        <time>2021-11-03T16:19:53.349Z</time>
      </trkpt>
      <trkpt lat="39.563239" lon="-2.202434">
        <ele>861.888644</ele>
        <time>2021-11-03T16:19:53.349Z</time>
      </trkpt>
      <trkpt lat="39.563212" lon="-2.202310">
        <ele>862.022490</ele>
        <time>2021-11-03T16:19:53.349Z</time>
      </trkpt>
      <trkpt lat="39.563036" lon="-2.201806">
        <ele>862.597233</ele>
        <time>2021-11-03T16:19:53.349Z</time>
      </trkpt>
      <trkpt lat="39.562900" lon="-2.201509">
        <ele>862.956067</ele>
        <time>2021-11-03T16:19:53.349Z</time>
      </trkpt>
      <trkpt lat="39.562844" lon="-2.201346">
        <ele>863.141438</ele>
        <time>2021-11-03T16:19:53.349Z</time>
      </trkpt>
      <trkpt lat="39.562721" lon="-2.200786">
        <ele>863.702786</ele>
        <time>2021-11-03T16:19:53.349Z</time>
      </trkpt>
      <trkpt lat="39.562668" lon="-2.200459">
        <ele>864.006552</ele>
        <time>2021-11-03T16:19:53.349Z</time>
      </trkpt>
      <trkpt lat="39.562647" lon="-2.200328">
        <ele>864.128189</ele>
        <time>2021-11-03T16:19:53.349Z</time>
      </trkpt>
      <trkpt lat="39.562593" lon="-2.200074">
        <ele>864.367713</ele>
        <time>2021-11-03T16:19:53.349Z</time>
      </trkpt>
      <trkpt lat="39.562481" lon="-2.199497">
        <ele>864.908621</ele>
        <time>2021-11-03T16:19:53.349Z</time>
      </trkpt>
      <trkpt lat="39.562335" lon="-2.198800">
        <ele>865.431619</ele>
        <time>2021-11-03T16:19:53.349Z</time>
      </trkpt>
      <trkpt lat="39.562319" lon="-2.198730">
        <ele>865.307164</ele>
        <time>2021-11-03T16:19:53.349Z</time>
      </trkpt>
      <trkpt lat="39.562216" lon="-2.198171">
        <ele>864.327454</ele>
        <time>2021-11-03T16:19:53.349Z</time>
      </trkpt>
      <trkpt lat="39.562188" lon="-2.197956">
        <ele>863.955772</ele>
        <time>2021-11-03T16:19:53.349Z</time>
      </trkpt>
      <trkpt lat="39.562169" lon="-2.197816">
        <ele>863.713458</ele>
        <time>2021-11-03T16:19:53.349Z</time>
      </trkpt>
      <trkpt lat="39.562144" lon="-2.197678">
        <ele>863.471816</ele>
        <time>2021-11-03T16:19:53.349Z</time>
      </trkpt>
      <trkpt lat="39.562112" lon="-2.197537">
        <ele>863.221268</ele>
        <time>2021-11-03T16:19:53.349Z</time>
      </trkpt>
      <trkpt lat="39.562067" lon="-2.197398">
        <ele>862.964285</ele>
        <time>2021-11-03T16:19:53.349Z</time>
      </trkpt>
      <trkpt lat="39.562040" lon="-2.197336">
        <ele>862.842903</ele>
        <time>2021-11-03T16:19:53.349Z</time>
      </trkpt>
      <trkpt lat="39.562012" lon="-2.197275">
        <ele>862.721887</ele>
        <time>2021-11-03T16:19:53.349Z</time>
      </trkpt>
      <trkpt lat="39.561907" lon="-2.197046">
        <ele>862.267709</ele>
        <time>2021-11-03T16:19:53.349Z</time>
      </trkpt>
      <trkpt lat="39.561849" lon="-2.196951">
        <ele>862.061142</ele>
        <time>2021-11-03T16:19:53.349Z</time>
      </trkpt>
      <trkpt lat="39.561789" lon="-2.196863">
        <ele>861.860887</ele>
        <time>2021-11-03T16:19:53.349Z</time>
      </trkpt>
      <trkpt lat="39.561669" lon="-2.196688">
        <ele>861.525519</ele>
        <time>2021-11-03T16:19:53.349Z</time>
      </trkpt>
      <trkpt lat="39.561640" lon="-2.196643">
        <ele>861.505214</ele>
        <time>2021-11-03T16:19:53.349Z</time>
      </trkpt>
      <trkpt lat="39.561409" lon="-2.196273">
        <ele>861.340387</ele>
        <time>2021-11-03T16:19:53.349Z</time>
      </trkpt>
      <trkpt lat="39.561297" lon="-2.196073">
        <ele>861.254809</ele>
        <time>2021-11-03T16:19:53.349Z</time>
      </trkpt>
      <trkpt lat="39.560982" lon="-2.195534">
        <ele>861.020654</ele>
        <time>2021-11-03T16:19:53.349Z</time>
      </trkpt>
      <trkpt lat="39.560914" lon="-2.195417">
        <ele>860.969928</ele>
        <time>2021-11-03T16:19:53.349Z</time>
      </trkpt>
      <trkpt lat="39.560722" lon="-2.195101">
        <ele>860.830638</ele>
        <time>2021-11-03T16:19:53.349Z</time>
      </trkpt>
      <trkpt lat="39.560640" lon="-2.194967">
        <ele>860.771409</ele>
        <time>2021-11-03T16:19:53.349Z</time>
      </trkpt>
      <trkpt lat="39.560484" lon="-2.194718">
        <ele>861.076839</ele>
        <time>2021-11-03T16:19:53.349Z</time>
      </trkpt>
      <trkpt lat="39.560409" lon="-2.194598">
        <ele>861.325300</ele>
        <time>2021-11-03T16:19:53.349Z</time>
      </trkpt>
      <trkpt lat="39.560300" lon="-2.194426">
        <ele>861.683408</ele>
        <time>2021-11-03T16:19:53.349Z</time>
      </trkpt>
      <trkpt lat="39.560213" lon="-2.194261">
        <ele>862.004922</ele>
        <time>2021-11-03T16:19:53.349Z</time>
      </trkpt>
      <trkpt lat="39.560138" lon="-2.194114">
        <ele>862.288440</ele>
        <time>2021-11-03T16:19:53.349Z</time>
      </trkpt>
      <trkpt lat="39.560063" lon="-2.193983">
        <ele>862.550883</ele>
        <time>2021-11-03T16:19:53.349Z</time>
      </trkpt>
      <trkpt lat="39.560039" lon="-2.193938">
        <ele>862.638891</ele>
        <time>2021-11-03T16:19:53.349Z</time>
      </trkpt>
      <trkpt lat="39.559966" lon="-2.193803">
        <ele>862.904108</ele>
        <time>2021-11-03T16:19:53.349Z</time>
      </trkpt>
      <trkpt lat="39.559842" lon="-2.193581">
        <ele>863.345035</ele>
        <time>2021-11-03T16:19:53.349Z</time>
      </trkpt>
      <trkpt lat="39.559712" lon="-2.193362">
        <ele>863.789587</ele>
        <time>2021-11-03T16:19:53.349Z</time>
      </trkpt>
      <trkpt lat="39.559657" lon="-2.193269">
        <ele>863.978109</ele>
        <time>2021-11-03T16:19:53.349Z</time>
      </trkpt>
      <trkpt lat="39.559436" lon="-2.192911">
        <ele>864.472222</ele>
        <time>2021-11-03T16:19:53.349Z</time>
      </trkpt>
      <trkpt lat="39.559299" lon="-2.192687">
        <ele>864.443625</ele>
        <time>2021-11-03T16:19:53.349Z</time>
      </trkpt>
      <trkpt lat="39.559153" lon="-2.192451">
        <ele>864.413361</ele>
        <time>2021-11-03T16:19:53.349Z</time>
      </trkpt>
      <trkpt lat="39.559035" lon="-2.192268">
        <ele>864.389500</ele>
        <time>2021-11-03T16:19:53.349Z</time>
      </trkpt>
      <trkpt lat="39.558784" lon="-2.191776">
        <ele>864.330494</ele>
        <time>2021-11-03T16:19:53.349Z</time>
      </trkpt>
      <trkpt lat="39.558715" lon="-2.191538">
        <ele>864.305063</ele>
        <time>2021-11-03T16:19:53.349Z</time>
      </trkpt>
      <trkpt lat="39.558648" lon="-2.191315">
        <ele>864.281125</ele>
        <time>2021-11-03T16:19:53.349Z</time>
      </trkpt>
      <trkpt lat="39.558588" lon="-2.191199">
        <ele>864.267154</ele>
        <time>2021-11-03T16:19:53.349Z</time>
      </trkpt>
      <trkpt lat="39.558554" lon="-2.191148">
        <ele>864.260411</ele>
        <time>2021-11-03T16:19:53.349Z</time>
      </trkpt>
      <trkpt lat="39.558478" lon="-2.191067">
        <ele>864.254969</ele>
        <time>2021-11-03T16:19:53.349Z</time>
      </trkpt>
      <trkpt lat="39.558268" lon="-2.190915">
        <ele>864.265330</ele>
        <time>2021-11-03T16:19:53.349Z</time>
      </trkpt>
      <trkpt lat="39.558178" lon="-2.190864">
        <ele>864.269562</ele>
        <time>2021-11-03T16:19:53.349Z</time>
      </trkpt>
      <trkpt lat="39.558089" lon="-2.190810">
        <ele>864.273796</ele>
        <time>2021-11-03T16:19:53.349Z</time>
      </trkpt>
      <trkpt lat="39.557999" lon="-2.190751">
        <ele>864.278141</ele>
        <time>2021-11-03T16:19:53.349Z</time>
      </trkpt>
      <trkpt lat="39.557870" lon="-2.190663">
        <ele>864.284421</ele>
        <time>2021-11-03T16:19:53.349Z</time>
      </trkpt>
      <trkpt lat="39.557744" lon="-2.190568">
        <ele>864.290701</ele>
        <time>2021-11-03T16:19:53.349Z</time>
      </trkpt>
      <trkpt lat="39.557652" lon="-2.190506">
        <ele>864.295168</ele>
        <time>2021-11-03T16:19:53.349Z</time>
      </trkpt>
      <trkpt lat="39.557372" lon="-2.190345">
        <ele>864.308364</ele>
        <time>2021-11-03T16:19:53.349Z</time>
      </trkpt>
      <trkpt lat="39.557129" lon="-2.190225">
        <ele>864.319568</ele>
        <time>2021-11-03T16:19:53.349Z</time>
      </trkpt>
      <trkpt lat="39.556998" lon="-2.190126">
        <ele>864.326100</ele>
        <time>2021-11-03T16:19:53.349Z</time>
      </trkpt>
      <trkpt lat="39.556854" lon="-2.190046">
        <ele>864.379970</ele>
        <time>2021-11-03T16:19:53.349Z</time>
      </trkpt>
      <trkpt lat="39.556701" lon="-2.189991">
        <ele>864.532802</ele>
        <time>2021-11-03T16:19:53.349Z</time>
      </trkpt>
      <trkpt lat="39.556517" lon="-2.189920">
        <ele>864.717596</ele>
        <time>2021-11-03T16:19:53.349Z</time>
      </trkpt>
      <trkpt lat="39.556433" lon="-2.189864">
        <ele>864.808512</ele>
        <time>2021-11-03T16:19:53.349Z</time>
      </trkpt>
      <trkpt lat="39.556177" lon="-2.189676">
        <ele>865.091702</ele>
        <time>2021-11-03T16:19:53.349Z</time>
      </trkpt>
      <trkpt lat="39.555881" lon="-2.189529">
        <ele>865.396810</ele>
        <time>2021-11-03T16:19:53.349Z</time>
      </trkpt>
      <trkpt lat="39.555781" lon="-2.189476">
        <ele>865.500799</ele>
        <time>2021-11-03T16:19:53.349Z</time>
      </trkpt>
      <trkpt lat="39.555477" lon="-2.189337">
        <ele>865.811087</ele>
        <time>2021-11-03T16:19:53.349Z</time>
      </trkpt>
      <trkpt lat="39.555159" lon="-2.189222">
        <ele>866.067621</ele>
        <time>2021-11-03T16:19:53.349Z</time>
      </trkpt>
      <trkpt lat="39.554774" lon="-2.189117">
        <ele>866.099192</ele>
        <time>2021-11-03T16:19:53.349Z</time>
      </trkpt>
      <trkpt lat="39.554341" lon="-2.189005">
        <ele>866.134624</ele>
        <time>2021-11-03T16:19:53.349Z</time>
      </trkpt>
      <trkpt lat="39.554235" lon="-2.188982">
        <ele>866.143249</ele>
        <time>2021-11-03T16:19:53.349Z</time>
      </trkpt>
      <trkpt lat="39.554126" lon="-2.188964">
        <ele>866.152067</ele>
        <time>2021-11-03T16:19:53.349Z</time>
      </trkpt>
      <trkpt lat="39.553838" lon="-2.188921">
        <ele>866.175331</ele>
        <time>2021-11-03T16:19:53.349Z</time>
      </trkpt>
      <trkpt lat="39.553544" lon="-2.188860">
        <ele>866.199225</ele>
        <time>2021-11-03T16:19:53.349Z</time>
      </trkpt>
      <trkpt lat="39.553487" lon="-2.188852">
        <ele>866.203826</ele>
        <time>2021-11-03T16:19:53.349Z</time>
      </trkpt>
      <trkpt lat="39.553371" lon="-2.188844">
        <ele>866.105513</ele>
        <time>2021-11-03T16:19:53.349Z</time>
      </trkpt>
      <trkpt lat="39.553079" lon="-2.188861">
        <ele>865.755391</ele>
        <time>2021-11-03T16:19:53.349Z</time>
      </trkpt>
      <trkpt lat="39.553018" lon="-2.188864">
        <ele>865.682270</ele>
        <time>2021-11-03T16:19:53.349Z</time>
      </trkpt>
      <trkpt lat="39.552784" lon="-2.188832">
        <ele>865.400421</ele>
        <time>2021-11-03T16:19:53.349Z</time>
      </trkpt>
      <trkpt lat="39.552736" lon="-2.188797">
        <ele>865.334460</ele>
        <time>2021-11-03T16:19:53.349Z</time>
      </trkpt>
      <trkpt lat="39.552694" lon="-2.188755">
        <ele>865.270933</ele>
        <time>2021-11-03T16:19:53.349Z</time>
      </trkpt>
      <trkpt lat="39.552605" lon="-2.188607">
        <ele>865.097585</ele>
        <time>2021-11-03T16:19:53.349Z</time>
      </trkpt>
      <trkpt lat="39.552528" lon="-2.188435">
        <ele>864.913893</ele>
        <time>2021-11-03T16:19:53.349Z</time>
      </trkpt>
      <trkpt lat="39.552457" lon="-2.188344">
        <ele>864.794324</ele>
        <time>2021-11-03T16:19:53.349Z</time>
      </trkpt>
      <trkpt lat="39.552045" lon="-2.187976">
        <ele>864.195097</ele>
        <time>2021-11-03T16:19:53.349Z</time>
      </trkpt>
      <trkpt lat="39.551955" lon="-2.187924">
        <ele>864.077077</ele>
        <time>2021-11-03T16:19:53.349Z</time>
      </trkpt>
      <trkpt lat="39.551860" lon="-2.187885">
        <ele>864.143846</ele>
        <time>2021-11-03T16:19:53.349Z</time>
      </trkpt>
      <trkpt lat="39.551762" lon="-2.187859">
        <ele>864.260830</ele>
        <time>2021-11-03T16:19:53.349Z</time>
      </trkpt>
      <trkpt lat="39.551613" lon="-2.187838">
        <ele>864.436110</ele>
        <time>2021-11-03T16:19:53.349Z</time>
      </trkpt>
      <trkpt lat="39.551416" lon="-2.187815">
        <ele>864.667432</ele>
        <time>2021-11-03T16:19:53.349Z</time>
      </trkpt>
      <trkpt lat="39.551316" lon="-2.187810">
        <ele>864.784468</ele>
        <time>2021-11-03T16:19:53.349Z</time>
      </trkpt>
      <trkpt lat="39.551267" lon="-2.187808">
        <ele>864.841801</ele>
        <time>2021-11-03T16:19:53.349Z</time>
      </trkpt>
      <trkpt lat="39.550864" lon="-2.187813">
        <ele>865.313127</ele>
        <time>2021-11-03T16:19:53.349Z</time>
      </trkpt>
      <trkpt lat="39.550761" lon="-2.187837">
        <ele>865.435514</ele>
        <time>2021-11-03T16:19:53.349Z</time>
      </trkpt>
      <trkpt lat="39.550457" lon="-2.187956">
        <ele>865.806881</ele>
        <time>2021-11-03T16:19:53.349Z</time>
      </trkpt>
      <trkpt lat="39.549989" lon="-2.188188">
        <ele>866.275060</ele>
        <time>2021-11-03T16:19:53.349Z</time>
      </trkpt>
      <trkpt lat="39.549535" lon="-2.188500">
        <ele>866.577912</ele>
        <time>2021-11-03T16:19:53.349Z</time>
      </trkpt>
      <trkpt lat="39.549486" lon="-2.188527">
        <ele>866.609293</ele>
        <time>2021-11-03T16:19:53.349Z</time>
      </trkpt>
      <trkpt lat="39.549385" lon="-2.188547">
        <ele>866.669516</ele>
        <time>2021-11-03T16:19:53.349Z</time>
      </trkpt>
      <trkpt lat="39.549334" lon="-2.188544">
        <ele>866.699608</ele>
        <time>2021-11-03T16:19:53.349Z</time>
      </trkpt>
      <trkpt lat="39.549232" lon="-2.188521">
        <ele>866.760632</ele>
        <time>2021-11-03T16:19:53.349Z</time>
      </trkpt>
      <trkpt lat="39.549097" lon="-2.188442">
        <ele>866.847931</ele>
        <time>2021-11-03T16:19:53.349Z</time>
      </trkpt>
      <trkpt lat="39.549045" lon="-2.188346">
        <ele>866.901253</ele>
        <time>2021-11-03T16:19:53.349Z</time>
      </trkpt>
      <trkpt lat="39.549035" lon="-2.188290">
        <ele>866.927378</ele>
        <time>2021-11-03T16:19:53.349Z</time>
      </trkpt>
      <trkpt lat="39.549034" lon="-2.188230">
        <ele>866.954655</ele>
        <time>2021-11-03T16:19:53.349Z</time>
      </trkpt>
      <trkpt lat="39.549057" lon="-2.188107">
        <ele>867.012178</ele>
        <time>2021-11-03T16:19:53.349Z</time>
      </trkpt>
      <trkpt lat="39.549075" lon="-2.188047">
        <ele>867.041440</ele>
        <time>2021-11-03T16:19:53.349Z</time>
      </trkpt>
      <trkpt lat="39.549172" lon="-2.187677">
        <ele>867.233584</ele>
        <time>2021-11-03T16:19:53.349Z</time>
      </trkpt>
      <trkpt lat="39.549212" lon="-2.187558">
        <ele>867.538517</ele>
        <time>2021-11-03T16:19:53.349Z</time>
      </trkpt>
      <trkpt lat="39.549302" lon="-2.187261">
        <ele>868.288101</ele>
        <time>2021-11-03T16:19:53.349Z</time>
      </trkpt>
      <trkpt lat="39.549336" lon="-2.187149">
        <ele>868.570840</ele>
        <time>2021-11-03T16:19:53.349Z</time>
      </trkpt>
      <trkpt lat="39.549361" lon="-2.187036">
        <ele>868.846983</ele>
        <time>2021-11-03T16:19:53.349Z</time>
      </trkpt>
      <trkpt lat="39.549368" lon="-2.186979">
        <ele>868.982561</ele>
        <time>2021-11-03T16:19:53.349Z</time>
      </trkpt>
      <trkpt lat="39.549369" lon="-2.186922">
        <ele>869.116487</ele>
        <time>2021-11-03T16:19:53.349Z</time>
      </trkpt>
      <trkpt lat="39.549356" lon="-2.186708">
        <ele>869.620723</ele>
        <time>2021-11-03T16:19:53.349Z</time>
      </trkpt>
      <trkpt lat="39.549340" lon="-2.186515">
        <ele>870.076686</ele>
        <time>2021-11-03T16:19:53.349Z</time>
      </trkpt>
      <trkpt lat="39.549302" lon="-2.186275">
        <ele>870.652201</ele>
        <time>2021-11-03T16:19:53.349Z</time>
      </trkpt>
      <trkpt lat="39.549286" lon="-2.186170">
        <ele>870.903612</ele>
        <time>2021-11-03T16:19:53.349Z</time>
      </trkpt>
      <trkpt lat="39.549274" lon="-2.186004">
        <ele>871.295251</ele>
        <time>2021-11-03T16:19:53.349Z</time>
      </trkpt>
      <trkpt lat="39.549282" lon="-2.185893">
        <ele>871.557123</ele>
        <time>2021-11-03T16:19:53.349Z</time>
      </trkpt>
      <trkpt lat="39.549299" lon="-2.185726">
        <ele>871.952804</ele>
        <time>2021-11-03T16:19:53.349Z</time>
      </trkpt>
      <trkpt lat="39.549308" lon="-2.185614">
        <ele>872.217314</ele>
        <time>2021-11-03T16:19:53.349Z</time>
      </trkpt>
      <trkpt lat="39.549313" lon="-2.185501">
        <ele>872.483183</ele>
        <time>2021-11-03T16:19:53.349Z</time>
      </trkpt>
      <trkpt lat="39.549316" lon="-2.185386">
        <ele>872.716042</ele>
        <time>2021-11-03T16:19:53.349Z</time>
      </trkpt>
      <trkpt lat="39.549304" lon="-2.184938">
        <ele>873.096557</ele>
        <time>2021-11-03T16:19:53.349Z</time>
      </trkpt>
      <trkpt lat="39.549300" lon="-2.184881">
        <ele>873.145141</ele>
        <time>2021-11-03T16:19:53.349Z</time>
      </trkpt>
      <trkpt lat="39.549253" lon="-2.184471">
        <ele>873.496995</ele>
        <time>2021-11-03T16:19:53.349Z</time>
      </trkpt>
      <trkpt lat="39.549247" lon="-2.184411">
        <ele>873.548353</ele>
        <time>2021-11-03T16:19:53.349Z</time>
      </trkpt>
      <trkpt lat="39.549169" lon="-2.183813">
        <ele>874.063178</ele>
        <time>2021-11-03T16:19:53.349Z</time>
      </trkpt>
      <trkpt lat="39.549071" lon="-2.183273">
        <ele>874.534083</ele>
        <time>2021-11-03T16:19:53.349Z</time>
      </trkpt>
      <trkpt lat="39.548985" lon="-2.182731">
        <ele>874.531370</ele>
        <time>2021-11-03T16:19:53.349Z</time>
      </trkpt>
      <trkpt lat="39.548963" lon="-2.182549">
        <ele>874.463111</ele>
        <time>2021-11-03T16:19:53.349Z</time>
      </trkpt>
      <trkpt lat="39.548925" lon="-2.182306">
        <ele>874.371240</ele>
        <time>2021-11-03T16:19:53.349Z</time>
      </trkpt>
      <trkpt lat="39.548876" lon="-2.182066">
        <ele>874.279249</ele>
        <time>2021-11-03T16:19:53.349Z</time>
      </trkpt>
      <trkpt lat="39.548845" lon="-2.181886">
        <ele>874.210911</ele>
        <time>2021-11-03T16:19:53.349Z</time>
      </trkpt>
      <trkpt lat="39.548836" lon="-2.181822">
        <ele>874.186806</ele>
        <time>2021-11-03T16:19:53.349Z</time>
      </trkpt>
      <trkpt lat="39.548821" lon="-2.181690">
        <ele>874.137368</ele>
        <time>2021-11-03T16:19:53.349Z</time>
      </trkpt>
      <trkpt lat="39.548798" lon="-2.181554">
        <ele>874.085779</ele>
        <time>2021-11-03T16:19:53.349Z</time>
      </trkpt>
      <trkpt lat="39.548721" lon="-2.181131">
        <ele>873.924738</ele>
        <time>2021-11-03T16:19:53.349Z</time>
      </trkpt>
      <trkpt lat="39.548708" lon="-2.181060">
        <ele>873.897699</ele>
        <time>2021-11-03T16:19:53.349Z</time>
      </trkpt>
      <trkpt lat="39.548666" lon="-2.180846">
        <ele>873.815878</ele>
        <time>2021-11-03T16:19:53.349Z</time>
      </trkpt>
      <trkpt lat="39.548623" lon="-2.180643">
        <ele>873.749842</ele>
        <time>2021-11-03T16:19:53.349Z</time>
      </trkpt>
      <trkpt lat="39.548524" lon="-2.180164">
        <ele>873.596320</ele>
        <time>2021-11-03T16:19:53.349Z</time>
      </trkpt>
      <trkpt lat="39.548510" lon="-2.180094">
        <ele>873.573933</ele>
        <time>2021-11-03T16:19:53.349Z</time>
      </trkpt>
      <trkpt lat="39.548486" lon="-2.179952">
        <ele>873.528929</ele>
        <time>2021-11-03T16:19:53.349Z</time>
      </trkpt>
      <trkpt lat="39.548464" lon="-2.179810">
        <ele>873.484091</ele>
        <time>2021-11-03T16:19:53.349Z</time>
      </trkpt>
      <trkpt lat="39.548404" lon="-2.179474">
        <ele>873.377320</ele>
        <time>2021-11-03T16:19:53.349Z</time>
      </trkpt>
      <trkpt lat="39.548400" lon="-2.179407">
        <ele>873.356516</ele>
        <time>2021-11-03T16:19:53.349Z</time>
      </trkpt>
      <trkpt lat="39.548408" lon="-2.179146">
        <ele>873.275653</ele>
        <time>2021-11-03T16:19:53.349Z</time>
      </trkpt>
      <trkpt lat="39.548410" lon="-2.178830">
        <ele>873.177823</ele>
        <time>2021-11-03T16:19:53.349Z</time>
      </trkpt>
      <trkpt lat="39.548407" lon="-2.178701">
        <ele>873.137869</ele>
        <time>2021-11-03T16:19:53.349Z</time>
      </trkpt>
      <trkpt lat="39.548371" lon="-2.178086">
        <ele>873.266068</ele>
        <time>2021-11-03T16:19:53.349Z</time>
      </trkpt>
      <trkpt lat="39.548364" lon="-2.177949">
        <ele>873.319379</ele>
        <time>2021-11-03T16:19:53.349Z</time>
      </trkpt>
      <trkpt lat="39.548323" lon="-2.177346">
        <ele>873.554420</ele>
        <time>2021-11-03T16:19:53.349Z</time>
      </trkpt>
      <trkpt lat="39.548290" lon="-2.176678">
        <ele>873.814323</ele>
        <time>2021-11-03T16:19:53.349Z</time>
      </trkpt>
      <trkpt lat="39.548272" lon="-2.176354">
        <ele>873.940452</ele>
        <time>2021-11-03T16:19:53.349Z</time>
      </trkpt>
      <trkpt lat="39.548252" lon="-2.175969">
        <ele>874.224920</ele>
        <time>2021-11-03T16:19:53.349Z</time>
      </trkpt>
      <trkpt lat="39.548215" lon="-2.175272">
        <ele>874.876372</ele>
        <time>2021-11-03T16:19:53.349Z</time>
      </trkpt>
      <trkpt lat="39.548193" lon="-2.174958">
        <ele>875.170366</ele>
        <time>2021-11-03T16:19:53.349Z</time>
      </trkpt>
      <trkpt lat="39.548190" lon="-2.174644">
        <ele>875.463177</ele>
        <time>2021-11-03T16:19:53.349Z</time>
      </trkpt>
      <trkpt lat="39.548250" lon="-2.174006">
        <ele>876.062485</ele>
        <time>2021-11-03T16:19:53.349Z</time>
      </trkpt>
      <trkpt lat="39.548275" lon="-2.173752">
        <ele>876.413272</ele>
        <time>2021-11-03T16:19:53.349Z</time>
      </trkpt>
      <trkpt lat="39.548303" lon="-2.173494">
        <ele>876.862366</ele>
        <time>2021-11-03T16:19:53.349Z</time>
      </trkpt>
      <trkpt lat="39.548342" lon="-2.172989">
        <ele>877.737182</ele>
        <time>2021-11-03T16:19:53.349Z</time>
      </trkpt>
      <trkpt lat="39.548369" lon="-2.172678">
        <ele>878.276634</ele>
        <time>2021-11-03T16:19:53.349Z</time>
      </trkpt>
      <trkpt lat="39.548389" lon="-2.172359">
        <ele>878.828304</ele>
        <time>2021-11-03T16:19:53.349Z</time>
      </trkpt>
      <trkpt lat="39.548392" lon="-2.172297">
        <ele>878.935383</ele>
        <time>2021-11-03T16:19:53.349Z</time>
      </trkpt>
      <trkpt lat="39.548396" lon="-2.172174">
        <ele>879.147584</ele>
        <time>2021-11-03T16:19:53.349Z</time>
      </trkpt>
      <trkpt lat="39.548372" lon="-2.171930">
        <ele>879.571571</ele>
        <time>2021-11-03T16:19:53.349Z</time>
      </trkpt>
      <trkpt lat="39.548262" lon="-2.171540">
        <ele>880.271388</ele>
        <time>2021-11-03T16:19:53.349Z</time>
      </trkpt>
      <trkpt lat="39.548192" lon="-2.171386">
        <ele>880.529001</ele>
        <time>2021-11-03T16:19:53.349Z</time>
      </trkpt>
      <trkpt lat="39.548082" lon="-2.171184">
        <ele>880.885369</ele>
        <time>2021-11-03T16:19:53.349Z</time>
      </trkpt>
      <trkpt lat="39.548066" lon="-2.171128">
        <ele>880.971431</ele>
        <time>2021-11-03T16:19:53.349Z</time>
      </trkpt>
      <trkpt lat="39.548066" lon="-2.171071">
        <ele>881.053572</ele>
        <time>2021-11-03T16:19:53.349Z</time>
      </trkpt>
      <trkpt lat="39.548114" lon="-2.170998">
        <ele>881.191824</ele>
        <time>2021-11-03T16:19:53.349Z</time>
      </trkpt>
      <trkpt lat="39.548267" lon="-2.171007">
        <ele>881.478056</ele>
        <time>2021-11-03T16:19:53.349Z</time>
      </trkpt>
      <trkpt lat="39.548310" lon="-2.171020">
        <ele>881.560572</ele>
        <time>2021-11-03T16:19:53.349Z</time>
      </trkpt>
      <trkpt lat="39.548476" lon="-2.171072">
        <ele>881.879726</ele>
        <time>2021-11-03T16:19:53.349Z</time>
      </trkpt>
      <trkpt lat="39.548606" lon="-2.171107">
        <ele>882.127860</ele>
        <time>2021-11-03T16:19:53.349Z</time>
      </trkpt>
      <trkpt lat="39.549019" lon="-2.171246">
        <ele>882.925271</ele>
        <time>2021-11-03T16:19:53.349Z</time>
      </trkpt>
      <trkpt lat="39.549208" lon="-2.171301">
        <ele>883.287271</ele>
        <time>2021-11-03T16:19:53.349Z</time>
      </trkpt>
      <trkpt lat="39.549499" lon="-2.171371">
        <ele>883.758431</ele>
        <time>2021-11-03T16:19:53.349Z</time>
      </trkpt>
      <trkpt lat="39.549690" lon="-2.171401">
        <ele>884.016043</ele>
        <time>2021-11-03T16:19:53.349Z</time>
      </trkpt>
      <trkpt lat="39.549976" lon="-2.171431">
        <ele>884.400240</ele>
        <time>2021-11-03T16:19:53.349Z</time>
      </trkpt>
      <trkpt lat="39.550070" lon="-2.171438">
        <ele>884.526310</ele>
        <time>2021-11-03T16:19:53.349Z</time>
      </trkpt>
      <trkpt lat="39.550260" lon="-2.171446">
        <ele>884.780849</ele>
        <time>2021-11-03T16:19:53.349Z</time>
      </trkpt>
      <trkpt lat="39.550616" lon="-2.171400">
        <ele>885.259882</ele>
        <time>2021-11-03T16:19:53.349Z</time>
      </trkpt>
      <trkpt lat="39.551176" lon="-2.171258">
        <ele>886.071348</ele>
        <time>2021-11-03T16:19:53.349Z</time>
      </trkpt>
      <trkpt lat="39.551229" lon="-2.171236">
        <ele>886.200896</ele>
        <time>2021-11-03T16:19:53.349Z</time>
      </trkpt>
      <trkpt lat="39.551506" lon="-2.171031">
        <ele>886.943348</ele>
        <time>2021-11-03T16:19:53.349Z</time>
      </trkpt>
      <trkpt lat="39.551733" lon="-2.170799">
        <ele>887.616162</ele>
        <time>2021-11-03T16:19:53.349Z</time>
      </trkpt>
      <trkpt lat="39.551837" lon="-2.170677">
        <ele>887.942616</ele>
        <time>2021-11-03T16:19:53.349Z</time>
      </trkpt>
      <trkpt lat="39.551942" lon="-2.170558">
        <ele>888.267232</ele>
        <time>2021-11-03T16:19:53.349Z</time>
      </trkpt>
      <trkpt lat="39.552046" lon="-2.170450">
        <ele>888.577390</ele>
        <time>2021-11-03T16:19:53.349Z</time>
      </trkpt>
      <trkpt lat="39.552081" lon="-2.170416">
        <ele>888.679190</ele>
        <time>2021-11-03T16:19:53.349Z</time>
      </trkpt>
      <trkpt lat="39.552355" lon="-2.170141">
        <ele>889.485744</ele>
        <time>2021-11-03T16:19:53.349Z</time>
      </trkpt>
      <trkpt lat="39.552388" lon="-2.170108">
        <ele>889.582751</ele>
        <time>2021-11-03T16:19:53.349Z</time>
      </trkpt>
      <trkpt lat="39.552602" lon="-2.169922">
        <ele>890.169002</ele>
        <time>2021-11-03T16:19:53.349Z</time>
      </trkpt>
      <trkpt lat="39.552638" lon="-2.169884">
        <ele>890.236199</ele>
        <time>2021-11-03T16:19:53.349Z</time>
      </trkpt>
      <trkpt lat="39.552746" lon="-2.169766">
        <ele>890.440640</ele>
        <time>2021-11-03T16:19:53.349Z</time>
      </trkpt>
      <trkpt lat="39.552826" lon="-2.169699">
        <ele>890.578506</ele>
        <time>2021-11-03T16:19:53.349Z</time>
      </trkpt>
      <trkpt lat="39.552864" lon="-2.169687">
        <ele>890.635127</ele>
        <time>2021-11-03T16:19:53.349Z</time>
      </trkpt>
      <trkpt lat="39.552938" lon="-2.169707">
        <ele>890.744559</ele>
        <time>2021-11-03T16:19:53.349Z</time>
      </trkpt>
      <trkpt lat="39.552977" lon="-2.169706">
        <ele>890.801031</ele>
        <time>2021-11-03T16:19:53.349Z</time>
      </trkpt>
      <trkpt lat="39.553014" lon="-2.169686">
        <ele>890.859063</ele>
        <time>2021-11-03T16:19:53.349Z</time>
      </trkpt>
      <trkpt lat="39.553045" lon="-2.169649">
        <ele>890.920054</ele>
        <time>2021-11-03T16:19:53.349Z</time>
      </trkpt>
      <trkpt lat="39.553107" lon="-2.169564">
        <ele>891.050664</ele>
        <time>2021-11-03T16:19:53.349Z</time>
      </trkpt>
      <trkpt lat="39.553141" lon="-2.169526">
        <ele>891.115641</ele>
        <time>2021-11-03T16:19:53.349Z</time>
      </trkpt>
      <trkpt lat="39.553368" lon="-2.169323">
        <ele>891.514822</ele>
        <time>2021-11-03T16:19:53.349Z</time>
      </trkpt>
      <trkpt lat="39.553596" lon="-2.169249">
        <ele>891.855081</ele>
        <time>2021-11-03T16:19:53.349Z</time>
      </trkpt>
      <trkpt lat="39.553865" lon="-2.169202">
        <ele>892.248035</ele>
        <time>2021-11-03T16:19:53.349Z</time>
      </trkpt>
      <trkpt lat="39.553902" lon="-2.169200">
        <ele>892.301647</ele>
        <time>2021-11-03T16:19:53.349Z</time>
      </trkpt>
      <trkpt lat="39.554267" lon="-2.169203">
        <ele>892.856648</ele>
        <time>2021-11-03T16:19:53.349Z</time>
      </trkpt>
      <trkpt lat="39.554342" lon="-2.169198">
        <ele>893.001810</ele>
        <time>2021-11-03T16:19:53.349Z</time>
      </trkpt>
      <trkpt lat="39.554609" lon="-2.169177">
        <ele>893.518856</ele>
        <time>2021-11-03T16:19:53.349Z</time>
      </trkpt>
      <trkpt lat="39.554648" lon="-2.169174">
        <ele>893.594373</ele>
        <time>2021-11-03T16:19:53.349Z</time>
      </trkpt>
      <trkpt lat="39.554933" lon="-2.169132">
        <ele>894.148808</ele>
        <time>2021-11-03T16:19:53.349Z</time>
      </trkpt>
      <trkpt lat="39.555172" lon="-2.169122">
        <ele>894.611022</ele>
        <time>2021-11-03T16:19:53.349Z</time>
      </trkpt>
      <trkpt lat="39.555331" lon="-2.169144">
        <ele>894.920105</ele>
        <time>2021-11-03T16:19:53.349Z</time>
      </trkpt>
      <trkpt lat="39.555568" lon="-2.169205">
        <ele>895.387147</ele>
        <time>2021-11-03T16:19:53.349Z</time>
      </trkpt>
      <trkpt lat="39.555607" lon="-2.169220">
        <ele>895.465776</ele>
        <time>2021-11-03T16:19:53.349Z</time>
      </trkpt>
      <trkpt lat="39.555684" lon="-2.169258">
        <ele>895.625024</ele>
        <time>2021-11-03T16:19:53.349Z</time>
      </trkpt>
      <trkpt lat="39.555814" lon="-2.169197">
        <ele>895.892246</ele>
        <time>2021-11-03T16:19:53.349Z</time>
      </trkpt>
      <trkpt lat="39.555767" lon="-2.168885">
        <ele>896.280506</ele>
        <time>2021-11-03T16:19:53.349Z</time>
      </trkpt>
      <trkpt lat="39.555698" lon="-2.168522">
        <ele>896.493786</ele>
        <time>2021-11-03T16:19:53.349Z</time>
      </trkpt>
      <trkpt lat="39.555607" lon="-2.168161">
        <ele>896.710451</ele>
        <time>2021-11-03T16:19:53.349Z</time>
      </trkpt>
      <trkpt lat="39.555529" lon="-2.167803">
        <ele>896.922676</ele>
        <time>2021-11-03T16:19:53.349Z</time>
      </trkpt>
      <trkpt lat="39.555511" lon="-2.167663">
        <ele>897.003644</ele>
        <time>2021-11-03T16:19:53.349Z</time>
      </trkpt>
      <trkpt lat="39.555497" lon="-2.167542">
        <ele>897.073443</ele>
        <time>2021-11-03T16:19:53.349Z</time>
      </trkpt>
      <trkpt lat="39.555471" lon="-2.167444">
        <ele>897.132566</ele>
        <time>2021-11-03T16:19:53.349Z</time>
      </trkpt>
      <trkpt lat="39.555420" lon="-2.167294">
        <ele>897.226087</ele>
        <time>2021-11-03T16:19:53.349Z</time>
      </trkpt>
      <trkpt lat="39.555336" lon="-2.167096">
        <ele>897.355010</ele>
        <time>2021-11-03T16:19:53.349Z</time>
      </trkpt>
      <trkpt lat="39.555280" lon="-2.167007">
        <ele>897.420543</ele>
        <time>2021-11-03T16:19:53.349Z</time>
      </trkpt>
      <trkpt lat="39.555209" lon="-2.166859">
        <ele>897.519982</ele>
        <time>2021-11-03T16:19:53.349Z</time>
      </trkpt>
      <trkpt lat="39.555123" lon="-2.166665">
        <ele>897.764774</ele>
        <time>2021-11-03T16:19:53.349Z</time>
      </trkpt>
      <trkpt lat="39.554992" lon="-2.166272">
        <ele>898.329210</ele>
        <time>2021-11-03T16:19:53.349Z</time>
      </trkpt>
      <trkpt lat="39.554903" lon="-2.166023">
        <ele>898.691023</ele>
        <time>2021-11-03T16:19:53.349Z</time>
      </trkpt>
      <trkpt lat="39.554814" lon="-2.165845">
        <ele>898.970704</ele>
        <time>2021-11-03T16:19:53.349Z</time>
      </trkpt>
      <trkpt lat="39.554656" lon="-2.165473">
        <ele>899.530599</ele>
        <time>2021-11-03T16:19:53.349Z</time>
      </trkpt>
      <trkpt lat="39.554483" lon="-2.165051">
        <ele>900.160674</ele>
        <time>2021-11-03T16:19:53.349Z</time>
      </trkpt>
      <trkpt lat="39.554328" lon="-2.164737">
        <ele>900.644973</ele>
        <time>2021-11-03T16:19:53.349Z</time>
      </trkpt>
      <trkpt lat="39.554285" lon="-2.164643">
        <ele>900.732966</ele>
        <time>2021-11-03T16:19:53.349Z</time>
      </trkpt>
      <trkpt lat="39.554239" lon="-2.164548">
        <ele>900.823279</ele>
        <time>2021-11-03T16:19:53.349Z</time>
      </trkpt>
      <trkpt lat="39.554142" lon="-2.164309">
        <ele>901.040720</ele>
        <time>2021-11-03T16:19:53.349Z</time>
      </trkpt>
      <trkpt lat="39.554084" lon="-2.164164">
        <ele>901.172229</ele>
        <time>2021-11-03T16:19:53.349Z</time>
      </trkpt>
      <trkpt lat="39.554005" lon="-2.163967">
        <ele>901.350997</ele>
        <time>2021-11-03T16:19:53.349Z</time>
      </trkpt>
      <trkpt lat="39.553965" lon="-2.163869">
        <ele>901.440267</ele>
        <time>2021-11-03T16:19:53.349Z</time>
      </trkpt>
      <trkpt lat="39.553918" lon="-2.163717">
        <ele>901.572112</ele>
        <time>2021-11-03T16:19:53.349Z</time>
      </trkpt>
      <trkpt lat="39.553894" lon="-2.163671">
        <ele>901.616827</ele>
        <time>2021-11-03T16:19:53.349Z</time>
      </trkpt>
      <trkpt lat="39.553864" lon="-2.163632">
        <ele>901.661179</ele>
        <time>2021-11-03T16:19:53.349Z</time>
      </trkpt>
      <trkpt lat="39.553800" lon="-2.163558">
        <ele>901.750705</ele>
        <time>2021-11-03T16:19:53.349Z</time>
      </trkpt>
      <trkpt lat="39.553751" lon="-2.163474">
        <ele>901.835505</ele>
        <time>2021-11-03T16:19:53.349Z</time>
      </trkpt>
      <trkpt lat="39.553706" lon="-2.163382">
        <ele>901.923219</ele>
        <time>2021-11-03T16:19:53.349Z</time>
      </trkpt>
      <trkpt lat="39.553646" lon="-2.163304">
        <ele>902.011922</ele>
        <time>2021-11-03T16:19:53.349Z</time>
      </trkpt>
      <trkpt lat="39.553611" lon="-2.163271">
        <ele>902.057104</ele>
        <time>2021-11-03T16:19:53.349Z</time>
      </trkpt>
      <trkpt lat="39.553477" lon="-2.163133">
        <ele>902.235766</ele>
        <time>2021-11-03T16:19:53.349Z</time>
      </trkpt>
      <trkpt lat="39.553415" lon="-2.163049">
        <ele>902.329384</ele>
        <time>2021-11-03T16:19:53.349Z</time>
      </trkpt>
      <trkpt lat="39.553117" lon="-2.162679">
        <ele>902.049524</ele>
        <time>2021-11-03T16:19:53.349Z</time>
      </trkpt>
      <trkpt lat="39.552838" lon="-2.162326">
        <ele>901.292343</ele>
        <time>2021-11-03T16:19:53.349Z</time>
      </trkpt>
      <trkpt lat="39.552630" lon="-2.162024">
        <ele>900.685802</ele>
        <time>2021-11-03T16:19:53.349Z</time>
      </trkpt>
      <trkpt lat="39.552457" lon="-2.161772">
        <ele>900.180409</ele>
        <time>2021-11-03T16:19:53.349Z</time>
      </trkpt>
      <trkpt lat="39.552353" lon="-2.161625">
        <ele>899.881580</ele>
        <time>2021-11-03T16:19:53.349Z</time>
      </trkpt>
      <trkpt lat="39.552282" lon="-2.161528">
        <ele>899.681246</ele>
        <time>2021-11-03T16:19:53.349Z</time>
      </trkpt>
      <trkpt lat="39.552099" lon="-2.161268">
        <ele>899.153943</ele>
        <time>2021-11-03T16:19:53.349Z</time>
      </trkpt>
      <trkpt lat="39.552065" lon="-2.161212">
        <ele>899.047179</ele>
        <time>2021-11-03T16:19:53.349Z</time>
      </trkpt>
      <trkpt lat="39.551900" lon="-2.160842">
        <ele>899.300609</ele>
        <time>2021-11-03T16:19:53.349Z</time>
      </trkpt>
      <trkpt lat="39.551877" lon="-2.160777">
        <ele>899.350254</ele>
        <time>2021-11-03T16:19:53.349Z</time>
      </trkpt>
      <trkpt lat="39.551688" lon="-2.160211">
        <ele>899.778418</ele>
        <time>2021-11-03T16:19:53.349Z</time>
      </trkpt>
      <trkpt lat="39.551522" lon="-2.159685">
        <ele>900.172954</ele>
        <time>2021-11-03T16:19:53.349Z</time>
      </trkpt>
      <trkpt lat="39.551484" lon="-2.159581">
        <ele>900.252844</ele>
        <time>2021-11-03T16:19:53.349Z</time>
      </trkpt>
      <trkpt lat="39.551441" lon="-2.159487">
        <ele>900.328715</ele>
        <time>2021-11-03T16:19:53.349Z</time>
      </trkpt>
      <trkpt lat="39.551396" lon="-2.159401">
        <ele>900.400863</ele>
        <time>2021-11-03T16:19:53.349Z</time>
      </trkpt>
      <trkpt lat="39.551374" lon="-2.159358">
        <ele>900.436686</ele>
        <time>2021-11-03T16:19:53.349Z</time>
      </trkpt>
      <trkpt lat="39.551208" lon="-2.159084">
        <ele>900.751085</ele>
        <time>2021-11-03T16:19:53.349Z</time>
      </trkpt>
      <trkpt lat="39.551121" lon="-2.158993">
        <ele>901.026816</ele>
        <time>2021-11-03T16:19:53.349Z</time>
      </trkpt>
      <trkpt lat="39.551015" lon="-2.158870">
        <ele>901.377704</ele>
        <time>2021-11-03T16:19:53.349Z</time>
      </trkpt>
      <trkpt lat="39.550838" lon="-2.158610">
        <ele>902.037449</ele>
        <time>2021-11-03T16:19:53.349Z</time>
      </trkpt>
      <trkpt lat="39.550795" lon="-2.158407">
        <ele>902.437898</ele>
        <time>2021-11-03T16:19:53.349Z</time>
      </trkpt>
      <trkpt lat="39.550786" lon="-2.158365">
        <ele>902.520818</ele>
        <time>2021-11-03T16:19:53.349Z</time>
      </trkpt>
      <trkpt lat="39.550717" lon="-2.158076">
        <ele>903.096300</ele>
        <time>2021-11-03T16:19:53.349Z</time>
      </trkpt>
      <trkpt lat="39.550621" lon="-2.157739">
        <ele>903.779687</ele>
        <time>2021-11-03T16:19:53.349Z</time>
      </trkpt>
      <trkpt lat="39.550582" lon="-2.157368">
        <ele>904.491927</ele>
        <time>2021-11-03T16:19:53.349Z</time>
      </trkpt>
      <trkpt lat="39.550563" lon="-2.157127">
        <ele>904.952745</ele>
        <time>2021-11-03T16:19:53.349Z</time>
      </trkpt>
      <trkpt lat="39.550548" lon="-2.156982">
        <ele>904.912430</ele>
        <time>2021-11-03T16:19:53.349Z</time>
      </trkpt>
      <trkpt lat="39.550487" lon="-2.156682">
        <ele>904.304319</ele>
        <time>2021-11-03T16:19:53.349Z</time>
      </trkpt>
      <trkpt lat="39.550474" lon="-2.156630">
        <ele>904.197174</ele>
        <time>2021-11-03T16:19:53.349Z</time>
      </trkpt>
      <trkpt lat="39.550373" lon="-2.156310">
        <ele>903.519451</ele>
        <time>2021-11-03T16:19:53.349Z</time>
      </trkpt>
      <trkpt lat="39.550321" lon="-2.156217">
        <ele>903.294285</ele>
        <time>2021-11-03T16:19:53.349Z</time>
      </trkpt>
      <trkpt lat="39.550191" lon="-2.156055">
        <ele>902.836000</ele>
        <time>2021-11-03T16:19:53.349Z</time>
      </trkpt>
      <trkpt lat="39.550018" lon="-2.155912">
        <ele>902.314510</ele>
        <time>2021-11-03T16:19:53.349Z</time>
      </trkpt>
      <trkpt lat="39.549942" lon="-2.155827">
        <ele>902.059403</ele>
        <time>2021-11-03T16:19:53.349Z</time>
      </trkpt>
      <trkpt lat="39.549908" lon="-2.155780">
        <ele>901.933085</ele>
        <time>2021-11-03T16:19:53.349Z</time>
      </trkpt>
      <trkpt lat="39.549812" lon="-2.155639">
        <ele>901.564399</ele>
        <time>2021-11-03T16:19:53.349Z</time>
      </trkpt>
      <trkpt lat="39.549761" lon="-2.155545">
        <ele>901.339114</ele>
        <time>2021-11-03T16:19:53.349Z</time>
      </trkpt>
      <trkpt lat="39.549651" lon="-2.155347">
        <ele>900.860783</ele>
        <time>2021-11-03T16:19:53.349Z</time>
      </trkpt>
      <trkpt lat="39.549578" lon="-2.155249">
        <ele>900.593704</ele>
        <time>2021-11-03T16:19:53.349Z</time>
      </trkpt>
      <trkpt lat="39.549486" lon="-2.155161">
        <ele>900.141801</ele>
        <time>2021-11-03T16:19:53.349Z</time>
      </trkpt>
      <trkpt lat="39.549326" lon="-2.155026">
        <ele>899.263024</ele>
        <time>2021-11-03T16:19:53.349Z</time>
      </trkpt>
      <trkpt lat="39.549281" lon="-2.154971">
        <ele>898.978351</ele>
        <time>2021-11-03T16:19:53.349Z</time>
      </trkpt>
      <trkpt lat="39.549245" lon="-2.154906">
        <ele>898.694256</ele>
        <time>2021-11-03T16:19:53.349Z</time>
      </trkpt>
      <trkpt lat="39.549216" lon="-2.154829">
        <ele>898.390052</ele>
        <time>2021-11-03T16:19:53.349Z</time>
      </trkpt>
      <trkpt lat="39.549154" lon="-2.154590">
        <ele>897.494905</ele>
        <time>2021-11-03T16:19:53.349Z</time>
      </trkpt>
      <trkpt lat="39.549131" lon="-2.154510">
        <ele>897.191817</ele>
        <time>2021-11-03T16:19:53.349Z</time>
      </trkpt>
      <trkpt lat="39.549102" lon="-2.154434">
        <ele>896.890799</ele>
        <time>2021-11-03T16:19:53.349Z</time>
      </trkpt>
      <trkpt lat="39.549047" lon="-2.154283">
        <ele>896.297972</ele>
        <time>2021-11-03T16:19:53.349Z</time>
      </trkpt>
      <trkpt lat="39.548973" lon="-2.154054">
        <ele>895.416549</ele>
        <time>2021-11-03T16:19:53.349Z</time>
      </trkpt>
      <trkpt lat="39.548946" lon="-2.153979">
        <ele>895.122720</ele>
        <time>2021-11-03T16:19:53.349Z</time>
      </trkpt>
      <trkpt lat="39.548853" lon="-2.153666">
        <ele>893.931968</ele>
        <time>2021-11-03T16:19:53.349Z</time>
      </trkpt>
      <trkpt lat="39.548817" lon="-2.153504">
        <ele>893.333480</ele>
        <time>2021-11-03T16:19:53.349Z</time>
      </trkpt>
      <trkpt lat="39.548789" lon="-2.153343">
        <ele>892.747591</ele>
        <time>2021-11-03T16:19:53.349Z</time>
      </trkpt>
      <trkpt lat="39.548701" lon="-2.152958">
        <ele>892.123335</ele>
        <time>2021-11-03T16:19:53.349Z</time>
      </trkpt>
      <trkpt lat="39.548669" lon="-2.152883">
        <ele>892.090142</ele>
        <time>2021-11-03T16:19:53.349Z</time>
      </trkpt>
      <trkpt lat="39.548466" lon="-2.152448">
        <ele>891.893243</ele>
        <time>2021-11-03T16:19:53.349Z</time>
      </trkpt>
      <trkpt lat="39.548396" lon="-2.152216">
        <ele>891.796769</ele>
        <time>2021-11-03T16:19:53.349Z</time>
      </trkpt>
      <trkpt lat="39.548374" lon="-2.152061">
        <ele>891.735738</ele>
        <time>2021-11-03T16:19:53.349Z</time>
      </trkpt>
      <trkpt lat="39.548355" lon="-2.151763">
        <ele>891.619945</ele>
        <time>2021-11-03T16:19:53.349Z</time>
      </trkpt>
      <trkpt lat="39.548347" lon="-2.151691">
        <ele>891.591775</ele>
        <time>2021-11-03T16:19:53.349Z</time>
      </trkpt>
      <trkpt lat="39.548343" lon="-2.151619">
        <ele>891.563821</ele>
        <time>2021-11-03T16:19:53.349Z</time>
      </trkpt>
      <trkpt lat="39.548339" lon="-2.151549">
        <ele>891.536640</ele>
        <time>2021-11-03T16:19:53.349Z</time>
      </trkpt>
      <trkpt lat="39.548334" lon="-2.151478">
        <ele>891.509031</ele>
        <time>2021-11-03T16:19:53.349Z</time>
      </trkpt>
      <trkpt lat="39.548328" lon="-2.151406">
        <ele>891.480987</ele>
        <time>2021-11-03T16:19:53.349Z</time>
      </trkpt>
      <trkpt lat="39.548320" lon="-2.151263">
        <ele>891.425465</ele>
        <time>2021-11-03T16:19:53.349Z</time>
      </trkpt>
      <trkpt lat="39.548323" lon="-2.151050">
        <ele>891.342968</ele>
        <time>2021-11-03T16:19:53.349Z</time>
      </trkpt>
      <trkpt lat="39.548398" lon="-2.150709">
        <ele>891.170654</ele>
        <time>2021-11-03T16:19:53.349Z</time>
      </trkpt>
      <trkpt lat="39.548422" lon="-2.150651">
        <ele>891.137234</ele>
        <time>2021-11-03T16:19:53.349Z</time>
      </trkpt>
      <trkpt lat="39.548563" lon="-2.150295">
        <ele>890.934040</ele>
        <time>2021-11-03T16:19:53.349Z</time>
      </trkpt>
      <trkpt lat="39.548664" lon="-2.149863">
        <ele>890.704850</ele>
        <time>2021-11-03T16:19:53.349Z</time>
      </trkpt>
      <trkpt lat="39.548724" lon="-2.149632">
        <ele>890.581094</ele>
        <time>2021-11-03T16:19:53.349Z</time>
      </trkpt>
      <trkpt lat="39.548775" lon="-2.149457">
        <ele>890.486111</ele>
        <time>2021-11-03T16:19:53.349Z</time>
      </trkpt>
      <trkpt lat="39.548902" lon="-2.148958">
        <ele>890.219321</ele>
        <time>2021-11-03T16:19:53.349Z</time>
      </trkpt>
      <trkpt lat="39.548939" lon="-2.148760">
        <ele>890.051361</ele>
        <time>2021-11-03T16:19:53.349Z</time>
      </trkpt>
      <trkpt lat="39.548935" lon="-2.148622">
        <ele>889.729555</ele>
        <time>2021-11-03T16:19:53.349Z</time>
      </trkpt>
      <trkpt lat="39.548919" lon="-2.148483">
        <ele>889.402055</ele>
        <time>2021-11-03T16:19:53.349Z</time>
      </trkpt>
      <trkpt lat="39.548909" lon="-2.148154">
        <ele>888.634795</ele>
        <time>2021-11-03T16:19:53.349Z</time>
      </trkpt>
      <trkpt lat="39.548902" lon="-2.148087">
        <ele>888.477239</ele>
        <time>2021-11-03T16:19:53.349Z</time>
      </trkpt>
      <trkpt lat="39.548861" lon="-2.147807">
        <ele>887.813097</ele>
        <time>2021-11-03T16:19:53.349Z</time>
      </trkpt>
      <trkpt lat="39.548854" lon="-2.147733">
        <ele>887.639363</ele>
        <time>2021-11-03T16:19:53.349Z</time>
      </trkpt>
      <trkpt lat="39.548780" lon="-2.147376">
        <ele>886.777914</ele>
        <time>2021-11-03T16:19:53.349Z</time>
      </trkpt>
      <trkpt lat="39.548756" lon="-2.147225">
        <ele>886.418643</ele>
        <time>2021-11-03T16:19:53.349Z</time>
      </trkpt>
      <trkpt lat="39.548703" lon="-2.147004">
        <ele>885.879315</ele>
        <time>2021-11-03T16:19:53.349Z</time>
      </trkpt>
      <trkpt lat="39.548665" lon="-2.146863">
        <ele>885.531252</ele>
        <time>2021-11-03T16:19:53.349Z</time>
      </trkpt>
      <trkpt lat="39.548630" lon="-2.146718">
        <ele>885.177190</ele>
        <time>2021-11-03T16:19:53.349Z</time>
      </trkpt>
      <trkpt lat="39.548582" lon="-2.146411">
        <ele>884.569281</ele>
        <time>2021-11-03T16:19:53.349Z</time>
      </trkpt>
      <trkpt lat="39.548552" lon="-2.146262">
        <ele>884.384963</ele>
        <time>2021-11-03T16:19:53.349Z</time>
      </trkpt>
      <trkpt lat="39.548530" lon="-2.146119">
        <ele>884.210432</ele>
        <time>2021-11-03T16:19:53.349Z</time>
      </trkpt>
      <trkpt lat="39.548530" lon="-2.146048">
        <ele>884.125452</ele>
        <time>2021-11-03T16:19:53.349Z</time>
      </trkpt>
      <trkpt lat="39.548546" lon="-2.145904">
        <ele>883.951317</ele>
        <time>2021-11-03T16:19:53.349Z</time>
      </trkpt>
      <trkpt lat="39.548602" lon="-2.145687">
        <ele>883.677429</ele>
        <time>2021-11-03T16:19:53.349Z</time>
      </trkpt>
      <trkpt lat="39.548625" lon="-2.145616">
        <ele>883.585254</ele>
        <time>2021-11-03T16:19:53.349Z</time>
      </trkpt>
      <trkpt lat="39.548651" lon="-2.145546">
        <ele>883.492257</ele>
        <time>2021-11-03T16:19:53.349Z</time>
      </trkpt>
      <trkpt lat="39.548677" lon="-2.145477">
        <ele>883.400337</ele>
        <time>2021-11-03T16:19:53.349Z</time>
      </trkpt>
      <trkpt lat="39.548703" lon="-2.145406">
        <ele>883.306261</ele>
        <time>2021-11-03T16:19:53.349Z</time>
      </trkpt>
      <trkpt lat="39.548743" lon="-2.145256">
        <ele>883.116292</ele>
        <time>2021-11-03T16:19:53.349Z</time>
      </trkpt>
      <trkpt lat="39.548756" lon="-2.145176">
        <ele>883.018437</ele>
        <time>2021-11-03T16:19:53.349Z</time>
      </trkpt>
      <trkpt lat="39.548765" lon="-2.145095">
        <ele>882.920486</ele>
        <time>2021-11-03T16:19:53.349Z</time>
      </trkpt>
      <trkpt lat="39.548752" lon="-2.144935">
        <ele>882.727922</ele>
        <time>2021-11-03T16:19:53.349Z</time>
      </trkpt>
      <trkpt lat="39.548675" lon="-2.144726">
        <ele>882.450682</ele>
        <time>2021-11-03T16:19:53.349Z</time>
      </trkpt>
      <trkpt lat="39.548649" lon="-2.144661">
        <ele>882.363039</ele>
        <time>2021-11-03T16:19:53.349Z</time>
      </trkpt>
      <trkpt lat="39.548476" lon="-2.144140">
        <ele>881.654780</ele>
        <time>2021-11-03T16:19:53.349Z</time>
      </trkpt>
      <trkpt lat="39.548427" lon="-2.144015">
        <ele>881.464801</ele>
        <time>2021-11-03T16:19:53.349Z</time>
      </trkpt>
      <trkpt lat="39.548281" lon="-2.143716">
        <ele>880.985322</ele>
        <time>2021-11-03T16:19:53.349Z</time>
      </trkpt>
      <trkpt lat="39.548173" lon="-2.143468">
        <ele>880.599447</ele>
        <time>2021-11-03T16:19:53.349Z</time>
      </trkpt>
      <trkpt lat="39.548068" lon="-2.143196">
        <ele>880.187338</ele>
        <time>2021-11-03T16:19:53.349Z</time>
      </trkpt>
      <trkpt lat="39.548044" lon="-2.143126">
        <ele>880.083549</ele>
        <time>2021-11-03T16:19:53.349Z</time>
      </trkpt>
      <trkpt lat="39.548018" lon="-2.143058">
        <ele>879.980717</ele>
        <time>2021-11-03T16:19:53.349Z</time>
      </trkpt>
      <trkpt lat="39.547947" lon="-2.142855">
        <ele>879.678720</ele>
        <time>2021-11-03T16:19:53.349Z</time>
      </trkpt>
      <trkpt lat="39.547824" lon="-2.142486">
        <ele>879.134081</ele>
        <time>2021-11-03T16:19:53.349Z</time>
      </trkpt>
      <trkpt lat="39.547788" lon="-2.142363">
        <ele>878.955837</ele>
        <time>2021-11-03T16:19:53.349Z</time>
      </trkpt>
      <trkpt lat="39.547652" lon="-2.141834">
        <ele>878.959453</ele>
        <time>2021-11-03T16:19:53.349Z</time>
      </trkpt>
      <trkpt lat="39.547545" lon="-2.141495">
        <ele>879.153564</ele>
        <time>2021-11-03T16:19:53.349Z</time>
      </trkpt>
      <trkpt lat="39.547458" lon="-2.141246">
        <ele>879.298429</ele>
        <time>2021-11-03T16:19:53.349Z</time>
      </trkpt>
      <trkpt lat="39.547306" lon="-2.140820">
        <ele>879.547173</ele>
        <time>2021-11-03T16:19:53.349Z</time>
      </trkpt>
      <trkpt lat="39.547273" lon="-2.140709">
        <ele>879.610215</ele>
        <time>2021-11-03T16:19:53.349Z</time>
      </trkpt>
      <trkpt lat="39.547220" lon="-2.140564">
        <ele>879.695249</ele>
        <time>2021-11-03T16:19:53.349Z</time>
      </trkpt>
      <trkpt lat="39.547206" lon="-2.140516">
        <ele>879.722444</ele>
        <time>2021-11-03T16:19:53.349Z</time>
      </trkpt>
      <trkpt lat="39.547182" lon="-2.140417">
        <ele>879.777439</ele>
        <time>2021-11-03T16:19:53.349Z</time>
      </trkpt>
      <trkpt lat="39.547148" lon="-2.140200">
        <ele>879.894782</ele>
        <time>2021-11-03T16:19:53.349Z</time>
      </trkpt>
      <trkpt lat="39.547136" lon="-2.140145">
        <ele>879.925072</ele>
        <time>2021-11-03T16:19:53.349Z</time>
      </trkpt>
      <trkpt lat="39.547087" lon="-2.139984">
        <ele>879.920001</ele>
        <time>2021-11-03T16:19:53.349Z</time>
      </trkpt>
      <trkpt lat="39.546999" lon="-2.139796">
        <ele>879.711343</ele>
        <time>2021-11-03T16:19:53.349Z</time>
      </trkpt>
      <trkpt lat="39.546886" lon="-2.139524">
        <ele>879.418209</ele>
        <time>2021-11-03T16:19:53.349Z</time>
      </trkpt>
      <trkpt lat="39.546876" lon="-2.139470">
        <ele>879.365519</ele>
        <time>2021-11-03T16:19:53.349Z</time>
      </trkpt>
      <trkpt lat="39.546871" lon="-2.139414">
        <ele>879.312033</ele>
        <time>2021-11-03T16:19:53.349Z</time>
      </trkpt>
      <trkpt lat="39.546864" lon="-2.139171">
        <ele>879.081323</ele>
        <time>2021-11-03T16:19:53.349Z</time>
      </trkpt>
      <trkpt lat="39.546869" lon="-2.138967">
        <ele>878.887677</ele>
        <time>2021-11-03T16:19:53.349Z</time>
      </trkpt>
      <trkpt lat="39.546855" lon="-2.138621">
        <ele>878.558953</ele>
        <time>2021-11-03T16:19:53.349Z</time>
      </trkpt>
      <trkpt lat="39.546818" lon="-2.138333">
        <ele>878.281943</ele>
        <time>2021-11-03T16:19:53.349Z</time>
      </trkpt>
      <trkpt lat="39.546805" lon="-2.138183">
        <ele>878.138732</ele>
        <time>2021-11-03T16:19:53.349Z</time>
      </trkpt>
      <trkpt lat="39.546799" lon="-2.138110">
        <ele>878.069080</ele>
        <time>2021-11-03T16:19:53.349Z</time>
      </trkpt>
      <trkpt lat="39.546767" lon="-2.137676">
        <ele>877.823135</ele>
        <time>2021-11-03T16:19:53.349Z</time>
      </trkpt>
      <trkpt lat="39.546759" lon="-2.137604">
        <ele>877.855979</ele>
        <time>2021-11-03T16:19:53.349Z</time>
      </trkpt>
      <trkpt lat="39.546754" lon="-2.137368">
        <ele>877.962576</ele>
        <time>2021-11-03T16:19:53.349Z</time>
      </trkpt>
      <trkpt lat="39.546758" lon="-2.137271">
        <ele>878.006435</ele>
        <time>2021-11-03T16:19:53.349Z</time>
      </trkpt>
      <trkpt lat="39.546754" lon="-2.137266">
        <ele>878.009688</ele>
        <time>2021-11-03T16:19:53.349Z</time>
      </trkpt>
      <trkpt lat="39.546754" lon="-2.137271">
        <ele>878.011946</ele>
        <time>2021-11-03T16:19:53.349Z</time>
      </trkpt>
      <trkpt lat="39.546757" lon="-2.137277">
        <ele>878.015175</ele>
        <time>2021-11-03T16:19:53.349Z</time>
      </trkpt>
      <trkpt lat="39.546757" lon="-2.137277">
        <ele>878.015175</ele>
        <time>2021-11-03T16:19:53.349Z</time>
      </trkpt>
      <trkpt lat="39.546757" lon="-2.137277">
        <ele>878.015175</ele>
        <time>2021-11-03T16:19:53.349Z</time>
      </trkpt>
      <trkpt lat="39.546757" lon="-2.137277">
        <ele>878.015175</ele>
        <time>2021-11-03T16:19:53.349Z</time>
      </trkpt>
      <trkpt lat="39.546754" lon="-2.137265">
        <ele>878.020870</ele>
        <time>2021-11-03T16:19:53.349Z</time>
      </trkpt>
      <trkpt lat="39.546751" lon="-2.137252">
        <ele>878.026997</ele>
        <time>2021-11-03T16:19:53.349Z</time>
      </trkpt>
      <trkpt lat="39.546751" lon="-2.137231">
        <ele>878.036479</ele>
        <time>2021-11-03T16:19:53.349Z</time>
      </trkpt>
      <trkpt lat="39.546752" lon="-2.137202">
        <ele>878.049586</ele>
        <time>2021-11-03T16:19:53.349Z</time>
      </trkpt>
      <trkpt lat="39.546752" lon="-2.137192">
        <ele>878.054101</ele>
        <time>2021-11-03T16:19:53.349Z</time>
      </trkpt>
      <trkpt lat="39.546754" lon="-2.137190">
        <ele>878.055580</ele>
        <time>2021-11-03T16:19:53.349Z</time>
      </trkpt>
      <trkpt lat="39.546756" lon="-2.137174">
        <ele>878.062898</ele>
        <time>2021-11-03T16:19:53.349Z</time>
      </trkpt>
      <trkpt lat="39.546769" lon="-2.137130">
        <ele>878.084173</ele>
        <time>2021-11-03T16:19:53.349Z</time>
      </trkpt>
      <trkpt lat="39.546813" lon="-2.136933">
        <ele>878.176777</ele>
        <time>2021-11-03T16:19:53.349Z</time>
      </trkpt>
      <trkpt lat="39.546861" lon="-2.136711">
        <ele>878.280878</ele>
        <time>2021-11-03T16:19:53.349Z</time>
      </trkpt>
      <trkpt lat="39.546895" lon="-2.136578">
        <ele>878.344142</ele>
        <time>2021-11-03T16:19:53.349Z</time>
      </trkpt>
      <trkpt lat="39.546919" lon="-2.136490">
        <ele>878.386287</ele>
        <time>2021-11-03T16:19:53.349Z</time>
      </trkpt>
      <trkpt lat="39.546931" lon="-2.136444">
        <ele>878.408213</ele>
        <time>2021-11-03T16:19:53.349Z</time>
      </trkpt>
      <trkpt lat="39.547005" lon="-2.136128">
        <ele>878.557324</ele>
        <time>2021-11-03T16:19:53.349Z</time>
      </trkpt>
      <trkpt lat="39.547072" lon="-2.135907">
        <ele>878.664543</ele>
        <time>2021-11-03T16:19:53.349Z</time>
      </trkpt>
      <trkpt lat="39.547107" lon="-2.135817">
        <ele>878.710054</ele>
        <time>2021-11-03T16:19:53.349Z</time>
      </trkpt>
      <trkpt lat="39.547128" lon="-2.135775">
        <ele>878.732655</ele>
        <time>2021-11-03T16:19:53.349Z</time>
      </trkpt>
      <trkpt lat="39.547283" lon="-2.135484">
        <ele>879.019152</ele>
        <time>2021-11-03T16:19:53.349Z</time>
      </trkpt>
      <trkpt lat="39.547305" lon="-2.135443">
        <ele>879.082498</ele>
        <time>2021-11-03T16:19:53.349Z</time>
      </trkpt>
      <trkpt lat="39.547393" lon="-2.135168">
        <ele>879.460085</ele>
        <time>2021-11-03T16:19:53.349Z</time>
      </trkpt>
      <trkpt lat="39.547403" lon="-2.135123">
        <ele>879.519476</ele>
        <time>2021-11-03T16:19:53.349Z</time>
      </trkpt>
      <trkpt lat="39.547470" lon="-2.134858">
        <ele>879.873147</ele>
        <time>2021-11-03T16:19:53.349Z</time>
      </trkpt>
      <trkpt lat="39.547509" lon="-2.134717">
        <ele>880.063116</ele>
        <time>2021-11-03T16:19:53.349Z</time>
      </trkpt>
      <trkpt lat="39.547605" lon="-2.134454">
        <ele>880.432128</ele>
        <time>2021-11-03T16:19:53.349Z</time>
      </trkpt>
      <trkpt lat="39.547647" lon="-2.134320">
        <ele>880.615565</ele>
        <time>2021-11-03T16:19:53.349Z</time>
      </trkpt>
      <trkpt lat="39.547714" lon="-2.134100">
        <ele>880.915535</ele>
        <time>2021-11-03T16:19:53.349Z</time>
      </trkpt>
      <trkpt lat="39.547743" lon="-2.134011">
        <ele>881.038066</ele>
        <time>2021-11-03T16:19:53.349Z</time>
      </trkpt>
      <trkpt lat="39.547773" lon="-2.133923">
        <ele>881.160086</ele>
        <time>2021-11-03T16:19:53.349Z</time>
      </trkpt>
      <trkpt lat="39.547790" lon="-2.133881">
        <ele>881.220241</ele>
        <time>2021-11-03T16:19:53.349Z</time>
      </trkpt>
      <trkpt lat="39.547841" lon="-2.133751">
        <ele>881.405213</ele>
        <time>2021-11-03T16:19:53.349Z</time>
      </trkpt>
      <trkpt lat="39.547924" lon="-2.133512">
        <ele>881.737627</ele>
        <time>2021-11-03T16:19:53.349Z</time>
      </trkpt>
      <trkpt lat="39.548072" lon="-2.133023">
        <ele>882.663935</ele>
        <time>2021-11-03T16:19:53.349Z</time>
      </trkpt>
      <trkpt lat="39.548154" lon="-2.132651">
        <ele>883.359296</ele>
        <time>2021-11-03T16:19:53.349Z</time>
      </trkpt>
      <trkpt lat="39.548218" lon="-2.132425">
        <ele>883.792001</ele>
        <time>2021-11-03T16:19:53.349Z</time>
      </trkpt>
      <trkpt lat="39.548261" lon="-2.132242">
        <ele>884.135829</ele>
        <time>2021-11-03T16:19:53.349Z</time>
      </trkpt>
      <trkpt lat="39.548261" lon="-2.132219">
        <ele>884.177166</ele>
        <time>2021-11-03T16:19:53.349Z</time>
      </trkpt>
      <trkpt lat="39.548233" lon="-2.132170">
        <ele>884.286778</ele>
        <time>2021-11-03T16:19:53.349Z</time>
      </trkpt>
      <trkpt lat="39.548222" lon="-2.132155">
        <ele>884.323981</ele>
        <time>2021-11-03T16:19:53.349Z</time>
      </trkpt>
      <trkpt lat="39.548222" lon="-2.132157">
        <ele>884.327576</ele>
        <time>2021-11-03T16:19:53.349Z</time>
      </trkpt>
      <trkpt lat="39.548223" lon="-2.132157">
        <ele>884.329907</ele>
        <time>2021-11-03T16:19:53.349Z</time>
      </trkpt>
      <trkpt lat="39.548221" lon="-2.132158">
        <ele>884.334903</ele>
        <time>2021-11-03T16:19:53.349Z</time>
      </trkpt>
      <trkpt lat="39.548220" lon="-2.132158">
        <ele>884.337234</ele>
        <time>2021-11-03T16:19:53.349Z</time>
      </trkpt>
      <trkpt lat="39.548222" lon="-2.132159">
        <ele>884.342230</ele>
        <time>2021-11-03T16:19:53.349Z</time>
      </trkpt>
      <trkpt lat="39.548223" lon="-2.132151">
        <ele>884.356795</ele>
        <time>2021-11-03T16:19:53.349Z</time>
      </trkpt>
      <trkpt lat="39.548235" lon="-2.132127">
        <ele>884.408204</ele>
        <time>2021-11-03T16:19:53.349Z</time>
      </trkpt>
      <trkpt lat="39.548239" lon="-2.132101">
        <ele>884.455853</ele>
        <time>2021-11-03T16:19:53.349Z</time>
      </trkpt>
      <trkpt lat="39.548227" lon="-2.132010">
        <ele>884.621778</ele>
        <time>2021-11-03T16:19:53.349Z</time>
      </trkpt>
      <trkpt lat="39.548212" lon="-2.131845">
        <ele>884.920378</ele>
        <time>2021-11-03T16:19:53.349Z</time>
      </trkpt>
      <trkpt lat="39.548208" lon="-2.131775">
        <ele>885.046531</ele>
        <time>2021-11-03T16:19:53.349Z</time>
      </trkpt>
      <trkpt lat="39.548204" lon="-2.131740">
        <ele>885.110122</ele>
        <time>2021-11-03T16:19:53.349Z</time>
      </trkpt>
      <trkpt lat="39.548192" lon="-2.131631">
        <ele>885.308009</ele>
        <time>2021-11-03T16:19:53.349Z</time>
      </trkpt>
      <trkpt lat="39.548175" lon="-2.131406">
        <ele>885.714327</ele>
        <time>2021-11-03T16:19:53.349Z</time>
      </trkpt>
      <trkpt lat="39.548165" lon="-2.131258">
        <ele>885.984568</ele>
        <time>2021-11-03T16:19:53.349Z</time>
      </trkpt>
      <trkpt lat="39.548162" lon="-2.131220">
        <ele>886.078652</ele>
        <time>2021-11-03T16:19:53.349Z</time>
      </trkpt>
      <trkpt lat="39.548155" lon="-2.131144">
        <ele>886.267172</ele>
        <time>2021-11-03T16:19:53.349Z</time>
      </trkpt>
      <trkpt lat="39.548144" lon="-2.131031">
        <ele>886.547702</ele>
        <time>2021-11-03T16:19:53.349Z</time>
      </trkpt>
      <trkpt lat="39.548141" lon="-2.130993">
        <ele>886.641785</ele>
        <time>2021-11-03T16:19:53.349Z</time>
      </trkpt>
      <trkpt lat="39.548125" lon="-2.130686">
        <ele>887.399656</ele>
        <time>2021-11-03T16:19:53.349Z</time>
      </trkpt>
      <trkpt lat="39.548121" lon="-2.130607">
        <ele>887.594654</ele>
        <time>2021-11-03T16:19:53.349Z</time>
      </trkpt>
      <trkpt lat="39.548100" lon="-2.130414">
        <ele>888.074725</ele>
        <time>2021-11-03T16:19:53.349Z</time>
      </trkpt>
      <trkpt lat="39.548078" lon="-2.130144">
        <ele>888.743442</ele>
        <time>2021-11-03T16:19:53.349Z</time>
      </trkpt>
      <trkpt lat="39.548059" lon="-2.129941">
        <ele>889.247104</ele>
        <time>2021-11-03T16:19:53.349Z</time>
      </trkpt>
      <trkpt lat="39.548054" lon="-2.129899">
        <ele>889.351777</ele>
        <time>2021-11-03T16:19:53.349Z</time>
      </trkpt>
      <trkpt lat="39.548036" lon="-2.129546">
        <ele>890.223121</ele>
        <time>2021-11-03T16:19:53.349Z</time>
      </trkpt>
      <trkpt lat="39.548018" lon="-2.129293">
        <ele>890.848912</ele>
        <time>2021-11-03T16:19:53.349Z</time>
      </trkpt>
      <trkpt lat="39.548010" lon="-2.129081">
        <ele>891.371697</ele>
        <time>2021-11-03T16:19:53.349Z</time>
      </trkpt>
      <trkpt lat="39.548001" lon="-2.128999">
        <ele>891.575700</ele>
        <time>2021-11-03T16:19:53.349Z</time>
      </trkpt>
      <trkpt lat="39.547984" lon="-2.128731">
        <ele>891.739262</ele>
        <time>2021-11-03T16:19:53.349Z</time>
      </trkpt>
      <trkpt lat="39.547982" lon="-2.128684">
        <ele>891.744035</ele>
        <time>2021-11-03T16:19:53.349Z</time>
      </trkpt>
      <trkpt lat="39.547981" lon="-2.128636">
        <ele>891.748903</ele>
        <time>2021-11-03T16:19:53.349Z</time>
      </trkpt>
      <trkpt lat="39.547976" lon="-2.128589">
        <ele>891.753713</ele>
        <time>2021-11-03T16:19:53.349Z</time>
      </trkpt>
      <trkpt lat="39.547972" lon="-2.128547">
        <ele>891.758004</ele>
        <time>2021-11-03T16:19:53.349Z</time>
      </trkpt>
      <trkpt lat="39.547969" lon="-2.128509">
        <ele>891.761877</ele>
        <time>2021-11-03T16:19:53.349Z</time>
      </trkpt>
      <trkpt lat="39.547967" lon="-2.128476">
        <ele>891.765233</ele>
        <time>2021-11-03T16:19:53.349Z</time>
      </trkpt>
      <trkpt lat="39.547967" lon="-2.128446">
        <ele>891.768274</ele>
        <time>2021-11-03T16:19:53.349Z</time>
      </trkpt>
      <trkpt lat="39.547968" lon="-2.128419">
        <ele>891.771015</ele>
        <time>2021-11-03T16:19:53.349Z</time>
      </trkpt>
      <trkpt lat="39.547967" lon="-2.128396">
        <ele>891.773351</ele>
        <time>2021-11-03T16:19:53.349Z</time>
      </trkpt>
      <trkpt lat="39.547969" lon="-2.128370">
        <ele>891.776000</ele>
        <time>2021-11-03T16:19:53.349Z</time>
      </trkpt>
      <trkpt lat="39.547969" lon="-2.128362">
        <ele>891.776811</ele>
        <time>2021-11-03T16:19:53.349Z</time>
      </trkpt>
      <trkpt lat="39.547967" lon="-2.128340">
        <ele>891.779057</ele>
        <time>2021-11-03T16:19:53.349Z</time>
      </trkpt>
      <trkpt lat="39.547959" lon="-2.128278">
        <ele>891.785430</ele>
        <time>2021-11-03T16:19:53.349Z</time>
      </trkpt>
      <trkpt lat="39.547954" lon="-2.128234">
        <ele>891.789939</ele>
        <time>2021-11-03T16:19:53.349Z</time>
      </trkpt>
      <trkpt lat="39.547932" lon="-2.127975">
        <ele>891.816358</ele>
        <time>2021-11-03T16:19:53.349Z</time>
      </trkpt>
      <trkpt lat="39.547889" lon="-2.127444">
        <ele>891.870490</ele>
        <time>2021-11-03T16:19:53.349Z</time>
      </trkpt>
      <trkpt lat="39.547846" lon="-2.126864">
        <ele>891.929566</ele>
        <time>2021-11-03T16:19:53.349Z</time>
      </trkpt>
      <trkpt lat="39.547798" lon="-2.126604">
        <ele>891.935536</ele>
        <time>2021-11-03T16:19:53.349Z</time>
      </trkpt>
      <trkpt lat="39.547740" lon="-2.126408">
        <ele>891.763482</ele>
        <time>2021-11-03T16:19:53.349Z</time>
      </trkpt>
      <trkpt lat="39.547718" lon="-2.126342">
        <ele>891.704555</ele>
        <time>2021-11-03T16:19:53.349Z</time>
      </trkpt>
      <trkpt lat="39.547666" lon="-2.126206">
        <ele>891.580146</ele>
        <time>2021-11-03T16:19:53.349Z</time>
      </trkpt>
      <trkpt lat="39.547639" lon="-2.126135">
        <ele>891.515267</ele>
        <time>2021-11-03T16:19:53.349Z</time>
      </trkpt>
      <trkpt lat="39.547610" lon="-2.126065">
        <ele>891.450143</ele>
        <time>2021-11-03T16:19:53.349Z</time>
      </trkpt>
      <trkpt lat="39.547580" lon="-2.125993">
        <ele>891.383072</ele>
        <time>2021-11-03T16:19:53.349Z</time>
      </trkpt>
      <trkpt lat="39.547548" lon="-2.125922">
        <ele>891.315673</ele>
        <time>2021-11-03T16:19:53.349Z</time>
      </trkpt>
      <trkpt lat="39.547454" lon="-2.125704">
        <ele>891.110975</ele>
        <time>2021-11-03T16:19:53.349Z</time>
      </trkpt>
      <trkpt lat="39.547391" lon="-2.125564">
        <ele>890.978129</ele>
        <time>2021-11-03T16:19:53.349Z</time>
      </trkpt>
      <trkpt lat="39.547361" lon="-2.125493">
        <ele>890.911778</ele>
        <time>2021-11-03T16:19:53.349Z</time>
      </trkpt>
      <trkpt lat="39.547189" lon="-2.125097">
        <ele>890.539291</ele>
        <time>2021-11-03T16:19:53.349Z</time>
      </trkpt>
      <trkpt lat="39.547021" lon="-2.124687">
        <ele>890.158778</ele>
        <time>2021-11-03T16:19:53.349Z</time>
      </trkpt>
      <trkpt lat="39.546994" lon="-2.124622">
        <ele>890.098269</ele>
        <time>2021-11-03T16:19:53.349Z</time>
      </trkpt>
      <trkpt lat="39.546847" lon="-2.124262">
        <ele>889.997750</ele>
        <time>2021-11-03T16:19:53.349Z</time>
      </trkpt>
      <trkpt lat="39.546821" lon="-2.124205">
        <ele>889.988986</ele>
        <time>2021-11-03T16:19:53.349Z</time>
      </trkpt>
      <trkpt lat="39.546774" lon="-2.124089">
        <ele>889.971645</ele>
        <time>2021-11-03T16:19:53.349Z</time>
      </trkpt>
      <trkpt lat="39.546705" lon="-2.123921">
        <ele>889.946455</ele>
        <time>2021-11-03T16:19:53.349Z</time>
      </trkpt>
      <trkpt lat="39.546630" lon="-2.123764">
        <ele>889.922014</ele>
        <time>2021-11-03T16:19:53.349Z</time>
      </trkpt>
      <trkpt lat="39.546399" lon="-2.123389">
        <ele>889.858497</ele>
        <time>2021-11-03T16:19:53.349Z</time>
      </trkpt>
      <trkpt lat="39.546107" lon="-2.123129">
        <ele>889.797709</ele>
        <time>2021-11-03T16:19:53.349Z</time>
      </trkpt>
      <trkpt lat="39.545988" lon="-2.123018">
        <ele>889.772553</ele>
        <time>2021-11-03T16:19:53.349Z</time>
      </trkpt>
      <trkpt lat="39.545853" lon="-2.122897">
        <ele>889.744389</ele>
        <time>2021-11-03T16:19:53.349Z</time>
      </trkpt>
      <trkpt lat="39.545806" lon="-2.122854">
        <ele>889.734518</ele>
        <time>2021-11-03T16:19:53.349Z</time>
      </trkpt>
      <trkpt lat="39.545684" lon="-2.122699">
        <ele>889.481731</ele>
        <time>2021-11-03T16:19:53.349Z</time>
      </trkpt>
      <trkpt lat="39.545656" lon="-2.122634">
        <ele>889.395407</ele>
        <time>2021-11-03T16:19:53.349Z</time>
      </trkpt>
      <trkpt lat="39.545637" lon="-2.122564">
        <ele>889.309367</ele>
        <time>2021-11-03T16:19:53.349Z</time>
      </trkpt>
      <trkpt lat="39.545622" lon="-2.122414">
        <ele>889.133999</ele>
        <time>2021-11-03T16:19:53.349Z</time>
      </trkpt>
      <trkpt lat="39.545623" lon="-2.122340">
        <ele>889.048189</ele>
        <time>2021-11-03T16:19:53.349Z</time>
      </trkpt>
      <trkpt lat="39.545635" lon="-2.122194">
        <ele>888.877956</ele>
        <time>2021-11-03T16:19:53.349Z</time>
      </trkpt>
      <trkpt lat="39.545677" lon="-2.121901">
        <ele>888.532428</ele>
        <time>2021-11-03T16:19:53.349Z</time>
      </trkpt>
      <trkpt lat="39.545703" lon="-2.121762">
        <ele>888.366596</ele>
        <time>2021-11-03T16:19:53.349Z</time>
      </trkpt>
      <trkpt lat="39.545789" lon="-2.121096">
        <ele>887.583675</ele>
        <time>2021-11-03T16:19:53.349Z</time>
      </trkpt>
      <trkpt lat="39.545790" lon="-2.120779">
        <ele>887.216139</ele>
        <time>2021-11-03T16:19:53.349Z</time>
      </trkpt>
      <trkpt lat="39.545762" lon="-2.120458">
        <ele>886.557612</ele>
        <time>2021-11-03T16:19:53.349Z</time>
      </trkpt>
      <trkpt lat="39.545727" lon="-2.120213">
        <ele>885.832474</ele>
        <time>2021-11-03T16:19:53.349Z</time>
      </trkpt>
      <trkpt lat="39.545634" lon="-2.119713">
        <ele>884.335626</ele>
        <time>2021-11-03T16:19:53.349Z</time>
      </trkpt>
      <trkpt lat="39.545603" lon="-2.119544">
        <ele>883.830073</ele>
        <time>2021-11-03T16:19:53.349Z</time>
      </trkpt>
      <trkpt lat="39.545553" lon="-2.119198">
        <ele>882.805603</ele>
        <time>2021-11-03T16:19:53.349Z</time>
      </trkpt>
      <trkpt lat="39.545490" lon="-2.118843">
        <ele>881.745462</ele>
        <time>2021-11-03T16:19:53.349Z</time>
      </trkpt>
      <trkpt lat="39.545457" lon="-2.118663">
        <ele>881.207017</ele>
        <time>2021-11-03T16:19:53.349Z</time>
      </trkpt>
      <trkpt lat="39.545425" lon="-2.118481">
        <ele>880.663759</ele>
        <time>2021-11-03T16:19:53.349Z</time>
      </trkpt>
      <trkpt lat="39.545374" lon="-2.118202">
        <ele>879.951357</ele>
        <time>2021-11-03T16:19:53.349Z</time>
      </trkpt>
      <trkpt lat="39.545323" lon="-2.117907">
        <ele>879.332056</ele>
        <time>2021-11-03T16:19:53.349Z</time>
      </trkpt>
      <trkpt lat="39.545271" lon="-2.117608">
        <ele>878.704179</ele>
        <time>2021-11-03T16:19:53.349Z</time>
      </trkpt>
      <trkpt lat="39.545204" lon="-2.117212">
        <ele>877.873686</ele>
        <time>2021-11-03T16:19:53.349Z</time>
      </trkpt>
      <trkpt lat="39.545105" lon="-2.116636">
        <ele>876.664809</ele>
        <time>2021-11-03T16:19:53.349Z</time>
      </trkpt>
      <trkpt lat="39.545088" lon="-2.116544">
        <ele>876.471014</ele>
        <time>2021-11-03T16:19:53.349Z</time>
      </trkpt>
      <trkpt lat="39.544982" lon="-2.115920">
        <ele>875.530348</ele>
        <time>2021-11-03T16:19:53.349Z</time>
      </trkpt>
      <trkpt lat="39.544914" lon="-2.115518">
        <ele>875.717617</ele>
        <time>2021-11-03T16:19:53.349Z</time>
      </trkpt>
      <trkpt lat="39.544904" lon="-2.115441">
        <ele>875.753147</ele>
        <time>2021-11-03T16:19:53.349Z</time>
      </trkpt>
      <trkpt lat="39.544893" lon="-2.115366">
        <ele>875.787885</ele>
        <time>2021-11-03T16:19:53.349Z</time>
      </trkpt>
      <trkpt lat="39.544881" lon="-2.115294">
        <ele>875.821404</ele>
        <time>2021-11-03T16:19:53.349Z</time>
      </trkpt>
      <trkpt lat="39.544868" lon="-2.115224">
        <ele>875.854166</ele>
        <time>2021-11-03T16:19:53.349Z</time>
      </trkpt>
      <trkpt lat="39.544843" lon="-2.115084">
        <ele>875.919555</ele>
        <time>2021-11-03T16:19:53.349Z</time>
      </trkpt>
      <trkpt lat="39.544831" lon="-2.115014">
        <ele>875.952184</ele>
        <time>2021-11-03T16:19:53.349Z</time>
      </trkpt>
      <trkpt lat="39.544820" lon="-2.114945">
        <ele>875.984245</ele>
        <time>2021-11-03T16:19:53.349Z</time>
      </trkpt>
      <trkpt lat="39.544784" lon="-2.114740">
        <ele>876.079913</ele>
        <time>2021-11-03T16:19:53.349Z</time>
      </trkpt>
      <trkpt lat="39.544773" lon="-2.114673">
        <ele>876.111083</ele>
        <time>2021-11-03T16:19:53.349Z</time>
      </trkpt>
      <trkpt lat="39.544680" lon="-2.114184">
        <ele>876.340258</ele>
        <time>2021-11-03T16:19:53.349Z</time>
      </trkpt>
      <trkpt lat="39.544651" lon="-2.114030">
        <ele>876.412391</ele>
        <time>2021-11-03T16:19:53.349Z</time>
      </trkpt>
      <trkpt lat="39.544615" lon="-2.113871">
        <ele>876.487794</ele>
        <time>2021-11-03T16:19:53.349Z</time>
      </trkpt>
      <trkpt lat="39.544585" lon="-2.113702">
        <ele>876.329375</ele>
        <time>2021-11-03T16:19:53.349Z</time>
      </trkpt>
      <trkpt lat="39.544541" lon="-2.113442">
        <ele>875.765201</ele>
        <time>2021-11-03T16:19:53.349Z</time>
      </trkpt>
      <trkpt lat="39.544495" lon="-2.113170">
        <ele>875.175005</ele>
        <time>2021-11-03T16:19:53.349Z</time>
      </trkpt>
      <trkpt lat="39.544463" lon="-2.112982">
        <ele>874.766954</ele>
        <time>2021-11-03T16:19:53.349Z</time>
      </trkpt>
      <trkpt lat="39.544429" lon="-2.112793">
        <ele>874.355619</ele>
        <time>2021-11-03T16:19:53.349Z</time>
      </trkpt>
      <trkpt lat="39.544359" lon="-2.112413">
        <ele>873.527560</ele>
        <time>2021-11-03T16:19:53.349Z</time>
      </trkpt>
      <trkpt lat="39.544342" lon="-2.112320">
        <ele>873.324987</ele>
        <time>2021-11-03T16:19:53.349Z</time>
      </trkpt>
      <trkpt lat="39.544324" lon="-2.112227">
        <ele>873.121763</ele>
        <time>2021-11-03T16:19:53.349Z</time>
      </trkpt>
      <trkpt lat="39.544307" lon="-2.112135">
        <ele>872.921251</ele>
        <time>2021-11-03T16:19:53.349Z</time>
      </trkpt>
      <trkpt lat="39.544290" lon="-2.112042">
        <ele>872.718678</ele>
        <time>2021-11-03T16:19:53.349Z</time>
      </trkpt>
      <trkpt lat="39.544274" lon="-2.111951">
        <ele>872.520856</ele>
        <time>2021-11-03T16:19:53.349Z</time>
      </trkpt>
      <trkpt lat="39.544258" lon="-2.111861">
        <ele>872.325100</ele>
        <time>2021-11-03T16:19:53.349Z</time>
      </trkpt>
      <trkpt lat="39.544243" lon="-2.111771">
        <ele>872.129943</ele>
        <time>2021-11-03T16:19:53.349Z</time>
      </trkpt>
      <trkpt lat="39.544124" lon="-2.111061">
        <ele>871.942559</ele>
        <time>2021-11-03T16:19:53.349Z</time>
      </trkpt>
      <trkpt lat="39.544108" lon="-2.110975">
        <ele>872.010928</ele>
        <time>2021-11-03T16:19:53.349Z</time>
      </trkpt>
      <trkpt lat="39.544000" lon="-2.110339">
        <ele>872.514208</ele>
        <time>2021-11-03T16:19:53.349Z</time>
      </trkpt>
      <trkpt lat="39.543970" lon="-2.110194">
        <ele>872.630228</ele>
        <time>2021-11-03T16:19:53.349Z</time>
      </trkpt>
      <trkpt lat="39.543890" lon="-2.109783">
        <ele>872.957814</ele>
        <time>2021-11-03T16:19:53.349Z</time>
      </trkpt>
      <trkpt lat="39.543877" lon="-2.109715">
        <ele>873.011955</ele>
        <time>2021-11-03T16:19:53.349Z</time>
      </trkpt>
      <trkpt lat="39.543803" lon="-2.109387">
        <ele>873.276062</ele>
        <time>2021-11-03T16:19:53.349Z</time>
      </trkpt>
      <trkpt lat="39.543746" lon="-2.109189">
        <ele>873.298987</ele>
        <time>2021-11-03T16:19:53.349Z</time>
      </trkpt>
      <trkpt lat="39.543671" lon="-2.108987">
        <ele>873.035482</ele>
        <time>2021-11-03T16:19:53.349Z</time>
      </trkpt>
      <trkpt lat="39.543582" lon="-2.108779">
        <ele>872.755898</ele>
        <time>2021-11-03T16:19:53.349Z</time>
      </trkpt>
      <trkpt lat="39.543465" lon="-2.108524">
        <ele>872.407147</ele>
        <time>2021-11-03T16:19:53.349Z</time>
      </trkpt>
      <trkpt lat="39.543341" lon="-2.108227">
        <ele>872.010190</ele>
        <time>2021-11-03T16:19:53.349Z</time>
      </trkpt>
      <trkpt lat="39.543096" lon="-2.107680">
        <ele>871.266698</ele>
        <time>2021-11-03T16:19:53.349Z</time>
      </trkpt>
      <trkpt lat="39.542911" lon="-2.107282">
        <ele>870.720498</ele>
        <time>2021-11-03T16:19:53.349Z</time>
      </trkpt>
      <trkpt lat="39.542816" lon="-2.107078">
        <ele>870.322262</ele>
        <time>2021-11-03T16:19:53.349Z</time>
      </trkpt>
      <trkpt lat="39.542786" lon="-2.107009">
        <ele>870.174680</ele>
        <time>2021-11-03T16:19:53.349Z</time>
      </trkpt>
      <trkpt lat="39.542603" lon="-2.106517">
        <ele>869.156952</ele>
        <time>2021-11-03T16:19:53.349Z</time>
      </trkpt>
      <trkpt lat="39.542581" lon="-2.106443">
        <ele>869.009187</ele>
        <time>2021-11-03T16:19:53.349Z</time>
      </trkpt>
      <trkpt lat="39.542535" lon="-2.106295">
        <ele>868.711886</ele>
        <time>2021-11-03T16:19:53.349Z</time>
      </trkpt>
      <trkpt lat="39.542440" lon="-2.106006">
        <ele>868.126555</ele>
        <time>2021-11-03T16:19:53.349Z</time>
      </trkpt>
      <trkpt lat="39.542366" lon="-2.105790">
        <ele>867.686186</ele>
        <time>2021-11-03T16:19:53.349Z</time>
      </trkpt>
      <trkpt lat="39.542217" lon="-2.105370">
        <ele>866.824824</ele>
        <time>2021-11-03T16:19:53.349Z</time>
      </trkpt>
      <trkpt lat="39.542194" lon="-2.105297">
        <ele>866.677899</ele>
        <time>2021-11-03T16:19:53.349Z</time>
      </trkpt>
      <trkpt lat="39.541973" lon="-2.104613">
        <ele>865.473890</ele>
        <time>2021-11-03T16:19:53.349Z</time>
      </trkpt>
      <trkpt lat="39.541923" lon="-2.104458">
        <ele>865.216461</ele>
        <time>2021-11-03T16:19:53.349Z</time>
      </trkpt>
      <trkpt lat="39.541850" lon="-2.104227">
        <ele>864.833962</ele>
        <time>2021-11-03T16:19:53.349Z</time>
      </trkpt>
      <trkpt lat="39.541704" lon="-2.103766">
        <ele>864.070379</ele>
        <time>2021-11-03T16:19:53.349Z</time>
      </trkpt>
      <trkpt lat="39.541532" lon="-2.103225">
        <ele>863.173783</ele>
        <time>2021-11-03T16:19:53.349Z</time>
      </trkpt>
      <trkpt lat="39.541457" lon="-2.102991">
        <ele>862.785517</ele>
        <time>2021-11-03T16:19:53.349Z</time>
      </trkpt>
      <trkpt lat="39.541353" lon="-2.102673">
        <ele>862.342595</ele>
        <time>2021-11-03T16:19:53.349Z</time>
      </trkpt>
      <trkpt lat="39.541225" lon="-2.102275">
        <ele>861.804077</ele>
        <time>2021-11-03T16:19:53.349Z</time>
      </trkpt>
      <trkpt lat="39.541199" lon="-2.102196">
        <ele>861.696812</ele>
        <time>2021-11-03T16:19:53.349Z</time>
      </trkpt>
      <trkpt lat="39.541022" lon="-2.101640">
        <ele>860.945635</ele>
        <time>2021-11-03T16:19:53.349Z</time>
      </trkpt>
      <trkpt lat="39.540789" lon="-2.100934">
        <ele>859.986623</ele>
        <time>2021-11-03T16:19:53.349Z</time>
      </trkpt>
      <trkpt lat="39.540737" lon="-2.100779">
        <ele>859.799599</ele>
        <time>2021-11-03T16:19:53.349Z</time>
      </trkpt>
      <trkpt lat="39.540523" lon="-2.100105">
        <ele>859.519381</ele>
        <time>2021-11-03T16:19:53.349Z</time>
      </trkpt>
      <trkpt lat="39.540297" lon="-2.099413">
        <ele>859.230471</ele>
        <time>2021-11-03T16:19:53.349Z</time>
      </trkpt>
      <trkpt lat="39.540273" lon="-2.099345">
        <ele>859.201721</ele>
        <time>2021-11-03T16:19:53.349Z</time>
      </trkpt>
      <trkpt lat="39.540193" lon="-2.099147">
        <ele>859.115786</ele>
        <time>2021-11-03T16:19:53.349Z</time>
      </trkpt>
      <trkpt lat="39.540161" lon="-2.099085">
        <ele>859.087104</ele>
        <time>2021-11-03T16:19:53.349Z</time>
      </trkpt>
      <trkpt lat="39.540082" lon="-2.098978">
        <ele>859.030155</ele>
        <time>2021-11-03T16:19:53.349Z</time>
      </trkpt>
      <trkpt lat="39.539729" lon="-2.098593">
        <ele>859.025674</ele>
        <time>2021-11-03T16:19:53.349Z</time>
      </trkpt>
      <trkpt lat="39.539593" lon="-2.098449">
        <ele>859.112117</ele>
        <time>2021-11-03T16:19:53.349Z</time>
      </trkpt>
      <trkpt lat="39.539460" lon="-2.098308">
        <ele>859.196695</ele>
        <time>2021-11-03T16:19:53.349Z</time>
      </trkpt>
      <trkpt lat="39.539372" lon="-2.098218">
        <ele>859.251874</ele>
        <time>2021-11-03T16:19:53.349Z</time>
      </trkpt>
      <trkpt lat="39.539284" lon="-2.098133">
        <ele>859.305898</ele>
        <time>2021-11-03T16:19:53.349Z</time>
      </trkpt>
      <trkpt lat="39.539157" lon="-2.098009">
        <ele>859.384167</ele>
        <time>2021-11-03T16:19:53.349Z</time>
      </trkpt>
      <trkpt lat="39.539074" lon="-2.097929">
        <ele>859.435082</ele>
        <time>2021-11-03T16:19:53.349Z</time>
      </trkpt>
      <trkpt lat="39.539031" lon="-2.097891">
        <ele>859.460701</ele>
        <time>2021-11-03T16:19:53.349Z</time>
      </trkpt>
      <trkpt lat="39.538949" lon="-2.097808">
        <ele>859.511916</ele>
        <time>2021-11-03T16:19:53.349Z</time>
      </trkpt>
      <trkpt lat="39.538665" lon="-2.097506">
        <ele>859.692741</ele>
        <time>2021-11-03T16:19:53.349Z</time>
      </trkpt>
      <trkpt lat="39.538336" lon="-2.097164">
        <ele>859.192310</ele>
        <time>2021-11-03T16:19:53.349Z</time>
      </trkpt>
      <trkpt lat="39.538015" lon="-2.096821">
        <ele>857.963959</ele>
        <time>2021-11-03T16:19:53.349Z</time>
      </trkpt>
      <trkpt lat="39.537966" lon="-2.096770">
        <ele>857.778406</ele>
        <time>2021-11-03T16:19:53.349Z</time>
      </trkpt>
      <trkpt lat="39.537715" lon="-2.096489">
        <ele>856.799124</ele>
        <time>2021-11-03T16:19:53.349Z</time>
      </trkpt>
      <trkpt lat="39.537662" lon="-2.096435">
        <ele>856.600070</ele>
        <time>2021-11-03T16:19:53.349Z</time>
      </trkpt>
      <trkpt lat="39.537504" lon="-2.096273">
        <ele>856.005229</ele>
        <time>2021-11-03T16:19:53.349Z</time>
      </trkpt>
      <trkpt lat="39.537227" lon="-2.095969">
        <ele>854.933543</ele>
        <time>2021-11-03T16:19:53.349Z</time>
      </trkpt>
      <trkpt lat="39.537169" lon="-2.095902">
        <ele>854.704148</ele>
        <time>2021-11-03T16:19:53.349Z</time>
      </trkpt>
      <trkpt lat="39.537053" lon="-2.095764">
        <ele>854.193755</ele>
        <time>2021-11-03T16:19:53.349Z</time>
      </trkpt>
      <trkpt lat="39.536816" lon="-2.095495">
        <ele>853.093161</ele>
        <time>2021-11-03T16:19:53.349Z</time>
      </trkpt>
      <trkpt lat="39.536697" lon="-2.095367">
        <ele>852.552895</ele>
        <time>2021-11-03T16:19:53.349Z</time>
      </trkpt>
      <trkpt lat="39.536462" lon="-2.095117">
        <ele>851.490740</ele>
        <time>2021-11-03T16:19:53.349Z</time>
      </trkpt>
      <trkpt lat="39.536215" lon="-2.094895">
        <ele>850.440586</ele>
        <time>2021-11-03T16:19:53.349Z</time>
      </trkpt>
      <trkpt lat="39.536082" lon="-2.094799">
        <ele>849.908694</ele>
        <time>2021-11-03T16:19:53.349Z</time>
      </trkpt>
      <trkpt lat="39.536014" lon="-2.094758">
        <ele>849.646652</ele>
        <time>2021-11-03T16:19:53.349Z</time>
      </trkpt>
      <trkpt lat="39.535810" lon="-2.094632">
        <ele>848.857081</ele>
        <time>2021-11-03T16:19:53.349Z</time>
      </trkpt>
      <trkpt lat="39.535740" lon="-2.094595">
        <ele>848.592940</ele>
        <time>2021-11-03T16:19:53.349Z</time>
      </trkpt>
      <trkpt lat="39.535672" lon="-2.094566">
        <ele>848.342808</ele>
        <time>2021-11-03T16:19:53.349Z</time>
      </trkpt>
      <trkpt lat="39.535474" lon="-2.094491">
        <ele>847.073127</ele>
        <time>2021-11-03T16:19:53.349Z</time>
      </trkpt>
      <trkpt lat="39.535330" lon="-2.094440">
        <ele>846.058373</ele>
        <time>2021-11-03T16:19:53.349Z</time>
      </trkpt>
      <trkpt lat="39.535254" lon="-2.094409">
        <ele>845.516774</ele>
        <time>2021-11-03T16:19:53.349Z</time>
      </trkpt>
      <trkpt lat="39.535176" lon="-2.094382">
        <ele>844.967969</ele>
        <time>2021-11-03T16:19:53.349Z</time>
      </trkpt>
      <trkpt lat="39.535095" lon="-2.094356">
        <ele>844.400720</ele>
        <time>2021-11-03T16:19:53.349Z</time>
      </trkpt>
      <trkpt lat="39.535011" lon="-2.094332">
        <ele>843.815999</ele>
        <time>2021-11-03T16:19:53.349Z</time>
      </trkpt>
      <trkpt lat="39.534753" lon="-2.094248">
        <ele>842.007701</ele>
        <time>2021-11-03T16:19:53.349Z</time>
      </trkpt>
      <trkpt lat="39.534579" lon="-2.094186">
        <ele>840.781019</ele>
        <time>2021-11-03T16:19:53.349Z</time>
      </trkpt>
      <trkpt lat="39.534406" lon="-2.094126">
        <ele>839.563642</ele>
        <time>2021-11-03T16:19:53.349Z</time>
      </trkpt>
      <trkpt lat="39.534323" lon="-2.094104">
        <ele>838.987750</ele>
        <time>2021-11-03T16:19:53.349Z</time>
      </trkpt>
      <trkpt lat="39.534152" lon="-2.094081">
        <ele>837.819075</ele>
        <time>2021-11-03T16:19:53.349Z</time>
      </trkpt>
      <trkpt lat="39.534064" lon="-2.094083">
        <ele>837.220770</ele>
        <time>2021-11-03T16:19:53.349Z</time>
      </trkpt>
      <trkpt lat="39.533977" lon="-2.094092">
        <ele>836.627475</ele>
        <time>2021-11-03T16:19:53.349Z</time>
      </trkpt>
      <trkpt lat="39.533895" lon="-2.094110">
        <ele>836.062117</ele>
        <time>2021-11-03T16:19:53.349Z</time>
      </trkpt>
      <trkpt lat="39.533748" lon="-2.094176">
        <ele>835.343985</ele>
        <time>2021-11-03T16:19:53.349Z</time>
      </trkpt>
      <trkpt lat="39.533677" lon="-2.094227">
        <ele>834.985058</ele>
        <time>2021-11-03T16:19:53.349Z</time>
      </trkpt>
      <trkpt lat="39.533554" lon="-2.094380">
        <ele>834.231317</ele>
        <time>2021-11-03T16:19:53.349Z</time>
      </trkpt>
      <trkpt lat="39.533462" lon="-2.094583">
        <ele>833.428299</ele>
        <time>2021-11-03T16:19:53.349Z</time>
      </trkpt>
      <trkpt lat="39.533431" lon="-2.094690">
        <ele>833.038475</ele>
        <time>2021-11-03T16:19:53.349Z</time>
      </trkpt>
      <trkpt lat="39.533414" lon="-2.094796">
        <ele>832.669226</ele>
        <time>2021-11-03T16:19:53.349Z</time>
      </trkpt>
      <trkpt lat="39.533417" lon="-2.095017">
        <ele>831.915383</ele>
        <time>2021-11-03T16:19:53.349Z</time>
      </trkpt>
      <trkpt lat="39.533471" lon="-2.095233">
        <ele>831.140975</ele>
        <time>2021-11-03T16:19:53.349Z</time>
      </trkpt>
      <trkpt lat="39.533507" lon="-2.095333">
        <ele>830.764598</ele>
        <time>2021-11-03T16:19:53.349Z</time>
      </trkpt>
      <trkpt lat="39.533572" lon="-2.095539">
        <ele>830.005508</ele>
        <time>2021-11-03T16:19:53.349Z</time>
      </trkpt>
      <trkpt lat="39.533618" lon="-2.095764">
        <ele>829.211639</ele>
        <time>2021-11-03T16:19:53.349Z</time>
      </trkpt>
      <trkpt lat="39.533610" lon="-2.095969">
        <ele>828.511589</ele>
        <time>2021-11-03T16:19:53.349Z</time>
      </trkpt>
      <trkpt lat="39.533577" lon="-2.096042">
        <ele>828.223007</ele>
        <time>2021-11-03T16:19:53.349Z</time>
      </trkpt>
      <trkpt lat="39.533536" lon="-2.096099">
        <ele>828.064819</ele>
        <time>2021-11-03T16:19:53.349Z</time>
      </trkpt>
      <trkpt lat="39.533443" lon="-2.096162">
        <ele>828.371959</ele>
        <time>2021-11-03T16:19:53.349Z</time>
      </trkpt>
      <trkpt lat="39.533400" lon="-2.096172">
        <ele>828.499835</ele>
        <time>2021-11-03T16:19:53.349Z</time>
      </trkpt>
      <trkpt lat="39.533320" lon="-2.096165">
        <ele>828.734540</ele>
        <time>2021-11-03T16:19:53.349Z</time>
      </trkpt>
      <trkpt lat="39.533283" lon="-2.096150">
        <ele>828.848015</ele>
        <time>2021-11-03T16:19:53.349Z</time>
      </trkpt>
      <trkpt lat="39.533214" lon="-2.096116">
        <ele>829.064082</ele>
        <time>2021-11-03T16:19:53.349Z</time>
      </trkpt>
      <trkpt lat="39.533180" lon="-2.096100">
        <ele>829.169958</ele>
        <time>2021-11-03T16:19:53.349Z</time>
      </trkpt>
      <trkpt lat="39.533095" lon="-2.096057">
        <ele>829.437033</ele>
        <time>2021-11-03T16:19:53.349Z</time>
      </trkpt>
      <trkpt lat="39.533041" lon="-2.096030">
        <ele>829.606445</ele>
        <time>2021-11-03T16:19:53.349Z</time>
      </trkpt>
      <trkpt lat="39.532986" lon="-2.095990">
        <ele>829.791035</ele>
        <time>2021-11-03T16:19:53.349Z</time>
      </trkpt>
      <trkpt lat="39.532956" lon="-2.095976">
        <ele>829.884365</ele>
        <time>2021-11-03T16:19:53.349Z</time>
      </trkpt>
      <trkpt lat="39.532926" lon="-2.095968">
        <ele>829.974017</ele>
        <time>2021-11-03T16:19:53.349Z</time>
      </trkpt>
      <trkpt lat="39.532898" lon="-2.095963">
        <ele>830.056751</ele>
        <time>2021-11-03T16:19:53.349Z</time>
      </trkpt>
      <trkpt lat="39.532871" lon="-2.095957">
        <ele>830.136937</ele>
        <time>2021-11-03T16:19:53.349Z</time>
      </trkpt>
      <trkpt lat="39.532845" lon="-2.095951">
        <ele>830.214239</ele>
        <time>2021-11-03T16:19:53.349Z</time>
      </trkpt>
      <trkpt lat="39.532814" lon="-2.095941">
        <ele>830.307747</ele>
        <time>2021-11-03T16:19:53.349Z</time>
      </trkpt>
      <trkpt lat="39.532782" lon="-2.095931">
        <ele>830.404098</ele>
        <time>2021-11-03T16:19:53.349Z</time>
      </trkpt>
      <trkpt lat="39.532749" lon="-2.095922">
        <ele>830.502808</ele>
        <time>2021-11-03T16:19:53.349Z</time>
      </trkpt>
      <trkpt lat="39.532618" lon="-2.095908">
        <ele>830.887565</ele>
        <time>2021-11-03T16:19:53.349Z</time>
      </trkpt>
      <trkpt lat="39.532556" lon="-2.095926">
        <ele>831.073542</ele>
        <time>2021-11-03T16:19:53.349Z</time>
      </trkpt>
      <trkpt lat="39.532373" lon="-2.095951">
        <ele>831.612176</ele>
        <time>2021-11-03T16:19:53.349Z</time>
      </trkpt>
      <trkpt lat="39.532224" lon="-2.095968">
        <ele>832.050007</ele>
        <time>2021-11-03T16:19:53.349Z</time>
      </trkpt>
      <trkpt lat="39.532149" lon="-2.095976">
        <ele>832.270285</ele>
        <time>2021-11-03T16:19:53.349Z</time>
      </trkpt>
      <trkpt lat="39.532033" lon="-2.095985">
        <ele>832.610443</ele>
        <time>2021-11-03T16:19:53.349Z</time>
      </trkpt>
      <trkpt lat="39.531914" lon="-2.095967">
        <ele>832.961136</ele>
        <time>2021-11-03T16:19:53.349Z</time>
      </trkpt>
      <trkpt lat="39.531833" lon="-2.095929">
        <ele>833.213279</ele>
        <time>2021-11-03T16:19:53.349Z</time>
      </trkpt>
      <trkpt lat="39.531796" lon="-2.095903">
        <ele>833.305232</ele>
        <time>2021-11-03T16:19:53.349Z</time>
      </trkpt>
      <trkpt lat="39.531762" lon="-2.095874">
        <ele>833.349365</ele>
        <time>2021-11-03T16:19:53.349Z</time>
      </trkpt>
      <trkpt lat="39.531681" lon="-2.095763">
        <ele>833.477171</ele>
        <time>2021-11-03T16:19:53.349Z</time>
      </trkpt>
      <trkpt lat="39.531658" lon="-2.095720">
        <ele>833.520937</ele>
        <time>2021-11-03T16:19:53.349Z</time>
      </trkpt>
      <trkpt lat="39.531475" lon="-2.095370">
        <ele>833.874596</ele>
        <time>2021-11-03T16:19:53.349Z</time>
      </trkpt>
      <trkpt lat="39.531447" lon="-2.095314">
        <ele>833.930415</ele>
        <time>2021-11-03T16:19:53.349Z</time>
      </trkpt>
      <trkpt lat="39.531418" lon="-2.095257">
        <ele>833.987527</ele>
        <time>2021-11-03T16:19:53.349Z</time>
      </trkpt>
      <trkpt lat="39.531389" lon="-2.095198">
        <ele>834.046042</ele>
        <time>2021-11-03T16:19:53.349Z</time>
      </trkpt>
      <trkpt lat="39.531361" lon="-2.095139">
        <ele>834.103982</ele>
        <time>2021-11-03T16:19:53.349Z</time>
      </trkpt>
      <trkpt lat="39.531331" lon="-2.095083">
        <ele>834.161010</ele>
        <time>2021-11-03T16:19:53.349Z</time>
      </trkpt>
      <trkpt lat="39.531301" lon="-2.095028">
        <ele>834.217352</ele>
        <time>2021-11-03T16:19:53.349Z</time>
      </trkpt>
      <trkpt lat="39.531239" lon="-2.094922">
        <ele>834.328620</ele>
        <time>2021-11-03T16:19:53.349Z</time>
      </trkpt>
      <trkpt lat="39.531039" lon="-2.094658">
        <ele>834.638125</ele>
        <time>2021-11-03T16:19:53.349Z</time>
      </trkpt>
      <trkpt lat="39.531001" lon="-2.094631">
        <ele>834.685115</ele>
        <time>2021-11-03T16:19:53.349Z</time>
      </trkpt>
      <trkpt lat="39.530889" lon="-2.094571">
        <ele>834.816529</ele>
        <time>2021-11-03T16:19:53.349Z</time>
      </trkpt>
      <trkpt lat="39.530781" lon="-2.094543">
        <ele>834.935964</ele>
        <time>2021-11-03T16:19:53.349Z</time>
      </trkpt>
      <trkpt lat="39.530677" lon="-2.094521">
        <ele>835.050235</ele>
        <time>2021-11-03T16:19:53.349Z</time>
      </trkpt>
      <trkpt lat="39.530479" lon="-2.094482">
        <ele>835.291454</ele>
        <time>2021-11-03T16:19:53.349Z</time>
      </trkpt>
      <trkpt lat="39.530381" lon="-2.094459">
        <ele>835.485758</ele>
        <time>2021-11-03T16:19:53.349Z</time>
      </trkpt>
      <trkpt lat="39.530178" lon="-2.094424">
        <ele>835.885295</ele>
        <time>2021-11-03T16:19:53.349Z</time>
      </trkpt>
      <trkpt lat="39.530078" lon="-2.094403">
        <ele>836.082936</ele>
        <time>2021-11-03T16:19:53.349Z</time>
      </trkpt>
      <trkpt lat="39.529818" lon="-2.094351">
        <ele>836.596193</ele>
        <time>2021-11-03T16:19:53.349Z</time>
      </trkpt>
      <trkpt lat="39.529691" lon="-2.094333">
        <ele>836.845444</ele>
        <time>2021-11-03T16:19:53.349Z</time>
      </trkpt>
      <trkpt lat="39.529471" lon="-2.094307">
        <ele>837.276441</ele>
        <time>2021-11-03T16:19:53.349Z</time>
      </trkpt>
      <trkpt lat="39.529405" lon="-2.094299">
        <ele>837.405767</ele>
        <time>2021-11-03T16:19:53.349Z</time>
      </trkpt>
      <trkpt lat="39.529170" lon="-2.094265">
        <ele>837.867095</ele>
        <time>2021-11-03T16:19:53.349Z</time>
      </trkpt>
      <trkpt lat="39.529030" lon="-2.094242">
        <ele>838.142417</ele>
        <time>2021-11-03T16:19:53.349Z</time>
      </trkpt>
      <trkpt lat="39.528875" lon="-2.094216">
        <ele>838.447341</ele>
        <time>2021-11-03T16:19:53.349Z</time>
      </trkpt>
      <trkpt lat="39.528701" lon="-2.094185">
        <ele>838.590661</ele>
        <time>2021-11-03T16:19:53.349Z</time>
      </trkpt>
      <trkpt lat="39.528608" lon="-2.094169">
        <ele>837.935806</ele>
        <time>2021-11-03T16:19:53.349Z</time>
      </trkpt>
      <trkpt lat="39.528452" lon="-2.094137">
        <ele>836.833341</ele>
        <time>2021-11-03T16:19:53.349Z</time>
      </trkpt>
      <trkpt lat="39.528326" lon="-2.094106">
        <ele>835.938132</ele>
        <time>2021-11-03T16:19:53.349Z</time>
      </trkpt>
      <trkpt lat="39.528192" lon="-2.094078">
        <ele>834.990706</ele>
        <time>2021-11-03T16:19:53.349Z</time>
      </trkpt>
      <trkpt lat="39.528058" lon="-2.094053">
        <ele>834.045717</ele>
        <time>2021-11-03T16:19:53.349Z</time>
      </trkpt>
      <trkpt lat="39.527863" lon="-2.094014">
        <ele>832.668465</ele>
        <time>2021-11-03T16:19:53.349Z</time>
      </trkpt>
      <trkpt lat="39.527799" lon="-2.093997">
        <ele>832.212449</ele>
        <time>2021-11-03T16:19:53.349Z</time>
      </trkpt>
      <trkpt lat="39.527733" lon="-2.093974">
        <ele>831.735399</ele>
        <time>2021-11-03T16:19:53.349Z</time>
      </trkpt>
      <trkpt lat="39.527666" lon="-2.093943">
        <ele>831.238832</ele>
        <time>2021-11-03T16:19:53.349Z</time>
      </trkpt>
      <trkpt lat="39.527600" lon="-2.093901">
        <ele>830.725630</ele>
        <time>2021-11-03T16:19:53.349Z</time>
      </trkpt>
      <trkpt lat="39.527533" lon="-2.093851">
        <ele>830.186009</ele>
        <time>2021-11-03T16:19:53.349Z</time>
      </trkpt>
      <trkpt lat="39.527465" lon="-2.093797">
        <ele>829.629388</ele>
        <time>2021-11-03T16:19:53.349Z</time>
      </trkpt>
      <trkpt lat="39.527322" lon="-2.093683">
        <ele>828.457602</ele>
        <time>2021-11-03T16:19:53.349Z</time>
      </trkpt>
      <trkpt lat="39.527248" lon="-2.093622">
        <ele>827.845494</ele>
        <time>2021-11-03T16:19:53.349Z</time>
      </trkpt>
      <trkpt lat="39.527095" lon="-2.093503">
        <ele>826.600071</ele>
        <time>2021-11-03T16:19:53.349Z</time>
      </trkpt>
      <trkpt lat="39.526951" lon="-2.093396">
        <ele>825.685586</ele>
        <time>2021-11-03T16:19:53.349Z</time>
      </trkpt>
      <trkpt lat="39.526820" lon="-2.093276">
        <ele>824.930327</ele>
        <time>2021-11-03T16:19:53.349Z</time>
      </trkpt>
      <trkpt lat="39.526768" lon="-2.093194">
        <ele>824.544785</ele>
        <time>2021-11-03T16:19:53.349Z</time>
      </trkpt>
      <trkpt lat="39.526726" lon="-2.093100">
        <ele>824.150246</ele>
        <time>2021-11-03T16:19:53.349Z</time>
      </trkpt>
      <trkpt lat="39.526681" lon="-2.092892">
        <ele>823.365664</ele>
        <time>2021-11-03T16:19:53.349Z</time>
      </trkpt>
      <trkpt lat="39.526673" lon="-2.092786">
        <ele>822.978847</ele>
        <time>2021-11-03T16:19:53.349Z</time>
      </trkpt>
      <trkpt lat="39.526659" lon="-2.092579">
        <ele>822.224165</ele>
        <time>2021-11-03T16:19:53.349Z</time>
      </trkpt>
      <trkpt lat="39.526640" lon="-2.092394">
        <ele>821.546338</ele>
        <time>2021-11-03T16:19:53.349Z</time>
      </trkpt>
      <trkpt lat="39.526617" lon="-2.092310">
        <ele>821.222609</ele>
        <time>2021-11-03T16:19:53.349Z</time>
      </trkpt>
      <trkpt lat="39.526582" lon="-2.092230">
        <ele>820.888575</ele>
        <time>2021-11-03T16:19:53.349Z</time>
      </trkpt>
      <trkpt lat="39.526486" lon="-2.092113">
        <ele>820.268178</ele>
        <time>2021-11-03T16:19:53.349Z</time>
      </trkpt>
      <trkpt lat="39.526427" lon="-2.092092">
        <ele>819.980092</ele>
        <time>2021-11-03T16:19:53.349Z</time>
      </trkpt>
      <trkpt lat="39.526367" lon="-2.092101">
        <ele>819.695691</ele>
        <time>2021-11-03T16:19:53.349Z</time>
      </trkpt>
      <trkpt lat="39.526271" lon="-2.092207">
        <ele>819.101943</ele>
        <time>2021-11-03T16:19:53.349Z</time>
      </trkpt>
      <trkpt lat="39.526244" lon="-2.092285">
        <ele>818.791436</ele>
        <time>2021-11-03T16:19:53.349Z</time>
      </trkpt>
      <trkpt lat="39.526155" lon="-2.092755">
        <ele>818.498865</ele>
        <time>2021-11-03T16:19:53.349Z</time>
      </trkpt>
      <trkpt lat="39.526134" lon="-2.092823">
        <ele>818.798839</ele>
        <time>2021-11-03T16:19:53.349Z</time>
      </trkpt>
      <trkpt lat="39.526047" lon="-2.093004">
        <ele>819.672241</ele>
        <time>2021-11-03T16:19:53.349Z</time>
      </trkpt>
      <trkpt lat="39.525913" lon="-2.093192">
        <ele>820.720556</ele>
        <time>2021-11-03T16:19:53.349Z</time>
      </trkpt>
      <trkpt lat="39.525844" lon="-2.093257">
        <ele>821.173407</ele>
        <time>2021-11-03T16:19:53.349Z</time>
      </trkpt>
      <trkpt lat="39.525751" lon="-2.093313">
        <ele>821.717844</ele>
        <time>2021-11-03T16:19:53.349Z</time>
      </trkpt>
      <trkpt lat="39.525701" lon="-2.093327">
        <ele>821.989436</ele>
        <time>2021-11-03T16:19:53.349Z</time>
      </trkpt>
      <trkpt lat="39.525622" lon="-2.093354">
        <ele>822.423210</ele>
        <time>2021-11-03T16:19:53.349Z</time>
      </trkpt>
      <trkpt lat="39.525564" lon="-2.093375">
        <ele>822.742941</ele>
        <time>2021-11-03T16:19:53.349Z</time>
      </trkpt>
      <trkpt lat="39.525508" lon="-2.093392">
        <ele>823.048310</ele>
        <time>2021-11-03T16:19:53.349Z</time>
      </trkpt>
      <trkpt lat="39.525452" lon="-2.093411">
        <ele>823.355651</ele>
        <time>2021-11-03T16:19:53.349Z</time>
      </trkpt>
      <trkpt lat="39.525381" lon="-2.093421">
        <ele>823.734838</ele>
        <time>2021-11-03T16:19:53.349Z</time>
      </trkpt>
      <trkpt lat="39.525328" lon="-2.093409">
        <ele>824.020497</ele>
        <time>2021-11-03T16:19:53.349Z</time>
      </trkpt>
      <trkpt lat="39.525291" lon="-2.093409">
        <ele>824.216945</ele>
        <time>2021-11-03T16:19:53.349Z</time>
      </trkpt>
      <trkpt lat="39.525220" lon="-2.093406">
        <ele>824.594114</ele>
        <time>2021-11-03T16:19:53.349Z</time>
      </trkpt>
      <trkpt lat="39.525146" lon="-2.093409">
        <ele>824.987204</ele>
        <time>2021-11-03T16:19:53.349Z</time>
      </trkpt>
      <trkpt lat="39.525106" lon="-2.093407">
        <ele>825.199738</ele>
        <time>2021-11-03T16:19:53.349Z</time>
      </trkpt>
      <trkpt lat="39.525086" lon="-2.093406">
        <ele>825.306006</ele>
        <time>2021-11-03T16:19:53.349Z</time>
      </trkpt>
      <trkpt lat="39.524969" lon="-2.093396">
        <ele>825.928557</ele>
        <time>2021-11-03T16:19:53.349Z</time>
      </trkpt>
      <trkpt lat="39.524870" lon="-2.093391">
        <ele>826.454588</ele>
        <time>2021-11-03T16:19:53.349Z</time>
      </trkpt>
      <trkpt lat="39.524828" lon="-2.093381">
        <ele>826.681313</ele>
        <time>2021-11-03T16:19:53.349Z</time>
      </trkpt>
      <trkpt lat="39.524679" lon="-2.093319">
        <ele>827.546742</ele>
        <time>2021-11-03T16:19:53.349Z</time>
      </trkpt>
      <trkpt lat="39.524597" lon="-2.093266">
        <ele>828.103294</ele>
        <time>2021-11-03T16:19:53.349Z</time>
      </trkpt>
      <trkpt lat="39.524556" lon="-2.093235">
        <ele>828.391596</ele>
        <time>2021-11-03T16:19:53.349Z</time>
      </trkpt>
      <trkpt lat="39.524537" lon="-2.093218">
        <ele>828.531823</ele>
        <time>2021-11-03T16:19:53.349Z</time>
      </trkpt>
      <trkpt lat="39.524441" lon="-2.093136">
        <ele>829.230134</ele>
        <time>2021-11-03T16:19:53.349Z</time>
      </trkpt>
      <trkpt lat="39.524389" lon="-2.093091">
        <ele>829.609896</ele>
        <time>2021-11-03T16:19:53.349Z</time>
      </trkpt>
      <trkpt lat="39.524329" lon="-2.093050">
        <ele>830.021875</ele>
        <time>2021-11-03T16:19:53.349Z</time>
      </trkpt>
      <trkpt lat="39.524230" lon="-2.092982">
        <ele>830.702407</ele>
        <time>2021-11-03T16:19:53.349Z</time>
      </trkpt>
      <trkpt lat="39.524171" lon="-2.092944">
        <ele>831.102574</ele>
        <time>2021-11-03T16:19:53.349Z</time>
      </trkpt>
      <trkpt lat="39.524034" lon="-2.092861">
        <ele>832.021120</ele>
        <time>2021-11-03T16:19:53.349Z</time>
      </trkpt>
      <trkpt lat="39.523981" lon="-2.092833">
        <ele>832.368756</ele>
        <time>2021-11-03T16:19:53.349Z</time>
      </trkpt>
      <trkpt lat="39.523875" lon="-2.092776">
        <ele>833.065810</ele>
        <time>2021-11-03T16:19:53.349Z</time>
      </trkpt>
      <trkpt lat="39.523749" lon="-2.092700">
        <ele>833.909940</ele>
        <time>2021-11-03T16:19:53.349Z</time>
      </trkpt>
      <trkpt lat="39.523628" lon="-2.092617">
        <ele>834.741458</ele>
        <time>2021-11-03T16:19:53.349Z</time>
      </trkpt>
      <trkpt lat="39.523533" lon="-2.092551">
        <ele>835.396142</ele>
        <time>2021-11-03T16:19:53.349Z</time>
      </trkpt>
      <trkpt lat="39.523487" lon="-2.092517">
        <ele>835.717777</ele>
        <time>2021-11-03T16:19:53.349Z</time>
      </trkpt>
      <trkpt lat="39.523348" lon="-2.092416">
        <ele>836.685664</ele>
        <time>2021-11-03T16:19:53.349Z</time>
      </trkpt>
      <trkpt lat="39.523325" lon="-2.092401">
        <ele>836.842052</ele>
        <time>2021-11-03T16:19:53.349Z</time>
      </trkpt>
      <trkpt lat="39.523282" lon="-2.092359">
        <ele>837.169077</ele>
        <time>2021-11-03T16:19:53.349Z</time>
      </trkpt>
      <trkpt lat="39.523246" lon="-2.092310">
        <ele>837.486136</ele>
        <time>2021-11-03T16:19:53.349Z</time>
      </trkpt>
      <trkpt lat="39.523227" lon="-2.092284">
        <ele>837.653944</ele>
        <time>2021-11-03T16:19:53.349Z</time>
      </trkpt>
      <trkpt lat="39.523118" lon="-2.092128">
        <ele>838.548014</ele>
        <time>2021-11-03T16:19:53.349Z</time>
      </trkpt>
      <trkpt lat="39.523008" lon="-2.091914">
        <ele>839.502165</ele>
        <time>2021-11-03T16:19:53.349Z</time>
      </trkpt>
      <trkpt lat="39.522934" lon="-2.091810">
        <ele>840.027136</ele>
        <time>2021-11-03T16:19:53.349Z</time>
      </trkpt>
      <trkpt lat="39.522879" lon="-2.091728">
        <ele>840.430316</ele>
        <time>2021-11-03T16:19:53.349Z</time>
      </trkpt>
      <trkpt lat="39.522844" lon="-2.091672">
        <ele>840.697738</ele>
        <time>2021-11-03T16:19:53.349Z</time>
      </trkpt>
      <trkpt lat="39.522753" lon="-2.091545">
        <ele>841.340883</ele>
        <time>2021-11-03T16:19:53.349Z</time>
      </trkpt>
      <trkpt lat="39.522733" lon="-2.091522">
        <ele>841.469480</ele>
        <time>2021-11-03T16:19:53.349Z</time>
      </trkpt>
      <trkpt lat="39.522529" lon="-2.091305">
        <ele>842.738775</ele>
        <time>2021-11-03T16:19:53.349Z</time>
      </trkpt>
      <trkpt lat="39.522504" lon="-2.091278">
        <ele>842.895288</ele>
        <time>2021-11-03T16:19:53.349Z</time>
      </trkpt>
      <trkpt lat="39.522307" lon="-2.091094">
        <ele>844.063190</ele>
        <time>2021-11-03T16:19:53.349Z</time>
      </trkpt>
      <trkpt lat="39.522127" lon="-2.090940">
        <ele>845.100552</ele>
        <time>2021-11-03T16:19:53.349Z</time>
      </trkpt>
      <trkpt lat="39.522069" lon="-2.090890">
        <ele>845.435587</ele>
        <time>2021-11-03T16:19:53.349Z</time>
      </trkpt>
      <trkpt lat="39.521948" lon="-2.090794">
        <ele>846.117950</ele>
        <time>2021-11-03T16:19:53.349Z</time>
      </trkpt>
      <trkpt lat="39.521763" lon="-2.090652">
        <ele>846.902533</ele>
        <time>2021-11-03T16:19:53.349Z</time>
      </trkpt>
      <trkpt lat="39.521733" lon="-2.090629">
        <ele>846.932152</ele>
        <time>2021-11-03T16:19:53.349Z</time>
      </trkpt>
      <trkpt lat="39.521481" lon="-2.090434">
        <ele>847.181548</ele>
        <time>2021-11-03T16:19:53.349Z</time>
      </trkpt>
      <trkpt lat="39.521448" lon="-2.090407">
        <ele>847.214710</ele>
        <time>2021-11-03T16:19:53.349Z</time>
      </trkpt>
      <trkpt lat="39.521302" lon="-2.090291">
        <ele>847.360227</ele>
        <time>2021-11-03T16:19:53.349Z</time>
      </trkpt>
      <trkpt lat="39.521266" lon="-2.090255">
        <ele>847.398864</ele>
        <time>2021-11-03T16:19:53.349Z</time>
      </trkpt>
      <trkpt lat="39.521031" lon="-2.090042">
        <ele>847.642536</ele>
        <time>2021-11-03T16:19:53.349Z</time>
      </trkpt>
      <trkpt lat="39.520788" lon="-2.089810">
        <ele>847.898995</ele>
        <time>2021-11-03T16:19:53.349Z</time>
      </trkpt>
      <trkpt lat="39.520703" lon="-2.089737">
        <ele>847.985640</ele>
        <time>2021-11-03T16:19:53.349Z</time>
      </trkpt>
      <trkpt lat="39.520427" lon="-2.089476">
        <ele>848.275956</ele>
        <time>2021-11-03T16:19:53.349Z</time>
      </trkpt>
      <trkpt lat="39.520390" lon="-2.089435">
        <ele>848.317319</ele>
        <time>2021-11-03T16:19:53.349Z</time>
      </trkpt>
      <trkpt lat="39.520180" lon="-2.089128">
        <ele>848.433760</ele>
        <time>2021-11-03T16:19:53.349Z</time>
      </trkpt>
      <trkpt lat="39.520114" lon="-2.088986">
        <ele>848.463060</ele>
        <time>2021-11-03T16:19:53.349Z</time>
      </trkpt>
      <trkpt lat="39.519984" lon="-2.088692">
        <ele>848.522951</ele>
        <time>2021-11-03T16:19:53.349Z</time>
      </trkpt>
      <trkpt lat="39.519847" lon="-2.088389">
        <ele>848.585022</ele>
        <time>2021-11-03T16:19:53.349Z</time>
      </trkpt>
      <trkpt lat="39.519777" lon="-2.088234">
        <ele>848.616765</ele>
        <time>2021-11-03T16:19:53.349Z</time>
      </trkpt>
      <trkpt lat="39.519598" lon="-2.087880">
        <ele>848.691572</ele>
        <time>2021-11-03T16:19:53.349Z</time>
      </trkpt>
      <trkpt lat="39.519553" lon="-2.087770">
        <ele>848.713577</ele>
        <time>2021-11-03T16:19:53.349Z</time>
      </trkpt>
      <trkpt lat="39.519330" lon="-2.087230">
        <ele>848.347558</ele>
        <time>2021-11-03T16:19:53.349Z</time>
      </trkpt>
      <trkpt lat="39.519251" lon="-2.087043">
        <ele>847.831786</ele>
        <time>2021-11-03T16:19:53.349Z</time>
      </trkpt>
      <trkpt lat="39.519086" lon="-2.086653">
        <ele>846.755748</ele>
        <time>2021-11-03T16:19:53.349Z</time>
      </trkpt>
      <trkpt lat="39.519054" lon="-2.086583">
        <ele>846.558907</ele>
        <time>2021-11-03T16:19:53.349Z</time>
      </trkpt>
      <trkpt lat="39.518947" lon="-2.086354">
        <ele>845.911227</ele>
        <time>2021-11-03T16:19:53.349Z</time>
      </trkpt>
      <trkpt lat="39.518870" lon="-2.086189">
        <ele>845.444714</ele>
        <time>2021-11-03T16:19:53.349Z</time>
      </trkpt>
      <trkpt lat="39.518729" lon="-2.085846">
        <ele>844.504487</ele>
        <time>2021-11-03T16:19:53.349Z</time>
      </trkpt>
      <trkpt lat="39.518653" lon="-2.085684">
        <ele>844.045804</ele>
        <time>2021-11-03T16:19:53.349Z</time>
      </trkpt>
      <trkpt lat="39.518617" lon="-2.085606">
        <ele>843.825916</ele>
        <time>2021-11-03T16:19:53.349Z</time>
      </trkpt>
      <trkpt lat="39.518590" lon="-2.085528">
        <ele>843.619096</ele>
        <time>2021-11-03T16:19:53.349Z</time>
      </trkpt>
      <trkpt lat="39.518542" lon="-2.085377">
        <ele>843.224006</ele>
        <time>2021-11-03T16:19:53.349Z</time>
      </trkpt>
      <trkpt lat="39.518373" lon="-2.084976">
        <ele>843.134179</ele>
        <time>2021-11-03T16:19:53.349Z</time>
      </trkpt>
      <trkpt lat="39.518332" lon="-2.084838">
        <ele>843.129021</ele>
        <time>2021-11-03T16:19:53.349Z</time>
      </trkpt>
      <trkpt lat="39.518240" lon="-2.084565">
        <ele>843.118629</ele>
        <time>2021-11-03T16:19:53.349Z</time>
      </trkpt>
      <trkpt lat="39.518197" lon="-2.084437">
        <ele>843.113760</ele>
        <time>2021-11-03T16:19:53.349Z</time>
      </trkpt>
      <trkpt lat="39.518010" lon="-2.083902">
        <ele>843.093273</ele>
        <time>2021-11-03T16:19:53.349Z</time>
      </trkpt>
      <trkpt lat="39.517830" lon="-2.083428">
        <ele>843.074845</ele>
        <time>2021-11-03T16:19:53.349Z</time>
      </trkpt>
      <trkpt lat="39.517726" lon="-2.083264">
        <ele>843.064624</ele>
        <time>2021-11-03T16:19:53.349Z</time>
      </trkpt>
      <trkpt lat="39.517638" lon="-2.083179">
        <ele>843.007913</ele>
        <time>2021-11-03T16:19:53.349Z</time>
      </trkpt>
      <trkpt lat="39.517411" lon="-2.083072">
        <ele>842.883092</ele>
        <time>2021-11-03T16:19:53.349Z</time>
      </trkpt>
      <trkpt lat="39.517113" lon="-2.082939">
        <ele>842.720225</ele>
        <time>2021-11-03T16:19:53.349Z</time>
      </trkpt>
      <trkpt lat="39.516957" lon="-2.082867">
        <ele>842.634652</ele>
        <time>2021-11-03T16:19:53.349Z</time>
      </trkpt>
      <trkpt lat="39.516667" lon="-2.082729">
        <ele>842.475012</ele>
        <time>2021-11-03T16:19:53.349Z</time>
      </trkpt>
      <trkpt lat="39.516623" lon="-2.082708">
        <ele>842.450782</ele>
        <time>2021-11-03T16:19:53.349Z</time>
      </trkpt>
      <trkpt lat="39.516577" lon="-2.082689">
        <ele>842.425833</ele>
        <time>2021-11-03T16:19:53.349Z</time>
      </trkpt>
      <trkpt lat="39.516398" lon="-2.082600">
        <ele>842.326761</ele>
        <time>2021-11-03T16:19:53.349Z</time>
      </trkpt>
      <trkpt lat="39.516219" lon="-2.082508">
        <ele>842.227255</ele>
        <time>2021-11-03T16:19:53.349Z</time>
      </trkpt>
      <trkpt lat="39.516070" lon="-2.082446">
        <ele>842.146387</ele>
        <time>2021-11-03T16:19:53.349Z</time>
      </trkpt>
      <trkpt lat="39.515963" lon="-2.082411">
        <ele>841.701684</ele>
        <time>2021-11-03T16:19:53.349Z</time>
      </trkpt>
      <trkpt lat="39.515906" lon="-2.082398">
        <ele>841.434544</ele>
        <time>2021-11-03T16:19:53.349Z</time>
      </trkpt>
      <trkpt lat="39.515848" lon="-2.082378">
        <ele>841.157518</ele>
        <time>2021-11-03T16:19:53.349Z</time>
      </trkpt>
      <trkpt lat="39.515789" lon="-2.082354">
        <ele>840.872093</ele>
        <time>2021-11-03T16:19:53.349Z</time>
      </trkpt>
      <trkpt lat="39.515596" lon="-2.082286">
        <ele>839.948928</ele>
        <time>2021-11-03T16:19:53.349Z</time>
      </trkpt>
      <trkpt lat="39.515527" lon="-2.082263">
        <ele>839.620078</ele>
        <time>2021-11-03T16:19:53.349Z</time>
      </trkpt>
      <trkpt lat="39.515311" lon="-2.082198">
        <ele>838.596556</ele>
        <time>2021-11-03T16:19:53.349Z</time>
      </trkpt>
      <trkpt lat="39.515160" lon="-2.082156">
        <ele>837.883709</ele>
        <time>2021-11-03T16:19:53.349Z</time>
      </trkpt>
      <trkpt lat="39.515083" lon="-2.082131">
        <ele>837.517315</ele>
        <time>2021-11-03T16:19:53.349Z</time>
      </trkpt>
      <trkpt lat="39.514848" lon="-2.082067">
        <ele>836.408926</ele>
        <time>2021-11-03T16:19:53.349Z</time>
      </trkpt>
      <trkpt lat="39.514684" lon="-2.082030">
        <ele>835.640559</ele>
        <time>2021-11-03T16:19:53.349Z</time>
      </trkpt>
      <trkpt lat="39.514548" lon="-2.081951">
        <ele>834.952663</ele>
        <time>2021-11-03T16:19:53.349Z</time>
      </trkpt>
      <trkpt lat="39.514500" lon="-2.081907">
        <ele>834.681304</ele>
        <time>2021-11-03T16:19:53.349Z</time>
      </trkpt>
      <trkpt lat="39.514468" lon="-2.081861">
        <ele>834.460741</ele>
        <time>2021-11-03T16:19:53.349Z</time>
      </trkpt>
      <trkpt lat="39.514431" lon="-2.081753">
        <ele>834.039948</ele>
        <time>2021-11-03T16:19:53.349Z</time>
      </trkpt>
      <trkpt lat="39.514279" lon="-2.081230">
        <ele>833.106679</ele>
        <time>2021-11-03T16:19:53.349Z</time>
      </trkpt>
      <trkpt lat="39.514222" lon="-2.081019">
        <ele>832.781600</ele>
        <time>2021-11-03T16:19:53.349Z</time>
      </trkpt>
      <trkpt lat="39.514146" lon="-2.080733">
        <ele>832.341751</ele>
        <time>2021-11-03T16:19:53.349Z</time>
      </trkpt>
      <trkpt lat="39.514102" lon="-2.080587">
        <ele>832.113830</ele>
        <time>2021-11-03T16:19:53.349Z</time>
      </trkpt>
      <trkpt lat="39.514079" lon="-2.080513">
        <ele>831.997822</ele>
        <time>2021-11-03T16:19:53.349Z</time>
      </trkpt>
      <trkpt lat="39.514029" lon="-2.080361">
        <ele>831.757547</ele>
        <time>2021-11-03T16:19:53.349Z</time>
      </trkpt>
      <trkpt lat="39.514001" lon="-2.080285">
        <ele>831.635081</ele>
        <time>2021-11-03T16:19:53.349Z</time>
      </trkpt>
      <trkpt lat="39.513880" lon="-2.079904">
        <ele>831.035964</ele>
        <time>2021-11-03T16:19:53.349Z</time>
      </trkpt>
      <trkpt lat="39.513777" lon="-2.079557">
        <ele>830.495333</ele>
        <time>2021-11-03T16:19:53.349Z</time>
      </trkpt>
      <trkpt lat="39.513758" lon="-2.079491">
        <ele>830.456051</ele>
        <time>2021-11-03T16:19:53.349Z</time>
      </trkpt>
      <trkpt lat="39.513651" lon="-2.079128">
        <ele>830.563604</ele>
        <time>2021-11-03T16:19:53.349Z</time>
      </trkpt>
      <trkpt lat="39.513607" lon="-2.078975">
        <ele>830.608798</ele>
        <time>2021-11-03T16:19:53.349Z</time>
      </trkpt>
      <trkpt lat="39.513524" lon="-2.078686">
        <ele>830.694149</ele>
        <time>2021-11-03T16:19:53.349Z</time>
      </trkpt>
      <trkpt lat="39.513394" lon="-2.078262">
        <ele>830.820431</ele>
        <time>2021-11-03T16:19:53.349Z</time>
      </trkpt>
      <trkpt lat="39.513277" lon="-2.077902">
        <ele>830.928552</ele>
        <time>2021-11-03T16:19:53.349Z</time>
      </trkpt>
      <trkpt lat="39.513213" lon="-2.077727">
        <ele>830.982155</ele>
        <time>2021-11-03T16:19:53.349Z</time>
      </trkpt>
      <trkpt lat="39.513126" lon="-2.077540">
        <ele>831.042595</ele>
        <time>2021-11-03T16:19:53.349Z</time>
      </trkpt>
      <trkpt lat="39.513032" lon="-2.077382">
        <ele>831.081570</ele>
        <time>2021-11-03T16:19:53.349Z</time>
      </trkpt>
      <trkpt lat="39.512957" lon="-2.077303">
        <ele>831.030603</ele>
        <time>2021-11-03T16:19:53.349Z</time>
      </trkpt>
      <trkpt lat="39.512666" lon="-2.077103">
        <ele>830.856896</ele>
        <time>2021-11-03T16:19:53.349Z</time>
      </trkpt>
      <trkpt lat="39.512307" lon="-2.076873">
        <ele>830.645701</ele>
        <time>2021-11-03T16:19:53.349Z</time>
      </trkpt>
      <trkpt lat="39.512207" lon="-2.076789">
        <ele>830.582856</ele>
        <time>2021-11-03T16:19:53.349Z</time>
      </trkpt>
      <trkpt lat="39.512180" lon="-2.076745">
        <ele>830.559982</ele>
        <time>2021-11-03T16:19:53.349Z</time>
      </trkpt>
      <trkpt lat="39.512131" lon="-2.076597">
        <ele>830.494454</ele>
        <time>2021-11-03T16:19:53.349Z</time>
      </trkpt>
      <trkpt lat="39.512121" lon="-2.076542">
        <ele>830.471463</ele>
        <time>2021-11-03T16:19:53.349Z</time>
      </trkpt>
      <trkpt lat="39.512108" lon="-2.076485">
        <ele>830.447279</ele>
        <time>2021-11-03T16:19:53.349Z</time>
      </trkpt>
      <trkpt lat="39.512028" lon="-2.076213">
        <ele>830.328840</ele>
        <time>2021-11-03T16:19:53.349Z</time>
      </trkpt>
      <trkpt lat="39.511962" lon="-2.075987">
        <ele>830.230520</ele>
        <time>2021-11-03T16:19:53.349Z</time>
      </trkpt>
      <trkpt lat="39.511876" lon="-2.075658">
        <ele>829.924538</ele>
        <time>2021-11-03T16:19:53.349Z</time>
      </trkpt>
      <trkpt lat="39.511770" lon="-2.075237">
        <ele>829.189643</ele>
        <time>2021-11-03T16:19:53.349Z</time>
      </trkpt>
      <trkpt lat="39.511672" lon="-2.074887">
        <ele>828.571763</ele>
        <time>2021-11-03T16:19:53.349Z</time>
      </trkpt>
      <trkpt lat="39.511657" lon="-2.074820">
        <ele>828.455993</ele>
        <time>2021-11-03T16:19:53.349Z</time>
      </trkpt>
      <trkpt lat="39.511595" lon="-2.074525">
        <ele>827.948612</ele>
        <time>2021-11-03T16:19:53.349Z</time>
      </trkpt>
      <trkpt lat="39.511552" lon="-2.074384">
        <ele>827.697011</ele>
        <time>2021-11-03T16:19:53.349Z</time>
      </trkpt>
      <trkpt lat="39.511528" lon="-2.074314">
        <ele>827.569894</ele>
        <time>2021-11-03T16:19:53.349Z</time>
      </trkpt>
      <trkpt lat="39.511494" lon="-2.074185">
        <ele>827.343676</ele>
        <time>2021-11-03T16:19:53.349Z</time>
      </trkpt>
      <trkpt lat="39.511457" lon="-2.074058">
        <ele>827.118397</ele>
        <time>2021-11-03T16:19:53.349Z</time>
      </trkpt>
      <trkpt lat="39.511363" lon="-2.073926">
        <ele>826.820297</ele>
        <time>2021-11-03T16:19:53.349Z</time>
      </trkpt>
      <trkpt lat="39.511328" lon="-2.073912">
        <ele>826.741510</ele>
        <time>2021-11-03T16:19:53.349Z</time>
      </trkpt>
      <trkpt lat="39.511169" lon="-2.073876">
        <ele>826.394328</ele>
        <time>2021-11-03T16:19:53.349Z</time>
      </trkpt>
      <trkpt lat="39.510968" lon="-2.073835">
        <ele>826.002527</ele>
        <time>2021-11-03T16:19:53.349Z</time>
      </trkpt>
      <trkpt lat="39.510887" lon="-2.073827">
        <ele>825.853060</ele>
        <time>2021-11-03T16:19:53.349Z</time>
      </trkpt>
      <trkpt lat="39.510802" lon="-2.073816">
        <ele>825.695888</ele>
        <time>2021-11-03T16:19:53.349Z</time>
      </trkpt>
      <trkpt lat="39.510716" lon="-2.073798">
        <ele>825.535604</ele>
        <time>2021-11-03T16:19:53.349Z</time>
      </trkpt>
      <trkpt lat="39.510589" lon="-2.073797">
        <ele>825.301928</ele>
        <time>2021-11-03T16:19:53.349Z</time>
      </trkpt>
      <trkpt lat="39.510446" lon="-2.073793">
        <ele>825.038755</ele>
        <time>2021-11-03T16:19:53.349Z</time>
      </trkpt>
      <trkpt lat="39.510414" lon="-2.073797">
        <ele>824.979604</ele>
        <time>2021-11-03T16:19:53.349Z</time>
      </trkpt>
      <trkpt lat="39.510316" lon="-2.073790">
        <ele>824.799017</ele>
        <time>2021-11-03T16:19:53.349Z</time>
      </trkpt>
      <trkpt lat="39.510282" lon="-2.073785">
        <ele>824.736058</ele>
        <time>2021-11-03T16:19:53.349Z</time>
      </trkpt>
      <trkpt lat="39.510183" lon="-2.073779">
        <ele>824.553705</ele>
        <time>2021-11-03T16:19:53.349Z</time>
      </trkpt>
      <trkpt lat="39.509942" lon="-2.073750">
        <ele>824.108373</ele>
        <time>2021-11-03T16:19:53.349Z</time>
      </trkpt>
      <trkpt lat="39.509870" lon="-2.073744">
        <ele>823.975624</ele>
        <time>2021-11-03T16:19:53.349Z</time>
      </trkpt>
      <trkpt lat="39.509781" lon="-2.073734">
        <ele>823.811256</ele>
        <time>2021-11-03T16:19:53.349Z</time>
      </trkpt>
      <trkpt lat="39.509616" lon="-2.073716">
        <ele>823.506593</ele>
        <time>2021-11-03T16:19:53.349Z</time>
      </trkpt>
      <trkpt lat="39.509552" lon="-2.073710">
        <ele>823.388529</ele>
        <time>2021-11-03T16:19:53.349Z</time>
      </trkpt>
      <trkpt lat="39.509346" lon="-2.073689">
        <ele>823.008332</ele>
        <time>2021-11-03T16:19:53.349Z</time>
      </trkpt>
      <trkpt lat="39.509208" lon="-2.073675">
        <ele>822.454242</ele>
        <time>2021-11-03T16:19:53.349Z</time>
      </trkpt>
      <trkpt lat="39.509140" lon="-2.073670">
        <ele>822.150946</ele>
        <time>2021-11-03T16:19:53.349Z</time>
      </trkpt>
      <trkpt lat="39.509073" lon="-2.073663">
        <ele>821.851621</ele>
        <time>2021-11-03T16:19:53.349Z</time>
      </trkpt>
      <trkpt lat="39.508692" lon="-2.073609">
        <ele>820.144883</ele>
        <time>2021-11-03T16:19:53.349Z</time>
      </trkpt>
      <trkpt lat="39.508626" lon="-2.073600">
        <ele>819.849357</ele>
        <time>2021-11-03T16:19:53.349Z</time>
      </trkpt>
      <trkpt lat="39.508406" lon="-2.073573">
        <ele>818.865296</ele>
        <time>2021-11-03T16:19:53.349Z</time>
      </trkpt>
      <trkpt lat="39.508247" lon="-2.073558">
        <ele>818.155383</ele>
        <time>2021-11-03T16:19:53.349Z</time>
      </trkpt>
      <trkpt lat="39.508165" lon="-2.073554">
        <ele>817.789971</ele>
        <time>2021-11-03T16:19:53.349Z</time>
      </trkpt>
      <trkpt lat="39.507843" lon="-2.073578">
        <ele>816.353709</ele>
        <time>2021-11-03T16:19:53.349Z</time>
      </trkpt>
      <trkpt lat="39.507767" lon="-2.073580">
        <ele>816.015205</ele>
        <time>2021-11-03T16:19:53.349Z</time>
      </trkpt>
      <trkpt lat="39.507628" lon="-2.073538">
        <ele>815.379629</ele>
        <time>2021-11-03T16:19:53.349Z</time>
      </trkpt>
      <trkpt lat="39.507497" lon="-2.073470">
        <ele>814.863314</ele>
        <time>2021-11-03T16:19:53.349Z</time>
      </trkpt>
      <trkpt lat="39.507364" lon="-2.073443">
        <ele>814.593666</ele>
        <time>2021-11-03T16:19:53.349Z</time>
      </trkpt>
      <trkpt lat="39.507159" lon="-2.073435">
        <ele>814.182863</ele>
        <time>2021-11-03T16:19:53.349Z</time>
      </trkpt>
      <trkpt lat="39.507022" lon="-2.073447">
        <ele>813.907825</ele>
        <time>2021-11-03T16:19:53.349Z</time>
      </trkpt>
      <trkpt lat="39.506956" lon="-2.073438">
        <ele>813.774897</ele>
        <time>2021-11-03T16:19:53.349Z</time>
      </trkpt>
      <trkpt lat="39.506828" lon="-2.073399">
        <ele>813.511523</ele>
        <time>2021-11-03T16:19:53.349Z</time>
      </trkpt>
      <trkpt lat="39.506648" lon="-2.073371">
        <ele>813.148394</ele>
        <time>2021-11-03T16:19:53.349Z</time>
      </trkpt>
      <trkpt lat="39.506215" lon="-2.073310">
        <ele>812.275983</ele>
        <time>2021-11-03T16:19:53.349Z</time>
      </trkpt>
      <trkpt lat="39.506164" lon="-2.073298">
        <ele>812.172160</ele>
        <time>2021-11-03T16:19:53.349Z</time>
      </trkpt>
      <trkpt lat="39.506104" lon="-2.073247">
        <ele>812.028439</ele>
        <time>2021-11-03T16:19:53.349Z</time>
      </trkpt>
      <trkpt lat="39.506100" lon="-2.073187">
        <ele>811.935368</ele>
        <time>2021-11-03T16:19:53.349Z</time>
      </trkpt>
      <trkpt lat="39.506117" lon="-2.073152">
        <ele>811.871452</ele>
        <time>2021-11-03T16:19:53.349Z</time>
      </trkpt>
      <trkpt lat="39.506155" lon="-2.073057">
        <ele>811.706079</ele>
        <time>2021-11-03T16:19:53.349Z</time>
      </trkpt>
      <trkpt lat="39.506168" lon="-2.072931">
        <ele>811.509621</ele>
        <time>2021-11-03T16:19:53.349Z</time>
      </trkpt>
      <trkpt lat="39.506182" lon="-2.072734">
        <ele>811.009358</ele>
        <time>2021-11-03T16:19:53.349Z</time>
      </trkpt>
      <trkpt lat="39.506195" lon="-2.072668">
        <ele>810.766068</ele>
        <time>2021-11-03T16:19:53.349Z</time>
      </trkpt>
      <trkpt lat="39.506223" lon="-2.072536">
        <ele>810.277116</ele>
        <time>2021-11-03T16:19:53.349Z</time>
      </trkpt>
      <trkpt lat="39.506245" lon="-2.072413">
        <ele>809.826153</ele>
        <time>2021-11-03T16:19:53.349Z</time>
      </trkpt>
      <trkpt lat="39.506225" lon="-2.072307">
        <ele>809.436402</ele>
        <time>2021-11-03T16:19:53.349Z</time>
      </trkpt>
      <trkpt lat="39.506195" lon="-2.072265">
        <ele>809.231978</ele>
        <time>2021-11-03T16:19:53.349Z</time>
      </trkpt>
      <trkpt lat="39.506159" lon="-2.072226">
        <ele>809.014779</ele>
        <time>2021-11-03T16:19:53.349Z</time>
      </trkpt>
      <trkpt lat="39.506038" lon="-2.072102">
        <ele>808.300712</ele>
        <time>2021-11-03T16:19:53.349Z</time>
      </trkpt>
      <trkpt lat="39.505953" lon="-2.072001">
        <ele>807.766898</ele>
        <time>2021-11-03T16:19:53.349Z</time>
      </trkpt>
      <trkpt lat="39.505889" lon="-2.071864">
        <ele>807.194878</ele>
        <time>2021-11-03T16:19:53.349Z</time>
      </trkpt>
      <trkpt lat="39.505849" lon="-2.071700">
        <ele>806.580553</ele>
        <time>2021-11-03T16:19:53.349Z</time>
      </trkpt>
      <trkpt lat="39.505816" lon="-2.071527">
        <ele>805.944050</ele>
        <time>2021-11-03T16:19:53.349Z</time>
      </trkpt>
      <trkpt lat="39.505801" lon="-2.071439">
        <ele>805.622163</ele>
        <time>2021-11-03T16:19:53.349Z</time>
      </trkpt>
      <trkpt lat="39.505772" lon="-2.071257">
        <ele>804.958401</ele>
        <time>2021-11-03T16:19:53.349Z</time>
      </trkpt>
      <trkpt lat="39.505719" lon="-2.070879">
        <ele>803.586194</ele>
        <time>2021-11-03T16:19:53.349Z</time>
      </trkpt>
      <trkpt lat="39.505682" lon="-2.070596">
        <ele>802.888115</ele>
        <time>2021-11-03T16:19:53.349Z</time>
      </trkpt>
      <trkpt lat="39.505632" lon="-2.070231">
        <ele>802.495424</ele>
        <time>2021-11-03T16:19:53.349Z</time>
      </trkpt>
      <trkpt lat="39.505575" lon="-2.069791">
        <ele>802.022807</ele>
        <time>2021-11-03T16:19:53.349Z</time>
      </trkpt>
      <trkpt lat="39.505528" lon="-2.069542">
        <ele>801.751263</ele>
        <time>2021-11-03T16:19:53.349Z</time>
      </trkpt>
      <trkpt lat="39.505501" lon="-2.069465">
        <ele>801.661668</ele>
        <time>2021-11-03T16:19:53.349Z</time>
      </trkpt>
      <trkpt lat="39.505466" lon="-2.069393">
        <ele>801.571523</ele>
        <time>2021-11-03T16:19:53.349Z</time>
      </trkpt>
      <trkpt lat="39.505317" lon="-2.069134">
        <ele>801.229294</ele>
        <time>2021-11-03T16:19:53.349Z</time>
      </trkpt>
      <trkpt lat="39.505275" lon="-2.069082">
        <ele>801.149549</ele>
        <time>2021-11-03T16:19:53.349Z</time>
      </trkpt>
      <trkpt lat="39.505224" lon="-2.069046">
        <ele>801.069818</ele>
        <time>2021-11-03T16:19:53.349Z</time>
      </trkpt>
      <trkpt lat="39.505168" lon="-2.069028">
        <ele>800.990605</ele>
        <time>2021-11-03T16:19:53.349Z</time>
      </trkpt>
      <trkpt lat="39.505045" lon="-2.069041">
        <ele>800.821174</ele>
        <time>2021-11-03T16:19:53.349Z</time>
      </trkpt>
      <trkpt lat="39.504767" lon="-2.069109">
        <ele>800.623306</ele>
        <time>2021-11-03T16:19:53.349Z</time>
      </trkpt>
      <trkpt lat="39.504692" lon="-2.069111">
        <ele>800.678748</ele>
        <time>2021-11-03T16:19:53.349Z</time>
      </trkpt>
      <trkpt lat="39.504555" lon="-2.069115">
        <ele>800.780028</ele>
        <time>2021-11-03T16:19:53.349Z</time>
      </trkpt>
      <trkpt lat="39.504499" lon="-2.069124">
        <ele>800.821733</ele>
        <time>2021-11-03T16:19:53.349Z</time>
      </trkpt>
      <trkpt lat="39.504452" lon="-2.069139">
        <ele>800.857508</ele>
        <time>2021-11-03T16:19:53.349Z</time>
      </trkpt>
      <trkpt lat="39.504365" lon="-2.069160">
        <ele>800.922913</ele>
        <time>2021-11-03T16:19:53.349Z</time>
      </trkpt>
      <trkpt lat="39.504323" lon="-2.069161">
        <ele>800.953960</ele>
        <time>2021-11-03T16:19:53.349Z</time>
      </trkpt>
      <trkpt lat="39.504201" lon="-2.069163">
        <ele>801.044135</ele>
        <time>2021-11-03T16:19:53.349Z</time>
      </trkpt>
      <trkpt lat="39.504161" lon="-2.069169">
        <ele>801.073896</ele>
        <time>2021-11-03T16:19:53.349Z</time>
      </trkpt>
      <trkpt lat="39.504048" lon="-2.069213">
        <ele>801.161099</ele>
        <time>2021-11-03T16:19:53.349Z</time>
      </trkpt>
      <trkpt lat="39.503975" lon="-2.069246">
        <ele>801.218240</ele>
        <time>2021-11-03T16:19:53.349Z</time>
      </trkpt>
      <trkpt lat="39.503868" lon="-2.069310">
        <ele>801.305337</ele>
        <time>2021-11-03T16:19:53.349Z</time>
      </trkpt>
      <trkpt lat="39.503836" lon="-2.069340">
        <ele>801.334526</ele>
        <time>2021-11-03T16:19:53.349Z</time>
      </trkpt>
      <trkpt lat="39.503806" lon="-2.069378">
        <ele>801.365530</ele>
        <time>2021-11-03T16:19:53.349Z</time>
      </trkpt>
      <trkpt lat="39.503777" lon="-2.069415">
        <ele>801.395606</ele>
        <time>2021-11-03T16:19:53.349Z</time>
      </trkpt>
      <trkpt lat="39.503717" lon="-2.069479">
        <ele>801.453038</ele>
        <time>2021-11-03T16:19:53.349Z</time>
      </trkpt>
      <trkpt lat="39.503567" lon="-2.069613">
        <ele>801.587685</ele>
        <time>2021-11-03T16:19:53.349Z</time>
      </trkpt>
      <trkpt lat="39.503526" lon="-2.069646">
        <ele>801.623355</ele>
        <time>2021-11-03T16:19:53.349Z</time>
      </trkpt>
      <trkpt lat="39.503268" lon="-2.069858">
        <ele>801.849133</ele>
        <time>2021-11-03T16:19:53.349Z</time>
      </trkpt>
      <trkpt lat="39.503129" lon="-2.069974">
        <ele>801.391021</ele>
        <time>2021-11-03T16:19:53.349Z</time>
      </trkpt>
      <trkpt lat="39.502879" lon="-2.070201">
        <ele>800.082786</ele>
        <time>2021-11-03T16:19:53.349Z</time>
      </trkpt>
      <trkpt lat="39.502825" lon="-2.070246">
        <ele>799.807640</ele>
        <time>2021-11-03T16:19:53.349Z</time>
      </trkpt>
      <trkpt lat="39.502662" lon="-2.070369">
        <ele>798.999273</ele>
        <time>2021-11-03T16:19:53.349Z</time>
      </trkpt>
      <trkpt lat="39.502494" lon="-2.070444">
        <ele>798.237744</ele>
        <time>2021-11-03T16:19:53.349Z</time>
      </trkpt>
      <trkpt lat="39.502386" lon="-2.070497">
        <ele>797.742809</ele>
        <time>2021-11-03T16:19:53.349Z</time>
      </trkpt>
      <trkpt lat="39.502288" lon="-2.070582">
        <ele>797.237423</ele>
        <time>2021-11-03T16:19:53.349Z</time>
      </trkpt>
      <trkpt lat="39.502249" lon="-2.070638">
        <ele>796.987961</ele>
        <time>2021-11-03T16:19:53.349Z</time>
      </trkpt>
      <trkpt lat="39.502215" lon="-2.070700">
        <ele>796.736426</ele>
        <time>2021-11-03T16:19:53.349Z</time>
      </trkpt>
      <trkpt lat="39.502166" lon="-2.070841">
        <ele>796.225043</ele>
        <time>2021-11-03T16:19:53.349Z</time>
      </trkpt>
      <trkpt lat="39.502149" lon="-2.070920">
        <ele>795.953828</ele>
        <time>2021-11-03T16:19:53.349Z</time>
      </trkpt>
      <trkpt lat="39.502120" lon="-2.071084">
        <ele>795.397436</ele>
        <time>2021-11-03T16:19:53.349Z</time>
      </trkpt>
      <trkpt lat="39.502069" lon="-2.071231">
        <ele>794.864441</ele>
        <time>2021-11-03T16:19:53.349Z</time>
      </trkpt>
      <trkpt lat="39.502036" lon="-2.071290">
        <ele>794.623465</ele>
        <time>2021-11-03T16:19:53.349Z</time>
      </trkpt>
      <trkpt lat="39.501996" lon="-2.071336">
        <ele>794.394274</ele>
        <time>2021-11-03T16:19:53.349Z</time>
      </trkpt>
      <trkpt lat="39.501899" lon="-2.071420">
        <ele>793.846104</ele>
        <time>2021-11-03T16:19:53.349Z</time>
      </trkpt>
      <trkpt lat="39.501850" lon="-2.071471">
        <ele>793.530919</ele>
        <time>2021-11-03T16:19:53.349Z</time>
      </trkpt>
      <trkpt lat="39.501802" lon="-2.071527">
        <ele>793.207016</ele>
        <time>2021-11-03T16:19:53.349Z</time>
      </trkpt>
      <trkpt lat="39.501702" lon="-2.071633">
        <ele>792.559107</ele>
        <time>2021-11-03T16:19:53.349Z</time>
      </trkpt>
      <trkpt lat="39.501593" lon="-2.071699">
        <ele>791.955725</ele>
        <time>2021-11-03T16:19:53.349Z</time>
      </trkpt>
      <trkpt lat="39.501423" lon="-2.071730">
        <ele>791.094738</ele>
        <time>2021-11-03T16:19:53.349Z</time>
      </trkpt>
      <trkpt lat="39.501365" lon="-2.071752">
        <ele>790.791652</ele>
        <time>2021-11-03T16:19:53.349Z</time>
      </trkpt>
      <trkpt lat="39.501307" lon="-2.071785">
        <ele>790.473971</ele>
        <time>2021-11-03T16:19:53.349Z</time>
      </trkpt>
      <trkpt lat="39.501215" lon="-2.071870">
        <ele>789.907325</ele>
        <time>2021-11-03T16:19:53.349Z</time>
      </trkpt>
      <trkpt lat="39.501183" lon="-2.071922">
        <ele>789.649935</ele>
        <time>2021-11-03T16:19:53.349Z</time>
      </trkpt>
      <trkpt lat="39.501154" lon="-2.071971">
        <ele>789.410959</ele>
        <time>2021-11-03T16:19:53.349Z</time>
      </trkpt>
      <trkpt lat="39.501119" lon="-2.072017">
        <ele>789.160960</ele>
        <time>2021-11-03T16:19:53.349Z</time>
      </trkpt>
      <trkpt lat="39.501076" lon="-2.072054">
        <ele>788.902100</ele>
        <time>2021-11-03T16:19:53.349Z</time>
      </trkpt>
      <trkpt lat="39.501026" lon="-2.072077">
        <ele>788.636011</ele>
        <time>2021-11-03T16:19:53.349Z</time>
      </trkpt>
      <trkpt lat="39.500975" lon="-2.072091">
        <ele>788.374560</ele>
        <time>2021-11-03T16:19:53.349Z</time>
      </trkpt>
      <trkpt lat="39.500924" lon="-2.072119">
        <ele>788.096778</ele>
        <time>2021-11-03T16:19:53.349Z</time>
      </trkpt>
      <trkpt lat="39.500890" lon="-2.072168">
        <ele>787.841763</ele>
        <time>2021-11-03T16:19:53.349Z</time>
      </trkpt>
      <trkpt lat="39.500869" lon="-2.072226">
        <ele>787.593832</ele>
        <time>2021-11-03T16:19:53.349Z</time>
      </trkpt>
      <trkpt lat="39.500796" lon="-2.072386">
        <ele>786.874518</ele>
        <time>2021-11-03T16:19:53.349Z</time>
      </trkpt>
      <trkpt lat="39.500719" lon="-2.072448">
        <ele>786.419881</ele>
        <time>2021-11-03T16:19:53.349Z</time>
      </trkpt>
      <trkpt lat="39.500679" lon="-2.072457">
        <ele>786.216271</ele>
        <time>2021-11-03T16:19:53.349Z</time>
      </trkpt>
      <trkpt lat="39.500640" lon="-2.072447">
        <ele>786.016885</ele>
        <time>2021-11-03T16:19:53.349Z</time>
      </trkpt>
      <trkpt lat="39.500579" lon="-2.072388">
        <ele>785.635149</ele>
        <time>2021-11-03T16:19:53.349Z</time>
      </trkpt>
      <trkpt lat="39.500526" lon="-2.072227">
        <ele>785.318693</ele>
        <time>2021-11-03T16:19:53.349Z</time>
      </trkpt>
      <trkpt lat="39.500504" lon="-2.072017">
        <ele>785.985938</ele>
        <time>2021-11-03T16:19:53.349Z</time>
      </trkpt>
      <trkpt lat="39.500498" lon="-2.071978">
        <ele>786.111145</ele>
        <time>2021-11-03T16:19:53.349Z</time>
      </trkpt>
      <trkpt lat="39.500483" lon="-2.071875">
        <ele>786.441162</ele>
        <time>2021-11-03T16:19:53.349Z</time>
      </trkpt>
      <trkpt lat="39.500480" lon="-2.071809">
        <ele>786.649322</ele>
        <time>2021-11-03T16:19:53.349Z</time>
      </trkpt>
      <trkpt lat="39.500473" lon="-2.071691">
        <ele>787.021937</ele>
        <time>2021-11-03T16:19:53.349Z</time>
      </trkpt>
      <trkpt lat="39.500466" lon="-2.071627">
        <ele>787.225454</ele>
        <time>2021-11-03T16:19:53.349Z</time>
      </trkpt>
      <trkpt lat="39.500405" lon="-2.071556">
        <ele>787.560002</ele>
        <time>2021-11-03T16:19:53.349Z</time>
      </trkpt>
      <trkpt lat="39.500382" lon="-2.071536">
        <ele>787.673017</ele>
        <time>2021-11-03T16:19:53.349Z</time>
      </trkpt>
      <trkpt lat="39.500252" lon="-2.071413">
        <ele>788.329785</ele>
        <time>2021-11-03T16:19:53.349Z</time>
      </trkpt>
      <trkpt lat="39.500209" lon="-2.071410">
        <ele>788.505494</ele>
        <time>2021-11-03T16:19:53.349Z</time>
      </trkpt>
      <trkpt lat="39.500178" lon="-2.071429">
        <ele>788.645417</ele>
        <time>2021-11-03T16:19:53.349Z</time>
      </trkpt>
      <trkpt lat="39.500163" lon="-2.071431">
        <ele>788.706945</ele>
        <time>2021-11-03T16:19:53.349Z</time>
      </trkpt>
      <trkpt lat="39.500120" lon="-2.071427">
        <ele>788.882851</ele>
        <time>2021-11-03T16:19:53.349Z</time>
      </trkpt>
      <trkpt lat="39.500096" lon="-2.071435">
        <ele>788.983966</ele>
        <time>2021-11-03T16:19:53.349Z</time>
      </trkpt>
      <trkpt lat="39.500033" lon="-2.071481">
        <ele>789.279020</ele>
        <time>2021-11-03T16:19:53.349Z</time>
      </trkpt>
      <trkpt lat="39.499954" lon="-2.071551">
        <ele>789.669508</ele>
        <time>2021-11-03T16:19:53.349Z</time>
      </trkpt>
      <trkpt lat="39.499933" lon="-2.071569">
        <ele>789.772241</ele>
        <time>2021-11-03T16:19:53.349Z</time>
      </trkpt>
      <trkpt lat="39.499785" lon="-2.071704">
        <ele>790.510719</ele>
        <time>2021-11-03T16:19:53.349Z</time>
      </trkpt>
      <trkpt lat="39.499717" lon="-2.071756">
        <ele>790.832885</ele>
        <time>2021-11-03T16:19:53.349Z</time>
      </trkpt>
      <trkpt lat="39.499624" lon="-2.071865">
        <ele>791.344525</ele>
        <time>2021-11-03T16:19:53.349Z</time>
      </trkpt>
      <trkpt lat="39.499513" lon="-2.071958">
        <ele>791.883852</ele>
        <time>2021-11-03T16:19:53.349Z</time>
      </trkpt>
      <trkpt lat="39.499441" lon="-2.072007">
        <ele>792.215681</ele>
        <time>2021-11-03T16:19:53.349Z</time>
      </trkpt>
      <trkpt lat="39.499305" lon="-2.072080">
        <ele>792.452430</ele>
        <time>2021-11-03T16:19:53.349Z</time>
      </trkpt>
      <trkpt lat="39.499276" lon="-2.072091">
        <ele>792.435722</ele>
        <time>2021-11-03T16:19:53.349Z</time>
      </trkpt>
      <trkpt lat="39.499163" lon="-2.072140">
        <ele>792.369832</ele>
        <time>2021-11-03T16:19:53.349Z</time>
      </trkpt>
      <trkpt lat="39.499027" lon="-2.072200">
        <ele>792.290390</ele>
        <time>2021-11-03T16:19:53.349Z</time>
      </trkpt>
      <trkpt lat="39.498974" lon="-2.072224">
        <ele>792.259345</ele>
        <time>2021-11-03T16:19:53.349Z</time>
      </trkpt>
      <trkpt lat="39.498922" lon="-2.072250">
        <ele>792.228525</ele>
        <time>2021-11-03T16:19:53.349Z</time>
      </trkpt>
      <trkpt lat="39.498845" lon="-2.072294">
        <ele>792.181992</ele>
        <time>2021-11-03T16:19:53.349Z</time>
      </trkpt>
      <trkpt lat="39.498741" lon="-2.072361">
        <ele>792.117770</ele>
        <time>2021-11-03T16:19:53.349Z</time>
      </trkpt>
      <trkpt lat="39.498549" lon="-2.072498">
        <ele>791.996571</ele>
        <time>2021-11-03T16:19:53.349Z</time>
      </trkpt>
      <trkpt lat="39.498524" lon="-2.072524">
        <ele>791.978846</ele>
        <time>2021-11-03T16:19:53.349Z</time>
      </trkpt>
      <trkpt lat="39.498497" lon="-2.072554">
        <ele>791.959180</ele>
        <time>2021-11-03T16:19:53.349Z</time>
      </trkpt>
      <trkpt lat="39.498344" lon="-2.072736">
        <ele>791.844339</ele>
        <time>2021-11-03T16:19:53.349Z</time>
      </trkpt>
      <trkpt lat="39.498202" lon="-2.072947">
        <ele>791.724877</ele>
        <time>2021-11-03T16:19:53.349Z</time>
      </trkpt>
      <trkpt lat="39.498166" lon="-2.073006">
        <ele>791.692782</ele>
        <time>2021-11-03T16:19:53.349Z</time>
      </trkpt>
      <trkpt lat="39.498136" lon="-2.073069">
        <ele>791.661194</ele>
        <time>2021-11-03T16:19:53.349Z</time>
      </trkpt>
      <trkpt lat="39.498107" lon="-2.073133">
        <ele>791.629525</ele>
        <time>2021-11-03T16:19:53.349Z</time>
      </trkpt>
      <trkpt lat="39.498071" lon="-2.073193">
        <ele>791.597095</ele>
        <time>2021-11-03T16:19:53.349Z</time>
      </trkpt>
      <trkpt lat="39.497982" lon="-2.073312">
        <ele>791.526383</ele>
        <time>2021-11-03T16:19:53.349Z</time>
      </trkpt>
      <trkpt lat="39.497886" lon="-2.073426">
        <ele>791.434272</ele>
        <time>2021-11-03T16:19:53.349Z</time>
      </trkpt>
      <trkpt lat="39.497723" lon="-2.073616">
        <ele>791.261052</ele>
        <time>2021-11-03T16:19:53.349Z</time>
      </trkpt>
      <trkpt lat="39.497661" lon="-2.073681">
        <ele>791.198043</ele>
        <time>2021-11-03T16:19:53.349Z</time>
      </trkpt>
      <trkpt lat="39.497595" lon="-2.073745">
        <ele>791.132913</ele>
        <time>2021-11-03T16:19:53.349Z</time>
      </trkpt>
      <trkpt lat="39.497527" lon="-2.073808">
        <ele>791.066868</ele>
        <time>2021-11-03T16:19:53.349Z</time>
      </trkpt>
      <trkpt lat="39.497405" lon="-2.073941">
        <ele>790.940904</ele>
        <time>2021-11-03T16:19:53.349Z</time>
      </trkpt>
      <trkpt lat="39.497351" lon="-2.074015">
        <ele>790.878808</ele>
        <time>2021-11-03T16:19:53.349Z</time>
      </trkpt>
      <trkpt lat="39.497297" lon="-2.074086">
        <ele>790.818028</ele>
        <time>2021-11-03T16:19:53.349Z</time>
      </trkpt>
      <trkpt lat="39.497238" lon="-2.074142">
        <ele>790.760245</ele>
        <time>2021-11-03T16:19:53.349Z</time>
      </trkpt>
      <trkpt lat="39.497180" lon="-2.074175">
        <ele>790.710197</ele>
        <time>2021-11-03T16:19:53.349Z</time>
      </trkpt>
      <trkpt lat="39.497086" lon="-2.074178">
        <ele>790.635904</ele>
        <time>2021-11-03T16:19:53.349Z</time>
      </trkpt>
      <trkpt lat="39.497047" lon="-2.074158">
        <ele>790.602765</ele>
        <time>2021-11-03T16:19:53.349Z</time>
      </trkpt>
      <trkpt lat="39.497014" lon="-2.074128">
        <ele>790.570916</ele>
        <time>2021-11-03T16:19:53.349Z</time>
      </trkpt>
      <trkpt lat="39.496920" lon="-2.074050">
        <ele>790.482725</ele>
        <time>2021-11-03T16:19:53.349Z</time>
      </trkpt>
      <trkpt lat="39.496858" lon="-2.074012">
        <ele>790.428536</ele>
        <time>2021-11-03T16:19:53.349Z</time>
      </trkpt>
      <trkpt lat="39.496753" lon="-2.073976">
        <ele>790.342720</ele>
        <time>2021-11-03T16:19:53.349Z</time>
      </trkpt>
      <trkpt lat="39.496730" lon="-2.073977">
        <ele>790.324537</ele>
        <time>2021-11-03T16:19:53.349Z</time>
      </trkpt>
      <trkpt lat="39.496667" lon="-2.073973">
        <ele>790.274701</ele>
        <time>2021-11-03T16:19:53.349Z</time>
      </trkpt>
      <trkpt lat="39.496599" lon="-2.073957">
        <ele>790.220095</ele>
        <time>2021-11-03T16:19:53.349Z</time>
      </trkpt>
      <trkpt lat="39.496531" lon="-2.073939">
        <ele>790.165259</ele>
        <time>2021-11-03T16:19:53.349Z</time>
      </trkpt>
      <trkpt lat="39.496420" lon="-2.073902">
        <ele>790.120501</ele>
        <time>2021-11-03T16:19:53.349Z</time>
      </trkpt>
      <trkpt lat="39.496396" lon="-2.073901">
        <ele>790.260911</ele>
        <time>2021-11-03T16:19:53.349Z</time>
      </trkpt>
      <trkpt lat="39.496349" lon="-2.073901">
        <ele>790.535739</ele>
        <time>2021-11-03T16:19:53.349Z</time>
      </trkpt>
      <trkpt lat="39.496279" lon="-2.073902">
        <ele>790.945083</ele>
        <time>2021-11-03T16:19:53.349Z</time>
      </trkpt>
      <trkpt lat="39.496213" lon="-2.073916">
        <ele>791.336147</ele>
        <time>2021-11-03T16:19:53.349Z</time>
      </trkpt>
      <trkpt lat="39.496170" lon="-2.073910">
        <ele>791.589039</ele>
        <time>2021-11-03T16:19:53.349Z</time>
      </trkpt>
      <trkpt lat="39.496054" lon="-2.073908">
        <ele>792.267398</ele>
        <time>2021-11-03T16:19:53.349Z</time>
      </trkpt>
      <trkpt lat="39.496007" lon="-2.073908">
        <ele>792.542226</ele>
        <time>2021-11-03T16:19:53.349Z</time>
      </trkpt>
      <trkpt lat="39.495870" lon="-2.073932">
        <ele>793.350607</ele>
        <time>2021-11-03T16:19:53.349Z</time>
      </trkpt>
      <trkpt lat="39.495848" lon="-2.073940">
        <ele>793.484219</ele>
        <time>2021-11-03T16:19:53.349Z</time>
      </trkpt>
      <trkpt lat="39.495803" lon="-2.073957">
        <ele>793.758305</ele>
        <time>2021-11-03T16:19:53.349Z</time>
      </trkpt>
      <trkpt lat="39.495759" lon="-2.073976">
        <ele>794.029499</ele>
        <time>2021-11-03T16:19:53.349Z</time>
      </trkpt>
      <trkpt lat="39.495713" lon="-2.073998">
        <ele>794.316214</ele>
        <time>2021-11-03T16:19:53.349Z</time>
      </trkpt>
      <trkpt lat="39.495627" lon="-2.074042">
        <ele>794.856865</ele>
        <time>2021-11-03T16:19:53.349Z</time>
      </trkpt>
      <trkpt lat="39.495547" lon="-2.074097">
        <ele>795.386413</ele>
        <time>2021-11-03T16:19:53.349Z</time>
      </trkpt>
      <trkpt lat="39.495493" lon="-2.074156">
        <ele>795.799426</ele>
        <time>2021-11-03T16:19:53.349Z</time>
      </trkpt>
      <trkpt lat="39.495478" lon="-2.074181">
        <ele>795.942320</ele>
        <time>2021-11-03T16:19:53.349Z</time>
      </trkpt>
      <trkpt lat="39.495418" lon="-2.074277">
        <ele>796.499758</ele>
        <time>2021-11-03T16:19:53.349Z</time>
      </trkpt>
      <trkpt lat="39.495334" lon="-2.074385">
        <ele>797.191675</ele>
        <time>2021-11-03T16:19:53.349Z</time>
      </trkpt>
      <trkpt lat="39.495282" lon="-2.074450">
        <ele>797.614145</ele>
        <time>2021-11-03T16:19:53.349Z</time>
      </trkpt>
      <trkpt lat="39.495218" lon="-2.074593">
        <ele>798.360075</ele>
        <time>2021-11-03T16:19:53.349Z</time>
      </trkpt>
      <trkpt lat="39.495177" lon="-2.074681">
        <ele>798.823920</ele>
        <time>2021-11-03T16:19:53.349Z</time>
      </trkpt>
      <trkpt lat="39.495137" lon="-2.074772">
        <ele>799.296484</ele>
        <time>2021-11-03T16:19:53.349Z</time>
      </trkpt>
      <trkpt lat="39.495087" lon="-2.074859">
        <ele>799.785967</ele>
        <time>2021-11-03T16:19:53.349Z</time>
      </trkpt>
      <trkpt lat="39.495015" lon="-2.075016">
        <ele>800.589611</ele>
        <time>2021-11-03T16:19:53.349Z</time>
      </trkpt>
      <trkpt lat="39.494899" lon="-2.075126">
        <ele>800.056253</ele>
        <time>2021-11-03T16:19:53.349Z</time>
      </trkpt>
      <trkpt lat="39.494831" lon="-2.075153">
        <ele>799.792357</ele>
        <time>2021-11-03T16:19:53.349Z</time>
      </trkpt>
      <trkpt lat="39.494671" lon="-2.075218">
        <ele>799.170179</ele>
        <time>2021-11-03T16:19:53.349Z</time>
      </trkpt>
      <trkpt lat="39.494623" lon="-2.075231">
        <ele>798.988224</ele>
        <time>2021-11-03T16:19:53.349Z</time>
      </trkpt>
      <trkpt lat="39.494398" lon="-2.075266">
        <ele>798.147357</ele>
        <time>2021-11-03T16:19:53.349Z</time>
      </trkpt>
      <trkpt lat="39.494261" lon="-2.075271">
        <ele>797.638810</ele>
        <time>2021-11-03T16:19:53.349Z</time>
      </trkpt>
      <trkpt lat="39.494049" lon="-2.075263">
        <ele>796.851840</ele>
        <time>2021-11-03T16:19:53.349Z</time>
      </trkpt>
      <trkpt lat="39.493974" lon="-2.075271">
        <ele>796.572607</ele>
        <time>2021-11-03T16:19:53.349Z</time>
      </trkpt>
      <trkpt lat="39.493740" lon="-2.075321">
        <ele>795.692614</ele>
        <time>2021-11-03T16:19:53.349Z</time>
      </trkpt>
      <trkpt lat="39.493497" lon="-2.075356">
        <ele>794.785397</ele>
        <time>2021-11-03T16:19:53.349Z</time>
      </trkpt>
      <trkpt lat="39.493415" lon="-2.075361">
        <ele>794.480796</ele>
        <time>2021-11-03T16:19:53.349Z</time>
      </trkpt>
      <trkpt lat="39.493255" lon="-2.075377">
        <ele>793.897410</ele>
        <time>2021-11-03T16:19:53.349Z</time>
      </trkpt>
      <trkpt lat="39.493099" lon="-2.075381">
        <ele>793.501094</ele>
        <time>2021-11-03T16:19:53.349Z</time>
      </trkpt>
      <trkpt lat="39.493020" lon="-2.075390">
        <ele>793.299662</ele>
        <time>2021-11-03T16:19:53.349Z</time>
      </trkpt>
      <trkpt lat="39.492940" lon="-2.075400">
        <ele>793.095520</ele>
        <time>2021-11-03T16:19:53.349Z</time>
      </trkpt>
      <trkpt lat="39.492783" lon="-2.075416">
        <ele>792.695511</ele>
        <time>2021-11-03T16:19:53.349Z</time>
      </trkpt>
      <trkpt lat="39.492624" lon="-2.075432">
        <ele>792.290438</ele>
        <time>2021-11-03T16:19:53.349Z</time>
      </trkpt>
      <trkpt lat="39.492465" lon="-2.075438">
        <ele>791.886409</ele>
        <time>2021-11-03T16:19:53.349Z</time>
      </trkpt>
      <trkpt lat="39.492313" lon="-2.075429">
        <ele>791.499929</ele>
        <time>2021-11-03T16:19:53.349Z</time>
      </trkpt>
      <trkpt lat="39.492165" lon="-2.075409">
        <ele>791.121972</ele>
        <time>2021-11-03T16:19:53.349Z</time>
      </trkpt>
      <trkpt lat="39.492021" lon="-2.075381">
        <ele>790.752120</ele>
        <time>2021-11-03T16:19:53.349Z</time>
      </trkpt>
      <trkpt lat="39.491610" lon="-2.075320">
        <ele>789.701361</ele>
        <time>2021-11-03T16:19:53.349Z</time>
      </trkpt>
      <trkpt lat="39.491089" lon="-2.075303">
        <ele>787.311592</ele>
        <time>2021-11-03T16:19:53.349Z</time>
      </trkpt>
      <trkpt lat="39.490961" lon="-2.075294">
        <ele>786.630900</ele>
        <time>2021-11-03T16:19:53.349Z</time>
      </trkpt>
      <trkpt lat="39.490833" lon="-2.075244">
        <ele>785.920995</ele>
        <time>2021-11-03T16:19:53.349Z</time>
      </trkpt>
      <trkpt lat="39.490767" lon="-2.075208">
        <ele>785.540745</ele>
        <time>2021-11-03T16:19:53.349Z</time>
      </trkpt>
      <trkpt lat="39.490560" lon="-2.075078">
        <ele>784.319261</ele>
        <time>2021-11-03T16:19:53.349Z</time>
      </trkpt>
      <trkpt lat="39.490484" lon="-2.075025">
        <ele>783.860961</ele>
        <time>2021-11-03T16:19:53.349Z</time>
      </trkpt>
      <trkpt lat="39.490321" lon="-2.074909">
        <ele>782.873469</ele>
        <time>2021-11-03T16:19:53.349Z</time>
      </trkpt>
      <trkpt lat="39.490154" lon="-2.074787">
        <ele>781.855460</ele>
        <time>2021-11-03T16:19:53.349Z</time>
      </trkpt>
      <trkpt lat="39.489908" lon="-2.074615">
        <ele>780.371144</ele>
        <time>2021-11-03T16:19:53.349Z</time>
      </trkpt>
      <trkpt lat="39.489467" lon="-2.074250">
        <ele>778.182830</ele>
        <time>2021-11-03T16:19:53.349Z</time>
      </trkpt>
      <trkpt lat="39.489402" lon="-2.074175">
        <ele>777.844035</ele>
        <time>2021-11-03T16:19:53.349Z</time>
      </trkpt>
      <trkpt lat="39.489113" lon="-2.073927">
        <ele>776.494739</ele>
        <time>2021-11-03T16:19:53.349Z</time>
      </trkpt>
      <trkpt lat="39.489038" lon="-2.073872">
        <ele>776.159281</ele>
        <time>2021-11-03T16:19:53.349Z</time>
      </trkpt>
      <trkpt lat="39.488682" lon="-2.073584">
        <ele>774.525601</ele>
        <time>2021-11-03T16:19:53.349Z</time>
      </trkpt>
      <trkpt lat="39.488452" lon="-2.073449">
        <ele>773.542727</ele>
        <time>2021-11-03T16:19:53.349Z</time>
      </trkpt>
      <trkpt lat="39.488379" lon="-2.073402">
        <ele>773.225421</ele>
        <time>2021-11-03T16:19:53.349Z</time>
      </trkpt>
      <trkpt lat="39.488310" lon="-2.073349">
        <ele>772.913184</ele>
        <time>2021-11-03T16:19:53.349Z</time>
      </trkpt>
      <trkpt lat="39.488240" lon="-2.073289">
        <ele>772.528470</ele>
        <time>2021-11-03T16:19:53.349Z</time>
      </trkpt>
      <trkpt lat="39.488021" lon="-2.073117">
        <ele>771.264145</ele>
        <time>2021-11-03T16:19:53.349Z</time>
      </trkpt>
      <trkpt lat="39.487870" lon="-2.073013">
        <ele>770.419878</ele>
        <time>2021-11-03T16:19:53.349Z</time>
      </trkpt>
      <trkpt lat="39.487788" lon="-2.072968">
        <ele>769.980227</ele>
        <time>2021-11-03T16:19:53.349Z</time>
      </trkpt>
      <trkpt lat="39.487705" lon="-2.072933">
        <ele>769.549297</ele>
        <time>2021-11-03T16:19:53.349Z</time>
      </trkpt>
      <trkpt lat="39.487539" lon="-2.072875">
        <ele>768.700473</ele>
        <time>2021-11-03T16:19:53.349Z</time>
      </trkpt>
      <trkpt lat="39.487367" lon="-2.072818">
        <ele>767.823965</ele>
        <time>2021-11-03T16:19:53.349Z</time>
      </trkpt>
      <trkpt lat="39.487193" lon="-2.072774">
        <ele>766.948711</ele>
        <time>2021-11-03T16:19:53.349Z</time>
      </trkpt>
      <trkpt lat="39.487020" lon="-2.072737">
        <ele>766.083043</ele>
        <time>2021-11-03T16:19:53.349Z</time>
      </trkpt>
      <trkpt lat="39.486933" lon="-2.072724">
        <ele>765.650673</ele>
        <time>2021-11-03T16:19:53.349Z</time>
      </trkpt>
      <trkpt lat="39.486672" lon="-2.072706">
        <ele>764.360277</ele>
        <time>2021-11-03T16:19:53.349Z</time>
      </trkpt>
      <trkpt lat="39.486501" lon="-2.072690">
        <ele>763.390821</ele>
        <time>2021-11-03T16:19:53.349Z</time>
      </trkpt>
      <trkpt lat="39.486419" lon="-2.072678">
        <ele>762.860815</ele>
        <time>2021-11-03T16:19:53.349Z</time>
      </trkpt>
      <trkpt lat="39.486265" lon="-2.072650">
        <ele>761.862036</ele>
        <time>2021-11-03T16:19:53.349Z</time>
      </trkpt>
      <trkpt lat="39.486107" lon="-2.072643">
        <ele>760.846663</ele>
        <time>2021-11-03T16:19:53.349Z</time>
      </trkpt>
      <trkpt lat="39.485941" lon="-2.072676">
        <ele>759.768026</ele>
        <time>2021-11-03T16:19:53.349Z</time>
      </trkpt>
      <trkpt lat="39.485770" lon="-2.072724">
        <ele>758.644275</ele>
        <time>2021-11-03T16:19:53.349Z</time>
      </trkpt>
      <trkpt lat="39.485589" lon="-2.072764">
        <ele>757.464986</ele>
        <time>2021-11-03T16:19:53.349Z</time>
      </trkpt>
      <trkpt lat="39.485421" lon="-2.072804">
        <ele>756.367914</ele>
        <time>2021-11-03T16:19:53.349Z</time>
      </trkpt>
      <trkpt lat="39.485224" lon="-2.072877">
        <ele>755.051923</ele>
        <time>2021-11-03T16:19:53.349Z</time>
      </trkpt>
      <trkpt lat="39.485167" lon="-2.072903">
        <ele>754.663808</ele>
        <time>2021-11-03T16:19:53.349Z</time>
      </trkpt>
      <trkpt lat="39.485107" lon="-2.072924">
        <ele>754.264637</ele>
        <time>2021-11-03T16:19:53.349Z</time>
      </trkpt>
      <trkpt lat="39.484988" lon="-2.072936">
        <ele>753.498030</ele>
        <time>2021-11-03T16:19:53.349Z</time>
      </trkpt>
      <trkpt lat="39.484932" lon="-2.072925">
        <ele>753.134251</ele>
        <time>2021-11-03T16:19:53.349Z</time>
      </trkpt>
      <trkpt lat="39.484876" lon="-2.072909">
        <ele>752.765942</ele>
        <time>2021-11-03T16:19:53.349Z</time>
      </trkpt>
      <trkpt lat="39.484706" lon="-2.072850">
        <ele>750.979900</ele>
        <time>2021-11-03T16:19:53.349Z</time>
      </trkpt>
      <trkpt lat="39.484604" lon="-2.072785">
        <ele>749.598556</ele>
        <time>2021-11-03T16:19:53.349Z</time>
      </trkpt>
      <trkpt lat="39.484490" lon="-2.072698">
        <ele>747.990744</ele>
        <time>2021-11-03T16:19:53.349Z</time>
      </trkpt>
      <trkpt lat="39.484460" lon="-2.072680">
        <ele>747.588982</ele>
        <time>2021-11-03T16:19:53.349Z</time>
      </trkpt>
      <trkpt lat="39.484371" lon="-2.072544">
        <ele>745.916613</ele>
        <time>2021-11-03T16:19:53.349Z</time>
      </trkpt>
      <trkpt lat="39.484305" lon="-2.072371">
        <ele>744.106616</ele>
        <time>2021-11-03T16:19:53.349Z</time>
      </trkpt>
      <trkpt lat="39.484277" lon="-2.072305">
        <ele>743.400237</ele>
        <time>2021-11-03T16:19:53.349Z</time>
      </trkpt>
      <trkpt lat="39.484224" lon="-2.072196">
        <ele>742.191940</ele>
        <time>2021-11-03T16:19:53.349Z</time>
      </trkpt>
      <trkpt lat="39.484172" lon="-2.072129">
        <ele>741.300753</ele>
        <time>2021-11-03T16:19:53.349Z</time>
      </trkpt>
      <trkpt lat="39.484140" lon="-2.072116">
        <ele>740.893212</ele>
        <time>2021-11-03T16:19:53.349Z</time>
      </trkpt>
      <trkpt lat="39.484111" lon="-2.072122">
        <ele>740.536330</ele>
        <time>2021-11-03T16:19:53.349Z</time>
      </trkpt>
      <trkpt lat="39.484087" lon="-2.072150">
        <ele>740.143863</ele>
        <time>2021-11-03T16:19:53.349Z</time>
      </trkpt>
      <trkpt lat="39.484039" lon="-2.072241">
        <ele>739.110072</ele>
        <time>2021-11-03T16:19:53.349Z</time>
      </trkpt>
      <trkpt lat="39.483995" lon="-2.072368">
        <ele>737.804408</ele>
        <time>2021-11-03T16:19:53.349Z</time>
      </trkpt>
      <trkpt lat="39.483971" lon="-2.072435">
        <ele>737.111620</ele>
        <time>2021-11-03T16:19:53.349Z</time>
      </trkpt>
      <trkpt lat="39.483940" lon="-2.072501">
        <ele>736.386973</ele>
        <time>2021-11-03T16:19:53.349Z</time>
      </trkpt>
      <trkpt lat="39.483867" lon="-2.072635">
        <ele>734.848611</ele>
        <time>2021-11-03T16:19:53.349Z</time>
      </trkpt>
      <trkpt lat="39.483831" lon="-2.072703">
        <ele>734.075201</ele>
        <time>2021-11-03T16:19:53.349Z</time>
      </trkpt>
      <trkpt lat="39.483795" lon="-2.072768">
        <ele>733.324826</ele>
        <time>2021-11-03T16:19:53.349Z</time>
      </trkpt>
      <trkpt lat="39.483724" lon="-2.072885">
        <ele>731.928880</ele>
        <time>2021-11-03T16:19:53.349Z</time>
      </trkpt>
      <trkpt lat="39.483657" lon="-2.072957">
        <ele>730.871068</ele>
        <time>2021-11-03T16:19:53.349Z</time>
      </trkpt>
      <trkpt lat="39.483624" lon="-2.072969">
        <ele>730.451744</ele>
        <time>2021-11-03T16:19:53.349Z</time>
      </trkpt>
      <trkpt lat="39.483566" lon="-2.072921">
        <ele>729.575241</ele>
        <time>2021-11-03T16:19:53.349Z</time>
      </trkpt>
      <trkpt lat="39.483553" lon="-2.072873">
        <ele>729.075215</ele>
        <time>2021-11-03T16:19:53.349Z</time>
      </trkpt>
      <trkpt lat="39.483548" lon="-2.072815">
        <ele>728.501554</ele>
        <time>2021-11-03T16:19:53.349Z</time>
      </trkpt>
      <trkpt lat="39.483551" lon="-2.072749">
        <ele>727.851677</ele>
        <time>2021-11-03T16:19:53.349Z</time>
      </trkpt>
      <trkpt lat="39.483564" lon="-2.072680">
        <ele>727.153519</ele>
        <time>2021-11-03T16:19:53.349Z</time>
      </trkpt>
      <trkpt lat="39.483584" lon="-2.072613">
        <ele>726.447396</ele>
        <time>2021-11-03T16:19:53.349Z</time>
      </trkpt>
      <trkpt lat="39.483609" lon="-2.072549">
        <ele>725.742319</ele>
        <time>2021-11-03T16:19:53.349Z</time>
      </trkpt>
      <trkpt lat="39.483634" lon="-2.072486">
        <ele>725.045998</ele>
        <time>2021-11-03T16:19:53.349Z</time>
      </trkpt>
      <trkpt lat="39.483669" lon="-2.072358">
        <ele>723.711184</ele>
        <time>2021-11-03T16:19:53.349Z</time>
      </trkpt>
      <trkpt lat="39.483648" lon="-2.072215">
        <ele>722.280337</ele>
        <time>2021-11-03T16:19:53.349Z</time>
      </trkpt>
      <trkpt lat="39.483622" lon="-2.072141">
        <ele>721.481124</ele>
        <time>2021-11-03T16:19:53.349Z</time>
      </trkpt>
      <trkpt lat="39.483559" lon="-2.071985">
        <ele>719.750478</ele>
        <time>2021-11-03T16:19:53.349Z</time>
      </trkpt>
      <trkpt lat="39.483532" lon="-2.071902">
        <ele>718.865116</ele>
        <time>2021-11-03T16:19:53.349Z</time>
      </trkpt>
      <trkpt lat="39.483510" lon="-2.071816">
        <ele>717.974547</ele>
        <time>2021-11-03T16:19:53.349Z</time>
      </trkpt>
      <trkpt lat="39.483488" lon="-2.071720">
        <ele>716.990188</ele>
        <time>2021-11-03T16:19:53.349Z</time>
      </trkpt>
      <trkpt lat="39.483459" lon="-2.071527">
        <ele>715.057457</ele>
        <time>2021-11-03T16:19:53.349Z</time>
      </trkpt>
      <trkpt lat="39.483451" lon="-2.071433">
        <ele>714.127874</ele>
        <time>2021-11-03T16:19:53.349Z</time>
      </trkpt>
      <trkpt lat="39.483443" lon="-2.071342">
        <ele>713.227596</ele>
        <time>2021-11-03T16:19:53.349Z</time>
      </trkpt>
      <trkpt lat="39.483435" lon="-2.071254">
        <ele>712.356612</ele>
        <time>2021-11-03T16:19:53.349Z</time>
      </trkpt>
      <trkpt lat="39.483425" lon="-2.071175">
        <ele>711.569698</ele>
        <time>2021-11-03T16:19:53.349Z</time>
      </trkpt>
      <trkpt lat="39.483394" lon="-2.071048">
        <ele>710.260394</ele>
        <time>2021-11-03T16:19:53.349Z</time>
      </trkpt>
      <trkpt lat="39.483330" lon="-2.070984">
        <ele>709.230765</ele>
        <time>2021-11-03T16:19:53.349Z</time>
      </trkpt>
      <trkpt lat="39.483294" lon="-2.070982">
        <ele>708.771855</ele>
        <time>2021-11-03T16:19:53.349Z</time>
      </trkpt>
      <trkpt lat="39.483240" lon="-2.071013">
        <ele>708.019637</ele>
        <time>2021-11-03T16:19:53.349Z</time>
      </trkpt>
      <trkpt lat="39.483242" lon="-2.071011">
        <ele>707.987461</ele>
        <time>2021-11-03T16:19:53.349Z</time>
      </trkpt>
      <trkpt lat="39.483242" lon="-2.071011">
        <ele>707.987461</ele>
        <time>2021-11-03T16:19:53.349Z</time>
      </trkpt>
      <trkpt lat="39.483240" lon="-2.071010">
        <ele>707.960159</ele>
        <time>2021-11-03T16:19:53.349Z</time>
      </trkpt>
      <trkpt lat="39.483154" lon="-2.071023">
        <ele>707.468030</ele>
        <time>2021-11-03T16:19:53.349Z</time>
      </trkpt>
      <trkpt lat="39.483093" lon="-2.071055">
        <ele>707.313772</ele>
        <time>2021-11-03T16:19:53.349Z</time>
      </trkpt>
      <trkpt lat="39.483030" lon="-2.071118">
        <ele>707.127232</ele>
        <time>2021-11-03T16:19:53.349Z</time>
      </trkpt>
      <trkpt lat="39.482137" lon="-2.072018">
        <ele>704.475348</ele>
        <time>2021-11-03T16:19:53.349Z</time>
      </trkpt>
      <trkpt lat="39.482082" lon="-2.072069">
        <ele>704.316813</ele>
        <time>2021-11-03T16:19:53.349Z</time>
      </trkpt>
      <trkpt lat="39.482004" lon="-2.072141">
        <ele>704.092326</ele>
        <time>2021-11-03T16:19:53.349Z</time>
      </trkpt>
      <trkpt lat="39.481866" lon="-2.072268">
        <ele>703.695560</ele>
        <time>2021-11-03T16:19:53.349Z</time>
      </trkpt>
      <trkpt lat="39.481840" lon="-2.072300">
        <ele>703.611503</ele>
        <time>2021-11-03T16:19:53.349Z</time>
      </trkpt>
      <trkpt lat="39.481751" lon="-2.072378">
        <ele>703.392771</ele>
        <time>2021-11-03T16:19:53.349Z</time>
      </trkpt>
      <trkpt lat="39.481694" lon="-2.072433">
        <ele>703.409432</ele>
        <time>2021-11-03T16:19:53.349Z</time>
      </trkpt>
      <trkpt lat="39.481667" lon="-2.072462">
        <ele>703.417654</ele>
        <time>2021-11-03T16:19:53.349Z</time>
      </trkpt>
      <trkpt lat="39.481641" lon="-2.072490">
        <ele>703.425580</ele>
        <time>2021-11-03T16:19:53.349Z</time>
      </trkpt>
      <trkpt lat="39.481502" lon="-2.072707">
        <ele>703.476606</ele>
        <time>2021-11-03T16:19:53.349Z</time>
      </trkpt>
      <trkpt lat="39.481383" lon="-2.073015">
        <ele>703.538929</ele>
        <time>2021-11-03T16:19:53.349Z</time>
      </trkpt>
      <trkpt lat="39.481285" lon="-2.073246">
        <ele>703.586625</ele>
        <time>2021-11-03T16:19:53.349Z</time>
      </trkpt>
      <trkpt lat="39.481233" lon="-2.073361">
        <ele>703.610742</ele>
        <time>2021-11-03T16:19:53.349Z</time>
      </trkpt>
      <trkpt lat="39.481210" lon="-2.073424">
        <ele>703.623352</ele>
        <time>2021-11-03T16:19:53.349Z</time>
      </trkpt>
      <trkpt lat="39.481081" lon="-2.073730">
        <ele>703.686442</ele>
        <time>2021-11-03T16:19:53.349Z</time>
      </trkpt>
      <trkpt lat="39.480824" lon="-2.074125">
        <ele>703.779922</ele>
        <time>2021-11-03T16:19:53.349Z</time>
      </trkpt>
      <trkpt lat="39.480712" lon="-2.074291">
        <ele>703.793802</ele>
        <time>2021-11-03T16:19:53.349Z</time>
      </trkpt>
      <trkpt lat="39.480530" lon="-2.074583">
        <ele>703.651219</ele>
        <time>2021-11-03T16:19:53.349Z</time>
      </trkpt>
      <trkpt lat="39.480495" lon="-2.074640">
        <ele>703.623549</ele>
        <time>2021-11-03T16:19:53.349Z</time>
      </trkpt>
      <trkpt lat="39.480284" lon="-2.074987">
        <ele>703.455730</ele>
        <time>2021-11-03T16:19:53.349Z</time>
      </trkpt>
      <trkpt lat="39.479308" lon="-2.075835">
        <ele>702.868162</ele>
        <time>2021-11-03T16:19:53.349Z</time>
      </trkpt>
      <trkpt lat="39.478801" lon="-2.076538">
        <ele>702.434025</ele>
        <time>2021-11-03T16:19:53.349Z</time>
      </trkpt>
      <trkpt lat="39.478762" lon="-2.076599">
        <ele>702.398283</ele>
        <time>2021-11-03T16:19:53.349Z</time>
      </trkpt>
      <trkpt lat="39.478672" lon="-2.076786">
        <ele>702.298843</ele>
        <time>2021-11-03T16:19:53.349Z</time>
      </trkpt>
      <trkpt lat="39.478556" lon="-2.077028">
        <ele>702.170300</ele>
        <time>2021-11-03T16:19:53.349Z</time>
      </trkpt>
      <trkpt lat="39.478517" lon="-2.077111">
        <ele>702.126454</ele>
        <time>2021-11-03T16:19:53.349Z</time>
      </trkpt>
      <trkpt lat="39.478391" lon="-2.077439">
        <ele>701.961132</ele>
        <time>2021-11-03T16:19:53.349Z</time>
      </trkpt>
      <trkpt lat="39.478274" lon="-2.077708">
        <ele>701.802043</ele>
        <time>2021-11-03T16:19:53.349Z</time>
      </trkpt>
      <trkpt lat="39.478114" lon="-2.078090">
        <ele>701.532588</ele>
        <time>2021-11-03T16:19:53.349Z</time>
      </trkpt>
      <trkpt lat="39.478070" lon="-2.078186">
        <ele>701.463367</ele>
        <time>2021-11-03T16:19:53.349Z</time>
      </trkpt>
      <trkpt lat="39.477931" lon="-2.078471">
        <ele>701.254353</ele>
        <time>2021-11-03T16:19:53.349Z</time>
      </trkpt>
      <trkpt lat="39.477882" lon="-2.078575">
        <ele>701.178812</ele>
        <time>2021-11-03T16:19:53.349Z</time>
      </trkpt>
      <trkpt lat="39.477735" lon="-2.078847">
        <ele>700.972949</ele>
        <time>2021-11-03T16:19:53.349Z</time>
      </trkpt>
      <trkpt lat="39.477522" lon="-2.079278">
        <ele>700.655656</ele>
        <time>2021-11-03T16:19:53.349Z</time>
      </trkpt>
      <trkpt lat="39.477496" lon="-2.079343">
        <ele>700.610267</ele>
        <time>2021-11-03T16:19:53.349Z</time>
      </trkpt>
      <trkpt lat="39.477450" lon="-2.079469">
        <ele>700.523851</ele>
        <time>2021-11-03T16:19:53.349Z</time>
      </trkpt>
      <trkpt lat="39.477397" lon="-2.079684">
        <ele>700.452162</ele>
        <time>2021-11-03T16:19:53.349Z</time>
      </trkpt>
      <trkpt lat="39.477288" lon="-2.080200">
        <ele>700.612418</ele>
        <time>2021-11-03T16:19:53.349Z</time>
      </trkpt>
      <trkpt lat="39.477273" lon="-2.080270">
        <ele>700.634180</ele>
        <time>2021-11-03T16:19:53.349Z</time>
      </trkpt>
      <trkpt lat="39.477257" lon="-2.080338">
        <ele>700.655476</ele>
        <time>2021-11-03T16:19:53.349Z</time>
      </trkpt>
      <trkpt lat="39.477215" lon="-2.080467">
        <ele>700.697416</ele>
        <time>2021-11-03T16:19:53.349Z</time>
      </trkpt>
      <trkpt lat="39.477133" lon="-2.080724">
        <ele>700.780720</ele>
        <time>2021-11-03T16:19:53.349Z</time>
      </trkpt>
      <trkpt lat="39.476978" lon="-2.081263">
        <ele>700.953025</ele>
        <time>2021-11-03T16:19:53.349Z</time>
      </trkpt>
      <trkpt lat="39.476951" lon="-2.081327">
        <ele>700.974873</ele>
        <time>2021-11-03T16:19:53.349Z</time>
      </trkpt>
      <trkpt lat="39.476885" lon="-2.081446">
        <ele>701.018769</ele>
        <time>2021-11-03T16:19:53.349Z</time>
      </trkpt>
      <trkpt lat="39.476732" lon="-2.081680">
        <ele>701.110635</ele>
        <time>2021-11-03T16:19:53.349Z</time>
      </trkpt>
      <trkpt lat="39.476491" lon="-2.082006">
        <ele>701.101024</ele>
        <time>2021-11-03T16:19:53.349Z</time>
      </trkpt>
      <trkpt lat="39.476357" lon="-2.082169">
        <ele>701.084719</ele>
        <time>2021-11-03T16:19:53.349Z</time>
      </trkpt>
      <trkpt lat="39.476271" lon="-2.082282">
        <ele>701.073853</ele>
        <time>2021-11-03T16:19:53.349Z</time>
      </trkpt>
      <trkpt lat="39.476004" lon="-2.082600">
        <ele>701.041681</ele>
        <time>2021-11-03T16:19:53.349Z</time>
      </trkpt>
      <trkpt lat="39.475817" lon="-2.082878">
        <ele>701.016432</ele>
        <time>2021-11-03T16:19:53.349Z</time>
      </trkpt>
      <trkpt lat="39.475613" lon="-2.083216">
        <ele>700.987054</ele>
        <time>2021-11-03T16:19:53.349Z</time>
      </trkpt>
      <trkpt lat="39.475513" lon="-2.083375">
        <ele>700.973010</ele>
        <time>2021-11-03T16:19:53.349Z</time>
      </trkpt>
      <trkpt lat="39.475381" lon="-2.083582">
        <ele>701.054403</ele>
        <time>2021-11-03T16:19:53.349Z</time>
      </trkpt>
      <trkpt lat="39.475170" lon="-2.083887">
        <ele>701.229227</ele>
        <time>2021-11-03T16:19:53.349Z</time>
      </trkpt>
      <trkpt lat="39.474912" lon="-2.084276">
        <ele>701.448147</ele>
        <time>2021-11-03T16:19:53.349Z</time>
      </trkpt>
      <trkpt lat="39.474869" lon="-2.084333">
        <ele>701.482167</ele>
        <time>2021-11-03T16:19:53.349Z</time>
      </trkpt>
      <trkpt lat="39.474623" lon="-2.084628">
        <ele>701.667536</ele>
        <time>2021-11-03T16:19:53.349Z</time>
      </trkpt>
      <trkpt lat="39.474582" lon="-2.084674">
        <ele>701.697530</ele>
        <time>2021-11-03T16:19:53.349Z</time>
      </trkpt>
      <trkpt lat="39.474536" lon="-2.084717">
        <ele>701.728898</ele>
        <time>2021-11-03T16:19:53.349Z</time>
      </trkpt>
      <trkpt lat="39.474335" lon="-2.084895">
        <ele>701.863536</ele>
        <time>2021-11-03T16:19:53.349Z</time>
      </trkpt>
      <trkpt lat="39.473996" lon="-2.085188">
        <ele>701.914251</ele>
        <time>2021-11-03T16:19:53.349Z</time>
      </trkpt>
      <trkpt lat="39.473642" lon="-2.085348">
        <ele>701.833864</ele>
        <time>2021-11-03T16:19:53.349Z</time>
      </trkpt>
      <trkpt lat="39.473571" lon="-2.085373">
        <ele>701.818089</ele>
        <time>2021-11-03T16:19:53.349Z</time>
      </trkpt>
      <trkpt lat="39.473311" lon="-2.085488">
        <ele>701.759183</ele>
        <time>2021-11-03T16:19:53.349Z</time>
      </trkpt>
      <trkpt lat="39.473249" lon="-2.085526">
        <ele>701.744477</ele>
        <time>2021-11-03T16:19:53.349Z</time>
      </trkpt>
      <trkpt lat="39.472824" lon="-2.085720">
        <ele>701.647862</ele>
        <time>2021-11-03T16:19:53.349Z</time>
      </trkpt>
      <trkpt lat="39.472308" lon="-2.085922">
        <ele>701.800089</ele>
        <time>2021-11-03T16:19:53.349Z</time>
      </trkpt>
      <trkpt lat="39.472160" lon="-2.086012">
        <ele>701.973121</ele>
        <time>2021-11-03T16:19:53.349Z</time>
      </trkpt>
      <trkpt lat="39.472074" lon="-2.086088">
        <ele>702.083298</ele>
        <time>2021-11-03T16:19:53.349Z</time>
      </trkpt>
      <trkpt lat="39.472034" lon="-2.086128">
        <ele>702.136776</ele>
        <time>2021-11-03T16:19:53.349Z</time>
      </trkpt>
      <trkpt lat="39.471883" lon="-2.086272">
        <ele>702.335215</ele>
        <time>2021-11-03T16:19:53.349Z</time>
      </trkpt>
      <trkpt lat="39.471763" lon="-2.086371">
        <ele>702.485782</ele>
        <time>2021-11-03T16:19:53.349Z</time>
      </trkpt>
      <trkpt lat="39.471381" lon="-2.086590">
        <ele>702.927884</ele>
        <time>2021-11-03T16:19:53.349Z</time>
      </trkpt>
      <trkpt lat="39.470992" lon="-2.086784">
        <ele>703.369028</ele>
        <time>2021-11-03T16:19:53.349Z</time>
      </trkpt>
      <trkpt lat="39.470616" lon="-2.087001">
        <ele>703.485485</ele>
        <time>2021-11-03T16:19:53.349Z</time>
      </trkpt>
      <trkpt lat="39.470564" lon="-2.087032">
        <ele>703.486333</ele>
        <time>2021-11-03T16:19:53.349Z</time>
      </trkpt>
      <trkpt lat="39.470403" lon="-2.087111">
        <ele>703.488883</ele>
        <time>2021-11-03T16:19:53.349Z</time>
      </trkpt>
      <trkpt lat="39.470250" lon="-2.087187">
        <ele>703.491310</ele>
        <time>2021-11-03T16:19:53.349Z</time>
      </trkpt>
      <trkpt lat="39.469886" lon="-2.087350">
        <ele>703.497014</ele>
        <time>2021-11-03T16:19:53.349Z</time>
      </trkpt>
      <trkpt lat="39.469539" lon="-2.087540">
        <ele>703.502594</ele>
        <time>2021-11-03T16:19:53.349Z</time>
      </trkpt>
      <trkpt lat="39.469016" lon="-2.087857">
        <ele>703.410106</ele>
        <time>2021-11-03T16:19:53.349Z</time>
      </trkpt>
      <trkpt lat="39.468491" lon="-2.088179">
        <ele>703.173929</ele>
        <time>2021-11-03T16:19:53.349Z</time>
      </trkpt>
      <trkpt lat="39.468204" lon="-2.088307">
        <ele>703.050516</ele>
        <time>2021-11-03T16:19:53.349Z</time>
      </trkpt>
      <trkpt lat="39.468145" lon="-2.088327">
        <ele>703.025719</ele>
        <time>2021-11-03T16:19:53.349Z</time>
      </trkpt>
      <trkpt lat="39.467836" lon="-2.088457">
        <ele>702.893623</ele>
        <time>2021-11-03T16:19:53.349Z</time>
      </trkpt>
      <trkpt lat="39.467705" lon="-2.088515">
        <ele>702.837335</ele>
        <time>2021-11-03T16:19:53.349Z</time>
      </trkpt>
      <trkpt lat="39.467571" lon="-2.088567">
        <ele>702.780460</ele>
        <time>2021-11-03T16:19:53.349Z</time>
      </trkpt>
      <trkpt lat="39.467177" lon="-2.088678">
        <ele>702.883397</ele>
        <time>2021-11-03T16:19:53.349Z</time>
      </trkpt>
      <trkpt lat="39.466805" lon="-2.088766">
        <ele>702.986473</ele>
        <time>2021-11-03T16:19:53.349Z</time>
      </trkpt>
      <trkpt lat="39.466743" lon="-2.088775">
        <ele>703.003479</ele>
        <time>2021-11-03T16:19:53.349Z</time>
      </trkpt>
      <trkpt lat="39.466568" lon="-2.088809">
        <ele>703.051714</ele>
        <time>2021-11-03T16:19:53.349Z</time>
      </trkpt>
      <trkpt lat="39.466292" lon="-2.088877">
        <ele>703.128295</ele>
        <time>2021-11-03T16:19:53.349Z</time>
      </trkpt>
      <trkpt lat="39.465893" lon="-2.089052">
        <ele>703.243120</ele>
        <time>2021-11-03T16:19:53.349Z</time>
      </trkpt>
      <trkpt lat="39.465386" lon="-2.089388">
        <ele>703.191817</ele>
        <time>2021-11-03T16:19:53.349Z</time>
      </trkpt>
      <trkpt lat="39.465104" lon="-2.089521">
        <ele>703.145423</ele>
        <time>2021-11-03T16:19:53.349Z</time>
      </trkpt>
      <trkpt lat="39.464986" lon="-2.089540">
        <ele>703.127042</ele>
        <time>2021-11-03T16:19:53.349Z</time>
      </trkpt>
      <trkpt lat="39.464618" lon="-2.089488">
        <ele>703.069816</ele>
        <time>2021-11-03T16:19:53.349Z</time>
      </trkpt>
      <trkpt lat="39.464053" lon="-2.089381">
        <ele>702.984707</ele>
        <time>2021-11-03T16:19:53.349Z</time>
      </trkpt>
      <trkpt lat="39.463496" lon="-2.089270">
        <ele>702.937116</ele>
        <time>2021-11-03T16:19:53.349Z</time>
      </trkpt>
      <trkpt lat="39.463313" lon="-2.089230">
        <ele>702.921444</ele>
        <time>2021-11-03T16:19:53.349Z</time>
      </trkpt>
      <trkpt lat="39.462810" lon="-2.089167">
        <ele>702.878769</ele>
        <time>2021-11-03T16:19:53.349Z</time>
      </trkpt>
      <trkpt lat="39.462217" lon="-2.089189">
        <ele>702.784260</ele>
        <time>2021-11-03T16:19:53.349Z</time>
      </trkpt>
      <trkpt lat="39.461650" lon="-2.089190">
        <ele>702.468946</ele>
        <time>2021-11-03T16:19:53.349Z</time>
      </trkpt>
      <trkpt lat="39.461526" lon="-2.089186">
        <ele>702.399968</ele>
        <time>2021-11-03T16:19:53.349Z</time>
      </trkpt>
      <trkpt lat="39.460956" lon="-2.089180">
        <ele>702.082976</ele>
        <time>2021-11-03T16:19:53.349Z</time>
      </trkpt>
      <trkpt lat="39.460891" lon="-2.089171">
        <ele>702.046623</ele>
        <time>2021-11-03T16:19:53.349Z</time>
      </trkpt>
      <trkpt lat="39.460498" lon="-2.089141">
        <ele>701.827957</ele>
        <time>2021-11-03T16:19:53.349Z</time>
      </trkpt>
      <trkpt lat="39.459906" lon="-2.089102">
        <ele>701.508318</ele>
        <time>2021-11-03T16:19:53.349Z</time>
      </trkpt>
      <trkpt lat="39.459841" lon="-2.089099">
        <ele>701.473245</ele>
        <time>2021-11-03T16:19:53.349Z</time>
      </trkpt>
      <trkpt lat="39.459445" lon="-2.089090">
        <ele>701.259675</ele>
        <time>2021-11-03T16:19:53.349Z</time>
      </trkpt>
      <trkpt lat="39.459247" lon="-2.089071">
        <ele>701.152614</ele>
        <time>2021-11-03T16:19:53.349Z</time>
      </trkpt>
      <trkpt lat="39.458991" lon="-2.089023">
        <ele>701.013131</ele>
        <time>2021-11-03T16:19:53.349Z</time>
      </trkpt>
      <trkpt lat="39.458928" lon="-2.089010">
        <ele>700.978731</ele>
        <time>2021-11-03T16:19:53.349Z</time>
      </trkpt>
      <trkpt lat="39.458671" lon="-2.088961">
        <ele>700.858604</ele>
        <time>2021-11-03T16:19:53.349Z</time>
      </trkpt>
      <trkpt lat="39.458076" lon="-2.088862">
        <ele>700.766942</ele>
        <time>2021-11-03T16:19:53.349Z</time>
      </trkpt>
      <trkpt lat="39.458011" lon="-2.088853">
        <ele>700.756953</ele>
        <time>2021-11-03T16:19:53.349Z</time>
      </trkpt>
      <trkpt lat="39.457497" lon="-2.088751">
        <ele>700.677498</ele>
        <time>2021-11-03T16:19:53.349Z</time>
      </trkpt>
      <trkpt lat="39.457307" lon="-2.088705">
        <ele>700.647964</ele>
        <time>2021-11-03T16:19:53.349Z</time>
      </trkpt>
      <trkpt lat="39.456875" lon="-2.088612">
        <ele>700.616127</ele>
        <time>2021-11-03T16:19:53.349Z</time>
      </trkpt>
      <trkpt lat="39.456375" lon="-2.088564">
        <ele>700.792723</ele>
        <time>2021-11-03T16:19:53.349Z</time>
      </trkpt>
      <trkpt lat="39.456311" lon="-2.088564">
        <ele>700.815265</ele>
        <time>2021-11-03T16:19:53.349Z</time>
      </trkpt>
      <trkpt lat="39.455747" lon="-2.088556">
        <ele>701.013931</ele>
        <time>2021-11-03T16:19:53.349Z</time>
      </trkpt>
      <trkpt lat="39.455554" lon="-2.088557">
        <ele>701.081911</ele>
        <time>2021-11-03T16:19:53.349Z</time>
      </trkpt>
      <trkpt lat="39.454970" lon="-2.088540">
        <ele>701.224823</ele>
        <time>2021-11-03T16:19:53.349Z</time>
      </trkpt>
      <trkpt lat="39.454906" lon="-2.088531">
        <ele>701.224691</ele>
        <time>2021-11-03T16:19:53.349Z</time>
      </trkpt>
      <trkpt lat="39.454344" lon="-2.088418">
        <ele>701.223521</ele>
        <time>2021-11-03T16:19:53.349Z</time>
      </trkpt>
      <trkpt lat="39.454287" lon="-2.088406">
        <ele>701.223403</ele>
        <time>2021-11-03T16:19:53.349Z</time>
      </trkpt>
      <trkpt lat="39.453878" lon="-2.088331">
        <ele>701.222553</ele>
        <time>2021-11-03T16:19:53.349Z</time>
      </trkpt>
      <trkpt lat="39.453789" lon="-2.088313">
        <ele>701.222368</ele>
        <time>2021-11-03T16:19:53.349Z</time>
      </trkpt>
      <trkpt lat="39.453659" lon="-2.088296">
        <ele>701.222099</ele>
        <time>2021-11-03T16:19:53.349Z</time>
      </trkpt>
      <trkpt lat="39.453617" lon="-2.088301">
        <ele>701.222012</ele>
        <time>2021-11-03T16:19:53.349Z</time>
      </trkpt>
      <trkpt lat="39.453577" lon="-2.088306">
        <ele>701.221930</ele>
        <time>2021-11-03T16:19:53.349Z</time>
      </trkpt>
      <trkpt lat="39.453460" lon="-2.088308">
        <ele>701.221689</ele>
        <time>2021-11-03T16:19:53.349Z</time>
      </trkpt>
      <trkpt lat="39.453345" lon="-2.088312">
        <ele>701.208146</ele>
        <time>2021-11-03T16:19:53.349Z</time>
      </trkpt>
      <trkpt lat="39.453269" lon="-2.088312">
        <ele>701.151231</ele>
        <time>2021-11-03T16:19:53.349Z</time>
      </trkpt>
      <trkpt lat="39.453085" lon="-2.088304">
        <ele>701.013359</ele>
        <time>2021-11-03T16:19:53.349Z</time>
      </trkpt>
      <trkpt lat="39.452941" lon="-2.088299">
        <ele>700.905481</ele>
        <time>2021-11-03T16:19:53.349Z</time>
      </trkpt>
      <trkpt lat="39.452901" lon="-2.088292">
        <ele>700.875253</ele>
        <time>2021-11-03T16:19:53.349Z</time>
      </trkpt>
      <trkpt lat="39.452648" lon="-2.088255">
        <ele>700.684582</ele>
        <time>2021-11-03T16:19:53.349Z</time>
      </trkpt>
      <trkpt lat="39.452534" lon="-2.088237">
        <ele>700.598577</ele>
        <time>2021-11-03T16:19:53.349Z</time>
      </trkpt>
      <trkpt lat="39.452476" lon="-2.088229">
        <ele>700.554896</ele>
        <time>2021-11-03T16:19:53.349Z</time>
      </trkpt>
      <trkpt lat="39.452420" lon="-2.088222">
        <ele>700.512763</ele>
        <time>2021-11-03T16:19:53.349Z</time>
      </trkpt>
      <trkpt lat="39.452143" lon="-2.088199">
        <ele>700.304897</ele>
        <time>2021-11-03T16:19:53.349Z</time>
      </trkpt>
      <trkpt lat="39.451793" lon="-2.088143">
        <ele>700.040795</ele>
        <time>2021-11-03T16:19:53.349Z</time>
      </trkpt>
      <trkpt lat="39.451610" lon="-2.088111">
        <ele>699.902505</ele>
        <time>2021-11-03T16:19:53.349Z</time>
      </trkpt>
      <trkpt lat="39.451313" lon="-2.088058">
        <ele>699.762063</ele>
        <time>2021-11-03T16:19:53.349Z</time>
      </trkpt>
      <trkpt lat="39.450970" lon="-2.088034">
        <ele>699.614872</ele>
        <time>2021-11-03T16:19:53.349Z</time>
      </trkpt>
      <trkpt lat="39.450698" lon="-2.088047">
        <ele>699.498240</ele>
        <time>2021-11-03T16:19:53.349Z</time>
      </trkpt>
      <trkpt lat="39.450404" lon="-2.088086">
        <ele>699.371601</ele>
        <time>2021-11-03T16:19:53.349Z</time>
      </trkpt>
      <trkpt lat="39.450294" lon="-2.088104">
        <ele>699.324091</ele>
        <time>2021-11-03T16:19:53.349Z</time>
      </trkpt>
      <trkpt lat="39.450036" lon="-2.088149">
        <ele>699.212539</ele>
        <time>2021-11-03T16:19:53.349Z</time>
      </trkpt>
      <trkpt lat="39.449924" lon="-2.088181">
        <ele>699.163393</ele>
        <time>2021-11-03T16:19:53.349Z</time>
      </trkpt>
      <trkpt lat="39.449510" lon="-2.088278">
        <ele>698.896092</ele>
        <time>2021-11-03T16:19:53.349Z</time>
      </trkpt>
      <trkpt lat="39.449452" lon="-2.088296">
        <ele>698.852107</ele>
        <time>2021-11-03T16:19:53.349Z</time>
      </trkpt>
      <trkpt lat="39.449110" lon="-2.088378">
        <ele>698.595598</ele>
        <time>2021-11-03T16:19:53.349Z</time>
      </trkpt>
      <trkpt lat="39.449058" lon="-2.088382">
        <ele>698.557181</ele>
        <time>2021-11-03T16:19:53.349Z</time>
      </trkpt>
      <trkpt lat="39.448904" lon="-2.088406">
        <ele>698.442788</ele>
        <time>2021-11-03T16:19:53.349Z</time>
      </trkpt>
      <trkpt lat="39.448863" lon="-2.088396">
        <ele>698.412019</ele>
        <time>2021-11-03T16:19:53.349Z</time>
      </trkpt>
      <trkpt lat="39.448828" lon="-2.088385">
        <ele>698.385458</ele>
        <time>2021-11-03T16:19:53.349Z</time>
      </trkpt>
      <trkpt lat="39.448784" lon="-2.088400">
        <ele>698.351903</ele>
        <time>2021-11-03T16:19:53.349Z</time>
      </trkpt>
      <trkpt lat="39.448667" lon="-2.088404">
        <ele>698.265586</ele>
        <time>2021-11-03T16:19:53.349Z</time>
      </trkpt>
      <trkpt lat="39.448632" lon="-2.088419">
        <ele>698.238397</ele>
        <time>2021-11-03T16:19:53.349Z</time>
      </trkpt>
      <trkpt lat="39.448531" lon="-2.088412">
        <ele>698.163804</ele>
        <time>2021-11-03T16:19:53.349Z</time>
      </trkpt>
      <trkpt lat="39.448432" lon="-2.088414">
        <ele>698.090784</ele>
        <time>2021-11-03T16:19:53.349Z</time>
      </trkpt>
      <trkpt lat="39.448342" lon="-2.088421">
        <ele>698.024290</ele>
        <time>2021-11-03T16:19:53.349Z</time>
      </trkpt>
      <trkpt lat="39.448327" lon="-2.088417">
        <ele>698.012995</ele>
        <time>2021-11-03T16:19:53.349Z</time>
      </trkpt>
      <trkpt lat="39.448305" lon="-2.088414">
        <ele>697.996681</ele>
        <time>2021-11-03T16:19:53.349Z</time>
      </trkpt>
      <trkpt lat="39.448225" lon="-2.088423">
        <ele>697.937459</ele>
        <time>2021-11-03T16:19:53.349Z</time>
      </trkpt>
      <trkpt lat="39.448117" lon="-2.088412">
        <ele>697.857564</ele>
        <time>2021-11-03T16:19:53.349Z</time>
      </trkpt>
      <trkpt lat="39.448104" lon="-2.088392">
        <ele>697.842677</ele>
        <time>2021-11-03T16:19:53.349Z</time>
      </trkpt>
      <trkpt lat="39.448081" lon="-2.088319">
        <ele>697.797777</ele>
        <time>2021-11-03T16:19:53.349Z</time>
      </trkpt>
      <trkpt lat="39.448080" lon="-2.088302">
        <ele>697.788067</ele>
        <time>2021-11-03T16:19:53.349Z</time>
      </trkpt>
      <trkpt lat="39.448063" lon="-2.088195">
        <ele>697.777308</ele>
        <time>2021-11-03T16:19:53.349Z</time>
      </trkpt>
      <trkpt lat="39.448057" lon="-2.088158">
        <ele>697.777308</ele>
        <time>2021-11-03T16:19:53.349Z</time>
      </trkpt>
      <trkpt lat="39.448056" lon="-2.088129">
        <ele>697.777308</ele>
        <time>2021-11-03T16:19:53.349Z</time>
      </trkpt>
      <trkpt lat="39.448033" lon="-2.088038">
        <ele>697.777308</ele>
        <time>2021-11-03T16:19:53.349Z</time>
      </trkpt>
      <trkpt lat="39.448026" lon="-2.088004">
        <ele>697.777308</ele>
        <time>2021-11-03T16:19:53.349Z</time>
      </trkpt>
      <trkpt lat="39.448021" lon="-2.087991">
        <ele>697.777308</ele>
        <time>2021-11-03T16:19:53.349Z</time>
      </trkpt>
      <trkpt lat="39.447967" lon="-2.087969">
        <ele>697.777308</ele>
        <time>2021-11-03T16:19:53.349Z</time>
      </trkpt>
      <trkpt lat="39.447937" lon="-2.087970">
        <ele>697.777308</ele>
        <time>2021-11-03T16:19:53.349Z</time>
      </trkpt>
      <trkpt lat="39.447909" lon="-2.087965">
        <ele>697.777308</ele>
        <time>2021-11-03T16:19:53.349Z</time>
      </trkpt>
      <trkpt lat="39.447893" lon="-2.087972">
        <ele>697.777308</ele>
        <time>2021-11-03T16:19:53.349Z</time>
      </trkpt>
      <trkpt lat="39.447873" lon="-2.087973">
        <ele>697.777308</ele>
        <time>2021-11-03T16:19:53.349Z</time>
      </trkpt>
      <trkpt lat="39.447850" lon="-2.087967">
        <ele>697.777308</ele>
        <time>2021-11-03T16:19:53.349Z</time>
      </trkpt>
      <trkpt lat="39.447789" lon="-2.087956">
        <ele>697.777308</ele>
        <time>2021-11-03T16:19:53.349Z</time>
      </trkpt>
      <trkpt lat="39.447587" lon="-2.087911">
        <ele>697.777308</ele>
        <time>2021-11-03T16:19:53.349Z</time>
      </trkpt>
      <trkpt lat="39.447457" lon="-2.087885">
        <ele>697.777308</ele>
        <time>2021-11-03T16:19:53.349Z</time>
      </trkpt>
      <trkpt lat="39.447347" lon="-2.087869">
        <ele>697.777308</ele>
        <time>2021-11-03T16:19:53.349Z</time>
      </trkpt>
      <trkpt lat="39.447311" lon="-2.087875">
        <ele>697.777308</ele>
        <time>2021-11-03T16:19:53.349Z</time>
      </trkpt>
      <trkpt lat="39.447259" lon="-2.087880">
        <ele>697.777308</ele>
        <time>2021-11-03T16:19:53.349Z</time>
      </trkpt>
      <trkpt lat="39.447205" lon="-2.087830">
        <ele>697.777308</ele>
        <time>2021-11-03T16:19:53.349Z</time>
      </trkpt>
      <trkpt lat="39.447028" lon="-2.087567">
        <ele>697.777308</ele>
        <time>2021-11-03T16:19:53.349Z</time>
      </trkpt>
      <trkpt lat="39.446954" lon="-2.087454">
        <ele>697.777308</ele>
        <time>2021-11-03T16:19:53.349Z</time>
      </trkpt>
      <trkpt lat="39.446794" lon="-2.087247">
        <ele>697.777308</ele>
        <time>2021-11-03T16:19:53.349Z</time>
      </trkpt>
      <trkpt lat="39.446747" lon="-2.087210">
        <ele>697.777308</ele>
        <time>2021-11-03T16:19:53.349Z</time>
      </trkpt>
      <trkpt lat="39.446695" lon="-2.087184">
        <ele>697.777308</ele>
        <time>2021-11-03T16:19:53.349Z</time>
      </trkpt>
      <trkpt lat="39.446613" lon="-2.087153">
        <ele>697.777308</ele>
        <time>2021-11-03T16:19:53.349Z</time>
      </trkpt>
      <trkpt lat="39.446597" lon="-2.087148">
        <ele>697.777308</ele>
        <time>2021-11-03T16:19:53.349Z</time>
      </trkpt>
      <trkpt lat="39.446588" lon="-2.087149">
        <ele>697.777308</ele>
        <time>2021-11-03T16:19:53.349Z</time>
      </trkpt>
      <trkpt lat="39.446582" lon="-2.087152">
        <ele>697.777308</ele>
        <time>2021-11-03T16:19:53.349Z</time>
      </trkpt>
      <trkpt lat="39.446543" lon="-2.087144">
        <ele>696.587139</ele>
        <time>2021-10-28T09:03:49.000Z</time>
      </trkpt>
      <trkpt lat="39.446543" lon="-2.087144">
        <ele>696.587139</ele>
        <time>2021-10-28T09:03:50.000Z</time>
      </trkpt>
      <trkpt lat="39.446543" lon="-2.087144">
        <ele>696.587139</ele>
        <time>2021-10-28T09:03:59.000Z</time>
      </trkpt>
      <trkpt lat="39.446543" lon="-2.087144">
        <ele>696.587139</ele>
        <time>2021-10-28T09:04:06.000Z</time>
      </trkpt>
      <trkpt lat="39.446551" lon="-2.087122">
        <ele>696.587139</ele>
        <time>2021-10-28T09:04:09.000Z</time>
      </trkpt>
      <trkpt lat="39.446553" lon="-2.087126">
        <ele>696.587139</ele>
        <time>2021-10-28T09:04:12.000Z</time>
      </trkpt>
      <trkpt lat="39.446536" lon="-2.087099">
        <ele>696.587139</ele>
        <time>2021-10-28T09:04:20.000Z</time>
      </trkpt>
      <trkpt lat="39.446446" lon="-2.087024">
        <ele>696.587139</ele>
        <time>2021-10-28T09:04:24.000Z</time>
      </trkpt>
      <trkpt lat="39.446319" lon="-2.086922">
        <ele>696.587139</ele>
        <time>2021-10-28T09:04:28.000Z</time>
      </trkpt>
      <trkpt lat="39.446246" lon="-2.086883">
        <ele>696.587139</ele>
        <time>2021-10-28T09:04:30.000Z</time>
      </trkpt>
      <trkpt lat="39.446206" lon="-2.086866">
        <ele>696.587139</ele>
        <time>2021-10-28T09:04:31.000Z</time>
      </trkpt>
      <trkpt lat="39.445966" lon="-2.086758">
        <ele>696.587139</ele>
        <time>2021-10-28T09:04:37.000Z</time>
      </trkpt>
      <trkpt lat="39.445927" lon="-2.086740">
        <ele>696.587139</ele>
        <time>2021-10-28T09:04:38.000Z</time>
      </trkpt>
      <trkpt lat="39.445887" lon="-2.086725">
        <ele>696.587139</ele>
        <time>2021-10-28T09:04:39.000Z</time>
      </trkpt>
      <trkpt lat="39.445686" lon="-2.086633">
        <ele>696.677143</ele>
        <time>2021-10-28T09:04:44.000Z</time>
      </trkpt>
      <trkpt lat="39.445605" lon="-2.086585">
        <ele>696.780084</ele>
        <time>2021-10-28T09:04:46.000Z</time>
      </trkpt>
      <trkpt lat="39.445528" lon="-2.086529">
        <ele>696.882139</ele>
        <time>2021-10-28T09:04:48.000Z</time>
      </trkpt>
      <trkpt lat="39.445464" lon="-2.086417">
        <ele>697.006477</ele>
        <time>2021-10-28T09:04:51.000Z</time>
      </trkpt>
      <trkpt lat="39.445453" lon="-2.086380">
        <ele>697.041859</ele>
        <time>2021-10-28T09:04:52.000Z</time>
      </trkpt>
      <trkpt lat="39.445427" lon="-2.086248">
        <ele>697.163427</ele>
        <time>2021-10-28T09:04:57.000Z</time>
      </trkpt>
      <trkpt lat="39.445422" lon="-2.086214">
        <ele>697.194314</ele>
        <time>2021-10-28T09:04:58.000Z</time>
      </trkpt>
      <trkpt lat="39.445405" lon="-2.086135">
        <ele>697.267500</ele>
        <time>2021-10-28T09:05:00.000Z</time>
      </trkpt>
      <trkpt lat="39.445358" lon="-2.085957">
        <ele>697.435377</ele>
        <time>2021-10-28T09:05:04.000Z</time>
      </trkpt>
      <trkpt lat="39.445301" lon="-2.085781">
        <ele>697.605694</ele>
        <time>2021-10-28T09:06:05.000Z</time>
      </trkpt>
      <trkpt lat="39.445282" lon="-2.085812">
        <ele>697.641013</ele>
        <time>2021-10-28T09:06:06.000Z</time>
      </trkpt>
      <trkpt lat="39.445216" lon="-2.085866">
        <ele>697.731232</ele>
        <time>2021-10-28T09:06:08.000Z</time>
      </trkpt>
      <trkpt lat="39.445141" lon="-2.085905">
        <ele>697.824631</ele>
        <time>2021-10-28T09:06:10.000Z</time>
      </trkpt>
      <trkpt lat="39.445027" lon="-2.085930">
        <ele>697.958247</ele>
        <time>2021-10-28T09:06:13.000Z</time>
      </trkpt>
      <trkpt lat="39.444999" lon="-2.085946">
        <ele>697.993615</ele>
        <time>2021-10-28T09:06:14.000Z</time>
      </trkpt>
      <trkpt lat="39.444895" lon="-2.086025">
        <ele>698.132951</ele>
        <time>2021-10-28T09:06:17.000Z</time>
      </trkpt>
      <trkpt lat="39.444857" lon="-2.086063">
        <ele>698.188434</ele>
        <time>2021-10-28T09:06:18.000Z</time>
      </trkpt>
      <trkpt lat="39.444816" lon="-2.086103">
        <ele>698.247757</ele>
        <time>2021-10-28T09:06:19.000Z</time>
      </trkpt>
      <trkpt lat="39.444679" lon="-2.086197">
        <ele>698.426928</ele>
        <time>2021-10-28T09:06:22.000Z</time>
      </trkpt>
      <trkpt lat="39.444646" lon="-2.086206">
        <ele>698.465900</ele>
        <time>2021-10-28T09:06:23.000Z</time>
      </trkpt>
      <trkpt lat="39.444603" lon="-2.086187">
        <ele>698.518405</ele>
        <time>2021-10-28T09:06:25.000Z</time>
      </trkpt>
      <trkpt lat="39.444554" lon="-2.086163">
        <ele>698.578945</ele>
        <time>2021-10-28T09:06:27.000Z</time>
      </trkpt>
      <trkpt lat="39.444510" lon="-2.086155">
        <ele>698.630291</ele>
        <time>2021-10-28T09:06:28.000Z</time>
      </trkpt>
      <trkpt lat="39.444433" lon="-2.086113">
        <ele>698.769718</ele>
        <time>2021-10-28T09:06:30.000Z</time>
      </trkpt>
      <trkpt lat="39.444362" lon="-2.086037">
        <ele>698.950791</ele>
        <time>2021-10-28T09:06:33.000Z</time>
      </trkpt>
      <trkpt lat="39.444332" lon="-2.086021">
        <ele>699.014567</ele>
        <time>2021-10-28T09:06:34.000Z</time>
      </trkpt>
      <trkpt lat="39.444266" lon="-2.085992">
        <ele>699.151568</ele>
        <time>2021-10-28T09:06:36.000Z</time>
      </trkpt>
      <trkpt lat="39.444147" lon="-2.085974">
        <ele>699.387075</ele>
        <time>2021-10-28T09:06:39.000Z</time>
      </trkpt>
      <trkpt lat="39.444069" lon="-2.086007">
        <ele>699.548374</ele>
        <time>2021-10-28T09:06:41.000Z</time>
      </trkpt>
      <trkpt lat="39.444029" lon="-2.086019">
        <ele>699.629084</ele>
        <time>2021-10-28T09:06:42.000Z</time>
      </trkpt>
      <trkpt lat="39.443987" lon="-2.086029">
        <ele>699.713027</ele>
        <time>2021-10-28T09:06:43.000Z</time>
      </trkpt>
      <trkpt lat="39.443901" lon="-2.086057">
        <ele>699.887338</ele>
        <time>2021-10-28T09:06:45.000Z</time>
      </trkpt>
      <trkpt lat="39.443819" lon="-2.086083">
        <ele>700.053286</ele>
        <time>2021-10-28T09:06:47.000Z</time>
      </trkpt>
      <trkpt lat="39.443733" lon="-2.086084">
        <ele>700.222341</ele>
        <time>2021-10-28T09:06:49.000Z</time>
      </trkpt>
      <trkpt lat="39.443646" lon="-2.086076">
        <ele>700.393787</ele>
        <time>2021-10-28T09:06:51.000Z</time>
      </trkpt>
      <trkpt lat="39.443427" lon="-2.086081">
        <ele>700.824339</ele>
        <time>2021-10-28T09:06:56.000Z</time>
      </trkpt>
      <trkpt lat="39.443384" lon="-2.086075">
        <ele>700.909353</ele>
        <time>2021-10-28T09:06:57.000Z</time>
      </trkpt>
      <trkpt lat="39.443270" lon="-2.086016">
        <ele>701.150676</ele>
        <time>2021-10-28T09:07:00.000Z</time>
      </trkpt>
      <trkpt lat="39.443235" lon="-2.085989">
        <ele>701.230759</ele>
        <time>2021-10-28T09:07:01.000Z</time>
      </trkpt>
      <trkpt lat="39.443132" lon="-2.085960">
        <ele>701.437955</ele>
        <time>2021-10-28T09:07:04.000Z</time>
      </trkpt>
      <trkpt lat="39.443096" lon="-2.085969">
        <ele>701.510026</ele>
        <time>2021-10-28T09:07:05.000Z</time>
      </trkpt>
      <trkpt lat="39.442896" lon="-2.086037">
        <ele>701.916490</ele>
        <time>2021-10-28T09:07:11.000Z</time>
      </trkpt>
      <trkpt lat="39.442782" lon="-2.086035">
        <ele>702.140599</ele>
        <time>2021-10-28T09:07:14.000Z</time>
      </trkpt>
      <trkpt lat="39.442599" lon="-2.086024">
        <ele>702.324563</ele>
        <time>2021-10-28T09:07:19.000Z</time>
      </trkpt>
      <trkpt lat="39.442428" lon="-2.086008">
        <ele>702.463337</ele>
        <time>2021-10-28T09:07:24.000Z</time>
      </trkpt>
      <trkpt lat="39.442319" lon="-2.086008">
        <ele>702.551565</ele>
        <time>2021-10-28T09:07:27.000Z</time>
      </trkpt>
      <trkpt lat="39.442210" lon="-2.086015">
        <ele>702.639902</ele>
        <time>2021-10-28T09:07:30.000Z</time>
      </trkpt>
      <trkpt lat="39.442138" lon="-2.086030">
        <ele>702.698930</ele>
        <time>2021-10-28T09:07:32.000Z</time>
      </trkpt>
      <trkpt lat="39.442055" lon="-2.086046">
        <ele>702.766854</ele>
        <time>2021-10-28T09:07:34.000Z</time>
      </trkpt>
      <trkpt lat="39.442014" lon="-2.086057">
        <ele>702.800745</ele>
        <time>2021-10-28T09:07:35.000Z</time>
      </trkpt>
      <trkpt lat="39.441972" lon="-2.086071">
        <ele>702.835850</ele>
        <time>2021-10-28T09:07:36.000Z</time>
      </trkpt>
      <trkpt lat="39.441805" lon="-2.086111">
        <ele>702.973318</ele>
        <time>2021-10-28T09:07:40.000Z</time>
      </trkpt>
      <trkpt lat="39.441626" lon="-2.086151">
        <ele>703.120348</ele>
        <time>2021-10-28T09:07:44.000Z</time>
      </trkpt>
      <trkpt lat="39.441483" lon="-2.086209">
        <ele>703.241643</ele>
        <time>2021-10-28T09:07:47.000Z</time>
      </trkpt>
      <trkpt lat="39.441329" lon="-2.086271">
        <ele>703.372181</ele>
        <time>2021-10-28T09:07:50.000Z</time>
      </trkpt>
      <trkpt lat="39.441275" lon="-2.086292">
        <ele>703.417819</ele>
        <time>2021-10-28T09:07:51.000Z</time>
      </trkpt>
      <trkpt lat="39.441156" lon="-2.086313">
        <ele>703.515032</ele>
        <time>2021-10-28T09:07:53.000Z</time>
      </trkpt>
      <trkpt lat="39.441026" lon="-2.086323">
        <ele>703.620444</ele>
        <time>2021-10-28T09:07:55.000Z</time>
      </trkpt>
      <trkpt lat="39.440957" lon="-2.086336">
        <ele>703.692425</ele>
        <time>2021-10-28T09:07:56.000Z</time>
      </trkpt>
      <trkpt lat="39.440825" lon="-2.086389">
        <ele>703.892330</ele>
        <time>2021-10-28T09:07:58.000Z</time>
      </trkpt>
      <trkpt lat="39.440614" lon="-2.086525">
        <ele>704.233261</ele>
        <time>2021-10-28T09:08:02.000Z</time>
      </trkpt>
      <trkpt lat="39.440564" lon="-2.086548">
        <ele>704.310014</ele>
        <time>2021-10-28T09:08:03.000Z</time>
      </trkpt>
      <trkpt lat="39.440514" lon="-2.086565">
        <ele>704.384790</ele>
        <time>2021-10-28T09:08:04.000Z</time>
      </trkpt>
      <trkpt lat="39.440413" lon="-2.086587">
        <ele>704.532938</ele>
        <time>2021-10-28T09:08:06.000Z</time>
      </trkpt>
      <trkpt lat="39.440363" lon="-2.086594">
        <ele>704.605684</ele>
        <time>2021-10-28T09:08:07.000Z</time>
      </trkpt>
      <trkpt lat="39.440209" lon="-2.086599">
        <ele>704.828514</ele>
        <time>2021-10-28T09:08:10.000Z</time>
      </trkpt>
      <trkpt lat="39.439966" lon="-2.086569">
        <ele>705.181604</ele>
        <time>2021-10-28T09:08:15.000Z</time>
      </trkpt>
      <trkpt lat="39.439830" lon="-2.086536">
        <ele>705.381751</ele>
        <time>2021-10-28T09:08:18.000Z</time>
      </trkpt>
      <trkpt lat="39.439570" lon="-2.086452">
        <ele>705.769368</ele>
        <time>2021-10-28T09:08:24.000Z</time>
      </trkpt>
      <trkpt lat="39.439526" lon="-2.086438">
        <ele>705.834907</ele>
        <time>2021-10-28T09:08:25.000Z</time>
      </trkpt>
      <trkpt lat="39.439482" lon="-2.086428">
        <ele>705.899526</ele>
        <time>2021-10-28T09:08:26.000Z</time>
      </trkpt>
      <trkpt lat="39.439258" lon="-2.086367">
        <ele>706.230627</ele>
        <time>2021-10-28T09:08:31.000Z</time>
      </trkpt>
      <trkpt lat="39.439159" lon="-2.086353">
        <ele>706.293666</ele>
        <time>2021-10-28T09:08:33.000Z</time>
      </trkpt>
      <trkpt lat="39.439058" lon="-2.086364">
        <ele>706.337732</ele>
        <time>2021-10-28T09:08:35.000Z</time>
      </trkpt>
      <trkpt lat="39.439010" lon="-2.086377">
        <ele>706.359052</ele>
        <time>2021-10-28T09:08:36.000Z</time>
      </trkpt>
      <trkpt lat="39.438872" lon="-2.086422">
        <ele>706.420922</ele>
        <time>2021-10-28T09:08:39.000Z</time>
      </trkpt>
      <trkpt lat="39.438736" lon="-2.086471">
        <ele>706.482296</ele>
        <time>2021-10-28T09:08:42.000Z</time>
      </trkpt>
      <trkpt lat="39.438550" lon="-2.086536">
        <ele>706.566055</ele>
        <time>2021-10-28T09:08:46.000Z</time>
      </trkpt>
      <trkpt lat="39.438279" lon="-2.086630">
        <ele>706.688029</ele>
        <time>2021-10-28T09:08:52.000Z</time>
      </trkpt>
      <trkpt lat="39.438190" lon="-2.086662">
        <ele>706.728186</ele>
        <time>2021-10-28T09:08:54.000Z</time>
      </trkpt>
      <trkpt lat="39.438101" lon="-2.086691">
        <ele>706.768086</ele>
        <time>2021-10-28T09:08:56.000Z</time>
      </trkpt>
      <trkpt lat="39.437915" lon="-2.086730">
        <ele>706.850005</ele>
        <time>2021-10-28T09:09:00.000Z</time>
      </trkpt>
      <trkpt lat="39.437762" lon="-2.086749">
        <ele>706.916829</ele>
        <time>2021-10-28T09:09:03.000Z</time>
      </trkpt>
      <trkpt lat="39.437654" lon="-2.086749">
        <ele>706.963783</ele>
        <time>2021-10-28T09:09:05.000Z</time>
      </trkpt>
      <trkpt lat="39.437484" lon="-2.086745">
        <ele>707.037704</ele>
        <time>2021-10-28T09:09:08.000Z</time>
      </trkpt>
      <trkpt lat="39.437247" lon="-2.086730">
        <ele>706.827417</ele>
        <time>2021-10-28T09:09:12.000Z</time>
      </trkpt>
      <trkpt lat="39.437186" lon="-2.086718">
        <ele>706.770190</ele>
        <time>2021-10-28T09:09:13.000Z</time>
      </trkpt>
      <trkpt lat="39.436943" lon="-2.086621">
        <ele>706.534339</ele>
        <time>2021-10-28T09:09:17.000Z</time>
      </trkpt>
      <trkpt lat="39.436822" lon="-2.086566">
        <ele>706.415396</ele>
        <time>2021-10-28T09:09:19.000Z</time>
      </trkpt>
      <trkpt lat="39.436702" lon="-2.086521">
        <ele>706.299521</ele>
        <time>2021-10-28T09:09:21.000Z</time>
      </trkpt>
      <trkpt lat="39.436530" lon="-2.086510">
        <ele>706.139795</ele>
        <time>2021-10-28T09:09:24.000Z</time>
      </trkpt>
      <trkpt lat="39.436274" lon="-2.086538">
        <ele>705.901508</ele>
        <time>2021-10-28T09:09:29.000Z</time>
      </trkpt>
      <trkpt lat="39.436049" lon="-2.086545">
        <ele>705.692759</ele>
        <time>2021-10-28T09:09:33.000Z</time>
      </trkpt>
      <trkpt lat="39.435923" lon="-2.086553">
        <ele>705.575753</ele>
        <time>2021-10-28T09:09:35.000Z</time>
      </trkpt>
      <trkpt lat="39.435859" lon="-2.086567">
        <ele>705.515552</ele>
        <time>2021-10-28T09:09:36.000Z</time>
      </trkpt>
      <trkpt lat="39.435741" lon="-2.086622">
        <ele>705.399230</ele>
        <time>2021-10-28T09:09:38.000Z</time>
      </trkpt>
      <trkpt lat="39.435687" lon="-2.086658">
        <ele>705.316874</ele>
        <time>2021-10-28T09:09:39.000Z</time>
      </trkpt>
      <trkpt lat="39.435555" lon="-2.086778">
        <ele>705.036130</ele>
        <time>2021-10-28T09:09:42.000Z</time>
      </trkpt>
      <trkpt lat="39.435514" lon="-2.086820">
        <ele>704.945129</ele>
        <time>2021-10-28T09:09:43.000Z</time>
      </trkpt>
      <trkpt lat="39.435225" lon="-2.087066">
        <ele>704.343110</ele>
        <time>2021-10-28T09:09:50.000Z</time>
      </trkpt>
      <trkpt lat="39.434900" lon="-2.087305">
        <ele>703.692524</ele>
        <time>2021-10-28T09:09:56.000Z</time>
      </trkpt>
      <trkpt lat="39.434836" lon="-2.087344">
        <ele>703.569402</ele>
        <time>2021-10-28T09:09:57.000Z</time>
      </trkpt>
      <trkpt lat="39.434622" lon="-2.087463">
        <ele>703.164004</ele>
        <time>2021-10-28T09:10:00.000Z</time>
      </trkpt>
      <trkpt lat="39.434467" lon="-2.087542">
        <ele>702.874053</ele>
        <time>2021-10-28T09:10:02.000Z</time>
      </trkpt>
      <trkpt lat="39.434256" lon="-2.087665">
        <ele>702.471270</ele>
        <time>2021-10-28T09:10:05.000Z</time>
      </trkpt>
      <trkpt lat="39.434194" lon="-2.087704">
        <ele>702.351288</ele>
        <time>2021-10-28T09:10:06.000Z</time>
      </trkpt>
      <trkpt lat="39.434139" lon="-2.087743">
        <ele>702.242135</ele>
        <time>2021-10-28T09:10:07.000Z</time>
      </trkpt>
      <trkpt lat="39.434085" lon="-2.087777">
        <ele>702.223843</ele>
        <time>2021-10-28T09:10:08.000Z</time>
      </trkpt>
      <trkpt lat="39.433978" lon="-2.087845">
        <ele>702.188100</ele>
        <time>2021-10-28T09:10:10.000Z</time>
      </trkpt>
      <trkpt lat="39.433927" lon="-2.087876">
        <ele>702.171206</ele>
        <time>2021-10-28T09:10:11.000Z</time>
      </trkpt>
      <trkpt lat="39.433779" lon="-2.087974">
        <ele>702.121358</ele>
        <time>2021-10-28T09:10:14.000Z</time>
      </trkpt>
      <trkpt lat="39.433731" lon="-2.088006">
        <ele>702.105168</ele>
        <time>2021-10-28T09:10:15.000Z</time>
      </trkpt>
      <trkpt lat="39.433684" lon="-2.088039">
        <ele>702.089135</ele>
        <time>2021-10-28T09:10:16.000Z</time>
      </trkpt>
      <trkpt lat="39.433639" lon="-2.088073">
        <ele>702.073512</ele>
        <time>2021-10-28T09:10:17.000Z</time>
      </trkpt>
      <trkpt lat="39.433595" lon="-2.088108">
        <ele>702.058026</ele>
        <time>2021-10-28T09:10:18.000Z</time>
      </trkpt>
      <trkpt lat="39.433551" lon="-2.088145">
        <ele>702.042293</ele>
        <time>2021-10-28T09:10:19.000Z</time>
      </trkpt>
      <trkpt lat="39.433509" lon="-2.088183">
        <ele>702.026929</ele>
        <time>2021-10-28T09:10:20.000Z</time>
      </trkpt>
      <trkpt lat="39.433423" lon="-2.088264">
        <ele>701.995038</ele>
        <time>2021-10-28T09:10:22.000Z</time>
      </trkpt>
      <trkpt lat="39.433379" lon="-2.088307">
        <ele>701.978507</ele>
        <time>2021-10-28T09:10:23.000Z</time>
      </trkpt>
      <trkpt lat="39.433231" lon="-2.088425">
        <ele>701.926387</ele>
        <time>2021-10-28T09:10:26.000Z</time>
      </trkpt>
      <trkpt lat="39.433119" lon="-2.088501">
        <ele>701.888468</ele>
        <time>2021-10-28T09:10:28.000Z</time>
      </trkpt>
      <trkpt lat="39.432886" lon="-2.088648">
        <ele>701.810745</ele>
        <time>2021-10-28T09:10:32.000Z</time>
      </trkpt>
      <trkpt lat="39.432659" lon="-2.088803">
        <ele>701.733789</ele>
        <time>2021-10-28T09:10:36.000Z</time>
      </trkpt>
      <trkpt lat="39.432610" lon="-2.088851">
        <ele>701.715364</ele>
        <time>2021-10-28T09:10:37.000Z</time>
      </trkpt>
      <trkpt lat="39.432355" lon="-2.089182">
        <ele>701.560295</ele>
        <time>2021-10-28T09:10:43.000Z</time>
      </trkpt>
      <trkpt lat="39.432069" lon="-2.089430">
        <ele>701.406423</ele>
        <time>2021-10-28T09:10:49.000Z</time>
      </trkpt>
      <trkpt lat="39.431637" lon="-2.089645">
        <ele>701.199535</ele>
        <time>2021-10-28T09:10:57.000Z</time>
      </trkpt>
      <trkpt lat="39.431312" lon="-2.089696">
        <ele>701.053191</ele>
        <time>2021-10-28T09:11:02.000Z</time>
      </trkpt>
      <trkpt lat="39.431246" lon="-2.089709">
        <ele>701.023348</ele>
        <time>2021-10-28T09:11:03.000Z</time>
      </trkpt>
      <trkpt lat="39.430833" lon="-2.089801">
        <ele>701.100637</ele>
        <time>2021-10-28T09:11:10.000Z</time>
      </trkpt>
      <trkpt lat="39.430628" lon="-2.089816">
        <ele>701.398143</ele>
        <time>2021-10-28T09:11:14.000Z</time>
      </trkpt>
      <trkpt lat="39.430433" lon="-2.089824">
        <ele>701.680826</ele>
        <time>2021-10-28T09:11:18.000Z</time>
      </trkpt>
      <trkpt lat="39.430146" lon="-2.089846">
        <ele>702.097398</ele>
        <time>2021-10-28T09:11:24.000Z</time>
      </trkpt>
      <trkpt lat="39.429910" lon="-2.089865">
        <ele>702.440006</ele>
        <time>2021-10-28T09:11:29.000Z</time>
      </trkpt>
      <trkpt lat="39.429681" lon="-2.089895">
        <ele>702.773506</ele>
        <time>2021-10-28T09:11:34.000Z</time>
      </trkpt>
      <trkpt lat="39.429591" lon="-2.089912">
        <ele>702.905291</ele>
        <time>2021-10-28T09:11:36.000Z</time>
      </trkpt>
      <trkpt lat="39.429545" lon="-2.089916">
        <ele>702.972092</ele>
        <time>2021-10-28T09:11:37.000Z</time>
      </trkpt>
      <trkpt lat="39.429498" lon="-2.089920">
        <ele>703.040339</ele>
        <time>2021-10-28T09:11:38.000Z</time>
      </trkpt>
      <trkpt lat="39.429023" lon="-2.089962">
        <ele>703.471094</ele>
        <time>2021-10-28T09:11:48.000Z</time>
      </trkpt>
      <trkpt lat="39.428975" lon="-2.089968">
        <ele>703.460745</ele>
        <time>2021-10-28T09:11:49.000Z</time>
      </trkpt>
      <trkpt lat="39.428879" lon="-2.089980">
        <ele>703.440046</ele>
        <time>2021-10-28T09:11:51.000Z</time>
      </trkpt>
      <trkpt lat="39.428785" lon="-2.089990">
        <ele>703.419804</ele>
        <time>2021-10-28T09:11:53.000Z</time>
      </trkpt>
      <trkpt lat="39.428552" lon="-2.090008">
        <ele>703.369709</ele>
        <time>2021-10-28T09:11:58.000Z</time>
      </trkpt>
      <trkpt lat="39.428455" lon="-2.090010">
        <ele>703.348889</ele>
        <time>2021-10-28T09:12:00.000Z</time>
      </trkpt>
      <trkpt lat="39.428359" lon="-2.090017">
        <ele>703.328253</ele>
        <time>2021-10-28T09:12:02.000Z</time>
      </trkpt>
      <trkpt lat="39.428124" lon="-2.090053">
        <ele>703.277466</ele>
        <time>2021-10-28T09:12:07.000Z</time>
      </trkpt>
      <trkpt lat="39.427809" lon="-2.090137">
        <ele>703.208443</ele>
        <time>2021-10-28T09:12:14.000Z</time>
      </trkpt>
      <trkpt lat="39.427670" lon="-2.090178">
        <ele>703.177846</ele>
        <time>2021-10-28T09:12:17.000Z</time>
      </trkpt>
      <trkpt lat="39.427350" lon="-2.090239">
        <ele>703.078304</ele>
        <time>2021-10-28T09:12:23.000Z</time>
      </trkpt>
      <trkpt lat="39.427232" lon="-2.090258">
        <ele>702.976459</ele>
        <time>2021-10-28T09:12:25.000Z</time>
      </trkpt>
      <trkpt lat="39.427173" lon="-2.090272">
        <ele>702.925084</ele>
        <time>2021-10-28T09:12:26.000Z</time>
      </trkpt>
      <trkpt lat="39.426770" lon="-2.090392">
        <ele>702.570906</ele>
        <time>2021-10-28T09:12:33.000Z</time>
      </trkpt>
      <trkpt lat="39.426383" lon="-2.090537">
        <ele>702.225841</ele>
        <time>2021-10-28T09:12:40.000Z</time>
      </trkpt>
      <trkpt lat="39.426327" lon="-2.090555">
        <ele>702.176421</ele>
        <time>2021-10-28T09:12:41.000Z</time>
      </trkpt>
      <trkpt lat="39.425869" lon="-2.090623">
        <ele>701.781577</ele>
        <time>2021-10-28T09:12:49.000Z</time>
      </trkpt>
      <trkpt lat="39.425412" lon="-2.090543">
        <ele>701.813581</ele>
        <time>2021-10-28T09:12:57.000Z</time>
      </trkpt>
      <trkpt lat="39.424862" lon="-2.090389">
        <ele>702.406909</ele>
        <time>2021-10-28T09:13:07.000Z</time>
      </trkpt>
      <trkpt lat="39.424752" lon="-2.090365">
        <ele>702.524528</ele>
        <time>2021-10-28T09:13:09.000Z</time>
      </trkpt>
      <trkpt lat="39.424591" lon="-2.090322">
        <ele>702.697862</ele>
        <time>2021-10-28T09:13:12.000Z</time>
      </trkpt>
      <trkpt lat="39.424338" lon="-2.090245">
        <ele>702.971897</ele>
        <time>2021-10-28T09:13:17.000Z</time>
      </trkpt>
      <trkpt lat="39.424289" lon="-2.090228">
        <ele>703.025386</ele>
        <time>2021-10-28T09:13:18.000Z</time>
      </trkpt>
      <trkpt lat="39.423910" lon="-2.090104">
        <ele>703.437567</ele>
        <time>2021-10-28T09:13:26.000Z</time>
      </trkpt>
      <trkpt lat="39.423684" lon="-2.090032">
        <ele>703.480871</ele>
        <time>2021-10-28T09:13:31.000Z</time>
      </trkpt>
      <trkpt lat="39.423595" lon="-2.090005">
        <ele>703.483833</ele>
        <time>2021-10-28T09:13:33.000Z</time>
      </trkpt>
      <trkpt lat="39.423464" lon="-2.089976">
        <ele>703.488140</ele>
        <time>2021-10-28T09:13:36.000Z</time>
      </trkpt>
      <trkpt lat="39.423195" lon="-2.089929">
        <ele>703.496935</ele>
        <time>2021-10-28T09:13:42.000Z</time>
      </trkpt>
      <trkpt lat="39.423149" lon="-2.089921">
        <ele>703.498439</ele>
        <time>2021-10-28T09:13:43.000Z</time>
      </trkpt>
      <trkpt lat="39.423054" lon="-2.089909">
        <ele>703.501532</ele>
        <time>2021-10-28T09:13:45.000Z</time>
      </trkpt>
      <trkpt lat="39.422659" lon="-2.089843">
        <ele>703.514438</ele>
        <time>2021-10-28T09:13:52.000Z</time>
      </trkpt>
      <trkpt lat="39.422461" lon="-2.089807">
        <ele>703.520916</ele>
        <time>2021-10-28T09:13:55.000Z</time>
      </trkpt>
      <trkpt lat="39.422326" lon="-2.089790">
        <ele>703.525312</ele>
        <time>2021-10-28T09:13:57.000Z</time>
      </trkpt>
      <trkpt lat="39.422197" lon="-2.089792">
        <ele>703.529492</ele>
        <time>2021-10-28T09:13:59.000Z</time>
      </trkpt>
      <trkpt lat="39.421918" lon="-2.089833">
        <ele>703.317907</ele>
        <time>2021-10-28T09:14:04.000Z</time>
      </trkpt>
      <trkpt lat="39.421776" lon="-2.089857">
        <ele>703.147348</ele>
        <time>2021-10-28T09:14:07.000Z</time>
      </trkpt>
      <trkpt lat="39.421591" lon="-2.089918">
        <ele>702.919974</ele>
        <time>2021-10-28T09:14:11.000Z</time>
      </trkpt>
      <trkpt lat="39.421545" lon="-2.089949">
        <ele>702.858208</ele>
        <time>2021-10-28T09:14:12.000Z</time>
      </trkpt>
      <trkpt lat="39.421500" lon="-2.089988">
        <ele>702.793709</ele>
        <time>2021-10-28T09:14:13.000Z</time>
      </trkpt>
      <trkpt lat="39.421245" lon="-2.090186">
        <ele>702.439554</ele>
        <time>2021-10-28T09:14:18.000Z</time>
      </trkpt>
      <trkpt lat="39.420828" lon="-2.090405">
        <ele>701.903583</ele>
        <time>2021-10-28T09:14:25.000Z</time>
      </trkpt>
      <trkpt lat="39.420768" lon="-2.090434">
        <ele>701.827303</ele>
        <time>2021-10-28T09:14:26.000Z</time>
      </trkpt>
      <trkpt lat="39.420647" lon="-2.090488">
        <ele>701.674866</ele>
        <time>2021-10-28T09:14:28.000Z</time>
      </trkpt>
      <trkpt lat="39.420460" lon="-2.090570">
        <ele>701.439714</ele>
        <time>2021-10-28T09:14:31.000Z</time>
      </trkpt>
      <trkpt lat="39.420336" lon="-2.090636">
        <ele>701.185713</ele>
        <time>2021-10-28T09:14:33.000Z</time>
      </trkpt>
      <trkpt lat="39.420148" lon="-2.090723">
        <ele>700.744953</ele>
        <time>2021-10-28T09:14:36.000Z</time>
      </trkpt>
      <trkpt lat="39.420083" lon="-2.090745">
        <ele>700.596633</ele>
        <time>2021-10-28T09:14:37.000Z</time>
      </trkpt>
      <trkpt lat="39.419884" lon="-2.090799">
        <ele>700.147765</ele>
        <time>2021-10-28T09:14:40.000Z</time>
      </trkpt>
      <trkpt lat="39.419554" lon="-2.090886">
        <ele>699.404290</ele>
        <time>2021-10-28T09:14:45.000Z</time>
      </trkpt>
      <trkpt lat="39.419230" lon="-2.090980">
        <ele>698.671271</ele>
        <time>2021-10-28T09:14:50.000Z</time>
      </trkpt>
      <trkpt lat="39.418956" lon="-2.090976">
        <ele>698.066340</ele>
        <time>2021-10-28T09:14:54.000Z</time>
      </trkpt>
      <trkpt lat="39.418888" lon="-2.090964">
        <ele>697.914832</ele>
        <time>2021-10-28T09:14:55.000Z</time>
      </trkpt>
      <trkpt lat="39.418608" lon="-2.090929">
        <ele>697.355095</ele>
        <time>2021-10-28T09:14:59.000Z</time>
      </trkpt>
      <trkpt lat="39.418337" lon="-2.090929">
        <ele>697.047863</ele>
        <time>2021-10-28T09:15:03.000Z</time>
      </trkpt>
      <trkpt lat="39.418170" lon="-2.090937">
        <ele>696.858406</ele>
        <time>2021-10-28T09:15:07.000Z</time>
      </trkpt>
      <trkpt lat="39.418087" lon="-2.090944">
        <ele>696.764110</ele>
        <time>2021-10-28T09:15:11.000Z</time>
      </trkpt>
      <trkpt lat="39.418004" lon="-2.090953">
        <ele>696.669683</ele>
        <time>2021-10-28T09:15:19.000Z</time>
      </trkpt>
      <trkpt lat="39.417923" lon="-2.090974">
        <ele>696.576030</ele>
        <time>2021-10-28T09:15:24.000Z</time>
      </trkpt>
      <trkpt lat="39.417903" lon="-2.090998">
        <ele>696.545112</ele>
        <time>2021-10-28T09:15:25.000Z</time>
      </trkpt>
      <trkpt lat="39.417822" lon="-2.091216">
        <ele>696.333247</ele>
        <time>2021-10-28T09:15:30.000Z</time>
      </trkpt>
      <trkpt lat="39.417753" lon="-2.091432">
        <ele>696.128534</ele>
        <time>2021-10-28T09:15:34.000Z</time>
      </trkpt>
      <trkpt lat="39.417690" lon="-2.091600">
        <ele>695.964977</ele>
        <time>2021-10-28T09:15:37.000Z</time>
      </trkpt>
      <trkpt lat="39.417642" lon="-2.091708">
        <ele>695.855852</ele>
        <time>2021-10-28T09:15:39.000Z</time>
      </trkpt>
      <trkpt lat="39.417618" lon="-2.091755">
        <ele>695.806508</ele>
        <time>2021-10-28T09:15:40.000Z</time>
      </trkpt>
      <trkpt lat="39.417586" lon="-2.091849">
        <ele>695.716542</ele>
        <time>2021-10-28T09:15:42.000Z</time>
      </trkpt>
      <trkpt lat="39.417544" lon="-2.092162">
        <ele>695.438304</ele>
        <time>2021-10-28T09:15:48.000Z</time>
      </trkpt>
      <trkpt lat="39.417542" lon="-2.092227">
        <ele>695.381330</ele>
        <time>2021-10-28T09:15:49.000Z</time>
      </trkpt>
      <trkpt lat="39.417541" lon="-2.092295">
        <ele>695.369032</ele>
        <time>2021-10-28T09:15:50.000Z</time>
      </trkpt>
      <trkpt lat="39.417546" lon="-2.092504">
        <ele>695.332867</ele>
        <time>2021-10-28T09:15:53.000Z</time>
      </trkpt>
      <trkpt lat="39.417551" lon="-2.092643">
        <ele>695.308800</ele>
        <time>2021-10-28T09:15:55.000Z</time>
      </trkpt>
      <trkpt lat="39.417657" lon="-2.093191">
        <ele>695.211095</ele>
        <time>2021-10-28T09:16:03.000Z</time>
      </trkpt>
      <trkpt lat="39.417781" lon="-2.093729">
        <ele>695.113992</ele>
        <time>2021-10-28T09:16:11.000Z</time>
      </trkpt>
      <trkpt lat="39.417801" lon="-2.093798">
        <ele>695.101246</ele>
        <time>2021-10-28T09:16:12.000Z</time>
      </trkpt>
      <trkpt lat="39.417959" lon="-2.094182">
        <ele>695.025999</ele>
        <time>2021-10-28T09:16:18.000Z</time>
      </trkpt>
      <trkpt lat="39.417992" lon="-2.094242">
        <ele>695.013261</ele>
        <time>2021-10-28T09:16:19.000Z</time>
      </trkpt>
      <trkpt lat="39.418061" lon="-2.094357">
        <ele>694.988077</ele>
        <time>2021-10-28T09:16:21.000Z</time>
      </trkpt>
      <trkpt lat="39.418096" lon="-2.094414">
        <ele>694.979495</ele>
        <time>2021-10-28T09:16:22.000Z</time>
      </trkpt>
      <trkpt lat="39.418131" lon="-2.094471">
        <ele>694.987097</ele>
        <time>2021-10-28T09:16:23.000Z</time>
      </trkpt>
      <trkpt lat="39.418234" lon="-2.094642">
        <ele>695.009736</ele>
        <time>2021-10-28T09:16:26.000Z</time>
      </trkpt>
      <trkpt lat="39.418341" lon="-2.094813">
        <ele>695.032712</ele>
        <time>2021-10-28T09:16:29.000Z</time>
      </trkpt>
      <trkpt lat="39.418613" lon="-2.095181">
        <ele>695.085887</ele>
        <time>2021-10-28T09:16:36.000Z</time>
      </trkpt>
      <trkpt lat="39.418653" lon="-2.095230">
        <ele>695.093330</ele>
        <time>2021-10-28T09:16:37.000Z</time>
      </trkpt>
      <trkpt lat="39.418979" lon="-2.095629">
        <ele>695.153965</ele>
        <time>2021-10-28T09:16:45.000Z</time>
      </trkpt>
      <trkpt lat="39.419020" lon="-2.095680">
        <ele>695.161650</ele>
        <time>2021-10-28T09:16:46.000Z</time>
      </trkpt>
      <trkpt lat="39.419139" lon="-2.095837">
        <ele>695.184614</ele>
        <time>2021-10-28T09:16:49.000Z</time>
      </trkpt>
      <trkpt lat="39.419317" lon="-2.096111">
        <ele>695.219568</ele>
        <time>2021-10-28T09:16:54.000Z</time>
      </trkpt>
      <trkpt lat="39.419329" lon="-2.096177">
        <ele>695.208003</ele>
        <time>2021-10-28T09:16:55.000Z</time>
      </trkpt>
      <trkpt lat="39.419322" lon="-2.096235">
        <ele>695.197991</ele>
        <time>2021-10-28T09:16:56.000Z</time>
      </trkpt>
      <trkpt lat="39.419261" lon="-2.096306">
        <ele>695.179880</ele>
        <time>2021-10-28T09:16:58.000Z</time>
      </trkpt>
      <trkpt lat="39.419038" lon="-2.096364">
        <ele>695.129661</ele>
        <time>2021-10-28T09:17:03.000Z</time>
      </trkpt>
      <trkpt lat="39.418744" lon="-2.096379">
        <ele>695.064701</ele>
        <time>2021-10-28T09:17:09.000Z</time>
      </trkpt>
      <trkpt lat="39.418642" lon="-2.096373">
        <ele>695.042158</ele>
        <time>2021-10-28T09:17:11.000Z</time>
      </trkpt>
      <trkpt lat="39.418269" lon="-2.096384">
        <ele>694.959785</ele>
        <time>2021-10-28T09:17:18.000Z</time>
      </trkpt>
      <trkpt lat="39.418214" lon="-2.096395">
        <ele>694.947498</ele>
        <time>2021-10-28T09:17:19.000Z</time>
      </trkpt>
      <trkpt lat="39.418161" lon="-2.096401">
        <ele>694.935751</ele>
        <time>2021-10-28T09:17:20.000Z</time>
      </trkpt>
      <trkpt lat="39.418108" lon="-2.096403">
        <ele>694.924045</ele>
        <time>2021-10-28T09:17:21.000Z</time>
      </trkpt>
      <trkpt lat="39.417947" lon="-2.096411">
        <ele>694.888473</ele>
        <time>2021-10-28T09:17:24.000Z</time>
      </trkpt>
      <trkpt lat="39.417893" lon="-2.096419">
        <ele>694.876473</ele>
        <time>2021-10-28T09:17:25.000Z</time>
      </trkpt>
      <trkpt lat="39.417582" lon="-2.096479">
        <ele>694.820499</ele>
        <time>2021-10-28T09:17:31.000Z</time>
      </trkpt>
      <trkpt lat="39.417530" lon="-2.096493">
        <ele>694.818098</ele>
        <time>2021-10-28T09:17:32.000Z</time>
      </trkpt>
      <trkpt lat="39.417477" lon="-2.096506">
        <ele>694.815659</ele>
        <time>2021-10-28T09:17:33.000Z</time>
      </trkpt>
      <trkpt lat="39.417371" lon="-2.096536">
        <ele>694.810753</ele>
        <time>2021-10-28T09:17:35.000Z</time>
      </trkpt>
      <trkpt lat="39.417042" lon="-2.096602">
        <ele>694.795699</ele>
        <time>2021-10-28T09:17:41.000Z</time>
      </trkpt>
      <trkpt lat="39.416987" lon="-2.096612">
        <ele>694.793188</ele>
        <time>2021-10-28T09:17:42.000Z</time>
      </trkpt>
      <trkpt lat="39.416821" lon="-2.096617">
        <ele>694.785680</ele>
        <time>2021-10-28T09:17:45.000Z</time>
      </trkpt>
      <trkpt lat="39.416710" lon="-2.096616">
        <ele>694.780661</ele>
        <time>2021-10-28T09:17:47.000Z</time>
      </trkpt>
      <trkpt lat="39.416429" lon="-2.096628">
        <ele>694.767949</ele>
        <time>2021-10-28T09:17:52.000Z</time>
      </trkpt>
      <trkpt lat="39.416316" lon="-2.096612">
        <ele>694.762809</ele>
        <time>2021-10-28T09:17:54.000Z</time>
      </trkpt>
      <trkpt lat="39.416043" lon="-2.096534">
        <ele>694.750168</ele>
        <time>2021-10-28T09:17:59.000Z</time>
      </trkpt>
      <trkpt lat="39.415874" lon="-2.096534">
        <ele>694.742490</ele>
        <time>2021-10-28T09:18:02.000Z</time>
      </trkpt>
      <trkpt lat="39.415818" lon="-2.096538">
        <ele>694.739117</ele>
        <time>2021-10-28T09:18:03.000Z</time>
      </trkpt>
      <trkpt lat="39.415762" lon="-2.096539">
        <ele>694.735749</ele>
        <time>2021-10-28T09:18:04.000Z</time>
      </trkpt>
      <trkpt lat="39.415707" lon="-2.096538">
        <ele>694.732441</ele>
        <time>2021-10-28T09:18:05.000Z</time>
      </trkpt>
      <trkpt lat="39.415653" lon="-2.096538">
        <ele>694.729193</ele>
        <time>2021-10-28T09:18:06.000Z</time>
      </trkpt>
      <trkpt lat="39.415545" lon="-2.096537">
        <ele>694.722697</ele>
        <time>2021-10-28T09:18:08.000Z</time>
      </trkpt>
      <trkpt lat="39.415492" lon="-2.096538">
        <ele>694.719510</ele>
        <time>2021-10-28T09:18:09.000Z</time>
      </trkpt>
      <trkpt lat="39.415167" lon="-2.096552">
        <ele>694.699952</ele>
        <time>2021-10-28T09:18:15.000Z</time>
      </trkpt>
      <trkpt lat="39.415002" lon="-2.096571">
        <ele>694.689990</ele>
        <time>2021-10-28T09:18:18.000Z</time>
      </trkpt>
      <trkpt lat="39.414947" lon="-2.096578">
        <ele>694.686666</ele>
        <time>2021-10-28T09:18:19.000Z</time>
      </trkpt>
      <trkpt lat="39.414450" lon="-2.096597">
        <ele>694.656762</ele>
        <time>2021-10-28T09:18:28.000Z</time>
      </trkpt>
      <trkpt lat="39.414399" lon="-2.096597">
        <ele>694.653694</ele>
        <time>2021-10-28T09:18:29.000Z</time>
      </trkpt>
      <trkpt lat="39.414288" lon="-2.096612">
        <ele>694.646982</ele>
        <time>2021-10-28T09:18:32.000Z</time>
      </trkpt>
      <trkpt lat="39.414147" lon="-2.096597">
        <ele>694.638474</ele>
        <time>2021-10-28T09:18:37.000Z</time>
      </trkpt>
      <trkpt lat="39.413910" lon="-2.096609">
        <ele>694.822065</ele>
        <time>2021-10-28T09:18:42.000Z</time>
      </trkpt>
      <trkpt lat="39.413764" lon="-2.096623">
        <ele>694.983185</ele>
        <time>2021-10-28T09:18:45.000Z</time>
      </trkpt>
      <trkpt lat="39.413566" lon="-2.096599">
        <ele>695.202047</ele>
        <time>2021-10-28T09:18:49.000Z</time>
      </trkpt>
      <trkpt lat="39.413254" lon="-2.096579">
        <ele>695.545839</ele>
        <time>2021-10-28T09:18:55.000Z</time>
      </trkpt>
      <trkpt lat="39.413148" lon="-2.096576">
        <ele>695.662525</ele>
        <time>2021-10-28T09:18:57.000Z</time>
      </trkpt>
      <trkpt lat="39.412771" lon="-2.096599">
        <ele>696.077892</ele>
        <time>2021-10-28T09:19:04.000Z</time>
      </trkpt>
      <trkpt lat="39.412718" lon="-2.096598">
        <ele>696.136227</ele>
        <time>2021-10-28T09:19:05.000Z</time>
      </trkpt>
      <trkpt lat="39.412394" lon="-2.096587">
        <ele>696.492927</ele>
        <time>2021-10-28T09:19:11.000Z</time>
      </trkpt>
      <trkpt lat="39.412341" lon="-2.096586">
        <ele>696.551263</ele>
        <time>2021-10-28T09:19:12.000Z</time>
      </trkpt>
      <trkpt lat="39.412289" lon="-2.096583">
        <ele>696.608548</ele>
        <time>2021-10-28T09:19:13.000Z</time>
      </trkpt>
      <trkpt lat="39.412186" lon="-2.096583">
        <ele>696.639559</ele>
        <time>2021-10-28T09:19:15.000Z</time>
      </trkpt>
      <trkpt lat="39.411820" lon="-2.096578">
        <ele>696.735104</ele>
        <time>2021-10-28T09:19:22.000Z</time>
      </trkpt>
      <trkpt lat="39.411715" lon="-2.096574">
        <ele>696.762525</ele>
        <time>2021-10-28T09:19:24.000Z</time>
      </trkpt>
      <trkpt lat="39.411391" lon="-2.096561">
        <ele>696.847142</ele>
        <time>2021-10-28T09:19:30.000Z</time>
      </trkpt>
      <trkpt lat="39.411337" lon="-2.096559">
        <ele>696.861244</ele>
        <time>2021-10-28T09:19:31.000Z</time>
      </trkpt>
      <trkpt lat="39.411229" lon="-2.096558">
        <ele>696.889436</ele>
        <time>2021-10-28T09:19:33.000Z</time>
      </trkpt>
      <trkpt lat="39.410796" lon="-2.096586">
        <ele>697.002607</ele>
        <time>2021-10-28T09:19:41.000Z</time>
      </trkpt>
      <trkpt lat="39.410476" lon="-2.096656">
        <ele>697.060650</ele>
        <time>2021-10-28T09:19:47.000Z</time>
      </trkpt>
      <trkpt lat="39.410369" lon="-2.096696">
        <ele>696.888577</ele>
        <time>2021-10-28T09:19:49.000Z</time>
      </trkpt>
      <trkpt lat="39.410316" lon="-2.096710">
        <ele>696.805004</ele>
        <time>2021-10-28T09:19:50.000Z</time>
      </trkpt>
      <trkpt lat="39.410209" lon="-2.096712">
        <ele>696.639671</ele>
        <time>2021-10-28T09:19:52.000Z</time>
      </trkpt>
      <trkpt lat="39.410156" lon="-2.096703">
        <ele>696.557084</ele>
        <time>2021-10-28T09:19:53.000Z</time>
      </trkpt>
      <trkpt lat="39.409938" lon="-2.096672">
        <ele>696.218247</ele>
        <time>2021-10-28T09:19:57.000Z</time>
      </trkpt>
      <trkpt lat="39.409882" lon="-2.096662">
        <ele>696.130907</ele>
        <time>2021-10-28T09:19:58.000Z</time>
      </trkpt>
      <trkpt lat="39.409828" lon="-2.096654">
        <ele>696.046932</ele>
        <time>2021-10-28T09:19:59.000Z</time>
      </trkpt>
      <trkpt lat="39.409664" lon="-2.096636">
        <ele>695.792642</ele>
        <time>2021-10-28T09:20:02.000Z</time>
      </trkpt>
      <trkpt lat="39.409554" lon="-2.096616">
        <ele>695.621023</ele>
        <time>2021-10-28T09:20:04.000Z</time>
      </trkpt>
      <trkpt lat="39.409106" lon="-2.096558">
        <ele>694.925407</ele>
        <time>2021-10-28T09:20:12.000Z</time>
      </trkpt>
      <trkpt lat="39.408781" lon="-2.096520">
        <ele>694.421235</ele>
        <time>2021-10-28T09:20:18.000Z</time>
      </trkpt>
      <trkpt lat="39.408673" lon="-2.096494">
        <ele>694.271247</ele>
        <time>2021-10-28T09:20:20.000Z</time>
      </trkpt>
      <trkpt lat="39.408619" lon="-2.096487">
        <ele>694.218593</ele>
        <time>2021-10-28T09:20:21.000Z</time>
      </trkpt>
      <trkpt lat="39.408403" lon="-2.096461">
        <ele>694.008122</ele>
        <time>2021-10-28T09:20:25.000Z</time>
      </trkpt>
      <trkpt lat="39.408239" lon="-2.096433">
        <ele>693.847628</ele>
        <time>2021-10-28T09:20:28.000Z</time>
      </trkpt>
      <trkpt lat="39.408017" lon="-2.096402">
        <ele>693.630989</ele>
        <time>2021-10-28T09:20:32.000Z</time>
      </trkpt>
      <trkpt lat="39.407906" lon="-2.096423">
        <ele>693.522151</ele>
        <time>2021-10-28T09:20:34.000Z</time>
      </trkpt>
      <trkpt lat="39.407853" lon="-2.096445">
        <ele>693.468149</ele>
        <time>2021-10-28T09:20:35.000Z</time>
      </trkpt>
      <trkpt lat="39.407479" lon="-2.096574">
        <ele>693.092623</ele>
        <time>2021-10-28T09:20:42.000Z</time>
      </trkpt>
      <trkpt lat="39.407424" lon="-2.096582">
        <ele>693.038926</ele>
        <time>2021-10-28T09:20:43.000Z</time>
      </trkpt>
      <trkpt lat="39.407209" lon="-2.096547">
        <ele>692.828685</ele>
        <time>2021-10-28T09:20:47.000Z</time>
      </trkpt>
      <trkpt lat="39.407043" lon="-2.096530">
        <ele>692.667126</ele>
        <time>2021-10-28T09:20:50.000Z</time>
      </trkpt>
      <trkpt lat="39.406876" lon="-2.096546">
        <ele>692.565549</ele>
        <time>2021-10-28T09:20:53.000Z</time>
      </trkpt>
      <trkpt lat="39.406479" lon="-2.096594">
        <ele>692.608358</ele>
        <time>2021-10-28T09:21:00.000Z</time>
      </trkpt>
      <trkpt lat="39.406134" lon="-2.096595">
        <ele>692.645398</ele>
        <time>2021-10-28T09:21:06.000Z</time>
      </trkpt>
      <trkpt lat="39.405961" lon="-2.096585">
        <ele>692.663990</ele>
        <time>2021-10-28T09:21:09.000Z</time>
      </trkpt>
      <trkpt lat="39.405793" lon="-2.096576">
        <ele>692.682042</ele>
        <time>2021-10-28T09:21:12.000Z</time>
      </trkpt>
      <trkpt lat="39.405629" lon="-2.096575">
        <ele>692.699650</ele>
        <time>2021-10-28T09:21:15.000Z</time>
      </trkpt>
      <trkpt lat="39.405470" lon="-2.096573">
        <ele>692.716721</ele>
        <time>2021-10-28T09:21:18.000Z</time>
      </trkpt>
      <trkpt lat="39.405266" lon="-2.096566">
        <ele>692.738630</ele>
        <time>2021-10-28T09:21:22.000Z</time>
      </trkpt>
      <trkpt lat="39.404898" lon="-2.096549">
        <ele>692.977213</ele>
        <time>2021-10-28T09:21:29.000Z</time>
      </trkpt>
      <trkpt lat="39.404795" lon="-2.096546">
        <ele>693.074357</ele>
        <time>2021-10-28T09:21:31.000Z</time>
      </trkpt>
      <trkpt lat="39.404604" lon="-2.096541">
        <ele>693.254488</ele>
        <time>2021-10-28T09:21:35.000Z</time>
      </trkpt>
      <trkpt lat="39.404513" lon="-2.096544">
        <ele>693.340320</ele>
        <time>2021-10-28T09:21:37.000Z</time>
      </trkpt>
      <trkpt lat="39.404430" lon="-2.096542">
        <ele>693.418595</ele>
        <time>2021-10-28T09:21:39.000Z</time>
      </trkpt>
      <trkpt lat="39.404344" lon="-2.096550">
        <ele>693.499894</ele>
        <time>2021-10-28T09:21:41.000Z</time>
      </trkpt>
      <trkpt lat="39.404300" lon="-2.096552">
        <ele>693.541407</ele>
        <time>2021-10-28T09:21:42.000Z</time>
      </trkpt>
      <trkpt lat="39.404030" lon="-2.096569">
        <ele>693.796292</ele>
        <time>2021-10-28T09:21:48.000Z</time>
      </trkpt>
      <trkpt lat="39.403940" lon="-2.096586">
        <ele>693.882052</ele>
        <time>2021-10-28T09:21:50.000Z</time>
      </trkpt>
      <trkpt lat="39.403657" lon="-2.096627">
        <ele>694.150560</ele>
        <time>2021-10-28T09:21:56.000Z</time>
      </trkpt>
      <trkpt lat="39.403508" lon="-2.096652">
        <ele>694.292229</ele>
        <time>2021-10-28T09:21:59.000Z</time>
      </trkpt>
      <trkpt lat="39.403414" lon="-2.096690">
        <ele>694.385085</ele>
        <time>2021-10-28T09:22:01.000Z</time>
      </trkpt>
      <trkpt lat="39.403369" lon="-2.096712">
        <ele>694.430442</ele>
        <time>2021-10-28T09:22:02.000Z</time>
      </trkpt>
      <trkpt lat="39.403232" lon="-2.096773">
        <ele>694.453209</ele>
        <time>2021-10-28T09:22:05.000Z</time>
      </trkpt>
      <trkpt lat="39.403134" lon="-2.096763">
        <ele>694.456865</ele>
        <time>2021-10-28T09:22:07.000Z</time>
      </trkpt>
      <trkpt lat="39.403085" lon="-2.096752">
        <ele>694.458715</ele>
        <time>2021-10-28T09:22:08.000Z</time>
      </trkpt>
      <trkpt lat="39.403037" lon="-2.096747">
        <ele>694.460506</ele>
        <time>2021-10-28T09:22:09.000Z</time>
      </trkpt>
      <trkpt lat="39.402939" lon="-2.096734">
        <ele>694.464169</ele>
        <time>2021-10-28T09:22:11.000Z</time>
      </trkpt>
      <trkpt lat="39.402737" lon="-2.096711">
        <ele>694.471711</ele>
        <time>2021-10-28T09:22:15.000Z</time>
      </trkpt>
      <trkpt lat="39.402633" lon="-2.096688">
        <ele>694.475635</ele>
        <time>2021-10-28T09:22:17.000Z</time>
      </trkpt>
      <trkpt lat="39.402314" lon="-2.096720">
        <ele>694.487535</ele>
        <time>2021-10-28T09:22:23.000Z</time>
      </trkpt>
      <trkpt lat="39.402164" lon="-2.096760">
        <ele>694.493231</ele>
        <time>2021-10-28T09:22:26.000Z</time>
      </trkpt>
      <trkpt lat="39.402022" lon="-2.096817">
        <ele>694.498760</ele>
        <time>2021-10-28T09:22:29.000Z</time>
      </trkpt>
      <trkpt lat="39.401975" lon="-2.096846">
        <ele>694.500697</ele>
        <time>2021-10-28T09:22:30.000Z</time>
      </trkpt>
      <trkpt lat="39.401793" lon="-2.096942">
        <ele>694.508006</ele>
        <time>2021-10-28T09:22:34.000Z</time>
      </trkpt>
      <trkpt lat="39.401698" lon="-2.096973">
        <ele>694.511650</ele>
        <time>2021-10-28T09:22:36.000Z</time>
      </trkpt>
      <trkpt lat="39.401603" lon="-2.097012">
        <ele>694.515357</ele>
        <time>2021-10-28T09:22:38.000Z</time>
      </trkpt>
      <trkpt lat="39.401437" lon="-2.097124">
        <ele>694.484190</ele>
        <time>2021-10-28T09:22:42.000Z</time>
      </trkpt>
      <trkpt lat="39.401316" lon="-2.097186">
        <ele>694.462247</ele>
        <time>2021-10-28T09:22:45.000Z</time>
      </trkpt>
      <trkpt lat="39.401188" lon="-2.097242">
        <ele>694.439466</ele>
        <time>2021-10-28T09:22:48.000Z</time>
      </trkpt>
      <trkpt lat="39.401106" lon="-2.097290">
        <ele>694.424292</ele>
        <time>2021-10-28T09:22:50.000Z</time>
      </trkpt>
      <trkpt lat="39.401023" lon="-2.097338">
        <ele>694.408963</ele>
        <time>2021-10-28T09:22:52.000Z</time>
      </trkpt>
      <trkpt lat="39.400939" lon="-2.097392">
        <ele>694.393149</ele>
        <time>2021-10-28T09:22:54.000Z</time>
      </trkpt>
      <trkpt lat="39.400853" lon="-2.097449">
        <ele>694.376858</ele>
        <time>2021-10-28T09:22:56.000Z</time>
      </trkpt>
      <trkpt lat="39.400536" lon="-2.097651">
        <ele>694.317282</ele>
        <time>2021-10-28T09:23:03.000Z</time>
      </trkpt>
      <trkpt lat="39.400446" lon="-2.097712">
        <ele>694.300152</ele>
        <time>2021-10-28T09:23:05.000Z</time>
      </trkpt>
      <trkpt lat="39.400083" lon="-2.097936">
        <ele>694.232345</ele>
        <time>2021-10-28T09:23:13.000Z</time>
      </trkpt>
      <trkpt lat="39.399849" lon="-2.098062">
        <ele>694.225541</ele>
        <time>2021-10-28T09:23:18.000Z</time>
      </trkpt>
      <trkpt lat="39.399705" lon="-2.098135">
        <ele>694.241006</ele>
        <time>2021-10-28T09:23:21.000Z</time>
      </trkpt>
      <trkpt lat="39.399608" lon="-2.098153">
        <ele>694.250805</ele>
        <time>2021-10-28T09:23:23.000Z</time>
      </trkpt>
      <trkpt lat="39.399510" lon="-2.098144">
        <ele>694.260630</ele>
        <time>2021-10-28T09:23:25.000Z</time>
      </trkpt>
      <trkpt lat="39.399461" lon="-2.098131">
        <ele>694.265632</ele>
        <time>2021-10-28T09:23:26.000Z</time>
      </trkpt>
      <trkpt lat="39.399227" lon="-2.098020">
        <ele>694.290554</ele>
        <time>2021-10-28T09:23:31.000Z</time>
      </trkpt>
      <trkpt lat="39.399134" lon="-2.097961">
        <ele>694.300912</ele>
        <time>2021-10-28T09:23:33.000Z</time>
      </trkpt>
      <trkpt lat="39.398844" lon="-2.097814">
        <ele>694.332057</ele>
        <time>2021-10-28T09:23:39.000Z</time>
      </trkpt>
      <trkpt lat="39.398793" lon="-2.097798">
        <ele>694.337305</ele>
        <time>2021-10-28T09:23:40.000Z</time>
      </trkpt>
      <trkpt lat="39.398590" lon="-2.097778">
        <ele>694.357663</ele>
        <time>2021-10-28T09:23:44.000Z</time>
      </trkpt>
      <trkpt lat="39.398537" lon="-2.097790">
        <ele>694.363044</ele>
        <time>2021-10-28T09:23:45.000Z</time>
      </trkpt>
      <trkpt lat="39.398182" lon="-2.097944">
        <ele>694.355862</ele>
        <time>2021-10-28T09:23:52.000Z</time>
      </trkpt>
      <trkpt lat="39.397677" lon="-2.098221">
        <ele>694.121290</ele>
        <time>2021-10-28T09:24:02.000Z</time>
      </trkpt>
      <trkpt lat="39.397160" lon="-2.098496">
        <ele>693.882236</ele>
        <time>2021-10-28T09:24:12.000Z</time>
      </trkpt>
      <trkpt lat="39.396737" lon="-2.098702">
        <ele>693.688946</ele>
        <time>2021-10-28T09:24:20.000Z</time>
      </trkpt>
      <trkpt lat="39.396473" lon="-2.098840">
        <ele>693.624480</ele>
        <time>2021-10-28T09:24:25.000Z</time>
      </trkpt>
      <trkpt lat="39.396213" lon="-2.098980">
        <ele>693.628101</ele>
        <time>2021-10-28T09:24:30.000Z</time>
      </trkpt>
      <trkpt lat="39.395743" lon="-2.099234">
        <ele>693.634650</ele>
        <time>2021-10-28T09:24:39.000Z</time>
      </trkpt>
      <trkpt lat="39.395534" lon="-2.099352">
        <ele>693.637582</ele>
        <time>2021-10-28T09:24:43.000Z</time>
      </trkpt>
      <trkpt lat="39.395423" lon="-2.099377">
        <ele>693.639031</ele>
        <time>2021-10-28T09:24:45.000Z</time>
      </trkpt>
      <trkpt lat="39.394965" lon="-2.099434">
        <ele>693.644946</ele>
        <time>2021-10-28T09:24:53.000Z</time>
      </trkpt>
      <trkpt lat="39.394448" lon="-2.099512">
        <ele>694.013380</ele>
        <time>2021-10-28T09:25:02.000Z</time>
      </trkpt>
      <trkpt lat="39.393942" lon="-2.099667">
        <ele>694.444004</ele>
        <time>2021-10-28T09:25:11.000Z</time>
      </trkpt>
      <trkpt lat="39.393428" lon="-2.099890">
        <ele>694.892960</ele>
        <time>2021-10-28T09:25:20.000Z</time>
      </trkpt>
      <trkpt lat="39.393215" lon="-2.099992">
        <ele>695.081047</ele>
        <time>2021-10-28T09:25:24.000Z</time>
      </trkpt>
      <trkpt lat="39.393109" lon="-2.100037">
        <ele>695.151498</ele>
        <time>2021-10-28T09:25:26.000Z</time>
      </trkpt>
      <trkpt lat="39.392743" lon="-2.100192">
        <ele>695.286108</ele>
        <time>2021-10-28T09:25:33.000Z</time>
      </trkpt>
      <trkpt lat="39.392695" lon="-2.100218">
        <ele>695.304297</ele>
        <time>2021-10-28T09:25:34.000Z</time>
      </trkpt>
      <trkpt lat="39.392354" lon="-2.100399">
        <ele>695.433130</ele>
        <time>2021-10-28T09:25:41.000Z</time>
      </trkpt>
      <trkpt lat="39.391926" lon="-2.100595">
        <ele>695.591827</ele>
        <time>2021-10-28T09:25:49.000Z</time>
      </trkpt>
      <trkpt lat="39.391439" lon="-2.100809">
        <ele>695.735025</ele>
        <time>2021-10-28T09:25:58.000Z</time>
      </trkpt>
      <trkpt lat="39.391340" lon="-2.100846">
        <ele>695.593553</ele>
        <time>2021-10-28T09:26:00.000Z</time>
      </trkpt>
      <trkpt lat="39.391139" lon="-2.100941">
        <ele>695.299768</ele>
        <time>2021-10-28T09:26:04.000Z</time>
      </trkpt>
      <trkpt lat="39.390942" lon="-2.101041">
        <ele>695.009240</ele>
        <time>2021-10-28T09:26:08.000Z</time>
      </trkpt>
      <trkpt lat="39.390890" lon="-2.101065">
        <ele>694.933444</ele>
        <time>2021-10-28T09:26:09.000Z</time>
      </trkpt>
      <trkpt lat="39.390688" lon="-2.101141">
        <ele>694.644634</ele>
        <time>2021-10-28T09:26:13.000Z</time>
      </trkpt>
      <trkpt lat="39.390589" lon="-2.101187">
        <ele>694.500220</ele>
        <time>2021-10-28T09:26:15.000Z</time>
      </trkpt>
      <trkpt lat="39.390538" lon="-2.101209">
        <ele>694.426413</ele>
        <time>2021-10-28T09:26:16.000Z</time>
      </trkpt>
      <trkpt lat="39.390289" lon="-2.101312">
        <ele>694.067519</ele>
        <time>2021-10-28T09:26:21.000Z</time>
      </trkpt>
      <trkpt lat="39.390241" lon="-2.101336">
        <ele>693.996871</ele>
        <time>2021-10-28T09:26:22.000Z</time>
      </trkpt>
      <trkpt lat="39.389839" lon="-2.101516">
        <ele>693.412856</ele>
        <time>2021-10-28T09:26:30.000Z</time>
      </trkpt>
      <trkpt lat="39.389336" lon="-2.101735">
        <ele>693.322910</ele>
        <time>2021-10-28T09:26:40.000Z</time>
      </trkpt>
      <trkpt lat="39.388892" lon="-2.101937">
        <ele>693.352623</ele>
        <time>2021-10-28T09:26:49.000Z</time>
      </trkpt>
      <trkpt lat="39.388650" lon="-2.102050">
        <ele>693.368865</ele>
        <time>2021-10-28T09:26:54.000Z</time>
      </trkpt>
      <trkpt lat="39.388601" lon="-2.102071">
        <ele>693.372124</ele>
        <time>2021-10-28T09:26:55.000Z</time>
      </trkpt>
      <trkpt lat="39.388498" lon="-2.102109">
        <ele>693.378886</ele>
        <time>2021-10-28T09:26:57.000Z</time>
      </trkpt>
      <trkpt lat="39.388445" lon="-2.102123">
        <ele>693.382301</ele>
        <time>2021-10-28T09:26:58.000Z</time>
      </trkpt>
      <trkpt lat="39.388289" lon="-2.102174">
        <ele>693.392459</ele>
        <time>2021-10-28T09:27:01.000Z</time>
      </trkpt>
      <trkpt lat="39.388180" lon="-2.102227">
        <ele>693.399810</ele>
        <time>2021-10-28T09:27:03.000Z</time>
      </trkpt>
      <trkpt lat="39.388124" lon="-2.102249">
        <ele>693.403505</ele>
        <time>2021-10-28T09:27:04.000Z</time>
      </trkpt>
      <trkpt lat="39.387963" lon="-2.102332">
        <ele>693.369448</ele>
        <time>2021-10-28T09:27:07.000Z</time>
      </trkpt>
      <trkpt lat="39.387635" lon="-2.102495">
        <ele>693.226966</ele>
        <time>2021-10-28T09:27:13.000Z</time>
      </trkpt>
      <trkpt lat="39.387248" lon="-2.102667">
        <ele>693.061033</ele>
        <time>2021-10-28T09:27:20.000Z</time>
      </trkpt>
      <trkpt lat="39.386973" lon="-2.102807">
        <ele>692.941195</ele>
        <time>2021-10-28T09:27:25.000Z</time>
      </trkpt>
      <trkpt lat="39.386811" lon="-2.102877">
        <ele>692.871936</ele>
        <time>2021-10-28T09:27:28.000Z</time>
      </trkpt>
      <trkpt lat="39.386370" lon="-2.102994">
        <ele>692.689384</ele>
        <time>2021-10-28T09:27:36.000Z</time>
      </trkpt>
      <trkpt lat="39.385989" lon="-2.103095">
        <ele>692.412406</ele>
        <time>2021-10-28T09:27:43.000Z</time>
      </trkpt>
      <trkpt lat="39.385656" lon="-2.103235">
        <ele>692.155486</ele>
        <time>2021-10-28T09:27:49.000Z</time>
      </trkpt>
      <trkpt lat="39.385257" lon="-2.103458">
        <ele>691.836565</ele>
        <time>2021-10-28T09:27:56.000Z</time>
      </trkpt>
      <trkpt lat="39.385201" lon="-2.103492">
        <ele>691.791174</ele>
        <time>2021-10-28T09:27:57.000Z</time>
      </trkpt>
      <trkpt lat="39.384872" lon="-2.103659">
        <ele>691.531851</ele>
        <time>2021-10-28T09:28:03.000Z</time>
      </trkpt>
      <trkpt lat="39.384521" lon="-2.103843">
        <ele>691.325870</ele>
        <time>2021-10-28T09:28:10.000Z</time>
      </trkpt>
      <trkpt lat="39.384419" lon="-2.103891">
        <ele>691.300633</ele>
        <time>2021-10-28T09:28:12.000Z</time>
      </trkpt>
      <trkpt lat="39.384368" lon="-2.103917">
        <ele>691.287887</ele>
        <time>2021-10-28T09:28:13.000Z</time>
      </trkpt>
      <trkpt lat="39.384221" lon="-2.104007">
        <ele>691.250073</ele>
        <time>2021-10-28T09:28:16.000Z</time>
      </trkpt>
      <trkpt lat="39.383882" lon="-2.104181">
        <ele>691.165273</ele>
        <time>2021-10-28T09:28:23.000Z</time>
      </trkpt>
      <trkpt lat="39.383601" lon="-2.104333">
        <ele>691.094454</ele>
        <time>2021-10-28T09:28:29.000Z</time>
      </trkpt>
      <trkpt lat="39.383286" lon="-2.104480">
        <ele>691.016592</ele>
        <time>2021-10-28T09:28:35.000Z</time>
      </trkpt>
      <trkpt lat="39.382916" lon="-2.104688">
        <ele>690.995782</ele>
        <time>2021-10-28T09:28:42.000Z</time>
      </trkpt>
      <trkpt lat="39.382591" lon="-2.104839">
        <ele>691.237188</ele>
        <time>2021-10-28T09:28:48.000Z</time>
      </trkpt>
      <trkpt lat="39.382492" lon="-2.104878">
        <ele>691.309533</ele>
        <time>2021-10-28T09:28:50.000Z</time>
      </trkpt>
      <trkpt lat="39.382388" lon="-2.104895">
        <ele>691.382815</ele>
        <time>2021-10-28T09:28:52.000Z</time>
      </trkpt>
      <trkpt lat="39.382333" lon="-2.104892">
        <ele>691.421299</ele>
        <time>2021-10-28T09:28:53.000Z</time>
      </trkpt>
      <trkpt lat="39.382106" lon="-2.104836">
        <ele>691.582848</ele>
        <time>2021-10-28T09:28:57.000Z</time>
      </trkpt>
      <trkpt lat="39.381999" lon="-2.104755">
        <ele>691.669513</ele>
        <time>2021-10-28T09:28:59.000Z</time>
      </trkpt>
      <trkpt lat="39.381779" lon="-2.104522">
        <ele>691.868270</ele>
        <time>2021-10-28T09:29:04.000Z</time>
      </trkpt>
      <trkpt lat="39.381682" lon="-2.104435">
        <ele>691.950781</ele>
        <time>2021-10-28T09:29:06.000Z</time>
      </trkpt>
      <trkpt lat="39.381627" lon="-2.104394">
        <ele>691.995156</ele>
        <time>2021-10-28T09:29:07.000Z</time>
      </trkpt>
      <trkpt lat="39.381520" lon="-2.104316">
        <ele>692.081014</ele>
        <time>2021-10-28T09:29:09.000Z</time>
      </trkpt>
      <trkpt lat="39.381417" lon="-2.104228">
        <ele>692.167303</ele>
        <time>2021-10-28T09:29:11.000Z</time>
      </trkpt>
      <trkpt lat="39.381364" lon="-2.104181">
        <ele>692.189809</ele>
        <time>2021-10-28T09:29:12.000Z</time>
      </trkpt>
      <trkpt lat="39.380960" lon="-2.103809">
        <ele>691.974448</ele>
        <time>2021-10-28T09:29:20.000Z</time>
      </trkpt>
      <trkpt lat="39.380576" lon="-2.103454">
        <ele>691.769472</ele>
        <time>2021-10-28T09:29:28.000Z</time>
      </trkpt>
      <trkpt lat="39.380426" lon="-2.103346">
        <ele>691.694918</ele>
        <time>2021-10-28T09:29:31.000Z</time>
      </trkpt>
      <trkpt lat="39.380329" lon="-2.103297">
        <ele>691.649693</ele>
        <time>2021-10-28T09:29:33.000Z</time>
      </trkpt>
      <trkpt lat="39.380275" lon="-2.103279">
        <ele>691.625474</ele>
        <time>2021-10-28T09:29:34.000Z</time>
      </trkpt>
      <trkpt lat="39.380153" lon="-2.103271">
        <ele>691.572421</ele>
        <time>2021-10-28T09:29:36.000Z</time>
      </trkpt>
      <trkpt lat="39.380082" lon="-2.103272">
        <ele>691.541584</ele>
        <time>2021-10-28T09:29:37.000Z</time>
      </trkpt>
      <trkpt lat="39.379821" lon="-2.103283">
        <ele>691.428170</ele>
        <time>2021-10-28T09:29:41.000Z</time>
      </trkpt>
      <trkpt lat="39.379700" lon="-2.103292">
        <ele>691.258906</ele>
        <time>2021-10-28T09:29:43.000Z</time>
      </trkpt>
      <trkpt lat="39.379643" lon="-2.103305">
        <ele>691.163475</ele>
        <time>2021-10-28T09:29:44.000Z</time>
      </trkpt>
      <trkpt lat="39.379502" lon="-2.103333">
        <ele>690.928273</ele>
        <time>2021-10-28T09:29:47.000Z</time>
      </trkpt>
      <trkpt lat="39.379484" lon="-2.103330">
        <ele>690.898349</ele>
        <time>2021-10-28T09:29:48.000Z</time>
      </trkpt>
      <trkpt lat="39.379467" lon="-2.103298">
        <ele>690.848863</ele>
        <time>2021-10-28T09:29:50.000Z</time>
      </trkpt>
      <trkpt lat="39.379434" lon="-2.103250">
        <ele>690.766994</ele>
        <time>2021-10-28T09:29:52.000Z</time>
      </trkpt>
      <trkpt lat="39.379405" lon="-2.103244">
        <ele>690.718571</ele>
        <time>2021-10-28T09:29:53.000Z</time>
      </trkpt>
      <trkpt lat="39.379290" lon="-2.103242">
        <ele>690.528943</ele>
        <time>2021-10-28T09:29:56.000Z</time>
      </trkpt>
      <trkpt lat="39.379207" lon="-2.103206">
        <ele>690.384607</ele>
        <time>2021-10-28T09:29:58.000Z</time>
      </trkpt>
      <trkpt lat="39.379032" lon="-2.103130">
        <ele>690.080245</ele>
        <time>2021-10-28T09:30:02.000Z</time>
      </trkpt>
      <trkpt lat="39.378947" lon="-2.103095">
        <ele>689.933171</ele>
        <time>2021-10-28T09:30:04.000Z</time>
      </trkpt>
      <trkpt lat="39.378753" lon="-2.102963">
        <ele>689.571764</ele>
        <time>2021-10-28T09:30:09.000Z</time>
      </trkpt>
      <trkpt lat="39.378628" lon="-2.102888">
        <ele>689.344578</ele>
        <time>2021-10-28T09:30:12.000Z</time>
      </trkpt>
      <trkpt lat="39.378552" lon="-2.102805">
        <ele>689.180591</ele>
        <time>2021-10-28T09:30:14.000Z</time>
      </trkpt>
      <trkpt lat="39.378486" lon="-2.102701">
        <ele>689.009098</ele>
        <time>2021-10-28T09:30:16.000Z</time>
      </trkpt>
      <trkpt lat="39.378400" lon="-2.102621">
        <ele>688.834451</ele>
        <time>2021-10-28T09:30:18.000Z</time>
      </trkpt>
      <trkpt lat="39.378353" lon="-2.102589">
        <ele>688.746881</ele>
        <time>2021-10-28T09:30:19.000Z</time>
      </trkpt>
      <trkpt lat="39.378302" lon="-2.102559">
        <ele>688.654509</ele>
        <time>2021-10-28T09:30:20.000Z</time>
      </trkpt>
      <trkpt lat="39.378149" lon="-2.102478">
        <ele>688.432566</ele>
        <time>2021-10-28T09:30:23.000Z</time>
      </trkpt>
      <trkpt lat="39.378109" lon="-2.102442">
        <ele>688.410571</ele>
        <time>2021-10-28T09:30:24.000Z</time>
      </trkpt>
      <trkpt lat="39.378078" lon="-2.102404">
        <ele>688.391294</ele>
        <time>2021-10-28T09:30:25.000Z</time>
      </trkpt>
      <trkpt lat="39.378019" lon="-2.102320">
        <ele>688.351693</ele>
        <time>2021-10-28T09:30:27.000Z</time>
      </trkpt>
      <trkpt lat="39.377980" lon="-2.102218">
        <ele>688.311988</ele>
        <time>2021-10-28T09:30:29.000Z</time>
      </trkpt>
      <trkpt lat="39.377973" lon="-2.101909">
        <ele>688.204127</ele>
        <time>2021-10-28T09:30:34.000Z</time>
      </trkpt>
      <trkpt lat="39.377970" lon="-2.101444">
        <ele>688.041876</ele>
        <time>2021-10-28T09:30:41.000Z</time>
      </trkpt>
      <trkpt lat="39.377964" lon="-2.101381">
        <ele>688.019729</ele>
        <time>2021-10-28T09:30:42.000Z</time>
      </trkpt>
      <trkpt lat="39.377911" lon="-2.101250">
        <ele>687.968139</ele>
        <time>2021-10-28T09:30:44.000Z</time>
      </trkpt>
      <trkpt lat="39.377868" lon="-2.101214">
        <ele>687.945019</ele>
        <time>2021-10-28T09:30:45.000Z</time>
      </trkpt>
      <trkpt lat="39.377816" lon="-2.101202">
        <ele>687.921176</ele>
        <time>2021-10-28T09:30:46.000Z</time>
      </trkpt>
      <trkpt lat="39.377762" lon="-2.101194">
        <ele>687.896642</ele>
        <time>2021-10-28T09:30:47.000Z</time>
      </trkpt>
      <trkpt lat="39.377444" lon="-2.101152">
        <ele>687.752354</ele>
        <time>2021-10-28T09:30:53.000Z</time>
      </trkpt>
      <trkpt lat="39.377343" lon="-2.101139">
        <ele>687.706539</ele>
        <time>2021-10-28T09:30:55.000Z</time>
      </trkpt>
      <trkpt lat="39.377292" lon="-2.101131">
        <ele>687.683349</ele>
        <time>2021-10-28T09:30:56.000Z</time>
      </trkpt>
      <trkpt lat="39.376980" lon="-2.101061">
        <ele>687.460802</ele>
        <time>2021-10-28T09:31:02.000Z</time>
      </trkpt>
      <trkpt lat="39.376875" lon="-2.101055">
        <ele>687.375342</ele>
        <time>2021-10-28T09:31:04.000Z</time>
      </trkpt>
      <trkpt lat="39.376822" lon="-2.101047">
        <ele>687.331956</ele>
        <time>2021-10-28T09:31:05.000Z</time>
      </trkpt>
      <trkpt lat="39.376560" lon="-2.101030">
        <ele>687.118655</ele>
        <time>2021-10-28T09:31:10.000Z</time>
      </trkpt>
      <trkpt lat="39.376348" lon="-2.101053">
        <ele>686.945672</ele>
        <time>2021-10-28T09:31:14.000Z</time>
      </trkpt>
      <trkpt lat="39.376241" lon="-2.101077">
        <ele>686.857372</ele>
        <time>2021-10-28T09:31:16.000Z</time>
      </trkpt>
      <trkpt lat="39.376188" lon="-2.101093">
        <ele>686.813119</ele>
        <time>2021-10-28T09:31:17.000Z</time>
      </trkpt>
      <trkpt lat="39.376025" lon="-2.101180">
        <ele>686.669746</ele>
        <time>2021-10-28T09:31:20.000Z</time>
      </trkpt>
      <trkpt lat="39.375930" lon="-2.101256">
        <ele>686.578924</ele>
        <time>2021-10-28T09:31:22.000Z</time>
      </trkpt>
      <trkpt lat="39.375786" lon="-2.101380">
        <ele>686.438270</ele>
        <time>2021-10-28T09:31:25.000Z</time>
      </trkpt>
      <trkpt lat="39.375583" lon="-2.101513">
        <ele>686.253249</ele>
        <time>2021-10-28T09:31:29.000Z</time>
      </trkpt>
      <trkpt lat="39.375245" lon="-2.101608">
        <ele>686.202144</ele>
        <time>2021-10-28T09:31:35.000Z</time>
      </trkpt>
      <trkpt lat="39.374782" lon="-2.101618">
        <ele>686.247752</ele>
        <time>2021-10-28T09:31:43.000Z</time>
      </trkpt>
      <trkpt lat="39.374377" lon="-2.101548">
        <ele>686.287996</ele>
        <time>2021-10-28T09:31:50.000Z</time>
      </trkpt>
      <trkpt lat="39.374265" lon="-2.101508">
        <ele>686.299439</ele>
        <time>2021-10-28T09:31:52.000Z</time>
      </trkpt>
      <trkpt lat="39.373847" lon="-2.101289">
        <ele>686.343857</ele>
        <time>2021-10-28T09:32:00.000Z</time>
      </trkpt>
      <trkpt lat="39.373798" lon="-2.101257">
        <ele>686.349263</ele>
        <time>2021-10-28T09:32:01.000Z</time>
      </trkpt>
      <trkpt lat="39.373616" lon="-2.101120">
        <ele>686.533094</ele>
        <time>2021-10-28T09:32:05.000Z</time>
      </trkpt>
      <trkpt lat="39.373526" lon="-2.101063">
        <ele>686.646330</ele>
        <time>2021-10-28T09:32:07.000Z</time>
      </trkpt>
      <trkpt lat="39.373300" lon="-2.100939">
        <ele>686.923738</ele>
        <time>2021-10-28T09:32:12.000Z</time>
      </trkpt>
      <trkpt lat="39.373158" lon="-2.100893">
        <ele>687.089156</ele>
        <time>2021-10-28T09:32:15.000Z</time>
      </trkpt>
      <trkpt lat="39.372767" lon="-2.100796">
        <ele>687.539047</ele>
        <time>2021-10-28T09:32:23.000Z</time>
      </trkpt>
      <trkpt lat="39.372339" lon="-2.100681">
        <ele>688.033021</ele>
        <time>2021-10-28T09:32:31.000Z</time>
      </trkpt>
      <trkpt lat="39.371962" lon="-2.100574">
        <ele>688.414225</ele>
        <time>2021-10-28T09:32:38.000Z</time>
      </trkpt>
      <trkpt lat="39.371757" lon="-2.100511">
        <ele>688.493222</ele>
        <time>2021-10-28T09:32:42.000Z</time>
      </trkpt>
      <trkpt lat="39.371705" lon="-2.100495">
        <ele>688.513261</ele>
        <time>2021-10-28T09:32:43.000Z</time>
      </trkpt>
      <trkpt lat="39.371604" lon="-2.100463">
        <ele>688.552247</ele>
        <time>2021-10-28T09:32:45.000Z</time>
      </trkpt>
      <trkpt lat="39.371451" lon="-2.100417">
        <ele>688.611138</ele>
        <time>2021-10-28T09:32:48.000Z</time>
      </trkpt>
      <trkpt lat="39.371195" lon="-2.100341">
        <ele>688.709612</ele>
        <time>2021-10-28T09:32:53.000Z</time>
      </trkpt>
      <trkpt lat="39.371147" lon="-2.100318">
        <ele>688.728803</ele>
        <time>2021-10-28T09:32:54.000Z</time>
      </trkpt>
      <trkpt lat="39.371002" lon="-2.100240">
        <ele>688.787679</ele>
        <time>2021-10-28T09:32:57.000Z</time>
      </trkpt>
      <trkpt lat="39.370911" lon="-2.100179">
        <ele>688.826105</ele>
        <time>2021-10-28T09:32:59.000Z</time>
      </trkpt>
      <trkpt lat="39.370820" lon="-2.100117">
        <ele>688.864665</ele>
        <time>2021-10-28T09:33:01.000Z</time>
      </trkpt>
      <trkpt lat="39.370776" lon="-2.100088">
        <ele>688.883180</ele>
        <time>2021-10-28T09:33:02.000Z</time>
      </trkpt>
      <trkpt lat="39.370405" lon="-2.099927">
        <ele>689.029892</ele>
        <time>2021-10-28T09:33:10.000Z</time>
      </trkpt>
      <trkpt lat="39.370214" lon="-2.099848">
        <ele>689.001552</ele>
        <time>2021-10-28T09:33:14.000Z</time>
      </trkpt>
      <trkpt lat="39.369983" lon="-2.099753">
        <ele>688.877592</ele>
        <time>2021-10-28T09:33:19.000Z</time>
      </trkpt>
      <trkpt lat="39.369680" lon="-2.099592">
        <ele>688.710074</ele>
        <time>2021-10-28T09:33:25.000Z</time>
      </trkpt>
      <trkpt lat="39.369579" lon="-2.099512">
        <ele>688.649509</ele>
        <time>2021-10-28T09:33:27.000Z</time>
      </trkpt>
      <trkpt lat="39.369445" lon="-2.099350">
        <ele>688.555711</ele>
        <time>2021-10-28T09:33:30.000Z</time>
      </trkpt>
      <trkpt lat="39.369141" lon="-2.098993">
        <ele>688.345735</ele>
        <time>2021-10-28T09:33:37.000Z</time>
      </trkpt>
      <trkpt lat="39.369089" lon="-2.098960">
        <ele>688.316114</ele>
        <time>2021-10-28T09:33:38.000Z</time>
      </trkpt>
      <trkpt lat="39.368867" lon="-2.098867">
        <ele>688.196778</ele>
        <time>2021-10-28T09:33:42.000Z</time>
      </trkpt>
      <trkpt lat="39.368556" lon="-2.098662">
        <ele>688.237756</ele>
        <time>2021-10-28T09:33:48.000Z</time>
      </trkpt>
      <trkpt lat="39.368335" lon="-2.098551">
        <ele>688.332536</ele>
        <time>2021-10-28T09:33:52.000Z</time>
      </trkpt>
      <trkpt lat="39.368276" lon="-2.098532">
        <ele>688.356844</ele>
        <time>2021-10-28T09:33:53.000Z</time>
      </trkpt>
      <trkpt lat="39.368217" lon="-2.098513">
        <ele>688.381151</ele>
        <time>2021-10-28T09:33:54.000Z</time>
      </trkpt>
      <trkpt lat="39.367833" lon="-2.098338">
        <ele>688.543919</ele>
        <time>2021-10-28T09:34:01.000Z</time>
      </trkpt>
      <trkpt lat="39.367502" lon="-2.098099">
        <ele>688.695471</ele>
        <time>2021-10-28T09:34:08.000Z</time>
      </trkpt>
      <trkpt lat="39.367460" lon="-2.098060">
        <ele>688.716140</ele>
        <time>2021-10-28T09:34:09.000Z</time>
      </trkpt>
      <trkpt lat="39.367325" lon="-2.097938">
        <ele>688.781979</ele>
        <time>2021-10-28T09:34:12.000Z</time>
      </trkpt>
      <trkpt lat="39.367167" lon="-2.097850">
        <ele>688.850752</ele>
        <time>2021-10-28T09:34:15.000Z</time>
      </trkpt>
      <trkpt lat="39.366711" lon="-2.097710">
        <ele>688.480220</ele>
        <time>2021-10-28T09:34:23.000Z</time>
      </trkpt>
      <trkpt lat="39.366593" lon="-2.097692">
        <ele>688.378492</ele>
        <time>2021-10-28T09:34:25.000Z</time>
      </trkpt>
      <trkpt lat="39.366466" lon="-2.097721">
        <ele>688.268077</ele>
        <time>2021-10-28T09:34:27.000Z</time>
      </trkpt>
      <trkpt lat="39.366394" lon="-2.097744">
        <ele>688.204581</ele>
        <time>2021-10-28T09:34:28.000Z</time>
      </trkpt>
      <trkpt lat="39.366242" lon="-2.097791">
        <ele>688.070776</ele>
        <time>2021-10-28T09:34:30.000Z</time>
      </trkpt>
      <trkpt lat="39.366168" lon="-2.097824">
        <ele>688.003760</ele>
        <time>2021-10-28T09:34:31.000Z</time>
      </trkpt>
      <trkpt lat="39.366100" lon="-2.097862">
        <ele>687.940340</ele>
        <time>2021-10-28T09:34:32.000Z</time>
      </trkpt>
      <trkpt lat="39.365897" lon="-2.098008">
        <ele>687.741477</ele>
        <time>2021-10-28T09:34:36.000Z</time>
      </trkpt>
      <trkpt lat="39.365848" lon="-2.098036">
        <ele>687.695613</ele>
        <time>2021-10-28T09:34:37.000Z</time>
      </trkpt>
      <trkpt lat="39.365576" lon="-2.098154">
        <ele>687.449986</ele>
        <time>2021-10-28T09:34:42.000Z</time>
      </trkpt>
      <trkpt lat="39.365276" lon="-2.098412">
        <ele>688.076958</ele>
        <time>2021-10-28T09:34:48.000Z</time>
      </trkpt>
      <trkpt lat="39.365122" lon="-2.098523">
        <ele>688.714588</ele>
        <time>2021-10-28T09:34:51.000Z</time>
      </trkpt>
      <trkpt lat="39.365014" lon="-2.098549">
        <ele>689.111912</ele>
        <time>2021-10-28T09:34:53.000Z</time>
      </trkpt>
      <trkpt lat="39.364810" lon="-2.098512">
        <ele>689.856959</ele>
        <time>2021-10-28T09:34:57.000Z</time>
      </trkpt>
      <trkpt lat="39.364764" lon="-2.098497">
        <ele>690.028538</ele>
        <time>2021-10-28T09:34:58.000Z</time>
      </trkpt>
      <trkpt lat="39.364683" lon="-2.098464">
        <ele>690.335689</ele>
        <time>2021-10-28T09:35:00.000Z</time>
      </trkpt>
      <trkpt lat="39.364591" lon="-2.098414">
        <ele>690.696615</ele>
        <time>2021-10-28T09:35:03.000Z</time>
      </trkpt>
      <trkpt lat="39.364563" lon="-2.098397">
        <ele>690.808487</ele>
        <time>2021-10-28T09:35:04.000Z</time>
      </trkpt>
      <trkpt lat="39.364533" lon="-2.098389">
        <ele>690.919273</ele>
        <time>2021-10-28T09:35:05.000Z</time>
      </trkpt>
      <trkpt lat="39.364445" lon="-2.098395">
        <ele>691.237995</ele>
        <time>2021-10-28T09:35:08.000Z</time>
      </trkpt>
      <trkpt lat="39.364420" lon="-2.098400">
        <ele>691.329489</ele>
        <time>2021-10-28T09:35:09.000Z</time>
      </trkpt>
      <trkpt lat="39.364319" lon="-2.098431">
        <ele>691.704931</ele>
        <time>2021-10-28T09:35:13.000Z</time>
      </trkpt>
      <trkpt lat="39.364292" lon="-2.098439">
        <ele>691.805114</ele>
        <time>2021-10-28T09:35:14.000Z</time>
      </trkpt>
      <trkpt lat="39.364073" lon="-2.098491">
        <ele>692.610431</ele>
        <time>2021-10-28T09:35:22.000Z</time>
      </trkpt>
      <trkpt lat="39.363927" lon="-2.098515">
        <ele>693.142733</ele>
        <time>2021-10-28T09:35:27.000Z</time>
      </trkpt>
      <trkpt lat="39.363899" lon="-2.098525">
        <ele>693.247793</ele>
        <time>2021-10-28T09:35:28.000Z</time>
      </trkpt>
      <trkpt lat="39.363869" lon="-2.098533">
        <ele>693.358580</ele>
        <time>2021-10-28T09:35:29.000Z</time>
      </trkpt>
      <trkpt lat="39.363839" lon="-2.098537">
        <ele>693.467659</ele>
        <time>2021-10-28T09:35:30.000Z</time>
      </trkpt>
      <trkpt lat="39.363779" lon="-2.098548">
        <ele>693.686836</ele>
        <time>2021-10-28T09:35:32.000Z</time>
      </trkpt>
      <trkpt lat="39.363721" lon="-2.098563">
        <ele>693.765545</ele>
        <time>2021-10-28T09:35:34.000Z</time>
      </trkpt>
      <trkpt lat="39.363688" lon="-2.098564">
        <ele>693.669178</ele>
        <time>2021-10-28T09:35:35.000Z</time>
      </trkpt>
      <trkpt lat="39.363655" lon="-2.098562">
        <ele>693.572732</ele>
        <time>2021-10-28T09:35:36.000Z</time>
      </trkpt>
      <trkpt lat="39.363622" lon="-2.098559">
        <ele>693.476154</ele>
        <time>2021-10-28T09:35:37.000Z</time>
      </trkpt>
      <trkpt lat="39.363590" lon="-2.098552">
        <ele>693.381406</ele>
        <time>2021-10-28T09:35:38.000Z</time>
      </trkpt>
      <trkpt lat="39.363559" lon="-2.098542">
        <ele>693.288132</ele>
        <time>2021-10-28T09:35:39.000Z</time>
      </trkpt>
      <trkpt lat="39.363527" lon="-2.098529">
        <ele>693.190211</ele>
        <time>2021-10-28T09:35:40.000Z</time>
      </trkpt>
      <trkpt lat="39.363496" lon="-2.098516">
        <ele>693.095072</ele>
        <time>2021-10-28T09:35:41.000Z</time>
      </trkpt>
      <trkpt lat="39.363372" lon="-2.098455">
        <ele>692.707767</ele>
        <time>2021-10-28T09:35:45.000Z</time>
      </trkpt>
      <trkpt lat="39.363256" lon="-2.098410">
        <ele>692.354212</ele>
        <time>2021-10-28T09:35:48.000Z</time>
      </trkpt>
      <trkpt lat="39.362991" lon="-2.098298">
        <ele>691.540314</ele>
        <time>2021-10-28T09:35:53.000Z</time>
      </trkpt>
      <trkpt lat="39.362937" lon="-2.098269">
        <ele>691.369617</ele>
        <time>2021-10-28T09:35:54.000Z</time>
      </trkpt>
      <trkpt lat="39.362883" lon="-2.098239">
        <ele>691.198042</ele>
        <time>2021-10-28T09:35:55.000Z</time>
      </trkpt>
      <trkpt lat="39.362671" lon="-2.098112">
        <ele>690.515967</ele>
        <time>2021-10-28T09:35:59.000Z</time>
      </trkpt>
      <trkpt lat="39.362509" lon="-2.098022">
        <ele>690.001241</ele>
        <time>2021-10-28T09:36:02.000Z</time>
      </trkpt>
      <trkpt lat="39.362453" lon="-2.097991">
        <ele>689.823410</ele>
        <time>2021-10-28T09:36:03.000Z</time>
      </trkpt>
      <trkpt lat="39.362283" lon="-2.097895">
        <ele>689.281870</ele>
        <time>2021-10-28T09:36:06.000Z</time>
      </trkpt>
      <trkpt lat="39.362166" lon="-2.097817">
        <ele>688.897595</ele>
        <time>2021-10-28T09:36:08.000Z</time>
      </trkpt>
      <trkpt lat="39.362114" lon="-2.097770">
        <ele>688.712392</ele>
        <time>2021-10-28T09:36:09.000Z</time>
      </trkpt>
      <trkpt lat="39.362064" lon="-2.097718">
        <ele>688.516955</ele>
        <time>2021-10-28T09:36:10.000Z</time>
      </trkpt>
      <trkpt lat="39.361808" lon="-2.097469">
        <ele>687.429408</ele>
        <time>2021-10-28T09:36:15.000Z</time>
      </trkpt>
      <trkpt lat="39.361746" lon="-2.097434">
        <ele>687.199722</ele>
        <time>2021-10-28T09:36:16.000Z</time>
      </trkpt>
      <trkpt lat="39.361683" lon="-2.097399">
        <ele>686.966921</ele>
        <time>2021-10-28T09:36:17.000Z</time>
      </trkpt>
      <trkpt lat="39.361416" lon="-2.097271">
        <ele>686.000107</ele>
        <time>2021-10-28T09:36:21.000Z</time>
      </trkpt>
      <trkpt lat="39.361287" lon="-2.097218">
        <ele>685.540546</ele>
        <time>2021-10-28T09:36:23.000Z</time>
      </trkpt>
      <trkpt lat="39.361225" lon="-2.097193">
        <ele>685.320045</ele>
        <time>2021-10-28T09:36:24.000Z</time>
      </trkpt>
      <trkpt lat="39.360929" lon="-2.097027">
        <ele>684.224628</ele>
        <time>2021-10-28T09:36:29.000Z</time>
      </trkpt>
      <trkpt lat="39.360587" lon="-2.096751">
        <ele>682.855934</ele>
        <time>2021-10-28T09:36:35.000Z</time>
      </trkpt>
      <trkpt lat="39.360484" lon="-2.096641">
        <ele>682.454477</ele>
        <time>2021-10-28T09:36:37.000Z</time>
      </trkpt>
      <trkpt lat="39.360207" lon="-2.096403">
        <ele>682.221206</ele>
        <time>2021-10-28T09:36:42.000Z</time>
      </trkpt>
      <trkpt lat="39.360096" lon="-2.096316">
        <ele>682.130164</ele>
        <time>2021-10-28T09:36:44.000Z</time>
      </trkpt>
      <trkpt lat="39.359990" lon="-2.096225">
        <ele>682.040920</ele>
        <time>2021-10-28T09:36:46.000Z</time>
      </trkpt>
      <trkpt lat="39.359833" lon="-2.096084">
        <ele>681.906845</ele>
        <time>2021-10-28T09:36:49.000Z</time>
      </trkpt>
      <trkpt lat="39.359730" lon="-2.096002">
        <ele>681.822004</ele>
        <time>2021-10-28T09:36:51.000Z</time>
      </trkpt>
      <trkpt lat="39.359681" lon="-2.095953">
        <ele>681.778557</ele>
        <time>2021-10-28T09:36:52.000Z</time>
      </trkpt>
      <trkpt lat="39.359639" lon="-2.095903">
        <ele>681.738516</ele>
        <time>2021-10-28T09:36:53.000Z</time>
      </trkpt>
      <trkpt lat="39.359604" lon="-2.095849">
        <ele>681.700299</ele>
        <time>2021-10-28T09:36:54.000Z</time>
      </trkpt>
      <trkpt lat="39.359541" lon="-2.095727">
        <ele>681.620732</ele>
        <time>2021-10-28T09:36:56.000Z</time>
      </trkpt>
      <trkpt lat="39.359464" lon="-2.095612">
        <ele>681.538225</ele>
        <time>2021-10-28T09:36:58.000Z</time>
      </trkpt>
      <trkpt lat="39.359210" lon="-2.095312">
        <ele>681.296941</ele>
        <time>2021-10-28T09:37:04.000Z</time>
      </trkpt>
      <trkpt lat="39.359166" lon="-2.095268">
        <ele>681.257927</ele>
        <time>2021-10-28T09:37:05.000Z</time>
      </trkpt>
      <trkpt lat="39.359121" lon="-2.095228">
        <ele>681.219625</ele>
        <time>2021-10-28T09:37:06.000Z</time>
      </trkpt>
      <trkpt lat="39.359023" lon="-2.095156">
        <ele>681.266182</ele>
        <time>2021-10-28T09:37:08.000Z</time>
      </trkpt>
      <trkpt lat="39.358919" lon="-2.095103">
        <ele>681.337462</ele>
        <time>2021-10-28T09:37:10.000Z</time>
      </trkpt>
      <trkpt lat="39.358871" lon="-2.095081">
        <ele>681.369936</ele>
        <time>2021-10-28T09:37:11.000Z</time>
      </trkpt>
      <trkpt lat="39.358825" lon="-2.095055">
        <ele>681.401948</ele>
        <time>2021-10-28T09:37:12.000Z</time>
      </trkpt>
      <trkpt lat="39.358780" lon="-2.095025">
        <ele>681.434231</ele>
        <time>2021-10-28T09:37:13.000Z</time>
      </trkpt>
      <trkpt lat="39.358602" lon="-2.094888">
        <ele>681.566316</ele>
        <time>2021-10-28T09:37:17.000Z</time>
      </trkpt>
      <trkpt lat="39.358513" lon="-2.094860">
        <ele>681.624724</ele>
        <time>2021-10-28T09:37:19.000Z</time>
      </trkpt>
      <trkpt lat="39.358416" lon="-2.094857">
        <ele>681.686597</ele>
        <time>2021-10-28T09:37:21.000Z</time>
      </trkpt>
      <trkpt lat="39.358366" lon="-2.094862">
        <ele>681.718576</ele>
        <time>2021-10-28T09:37:22.000Z</time>
      </trkpt>
      <trkpt lat="39.358212" lon="-2.094862">
        <ele>681.816778</ele>
        <time>2021-10-28T09:37:25.000Z</time>
      </trkpt>
      <trkpt lat="39.358161" lon="-2.094849">
        <ele>681.849925</ele>
        <time>2021-10-28T09:37:26.000Z</time>
      </trkpt>
      <trkpt lat="39.357915" lon="-2.094745">
        <ele>682.014962</ele>
        <time>2021-10-28T09:37:31.000Z</time>
      </trkpt>
      <trkpt lat="39.357871" lon="-2.094719">
        <ele>682.045809</ele>
        <time>2021-10-28T09:37:32.000Z</time>
      </trkpt>
      <trkpt lat="39.357526" lon="-2.094503">
        <ele>682.290230</ele>
        <time>2021-10-28T09:37:39.000Z</time>
      </trkpt>
      <trkpt lat="39.357263" lon="-2.094385">
        <ele>682.307535</ele>
        <time>2021-10-28T09:37:44.000Z</time>
      </trkpt>
      <trkpt lat="39.357214" lon="-2.094358">
        <ele>682.293945</ele>
        <time>2021-10-28T09:37:45.000Z</time>
      </trkpt>
      <trkpt lat="39.356955" lon="-2.094218">
        <ele>682.222324</ele>
        <time>2021-10-28T09:37:50.000Z</time>
      </trkpt>
      <trkpt lat="39.356542" lon="-2.093961">
        <ele>682.105387</ele>
        <time>2021-10-28T09:37:58.000Z</time>
      </trkpt>
      <trkpt lat="39.356033" lon="-2.093603">
        <ele>681.957557</ele>
        <time>2021-10-28T09:38:08.000Z</time>
      </trkpt>
      <trkpt lat="39.355843" lon="-2.093416">
        <ele>681.896638</ele>
        <time>2021-10-28T09:38:12.000Z</time>
      </trkpt>
      <trkpt lat="39.355739" lon="-2.093346">
        <ele>681.836874</ele>
        <time>2021-10-28T09:38:14.000Z</time>
      </trkpt>
      <trkpt lat="39.355350" lon="-2.093052">
        <ele>681.597956</ele>
        <time>2021-10-28T09:38:22.000Z</time>
      </trkpt>
      <trkpt lat="39.355305" lon="-2.093008">
        <ele>681.568041</ele>
        <time>2021-10-28T09:38:23.000Z</time>
      </trkpt>
      <trkpt lat="39.355115" lon="-2.092823">
        <ele>681.441926</ele>
        <time>2021-10-28T09:38:27.000Z</time>
      </trkpt>
      <trkpt lat="39.354720" lon="-2.092485">
        <ele>681.190768</ele>
        <time>2021-10-28T09:38:35.000Z</time>
      </trkpt>
      <trkpt lat="39.354623" lon="-2.092398">
        <ele>681.128172</ele>
        <time>2021-10-28T09:38:37.000Z</time>
      </trkpt>
      <trkpt lat="39.354439" lon="-2.092228">
        <ele>681.008260</ele>
        <time>2021-10-28T09:38:41.000Z</time>
      </trkpt>
      <trkpt lat="39.354391" lon="-2.092190">
        <ele>680.978416</ele>
        <time>2021-10-28T09:38:42.000Z</time>
      </trkpt>
      <trkpt lat="39.354343" lon="-2.092151">
        <ele>680.948356</ele>
        <time>2021-10-28T09:38:43.000Z</time>
      </trkpt>
      <trkpt lat="39.353950" lon="-2.091852">
        <ele>680.968135</ele>
        <time>2021-10-28T09:38:51.000Z</time>
      </trkpt>
      <trkpt lat="39.353847" lon="-2.091790">
        <ele>680.975215</ele>
        <time>2021-10-28T09:38:53.000Z</time>
      </trkpt>
      <trkpt lat="39.353743" lon="-2.091755">
        <ele>680.981912</ele>
        <time>2021-10-28T09:38:55.000Z</time>
      </trkpt>
      <trkpt lat="39.353692" lon="-2.091732">
        <ele>680.985278</ele>
        <time>2021-10-28T09:38:56.000Z</time>
      </trkpt>
      <trkpt lat="39.353447" lon="-2.091593">
        <ele>681.001951</ele>
        <time>2021-10-28T09:39:01.000Z</time>
      </trkpt>
      <trkpt lat="39.353299" lon="-2.091488">
        <ele>681.012471</ele>
        <time>2021-10-28T09:39:04.000Z</time>
      </trkpt>
      <trkpt lat="39.353162" lon="-2.091352">
        <ele>681.023234</ele>
        <time>2021-10-28T09:39:07.000Z</time>
      </trkpt>
      <trkpt lat="39.352857" lon="-2.091031">
        <ele>681.047740</ele>
        <time>2021-10-28T09:39:14.000Z</time>
      </trkpt>
      <trkpt lat="39.352508" lon="-2.090700">
        <ele>681.077024</ele>
        <time>2021-10-28T09:39:22.000Z</time>
      </trkpt>
      <trkpt lat="39.352464" lon="-2.090674">
        <ele>681.080356</ele>
        <time>2021-10-28T09:39:23.000Z</time>
      </trkpt>
      <trkpt lat="39.352130" lon="-2.090445">
        <ele>681.106392</ele>
        <time>2021-10-28T09:39:30.000Z</time>
      </trkpt>
      <trkpt lat="39.352077" lon="-2.090420">
        <ele>681.110278</ele>
        <time>2021-10-28T09:39:31.000Z</time>
      </trkpt>
      <trkpt lat="39.351759" lon="-2.090318">
        <ele>681.132842</ele>
        <time>2021-10-28T09:39:37.000Z</time>
      </trkpt>
      <trkpt lat="39.351704" lon="-2.090315">
        <ele>681.136634</ele>
        <time>2021-10-28T09:39:38.000Z</time>
      </trkpt>
      <trkpt lat="39.351308" lon="-2.090376">
        <ele>681.164100</ele>
        <time>2021-10-28T09:39:45.000Z</time>
      </trkpt>
      <trkpt lat="39.350903" lon="-2.090556">
        <ele>681.424543</ele>
        <time>2021-10-28T09:39:52.000Z</time>
      </trkpt>
      <trkpt lat="39.350791" lon="-2.090618">
        <ele>681.546922</ele>
        <time>2021-10-28T09:39:54.000Z</time>
      </trkpt>
      <trkpt lat="39.350678" lon="-2.090652">
        <ele>681.663463</ele>
        <time>2021-10-28T09:39:56.000Z</time>
      </trkpt>
      <trkpt lat="39.350621" lon="-2.090656">
        <ele>681.720804</ele>
        <time>2021-10-28T09:39:57.000Z</time>
      </trkpt>
      <trkpt lat="39.350570" lon="-2.090654">
        <ele>681.772057</ele>
        <time>2021-10-28T09:39:58.000Z</time>
      </trkpt>
      <trkpt lat="39.350409" lon="-2.090600">
        <ele>681.939133</ele>
        <time>2021-10-28T09:40:01.000Z</time>
      </trkpt>
      <trkpt lat="39.350192" lon="-2.090531">
        <ele>682.163603</ele>
        <time>2021-10-28T09:40:06.000Z</time>
      </trkpt>
      <trkpt lat="39.350158" lon="-2.090514">
        <ele>682.200220</ele>
        <time>2021-10-28T09:40:07.000Z</time>
      </trkpt>
      <trkpt lat="39.350059" lon="-2.090429">
        <ele>682.319588</ele>
        <time>2021-10-28T09:40:10.000Z</time>
      </trkpt>
      <trkpt lat="39.350030" lon="-2.090387">
        <ele>682.363326</ele>
        <time>2021-10-28T09:40:11.000Z</time>
      </trkpt>
      <trkpt lat="39.349866" lon="-2.090013">
        <ele>682.697296</ele>
        <time>2021-10-28T09:40:18.000Z</time>
      </trkpt>
      <trkpt lat="39.349672" lon="-2.089496">
        <ele>682.869857</ele>
        <time>2021-10-28T09:40:26.000Z</time>
      </trkpt>
      <trkpt lat="39.349534" lon="-2.089070">
        <ele>682.615929</ele>
        <time>2021-10-28T09:40:32.000Z</time>
      </trkpt>
      <trkpt lat="39.349513" lon="-2.088997">
        <ele>682.573108</ele>
        <time>2021-10-28T09:40:33.000Z</time>
      </trkpt>
      <trkpt lat="39.349448" lon="-2.088786">
        <ele>682.448237</ele>
        <time>2021-10-28T09:40:36.000Z</time>
      </trkpt>
      <trkpt lat="39.349407" lon="-2.088664">
        <ele>682.375103</ele>
        <time>2021-10-28T09:40:38.000Z</time>
      </trkpt>
      <trkpt lat="39.349262" lon="-2.088305">
        <ele>682.152430</ele>
        <time>2021-10-28T09:40:45.000Z</time>
      </trkpt>
      <trkpt lat="39.349200" lon="-2.088123">
        <ele>682.043090</ele>
        <time>2021-10-28T09:40:50.000Z</time>
      </trkpt>
      <trkpt lat="39.349202" lon="-2.088129">
        <ele>682.039497</ele>
        <time>2021-10-28T09:40:53.000Z</time>
      </trkpt>
      <trkpt lat="39.349206" lon="-2.088135">
        <ele>682.035142</ele>
        <time>2021-10-28T09:40:57.000Z</time>
      </trkpt>
      <trkpt lat="39.349206" lon="-2.088138">
        <ele>682.033493</ele>
        <time>2021-10-28T09:40:58.000Z</time>
      </trkpt>
      <trkpt lat="39.349222" lon="-2.088134">
        <ele>682.021907</ele>
        <time>2021-10-28T09:41:06.000Z</time>
      </trkpt>
      <trkpt lat="39.349214" lon="-2.088139">
        <ele>682.015589</ele>
        <time>2021-10-28T09:41:10.000Z</time>
      </trkpt>
      <trkpt lat="39.349213" lon="-2.088139">
        <ele>682.014879</ele>
        <time>2021-10-28T09:41:11.000Z</time>
      </trkpt>
      <trkpt lat="39.349213" lon="-2.088139">
        <ele>682.014879</ele>
        <time>2021-10-28T09:41:12.000Z</time>
      </trkpt>
      <trkpt lat="39.349213" lon="-2.088140">
        <ele>682.014329</ele>
        <time>2021-10-28T09:41:13.000Z</time>
      </trkpt>
      <trkpt lat="39.349210" lon="-2.088140">
        <ele>682.012196</ele>
        <time>2021-10-28T09:41:16.000Z</time>
      </trkpt>
      <trkpt lat="39.349209" lon="-2.088120">
        <ele>682.001177</ele>
        <time>2021-10-28T09:41:26.000Z</time>
      </trkpt>
      <trkpt lat="39.349172" lon="-2.088004">
        <ele>681.932190</ele>
        <time>2021-10-28T09:41:30.000Z</time>
      </trkpt>
      <trkpt lat="39.349112" lon="-2.087871">
        <ele>681.847535</ele>
        <time>2021-10-28T09:41:33.000Z</time>
      </trkpt>
      <trkpt lat="39.349052" lon="-2.087720">
        <ele>681.754198</ele>
        <time>2021-10-28T09:41:36.000Z</time>
      </trkpt>
      <trkpt lat="39.348939" lon="-2.087470">
        <ele>681.626243</ele>
        <time>2021-10-28T09:41:41.000Z</time>
      </trkpt>
      <trkpt lat="39.348877" lon="-2.087378">
        <ele>681.578285</ele>
        <time>2021-10-28T09:41:43.000Z</time>
      </trkpt>
      <trkpt lat="39.348807" lon="-2.087292">
        <ele>681.529215</ele>
        <time>2021-10-28T09:41:45.000Z</time>
      </trkpt>
      <trkpt lat="39.348732" lon="-2.087209">
        <ele>681.479048</ele>
        <time>2021-10-28T09:41:47.000Z</time>
      </trkpt>
      <trkpt lat="39.348578" lon="-2.087029">
        <ele>681.373553</ele>
        <time>2021-10-28T09:41:51.000Z</time>
      </trkpt>
      <trkpt lat="39.348265" lon="-2.086647">
        <ele>681.154830</ele>
        <time>2021-10-28T09:41:59.000Z</time>
      </trkpt>
      <trkpt lat="39.348010" lon="-2.086309">
        <ele>680.969253</ele>
        <time>2021-10-28T09:42:06.000Z</time>
      </trkpt>
      <trkpt lat="39.347972" lon="-2.086263">
        <ele>680.942800</ele>
        <time>2021-10-28T09:42:07.000Z</time>
      </trkpt>
      <trkpt lat="39.347551" lon="-2.085760">
        <ele>681.268774</ele>
        <time>2021-10-28T09:42:18.000Z</time>
      </trkpt>
      <trkpt lat="39.347514" lon="-2.085715">
        <ele>681.357605</ele>
        <time>2021-10-28T09:42:19.000Z</time>
      </trkpt>
      <trkpt lat="39.347406" lon="-2.085582">
        <ele>681.618430</ele>
        <time>2021-10-28T09:42:22.000Z</time>
      </trkpt>
      <trkpt lat="39.347123" lon="-2.085224">
        <ele>682.310803</ele>
        <time>2021-10-28T09:42:30.000Z</time>
      </trkpt>
      <trkpt lat="39.346904" lon="-2.084977">
        <ele>682.819019</ele>
        <time>2021-10-28T09:42:36.000Z</time>
      </trkpt>
      <trkpt lat="39.346860" lon="-2.084951">
        <ele>682.903623</ele>
        <time>2021-10-28T09:42:37.000Z</time>
      </trkpt>
      <trkpt lat="39.346811" lon="-2.084934">
        <ele>682.992349</ele>
        <time>2021-10-28T09:42:38.000Z</time>
      </trkpt>
      <trkpt lat="39.346707" lon="-2.084933">
        <ele>683.174237</ele>
        <time>2021-10-28T09:42:40.000Z</time>
      </trkpt>
      <trkpt lat="39.346654" lon="-2.084943">
        <ele>683.267909</ele>
        <time>2021-10-28T09:42:41.000Z</time>
      </trkpt>
      <trkpt lat="39.346342" lon="-2.085028">
        <ele>683.825536</ele>
        <time>2021-10-28T09:42:47.000Z</time>
      </trkpt>
      <trkpt lat="39.346293" lon="-2.085054">
        <ele>683.918165</ele>
        <time>2021-10-28T09:42:48.000Z</time>
      </trkpt>
      <trkpt lat="39.346114" lon="-2.085139">
        <ele>684.379610</ele>
        <time>2021-10-28T09:42:52.000Z</time>
      </trkpt>
      <trkpt lat="39.346033" lon="-2.085164">
        <ele>684.584302</ele>
        <time>2021-10-28T09:42:54.000Z</time>
      </trkpt>
      <trkpt lat="39.345881" lon="-2.085221">
        <ele>684.973314</ele>
        <time>2021-10-28T09:42:58.000Z</time>
      </trkpt>
      <trkpt lat="39.345773" lon="-2.085284">
        <ele>685.264541</ele>
        <time>2021-10-28T09:43:01.000Z</time>
      </trkpt>
      <trkpt lat="39.345579" lon="-2.085355">
        <ele>685.760127</ele>
        <time>2021-10-28T09:43:06.000Z</time>
      </trkpt>
      <trkpt lat="39.345506" lon="-2.085410">
        <ele>685.967799</ele>
        <time>2021-10-28T09:43:08.000Z</time>
      </trkpt>
      <trkpt lat="39.345373" lon="-2.085544">
        <ele>686.382232</ele>
        <time>2021-10-28T09:43:12.000Z</time>
      </trkpt>
      <trkpt lat="39.345295" lon="-2.085655">
        <ele>686.667326</ele>
        <time>2021-10-28T09:43:15.000Z</time>
      </trkpt>
      <trkpt lat="39.345184" lon="-2.085790">
        <ele>687.041886</ele>
        <time>2021-10-28T09:43:19.000Z</time>
      </trkpt>
      <trkpt lat="39.345093" lon="-2.085881">
        <ele>687.324649</ele>
        <time>2021-10-28T09:43:22.000Z</time>
      </trkpt>
      <trkpt lat="39.345062" lon="-2.085909">
        <ele>687.417596</ele>
        <time>2021-10-28T09:43:23.000Z</time>
      </trkpt>
      <trkpt lat="39.345002" lon="-2.085969">
        <ele>687.604033</ele>
        <time>2021-10-28T09:43:25.000Z</time>
      </trkpt>
      <trkpt lat="39.344900" lon="-2.086141">
        <ele>688.016049</ele>
        <time>2021-10-28T09:43:29.000Z</time>
      </trkpt>
      <trkpt lat="39.344767" lon="-2.086375">
        <ele>688.619990</ele>
        <time>2021-10-28T09:43:33.000Z</time>
      </trkpt>
      <trkpt lat="39.344685" lon="-2.086509">
        <ele>689.024776</ele>
        <time>2021-10-28T09:43:35.000Z</time>
      </trkpt>
      <trkpt lat="39.344639" lon="-2.086576">
        <ele>689.237013</ele>
        <time>2021-10-28T09:43:36.000Z</time>
      </trkpt>
      <trkpt lat="39.344539" lon="-2.086709">
        <ele>689.676436</ele>
        <time>2021-10-28T09:43:38.000Z</time>
      </trkpt>
      <trkpt lat="39.344485" lon="-2.086756">
        <ele>689.875827</ele>
        <time>2021-10-28T09:43:39.000Z</time>
      </trkpt>
      <trkpt lat="39.344373" lon="-2.086778">
        <ele>690.222836</ele>
        <time>2021-10-28T09:43:41.000Z</time>
      </trkpt>
      <trkpt lat="39.344323" lon="-2.086777">
        <ele>690.376012</ele>
        <time>2021-10-28T09:43:42.000Z</time>
      </trkpt>
      <trkpt lat="39.344141" lon="-2.086815">
        <ele>690.940726</ele>
        <time>2021-10-28T09:43:46.000Z</time>
      </trkpt>
      <trkpt lat="39.344060" lon="-2.086849">
        <ele>691.201587</ele>
        <time>2021-10-28T09:43:48.000Z</time>
      </trkpt>
      <trkpt lat="39.344019" lon="-2.086858">
        <ele>691.328973</ele>
        <time>2021-10-28T09:43:49.000Z</time>
      </trkpt>
      <trkpt lat="39.343896" lon="-2.086873">
        <ele>691.707413</ele>
        <time>2021-10-28T09:43:52.000Z</time>
      </trkpt>
      <trkpt lat="39.343821" lon="-2.086881">
        <ele>691.937930</ele>
        <time>2021-10-28T09:43:54.000Z</time>
      </trkpt>
      <trkpt lat="39.343750" lon="-2.086898">
        <ele>692.159111</ele>
        <time>2021-10-28T09:43:56.000Z</time>
      </trkpt>
      <trkpt lat="39.343611" lon="-2.086947">
        <ele>692.600428</ele>
        <time>2021-10-28T09:44:00.000Z</time>
      </trkpt>
      <trkpt lat="39.343543" lon="-2.086975">
        <ele>692.819028</ele>
        <time>2021-10-28T09:44:02.000Z</time>
      </trkpt>
      <trkpt lat="39.343367" lon="-2.087042">
        <ele>693.381022</ele>
        <time>2021-10-28T09:44:07.000Z</time>
      </trkpt>
      <trkpt lat="39.343182" lon="-2.087080">
        <ele>693.995272</ele>
        <time>2021-10-28T09:44:12.000Z</time>
      </trkpt>
      <trkpt lat="39.342999" lon="-2.087081">
        <ele>694.813275</ele>
        <time>2021-10-28T09:44:17.000Z</time>
      </trkpt>
      <trkpt lat="39.342886" lon="-2.087067">
        <ele>695.320689</ele>
        <time>2021-10-28T09:44:20.000Z</time>
      </trkpt>
      <trkpt lat="39.342812" lon="-2.087056">
        <ele>695.653642</ele>
        <time>2021-10-28T09:44:22.000Z</time>
      </trkpt>
      <trkpt lat="39.342706" lon="-2.087035">
        <ele>696.132982</ele>
        <time>2021-10-28T09:44:25.000Z</time>
      </trkpt>
      <trkpt lat="39.342614" lon="-2.087000">
        <ele>696.561644</ele>
        <time>2021-10-28T09:44:28.000Z</time>
      </trkpt>
      <trkpt lat="39.342529" lon="-2.086958">
        <ele>696.968384</ele>
        <time>2021-10-28T09:44:31.000Z</time>
      </trkpt>
      <trkpt lat="39.342429" lon="-2.086871">
        <ele>697.507135</ele>
        <time>2021-10-28T09:44:35.000Z</time>
      </trkpt>
      <trkpt lat="39.342299" lon="-2.086744">
        <ele>698.235428</ele>
        <time>2021-10-28T09:44:40.000Z</time>
      </trkpt>
      <trkpt lat="39.342171" lon="-2.086630">
        <ele>698.930166</ele>
        <time>2021-10-28T09:44:45.000Z</time>
      </trkpt>
      <trkpt lat="39.342113" lon="-2.086601">
        <ele>699.208129</ele>
        <time>2021-10-28T09:44:47.000Z</time>
      </trkpt>
      <trkpt lat="39.341935" lon="-2.086513">
        <ele>700.059949</ele>
        <time>2021-10-28T09:44:53.000Z</time>
      </trkpt>
      <trkpt lat="39.341903" lon="-2.086495">
        <ele>700.215935</ele>
        <time>2021-10-28T09:44:54.000Z</time>
      </trkpt>
      <trkpt lat="39.341676" lon="-2.086358">
        <ele>701.335692</ele>
        <time>2021-10-28T09:45:01.000Z</time>
      </trkpt>
      <trkpt lat="39.341547" lon="-2.086268">
        <ele>701.845306</ele>
        <time>2021-10-28T09:45:05.000Z</time>
      </trkpt>
      <trkpt lat="39.341435" lon="-2.086209">
        <ele>701.453319</ele>
        <time>2021-10-28T09:45:08.000Z</time>
      </trkpt>
      <trkpt lat="39.341394" lon="-2.086189">
        <ele>701.311286</ele>
        <time>2021-10-28T09:45:09.000Z</time>
      </trkpt>
      <trkpt lat="39.341310" lon="-2.086145">
        <ele>701.017532</ele>
        <time>2021-10-28T09:45:11.000Z</time>
      </trkpt>
      <trkpt lat="39.341186" lon="-2.086075">
        <ele>700.578987</ele>
        <time>2021-10-28T09:45:14.000Z</time>
      </trkpt>
      <trkpt lat="39.341055" lon="-2.086020">
        <ele>700.132564</ele>
        <time>2021-10-28T09:45:17.000Z</time>
      </trkpt>
      <trkpt lat="39.341011" lon="-2.086005">
        <ele>699.985077</ele>
        <time>2021-10-28T09:45:18.000Z</time>
      </trkpt>
      <trkpt lat="39.340867" lon="-2.085952">
        <ele>699.499801</ele>
        <time>2021-10-28T09:45:21.000Z</time>
      </trkpt>
      <trkpt lat="39.340769" lon="-2.085916">
        <ele>699.169592</ele>
        <time>2021-10-28T09:45:23.000Z</time>
      </trkpt>
      <trkpt lat="39.340661" lon="-2.085885">
        <ele>698.811019</ele>
        <time>2021-10-28T09:45:25.000Z</time>
      </trkpt>
      <trkpt lat="39.340414" lon="-2.085808">
        <ele>697.987498</ele>
        <time>2021-10-28T09:45:29.000Z</time>
      </trkpt>
      <trkpt lat="39.340240" lon="-2.085772">
        <ele>697.416352</ele>
        <time>2021-10-28T09:45:32.000Z</time>
      </trkpt>
      <trkpt lat="39.340132" lon="-2.085763">
        <ele>697.065574</ele>
        <time>2021-10-28T09:45:34.000Z</time>
      </trkpt>
      <trkpt lat="39.339985" lon="-2.085720">
        <ele>696.577075</ele>
        <time>2021-10-28T09:45:38.000Z</time>
      </trkpt>
      <trkpt lat="39.339960" lon="-2.085687">
        <ele>696.461277</ele>
        <time>2021-10-28T09:45:39.000Z</time>
      </trkpt>
      <trkpt lat="39.339934" lon="-2.085634">
        <ele>696.303947</ele>
        <time>2021-10-28T09:45:40.000Z</time>
      </trkpt>
      <trkpt lat="39.339912" lon="-2.085576">
        <ele>696.142010</ele>
        <time>2021-10-28T09:45:41.000Z</time>
      </trkpt>
      <trkpt lat="39.339890" lon="-2.085503">
        <ele>696.043410</ele>
        <time>2021-10-28T09:45:42.000Z</time>
      </trkpt>
      <trkpt lat="39.339872" lon="-2.085422">
        <ele>695.989751</ele>
        <time>2021-10-28T09:45:43.000Z</time>
      </trkpt>
      <trkpt lat="39.339847" lon="-2.085258">
        <ele>695.883324</ele>
        <time>2021-10-28T09:45:45.000Z</time>
      </trkpt>
      <trkpt lat="39.339782" lon="-2.085098">
        <ele>695.768254</ele>
        <time>2021-10-28T09:45:47.000Z</time>
      </trkpt>
      <trkpt lat="39.339734" lon="-2.085036">
        <ele>695.712399</ele>
        <time>2021-10-28T09:45:48.000Z</time>
      </trkpt>
      <trkpt lat="39.339686" lon="-2.084985">
        <ele>695.661254</ele>
        <time>2021-10-28T09:45:49.000Z</time>
      </trkpt>
      <trkpt lat="39.339545" lon="-2.084853">
        <ele>695.517945</ele>
        <time>2021-10-28T09:45:52.000Z</time>
      </trkpt>
      <trkpt lat="39.339303" lon="-2.084574">
        <ele>695.251026</ele>
        <time>2021-10-28T09:45:58.000Z</time>
      </trkpt>
      <trkpt lat="39.339273" lon="-2.084530">
        <ele>695.213679</ele>
        <time>2021-10-28T09:45:59.000Z</time>
      </trkpt>
      <trkpt lat="39.339248" lon="-2.084484">
        <ele>695.177883</ele>
        <time>2021-10-28T09:46:00.000Z</time>
      </trkpt>
      <trkpt lat="39.339200" lon="-2.084385">
        <ele>695.103488</ele>
        <time>2021-10-28T09:46:02.000Z</time>
      </trkpt>
      <trkpt lat="39.339172" lon="-2.084339">
        <ele>695.066217</ele>
        <time>2021-10-28T09:46:03.000Z</time>
      </trkpt>
      <trkpt lat="39.338973" lon="-2.084025">
        <ele>694.807743</ele>
        <time>2021-10-28T09:46:09.000Z</time>
      </trkpt>
      <trkpt lat="39.338937" lon="-2.083966">
        <ele>694.759895</ele>
        <time>2021-10-28T09:46:10.000Z</time>
      </trkpt>
      <trkpt lat="39.338745" lon="-2.083671">
        <ele>694.289096</ele>
        <time>2021-10-28T09:46:15.000Z</time>
      </trkpt>
      <trkpt lat="39.338658" lon="-2.083573">
        <ele>693.931752</ele>
        <time>2021-10-28T09:46:17.000Z</time>
      </trkpt>
      <trkpt lat="39.338501" lon="-2.083387">
        <ele>693.272286</ele>
        <time>2021-10-28T09:46:22.000Z</time>
      </trkpt>
      <trkpt lat="39.338398" lon="-2.083237">
        <ele>692.791830</ele>
        <time>2021-10-28T09:46:25.000Z</time>
      </trkpt>
      <trkpt lat="39.338353" lon="-2.083180">
        <ele>692.596734</ele>
        <time>2021-10-28T09:46:26.000Z</time>
      </trkpt>
      <trkpt lat="39.338304" lon="-2.083134">
        <ele>692.409202</ele>
        <time>2021-10-28T09:46:27.000Z</time>
      </trkpt>
      <trkpt lat="39.338249" lon="-2.083091">
        <ele>692.210151</ele>
        <time>2021-10-28T09:46:28.000Z</time>
      </trkpt>
      <trkpt lat="39.338091" lon="-2.082971">
        <ele>691.642657</ele>
        <time>2021-10-28T09:46:31.000Z</time>
      </trkpt>
      <trkpt lat="39.337987" lon="-2.082886">
        <ele>691.261620</ele>
        <time>2021-10-28T09:46:33.000Z</time>
      </trkpt>
      <trkpt lat="39.337869" lon="-2.082814">
        <ele>690.857529</ele>
        <time>2021-10-28T09:46:35.000Z</time>
      </trkpt>
      <trkpt lat="39.337805" lon="-2.082789">
        <ele>690.650476</ele>
        <time>2021-10-28T09:46:36.000Z</time>
      </trkpt>
      <trkpt lat="39.337741" lon="-2.082759">
        <ele>690.439646</ele>
        <time>2021-10-28T09:46:37.000Z</time>
      </trkpt>
      <trkpt lat="39.337679" lon="-2.082720">
        <ele>690.226117</ele>
        <time>2021-10-28T09:46:38.000Z</time>
      </trkpt>
      <trkpt lat="39.337559" lon="-2.082596">
        <ele>689.750376</ele>
        <time>2021-10-28T09:46:40.000Z</time>
      </trkpt>
      <trkpt lat="39.337511" lon="-2.082521">
        <ele>689.517201</ele>
        <time>2021-10-28T09:46:41.000Z</time>
      </trkpt>
      <trkpt lat="39.337472" lon="-2.082427">
        <ele>689.261696</ele>
        <time>2021-10-28T09:46:42.000Z</time>
      </trkpt>
      <trkpt lat="39.337437" lon="-2.082323">
        <ele>689.011428</ele>
        <time>2021-10-28T09:46:43.000Z</time>
      </trkpt>
      <trkpt lat="39.337403" lon="-2.082215">
        <ele>688.899867</ele>
        <time>2021-10-28T09:46:44.000Z</time>
      </trkpt>
      <trkpt lat="39.337374" lon="-2.082116">
        <ele>688.798582</ele>
        <time>2021-10-28T09:46:45.000Z</time>
      </trkpt>
      <trkpt lat="39.337338" lon="-2.082020">
        <ele>688.696507</ele>
        <time>2021-10-28T09:46:46.000Z</time>
      </trkpt>
      <trkpt lat="39.337253" lon="-2.081881">
        <ele>688.526972</ele>
        <time>2021-10-28T09:46:48.000Z</time>
      </trkpt>
      <trkpt lat="39.337143" lon="-2.081804">
        <ele>688.372236</ele>
        <time>2021-10-28T09:46:50.000Z</time>
      </trkpt>
      <trkpt lat="39.337088" lon="-2.081771">
        <ele>688.297231</ele>
        <time>2021-10-28T09:46:51.000Z</time>
      </trkpt>
      <trkpt lat="39.336995" lon="-2.081695">
        <ele>688.161134</ele>
        <time>2021-10-28T09:46:53.000Z</time>
      </trkpt>
      <trkpt lat="39.336955" lon="-2.081646">
        <ele>688.092970</ele>
        <time>2021-10-28T09:46:54.000Z</time>
      </trkpt>
      <trkpt lat="39.336916" lon="-2.081594">
        <ele>688.023669</ele>
        <time>2021-10-28T09:46:55.000Z</time>
      </trkpt>
      <trkpt lat="39.336880" lon="-2.081538">
        <ele>687.953999</ele>
        <time>2021-10-28T09:46:56.000Z</time>
      </trkpt>
      <trkpt lat="39.336847" lon="-2.081476">
        <ele>687.881991</ele>
        <time>2021-10-28T09:46:57.000Z</time>
      </trkpt>
      <trkpt lat="39.336784" lon="-2.081342">
        <ele>687.731956</ele>
        <time>2021-10-28T09:46:59.000Z</time>
      </trkpt>
      <trkpt lat="39.336629" lon="-2.081041">
        <ele>687.385980</ele>
        <time>2021-10-28T09:47:03.000Z</time>
      </trkpt>
      <trkpt lat="39.336548" lon="-2.080887">
        <ele>687.207796</ele>
        <time>2021-10-28T09:47:05.000Z</time>
      </trkpt>
      <trkpt lat="39.336420" lon="-2.080671">
        <ele>686.947449</ele>
        <time>2021-10-28T09:47:08.000Z</time>
      </trkpt>
      <trkpt lat="39.336265" lon="-2.080405">
        <ele>686.831225</ele>
        <time>2021-10-28T09:47:12.000Z</time>
      </trkpt>
      <trkpt lat="39.335898" lon="-2.079892">
        <ele>686.950028</ele>
        <time>2021-10-28T09:47:21.000Z</time>
      </trkpt>
      <trkpt lat="39.335661" lon="-2.079576">
        <ele>687.024862</ele>
        <time>2021-10-28T09:47:27.000Z</time>
      </trkpt>
      <trkpt lat="39.335620" lon="-2.079539">
        <ele>687.035852</ele>
        <time>2021-10-28T09:47:28.000Z</time>
      </trkpt>
      <trkpt lat="39.335503" lon="-2.079409">
        <ele>687.069762</ele>
        <time>2021-10-28T09:47:31.000Z</time>
      </trkpt>
      <trkpt lat="39.335396" lon="-2.079261">
        <ele>687.104205</ele>
        <time>2021-10-28T09:47:34.000Z</time>
      </trkpt>
      <trkpt lat="39.335330" lon="-2.079157">
        <ele>687.127076</ele>
        <time>2021-10-28T09:47:36.000Z</time>
      </trkpt>
      <trkpt lat="39.335146" lon="-2.078901">
        <ele>687.186490</ele>
        <time>2021-10-28T09:47:41.000Z</time>
      </trkpt>
      <trkpt lat="39.334955" lon="-2.078590">
        <ele>686.917109</ele>
        <time>2021-10-28T09:47:46.000Z</time>
      </trkpt>
      <trkpt lat="39.334913" lon="-2.078529">
        <ele>686.850291</ele>
        <time>2021-10-28T09:47:47.000Z</time>
      </trkpt>
      <trkpt lat="39.334869" lon="-2.078472">
        <ele>686.784404</ele>
        <time>2021-10-28T09:47:48.000Z</time>
      </trkpt>
      <trkpt lat="39.334825" lon="-2.078421">
        <ele>686.721895</ele>
        <time>2021-10-28T09:47:49.000Z</time>
      </trkpt>
      <trkpt lat="39.334735" lon="-2.078329">
        <ele>686.600531</ele>
        <time>2021-10-28T09:47:51.000Z</time>
      </trkpt>
      <trkpt lat="39.334584" lon="-2.078220">
        <ele>686.417593</ele>
        <time>2021-10-28T09:47:54.000Z</time>
      </trkpt>
      <trkpt lat="39.334074" lon="-2.077858">
        <ele>685.802158</ele>
        <time>2021-10-28T09:48:04.000Z</time>
      </trkpt>
      <trkpt lat="39.333973" lon="-2.077780">
        <ele>685.677711</ele>
        <time>2021-10-28T09:48:06.000Z</time>
      </trkpt>
      <trkpt lat="39.333869" lon="-2.077697">
        <ele>685.548427</ele>
        <time>2021-10-28T09:48:08.000Z</time>
      </trkpt>
      <trkpt lat="39.333521" lon="-2.077447">
        <ele>684.798611</ele>
        <time>2021-10-28T09:48:14.000Z</time>
      </trkpt>
      <trkpt lat="39.333461" lon="-2.077411">
        <ele>684.590205</ele>
        <time>2021-10-28T09:48:15.000Z</time>
      </trkpt>
      <trkpt lat="39.333031" lon="-2.077120">
        <ele>683.061031</ele>
        <time>2021-10-28T09:48:22.000Z</time>
      </trkpt>
      <trkpt lat="39.332966" lon="-2.077077">
        <ele>682.830983</ele>
        <time>2021-10-28T09:48:23.000Z</time>
      </trkpt>
      <trkpt lat="39.332762" lon="-2.076980">
        <ele>682.146152</ele>
        <time>2021-10-28T09:48:26.000Z</time>
      </trkpt>
      <trkpt lat="39.332695" lon="-2.076955">
        <ele>681.926440</ele>
        <time>2021-10-28T09:48:27.000Z</time>
      </trkpt>
      <trkpt lat="39.332555" lon="-2.076897">
        <ele>681.463251</ele>
        <time>2021-10-28T09:48:29.000Z</time>
      </trkpt>
      <trkpt lat="39.332354" lon="-2.076761">
        <ele>680.748478</ele>
        <time>2021-10-28T09:48:32.000Z</time>
      </trkpt>
      <trkpt lat="39.332295" lon="-2.076694">
        <ele>680.501061</ele>
        <time>2021-10-28T09:48:33.000Z</time>
      </trkpt>
      <trkpt lat="39.332246" lon="-2.076612">
        <ele>680.248538</ele>
        <time>2021-10-28T09:48:34.000Z</time>
      </trkpt>
      <trkpt lat="39.332209" lon="-2.076512">
        <ele>679.978390</ele>
        <time>2021-10-28T09:48:35.000Z</time>
      </trkpt>
      <trkpt lat="39.332186" lon="-2.076406">
        <ele>679.710096</ele>
        <time>2021-10-28T09:48:36.000Z</time>
      </trkpt>
      <trkpt lat="39.332158" lon="-2.076193">
        <ele>679.666776</ele>
        <time>2021-10-28T09:48:38.000Z</time>
      </trkpt>
      <trkpt lat="39.332128" lon="-2.076107">
        <ele>679.687699</ele>
        <time>2021-10-28T09:48:39.000Z</time>
      </trkpt>
      <trkpt lat="39.332079" lon="-2.076055">
        <ele>679.705875</ele>
        <time>2021-10-28T09:48:40.000Z</time>
      </trkpt>
      <trkpt lat="39.332021" lon="-2.076026">
        <ele>679.723706</ele>
        <time>2021-10-28T09:48:41.000Z</time>
      </trkpt>
      <trkpt lat="39.331920" lon="-2.076032">
        <ele>679.752696</ele>
        <time>2021-10-28T09:48:43.000Z</time>
      </trkpt>
      <trkpt lat="39.331877" lon="-2.076058">
        <ele>679.766306</ele>
        <time>2021-10-28T09:48:44.000Z</time>
      </trkpt>
      <trkpt lat="39.331844" lon="-2.076098">
        <ele>679.779277</ele>
        <time>2021-10-28T09:48:45.000Z</time>
      </trkpt>
      <trkpt lat="39.331813" lon="-2.076136">
        <ele>679.791525</ele>
        <time>2021-10-28T09:48:46.000Z</time>
      </trkpt>
      <trkpt lat="39.331785" lon="-2.076178">
        <ele>679.803822</ele>
        <time>2021-10-28T09:48:47.000Z</time>
      </trkpt>
      <trkpt lat="39.331754" lon="-2.076221">
        <ele>679.816859</ele>
        <time>2021-10-28T09:48:48.000Z</time>
      </trkpt>
      <trkpt lat="39.331682" lon="-2.076297">
        <ele>679.843510</ele>
        <time>2021-10-28T09:48:50.000Z</time>
      </trkpt>
      <trkpt lat="39.331643" lon="-2.076327">
        <ele>679.856521</ele>
        <time>2021-10-28T09:48:51.000Z</time>
      </trkpt>
      <trkpt lat="39.331601" lon="-2.076352">
        <ele>679.869779</ele>
        <time>2021-10-28T09:48:52.000Z</time>
      </trkpt>
      <trkpt lat="39.331555" lon="-2.076374">
        <ele>679.883842</ele>
        <time>2021-10-28T09:48:53.000Z</time>
      </trkpt>
      <trkpt lat="39.331410" lon="-2.076409">
        <ele>679.926135</ele>
        <time>2021-10-28T09:48:56.000Z</time>
      </trkpt>
      <trkpt lat="39.331360" lon="-2.076407">
        <ele>679.940478</ele>
        <time>2021-10-28T09:48:57.000Z</time>
      </trkpt>
      <trkpt lat="39.331151" lon="-2.076348">
        <ele>680.001816</ele>
        <time>2021-10-28T09:49:01.000Z</time>
      </trkpt>
      <trkpt lat="39.331097" lon="-2.076333">
        <ele>680.017652</ele>
        <time>2021-10-28T09:49:02.000Z</time>
      </trkpt>
      <trkpt lat="39.330707" lon="-2.076258">
        <ele>680.130705</ele>
        <time>2021-10-28T09:49:09.000Z</time>
      </trkpt>
      <trkpt lat="39.330591" lon="-2.076232">
        <ele>680.202573</ele>
        <time>2021-10-28T09:49:11.000Z</time>
      </trkpt>
      <trkpt lat="39.330306" lon="-2.076148">
        <ele>680.429781</ele>
        <time>2021-10-28T09:49:16.000Z</time>
      </trkpt>
      <trkpt lat="39.330251" lon="-2.076128">
        <ele>680.474190</ele>
        <time>2021-10-28T09:49:17.000Z</time>
      </trkpt>
      <trkpt lat="39.329810" lon="-2.075981">
        <ele>680.828180</ele>
        <time>2021-10-28T09:49:25.000Z</time>
      </trkpt>
      <trkpt lat="39.329489" lon="-2.075945">
        <ele>681.078623</ele>
        <time>2021-10-28T09:49:31.000Z</time>
      </trkpt>
      <trkpt lat="39.329437" lon="-2.075938">
        <ele>681.119260</ele>
        <time>2021-10-28T09:49:32.000Z</time>
      </trkpt>
      <trkpt lat="39.329334" lon="-2.075922">
        <ele>681.199895</ele>
        <time>2021-10-28T09:49:34.000Z</time>
      </trkpt>
      <trkpt lat="39.329187" lon="-2.075883">
        <ele>681.316536</ele>
        <time>2021-10-28T09:49:37.000Z</time>
      </trkpt>
      <trkpt lat="39.328806" lon="-2.075732">
        <ele>681.394066</ele>
        <time>2021-10-28T09:49:45.000Z</time>
      </trkpt>
      <trkpt lat="39.328755" lon="-2.075719">
        <ele>681.325438</ele>
        <time>2021-10-28T09:49:46.000Z</time>
      </trkpt>
      <trkpt lat="39.328550" lon="-2.075709">
        <ele>681.054597</ele>
        <time>2021-10-28T09:49:50.000Z</time>
      </trkpt>
      <trkpt lat="39.328197" lon="-2.075677">
        <ele>680.587410</ele>
        <time>2021-10-28T09:49:57.000Z</time>
      </trkpt>
      <trkpt lat="39.328148" lon="-2.075656">
        <ele>680.519257</ele>
        <time>2021-10-28T09:49:58.000Z</time>
      </trkpt>
      <trkpt lat="39.327958" lon="-2.075532">
        <ele>680.238260</ele>
        <time>2021-10-28T09:50:02.000Z</time>
      </trkpt>
      <trkpt lat="39.327906" lon="-2.075502">
        <ele>680.163082</ele>
        <time>2021-10-28T09:50:03.000Z</time>
      </trkpt>
      <trkpt lat="39.327852" lon="-2.075477">
        <ele>680.087355</ele>
        <time>2021-10-28T09:50:04.000Z</time>
      </trkpt>
      <trkpt lat="39.327644" lon="-2.075425">
        <ele>679.807659</ele>
        <time>2021-10-28T09:50:08.000Z</time>
      </trkpt>
      <trkpt lat="39.327196" lon="-2.075283">
        <ele>679.198675</ele>
        <time>2021-10-28T09:50:17.000Z</time>
      </trkpt>
      <trkpt lat="39.326779" lon="-2.075120">
        <ele>678.865640</ele>
        <time>2021-10-28T09:50:25.000Z</time>
      </trkpt>
      <trkpt lat="39.326386" lon="-2.075004">
        <ele>678.571144</ele>
        <time>2021-10-28T09:50:32.000Z</time>
      </trkpt>
      <trkpt lat="39.325884" lon="-2.074823">
        <ele>678.190409</ele>
        <time>2021-10-28T09:50:41.000Z</time>
      </trkpt>
      <trkpt lat="39.325828" lon="-2.074799">
        <ele>678.147308</ele>
        <time>2021-10-28T09:50:42.000Z</time>
      </trkpt>
      <trkpt lat="39.325562" lon="-2.074672">
        <ele>677.940151</ele>
        <time>2021-10-28T09:50:47.000Z</time>
      </trkpt>
      <trkpt lat="39.325455" lon="-2.074613">
        <ele>677.855168</ele>
        <time>2021-10-28T09:50:49.000Z</time>
      </trkpt>
      <trkpt lat="39.324963" lon="-2.074389">
        <ele>677.531816</ele>
        <time>2021-10-28T09:50:58.000Z</time>
      </trkpt>
      <trkpt lat="39.324429" lon="-2.074144">
        <ele>677.181154</ele>
        <time>2021-10-28T09:51:08.000Z</time>
      </trkpt>
      <trkpt lat="39.324322" lon="-2.074101">
        <ele>677.111811</ele>
        <time>2021-10-28T09:51:10.000Z</time>
      </trkpt>
      <trkpt lat="39.323944" lon="-2.073987">
        <ele>676.871604</ele>
        <time>2021-10-28T09:51:17.000Z</time>
      </trkpt>
      <trkpt lat="39.323633" lon="-2.073886">
        <ele>676.733591</ele>
        <time>2021-10-28T09:51:23.000Z</time>
      </trkpt>
      <trkpt lat="39.323470" lon="-2.073828">
        <ele>676.725723</ele>
        <time>2021-10-28T09:51:26.000Z</time>
      </trkpt>
      <trkpt lat="39.323119" lon="-2.073671">
        <ele>676.708437</ele>
        <time>2021-10-28T09:51:32.000Z</time>
      </trkpt>
      <trkpt lat="39.323059" lon="-2.073630">
        <ele>676.705279</ele>
        <time>2021-10-28T09:51:33.000Z</time>
      </trkpt>
      <trkpt lat="39.322882" lon="-2.073477">
        <ele>676.695369</ele>
        <time>2021-10-28T09:51:36.000Z</time>
      </trkpt>
      <trkpt lat="39.322766" lon="-2.073381">
        <ele>676.688959</ele>
        <time>2021-10-28T09:51:38.000Z</time>
      </trkpt>
      <trkpt lat="39.322708" lon="-2.073349">
        <ele>676.686025</ele>
        <time>2021-10-28T09:51:39.000Z</time>
      </trkpt>
      <trkpt lat="39.322592" lon="-2.073308">
        <ele>676.680428</ele>
        <time>2021-10-28T09:51:41.000Z</time>
      </trkpt>
      <trkpt lat="39.322470" lon="-2.073303">
        <ele>676.674747</ele>
        <time>2021-10-28T09:51:43.000Z</time>
      </trkpt>
      <trkpt lat="39.322355" lon="-2.073319">
        <ele>676.669364</ele>
        <time>2021-10-28T09:51:45.000Z</time>
      </trkpt>
      <trkpt lat="39.322141" lon="-2.073335">
        <ele>676.659388</ele>
        <time>2021-10-28T09:51:49.000Z</time>
      </trkpt>
      <trkpt lat="39.322085" lon="-2.073334">
        <ele>676.656782</ele>
        <time>2021-10-28T09:51:50.000Z</time>
      </trkpt>
      <trkpt lat="39.321969" lon="-2.073321">
        <ele>676.738185</ele>
        <time>2021-10-28T09:51:52.000Z</time>
      </trkpt>
      <trkpt lat="39.321847" lon="-2.073306">
        <ele>676.876657</ele>
        <time>2021-10-28T09:51:54.000Z</time>
      </trkpt>
      <trkpt lat="39.321785" lon="-2.073300">
        <ele>676.946908</ele>
        <time>2021-10-28T09:51:55.000Z</time>
      </trkpt>
      <trkpt lat="39.321342" lon="-2.073258">
        <ele>677.448805</ele>
        <time>2021-10-28T09:52:02.000Z</time>
      </trkpt>
      <trkpt lat="39.321278" lon="-2.073252">
        <ele>677.521309</ele>
        <time>2021-10-28T09:52:03.000Z</time>
      </trkpt>
      <trkpt lat="39.320829" lon="-2.073152">
        <ele>678.036116</ele>
        <time>2021-10-28T09:52:10.000Z</time>
      </trkpt>
      <trkpt lat="39.320411" lon="-2.073019">
        <ele>678.522518</ele>
        <time>2021-10-28T09:52:17.000Z</time>
      </trkpt>
      <trkpt lat="39.319898" lon="-2.072872">
        <ele>678.729890</ele>
        <time>2021-10-28T09:52:26.000Z</time>
      </trkpt>
      <trkpt lat="39.319415" lon="-2.072721">
        <ele>678.785862</ele>
        <time>2021-10-28T09:52:34.000Z</time>
      </trkpt>
      <trkpt lat="39.319355" lon="-2.072708">
        <ele>678.792715</ele>
        <time>2021-10-28T09:52:35.000Z</time>
      </trkpt>
      <trkpt lat="39.318800" lon="-2.072544">
        <ele>678.856841</ele>
        <time>2021-10-28T09:52:44.000Z</time>
      </trkpt>
      <trkpt lat="39.318617" lon="-2.072561">
        <ele>678.877507</ele>
        <time>2021-10-28T09:52:47.000Z</time>
      </trkpt>
      <trkpt lat="39.318560" lon="-2.072553">
        <ele>678.883965</ele>
        <time>2021-10-28T09:52:48.000Z</time>
      </trkpt>
      <trkpt lat="39.318504" lon="-2.072536">
        <ele>678.889312</ele>
        <time>2021-10-28T09:52:49.000Z</time>
      </trkpt>
      <trkpt lat="39.318300" lon="-2.072419">
        <ele>678.875894</ele>
        <time>2021-10-28T09:52:53.000Z</time>
      </trkpt>
      <trkpt lat="39.318200" lon="-2.072373">
        <ele>678.869513</ele>
        <time>2021-10-28T09:52:55.000Z</time>
      </trkpt>
      <trkpt lat="39.317995" lon="-2.072332">
        <ele>678.857041</ele>
        <time>2021-10-28T09:52:59.000Z</time>
      </trkpt>
      <trkpt lat="39.317943" lon="-2.072334">
        <ele>678.853913</ele>
        <time>2021-10-28T09:53:00.000Z</time>
      </trkpt>
      <trkpt lat="39.317625" lon="-2.072385">
        <ele>678.834648</ele>
        <time>2021-10-28T09:53:06.000Z</time>
      </trkpt>
      <trkpt lat="39.317233" lon="-2.072353">
        <ele>678.811034</ele>
        <time>2021-10-28T09:53:13.000Z</time>
      </trkpt>
      <trkpt lat="39.317055" lon="-2.072333">
        <ele>678.800292</ele>
        <time>2021-10-28T09:53:16.000Z</time>
      </trkpt>
      <trkpt lat="39.316941" lon="-2.072350">
        <ele>678.793392</ele>
        <time>2021-10-28T09:53:18.000Z</time>
      </trkpt>
      <trkpt lat="39.316671" lon="-2.072378">
        <ele>678.675227</ele>
        <time>2021-10-28T09:53:23.000Z</time>
      </trkpt>
      <trkpt lat="39.316563" lon="-2.072368">
        <ele>678.520066</ele>
        <time>2021-10-28T09:53:25.000Z</time>
      </trkpt>
      <trkpt lat="39.316130" lon="-2.072344">
        <ele>677.899006</ele>
        <time>2021-10-28T09:53:33.000Z</time>
      </trkpt>
      <trkpt lat="39.316074" lon="-2.072339">
        <ele>677.818567</ele>
        <time>2021-10-28T09:53:34.000Z</time>
      </trkpt>
      <trkpt lat="39.315801" lon="-2.072334">
        <ele>677.427318</ele>
        <time>2021-10-28T09:53:39.000Z</time>
      </trkpt>
      <trkpt lat="39.315691" lon="-2.072341">
        <ele>677.269497</ele>
        <time>2021-10-28T09:53:41.000Z</time>
      </trkpt>
      <trkpt lat="39.315523" lon="-2.072346">
        <ele>677.028689</ele>
        <time>2021-10-28T09:53:44.000Z</time>
      </trkpt>
      <trkpt lat="39.315198" lon="-2.072354">
        <ele>676.562879</ele>
        <time>2021-10-28T09:53:50.000Z</time>
      </trkpt>
      <trkpt lat="39.314612" lon="-2.072334">
        <ele>676.155316</ele>
        <time>2021-10-28T09:54:01.000Z</time>
      </trkpt>
      <trkpt lat="39.314240" lon="-2.072245">
        <ele>676.100352</ele>
        <time>2021-10-28T09:54:08.000Z</time>
      </trkpt>
      <trkpt lat="39.313748" lon="-2.072179">
        <ele>676.028487</ele>
        <time>2021-10-28T09:54:17.000Z</time>
      </trkpt>
      <trkpt lat="39.313692" lon="-2.072170">
        <ele>676.020288</ele>
        <time>2021-10-28T09:54:18.000Z</time>
      </trkpt>
      <trkpt lat="39.313580" lon="-2.072144">
        <ele>676.003755</ele>
        <time>2021-10-28T09:54:20.000Z</time>
      </trkpt>
      <trkpt lat="39.313466" lon="-2.072128">
        <ele>675.987095</ele>
        <time>2021-10-28T09:54:22.000Z</time>
      </trkpt>
      <trkpt lat="39.313052" lon="-2.072052">
        <ele>675.846346</ele>
        <time>2021-10-28T09:54:30.000Z</time>
      </trkpt>
      <trkpt lat="39.312807" lon="-2.071999">
        <ele>675.634725</ele>
        <time>2021-10-28T09:54:36.000Z</time>
      </trkpt>
      <trkpt lat="39.312593" lon="-2.071938">
        <ele>675.448036</ele>
        <time>2021-10-28T09:54:40.000Z</time>
      </trkpt>
      <trkpt lat="39.312535" lon="-2.071931">
        <ele>675.398410</ele>
        <time>2021-10-28T09:54:41.000Z</time>
      </trkpt>
      <trkpt lat="39.312476" lon="-2.071925">
        <ele>675.347992</ele>
        <time>2021-10-28T09:54:42.000Z</time>
      </trkpt>
      <trkpt lat="39.312171" lon="-2.071897">
        <ele>675.087505</ele>
        <time>2021-10-28T09:54:47.000Z</time>
      </trkpt>
      <trkpt lat="39.312050" lon="-2.071885">
        <ele>674.984121</ele>
        <time>2021-10-28T09:54:49.000Z</time>
      </trkpt>
      <trkpt lat="39.311639" lon="-2.071863">
        <ele>674.633686</ele>
        <time>2021-10-28T09:54:56.000Z</time>
      </trkpt>
      <trkpt lat="39.311521" lon="-2.071857">
        <ele>674.533083</ele>
        <time>2021-10-28T09:54:58.000Z</time>
      </trkpt>
      <trkpt lat="39.311278" lon="-2.071837">
        <ele>674.390743</ele>
        <time>2021-10-28T09:55:02.000Z</time>
      </trkpt>
      <trkpt lat="39.310985" lon="-2.071802">
        <ele>674.332352</ele>
        <time>2021-10-28T09:55:07.000Z</time>
      </trkpt>
      <trkpt lat="39.310524" lon="-2.071707">
        <ele>674.239715</ele>
        <time>2021-10-28T09:55:15.000Z</time>
      </trkpt>
      <trkpt lat="39.310113" lon="-2.071574">
        <ele>674.155639</ele>
        <time>2021-10-28T09:55:22.000Z</time>
      </trkpt>
      <trkpt lat="39.309769" lon="-2.071461">
        <ele>674.085205</ele>
        <time>2021-10-28T09:55:28.000Z</time>
      </trkpt>
      <trkpt lat="39.309653" lon="-2.071426">
        <ele>674.061567</ele>
        <time>2021-10-28T09:55:30.000Z</time>
      </trkpt>
      <trkpt lat="39.309214" lon="-2.071256">
        <ele>674.234562</ele>
        <time>2021-10-28T09:55:38.000Z</time>
      </trkpt>
      <trkpt lat="39.308823" lon="-2.070988">
        <ele>674.426151</ele>
        <time>2021-10-28T09:55:46.000Z</time>
      </trkpt>
      <trkpt lat="39.308360" lon="-2.070709">
        <ele>674.647294</ele>
        <time>2021-10-28T09:55:55.000Z</time>
      </trkpt>
      <trkpt lat="39.307900" lon="-2.070470">
        <ele>674.926517</ele>
        <time>2021-10-28T09:56:04.000Z</time>
      </trkpt>
      <trkpt lat="39.307671" lon="-2.070282">
        <ele>675.299310</ele>
        <time>2021-10-28T09:56:09.000Z</time>
      </trkpt>
      <trkpt lat="39.307589" lon="-2.070185">
        <ele>675.452062</ele>
        <time>2021-10-28T09:56:11.000Z</time>
      </trkpt>
      <trkpt lat="39.307269" lon="-2.069791">
        <ele>676.059387</ele>
        <time>2021-10-28T09:56:19.000Z</time>
      </trkpt>
      <trkpt lat="39.307160" lon="-2.069650">
        <ele>676.271305</ele>
        <time>2021-10-28T09:56:22.000Z</time>
      </trkpt>
      <trkpt lat="39.306984" lon="-2.069413">
        <ele>676.620572</ele>
        <time>2021-10-28T09:56:27.000Z</time>
      </trkpt>
      <trkpt lat="39.306944" lon="-2.069374">
        <ele>676.689424</ele>
        <time>2021-10-28T09:56:28.000Z</time>
      </trkpt>
      <trkpt lat="39.306853" lon="-2.069314">
        <ele>676.829803</ele>
        <time>2021-10-28T09:56:30.000Z</time>
      </trkpt>
      <trkpt lat="39.306754" lon="-2.069263">
        <ele>676.976250</ele>
        <time>2021-10-28T09:56:32.000Z</time>
      </trkpt>
      <trkpt lat="39.306606" lon="-2.069205">
        <ele>677.188765</ele>
        <time>2021-10-28T09:56:35.000Z</time>
      </trkpt>
      <trkpt lat="39.306478" lon="-2.069149">
        <ele>677.270056</ele>
        <time>2021-10-28T09:56:38.000Z</time>
      </trkpt>
      <trkpt lat="39.306403" lon="-2.069106">
        <ele>677.216315</ele>
        <time>2021-10-28T09:56:40.000Z</time>
      </trkpt>
      <trkpt lat="39.306320" lon="-2.069066">
        <ele>677.158293</ele>
        <time>2021-10-28T09:56:42.000Z</time>
      </trkpt>
      <trkpt lat="39.306231" lon="-2.069040">
        <ele>677.098528</ele>
        <time>2021-10-28T09:56:44.000Z</time>
      </trkpt>
      <trkpt lat="39.305920" lon="-2.068968">
        <ele>676.891581</ele>
        <time>2021-10-28T09:56:50.000Z</time>
      </trkpt>
      <trkpt lat="39.305538" lon="-2.068802">
        <ele>676.627607</ele>
        <time>2021-10-28T09:56:57.000Z</time>
      </trkpt>
      <trkpt lat="39.305160" lon="-2.068584">
        <ele>676.356484</ele>
        <time>2021-10-28T09:57:04.000Z</time>
      </trkpt>
      <trkpt lat="39.305105" lon="-2.068554">
        <ele>676.317382</ele>
        <time>2021-10-28T09:57:05.000Z</time>
      </trkpt>
      <trkpt lat="39.304791" lon="-2.068357">
        <ele>676.137867</ele>
        <time>2021-10-28T09:57:11.000Z</time>
      </trkpt>
      <trkpt lat="39.304428" lon="-2.068081">
        <ele>676.229193</ele>
        <time>2021-10-28T09:57:19.000Z</time>
      </trkpt>
      <trkpt lat="39.304002" lon="-2.067828">
        <ele>676.330856</ele>
        <time>2021-10-28T09:57:27.000Z</time>
      </trkpt>
      <trkpt lat="39.303903" lon="-2.067771">
        <ele>676.354357</ele>
        <time>2021-10-28T09:57:29.000Z</time>
      </trkpt>
      <trkpt lat="39.303643" lon="-2.067646">
        <ele>676.414511</ele>
        <time>2021-10-28T09:57:34.000Z</time>
      </trkpt>
      <trkpt lat="39.303205" lon="-2.067516">
        <ele>676.511961</ele>
        <time>2021-10-28T09:57:42.000Z</time>
      </trkpt>
      <trkpt lat="39.302860" lon="-2.067571">
        <ele>676.066067</ele>
        <time>2021-10-28T09:57:48.000Z</time>
      </trkpt>
      <trkpt lat="39.302576" lon="-2.067628">
        <ele>675.675069</ele>
        <time>2021-10-28T09:57:53.000Z</time>
      </trkpt>
      <trkpt lat="39.302519" lon="-2.067642">
        <ele>675.596135</ele>
        <time>2021-10-28T09:57:54.000Z</time>
      </trkpt>
      <trkpt lat="39.302463" lon="-2.067658">
        <ele>675.518111</ele>
        <time>2021-10-28T09:57:55.000Z</time>
      </trkpt>
      <trkpt lat="39.302299" lon="-2.067691">
        <ele>675.292309</ele>
        <time>2021-10-28T09:57:58.000Z</time>
      </trkpt>
      <trkpt lat="39.302140" lon="-2.067658">
        <ele>675.073227</ele>
        <time>2021-10-28T09:58:00.000Z</time>
      </trkpt>
      <trkpt lat="39.302090" lon="-2.067625">
        <ele>674.996847</ele>
        <time>2021-10-28T09:58:02.000Z</time>
      </trkpt>
      <trkpt lat="39.302041" lon="-2.067585">
        <ele>674.917999</ele>
        <time>2021-10-28T09:58:03.000Z</time>
      </trkpt>
      <trkpt lat="39.301949" lon="-2.067500">
        <ele>674.764140</ele>
        <time>2021-10-28T09:58:05.000Z</time>
      </trkpt>
      <trkpt lat="39.301807" lon="-2.067387">
        <ele>674.537268</ele>
        <time>2021-10-28T09:58:08.000Z</time>
      </trkpt>
      <trkpt lat="39.301428" lon="-2.067087">
        <ele>674.030289</ele>
        <time>2021-10-28T09:58:16.000Z</time>
      </trkpt>
      <trkpt lat="39.301277" lon="-2.066995">
        <ele>673.966156</ele>
        <time>2021-10-28T09:58:19.000Z</time>
      </trkpt>
      <trkpt lat="39.301164" lon="-2.066949">
        <ele>673.920642</ele>
        <time>2021-10-28T09:58:21.000Z</time>
      </trkpt>
      <trkpt lat="39.300703" lon="-2.066795">
        <ele>673.737720</ele>
        <time>2021-10-28T09:58:29.000Z</time>
      </trkpt>
      <trkpt lat="39.300549" lon="-2.066746">
        <ele>673.676791</ele>
        <time>2021-10-28T09:58:32.000Z</time>
      </trkpt>
      <trkpt lat="39.300478" lon="-2.066714">
        <ele>673.647904</ele>
        <time>2021-10-28T09:58:34.000Z</time>
      </trkpt>
      <trkpt lat="39.300258" lon="-2.066618">
        <ele>673.558699</ele>
        <time>2021-10-28T09:58:39.000Z</time>
      </trkpt>
      <trkpt lat="39.299953" lon="-2.066545">
        <ele>673.439535</ele>
        <time>2021-10-28T09:58:45.000Z</time>
      </trkpt>
      <trkpt lat="39.299799" lon="-2.066500">
        <ele>673.378880</ele>
        <time>2021-10-28T09:58:49.000Z</time>
      </trkpt>
      <trkpt lat="39.299780" lon="-2.066487">
        <ele>673.372248</ele>
        <time>2021-10-28T09:58:50.000Z</time>
      </trkpt>
      <trkpt lat="39.299745" lon="-2.066475">
        <ele>673.361517</ele>
        <time>2021-10-28T09:58:52.000Z</time>
      </trkpt>
      <trkpt lat="39.299704" lon="-2.066497">
        <ele>673.348360</ele>
        <time>2021-10-28T09:58:54.000Z</time>
      </trkpt>
      <trkpt lat="39.299605" lon="-2.066479">
        <ele>673.318730</ele>
        <time>2021-10-28T09:58:57.000Z</time>
      </trkpt>
      <trkpt lat="39.299570" lon="-2.066451">
        <ele>673.306531</ele>
        <time>2021-10-28T09:58:58.000Z</time>
      </trkpt>
      <trkpt lat="39.299142" lon="-2.066216">
        <ele>673.168711</ele>
        <time>2021-10-28T09:59:06.000Z</time>
      </trkpt>
      <trkpt lat="39.299089" lon="-2.066186">
        <ele>673.151563</ele>
        <time>2021-10-28T09:59:07.000Z</time>
      </trkpt>
      <trkpt lat="39.298889" lon="-2.066071">
        <ele>673.086686</ele>
        <time>2021-10-28T09:59:11.000Z</time>
      </trkpt>
      <trkpt lat="39.298840" lon="-2.066043">
        <ele>673.070808</ele>
        <time>2021-10-28T09:59:12.000Z</time>
      </trkpt>
      <trkpt lat="39.298732" lon="-2.065981">
        <ele>673.035784</ele>
        <time>2021-10-28T09:59:14.000Z</time>
      </trkpt>
      <trkpt lat="39.298521" lon="-2.065868">
        <ele>672.968093</ele>
        <time>2021-10-28T09:59:18.000Z</time>
      </trkpt>
      <trkpt lat="39.298035" lon="-2.065656">
        <ele>672.829520</ele>
        <time>2021-10-28T09:59:27.000Z</time>
      </trkpt>
      <trkpt lat="39.297757" lon="-2.065546">
        <ele>672.783847</ele>
        <time>2021-10-28T09:59:32.000Z</time>
      </trkpt>
      <trkpt lat="39.297533" lon="-2.065455">
        <ele>672.746961</ele>
        <time>2021-10-28T09:59:36.000Z</time>
      </trkpt>
      <trkpt lat="39.297025" lon="-2.065264">
        <ele>672.663850</ele>
        <time>2021-10-28T09:59:45.000Z</time>
      </trkpt>
      <trkpt lat="39.296837" lon="-2.065187">
        <ele>672.632869</ele>
        <time>2021-10-28T09:59:49.000Z</time>
      </trkpt>
      <trkpt lat="39.296794" lon="-2.065187">
        <ele>672.626114</ele>
        <time>2021-10-28T09:59:50.000Z</time>
      </trkpt>
      <trkpt lat="39.296752" lon="-2.065206">
        <ele>672.619123</ele>
        <time>2021-10-28T09:59:51.000Z</time>
      </trkpt>
      <trkpt lat="39.296675" lon="-2.065282">
        <ele>672.603902</ele>
        <time>2021-10-28T09:59:53.000Z</time>
      </trkpt>
      <trkpt lat="39.296545" lon="-2.065406">
        <ele>672.578519</ele>
        <time>2021-10-28T09:59:56.000Z</time>
      </trkpt>
      <trkpt lat="39.296436" lon="-2.065458">
        <ele>672.577676</ele>
        <time>2021-10-28T09:59:58.000Z</time>
      </trkpt>
      <trkpt lat="39.296138" lon="-2.065507">
        <ele>672.970189</ele>
        <time>2021-10-28T10:00:03.000Z</time>
      </trkpt>
      <trkpt lat="39.296076" lon="-2.065506">
        <ele>673.051206</ele>
        <time>2021-10-28T10:00:04.000Z</time>
      </trkpt>
      <trkpt lat="39.295593" lon="-2.065443">
        <ele>673.685512</ele>
        <time>2021-10-28T10:00:12.000Z</time>
      </trkpt>
      <trkpt lat="39.295537" lon="-2.065415">
        <ele>673.763969</ele>
        <time>2021-10-28T10:00:13.000Z</time>
      </trkpt>
      <trkpt lat="39.295259" lon="-2.065282">
        <ele>674.151307</ele>
        <time>2021-10-28T10:00:18.000Z</time>
      </trkpt>
      <trkpt lat="39.295004" lon="-2.065136">
        <ele>674.515739</ele>
        <time>2021-10-28T10:00:23.000Z</time>
      </trkpt>
      <trkpt lat="39.294957" lon="-2.065104">
        <ele>674.585153</ele>
        <time>2021-10-28T10:00:24.000Z</time>
      </trkpt>
      <trkpt lat="39.294909" lon="-2.065074">
        <ele>674.654822</ele>
        <time>2021-10-28T10:00:25.000Z</time>
      </trkpt>
      <trkpt lat="39.294863" lon="-2.065045">
        <ele>674.721699</ele>
        <time>2021-10-28T10:00:26.000Z</time>
      </trkpt>
      <trkpt lat="39.294558" lon="-2.064794">
        <ele>675.113539</ele>
        <time>2021-10-28T10:00:33.000Z</time>
      </trkpt>
      <trkpt lat="39.294262" lon="-2.064469">
        <ele>675.475884</ele>
        <time>2021-10-28T10:00:41.000Z</time>
      </trkpt>
      <trkpt lat="39.294125" lon="-2.064331">
        <ele>675.637928</ele>
        <time>2021-10-28T10:00:45.000Z</time>
      </trkpt>
      <trkpt lat="39.294038" lon="-2.064301">
        <ele>675.721926</ele>
        <time>2021-10-28T10:00:47.000Z</time>
      </trkpt>
      <trkpt lat="39.293874" lon="-2.064323">
        <ele>675.875735</ele>
        <time>2021-10-28T10:00:51.000Z</time>
      </trkpt>
      <trkpt lat="39.293817" lon="-2.064326">
        <ele>675.928951</ele>
        <time>2021-10-28T10:00:53.000Z</time>
      </trkpt>
      <trkpt lat="39.293746" lon="-2.064213">
        <ele>676.034031</ele>
        <time>2021-10-28T10:00:57.000Z</time>
      </trkpt>
      <trkpt lat="39.293679" lon="-2.064090">
        <ele>676.142620</ele>
        <time>2021-10-28T10:01:00.000Z</time>
      </trkpt>
      <trkpt lat="39.293587" lon="-2.063919">
        <ele>676.292972</ele>
        <time>2021-10-28T10:01:04.000Z</time>
      </trkpt>
      <trkpt lat="39.293500" lon="-2.063790">
        <ele>676.416502</ele>
        <time>2021-10-28T10:01:07.000Z</time>
      </trkpt>
      <trkpt lat="39.293392" lon="-2.063683">
        <ele>676.543456</ele>
        <time>2021-10-28T10:01:10.000Z</time>
      </trkpt>
      <trkpt lat="39.293319" lon="-2.063617">
        <ele>676.617895</ele>
        <time>2021-10-28T10:01:12.000Z</time>
      </trkpt>
      <trkpt lat="39.293140" lon="-2.063432">
        <ele>676.780807</ele>
        <time>2021-10-28T10:01:17.000Z</time>
      </trkpt>
      <trkpt lat="39.293105" lon="-2.063416">
        <ele>676.807194</ele>
        <time>2021-10-28T10:01:18.000Z</time>
      </trkpt>
      <trkpt lat="39.292901" lon="-2.063374">
        <ele>676.954014</ele>
        <time>2021-10-28T10:01:23.000Z</time>
      </trkpt>
      <trkpt lat="39.292731" lon="-2.063334">
        <ele>677.076826</ele>
        <time>2021-10-28T10:01:27.000Z</time>
      </trkpt>
      <trkpt lat="39.292689" lon="-2.063320">
        <ele>677.107655</ele>
        <time>2021-10-28T10:01:28.000Z</time>
      </trkpt>
      <trkpt lat="39.292647" lon="-2.063307">
        <ele>677.138350</ele>
        <time>2021-10-28T10:01:29.000Z</time>
      </trkpt>
      <trkpt lat="39.292602" lon="-2.063293">
        <ele>677.171247</ele>
        <time>2021-10-28T10:01:30.000Z</time>
      </trkpt>
      <trkpt lat="39.292467" lon="-2.063250">
        <ele>677.270069</ele>
        <time>2021-10-28T10:01:33.000Z</time>
      </trkpt>
      <trkpt lat="39.292375" lon="-2.063219">
        <ele>677.337644</ele>
        <time>2021-10-28T10:01:35.000Z</time>
      </trkpt>
      <trkpt lat="39.292328" lon="-2.063203">
        <ele>677.372189</ele>
        <time>2021-10-28T10:01:36.000Z</time>
      </trkpt>
      <trkpt lat="39.292236" lon="-2.063171">
        <ele>677.439905</ele>
        <time>2021-10-28T10:01:38.000Z</time>
      </trkpt>
      <trkpt lat="39.292054" lon="-2.063073">
        <ele>677.580042</ele>
        <time>2021-10-28T10:01:42.000Z</time>
      </trkpt>
      <trkpt lat="39.291808" lon="-2.062867">
        <ele>677.788391</ele>
        <time>2021-10-28T10:01:48.000Z</time>
      </trkpt>
      <trkpt lat="39.291732" lon="-2.062789">
        <ele>677.857373</ele>
        <time>2021-10-28T10:01:50.000Z</time>
      </trkpt>
      <trkpt lat="39.291435" lon="-2.062439">
        <ele>677.321466</ele>
        <time>2021-10-28T10:01:58.000Z</time>
      </trkpt>
      <trkpt lat="39.291172" lon="-2.062141">
        <ele>676.826128</ele>
        <time>2021-10-28T10:02:06.000Z</time>
      </trkpt>
      <trkpt lat="39.291033" lon="-2.062012">
        <ele>676.583785</ele>
        <time>2021-10-28T10:02:10.000Z</time>
      </trkpt>
      <trkpt lat="39.290990" lon="-2.061982">
        <ele>676.514585</ele>
        <time>2021-10-28T10:02:11.000Z</time>
      </trkpt>
      <trkpt lat="39.290945" lon="-2.061952">
        <ele>676.442881</ele>
        <time>2021-10-28T10:02:12.000Z</time>
      </trkpt>
      <trkpt lat="39.290896" lon="-2.061926">
        <ele>676.367871</ele>
        <time>2021-10-28T10:02:13.000Z</time>
      </trkpt>
      <trkpt lat="39.290629" lon="-2.061820">
        <ele>675.972339</ele>
        <time>2021-10-28T10:02:18.000Z</time>
      </trkpt>
      <trkpt lat="39.290460" lon="-2.061759">
        <ele>675.723864</ele>
        <time>2021-10-28T10:02:21.000Z</time>
      </trkpt>
      <trkpt lat="39.290245" lon="-2.061652">
        <ele>675.397608</ele>
        <time>2021-10-28T10:02:25.000Z</time>
      </trkpt>
      <trkpt lat="39.289838" lon="-2.061428">
        <ele>674.488931</ele>
        <time>2021-10-28T10:02:32.000Z</time>
      </trkpt>
      <trkpt lat="39.289774" lon="-2.061406">
        <ele>674.347059</ele>
        <time>2021-10-28T10:02:33.000Z</time>
      </trkpt>
      <trkpt lat="39.289591" lon="-2.061360">
        <ele>673.947680</ele>
        <time>2021-10-28T10:02:36.000Z</time>
      </trkpt>
      <trkpt lat="39.289532" lon="-2.061349">
        <ele>673.819978</ele>
        <time>2021-10-28T10:02:37.000Z</time>
      </trkpt>
      <trkpt lat="39.289230" lon="-2.061247">
        <ele>673.151284</ele>
        <time>2021-10-28T10:02:42.000Z</time>
      </trkpt>
      <trkpt lat="39.289104" lon="-2.061196">
        <ele>672.868427</ele>
        <time>2021-10-28T10:02:44.000Z</time>
      </trkpt>
      <trkpt lat="39.288805" lon="-2.061037">
        <ele>672.175769</ele>
        <time>2021-10-28T10:02:49.000Z</time>
      </trkpt>
      <trkpt lat="39.288636" lon="-2.060930">
        <ele>671.772600</ele>
        <time>2021-10-28T10:02:52.000Z</time>
      </trkpt>
      <trkpt lat="39.288216" lon="-2.060632">
        <ele>671.267668</ele>
        <time>2021-10-28T10:03:00.000Z</time>
      </trkpt>
      <trkpt lat="39.287697" lon="-2.060271">
        <ele>670.916742</ele>
        <time>2021-10-28T10:03:10.000Z</time>
      </trkpt>
      <trkpt lat="39.287588" lon="-2.060208">
        <ele>670.845649</ele>
        <time>2021-10-28T10:03:12.000Z</time>
      </trkpt>
      <trkpt lat="39.287261" lon="-2.060010">
        <ele>670.630645</ele>
        <time>2021-10-28T10:03:18.000Z</time>
      </trkpt>
      <trkpt lat="39.287210" lon="-2.059971">
        <ele>670.595362</ele>
        <time>2021-10-28T10:03:19.000Z</time>
      </trkpt>
      <trkpt lat="39.287113" lon="-2.059879">
        <ele>670.523721</ele>
        <time>2021-10-28T10:03:21.000Z</time>
      </trkpt>
      <trkpt lat="39.286805" lon="-2.059628">
        <ele>670.330972</ele>
        <time>2021-10-28T10:03:27.000Z</time>
      </trkpt>
      <trkpt lat="39.286756" lon="-2.059582">
        <ele>670.304482</ele>
        <time>2021-10-28T10:03:28.000Z</time>
      </trkpt>
      <trkpt lat="39.286456" lon="-2.059317">
        <ele>670.145539</ele>
        <time>2021-10-28T10:03:34.000Z</time>
      </trkpt>
      <trkpt lat="39.286203" lon="-2.059103">
        <ele>670.013282</ele>
        <time>2021-10-28T10:03:39.000Z</time>
      </trkpt>
      <trkpt lat="39.285724" lon="-2.058650">
        <ele>669.753659</ele>
        <time>2021-10-28T10:03:49.000Z</time>
      </trkpt>
      <trkpt lat="39.285567" lon="-2.058414">
        <ele>669.648315</ele>
        <time>2021-10-28T10:03:53.000Z</time>
      </trkpt>
      <trkpt lat="39.285478" lon="-2.058312">
        <ele>669.673945</ele>
        <time>2021-10-28T10:03:55.000Z</time>
      </trkpt>
      <trkpt lat="39.285430" lon="-2.058272">
        <ele>669.781737</ele>
        <time>2021-10-28T10:03:56.000Z</time>
      </trkpt>
      <trkpt lat="39.285378" lon="-2.058237">
        <ele>669.892387</ele>
        <time>2021-10-28T10:03:57.000Z</time>
      </trkpt>
      <trkpt lat="39.285126" lon="-2.058070">
        <ele>670.426863</ele>
        <time>2021-10-28T10:04:02.000Z</time>
      </trkpt>
      <trkpt lat="39.284792" lon="-2.057762">
        <ele>671.201262</ele>
        <time>2021-10-28T10:04:10.000Z</time>
      </trkpt>
      <trkpt lat="39.284711" lon="-2.057680">
        <ele>671.395459</ele>
        <time>2021-10-28T10:04:12.000Z</time>
      </trkpt>
      <trkpt lat="39.284397" lon="-2.057367">
        <ele>672.143900</ele>
        <time>2021-10-28T10:04:20.000Z</time>
      </trkpt>
      <trkpt lat="39.284135" lon="-2.057134">
        <ele>672.744149</ele>
        <time>2021-10-28T10:04:27.000Z</time>
      </trkpt>
      <trkpt lat="39.284058" lon="-2.057066">
        <ele>672.920164</ele>
        <time>2021-10-28T10:04:29.000Z</time>
      </trkpt>
      <trkpt lat="39.283887" lon="-2.056907">
        <ele>673.055304</ele>
        <time>2021-10-28T10:04:33.000Z</time>
      </trkpt>
      <trkpt lat="39.283801" lon="-2.056808">
        <ele>673.090135</ele>
        <time>2021-10-28T10:04:35.000Z</time>
      </trkpt>
      <trkpt lat="39.283569" lon="-2.056466">
        <ele>673.196574</ele>
        <time>2021-10-28T10:04:41.000Z</time>
      </trkpt>
      <trkpt lat="39.283531" lon="-2.056410">
        <ele>673.214004</ele>
        <time>2021-10-28T10:04:42.000Z</time>
      </trkpt>
      <trkpt lat="39.283228" lon="-2.056075">
        <ele>673.334598</ele>
        <time>2021-10-28T10:04:49.000Z</time>
      </trkpt>
      <trkpt lat="39.282967" lon="-2.055780">
        <ele>673.439462</ele>
        <time>2021-10-28T10:04:55.000Z</time>
      </trkpt>
      <trkpt lat="39.282573" lon="-2.055336">
        <ele>673.598734</ele>
        <time>2021-10-28T10:05:04.000Z</time>
      </trkpt>
      <trkpt lat="39.282455" lon="-2.055209">
        <ele>673.646303</ele>
        <time>2021-10-28T10:05:07.000Z</time>
      </trkpt>
      <trkpt lat="39.282376" lon="-2.055133">
        <ele>673.676810</ele>
        <time>2021-10-28T10:05:09.000Z</time>
      </trkpt>
      <trkpt lat="39.282338" lon="-2.055097">
        <ele>673.691405</ele>
        <time>2021-10-28T10:05:10.000Z</time>
      </trkpt>
      <trkpt lat="39.282093" lon="-2.054844">
        <ele>673.788551</ele>
        <time>2021-10-28T10:05:17.000Z</time>
      </trkpt>
      <trkpt lat="39.281805" lon="-2.054550">
        <ele>673.902239</ele>
        <time>2021-10-28T10:05:26.000Z</time>
      </trkpt>
      <trkpt lat="39.281770" lon="-2.054521">
        <ele>673.915117</ele>
        <time>2021-10-28T10:05:27.000Z</time>
      </trkpt>
      <trkpt lat="39.281500" lon="-2.054370">
        <ele>674.006243</ele>
        <time>2021-10-28T10:05:34.000Z</time>
      </trkpt>
      <trkpt lat="39.281459" lon="-2.054356">
        <ele>674.019378</ele>
        <time>2021-10-28T10:05:35.000Z</time>
      </trkpt>
      <trkpt lat="39.281380" lon="-2.054322">
        <ele>674.045169</ele>
        <time>2021-10-28T10:05:37.000Z</time>
      </trkpt>
      <trkpt lat="39.281269" lon="-2.054241">
        <ele>674.084654</ele>
        <time>2021-10-28T10:05:40.000Z</time>
      </trkpt>
      <trkpt lat="39.281134" lon="-2.054126">
        <ele>674.314495</ele>
        <time>2021-10-28T10:05:44.000Z</time>
      </trkpt>
      <trkpt lat="39.281051" lon="-2.054038">
        <ele>674.557275</ele>
        <time>2021-10-28T10:05:47.000Z</time>
      </trkpt>
      <trkpt lat="39.280948" lon="-2.053920">
        <ele>674.868549</ele>
        <time>2021-10-28T10:05:51.000Z</time>
      </trkpt>
      <trkpt lat="39.280859" lon="-2.053792">
        <ele>675.169687</ele>
        <time>2021-10-28T10:05:55.000Z</time>
      </trkpt>
      <trkpt lat="39.280819" lon="-2.053728">
        <ele>675.313656</ele>
        <time>2021-10-28T10:05:57.000Z</time>
      </trkpt>
      <trkpt lat="39.280654" lon="-2.053534">
        <ele>675.818114</ele>
        <time>2021-10-28T10:06:04.000Z</time>
      </trkpt>
      <trkpt lat="39.280592" lon="-2.053505">
        <ele>675.967207</ele>
        <time>2021-10-28T10:06:06.000Z</time>
      </trkpt>
      <trkpt lat="39.280499" lon="-2.053502">
        <ele>676.177555</ele>
        <time>2021-10-28T10:06:09.000Z</time>
      </trkpt>
      <trkpt lat="39.280408" lon="-2.053550">
        <ele>676.399804</ele>
        <time>2021-10-28T10:06:12.000Z</time>
      </trkpt>
      <trkpt lat="39.280349" lon="-2.053608">
        <ele>676.567440</ele>
        <time>2021-10-28T10:06:14.000Z</time>
      </trkpt>
      <trkpt lat="39.280194" lon="-2.053747">
        <ele>676.994072</ele>
        <time>2021-10-28T10:06:19.000Z</time>
      </trkpt>
      <trkpt lat="39.279912" lon="-2.053998">
        <ele>677.768386</ele>
        <time>2021-10-28T10:06:26.000Z</time>
      </trkpt>
      <trkpt lat="39.279542" lon="-2.054359">
        <ele>678.046164</ele>
        <time>2021-10-28T10:06:35.000Z</time>
      </trkpt>
      <trkpt lat="39.279409" lon="-2.054459">
        <ele>677.977537</ele>
        <time>2021-10-28T10:06:38.000Z</time>
      </trkpt>
      <trkpt lat="39.279308" lon="-2.054503">
        <ele>677.930002</ele>
        <time>2021-10-28T10:06:40.000Z</time>
      </trkpt>
      <trkpt lat="39.279198" lon="-2.054545">
        <ele>677.878848</ele>
        <time>2021-10-28T10:06:42.000Z</time>
      </trkpt>
      <trkpt lat="39.279056" lon="-2.054647">
        <ele>677.806391</ele>
        <time>2021-10-28T10:06:45.000Z</time>
      </trkpt>
      <trkpt lat="39.278981" lon="-2.054719">
        <ele>677.764719</ele>
        <time>2021-10-28T10:06:47.000Z</time>
      </trkpt>
      <trkpt lat="39.278849" lon="-2.054809">
        <ele>677.698156</ele>
        <time>2021-10-28T10:06:50.000Z</time>
      </trkpt>
      <trkpt lat="39.278799" lon="-2.054831">
        <ele>677.674600</ele>
        <time>2021-10-28T10:06:51.000Z</time>
      </trkpt>
      <trkpt lat="39.278746" lon="-2.054846">
        <ele>677.650404</ele>
        <time>2021-10-28T10:06:52.000Z</time>
      </trkpt>
      <trkpt lat="39.278506" lon="-2.054860">
        <ele>677.543263</ele>
        <time>2021-10-28T10:06:56.000Z</time>
      </trkpt>
      <trkpt lat="39.278442" lon="-2.054856">
        <ele>677.514688</ele>
        <time>2021-10-28T10:06:57.000Z</time>
      </trkpt>
      <trkpt lat="39.278263" lon="-2.054868">
        <ele>677.434753</ele>
        <time>2021-10-28T10:07:00.000Z</time>
      </trkpt>
      <trkpt lat="39.278214" lon="-2.054883">
        <ele>677.412296</ele>
        <time>2021-10-28T10:07:01.000Z</time>
      </trkpt>
      <trkpt lat="39.278124" lon="-2.054908">
        <ele>677.371242</ele>
        <time>2021-10-28T10:07:03.000Z</time>
      </trkpt>
      <trkpt lat="39.277990" lon="-2.054922">
        <ele>677.416139</ele>
        <time>2021-10-28T10:07:06.000Z</time>
      </trkpt>
      <trkpt lat="39.277943" lon="-2.054924">
        <ele>677.432002</ele>
        <time>2021-10-28T10:07:07.000Z</time>
      </trkpt>
      <trkpt lat="39.277848" lon="-2.054922">
        <ele>677.464051</ele>
        <time>2021-10-28T10:07:09.000Z</time>
      </trkpt>
      <trkpt lat="39.277704" lon="-2.054890">
        <ele>677.513338</ele>
        <time>2021-10-28T10:07:12.000Z</time>
      </trkpt>
      <trkpt lat="39.277658" lon="-2.054874">
        <ele>677.529407</ele>
        <time>2021-10-28T10:07:13.000Z</time>
      </trkpt>
      <trkpt lat="39.277613" lon="-2.054855">
        <ele>677.545376</ele>
        <time>2021-10-28T10:07:14.000Z</time>
      </trkpt>
      <trkpt lat="39.277335" lon="-2.054696">
        <ele>677.647929</ele>
        <time>2021-10-28T10:07:20.000Z</time>
      </trkpt>
      <trkpt lat="39.277213" lon="-2.054578">
        <ele>677.699338</ele>
        <time>2021-10-28T10:07:23.000Z</time>
      </trkpt>
      <trkpt lat="39.277053" lon="-2.054409">
        <ele>677.769053</ele>
        <time>2021-10-28T10:07:27.000Z</time>
      </trkpt>
      <trkpt lat="39.277011" lon="-2.054373">
        <ele>677.786055</ele>
        <time>2021-10-28T10:07:28.000Z</time>
      </trkpt>
      <trkpt lat="39.276915" lon="-2.054325">
        <ele>677.820778</ele>
        <time>2021-10-28T10:07:30.000Z</time>
      </trkpt>
      <trkpt lat="39.276863" lon="-2.054308">
        <ele>677.838872</ele>
        <time>2021-10-28T10:07:31.000Z</time>
      </trkpt>
      <trkpt lat="39.276370" lon="-2.054135">
        <ele>678.062978</ele>
        <time>2021-10-28T10:07:40.000Z</time>
      </trkpt>
      <trkpt lat="39.275779" lon="-2.054021">
        <ele>678.576127</ele>
        <time>2021-10-28T10:07:50.000Z</time>
      </trkpt>
      <trkpt lat="39.275720" lon="-2.054010">
        <ele>678.627318</ele>
        <time>2021-10-28T10:07:51.000Z</time>
      </trkpt>
      <trkpt lat="39.275548" lon="-2.053951">
        <ele>678.780142</ele>
        <time>2021-10-28T10:07:54.000Z</time>
      </trkpt>
      <trkpt lat="39.275435" lon="-2.053912">
        <ele>678.880585</ele>
        <time>2021-10-28T10:07:56.000Z</time>
      </trkpt>
      <trkpt lat="39.274890" lon="-2.053781">
        <ele>679.356637</ele>
        <time>2021-10-28T10:08:05.000Z</time>
      </trkpt>
      <trkpt lat="39.274414" lon="-2.053697">
        <ele>678.964034</ele>
        <time>2021-10-28T10:08:13.000Z</time>
      </trkpt>
      <trkpt lat="39.273838" lon="-2.053589">
        <ele>677.833990</ele>
        <time>2021-10-28T10:08:23.000Z</time>
      </trkpt>
      <trkpt lat="39.273606" lon="-2.053548">
        <ele>677.379358</ele>
        <time>2021-10-28T10:08:27.000Z</time>
      </trkpt>
      <trkpt lat="39.273436" lon="-2.053510">
        <ele>677.044392</ele>
        <time>2021-10-28T10:08:30.000Z</time>
      </trkpt>
      <trkpt lat="39.273321" lon="-2.053481">
        <ele>676.816900</ele>
        <time>2021-10-28T10:08:32.000Z</time>
      </trkpt>
      <trkpt lat="39.272858" lon="-2.053361">
        <ele>675.925361</ele>
        <time>2021-10-28T10:08:40.000Z</time>
      </trkpt>
      <trkpt lat="39.272798" lon="-2.053346">
        <ele>675.829789</ele>
        <time>2021-10-28T10:08:41.000Z</time>
      </trkpt>
      <trkpt lat="39.272734" lon="-2.053332">
        <ele>675.728277</ele>
        <time>2021-10-28T10:08:42.000Z</time>
      </trkpt>
      <trkpt lat="39.272598" lon="-2.053315">
        <ele>675.514598</ele>
        <time>2021-10-28T10:08:44.000Z</time>
      </trkpt>
      <trkpt lat="39.272468" lon="-2.053290">
        <ele>675.309056</ele>
        <time>2021-10-28T10:08:46.000Z</time>
      </trkpt>
      <trkpt lat="39.272416" lon="-2.053285">
        <ele>675.227510</ele>
        <time>2021-10-28T10:08:47.000Z</time>
      </trkpt>
      <trkpt lat="39.272331" lon="-2.053269">
        <ele>675.093178</ele>
        <time>2021-10-28T10:08:49.000Z</time>
      </trkpt>
      <trkpt lat="39.272289" lon="-2.053253">
        <ele>675.024700</ele>
        <time>2021-10-28T10:08:50.000Z</time>
      </trkpt>
      <trkpt lat="39.272203" lon="-2.053222">
        <ele>674.885069</ele>
        <time>2021-10-28T10:08:52.000Z</time>
      </trkpt>
      <trkpt lat="39.272006" lon="-2.053156">
        <ele>674.566796</ele>
        <time>2021-10-28T10:08:56.000Z</time>
      </trkpt>
      <trkpt lat="39.271896" lon="-2.053120">
        <ele>674.389336</ele>
        <time>2021-10-28T10:08:58.000Z</time>
      </trkpt>
      <trkpt lat="39.271836" lon="-2.053103">
        <ele>674.293274</ele>
        <time>2021-10-28T10:08:59.000Z</time>
      </trkpt>
      <trkpt lat="39.271774" lon="-2.053084">
        <ele>674.193623</ele>
        <time>2021-10-28T10:09:00.000Z</time>
      </trkpt>
      <trkpt lat="39.271650" lon="-2.053053">
        <ele>673.996106</ele>
        <time>2021-10-28T10:09:02.000Z</time>
      </trkpt>
      <trkpt lat="39.271390" lon="-2.052993">
        <ele>673.583065</ele>
        <time>2021-10-28T10:09:06.000Z</time>
      </trkpt>
      <trkpt lat="39.271069" lon="-2.052864">
        <ele>673.128827</ele>
        <time>2021-10-28T10:09:11.000Z</time>
      </trkpt>
      <trkpt lat="39.271007" lon="-2.052833">
        <ele>673.071316</ele>
        <time>2021-10-28T10:09:12.000Z</time>
      </trkpt>
      <trkpt lat="39.270945" lon="-2.052802">
        <ele>673.013806</ele>
        <time>2021-10-28T10:09:13.000Z</time>
      </trkpt>
      <trkpt lat="39.270820" lon="-2.052738">
        <ele>672.897490</ele>
        <time>2021-10-28T10:09:15.000Z</time>
      </trkpt>
      <trkpt lat="39.270511" lon="-2.052576">
        <ele>672.609013</ele>
        <time>2021-10-28T10:09:20.000Z</time>
      </trkpt>
      <trkpt lat="39.270450" lon="-2.052545">
        <ele>672.552308</ele>
        <time>2021-10-28T10:09:21.000Z</time>
      </trkpt>
      <trkpt lat="39.270272" lon="-2.052458">
        <ele>672.387675</ele>
        <time>2021-10-28T10:09:24.000Z</time>
      </trkpt>
      <trkpt lat="39.270001" lon="-2.052309">
        <ele>672.132894</ele>
        <time>2021-10-28T10:09:29.000Z</time>
      </trkpt>
      <trkpt lat="39.269806" lon="-2.052150">
        <ele>671.933413</ele>
        <time>2021-10-28T10:09:33.000Z</time>
      </trkpt>
      <trkpt lat="39.269676" lon="-2.052014">
        <ele>671.788701</ele>
        <time>2021-10-28T10:09:36.000Z</time>
      </trkpt>
      <trkpt lat="39.269492" lon="-2.051822">
        <ele>671.478009</ele>
        <time>2021-10-28T10:09:40.000Z</time>
      </trkpt>
      <trkpt lat="39.269434" lon="-2.051789">
        <ele>671.347983</ele>
        <time>2021-10-28T10:09:41.000Z</time>
      </trkpt>
      <trkpt lat="39.269078" lon="-2.051639">
        <ele>670.579735</ele>
        <time>2021-10-28T10:09:47.000Z</time>
      </trkpt>
      <trkpt lat="39.268856" lon="-2.051512">
        <ele>670.081608</ele>
        <time>2021-10-28T10:09:51.000Z</time>
      </trkpt>
      <trkpt lat="39.268690" lon="-2.051407">
        <ele>669.702399</ele>
        <time>2021-10-28T10:09:54.000Z</time>
      </trkpt>
      <trkpt lat="39.268581" lon="-2.051335">
        <ele>669.451228</ele>
        <time>2021-10-28T10:09:56.000Z</time>
      </trkpt>
      <trkpt lat="39.268281" lon="-2.051160">
        <ele>668.775892</ele>
        <time>2021-10-28T10:10:01.000Z</time>
      </trkpt>
      <trkpt lat="39.268147" lon="-2.051107">
        <ele>668.488376</ele>
        <time>2021-10-28T10:10:03.000Z</time>
      </trkpt>
      <trkpt lat="39.267801" lon="-2.050982">
        <ele>667.803916</ele>
        <time>2021-10-28T10:10:08.000Z</time>
      </trkpt>
      <trkpt lat="39.267602" lon="-2.050879">
        <ele>667.469312</ele>
        <time>2021-10-28T10:10:11.000Z</time>
      </trkpt>
      <trkpt lat="39.267410" lon="-2.050747">
        <ele>667.129837</ele>
        <time>2021-10-28T10:10:14.000Z</time>
      </trkpt>
      <trkpt lat="39.267345" lon="-2.050701">
        <ele>667.014157</ele>
        <time>2021-10-28T10:10:15.000Z</time>
      </trkpt>
      <trkpt lat="39.267158" lon="-2.050582">
        <ele>666.688791</ele>
        <time>2021-10-28T10:10:18.000Z</time>
      </trkpt>
      <trkpt lat="39.267097" lon="-2.050551">
        <ele>666.586479</ele>
        <time>2021-10-28T10:10:19.000Z</time>
      </trkpt>
      <trkpt lat="39.267037" lon="-2.050522">
        <ele>666.486491</ele>
        <time>2021-10-28T10:10:20.000Z</time>
      </trkpt>
      <trkpt lat="39.266976" lon="-2.050494">
        <ele>666.385450</ele>
        <time>2021-10-28T10:10:21.000Z</time>
      </trkpt>
      <trkpt lat="39.266852" lon="-2.050442">
        <ele>666.181968</ele>
        <time>2021-10-28T10:10:23.000Z</time>
      </trkpt>
      <trkpt lat="39.266669" lon="-2.050377">
        <ele>665.885743</ele>
        <time>2021-10-28T10:10:26.000Z</time>
      </trkpt>
      <trkpt lat="39.266490" lon="-2.050318">
        <ele>665.597410</ele>
        <time>2021-10-28T10:10:29.000Z</time>
      </trkpt>
      <trkpt lat="39.265940" lon="-2.050199">
        <ele>665.854597</ele>
        <time>2021-10-28T10:10:38.000Z</time>
      </trkpt>
      <trkpt lat="39.265411" lon="-2.050081">
        <ele>667.178684</ele>
        <time>2021-10-28T10:10:47.000Z</time>
      </trkpt>
      <trkpt lat="39.265080" lon="-2.049955">
        <ele>668.029810</ele>
        <time>2021-10-28T10:10:53.000Z</time>
      </trkpt>
      <trkpt lat="39.265027" lon="-2.049935">
        <ele>668.165999</ele>
        <time>2021-10-28T10:10:54.000Z</time>
      </trkpt>
      <trkpt lat="39.264866" lon="-2.049870">
        <ele>668.582051</ele>
        <time>2021-10-28T10:10:57.000Z</time>
      </trkpt>
      <trkpt lat="39.264539" lon="-2.049744">
        <ele>669.423718</ele>
        <time>2021-10-28T10:11:03.000Z</time>
      </trkpt>
      <trkpt lat="39.264190" lon="-2.049670">
        <ele>669.819011</ele>
        <time>2021-10-28T10:11:09.000Z</time>
      </trkpt>
      <trkpt lat="39.264131" lon="-2.049672">
        <ele>669.864765</ele>
        <time>2021-10-28T10:11:10.000Z</time>
      </trkpt>
      <trkpt lat="39.263746" lon="-2.049746">
        <ele>670.166517</ele>
        <time>2021-10-28T10:11:17.000Z</time>
      </trkpt>
      <trkpt lat="39.263429" lon="-2.049726">
        <ele>670.412559</ele>
        <time>2021-10-28T10:11:23.000Z</time>
      </trkpt>
      <trkpt lat="39.263229" lon="-2.049701">
        <ele>670.568330</ele>
        <time>2021-10-28T10:11:27.000Z</time>
      </trkpt>
      <trkpt lat="39.263127" lon="-2.049695">
        <ele>670.647486</ele>
        <time>2021-10-28T10:11:29.000Z</time>
      </trkpt>
      <trkpt lat="39.263024" lon="-2.049698">
        <ele>670.727355</ele>
        <time>2021-10-28T10:11:31.000Z</time>
      </trkpt>
      <trkpt lat="39.262467" lon="-2.049725">
        <ele>670.532799</ele>
        <time>2021-10-28T10:11:41.000Z</time>
      </trkpt>
      <trkpt lat="39.262222" lon="-2.049727">
        <ele>670.000256</ele>
        <time>2021-10-28T10:11:45.000Z</time>
      </trkpt>
      <trkpt lat="39.262158" lon="-2.049725">
        <ele>669.861104</ele>
        <time>2021-10-28T10:11:46.000Z</time>
      </trkpt>
      <trkpt lat="39.262028" lon="-2.049718">
        <ele>669.578291</ele>
        <time>2021-10-28T10:11:48.000Z</time>
      </trkpt>
      <trkpt lat="39.261899" lon="-2.049704">
        <ele>669.296908</ele>
        <time>2021-10-28T10:11:50.000Z</time>
      </trkpt>
      <trkpt lat="39.261769" lon="-2.049689">
        <ele>669.013214</ele>
        <time>2021-10-28T10:11:52.000Z</time>
      </trkpt>
      <trkpt lat="39.261439" lon="-2.049638">
        <ele>668.290808</ele>
        <time>2021-10-28T10:11:57.000Z</time>
      </trkpt>
      <trkpt lat="39.261375" lon="-2.049640">
        <ele>668.151657</ele>
        <time>2021-10-28T10:11:58.000Z</time>
      </trkpt>
      <trkpt lat="39.261128" lon="-2.049654">
        <ele>667.614260</ele>
        <time>2021-10-28T10:12:02.000Z</time>
      </trkpt>
      <trkpt lat="39.260906" lon="-2.049628">
        <ele>667.129740</ele>
        <time>2021-10-28T10:12:06.000Z</time>
      </trkpt>
      <trkpt lat="39.260759" lon="-2.049583">
        <ele>667.390275</ele>
        <time>2021-10-28T10:12:09.000Z</time>
      </trkpt>
      <trkpt lat="39.260712" lon="-2.049564">
        <ele>667.505348</ele>
        <time>2021-10-28T10:12:10.000Z</time>
      </trkpt>
      <trkpt lat="39.260485" lon="-2.049470">
        <ele>668.062348</ele>
        <time>2021-10-28T10:12:15.000Z</time>
      </trkpt>
      <trkpt lat="39.260350" lon="-2.049418">
        <ele>668.391516</ele>
        <time>2021-10-28T10:12:18.000Z</time>
      </trkpt>
      <trkpt lat="39.260124" lon="-2.049353">
        <ele>668.932518</ele>
        <time>2021-10-28T10:12:23.000Z</time>
      </trkpt>
      <trkpt lat="39.259987" lon="-2.049327">
        <ele>669.256067</ele>
        <time>2021-10-28T10:12:26.000Z</time>
      </trkpt>
      <trkpt lat="39.259896" lon="-2.049321">
        <ele>669.468973</ele>
        <time>2021-10-28T10:12:28.000Z</time>
      </trkpt>
      <trkpt lat="39.259759" lon="-2.049301">
        <ele>669.791123</ele>
        <time>2021-10-28T10:12:31.000Z</time>
      </trkpt>
      <trkpt lat="39.259663" lon="-2.049285">
        <ele>670.017294</ele>
        <time>2021-10-28T10:12:33.000Z</time>
      </trkpt>
      <trkpt lat="39.259311" lon="-2.049232">
        <ele>670.845341</ele>
        <time>2021-10-28T10:12:40.000Z</time>
      </trkpt>
      <trkpt lat="39.259156" lon="-2.049206">
        <ele>671.210553</ele>
        <time>2021-10-28T10:12:43.000Z</time>
      </trkpt>
      <trkpt lat="39.258713" lon="-2.049132">
        <ele>670.948297</ele>
        <time>2021-10-28T10:12:51.000Z</time>
      </trkpt>
      <trkpt lat="39.258321" lon="-2.048992">
        <ele>670.614400</ele>
        <time>2021-10-28T10:12:58.000Z</time>
      </trkpt>
      <trkpt lat="39.258269" lon="-2.048970">
        <ele>670.569477</ele>
        <time>2021-10-28T10:12:59.000Z</time>
      </trkpt>
      <trkpt lat="39.258115" lon="-2.048946">
        <ele>670.442131</ele>
        <time>2021-10-28T10:13:02.000Z</time>
      </trkpt>
      <trkpt lat="39.258064" lon="-2.048954">
        <ele>670.399954</ele>
        <time>2021-10-28T10:13:03.000Z</time>
      </trkpt>
      <trkpt lat="39.257716" lon="-2.049077">
        <ele>670.103752</ele>
        <time>2021-10-28T10:13:10.000Z</time>
      </trkpt>
      <trkpt lat="39.257436" lon="-2.049159">
        <ele>669.868045</ele>
        <time>2021-10-28T10:13:15.000Z</time>
      </trkpt>
      <trkpt lat="39.257319" lon="-2.049181">
        <ele>669.778661</ele>
        <time>2021-10-28T10:13:17.000Z</time>
      </trkpt>
      <trkpt lat="39.256965" lon="-2.049209">
        <ele>669.543065</ele>
        <time>2021-10-28T10:13:23.000Z</time>
      </trkpt>
      <trkpt lat="39.256905" lon="-2.049203">
        <ele>669.503089</ele>
        <time>2021-10-28T10:13:24.000Z</time>
      </trkpt>
      <trkpt lat="39.256343" lon="-2.049118">
        <ele>669.127212</ele>
        <time>2021-10-28T10:13:34.000Z</time>
      </trkpt>
      <trkpt lat="39.255830" lon="-2.049067">
        <ele>668.785428</ele>
        <time>2021-10-28T10:13:43.000Z</time>
      </trkpt>
      <trkpt lat="39.255708" lon="-2.049051">
        <ele>668.703969</ele>
        <time>2021-10-28T10:13:45.000Z</time>
      </trkpt>
      <trkpt lat="39.255205" lon="-2.048971">
        <ele>668.508717</ele>
        <time>2021-10-28T10:13:53.000Z</time>
      </trkpt>
      <trkpt lat="39.255009" lon="-2.048929">
        <ele>668.451654</ele>
        <time>2021-10-28T10:13:56.000Z</time>
      </trkpt>
      <trkpt lat="39.254683" lon="-2.048869">
        <ele>668.357076</ele>
        <time>2021-10-28T10:14:01.000Z</time>
      </trkpt>
      <trkpt lat="39.254307" lon="-2.048795">
        <ele>668.247838</ele>
        <time>2021-10-28T10:14:07.000Z</time>
      </trkpt>
      <trkpt lat="39.254116" lon="-2.048773">
        <ele>668.192763</ele>
        <time>2021-10-28T10:14:10.000Z</time>
      </trkpt>
      <trkpt lat="39.253720" lon="-2.048710">
        <ele>668.041944</ele>
        <time>2021-10-28T10:14:16.000Z</time>
      </trkpt>
      <trkpt lat="39.253528" lon="-2.048665">
        <ele>667.892198</ele>
        <time>2021-10-28T10:14:19.000Z</time>
      </trkpt>
      <trkpt lat="39.253466" lon="-2.048652">
        <ele>667.843997</ele>
        <time>2021-10-28T10:14:20.000Z</time>
      </trkpt>
      <trkpt lat="39.252957" lon="-2.048491">
        <ele>667.441849</ele>
        <time>2021-10-28T10:14:28.000Z</time>
      </trkpt>
      <trkpt lat="39.252402" lon="-2.048243">
        <ele>666.991171</ele>
        <time>2021-10-28T10:14:37.000Z</time>
      </trkpt>
      <trkpt lat="39.252280" lon="-2.048188">
        <ele>666.892008</ele>
        <time>2021-10-28T10:14:39.000Z</time>
      </trkpt>
      <trkpt lat="39.252158" lon="-2.048139">
        <ele>666.793963</ele>
        <time>2021-10-28T10:14:41.000Z</time>
      </trkpt>
      <trkpt lat="39.252099" lon="-2.048114">
        <ele>666.746312</ele>
        <time>2021-10-28T10:14:42.000Z</time>
      </trkpt>
      <trkpt lat="39.251982" lon="-2.048069">
        <ele>666.600401</ele>
        <time>2021-10-28T10:14:44.000Z</time>
      </trkpt>
      <trkpt lat="39.251800" lon="-2.048004">
        <ele>666.342434</ele>
        <time>2021-10-28T10:14:47.000Z</time>
      </trkpt>
      <trkpt lat="39.251553" lon="-2.047910">
        <ele>665.990655</ele>
        <time>2021-10-28T10:14:51.000Z</time>
      </trkpt>
      <trkpt lat="39.251259" lon="-2.047760">
        <ele>665.558805</ele>
        <time>2021-10-28T10:14:56.000Z</time>
      </trkpt>
      <trkpt lat="39.250736" lon="-2.047488">
        <ele>664.788558</ele>
        <time>2021-10-28T10:15:05.000Z</time>
      </trkpt>
      <trkpt lat="39.250508" lon="-2.047371">
        <ele>664.453391</ele>
        <time>2021-10-28T10:15:09.000Z</time>
      </trkpt>
      <trkpt lat="39.250347" lon="-2.047282">
        <ele>664.268135</ele>
        <time>2021-10-28T10:15:12.000Z</time>
      </trkpt>
      <trkpt lat="39.250237" lon="-2.047224">
        <ele>664.287386</ele>
        <time>2021-10-28T10:15:14.000Z</time>
      </trkpt>
      <trkpt lat="39.250130" lon="-2.047163">
        <ele>664.306337</ele>
        <time>2021-10-28T10:15:16.000Z</time>
      </trkpt>
      <trkpt lat="39.249974" lon="-2.047088">
        <ele>664.333307</ele>
        <time>2021-10-28T10:15:19.000Z</time>
      </trkpt>
      <trkpt lat="39.249926" lon="-2.047058">
        <ele>664.341947</ele>
        <time>2021-10-28T10:15:20.000Z</time>
      </trkpt>
      <trkpt lat="39.249622" lon="-2.046873">
        <ele>664.396397</ele>
        <time>2021-10-28T10:15:26.000Z</time>
      </trkpt>
      <trkpt lat="39.249152" lon="-2.046591">
        <ele>664.480365</ele>
        <time>2021-10-28T10:15:35.000Z</time>
      </trkpt>
      <trkpt lat="39.248608" lon="-2.046325">
        <ele>664.496954</ele>
        <time>2021-10-28T10:15:45.000Z</time>
      </trkpt>
      <trkpt lat="39.248088" lon="-2.046165">
        <ele>664.259939</ele>
        <time>2021-10-28T10:15:54.000Z</time>
      </trkpt>
      <trkpt lat="39.248026" lon="-2.046164">
        <ele>664.232447</ele>
        <time>2021-10-28T10:15:55.000Z</time>
      </trkpt>
      <trkpt lat="39.247789" lon="-2.046209">
        <ele>664.126235</ele>
        <time>2021-10-28T10:15:59.000Z</time>
      </trkpt>
      <trkpt lat="39.247680" lon="-2.046221">
        <ele>664.077731</ele>
        <time>2021-10-28T10:16:01.000Z</time>
      </trkpt>
      <trkpt lat="39.247579" lon="-2.046205">
        <ele>664.032613</ele>
        <time>2021-10-28T10:16:03.000Z</time>
      </trkpt>
      <trkpt lat="39.247530" lon="-2.046181">
        <ele>664.009377</ele>
        <time>2021-10-28T10:16:04.000Z</time>
      </trkpt>
      <trkpt lat="39.247484" lon="-2.046149">
        <ele>663.986210</ele>
        <time>2021-10-28T10:16:05.000Z</time>
      </trkpt>
      <trkpt lat="39.247406" lon="-2.046056">
        <ele>663.939138</ele>
        <time>2021-10-28T10:16:07.000Z</time>
      </trkpt>
      <trkpt lat="39.247378" lon="-2.045998">
        <ele>663.915670</ele>
        <time>2021-10-28T10:16:08.000Z</time>
      </trkpt>
      <trkpt lat="39.247269" lon="-2.045761">
        <ele>663.821023</ele>
        <time>2021-10-28T10:16:12.000Z</time>
      </trkpt>
      <trkpt lat="39.247201" lon="-2.045656">
        <ele>663.774024</ele>
        <time>2021-10-28T10:16:14.000Z</time>
      </trkpt>
      <trkpt lat="39.246885" lon="-2.045355">
        <ele>664.516584</ele>
        <time>2021-10-28T10:16:22.000Z</time>
      </trkpt>
      <trkpt lat="39.246743" lon="-2.045191">
        <ele>664.927132</ele>
        <time>2021-10-28T10:16:26.000Z</time>
      </trkpt>
      <trkpt lat="39.246619" lon="-2.045002">
        <ele>665.340525</ele>
        <time>2021-10-28T10:16:30.000Z</time>
      </trkpt>
      <trkpt lat="39.246593" lon="-2.044949">
        <ele>665.445229</ele>
        <time>2021-10-28T10:16:31.000Z</time>
      </trkpt>
      <trkpt lat="39.246539" lon="-2.044840">
        <ele>665.661174</ele>
        <time>2021-10-28T10:16:33.000Z</time>
      </trkpt>
      <trkpt lat="39.246515" lon="-2.044782">
        <ele>665.770921</ele>
        <time>2021-10-28T10:16:34.000Z</time>
      </trkpt>
      <trkpt lat="39.246282" lon="-2.044329">
        <ele>666.678478</ele>
        <time>2021-10-28T10:16:42.000Z</time>
      </trkpt>
      <trkpt lat="39.246248" lon="-2.044274">
        <ele>666.795924</ele>
        <time>2021-10-28T10:16:43.000Z</time>
      </trkpt>
      <trkpt lat="39.246179" lon="-2.044168">
        <ele>667.027017</ele>
        <time>2021-10-28T10:16:45.000Z</time>
      </trkpt>
      <trkpt lat="39.245905" lon="-2.043758">
        <ele>667.712090</ele>
        <time>2021-10-28T10:16:53.000Z</time>
      </trkpt>
      <trkpt lat="39.245688" lon="-2.043461">
        <ele>667.894100</ele>
        <time>2021-10-28T10:16:59.000Z</time>
      </trkpt>
      <trkpt lat="39.245564" lon="-2.043331">
        <ele>667.986036</ele>
        <time>2021-10-28T10:17:02.000Z</time>
      </trkpt>
      <trkpt lat="39.245163" lon="-2.042852">
        <ele>668.300463</ele>
        <time>2021-10-28T10:17:12.000Z</time>
      </trkpt>
      <trkpt lat="39.244832" lon="-2.042480">
        <ele>668.553041</ele>
        <time>2021-10-28T10:17:20.000Z</time>
      </trkpt>
      <trkpt lat="39.244700" lon="-2.042342">
        <ele>668.650799</ele>
        <time>2021-10-28T10:17:23.000Z</time>
      </trkpt>
      <trkpt lat="39.244281" lon="-2.041901">
        <ele>668.333656</ele>
        <time>2021-10-28T10:17:33.000Z</time>
      </trkpt>
      <trkpt lat="39.243949" lon="-2.041580">
        <ele>668.062702</ele>
        <time>2021-10-28T10:17:41.000Z</time>
      </trkpt>
      <trkpt lat="39.243881" lon="-2.041482">
        <ele>667.996131</ele>
        <time>2021-10-28T10:17:43.000Z</time>
      </trkpt>
      <trkpt lat="39.243773" lon="-2.041348">
        <ele>667.898283</ele>
        <time>2021-10-28T10:17:46.000Z</time>
      </trkpt>
      <trkpt lat="39.243710" lon="-2.041255">
        <ele>667.835771</ele>
        <time>2021-10-28T10:17:48.000Z</time>
      </trkpt>
      <trkpt lat="39.243494" lon="-2.040926">
        <ele>667.617554</ele>
        <time>2021-10-28T10:17:55.000Z</time>
      </trkpt>
      <trkpt lat="39.243309" lon="-2.040627">
        <ele>667.686288</ele>
        <time>2021-10-28T10:18:01.000Z</time>
      </trkpt>
      <trkpt lat="39.243239" lon="-2.040541">
        <ele>667.864169</ele>
        <time>2021-10-28T10:18:03.000Z</time>
      </trkpt>
      <trkpt lat="39.243088" lon="-2.040308">
        <ele>668.297340</ele>
        <time>2021-10-28T10:18:08.000Z</time>
      </trkpt>
      <trkpt lat="39.243002" lon="-2.040168">
        <ele>668.552114</ele>
        <time>2021-10-28T10:18:11.000Z</time>
      </trkpt>
      <trkpt lat="39.242749" lon="-2.039803">
        <ele>669.250515</ele>
        <time>2021-10-28T10:18:19.000Z</time>
      </trkpt>
      <trkpt lat="39.242581" lon="-2.039500">
        <ele>669.781826</ele>
        <time>2021-10-28T10:18:25.000Z</time>
      </trkpt>
      <trkpt lat="39.242476" lon="-2.039306">
        <ele>670.119279</ele>
        <time>2021-10-28T10:18:29.000Z</time>
      </trkpt>
      <trkpt lat="39.242419" lon="-2.039221">
        <ele>670.279588</ele>
        <time>2021-10-28T10:18:31.000Z</time>
      </trkpt>
      <trkpt lat="39.242362" lon="-2.039136">
        <ele>670.439897</ele>
        <time>2021-10-28T10:18:33.000Z</time>
      </trkpt>
      <trkpt lat="39.242331" lon="-2.039095">
        <ele>670.521593</ele>
        <time>2021-10-28T10:18:34.000Z</time>
      </trkpt>
      <trkpt lat="39.242194" lon="-2.038943">
        <ele>670.873593</ele>
        <time>2021-10-28T10:18:38.000Z</time>
      </trkpt>
      <trkpt lat="39.242127" lon="-2.038865">
        <ele>671.104029</ele>
        <time>2021-10-28T10:18:40.000Z</time>
      </trkpt>
      <trkpt lat="39.242093" lon="-2.038830">
        <ele>671.215101</ele>
        <time>2021-10-28T10:18:41.000Z</time>
      </trkpt>
      <trkpt lat="39.241966" lon="-2.038684">
        <ele>671.649454</ele>
        <time>2021-10-28T10:18:45.000Z</time>
      </trkpt>
      <trkpt lat="39.241761" lon="-2.038400">
        <ele>672.417483</ele>
        <time>2021-10-28T10:18:52.000Z</time>
      </trkpt>
      <trkpt lat="39.241695" lon="-2.038319">
        <ele>672.650078</ele>
        <time>2021-10-28T10:18:54.000Z</time>
      </trkpt>
      <trkpt lat="39.241588" lon="-2.038209">
        <ele>672.999446</ele>
        <time>2021-10-28T10:18:57.000Z</time>
      </trkpt>
      <trkpt lat="39.241363" lon="-2.037952">
        <ele>673.766791</ele>
        <time>2021-10-28T10:19:04.000Z</time>
      </trkpt>
      <trkpt lat="39.241273" lon="-2.037832">
        <ele>674.097259</ele>
        <time>2021-10-28T10:19:07.000Z</time>
      </trkpt>
      <trkpt lat="39.241155" lon="-2.037665">
        <ele>674.544476</ele>
        <time>2021-10-28T10:19:11.000Z</time>
      </trkpt>
      <trkpt lat="39.241049" lon="-2.037556">
        <ele>674.890615</ele>
        <time>2021-10-28T10:19:14.000Z</time>
      </trkpt>
      <trkpt lat="39.240890" lon="-2.037425">
        <ele>675.372402</ele>
        <time>2021-10-28T10:19:19.000Z</time>
      </trkpt>
      <trkpt lat="39.240831" lon="-2.037401">
        <ele>675.315658</ele>
        <time>2021-10-28T10:19:21.000Z</time>
      </trkpt>
      <trkpt lat="39.240674" lon="-2.037375">
        <ele>675.062789</ele>
        <time>2021-10-28T10:19:25.000Z</time>
      </trkpt>
      <trkpt lat="39.240527" lon="-2.037379">
        <ele>674.827898</ele>
        <time>2021-10-28T10:19:28.000Z</time>
      </trkpt>
      <trkpt lat="39.240422" lon="-2.037415">
        <ele>674.654343</ele>
        <time>2021-10-28T10:19:30.000Z</time>
      </trkpt>
      <trkpt lat="39.240369" lon="-2.037440">
        <ele>674.564199</ele>
        <time>2021-10-28T10:19:31.000Z</time>
      </trkpt>
      <trkpt lat="39.240203" lon="-2.037510">
        <ele>674.285222</ele>
        <time>2021-10-28T10:19:34.000Z</time>
      </trkpt>
      <trkpt lat="39.240139" lon="-2.037514">
        <ele>674.182860</ele>
        <time>2021-10-28T10:19:35.000Z</time>
      </trkpt>
      <trkpt lat="39.240006" lon="-2.037498">
        <ele>673.969466</ele>
        <time>2021-10-28T10:19:37.000Z</time>
      </trkpt>
      <trkpt lat="39.239820" lon="-2.037447">
        <ele>673.665696</ele>
        <time>2021-10-28T10:19:40.000Z</time>
      </trkpt>
      <trkpt lat="39.239580" lon="-2.037387">
        <ele>673.275165</ele>
        <time>2021-10-28T10:19:45.000Z</time>
      </trkpt>
      <trkpt lat="39.239352" lon="-2.037359">
        <ele>672.909281</ele>
        <time>2021-10-28T10:19:51.000Z</time>
      </trkpt>
      <trkpt lat="39.239249" lon="-2.037363">
        <ele>672.744659</ele>
        <time>2021-10-28T10:22:56.000Z</time>
      </trkpt>
      <trkpt lat="39.239249" lon="-2.037363">
        <ele>672.744659</ele>
        <time>2021-10-28T10:22:57.000Z</time>
      </trkpt>
      <trkpt lat="39.239249" lon="-2.037363">
        <ele>672.744659</ele>
        <time>2021-10-28T10:22:58.000Z</time>
      </trkpt>
      <trkpt lat="39.239249" lon="-2.037363">
        <ele>672.744659</ele>
        <time>2021-10-28T10:22:59.000Z</time>
      </trkpt>
      <trkpt lat="39.239249" lon="-2.037363">
        <ele>672.744659</ele>
        <time>2021-10-28T10:23:00.000Z</time>
      </trkpt>
      <trkpt lat="39.239249" lon="-2.037363">
        <ele>672.744659</ele>
        <time>2021-10-28T10:23:01.000Z</time>
      </trkpt>
      <trkpt lat="39.239249" lon="-2.037363">
        <ele>672.744659</ele>
        <time>2021-10-28T10:23:02.000Z</time>
      </trkpt>
      <trkpt lat="39.239248" lon="-2.037361">
        <ele>672.741714</ele>
        <time>2021-10-28T10:23:07.000Z</time>
      </trkpt>
      <trkpt lat="39.239251" lon="-2.037363">
        <ele>672.736320</ele>
        <time>2021-10-28T10:23:13.000Z</time>
      </trkpt>
      <trkpt lat="39.239251" lon="-2.037362">
        <ele>672.735083</ele>
        <time>2021-10-28T10:23:16.000Z</time>
      </trkpt>
      <trkpt lat="39.239250" lon="-2.037365">
        <ele>672.731042</ele>
        <time>2021-10-28T10:23:17.000Z</time>
      </trkpt>
      <trkpt lat="39.239231" lon="-2.037336">
        <ele>672.684043</ele>
        <time>2021-10-28T10:30:14.000Z</time>
      </trkpt>
      <trkpt lat="39.239209" lon="-2.037285">
        <ele>672.611813</ele>
        <time>2021-10-28T10:30:16.000Z</time>
      </trkpt>
      <trkpt lat="39.239210" lon="-2.037182">
        <ele>672.494057</ele>
        <time>2021-10-28T10:30:19.000Z</time>
      </trkpt>
      <trkpt lat="39.239213" lon="-2.037152">
        <ele>672.465587</ele>
        <time>2021-10-28T10:30:20.000Z</time>
      </trkpt>
      <trkpt lat="39.239228" lon="-2.037036">
        <ele>672.354900</ele>
        <time>2021-10-28T10:30:23.000Z</time>
      </trkpt>
      <trkpt lat="39.239239" lon="-2.036953">
        <ele>672.275647</ele>
        <time>2021-10-28T10:30:25.000Z</time>
      </trkpt>
      <trkpt lat="39.239243" lon="-2.036909">
        <ele>672.233951</ele>
        <time>2021-10-28T10:30:26.000Z</time>
      </trkpt>
      <trkpt lat="39.239267" lon="-2.036749">
        <ele>672.080565</ele>
        <time>2021-10-28T10:30:30.000Z</time>
      </trkpt>
      <trkpt lat="39.239268" lon="-2.036705">
        <ele>672.039136</ele>
        <time>2021-10-28T10:30:31.000Z</time>
      </trkpt>
      <trkpt lat="39.239219" lon="-2.036539">
        <ele>671.871939</ele>
        <time>2021-10-28T10:30:36.000Z</time>
      </trkpt>
      <trkpt lat="39.239197" lon="-2.036505">
        <ele>671.830241</ele>
        <time>2021-10-28T10:30:37.000Z</time>
      </trkpt>
      <trkpt lat="39.239137" lon="-2.036444">
        <ele>671.737439</ele>
        <time>2021-10-28T10:30:39.000Z</time>
      </trkpt>
      <trkpt lat="39.239070" lon="-2.036394">
        <ele>671.643400</ele>
        <time>2021-10-28T10:30:41.000Z</time>
      </trkpt>
      <trkpt lat="39.238993" lon="-2.036354">
        <ele>671.542541</ele>
        <time>2021-10-28T10:30:43.000Z</time>
      </trkpt>
      <trkpt lat="39.238869" lon="-2.036318">
        <ele>671.388096</ele>
        <time>2021-10-28T10:30:46.000Z</time>
      </trkpt>
      <trkpt lat="39.238824" lon="-2.036315">
        <ele>671.333340</ele>
        <time>2021-10-28T10:30:47.000Z</time>
      </trkpt>
      <trkpt lat="39.238778" lon="-2.036319">
        <ele>671.277315</ele>
        <time>2021-10-28T10:30:48.000Z</time>
      </trkpt>
      <trkpt lat="39.238680" lon="-2.036343">
        <ele>671.156103</ele>
        <time>2021-10-28T10:30:50.000Z</time>
      </trkpt>
      <trkpt lat="39.238629" lon="-2.036360">
        <ele>671.092097</ele>
        <time>2021-10-28T10:30:51.000Z</time>
      </trkpt>
      <trkpt lat="39.238575" lon="-2.036384">
        <ele>671.022698</ele>
        <time>2021-10-28T10:30:52.000Z</time>
      </trkpt>
      <trkpt lat="39.238456" lon="-2.036438">
        <ele>670.869419</ele>
        <time>2021-10-28T10:30:54.000Z</time>
      </trkpt>
      <trkpt lat="39.238392" lon="-2.036461">
        <ele>670.788691</ele>
        <time>2021-10-28T10:30:55.000Z</time>
      </trkpt>
      <trkpt lat="39.238325" lon="-2.036478">
        <ele>670.705717</ele>
        <time>2021-10-28T10:30:56.000Z</time>
      </trkpt>
      <trkpt lat="39.238257" lon="-2.036487">
        <ele>670.622651</ele>
        <time>2021-10-28T10:30:57.000Z</time>
      </trkpt>
      <trkpt lat="39.237940" lon="-2.036460">
        <ele>670.193643</ele>
        <time>2021-10-28T10:31:02.000Z</time>
      </trkpt>
      <trkpt lat="39.237696" lon="-2.036379">
        <ele>669.759308</ele>
        <time>2021-10-28T10:31:06.000Z</time>
      </trkpt>
      <trkpt lat="39.237463" lon="-2.036281">
        <ele>669.336842</ele>
        <time>2021-10-28T10:31:10.000Z</time>
      </trkpt>
      <trkpt lat="39.237170" lon="-2.036157">
        <ele>668.805269</ele>
        <time>2021-10-28T10:31:15.000Z</time>
      </trkpt>
      <trkpt lat="39.237110" lon="-2.036133">
        <ele>668.696979</ele>
        <time>2021-10-28T10:31:16.000Z</time>
      </trkpt>
      <trkpt lat="39.236748" lon="-2.035992">
        <ele>668.045114</ele>
        <time>2021-10-28T10:31:22.000Z</time>
      </trkpt>
      <trkpt lat="39.236509" lon="-2.035891">
        <ele>667.611570</ele>
        <time>2021-10-28T10:31:26.000Z</time>
      </trkpt>
      <trkpt lat="39.236168" lon="-2.035724">
        <ele>667.134450</ele>
        <time>2021-10-28T10:31:32.000Z</time>
      </trkpt>
      <trkpt lat="39.236113" lon="-2.035692">
        <ele>667.092160</ele>
        <time>2021-10-28T10:31:33.000Z</time>
      </trkpt>
      <trkpt lat="39.235624" lon="-2.035392">
        <ele>666.712638</ele>
        <time>2021-10-28T10:31:42.000Z</time>
      </trkpt>
      <trkpt lat="39.235516" lon="-2.035328">
        <ele>666.629336</ele>
        <time>2021-10-28T10:31:44.000Z</time>
      </trkpt>
      <trkpt lat="39.235131" lon="-2.035112">
        <ele>666.335069</ele>
        <time>2021-10-28T10:31:51.000Z</time>
      </trkpt>
      <trkpt lat="39.235071" lon="-2.035092">
        <ele>666.291630</ele>
        <time>2021-10-28T10:31:52.000Z</time>
      </trkpt>
      <trkpt lat="39.234834" lon="-2.035034">
        <ele>666.122534</ele>
        <time>2021-10-28T10:31:56.000Z</time>
      </trkpt>
      <trkpt lat="39.234776" lon="-2.035008">
        <ele>666.079495</ele>
        <time>2021-10-28T10:31:57.000Z</time>
      </trkpt>
      <trkpt lat="39.234490" lon="-2.034843">
        <ele>666.006752</ele>
        <time>2021-10-28T10:32:02.000Z</time>
      </trkpt>
      <trkpt lat="39.234392" lon="-2.034755">
        <ele>666.027564</ele>
        <time>2021-10-28T10:32:04.000Z</time>
      </trkpt>
      <trkpt lat="39.234346" lon="-2.034712">
        <ele>666.037466</ele>
        <time>2021-10-28T10:32:05.000Z</time>
      </trkpt>
      <trkpt lat="39.234255" lon="-2.034624">
        <ele>666.057288</ele>
        <time>2021-10-28T10:32:07.000Z</time>
      </trkpt>
      <trkpt lat="39.234169" lon="-2.034528">
        <ele>666.077109</ele>
        <time>2021-10-28T10:32:09.000Z</time>
      </trkpt>
      <trkpt lat="39.233826" lon="-2.034178">
        <ele>666.153333</ele>
        <time>2021-10-28T10:32:17.000Z</time>
      </trkpt>
      <trkpt lat="39.233741" lon="-2.034094">
        <ele>666.171995</ele>
        <time>2021-10-28T10:32:19.000Z</time>
      </trkpt>
      <trkpt lat="39.233515" lon="-2.033908">
        <ele>666.218723</ele>
        <time>2021-10-28T10:32:24.000Z</time>
      </trkpt>
      <trkpt lat="39.233094" lon="-2.033605">
        <ele>666.292318</ele>
        <time>2021-10-28T10:32:33.000Z</time>
      </trkpt>
      <trkpt lat="39.232848" lon="-2.033475">
        <ele>666.297201</ele>
        <time>2021-10-28T10:32:38.000Z</time>
      </trkpt>
      <trkpt lat="39.232510" lon="-2.033286">
        <ele>666.303968</ele>
        <time>2021-10-28T10:32:45.000Z</time>
      </trkpt>
      <trkpt lat="39.232411" lon="-2.033230">
        <ele>666.305954</ele>
        <time>2021-10-28T10:32:47.000Z</time>
      </trkpt>
      <trkpt lat="39.232210" lon="-2.033114">
        <ele>666.309998</ele>
        <time>2021-10-28T10:32:51.000Z</time>
      </trkpt>
      <trkpt lat="39.232108" lon="-2.033056">
        <ele>666.312046</ele>
        <time>2021-10-28T10:32:53.000Z</time>
      </trkpt>
      <trkpt lat="39.232004" lon="-2.032992">
        <ele>666.314163</ele>
        <time>2021-10-28T10:32:55.000Z</time>
      </trkpt>
      <trkpt lat="39.231679" lon="-2.032774">
        <ele>666.320891</ele>
        <time>2021-10-28T10:33:01.000Z</time>
      </trkpt>
      <trkpt lat="39.231206" lon="-2.032477">
        <ele>666.472742</ele>
        <time>2021-10-28T10:33:10.000Z</time>
      </trkpt>
      <trkpt lat="39.231154" lon="-2.032448">
        <ele>666.496822</ele>
        <time>2021-10-28T10:33:11.000Z</time>
      </trkpt>
      <trkpt lat="39.230948" lon="-2.032335">
        <ele>666.591969</ele>
        <time>2021-10-28T10:33:15.000Z</time>
      </trkpt>
      <trkpt lat="39.230697" lon="-2.032186">
        <ele>666.709409</ele>
        <time>2021-10-28T10:33:20.000Z</time>
      </trkpt>
      <trkpt lat="39.230597" lon="-2.032132">
        <ele>666.755488</ele>
        <time>2021-10-28T10:33:22.000Z</time>
      </trkpt>
      <trkpt lat="39.230216" lon="-2.031911">
        <ele>666.933048</ele>
        <time>2021-10-28T10:33:30.000Z</time>
      </trkpt>
      <trkpt lat="39.229948" lon="-2.031756">
        <ele>667.057885</ele>
        <time>2021-10-28T10:33:36.000Z</time>
      </trkpt>
      <trkpt lat="39.229858" lon="-2.031722">
        <ele>667.112384</ele>
        <time>2021-10-28T10:33:38.000Z</time>
      </trkpt>
      <trkpt lat="39.229636" lon="-2.031606">
        <ele>667.379456</ele>
        <time>2021-10-28T10:33:43.000Z</time>
      </trkpt>
      <trkpt lat="39.229596" lon="-2.031569">
        <ele>667.434330</ele>
        <time>2021-10-28T10:33:44.000Z</time>
      </trkpt>
      <trkpt lat="39.229440" lon="-2.031392">
        <ele>667.665933</ele>
        <time>2021-10-28T10:33:48.000Z</time>
      </trkpt>
      <trkpt lat="39.229368" lon="-2.031310">
        <ele>667.773002</ele>
        <time>2021-10-28T10:33:50.000Z</time>
      </trkpt>
      <trkpt lat="39.229330" lon="-2.031269">
        <ele>667.828229</ele>
        <time>2021-10-28T10:33:51.000Z</time>
      </trkpt>
      <trkpt lat="39.229246" lon="-2.031200">
        <ele>667.939256</ele>
        <time>2021-10-28T10:33:53.000Z</time>
      </trkpt>
      <trkpt lat="39.229160" lon="-2.031151">
        <ele>668.044084</ele>
        <time>2021-10-28T10:33:55.000Z</time>
      </trkpt>
      <trkpt lat="39.228876" lon="-2.031051">
        <ele>668.372354</ele>
        <time>2021-10-28T10:34:01.000Z</time>
      </trkpt>
      <trkpt lat="39.228544" lon="-2.030917">
        <ele>668.760256</ele>
        <time>2021-10-28T10:34:08.000Z</time>
      </trkpt>
      <trkpt lat="39.228268" lon="-2.030793">
        <ele>669.086142</ele>
        <time>2021-10-28T10:34:14.000Z</time>
      </trkpt>
      <trkpt lat="39.228185" lon="-2.030732">
        <ele>669.196736</ele>
        <time>2021-10-28T10:34:16.000Z</time>
      </trkpt>
      <trkpt lat="39.228036" lon="-2.030590">
        <ele>669.411867</ele>
        <time>2021-10-28T10:34:20.000Z</time>
      </trkpt>
      <trkpt lat="39.227998" lon="-2.030562">
        <ele>669.462692</ele>
        <time>2021-10-28T10:34:21.000Z</time>
      </trkpt>
      <trkpt lat="39.227958" lon="-2.030543">
        <ele>669.512201</ele>
        <time>2021-10-28T10:34:22.000Z</time>
      </trkpt>
      <trkpt lat="39.227915" lon="-2.030533">
        <ele>669.562953</ele>
        <time>2021-10-28T10:34:23.000Z</time>
      </trkpt>
      <trkpt lat="39.227872" lon="-2.030533">
        <ele>669.612901</ele>
        <time>2021-10-28T10:34:24.000Z</time>
      </trkpt>
      <trkpt lat="39.227742" lon="-2.030545">
        <ele>669.764293</ele>
        <time>2021-10-28T10:34:27.000Z</time>
      </trkpt>
      <trkpt lat="39.227658" lon="-2.030558">
        <ele>669.862565</ele>
        <time>2021-10-28T10:34:29.000Z</time>
      </trkpt>
      <trkpt lat="39.227444" lon="-2.030609">
        <ele>670.115346</ele>
        <time>2021-10-28T10:34:34.000Z</time>
      </trkpt>
      <trkpt lat="39.227268" lon="-2.030613">
        <ele>670.319817</ele>
        <time>2021-10-28T10:34:38.000Z</time>
      </trkpt>
      <trkpt lat="39.227224" lon="-2.030614">
        <ele>670.370935</ele>
        <time>2021-10-28T10:34:39.000Z</time>
      </trkpt>
      <trkpt lat="39.227130" lon="-2.030620">
        <ele>670.480257</ele>
        <time>2021-10-28T10:34:41.000Z</time>
      </trkpt>
      <trkpt lat="39.226740" lon="-2.030621">
        <ele>670.933277</ele>
        <time>2021-10-28T10:34:48.000Z</time>
      </trkpt>
      <trkpt lat="39.226614" lon="-2.030617">
        <ele>671.079682</ele>
        <time>2021-10-28T10:34:50.000Z</time>
      </trkpt>
      <trkpt lat="39.226438" lon="-2.030612">
        <ele>671.268610</ele>
        <time>2021-10-28T10:34:53.000Z</time>
      </trkpt>
      <trkpt lat="39.226331" lon="-2.030610">
        <ele>671.373649</ele>
        <time>2021-10-28T10:34:55.000Z</time>
      </trkpt>
      <trkpt lat="39.226146" lon="-2.030605">
        <ele>671.555280</ele>
        <time>2021-10-28T10:34:59.000Z</time>
      </trkpt>
      <trkpt lat="39.226104" lon="-2.030600">
        <ele>671.596681</ele>
        <time>2021-10-28T10:35:00.000Z</time>
      </trkpt>
      <trkpt lat="39.226062" lon="-2.030592">
        <ele>671.638354</ele>
        <time>2021-10-28T10:35:01.000Z</time>
      </trkpt>
      <trkpt lat="39.226019" lon="-2.030588">
        <ele>671.680671</ele>
        <time>2021-10-28T10:35:02.000Z</time>
      </trkpt>
      <trkpt lat="39.225977" lon="-2.030583">
        <ele>671.722072</ele>
        <time>2021-10-28T10:35:03.000Z</time>
      </trkpt>
      <trkpt lat="39.225804" lon="-2.030532">
        <ele>671.896255</ele>
        <time>2021-10-28T10:35:07.000Z</time>
      </trkpt>
      <trkpt lat="39.225582" lon="-2.030410">
        <ele>672.133089</ele>
        <time>2021-10-28T10:35:12.000Z</time>
      </trkpt>
      <trkpt lat="39.225450" lon="-2.030314">
        <ele>672.281804</ele>
        <time>2021-10-28T10:35:15.000Z</time>
      </trkpt>
      <trkpt lat="39.225183" lon="-2.030043">
        <ele>672.615194</ele>
        <time>2021-10-28T10:35:22.000Z</time>
      </trkpt>
      <trkpt lat="39.224977" lon="-2.029767">
        <ele>672.906624</ele>
        <time>2021-10-28T10:35:28.000Z</time>
      </trkpt>
      <trkpt lat="39.224943" lon="-2.029721">
        <ele>672.940344</ele>
        <time>2021-10-28T10:35:29.000Z</time>
      </trkpt>
      <trkpt lat="39.224806" lon="-2.029535">
        <ele>672.635409</ele>
        <time>2021-10-28T10:35:33.000Z</time>
      </trkpt>
      <trkpt lat="39.224640" lon="-2.029294">
        <ele>672.252256</ele>
        <time>2021-10-28T10:35:38.000Z</time>
      </trkpt>
      <trkpt lat="39.224609" lon="-2.029245">
        <ele>672.177091</ele>
        <time>2021-10-28T10:35:39.000Z</time>
      </trkpt>
      <trkpt lat="39.224510" lon="-2.029087">
        <ele>671.935650</ele>
        <time>2021-10-28T10:35:42.000Z</time>
      </trkpt>
      <trkpt lat="39.224433" lon="-2.028985">
        <ele>671.766437</ele>
        <time>2021-10-28T10:35:44.000Z</time>
      </trkpt>
      <trkpt lat="39.224389" lon="-2.028937">
        <ele>671.678084</ele>
        <time>2021-10-28T10:35:45.000Z</time>
      </trkpt>
      <trkpt lat="39.224061" lon="-2.028595">
        <ele>671.031421</ele>
        <time>2021-10-28T10:35:52.000Z</time>
      </trkpt>
      <trkpt lat="39.223930" lon="-2.028416">
        <ele>670.738851</ele>
        <time>2021-10-28T10:35:55.000Z</time>
      </trkpt>
      <trkpt lat="39.223890" lon="-2.028353">
        <ele>670.642071</ele>
        <time>2021-10-28T10:35:56.000Z</time>
      </trkpt>
      <trkpt lat="39.223818" lon="-2.028220">
        <ele>670.449289</ele>
        <time>2021-10-28T10:35:58.000Z</time>
      </trkpt>
      <trkpt lat="39.223787" lon="-2.028150">
        <ele>670.353490</ele>
        <time>2021-10-28T10:35:59.000Z</time>
      </trkpt>
      <trkpt lat="39.223593" lon="-2.027731">
        <ele>669.945954</ele>
        <time>2021-10-28T10:36:05.000Z</time>
      </trkpt>
      <trkpt lat="39.223526" lon="-2.027593">
        <ele>669.832435</ele>
        <time>2021-10-28T10:36:07.000Z</time>
      </trkpt>
      <trkpt lat="39.223322" lon="-2.027194">
        <ele>669.499211</ele>
        <time>2021-10-28T10:36:13.000Z</time>
      </trkpt>
      <trkpt lat="39.223080" lon="-2.026835">
        <ele>669.167506</ele>
        <time>2021-10-28T10:36:19.000Z</time>
      </trkpt>
      <trkpt lat="39.222897" lon="-2.026635">
        <ele>668.951762</ele>
        <time>2021-10-28T10:36:23.000Z</time>
      </trkpt>
      <trkpt lat="39.222786" lon="-2.026459">
        <ele>668.793571</ele>
        <time>2021-10-28T10:36:26.000Z</time>
      </trkpt>
      <trkpt lat="39.222667" lon="-2.026293">
        <ele>668.635924</ele>
        <time>2021-10-28T10:36:29.000Z</time>
      </trkpt>
      <trkpt lat="39.222531" lon="-2.026148">
        <ele>668.467320</ele>
        <time>2021-10-28T10:36:32.000Z</time>
      </trkpt>
      <trkpt lat="39.222478" lon="-2.026113">
        <ele>668.408183</ele>
        <time>2021-10-28T10:36:33.000Z</time>
      </trkpt>
      <trkpt lat="39.222373" lon="-2.026047">
        <ele>668.292173</ele>
        <time>2021-10-28T10:36:35.000Z</time>
      </trkpt>
      <trkpt lat="39.222291" lon="-2.025952">
        <ele>668.182724</ele>
        <time>2021-10-28T10:36:37.000Z</time>
      </trkpt>
      <trkpt lat="39.222260" lon="-2.025896">
        <ele>668.129758</ele>
        <time>2021-10-28T10:36:38.000Z</time>
      </trkpt>
      <trkpt lat="39.222236" lon="-2.025834">
        <ele>668.076422</ele>
        <time>2021-10-28T10:36:39.000Z</time>
      </trkpt>
      <trkpt lat="39.222186" lon="-2.025708">
        <ele>667.967480</ele>
        <time>2021-10-28T10:36:41.000Z</time>
      </trkpt>
      <trkpt lat="39.222154" lon="-2.025646">
        <ele>667.910149</ele>
        <time>2021-10-28T10:36:42.000Z</time>
      </trkpt>
      <trkpt lat="39.221969" lon="-2.025339">
        <ele>667.610843</ele>
        <time>2021-10-28T10:36:47.000Z</time>
      </trkpt>
      <trkpt lat="39.221895" lon="-2.025214">
        <ele>667.489779</ele>
        <time>2021-10-28T10:36:49.000Z</time>
      </trkpt>
      <trkpt lat="39.221856" lon="-2.025152">
        <ele>667.428320</ele>
        <time>2021-10-28T10:36:50.000Z</time>
      </trkpt>
      <trkpt lat="39.221635" lon="-2.024821">
        <ele>667.092055</ele>
        <time>2021-10-28T10:36:56.000Z</time>
      </trkpt>
      <trkpt lat="39.221517" lon="-2.024698">
        <ele>666.941394</ele>
        <time>2021-10-28T10:37:01.000Z</time>
      </trkpt>
      <trkpt lat="39.221492" lon="-2.024645">
        <ele>666.893643</ele>
        <time>2021-10-28T10:37:04.000Z</time>
      </trkpt>
      <trkpt lat="39.221500" lon="-2.024611">
        <ele>666.866298</ele>
        <time>2021-10-28T10:37:06.000Z</time>
      </trkpt>
      <trkpt lat="39.221463" lon="-2.024528">
        <ele>666.792606</ele>
        <time>2021-10-28T10:37:10.000Z</time>
      </trkpt>
      <trkpt lat="39.221374" lon="-2.024387">
        <ele>666.602698</ele>
        <time>2021-10-28T10:37:16.000Z</time>
      </trkpt>
      <trkpt lat="39.221311" lon="-2.024171">
        <ele>666.358405</ele>
        <time>2021-10-28T10:37:22.000Z</time>
      </trkpt>
      <trkpt lat="39.221246" lon="-2.023878">
        <ele>666.035811</ele>
        <time>2021-10-28T10:37:27.000Z</time>
      </trkpt>
      <trkpt lat="39.221222" lon="-2.023827">
        <ele>665.972651</ele>
        <time>2021-10-28T10:37:28.000Z</time>
      </trkpt>
      <trkpt lat="39.221191" lon="-2.023780">
        <ele>665.907316</ele>
        <time>2021-10-28T10:37:29.000Z</time>
      </trkpt>
      <trkpt lat="39.221153" lon="-2.023741">
        <ele>665.840987</ele>
        <time>2021-10-28T10:37:30.000Z</time>
      </trkpt>
      <trkpt lat="39.221108" lon="-2.023712">
        <ele>665.772268</ele>
        <time>2021-10-28T10:37:31.000Z</time>
      </trkpt>
      <trkpt lat="39.220950" lon="-2.023614">
        <ele>665.532770</ele>
        <time>2021-10-28T10:37:34.000Z</time>
      </trkpt>
      <trkpt lat="39.220904" lon="-2.023554">
        <ele>665.443421</ele>
        <time>2021-10-28T10:37:35.000Z</time>
      </trkpt>
      <trkpt lat="39.220869" lon="-2.023487">
        <ele>665.357888</ele>
        <time>2021-10-28T10:37:36.000Z</time>
      </trkpt>
      <trkpt lat="39.220841" lon="-2.023415">
        <ele>665.272616</ele>
        <time>2021-10-28T10:37:37.000Z</time>
      </trkpt>
      <trkpt lat="39.220822" lon="-2.023339">
        <ele>665.188087</ele>
        <time>2021-10-28T10:37:38.000Z</time>
      </trkpt>
      <trkpt lat="39.220809" lon="-2.023260">
        <ele>665.102603</ele>
        <time>2021-10-28T10:37:39.000Z</time>
      </trkpt>
      <trkpt lat="39.220682" lon="-2.022659">
        <ele>664.443224</ele>
        <time>2021-10-28T10:37:47.000Z</time>
      </trkpt>
      <trkpt lat="39.220625" lon="-2.022374">
        <ele>664.269473</ele>
        <time>2021-10-28T10:37:51.000Z</time>
      </trkpt>
      <trkpt lat="39.220608" lon="-2.022160">
        <ele>664.201388</ele>
        <time>2021-10-28T10:37:54.000Z</time>
      </trkpt>
      <trkpt lat="39.220587" lon="-2.021731">
        <ele>664.065339</ele>
        <time>2021-10-28T10:38:00.000Z</time>
      </trkpt>
      <trkpt lat="39.220577" lon="-2.021590">
        <ele>664.020526</ele>
        <time>2021-10-28T10:38:02.000Z</time>
      </trkpt>
      <trkpt lat="39.220572" lon="-2.021522">
        <ele>663.998908</ele>
        <time>2021-10-28T10:38:03.000Z</time>
      </trkpt>
      <trkpt lat="39.220564" lon="-2.021386">
        <ele>663.955740</ele>
        <time>2021-10-28T10:38:05.000Z</time>
      </trkpt>
      <trkpt lat="39.220556" lon="-2.021318">
        <ele>663.933972</ele>
        <time>2021-10-28T10:38:06.000Z</time>
      </trkpt>
      <trkpt lat="39.220536" lon="-2.021184">
        <ele>663.890781</ele>
        <time>2021-10-28T10:38:08.000Z</time>
      </trkpt>
      <trkpt lat="39.220506" lon="-2.021042">
        <ele>663.844197</ele>
        <time>2021-10-28T10:38:10.000Z</time>
      </trkpt>
      <trkpt lat="39.220456" lon="-2.020819">
        <ele>663.770721</ele>
        <time>2021-10-28T10:38:13.000Z</time>
      </trkpt>
      <trkpt lat="39.220383" lon="-2.020519">
        <ele>663.671198</ele>
        <time>2021-10-28T10:38:17.000Z</time>
      </trkpt>
      <trkpt lat="39.220335" lon="-2.020376">
        <ele>663.621874</ele>
        <time>2021-10-28T10:38:19.000Z</time>
      </trkpt>
      <trkpt lat="39.220307" lon="-2.020307">
        <ele>663.597221</ele>
        <time>2021-10-28T10:38:20.000Z</time>
      </trkpt>
      <trkpt lat="39.220172" lon="-2.019947">
        <ele>663.701930</ele>
        <time>2021-10-28T10:38:25.000Z</time>
      </trkpt>
      <trkpt lat="39.220152" lon="-2.019869">
        <ele>663.724899</ele>
        <time>2021-10-28T10:38:26.000Z</time>
      </trkpt>
      <trkpt lat="39.220137" lon="-2.019786">
        <ele>663.748726</ele>
        <time>2021-10-28T10:38:27.000Z</time>
      </trkpt>
      <trkpt lat="39.220103" lon="-2.019615">
        <ele>663.798080</ele>
        <time>2021-10-28T10:38:29.000Z</time>
      </trkpt>
      <trkpt lat="39.220045" lon="-2.019462">
        <ele>663.845700</ele>
        <time>2021-10-28T10:38:31.000Z</time>
      </trkpt>
      <trkpt lat="39.219843" lon="-2.019118">
        <ele>663.966372</ele>
        <time>2021-10-28T10:38:36.000Z</time>
      </trkpt>
      <trkpt lat="39.219801" lon="-2.019056">
        <ele>663.989397</ele>
        <time>2021-10-28T10:38:37.000Z</time>
      </trkpt>
      <trkpt lat="39.219682" lon="-2.018885">
        <ele>664.053657</ele>
        <time>2021-10-28T10:38:40.000Z</time>
      </trkpt>
      <trkpt lat="39.219639" lon="-2.018773">
        <ele>664.088602</ele>
        <time>2021-10-28T10:38:42.000Z</time>
      </trkpt>
      <trkpt lat="39.219622" lon="-2.018660">
        <ele>664.120783</ele>
        <time>2021-10-28T10:38:44.000Z</time>
      </trkpt>
      <trkpt lat="39.219592" lon="-2.018495">
        <ele>664.168164</ele>
        <time>2021-10-28T10:38:47.000Z</time>
      </trkpt>
      <trkpt lat="39.219578" lon="-2.018439">
        <ele>664.184615</ele>
        <time>2021-10-28T10:38:48.000Z</time>
      </trkpt>
      <trkpt lat="39.219560" lon="-2.018386">
        <ele>664.200793</ele>
        <time>2021-10-28T10:38:49.000Z</time>
      </trkpt>
      <trkpt lat="39.219540" lon="-2.018333">
        <ele>664.217274</ele>
        <time>2021-10-28T10:38:50.000Z</time>
      </trkpt>
      <trkpt lat="39.219516" lon="-2.018284">
        <ele>664.233481</ele>
        <time>2021-10-28T10:38:51.000Z</time>
      </trkpt>
      <trkpt lat="39.219453" lon="-2.018206">
        <ele>664.190872</ele>
        <time>2021-10-28T10:38:53.000Z</time>
      </trkpt>
      <trkpt lat="39.219370" lon="-2.018159">
        <ele>664.115776</ele>
        <time>2021-10-28T10:38:55.000Z</time>
      </trkpt>
      <trkpt lat="39.219270" lon="-2.018131">
        <ele>664.030994</ele>
        <time>2021-10-28T10:38:57.000Z</time>
      </trkpt>
      <trkpt lat="39.219030" lon="-2.018149">
        <ele>663.831808</ele>
        <time>2021-10-28T10:39:01.000Z</time>
      </trkpt>
      <trkpt lat="39.218964" lon="-2.018152">
        <ele>663.777090</ele>
        <time>2021-10-28T10:39:02.000Z</time>
      </trkpt>
      <trkpt lat="39.218896" lon="-2.018151">
        <ele>663.720745</ele>
        <time>2021-10-28T10:39:03.000Z</time>
      </trkpt>
      <trkpt lat="39.218756" lon="-2.018140">
        <ele>663.604534</ele>
        <time>2021-10-28T10:39:05.000Z</time>
      </trkpt>
      <trkpt lat="39.218687" lon="-2.018133">
        <ele>663.547188</ele>
        <time>2021-10-28T10:39:06.000Z</time>
      </trkpt>
      <trkpt lat="39.218298" lon="-2.018123">
        <ele>663.224820</ele>
        <time>2021-10-28T10:39:12.000Z</time>
      </trkpt>
      <trkpt lat="39.217868" lon="-2.018072">
        <ele>662.867044</ele>
        <time>2021-10-28T10:39:19.000Z</time>
      </trkpt>
      <trkpt lat="39.217810" lon="-2.018056">
        <ele>662.817903</ele>
        <time>2021-10-28T10:39:20.000Z</time>
      </trkpt>
      <trkpt lat="39.217753" lon="-2.018037">
        <ele>662.769126</ele>
        <time>2021-10-28T10:39:21.000Z</time>
      </trkpt>
      <trkpt lat="39.217695" lon="-2.018010">
        <ele>662.719376</ele>
        <time>2021-10-28T10:39:22.000Z</time>
      </trkpt>
      <trkpt lat="39.217498" lon="-2.017938">
        <ele>662.556356</ele>
        <time>2021-10-28T10:39:25.000Z</time>
      </trkpt>
      <trkpt lat="39.217426" lon="-2.017924">
        <ele>662.498382</ele>
        <time>2021-10-28T10:39:26.000Z</time>
      </trkpt>
      <trkpt lat="39.217280" lon="-2.017909">
        <ele>662.381768</ele>
        <time>2021-10-28T10:39:28.000Z</time>
      </trkpt>
      <trkpt lat="39.217056" lon="-2.017893">
        <ele>662.203144</ele>
        <time>2021-10-28T10:39:31.000Z</time>
      </trkpt>
      <trkpt lat="39.216828" lon="-2.017873">
        <ele>662.021190</ele>
        <time>2021-10-28T10:39:34.000Z</time>
      </trkpt>
      <trkpt lat="39.216693" lon="-2.017912">
        <ele>661.911043</ele>
        <time>2021-10-28T10:39:36.000Z</time>
      </trkpt>
      <trkpt lat="39.216562" lon="-2.017987">
        <ele>661.796939</ele>
        <time>2021-10-28T10:39:38.000Z</time>
      </trkpt>
      <trkpt lat="39.216455" lon="-2.018092">
        <ele>661.689918</ele>
        <time>2021-10-28T10:39:40.000Z</time>
      </trkpt>
      <trkpt lat="39.216113" lon="-2.018319">
        <ele>661.383720</ele>
        <time>2021-10-28T10:39:46.000Z</time>
      </trkpt>
      <trkpt lat="39.215838" lon="-2.018450">
        <ele>661.635355</ele>
        <time>2021-10-28T10:39:51.000Z</time>
      </trkpt>
      <trkpt lat="39.215728" lon="-2.018486">
        <ele>661.803068</ele>
        <time>2021-10-28T10:39:53.000Z</time>
      </trkpt>
      <trkpt lat="39.215563" lon="-2.018517">
        <ele>662.049491</ele>
        <time>2021-10-28T10:39:56.000Z</time>
      </trkpt>
      <trkpt lat="39.215459" lon="-2.018518">
        <ele>662.203196</ele>
        <time>2021-10-28T10:39:58.000Z</time>
      </trkpt>
      <trkpt lat="39.215406" lon="-2.018520">
        <ele>662.281557</ele>
        <time>2021-10-28T10:39:59.000Z</time>
      </trkpt>
      <trkpt lat="39.215255" lon="-2.018545">
        <ele>662.506548</ele>
        <time>2021-10-28T10:40:02.000Z</time>
      </trkpt>
      <trkpt lat="39.215156" lon="-2.018554">
        <ele>662.653222</ele>
        <time>2021-10-28T10:40:04.000Z</time>
      </trkpt>
      <trkpt lat="39.215015" lon="-2.018580">
        <ele>662.863721</ele>
        <time>2021-10-28T10:40:07.000Z</time>
      </trkpt>
      <trkpt lat="39.214733" lon="-2.018655">
        <ele>663.289243</ele>
        <time>2021-10-28T10:40:13.000Z</time>
      </trkpt>
      <trkpt lat="39.214682" lon="-2.018658">
        <ele>663.364693</ele>
        <time>2021-10-28T10:40:14.000Z</time>
      </trkpt>
      <trkpt lat="39.214629" lon="-2.018657">
        <ele>663.443030</ele>
        <time>2021-10-28T10:40:15.000Z</time>
      </trkpt>
      <trkpt lat="39.214364" lon="-2.018598">
        <ele>663.840456</ele>
        <time>2021-10-28T10:40:20.000Z</time>
      </trkpt>
      <trkpt lat="39.214199" lon="-2.018546">
        <ele>664.070206</ele>
        <time>2021-10-28T10:40:23.000Z</time>
      </trkpt>
      <trkpt lat="39.214086" lon="-2.018559">
        <ele>664.206352</ele>
        <time>2021-10-28T10:40:25.000Z</time>
      </trkpt>
      <trkpt lat="39.213804" lon="-2.018611">
        <ele>664.548207</ele>
        <time>2021-10-28T10:40:30.000Z</time>
      </trkpt>
      <trkpt lat="39.213743" lon="-2.018610">
        <ele>664.621417</ele>
        <time>2021-10-28T10:40:31.000Z</time>
      </trkpt>
      <trkpt lat="39.213684" lon="-2.018605">
        <ele>664.692374</ele>
        <time>2021-10-28T10:40:32.000Z</time>
      </trkpt>
      <trkpt lat="39.213524" lon="-2.018555">
        <ele>664.889933</ele>
        <time>2021-10-28T10:40:35.000Z</time>
      </trkpt>
      <trkpt lat="39.213479" lon="-2.018524">
        <ele>664.951147</ele>
        <time>2021-10-28T10:40:36.000Z</time>
      </trkpt>
      <trkpt lat="39.213439" lon="-2.018488">
        <ele>665.009668</ele>
        <time>2021-10-28T10:40:37.000Z</time>
      </trkpt>
      <trkpt lat="39.213372" lon="-2.018403">
        <ele>665.122412</ele>
        <time>2021-10-28T10:40:39.000Z</time>
      </trkpt>
      <trkpt lat="39.213313" lon="-2.018318">
        <ele>665.228523</ele>
        <time>2021-10-28T10:40:41.000Z</time>
      </trkpt>
      <trkpt lat="39.213235" lon="-2.018199">
        <ele>665.373453</ele>
        <time>2021-10-28T10:40:44.000Z</time>
      </trkpt>
      <trkpt lat="39.213140" lon="-2.018090">
        <ele>665.525995</ele>
        <time>2021-10-28T10:40:48.000Z</time>
      </trkpt>
      <trkpt lat="39.213057" lon="-2.018069">
        <ele>665.627497</ele>
        <time>2021-10-28T10:40:51.000Z</time>
      </trkpt>
      <trkpt lat="39.213026" lon="-2.018077">
        <ele>665.665435</ele>
        <time>2021-10-28T10:40:52.000Z</time>
      </trkpt>
      <trkpt lat="39.212922" lon="-2.018118">
        <ele>665.795935</ele>
        <time>2021-10-28T10:40:57.000Z</time>
      </trkpt>
      <trkpt lat="39.212909" lon="-2.018127">
        <ele>665.813638</ele>
        <time>2021-10-28T10:40:58.000Z</time>
      </trkpt>
      <trkpt lat="39.212842" lon="-2.018110">
        <ele>665.895582</ele>
        <time>2021-10-28T10:41:27.000Z</time>
      </trkpt>
      <trkpt lat="39.212716" lon="-2.018024">
        <ele>666.066632</ele>
        <time>2021-10-28T10:41:32.000Z</time>
      </trkpt>
      <trkpt lat="39.212505" lon="-2.017773">
        <ele>665.967993</ele>
        <time>2021-10-28T10:41:39.000Z</time>
      </trkpt>
      <trkpt lat="39.212358" lon="-2.017620">
        <ele>665.828417</ele>
        <time>2021-10-28T10:41:43.000Z</time>
      </trkpt>
      <trkpt lat="39.212239" lon="-2.017509">
        <ele>665.719898</ele>
        <time>2021-10-28T10:41:46.000Z</time>
      </trkpt>
      <trkpt lat="39.211912" lon="-2.017211">
        <ele>665.424032</ele>
        <time>2021-10-28T10:41:54.000Z</time>
      </trkpt>
      <trkpt lat="39.211827" lon="-2.017135">
        <ele>665.347605</ele>
        <time>2021-10-28T10:41:56.000Z</time>
      </trkpt>
      <trkpt lat="39.211547" lon="-2.016877">
        <ele>665.093326</ele>
        <time>2021-10-28T10:42:02.000Z</time>
      </trkpt>
      <trkpt lat="39.211500" lon="-2.016828">
        <ele>665.048670</ele>
        <time>2021-10-28T10:42:03.000Z</time>
      </trkpt>
      <trkpt lat="39.211408" lon="-2.016728">
        <ele>664.959770</ele>
        <time>2021-10-28T10:42:05.000Z</time>
      </trkpt>
      <trkpt lat="39.211118" lon="-2.016470">
        <ele>664.689422</ele>
        <time>2021-10-28T10:42:11.000Z</time>
      </trkpt>
      <trkpt lat="39.210664" lon="-2.016095">
        <ele>664.254086</ele>
        <time>2021-10-28T10:42:20.000Z</time>
      </trkpt>
      <trkpt lat="39.210187" lon="-2.015658">
        <ele>663.781644</ele>
        <time>2021-10-28T10:42:29.000Z</time>
      </trkpt>
      <trkpt lat="39.210084" lon="-2.015548">
        <ele>663.673669</ele>
        <time>2021-10-28T10:42:31.000Z</time>
      </trkpt>
      <trkpt lat="39.209860" lon="-2.015337">
        <ele>663.449694</ele>
        <time>2021-10-28T10:42:35.000Z</time>
      </trkpt>
      <trkpt lat="39.209798" lon="-2.015298">
        <ele>663.393989</ele>
        <time>2021-10-28T10:42:36.000Z</time>
      </trkpt>
      <trkpt lat="39.209412" lon="-2.015010">
        <ele>662.903089</ele>
        <time>2021-10-28T10:42:43.000Z</time>
      </trkpt>
      <trkpt lat="39.209015" lon="-2.014691">
        <ele>662.371431</ele>
        <time>2021-10-28T10:42:50.000Z</time>
      </trkpt>
      <trkpt lat="39.208770" lon="-2.014573">
        <ele>662.074138</ele>
        <time>2021-10-28T10:42:54.000Z</time>
      </trkpt>
      <trkpt lat="39.208655" lon="-2.014528">
        <ele>661.937523</ele>
        <time>2021-10-28T10:42:56.000Z</time>
      </trkpt>
      <trkpt lat="39.208285" lon="-2.014313">
        <ele>661.476216</ele>
        <time>2021-10-28T10:43:03.000Z</time>
      </trkpt>
      <trkpt lat="39.207922" lon="-2.014068">
        <ele>661.029034</ele>
        <time>2021-10-28T10:43:09.000Z</time>
      </trkpt>
      <trkpt lat="39.207794" lon="-2.013991">
        <ele>660.878414</ele>
        <time>2021-10-28T10:43:11.000Z</time>
      </trkpt>
      <trkpt lat="39.207668" lon="-2.013918">
        <ele>660.731109</ele>
        <time>2021-10-28T10:43:13.000Z</time>
      </trkpt>
      <trkpt lat="39.207304" lon="-2.013647">
        <ele>660.282920</ele>
        <time>2021-10-28T10:43:19.000Z</time>
      </trkpt>
      <trkpt lat="39.207015" lon="-2.013411">
        <ele>659.918166</ele>
        <time>2021-10-28T10:43:24.000Z</time>
      </trkpt>
      <trkpt lat="39.206953" lon="-2.013382">
        <ele>659.847831</ele>
        <time>2021-10-28T10:43:25.000Z</time>
      </trkpt>
      <trkpt lat="39.206577" lon="-2.013282">
        <ele>659.438384</ele>
        <time>2021-10-28T10:43:31.000Z</time>
      </trkpt>
      <trkpt lat="39.206282" lon="-2.013177">
        <ele>659.511198</ele>
        <time>2021-10-28T10:43:36.000Z</time>
      </trkpt>
      <trkpt lat="39.206228" lon="-2.013147">
        <ele>659.537999</ele>
        <time>2021-10-28T10:43:37.000Z</time>
      </trkpt>
      <trkpt lat="39.206177" lon="-2.013110">
        <ele>659.564671</ele>
        <time>2021-10-28T10:43:38.000Z</time>
      </trkpt>
      <trkpt lat="39.205917" lon="-2.012812">
        <ele>659.723196</ele>
        <time>2021-10-28T10:43:44.000Z</time>
      </trkpt>
      <trkpt lat="39.205829" lon="-2.012710">
        <ele>659.777119</ele>
        <time>2021-10-28T10:43:46.000Z</time>
      </trkpt>
      <trkpt lat="39.205678" lon="-2.012597">
        <ele>659.856693</ele>
        <time>2021-10-28T10:43:49.000Z</time>
      </trkpt>
      <trkpt lat="39.205278" lon="-2.012336">
        <ele>660.061027</ele>
        <time>2021-10-28T10:43:57.000Z</time>
      </trkpt>
      <trkpt lat="39.204823" lon="-2.011951">
        <ele>660.089660</ele>
        <time>2021-10-28T10:44:06.000Z</time>
      </trkpt>
      <trkpt lat="39.204773" lon="-2.011906">
        <ele>660.054876</ele>
        <time>2021-10-28T10:44:07.000Z</time>
      </trkpt>
      <trkpt lat="39.204571" lon="-2.011735">
        <ele>659.917026</ele>
        <time>2021-10-28T10:44:11.000Z</time>
      </trkpt>
      <trkpt lat="39.204272" lon="-2.011483">
        <ele>659.713249</ele>
        <time>2021-10-28T10:44:17.000Z</time>
      </trkpt>
      <trkpt lat="39.203949" lon="-2.011131">
        <ele>659.472013</ele>
        <time>2021-10-28T10:44:24.000Z</time>
      </trkpt>
      <trkpt lat="39.203548" lon="-2.010659">
        <ele>659.196480</ele>
        <time>2021-10-28T10:44:33.000Z</time>
      </trkpt>
      <trkpt lat="39.203187" lon="-2.010242">
        <ele>659.331127</ele>
        <time>2021-10-28T10:44:41.000Z</time>
      </trkpt>
      <trkpt lat="39.203124" lon="-2.010108">
        <ele>659.364880</ele>
        <time>2021-10-28T10:44:43.000Z</time>
      </trkpt>
      <trkpt lat="39.203088" lon="-2.009961">
        <ele>659.398080</ele>
        <time>2021-10-28T10:44:45.000Z</time>
      </trkpt>
      <trkpt lat="39.203065" lon="-2.009891">
        <ele>659.414454</ele>
        <time>2021-10-28T10:44:46.000Z</time>
      </trkpt>
      <trkpt lat="39.203029" lon="-2.009829">
        <ele>659.431139</ele>
        <time>2021-10-28T10:44:47.000Z</time>
      </trkpt>
      <trkpt lat="39.202980" lon="-2.009777">
        <ele>659.448769</ele>
        <time>2021-10-28T10:44:48.000Z</time>
      </trkpt>
      <trkpt lat="39.202919" lon="-2.009742">
        <ele>659.467322</ele>
        <time>2021-10-28T10:44:49.000Z</time>
      </trkpt>
      <trkpt lat="39.202853" lon="-2.009727">
        <ele>659.485946</ele>
        <time>2021-10-28T10:44:50.000Z</time>
      </trkpt>
      <trkpt lat="39.202791" lon="-2.009720">
        <ele>659.503242</ele>
        <time>2021-10-28T10:44:51.000Z</time>
      </trkpt>
      <trkpt lat="39.202732" lon="-2.009707">
        <ele>659.519876</ele>
        <time>2021-10-28T10:44:52.000Z</time>
      </trkpt>
      <trkpt lat="39.202561" lon="-2.009629">
        <ele>659.570280</ele>
        <time>2021-10-28T10:44:55.000Z</time>
      </trkpt>
      <trkpt lat="39.202298" lon="-2.009405">
        <ele>659.657854</ele>
        <time>2021-10-28T10:45:00.000Z</time>
      </trkpt>
      <trkpt lat="39.202188" lon="-2.009316">
        <ele>659.694754</ele>
        <time>2021-10-28T10:45:02.000Z</time>
      </trkpt>
      <trkpt lat="39.201971" lon="-2.009146">
        <ele>659.771869</ele>
        <time>2021-10-28T10:45:06.000Z</time>
      </trkpt>
      <trkpt lat="39.201877" lon="-2.009049">
        <ele>659.808431</ele>
        <time>2021-10-28T10:45:08.000Z</time>
      </trkpt>
      <trkpt lat="39.201428" lon="-2.008595">
        <ele>659.981710</ele>
        <time>2021-10-28T10:45:18.000Z</time>
      </trkpt>
      <trkpt lat="39.201059" lon="-2.008247">
        <ele>660.120547</ele>
        <time>2021-10-28T10:45:26.000Z</time>
      </trkpt>
      <trkpt lat="39.201010" lon="-2.008202">
        <ele>660.138817</ele>
        <time>2021-10-28T10:45:27.000Z</time>
      </trkpt>
      <trkpt lat="39.200731" lon="-2.007905">
        <ele>660.212992</ele>
        <time>2021-10-28T10:45:33.000Z</time>
      </trkpt>
      <trkpt lat="39.200410" lon="-2.007581">
        <ele>660.079208</ele>
        <time>2021-10-28T10:45:40.000Z</time>
      </trkpt>
      <trkpt lat="39.200190" lon="-2.007350">
        <ele>659.986099</ele>
        <time>2021-10-28T10:45:45.000Z</time>
      </trkpt>
      <trkpt lat="39.200045" lon="-2.007217">
        <ele>659.927699</ele>
        <time>2021-10-28T10:45:48.000Z</time>
      </trkpt>
      <trkpt lat="39.199762" lon="-2.006952">
        <ele>659.812914</ele>
        <time>2021-10-28T10:45:54.000Z</time>
      </trkpt>
      <trkpt lat="39.199528" lon="-2.006717">
        <ele>659.715574</ele>
        <time>2021-10-28T10:45:59.000Z</time>
      </trkpt>
      <trkpt lat="39.199435" lon="-2.006627">
        <ele>659.677413</ele>
        <time>2021-10-28T10:46:01.000Z</time>
      </trkpt>
      <trkpt lat="39.199342" lon="-2.006536">
        <ele>659.645800</ele>
        <time>2021-10-28T10:46:03.000Z</time>
      </trkpt>
      <trkpt lat="39.199245" lon="-2.006438">
        <ele>659.742394</ele>
        <time>2021-10-28T10:46:05.000Z</time>
      </trkpt>
      <trkpt lat="39.199148" lon="-2.006335">
        <ele>659.840890</ele>
        <time>2021-10-28T10:46:07.000Z</time>
      </trkpt>
      <trkpt lat="39.199100" lon="-2.006280">
        <ele>659.891223</ele>
        <time>2021-10-28T10:46:08.000Z</time>
      </trkpt>
      <trkpt lat="39.199054" lon="-2.006223">
        <ele>659.941227</ele>
        <time>2021-10-28T10:46:09.000Z</time>
      </trkpt>
      <trkpt lat="39.199012" lon="-2.006161">
        <ele>659.991265</ele>
        <time>2021-10-28T10:46:10.000Z</time>
      </trkpt>
      <trkpt lat="39.198944" lon="-2.006023">
        <ele>660.090633</ele>
        <time>2021-10-28T10:46:12.000Z</time>
      </trkpt>
      <trkpt lat="39.198867" lon="-2.005818">
        <ele>660.229058</ele>
        <time>2021-10-28T10:46:15.000Z</time>
      </trkpt>
      <trkpt lat="39.198777" lon="-2.005638">
        <ele>660.359221</ele>
        <time>2021-10-28T10:46:18.000Z</time>
      </trkpt>
      <trkpt lat="39.198531" lon="-2.005263">
        <ele>660.657760</ele>
        <time>2021-10-28T10:46:24.000Z</time>
      </trkpt>
      <trkpt lat="39.198488" lon="-2.005204">
        <ele>660.706974</ele>
        <time>2021-10-28T10:46:25.000Z</time>
      </trkpt>
      <trkpt lat="39.198283" lon="-2.004959">
        <ele>660.926060</ele>
        <time>2021-10-28T10:46:30.000Z</time>
      </trkpt>
      <trkpt lat="39.198200" lon="-2.004857">
        <ele>661.015930</ele>
        <time>2021-10-28T10:46:32.000Z</time>
      </trkpt>
      <trkpt lat="39.198091" lon="-2.004673">
        <ele>661.233555</ele>
        <time>2021-10-28T10:46:35.000Z</time>
      </trkpt>
      <trkpt lat="39.197928" lon="-2.004438">
        <ele>661.565138</ele>
        <time>2021-10-28T10:46:39.000Z</time>
      </trkpt>
      <trkpt lat="39.197837" lon="-2.004336">
        <ele>661.728669</ele>
        <time>2021-10-28T10:46:41.000Z</time>
      </trkpt>
      <trkpt lat="39.197519" lon="-2.003972">
        <ele>662.305373</ele>
        <time>2021-10-28T10:46:48.000Z</time>
      </trkpt>
      <trkpt lat="39.197429" lon="-2.003865">
        <ele>662.471399</ele>
        <time>2021-10-28T10:46:50.000Z</time>
      </trkpt>
      <trkpt lat="39.197252" lon="-2.003645">
        <ele>662.804814</ele>
        <time>2021-10-28T10:46:54.000Z</time>
      </trkpt>
      <trkpt lat="39.197048" lon="-2.003377">
        <ele>663.199773</ele>
        <time>2021-10-28T10:46:59.000Z</time>
      </trkpt>
      <trkpt lat="39.196940" lon="-2.003207">
        <ele>663.430891</ele>
        <time>2021-10-28T10:47:02.000Z</time>
      </trkpt>
      <trkpt lat="39.196905" lon="-2.003147">
        <ele>663.491327</ele>
        <time>2021-10-28T10:47:03.000Z</time>
      </trkpt>
      <trkpt lat="39.196850" lon="-2.003018">
        <ele>663.489533</ele>
        <time>2021-10-28T10:47:05.000Z</time>
      </trkpt>
      <trkpt lat="39.196760" lon="-2.002752">
        <ele>663.485997</ele>
        <time>2021-10-28T10:47:09.000Z</time>
      </trkpt>
      <trkpt lat="39.196708" lon="-2.002539">
        <ele>663.483276</ele>
        <time>2021-10-28T10:47:12.000Z</time>
      </trkpt>
      <trkpt lat="39.196698" lon="-2.002465">
        <ele>663.482361</ele>
        <time>2021-10-28T10:47:13.000Z</time>
      </trkpt>
      <trkpt lat="39.196663" lon="-2.002035">
        <ele>663.477093</ele>
        <time>2021-10-28T10:47:19.000Z</time>
      </trkpt>
      <trkpt lat="39.196646" lon="-2.001832">
        <ele>663.474606</ele>
        <time>2021-10-28T10:47:22.000Z</time>
      </trkpt>
      <trkpt lat="39.196627" lon="-2.001643">
        <ele>663.472284</ele>
        <time>2021-10-28T10:47:25.000Z</time>
      </trkpt>
      <trkpt lat="39.196610" lon="-2.001460">
        <ele>663.470038</ele>
        <time>2021-10-28T10:47:28.000Z</time>
      </trkpt>
      <trkpt lat="39.196592" lon="-2.001277">
        <ele>663.467791</ele>
        <time>2021-10-28T10:47:31.000Z</time>
      </trkpt>
      <trkpt lat="39.196546" lon="-2.000670">
        <ele>663.561895</ele>
        <time>2021-10-28T10:47:40.000Z</time>
      </trkpt>
      <trkpt lat="39.196530" lon="-2.000135">
        <ele>663.783544</ele>
        <time>2021-10-28T10:47:48.000Z</time>
      </trkpt>
      <trkpt lat="39.196526" lon="-2.000003">
        <ele>663.838233</ele>
        <time>2021-10-28T10:47:50.000Z</time>
      </trkpt>
      <trkpt lat="39.196523" lon="-1.999936">
        <ele>663.866016</ele>
        <time>2021-10-28T10:47:51.000Z</time>
      </trkpt>
      <trkpt lat="39.196446" lon="-1.999371">
        <ele>664.103510</ele>
        <time>2021-10-28T10:47:59.000Z</time>
      </trkpt>
      <trkpt lat="39.196432" lon="-1.999222">
        <ele>664.165647</ele>
        <time>2021-10-28T10:48:00.000Z</time>
      </trkpt>
      <trkpt lat="39.196423" lon="-1.998847">
        <ele>664.320968</ele>
        <time>2021-10-28T10:48:06.000Z</time>
      </trkpt>
      <trkpt lat="39.196449" lon="-1.998128">
        <ele>664.285780</ele>
        <time>2021-10-28T10:48:16.000Z</time>
      </trkpt>
      <trkpt lat="39.196510" lon="-1.997428">
        <ele>664.078802</ele>
        <time>2021-10-28T10:48:26.000Z</time>
      </trkpt>
      <trkpt lat="39.196514" lon="-1.997354">
        <ele>664.057006</ele>
        <time>2021-10-28T10:48:27.000Z</time>
      </trkpt>
      <trkpt lat="39.196526" lon="-1.997054">
        <ele>663.968739</ele>
        <time>2021-10-28T10:48:31.000Z</time>
      </trkpt>
      <trkpt lat="39.196540" lon="-1.996823">
        <ele>663.900657</ele>
        <time>2021-10-28T10:48:34.000Z</time>
      </trkpt>
      <trkpt lat="39.196554" lon="-1.996665">
        <ele>663.853930</ele>
        <time>2021-10-28T10:48:36.000Z</time>
      </trkpt>
      <trkpt lat="39.196560" lon="-1.996587">
        <ele>663.830898</ele>
        <time>2021-10-28T10:48:37.000Z</time>
      </trkpt>
      <trkpt lat="39.196577" lon="-1.996192">
        <ele>663.705933</ele>
        <time>2021-10-28T10:48:42.000Z</time>
      </trkpt>
      <trkpt lat="39.196670" lon="-1.995584">
        <ele>663.466036</ele>
        <time>2021-10-28T10:48:50.000Z</time>
      </trkpt>
      <trkpt lat="39.196694" lon="-1.995435">
        <ele>663.407125</ele>
        <time>2021-10-28T10:48:52.000Z</time>
      </trkpt>
      <trkpt lat="39.196744" lon="-1.995063">
        <ele>663.260975</ele>
        <time>2021-10-28T10:48:57.000Z</time>
      </trkpt>
      <trkpt lat="39.196755" lon="-1.994987">
        <ele>663.231047</ele>
        <time>2021-10-28T10:48:58.000Z</time>
      </trkpt>
      <trkpt lat="39.196770" lon="-1.994836">
        <ele>663.172117</ele>
        <time>2021-10-28T10:49:00.000Z</time>
      </trkpt>
      <trkpt lat="39.196776" lon="-1.994611">
        <ele>663.084968</ele>
        <time>2021-10-28T10:49:03.000Z</time>
      </trkpt>
      <trkpt lat="39.196808" lon="-1.994165">
        <ele>662.911584</ele>
        <time>2021-10-28T10:49:09.000Z</time>
      </trkpt>
      <trkpt lat="39.196832" lon="-1.993930">
        <ele>662.836163</ele>
        <time>2021-10-28T10:49:12.000Z</time>
      </trkpt>
      <trkpt lat="39.196867" lon="-1.993611">
        <ele>662.796688</ele>
        <time>2021-10-28T10:49:16.000Z</time>
      </trkpt>
      <trkpt lat="39.196929" lon="-1.992986">
        <ele>662.719485</ele>
        <time>2021-10-28T10:49:24.000Z</time>
      </trkpt>
      <trkpt lat="39.196937" lon="-1.992909">
        <ele>662.709966</ele>
        <time>2021-10-28T10:49:25.000Z</time>
      </trkpt>
      <trkpt lat="39.197020" lon="-1.992218">
        <ele>662.624291</ele>
        <time>2021-10-28T10:49:34.000Z</time>
      </trkpt>
      <trkpt lat="39.197026" lon="-1.992141">
        <ele>662.614809</ele>
        <time>2021-10-28T10:49:35.000Z</time>
      </trkpt>
      <trkpt lat="39.197035" lon="-1.992064">
        <ele>662.605268</ele>
        <time>2021-10-28T10:49:36.000Z</time>
      </trkpt>
      <trkpt lat="39.197075" lon="-1.991758">
        <ele>662.567246</ele>
        <time>2021-10-28T10:49:40.000Z</time>
      </trkpt>
      <trkpt lat="39.197083" lon="-1.991681">
        <ele>662.564693</ele>
        <time>2021-10-28T10:49:41.000Z</time>
      </trkpt>
      <trkpt lat="39.197087" lon="-1.991603">
        <ele>662.595963</ele>
        <time>2021-10-28T10:49:42.000Z</time>
      </trkpt>
      <trkpt lat="39.197094" lon="-1.991217">
        <ele>662.750412</ele>
        <time>2021-10-28T10:49:47.000Z</time>
      </trkpt>
      <trkpt lat="39.197125" lon="-1.990660">
        <ele>662.973795</ele>
        <time>2021-10-28T10:49:55.000Z</time>
      </trkpt>
      <trkpt lat="39.197170" lon="-1.990093">
        <ele>663.201791</ele>
        <time>2021-10-28T10:50:03.000Z</time>
      </trkpt>
      <trkpt lat="39.197182" lon="-1.989387">
        <ele>663.484271</ele>
        <time>2021-10-28T10:50:13.000Z</time>
      </trkpt>
      <trkpt lat="39.197204" lon="-1.988952">
        <ele>663.169252</ele>
        <time>2021-10-28T10:50:20.000Z</time>
      </trkpt>
      <trkpt lat="39.197199" lon="-1.988891">
        <ele>663.123519</ele>
        <time>2021-10-28T10:50:21.000Z</time>
      </trkpt>
      <trkpt lat="39.197169" lon="-1.988778">
        <ele>663.034463</ele>
        <time>2021-10-28T10:50:23.000Z</time>
      </trkpt>
      <trkpt lat="39.197117" lon="-1.988672">
        <ele>662.940930</ele>
        <time>2021-10-28T10:50:25.000Z</time>
      </trkpt>
      <trkpt lat="39.197024" lon="-1.988430">
        <ele>662.739536</ele>
        <time>2021-10-28T10:50:29.000Z</time>
      </trkpt>
      <trkpt lat="39.196937" lon="-1.988232">
        <ele>662.569837</ele>
        <time>2021-10-28T10:50:32.000Z</time>
      </trkpt>
      <trkpt lat="39.196723" lon="-1.987849">
        <ele>662.217803</ele>
        <time>2021-10-28T10:50:38.000Z</time>
      </trkpt>
      <trkpt lat="39.196523" lon="-1.987549">
        <ele>661.922758</ele>
        <time>2021-10-28T10:50:43.000Z</time>
      </trkpt>
      <trkpt lat="39.196452" lon="-1.987402">
        <ele>661.793616</ele>
        <time>2021-10-28T10:50:45.000Z</time>
      </trkpt>
      <trkpt lat="39.196413" lon="-1.987335">
        <ele>661.705204</ele>
        <time>2021-10-28T10:50:46.000Z</time>
      </trkpt>
      <trkpt lat="39.196261" lon="-1.987059">
        <ele>661.203108</ele>
        <time>2021-10-28T10:50:50.000Z</time>
      </trkpt>
      <trkpt lat="39.196069" lon="-1.986635">
        <ele>660.474894</ele>
        <time>2021-10-28T10:50:56.000Z</time>
      </trkpt>
      <trkpt lat="39.196041" lon="-1.986558">
        <ele>660.348766</ele>
        <time>2021-10-28T10:50:57.000Z</time>
      </trkpt>
      <trkpt lat="39.195969" lon="-1.986420">
        <ele>660.102072</ele>
        <time>2021-10-28T10:50:59.000Z</time>
      </trkpt>
      <trkpt lat="39.195925" lon="-1.986356">
        <ele>659.975204</ele>
        <time>2021-10-28T10:51:00.000Z</time>
      </trkpt>
      <trkpt lat="39.195637" lon="-1.985970">
        <ele>659.180643</ele>
        <time>2021-10-28T10:51:06.000Z</time>
      </trkpt>
      <trkpt lat="39.195597" lon="-1.985891">
        <ele>659.040706</ele>
        <time>2021-10-28T10:51:07.000Z</time>
      </trkpt>
      <trkpt lat="39.195538" lon="-1.985726">
        <ele>658.771237</ele>
        <time>2021-10-28T10:51:09.000Z</time>
      </trkpt>
      <trkpt lat="39.195514" lon="-1.985645">
        <ele>658.642642</ele>
        <time>2021-10-28T10:51:10.000Z</time>
      </trkpt>
      <trkpt lat="39.195400" lon="-1.985359">
        <ele>658.181266</ele>
        <time>2021-10-28T10:51:14.000Z</time>
      </trkpt>
      <trkpt lat="39.195374" lon="-1.985215">
        <ele>657.984727</ele>
        <time>2021-10-28T10:51:16.000Z</time>
      </trkpt>
      <trkpt lat="39.195368" lon="-1.985137">
        <ele>657.880536</ele>
        <time>2021-10-28T10:51:17.000Z</time>
      </trkpt>
      <trkpt lat="39.195365" lon="-1.984979">
        <ele>657.670450</ele>
        <time>2021-10-28T10:51:19.000Z</time>
      </trkpt>
      <trkpt lat="39.195321" lon="-1.984836">
        <ele>657.465933</ele>
        <time>2021-10-28T10:51:21.000Z</time>
      </trkpt>
      <trkpt lat="39.195280" lon="-1.984780">
        <ele>657.363531</ele>
        <time>2021-10-28T10:51:22.000Z</time>
      </trkpt>
      <trkpt lat="39.195234" lon="-1.984728">
        <ele>657.258637</ele>
        <time>2021-10-28T10:51:23.000Z</time>
      </trkpt>
      <trkpt lat="39.195135" lon="-1.984633">
        <ele>657.047025</ele>
        <time>2021-10-28T10:51:25.000Z</time>
      </trkpt>
      <trkpt lat="39.195090" lon="-1.984574">
        <ele>656.936989</ele>
        <time>2021-10-28T10:51:26.000Z</time>
      </trkpt>
      <trkpt lat="39.195052" lon="-1.984506">
        <ele>656.825552</ele>
        <time>2021-10-28T10:51:27.000Z</time>
      </trkpt>
      <trkpt lat="39.194988" lon="-1.984420">
        <ele>656.667065</ele>
        <time>2021-10-28T10:51:29.000Z</time>
      </trkpt>
      <trkpt lat="39.194905" lon="-1.984417">
        <ele>656.524649</ele>
        <time>2021-10-28T10:51:31.000Z</time>
      </trkpt>
      <trkpt lat="39.194856" lon="-1.984408">
        <ele>656.439758</ele>
        <time>2021-10-28T10:51:32.000Z</time>
      </trkpt>
      <trkpt lat="39.194808" lon="-1.984382">
        <ele>656.350470</ele>
        <time>2021-10-28T10:51:33.000Z</time>
      </trkpt>
      <trkpt lat="39.194761" lon="-1.984341">
        <ele>656.253162</ele>
        <time>2021-10-28T10:51:34.000Z</time>
      </trkpt>
      <trkpt lat="39.194715" lon="-1.984295">
        <ele>656.153343</ele>
        <time>2021-10-28T10:51:35.000Z</time>
      </trkpt>
      <trkpt lat="39.194623" lon="-1.984190">
        <ele>655.942677</ele>
        <time>2021-10-28T10:51:37.000Z</time>
      </trkpt>
      <trkpt lat="39.194405" lon="-1.983912">
        <ele>655.416972</ele>
        <time>2021-10-28T10:51:42.000Z</time>
      </trkpt>
      <trkpt lat="39.194317" lon="-1.983797">
        <ele>655.217523</ele>
        <time>2021-10-28T10:51:44.000Z</time>
      </trkpt>
      <trkpt lat="39.194158" lon="-1.983531">
        <ele>655.010989</ele>
        <time>2021-10-28T10:51:48.000Z</time>
      </trkpt>
      <trkpt lat="39.193985" lon="-1.983182">
        <ele>654.756280</ele>
        <time>2021-10-28T10:51:53.000Z</time>
      </trkpt>
      <trkpt lat="39.193941" lon="-1.983118">
        <ele>654.703681</ele>
        <time>2021-10-28T10:51:54.000Z</time>
      </trkpt>
      <trkpt lat="39.193892" lon="-1.983059">
        <ele>654.650513</ele>
        <time>2021-10-28T10:51:55.000Z</time>
      </trkpt>
      <trkpt lat="39.193783" lon="-1.982955">
        <ele>654.542969</ele>
        <time>2021-10-28T10:51:57.000Z</time>
      </trkpt>
      <trkpt lat="39.193723" lon="-1.982913">
        <ele>654.488817</ele>
        <time>2021-10-28T10:51:58.000Z</time>
      </trkpt>
      <trkpt lat="39.193665" lon="-1.982873">
        <ele>654.436645</ele>
        <time>2021-10-28T10:51:59.000Z</time>
      </trkpt>
      <trkpt lat="39.193611" lon="-1.982826">
        <ele>654.384971</ele>
        <time>2021-10-28T10:52:00.000Z</time>
      </trkpt>
      <trkpt lat="39.193382" lon="-1.982651">
        <ele>654.173833</ele>
        <time>2021-10-28T10:52:04.000Z</time>
      </trkpt>
      <trkpt lat="39.193267" lon="-1.982593">
        <ele>654.075881</ele>
        <time>2021-10-28T10:52:06.000Z</time>
      </trkpt>
      <trkpt lat="39.193176" lon="-1.982510">
        <ele>653.987474</ele>
        <time>2021-10-28T10:52:08.000Z</time>
      </trkpt>
      <trkpt lat="39.193065" lon="-1.982346">
        <ele>653.853605</ele>
        <time>2021-10-28T10:52:11.000Z</time>
      </trkpt>
      <trkpt lat="39.193025" lon="-1.982295">
        <ele>653.808993</ele>
        <time>2021-10-28T10:52:12.000Z</time>
      </trkpt>
      <trkpt lat="39.192978" lon="-1.982252">
        <ele>653.834061</ele>
        <time>2021-10-28T10:52:13.000Z</time>
      </trkpt>
      <trkpt lat="39.192846" lon="-1.982149">
        <ele>653.925050</ele>
        <time>2021-10-28T10:52:16.000Z</time>
      </trkpt>
      <trkpt lat="39.192720" lon="-1.982062">
        <ele>654.009341</ele>
        <time>2021-10-28T10:52:19.000Z</time>
      </trkpt>
      <trkpt lat="39.192551" lon="-1.981936">
        <ele>654.124469</ele>
        <time>2021-10-28T10:52:23.000Z</time>
      </trkpt>
      <trkpt lat="39.192384" lon="-1.981812">
        <ele>654.238117</ele>
        <time>2021-10-28T10:52:27.000Z</time>
      </trkpt>
      <trkpt lat="39.192052" lon="-1.981515">
        <ele>654.476406</ele>
        <time>2021-10-28T10:52:35.000Z</time>
      </trkpt>
      <trkpt lat="39.191973" lon="-1.981433">
        <ele>654.536209</ele>
        <time>2021-10-28T10:52:37.000Z</time>
      </trkpt>
      <trkpt lat="39.191801" lon="-1.981253">
        <ele>654.666836</ele>
        <time>2021-10-28T10:52:41.000Z</time>
      </trkpt>
      <trkpt lat="39.191520" lon="-1.980886">
        <ele>654.936458</ele>
        <time>2021-10-28T10:52:48.000Z</time>
      </trkpt>
      <trkpt lat="39.191394" lon="-1.980696">
        <ele>655.152710</ele>
        <time>2021-10-28T10:52:51.000Z</time>
      </trkpt>
      <trkpt lat="39.191301" lon="-1.980578">
        <ele>655.298251</ele>
        <time>2021-10-28T10:52:53.000Z</time>
      </trkpt>
      <trkpt lat="39.191249" lon="-1.980527">
        <ele>655.371134</ele>
        <time>2021-10-28T10:52:54.000Z</time>
      </trkpt>
      <trkpt lat="39.191146" lon="-1.980434">
        <ele>655.511409</ele>
        <time>2021-10-28T10:52:56.000Z</time>
      </trkpt>
      <trkpt lat="39.190812" lon="-1.980102">
        <ele>655.981865</ele>
        <time>2021-10-28T10:53:03.000Z</time>
      </trkpt>
      <trkpt lat="39.190731" lon="-1.980008">
        <ele>656.103427</ele>
        <time>2021-10-28T10:53:05.000Z</time>
      </trkpt>
      <trkpt lat="39.190568" lon="-1.979842">
        <ele>656.335136</ele>
        <time>2021-10-28T10:53:09.000Z</time>
      </trkpt>
      <trkpt lat="39.190476" lon="-1.979775">
        <ele>656.453015</ele>
        <time>2021-10-28T10:53:11.000Z</time>
      </trkpt>
      <trkpt lat="39.190338" lon="-1.979676">
        <ele>656.629199</ele>
        <time>2021-10-28T10:53:14.000Z</time>
      </trkpt>
      <trkpt lat="39.190072" lon="-1.979459">
        <ele>656.790620</ele>
        <time>2021-10-28T10:53:20.000Z</time>
      </trkpt>
      <trkpt lat="39.189914" lon="-1.979401">
        <ele>656.653716</ele>
        <time>2021-10-28T10:53:23.000Z</time>
      </trkpt>
      <trkpt lat="39.189857" lon="-1.979385">
        <ele>656.605101</ele>
        <time>2021-10-28T10:53:24.000Z</time>
      </trkpt>
      <trkpt lat="39.189799" lon="-1.979365">
        <ele>656.555067</ele>
        <time>2021-10-28T10:53:25.000Z</time>
      </trkpt>
      <trkpt lat="39.189698" lon="-1.979313">
        <ele>656.464439</ele>
        <time>2021-10-28T10:53:27.000Z</time>
      </trkpt>
      <trkpt lat="39.189651" lon="-1.979274">
        <ele>656.417867</ele>
        <time>2021-10-28T10:53:28.000Z</time>
      </trkpt>
      <trkpt lat="39.189617" lon="-1.979220">
        <ele>656.372927</ele>
        <time>2021-10-28T10:53:29.000Z</time>
      </trkpt>
      <trkpt lat="39.189582" lon="-1.979081">
        <ele>656.278522</ele>
        <time>2021-10-28T10:53:31.000Z</time>
      </trkpt>
      <trkpt lat="39.189484" lon="-1.978728">
        <ele>656.036320</ele>
        <time>2021-10-28T10:53:36.000Z</time>
      </trkpt>
      <trkpt lat="39.189452" lon="-1.978660">
        <ele>655.984933</ele>
        <time>2021-10-28T10:53:37.000Z</time>
      </trkpt>
      <trkpt lat="39.189194" lon="-1.978198">
        <ele>655.617115</ele>
        <time>2021-10-28T10:53:44.000Z</time>
      </trkpt>
      <trkpt lat="39.189148" lon="-1.978143">
        <ele>655.564848</ele>
        <time>2021-10-28T10:53:45.000Z</time>
      </trkpt>
      <trkpt lat="39.188925" lon="-1.977864">
        <ele>655.378937</ele>
        <time>2021-10-28T10:53:50.000Z</time>
      </trkpt>
      <trkpt lat="39.188691" lon="-1.977434">
        <ele>655.410411</ele>
        <time>2021-10-28T10:53:57.000Z</time>
      </trkpt>
      <trkpt lat="39.188405" lon="-1.976841">
        <ele>655.452250</ele>
        <time>2021-10-28T10:54:06.000Z</time>
      </trkpt>
      <trkpt lat="39.188278" lon="-1.976510">
        <ele>655.474375</ele>
        <time>2021-10-28T10:54:11.000Z</time>
      </trkpt>
      <trkpt lat="39.188206" lon="-1.976391">
        <ele>655.483419</ele>
        <time>2021-10-28T10:54:13.000Z</time>
      </trkpt>
      <trkpt lat="39.188046" lon="-1.976173">
        <ele>655.501404</ele>
        <time>2021-10-28T10:54:17.000Z</time>
      </trkpt>
      <trkpt lat="39.187951" lon="-1.976086">
        <ele>655.510408</ele>
        <time>2021-10-28T10:54:19.000Z</time>
      </trkpt>
      <trkpt lat="39.187856" lon="-1.976000">
        <ele>655.517927</ele>
        <time>2021-10-28T10:54:21.000Z</time>
      </trkpt>
      <trkpt lat="39.187770" lon="-1.975900">
        <ele>655.525171</ele>
        <time>2021-10-28T10:54:23.000Z</time>
      </trkpt>
      <trkpt lat="39.187700" lon="-1.975785">
        <ele>655.532263</ele>
        <time>2021-10-28T10:54:25.000Z</time>
      </trkpt>
      <trkpt lat="39.187674" lon="-1.975721">
        <ele>655.535768</ele>
        <time>2021-10-28T10:54:26.000Z</time>
      </trkpt>
      <trkpt lat="39.187592" lon="-1.975444">
        <ele>655.550148</ele>
        <time>2021-10-28T10:54:30.000Z</time>
      </trkpt>
      <trkpt lat="39.187585" lon="-1.975370">
        <ele>655.553764</ele>
        <time>2021-10-28T10:54:31.000Z</time>
      </trkpt>
      <trkpt lat="39.187573" lon="-1.975150">
        <ele>655.564460</ele>
        <time>2021-10-28T10:54:34.000Z</time>
      </trkpt>
      <trkpt lat="39.187560" lon="-1.974902">
        <ele>655.576516</ele>
        <time>2021-10-28T10:54:37.000Z</time>
      </trkpt>
      <trkpt lat="39.187520" lon="-1.974744">
        <ele>655.584577</ele>
        <time>2021-10-28T10:54:39.000Z</time>
      </trkpt>
      <trkpt lat="39.187373" lon="-1.974485">
        <ele>655.600146</ele>
        <time>2021-10-28T10:54:43.000Z</time>
      </trkpt>
      <trkpt lat="39.187301" lon="-1.974358">
        <ele>655.607777</ele>
        <time>2021-10-28T10:54:45.000Z</time>
      </trkpt>
      <trkpt lat="39.187262" lon="-1.974214">
        <ele>655.615175</ele>
        <time>2021-10-28T10:54:47.000Z</time>
      </trkpt>
      <trkpt lat="39.187228" lon="-1.973871">
        <ele>655.579336</ele>
        <time>2021-10-28T10:54:52.000Z</time>
      </trkpt>
      <trkpt lat="39.187219" lon="-1.973704">
        <ele>655.531545</ele>
        <time>2021-10-28T10:54:55.000Z</time>
      </trkpt>
      <trkpt lat="39.187195" lon="-1.973594">
        <ele>655.498920</ele>
        <time>2021-10-28T10:54:57.000Z</time>
      </trkpt>
      <trkpt lat="39.187081" lon="-1.973236">
        <ele>655.388425</ele>
        <time>2021-10-28T10:55:02.000Z</time>
      </trkpt>
      <trkpt lat="39.187051" lon="-1.973160">
        <ele>655.364076</ele>
        <time>2021-10-28T10:55:03.000Z</time>
      </trkpt>
      <trkpt lat="39.186922" lon="-1.972775">
        <ele>655.244332</ele>
        <time>2021-10-28T10:55:08.000Z</time>
      </trkpt>
      <trkpt lat="39.186861" lon="-1.972634">
        <ele>655.198232</ele>
        <time>2021-10-28T10:55:10.000Z</time>
      </trkpt>
      <trkpt lat="39.186742" lon="-1.972368">
        <ele>655.110549</ele>
        <time>2021-10-28T10:55:14.000Z</time>
      </trkpt>
      <trkpt lat="39.186714" lon="-1.972300">
        <ele>655.088566</ele>
        <time>2021-10-28T10:55:15.000Z</time>
      </trkpt>
      <trkpt lat="39.186635" lon="-1.972092">
        <ele>655.022438</ele>
        <time>2021-10-28T10:55:18.000Z</time>
      </trkpt>
      <trkpt lat="39.186564" lon="-1.971880">
        <ele>654.957870</ele>
        <time>2021-10-28T10:55:21.000Z</time>
      </trkpt>
      <trkpt lat="39.186524" lon="-1.971735">
        <ele>654.925242</ele>
        <time>2021-10-28T10:55:23.000Z</time>
      </trkpt>
      <trkpt lat="39.186500" lon="-1.971666">
        <ele>654.909209</ele>
        <time>2021-10-28T10:55:24.000Z</time>
      </trkpt>
      <trkpt lat="39.186428" lon="-1.971548">
        <ele>654.877373</ele>
        <time>2021-10-28T10:55:26.000Z</time>
      </trkpt>
      <trkpt lat="39.186385" lon="-1.971500">
        <ele>654.861821</ele>
        <time>2021-10-28T10:55:27.000Z</time>
      </trkpt>
      <trkpt lat="39.186284" lon="-1.971406">
        <ele>654.827759</ele>
        <time>2021-10-28T10:55:29.000Z</time>
      </trkpt>
      <trkpt lat="39.186161" lon="-1.971345">
        <ele>654.791718</ele>
        <time>2021-10-28T10:55:31.000Z</time>
      </trkpt>
      <trkpt lat="39.185973" lon="-1.971264">
        <ele>654.737507</ele>
        <time>2021-10-28T10:55:34.000Z</time>
      </trkpt>
      <trkpt lat="39.185923" lon="-1.971222">
        <ele>654.721188</ele>
        <time>2021-10-28T10:55:35.000Z</time>
      </trkpt>
      <trkpt lat="39.185886" lon="-1.971173">
        <ele>654.706686</ele>
        <time>2021-10-28T10:55:36.000Z</time>
      </trkpt>
      <trkpt lat="39.185815" lon="-1.970919">
        <ele>654.649444</ele>
        <time>2021-10-28T10:55:40.000Z</time>
      </trkpt>
      <trkpt lat="39.185753" lon="-1.970668">
        <ele>654.593597</ele>
        <time>2021-10-28T10:55:44.000Z</time>
      </trkpt>
      <trkpt lat="39.185697" lon="-1.970553">
        <ele>654.564805</ele>
        <time>2021-10-28T10:55:46.000Z</time>
      </trkpt>
      <trkpt lat="39.185423" lon="-1.970090">
        <ele>654.529734</ele>
        <time>2021-10-28T10:55:54.000Z</time>
      </trkpt>
      <trkpt lat="39.185150" lon="-1.969729">
        <ele>654.753942</ele>
        <time>2021-10-28T10:56:00.000Z</time>
      </trkpt>
      <trkpt lat="39.185102" lon="-1.969667">
        <ele>654.792898</ele>
        <time>2021-10-28T10:56:01.000Z</time>
      </trkpt>
      <trkpt lat="39.184862" lon="-1.969349">
        <ele>654.990207</ele>
        <time>2021-10-28T10:56:06.000Z</time>
      </trkpt>
      <trkpt lat="39.184814" lon="-1.969285">
        <ele>655.029797</ele>
        <time>2021-10-28T10:56:07.000Z</time>
      </trkpt>
      <trkpt lat="39.184724" lon="-1.969153">
        <ele>655.107949</ele>
        <time>2021-10-28T10:56:09.000Z</time>
      </trkpt>
      <trkpt lat="39.184558" lon="-1.968874">
        <ele>655.264305</ele>
        <time>2021-10-28T10:56:13.000Z</time>
      </trkpt>
      <trkpt lat="39.184518" lon="-1.968804">
        <ele>655.302966</ele>
        <time>2021-10-28T10:56:14.000Z</time>
      </trkpt>
      <trkpt lat="39.184479" lon="-1.968735">
        <ele>655.340929</ele>
        <time>2021-10-28T10:56:15.000Z</time>
      </trkpt>
      <trkpt lat="39.184391" lon="-1.968605">
        <ele>655.417657</ele>
        <time>2021-10-28T10:56:17.000Z</time>
      </trkpt>
      <trkpt lat="39.184246" lon="-1.968426">
        <ele>655.418942</ele>
        <time>2021-10-28T10:56:20.000Z</time>
      </trkpt>
      <trkpt lat="39.183810" lon="-1.967899">
        <ele>654.516433</ele>
        <time>2021-10-28T10:56:29.000Z</time>
      </trkpt>
      <trkpt lat="39.183505" lon="-1.967566">
        <ele>653.912866</ele>
        <time>2021-10-28T10:56:35.000Z</time>
      </trkpt>
      <trkpt lat="39.183453" lon="-1.967516">
        <ele>653.814898</ele>
        <time>2021-10-28T10:56:36.000Z</time>
      </trkpt>
      <trkpt lat="39.183404" lon="-1.967464">
        <ele>653.719056</ele>
        <time>2021-10-28T10:56:37.000Z</time>
      </trkpt>
      <trkpt lat="39.183312" lon="-1.967353">
        <ele>653.528779</ele>
        <time>2021-10-28T10:56:39.000Z</time>
      </trkpt>
      <trkpt lat="39.183237" lon="-1.967228">
        <ele>653.343692</ele>
        <time>2021-10-28T10:56:41.000Z</time>
      </trkpt>
      <trkpt lat="39.183205" lon="-1.967157">
        <ele>653.247527</ele>
        <time>2021-10-28T10:56:42.000Z</time>
      </trkpt>
      <trkpt lat="39.183175" lon="-1.967082">
        <ele>653.148707</ele>
        <time>2021-10-28T10:56:43.000Z</time>
      </trkpt>
      <trkpt lat="39.183008" lon="-1.966709">
        <ele>652.798840</ele>
        <time>2021-10-28T10:56:48.000Z</time>
      </trkpt>
      <trkpt lat="39.182903" lon="-1.966610">
        <ele>652.819018</ele>
        <time>2021-10-28T10:56:50.000Z</time>
      </trkpt>
      <trkpt lat="39.182849" lon="-1.966576">
        <ele>652.828341</ele>
        <time>2021-10-28T10:56:51.000Z</time>
      </trkpt>
      <trkpt lat="39.182695" lon="-1.966466">
        <ele>652.855652</ele>
        <time>2021-10-28T10:56:54.000Z</time>
      </trkpt>
      <trkpt lat="39.182536" lon="-1.966339">
        <ele>652.884666</ele>
        <time>2021-10-28T10:56:57.000Z</time>
      </trkpt>
      <trkpt lat="39.182266" lon="-1.966024">
        <ele>652.941146</ele>
        <time>2021-10-28T10:57:03.000Z</time>
      </trkpt>
      <trkpt lat="39.181910" lon="-1.965600">
        <ele>653.016320</ele>
        <time>2021-10-28T10:57:11.000Z</time>
      </trkpt>
      <trkpt lat="39.181525" lon="-1.965099">
        <ele>653.833925</ele>
        <time>2021-10-28T10:57:20.000Z</time>
      </trkpt>
      <trkpt lat="39.181322" lon="-1.964825">
        <ele>654.766649</ele>
        <time>2021-10-28T10:57:25.000Z</time>
      </trkpt>
      <trkpt lat="39.181195" lon="-1.964666">
        <ele>655.328482</ele>
        <time>2021-10-28T10:57:28.000Z</time>
      </trkpt>
      <trkpt lat="39.181038" lon="-1.964401">
        <ele>656.149274</ele>
        <time>2021-10-28T10:57:33.000Z</time>
      </trkpt>
      <trkpt lat="39.181026" lon="-1.964345">
        <ele>656.292252</ele>
        <time>2021-10-28T10:57:34.000Z</time>
      </trkpt>
      <trkpt lat="39.181022" lon="-1.964291">
        <ele>656.425744</ele>
        <time>2021-10-28T10:57:35.000Z</time>
      </trkpt>
      <trkpt lat="39.181021" lon="-1.964150">
        <ele>656.772741</ele>
        <time>2021-10-28T10:57:38.000Z</time>
      </trkpt>
      <trkpt lat="39.180988" lon="-1.964070">
        <ele>656.995750</ele>
        <time>2021-10-28T10:57:40.000Z</time>
      </trkpt>
      <trkpt lat="39.180932" lon="-1.964008">
        <ele>657.230027</ele>
        <time>2021-10-28T10:57:42.000Z</time>
      </trkpt>
      <trkpt lat="39.180903" lon="-1.963978">
        <ele>657.348037</ele>
        <time>2021-10-28T10:57:43.000Z</time>
      </trkpt>
      <trkpt lat="39.180804" lon="-1.963855">
        <ele>657.784386</ele>
        <time>2021-10-28T10:57:47.000Z</time>
      </trkpt>
      <trkpt lat="39.180790" lon="-1.963812">
        <ele>657.899158</ele>
        <time>2021-10-28T10:57:48.000Z</time>
      </trkpt>
      <trkpt lat="39.180698" lon="-1.963601">
        <ele>658.494911</ele>
        <time>2021-10-28T10:57:53.000Z</time>
      </trkpt>
      <trkpt lat="39.180670" lon="-1.963562">
        <ele>658.625726</ele>
        <time>2021-10-28T10:57:54.000Z</time>
      </trkpt>
      <trkpt lat="39.180477" lon="-1.963355">
        <ele>659.018454</ele>
        <time>2021-10-28T10:58:00.000Z</time>
      </trkpt>
      <trkpt lat="39.180408" lon="-1.963282">
        <ele>659.125336</ele>
        <time>2021-10-28T10:58:02.000Z</time>
      </trkpt>
      <trkpt lat="39.180097" lon="-1.962957">
        <ele>659.604717</ele>
        <time>2021-10-28T10:58:10.000Z</time>
      </trkpt>
      <trkpt lat="39.179769" lon="-1.962614">
        <ele>660.110440</ele>
        <time>2021-10-28T10:58:18.000Z</time>
      </trkpt>
      <trkpt lat="39.179315" lon="-1.962167">
        <ele>660.794498</ele>
        <time>2021-10-28T10:58:28.000Z</time>
      </trkpt>
      <trkpt lat="39.179036" lon="-1.961906">
        <ele>661.018797</ele>
        <time>2021-10-28T10:58:34.000Z</time>
      </trkpt>
      <trkpt lat="39.178947" lon="-1.961825">
        <ele>661.061225</ele>
        <time>2021-10-28T10:58:37.000Z</time>
      </trkpt>
      <trkpt lat="39.178932" lon="-1.961804">
        <ele>661.069847</ele>
        <time>2021-10-28T10:58:38.000Z</time>
      </trkpt>
      <trkpt lat="39.178923" lon="-1.961780">
        <ele>661.077898</ele>
        <time>2021-10-28T10:58:39.000Z</time>
      </trkpt>
      <trkpt lat="39.178917" lon="-1.961656">
        <ele>661.115413</ele>
        <time>2021-10-28T10:58:43.000Z</time>
      </trkpt>
      <trkpt lat="39.178982" lon="-1.961493">
        <ele>661.170762</ele>
        <time>2021-10-28T10:58:47.000Z</time>
      </trkpt>
      <trkpt lat="39.179077" lon="-1.961247">
        <ele>661.253749</ele>
        <time>2021-10-28T10:58:52.000Z</time>
      </trkpt>
      <trkpt lat="39.179131" lon="-1.961163">
        <ele>661.286700</ele>
        <time>2021-10-28T10:58:54.000Z</time>
      </trkpt>
      <trkpt lat="39.179350" lon="-1.960963">
        <ele>661.391219</ele>
        <time>2021-10-28T10:59:00.000Z</time>
      </trkpt>
      <trkpt lat="39.179482" lon="-1.960869">
        <ele>661.449951</ele>
        <time>2021-10-28T10:59:03.000Z</time>
      </trkpt>
      <trkpt lat="39.179664" lon="-1.960733">
        <ele>661.531880</ele>
        <time>2021-10-28T10:59:07.000Z</time>
      </trkpt>
      <trkpt lat="39.179971" lon="-1.960532">
        <ele>661.506704</ele>
        <time>2021-10-28T10:59:14.000Z</time>
      </trkpt>
      <trkpt lat="39.180011" lon="-1.960507">
        <ele>661.450300</ele>
        <time>2021-10-28T10:59:15.000Z</time>
      </trkpt>
      <trkpt lat="39.180187" lon="-1.960383">
        <ele>661.195814</ele>
        <time>2021-10-28T10:59:20.000Z</time>
      </trkpt>
      <trkpt lat="39.180218" lon="-1.960360">
        <ele>661.150432</ele>
        <time>2021-10-28T10:59:21.000Z</time>
      </trkpt>
      <trkpt lat="39.180311" lon="-1.960295">
        <ele>661.016206</ele>
        <time>2021-10-28T10:59:24.000Z</time>
      </trkpt>
      <trkpt lat="39.180421" lon="-1.960221">
        <ele>660.858773</ele>
        <time>2021-10-28T10:59:28.000Z</time>
      </trkpt>
      <trkpt lat="39.180481" lon="-1.960191">
        <ele>660.777113</ele>
        <time>2021-10-28T10:59:33.000Z</time>
      </trkpt>
      <trkpt lat="39.180480" lon="-1.960191">
        <ele>660.775844</ele>
        <time>2021-10-28T10:59:34.000Z</time>
      </trkpt>
      <trkpt lat="39.180477" lon="-1.960187">
        <ele>660.770369</ele>
        <time>2021-10-28T10:59:40.000Z</time>
      </trkpt>
      <trkpt lat="39.180477" lon="-1.960187">
        <ele>660.770369</ele>
        <time>2021-10-28T10:59:43.000Z</time>
      </trkpt>
      <trkpt lat="39.180477" lon="-1.960187">
        <ele>660.770369</ele>
        <time>2021-10-28T10:59:46.000Z</time>
      </trkpt>
      <trkpt lat="39.180477" lon="-1.960188">
        <ele>660.769385</ele>
        <time>2021-10-28T10:59:47.000Z</time>
      </trkpt>
      <trkpt lat="39.180477" lon="-1.960187">
        <ele>660.768402</ele>
        <time>2021-10-28T10:59:48.000Z</time>
      </trkpt>
      <trkpt lat="39.180477" lon="-1.960188">
        <ele>660.767418</ele>
        <time>2021-10-28T10:59:51.000Z</time>
      </trkpt>
      <trkpt lat="39.180476" lon="-1.960186">
        <ele>660.765077</ele>
        <time>2021-10-28T10:59:56.000Z</time>
      </trkpt>
      <trkpt lat="39.180473" lon="-1.960190">
        <ele>660.759602</ele>
        <time>2021-10-28T11:00:03.000Z</time>
      </trkpt>
      <trkpt lat="39.180469" lon="-1.960190">
        <ele>660.754526</ele>
        <time>2021-10-28T11:00:10.000Z</time>
      </trkpt>
      <trkpt lat="39.180485" lon="-1.960186">
        <ele>660.733844</ele>
        <time>2021-10-28T11:00:13.000Z</time>
      </trkpt>
      <trkpt lat="39.180508" lon="-1.960165">
        <ele>660.698086</ele>
        <time>2021-10-28T11:00:15.000Z</time>
      </trkpt>
      <trkpt lat="39.180526" lon="-1.960114">
        <ele>660.642962</ele>
        <time>2021-10-28T11:00:17.000Z</time>
      </trkpt>
      <trkpt lat="39.180512" lon="-1.960087">
        <ele>660.611008</ele>
        <time>2021-10-28T11:00:18.000Z</time>
      </trkpt>
      <trkpt lat="39.180414" lon="-1.960111">
        <ele>660.484423</ele>
        <time>2021-10-28T11:00:21.000Z</time>
      </trkpt>
      <trkpt lat="39.180133" lon="-1.960251">
        <ele>660.102158</ele>
        <time>2021-10-28T11:00:27.000Z</time>
      </trkpt>
      <trkpt lat="39.180080" lon="-1.960274">
        <ele>660.031197</ele>
        <time>2021-10-28T11:00:28.000Z</time>
      </trkpt>
      <trkpt lat="39.180027" lon="-1.960299">
        <ele>659.959583</ele>
        <time>2021-10-28T11:00:29.000Z</time>
      </trkpt>
      <trkpt lat="39.179973" lon="-1.960327">
        <ele>659.885728</ele>
        <time>2021-10-28T11:00:30.000Z</time>
      </trkpt>
      <trkpt lat="39.179920" lon="-1.960356">
        <ele>659.812670</ele>
        <time>2021-10-28T11:00:31.000Z</time>
      </trkpt>
      <trkpt lat="39.179755" lon="-1.960452">
        <ele>659.582971</ele>
        <time>2021-10-28T11:00:34.000Z</time>
      </trkpt>
      <trkpt lat="39.179699" lon="-1.960486">
        <ele>659.504429</ele>
        <time>2021-10-28T11:00:35.000Z</time>
      </trkpt>
      <trkpt lat="39.179419" lon="-1.960688">
        <ele>658.967730</ele>
        <time>2021-10-28T11:00:40.000Z</time>
      </trkpt>
      <trkpt lat="39.179311" lon="-1.960782">
        <ele>658.716269</ele>
        <time>2021-10-28T11:00:42.000Z</time>
      </trkpt>
      <trkpt lat="39.179208" lon="-1.960885">
        <ele>658.464731</ele>
        <time>2021-10-28T11:00:44.000Z</time>
      </trkpt>
      <trkpt lat="39.179010" lon="-1.961113">
        <ele>657.952462</ele>
        <time>2021-10-28T11:00:48.000Z</time>
      </trkpt>
      <trkpt lat="39.178963" lon="-1.961176">
        <ele>657.821640</ele>
        <time>2021-10-28T11:00:49.000Z</time>
      </trkpt>
      <trkpt lat="39.178781" lon="-1.961443">
        <ele>657.289676</ele>
        <time>2021-10-28T11:00:53.000Z</time>
      </trkpt>
      <trkpt lat="39.178737" lon="-1.961512">
        <ele>657.155996</ele>
        <time>2021-10-28T11:00:54.000Z</time>
      </trkpt>
      <trkpt lat="39.178654" lon="-1.961659">
        <ele>656.883897</ele>
        <time>2021-10-28T11:00:56.000Z</time>
      </trkpt>
      <trkpt lat="39.178615" lon="-1.961737">
        <ele>656.745023</ele>
        <time>2021-10-28T11:00:57.000Z</time>
      </trkpt>
      <trkpt lat="39.178503" lon="-1.961979">
        <ele>656.323321</ele>
        <time>2021-10-28T11:01:00.000Z</time>
      </trkpt>
      <trkpt lat="39.178343" lon="-1.962405">
        <ele>655.931077</ele>
        <time>2021-10-28T11:01:05.000Z</time>
      </trkpt>
      <trkpt lat="39.178284" lon="-1.962576">
        <ele>655.992210</ele>
        <time>2021-10-28T11:01:07.000Z</time>
      </trkpt>
      <trkpt lat="39.178055" lon="-1.963242">
        <ele>656.230175</ele>
        <time>2021-10-28T11:01:15.000Z</time>
      </trkpt>
      <trkpt lat="39.177843" lon="-1.963905">
        <ele>656.464421</ele>
        <time>2021-10-28T11:01:23.000Z</time>
      </trkpt>
      <trkpt lat="39.177814" lon="-1.963984">
        <ele>656.492971</ele>
        <time>2021-10-28T11:01:24.000Z</time>
      </trkpt>
      <trkpt lat="39.177787" lon="-1.964064">
        <ele>656.521469</ele>
        <time>2021-10-28T11:01:25.000Z</time>
      </trkpt>
      <trkpt lat="39.177680" lon="-1.964379">
        <ele>656.636828</ele>
        <time>2021-10-28T11:01:29.000Z</time>
      </trkpt>
      <trkpt lat="39.177600" lon="-1.964606">
        <ele>656.882112</ele>
        <time>2021-10-28T11:01:32.000Z</time>
      </trkpt>
      <trkpt lat="39.177471" lon="-1.964898">
        <ele>657.212711</ele>
        <time>2021-10-28T11:01:36.000Z</time>
      </trkpt>
      <trkpt lat="39.177359" lon="-1.965111">
        <ele>657.465885</ele>
        <time>2021-10-28T11:01:39.000Z</time>
      </trkpt>
      <trkpt lat="39.177318" lon="-1.965178">
        <ele>657.549851</ele>
        <time>2021-10-28T11:01:40.000Z</time>
      </trkpt>
      <trkpt lat="39.176936" lon="-1.965652">
        <ele>658.222429</ele>
        <time>2021-10-28T11:01:48.000Z</time>
      </trkpt>
      <trkpt lat="39.176717" lon="-1.965835">
        <ele>658.553533</ele>
        <time>2021-10-28T11:01:52.000Z</time>
      </trkpt>
      <trkpt lat="39.176549" lon="-1.965948">
        <ele>658.793952</ele>
        <time>2021-10-28T11:01:55.000Z</time>
      </trkpt>
      <trkpt lat="39.176440" lon="-1.966017">
        <ele>658.911702</ele>
        <time>2021-10-28T11:01:57.000Z</time>
      </trkpt>
      <trkpt lat="39.176256" lon="-1.966133">
        <ele>658.888822</ele>
        <time>2021-10-28T11:02:00.000Z</time>
      </trkpt>
      <trkpt lat="39.176256" lon="-1.966133">
        <ele>658.888822</ele>
        <time>2021-10-28T11:02:01.000Z</time>
      </trkpt>
      <trkpt lat="39.176104" lon="-1.966226">
        <ele>658.870027</ele>
        <time>2021-10-28T11:02:06.000Z</time>
      </trkpt>
      <trkpt lat="39.176086" lon="-1.966250">
        <ele>658.867135</ele>
        <time>2021-10-28T11:02:07.000Z</time>
      </trkpt>
      <trkpt lat="39.176058" lon="-1.966300">
        <ele>658.861793</ele>
        <time>2021-10-28T11:02:09.000Z</time>
      </trkpt>
      <trkpt lat="39.176041" lon="-1.966303">
        <ele>658.859876</ele>
        <time>2021-10-28T11:02:10.000Z</time>
      </trkpt>
      <trkpt lat="39.176022" lon="-1.966267">
        <ele>658.856104</ele>
        <time>2021-10-28T11:02:12.000Z</time>
      </trkpt>
      <trkpt lat="39.176008" lon="-1.966191">
        <ele>658.849338</ele>
        <time>2021-10-28T11:02:14.000Z</time>
      </trkpt>
      <trkpt lat="39.175976" lon="-1.966091">
        <ele>658.839969</ele>
        <time>2021-10-28T11:02:16.000Z</time>
      </trkpt>
      <trkpt lat="39.175923" lon="-1.965984">
        <ele>658.828972</ele>
        <time>2021-10-28T11:02:18.000Z</time>
      </trkpt>
      <trkpt lat="39.175703" lon="-1.965568">
        <ele>658.785358</ele>
        <time>2021-10-28T11:02:25.000Z</time>
      </trkpt>
      <trkpt lat="39.175668" lon="-1.965506">
        <ele>658.778716</ele>
        <time>2021-10-28T11:02:26.000Z</time>
      </trkpt>
      <trkpt lat="39.175590" lon="-1.965375">
        <ele>658.764410</ele>
        <time>2021-10-28T11:02:28.000Z</time>
      </trkpt>
      <trkpt lat="39.175476" lon="-1.965152">
        <ele>658.741275</ele>
        <time>2021-10-28T11:02:31.000Z</time>
      </trkpt>
      <trkpt lat="39.175273" lon="-1.964633">
        <ele>658.361753</ele>
        <time>2021-10-28T11:02:38.000Z</time>
      </trkpt>
      <trkpt lat="39.175156" lon="-1.964288">
        <ele>657.857599</ele>
        <time>2021-10-28T11:02:42.000Z</time>
      </trkpt>
      <trkpt lat="39.175098" lon="-1.964116">
        <ele>657.606481</ele>
        <time>2021-10-28T11:02:44.000Z</time>
      </trkpt>
      <trkpt lat="39.175040" lon="-1.963948">
        <ele>657.360264</ele>
        <time>2021-10-28T11:02:46.000Z</time>
      </trkpt>
      <trkpt lat="39.174994" lon="-1.963687">
        <ele>657.001917</ele>
        <time>2021-10-28T11:02:49.000Z</time>
      </trkpt>
      <trkpt lat="39.174848" lon="-1.962997">
        <ele>656.044340</ele>
        <time>2021-10-28T11:02:57.000Z</time>
      </trkpt>
      <trkpt lat="39.174792" lon="-1.962834">
        <ele>655.805642</ele>
        <time>2021-10-28T11:02:59.000Z</time>
      </trkpt>
      <trkpt lat="39.174724" lon="-1.962717">
        <ele>655.609866</ele>
        <time>2021-10-28T11:03:01.000Z</time>
      </trkpt>
      <trkpt lat="39.174671" lon="-1.962603">
        <ele>655.311940</ele>
        <time>2021-10-28T11:03:03.000Z</time>
      </trkpt>
      <trkpt lat="39.174619" lon="-1.962472">
        <ele>654.980230</ele>
        <time>2021-10-28T11:03:05.000Z</time>
      </trkpt>
      <trkpt lat="39.174491" lon="-1.962290">
        <ele>654.426375</ele>
        <time>2021-10-28T11:03:08.000Z</time>
      </trkpt>
      <trkpt lat="39.174461" lon="-1.962151">
        <ele>654.101174</ele>
        <time>2021-10-28T11:03:10.000Z</time>
      </trkpt>
      <trkpt lat="39.174468" lon="-1.962080">
        <ele>653.939861</ele>
        <time>2021-10-28T11:03:11.000Z</time>
      </trkpt>
      <trkpt lat="39.174501" lon="-1.961862">
        <ele>653.439241</ele>
        <time>2021-10-28T11:03:14.000Z</time>
      </trkpt>
      <trkpt lat="39.174509" lon="-1.961791">
        <ele>653.277535</ele>
        <time>2021-10-28T11:03:15.000Z</time>
      </trkpt>
      <trkpt lat="39.174503" lon="-1.961647">
        <ele>652.952512</ele>
        <time>2021-10-28T11:03:17.000Z</time>
      </trkpt>
      <trkpt lat="39.174494" lon="-1.961569">
        <ele>652.774774</ele>
        <time>2021-10-28T11:03:18.000Z</time>
      </trkpt>
      <trkpt lat="39.174461" lon="-1.961406">
        <ele>652.395074</ele>
        <time>2021-10-28T11:03:20.000Z</time>
      </trkpt>
      <trkpt lat="39.174406" lon="-1.961251">
        <ele>652.010869</ele>
        <time>2021-10-28T11:03:22.000Z</time>
      </trkpt>
      <trkpt lat="39.174373" lon="-1.961175">
        <ele>651.814536</ele>
        <time>2021-10-28T11:03:23.000Z</time>
      </trkpt>
      <trkpt lat="39.174340" lon="-1.961101">
        <ele>651.622124</ele>
        <time>2021-10-28T11:03:24.000Z</time>
      </trkpt>
      <trkpt lat="39.174237" lon="-1.960904">
        <ele>651.086567</ele>
        <time>2021-10-28T11:03:27.000Z</time>
      </trkpt>
      <trkpt lat="39.174206" lon="-1.960838">
        <ele>650.912638</ele>
        <time>2021-10-28T11:03:28.000Z</time>
      </trkpt>
      <trkpt lat="39.174139" lon="-1.960720">
        <ele>650.582976</ele>
        <time>2021-10-28T11:03:30.000Z</time>
      </trkpt>
      <trkpt lat="39.174106" lon="-1.960663">
        <ele>650.422634</ele>
        <time>2021-10-28T11:03:31.000Z</time>
      </trkpt>
      <trkpt lat="39.174042" lon="-1.960546">
        <ele>650.380223</ele>
        <time>2021-10-28T11:03:33.000Z</time>
      </trkpt>
      <trkpt lat="39.174010" lon="-1.960483">
        <ele>650.381507</ele>
        <time>2021-10-28T11:03:34.000Z</time>
      </trkpt>
      <trkpt lat="39.173940" lon="-1.960370">
        <ele>650.383973</ele>
        <time>2021-10-28T11:03:36.000Z</time>
      </trkpt>
      <trkpt lat="39.173831" lon="-1.960234">
        <ele>650.387309</ele>
        <time>2021-10-28T11:03:39.000Z</time>
      </trkpt>
      <trkpt lat="39.173765" lon="-1.960158">
        <ele>650.389255</ele>
        <time>2021-10-28T11:03:41.000Z</time>
      </trkpt>
      <trkpt lat="39.173671" lon="-1.959997">
        <ele>650.392692</ele>
        <time>2021-10-28T11:03:44.000Z</time>
      </trkpt>
      <trkpt lat="39.173535" lon="-1.959824">
        <ele>650.396893</ele>
        <time>2021-10-28T11:03:48.000Z</time>
      </trkpt>
      <trkpt lat="39.173507" lon="-1.959776">
        <ele>650.397917</ele>
        <time>2021-10-28T11:03:49.000Z</time>
      </trkpt>
      <trkpt lat="39.173335" lon="-1.959448">
        <ele>650.404670</ele>
        <time>2021-10-28T11:03:55.000Z</time>
      </trkpt>
      <trkpt lat="39.173162" lon="-1.959035">
        <ele>650.412674</ele>
        <time>2021-10-28T11:04:01.000Z</time>
      </trkpt>
      <trkpt lat="39.173001" lon="-1.958644">
        <ele>650.338690</ele>
        <time>2021-10-28T11:04:07.000Z</time>
      </trkpt>
      <trkpt lat="39.172902" lon="-1.958441">
        <ele>650.211707</ele>
        <time>2021-10-28T11:04:10.000Z</time>
      </trkpt>
      <trkpt lat="39.172830" lon="-1.958243">
        <ele>650.095911</ele>
        <time>2021-10-28T11:04:13.000Z</time>
      </trkpt>
      <trkpt lat="39.172781" lon="-1.958095">
        <ele>650.010701</ele>
        <time>2021-10-28T11:04:15.000Z</time>
      </trkpt>
      <trkpt lat="39.172690" lon="-1.957817">
        <ele>649.850922</ele>
        <time>2021-10-28T11:04:19.000Z</time>
      </trkpt>
      <trkpt lat="39.172601" lon="-1.957627">
        <ele>649.733383</ele>
        <time>2021-10-28T11:04:22.000Z</time>
      </trkpt>
      <trkpt lat="39.172565" lon="-1.957494">
        <ele>649.658794</ele>
        <time>2021-10-28T11:04:24.000Z</time>
      </trkpt>
      <trkpt lat="39.172485" lon="-1.957119">
        <ele>649.452858</ele>
        <time>2021-10-28T11:04:29.000Z</time>
      </trkpt>
      <trkpt lat="39.172444" lon="-1.956682">
        <ele>649.219787</ele>
        <time>2021-10-28T11:04:35.000Z</time>
      </trkpt>
      <trkpt lat="39.172440" lon="-1.956610">
        <ele>649.191451</ele>
        <time>2021-10-28T11:04:36.000Z</time>
      </trkpt>
      <trkpt lat="39.172406" lon="-1.956304">
        <ele>649.238616</ele>
        <time>2021-10-28T11:04:41.000Z</time>
      </trkpt>
      <trkpt lat="39.172408" lon="-1.956247">
        <ele>649.247322</ele>
        <time>2021-10-28T11:04:42.000Z</time>
      </trkpt>
      <trkpt lat="39.172419" lon="-1.956189">
        <ele>649.256432</ele>
        <time>2021-10-28T11:04:43.000Z</time>
      </trkpt>
      <trkpt lat="39.172468" lon="-1.956012">
        <ele>649.285109</ele>
        <time>2021-10-28T11:04:46.000Z</time>
      </trkpt>
      <trkpt lat="39.172484" lon="-1.955954">
        <ele>649.294502</ele>
        <time>2021-10-28T11:04:47.000Z</time>
      </trkpt>
      <trkpt lat="39.172501" lon="-1.955832">
        <ele>649.313414</ele>
        <time>2021-10-28T11:04:49.000Z</time>
      </trkpt>
      <trkpt lat="39.172497" lon="-1.955771">
        <ele>649.322755</ele>
        <time>2021-10-28T11:04:50.000Z</time>
      </trkpt>
      <trkpt lat="39.172454" lon="-1.955444">
        <ele>649.373360</ele>
        <time>2021-10-28T11:04:55.000Z</time>
      </trkpt>
      <trkpt lat="39.172456" lon="-1.955383">
        <ele>649.382676</ele>
        <time>2021-10-28T11:04:56.000Z</time>
      </trkpt>
      <trkpt lat="39.172461" lon="-1.955149">
        <ele>649.418392</ele>
        <time>2021-10-28T11:05:00.000Z</time>
      </trkpt>
      <trkpt lat="39.172334" lon="-1.954413">
        <ele>649.533437</ele>
        <time>2021-10-28T11:05:42.000Z</time>
      </trkpt>
      <trkpt lat="39.172319" lon="-1.954329">
        <ele>649.549223</ele>
        <time>2021-10-28T11:05:44.000Z</time>
      </trkpt>
      <trkpt lat="39.172322" lon="-1.954277">
        <ele>649.563420</ele>
        <time>2021-10-28T11:05:45.000Z</time>
      </trkpt>
      <trkpt lat="39.172345" lon="-1.953900">
        <ele>649.666379</ele>
        <time>2021-10-28T11:05:51.000Z</time>
      </trkpt>
      <trkpt lat="39.172355" lon="-1.953834">
        <ele>649.684688</ele>
        <time>2021-10-28T11:05:52.000Z</time>
      </trkpt>
      <trkpt lat="39.172447" lon="-1.953231">
        <ele>649.852009</ele>
        <time>2021-10-28T11:06:01.000Z</time>
      </trkpt>
      <trkpt lat="39.172523" lon="-1.952914">
        <ele>649.942348</ele>
        <time>2021-10-28T11:06:06.000Z</time>
      </trkpt>
      <trkpt lat="39.172535" lon="-1.952856">
        <ele>649.958692</ele>
        <time>2021-10-28T11:06:07.000Z</time>
      </trkpt>
      <trkpt lat="39.172561" lon="-1.952676">
        <ele>650.008542</ele>
        <time>2021-10-28T11:06:10.000Z</time>
      </trkpt>
      <trkpt lat="39.172571" lon="-1.952558">
        <ele>650.040860</ele>
        <time>2021-10-28T11:06:12.000Z</time>
      </trkpt>
      <trkpt lat="39.172556" lon="-1.952362">
        <ele>650.094482</ele>
        <time>2021-10-28T11:06:15.000Z</time>
      </trkpt>
      <trkpt lat="39.172562" lon="-1.952240">
        <ele>650.127764</ele>
        <time>2021-10-28T11:06:17.000Z</time>
      </trkpt>
      <trkpt lat="39.172586" lon="-1.952050">
        <ele>650.175172</ele>
        <time>2021-10-28T11:06:20.000Z</time>
      </trkpt>
      <trkpt lat="39.172609" lon="-1.951999">
        <ele>650.176011</ele>
        <time>2021-10-28T11:06:21.000Z</time>
      </trkpt>
      <trkpt lat="39.172664" lon="-1.951889">
        <ele>650.177873</ele>
        <time>2021-10-28T11:06:23.000Z</time>
      </trkpt>
      <trkpt lat="39.172731" lon="-1.951702">
        <ele>650.180803</ele>
        <time>2021-10-28T11:06:26.000Z</time>
      </trkpt>
      <trkpt lat="39.172770" lon="-1.951566">
        <ele>650.182865</ele>
        <time>2021-10-28T11:06:28.000Z</time>
      </trkpt>
      <trkpt lat="39.172798" lon="-1.951371">
        <ele>650.185686</ele>
        <time>2021-10-28T11:06:31.000Z</time>
      </trkpt>
      <trkpt lat="39.172849" lon="-1.951206">
        <ele>650.188213</ele>
        <time>2021-10-28T11:06:34.000Z</time>
      </trkpt>
      <trkpt lat="39.172901" lon="-1.951034">
        <ele>650.190839</ele>
        <time>2021-10-28T11:06:37.000Z</time>
      </trkpt>
      <trkpt lat="39.172980" lon="-1.950715">
        <ele>650.195602</ele>
        <time>2021-10-28T11:06:42.000Z</time>
      </trkpt>
      <trkpt lat="39.173009" lon="-1.950518">
        <ele>650.198454</ele>
        <time>2021-10-28T11:06:45.000Z</time>
      </trkpt>
      <trkpt lat="39.173011" lon="-1.950385">
        <ele>650.200346</ele>
        <time>2021-10-28T11:06:47.000Z</time>
      </trkpt>
      <trkpt lat="39.173023" lon="-1.950258">
        <ele>650.202166</ele>
        <time>2021-10-28T11:06:49.000Z</time>
      </trkpt>
      <trkpt lat="39.173061" lon="-1.950147">
        <ele>650.203892</ele>
        <time>2021-10-28T11:06:51.000Z</time>
      </trkpt>
      <trkpt lat="39.173104" lon="-1.950032">
        <ele>650.205708</ele>
        <time>2021-10-28T11:06:53.000Z</time>
      </trkpt>
      <trkpt lat="39.173130" lon="-1.949902">
        <ele>650.207617</ele>
        <time>2021-10-28T11:06:55.000Z</time>
      </trkpt>
      <trkpt lat="39.173122" lon="-1.949706">
        <ele>650.322664</ele>
        <time>2021-10-28T11:06:58.000Z</time>
      </trkpt>
      <trkpt lat="39.173130" lon="-1.949640">
        <ele>650.366059</ele>
        <time>2021-10-28T11:06:59.000Z</time>
      </trkpt>
      <trkpt lat="39.173241" lon="-1.949279">
        <ele>650.618338</ele>
        <time>2021-10-28T11:07:05.000Z</time>
      </trkpt>
      <trkpt lat="39.173267" lon="-1.949228">
        <ele>650.657989</ele>
        <time>2021-10-28T11:07:06.000Z</time>
      </trkpt>
      <trkpt lat="39.173309" lon="-1.949187">
        <ele>650.702125</ele>
        <time>2021-10-28T11:07:07.000Z</time>
      </trkpt>
      <trkpt lat="39.173369" lon="-1.949096">
        <ele>650.779727</ele>
        <time>2021-10-28T11:07:09.000Z</time>
      </trkpt>
      <trkpt lat="39.173398" lon="-1.948879">
        <ele>650.922770</ele>
        <time>2021-10-28T11:07:13.000Z</time>
      </trkpt>
      <trkpt lat="39.173500" lon="-1.948511">
        <ele>651.176643</ele>
        <time>2021-10-28T11:07:19.000Z</time>
      </trkpt>
      <trkpt lat="39.173578" lon="-1.948130">
        <ele>651.432626</ele>
        <time>2021-10-28T11:07:25.000Z</time>
      </trkpt>
      <trkpt lat="39.173598" lon="-1.948067">
        <ele>651.476849</ele>
        <time>2021-10-28T11:07:26.000Z</time>
      </trkpt>
      <trkpt lat="39.173719" lon="-1.947680">
        <ele>651.940398</ele>
        <time>2021-10-28T11:07:32.000Z</time>
      </trkpt>
      <trkpt lat="39.173737" lon="-1.947555">
        <ele>652.506595</ele>
        <time>2021-10-28T11:07:34.000Z</time>
      </trkpt>
      <trkpt lat="39.173741" lon="-1.947436">
        <ele>653.037047</ele>
        <time>2021-10-28T11:07:36.000Z</time>
      </trkpt>
      <trkpt lat="39.173745" lon="-1.947386">
        <ele>653.260899</ele>
        <time>2021-10-28T11:07:37.000Z</time>
      </trkpt>
      <trkpt lat="39.173733" lon="-1.947350">
        <ele>653.435414</ele>
        <time>2021-10-28T11:07:38.000Z</time>
      </trkpt>
      <trkpt lat="39.173724" lon="-1.947312">
        <ele>653.612364</ele>
        <time>2021-10-28T11:07:40.000Z</time>
      </trkpt>
      <trkpt lat="39.173725" lon="-1.947306">
        <ele>653.639695</ele>
        <time>2021-10-28T11:07:41.000Z</time>
      </trkpt>
      <trkpt lat="39.173740" lon="-1.947294">
        <ele>653.741090</ele>
        <time>2021-10-28T11:07:46.000Z</time>
      </trkpt>
      <trkpt lat="39.173744" lon="-1.947295">
        <ele>653.764496</ele>
        <time>2021-10-28T11:07:52.000Z</time>
      </trkpt>
      <trkpt lat="39.173743" lon="-1.947290">
        <ele>653.787492</ele>
        <time>2021-10-28T11:07:56.000Z</time>
      </trkpt>
      <trkpt lat="39.173745" lon="-1.947280">
        <ele>653.833484</ele>
        <time>2021-10-28T11:07:57.000Z</time>
      </trkpt>
      <trkpt lat="39.173714" lon="-1.947180">
        <ele>654.313110</ele>
        <time>2021-10-28T11:08:01.000Z</time>
      </trkpt>
      <trkpt lat="39.173634" lon="-1.946945">
        <ele>655.456118</ele>
        <time>2021-10-28T11:08:07.000Z</time>
      </trkpt>
      <trkpt lat="39.173568" lon="-1.946768">
        <ele>656.330813</ele>
        <time>2021-10-28T11:08:13.000Z</time>
      </trkpt>
      <trkpt lat="39.173509" lon="-1.946669">
        <ele>656.886921</ele>
        <time>2021-10-28T11:08:16.000Z</time>
      </trkpt>
      <trkpt lat="39.173469" lon="-1.946601">
        <ele>657.267063</ele>
        <time>2021-10-28T11:08:18.000Z</time>
      </trkpt>
      <trkpt lat="39.173447" lon="-1.946567">
        <ele>657.464291</ele>
        <time>2021-10-28T11:08:19.000Z</time>
      </trkpt>
      <trkpt lat="39.173429" lon="-1.946533">
        <ele>657.647646</ele>
        <time>2021-10-28T11:08:20.000Z</time>
      </trkpt>
      <trkpt lat="39.173413" lon="-1.946500">
        <ele>657.820984</ele>
        <time>2021-10-28T11:08:21.000Z</time>
      </trkpt>
      <trkpt lat="39.173401" lon="-1.946471">
        <ele>657.967379</ele>
        <time>2021-10-28T11:08:22.000Z</time>
      </trkpt>
      <trkpt lat="39.173382" lon="-1.946405">
        <ele>658.280916</ele>
        <time>2021-10-28T11:08:24.000Z</time>
      </trkpt>
      <trkpt lat="39.173317" lon="-1.946301">
        <ele>658.875844</ele>
        <time>2021-10-28T11:08:28.000Z</time>
      </trkpt>
      <trkpt lat="39.173295" lon="-1.946279">
        <ele>659.035754</ele>
        <time>2021-10-28T11:08:29.000Z</time>
      </trkpt>
      <trkpt lat="39.173245" lon="-1.946237">
        <ele>659.378517</ele>
        <time>2021-10-28T11:08:31.000Z</time>
      </trkpt>
      <trkpt lat="39.173159" lon="-1.946164">
        <ele>659.969922</ele>
        <time>2021-10-28T11:08:35.000Z</time>
      </trkpt>
      <trkpt lat="39.173118" lon="-1.945995">
        <ele>660.758545</ele>
        <time>2021-10-28T11:08:40.000Z</time>
      </trkpt>
      <trkpt lat="39.173104" lon="-1.945962">
        <ele>660.926075</ele>
        <time>2021-10-28T11:08:41.000Z</time>
      </trkpt>
      <trkpt lat="39.173069" lon="-1.945908">
        <ele>661.239537</ele>
        <time>2021-10-28T11:08:43.000Z</time>
      </trkpt>
      <trkpt lat="39.172995" lon="-1.945810">
        <ele>661.848789</ele>
        <time>2021-10-28T11:08:47.000Z</time>
      </trkpt>
      <trkpt lat="39.172958" lon="-1.945765">
        <ele>662.062674</ele>
        <time>2021-10-28T11:08:49.000Z</time>
      </trkpt>
      <trkpt lat="39.172866" lon="-1.945666">
        <ele>662.174427</ele>
        <time>2021-10-28T11:08:54.000Z</time>
      </trkpt>
      <trkpt lat="39.172797" lon="-1.945622">
        <ele>662.246222</ele>
        <time>2021-10-28T11:08:57.000Z</time>
      </trkpt>
      <trkpt lat="39.172738" lon="-1.945569">
        <ele>662.313284</ele>
        <time>2021-10-28T11:09:00.000Z</time>
      </trkpt>
      <trkpt lat="39.172714" lon="-1.945537">
        <ele>662.345480</ele>
        <time>2021-10-28T11:09:02.000Z</time>
      </trkpt>
      <trkpt lat="39.172701" lon="-1.945516">
        <ele>662.364913</ele>
        <time>2021-10-28T11:09:03.000Z</time>
      </trkpt>
      <trkpt lat="39.172685" lon="-1.945496">
        <ele>662.385694</ele>
        <time>2021-10-28T11:09:04.000Z</time>
      </trkpt>
      <trkpt lat="39.172674" lon="-1.945475">
        <ele>662.404021</ele>
        <time>2021-10-28T11:09:05.000Z</time>
      </trkpt>
      <trkpt lat="39.172663" lon="-1.945453">
        <ele>662.422951</ele>
        <time>2021-10-28T11:09:06.000Z</time>
      </trkpt>
      <trkpt lat="39.172637" lon="-1.945415">
        <ele>662.459601</ele>
        <time>2021-10-28T11:09:08.000Z</time>
      </trkpt>
      <trkpt lat="39.172595" lon="-1.945373">
        <ele>662.509170</ele>
        <time>2021-10-28T11:09:11.000Z</time>
      </trkpt>
      <trkpt lat="39.172569" lon="-1.945351">
        <ele>662.538174</ele>
        <time>2021-10-28T11:09:13.000Z</time>
      </trkpt>
      <trkpt lat="39.172507" lon="-1.945314">
        <ele>662.601893</ele>
        <time>2021-10-28T11:09:17.000Z</time>
      </trkpt>
      <trkpt lat="39.172495" lon="-1.945308">
        <ele>662.613898</ele>
        <time>2021-10-28T11:09:18.000Z</time>
      </trkpt>
      <trkpt lat="39.172486" lon="-1.945301">
        <ele>662.623700</ele>
        <time>2021-10-28T11:09:19.000Z</time>
      </trkpt>
      <trkpt lat="39.172482" lon="-1.945291">
        <ele>662.631837</ele>
        <time>2021-10-28T11:09:20.000Z</time>
      </trkpt>
      <trkpt lat="39.172473" lon="-1.945281">
        <ele>662.642917</ele>
        <time>2021-10-28T11:09:23.000Z</time>
      </trkpt>
      <trkpt lat="39.172477" lon="-1.945279">
        <ele>662.646919</ele>
        <time>2021-10-28T11:09:33.000Z</time>
      </trkpt>
      <trkpt lat="39.172477" lon="-1.945279">
        <ele>662.646919</ele>
        <time>2021-10-28T11:09:37.000Z</time>
      </trkpt>
      <trkpt lat="39.172477" lon="-1.945279">
        <ele>662.646919</ele>
        <time>2021-10-28T11:09:39.000Z</time>
      </trkpt>
      <trkpt lat="39.172477" lon="-1.945279">
        <ele>662.646919</ele>
        <time>2021-10-28T11:09:41.000Z</time>
      </trkpt>
      <trkpt lat="39.172477" lon="-1.945278">
        <ele>662.647642</ele>
        <time>2021-10-28T11:09:44.000Z</time>
      </trkpt>
      <trkpt lat="39.172476" lon="-1.945278">
        <ele>662.648575</ele>
        <time>2021-10-28T11:09:55.000Z</time>
      </trkpt>
      <trkpt lat="39.172476" lon="-1.945278">
        <ele>662.648575</ele>
        <time>2021-10-28T11:09:59.000Z</time>
      </trkpt>
      <trkpt lat="39.172476" lon="-1.945278">
        <ele>662.648575</ele>
        <time>2021-10-28T11:10:01.000Z</time>
      </trkpt>
      <trkpt lat="39.172476" lon="-1.945278">
        <ele>662.648575</ele>
        <time>2021-10-28T11:10:04.000Z</time>
      </trkpt>
      <trkpt lat="39.172477" lon="-1.945281">
        <ele>662.650936</ele>
        <time>2021-10-28T11:10:07.000Z</time>
      </trkpt>
      <trkpt lat="39.172481" lon="-1.945278">
        <ele>662.655252</ele>
        <time>2021-10-28T11:10:08.000Z</time>
      </trkpt>
      <trkpt lat="39.172487" lon="-1.945271">
        <ele>662.662798</ele>
        <time>2021-10-28T11:10:09.000Z</time>
      </trkpt>
      <trkpt lat="39.172498" lon="-1.945256">
        <ele>662.677728</ele>
        <time>2021-10-28T11:10:10.000Z</time>
      </trkpt>
      <trkpt lat="39.172594" lon="-1.945157">
        <ele>662.792371</ele>
        <time>2021-10-28T11:10:15.000Z</time>
      </trkpt>
      <trkpt lat="39.172707" lon="-1.945054">
        <ele>662.921432</ele>
        <time>2021-10-28T11:10:19.000Z</time>
      </trkpt>
      <trkpt lat="39.172789" lon="-1.945033">
        <ele>662.999410</ele>
        <time>2021-10-28T11:10:21.000Z</time>
      </trkpt>
      <trkpt lat="39.172830" lon="-1.945036">
        <ele>663.037715</ele>
        <time>2021-10-28T11:10:22.000Z</time>
      </trkpt>
      <trkpt lat="39.172873" lon="-1.945052">
        <ele>663.079458</ele>
        <time>2021-10-28T11:10:23.000Z</time>
      </trkpt>
      <trkpt lat="39.172916" lon="-1.945074">
        <ele>663.122606</ele>
        <time>2021-10-28T11:10:24.000Z</time>
      </trkpt>
      <trkpt lat="39.172957" lon="-1.945101">
        <ele>663.165544</ele>
        <time>2021-10-28T11:10:25.000Z</time>
      </trkpt>
      <trkpt lat="39.173105" lon="-1.945187">
        <ele>663.316952</ele>
        <time>2021-10-28T11:10:28.000Z</time>
      </trkpt>
      <trkpt lat="39.173252" lon="-1.945265">
        <ele>663.465214</ele>
        <time>2021-10-28T11:10:31.000Z</time>
      </trkpt>
      <trkpt lat="39.173392" lon="-1.945374">
        <ele>663.617742</ele>
        <time>2021-10-28T11:10:34.000Z</time>
      </trkpt>
      <trkpt lat="39.173436" lon="-1.945423">
        <ele>663.671961</ele>
        <time>2021-10-28T11:10:35.000Z</time>
      </trkpt>
      <trkpt lat="39.173481" lon="-1.945485">
        <ele>663.707012</ele>
        <time>2021-10-28T11:10:36.000Z</time>
      </trkpt>
      <trkpt lat="39.173552" lon="-1.945617">
        <ele>663.448935</ele>
        <time>2021-10-28T11:10:38.000Z</time>
      </trkpt>
      <trkpt lat="39.173590" lon="-1.945682">
        <ele>663.318161</ele>
        <time>2021-10-28T11:10:39.000Z</time>
      </trkpt>
      <trkpt lat="39.173632" lon="-1.945743">
        <ele>663.187107</ele>
        <time>2021-10-28T11:10:40.000Z</time>
      </trkpt>
      <trkpt lat="39.173718" lon="-1.945851">
        <ele>662.938406</ele>
        <time>2021-10-28T11:10:42.000Z</time>
      </trkpt>
      <trkpt lat="39.173766" lon="-1.945889">
        <ele>662.821709</ele>
        <time>2021-10-28T11:10:43.000Z</time>
      </trkpt>
      <trkpt lat="39.173819" lon="-1.945904">
        <ele>662.709276</ele>
        <time>2021-10-28T11:10:44.000Z</time>
      </trkpt>
      <trkpt lat="39.173873" lon="-1.945897">
        <ele>662.596821</ele>
        <time>2021-10-28T11:10:45.000Z</time>
      </trkpt>
      <trkpt lat="39.173925" lon="-1.945867">
        <ele>662.478787</ele>
        <time>2021-10-28T11:10:46.000Z</time>
      </trkpt>
      <trkpt lat="39.174005" lon="-1.945759">
        <ele>662.238838</ele>
        <time>2021-10-28T11:10:48.000Z</time>
      </trkpt>
      <trkpt lat="39.174038" lon="-1.945696">
        <ele>662.116703</ele>
        <time>2021-10-28T11:10:49.000Z</time>
      </trkpt>
      <trkpt lat="39.174274" lon="-1.945219">
        <ele>661.207733</ele>
        <time>2021-10-28T11:10:57.000Z</time>
      </trkpt>
      <trkpt lat="39.174458" lon="-1.944865">
        <ele>660.523106</ele>
        <time>2021-10-28T11:11:03.000Z</time>
      </trkpt>
      <trkpt lat="39.174502" lon="-1.944813">
        <ele>660.399456</ele>
        <time>2021-10-28T11:11:04.000Z</time>
      </trkpt>
      <trkpt lat="39.174552" lon="-1.944770">
        <ele>660.274938</ele>
        <time>2021-10-28T11:11:05.000Z</time>
      </trkpt>
      <trkpt lat="39.174716" lon="-1.944677">
        <ele>659.959810</ele>
        <time>2021-10-28T11:11:08.000Z</time>
      </trkpt>
      <trkpt lat="39.174920" lon="-1.944555">
        <ele>659.770289</ele>
        <time>2021-10-28T11:11:12.000Z</time>
      </trkpt>
      <trkpt lat="39.175064" lon="-1.944450">
        <ele>659.630870</ele>
        <time>2021-10-28T11:11:15.000Z</time>
      </trkpt>
      <trkpt lat="39.175183" lon="-1.944331">
        <ele>659.503962</ele>
        <time>2021-10-28T11:11:19.000Z</time>
      </trkpt>
      <trkpt lat="39.175207" lon="-1.944319">
        <ele>659.482267</ele>
        <time>2021-10-28T11:11:22.000Z</time>
      </trkpt>
      <trkpt lat="39.175208" lon="-1.944314">
        <ele>659.478893</ele>
        <time>2021-10-28T11:11:34.000Z</time>
      </trkpt>
      <trkpt lat="39.175214" lon="-1.944306">
        <ele>659.471620</ele>
        <time>2021-10-28T11:11:35.000Z</time>
      </trkpt>
      <trkpt lat="39.175226" lon="-1.944295">
        <ele>659.459212</ele>
        <time>2021-10-28T11:11:36.000Z</time>
      </trkpt>
      <trkpt lat="39.175326" lon="-1.944222">
        <ele>659.362367</ele>
        <time>2021-10-28T11:11:41.000Z</time>
      </trkpt>
      <trkpt lat="39.175467" lon="-1.944102">
        <ele>659.219990</ele>
        <time>2021-10-28T11:11:45.000Z</time>
      </trkpt>
      <trkpt lat="39.175506" lon="-1.944063">
        <ele>659.178399</ele>
        <time>2021-10-28T11:11:46.000Z</time>
      </trkpt>
      <trkpt lat="39.175740" lon="-1.943709">
        <ele>658.874428</ele>
        <time>2021-10-28T11:11:53.000Z</time>
      </trkpt>
      <trkpt lat="39.175819" lon="-1.943534">
        <ele>658.742110</ele>
        <time>2021-10-28T11:11:56.000Z</time>
      </trkpt>
      <trkpt lat="39.175875" lon="-1.943424">
        <ele>658.656125</ele>
        <time>2021-10-28T11:11:58.000Z</time>
      </trkpt>
      <trkpt lat="39.175913" lon="-1.943376">
        <ele>658.611298</ele>
        <time>2021-10-28T11:11:59.000Z</time>
      </trkpt>
      <trkpt lat="39.176032" lon="-1.943231">
        <ele>658.465621</ele>
        <time>2021-10-28T11:12:02.000Z</time>
      </trkpt>
      <trkpt lat="39.176132" lon="-1.943044">
        <ele>658.189306</ele>
        <time>2021-10-28T11:12:05.000Z</time>
      </trkpt>
      <trkpt lat="39.176158" lon="-1.942969">
        <ele>658.089378</ele>
        <time>2021-10-28T11:12:06.000Z</time>
      </trkpt>
      <trkpt lat="39.176184" lon="-1.942889">
        <ele>657.983869</ele>
        <time>2021-10-28T11:12:07.000Z</time>
      </trkpt>
      <trkpt lat="39.176217" lon="-1.942815">
        <ele>657.880033</ele>
        <time>2021-10-28T11:12:08.000Z</time>
      </trkpt>
      <trkpt lat="39.176259" lon="-1.942751">
        <ele>657.778043</ele>
        <time>2021-10-28T11:12:09.000Z</time>
      </trkpt>
      <trkpt lat="39.176308" lon="-1.942699">
        <ele>657.678490</ele>
        <time>2021-10-28T11:12:10.000Z</time>
      </trkpt>
      <trkpt lat="39.176358" lon="-1.942651">
        <ele>657.580700</ele>
        <time>2021-10-28T11:12:11.000Z</time>
      </trkpt>
      <trkpt lat="39.176453" lon="-1.942541">
        <ele>657.380407</ele>
        <time>2021-10-28T11:12:13.000Z</time>
      </trkpt>
      <trkpt lat="39.176593" lon="-1.942278">
        <ele>656.992366</ele>
        <time>2021-10-28T11:12:17.000Z</time>
      </trkpt>
      <trkpt lat="39.176626" lon="-1.942206">
        <ele>656.890632</ele>
        <time>2021-10-28T11:12:18.000Z</time>
      </trkpt>
      <trkpt lat="39.176908" lon="-1.941694">
        <ele>656.126714</ele>
        <time>2021-10-28T11:12:26.000Z</time>
      </trkpt>
      <trkpt lat="39.177102" lon="-1.941403">
        <ele>655.659615</ele>
        <time>2021-10-28T11:12:31.000Z</time>
      </trkpt>
      <trkpt lat="39.177163" lon="-1.941266">
        <ele>655.301097</ele>
        <time>2021-10-28T11:12:33.000Z</time>
      </trkpt>
      <trkpt lat="39.177212" lon="-1.941125">
        <ele>654.950455</ele>
        <time>2021-10-28T11:12:35.000Z</time>
      </trkpt>
      <trkpt lat="39.177282" lon="-1.940903">
        <ele>654.406606</ele>
        <time>2021-10-28T11:12:38.000Z</time>
      </trkpt>
      <trkpt lat="39.177420" lon="-1.940518">
        <ele>653.444080</ele>
        <time>2021-10-28T11:12:43.000Z</time>
      </trkpt>
      <trkpt lat="39.177458" lon="-1.940448">
        <ele>653.250158</ele>
        <time>2021-10-28T11:12:44.000Z</time>
      </trkpt>
      <trkpt lat="39.177670" lon="-1.939999">
        <ele>652.057160</ele>
        <time>2021-10-28T11:12:50.000Z</time>
      </trkpt>
      <trkpt lat="39.177709" lon="-1.939914">
        <ele>651.833023</ele>
        <time>2021-10-28T11:12:51.000Z</time>
      </trkpt>
      <trkpt lat="39.177755" lon="-1.939832">
        <ele>651.603335</ele>
        <time>2021-10-28T11:12:52.000Z</time>
      </trkpt>
      <trkpt lat="39.177813" lon="-1.939761">
        <ele>651.369275</ele>
        <time>2021-10-28T11:12:53.000Z</time>
      </trkpt>
      <trkpt lat="39.177933" lon="-1.939632">
        <ele>650.912018</ele>
        <time>2021-10-28T11:12:55.000Z</time>
      </trkpt>
      <trkpt lat="39.178095" lon="-1.939434">
        <ele>650.359743</ele>
        <time>2021-10-28T11:12:58.000Z</time>
      </trkpt>
      <trkpt lat="39.178203" lon="-1.939315">
        <ele>650.252047</ele>
        <time>2021-10-28T11:13:00.000Z</time>
      </trkpt>
      <trkpt lat="39.178506" lon="-1.938977">
        <ele>649.948314</ele>
        <time>2021-10-28T11:13:06.000Z</time>
      </trkpt>
      <trkpt lat="39.178562" lon="-1.938841">
        <ele>649.857799</ele>
        <time>2021-10-28T11:13:08.000Z</time>
      </trkpt>
      <trkpt lat="39.178589" lon="-1.938687">
        <ele>649.764995</ele>
        <time>2021-10-28T11:13:10.000Z</time>
      </trkpt>
      <trkpt lat="39.178616" lon="-1.938542">
        <ele>649.677343</ele>
        <time>2021-10-28T11:13:12.000Z</time>
      </trkpt>
      <trkpt lat="39.178675" lon="-1.938308">
        <ele>649.532710</ele>
        <time>2021-10-28T11:13:15.000Z</time>
      </trkpt>
      <trkpt lat="39.178696" lon="-1.938237">
        <ele>649.488044</ele>
        <time>2021-10-28T11:13:16.000Z</time>
      </trkpt>
      <trkpt lat="39.178821" lon="-1.938001">
        <ele>649.320040</ele>
        <time>2021-10-28T11:13:20.000Z</time>
      </trkpt>
      <trkpt lat="39.179004" lon="-1.937636">
        <ele>649.064540</ele>
        <time>2021-10-28T11:13:26.000Z</time>
      </trkpt>
      <trkpt lat="39.179027" lon="-1.937565">
        <ele>649.031466</ele>
        <time>2021-10-28T11:13:27.000Z</time>
      </trkpt>
      <trkpt lat="39.179085" lon="-1.937352">
        <ele>649.034035</ele>
        <time>2021-10-28T11:13:30.000Z</time>
      </trkpt>
      <trkpt lat="39.179107" lon="-1.937282">
        <ele>649.034894</ele>
        <time>2021-10-28T11:13:31.000Z</time>
      </trkpt>
      <trkpt lat="39.179145" lon="-1.937138">
        <ele>649.036624</ele>
        <time>2021-10-28T11:13:33.000Z</time>
      </trkpt>
      <trkpt lat="39.179218" lon="-1.936839">
        <ele>649.040191</ele>
        <time>2021-10-28T11:13:37.000Z</time>
      </trkpt>
      <trkpt lat="39.179314" lon="-1.936478">
        <ele>649.044532</ele>
        <time>2021-10-28T11:13:42.000Z</time>
      </trkpt>
      <trkpt lat="39.179363" lon="-1.936367">
        <ele>649.045986</ele>
        <time>2021-10-28T11:13:44.000Z</time>
      </trkpt>
      <trkpt lat="39.179559" lon="-1.936028">
        <ele>649.050797</ele>
        <time>2021-10-28T11:13:50.000Z</time>
      </trkpt>
      <trkpt lat="39.179690" lon="-1.935738">
        <ele>649.054615</ele>
        <time>2021-10-28T11:13:55.000Z</time>
      </trkpt>
      <trkpt lat="39.179710" lon="-1.935677">
        <ele>649.055368</ele>
        <time>2021-10-28T11:13:56.000Z</time>
      </trkpt>
      <trkpt lat="39.179727" lon="-1.935611">
        <ele>649.056160</ele>
        <time>2021-10-28T11:13:57.000Z</time>
      </trkpt>
      <trkpt lat="39.179744" lon="-1.935457">
        <ele>649.073642</ele>
        <time>2021-10-28T11:13:59.000Z</time>
      </trkpt>
      <trkpt lat="39.179744" lon="-1.935375">
        <ele>649.123858</ele>
        <time>2021-10-28T11:14:00.000Z</time>
      </trkpt>
      <trkpt lat="39.179734" lon="-1.935300">
        <ele>649.170462</ele>
        <time>2021-10-28T11:14:01.000Z</time>
      </trkpt>
      <trkpt lat="39.179683" lon="-1.935161">
        <ele>649.264639</ele>
        <time>2021-10-28T11:14:03.000Z</time>
      </trkpt>
      <trkpt lat="39.179499" lon="-1.934982">
        <ele>649.446701</ele>
        <time>2021-10-28T11:14:07.000Z</time>
      </trkpt>
      <trkpt lat="39.179106" lon="-1.934658">
        <ele>649.815163</ele>
        <time>2021-10-28T11:14:15.000Z</time>
      </trkpt>
      <trkpt lat="39.178827" lon="-1.934468">
        <ele>650.064404</ele>
        <time>2021-10-28T11:14:21.000Z</time>
      </trkpt>
      <trkpt lat="39.178782" lon="-1.934440">
        <ele>650.103874</ele>
        <time>2021-10-28T11:14:22.000Z</time>
      </trkpt>
      <trkpt lat="39.178513" lon="-1.934249">
        <ele>650.346452</ele>
        <time>2021-10-28T11:14:28.000Z</time>
      </trkpt>
      <trkpt lat="39.178422" lon="-1.934180">
        <ele>650.429842</ele>
        <time>2021-10-28T11:14:30.000Z</time>
      </trkpt>
      <trkpt lat="39.178005" lon="-1.933870">
        <ele>650.783090</ele>
        <time>2021-10-28T11:14:39.000Z</time>
      </trkpt>
      <trkpt lat="39.177958" lon="-1.933835">
        <ele>650.822474</ele>
        <time>2021-10-28T11:14:40.000Z</time>
      </trkpt>
      <trkpt lat="39.177913" lon="-1.933801">
        <ele>650.860321</ele>
        <time>2021-10-28T11:14:41.000Z</time>
      </trkpt>
      <trkpt lat="39.177822" lon="-1.933733">
        <ele>650.936641</ele>
        <time>2021-10-28T11:14:43.000Z</time>
      </trkpt>
      <trkpt lat="39.177538" lon="-1.933538">
        <ele>651.170124</ele>
        <time>2021-10-28T11:14:49.000Z</time>
      </trkpt>
      <trkpt lat="39.177491" lon="-1.933506">
        <ele>651.208692</ele>
        <time>2021-10-28T11:14:50.000Z</time>
      </trkpt>
      <trkpt lat="39.177260" lon="-1.933346">
        <ele>651.398971</ele>
        <time>2021-10-28T11:14:55.000Z</time>
      </trkpt>
      <trkpt lat="39.177031" lon="-1.933177">
        <ele>651.590436</ele>
        <time>2021-10-28T11:15:00.000Z</time>
      </trkpt>
      <trkpt lat="39.176846" lon="-1.933046">
        <ele>651.743592</ele>
        <time>2021-10-28T11:15:04.000Z</time>
      </trkpt>
      <trkpt lat="39.176381" lon="-1.932717">
        <ele>651.857421</ele>
        <time>2021-10-28T11:15:14.000Z</time>
      </trkpt>
      <trkpt lat="39.176047" lon="-1.932482">
        <ele>651.916330</ele>
        <time>2021-10-28T11:15:21.000Z</time>
      </trkpt>
      <trkpt lat="39.175902" lon="-1.932377">
        <ele>651.942077</ele>
        <time>2021-10-28T11:15:24.000Z</time>
      </trkpt>
      <trkpt lat="39.175559" lon="-1.932130">
        <ele>652.002902</ele>
        <time>2021-10-28T11:15:31.000Z</time>
      </trkpt>
      <trkpt lat="39.175362" lon="-1.931992">
        <ele>652.037612</ele>
        <time>2021-10-28T11:15:35.000Z</time>
      </trkpt>
      <trkpt lat="39.175067" lon="-1.931778">
        <ele>651.923606</ele>
        <time>2021-10-28T11:15:41.000Z</time>
      </trkpt>
      <trkpt lat="39.174719" lon="-1.931546">
        <ele>651.618740</ele>
        <time>2021-10-28T11:15:48.000Z</time>
      </trkpt>
      <trkpt lat="39.174338" lon="-1.931237">
        <ele>651.268487</ele>
        <time>2021-10-28T11:15:56.000Z</time>
      </trkpt>
      <trkpt lat="39.173982" lon="-1.931007">
        <ele>650.958619</ele>
        <time>2021-10-28T11:16:03.000Z</time>
      </trkpt>
      <trkpt lat="39.173635" lon="-1.930768">
        <ele>650.651066</ele>
        <time>2021-10-28T11:16:10.000Z</time>
      </trkpt>
      <trkpt lat="39.173539" lon="-1.930687">
        <ele>650.549335</ele>
        <time>2021-10-28T11:16:12.000Z</time>
      </trkpt>
      <trkpt lat="39.173444" lon="-1.930601">
        <ele>650.446409</ele>
        <time>2021-10-28T11:16:14.000Z</time>
      </trkpt>
      <trkpt lat="39.173256" lon="-1.930433">
        <ele>650.243585</ele>
        <time>2021-10-28T11:16:18.000Z</time>
      </trkpt>
      <trkpt lat="39.172908" lon="-1.930166">
        <ele>649.884502</ele>
        <time>2021-10-28T11:16:25.000Z</time>
      </trkpt>
      <trkpt lat="39.172432" lon="-1.929865">
        <ele>649.414374</ele>
        <time>2021-10-28T11:16:34.000Z</time>
      </trkpt>
      <trkpt lat="39.172037" lon="-1.929590">
        <ele>649.071455</ele>
        <time>2021-10-28T11:16:42.000Z</time>
      </trkpt>
      <trkpt lat="39.171898" lon="-1.929487">
        <ele>649.082445</ele>
        <time>2021-10-28T11:16:45.000Z</time>
      </trkpt>
      <trkpt lat="39.171705" lon="-1.929365">
        <ele>649.097180</ele>
        <time>2021-10-28T11:16:49.000Z</time>
      </trkpt>
      <trkpt lat="39.171259" lon="-1.929060">
        <ele>649.131788</ele>
        <time>2021-10-28T11:16:58.000Z</time>
      </trkpt>
      <trkpt lat="39.170807" lon="-1.928794">
        <ele>649.165848</ele>
        <time>2021-10-28T11:17:07.000Z</time>
      </trkpt>
      <trkpt lat="39.170656" lon="-1.928698">
        <ele>649.177389</ele>
        <time>2021-10-28T11:17:10.000Z</time>
      </trkpt>
      <trkpt lat="39.170499" lon="-1.928608">
        <ele>649.189168</ele>
        <time>2021-10-28T11:17:13.000Z</time>
      </trkpt>
      <trkpt lat="39.170026" lon="-1.928368">
        <ele>649.029182</ele>
        <time>2021-10-28T11:17:22.000Z</time>
      </trkpt>
      <trkpt lat="39.169644" lon="-1.928261">
        <ele>648.898744</ele>
        <time>2021-10-28T11:17:29.000Z</time>
      </trkpt>
      <trkpt lat="39.169492" lon="-1.928193">
        <ele>648.845061</ele>
        <time>2021-10-28T11:17:32.000Z</time>
      </trkpt>
      <trkpt lat="39.169347" lon="-1.928086">
        <ele>648.789318</ele>
        <time>2021-10-28T11:17:35.000Z</time>
      </trkpt>
      <trkpt lat="39.169033" lon="-1.927750">
        <ele>648.653179</ele>
        <time>2021-10-28T11:17:42.000Z</time>
      </trkpt>
      <trkpt lat="39.168715" lon="-1.927304">
        <ele>648.798361</ele>
        <time>2021-10-28T11:17:50.000Z</time>
      </trkpt>
      <trkpt lat="39.168531" lon="-1.927006">
        <ele>649.015678</ele>
        <time>2021-10-28T11:17:55.000Z</time>
      </trkpt>
      <trkpt lat="39.168417" lon="-1.926819">
        <ele>649.151381</ele>
        <time>2021-10-28T11:17:58.000Z</time>
      </trkpt>
      <trkpt lat="39.168204" lon="-1.926449">
        <ele>649.414271</ele>
        <time>2021-10-28T11:18:04.000Z</time>
      </trkpt>
      <trkpt lat="39.168143" lon="-1.926331">
        <ele>649.495176</ele>
        <time>2021-10-28T11:18:06.000Z</time>
      </trkpt>
      <trkpt lat="39.167940" lon="-1.925954">
        <ele>649.757018</ele>
        <time>2021-10-28T11:18:12.000Z</time>
      </trkpt>
      <trkpt lat="39.167687" lon="-1.925424">
        <ele>649.812423</ele>
        <time>2021-10-28T11:18:20.000Z</time>
      </trkpt>
      <trkpt lat="39.167670" lon="-1.925357">
        <ele>649.791785</ele>
        <time>2021-10-28T11:18:21.000Z</time>
      </trkpt>
      <trkpt lat="39.167624" lon="-1.925088">
        <ele>649.711139</ele>
        <time>2021-10-28T11:18:25.000Z</time>
      </trkpt>
      <trkpt lat="39.167608" lon="-1.924946">
        <ele>649.669130</ele>
        <time>2021-10-28T11:18:27.000Z</time>
      </trkpt>
      <trkpt lat="39.167587" lon="-1.924646">
        <ele>649.580944</ele>
        <time>2021-10-28T11:18:31.000Z</time>
      </trkpt>
      <trkpt lat="39.167581" lon="-1.924565">
        <ele>649.557123</ele>
        <time>2021-10-28T11:18:32.000Z</time>
      </trkpt>
      <trkpt lat="39.167591" lon="-1.924412">
        <ele>649.512171</ele>
        <time>2021-10-28T11:18:34.000Z</time>
      </trkpt>
      <trkpt lat="39.167610" lon="-1.924255">
        <ele>649.465651</ele>
        <time>2021-10-28T11:18:36.000Z</time>
      </trkpt>
      <trkpt lat="39.167627" lon="-1.924173">
        <ele>649.440801</ele>
        <time>2021-10-28T11:18:37.000Z</time>
      </trkpt>
      <trkpt lat="39.167672" lon="-1.923756">
        <ele>649.317543</ele>
        <time>2021-10-28T11:18:42.000Z</time>
      </trkpt>
      <trkpt lat="39.167745" lon="-1.923223">
        <ele>649.501638</ele>
        <time>2021-10-28T11:18:49.000Z</time>
      </trkpt>
      <trkpt lat="39.167841" lon="-1.922809">
        <ele>649.946997</ele>
        <time>2021-10-28T11:18:55.000Z</time>
      </trkpt>
      <trkpt lat="39.167974" lon="-1.922481">
        <ele>650.328488</ele>
        <time>2021-10-28T11:19:00.000Z</time>
      </trkpt>
      <trkpt lat="39.168074" lon="-1.922311">
        <ele>650.548418</ele>
        <time>2021-10-28T11:19:03.000Z</time>
      </trkpt>
      <trkpt lat="39.168133" lon="-1.922204">
        <ele>650.683742</ele>
        <time>2021-10-28T11:19:05.000Z</time>
      </trkpt>
      <trkpt lat="39.168160" lon="-1.922148">
        <ele>650.751707</ele>
        <time>2021-10-28T11:19:06.000Z</time>
      </trkpt>
      <trkpt lat="39.168345" lon="-1.921891">
        <ele>651.113145</ele>
        <time>2021-10-28T11:19:11.000Z</time>
      </trkpt>
      <trkpt lat="39.168385" lon="-1.921835">
        <ele>651.191621</ele>
        <time>2021-10-28T11:19:12.000Z</time>
      </trkpt>
      <trkpt lat="39.168603" lon="-1.921470">
        <ele>651.735557</ele>
        <time>2021-10-28T11:19:18.000Z</time>
      </trkpt>
      <trkpt lat="39.168711" lon="-1.921259">
        <ele>652.439366</ele>
        <time>2021-10-28T11:19:22.000Z</time>
      </trkpt>
      <trkpt lat="39.168757" lon="-1.921169">
        <ele>652.739437</ele>
        <time>2021-10-28T11:19:24.000Z</time>
      </trkpt>
      <trkpt lat="39.168820" lon="-1.921041">
        <ele>653.161481</ele>
        <time>2021-10-28T11:19:27.000Z</time>
      </trkpt>
      <trkpt lat="39.168882" lon="-1.920927">
        <ele>653.549111</ele>
        <time>2021-10-28T11:19:30.000Z</time>
      </trkpt>
      <trkpt lat="39.169027" lon="-1.920701">
        <ele>654.365698</ele>
        <time>2021-10-28T11:19:36.000Z</time>
      </trkpt>
      <trkpt lat="39.169056" lon="-1.920659">
        <ele>654.522256</ele>
        <time>2021-10-28T11:19:37.000Z</time>
      </trkpt>
      <trkpt lat="39.169153" lon="-1.920477">
        <ele>655.137041</ele>
        <time>2021-10-28T11:19:41.000Z</time>
      </trkpt>
      <trkpt lat="39.169168" lon="-1.920378">
        <ele>655.417835</ele>
        <time>2021-10-28T11:19:43.000Z</time>
      </trkpt>
      <trkpt lat="39.169075" lon="-1.920166">
        <ele>656.095885</ele>
        <time>2021-10-28T11:19:48.000Z</time>
      </trkpt>
      <trkpt lat="39.169057" lon="-1.920123">
        <ele>656.231915</ele>
        <time>2021-10-28T11:19:49.000Z</time>
      </trkpt>
      <trkpt lat="39.169014" lon="-1.919977">
        <ele>656.666664</ele>
        <time>2021-10-28T11:19:52.000Z</time>
      </trkpt>
      <trkpt lat="39.168998" lon="-1.919865">
        <ele>656.983680</ele>
        <time>2021-10-28T11:19:54.000Z</time>
      </trkpt>
      <trkpt lat="39.169012" lon="-1.919745">
        <ele>657.321478</ele>
        <time>2021-10-28T11:19:56.000Z</time>
      </trkpt>
      <trkpt lat="39.169031" lon="-1.919690">
        <ele>657.489089</ele>
        <time>2021-10-28T11:19:57.000Z</time>
      </trkpt>
      <trkpt lat="39.169080" lon="-1.919592">
        <ele>657.813697</ele>
        <time>2021-10-28T11:19:59.000Z</time>
      </trkpt>
      <trkpt lat="39.169174" lon="-1.919462">
        <ele>658.169992</ele>
        <time>2021-10-28T11:20:02.000Z</time>
      </trkpt>
      <trkpt lat="39.169223" lon="-1.919366">
        <ele>658.292662</ele>
        <time>2021-10-28T11:20:04.000Z</time>
      </trkpt>
      <trkpt lat="39.169281" lon="-1.919230">
        <ele>658.458323</ele>
        <time>2021-10-28T11:20:07.000Z</time>
      </trkpt>
      <trkpt lat="39.169301" lon="-1.919186">
        <ele>658.512760</ele>
        <time>2021-10-28T11:20:08.000Z</time>
      </trkpt>
      <trkpt lat="39.169375" lon="-1.919064">
        <ele>658.678083</ele>
        <time>2021-10-28T11:20:11.000Z</time>
      </trkpt>
      <trkpt lat="39.169429" lon="-1.918994">
        <ele>658.783475</ele>
        <time>2021-10-28T11:20:13.000Z</time>
      </trkpt>
      <trkpt lat="39.169488" lon="-1.918933">
        <ele>658.887569</ele>
        <time>2021-10-28T11:20:15.000Z</time>
      </trkpt>
      <trkpt lat="39.169520" lon="-1.918903">
        <ele>658.942028</ele>
        <time>2021-10-28T11:20:16.000Z</time>
      </trkpt>
      <trkpt lat="39.169620" lon="-1.918805">
        <ele>659.114917</ele>
        <time>2021-10-28T11:20:19.000Z</time>
      </trkpt>
      <trkpt lat="39.169653" lon="-1.918762">
        <ele>659.179492</ele>
        <time>2021-10-28T11:20:20.000Z</time>
      </trkpt>
      <trkpt lat="39.169884" lon="-1.918429">
        <ele>659.656394</ele>
        <time>2021-10-28T11:20:27.000Z</time>
      </trkpt>
      <trkpt lat="39.169917" lon="-1.918380">
        <ele>659.725666</ele>
        <time>2021-10-28T11:20:28.000Z</time>
      </trkpt>
      <trkpt lat="39.169986" lon="-1.918291">
        <ele>659.859998</ele>
        <time>2021-10-28T11:20:30.000Z</time>
      </trkpt>
      <trkpt lat="39.170069" lon="-1.918227">
        <ele>659.993119</ele>
        <time>2021-10-28T11:20:32.000Z</time>
      </trkpt>
      <trkpt lat="39.170166" lon="-1.918203">
        <ele>660.129086</ele>
        <time>2021-10-28T11:20:34.000Z</time>
      </trkpt>
      <trkpt lat="39.170269" lon="-1.918214">
        <ele>660.271364</ele>
        <time>2021-10-28T11:20:36.000Z</time>
      </trkpt>
      <trkpt lat="39.170664" lon="-1.918313">
        <ele>660.395120</ele>
        <time>2021-10-28T11:20:43.000Z</time>
      </trkpt>
      <trkpt lat="39.171082" lon="-1.918419">
        <ele>660.030977</ele>
        <time>2021-10-28T11:20:51.000Z</time>
      </trkpt>
      <trkpt lat="39.171325" lon="-1.918472">
        <ele>659.820313</ele>
        <time>2021-10-28T11:20:56.000Z</time>
      </trkpt>
      <trkpt lat="39.171478" lon="-1.918504">
        <ele>659.687821</ele>
        <time>2021-10-28T11:20:59.000Z</time>
      </trkpt>
      <trkpt lat="39.171696" lon="-1.918519">
        <ele>659.501211</ele>
        <time>2021-10-28T11:21:03.000Z</time>
      </trkpt>
      <trkpt lat="39.171807" lon="-1.918472">
        <ele>659.401348</ele>
        <time>2021-10-28T11:21:05.000Z</time>
      </trkpt>
      <trkpt lat="39.171900" lon="-1.918371">
        <ele>659.297428</ele>
        <time>2021-10-28T11:21:07.000Z</time>
      </trkpt>
      <trkpt lat="39.171970" lon="-1.918239">
        <ele>659.191447</ele>
        <time>2021-10-28T11:21:09.000Z</time>
      </trkpt>
      <trkpt lat="39.171998" lon="-1.918166">
        <ele>659.137474</ele>
        <time>2021-10-28T11:21:10.000Z</time>
      </trkpt>
      <trkpt lat="39.172020" lon="-1.918090">
        <ele>659.083713</ele>
        <time>2021-10-28T11:21:11.000Z</time>
      </trkpt>
      <trkpt lat="39.172044" lon="-1.917933">
        <ele>658.946346</ele>
        <time>2021-10-28T11:21:13.000Z</time>
      </trkpt>
      <trkpt lat="39.172051" lon="-1.917853">
        <ele>658.855669</ele>
        <time>2021-10-28T11:21:14.000Z</time>
      </trkpt>
      <trkpt lat="39.172063" lon="-1.917775">
        <ele>658.766104</ele>
        <time>2021-10-28T11:21:15.000Z</time>
      </trkpt>
      <trkpt lat="39.172140" lon="-1.917472">
        <ele>658.406965</ele>
        <time>2021-10-28T11:21:19.000Z</time>
      </trkpt>
      <trkpt lat="39.172219" lon="-1.916891">
        <ele>657.742592</ele>
        <time>2021-10-28T11:21:26.000Z</time>
      </trkpt>
      <trkpt lat="39.172220" lon="-1.916799">
        <ele>657.638962</ele>
        <time>2021-10-28T11:21:27.000Z</time>
      </trkpt>
      <trkpt lat="39.172222" lon="-1.916491">
        <ele>657.292048</ele>
        <time>2021-10-28T11:21:31.000Z</time>
      </trkpt>
      <trkpt lat="39.172223" lon="-1.916106">
        <ele>656.858418</ele>
        <time>2021-10-28T11:21:36.000Z</time>
      </trkpt>
      <trkpt lat="39.172228" lon="-1.916028">
        <ele>656.770266</ele>
        <time>2021-10-28T11:21:37.000Z</time>
      </trkpt>
      <trkpt lat="39.172234" lon="-1.915949">
        <ele>656.680862</ele>
        <time>2021-10-28T11:21:38.000Z</time>
      </trkpt>
      <trkpt lat="39.172242" lon="-1.915873">
        <ele>656.594477</ele>
        <time>2021-10-28T11:21:39.000Z</time>
      </trkpt>
      <trkpt lat="39.172251" lon="-1.915794">
        <ele>656.504543</ele>
        <time>2021-10-28T11:21:40.000Z</time>
      </trkpt>
      <trkpt lat="39.172259" lon="-1.915714">
        <ele>656.413692</ele>
        <time>2021-10-28T11:21:41.000Z</time>
      </trkpt>
      <trkpt lat="39.172266" lon="-1.915634">
        <ele>656.389906</ele>
        <time>2021-10-28T11:21:42.000Z</time>
      </trkpt>
      <trkpt lat="39.172292" lon="-1.915315">
        <ele>656.308630</ele>
        <time>2021-10-28T11:21:46.000Z</time>
      </trkpt>
      <trkpt lat="39.172308" lon="-1.915076">
        <ele>656.247845</ele>
        <time>2021-10-28T11:21:49.000Z</time>
      </trkpt>
      <trkpt lat="39.172321" lon="-1.914921">
        <ele>656.208341</ele>
        <time>2021-10-28T11:21:51.000Z</time>
      </trkpt>
      <trkpt lat="39.172327" lon="-1.914843">
        <ele>656.188480</ele>
        <time>2021-10-28T11:21:52.000Z</time>
      </trkpt>
      <trkpt lat="39.172334" lon="-1.914764">
        <ele>656.168332</ele>
        <time>2021-10-28T11:21:53.000Z</time>
      </trkpt>
      <trkpt lat="39.172342" lon="-1.914684">
        <ele>656.147893</ele>
        <time>2021-10-28T11:21:54.000Z</time>
      </trkpt>
      <trkpt lat="39.172358" lon="-1.914533">
        <ele>656.109276</ele>
        <time>2021-10-28T11:21:56.000Z</time>
      </trkpt>
      <trkpt lat="39.172437" lon="-1.914112">
        <ele>655.999520</ele>
        <time>2021-10-28T11:22:02.000Z</time>
      </trkpt>
      <trkpt lat="39.172541" lon="-1.913840">
        <ele>655.922672</ele>
        <time>2021-10-28T11:22:06.000Z</time>
      </trkpt>
      <trkpt lat="39.172597" lon="-1.913706">
        <ele>655.884100</ele>
        <time>2021-10-28T11:22:08.000Z</time>
      </trkpt>
      <trkpt lat="39.172620" lon="-1.913632">
        <ele>655.863898</ele>
        <time>2021-10-28T11:22:09.000Z</time>
      </trkpt>
      <trkpt lat="39.172639" lon="-1.913473">
        <ele>655.823134</ele>
        <time>2021-10-28T11:22:11.000Z</time>
      </trkpt>
      <trkpt lat="39.172634" lon="-1.913395">
        <ele>655.900228</ele>
        <time>2021-10-28T11:22:12.000Z</time>
      </trkpt>
      <trkpt lat="39.172530" lon="-1.913009">
        <ele>656.349882</ele>
        <time>2021-10-28T11:22:17.000Z</time>
      </trkpt>
      <trkpt lat="39.172451" lon="-1.912780">
        <ele>656.625684</ele>
        <time>2021-10-28T11:22:20.000Z</time>
      </trkpt>
      <trkpt lat="39.172401" lon="-1.912546">
        <ele>656.892767</ele>
        <time>2021-10-28T11:22:23.000Z</time>
      </trkpt>
      <trkpt lat="39.172330" lon="-1.912105">
        <ele>657.388376</ele>
        <time>2021-10-28T11:22:29.000Z</time>
      </trkpt>
      <trkpt lat="39.172317" lon="-1.911960">
        <ele>657.548990</ele>
        <time>2021-10-28T11:22:31.000Z</time>
      </trkpt>
      <trkpt lat="39.172293" lon="-1.911818">
        <ele>657.708911</ele>
        <time>2021-10-28T11:22:33.000Z</time>
      </trkpt>
      <trkpt lat="39.172270" lon="-1.911679">
        <ele>657.865305</ele>
        <time>2021-10-28T11:22:35.000Z</time>
      </trkpt>
      <trkpt lat="39.172259" lon="-1.911531">
        <ele>658.028904</ele>
        <time>2021-10-28T11:22:37.000Z</time>
      </trkpt>
      <trkpt lat="39.172209" lon="-1.911243">
        <ele>658.353655</ele>
        <time>2021-10-28T11:22:41.000Z</time>
      </trkpt>
      <trkpt lat="39.172120" lon="-1.910726">
        <ele>657.521326</ele>
        <time>2021-10-28T11:22:48.000Z</time>
      </trkpt>
      <trkpt lat="39.172068" lon="-1.910413">
        <ele>656.986735</ele>
        <time>2021-10-28T11:22:52.000Z</time>
      </trkpt>
      <trkpt lat="39.172048" lon="-1.910335">
        <ele>656.849532</ele>
        <time>2021-10-28T11:22:53.000Z</time>
      </trkpt>
      <trkpt lat="39.172030" lon="-1.910257">
        <ele>656.713620</ele>
        <time>2021-10-28T11:22:54.000Z</time>
      </trkpt>
      <trkpt lat="39.172017" lon="-1.910175">
        <ele>656.573842</ele>
        <time>2021-10-28T11:22:55.000Z</time>
      </trkpt>
      <trkpt lat="39.172002" lon="-1.909930">
        <ele>656.163407</ele>
        <time>2021-10-28T11:22:58.000Z</time>
      </trkpt>
      <trkpt lat="39.172015" lon="-1.909774">
        <ele>655.901379</ele>
        <time>2021-10-28T11:23:00.000Z</time>
      </trkpt>
      <trkpt lat="39.172091" lon="-1.909390">
        <ele>655.239514</ele>
        <time>2021-10-28T11:23:05.000Z</time>
      </trkpt>
      <trkpt lat="39.172130" lon="-1.909239">
        <ele>654.973711</ele>
        <time>2021-10-28T11:23:07.000Z</time>
      </trkpt>
      <trkpt lat="39.172141" lon="-1.909161">
        <ele>654.841310</ele>
        <time>2021-10-28T11:23:08.000Z</time>
      </trkpt>
      <trkpt lat="39.172148" lon="-1.909082">
        <ele>654.708518</ele>
        <time>2021-10-28T11:23:09.000Z</time>
      </trkpt>
      <trkpt lat="39.172133" lon="-1.908924">
        <ele>654.527801</ele>
        <time>2021-10-28T11:23:11.000Z</time>
      </trkpt>
      <trkpt lat="39.172006" lon="-1.908551">
        <ele>654.862573</ele>
        <time>2021-10-28T11:23:16.000Z</time>
      </trkpt>
      <trkpt lat="39.171969" lon="-1.908482">
        <ele>654.931517</ele>
        <time>2021-10-28T11:23:17.000Z</time>
      </trkpt>
      <trkpt lat="39.171841" lon="-1.908297">
        <ele>655.135281</ele>
        <time>2021-10-28T11:23:20.000Z</time>
      </trkpt>
      <trkpt lat="39.171782" lon="-1.908161">
        <ele>655.263348</ele>
        <time>2021-10-28T11:23:22.000Z</time>
      </trkpt>
      <trkpt lat="39.171754" lon="-1.907925">
        <ele>655.459540</ele>
        <time>2021-10-28T11:23:26.000Z</time>
      </trkpt>
      <trkpt lat="39.171757" lon="-1.907887">
        <ele>655.490929</ele>
        <time>2021-10-28T11:23:27.000Z</time>
      </trkpt>
      <trkpt lat="39.171783" lon="-1.907819">
        <ele>655.553235</ele>
        <time>2021-10-28T11:23:29.000Z</time>
      </trkpt>
      <trkpt lat="39.171810" lon="-1.907786">
        <ele>655.592661</ele>
        <time>2021-10-28T11:23:30.000Z</time>
      </trkpt>
      <trkpt lat="39.171878" lon="-1.907718">
        <ele>655.683863</ele>
        <time>2021-10-28T11:23:32.000Z</time>
      </trkpt>
      <trkpt lat="39.171975" lon="-1.907579">
        <ele>655.837547</ele>
        <time>2021-10-28T11:23:35.000Z</time>
      </trkpt>
      <trkpt lat="39.172059" lon="-1.907417">
        <ele>655.997703</ele>
        <time>2021-10-28T11:23:38.000Z</time>
      </trkpt>
      <trkpt lat="39.172128" lon="-1.907232">
        <ele>656.166406</ele>
        <time>2021-10-28T11:23:41.000Z</time>
      </trkpt>
      <trkpt lat="39.172147" lon="-1.907166">
        <ele>656.224260</ele>
        <time>2021-10-28T11:23:42.000Z</time>
      </trkpt>
      <trkpt lat="39.172160" lon="-1.907021">
        <ele>656.344208</ele>
        <time>2021-10-28T11:23:44.000Z</time>
      </trkpt>
      <trkpt lat="39.172104" lon="-1.906653">
        <ele>656.673115</ele>
        <time>2021-10-28T11:23:49.000Z</time>
      </trkpt>
      <trkpt lat="39.172092" lon="-1.906574">
        <ele>656.744840</ele>
        <time>2021-10-28T11:23:50.000Z</time>
      </trkpt>
      <trkpt lat="39.172046" lon="-1.906344">
        <ele>656.956472</ele>
        <time>2021-10-28T11:23:53.000Z</time>
      </trkpt>
      <trkpt lat="39.171996" lon="-1.906212">
        <ele>657.087368</ele>
        <time>2021-10-28T11:23:55.000Z</time>
      </trkpt>
      <trkpt lat="39.171758" lon="-1.905823">
        <ele>657.528886</ele>
        <time>2021-10-28T11:24:02.000Z</time>
      </trkpt>
      <trkpt lat="39.171731" lon="-1.905763">
        <ele>657.590698</ele>
        <time>2021-10-28T11:24:03.000Z</time>
      </trkpt>
      <trkpt lat="39.171683" lon="-1.905637">
        <ele>657.715782</ele>
        <time>2021-10-28T11:24:05.000Z</time>
      </trkpt>
      <trkpt lat="39.171604" lon="-1.905443">
        <ele>657.911025</ele>
        <time>2021-10-28T11:24:08.000Z</time>
      </trkpt>
      <trkpt lat="39.171494" lon="-1.905195">
        <ele>658.165595</ele>
        <time>2021-10-28T11:24:12.000Z</time>
      </trkpt>
      <trkpt lat="39.171452" lon="-1.905068">
        <ele>658.288615</ele>
        <time>2021-10-28T11:24:14.000Z</time>
      </trkpt>
      <trkpt lat="39.171366" lon="-1.904665">
        <ele>658.422906</ele>
        <time>2021-10-28T11:24:20.000Z</time>
      </trkpt>
      <trkpt lat="39.171319" lon="-1.904234">
        <ele>658.318622</ele>
        <time>2021-10-28T11:24:26.000Z</time>
      </trkpt>
      <trkpt lat="39.171301" lon="-1.904094">
        <ele>658.284620</ele>
        <time>2021-10-28T11:24:28.000Z</time>
      </trkpt>
      <trkpt lat="39.171272" lon="-1.903890">
        <ele>658.234926</ele>
        <time>2021-10-28T11:24:31.000Z</time>
      </trkpt>
      <trkpt lat="39.171240" lon="-1.903683">
        <ele>658.184352</ele>
        <time>2021-10-28T11:24:34.000Z</time>
      </trkpt>
      <trkpt lat="39.171207" lon="-1.903473">
        <ele>658.133013</ele>
        <time>2021-10-28T11:24:37.000Z</time>
      </trkpt>
      <trkpt lat="39.171149" lon="-1.903269">
        <ele>658.080951</ele>
        <time>2021-10-28T11:24:40.000Z</time>
      </trkpt>
      <trkpt lat="39.171133" lon="-1.903197">
        <ele>658.063005</ele>
        <time>2021-10-28T11:24:41.000Z</time>
      </trkpt>
      <trkpt lat="39.171119" lon="-1.902970">
        <ele>658.008444</ele>
        <time>2021-10-28T11:24:44.000Z</time>
      </trkpt>
      <trkpt lat="39.171068" lon="-1.902541">
        <ele>657.854385</ele>
        <time>2021-10-28T11:24:50.000Z</time>
      </trkpt>
      <trkpt lat="39.171057" lon="-1.902470">
        <ele>657.770393</ele>
        <time>2021-10-28T11:24:51.000Z</time>
      </trkpt>
      <trkpt lat="39.171005" lon="-1.902115">
        <ele>657.351290</ele>
        <time>2021-10-28T11:24:56.000Z</time>
      </trkpt>
      <trkpt lat="39.170963" lon="-1.901901">
        <ele>657.095208</ele>
        <time>2021-10-28T11:24:59.000Z</time>
      </trkpt>
      <trkpt lat="39.170933" lon="-1.901751">
        <ele>656.915504</ele>
        <time>2021-10-28T11:25:01.000Z</time>
      </trkpt>
      <trkpt lat="39.170885" lon="-1.901512">
        <ele>656.629100</ele>
        <time>2021-10-28T11:25:04.000Z</time>
      </trkpt>
      <trkpt lat="39.170867" lon="-1.901427">
        <ele>656.526883</ele>
        <time>2021-10-28T11:25:05.000Z</time>
      </trkpt>
      <trkpt lat="39.170849" lon="-1.901340">
        <ele>656.422426</ele>
        <time>2021-10-28T11:25:06.000Z</time>
      </trkpt>
      <trkpt lat="39.170816" lon="-1.901165">
        <ele>656.213498</ele>
        <time>2021-10-28T11:25:08.000Z</time>
      </trkpt>
      <trkpt lat="39.170779" lon="-1.900827">
        <ele>655.817511</ele>
        <time>2021-10-28T11:25:12.000Z</time>
      </trkpt>
      <trkpt lat="39.170738" lon="-1.900471">
        <ele>655.400001</ele>
        <time>2021-10-28T11:25:17.000Z</time>
      </trkpt>
      <trkpt lat="39.170713" lon="-1.900334">
        <ele>655.236730</ele>
        <time>2021-10-28T11:25:19.000Z</time>
      </trkpt>
      <trkpt lat="39.170605" lon="-1.899704">
        <ele>655.385686</ele>
        <time>2021-10-28T11:25:28.000Z</time>
      </trkpt>
      <trkpt lat="39.170580" lon="-1.899338">
        <ele>655.477850</ele>
        <time>2021-10-28T11:25:33.000Z</time>
      </trkpt>
      <trkpt lat="39.170571" lon="-1.899259">
        <ele>655.497879</ele>
        <time>2021-10-28T11:25:34.000Z</time>
      </trkpt>
      <trkpt lat="39.170556" lon="-1.899182">
        <ele>655.517795</ele>
        <time>2021-10-28T11:25:35.000Z</time>
      </trkpt>
      <trkpt lat="39.170535" lon="-1.899107">
        <ele>655.537797</ele>
        <time>2021-10-28T11:25:36.000Z</time>
      </trkpt>
      <trkpt lat="39.170472" lon="-1.898973">
        <ele>655.577108</ele>
        <time>2021-10-28T11:25:38.000Z</time>
      </trkpt>
      <trkpt lat="39.170434" lon="-1.898912">
        <ele>655.596737</ele>
        <time>2021-10-28T11:25:39.000Z</time>
      </trkpt>
      <trkpt lat="39.170390" lon="-1.898856">
        <ele>655.616737</ele>
        <time>2021-10-28T11:25:40.000Z</time>
      </trkpt>
      <trkpt lat="39.170188" lon="-1.898658">
        <ele>655.698826</ele>
        <time>2021-10-28T11:25:44.000Z</time>
      </trkpt>
      <trkpt lat="39.169923" lon="-1.898352">
        <ele>655.802463</ele>
        <time>2021-10-28T11:25:50.000Z</time>
      </trkpt>
      <trkpt lat="39.169795" lon="-1.898204">
        <ele>655.748636</ele>
        <time>2021-10-28T11:25:53.000Z</time>
      </trkpt>
      <trkpt lat="39.169773" lon="-1.898140">
        <ele>655.731640</ele>
        <time>2021-10-28T11:25:54.000Z</time>
      </trkpt>
      <trkpt lat="39.169765" lon="-1.898072">
        <ele>655.714943</ele>
        <time>2021-10-28T11:25:55.000Z</time>
      </trkpt>
      <trkpt lat="39.169794" lon="-1.897931">
        <ele>655.679529</ele>
        <time>2021-10-28T11:25:57.000Z</time>
      </trkpt>
      <trkpt lat="39.169930" lon="-1.897557">
        <ele>655.579244</ele>
        <time>2021-10-28T11:26:03.000Z</time>
      </trkpt>
      <trkpt lat="39.169998" lon="-1.897429">
        <ele>655.541574</ele>
        <time>2021-10-28T11:26:05.000Z</time>
      </trkpt>
      <trkpt lat="39.170086" lon="-1.897329">
        <ele>655.504850</ele>
        <time>2021-10-28T11:26:07.000Z</time>
      </trkpt>
      <trkpt lat="39.170387" lon="-1.897131">
        <ele>655.399048</ele>
        <time>2021-10-28T11:26:13.000Z</time>
      </trkpt>
      <trkpt lat="39.170576" lon="-1.897027">
        <ele>655.334705</ele>
        <time>2021-10-28T11:26:17.000Z</time>
      </trkpt>
      <trkpt lat="39.170619" lon="-1.896985">
        <ele>655.317816</ele>
        <time>2021-10-28T11:26:18.000Z</time>
      </trkpt>
      <trkpt lat="39.170654" lon="-1.896928">
        <ele>655.300164</ele>
        <time>2021-10-28T11:26:19.000Z</time>
      </trkpt>
      <trkpt lat="39.170697" lon="-1.896787">
        <ele>655.263381</ele>
        <time>2021-10-28T11:26:21.000Z</time>
      </trkpt>
      <trkpt lat="39.170751" lon="-1.896480">
        <ele>655.214382</ele>
        <time>2021-10-28T11:26:25.000Z</time>
      </trkpt>
      <trkpt lat="39.170751" lon="-1.896396">
        <ele>655.203645</ele>
        <time>2021-10-28T11:26:26.000Z</time>
      </trkpt>
      <trkpt lat="39.170742" lon="-1.896313">
        <ele>655.192933</ele>
        <time>2021-10-28T11:26:27.000Z</time>
      </trkpt>
      <trkpt lat="39.170689" lon="-1.896165">
        <ele>655.172095</ele>
        <time>2021-10-28T11:26:29.000Z</time>
      </trkpt>
      <trkpt lat="39.170594" lon="-1.895966">
        <ele>655.142224</ele>
        <time>2021-10-28T11:26:32.000Z</time>
      </trkpt>
      <trkpt lat="39.170568" lon="-1.895819">
        <ele>655.122952</ele>
        <time>2021-10-28T11:26:34.000Z</time>
      </trkpt>
      <trkpt lat="39.170573" lon="-1.895666">
        <ele>655.103378</ele>
        <time>2021-10-28T11:26:36.000Z</time>
      </trkpt>
      <trkpt lat="39.170613" lon="-1.895446">
        <ele>655.074495</ele>
        <time>2021-10-28T11:26:39.000Z</time>
      </trkpt>
      <trkpt lat="39.170636" lon="-1.895376">
        <ele>655.064777</ele>
        <time>2021-10-28T11:26:40.000Z</time>
      </trkpt>
      <trkpt lat="39.170702" lon="-1.895250">
        <ele>655.045341</ele>
        <time>2021-10-28T11:26:42.000Z</time>
      </trkpt>
      <trkpt lat="39.170740" lon="-1.895190">
        <ele>655.035438</ele>
        <time>2021-10-28T11:26:43.000Z</time>
      </trkpt>
      <trkpt lat="39.170780" lon="-1.895134">
        <ele>655.025705</ele>
        <time>2021-10-28T11:26:44.000Z</time>
      </trkpt>
      <trkpt lat="39.170909" lon="-1.894979">
        <ele>654.996639</ele>
        <time>2021-10-28T11:26:47.000Z</time>
      </trkpt>
      <trkpt lat="39.170941" lon="-1.894919">
        <ele>654.987331</ele>
        <time>2021-10-28T11:26:48.000Z</time>
      </trkpt>
      <trkpt lat="39.170963" lon="-1.894852">
        <ele>654.978030</ele>
        <time>2021-10-28T11:26:49.000Z</time>
      </trkpt>
      <trkpt lat="39.170996" lon="-1.894634">
        <ele>654.949640</ele>
        <time>2021-10-28T11:26:52.000Z</time>
      </trkpt>
      <trkpt lat="39.171009" lon="-1.894135">
        <ele>654.826224</ele>
        <time>2021-10-28T11:26:59.000Z</time>
      </trkpt>
      <trkpt lat="39.170973" lon="-1.893846">
        <ele>654.753140</ele>
        <time>2021-10-28T11:27:03.000Z</time>
      </trkpt>
      <trkpt lat="39.170983" lon="-1.893698">
        <ele>654.716048</ele>
        <time>2021-10-28T11:27:05.000Z</time>
      </trkpt>
      <trkpt lat="39.170992" lon="-1.893541">
        <ele>654.676741</ele>
        <time>2021-10-28T11:27:07.000Z</time>
      </trkpt>
      <trkpt lat="39.170967" lon="-1.893307">
        <ele>654.617763</ele>
        <time>2021-10-28T11:27:10.000Z</time>
      </trkpt>
      <trkpt lat="39.170932" lon="-1.892996">
        <ele>654.539298</ele>
        <time>2021-10-28T11:27:14.000Z</time>
      </trkpt>
      <trkpt lat="39.170897" lon="-1.892844">
        <ele>654.499708</ele>
        <time>2021-10-28T11:27:16.000Z</time>
      </trkpt>
      <trkpt lat="39.170878" lon="-1.892782">
        <ele>654.483062</ele>
        <time>2021-10-28T11:27:17.000Z</time>
      </trkpt>
      <trkpt lat="39.170799" lon="-1.892600">
        <ele>654.430982</ele>
        <time>2021-10-28T11:27:20.000Z</time>
      </trkpt>
      <trkpt lat="39.170706" lon="-1.892348">
        <ele>654.383785</ele>
        <time>2021-10-28T11:27:24.000Z</time>
      </trkpt>
      <trkpt lat="39.170674" lon="-1.892290">
        <ele>654.417473</ele>
        <time>2021-10-28T11:27:25.000Z</time>
      </trkpt>
      <trkpt lat="39.170642" lon="-1.892233">
        <ele>654.450777</ele>
        <time>2021-10-28T11:27:26.000Z</time>
      </trkpt>
      <trkpt lat="39.170606" lon="-1.892103">
        <ele>654.516105</ele>
        <time>2021-10-28T11:27:28.000Z</time>
      </trkpt>
      <trkpt lat="39.170595" lon="-1.892034">
        <ele>654.549441</ele>
        <time>2021-10-28T11:27:29.000Z</time>
      </trkpt>
      <trkpt lat="39.170572" lon="-1.891971">
        <ele>654.582395</ele>
        <time>2021-10-28T11:27:30.000Z</time>
      </trkpt>
      <trkpt lat="39.170475" lon="-1.891782">
        <ele>654.689659</ele>
        <time>2021-10-28T11:27:33.000Z</time>
      </trkpt>
      <trkpt lat="39.170404" lon="-1.891640">
        <ele>654.769622</ele>
        <time>2021-10-28T11:27:35.000Z</time>
      </trkpt>
      <trkpt lat="39.170369" lon="-1.891570">
        <ele>654.809041</ele>
        <time>2021-10-28T11:27:36.000Z</time>
      </trkpt>
      <trkpt lat="39.170321" lon="-1.891436">
        <ele>654.878896</ele>
        <time>2021-10-28T11:27:38.000Z</time>
      </trkpt>
      <trkpt lat="39.170309" lon="-1.891372">
        <ele>654.910056</ele>
        <time>2021-10-28T11:27:39.000Z</time>
      </trkpt>
      <trkpt lat="39.170299" lon="-1.891184">
        <ele>654.999234</ele>
        <time>2021-10-28T11:27:42.000Z</time>
      </trkpt>
      <trkpt lat="39.170307" lon="-1.891118">
        <ele>655.030847</ele>
        <time>2021-10-28T11:27:43.000Z</time>
      </trkpt>
      <trkpt lat="39.170359" lon="-1.890856">
        <ele>655.158834</ele>
        <time>2021-10-28T11:27:47.000Z</time>
      </trkpt>
      <trkpt lat="39.170361" lon="-1.890726">
        <ele>655.220367</ele>
        <time>2021-10-28T11:27:49.000Z</time>
      </trkpt>
      <trkpt lat="39.170358" lon="-1.890598">
        <ele>655.280968</ele>
        <time>2021-10-28T11:27:51.000Z</time>
      </trkpt>
      <trkpt lat="39.170336" lon="-1.890325">
        <ele>655.410858</ele>
        <time>2021-10-28T11:27:55.000Z</time>
      </trkpt>
      <trkpt lat="39.170325" lon="-1.890183">
        <ele>655.467858</ele>
        <time>2021-10-28T11:27:57.000Z</time>
      </trkpt>
      <trkpt lat="39.170261" lon="-1.889808">
        <ele>655.481833</ele>
        <time>2021-10-28T11:28:02.000Z</time>
      </trkpt>
      <trkpt lat="39.170232" lon="-1.889663">
        <ele>655.487282</ele>
        <time>2021-10-28T11:28:04.000Z</time>
      </trkpt>
      <trkpt lat="39.170190" lon="-1.889374">
        <ele>655.497983</ele>
        <time>2021-10-28T11:28:08.000Z</time>
      </trkpt>
      <trkpt lat="39.170175" lon="-1.889301">
        <ele>655.500732</ele>
        <time>2021-10-28T11:28:09.000Z</time>
      </trkpt>
      <trkpt lat="39.170123" lon="-1.889018">
        <ele>655.511316</ele>
        <time>2021-10-28T11:28:13.000Z</time>
      </trkpt>
      <trkpt lat="39.170106" lon="-1.888855">
        <ele>655.517302</ele>
        <time>2021-10-28T11:28:16.000Z</time>
      </trkpt>
      <trkpt lat="39.170098" lon="-1.888819">
        <ele>655.518665</ele>
        <time>2021-10-28T11:28:19.000Z</time>
      </trkpt>
      <trkpt lat="39.170097" lon="-1.888817">
        <ele>655.518751</ele>
        <time>2021-10-28T11:28:20.000Z</time>
      </trkpt>
      <trkpt lat="39.170097" lon="-1.888819">
        <ele>655.518824</ele>
        <time>2021-10-28T11:28:22.000Z</time>
      </trkpt>
      <trkpt lat="39.170099" lon="-1.888820">
        <ele>655.518925</ele>
        <time>2021-10-28T11:28:27.000Z</time>
      </trkpt>
      <trkpt lat="39.170101" lon="-1.888825">
        <ele>655.519129</ele>
        <time>2021-10-28T11:28:34.000Z</time>
      </trkpt>
      <trkpt lat="39.170102" lon="-1.888822">
        <ele>655.519248</ele>
        <time>2021-10-28T11:28:40.000Z</time>
      </trkpt>
      <trkpt lat="39.170101" lon="-1.888822">
        <ele>655.519295</ele>
        <time>2021-10-28T11:28:43.000Z</time>
      </trkpt>
      <trkpt lat="39.170099" lon="-1.888823">
        <ele>655.519396</ele>
        <time>2021-10-28T11:28:46.000Z</time>
      </trkpt>
      <trkpt lat="39.170092" lon="-1.888843">
        <ele>655.520195</ele>
        <time>2021-10-28T11:28:49.000Z</time>
      </trkpt>
      <trkpt lat="39.170092" lon="-1.888848">
        <ele>655.520377</ele>
        <time>2021-10-28T11:28:50.000Z</time>
      </trkpt>
      <trkpt lat="39.170092" lon="-1.888864">
        <ele>655.520959</ele>
        <time>2021-10-28T11:28:52.000Z</time>
      </trkpt>
      <trkpt lat="39.170090" lon="-1.888877">
        <ele>655.521441</ele>
        <time>2021-10-28T11:28:54.000Z</time>
      </trkpt>
      <trkpt lat="39.170092" lon="-1.888890">
        <ele>655.521923</ele>
        <time>2021-10-28T11:28:56.000Z</time>
      </trkpt>
      <trkpt lat="39.170110" lon="-1.888883">
        <ele>655.522806</ele>
        <time>2021-10-28T11:29:01.000Z</time>
      </trkpt>
      <trkpt lat="39.170116" lon="-1.888870">
        <ele>655.523357</ele>
        <time>2021-10-28T11:29:03.000Z</time>
      </trkpt>
      <trkpt lat="39.170117" lon="-1.888855">
        <ele>655.523905</ele>
        <time>2021-10-28T11:29:04.000Z</time>
      </trkpt>
      <trkpt lat="39.170106" lon="-1.888812">
        <ele>655.525552</ele>
        <time>2021-10-28T11:29:06.000Z</time>
      </trkpt>
      <trkpt lat="39.170087" lon="-1.888702">
        <ele>655.529654</ele>
        <time>2021-10-28T11:29:12.000Z</time>
      </trkpt>
      <trkpt lat="39.170076" lon="-1.888701">
        <ele>655.530171</ele>
        <time>2021-10-28T11:29:16.000Z</time>
      </trkpt>
      <trkpt lat="39.170087" lon="-1.888743">
        <ele>655.531785</ele>
        <time>2021-10-28T11:29:23.000Z</time>
      </trkpt>
      <trkpt lat="39.170078" lon="-1.888750">
        <ele>655.532278</ele>
        <time>2021-10-28T11:29:26.000Z</time>
      </trkpt>
      <trkpt lat="39.170079" lon="-1.888742">
        <ele>655.532573</ele>
        <time>2021-10-28T11:29:33.000Z</time>
      </trkpt>
      <trkpt lat="39.170089" lon="-1.888728">
        <ele>655.533266</ele>
        <time>2021-10-28T11:29:41.000Z</time>
      </trkpt>
      <trkpt lat="39.170084" lon="-1.888741">
        <ele>655.533794</ele>
        <time>2021-10-28T11:29:46.000Z</time>
      </trkpt>
      <trkpt lat="39.170086" lon="-1.888740">
        <ele>655.533895</ele>
        <time>2021-10-28T11:29:49.000Z</time>
      </trkpt>
      <trkpt lat="39.170084" lon="-1.888739">
        <ele>655.533995</ele>
        <time>2021-10-28T11:29:50.000Z</time>
      </trkpt>
      <trkpt lat="39.170080" lon="-1.888737">
        <ele>655.534197</ele>
        <time>2021-10-28T11:29:52.000Z</time>
      </trkpt>
      <trkpt lat="39.170079" lon="-1.888736">
        <ele>655.534256</ele>
        <time>2021-10-28T11:29:54.000Z</time>
      </trkpt>
      <trkpt lat="39.170078" lon="-1.888728">
        <ele>655.534551</ele>
        <time>2021-10-28T11:29:58.000Z</time>
      </trkpt>
      <trkpt lat="39.170058" lon="-1.888778">
        <ele>655.536599</ele>
        <time>2021-10-28T11:30:02.000Z</time>
      </trkpt>
      <trkpt lat="39.170036" lon="-1.888813">
        <ele>655.538238</ele>
        <time>2021-10-28T11:30:08.000Z</time>
      </trkpt>
      <trkpt lat="39.170059" lon="-1.888792">
        <ele>655.539561</ele>
        <time>2021-10-28T11:30:13.000Z</time>
      </trkpt>
      <trkpt lat="39.170061" lon="-1.888779">
        <ele>655.540044</ele>
        <time>2021-10-28T11:30:14.000Z</time>
      </trkpt>
      <trkpt lat="39.170068" lon="-1.888742">
        <ele>655.541430</ele>
        <time>2021-10-28T11:30:19.000Z</time>
      </trkpt>
      <trkpt lat="39.170073" lon="-1.888731">
        <ele>655.541894</ele>
        <time>2021-10-28T11:30:21.000Z</time>
      </trkpt>
      <trkpt lat="39.170077" lon="-1.888717">
        <ele>655.542437</ele>
        <time>2021-10-28T11:30:22.000Z</time>
      </trkpt>
      <trkpt lat="39.170067" lon="-1.888613">
        <ele>655.546251</ele>
        <time>2021-10-28T11:30:26.000Z</time>
      </trkpt>
      <trkpt lat="39.170036" lon="-1.888388">
        <ele>655.505370</ele>
        <time>2021-10-28T11:30:31.000Z</time>
      </trkpt>
      <trkpt lat="39.169953" lon="-1.888106">
        <ele>655.345118</ele>
        <time>2021-10-28T11:30:36.000Z</time>
      </trkpt>
      <trkpt lat="39.169930" lon="-1.888039">
        <ele>655.306189</ele>
        <time>2021-10-28T11:30:37.000Z</time>
      </trkpt>
      <trkpt lat="39.169906" lon="-1.887966">
        <ele>655.264063</ele>
        <time>2021-10-28T11:30:38.000Z</time>
      </trkpt>
      <trkpt lat="39.169808" lon="-1.887619">
        <ele>655.067860</ele>
        <time>2021-10-28T11:30:43.000Z</time>
      </trkpt>
      <trkpt lat="39.169769" lon="-1.887441">
        <ele>654.969589</ele>
        <time>2021-10-28T11:30:46.000Z</time>
      </trkpt>
      <trkpt lat="39.169697" lon="-1.887173">
        <ele>654.818900</ele>
        <time>2021-10-28T11:30:51.000Z</time>
      </trkpt>
      <trkpt lat="39.169555" lon="-1.886783">
        <ele>654.589990</ele>
        <time>2021-10-28T11:30:58.000Z</time>
      </trkpt>
      <trkpt lat="39.169531" lon="-1.886731">
        <ele>654.557839</ele>
        <time>2021-10-28T11:30:59.000Z</time>
      </trkpt>
      <trkpt lat="39.169458" lon="-1.886569">
        <ele>654.458290</ele>
        <time>2021-10-28T11:31:02.000Z</time>
      </trkpt>
      <trkpt lat="39.169428" lon="-1.886511">
        <ele>654.421248</ele>
        <time>2021-10-28T11:31:03.000Z</time>
      </trkpt>
      <trkpt lat="39.169373" lon="-1.886384">
        <ele>654.343962</ele>
        <time>2021-10-28T11:31:05.000Z</time>
      </trkpt>
      <trkpt lat="39.169354" lon="-1.886317">
        <ele>654.336798</ele>
        <time>2021-10-28T11:31:06.000Z</time>
      </trkpt>
      <trkpt lat="39.169336" lon="-1.886250">
        <ele>654.389622</ele>
        <time>2021-10-28T11:31:07.000Z</time>
      </trkpt>
      <trkpt lat="39.169231" lon="-1.885843">
        <ele>654.709170</ele>
        <time>2021-10-28T11:31:13.000Z</time>
      </trkpt>
      <trkpt lat="39.169187" lon="-1.885625">
        <ele>654.876986</ele>
        <time>2021-10-28T11:31:16.000Z</time>
      </trkpt>
      <trkpt lat="39.169178" lon="-1.885467">
        <ele>654.995008</ele>
        <time>2021-10-28T11:31:18.000Z</time>
      </trkpt>
      <trkpt lat="39.169181" lon="-1.885387">
        <ele>655.054675</ele>
        <time>2021-10-28T11:31:19.000Z</time>
      </trkpt>
      <trkpt lat="39.169185" lon="-1.885310">
        <ele>655.112166</ele>
        <time>2021-10-28T11:31:20.000Z</time>
      </trkpt>
      <trkpt lat="39.169204" lon="-1.885098">
        <ele>655.271151</ele>
        <time>2021-10-28T11:31:23.000Z</time>
      </trkpt>
      <trkpt lat="39.169229" lon="-1.884972">
        <ele>655.368042</ele>
        <time>2021-10-28T11:31:25.000Z</time>
      </trkpt>
      <trkpt lat="39.169242" lon="-1.884913">
        <ele>655.413735</ele>
        <time>2021-10-28T11:31:26.000Z</time>
      </trkpt>
      <trkpt lat="39.169251" lon="-1.884854">
        <ele>655.458531</ele>
        <time>2021-10-28T11:31:27.000Z</time>
      </trkpt>
      <trkpt lat="39.169259" lon="-1.884794">
        <ele>655.503885</ele>
        <time>2021-10-28T11:31:28.000Z</time>
      </trkpt>
      <trkpt lat="39.169264" lon="-1.884734">
        <ele>655.548841</ele>
        <time>2021-10-28T11:31:29.000Z</time>
      </trkpt>
      <trkpt lat="39.169267" lon="-1.884674">
        <ele>655.593632</ele>
        <time>2021-10-28T11:31:30.000Z</time>
      </trkpt>
      <trkpt lat="39.169267" lon="-1.884613">
        <ele>655.639075</ele>
        <time>2021-10-28T11:31:31.000Z</time>
      </trkpt>
      <trkpt lat="39.169264" lon="-1.884551">
        <ele>655.685352</ele>
        <time>2021-10-28T11:31:32.000Z</time>
      </trkpt>
      <trkpt lat="39.169258" lon="-1.884491">
        <ele>655.730421</ele>
        <time>2021-10-28T11:31:33.000Z</time>
      </trkpt>
      <trkpt lat="39.169252" lon="-1.884433">
        <ele>655.774012</ele>
        <time>2021-10-28T11:31:34.000Z</time>
      </trkpt>
      <trkpt lat="39.169245" lon="-1.884374">
        <ele>655.818476</ele>
        <time>2021-10-28T11:31:35.000Z</time>
      </trkpt>
      <trkpt lat="39.169211" lon="-1.884200">
        <ele>655.952154</ele>
        <time>2021-10-28T11:31:38.000Z</time>
      </trkpt>
      <trkpt lat="39.169161" lon="-1.883975">
        <ele>656.136360</ele>
        <time>2021-10-28T11:31:42.000Z</time>
      </trkpt>
      <trkpt lat="39.169133" lon="-1.883862">
        <ele>656.235693</ele>
        <time>2021-10-28T11:31:44.000Z</time>
      </trkpt>
      <trkpt lat="39.169098" lon="-1.883741">
        <ele>656.343831</ele>
        <time>2021-10-28T11:31:46.000Z</time>
      </trkpt>
      <trkpt lat="39.168951" lon="-1.883362">
        <ele>656.698675</ele>
        <time>2021-10-28T11:31:51.000Z</time>
      </trkpt>
      <trkpt lat="39.168844" lon="-1.883140">
        <ele>656.917556</ele>
        <time>2021-10-28T11:31:54.000Z</time>
      </trkpt>
      <trkpt lat="39.168747" lon="-1.882941">
        <ele>657.114381</ele>
        <time>2021-10-28T11:31:57.000Z</time>
      </trkpt>
      <trkpt lat="39.168720" lon="-1.882872">
        <ele>657.179098</ele>
        <time>2021-10-28T11:31:58.000Z</time>
      </trkpt>
      <trkpt lat="39.168666" lon="-1.882744">
        <ele>657.301117</ele>
        <time>2021-10-28T11:32:00.000Z</time>
      </trkpt>
      <trkpt lat="39.168575" lon="-1.882511">
        <ele>657.519572</ele>
        <time>2021-10-28T11:32:04.000Z</time>
      </trkpt>
      <trkpt lat="39.168559" lon="-1.882451">
        <ele>657.572701</ele>
        <time>2021-10-28T11:32:05.000Z</time>
      </trkpt>
      <trkpt lat="39.168517" lon="-1.882191">
        <ele>657.795082</ele>
        <time>2021-10-28T11:32:09.000Z</time>
      </trkpt>
      <trkpt lat="39.168493" lon="-1.882017">
        <ele>657.943066</ele>
        <time>2021-10-28T11:32:12.000Z</time>
      </trkpt>
      <trkpt lat="39.168484" lon="-1.881957">
        <ele>658.006893</ele>
        <time>2021-10-28T11:32:13.000Z</time>
      </trkpt>
      <trkpt lat="39.168475" lon="-1.881896">
        <ele>658.205112</ele>
        <time>2021-10-28T11:32:14.000Z</time>
      </trkpt>
      <trkpt lat="39.168453" lon="-1.881777">
        <ele>658.595634</ele>
        <time>2021-10-28T11:32:16.000Z</time>
      </trkpt>
      <trkpt lat="39.168439" lon="-1.881715">
        <ele>658.801774</ele>
        <time>2021-10-28T11:32:17.000Z</time>
      </trkpt>
      <trkpt lat="39.168413" lon="-1.881576">
        <ele>659.258221</ele>
        <time>2021-10-28T11:32:19.000Z</time>
      </trkpt>
      <trkpt lat="39.168424" lon="-1.881427">
        <ele>659.736011</ele>
        <time>2021-10-28T11:32:21.000Z</time>
      </trkpt>
      <trkpt lat="39.168461" lon="-1.881288">
        <ele>660.205151</ele>
        <time>2021-10-28T11:32:23.000Z</time>
      </trkpt>
      <trkpt lat="39.168494" lon="-1.881236">
        <ele>660.419664</ele>
        <time>2021-10-28T11:32:24.000Z</time>
      </trkpt>
      <trkpt lat="39.168536" lon="-1.881199">
        <ele>660.629082</ele>
        <time>2021-10-28T11:32:25.000Z</time>
      </trkpt>
      <trkpt lat="39.168582" lon="-1.881170">
        <ele>660.839896</ele>
        <time>2021-10-28T11:32:26.000Z</time>
      </trkpt>
      <trkpt lat="39.168666" lon="-1.881111">
        <ele>661.233714</ele>
        <time>2021-10-28T11:32:28.000Z</time>
      </trkpt>
      <trkpt lat="39.168753" lon="-1.881008">
        <ele>661.719949</ele>
        <time>2021-10-28T11:32:31.000Z</time>
      </trkpt>
      <trkpt lat="39.168810" lon="-1.880899">
        <ele>662.139649</ele>
        <time>2021-10-28T11:32:34.000Z</time>
      </trkpt>
      <trkpt lat="39.168837" lon="-1.880784">
        <ele>662.523214</ele>
        <time>2021-10-28T11:32:37.000Z</time>
      </trkpt>
      <trkpt lat="39.168846" lon="-1.880667">
        <ele>662.898533</ele>
        <time>2021-10-28T11:32:40.000Z</time>
      </trkpt>
      <trkpt lat="39.168846" lon="-1.880551">
        <ele>663.268826</ele>
        <time>2021-10-28T11:32:43.000Z</time>
      </trkpt>
      <trkpt lat="39.168843" lon="-1.880514">
        <ele>663.387581</ele>
        <time>2021-10-28T11:32:44.000Z</time>
      </trkpt>
      <trkpt lat="39.168840" lon="-1.880476">
        <ele>663.509511</ele>
        <time>2021-10-28T11:32:45.000Z</time>
      </trkpt>
      <trkpt lat="39.168837" lon="-1.880438">
        <ele>663.631442</ele>
        <time>2021-10-28T11:32:46.000Z</time>
      </trkpt>
      <trkpt lat="39.168832" lon="-1.880400">
        <ele>663.754479</ele>
        <time>2021-10-28T11:32:47.000Z</time>
      </trkpt>
      <trkpt lat="39.168829" lon="-1.880361">
        <ele>663.879585</ele>
        <time>2021-10-28T11:32:48.000Z</time>
      </trkpt>
      <trkpt lat="39.168825" lon="-1.880323">
        <ele>664.002001</ele>
        <time>2021-10-28T11:32:49.000Z</time>
      </trkpt>
      <trkpt lat="39.168821" lon="-1.880245">
        <ele>664.251536</ele>
        <time>2021-10-28T11:32:51.000Z</time>
      </trkpt>
      <trkpt lat="39.168813" lon="-1.880133">
        <ele>664.610574</ele>
        <time>2021-10-28T11:32:54.000Z</time>
      </trkpt>
      <trkpt lat="39.168810" lon="-1.880025">
        <ele>664.955551</ele>
        <time>2021-10-28T11:32:57.000Z</time>
      </trkpt>
      <trkpt lat="39.168767" lon="-1.879877">
        <ele>665.378487</ele>
        <time>2021-10-28T11:33:01.000Z</time>
      </trkpt>
      <trkpt lat="39.168709" lon="-1.879695">
        <ele>665.213058</ele>
        <time>2021-10-28T11:33:06.000Z</time>
      </trkpt>
      <trkpt lat="39.168717" lon="-1.879652">
        <ele>665.175882</ele>
        <time>2021-10-28T11:33:07.000Z</time>
      </trkpt>
      <trkpt lat="39.168809" lon="-1.879402">
        <ele>664.943233</ele>
        <time>2021-10-28T11:33:12.000Z</time>
      </trkpt>
      <trkpt lat="39.168881" lon="-1.879317">
        <ele>664.837393</ele>
        <time>2021-10-28T11:33:14.000Z</time>
      </trkpt>
      <trkpt lat="39.168973" lon="-1.879238">
        <ele>664.717546</ele>
        <time>2021-10-28T11:33:16.000Z</time>
      </trkpt>
      <trkpt lat="39.169125" lon="-1.879129">
        <ele>664.528962</ele>
        <time>2021-10-28T11:33:19.000Z</time>
      </trkpt>
      <trkpt lat="39.169178" lon="-1.879092">
        <ele>664.463613</ele>
        <time>2021-10-28T11:33:20.000Z</time>
      </trkpt>
      <trkpt lat="39.169230" lon="-1.879054">
        <ele>664.398805</ele>
        <time>2021-10-28T11:33:21.000Z</time>
      </trkpt>
      <trkpt lat="39.169284" lon="-1.879014">
        <ele>664.331280</ele>
        <time>2021-10-28T11:33:22.000Z</time>
      </trkpt>
      <trkpt lat="39.169337" lon="-1.878972">
        <ele>664.263829</ele>
        <time>2021-10-28T11:33:23.000Z</time>
      </trkpt>
      <trkpt lat="39.169391" lon="-1.878930">
        <ele>664.195451</ele>
        <time>2021-10-28T11:33:24.000Z</time>
      </trkpt>
      <trkpt lat="39.169496" lon="-1.878837">
        <ele>664.057333</ele>
        <time>2021-10-28T11:33:26.000Z</time>
      </trkpt>
      <trkpt lat="39.169650" lon="-1.878687">
        <ele>663.848077</ele>
        <time>2021-10-28T11:33:29.000Z</time>
      </trkpt>
      <trkpt lat="39.169748" lon="-1.878578">
        <ele>663.707756</ele>
        <time>2021-10-28T11:33:31.000Z</time>
      </trkpt>
      <trkpt lat="39.169898" lon="-1.878411">
        <ele>663.492891</ele>
        <time>2021-10-28T11:33:34.000Z</time>
      </trkpt>
      <trkpt lat="39.169996" lon="-1.878301">
        <ele>663.300870</ele>
        <time>2021-10-28T11:33:36.000Z</time>
      </trkpt>
      <trkpt lat="39.170044" lon="-1.878249">
        <ele>663.195549</ele>
        <time>2021-10-28T11:33:37.000Z</time>
      </trkpt>
      <trkpt lat="39.170131" lon="-1.878146">
        <ele>662.997131</ele>
        <time>2021-10-28T11:33:39.000Z</time>
      </trkpt>
      <trkpt lat="39.170170" lon="-1.878091">
        <ele>662.900040</ele>
        <time>2021-10-28T11:33:40.000Z</time>
      </trkpt>
      <trkpt lat="39.170380" lon="-1.877789">
        <ele>662.371595</ele>
        <time>2021-10-28T11:33:45.000Z</time>
      </trkpt>
      <trkpt lat="39.170500" lon="-1.877594">
        <ele>662.047291</ele>
        <time>2021-10-28T11:33:48.000Z</time>
      </trkpt>
      <trkpt lat="39.170641" lon="-1.877297">
        <ele>661.593641</ele>
        <time>2021-10-28T11:33:52.000Z</time>
      </trkpt>
      <trkpt lat="39.170711" lon="-1.877153">
        <ele>661.372241</ele>
        <time>2021-10-28T11:33:54.000Z</time>
      </trkpt>
      <trkpt lat="39.170779" lon="-1.877022">
        <ele>661.166882</ele>
        <time>2021-10-28T11:33:56.000Z</time>
      </trkpt>
      <trkpt lat="39.170962" lon="-1.876677">
        <ele>660.622362</ele>
        <time>2021-10-28T11:34:01.000Z</time>
      </trkpt>
      <trkpt lat="39.171051" lon="-1.876452">
        <ele>660.486552</ele>
        <time>2021-10-28T11:34:04.000Z</time>
      </trkpt>
      <trkpt lat="39.171094" lon="-1.876299">
        <ele>660.590402</ele>
        <time>2021-10-28T11:34:06.000Z</time>
      </trkpt>
      <trkpt lat="39.171113" lon="-1.876224">
        <ele>660.640752</ele>
        <time>2021-10-28T11:34:07.000Z</time>
      </trkpt>
      <trkpt lat="39.171145" lon="-1.876069">
        <ele>660.743109</ele>
        <time>2021-10-28T11:34:09.000Z</time>
      </trkpt>
      <trkpt lat="39.171185" lon="-1.875735">
        <ele>660.958770</ele>
        <time>2021-10-28T11:34:13.000Z</time>
      </trkpt>
      <trkpt lat="39.171238" lon="-1.875198">
        <ele>661.304209</ele>
        <time>2021-10-28T11:34:20.000Z</time>
      </trkpt>
      <trkpt lat="39.171240" lon="-1.875131">
        <ele>661.346995</ele>
        <time>2021-10-28T11:34:21.000Z</time>
      </trkpt>
      <trkpt lat="39.171243" lon="-1.874751">
        <ele>661.589495</ele>
        <time>2021-10-28T11:34:27.000Z</time>
      </trkpt>
      <trkpt lat="39.171242" lon="-1.874690">
        <ele>661.628429</ele>
        <time>2021-10-28T11:34:28.000Z</time>
      </trkpt>
      <trkpt lat="39.171230" lon="-1.874504">
        <ele>661.747530</ele>
        <time>2021-10-28T11:34:31.000Z</time>
      </trkpt>
      <trkpt lat="39.171213" lon="-1.874249">
        <ele>661.912479</ele>
        <time>2021-10-28T11:34:35.000Z</time>
      </trkpt>
      <trkpt lat="39.171209" lon="-1.874184">
        <ele>661.963292</ele>
        <time>2021-10-28T11:34:36.000Z</time>
      </trkpt>
      <trkpt lat="39.171205" lon="-1.873697">
        <ele>662.342821</ele>
        <time>2021-10-28T11:34:43.000Z</time>
      </trkpt>
      <trkpt lat="39.171221" lon="-1.873567">
        <ele>662.445396</ele>
        <time>2021-10-28T11:34:45.000Z</time>
      </trkpt>
      <trkpt lat="39.171255" lon="-1.873448">
        <ele>662.544227</ele>
        <time>2021-10-28T11:34:47.000Z</time>
      </trkpt>
      <trkpt lat="39.171285" lon="-1.873394">
        <ele>662.595997</ele>
        <time>2021-10-28T11:34:48.000Z</time>
      </trkpt>
      <trkpt lat="39.171349" lon="-1.873287">
        <ele>662.701312</ele>
        <time>2021-10-28T11:34:50.000Z</time>
      </trkpt>
      <trkpt lat="39.171404" lon="-1.873167">
        <ele>662.809944</ele>
        <time>2021-10-28T11:34:52.000Z</time>
      </trkpt>
      <trkpt lat="39.171445" lon="-1.873041">
        <ele>662.916431</ele>
        <time>2021-10-28T11:34:54.000Z</time>
      </trkpt>
      <trkpt lat="39.171463" lon="-1.872976">
        <ele>662.970219</ele>
        <time>2021-10-28T11:34:55.000Z</time>
      </trkpt>
      <trkpt lat="39.171535" lon="-1.872646">
        <ele>663.237369</ele>
        <time>2021-10-28T11:35:00.000Z</time>
      </trkpt>
      <trkpt lat="39.171636" lon="-1.872125">
        <ele>663.655871</ele>
        <time>2021-10-28T11:35:08.000Z</time>
      </trkpt>
      <trkpt lat="39.171643" lon="-1.871662">
        <ele>663.618559</ele>
        <time>2021-10-28T11:35:15.000Z</time>
      </trkpt>
      <trkpt lat="39.171643" lon="-1.871466">
        <ele>663.572082</ele>
        <time>2021-10-28T11:35:18.000Z</time>
      </trkpt>
      <trkpt lat="39.171644" lon="-1.871400">
        <ele>663.556428</ele>
        <time>2021-10-28T11:35:19.000Z</time>
      </trkpt>
      <trkpt lat="39.171637" lon="-1.871208">
        <ele>663.510849</ele>
        <time>2021-10-28T11:35:22.000Z</time>
      </trkpt>
      <trkpt lat="39.171644" lon="-1.871144">
        <ele>663.495523</ele>
        <time>2021-10-28T11:35:23.000Z</time>
      </trkpt>
      <trkpt lat="39.171658" lon="-1.871084">
        <ele>663.480665</ele>
        <time>2021-10-28T11:35:24.000Z</time>
      </trkpt>
      <trkpt lat="39.171733" lon="-1.870647">
        <ele>663.374531</ele>
        <time>2021-10-28T11:35:31.000Z</time>
      </trkpt>
      <trkpt lat="39.171764" lon="-1.870484">
        <ele>663.334733</ele>
        <time>2021-10-28T11:35:34.000Z</time>
      </trkpt>
      <trkpt lat="39.171780" lon="-1.870309">
        <ele>663.292948</ele>
        <time>2021-10-28T11:35:37.000Z</time>
      </trkpt>
      <trkpt lat="39.171780" lon="-1.870249">
        <ele>663.278721</ele>
        <time>2021-10-28T11:35:38.000Z</time>
      </trkpt>
      <trkpt lat="39.171739" lon="-1.870009">
        <ele>663.220445</ele>
        <time>2021-10-28T11:35:42.000Z</time>
      </trkpt>
      <trkpt lat="39.171689" lon="-1.869683">
        <ele>663.192338</ele>
        <time>2021-10-28T11:35:47.000Z</time>
      </trkpt>
      <trkpt lat="39.171676" lon="-1.869628">
        <ele>663.213858</ele>
        <time>2021-10-28T11:35:48.000Z</time>
      </trkpt>
      <trkpt lat="39.171631" lon="-1.869515">
        <ele>663.261405</ele>
        <time>2021-10-28T11:35:52.000Z</time>
      </trkpt>
      <trkpt lat="39.171625" lon="-1.869509">
        <ele>663.265070</ele>
        <time>2021-10-28T11:35:58.000Z</time>
      </trkpt>
      <trkpt lat="39.171626" lon="-1.869509">
        <ele>663.265552</ele>
        <time>2021-10-28T11:36:03.000Z</time>
      </trkpt>
      <trkpt lat="39.171626" lon="-1.869509">
        <ele>663.265552</ele>
        <time>2021-10-28T11:36:05.000Z</time>
      </trkpt>
      <trkpt lat="39.171625" lon="-1.869510">
        <ele>663.266163</ele>
        <time>2021-10-28T11:36:09.000Z</time>
      </trkpt>
      <trkpt lat="39.171628" lon="-1.869493">
        <ele>663.272689</ele>
        <time>2021-10-28T11:36:20.000Z</time>
      </trkpt>
      <trkpt lat="39.171628" lon="-1.869418">
        <ele>663.300759</ele>
        <time>2021-10-28T11:36:23.000Z</time>
      </trkpt>
      <trkpt lat="39.171634" lon="-1.869328">
        <ele>663.334568</ele>
        <time>2021-10-28T11:36:25.000Z</time>
      </trkpt>
      <trkpt lat="39.171628" lon="-1.869276">
        <ele>663.354244</ele>
        <time>2021-10-28T11:36:26.000Z</time>
      </trkpt>
      <trkpt lat="39.171598" lon="-1.869174">
        <ele>663.395075</ele>
        <time>2021-10-28T11:36:28.000Z</time>
      </trkpt>
      <trkpt lat="39.171572" lon="-1.869128">
        <ele>663.416381</ele>
        <time>2021-10-28T11:36:29.000Z</time>
      </trkpt>
      <trkpt lat="39.171534" lon="-1.869095">
        <ele>663.438497</ele>
        <time>2021-10-28T11:36:30.000Z</time>
      </trkpt>
      <trkpt lat="39.171443" lon="-1.869083">
        <ele>663.482658</ele>
        <time>2021-10-28T11:36:32.000Z</time>
      </trkpt>
      <trkpt lat="39.171305" lon="-1.869107">
        <ele>663.549883</ele>
        <time>2021-10-28T11:36:35.000Z</time>
      </trkpt>
      <trkpt lat="39.171260" lon="-1.869090">
        <ele>663.572520</ele>
        <time>2021-10-28T11:36:36.000Z</time>
      </trkpt>
      <trkpt lat="39.170975" lon="-1.868867">
        <ele>663.733446</ele>
        <time>2021-10-28T11:36:43.000Z</time>
      </trkpt>
      <trkpt lat="39.170942" lon="-1.868750">
        <ele>663.780044</ele>
        <time>2021-10-28T11:36:45.000Z</time>
      </trkpt>
      <trkpt lat="39.170926" lon="-1.868622">
        <ele>663.828570</ele>
        <time>2021-10-28T11:36:47.000Z</time>
      </trkpt>
      <trkpt lat="39.170887" lon="-1.868373">
        <ele>663.923647</ele>
        <time>2021-10-28T11:36:51.000Z</time>
      </trkpt>
      <trkpt lat="39.170847" lon="-1.868257">
        <ele>663.971164</ele>
        <time>2021-10-28T11:36:53.000Z</time>
      </trkpt>
      <trkpt lat="39.170819" lon="-1.868205">
        <ele>663.994860</ele>
        <time>2021-10-28T11:36:54.000Z</time>
      </trkpt>
      <trkpt lat="39.170785" lon="-1.868157">
        <ele>664.019195</ele>
        <time>2021-10-28T11:36:55.000Z</time>
      </trkpt>
      <trkpt lat="39.170709" lon="-1.868075">
        <ele>664.264276</ele>
        <time>2021-10-28T11:36:57.000Z</time>
      </trkpt>
      <trkpt lat="39.170618" lon="-1.868022">
        <ele>664.566752</ele>
        <time>2021-10-28T11:36:59.000Z</time>
      </trkpt>
      <trkpt lat="39.170471" lon="-1.867981">
        <ele>665.022366</ele>
        <time>2021-10-28T11:37:02.000Z</time>
      </trkpt>
      <trkpt lat="39.170327" lon="-1.867979">
        <ele>665.458626</ele>
        <time>2021-10-28T11:37:05.000Z</time>
      </trkpt>
      <trkpt lat="39.170234" lon="-1.867990">
        <ele>665.741543</ele>
        <time>2021-10-28T11:37:07.000Z</time>
      </trkpt>
      <trkpt lat="39.170145" lon="-1.868020">
        <ele>666.020215</ele>
        <time>2021-10-28T11:37:09.000Z</time>
      </trkpt>
      <trkpt lat="39.170059" lon="-1.868065">
        <ele>666.301364</ele>
        <time>2021-10-28T11:37:11.000Z</time>
      </trkpt>
      <trkpt lat="39.169896" lon="-1.868166">
        <ele>666.849179</ele>
        <time>2021-10-28T11:37:15.000Z</time>
      </trkpt>
      <trkpt lat="39.169770" lon="-1.868222">
        <ele>667.252908</ele>
        <time>2021-10-28T11:37:18.000Z</time>
      </trkpt>
      <trkpt lat="39.169567" lon="-1.868316">
        <ele>667.906305</ele>
        <time>2021-10-28T11:37:23.000Z</time>
      </trkpt>
      <trkpt lat="39.169492" lon="-1.868353">
        <ele>668.149562</ele>
        <time>2021-10-28T11:37:25.000Z</time>
      </trkpt>
      <trkpt lat="39.169320" lon="-1.868414">
        <ele>668.689957</ele>
        <time>2021-10-28T11:37:29.000Z</time>
      </trkpt>
      <trkpt lat="39.169144" lon="-1.868466">
        <ele>669.236941</ele>
        <time>2021-10-28T11:37:33.000Z</time>
      </trkpt>
      <trkpt lat="39.169059" lon="-1.868475">
        <ele>669.487625</ele>
        <time>2021-10-28T11:37:35.000Z</time>
      </trkpt>
      <trkpt lat="39.168943" lon="-1.868424">
        <ele>669.689641</ele>
        <time>2021-10-28T11:37:38.000Z</time>
      </trkpt>
      <trkpt lat="39.168866" lon="-1.868364">
        <ele>669.837930</ele>
        <time>2021-10-28T11:37:40.000Z</time>
      </trkpt>
      <trkpt lat="39.168825" lon="-1.868278">
        <ele>669.966952</ele>
        <time>2021-10-28T11:37:42.000Z</time>
      </trkpt>
      <trkpt lat="39.168761" lon="-1.867856">
        <ele>670.516478</ele>
        <time>2021-10-28T11:37:49.000Z</time>
      </trkpt>
      <trkpt lat="39.168718" lon="-1.867534">
        <ele>670.934045</ele>
        <time>2021-10-28T11:37:54.000Z</time>
      </trkpt>
      <trkpt lat="39.168674" lon="-1.867260">
        <ele>671.291643</ele>
        <time>2021-10-28T11:37:58.000Z</time>
      </trkpt>
      <trkpt lat="39.168645" lon="-1.867033">
        <ele>671.585655</ele>
        <time>2021-10-28T11:38:01.000Z</time>
      </trkpt>
      <trkpt lat="39.168572" lon="-1.866483">
        <ele>672.298768</ele>
        <time>2021-10-28T11:38:08.000Z</time>
      </trkpt>
      <trkpt lat="39.168517" lon="-1.865919">
        <ele>671.837384</ele>
        <time>2021-10-28T11:38:15.000Z</time>
      </trkpt>
      <trkpt lat="39.168498" lon="-1.865753">
        <ele>671.614093</ele>
        <time>2021-10-28T11:38:17.000Z</time>
      </trkpt>
      <trkpt lat="39.168408" lon="-1.865101">
        <ele>670.732827</ele>
        <time>2021-10-28T11:38:25.000Z</time>
      </trkpt>
      <trkpt lat="39.168397" lon="-1.865024">
        <ele>670.628638</ele>
        <time>2021-10-28T11:38:26.000Z</time>
      </trkpt>
      <trkpt lat="39.168346" lon="-1.864642">
        <ele>670.112825</ele>
        <time>2021-10-28T11:38:31.000Z</time>
      </trkpt>
      <trkpt lat="39.168315" lon="-1.864421">
        <ele>669.813964</ele>
        <time>2021-10-28T11:38:34.000Z</time>
      </trkpt>
      <trkpt lat="39.168306" lon="-1.864349">
        <ele>669.716915</ele>
        <time>2021-10-28T11:38:35.000Z</time>
      </trkpt>
      <trkpt lat="39.168295" lon="-1.864279">
        <ele>669.621872</ele>
        <time>2021-10-28T11:38:36.000Z</time>
      </trkpt>
      <trkpt lat="39.168223" lon="-1.863845">
        <ele>669.410193</ele>
        <time>2021-10-28T11:38:42.000Z</time>
      </trkpt>
      <trkpt lat="39.168162" lon="-1.863256">
        <ele>669.541790</ele>
        <time>2021-10-28T11:38:50.000Z</time>
      </trkpt>
      <trkpt lat="39.168126" lon="-1.862925">
        <ele>669.615811</ele>
        <time>2021-10-28T11:38:55.000Z</time>
      </trkpt>
      <trkpt lat="39.168116" lon="-1.862859">
        <ele>669.630703</ele>
        <time>2021-10-28T11:38:56.000Z</time>
      </trkpt>
      <trkpt lat="39.168087" lon="-1.862729">
        <ele>669.660661</ele>
        <time>2021-10-28T11:38:58.000Z</time>
      </trkpt>
      <trkpt lat="39.168040" lon="-1.862284">
        <ele>669.760120</ele>
        <time>2021-10-28T11:39:04.000Z</time>
      </trkpt>
      <trkpt lat="39.167998" lon="-1.861664">
        <ele>669.907712</ele>
        <time>2021-10-28T11:39:12.000Z</time>
      </trkpt>
      <trkpt lat="39.167994" lon="-1.861593">
        <ele>669.928965</ele>
        <time>2021-10-28T11:39:13.000Z</time>
      </trkpt>
      <trkpt lat="39.167988" lon="-1.861459">
        <ele>669.969038</ele>
        <time>2021-10-28T11:39:15.000Z</time>
      </trkpt>
      <trkpt lat="39.167981" lon="-1.861334">
        <ele>670.006454</ele>
        <time>2021-10-28T11:39:17.000Z</time>
      </trkpt>
      <trkpt lat="39.167976" lon="-1.861224">
        <ele>670.039352</ele>
        <time>2021-10-28T11:39:19.000Z</time>
      </trkpt>
      <trkpt lat="39.167975" lon="-1.860949">
        <ele>670.121456</ele>
        <time>2021-10-28T11:39:24.000Z</time>
      </trkpt>
      <trkpt lat="39.167971" lon="-1.860758">
        <ele>670.178500</ele>
        <time>2021-10-28T11:39:27.000Z</time>
      </trkpt>
      <trkpt lat="39.167962" lon="-1.860554">
        <ele>670.239504</ele>
        <time>2021-10-28T11:39:30.000Z</time>
      </trkpt>
      <trkpt lat="39.167933" lon="-1.860248">
        <ele>670.331542</ele>
        <time>2021-10-28T11:39:34.000Z</time>
      </trkpt>
      <trkpt lat="39.167899" lon="-1.859999">
        <ele>670.407027</ele>
        <time>2021-10-28T11:39:37.000Z</time>
      </trkpt>
      <trkpt lat="39.167874" lon="-1.859838">
        <ele>670.456049</ele>
        <time>2021-10-28T11:39:39.000Z</time>
      </trkpt>
      <trkpt lat="39.167789" lon="-1.859198">
        <ele>671.806763</ele>
        <time>2021-10-28T11:39:48.000Z</time>
      </trkpt>
      <trkpt lat="39.167764" lon="-1.859010">
        <ele>672.617684</ele>
        <time>2021-10-28T11:39:51.000Z</time>
      </trkpt>
      <trkpt lat="39.167757" lon="-1.858949">
        <ele>672.879840</ele>
        <time>2021-10-28T11:39:52.000Z</time>
      </trkpt>
      <trkpt lat="39.167743" lon="-1.858828">
        <ele>673.399947</ele>
        <time>2021-10-28T11:39:54.000Z</time>
      </trkpt>
      <trkpt lat="39.167739" lon="-1.858708">
        <ele>673.910578</ele>
        <time>2021-10-28T11:39:56.000Z</time>
      </trkpt>
      <trkpt lat="39.167740" lon="-1.858648">
        <ele>674.165716</ele>
        <time>2021-10-28T11:39:57.000Z</time>
      </trkpt>
      <trkpt lat="39.167746" lon="-1.858533">
        <ele>674.655725</ele>
        <time>2021-10-28T11:39:59.000Z</time>
      </trkpt>
      <trkpt lat="39.167756" lon="-1.858384">
        <ele>675.291541</ele>
        <time>2021-10-28T11:40:02.000Z</time>
      </trkpt>
      <trkpt lat="39.167756" lon="-1.858306">
        <ele>675.623145</ele>
        <time>2021-10-28T11:40:04.000Z</time>
      </trkpt>
      <trkpt lat="39.167773" lon="-1.858188">
        <ele>676.133389</ele>
        <time>2021-10-28T11:40:07.000Z</time>
      </trkpt>
      <trkpt lat="39.167779" lon="-1.858073">
        <ele>676.623397</ele>
        <time>2021-10-28T11:40:10.000Z</time>
      </trkpt>
      <trkpt lat="39.167783" lon="-1.857885">
        <ele>677.422947</ele>
        <time>2021-10-28T11:40:15.000Z</time>
      </trkpt>
      <trkpt lat="39.167783" lon="-1.857808">
        <ele>677.750299</ele>
        <time>2021-10-28T11:40:17.000Z</time>
      </trkpt>
      <trkpt lat="39.167763" lon="-1.857529">
        <ele>678.941478</ele>
        <time>2021-10-28T11:40:24.000Z</time>
      </trkpt>
      <trkpt lat="39.167709" lon="-1.857261">
        <ele>680.118682</ele>
        <time>2021-10-28T11:40:30.000Z</time>
      </trkpt>
      <trkpt lat="39.167697" lon="-1.857219">
        <ele>680.308977</ele>
        <time>2021-10-28T11:40:31.000Z</time>
      </trkpt>
      <trkpt lat="39.167684" lon="-1.857178">
        <ele>680.429962</ele>
        <time>2021-10-28T11:40:32.000Z</time>
      </trkpt>
      <trkpt lat="39.167665" lon="-1.857111">
        <ele>680.449536</ele>
        <time>2021-10-28T11:40:34.000Z</time>
      </trkpt>
      <trkpt lat="39.167659" lon="-1.857048">
        <ele>680.466952</ele>
        <time>2021-10-28T11:40:36.000Z</time>
      </trkpt>
      <trkpt lat="39.167649" lon="-1.856990">
        <ele>680.483254</ele>
        <time>2021-10-28T11:40:38.000Z</time>
      </trkpt>
      <trkpt lat="39.167649" lon="-1.856849">
        <ele>680.521941</ele>
        <time>2021-10-28T11:40:42.000Z</time>
      </trkpt>
      <trkpt lat="39.167660" lon="-1.856811">
        <ele>680.533070</ele>
        <time>2021-10-28T11:40:43.000Z</time>
      </trkpt>
      <trkpt lat="39.167728" lon="-1.856648">
        <ele>680.583857</ele>
        <time>2021-10-28T11:40:47.000Z</time>
      </trkpt>
      <trkpt lat="39.167923" lon="-1.856238">
        <ele>680.715831</ele>
        <time>2021-10-28T11:40:56.000Z</time>
      </trkpt>
      <trkpt lat="39.167967" lon="-1.856137">
        <ele>680.747618</ele>
        <time>2021-10-28T11:40:58.000Z</time>
      </trkpt>
      <trkpt lat="39.168021" lon="-1.855981">
        <ele>680.794493</ele>
        <time>2021-10-28T11:41:01.000Z</time>
      </trkpt>
      <trkpt lat="39.168034" lon="-1.855927">
        <ele>680.810007</ele>
        <time>2021-10-28T11:41:02.000Z</time>
      </trkpt>
      <trkpt lat="39.168066" lon="-1.855814">
        <ele>680.843014</ele>
        <time>2021-10-28T11:41:04.000Z</time>
      </trkpt>
      <trkpt lat="39.168103" lon="-1.855701">
        <ele>680.876670</ele>
        <time>2021-10-28T11:41:06.000Z</time>
      </trkpt>
      <trkpt lat="39.168185" lon="-1.855473">
        <ele>680.945631</ele>
        <time>2021-10-28T11:41:10.000Z</time>
      </trkpt>
      <trkpt lat="39.168294" lon="-1.855111">
        <ele>681.052181</ele>
        <time>2021-10-28T11:41:16.000Z</time>
      </trkpt>
      <trkpt lat="39.168311" lon="-1.855049">
        <ele>681.045522</ele>
        <time>2021-10-28T11:41:17.000Z</time>
      </trkpt>
      <trkpt lat="39.168348" lon="-1.854854">
        <ele>680.938184</ele>
        <time>2021-10-28T11:41:20.000Z</time>
      </trkpt>
      <trkpt lat="39.168360" lon="-1.854788">
        <ele>680.901939</ele>
        <time>2021-10-28T11:41:21.000Z</time>
      </trkpt>
      <trkpt lat="39.168432" lon="-1.854307">
        <ele>680.640013</ele>
        <time>2021-10-28T11:41:28.000Z</time>
      </trkpt>
      <trkpt lat="39.168441" lon="-1.854237">
        <ele>680.602075</ele>
        <time>2021-10-28T11:41:29.000Z</time>
      </trkpt>
      <trkpt lat="39.168504" lon="-1.853606">
        <ele>680.261912</ele>
        <time>2021-10-28T11:41:38.000Z</time>
      </trkpt>
      <trkpt lat="39.168516" lon="-1.853466">
        <ele>680.186602</ele>
        <time>2021-10-28T11:41:40.000Z</time>
      </trkpt>
      <trkpt lat="39.168514" lon="-1.853258">
        <ele>680.075382</ele>
        <time>2021-10-28T11:41:43.000Z</time>
      </trkpt>
      <trkpt lat="39.168516" lon="-1.853120">
        <ele>680.001585</ele>
        <time>2021-10-28T11:41:45.000Z</time>
      </trkpt>
      <trkpt lat="39.168505" lon="-1.852914">
        <ele>679.891182</ele>
        <time>2021-10-28T11:41:48.000Z</time>
      </trkpt>
      <trkpt lat="39.168489" lon="-1.852502">
        <ele>679.773801</ele>
        <time>2021-10-28T11:41:54.000Z</time>
      </trkpt>
      <trkpt lat="39.168468" lon="-1.852366">
        <ele>679.750382</ele>
        <time>2021-10-28T11:41:56.000Z</time>
      </trkpt>
      <trkpt lat="39.168411" lon="-1.852022">
        <ele>679.690975</ele>
        <time>2021-10-28T11:42:01.000Z</time>
      </trkpt>
      <trkpt lat="39.168359" lon="-1.851814">
        <ele>679.654066</ele>
        <time>2021-10-28T11:42:04.000Z</time>
      </trkpt>
      <trkpt lat="39.168309" lon="-1.851608">
        <ele>679.617611</ele>
        <time>2021-10-28T11:42:07.000Z</time>
      </trkpt>
      <trkpt lat="39.168275" lon="-1.851472">
        <ele>679.593479</ele>
        <time>2021-10-28T11:42:09.000Z</time>
      </trkpt>
      <trkpt lat="39.168254" lon="-1.851405">
        <ele>679.581274</ele>
        <time>2021-10-28T11:42:10.000Z</time>
      </trkpt>
      <trkpt lat="39.168042" lon="-1.850720">
        <ele>679.456713</ele>
        <time>2021-10-28T11:42:20.000Z</time>
      </trkpt>
      <trkpt lat="39.167800" lon="-1.850162">
        <ele>678.992808</ele>
        <time>2021-10-28T11:42:29.000Z</time>
      </trkpt>
      <trkpt lat="39.167472" lon="-1.849597">
        <ele>678.349190</ele>
        <time>2021-10-28T11:42:39.000Z</time>
      </trkpt>
      <trkpt lat="39.167261" lon="-1.849254">
        <ele>677.949931</ele>
        <time>2021-10-28T11:42:45.000Z</time>
      </trkpt>
      <trkpt lat="39.166984" lon="-1.848840">
        <ele>677.451283</ele>
        <time>2021-10-28T11:42:52.000Z</time>
      </trkpt>
      <trkpt lat="39.166951" lon="-1.848768">
        <ele>677.375015</ele>
        <time>2021-10-28T11:42:53.000Z</time>
      </trkpt>
      <trkpt lat="39.166893" lon="-1.848610">
        <ele>676.881793</ele>
        <time>2021-10-28T11:42:55.000Z</time>
      </trkpt>
      <trkpt lat="39.166843" lon="-1.848432">
        <ele>676.124713</ele>
        <time>2021-10-28T11:42:57.000Z</time>
      </trkpt>
      <trkpt lat="39.166752" lon="-1.848035">
        <ele>674.469221</ele>
        <time>2021-10-28T11:43:01.000Z</time>
      </trkpt>
      <trkpt lat="39.166706" lon="-1.847820">
        <ele>673.577321</ele>
        <time>2021-10-28T11:43:03.000Z</time>
      </trkpt>
      <trkpt lat="39.166679" lon="-1.847712">
        <ele>673.123542</ele>
        <time>2021-10-28T11:43:04.000Z</time>
      </trkpt>
      <trkpt lat="39.166631" lon="-1.847494">
        <ele>672.217308</ele>
        <time>2021-10-28T11:43:06.000Z</time>
      </trkpt>
      <trkpt lat="39.166586" lon="-1.847274">
        <ele>671.307446</ele>
        <time>2021-10-28T11:43:08.000Z</time>
      </trkpt>
      <trkpt lat="39.166542" lon="-1.847053">
        <ele>670.395014</ele>
        <time>2021-10-28T11:43:10.000Z</time>
      </trkpt>
      <trkpt lat="39.166446" lon="-1.846616">
        <ele>668.578694</ele>
        <time>2021-10-28T11:43:14.000Z</time>
      </trkpt>
      <trkpt lat="39.166403" lon="-1.846403">
        <ele>667.961640</ele>
        <time>2021-10-28T11:43:16.000Z</time>
      </trkpt>
      <trkpt lat="39.166373" lon="-1.846299">
        <ele>667.862670</ele>
        <time>2021-10-28T11:43:17.000Z</time>
      </trkpt>
      <trkpt lat="39.166280" lon="-1.846089">
        <ele>667.646968</ele>
        <time>2021-10-28T11:43:19.000Z</time>
      </trkpt>
      <trkpt lat="39.166221" lon="-1.845995">
        <ele>667.539100</ele>
        <time>2021-10-28T11:43:20.000Z</time>
      </trkpt>
      <trkpt lat="39.166164" lon="-1.845919">
        <ele>667.444790</ele>
        <time>2021-10-28T11:43:21.000Z</time>
      </trkpt>
      <trkpt lat="39.166111" lon="-1.845858">
        <ele>667.363075</ele>
        <time>2021-10-28T11:43:22.000Z</time>
      </trkpt>
      <trkpt lat="39.166069" lon="-1.845814">
        <ele>667.300829</ele>
        <time>2021-10-28T11:43:23.000Z</time>
      </trkpt>
      <trkpt lat="39.165996" lon="-1.845764">
        <ele>667.205745</ele>
        <time>2021-10-28T11:43:25.000Z</time>
      </trkpt>
      <trkpt lat="39.165906" lon="-1.845761">
        <ele>667.102177</ele>
        <time>2021-10-28T11:43:27.000Z</time>
      </trkpt>
      <trkpt lat="39.165806" lon="-1.845800">
        <ele>666.981995</ele>
        <time>2021-10-28T11:43:29.000Z</time>
      </trkpt>
      <trkpt lat="39.165718" lon="-1.845887">
        <ele>666.854444</ele>
        <time>2021-10-28T11:43:31.000Z</time>
      </trkpt>
      <trkpt lat="39.165518" lon="-1.846216">
        <ele>666.481562</ele>
        <time>2021-10-28T11:43:37.000Z</time>
      </trkpt>
      <trkpt lat="39.165466" lon="-1.846327">
        <ele>666.365890</ele>
        <time>2021-10-28T11:43:39.000Z</time>
      </trkpt>
      <trkpt lat="39.165415" lon="-1.846434">
        <ele>666.253864</ele>
        <time>2021-10-28T11:43:41.000Z</time>
      </trkpt>
      <trkpt lat="39.165318" lon="-1.846641">
        <ele>666.038136</ele>
        <time>2021-10-28T11:43:45.000Z</time>
      </trkpt>
      <trkpt lat="39.165258" lon="-1.846739">
        <ele>666.186906</ele>
        <time>2021-10-28T11:43:47.000Z</time>
      </trkpt>
      <trkpt lat="39.165186" lon="-1.846814">
        <ele>666.751166</ele>
        <time>2021-10-28T11:43:49.000Z</time>
      </trkpt>
      <trkpt lat="39.165145" lon="-1.846836">
        <ele>667.021907</ele>
        <time>2021-10-28T11:43:50.000Z</time>
      </trkpt>
      <trkpt lat="39.165103" lon="-1.846850">
        <ele>667.286388</ele>
        <time>2021-10-28T11:43:51.000Z</time>
      </trkpt>
      <trkpt lat="39.164938" lon="-1.846877">
        <ele>668.300433</ele>
        <time>2021-10-28T11:43:55.000Z</time>
      </trkpt>
      <trkpt lat="39.164901" lon="-1.846887">
        <ele>668.530916</ele>
        <time>2021-10-28T11:43:56.000Z</time>
      </trkpt>
      <trkpt lat="39.164784" lon="-1.846921">
        <ele>669.262130</ele>
        <time>2021-10-28T11:44:00.000Z</time>
      </trkpt>
      <trkpt lat="39.164656" lon="-1.846952">
        <ele>670.056166</ele>
        <time>2021-10-28T11:44:04.000Z</time>
      </trkpt>
      <trkpt lat="39.164569" lon="-1.846969">
        <ele>670.592645</ele>
        <time>2021-10-28T11:44:07.000Z</time>
      </trkpt>
      <trkpt lat="39.164424" lon="-1.846965">
        <ele>671.476891</ele>
        <time>2021-10-28T11:44:12.000Z</time>
      </trkpt>
      <trkpt lat="39.164398" lon="-1.846967">
        <ele>671.635691</ele>
        <time>2021-10-28T11:44:13.000Z</time>
      </trkpt>
      <trkpt lat="39.164261" lon="-1.846965">
        <ele>672.471014</ele>
        <time>2021-10-28T11:44:18.000Z</time>
      </trkpt>
      <trkpt lat="39.164212" lon="-1.846965">
        <ele>672.769760</ele>
        <time>2021-10-28T11:44:20.000Z</time>
      </trkpt>
      <trkpt lat="39.164150" lon="-1.846956">
        <ele>673.150151</ele>
        <time>2021-10-28T11:44:23.000Z</time>
      </trkpt>
      <trkpt lat="39.164042" lon="-1.846957">
        <ele>673.808628</ele>
        <time>2021-10-28T11:44:28.000Z</time>
      </trkpt>
      <trkpt lat="39.163999" lon="-1.846958">
        <ele>674.070836</ele>
        <time>2021-10-28T11:44:30.000Z</time>
      </trkpt>
      <trkpt lat="39.163895" lon="-1.846946">
        <ele>674.707441</ele>
        <time>2021-10-28T11:44:35.000Z</time>
      </trkpt>
      <trkpt lat="39.163872" lon="-1.846945">
        <ele>674.847748</ele>
        <time>2021-10-28T11:44:36.000Z</time>
      </trkpt>
      <trkpt lat="39.163848" lon="-1.846943">
        <ele>674.994378</ele>
        <time>2021-10-28T11:44:37.000Z</time>
      </trkpt>
      <trkpt lat="39.163783" lon="-1.846939">
        <ele>675.391124</ele>
        <time>2021-10-28T11:44:40.000Z</time>
      </trkpt>
      <trkpt lat="39.163738" lon="-1.846949">
        <ele>675.669525</ele>
        <time>2021-10-28T11:44:42.000Z</time>
      </trkpt>
      <trkpt lat="39.163717" lon="-1.846961">
        <ele>675.809563</ele>
        <time>2021-10-28T11:44:43.000Z</time>
      </trkpt>
      <trkpt lat="39.163696" lon="-1.846967">
        <ele>675.940700</ele>
        <time>2021-10-28T11:44:44.000Z</time>
      </trkpt>
      <trkpt lat="39.163587" lon="-1.846934">
        <ele>676.623321</ele>
        <time>2021-10-28T11:44:49.000Z</time>
      </trkpt>
      <trkpt lat="39.163567" lon="-1.846919">
        <ele>676.764376</ele>
        <time>2021-10-28T11:44:50.000Z</time>
      </trkpt>
      <trkpt lat="39.163548" lon="-1.846902">
        <ele>676.905362</ele>
        <time>2021-10-28T11:44:51.000Z</time>
      </trkpt>
      <trkpt lat="39.163486" lon="-1.846854">
        <ele>676.924269</ele>
        <time>2021-10-28T11:44:54.000Z</time>
      </trkpt>
      <trkpt lat="39.163418" lon="-1.846784">
        <ele>676.911589</ele>
        <time>2021-10-28T11:44:58.000Z</time>
      </trkpt>
      <trkpt lat="39.163316" lon="-1.846636">
        <ele>676.889214</ele>
        <time>2021-10-28T11:45:04.000Z</time>
      </trkpt>
      <trkpt lat="39.163298" lon="-1.846603">
        <ele>676.884655</ele>
        <time>2021-10-28T11:45:05.000Z</time>
      </trkpt>
      <trkpt lat="39.163216" lon="-1.846414">
        <ele>676.860183</ele>
        <time>2021-10-28T11:45:10.000Z</time>
      </trkpt>
      <trkpt lat="39.163170" lon="-1.846289">
        <ele>676.844548</ele>
        <time>2021-10-28T11:45:13.000Z</time>
      </trkpt>
      <trkpt lat="39.163073" lon="-1.846073">
        <ele>676.816343</ele>
        <time>2021-10-28T11:45:18.000Z</time>
      </trkpt>
      <trkpt lat="39.163053" lon="-1.846027">
        <ele>676.810384</ele>
        <time>2021-10-28T11:45:19.000Z</time>
      </trkpt>
      <trkpt lat="39.163025" lon="-1.845922">
        <ele>676.797837</ele>
        <time>2021-10-28T11:45:21.000Z</time>
      </trkpt>
      <trkpt lat="39.162986" lon="-1.845740">
        <ele>676.776501</ele>
        <time>2021-10-28T11:45:24.000Z</time>
      </trkpt>
      <trkpt lat="39.162958" lon="-1.845613">
        <ele>676.761582</ele>
        <time>2021-10-28T11:45:26.000Z</time>
      </trkpt>
      <trkpt lat="39.162896" lon="-1.845364">
        <ele>676.732030</ele>
        <time>2021-10-28T11:45:30.000Z</time>
      </trkpt>
      <trkpt lat="39.162885" lon="-1.845304">
        <ele>676.725064</ele>
        <time>2021-10-28T11:45:31.000Z</time>
      </trkpt>
      <trkpt lat="39.162854" lon="-1.845105">
        <ele>676.702128</ele>
        <time>2021-10-28T11:45:34.000Z</time>
      </trkpt>
      <trkpt lat="39.162823" lon="-1.844963">
        <ele>676.685459</ele>
        <time>2021-10-28T11:45:36.000Z</time>
      </trkpt>
      <trkpt lat="39.162804" lon="-1.844902">
        <ele>676.678031</ele>
        <time>2021-10-28T11:45:37.000Z</time>
      </trkpt>
      <trkpt lat="39.162657" lon="-1.844589">
        <ele>676.206369</ele>
        <time>2021-10-28T11:45:42.000Z</time>
      </trkpt>
      <trkpt lat="39.162629" lon="-1.844520">
        <ele>676.090339</ele>
        <time>2021-10-28T11:45:43.000Z</time>
      </trkpt>
      <trkpt lat="39.162565" lon="-1.844360">
        <ele>675.822106</ele>
        <time>2021-10-28T11:45:45.000Z</time>
      </trkpt>
      <trkpt lat="39.162523" lon="-1.844272">
        <ele>675.668148</ele>
        <time>2021-10-28T11:45:46.000Z</time>
      </trkpt>
      <trkpt lat="39.162423" lon="-1.844101">
        <ele>675.349039</ele>
        <time>2021-10-28T11:45:48.000Z</time>
      </trkpt>
      <trkpt lat="39.162306" lon="-1.843938">
        <ele>675.018100</ele>
        <time>2021-10-28T11:45:50.000Z</time>
      </trkpt>
      <trkpt lat="39.162065" lon="-1.843670">
        <ele>674.406638</ele>
        <time>2021-10-28T11:45:54.000Z</time>
      </trkpt>
      <trkpt lat="39.161997" lon="-1.843628">
        <ele>674.261762</ele>
        <time>2021-10-28T11:45:55.000Z</time>
      </trkpt>
      <trkpt lat="39.161927" lon="-1.843605">
        <ele>674.122958</ele>
        <time>2021-10-28T11:45:56.000Z</time>
      </trkpt>
      <trkpt lat="39.161742" lon="-1.843554">
        <ele>673.759443</ele>
        <time>2021-10-28T11:45:59.000Z</time>
      </trkpt>
      <trkpt lat="39.161394" lon="-1.843482">
        <ele>673.222413</ele>
        <time>2021-10-28T11:46:05.000Z</time>
      </trkpt>
      <trkpt lat="39.161287" lon="-1.843466">
        <ele>673.232608</ele>
        <time>2021-10-28T11:46:07.000Z</time>
      </trkpt>
      <trkpt lat="39.161238" lon="-1.843468">
        <ele>673.237249</ele>
        <time>2021-10-28T11:46:08.000Z</time>
      </trkpt>
      <trkpt lat="39.161186" lon="-1.843470">
        <ele>673.242173</ele>
        <time>2021-10-28T11:46:09.000Z</time>
      </trkpt>
      <trkpt lat="39.161135" lon="-1.843467">
        <ele>673.247005</ele>
        <time>2021-10-28T11:46:10.000Z</time>
      </trkpt>
      <trkpt lat="39.161042" lon="-1.843481">
        <ele>673.255867</ele>
        <time>2021-10-28T11:46:12.000Z</time>
      </trkpt>
      <trkpt lat="39.160994" lon="-1.843489">
        <ele>673.260448</ele>
        <time>2021-10-28T11:46:13.000Z</time>
      </trkpt>
      <trkpt lat="39.160862" lon="-1.843505">
        <ele>673.272997</ele>
        <time>2021-10-28T11:46:16.000Z</time>
      </trkpt>
      <trkpt lat="39.160728" lon="-1.843511">
        <ele>673.285687</ele>
        <time>2021-10-28T11:46:19.000Z</time>
      </trkpt>
      <trkpt lat="39.160305" lon="-1.843574">
        <ele>673.325990</ele>
        <time>2021-10-28T11:46:27.000Z</time>
      </trkpt>
      <trkpt lat="39.160192" lon="-1.843591">
        <ele>673.336758</ele>
        <time>2021-10-28T11:46:29.000Z</time>
      </trkpt>
      <trkpt lat="39.159909" lon="-1.843601">
        <ele>673.363554</ele>
        <time>2021-10-28T11:46:34.000Z</time>
      </trkpt>
      <trkpt lat="39.159853" lon="-1.843598">
        <ele>673.368859</ele>
        <time>2021-10-28T11:46:35.000Z</time>
      </trkpt>
      <trkpt lat="39.159688" lon="-1.843593">
        <ele>673.384481</ele>
        <time>2021-10-28T11:46:38.000Z</time>
      </trkpt>
      <trkpt lat="39.159634" lon="-1.843604">
        <ele>673.357433</ele>
        <time>2021-10-28T11:46:39.000Z</time>
      </trkpt>
      <trkpt lat="39.159577" lon="-1.843625">
        <ele>673.312590</ele>
        <time>2021-10-28T11:46:40.000Z</time>
      </trkpt>
      <trkpt lat="39.159404" lon="-1.843727">
        <ele>673.168697</ele>
        <time>2021-10-28T11:46:43.000Z</time>
      </trkpt>
      <trkpt lat="39.159351" lon="-1.843775">
        <ele>673.119707</ele>
        <time>2021-10-28T11:46:44.000Z</time>
      </trkpt>
      <trkpt lat="39.159126" lon="-1.843929">
        <ele>672.927021</ele>
        <time>2021-10-28T11:46:48.000Z</time>
      </trkpt>
      <trkpt lat="39.159072" lon="-1.843961">
        <ele>672.882067</ele>
        <time>2021-10-28T11:46:49.000Z</time>
      </trkpt>
      <trkpt lat="39.159012" lon="-1.843981">
        <ele>672.835188</ele>
        <time>2021-10-28T11:46:50.000Z</time>
      </trkpt>
      <trkpt lat="39.158835" lon="-1.844002">
        <ele>672.700731</ele>
        <time>2021-10-28T11:46:53.000Z</time>
      </trkpt>
      <trkpt lat="39.158776" lon="-1.843990">
        <ele>672.655549</ele>
        <time>2021-10-28T11:46:54.000Z</time>
      </trkpt>
      <trkpt lat="39.158631" lon="-1.843923">
        <ele>672.539035</ele>
        <time>2021-10-28T11:46:57.000Z</time>
      </trkpt>
      <trkpt lat="39.158543" lon="-1.843850">
        <ele>672.459886</ele>
        <time>2021-10-28T11:46:59.000Z</time>
      </trkpt>
      <trkpt lat="39.158464" lon="-1.843758">
        <ele>672.379367</ele>
        <time>2021-10-28T11:47:01.000Z</time>
      </trkpt>
      <trkpt lat="39.158431" lon="-1.843695">
        <ele>672.334773</ele>
        <time>2021-10-28T11:47:02.000Z</time>
      </trkpt>
      <trkpt lat="39.158403" lon="-1.843624">
        <ele>672.288051</ele>
        <time>2021-10-28T11:47:03.000Z</time>
      </trkpt>
      <trkpt lat="39.158351" lon="-1.843414">
        <ele>672.158746</ele>
        <time>2021-10-28T11:47:06.000Z</time>
      </trkpt>
      <trkpt lat="39.158187" lon="-1.842694">
        <ele>672.932914</ele>
        <time>2021-10-28T11:47:15.000Z</time>
      </trkpt>
      <trkpt lat="39.158167" lon="-1.842619">
        <ele>673.070462</ele>
        <time>2021-10-28T11:47:16.000Z</time>
      </trkpt>
      <trkpt lat="39.158114" lon="-1.842400">
        <ele>673.468340</ele>
        <time>2021-10-28T11:47:19.000Z</time>
      </trkpt>
      <trkpt lat="39.158100" lon="-1.842328">
        <ele>673.597075</ele>
        <time>2021-10-28T11:47:20.000Z</time>
      </trkpt>
      <trkpt lat="39.158045" lon="-1.842044">
        <ele>674.104742</ele>
        <time>2021-10-28T11:47:24.000Z</time>
      </trkpt>
      <trkpt lat="39.157943" lon="-1.841558">
        <ele>674.977936</ele>
        <time>2021-10-28T11:47:31.000Z</time>
      </trkpt>
      <trkpt lat="39.157930" lon="-1.841490">
        <ele>675.099399</ele>
        <time>2021-10-28T11:47:32.000Z</time>
      </trkpt>
      <trkpt lat="39.157917" lon="-1.841421">
        <ele>675.222547</ele>
        <time>2021-10-28T11:47:33.000Z</time>
      </trkpt>
      <trkpt lat="39.157903" lon="-1.841353">
        <ele>675.344565</ele>
        <time>2021-10-28T11:47:34.000Z</time>
      </trkpt>
      <trkpt lat="39.157834" lon="-1.841007">
        <ele>675.964158</ele>
        <time>2021-10-28T11:47:39.000Z</time>
      </trkpt>
      <trkpt lat="39.157804" lon="-1.840862">
        <ele>675.844830</ele>
        <time>2021-10-28T11:47:41.000Z</time>
      </trkpt>
      <trkpt lat="39.157675" lon="-1.840219">
        <ele>674.513278</ele>
        <time>2021-10-28T11:47:50.000Z</time>
      </trkpt>
      <trkpt lat="39.157646" lon="-1.840078">
        <ele>674.220822</ele>
        <time>2021-10-28T11:47:52.000Z</time>
      </trkpt>
      <trkpt lat="39.157560" lon="-1.839618">
        <ele>673.272173</ele>
        <time>2021-10-28T11:47:58.000Z</time>
      </trkpt>
      <trkpt lat="39.157545" lon="-1.839533">
        <ele>673.097405</ele>
        <time>2021-10-28T11:47:59.000Z</time>
      </trkpt>
      <trkpt lat="39.157529" lon="-1.839446">
        <ele>672.918146</ele>
        <time>2021-10-28T11:48:00.000Z</time>
      </trkpt>
      <trkpt lat="39.157490" lon="-1.839270">
        <ele>672.551170</ele>
        <time>2021-10-28T11:48:02.000Z</time>
      </trkpt>
      <trkpt lat="39.157437" lon="-1.839000">
        <ele>671.992789</ele>
        <time>2021-10-28T11:48:05.000Z</time>
      </trkpt>
      <trkpt lat="39.157417" lon="-1.838912">
        <ele>671.808942</ele>
        <time>2021-10-28T11:48:06.000Z</time>
      </trkpt>
      <trkpt lat="39.157297" lon="-1.838341">
        <ele>671.524028</ele>
        <time>2021-10-28T11:48:13.000Z</time>
      </trkpt>
      <trkpt lat="39.157265" lon="-1.838192">
        <ele>671.574444</ele>
        <time>2021-10-28T11:48:15.000Z</time>
      </trkpt>
      <trkpt lat="39.157219" lon="-1.837980">
        <ele>671.646229</ele>
        <time>2021-10-28T11:48:18.000Z</time>
      </trkpt>
      <trkpt lat="39.157204" lon="-1.837910">
        <ele>671.669911</ele>
        <time>2021-10-28T11:48:19.000Z</time>
      </trkpt>
      <trkpt lat="39.157158" lon="-1.837702">
        <ele>671.740441</ele>
        <time>2021-10-28T11:48:22.000Z</time>
      </trkpt>
      <trkpt lat="39.157058" lon="-1.837185">
        <ele>671.914193</ele>
        <time>2021-10-28T11:48:29.000Z</time>
      </trkpt>
      <trkpt lat="39.156898" lon="-1.836512">
        <ele>672.143732</ele>
        <time>2021-10-28T11:48:38.000Z</time>
      </trkpt>
      <trkpt lat="39.156775" lon="-1.835931">
        <ele>672.753404</ele>
        <time>2021-10-28T11:48:46.000Z</time>
      </trkpt>
      <trkpt lat="39.156754" lon="-1.835795">
        <ele>672.899215</ele>
        <time>2021-10-28T11:48:48.000Z</time>
      </trkpt>
      <trkpt lat="39.156716" lon="-1.835608">
        <ele>673.102485</ele>
        <time>2021-10-28T11:48:51.000Z</time>
      </trkpt>
      <trkpt lat="39.156679" lon="-1.835368">
        <ele>673.359784</ele>
        <time>2021-10-28T11:48:55.000Z</time>
      </trkpt>
      <trkpt lat="39.156643" lon="-1.835136">
        <ele>673.608568</ele>
        <time>2021-10-28T11:48:59.000Z</time>
      </trkpt>
      <trkpt lat="39.156595" lon="-1.834788">
        <ele>673.980233</ele>
        <time>2021-10-28T11:49:05.000Z</time>
      </trkpt>
      <trkpt lat="39.156567" lon="-1.834554">
        <ele>674.229196</ele>
        <time>2021-10-28T11:49:09.000Z</time>
      </trkpt>
      <trkpt lat="39.156511" lon="-1.834085">
        <ele>674.679025</ele>
        <time>2021-10-28T11:49:17.000Z</time>
      </trkpt>
      <trkpt lat="39.156451" lon="-1.833602">
        <ele>675.005884</ele>
        <time>2021-10-28T11:49:25.000Z</time>
      </trkpt>
      <trkpt lat="39.156435" lon="-1.833476">
        <ele>675.091199</ele>
        <time>2021-10-28T11:49:27.000Z</time>
      </trkpt>
      <trkpt lat="39.156402" lon="-1.833200">
        <ele>675.277804</ele>
        <time>2021-10-28T11:49:31.000Z</time>
      </trkpt>
      <trkpt lat="39.156372" lon="-1.832981">
        <ele>675.426408</ele>
        <time>2021-10-28T11:49:34.000Z</time>
      </trkpt>
      <trkpt lat="39.156337" lon="-1.832683">
        <ele>675.627805</ele>
        <time>2021-10-28T11:49:38.000Z</time>
      </trkpt>
      <trkpt lat="39.156328" lon="-1.832537">
        <ele>675.725671</ele>
        <time>2021-10-28T11:49:40.000Z</time>
      </trkpt>
      <trkpt lat="39.156261" lon="-1.831900">
        <ele>676.090314</ele>
        <time>2021-10-28T11:49:49.000Z</time>
      </trkpt>
      <trkpt lat="39.156186" lon="-1.831368">
        <ele>674.482615</ele>
        <time>2021-10-28T11:49:56.000Z</time>
      </trkpt>
      <trkpt lat="39.156149" lon="-1.831200">
        <ele>673.963352</ele>
        <time>2021-10-28T11:49:58.000Z</time>
      </trkpt>
      <trkpt lat="39.156131" lon="-1.831115">
        <ele>673.701371</ele>
        <time>2021-10-28T11:49:59.000Z</time>
      </trkpt>
      <trkpt lat="39.156088" lon="-1.830863">
        <ele>672.934184</ele>
        <time>2021-10-28T11:50:02.000Z</time>
      </trkpt>
      <trkpt lat="39.156001" lon="-1.830332">
        <ele>671.320526</ele>
        <time>2021-10-28T11:50:08.000Z</time>
      </trkpt>
      <trkpt lat="39.155913" lon="-1.829882">
        <ele>669.940666</ele>
        <time>2021-10-28T11:50:13.000Z</time>
      </trkpt>
      <trkpt lat="39.155880" lon="-1.829708">
        <ele>669.408069</ele>
        <time>2021-10-28T11:50:15.000Z</time>
      </trkpt>
      <trkpt lat="39.155778" lon="-1.829066">
        <ele>669.540174</ele>
        <time>2021-10-28T11:50:23.000Z</time>
      </trkpt>
      <trkpt lat="39.155752" lon="-1.828703">
        <ele>669.718167</ele>
        <time>2021-10-28T11:50:28.000Z</time>
      </trkpt>
      <trkpt lat="39.155757" lon="-1.828563">
        <ele>669.786596</ele>
        <time>2021-10-28T11:50:30.000Z</time>
      </trkpt>
      <trkpt lat="39.155763" lon="-1.828494">
        <ele>669.820497</ele>
        <time>2021-10-28T11:50:31.000Z</time>
      </trkpt>
      <trkpt lat="39.155784" lon="-1.828292">
        <ele>669.920008</ele>
        <time>2021-10-28T11:50:34.000Z</time>
      </trkpt>
      <trkpt lat="39.155793" lon="-1.828225">
        <ele>669.953209</ele>
        <time>2021-10-28T11:50:35.000Z</time>
      </trkpt>
      <trkpt lat="39.155815" lon="-1.828095">
        <ele>670.018177</ele>
        <time>2021-10-28T11:50:37.000Z</time>
      </trkpt>
      <trkpt lat="39.155916" lon="-1.827463">
        <ele>670.333243</ele>
        <time>2021-10-28T11:50:47.000Z</time>
      </trkpt>
      <trkpt lat="39.155940" lon="-1.827348">
        <ele>670.389386</ele>
        <time>2021-10-28T11:50:49.000Z</time>
      </trkpt>
      <trkpt lat="39.156042" lon="-1.826996">
        <ele>670.542598</ele>
        <time>2021-10-28T11:50:55.000Z</time>
      </trkpt>
      <trkpt lat="39.156195" lon="-1.826514">
        <ele>670.754950</ele>
        <time>2021-10-28T11:51:02.000Z</time>
      </trkpt>
      <trkpt lat="39.156329" lon="-1.826102">
        <ele>670.937109</ele>
        <time>2021-10-28T11:51:08.000Z</time>
      </trkpt>
      <trkpt lat="39.156360" lon="-1.826043">
        <ele>670.966167</ele>
        <time>2021-10-28T11:51:09.000Z</time>
      </trkpt>
      <trkpt lat="39.156415" lon="-1.825925">
        <ele>671.022301</ele>
        <time>2021-10-28T11:51:11.000Z</time>
      </trkpt>
      <trkpt lat="39.156500" lon="-1.825756">
        <ele>671.104431</ele>
        <time>2021-10-28T11:51:14.000Z</time>
      </trkpt>
      <trkpt lat="39.156526" lon="-1.825699">
        <ele>671.131394</ele>
        <time>2021-10-28T11:51:15.000Z</time>
      </trkpt>
      <trkpt lat="39.156612" lon="-1.825535">
        <ele>671.212115</ele>
        <time>2021-10-28T11:51:18.000Z</time>
      </trkpt>
      <trkpt lat="39.156668" lon="-1.825421">
        <ele>671.267137</ele>
        <time>2021-10-28T11:51:20.000Z</time>
      </trkpt>
      <trkpt lat="39.156691" lon="-1.825361">
        <ele>671.294426</ele>
        <time>2021-10-28T11:51:21.000Z</time>
      </trkpt>
      <trkpt lat="39.156718" lon="-1.825304">
        <ele>671.321660</ele>
        <time>2021-10-28T11:51:22.000Z</time>
      </trkpt>
      <trkpt lat="39.156872" lon="-1.825038">
        <ele>671.566064</ele>
        <time>2021-10-28T11:51:27.000Z</time>
      </trkpt>
      <trkpt lat="39.157058" lon="-1.824759">
        <ele>671.839987</ele>
        <time>2021-10-28T11:51:33.000Z</time>
      </trkpt>
      <trkpt lat="39.157088" lon="-1.824713">
        <ele>671.884735</ele>
        <time>2021-10-28T11:51:34.000Z</time>
      </trkpt>
      <trkpt lat="39.157383" lon="-1.824259">
        <ele>672.325709</ele>
        <time>2021-10-28T11:51:44.000Z</time>
      </trkpt>
      <trkpt lat="39.157609" lon="-1.823913">
        <ele>672.662508</ele>
        <time>2021-10-28T11:51:50.000Z</time>
      </trkpt>
      <trkpt lat="39.157765" lon="-1.823683">
        <ele>672.889999</ele>
        <time>2021-10-28T11:51:55.000Z</time>
      </trkpt>
      <trkpt lat="39.157816" lon="-1.823606">
        <ele>672.965389</ele>
        <time>2021-10-28T11:51:58.000Z</time>
      </trkpt>
      <trkpt lat="39.157827" lon="-1.823583">
        <ele>672.985507</ele>
        <time>2021-10-28T11:51:59.000Z</time>
      </trkpt>
      <trkpt lat="39.157837" lon="-1.823559">
        <ele>673.005790</ele>
        <time>2021-10-28T11:52:00.000Z</time>
      </trkpt>
      <trkpt lat="39.157856" lon="-1.823511">
        <ele>673.045912</ele>
        <time>2021-10-28T11:52:02.000Z</time>
      </trkpt>
      <trkpt lat="39.157872" lon="-1.823463">
        <ele>673.094823</ele>
        <time>2021-10-28T11:52:04.000Z</time>
      </trkpt>
      <trkpt lat="39.157873" lon="-1.823444">
        <ele>673.113309</ele>
        <time>2021-10-28T11:52:05.000Z</time>
      </trkpt>
      <trkpt lat="39.157943" lon="-1.823358">
        <ele>673.234339</ele>
        <time>2021-10-28T11:52:10.000Z</time>
      </trkpt>
      <trkpt lat="39.158040" lon="-1.823357">
        <ele>673.355773</ele>
        <time>2021-10-28T11:52:13.000Z</time>
      </trkpt>
      <trkpt lat="39.158110" lon="-1.823387">
        <ele>673.448116</ele>
        <time>2021-10-28T11:52:15.000Z</time>
      </trkpt>
      <trkpt lat="39.158432" lon="-1.823502">
        <ele>673.866388</ele>
        <time>2021-10-28T11:52:23.000Z</time>
      </trkpt>
      <trkpt lat="39.158853" lon="-1.823533">
        <ele>674.394281</ele>
        <time>2021-10-28T11:52:32.000Z</time>
      </trkpt>
      <trkpt lat="39.159195" lon="-1.823468">
        <ele>674.827042</ele>
        <time>2021-10-28T11:52:39.000Z</time>
      </trkpt>
      <trkpt lat="39.159244" lon="-1.823450">
        <ele>674.890823</ele>
        <time>2021-10-28T11:52:40.000Z</time>
      </trkpt>
      <trkpt lat="39.159620" lon="-1.823258">
        <ele>675.314313</ele>
        <time>2021-10-28T11:52:48.000Z</time>
      </trkpt>
      <trkpt lat="39.159937" lon="-1.823082">
        <ele>675.364206</ele>
        <time>2021-10-28T11:52:55.000Z</time>
      </trkpt>
      <trkpt lat="39.160288" lon="-1.823000">
        <ele>675.415775</ele>
        <time>2021-10-28T11:53:02.000Z</time>
      </trkpt>
      <trkpt lat="39.160399" lon="-1.822983">
        <ele>675.431934</ele>
        <time>2021-10-28T11:53:04.000Z</time>
      </trkpt>
      <trkpt lat="39.160685" lon="-1.822980">
        <ele>675.473281</ele>
        <time>2021-10-28T11:53:09.000Z</time>
      </trkpt>
      <trkpt lat="39.161207" lon="-1.822990">
        <ele>675.548753</ele>
        <time>2021-10-28T11:53:18.000Z</time>
      </trkpt>
      <trkpt lat="39.161781" lon="-1.822996">
        <ele>674.815481</ele>
        <time>2021-10-28T11:53:28.000Z</time>
      </trkpt>
      <trkpt lat="39.161898" lon="-1.823000">
        <ele>674.629912</ele>
        <time>2021-10-28T11:53:30.000Z</time>
      </trkpt>
      <trkpt lat="39.162459" lon="-1.823008">
        <ele>673.740393</ele>
        <time>2021-10-28T11:53:39.000Z</time>
      </trkpt>
      <trkpt lat="39.162925" lon="-1.823017">
        <ele>673.001468</ele>
        <time>2021-10-28T11:53:46.000Z</time>
      </trkpt>
      <trkpt lat="39.163204" lon="-1.823039">
        <ele>672.177644</ele>
        <time>2021-10-28T11:53:50.000Z</time>
      </trkpt>
      <trkpt lat="39.163353" lon="-1.823072">
        <ele>671.343537</ele>
        <time>2021-10-28T11:53:52.000Z</time>
      </trkpt>
      <trkpt lat="39.163429" lon="-1.823094">
        <ele>670.913792</ele>
        <time>2021-10-28T11:53:53.000Z</time>
      </trkpt>
      <trkpt lat="39.163584" lon="-1.823144">
        <ele>670.032272</ele>
        <time>2021-10-28T11:53:55.000Z</time>
      </trkpt>
      <trkpt lat="39.163736" lon="-1.823217">
        <ele>669.137390</ele>
        <time>2021-10-28T11:53:57.000Z</time>
      </trkpt>
      <trkpt lat="39.163811" lon="-1.823261">
        <ele>668.682797</ele>
        <time>2021-10-28T11:53:58.000Z</time>
      </trkpt>
      <trkpt lat="39.164041" lon="-1.823408">
        <ele>667.266561</ele>
        <time>2021-10-28T11:54:01.000Z</time>
      </trkpt>
      <trkpt lat="39.164348" lon="-1.823629">
        <ele>665.326785</ele>
        <time>2021-10-28T11:54:05.000Z</time>
      </trkpt>
      <trkpt lat="39.164482" lon="-1.823781">
        <ele>664.342219</ele>
        <time>2021-10-28T11:54:07.000Z</time>
      </trkpt>
      <trkpt lat="39.164546" lon="-1.823870">
        <ele>663.822959</ele>
        <time>2021-10-28T11:54:08.000Z</time>
      </trkpt>
      <trkpt lat="39.164608" lon="-1.823958">
        <ele>663.314314</ele>
        <time>2021-10-28T11:54:09.000Z</time>
      </trkpt>
      <trkpt lat="39.164668" lon="-1.824051">
        <ele>662.796768</ele>
        <time>2021-10-28T11:54:10.000Z</time>
      </trkpt>
      <trkpt lat="39.164730" lon="-1.824143">
        <ele>662.164600</ele>
        <time>2021-10-28T11:54:11.000Z</time>
      </trkpt>
      <trkpt lat="39.164861" lon="-1.824324">
        <ele>660.876711</ele>
        <time>2021-10-28T11:54:13.000Z</time>
      </trkpt>
      <trkpt lat="39.164935" lon="-1.824409">
        <ele>660.211945</ele>
        <time>2021-10-28T11:54:14.000Z</time>
      </trkpt>
      <trkpt lat="39.165014" lon="-1.824485">
        <ele>659.550778</ele>
        <time>2021-10-28T11:54:15.000Z</time>
      </trkpt>
      <trkpt lat="39.165103" lon="-1.824546">
        <ele>658.874647</ele>
        <time>2021-10-28T11:54:16.000Z</time>
      </trkpt>
      <trkpt lat="39.165297" lon="-1.824620">
        <ele>657.517461</ele>
        <time>2021-10-28T11:54:18.000Z</time>
      </trkpt>
      <trkpt lat="39.165401" lon="-1.824627">
        <ele>656.818820</ele>
        <time>2021-10-28T11:54:19.000Z</time>
      </trkpt>
      <trkpt lat="39.165505" lon="-1.824618">
        <ele>656.119559</ele>
        <time>2021-10-28T11:54:20.000Z</time>
      </trkpt>
      <trkpt lat="39.165609" lon="-1.824597">
        <ele>655.413369</ele>
        <time>2021-10-28T11:54:21.000Z</time>
      </trkpt>
      <trkpt lat="39.165713" lon="-1.824566">
        <ele>654.697288</ele>
        <time>2021-10-28T11:54:22.000Z</time>
      </trkpt>
      <trkpt lat="39.165811" lon="-1.824516">
        <ele>653.990278</ele>
        <time>2021-10-28T11:54:23.000Z</time>
      </trkpt>
      <trkpt lat="39.165905" lon="-1.824454">
        <ele>653.282000</ele>
        <time>2021-10-28T11:54:24.000Z</time>
      </trkpt>
      <trkpt lat="39.166080" lon="-1.824296">
        <ele>651.848948</ele>
        <time>2021-10-28T11:54:26.000Z</time>
      </trkpt>
      <trkpt lat="39.166228" lon="-1.824100">
        <ele>650.513696</ele>
        <time>2021-10-28T11:54:28.000Z</time>
      </trkpt>
      <trkpt lat="39.166367" lon="-1.823885">
        <ele>649.489622</ele>
        <time>2021-10-28T11:54:30.000Z</time>
      </trkpt>
      <trkpt lat="39.166420" lon="-1.823761">
        <ele>648.971645</ele>
        <time>2021-10-28T11:54:31.000Z</time>
      </trkpt>
      <trkpt lat="39.166460" lon="-1.823627">
        <ele>648.446373</ele>
        <time>2021-10-28T11:54:32.000Z</time>
      </trkpt>
      <trkpt lat="39.166498" lon="-1.823492">
        <ele>647.920980</ele>
        <time>2021-10-28T11:54:33.000Z</time>
      </trkpt>
      <trkpt lat="39.166522" lon="-1.823347">
        <ele>647.378593</ele>
        <time>2021-10-28T11:54:34.000Z</time>
      </trkpt>
      <trkpt lat="39.166542" lon="-1.823059">
        <ele>646.320824</ele>
        <time>2021-10-28T11:54:36.000Z</time>
      </trkpt>
      <trkpt lat="39.166535" lon="-1.822909">
        <ele>645.771106</ele>
        <time>2021-10-28T11:54:37.000Z</time>
      </trkpt>
      <trkpt lat="39.166501" lon="-1.822619">
        <ele>644.698176</ele>
        <time>2021-10-28T11:54:39.000Z</time>
      </trkpt>
      <trkpt lat="39.166445" lon="-1.822334">
        <ele>643.622637</ele>
        <time>2021-10-28T11:54:41.000Z</time>
      </trkpt>
      <trkpt lat="39.166376" lon="-1.822056">
        <ele>642.554825</ele>
        <time>2021-10-28T11:54:43.000Z</time>
      </trkpt>
      <trkpt lat="39.166340" lon="-1.821920">
        <ele>642.230570</ele>
        <time>2021-10-28T11:54:44.000Z</time>
      </trkpt>
      <trkpt lat="39.166276" lon="-1.821654">
        <ele>642.207260</ele>
        <time>2021-10-28T11:54:46.000Z</time>
      </trkpt>
      <trkpt lat="39.166205" lon="-1.821322">
        <ele>642.178435</ele>
        <time>2021-10-28T11:54:49.000Z</time>
      </trkpt>
      <trkpt lat="39.166242" lon="-1.821164">
        <ele>642.164621</ele>
        <time>2021-10-28T11:54:51.000Z</time>
      </trkpt>
      <trkpt lat="39.166300" lon="-1.821112">
        <ele>642.156996</ele>
        <time>2021-10-28T11:54:52.000Z</time>
      </trkpt>
      <trkpt lat="39.166364" lon="-1.821072">
        <ele>642.149318</ele>
        <time>2021-10-28T11:54:53.000Z</time>
      </trkpt>
      <trkpt lat="39.166431" lon="-1.821035">
        <ele>642.141451</ele>
        <time>2021-10-28T11:54:54.000Z</time>
      </trkpt>
      <trkpt lat="39.166916" lon="-1.820727">
        <ele>642.083093</ele>
        <time>2021-10-28T11:55:02.000Z</time>
      </trkpt>
      <trkpt lat="39.167013" lon="-1.820620">
        <ele>642.069314</ele>
        <time>2021-10-28T11:55:04.000Z</time>
      </trkpt>
      <trkpt lat="39.167053" lon="-1.820466">
        <ele>642.055721</ele>
        <time>2021-10-28T11:55:06.000Z</time>
      </trkpt>
      <trkpt lat="39.167047" lon="-1.820386">
        <ele>642.048994</ele>
        <time>2021-10-28T11:55:07.000Z</time>
      </trkpt>
      <trkpt lat="39.166996" lon="-1.820160">
        <ele>642.081461</ele>
        <time>2021-10-28T11:55:10.000Z</time>
      </trkpt>
      <trkpt lat="39.166972" lon="-1.820089">
        <ele>642.103569</ele>
        <time>2021-10-28T11:55:11.000Z</time>
      </trkpt>
      <trkpt lat="39.166946" lon="-1.820020">
        <ele>642.125466</ele>
        <time>2021-10-28T11:55:12.000Z</time>
      </trkpt>
      <trkpt lat="39.166897" lon="-1.819880">
        <ele>642.169309</ele>
        <time>2021-10-28T11:55:14.000Z</time>
      </trkpt>
      <trkpt lat="39.166758" lon="-1.819458">
        <ele>642.300180</ele>
        <time>2021-10-28T11:55:20.000Z</time>
      </trkpt>
      <trkpt lat="39.166529" lon="-1.818768">
        <ele>642.514412</ele>
        <time>2021-10-28T11:55:30.000Z</time>
      </trkpt>
      <trkpt lat="39.166506" lon="-1.818701">
        <ele>642.535327</ele>
        <time>2021-10-28T11:55:31.000Z</time>
      </trkpt>
      <trkpt lat="39.166322" lon="-1.818167">
        <ele>642.702122</ele>
        <time>2021-10-28T11:55:39.000Z</time>
      </trkpt>
      <trkpt lat="39.166229" lon="-1.817903">
        <ele>642.946820</ele>
        <time>2021-10-28T11:55:43.000Z</time>
      </trkpt>
      <trkpt lat="39.166187" lon="-1.817772">
        <ele>643.067579</ele>
        <time>2021-10-28T11:55:45.000Z</time>
      </trkpt>
      <trkpt lat="39.166145" lon="-1.817639">
        <ele>643.189914</ele>
        <time>2021-10-28T11:55:47.000Z</time>
      </trkpt>
      <trkpt lat="39.166078" lon="-1.817440">
        <ele>643.374730</ele>
        <time>2021-10-28T11:55:50.000Z</time>
      </trkpt>
      <trkpt lat="39.165899" lon="-1.816748">
        <ele>643.996164</ele>
        <time>2021-10-28T11:56:00.000Z</time>
      </trkpt>
      <trkpt lat="39.165887" lon="-1.816679">
        <ele>644.056404</ele>
        <time>2021-10-28T11:56:01.000Z</time>
      </trkpt>
      <trkpt lat="39.165841" lon="-1.816396">
        <ele>644.302724</ele>
        <time>2021-10-28T11:56:05.000Z</time>
      </trkpt>
      <trkpt lat="39.165805" lon="-1.816129">
        <ele>644.533586</ele>
        <time>2021-10-28T11:56:09.000Z</time>
      </trkpt>
      <trkpt lat="39.165790" lon="-1.816000">
        <ele>644.644707</ele>
        <time>2021-10-28T11:56:11.000Z</time>
      </trkpt>
      <trkpt lat="39.165770" lon="-1.815818">
        <ele>645.260516</ele>
        <time>2021-10-28T11:56:14.000Z</time>
      </trkpt>
      <trkpt lat="39.165750" lon="-1.815596">
        <ele>646.168823</ele>
        <time>2021-10-28T11:56:18.000Z</time>
      </trkpt>
      <trkpt lat="39.165746" lon="-1.815542">
        <ele>646.389285</ele>
        <time>2021-10-28T11:56:19.000Z</time>
      </trkpt>
      <trkpt lat="39.165733" lon="-1.815148">
        <ele>647.992002</ele>
        <time>2021-10-28T11:56:27.000Z</time>
      </trkpt>
      <trkpt lat="39.165738" lon="-1.814915">
        <ele>648.939307</ele>
        <time>2021-10-28T11:56:32.000Z</time>
      </trkpt>
      <trkpt lat="39.165745" lon="-1.814728">
        <ele>649.700184</ele>
        <time>2021-10-28T11:56:36.000Z</time>
      </trkpt>
      <trkpt lat="39.165746" lon="-1.814633">
        <ele>650.086312</ele>
        <time>2021-10-28T11:56:38.000Z</time>
      </trkpt>
      <trkpt lat="39.165751" lon="-1.814491">
        <ele>650.664014</ele>
        <time>2021-10-28T11:56:41.000Z</time>
      </trkpt>
      <trkpt lat="39.165776" lon="-1.814174">
        <ele>651.958990</ele>
        <time>2021-10-28T11:56:48.000Z</time>
      </trkpt>
      <trkpt lat="39.165798" lon="-1.813993">
        <ele>652.703582</ele>
        <time>2021-10-28T11:56:52.000Z</time>
      </trkpt>
      <trkpt lat="39.165803" lon="-1.813948">
        <ele>652.888336</ele>
        <time>2021-10-28T11:56:53.000Z</time>
      </trkpt>
      <trkpt lat="39.165833" lon="-1.813720">
        <ele>653.828206</ele>
        <time>2021-10-28T11:56:58.000Z</time>
      </trkpt>
      <trkpt lat="39.165847" lon="-1.813631">
        <ele>654.200240</ele>
        <time>2021-10-28T11:57:00.000Z</time>
      </trkpt>
      <trkpt lat="39.165889" lon="-1.813434">
        <ele>655.058015</ele>
        <time>2021-10-28T11:57:05.000Z</time>
      </trkpt>
      <trkpt lat="39.165927" lon="-1.813290">
        <ele>655.696637</ele>
        <time>2021-10-28T11:57:09.000Z</time>
      </trkpt>
      <trkpt lat="39.165946" lon="-1.813218">
        <ele>656.015948</ele>
        <time>2021-10-28T11:57:11.000Z</time>
      </trkpt>
      <trkpt lat="39.165974" lon="-1.813114">
        <ele>656.478152</ele>
        <time>2021-10-28T11:57:14.000Z</time>
      </trkpt>
      <trkpt lat="39.166001" lon="-1.813013">
        <ele>656.926683</ele>
        <time>2021-10-28T11:57:17.000Z</time>
      </trkpt>
      <trkpt lat="39.166039" lon="-1.812910">
        <ele>657.405574</ele>
        <time>2021-10-28T11:57:20.000Z</time>
      </trkpt>
      <trkpt lat="39.166080" lon="-1.812802">
        <ele>657.910432</ele>
        <time>2021-10-28T11:57:23.000Z</time>
      </trkpt>
      <trkpt lat="39.166094" lon="-1.812766">
        <ele>658.079519</ele>
        <time>2021-10-28T11:57:24.000Z</time>
      </trkpt>
      <trkpt lat="39.166171" lon="-1.812595">
        <ele>658.909733</ele>
        <time>2021-10-28T11:57:29.000Z</time>
      </trkpt>
      <trkpt lat="39.166220" lon="-1.812496">
        <ele>659.402841</ele>
        <time>2021-10-28T11:57:32.000Z</time>
      </trkpt>
      <trkpt lat="39.166304" lon="-1.812328">
        <ele>660.242110</ele>
        <time>2021-10-28T11:57:37.000Z</time>
      </trkpt>
      <trkpt lat="39.166368" lon="-1.812192">
        <ele>660.910027</ele>
        <time>2021-10-28T11:57:41.000Z</time>
      </trkpt>
      <trkpt lat="39.166386" lon="-1.812157">
        <ele>661.086357</ele>
        <time>2021-10-28T11:57:42.000Z</time>
      </trkpt>
      <trkpt lat="39.166404" lon="-1.812121">
        <ele>661.266200</ele>
        <time>2021-10-28T11:57:43.000Z</time>
      </trkpt>
      <trkpt lat="39.166523" lon="-1.811909">
        <ele>662.365022</ele>
        <time>2021-10-28T11:57:49.000Z</time>
      </trkpt>
      <trkpt lat="39.166568" lon="-1.811838">
        <ele>662.750027</ele>
        <time>2021-10-28T11:57:51.000Z</time>
      </trkpt>
      <trkpt lat="39.166592" lon="-1.811804">
        <ele>662.943069</ele>
        <time>2021-10-28T11:57:52.000Z</time>
      </trkpt>
      <trkpt lat="39.166662" lon="-1.811698">
        <ele>663.527639</ele>
        <time>2021-10-28T11:57:55.000Z</time>
      </trkpt>
      <trkpt lat="39.166685" lon="-1.811664">
        <ele>663.717077</ele>
        <time>2021-10-28T11:57:56.000Z</time>
      </trkpt>
      <trkpt lat="39.166788" lon="-1.811535">
        <ele>664.294757</ele>
        <time>2021-10-28T11:58:00.000Z</time>
      </trkpt>
      <trkpt lat="39.166814" lon="-1.811503">
        <ele>664.429292</ele>
        <time>2021-10-28T11:58:01.000Z</time>
      </trkpt>
      <trkpt lat="39.167068" lon="-1.811204">
        <ele>665.716632</ele>
        <time>2021-10-28T11:58:11.000Z</time>
      </trkpt>
      <trkpt lat="39.167152" lon="-1.811120">
        <ele>666.114530</ele>
        <time>2021-10-28T11:58:14.000Z</time>
      </trkpt>
      <trkpt lat="39.167242" lon="-1.811040">
        <ele>666.523709</ele>
        <time>2021-10-28T11:58:17.000Z</time>
      </trkpt>
      <trkpt lat="39.167363" lon="-1.810929">
        <ele>667.079561</ele>
        <time>2021-10-28T11:58:21.000Z</time>
      </trkpt>
      <trkpt lat="39.167423" lon="-1.810875">
        <ele>667.353449</ele>
        <time>2021-10-28T11:58:23.000Z</time>
      </trkpt>
      <trkpt lat="39.167487" lon="-1.810822">
        <ele>667.638167</ele>
        <time>2021-10-28T11:58:25.000Z</time>
      </trkpt>
      <trkpt lat="39.167750" lon="-1.810594">
        <ele>668.824441</ele>
        <time>2021-10-28T11:58:33.000Z</time>
      </trkpt>
      <trkpt lat="39.167785" lon="-1.810566">
        <ele>668.978621</ele>
        <time>2021-10-28T11:58:34.000Z</time>
      </trkpt>
      <trkpt lat="39.167818" lon="-1.810537">
        <ele>669.128106</ele>
        <time>2021-10-28T11:58:35.000Z</time>
      </trkpt>
      <trkpt lat="39.168127" lon="-1.810276">
        <ele>670.510826</ele>
        <time>2021-10-28T11:58:44.000Z</time>
      </trkpt>
      <trkpt lat="39.168163" lon="-1.810247">
        <ele>670.627717</ele>
        <time>2021-10-28T11:58:45.000Z</time>
      </trkpt>
      <trkpt lat="39.168562" lon="-1.809910">
        <ele>671.570831</ele>
        <time>2021-10-28T11:58:56.000Z</time>
      </trkpt>
      <trkpt lat="39.168756" lon="-1.809748">
        <ele>672.027836</ele>
        <time>2021-10-28T11:59:01.000Z</time>
      </trkpt>
      <trkpt lat="39.168795" lon="-1.809714">
        <ele>672.120920</ele>
        <time>2021-10-28T11:59:02.000Z</time>
      </trkpt>
      <trkpt lat="39.168990" lon="-1.809537">
        <ele>672.592435</ele>
        <time>2021-10-28T11:59:07.000Z</time>
      </trkpt>
      <trkpt lat="39.169030" lon="-1.809501">
        <ele>672.688885</ele>
        <time>2021-10-28T11:59:08.000Z</time>
      </trkpt>
      <trkpt lat="39.169262" lon="-1.809276">
        <ele>673.262869</ele>
        <time>2021-10-28T11:59:14.000Z</time>
      </trkpt>
      <trkpt lat="39.169519" lon="-1.809004">
        <ele>673.920259</ele>
        <time>2021-10-28T11:59:21.000Z</time>
      </trkpt>
      <trkpt lat="39.169555" lon="-1.808965">
        <ele>674.013225</ele>
        <time>2021-10-28T11:59:22.000Z</time>
      </trkpt>
      <trkpt lat="39.169832" lon="-1.808636">
        <ele>674.645437</ele>
        <time>2021-10-28T11:59:30.000Z</time>
      </trkpt>
      <trkpt lat="39.169935" lon="-1.808516">
        <ele>674.870176</ele>
        <time>2021-10-28T11:59:33.000Z</time>
      </trkpt>
      <trkpt lat="39.170246" lon="-1.808150">
        <ele>675.551853</ele>
        <time>2021-10-28T11:59:42.000Z</time>
      </trkpt>
      <trkpt lat="39.170349" lon="-1.808031">
        <ele>675.775753</ele>
        <time>2021-10-28T11:59:45.000Z</time>
      </trkpt>
      <trkpt lat="39.170623" lon="-1.807699">
        <ele>676.384468</ele>
        <time>2021-10-28T11:59:53.000Z</time>
      </trkpt>
      <trkpt lat="39.170773" lon="-1.807522">
        <ele>676.713650</ele>
        <time>2021-10-28T11:59:57.000Z</time>
      </trkpt>
      <trkpt lat="39.170892" lon="-1.807383">
        <ele>676.973601</ele>
        <time>2021-10-28T12:00:00.000Z</time>
      </trkpt>
      <trkpt lat="39.171092" lon="-1.807147">
        <ele>677.103128</ele>
        <time>2021-10-28T12:00:05.000Z</time>
      </trkpt>
      <trkpt lat="39.171296" lon="-1.806908">
        <ele>677.168722</ele>
        <time>2021-10-28T12:00:10.000Z</time>
      </trkpt>
      <trkpt lat="39.171703" lon="-1.806423">
        <ele>677.300606</ele>
        <time>2021-10-28T12:00:20.000Z</time>
      </trkpt>
      <trkpt lat="39.171745" lon="-1.806374">
        <ele>677.314085</ele>
        <time>2021-10-28T12:00:21.000Z</time>
      </trkpt>
      <trkpt lat="39.172163" lon="-1.805889">
        <ele>677.447904</ele>
        <time>2021-10-28T12:00:31.000Z</time>
      </trkpt>
      <trkpt lat="39.172323" lon="-1.805693">
        <ele>677.571708</ele>
        <time>2021-10-28T12:00:35.000Z</time>
      </trkpt>
      <trkpt lat="39.172729" lon="-1.805205">
        <ele>678.122191</ele>
        <time>2021-10-28T12:00:45.000Z</time>
      </trkpt>
      <trkpt lat="39.173098" lon="-1.804778">
        <ele>678.613929</ele>
        <time>2021-10-28T12:00:54.000Z</time>
      </trkpt>
      <trkpt lat="39.173258" lon="-1.804588">
        <ele>678.829657</ele>
        <time>2021-10-28T12:00:58.000Z</time>
      </trkpt>
      <trkpt lat="39.173339" lon="-1.804495">
        <ele>678.937225</ele>
        <time>2021-10-28T12:01:00.000Z</time>
      </trkpt>
      <trkpt lat="39.173616" lon="-1.804166">
        <ele>679.320332</ele>
        <time>2021-10-28T12:01:07.000Z</time>
      </trkpt>
      <trkpt lat="39.173734" lon="-1.804020">
        <ele>679.514531</ele>
        <time>2021-10-28T12:01:10.000Z</time>
      </trkpt>
      <trkpt lat="39.174135" lon="-1.803545">
        <ele>680.161145</ele>
        <time>2021-10-28T12:01:20.000Z</time>
      </trkpt>
      <trkpt lat="39.174300" lon="-1.803356">
        <ele>680.423228</ele>
        <time>2021-10-28T12:01:24.000Z</time>
      </trkpt>
      <trkpt lat="39.174663" lon="-1.802937">
        <ele>681.001770</ele>
        <time>2021-10-28T12:01:33.000Z</time>
      </trkpt>
      <trkpt lat="39.174774" lon="-1.802806">
        <ele>681.180456</ele>
        <time>2021-10-28T12:01:36.000Z</time>
      </trkpt>
      <trkpt lat="39.174846" lon="-1.802718">
        <ele>681.298260</ele>
        <time>2021-10-28T12:01:38.000Z</time>
      </trkpt>
      <trkpt lat="39.174883" lon="-1.802675">
        <ele>681.357409</ele>
        <time>2021-10-28T12:01:39.000Z</time>
      </trkpt>
      <trkpt lat="39.175188" lon="-1.802288">
        <ele>681.762056</ele>
        <time>2021-10-28T12:01:48.000Z</time>
      </trkpt>
      <trkpt lat="39.175287" lon="-1.802156">
        <ele>681.893705</ele>
        <time>2021-10-28T12:01:51.000Z</time>
      </trkpt>
      <trkpt lat="39.175511" lon="-1.801822">
        <ele>682.210271</ele>
        <time>2021-10-28T12:01:58.000Z</time>
      </trkpt>
      <trkpt lat="39.175599" lon="-1.801670">
        <ele>682.346253</ele>
        <time>2021-10-28T12:02:01.000Z</time>
      </trkpt>
      <trkpt lat="39.175784" lon="-1.801297">
        <ele>682.663652</ele>
        <time>2021-10-28T12:02:08.000Z</time>
      </trkpt>
      <trkpt lat="39.175837" lon="-1.801183">
        <ele>682.758934</ele>
        <time>2021-10-28T12:02:10.000Z</time>
      </trkpt>
      <trkpt lat="39.175861" lon="-1.801124">
        <ele>682.806693</ele>
        <time>2021-10-28T12:02:11.000Z</time>
      </trkpt>
      <trkpt lat="39.175927" lon="-1.800950">
        <ele>682.945543</ele>
        <time>2021-10-28T12:02:14.000Z</time>
      </trkpt>
      <trkpt lat="39.175987" lon="-1.800778">
        <ele>683.068079</ele>
        <time>2021-10-28T12:02:17.000Z</time>
      </trkpt>
      <trkpt lat="39.176107" lon="-1.800340">
        <ele>683.182647</ele>
        <time>2021-10-28T12:02:24.000Z</time>
      </trkpt>
      <trkpt lat="39.176138" lon="-1.800208">
        <ele>683.216663</ele>
        <time>2021-10-28T12:02:26.000Z</time>
      </trkpt>
      <trkpt lat="39.176218" lon="-1.799794">
        <ele>683.321889</ele>
        <time>2021-10-28T12:02:32.000Z</time>
      </trkpt>
      <trkpt lat="39.176240" lon="-1.799650">
        <ele>683.358085</ele>
        <time>2021-10-28T12:02:34.000Z</time>
      </trkpt>
      <trkpt lat="39.176252" lon="-1.799578">
        <ele>683.376248</ele>
        <time>2021-10-28T12:02:35.000Z</time>
      </trkpt>
      <trkpt lat="39.176299" lon="-1.799281">
        <ele>683.451005</ele>
        <time>2021-10-28T12:02:39.000Z</time>
      </trkpt>
      <trkpt lat="39.176333" lon="-1.799055">
        <ele>683.507781</ele>
        <time>2021-10-28T12:02:42.000Z</time>
      </trkpt>
      <trkpt lat="39.176356" lon="-1.798905">
        <ele>683.545491</ele>
        <time>2021-10-28T12:02:44.000Z</time>
      </trkpt>
      <trkpt lat="39.176457" lon="-1.798278">
        <ele>683.169123</ele>
        <time>2021-10-28T12:02:52.000Z</time>
      </trkpt>
      <trkpt lat="39.176500" lon="-1.798043">
        <ele>682.772657</ele>
        <time>2021-10-28T12:02:55.000Z</time>
      </trkpt>
      <trkpt lat="39.176514" lon="-1.797968">
        <ele>682.645989</ele>
        <time>2021-10-28T12:02:56.000Z</time>
      </trkpt>
      <trkpt lat="39.176526" lon="-1.797891">
        <ele>682.517028</ele>
        <time>2021-10-28T12:02:57.000Z</time>
      </trkpt>
      <trkpt lat="39.176548" lon="-1.797736">
        <ele>682.258292</ele>
        <time>2021-10-28T12:02:59.000Z</time>
      </trkpt>
      <trkpt lat="39.176623" lon="-1.797255">
        <ele>681.452687</ele>
        <time>2021-10-28T12:03:05.000Z</time>
      </trkpt>
      <trkpt lat="39.176711" lon="-1.796686">
        <ele>680.499996</ele>
        <time>2021-10-28T12:03:12.000Z</time>
      </trkpt>
      <trkpt lat="39.176754" lon="-1.796442">
        <ele>680.089135</ele>
        <time>2021-10-28T12:03:15.000Z</time>
      </trkpt>
      <trkpt lat="39.176844" lon="-1.795900">
        <ele>680.368971</ele>
        <time>2021-10-28T12:03:22.000Z</time>
      </trkpt>
      <trkpt lat="39.176935" lon="-1.795307">
        <ele>681.207841</ele>
        <time>2021-10-28T12:03:30.000Z</time>
      </trkpt>
      <trkpt lat="39.176980" lon="-1.795027">
        <ele>681.604656</ele>
        <time>2021-10-28T12:03:34.000Z</time>
      </trkpt>
      <trkpt lat="39.177024" lon="-1.794751">
        <ele>681.995674</ele>
        <time>2021-10-28T12:03:38.000Z</time>
      </trkpt>
      <trkpt lat="39.177045" lon="-1.794616">
        <ele>682.186746</ele>
        <time>2021-10-28T12:03:40.000Z</time>
      </trkpt>
      <trkpt lat="39.177079" lon="-1.794414">
        <ele>682.473590</ele>
        <time>2021-10-28T12:03:43.000Z</time>
      </trkpt>
      <trkpt lat="39.177154" lon="-1.793942">
        <ele>683.105531</ele>
        <time>2021-10-28T12:03:50.000Z</time>
      </trkpt>
      <trkpt lat="39.177186" lon="-1.793754">
        <ele>683.273213</ele>
        <time>2021-10-28T12:03:53.000Z</time>
      </trkpt>
      <trkpt lat="39.177237" lon="-1.793464">
        <ele>683.532272</ele>
        <time>2021-10-28T12:03:58.000Z</time>
      </trkpt>
      <trkpt lat="39.177300" lon="-1.793033">
        <ele>683.914363</ele>
        <time>2021-10-28T12:04:05.000Z</time>
      </trkpt>
      <trkpt lat="39.177309" lon="-1.792969">
        <ele>683.971028</ele>
        <time>2021-10-28T12:04:06.000Z</time>
      </trkpt>
      <trkpt lat="39.177319" lon="-1.792905">
        <ele>684.027904</ele>
        <time>2021-10-28T12:04:07.000Z</time>
      </trkpt>
      <trkpt lat="39.177350" lon="-1.792718">
        <ele>684.194496</ele>
        <time>2021-10-28T12:04:10.000Z</time>
      </trkpt>
      <trkpt lat="39.177422" lon="-1.792253">
        <ele>684.607592</ele>
        <time>2021-10-28T12:04:17.000Z</time>
      </trkpt>
      <trkpt lat="39.177431" lon="-1.792190">
        <ele>684.663399</ele>
        <time>2021-10-28T12:04:18.000Z</time>
      </trkpt>
      <trkpt lat="39.177441" lon="-1.792129">
        <ele>684.717716</ele>
        <time>2021-10-28T12:04:19.000Z</time>
      </trkpt>
      <trkpt lat="39.177451" lon="-1.792064">
        <ele>684.775446</ele>
        <time>2021-10-28T12:04:20.000Z</time>
      </trkpt>
      <trkpt lat="39.177461" lon="-1.791998">
        <ele>684.834031</ele>
        <time>2021-10-28T12:04:21.000Z</time>
      </trkpt>
      <trkpt lat="39.177481" lon="-1.791866">
        <ele>684.951202</ele>
        <time>2021-10-28T12:04:23.000Z</time>
      </trkpt>
      <trkpt lat="39.177506" lon="-1.791684">
        <ele>685.089852</ele>
        <time>2021-10-28T12:04:26.000Z</time>
      </trkpt>
      <trkpt lat="39.177566" lon="-1.791335">
        <ele>685.253688</ele>
        <time>2021-10-28T12:04:32.000Z</time>
      </trkpt>
      <trkpt lat="39.177588" lon="-1.791220">
        <ele>685.307975</ele>
        <time>2021-10-28T12:04:34.000Z</time>
      </trkpt>
      <trkpt lat="39.177614" lon="-1.790928">
        <ele>685.442680</ele>
        <time>2021-10-28T12:04:40.000Z</time>
      </trkpt>
      <trkpt lat="39.177648" lon="-1.790797">
        <ele>685.505994</ele>
        <time>2021-10-28T12:04:46.000Z</time>
      </trkpt>
      <trkpt lat="39.177659" lon="-1.790798">
        <ele>685.512514</ele>
        <time>2021-10-28T12:04:51.000Z</time>
      </trkpt>
      <trkpt lat="39.177660" lon="-1.790798">
        <ele>685.513105</ele>
        <time>2021-10-28T12:04:53.000Z</time>
      </trkpt>
      <trkpt lat="39.177660" lon="-1.790798">
        <ele>685.513105</ele>
        <time>2021-10-28T12:04:54.000Z</time>
      </trkpt>
      <trkpt lat="39.177660" lon="-1.790799">
        <ele>685.513563</ele>
        <time>2021-10-28T12:04:56.000Z</time>
      </trkpt>
      <trkpt lat="39.177650" lon="-1.790803">
        <ele>685.519753</ele>
        <time>2021-10-28T12:05:00.000Z</time>
      </trkpt>
      <trkpt lat="39.177651" lon="-1.790806">
        <ele>685.521250</ele>
        <time>2021-10-28T12:05:10.000Z</time>
      </trkpt>
      <trkpt lat="39.177653" lon="-1.790807">
        <ele>685.522518</ele>
        <time>2021-10-28T12:05:15.000Z</time>
      </trkpt>
      <trkpt lat="39.177663" lon="-1.790808">
        <ele>685.528448</ele>
        <time>2021-10-28T12:05:17.000Z</time>
      </trkpt>
      <trkpt lat="39.177673" lon="-1.790809">
        <ele>685.534378</ele>
        <time>2021-10-28T12:05:19.000Z</time>
      </trkpt>
      <trkpt lat="39.177690" lon="-1.790808">
        <ele>685.544439</ele>
        <time>2021-10-28T12:05:21.000Z</time>
      </trkpt>
      <trkpt lat="39.177694" lon="-1.790805">
        <ele>685.547174</ele>
        <time>2021-10-28T12:05:23.000Z</time>
      </trkpt>
      <trkpt lat="39.177696" lon="-1.790802">
        <ele>685.548988</ele>
        <time>2021-10-28T12:05:24.000Z</time>
      </trkpt>
      <trkpt lat="39.177699" lon="-1.790793">
        <ele>685.553478</ele>
        <time>2021-10-28T12:05:25.000Z</time>
      </trkpt>
      <trkpt lat="39.177728" lon="-1.790700">
        <ele>685.599419</ele>
        <time>2021-10-28T12:05:29.000Z</time>
      </trkpt>
      <trkpt lat="39.177780" lon="-1.790441">
        <ele>685.722037</ele>
        <time>2021-10-28T12:05:35.000Z</time>
      </trkpt>
      <trkpt lat="39.177828" lon="-1.790234">
        <ele>685.821060</ele>
        <time>2021-10-28T12:05:39.000Z</time>
      </trkpt>
      <trkpt lat="39.177854" lon="-1.790129">
        <ele>685.871578</ele>
        <time>2021-10-28T12:05:41.000Z</time>
      </trkpt>
      <trkpt lat="39.177881" lon="-1.790021">
        <ele>685.923585</ele>
        <time>2021-10-28T12:05:43.000Z</time>
      </trkpt>
      <trkpt lat="39.177994" lon="-1.789524">
        <ele>686.213579</ele>
        <time>2021-10-28T12:05:52.000Z</time>
      </trkpt>
      <trkpt lat="39.178004" lon="-1.789467">
        <ele>686.283662</ele>
        <time>2021-10-28T12:05:53.000Z</time>
      </trkpt>
      <trkpt lat="39.178056" lon="-1.789300">
        <ele>686.499483</ele>
        <time>2021-10-28T12:05:56.000Z</time>
      </trkpt>
      <trkpt lat="39.178084" lon="-1.789184">
        <ele>686.645180</ele>
        <time>2021-10-28T12:05:58.000Z</time>
      </trkpt>
      <trkpt lat="39.178113" lon="-1.789065">
        <ele>686.794771</ele>
        <time>2021-10-28T12:06:00.000Z</time>
      </trkpt>
      <trkpt lat="39.178181" lon="-1.788760">
        <ele>687.175357</ele>
        <time>2021-10-28T12:06:05.000Z</time>
      </trkpt>
      <trkpt lat="39.178194" lon="-1.788697">
        <ele>687.253538</ele>
        <time>2021-10-28T12:06:06.000Z</time>
      </trkpt>
      <trkpt lat="39.178280" lon="-1.788314">
        <ele>687.731715</ele>
        <time>2021-10-28T12:06:12.000Z</time>
      </trkpt>
      <trkpt lat="39.178295" lon="-1.788251">
        <ele>687.810749</ele>
        <time>2021-10-28T12:06:13.000Z</time>
      </trkpt>
      <trkpt lat="39.178311" lon="-1.788190">
        <ele>687.887975</ele>
        <time>2021-10-28T12:06:14.000Z</time>
      </trkpt>
      <trkpt lat="39.178328" lon="-1.788129">
        <ele>687.965710</ele>
        <time>2021-10-28T12:06:15.000Z</time>
      </trkpt>
      <trkpt lat="39.178344" lon="-1.788069">
        <ele>688.041801</ele>
        <time>2021-10-28T12:06:16.000Z</time>
      </trkpt>
      <trkpt lat="39.178453" lon="-1.787673">
        <ele>688.545735</ele>
        <time>2021-10-28T12:06:23.000Z</time>
      </trkpt>
      <trkpt lat="39.178475" lon="-1.787636">
        <ele>688.601655</ele>
        <time>2021-10-28T12:06:24.000Z</time>
      </trkpt>
      <trkpt lat="39.178528" lon="-1.787594">
        <ele>688.697880</ele>
        <time>2021-10-28T12:06:27.000Z</time>
      </trkpt>
      <trkpt lat="39.178566" lon="-1.787577">
        <ele>688.760100</ele>
        <time>2021-10-28T12:06:29.000Z</time>
      </trkpt>
      <trkpt lat="39.178619" lon="-1.787607">
        <ele>688.849637</ele>
        <time>2021-10-28T12:06:31.000Z</time>
      </trkpt>
      <trkpt lat="39.178669" lon="-1.787677">
        <ele>688.992464</ele>
        <time>2021-10-28T12:06:33.000Z</time>
      </trkpt>
      <trkpt lat="39.178742" lon="-1.787789">
        <ele>689.263113</ele>
        <time>2021-10-28T12:06:36.000Z</time>
      </trkpt>
      <trkpt lat="39.178942" lon="-1.788129">
        <ele>690.052532</ele>
        <time>2021-10-28T12:06:44.000Z</time>
      </trkpt>
      <trkpt lat="39.179092" lon="-1.788343">
        <ele>690.586159</ele>
        <time>2021-10-28T12:06:49.000Z</time>
      </trkpt>
      <trkpt lat="39.179126" lon="-1.788383">
        <ele>690.695953</ele>
        <time>2021-10-28T12:06:50.000Z</time>
      </trkpt>
      <trkpt lat="39.179163" lon="-1.788420">
        <ele>690.807653</ele>
        <time>2021-10-28T12:06:51.000Z</time>
      </trkpt>
      <trkpt lat="39.179201" lon="-1.788454">
        <ele>690.917995</ele>
        <time>2021-10-28T12:06:52.000Z</time>
      </trkpt>
      <trkpt lat="39.179402" lon="-1.788591">
        <ele>691.460407</ele>
        <time>2021-10-28T12:06:57.000Z</time>
      </trkpt>
      <trkpt lat="39.179447" lon="-1.788608">
        <ele>691.572286</ele>
        <time>2021-10-28T12:06:58.000Z</time>
      </trkpt>
      <trkpt lat="39.179491" lon="-1.788621">
        <ele>691.679989</ele>
        <time>2021-10-28T12:06:59.000Z</time>
      </trkpt>
      <trkpt lat="39.179581" lon="-1.788640">
        <ele>691.897586</ele>
        <time>2021-10-28T12:07:01.000Z</time>
      </trkpt>
      <trkpt lat="39.179818" lon="-1.788636">
        <ele>692.463118</ele>
        <time>2021-10-28T12:07:06.000Z</time>
      </trkpt>
      <trkpt lat="39.179912" lon="-1.788624">
        <ele>692.688498</ele>
        <time>2021-10-28T12:07:08.000Z</time>
      </trkpt>
      <trkpt lat="39.180194" lon="-1.788600">
        <ele>693.136424</ele>
        <time>2021-10-28T12:07:14.000Z</time>
      </trkpt>
      <trkpt lat="39.180241" lon="-1.788604">
        <ele>693.090124</ele>
        <time>2021-10-28T12:07:15.000Z</time>
      </trkpt>
      <trkpt lat="39.180465" lon="-1.788671">
        <ele>692.864099</ele>
        <time>2021-10-28T12:07:20.000Z</time>
      </trkpt>
      <trkpt lat="39.180506" lon="-1.788690">
        <ele>692.821276</ele>
        <time>2021-10-28T12:07:21.000Z</time>
      </trkpt>
      <trkpt lat="39.180712" lon="-1.788812">
        <ele>692.598467</ele>
        <time>2021-10-28T12:07:27.000Z</time>
      </trkpt>
      <trkpt lat="39.180795" lon="-1.788929">
        <ele>692.477621</ele>
        <time>2021-10-28T12:09:08.000Z</time>
      </trkpt>
      <trkpt lat="39.180822" lon="-1.788965">
        <ele>692.439453</ele>
        <time>2021-10-28T12:09:09.000Z</time>
      </trkpt>
      <trkpt lat="39.180934" lon="-1.789066">
        <ele>692.305129</ele>
        <time>2021-10-28T12:09:12.000Z</time>
      </trkpt>
      <trkpt lat="39.181039" lon="-1.789042">
        <ele>692.200311</ele>
        <time>2021-10-28T12:09:14.000Z</time>
      </trkpt>
      <trkpt lat="39.181205" lon="-1.788930">
        <ele>692.016170</ele>
        <time>2021-10-28T12:09:17.000Z</time>
      </trkpt>
      <trkpt lat="39.181322" lon="-1.788844">
        <ele>691.883805</ele>
        <time>2021-10-28T12:09:19.000Z</time>
      </trkpt>
      <trkpt lat="39.181530" lon="-1.788709">
        <ele>691.654931</ele>
        <time>2021-10-28T12:09:22.000Z</time>
      </trkpt>
      <trkpt lat="39.181667" lon="-1.788597">
        <ele>691.495502</ele>
        <time>2021-10-28T12:09:24.000Z</time>
      </trkpt>
      <trkpt lat="39.181731" lon="-1.788540">
        <ele>691.396555</ele>
        <time>2021-10-28T12:09:25.000Z</time>
      </trkpt>
      <trkpt lat="39.181856" lon="-1.788419">
        <ele>691.018726</ele>
        <time>2021-10-28T12:09:27.000Z</time>
      </trkpt>
      <trkpt lat="39.181917" lon="-1.788355">
        <ele>690.828631</ele>
        <time>2021-10-28T12:09:28.000Z</time>
      </trkpt>
      <trkpt lat="39.182098" lon="-1.788157">
        <ele>690.254881</ele>
        <time>2021-10-28T12:09:31.000Z</time>
      </trkpt>
      <trkpt lat="39.182351" lon="-1.787909">
        <ele>689.486661</ele>
        <time>2021-10-28T12:09:35.000Z</time>
      </trkpt>
      <trkpt lat="39.182661" lon="-1.787620">
        <ele>688.561961</ele>
        <time>2021-10-28T12:09:40.000Z</time>
      </trkpt>
      <trkpt lat="39.182782" lon="-1.787509">
        <ele>688.202999</ele>
        <time>2021-10-28T12:09:42.000Z</time>
      </trkpt>
      <trkpt lat="39.183133" lon="-1.787186">
        <ele>687.160618</ele>
        <time>2021-10-28T12:09:48.000Z</time>
      </trkpt>
      <trkpt lat="39.183306" lon="-1.787032">
        <ele>686.890679</ele>
        <time>2021-10-28T12:09:51.000Z</time>
      </trkpt>
      <trkpt lat="39.183532" lon="-1.786819">
        <ele>686.585934</ele>
        <time>2021-10-28T12:09:55.000Z</time>
      </trkpt>
      <trkpt lat="39.183928" lon="-1.786459">
        <ele>686.058463</ele>
        <time>2021-10-28T12:10:02.000Z</time>
      </trkpt>
      <trkpt lat="39.184337" lon="-1.786076">
        <ele>685.508187</ele>
        <time>2021-10-28T12:10:09.000Z</time>
      </trkpt>
      <trkpt lat="39.184519" lon="-1.785935">
        <ele>685.277035</ele>
        <time>2021-10-28T12:10:12.000Z</time>
      </trkpt>
      <trkpt lat="39.184653" lon="-1.785882">
        <ele>685.123526</ele>
        <time>2021-10-28T12:10:14.000Z</time>
      </trkpt>
      <trkpt lat="39.184798" lon="-1.785857">
        <ele>684.916749</ele>
        <time>2021-10-28T12:10:16.000Z</time>
      </trkpt>
      <trkpt lat="39.184873" lon="-1.785853">
        <ele>684.810647</ele>
        <time>2021-10-28T12:10:17.000Z</time>
      </trkpt>
      <trkpt lat="39.185105" lon="-1.785860">
        <ele>684.482629</ele>
        <time>2021-10-28T12:10:20.000Z</time>
      </trkpt>
      <trkpt lat="39.185269" lon="-1.785864">
        <ele>684.250776</ele>
        <time>2021-10-28T12:10:22.000Z</time>
      </trkpt>
      <trkpt lat="39.185354" lon="-1.785858">
        <ele>684.130451</ele>
        <time>2021-10-28T12:10:23.000Z</time>
      </trkpt>
      <trkpt lat="39.185517" lon="-1.785789">
        <ele>683.887968</ele>
        <time>2021-10-28T12:10:25.000Z</time>
      </trkpt>
      <trkpt lat="39.185577" lon="-1.785712">
        <ele>683.768346</ele>
        <time>2021-10-28T12:10:26.000Z</time>
      </trkpt>
      <trkpt lat="39.185618" lon="-1.785620">
        <ele>683.652079</ele>
        <time>2021-10-28T12:10:27.000Z</time>
      </trkpt>
      <trkpt lat="39.185736" lon="-1.785146">
        <ele>683.106639</ele>
        <time>2021-10-28T12:10:32.000Z</time>
      </trkpt>
      <trkpt lat="39.185806" lon="-1.784884">
        <ele>682.803020</ele>
        <time>2021-10-28T12:10:35.000Z</time>
      </trkpt>
      <trkpt lat="39.185854" lon="-1.784712">
        <ele>682.602736</ele>
        <time>2021-10-28T12:10:37.000Z</time>
      </trkpt>
      <trkpt lat="39.186001" lon="-1.784192">
        <ele>683.146719</ele>
        <time>2021-10-28T12:10:43.000Z</time>
      </trkpt>
      <trkpt lat="39.186098" lon="-1.783844">
        <ele>683.533185</ele>
        <time>2021-10-28T12:10:47.000Z</time>
      </trkpt>
      <trkpt lat="39.186172" lon="-1.783579">
        <ele>683.827537</ele>
        <time>2021-10-28T12:10:50.000Z</time>
      </trkpt>
      <trkpt lat="39.186245" lon="-1.783311">
        <ele>684.124391</ele>
        <time>2021-10-28T12:10:53.000Z</time>
      </trkpt>
      <trkpt lat="39.186288" lon="-1.783129">
        <ele>684.323223</ele>
        <time>2021-10-28T12:10:55.000Z</time>
      </trkpt>
      <trkpt lat="39.186312" lon="-1.783038">
        <ele>684.423674</ele>
        <time>2021-10-28T12:10:56.000Z</time>
      </trkpt>
      <trkpt lat="39.186391" lon="-1.782764">
        <ele>684.729175</ele>
        <time>2021-10-28T12:10:59.000Z</time>
      </trkpt>
      <trkpt lat="39.186468" lon="-1.782477">
        <ele>684.910268</ele>
        <time>2021-10-28T12:11:02.000Z</time>
      </trkpt>
      <trkpt lat="39.186525" lon="-1.782283">
        <ele>684.316375</ele>
        <time>2021-10-28T12:11:04.000Z</time>
      </trkpt>
      <trkpt lat="39.186704" lon="-1.781803">
        <ele>682.791598</ele>
        <time>2021-10-28T12:11:09.000Z</time>
      </trkpt>
      <trkpt lat="39.186788" lon="-1.781620">
        <ele>682.182787</ele>
        <time>2021-10-28T12:11:11.000Z</time>
      </trkpt>
      <trkpt lat="39.186875" lon="-1.781439">
        <ele>681.573130</ele>
        <time>2021-10-28T12:11:13.000Z</time>
      </trkpt>
      <trkpt lat="39.186917" lon="-1.781347">
        <ele>681.267492</ele>
        <time>2021-10-28T12:11:14.000Z</time>
      </trkpt>
      <trkpt lat="39.187033" lon="-1.781068">
        <ele>680.361201</ele>
        <time>2021-10-28T12:11:17.000Z</time>
      </trkpt>
      <trkpt lat="39.187102" lon="-1.780880">
        <ele>679.765763</ele>
        <time>2021-10-28T12:11:19.000Z</time>
      </trkpt>
      <trkpt lat="39.187132" lon="-1.780784">
        <ele>679.469467</ele>
        <time>2021-10-28T12:11:20.000Z</time>
      </trkpt>
      <trkpt lat="39.187181" lon="-1.780589">
        <ele>678.882676</ele>
        <time>2021-10-28T12:11:22.000Z</time>
      </trkpt>
      <trkpt lat="39.187203" lon="-1.780491">
        <ele>678.590620</ele>
        <time>2021-10-28T12:11:23.000Z</time>
      </trkpt>
      <trkpt lat="39.187227" lon="-1.780395">
        <ele>678.338483</ele>
        <time>2021-10-28T12:11:24.000Z</time>
      </trkpt>
      <trkpt lat="39.187301" lon="-1.780113">
        <ele>677.962105</ele>
        <time>2021-10-28T12:11:27.000Z</time>
      </trkpt>
      <trkpt lat="39.187379" lon="-1.779840">
        <ele>677.594281</ele>
        <time>2021-10-28T12:11:30.000Z</time>
      </trkpt>
      <trkpt lat="39.187575" lon="-1.779440">
        <ele>676.996032</ele>
        <time>2021-10-28T12:11:35.000Z</time>
      </trkpt>
      <trkpt lat="39.187851" lon="-1.778876">
        <ele>676.152817</ele>
        <time>2021-10-28T12:11:42.000Z</time>
      </trkpt>
      <trkpt lat="39.187998" lon="-1.778546">
        <ele>675.671649</ele>
        <time>2021-10-28T12:11:46.000Z</time>
      </trkpt>
      <trkpt lat="39.188258" lon="-1.777885">
        <ele>675.520716</ele>
        <time>2021-10-28T12:11:54.000Z</time>
      </trkpt>
      <trkpt lat="39.188279" lon="-1.777801">
        <ele>675.534586</ele>
        <time>2021-10-28T12:11:55.000Z</time>
      </trkpt>
      <trkpt lat="39.188335" lon="-1.777469">
        <ele>675.587982</ele>
        <time>2021-10-28T12:11:59.000Z</time>
      </trkpt>
      <trkpt lat="39.188344" lon="-1.777302">
        <ele>675.614290</ele>
        <time>2021-10-28T12:12:01.000Z</time>
      </trkpt>
      <trkpt lat="39.188324" lon="-1.776594">
        <ele>675.725627</ele>
        <time>2021-10-28T12:12:09.000Z</time>
      </trkpt>
      <trkpt lat="39.188314" lon="-1.775856">
        <ele>675.677136</ele>
        <time>2021-10-28T12:12:17.000Z</time>
      </trkpt>
      <trkpt lat="39.188342" lon="-1.775587">
        <ele>675.557155</ele>
        <time>2021-10-28T12:12:20.000Z</time>
      </trkpt>
      <trkpt lat="39.188407" lon="-1.775332">
        <ele>675.438491</ele>
        <time>2021-10-28T12:12:23.000Z</time>
      </trkpt>
      <trkpt lat="39.188483" lon="-1.775084">
        <ele>675.320603</ele>
        <time>2021-10-28T12:12:26.000Z</time>
      </trkpt>
      <trkpt lat="39.188684" lon="-1.774420">
        <ele>675.005485</ele>
        <time>2021-10-28T12:12:34.000Z</time>
      </trkpt>
      <trkpt lat="39.188712" lon="-1.774339">
        <ele>674.966279</ele>
        <time>2021-10-28T12:12:35.000Z</time>
      </trkpt>
      <trkpt lat="39.188958" lon="-1.773705">
        <ele>674.909659</ele>
        <time>2021-10-28T12:12:43.000Z</time>
      </trkpt>
      <trkpt lat="39.189256" lon="-1.773116">
        <ele>675.265331</ele>
        <time>2021-10-28T12:12:51.000Z</time>
      </trkpt>
      <trkpt lat="39.189298" lon="-1.773051">
        <ele>675.308123</ele>
        <time>2021-10-28T12:12:52.000Z</time>
      </trkpt>
      <trkpt lat="39.189632" lon="-1.772663">
        <ele>675.601337</ele>
        <time>2021-10-28T12:12:59.000Z</time>
      </trkpt>
      <trkpt lat="39.190075" lon="-1.772164">
        <ele>675.942935</ele>
        <time>2021-10-28T12:13:08.000Z</time>
      </trkpt>
      <trkpt lat="39.190165" lon="-1.772031">
        <ele>675.935693</ele>
        <time>2021-10-28T12:13:10.000Z</time>
      </trkpt>
      <trkpt lat="39.190461" lon="-1.771450">
        <ele>675.907171</ele>
        <time>2021-10-28T12:13:18.000Z</time>
      </trkpt>
      <trkpt lat="39.190516" lon="-1.771026">
        <ele>675.889536</ele>
        <time>2021-10-28T12:13:23.000Z</time>
      </trkpt>
      <trkpt lat="39.190520" lon="-1.770464">
        <ele>675.866480</ele>
        <time>2021-10-28T12:13:30.000Z</time>
      </trkpt>
      <trkpt lat="39.190531" lon="-1.770221">
        <ele>675.856495</ele>
        <time>2021-10-28T12:13:33.000Z</time>
      </trkpt>
      <trkpt lat="39.190585" lon="-1.769831">
        <ele>675.923744</ele>
        <time>2021-10-28T12:13:38.000Z</time>
      </trkpt>
      <trkpt lat="39.190651" lon="-1.769621">
        <ele>675.987332</ele>
        <time>2021-10-28T12:13:41.000Z</time>
      </trkpt>
      <trkpt lat="39.190701" lon="-1.769486">
        <ele>676.029318</ele>
        <time>2021-10-28T12:13:43.000Z</time>
      </trkpt>
      <trkpt lat="39.190947" lon="-1.768950">
        <ele>676.204116</ele>
        <time>2021-10-28T12:13:51.000Z</time>
      </trkpt>
      <trkpt lat="39.191139" lon="-1.768452">
        <ele>676.360193</ele>
        <time>2021-10-28T12:13:58.000Z</time>
      </trkpt>
      <trkpt lat="39.191165" lon="-1.768380">
        <ele>676.382482</ele>
        <time>2021-10-28T12:13:59.000Z</time>
      </trkpt>
      <trkpt lat="39.191293" lon="-1.768016">
        <ele>676.494644</ele>
        <time>2021-10-28T12:14:04.000Z</time>
      </trkpt>
      <trkpt lat="39.191404" lon="-1.767635">
        <ele>676.611385</ele>
        <time>2021-10-28T12:14:09.000Z</time>
      </trkpt>
      <trkpt lat="39.191450" lon="-1.767486">
        <ele>676.657455</ele>
        <time>2021-10-28T12:14:11.000Z</time>
      </trkpt>
      <trkpt lat="39.191627" lon="-1.767050">
        <ele>676.798833</ele>
        <time>2021-10-28T12:14:17.000Z</time>
      </trkpt>
      <trkpt lat="39.191872" lon="-1.766665">
        <ele>676.941923</ele>
        <time>2021-10-28T12:14:23.000Z</time>
      </trkpt>
      <trkpt lat="39.192270" lon="-1.766157">
        <ele>677.149408</ele>
        <time>2021-10-28T12:14:32.000Z</time>
      </trkpt>
      <trkpt lat="39.192691" lon="-1.765618">
        <ele>677.642196</ele>
        <time>2021-10-28T12:14:42.000Z</time>
      </trkpt>
      <trkpt lat="39.193010" lon="-1.765126">
        <ele>678.077300</ele>
        <time>2021-10-28T12:14:51.000Z</time>
      </trkpt>
      <trkpt lat="39.193091" lon="-1.765020">
        <ele>678.178270</ele>
        <time>2021-10-28T12:14:53.000Z</time>
      </trkpt>
      <trkpt lat="39.193245" lon="-1.764797">
        <ele>678.380866</ele>
        <time>2021-10-28T12:14:57.000Z</time>
      </trkpt>
      <trkpt lat="39.193543" lon="-1.764344">
        <ele>678.772911</ele>
        <time>2021-10-28T12:15:05.000Z</time>
      </trkpt>
      <trkpt lat="39.193581" lon="-1.764289">
        <ele>678.809507</ele>
        <time>2021-10-28T12:15:06.000Z</time>
      </trkpt>
      <trkpt lat="39.193653" lon="-1.764179">
        <ele>678.881019</ele>
        <time>2021-10-28T12:15:08.000Z</time>
      </trkpt>
      <trkpt lat="39.193807" lon="-1.763890">
        <ele>679.055213</ele>
        <time>2021-10-28T12:15:13.000Z</time>
      </trkpt>
      <trkpt lat="39.193835" lon="-1.763829">
        <ele>679.090425</ele>
        <time>2021-10-28T12:15:14.000Z</time>
      </trkpt>
      <trkpt lat="39.193908" lon="-1.763626">
        <ele>679.201574</ele>
        <time>2021-10-28T12:15:17.000Z</time>
      </trkpt>
      <trkpt lat="39.193936" lon="-1.763477">
        <ele>679.277723</ele>
        <time>2021-10-28T12:15:19.000Z</time>
      </trkpt>
      <trkpt lat="39.193969" lon="-1.763106">
        <ele>679.463198</ele>
        <time>2021-10-28T12:15:24.000Z</time>
      </trkpt>
      <trkpt lat="39.193970" lon="-1.763034">
        <ele>679.498964</ele>
        <time>2021-10-28T12:15:25.000Z</time>
      </trkpt>
      <trkpt lat="39.193976" lon="-1.762474">
        <ele>679.777127</ele>
        <time>2021-10-28T12:15:33.000Z</time>
      </trkpt>
      <trkpt lat="39.193972" lon="-1.762404">
        <ele>679.811989</ele>
        <time>2021-10-28T12:15:34.000Z</time>
      </trkpt>
      <trkpt lat="39.193968" lon="-1.762268">
        <ele>679.879585</ele>
        <time>2021-10-28T12:15:36.000Z</time>
      </trkpt>
      <trkpt lat="39.193963" lon="-1.762064">
        <ele>679.916603</ele>
        <time>2021-10-28T12:15:39.000Z</time>
      </trkpt>
      <trkpt lat="39.193959" lon="-1.761861">
        <ele>679.941468</ele>
        <time>2021-10-28T12:15:42.000Z</time>
      </trkpt>
      <trkpt lat="39.193958" lon="-1.761725">
        <ele>679.958122</ele>
        <time>2021-10-28T12:15:44.000Z</time>
      </trkpt>
      <trkpt lat="39.193956" lon="-1.761588">
        <ele>679.974901</ele>
        <time>2021-10-28T12:15:46.000Z</time>
      </trkpt>
      <trkpt lat="39.193980" lon="-1.761045">
        <ele>680.041499</ele>
        <time>2021-10-28T12:15:54.000Z</time>
      </trkpt>
      <trkpt lat="39.194020" lon="-1.760847">
        <ele>680.066555</ele>
        <time>2021-10-28T12:15:57.000Z</time>
      </trkpt>
      <trkpt lat="39.194057" lon="-1.760725">
        <ele>680.082597</ele>
        <time>2021-10-28T12:15:59.000Z</time>
      </trkpt>
      <trkpt lat="39.194079" lon="-1.760666">
        <ele>680.090614</ele>
        <time>2021-10-28T12:16:00.000Z</time>
      </trkpt>
      <trkpt lat="39.194161" lon="-1.760432">
        <ele>680.122060</ele>
        <time>2021-10-28T12:16:04.000Z</time>
      </trkpt>
      <trkpt lat="39.194200" lon="-1.760317">
        <ele>680.137431</ele>
        <time>2021-10-28T12:16:06.000Z</time>
      </trkpt>
      <trkpt lat="39.194239" lon="-1.760199">
        <ele>680.153139</ele>
        <time>2021-10-28T12:16:08.000Z</time>
      </trkpt>
      <trkpt lat="39.194261" lon="-1.760140">
        <ele>680.161156</ele>
        <time>2021-10-28T12:16:09.000Z</time>
      </trkpt>
      <trkpt lat="39.194278" lon="-1.760079">
        <ele>680.169094</ele>
        <time>2021-10-28T12:16:10.000Z</time>
      </trkpt>
      <trkpt lat="39.194329" lon="-1.759893">
        <ele>680.278679</ele>
        <time>2021-10-28T12:16:13.000Z</time>
      </trkpt>
      <trkpt lat="39.194349" lon="-1.759831">
        <ele>680.338839</ele>
        <time>2021-10-28T12:16:14.000Z</time>
      </trkpt>
      <trkpt lat="39.194402" lon="-1.759645">
        <ele>680.516368</ele>
        <time>2021-10-28T12:16:17.000Z</time>
      </trkpt>
      <trkpt lat="39.194450" lon="-1.759459">
        <ele>680.691985</ele>
        <time>2021-10-28T12:16:20.000Z</time>
      </trkpt>
      <trkpt lat="39.194573" lon="-1.758901">
        <ele>681.211678</ele>
        <time>2021-10-28T12:16:29.000Z</time>
      </trkpt>
      <trkpt lat="39.194596" lon="-1.758780">
        <ele>681.323285</ele>
        <time>2021-10-28T12:16:31.000Z</time>
      </trkpt>
      <trkpt lat="39.194618" lon="-1.758658">
        <ele>681.435495</ele>
        <time>2021-10-28T12:16:33.000Z</time>
      </trkpt>
      <trkpt lat="39.194631" lon="-1.758600">
        <ele>681.489581</ele>
        <time>2021-10-28T12:16:34.000Z</time>
      </trkpt>
      <trkpt lat="39.194731" lon="-1.758147">
        <ele>681.911528</ele>
        <time>2021-10-28T12:16:42.000Z</time>
      </trkpt>
      <trkpt lat="39.194811" lon="-1.757632">
        <ele>682.384299</ele>
        <time>2021-10-28T12:16:51.000Z</time>
      </trkpt>
      <trkpt lat="39.194854" lon="-1.757169">
        <ele>682.809649</ele>
        <time>2021-10-28T12:16:59.000Z</time>
      </trkpt>
      <trkpt lat="39.194863" lon="-1.757051">
        <ele>682.917804</ele>
        <time>2021-10-28T12:17:01.000Z</time>
      </trkpt>
      <trkpt lat="39.194892" lon="-1.756813">
        <ele>683.137564</ele>
        <time>2021-10-28T12:17:05.000Z</time>
      </trkpt>
      <trkpt lat="39.194902" lon="-1.756688">
        <ele>683.252190</ele>
        <time>2021-10-28T12:17:07.000Z</time>
      </trkpt>
      <trkpt lat="39.194942" lon="-1.756303">
        <ele>683.606511</ele>
        <time>2021-10-28T12:17:13.000Z</time>
      </trkpt>
      <trkpt lat="39.195000" lon="-1.755730">
        <ele>684.133616</ele>
        <time>2021-10-28T12:17:22.000Z</time>
      </trkpt>
      <trkpt lat="39.195103" lon="-1.755213">
        <ele>684.924586</ele>
        <time>2021-10-28T12:17:30.000Z</time>
      </trkpt>
      <trkpt lat="39.195145" lon="-1.755033">
        <ele>685.309014</ele>
        <time>2021-10-28T12:17:33.000Z</time>
      </trkpt>
      <trkpt lat="39.195211" lon="-1.754744">
        <ele>685.925154</ele>
        <time>2021-10-28T12:17:38.000Z</time>
      </trkpt>
      <trkpt lat="39.195285" lon="-1.754420">
        <ele>686.615917</ele>
        <time>2021-10-28T12:17:44.000Z</time>
      </trkpt>
      <trkpt lat="39.195322" lon="-1.754268">
        <ele>686.941734</ele>
        <time>2021-10-28T12:17:47.000Z</time>
      </trkpt>
      <trkpt lat="39.195346" lon="-1.754171">
        <ele>687.149965</ele>
        <time>2021-10-28T12:17:49.000Z</time>
      </trkpt>
      <trkpt lat="39.195414" lon="-1.753843">
        <ele>687.844319</ele>
        <time>2021-10-28T12:17:56.000Z</time>
      </trkpt>
      <trkpt lat="39.195435" lon="-1.753745">
        <ele>688.052251</ele>
        <time>2021-10-28T12:17:58.000Z</time>
      </trkpt>
      <trkpt lat="39.195525" lon="-1.753334">
        <ele>688.925662</ele>
        <time>2021-10-28T12:18:06.000Z</time>
      </trkpt>
      <trkpt lat="39.195571" lon="-1.753124">
        <ele>689.245642</ele>
        <time>2021-10-28T12:18:10.000Z</time>
      </trkpt>
      <trkpt lat="39.195659" lon="-1.752754">
        <ele>689.637336</ele>
        <time>2021-10-28T12:18:17.000Z</time>
      </trkpt>
      <trkpt lat="39.195754" lon="-1.752338">
        <ele>690.076245</ele>
        <time>2021-10-28T12:18:25.000Z</time>
      </trkpt>
      <trkpt lat="39.195779" lon="-1.752237">
        <ele>690.183549</ele>
        <time>2021-10-28T12:18:27.000Z</time>
      </trkpt>
      <trkpt lat="39.195840" lon="-1.751987">
        <ele>690.448804</ele>
        <time>2021-10-28T12:18:32.000Z</time>
      </trkpt>
      <trkpt lat="39.195903" lon="-1.751763">
        <ele>690.689968</ele>
        <time>2021-10-28T12:18:37.000Z</time>
      </trkpt>
      <trkpt lat="39.196094" lon="-1.751339">
        <ele>691.186298</ele>
        <time>2021-10-28T12:18:46.000Z</time>
      </trkpt>
      <trkpt lat="39.196225" lon="-1.751105">
        <ele>691.473970</ele>
        <time>2021-10-28T12:18:51.000Z</time>
      </trkpt>
      <trkpt lat="39.196334" lon="-1.750916">
        <ele>691.574475</ele>
        <time>2021-10-28T12:18:55.000Z</time>
      </trkpt>
      <trkpt lat="39.196364" lon="-1.750874">
        <ele>691.598842</ele>
        <time>2021-10-28T12:18:56.000Z</time>
      </trkpt>
      <trkpt lat="39.196495" lon="-1.750704">
        <ele>691.701114</ele>
        <time>2021-10-28T12:19:00.000Z</time>
      </trkpt>
      <trkpt lat="39.196533" lon="-1.750666">
        <ele>691.727578</ele>
        <time>2021-10-28T12:19:01.000Z</time>
      </trkpt>
      <trkpt lat="39.196606" lon="-1.750580">
        <ele>691.781992</ele>
        <time>2021-10-28T12:19:03.000Z</time>
      </trkpt>
      <trkpt lat="39.196858" lon="-1.750278">
        <ele>691.971309</ele>
        <time>2021-10-28T12:19:10.000Z</time>
      </trkpt>
      <trkpt lat="39.196934" lon="-1.750187">
        <ele>692.028382</ele>
        <time>2021-10-28T12:19:12.000Z</time>
      </trkpt>
      <trkpt lat="39.197238" lon="-1.749808">
        <ele>692.261072</ele>
        <time>2021-10-28T12:19:20.000Z</time>
      </trkpt>
      <trkpt lat="39.197550" lon="-1.749393">
        <ele>692.516652</ele>
        <time>2021-10-28T12:19:28.000Z</time>
      </trkpt>
      <trkpt lat="39.197616" lon="-1.749273">
        <ele>692.591365</ele>
        <time>2021-10-28T12:19:30.000Z</time>
      </trkpt>
      <trkpt lat="39.197842" lon="-1.748782">
        <ele>692.881319</ele>
        <time>2021-10-28T12:19:38.000Z</time>
      </trkpt>
      <trkpt lat="39.197891" lon="-1.748654">
        <ele>692.953806</ele>
        <time>2021-10-28T12:19:40.000Z</time>
      </trkpt>
      <trkpt lat="39.198070" lon="-1.748119">
        <ele>693.249678</ele>
        <time>2021-10-28T12:19:48.000Z</time>
      </trkpt>
      <trkpt lat="39.198208" lon="-1.747638">
        <ele>693.510095</ele>
        <time>2021-10-28T12:19:55.000Z</time>
      </trkpt>
      <trkpt lat="39.198228" lon="-1.747570">
        <ele>693.547024</ele>
        <time>2021-10-28T12:19:56.000Z</time>
      </trkpt>
      <trkpt lat="39.198269" lon="-1.747428">
        <ele>693.623963</ele>
        <time>2021-10-28T12:19:58.000Z</time>
      </trkpt>
      <trkpt lat="39.198491" lon="-1.746722">
        <ele>693.776553</ele>
        <time>2021-10-28T12:20:08.000Z</time>
      </trkpt>
      <trkpt lat="39.198650" lon="-1.746308">
        <ele>693.863255</ele>
        <time>2021-10-28T12:20:14.000Z</time>
      </trkpt>
      <trkpt lat="39.198739" lon="-1.746111">
        <ele>693.906044</ele>
        <time>2021-10-28T12:20:17.000Z</time>
      </trkpt>
      <trkpt lat="39.198767" lon="-1.746043">
        <ele>693.920494</ele>
        <time>2021-10-28T12:20:18.000Z</time>
      </trkpt>
      <trkpt lat="39.198906" lon="-1.745711">
        <ele>693.991302</ele>
        <time>2021-10-28T12:20:23.000Z</time>
      </trkpt>
      <trkpt lat="39.199072" lon="-1.745310">
        <ele>694.077096</ele>
        <time>2021-10-28T12:20:29.000Z</time>
      </trkpt>
      <trkpt lat="39.199330" lon="-1.744662">
        <ele>694.249269</ele>
        <time>2021-10-28T12:20:38.000Z</time>
      </trkpt>
      <trkpt lat="39.199578" lon="-1.744099">
        <ele>694.402316</ele>
        <time>2021-10-28T12:20:46.000Z</time>
      </trkpt>
      <trkpt lat="39.199905" lon="-1.743530">
        <ele>694.569730</ele>
        <time>2021-10-28T12:20:55.000Z</time>
      </trkpt>
      <trkpt lat="39.199942" lon="-1.743468">
        <ele>694.588224</ele>
        <time>2021-10-28T12:20:56.000Z</time>
      </trkpt>
      <trkpt lat="39.199979" lon="-1.743405">
        <ele>694.606905</ele>
        <time>2021-10-28T12:20:57.000Z</time>
      </trkpt>
      <trkpt lat="39.200162" lon="-1.743089">
        <ele>694.670710</ele>
        <time>2021-10-28T12:21:02.000Z</time>
      </trkpt>
      <trkpt lat="39.200312" lon="-1.742841">
        <ele>694.716600</ele>
        <time>2021-10-28T12:21:06.000Z</time>
      </trkpt>
      <trkpt lat="39.200388" lon="-1.742716">
        <ele>694.739776</ele>
        <time>2021-10-28T12:21:08.000Z</time>
      </trkpt>
      <trkpt lat="39.200425" lon="-1.742653">
        <ele>694.751307</ele>
        <time>2021-10-28T12:21:09.000Z</time>
      </trkpt>
      <trkpt lat="39.200537" lon="-1.742466">
        <ele>694.785782</ele>
        <time>2021-10-28T12:21:12.000Z</time>
      </trkpt>
      <trkpt lat="39.200653" lon="-1.742281">
        <ele>694.820495</ele>
        <time>2021-10-28T12:21:15.000Z</time>
      </trkpt>
      <trkpt lat="39.200934" lon="-1.741861">
        <ele>694.901434</ele>
        <time>2021-10-28T12:21:22.000Z</time>
      </trkpt>
      <trkpt lat="39.201117" lon="-1.741642">
        <ele>694.948414</ele>
        <time>2021-10-28T12:21:26.000Z</time>
      </trkpt>
      <trkpt lat="39.201308" lon="-1.741437">
        <ele>694.957855</ele>
        <time>2021-10-28T12:21:30.000Z</time>
      </trkpt>
      <trkpt lat="39.201356" lon="-1.741387">
        <ele>694.956473</ele>
        <time>2021-10-28T12:21:31.000Z</time>
      </trkpt>
      <trkpt lat="39.201745" lon="-1.740934">
        <ele>694.944728</ele>
        <time>2021-10-28T12:21:40.000Z</time>
      </trkpt>
      <trkpt lat="39.202053" lon="-1.740532">
        <ele>694.934909</ele>
        <time>2021-10-28T12:21:47.000Z</time>
      </trkpt>
      <trkpt lat="39.202090" lon="-1.740466">
        <ele>694.933494</ele>
        <time>2021-10-28T12:21:48.000Z</time>
      </trkpt>
      <trkpt lat="39.202361" lon="-1.739913">
        <ele>694.922129</ele>
        <time>2021-10-28T12:21:56.000Z</time>
      </trkpt>
      <trkpt lat="39.202603" lon="-1.739411">
        <ele>694.659526</ele>
        <time>2021-10-28T12:22:03.000Z</time>
      </trkpt>
      <trkpt lat="39.202704" lon="-1.739193">
        <ele>694.539765</ele>
        <time>2021-10-28T12:22:06.000Z</time>
      </trkpt>
      <trkpt lat="39.202871" lon="-1.738838">
        <ele>694.343947</ele>
        <time>2021-10-28T12:22:11.000Z</time>
      </trkpt>
      <trkpt lat="39.202930" lon="-1.738701">
        <ele>694.270044</ele>
        <time>2021-10-28T12:22:13.000Z</time>
      </trkpt>
      <trkpt lat="39.202991" lon="-1.738568">
        <ele>694.197172</ele>
        <time>2021-10-28T12:22:15.000Z</time>
      </trkpt>
      <trkpt lat="39.203231" lon="-1.738036">
        <ele>693.906915</ele>
        <time>2021-10-28T12:22:23.000Z</time>
      </trkpt>
      <trkpt lat="39.203289" lon="-1.737897">
        <ele>693.832477</ele>
        <time>2021-10-28T12:22:25.000Z</time>
      </trkpt>
      <trkpt lat="39.203375" lon="-1.737686">
        <ele>693.980132</ele>
        <time>2021-10-28T12:22:28.000Z</time>
      </trkpt>
      <trkpt lat="39.203525" lon="-1.737248">
        <ele>694.303045</ele>
        <time>2021-10-28T12:22:34.000Z</time>
      </trkpt>
      <trkpt lat="39.203642" lon="-1.736872">
        <ele>694.576269</ele>
        <time>2021-10-28T12:22:39.000Z</time>
      </trkpt>
      <trkpt lat="39.203761" lon="-1.736503">
        <ele>694.845782</ele>
        <time>2021-10-28T12:22:44.000Z</time>
      </trkpt>
      <trkpt lat="39.203905" lon="-1.736052">
        <ele>695.174706</ele>
        <time>2021-10-28T12:22:50.000Z</time>
      </trkpt>
      <trkpt lat="39.203928" lon="-1.735976">
        <ele>695.229724</ele>
        <time>2021-10-28T12:22:51.000Z</time>
      </trkpt>
      <trkpt lat="39.203987" lon="-1.735834">
        <ele>695.338373</ele>
        <time>2021-10-28T12:22:53.000Z</time>
      </trkpt>
      <trkpt lat="39.204015" lon="-1.735761">
        <ele>695.393475</ele>
        <time>2021-10-28T12:22:54.000Z</time>
      </trkpt>
      <trkpt lat="39.204039" lon="-1.735688">
        <ele>695.456042</ele>
        <time>2021-10-28T12:22:55.000Z</time>
      </trkpt>
      <trkpt lat="39.204231" lon="-1.735196">
        <ele>695.890678</ele>
        <time>2021-10-28T12:23:02.000Z</time>
      </trkpt>
      <trkpt lat="39.204261" lon="-1.735129">
        <ele>695.951732</ele>
        <time>2021-10-28T12:23:03.000Z</time>
      </trkpt>
      <trkpt lat="39.204291" lon="-1.735063">
        <ele>696.012104</ele>
        <time>2021-10-28T12:23:04.000Z</time>
      </trkpt>
      <trkpt lat="39.204346" lon="-1.734935">
        <ele>696.127583</ele>
        <time>2021-10-28T12:23:06.000Z</time>
      </trkpt>
      <trkpt lat="39.204410" lon="-1.734825">
        <ele>696.236114</ele>
        <time>2021-10-28T12:23:08.000Z</time>
      </trkpt>
      <trkpt lat="39.204433" lon="-1.734767">
        <ele>696.287520</ele>
        <time>2021-10-28T12:23:09.000Z</time>
      </trkpt>
      <trkpt lat="39.204503" lon="-1.734592">
        <ele>696.442905</ele>
        <time>2021-10-28T12:23:12.000Z</time>
      </trkpt>
      <trkpt lat="39.204618" lon="-1.734357">
        <ele>696.662198</ele>
        <time>2021-10-28T12:23:16.000Z</time>
      </trkpt>
      <trkpt lat="39.204734" lon="-1.734107">
        <ele>696.892105</ele>
        <time>2021-10-28T12:23:20.000Z</time>
      </trkpt>
      <trkpt lat="39.204825" lon="-1.733918">
        <ele>697.067667</ele>
        <time>2021-10-28T12:23:23.000Z</time>
      </trkpt>
      <trkpt lat="39.205023" lon="-1.733553">
        <ele>696.870988</ele>
        <time>2021-10-28T12:23:29.000Z</time>
      </trkpt>
      <trkpt lat="39.205059" lon="-1.733491">
        <ele>696.760756</ele>
        <time>2021-10-28T12:23:30.000Z</time>
      </trkpt>
      <trkpt lat="39.205228" lon="-1.733163">
        <ele>696.200326</ele>
        <time>2021-10-28T12:23:35.000Z</time>
      </trkpt>
      <trkpt lat="39.205257" lon="-1.733090">
        <ele>696.083607</ele>
        <time>2021-10-28T12:23:36.000Z</time>
      </trkpt>
      <trkpt lat="39.205314" lon="-1.732943">
        <ele>695.849730</ele>
        <time>2021-10-28T12:23:38.000Z</time>
      </trkpt>
      <trkpt lat="39.205433" lon="-1.732643">
        <ele>695.370214</ele>
        <time>2021-10-28T12:23:42.000Z</time>
      </trkpt>
      <trkpt lat="39.205459" lon="-1.732566">
        <ele>695.250709</ele>
        <time>2021-10-28T12:23:43.000Z</time>
      </trkpt>
      <trkpt lat="39.205582" lon="-1.732172">
        <ele>694.646342</ele>
        <time>2021-10-28T12:23:48.000Z</time>
      </trkpt>
      <trkpt lat="39.205607" lon="-1.732095">
        <ele>694.527558</ele>
        <time>2021-10-28T12:23:49.000Z</time>
      </trkpt>
      <trkpt lat="39.205632" lon="-1.732017">
        <ele>694.407461</ele>
        <time>2021-10-28T12:23:50.000Z</time>
      </trkpt>
      <trkpt lat="39.205657" lon="-1.731938">
        <ele>694.286048</ele>
        <time>2021-10-28T12:23:51.000Z</time>
      </trkpt>
      <trkpt lat="39.205704" lon="-1.731780">
        <ele>694.045251</ele>
        <time>2021-10-28T12:23:53.000Z</time>
      </trkpt>
      <trkpt lat="39.205779" lon="-1.731545">
        <ele>693.912113</ele>
        <time>2021-10-28T12:23:56.000Z</time>
      </trkpt>
      <trkpt lat="39.205861" lon="-1.731311">
        <ele>693.898324</ele>
        <time>2021-10-28T12:23:59.000Z</time>
      </trkpt>
      <trkpt lat="39.206069" lon="-1.730742">
        <ele>693.864544</ele>
        <time>2021-10-28T12:24:07.000Z</time>
      </trkpt>
      <trkpt lat="39.206180" lon="-1.730429">
        <ele>693.846062</ele>
        <time>2021-10-28T12:24:12.000Z</time>
      </trkpt>
      <trkpt lat="39.206204" lon="-1.730370">
        <ele>693.842484</ele>
        <time>2021-10-28T12:24:13.000Z</time>
      </trkpt>
      <trkpt lat="39.206285" lon="-1.730139">
        <ele>693.828870</ele>
        <time>2021-10-28T12:24:17.000Z</time>
      </trkpt>
      <trkpt lat="39.206318" lon="-1.730050">
        <ele>693.823572</ele>
        <time>2021-10-28T12:24:19.000Z</time>
      </trkpt>
      <trkpt lat="39.206328" lon="-1.729985">
        <ele>693.820014</ele>
        <time>2021-10-28T12:24:22.000Z</time>
      </trkpt>
      <trkpt lat="39.206328" lon="-1.729986">
        <ele>693.819961</ele>
        <time>2021-10-28T12:24:23.000Z</time>
      </trkpt>
      <trkpt lat="39.206326" lon="-1.729997">
        <ele>693.819354</ele>
        <time>2021-10-28T12:24:28.000Z</time>
      </trkpt>
      <trkpt lat="39.206325" lon="-1.730000">
        <ele>693.819179</ele>
        <time>2021-10-28T12:24:31.000Z</time>
      </trkpt>
      <trkpt lat="39.206323" lon="-1.730005">
        <ele>693.818876</ele>
        <time>2021-10-28T12:24:39.000Z</time>
      </trkpt>
      <trkpt lat="39.206323" lon="-1.730004">
        <ele>693.818823</ele>
        <time>2021-10-28T12:24:42.000Z</time>
      </trkpt>
      <trkpt lat="39.206323" lon="-1.730004">
        <ele>693.818823</ele>
        <time>2021-10-28T12:24:43.000Z</time>
      </trkpt>
      <trkpt lat="39.206323" lon="-1.730004">
        <ele>693.818823</ele>
        <time>2021-10-28T12:24:44.000Z</time>
      </trkpt>
      <trkpt lat="39.206323" lon="-1.730006">
        <ele>693.818715</ele>
        <time>2021-10-28T12:24:52.000Z</time>
      </trkpt>
      <trkpt lat="39.206323" lon="-1.730005">
        <ele>693.818662</ele>
        <time>2021-10-28T12:24:59.000Z</time>
      </trkpt>
      <trkpt lat="39.206324" lon="-1.730006">
        <ele>693.818574</ele>
        <time>2021-10-28T12:25:09.000Z</time>
      </trkpt>
      <trkpt lat="39.206324" lon="-1.730006">
        <ele>693.818574</ele>
        <time>2021-10-28T12:25:11.000Z</time>
      </trkpt>
      <trkpt lat="39.206324" lon="-1.730006">
        <ele>693.818574</ele>
        <time>2021-10-28T12:25:12.000Z</time>
      </trkpt>
      <trkpt lat="39.206324" lon="-1.730006">
        <ele>693.818574</ele>
        <time>2021-10-28T12:25:13.000Z</time>
      </trkpt>
      <trkpt lat="39.206325" lon="-1.730006">
        <ele>693.818505</ele>
        <time>2021-10-28T12:25:27.000Z</time>
      </trkpt>
      <trkpt lat="39.206324" lon="-1.730006">
        <ele>693.818435</ele>
        <time>2021-10-28T12:25:37.000Z</time>
      </trkpt>
      <trkpt lat="39.206324" lon="-1.730006">
        <ele>693.818435</ele>
        <time>2021-10-28T12:25:47.000Z</time>
      </trkpt>
      <trkpt lat="39.206323" lon="-1.729995">
        <ele>693.817841</ele>
        <time>2021-10-28T12:25:52.000Z</time>
      </trkpt>
      <trkpt lat="39.206323" lon="-1.729996">
        <ele>693.817787</ele>
        <time>2021-10-28T12:26:00.000Z</time>
      </trkpt>
      <trkpt lat="39.206321" lon="-1.729998">
        <ele>693.817612</ele>
        <time>2021-10-28T12:26:05.000Z</time>
      </trkpt>
      <trkpt lat="39.206321" lon="-1.729998">
        <ele>693.817612</ele>
        <time>2021-10-28T12:26:07.000Z</time>
      </trkpt>
      <trkpt lat="39.206321" lon="-1.729997">
        <ele>693.817558</ele>
        <time>2021-10-28T12:26:11.000Z</time>
      </trkpt>
      <trkpt lat="39.206321" lon="-1.729997">
        <ele>693.817558</ele>
        <time>2021-10-28T12:26:15.000Z</time>
      </trkpt>
      <trkpt lat="39.206321" lon="-1.729998">
        <ele>693.817504</ele>
        <time>2021-10-28T12:26:18.000Z</time>
      </trkpt>
      <trkpt lat="39.206321" lon="-1.729998">
        <ele>693.817504</ele>
        <time>2021-10-28T12:26:25.000Z</time>
      </trkpt>
      <trkpt lat="39.206319" lon="-1.729998">
        <ele>693.817366</ele>
        <time>2021-10-28T12:26:38.000Z</time>
      </trkpt>
      <trkpt lat="39.206319" lon="-1.729997">
        <ele>693.817312</ele>
        <time>2021-10-28T12:26:40.000Z</time>
      </trkpt>
      <trkpt lat="39.206318" lon="-1.729997">
        <ele>693.817243</ele>
        <time>2021-10-28T12:26:57.000Z</time>
      </trkpt>
      <trkpt lat="39.206318" lon="-1.729997">
        <ele>693.817243</ele>
        <time>2021-10-28T12:27:13.000Z</time>
      </trkpt>
      <trkpt lat="39.206317" lon="-1.729996">
        <ele>693.817155</ele>
        <time>2021-10-28T12:27:19.000Z</time>
      </trkpt>
      <trkpt lat="39.206317" lon="-1.729995">
        <ele>693.817101</ele>
        <time>2021-10-28T12:27:25.000Z</time>
      </trkpt>
      <trkpt lat="39.206317" lon="-1.729995">
        <ele>693.817101</ele>
        <time>2021-10-28T12:27:27.000Z</time>
      </trkpt>
      <trkpt lat="39.206317" lon="-1.729995">
        <ele>693.817101</ele>
        <time>2021-10-28T12:27:30.000Z</time>
      </trkpt>
      <trkpt lat="39.206317" lon="-1.729995">
        <ele>693.817101</ele>
        <time>2021-10-28T12:27:31.000Z</time>
      </trkpt>
      <trkpt lat="39.206316" lon="-1.729995">
        <ele>693.817032</ele>
        <time>2021-10-28T12:27:33.000Z</time>
      </trkpt>
      <trkpt lat="39.206316" lon="-1.729994">
        <ele>693.816978</ele>
        <time>2021-10-28T12:27:35.000Z</time>
      </trkpt>
      <trkpt lat="39.206317" lon="-1.729999">
        <ele>693.816701</ele>
        <time>2021-10-28T12:27:44.000Z</time>
      </trkpt>
      <trkpt lat="39.206317" lon="-1.729997">
        <ele>693.816594</ele>
        <time>2021-10-28T12:27:51.000Z</time>
      </trkpt>
      <trkpt lat="39.206318" lon="-1.729996">
        <ele>693.816506</ele>
        <time>2021-10-28T12:27:58.000Z</time>
      </trkpt>
      <trkpt lat="39.206315" lon="-1.729998">
        <ele>693.816272</ele>
        <time>2021-10-28T12:28:04.000Z</time>
      </trkpt>
      <trkpt lat="39.206315" lon="-1.729995">
        <ele>693.816111</ele>
        <time>2021-10-28T12:28:06.000Z</time>
      </trkpt>
      <trkpt lat="39.206313" lon="-1.729997">
        <ele>693.815936</ele>
        <time>2021-10-28T12:28:12.000Z</time>
      </trkpt>
      <trkpt lat="39.206316" lon="-1.729995">
        <ele>693.815702</ele>
        <time>2021-10-28T12:28:19.000Z</time>
      </trkpt>
      <trkpt lat="39.206315" lon="-1.729989">
        <ele>693.815372</ele>
        <time>2021-10-28T12:28:28.000Z</time>
      </trkpt>
      <trkpt lat="39.206314" lon="-1.729989">
        <ele>693.815303</ele>
        <time>2021-10-28T12:28:29.000Z</time>
      </trkpt>
      <trkpt lat="39.206310" lon="-1.729992">
        <ele>693.814982</ele>
        <time>2021-10-28T12:28:40.000Z</time>
      </trkpt>
      <trkpt lat="39.206313" lon="-1.729995">
        <ele>693.814719</ele>
        <time>2021-10-28T12:28:46.000Z</time>
      </trkpt>
      <trkpt lat="39.206313" lon="-1.729997">
        <ele>693.814612</ele>
        <time>2021-10-28T12:28:50.000Z</time>
      </trkpt>
      <trkpt lat="39.206314" lon="-1.730003">
        <ele>693.814282</ele>
        <time>2021-10-28T12:29:11.000Z</time>
      </trkpt>
      <trkpt lat="39.206314" lon="-1.730003">
        <ele>693.814282</ele>
        <time>2021-10-28T12:29:19.000Z</time>
      </trkpt>
      <trkpt lat="39.206331" lon="-1.729989">
        <ele>693.812885</ele>
        <time>2021-10-28T12:29:25.000Z</time>
      </trkpt>
      <trkpt lat="39.206341" lon="-1.729963">
        <ele>693.811327</ele>
        <time>2021-10-28T12:29:27.000Z</time>
      </trkpt>
      <trkpt lat="39.206370" lon="-1.729825">
        <ele>693.803649</ele>
        <time>2021-10-28T12:29:32.000Z</time>
      </trkpt>
      <trkpt lat="39.206413" lon="-1.729667">
        <ele>693.782762</ele>
        <time>2021-10-28T12:29:36.000Z</time>
      </trkpt>
      <trkpt lat="39.206484" lon="-1.729622">
        <ele>693.740733</ele>
        <time>2021-10-28T12:29:38.000Z</time>
      </trkpt>
      <trkpt lat="39.206526" lon="-1.729620">
        <ele>693.718401</ele>
        <time>2021-10-28T12:29:39.000Z</time>
      </trkpt>
      <trkpt lat="39.206570" lon="-1.729629">
        <ele>693.694730</ele>
        <time>2021-10-28T12:29:40.000Z</time>
      </trkpt>
      <trkpt lat="39.206649" lon="-1.729670">
        <ele>693.649487</ele>
        <time>2021-10-28T12:29:42.000Z</time>
      </trkpt>
      <trkpt lat="39.206685" lon="-1.729700">
        <ele>693.626717</ele>
        <time>2021-10-28T12:29:43.000Z</time>
      </trkpt>
      <trkpt lat="39.206790" lon="-1.729814">
        <ele>693.553808</ele>
        <time>2021-10-28T12:29:46.000Z</time>
      </trkpt>
      <trkpt lat="39.206827" lon="-1.729858">
        <ele>693.527074</ele>
        <time>2021-10-28T12:29:47.000Z</time>
      </trkpt>
      <trkpt lat="39.206864" lon="-1.729904">
        <ele>693.499776</ele>
        <time>2021-10-28T12:29:48.000Z</time>
      </trkpt>
      <trkpt lat="39.206902" lon="-1.729950">
        <ele>693.472092</ele>
        <time>2021-10-28T12:29:49.000Z</time>
      </trkpt>
      <trkpt lat="39.206939" lon="-1.729995">
        <ele>693.445078</ele>
        <time>2021-10-28T12:29:50.000Z</time>
      </trkpt>
      <trkpt lat="39.206978" lon="-1.730041">
        <ele>693.417004</ele>
        <time>2021-10-28T12:29:51.000Z</time>
      </trkpt>
      <trkpt lat="39.207016" lon="-1.730087">
        <ele>693.389321</ele>
        <time>2021-10-28T12:29:52.000Z</time>
      </trkpt>
      <trkpt lat="39.207055" lon="-1.730133">
        <ele>693.361247</ele>
        <time>2021-10-28T12:29:53.000Z</time>
      </trkpt>
      <trkpt lat="39.207091" lon="-1.730177">
        <ele>693.334902</ele>
        <time>2021-10-28T12:29:54.000Z</time>
      </trkpt>
      <trkpt lat="39.207163" lon="-1.730265">
        <ele>693.282211</ele>
        <time>2021-10-28T12:29:56.000Z</time>
      </trkpt>
      <trkpt lat="39.207238" lon="-1.730350">
        <ele>693.229175</ele>
        <time>2021-10-28T12:29:58.000Z</time>
      </trkpt>
      <trkpt lat="39.207276" lon="-1.730394">
        <ele>693.202048</ele>
        <time>2021-10-28T12:29:59.000Z</time>
      </trkpt>
      <trkpt lat="39.207425" lon="-1.730583">
        <ele>693.091038</ele>
        <time>2021-10-28T12:30:03.000Z</time>
      </trkpt>
      <trkpt lat="39.207499" lon="-1.730687">
        <ele>693.032905</ele>
        <time>2021-10-28T12:30:05.000Z</time>
      </trkpt>
      <trkpt lat="39.207619" lon="-1.730843">
        <ele>692.942402</ele>
        <time>2021-10-28T12:30:08.000Z</time>
      </trkpt>
      <trkpt lat="39.207662" lon="-1.730892">
        <ele>692.911922</ele>
        <time>2021-10-28T12:30:09.000Z</time>
      </trkpt>
      <trkpt lat="39.207751" lon="-1.730988">
        <ele>692.850289</ele>
        <time>2021-10-28T12:30:11.000Z</time>
      </trkpt>
      <trkpt lat="39.208040" lon="-1.731279">
        <ele>692.651641</ele>
        <time>2021-10-28T12:30:17.000Z</time>
      </trkpt>
      <trkpt lat="39.208250" lon="-1.731457">
        <ele>692.515348</ele>
        <time>2021-10-28T12:30:21.000Z</time>
      </trkpt>
      <trkpt lat="39.208354" lon="-1.731541">
        <ele>692.448792</ele>
        <time>2021-10-28T12:30:23.000Z</time>
      </trkpt>
      <trkpt lat="39.208460" lon="-1.731624">
        <ele>692.381534</ele>
        <time>2021-10-28T12:30:25.000Z</time>
      </trkpt>
      <trkpt lat="39.208514" lon="-1.731663">
        <ele>692.347965</ele>
        <time>2021-10-28T12:30:26.000Z</time>
      </trkpt>
      <trkpt lat="39.208736" lon="-1.731798">
        <ele>692.214836</ele>
        <time>2021-10-28T12:30:30.000Z</time>
      </trkpt>
      <trkpt lat="39.208897" lon="-1.731871">
        <ele>692.122263</ele>
        <time>2021-10-28T12:30:33.000Z</time>
      </trkpt>
      <trkpt lat="39.208943" lon="-1.731897">
        <ele>692.095021</ele>
        <time>2021-10-28T12:30:34.000Z</time>
      </trkpt>
      <trkpt lat="39.209050" lon="-1.731969">
        <ele>692.029560</ele>
        <time>2021-10-28T12:30:37.000Z</time>
      </trkpt>
      <trkpt lat="39.209111" lon="-1.731993">
        <ele>691.994966</ele>
        <time>2021-10-28T12:30:40.000Z</time>
      </trkpt>
      <trkpt lat="39.209124" lon="-1.731986">
        <ele>691.987324</ele>
        <time>2021-10-28T12:30:41.000Z</time>
      </trkpt>
      <trkpt lat="39.209134" lon="-1.731960">
        <ele>691.975123</ele>
        <time>2021-10-28T12:30:46.000Z</time>
      </trkpt>
      <trkpt lat="39.209140" lon="-1.731945">
        <ele>691.968028</ele>
        <time>2021-10-28T12:30:50.000Z</time>
      </trkpt>
      <trkpt lat="39.209154" lon="-1.731898">
        <ele>691.946862</ele>
        <time>2021-10-28T12:30:52.000Z</time>
      </trkpt>
      <trkpt lat="39.209186" lon="-1.731706">
        <ele>691.863701</ele>
        <time>2021-10-28T12:30:56.000Z</time>
      </trkpt>
      <trkpt lat="39.209224" lon="-1.731349">
        <ele>691.580996</ele>
        <time>2021-10-28T12:31:01.000Z</time>
      </trkpt>
      <trkpt lat="39.209226" lon="-1.731267">
        <ele>691.516633</ele>
        <time>2021-10-28T12:31:02.000Z</time>
      </trkpt>
      <trkpt lat="39.209230" lon="-1.731183">
        <ele>691.450609</ele>
        <time>2021-10-28T12:31:03.000Z</time>
      </trkpt>
      <trkpt lat="39.209268" lon="-1.730929">
        <ele>691.247660</ele>
        <time>2021-10-28T12:31:06.000Z</time>
      </trkpt>
      <trkpt lat="39.209290" lon="-1.730847">
        <ele>691.179582</ele>
        <time>2021-10-28T12:31:07.000Z</time>
      </trkpt>
      <trkpt lat="39.209314" lon="-1.730766">
        <ele>691.111548</ele>
        <time>2021-10-28T12:31:08.000Z</time>
      </trkpt>
      <trkpt lat="39.209369" lon="-1.730606">
        <ele>690.974226</ele>
        <time>2021-10-28T12:31:10.000Z</time>
      </trkpt>
      <trkpt lat="39.209424" lon="-1.730447">
        <ele>690.837621</ele>
        <time>2021-10-28T12:31:12.000Z</time>
      </trkpt>
      <trkpt lat="39.209453" lon="-1.730369">
        <ele>690.769749</ele>
        <time>2021-10-28T12:31:13.000Z</time>
      </trkpt>
      <trkpt lat="39.209511" lon="-1.730215">
        <ele>690.635417</ele>
        <time>2021-10-28T12:31:15.000Z</time>
      </trkpt>
      <trkpt lat="39.209540" lon="-1.730138">
        <ele>690.568250</ele>
        <time>2021-10-28T12:31:16.000Z</time>
      </trkpt>
      <trkpt lat="39.209588" lon="-1.729983">
        <ele>690.437298</ele>
        <time>2021-10-28T12:31:18.000Z</time>
      </trkpt>
      <trkpt lat="39.209690" lon="-1.729582">
        <ele>690.106188</ele>
        <time>2021-10-28T12:31:23.000Z</time>
      </trkpt>
      <trkpt lat="39.209791" lon="-1.729179">
        <ele>689.634900</ele>
        <time>2021-10-28T12:31:29.000Z</time>
      </trkpt>
      <trkpt lat="39.209828" lon="-1.729111">
        <ele>689.536154</ele>
        <time>2021-10-28T12:31:31.000Z</time>
      </trkpt>
      <trkpt lat="39.209859" lon="-1.729103">
        <ele>689.487666</ele>
        <time>2021-10-28T12:31:32.000Z</time>
      </trkpt>
      <trkpt lat="39.209890" lon="-1.729112">
        <ele>689.438932</ele>
        <time>2021-10-28T12:31:33.000Z</time>
      </trkpt>
      <trkpt lat="39.209987" lon="-1.729175">
        <ele>689.272383</ele>
        <time>2021-10-28T12:31:36.000Z</time>
      </trkpt>
      <trkpt lat="39.210053" lon="-1.729132">
        <ele>689.158989</ele>
        <time>2021-10-28T12:31:38.000Z</time>
      </trkpt>
      <trkpt lat="39.210076" lon="-1.729084">
        <ele>689.091920</ele>
        <time>2021-10-28T12:31:39.000Z</time>
      </trkpt>
      <trkpt lat="39.210094" lon="-1.729028">
        <ele>689.019871</ele>
        <time>2021-10-28T12:31:40.000Z</time>
      </trkpt>
      <trkpt lat="39.210135" lon="-1.728837">
        <ele>688.784339</ele>
        <time>2021-10-28T12:31:43.000Z</time>
      </trkpt>
      <trkpt lat="39.210151" lon="-1.728767">
        <ele>688.697607</ele>
        <time>2021-10-28T12:31:44.000Z</time>
      </trkpt>
      <trkpt lat="39.210240" lon="-1.728263">
        <ele>688.083301</ele>
        <time>2021-10-28T12:31:51.000Z</time>
      </trkpt>
      <trkpt lat="39.210248" lon="-1.728203">
        <ele>688.010950</ele>
        <time>2021-10-28T12:31:52.000Z</time>
      </trkpt>
      <trkpt lat="39.210262" lon="-1.728095">
        <ele>687.880820</ele>
        <time>2021-10-28T12:31:54.000Z</time>
      </trkpt>
      <trkpt lat="39.210272" lon="-1.728015">
        <ele>687.784520</ele>
        <time>2021-10-28T12:31:56.000Z</time>
      </trkpt>
      <trkpt lat="39.210289" lon="-1.727790">
        <ele>687.515864</ele>
        <time>2021-10-28T12:32:02.000Z</time>
      </trkpt>
      <trkpt lat="39.210380" lon="-1.727720">
        <ele>687.353383</ele>
        <time>2021-10-28T12:32:05.000Z</time>
      </trkpt>
      <trkpt lat="39.210684" lon="-1.727633">
        <ele>686.804570</ele>
        <time>2021-10-28T12:32:11.000Z</time>
      </trkpt>
      <trkpt lat="39.210739" lon="-1.727613">
        <ele>686.701684</ele>
        <time>2021-10-28T12:32:12.000Z</time>
      </trkpt>
      <trkpt lat="39.210793" lon="-1.727591">
        <ele>686.599724</ele>
        <time>2021-10-28T12:32:13.000Z</time>
      </trkpt>
      <trkpt lat="39.210847" lon="-1.727570">
        <ele>686.498176</ele>
        <time>2021-10-28T12:32:14.000Z</time>
      </trkpt>
      <trkpt lat="39.211085" lon="-1.727498">
        <ele>686.058028</ele>
        <time>2021-10-28T12:32:18.000Z</time>
      </trkpt>
      <trkpt lat="39.211459" lon="-1.727370">
        <ele>685.361344</ele>
        <time>2021-10-28T12:32:24.000Z</time>
      </trkpt>
      <trkpt lat="39.211522" lon="-1.727355">
        <ele>685.245995</ele>
        <time>2021-10-28T12:32:25.000Z</time>
      </trkpt>
      <trkpt lat="39.211889" lon="-1.727204">
        <ele>684.552424</ele>
        <time>2021-10-28T12:32:31.000Z</time>
      </trkpt>
      <trkpt lat="39.212265" lon="-1.727040">
        <ele>684.046691</ele>
        <time>2021-10-28T12:32:37.000Z</time>
      </trkpt>
      <trkpt lat="39.212327" lon="-1.727010">
        <ele>684.046691</ele>
        <time>2021-10-28T12:32:38.000Z</time>
      </trkpt>
      <trkpt lat="39.212456" lon="-1.726962">
        <ele>684.046691</ele>
        <time>2021-10-28T12:32:40.000Z</time>
      </trkpt>
      <trkpt lat="39.212633" lon="-1.726887">
        <ele>684.046691</ele>
        <time>2021-10-28T12:32:43.000Z</time>
      </trkpt>
      <trkpt lat="39.212683" lon="-1.726856">
        <ele>684.046691</ele>
        <time>2021-10-28T12:32:44.000Z</time>
      </trkpt>
      <trkpt lat="39.212757" lon="-1.726762">
        <ele>684.046691</ele>
        <time>2021-10-28T12:32:46.000Z</time>
      </trkpt>
      <trkpt lat="39.212767" lon="-1.726621">
        <ele>684.046691</ele>
        <time>2021-10-28T12:32:48.000Z</time>
      </trkpt>
      <trkpt lat="39.212762" lon="-1.726546">
        <ele>684.046691</ele>
        <time>2021-10-28T12:32:49.000Z</time>
      </trkpt>
      <trkpt lat="39.212736" lon="-1.725981">
        <ele>684.046691</ele>
        <time>2021-10-28T12:32:56.000Z</time>
      </trkpt>
      <trkpt lat="39.212706" lon="-1.725410">
        <ele>684.046691</ele>
        <time>2021-10-28T12:33:03.000Z</time>
      </trkpt>
      <trkpt lat="39.212645" lon="-1.724894">
        <ele>684.046691</ele>
        <time>2021-10-28T12:33:10.000Z</time>
      </trkpt>
      <trkpt lat="39.212594" lon="-1.724804">
        <ele>684.046691</ele>
        <time>2021-10-28T12:33:12.000Z</time>
      </trkpt>
      <trkpt lat="39.212557" lon="-1.724781">
        <ele>684.046691</ele>
        <time>2021-10-28T12:33:13.000Z</time>
      </trkpt>
      <trkpt lat="39.212516" lon="-1.724766">
        <ele>684.046691</ele>
        <time>2021-10-28T12:33:14.000Z</time>
      </trkpt>
      <trkpt lat="39.212398" lon="-1.724779">
        <ele>684.046691</ele>
        <time>2021-10-28T12:33:17.000Z</time>
      </trkpt>
      <trkpt lat="39.212356" lon="-1.724788">
        <ele>684.046691</ele>
        <time>2021-10-28T12:33:19.000Z</time>
      </trkpt>
      <trkpt lat="39.212351" lon="-1.724793">
        <ele>684.046691</ele>
        <time>2021-10-28T12:33:20.000Z</time>
      </trkpt>
      <trkpt lat="39.212353" lon="-1.724793">
        <ele>684.046691</ele>
        <time>2021-10-28T12:33:23.000Z</time>
      </trkpt>
      <trkpt lat="39.212414" lon="-1.724810">
        <ele>665.871464</ele>
        <time>2021-11-03T16:20:50.182Z</time>
      </trkpt>
      <trkpt lat="39.212392" lon="-1.724789">
        <ele>665.871464</ele>
        <time>2021-11-03T16:20:50.182Z</time>
      </trkpt>
      <trkpt lat="39.212357" lon="-1.724743">
        <ele>665.871464</ele>
        <time>2021-11-03T16:20:50.182Z</time>
      </trkpt>
      <trkpt lat="39.212360" lon="-1.724732">
        <ele>665.871464</ele>
        <time>2021-11-03T16:20:50.182Z</time>
      </trkpt>
      <trkpt lat="39.212359" lon="-1.724729">
        <ele>665.871464</ele>
        <time>2021-11-03T16:20:50.182Z</time>
      </trkpt>
      <trkpt lat="39.212366" lon="-1.724712">
        <ele>665.871464</ele>
        <time>2021-11-03T16:20:50.182Z</time>
      </trkpt>
      <trkpt lat="39.212398" lon="-1.724663">
        <ele>665.871464</ele>
        <time>2021-11-03T16:20:50.182Z</time>
      </trkpt>
      <trkpt lat="39.212372" lon="-1.724643">
        <ele>665.871464</ele>
        <time>2021-11-03T16:20:50.182Z</time>
      </trkpt>
      <trkpt lat="39.212352" lon="-1.724629">
        <ele>665.871464</ele>
        <time>2021-11-03T16:20:50.182Z</time>
      </trkpt>
      <trkpt lat="39.212313" lon="-1.724591">
        <ele>665.871464</ele>
        <time>2021-11-03T16:20:50.182Z</time>
      </trkpt>
      <trkpt lat="39.212244" lon="-1.724534">
        <ele>665.871464</ele>
        <time>2021-11-03T16:20:50.182Z</time>
      </trkpt>
      <trkpt lat="39.212165" lon="-1.724459">
        <ele>665.871464</ele>
        <time>2021-11-03T16:20:50.182Z</time>
      </trkpt>
      <trkpt lat="39.211928" lon="-1.724217">
        <ele>665.871464</ele>
        <time>2021-11-03T16:20:50.182Z</time>
      </trkpt>
      <trkpt lat="39.211841" lon="-1.724048">
        <ele>665.871464</ele>
        <time>2021-11-03T16:20:50.182Z</time>
      </trkpt>
      <trkpt lat="39.211807" lon="-1.723954">
        <ele>665.832996</ele>
        <time>2021-11-03T16:20:50.182Z</time>
      </trkpt>
      <trkpt lat="39.211800" lon="-1.723929">
        <ele>665.822544</ele>
        <time>2021-11-03T16:20:50.182Z</time>
      </trkpt>
      <trkpt lat="39.211793" lon="-1.723904">
        <ele>665.812092</ele>
        <time>2021-11-03T16:20:50.182Z</time>
      </trkpt>
      <trkpt lat="39.211782" lon="-1.723852">
        <ele>665.790897</ele>
        <time>2021-11-03T16:20:50.182Z</time>
      </trkpt>
      <trkpt lat="39.211754" lon="-1.723748">
        <ele>665.747604</ele>
        <time>2021-11-03T16:20:50.182Z</time>
      </trkpt>
      <trkpt lat="39.211710" lon="-1.723652">
        <ele>665.703747</ele>
        <time>2021-11-03T16:20:50.182Z</time>
      </trkpt>
      <trkpt lat="39.211624" lon="-1.723470">
        <ele>665.619924</ele>
        <time>2021-11-03T16:20:50.182Z</time>
      </trkpt>
      <trkpt lat="39.211508" lon="-1.723254">
        <ele>665.516584</ele>
        <time>2021-11-03T16:20:50.182Z</time>
      </trkpt>
      <trkpt lat="39.211375" lon="-1.723040">
        <ele>665.408712</ele>
        <time>2021-11-03T16:20:50.182Z</time>
      </trkpt>
      <trkpt lat="39.211332" lon="-1.722953">
        <ele>665.368136</ele>
        <time>2021-11-03T16:20:50.182Z</time>
      </trkpt>
      <trkpt lat="39.211290" lon="-1.722861">
        <ele>665.326148</ele>
        <time>2021-11-03T16:20:50.182Z</time>
      </trkpt>
      <trkpt lat="39.211211" lon="-1.722732">
        <ele>665.261493</ele>
        <time>2021-11-03T16:20:50.182Z</time>
      </trkpt>
      <trkpt lat="39.211076" lon="-1.722510">
        <ele>665.150526</ele>
        <time>2021-11-03T16:20:50.182Z</time>
      </trkpt>
      <trkpt lat="39.211049" lon="-1.722464">
        <ele>665.127834</ele>
        <time>2021-11-03T16:20:50.182Z</time>
      </trkpt>
      <trkpt lat="39.211049" lon="-1.722464">
        <ele>665.127834</ele>
        <time>2021-11-03T16:20:50.182Z</time>
      </trkpt>
      <trkpt lat="39.210994" lon="-1.722371">
        <ele>665.081830</ele>
        <time>2021-11-03T16:20:50.182Z</time>
      </trkpt>
      <trkpt lat="39.210810" lon="-1.722057">
        <ele>664.923591</ele>
        <time>2021-11-03T16:20:50.182Z</time>
      </trkpt>
      <trkpt lat="39.210758" lon="-1.721972">
        <ele>664.876382</ele>
        <time>2021-11-03T16:20:50.182Z</time>
      </trkpt>
      <trkpt lat="39.210620" lon="-1.721750">
        <ele>664.752316</ele>
        <time>2021-11-03T16:20:50.182Z</time>
      </trkpt>
      <trkpt lat="39.210557" lon="-1.721589">
        <ele>664.673693</ele>
        <time>2021-11-03T16:20:50.182Z</time>
      </trkpt>
      <trkpt lat="39.210511" lon="-1.721498">
        <ele>664.626330</ele>
        <time>2021-11-03T16:20:50.182Z</time>
      </trkpt>
      <trkpt lat="39.210450" lon="-1.721414">
        <ele>664.576146</ele>
        <time>2021-11-03T16:20:50.182Z</time>
      </trkpt>
      <trkpt lat="39.210282" lon="-1.721206">
        <ele>664.445173</ele>
        <time>2021-11-03T16:20:50.182Z</time>
      </trkpt>
      <trkpt lat="39.210158" lon="-1.721054">
        <ele>664.348961</ele>
        <time>2021-11-03T16:20:50.182Z</time>
      </trkpt>
      <trkpt lat="39.210076" lon="-1.720953">
        <ele>664.285191</ele>
        <time>2021-11-03T16:20:50.182Z</time>
      </trkpt>
      <trkpt lat="39.210063" lon="-1.720924">
        <ele>664.270586</ele>
        <time>2021-11-03T16:20:50.182Z</time>
      </trkpt>
      <trkpt lat="39.210020" lon="-1.720871">
        <ele>664.237135</ele>
        <time>2021-11-03T16:20:50.182Z</time>
      </trkpt>
      <trkpt lat="39.209973" lon="-1.720814">
        <ele>664.200851</ele>
        <time>2021-11-03T16:20:50.182Z</time>
      </trkpt>
      <trkpt lat="39.209858" lon="-1.720677">
        <ele>664.112804</ele>
        <time>2021-11-03T16:20:50.182Z</time>
      </trkpt>
      <trkpt lat="39.209642" lon="-1.720406">
        <ele>663.948256</ele>
        <time>2021-11-03T16:20:50.182Z</time>
      </trkpt>
      <trkpt lat="39.209515" lon="-1.720244">
        <ele>663.991092</ele>
        <time>2021-11-03T16:20:50.182Z</time>
      </trkpt>
      <trkpt lat="39.209248" lon="-1.719918">
        <ele>664.079265</ele>
        <time>2021-11-03T16:20:50.182Z</time>
      </trkpt>
      <trkpt lat="39.209172" lon="-1.719839">
        <ele>664.102676</ele>
        <time>2021-11-03T16:20:50.182Z</time>
      </trkpt>
      <trkpt lat="39.209046" lon="-1.719759">
        <ele>664.136362</ele>
        <time>2021-11-03T16:20:50.182Z</time>
      </trkpt>
      <trkpt lat="39.208645" lon="-1.719518">
        <ele>664.242478</ele>
        <time>2021-11-03T16:20:50.182Z</time>
      </trkpt>
      <trkpt lat="39.208505" lon="-1.719390">
        <ele>664.283637</ele>
        <time>2021-11-03T16:20:50.182Z</time>
      </trkpt>
      <trkpt lat="39.208373" lon="-1.719251">
        <ele>664.324506</ele>
        <time>2021-11-03T16:20:50.182Z</time>
      </trkpt>
      <trkpt lat="39.208342" lon="-1.719216">
        <ele>664.334387</ele>
        <time>2021-11-03T16:20:50.182Z</time>
      </trkpt>
      <trkpt lat="39.208287" lon="-1.719145">
        <ele>664.353049</ele>
        <time>2021-11-03T16:20:50.182Z</time>
      </trkpt>
      <trkpt lat="39.208261" lon="-1.719109">
        <ele>664.362197</ele>
        <time>2021-11-03T16:20:50.182Z</time>
      </trkpt>
      <trkpt lat="39.208155" lon="-1.718916">
        <ele>664.501033</ele>
        <time>2021-11-03T16:20:50.182Z</time>
      </trkpt>
      <trkpt lat="39.208155" lon="-1.718916">
        <ele>664.501033</ele>
        <time>2021-11-03T16:20:50.182Z</time>
      </trkpt>
      <trkpt lat="39.208090" lon="-1.718747">
        <ele>664.655326</ele>
        <time>2021-11-03T16:20:50.182Z</time>
      </trkpt>
      <trkpt lat="39.208079" lon="-1.718706">
        <ele>664.690808</ele>
        <time>2021-11-03T16:20:50.182Z</time>
      </trkpt>
      <trkpt lat="39.208082" lon="-1.718707">
        <ele>664.694078</ele>
        <time>2021-11-03T16:20:50.182Z</time>
      </trkpt>
      <trkpt lat="39.208079" lon="-1.718709">
        <ele>664.697642</ele>
        <time>2021-11-03T16:20:50.182Z</time>
      </trkpt>
      <trkpt lat="39.208080" lon="-1.718710">
        <ele>664.698977</ele>
        <time>2021-11-03T16:20:50.182Z</time>
      </trkpt>
      <trkpt lat="39.208080" lon="-1.718710">
        <ele>664.698977</ele>
        <time>2021-11-03T16:20:50.182Z</time>
      </trkpt>
      <trkpt lat="39.208081" lon="-1.718707">
        <ele>664.701647</ele>
        <time>2021-11-03T16:20:50.182Z</time>
      </trkpt>
      <trkpt lat="39.208080" lon="-1.718709">
        <ele>664.703594</ele>
        <time>2021-11-03T16:20:50.182Z</time>
      </trkpt>
      <trkpt lat="39.208079" lon="-1.718709">
        <ele>664.704649</ele>
        <time>2021-11-03T16:20:50.182Z</time>
      </trkpt>
      <trkpt lat="39.208086" lon="-1.718712">
        <ele>664.712434</ele>
        <time>2021-11-03T16:20:50.182Z</time>
      </trkpt>
      <trkpt lat="39.208088" lon="-1.718712">
        <ele>664.714545</ele>
        <time>2021-11-03T16:20:50.182Z</time>
      </trkpt>
      <trkpt lat="39.208094" lon="-1.718709">
        <ele>664.721336</ele>
        <time>2021-11-03T16:20:50.182Z</time>
      </trkpt>
      <trkpt lat="39.208097" lon="-1.718709">
        <ele>664.724502</ele>
        <time>2021-11-03T16:20:50.182Z</time>
      </trkpt>
      <trkpt lat="39.208095" lon="-1.718710">
        <ele>664.726765</ele>
        <time>2021-11-03T16:20:50.182Z</time>
      </trkpt>
      <trkpt lat="39.208094" lon="-1.718711">
        <ele>664.728101</ele>
        <time>2021-11-03T16:20:50.182Z</time>
      </trkpt>
      <trkpt lat="39.208093" lon="-1.718714">
        <ele>664.730771</ele>
        <time>2021-11-03T16:20:50.182Z</time>
      </trkpt>
      <trkpt lat="39.208093" lon="-1.718715">
        <ele>664.731589</ele>
        <time>2021-11-03T16:20:50.182Z</time>
      </trkpt>
      <trkpt lat="39.208093" lon="-1.718715">
        <ele>664.731589</ele>
        <time>2021-11-03T16:20:50.182Z</time>
      </trkpt>
      <trkpt lat="39.208094" lon="-1.718716">
        <ele>664.732924</ele>
        <time>2021-11-03T16:20:50.182Z</time>
      </trkpt>
      <trkpt lat="39.208094" lon="-1.718715">
        <ele>664.733742</ele>
        <time>2021-11-03T16:20:50.182Z</time>
      </trkpt>
      <trkpt lat="39.208094" lon="-1.718713">
        <ele>664.735378</ele>
        <time>2021-11-03T16:20:50.182Z</time>
      </trkpt>
      <trkpt lat="39.208094" lon="-1.718709">
        <ele>664.738649</ele>
        <time>2021-11-03T16:20:50.182Z</time>
      </trkpt>
      <trkpt lat="39.208094" lon="-1.718709">
        <ele>664.738649</ele>
        <time>2021-11-03T16:20:50.182Z</time>
      </trkpt>
      <trkpt lat="39.208094" lon="-1.718709">
        <ele>664.738649</ele>
        <time>2021-11-03T16:20:50.182Z</time>
      </trkpt>
      <trkpt lat="39.208094" lon="-1.718708">
        <ele>664.739466</ele>
        <time>2021-11-03T16:20:50.182Z</time>
      </trkpt>
      <trkpt lat="39.208094" lon="-1.718708">
        <ele>664.739466</ele>
        <time>2021-11-03T16:20:50.182Z</time>
      </trkpt>
      <trkpt lat="39.208094" lon="-1.718707">
        <ele>664.740284</ele>
        <time>2021-11-03T16:20:50.182Z</time>
      </trkpt>
      <trkpt lat="39.208095" lon="-1.718706">
        <ele>664.741619</ele>
        <time>2021-11-03T16:20:50.182Z</time>
      </trkpt>
      <trkpt lat="39.208095" lon="-1.718706">
        <ele>664.741619</ele>
        <time>2021-11-03T16:20:50.182Z</time>
      </trkpt>
      <trkpt lat="39.208095" lon="-1.718707">
        <ele>664.742437</ele>
        <time>2021-11-03T16:20:50.182Z</time>
      </trkpt>
      <trkpt lat="39.208089" lon="-1.718708">
        <ele>664.748822</ele>
        <time>2021-11-03T16:20:50.182Z</time>
      </trkpt>
      <trkpt lat="39.208089" lon="-1.718708">
        <ele>664.748822</ele>
        <time>2021-11-03T16:20:50.182Z</time>
      </trkpt>
      <trkpt lat="39.208086" lon="-1.718708">
        <ele>664.751988</ele>
        <time>2021-11-03T16:20:50.182Z</time>
      </trkpt>
      <trkpt lat="39.208090" lon="-1.718716">
        <ele>664.759774</ele>
        <time>2021-11-03T16:20:50.182Z</time>
      </trkpt>
      <trkpt lat="39.208091" lon="-1.718717">
        <ele>664.761109</ele>
        <time>2021-11-03T16:20:50.182Z</time>
      </trkpt>
      <trkpt lat="39.208092" lon="-1.718715">
        <ele>664.763056</ele>
        <time>2021-11-03T16:20:50.182Z</time>
      </trkpt>
      <trkpt lat="39.208091" lon="-1.718703">
        <ele>664.772926</ele>
        <time>2021-11-03T16:20:50.182Z</time>
      </trkpt>
      <trkpt lat="39.208047" lon="-1.718544">
        <ele>664.910996</ele>
        <time>2021-11-03T16:20:50.182Z</time>
      </trkpt>
      <trkpt lat="39.208026" lon="-1.718457">
        <ele>664.985515</ele>
        <time>2021-11-03T16:20:50.182Z</time>
      </trkpt>
      <trkpt lat="39.207969" lon="-1.718235">
        <ele>665.176769</ele>
        <time>2021-11-03T16:20:50.182Z</time>
      </trkpt>
      <trkpt lat="39.207949" lon="-1.718138">
        <ele>665.258854</ele>
        <time>2021-11-03T16:20:50.182Z</time>
      </trkpt>
      <trkpt lat="39.207938" lon="-1.718089">
        <ele>665.300573</ele>
        <time>2021-11-03T16:20:50.182Z</time>
      </trkpt>
      <trkpt lat="39.207899" lon="-1.717939">
        <ele>665.429961</ele>
        <time>2021-11-03T16:20:50.182Z</time>
      </trkpt>
      <trkpt lat="39.207886" lon="-1.717889">
        <ele>665.473090</ele>
        <time>2021-11-03T16:20:50.182Z</time>
      </trkpt>
      <trkpt lat="39.207829" lon="-1.717689">
        <ele>665.647359</ele>
        <time>2021-11-03T16:20:50.182Z</time>
      </trkpt>
      <trkpt lat="39.207813" lon="-1.717638">
        <ele>665.692354</ele>
        <time>2021-11-03T16:20:50.182Z</time>
      </trkpt>
      <trkpt lat="39.207796" lon="-1.717587">
        <ele>665.737756</ele>
        <time>2021-11-03T16:20:50.182Z</time>
      </trkpt>
      <trkpt lat="39.207741" lon="-1.717433">
        <ele>665.876428</ele>
        <time>2021-11-03T16:20:50.182Z</time>
      </trkpt>
      <trkpt lat="39.207702" lon="-1.717330">
        <ele>665.970178</ele>
        <time>2021-11-03T16:20:50.182Z</time>
      </trkpt>
      <trkpt lat="39.207657" lon="-1.717230">
        <ele>666.064747</ele>
        <time>2021-11-03T16:20:50.182Z</time>
      </trkpt>
      <trkpt lat="39.207569" lon="-1.717035">
        <ele>666.249289</ele>
        <time>2021-11-03T16:20:50.182Z</time>
      </trkpt>
      <trkpt lat="39.207464" lon="-1.716803">
        <ele>666.031529</ele>
        <time>2021-11-03T16:20:50.182Z</time>
      </trkpt>
      <trkpt lat="39.207447" lon="-1.716867">
        <ele>665.961097</ele>
        <time>2021-11-03T16:20:50.182Z</time>
      </trkpt>
      <trkpt lat="39.207449" lon="-1.716877">
        <ele>665.950345</ele>
        <time>2021-11-03T16:20:50.182Z</time>
      </trkpt>
      <trkpt lat="39.207451" lon="-1.716887">
        <ele>665.939593</ele>
        <time>2021-11-03T16:20:50.182Z</time>
      </trkpt>
      <trkpt lat="39.207443" lon="-1.716925">
        <ele>665.898600</ele>
        <time>2021-11-03T16:20:50.182Z</time>
      </trkpt>
      <trkpt lat="39.207431" lon="-1.716965">
        <ele>665.853946</ele>
        <time>2021-11-03T16:20:50.182Z</time>
      </trkpt>
      <trkpt lat="39.207404" lon="-1.717053">
        <ele>665.755414</ele>
        <time>2021-11-03T16:20:50.182Z</time>
      </trkpt>
      <trkpt lat="39.207356" lon="-1.717204">
        <ele>665.585503</ele>
        <time>2021-11-03T16:20:50.182Z</time>
      </trkpt>
      <trkpt lat="39.207260" lon="-1.717473">
        <ele>665.277188</ele>
        <time>2021-11-03T16:20:50.182Z</time>
      </trkpt>
      <trkpt lat="39.207215" lon="-1.717593">
        <ele>665.138402</ele>
        <time>2021-11-03T16:20:50.182Z</time>
      </trkpt>
      <trkpt lat="39.207192" lon="-1.717655">
        <ele>665.066841</ele>
        <time>2021-11-03T16:20:50.182Z</time>
      </trkpt>
      <trkpt lat="39.207090" lon="-1.717933">
        <ele>664.746625</ele>
        <time>2021-11-03T16:20:50.182Z</time>
      </trkpt>
      <trkpt lat="39.207043" lon="-1.718091">
        <ele>664.570436</ele>
        <time>2021-11-03T16:20:50.182Z</time>
      </trkpt>
      <trkpt lat="39.207017" lon="-1.718171">
        <ele>664.480123</ele>
        <time>2021-11-03T16:20:50.182Z</time>
      </trkpt>
      <trkpt lat="39.206929" lon="-1.718405">
        <ele>664.209343</ele>
        <time>2021-11-03T16:20:50.182Z</time>
      </trkpt>
      <trkpt lat="39.206834" lon="-1.718637">
        <ele>663.936169</ele>
        <time>2021-11-03T16:20:50.182Z</time>
      </trkpt>
      <trkpt lat="39.206632" lon="-1.719119">
        <ele>664.152018</ele>
        <time>2021-11-03T16:20:50.182Z</time>
      </trkpt>
      <trkpt lat="39.206606" lon="-1.719188">
        <ele>664.199197</ele>
        <time>2021-11-03T16:20:50.182Z</time>
      </trkpt>
      <trkpt lat="39.206449" lon="-1.719612">
        <ele>664.488159</ele>
        <time>2021-11-03T16:20:50.182Z</time>
      </trkpt>
      <trkpt lat="39.206406" lon="-1.719724">
        <ele>664.565020</ele>
        <time>2021-11-03T16:20:50.182Z</time>
      </trkpt>
      <trkpt lat="39.206337" lon="-1.719884">
        <ele>664.677616</ele>
        <time>2021-11-03T16:20:50.182Z</time>
      </trkpt>
      <trkpt lat="39.206286" lon="-1.720014">
        <ele>664.767217</ele>
        <time>2021-11-03T16:20:50.182Z</time>
      </trkpt>
      <trkpt lat="39.206277" lon="-1.720052">
        <ele>664.791651</ele>
        <time>2021-11-03T16:20:50.182Z</time>
      </trkpt>
      <trkpt lat="39.206267" lon="-1.720090">
        <ele>664.816328</ele>
        <time>2021-11-03T16:20:50.182Z</time>
      </trkpt>
      <trkpt lat="39.206251" lon="-1.720119">
        <ele>664.838219</ele>
        <time>2021-11-03T16:20:50.182Z</time>
      </trkpt>
      <trkpt lat="39.206231" lon="-1.720135">
        <ele>664.856892</ele>
        <time>2021-11-03T16:20:50.182Z</time>
      </trkpt>
      <trkpt lat="39.206105" lon="-1.720137">
        <ele>664.956889</ele>
        <time>2021-11-03T16:20:50.182Z</time>
      </trkpt>
      <trkpt lat="39.205986" lon="-1.720027">
        <ele>665.073049</ele>
        <time>2021-11-03T16:20:50.182Z</time>
      </trkpt>
      <trkpt lat="39.205716" lon="-1.719790">
        <ele>665.225035</ele>
        <time>2021-11-03T16:20:50.182Z</time>
      </trkpt>
      <trkpt lat="39.205550" lon="-1.719676">
        <ele>665.017421</ele>
        <time>2021-11-03T16:20:50.182Z</time>
      </trkpt>
      <trkpt lat="39.205464" lon="-1.719624">
        <ele>664.912564</ele>
        <time>2021-11-03T16:20:50.182Z</time>
      </trkpt>
      <trkpt lat="39.205370" lon="-1.719583">
        <ele>664.803012</ele>
        <time>2021-11-03T16:20:50.182Z</time>
      </trkpt>
      <trkpt lat="39.205275" lon="-1.719544">
        <ele>664.692944</ele>
        <time>2021-11-03T16:20:50.182Z</time>
      </trkpt>
      <trkpt lat="39.205228" lon="-1.719524">
        <ele>664.638303</ele>
        <time>2021-11-03T16:20:50.182Z</time>
      </trkpt>
      <trkpt lat="39.205133" lon="-1.719482">
        <ele>664.527430</ele>
        <time>2021-11-03T16:20:50.182Z</time>
      </trkpt>
      <trkpt lat="39.204896" lon="-1.719349">
        <ele>664.242091</ele>
        <time>2021-11-03T16:20:50.182Z</time>
      </trkpt>
      <trkpt lat="39.204801" lon="-1.719288">
        <ele>664.124936</ele>
        <time>2021-11-03T16:20:50.182Z</time>
      </trkpt>
      <trkpt lat="39.204704" lon="-1.719223">
        <ele>664.004262</ele>
        <time>2021-11-03T16:20:50.182Z</time>
      </trkpt>
      <trkpt lat="39.204508" lon="-1.719077">
        <ele>663.754397</ele>
        <time>2021-11-03T16:20:50.182Z</time>
      </trkpt>
      <trkpt lat="39.204356" lon="-1.718959">
        <ele>663.558550</ele>
        <time>2021-11-03T16:20:50.182Z</time>
      </trkpt>
      <trkpt lat="39.204305" lon="-1.718920">
        <ele>663.493098</ele>
        <time>2021-11-03T16:20:50.182Z</time>
      </trkpt>
      <trkpt lat="39.204253" lon="-1.718882">
        <ele>663.427119</ele>
        <time>2021-11-03T16:20:50.182Z</time>
      </trkpt>
      <trkpt lat="39.204097" lon="-1.718771">
        <ele>663.267464</ele>
        <time>2021-11-03T16:20:50.182Z</time>
      </trkpt>
      <trkpt lat="39.204043" lon="-1.718736">
        <ele>663.235507</ele>
        <time>2021-11-03T16:20:50.182Z</time>
      </trkpt>
      <trkpt lat="39.203988" lon="-1.718706">
        <ele>663.203928</ele>
        <time>2021-11-03T16:20:50.182Z</time>
      </trkpt>
      <trkpt lat="39.203812" lon="-1.718634">
        <ele>663.106286</ele>
        <time>2021-11-03T16:20:50.182Z</time>
      </trkpt>
      <trkpt lat="39.203633" lon="-1.718600">
        <ele>663.010601</ele>
        <time>2021-11-03T16:20:50.182Z</time>
      </trkpt>
      <trkpt lat="39.203230" lon="-1.718478">
        <ele>662.791689</ele>
        <time>2021-11-03T16:20:50.182Z</time>
      </trkpt>
      <trkpt lat="39.202903" lon="-1.718291">
        <ele>662.602535</ele>
        <time>2021-11-03T16:20:50.182Z</time>
      </trkpt>
      <trkpt lat="39.202853" lon="-1.718249">
        <ele>662.570984</ele>
        <time>2021-11-03T16:20:50.182Z</time>
      </trkpt>
      <trkpt lat="39.202589" lon="-1.718041">
        <ele>662.407402</ele>
        <time>2021-11-03T16:20:50.182Z</time>
      </trkpt>
      <trkpt lat="39.202223" lon="-1.717778">
        <ele>662.632688</ele>
        <time>2021-11-03T16:20:50.182Z</time>
      </trkpt>
      <trkpt lat="39.202169" lon="-1.717757">
        <ele>662.683911</ele>
        <time>2021-11-03T16:20:50.182Z</time>
      </trkpt>
      <trkpt lat="39.201910" lon="-1.717692">
        <ele>662.923549</ele>
        <time>2021-11-03T16:20:50.182Z</time>
      </trkpt>
      <trkpt lat="39.201812" lon="-1.717677">
        <ele>663.013179</ele>
        <time>2021-11-03T16:20:50.182Z</time>
      </trkpt>
      <trkpt lat="39.201464" lon="-1.717571">
        <ele>663.337928</ele>
        <time>2021-11-03T16:20:50.182Z</time>
      </trkpt>
      <trkpt lat="39.201093" lon="-1.717385">
        <ele>663.699416</ele>
        <time>2021-11-03T16:20:50.182Z</time>
      </trkpt>
      <trkpt lat="39.200764" lon="-1.717179">
        <ele>663.937217</ele>
        <time>2021-11-03T16:20:50.182Z</time>
      </trkpt>
      <trkpt lat="39.200718" lon="-1.717149">
        <ele>663.891406</ele>
        <time>2021-11-03T16:20:50.182Z</time>
      </trkpt>
      <trkpt lat="39.200417" lon="-1.717002">
        <ele>663.605353</ele>
        <time>2021-11-03T16:20:50.182Z</time>
      </trkpt>
      <trkpt lat="39.199955" lon="-1.716877">
        <ele>663.185789</ele>
        <time>2021-11-03T16:20:50.182Z</time>
      </trkpt>
      <trkpt lat="39.199769" lon="-1.716854">
        <ele>663.019712</ele>
        <time>2021-11-03T16:20:50.182Z</time>
      </trkpt>
      <trkpt lat="39.199579" lon="-1.716865">
        <ele>662.850666</ele>
        <time>2021-11-03T16:20:50.182Z</time>
      </trkpt>
      <trkpt lat="39.199254" lon="-1.716871">
        <ele>662.561770</ele>
        <time>2021-11-03T16:20:50.182Z</time>
      </trkpt>
      <trkpt lat="39.199129" lon="-1.716842">
        <ele>662.448886</ele>
        <time>2021-11-03T16:20:50.182Z</time>
      </trkpt>
      <trkpt lat="39.198787" lon="-1.716670">
        <ele>662.215553</ele>
        <time>2021-11-03T16:20:50.182Z</time>
      </trkpt>
      <trkpt lat="39.198302" lon="-1.716293">
        <ele>661.890393</ele>
        <time>2021-11-03T16:20:50.182Z</time>
      </trkpt>
      <trkpt lat="39.198207" lon="-1.716188">
        <ele>661.818559</ele>
        <time>2021-11-03T16:20:50.182Z</time>
      </trkpt>
      <trkpt lat="39.198015" lon="-1.715985">
        <ele>661.676010</ele>
        <time>2021-11-03T16:20:50.182Z</time>
      </trkpt>
      <trkpt lat="39.197863" lon="-1.715867">
        <ele>661.574139</ele>
        <time>2021-11-03T16:20:50.182Z</time>
      </trkpt>
      <trkpt lat="39.197767" lon="-1.715779">
        <ele>661.506512</ele>
        <time>2021-11-03T16:20:50.182Z</time>
      </trkpt>
      <trkpt lat="39.197398" lon="-1.715432">
        <ele>661.435218</ele>
        <time>2021-11-03T16:20:50.182Z</time>
      </trkpt>
      <trkpt lat="39.197110" lon="-1.715145">
        <ele>661.595774</ele>
        <time>2021-11-03T16:20:50.182Z</time>
      </trkpt>
      <trkpt lat="39.197072" lon="-1.715100">
        <ele>661.618532</ele>
        <time>2021-11-03T16:20:50.182Z</time>
      </trkpt>
      <trkpt lat="39.197031" lon="-1.715060">
        <ele>661.641211</ele>
        <time>2021-11-03T16:20:50.182Z</time>
      </trkpt>
      <trkpt lat="39.196851" lon="-1.714920">
        <ele>661.733943</ele>
        <time>2021-11-03T16:20:50.182Z</time>
      </trkpt>
      <trkpt lat="39.196515" lon="-1.714705">
        <ele>661.899423</ele>
        <time>2021-11-03T16:20:50.182Z</time>
      </trkpt>
      <trkpt lat="39.196467" lon="-1.714674">
        <ele>661.923107</ele>
        <time>2021-11-03T16:20:50.182Z</time>
      </trkpt>
      <trkpt lat="39.196024" lon="-1.714410">
        <ele>662.138410</ele>
        <time>2021-11-03T16:20:50.182Z</time>
      </trkpt>
      <trkpt lat="39.195652" lon="-1.714168">
        <ele>662.504685</ele>
        <time>2021-11-03T16:20:50.182Z</time>
      </trkpt>
      <trkpt lat="39.195498" lon="-1.714019">
        <ele>662.677485</ele>
        <time>2021-11-03T16:20:50.182Z</time>
      </trkpt>
      <trkpt lat="39.195391" lon="-1.713893">
        <ele>662.807531</ele>
        <time>2021-11-03T16:20:50.182Z</time>
      </trkpt>
      <trkpt lat="39.195252" lon="-1.713715">
        <ele>662.983338</ele>
        <time>2021-11-03T16:20:50.182Z</time>
      </trkpt>
      <trkpt lat="39.195180" lon="-1.713618">
        <ele>663.076786</ele>
        <time>2021-11-03T16:20:50.182Z</time>
      </trkpt>
      <trkpt lat="39.194824" lon="-1.713178">
        <ele>663.519341</ele>
        <time>2021-11-03T16:20:50.182Z</time>
      </trkpt>
      <trkpt lat="39.194768" lon="-1.713079">
        <ele>663.604615</ele>
        <time>2021-11-03T16:20:50.182Z</time>
      </trkpt>
      <trkpt lat="39.194688" lon="-1.712933">
        <ele>663.729019</ele>
        <time>2021-11-03T16:20:50.182Z</time>
      </trkpt>
      <trkpt lat="39.194552" lon="-1.712696">
        <ele>663.661801</ele>
        <time>2021-11-03T16:20:50.182Z</time>
      </trkpt>
      <trkpt lat="39.194520" lon="-1.712655">
        <ele>663.638766</ele>
        <time>2021-11-03T16:20:50.182Z</time>
      </trkpt>
      <trkpt lat="39.194457" lon="-1.712571">
        <ele>663.592491</ele>
        <time>2021-11-03T16:20:50.182Z</time>
      </trkpt>
      <trkpt lat="39.194284" lon="-1.712310">
        <ele>663.456534</ele>
        <time>2021-11-03T16:20:50.182Z</time>
      </trkpt>
      <trkpt lat="39.194252" lon="-1.712266">
        <ele>663.432647</ele>
        <time>2021-11-03T16:20:50.182Z</time>
      </trkpt>
      <trkpt lat="39.194219" lon="-1.712222">
        <ele>663.408408</ele>
        <time>2021-11-03T16:20:50.182Z</time>
      </trkpt>
      <trkpt lat="39.194186" lon="-1.712175">
        <ele>663.383301</ele>
        <time>2021-11-03T16:20:50.182Z</time>
      </trkpt>
      <trkpt lat="39.194152" lon="-1.712129">
        <ele>663.358137</ele>
        <time>2021-11-03T16:20:50.182Z</time>
      </trkpt>
      <trkpt lat="39.194008" lon="-1.711935">
        <ele>663.251796</ele>
        <time>2021-11-03T16:20:50.182Z</time>
      </trkpt>
      <trkpt lat="39.193853" lon="-1.711736">
        <ele>663.140106</ele>
        <time>2021-11-03T16:20:50.182Z</time>
      </trkpt>
      <trkpt lat="39.193693" lon="-1.711511">
        <ele>663.019221</ele>
        <time>2021-11-03T16:20:50.182Z</time>
      </trkpt>
      <trkpt lat="39.193608" lon="-1.711395">
        <ele>662.956023</ele>
        <time>2021-11-03T16:20:50.182Z</time>
      </trkpt>
      <trkpt lat="39.193429" lon="-1.711146">
        <ele>662.786114</ele>
        <time>2021-11-03T16:20:50.182Z</time>
      </trkpt>
      <trkpt lat="39.193331" lon="-1.711017">
        <ele>662.589470</ele>
        <time>2021-11-03T16:20:50.182Z</time>
      </trkpt>
      <trkpt lat="39.193221" lon="-1.710894">
        <ele>662.385015</ele>
        <time>2021-11-03T16:20:50.182Z</time>
      </trkpt>
      <trkpt lat="39.193038" lon="-1.710711">
        <ele>662.059807</ele>
        <time>2021-11-03T16:20:50.182Z</time>
      </trkpt>
      <trkpt lat="39.192906" lon="-1.710586">
        <ele>661.829821</ele>
        <time>2021-11-03T16:20:50.182Z</time>
      </trkpt>
      <trkpt lat="39.192838" lon="-1.710522">
        <ele>661.711596</ele>
        <time>2021-11-03T16:20:50.182Z</time>
      </trkpt>
      <trkpt lat="39.192702" lon="-1.710391">
        <ele>661.473207</ele>
        <time>2021-11-03T16:20:50.182Z</time>
      </trkpt>
      <trkpt lat="39.192515" lon="-1.710209">
        <ele>661.144197</ele>
        <time>2021-11-03T16:20:50.182Z</time>
      </trkpt>
      <trkpt lat="39.192459" lon="-1.710149">
        <ele>661.041954</ele>
        <time>2021-11-03T16:20:50.182Z</time>
      </trkpt>
      <trkpt lat="39.192357" lon="-1.710022">
        <ele>660.842853</ele>
        <time>2021-11-03T16:20:50.182Z</time>
      </trkpt>
      <trkpt lat="39.192268" lon="-1.709891">
        <ele>660.653207</ele>
        <time>2021-11-03T16:20:50.182Z</time>
      </trkpt>
      <trkpt lat="39.192190" lon="-1.709760">
        <ele>660.473371</ele>
        <time>2021-11-03T16:20:50.182Z</time>
      </trkpt>
      <trkpt lat="39.192150" lon="-1.709705">
        <ele>660.391263</ele>
        <time>2021-11-03T16:20:50.182Z</time>
      </trkpt>
      <trkpt lat="39.192063" lon="-1.709643">
        <ele>660.496413</ele>
        <time>2021-11-03T16:20:50.182Z</time>
      </trkpt>
      <trkpt lat="39.191982" lon="-1.709619">
        <ele>660.827782</ele>
        <time>2021-11-03T16:20:50.182Z</time>
      </trkpt>
      <trkpt lat="39.191842" lon="-1.709569">
        <ele>661.406979</ele>
        <time>2021-11-03T16:20:50.182Z</time>
      </trkpt>
      <trkpt lat="39.191709" lon="-1.709511">
        <ele>661.966746</ele>
        <time>2021-11-03T16:20:50.182Z</time>
      </trkpt>
      <trkpt lat="39.191592" lon="-1.709444">
        <ele>662.477130</ele>
        <time>2021-11-03T16:20:50.182Z</time>
      </trkpt>
      <trkpt lat="39.191473" lon="-1.709394">
        <ele>662.976130</ele>
        <time>2021-11-03T16:20:50.182Z</time>
      </trkpt>
      <trkpt lat="39.191349" lon="-1.709345">
        <ele>663.493211</ele>
        <time>2021-11-03T16:20:50.182Z</time>
      </trkpt>
      <trkpt lat="39.191224" lon="-1.709303">
        <ele>664.008233</ele>
        <time>2021-11-03T16:20:50.182Z</time>
      </trkpt>
      <trkpt lat="39.191160" lon="-1.709286">
        <ele>664.268765</ele>
        <time>2021-11-03T16:20:50.182Z</time>
      </trkpt>
      <trkpt lat="39.191127" lon="-1.709280">
        <ele>664.401642</ele>
        <time>2021-11-03T16:20:50.182Z</time>
      </trkpt>
      <trkpt lat="39.191094" lon="-1.709273">
        <ele>664.534986</ele>
        <time>2021-11-03T16:20:50.182Z</time>
      </trkpt>
      <trkpt lat="39.191060" lon="-1.709265">
        <ele>664.672786</ele>
        <time>2021-11-03T16:20:50.182Z</time>
      </trkpt>
      <trkpt lat="39.190818" lon="-1.709197">
        <ele>665.660305</ele>
        <time>2021-11-03T16:20:50.182Z</time>
      </trkpt>
      <trkpt lat="39.190783" lon="-1.709185">
        <ele>665.804700</ele>
        <time>2021-11-03T16:20:50.182Z</time>
      </trkpt>
      <trkpt lat="39.190542" lon="-1.709084">
        <ele>666.815033</ele>
        <time>2021-11-03T16:20:50.182Z</time>
      </trkpt>
      <trkpt lat="39.190405" lon="-1.709001">
        <ele>667.418500</ele>
        <time>2021-11-03T16:20:50.182Z</time>
      </trkpt>
      <trkpt lat="39.190318" lon="-1.708935">
        <ele>667.460404</ele>
        <time>2021-11-03T16:20:50.182Z</time>
      </trkpt>
      <trkpt lat="39.190276" lon="-1.708896">
        <ele>667.443994</ele>
        <time>2021-11-03T16:20:50.182Z</time>
      </trkpt>
      <trkpt lat="39.190148" lon="-1.708760">
        <ele>667.391409</ele>
        <time>2021-11-03T16:20:50.182Z</time>
      </trkpt>
      <trkpt lat="39.189978" lon="-1.708572">
        <ele>667.320404</ele>
        <time>2021-11-03T16:20:50.182Z</time>
      </trkpt>
      <trkpt lat="39.189836" lon="-1.708456">
        <ele>667.267105</ele>
        <time>2021-11-03T16:20:50.182Z</time>
      </trkpt>
      <trkpt lat="39.189637" lon="-1.708333">
        <ele>667.197129</ele>
        <time>2021-11-03T16:20:50.182Z</time>
      </trkpt>
      <trkpt lat="39.189536" lon="-1.708285">
        <ele>667.162995</ele>
        <time>2021-11-03T16:20:50.182Z</time>
      </trkpt>
      <trkpt lat="39.189330" lon="-1.708200">
        <ele>667.094408</ele>
        <time>2021-11-03T16:20:50.182Z</time>
      </trkpt>
      <trkpt lat="39.189278" lon="-1.708179">
        <ele>667.077128</ele>
        <time>2021-11-03T16:20:50.182Z</time>
      </trkpt>
      <trkpt lat="39.189225" lon="-1.708159">
        <ele>667.059616</ele>
        <time>2021-11-03T16:20:50.182Z</time>
      </trkpt>
      <trkpt lat="39.189173" lon="-1.708140">
        <ele>667.042477</ele>
        <time>2021-11-03T16:20:50.182Z</time>
      </trkpt>
      <trkpt lat="39.189120" lon="-1.708122">
        <ele>667.025097</ele>
        <time>2021-11-03T16:20:50.182Z</time>
      </trkpt>
      <trkpt lat="39.189064" lon="-1.708101">
        <ele>667.006603</ele>
        <time>2021-11-03T16:20:50.182Z</time>
      </trkpt>
      <trkpt lat="39.189009" lon="-1.708081">
        <ele>666.988481</ele>
        <time>2021-11-03T16:20:50.182Z</time>
      </trkpt>
      <trkpt lat="39.188899" lon="-1.708042">
        <ele>666.952304</ele>
        <time>2021-11-03T16:20:50.182Z</time>
      </trkpt>
      <trkpt lat="39.188843" lon="-1.708024">
        <ele>666.934002</ele>
        <time>2021-11-03T16:20:50.182Z</time>
      </trkpt>
      <trkpt lat="39.188731" lon="-1.707991">
        <ele>666.967372</ele>
        <time>2021-11-03T16:20:50.182Z</time>
      </trkpt>
      <trkpt lat="39.188352" lon="-1.707931">
        <ele>667.291245</ele>
        <time>2021-11-03T16:20:50.182Z</time>
      </trkpt>
      <trkpt lat="39.188299" lon="-1.707920">
        <ele>667.336776</ele>
        <time>2021-11-03T16:20:50.182Z</time>
      </trkpt>
      <trkpt lat="39.187967" lon="-1.707924">
        <ele>667.618386</ele>
        <time>2021-11-03T16:20:50.182Z</time>
      </trkpt>
      <trkpt lat="39.187477" lon="-1.707912">
        <ele>668.034071</ele>
        <time>2021-11-03T16:20:50.182Z</time>
      </trkpt>
      <trkpt lat="39.187368" lon="-1.707904">
        <ele>668.126673</ele>
        <time>2021-11-03T16:20:50.182Z</time>
      </trkpt>
      <trkpt lat="39.187261" lon="-1.707898">
        <ele>668.217514</ele>
        <time>2021-11-03T16:20:50.182Z</time>
      </trkpt>
      <trkpt lat="39.187209" lon="-1.707893">
        <ele>668.261742</ele>
        <time>2021-11-03T16:20:50.182Z</time>
      </trkpt>
      <trkpt lat="39.187103" lon="-1.707881">
        <ele>668.351995</ele>
        <time>2021-11-03T16:20:50.182Z</time>
      </trkpt>
      <trkpt lat="39.186944" lon="-1.707865">
        <ele>668.379775</ele>
        <time>2021-11-03T16:20:50.182Z</time>
      </trkpt>
      <trkpt lat="39.186785" lon="-1.707846">
        <ele>668.192549</ele>
        <time>2021-11-03T16:20:50.182Z</time>
      </trkpt>
      <trkpt lat="39.186463" lon="-1.707829">
        <ele>667.814688</ele>
        <time>2021-11-03T16:20:50.182Z</time>
      </trkpt>
      <trkpt lat="39.186250" lon="-1.707819">
        <ele>667.564781</ele>
        <time>2021-11-03T16:20:50.182Z</time>
      </trkpt>
      <trkpt lat="39.186033" lon="-1.707799">
        <ele>667.309700</ele>
        <time>2021-11-03T16:20:50.182Z</time>
      </trkpt>
      <trkpt lat="39.185976" lon="-1.707797">
        <ele>667.242843</ele>
        <time>2021-11-03T16:20:50.182Z</time>
      </trkpt>
      <trkpt lat="39.185635" lon="-1.707785">
        <ele>666.842871</ele>
        <time>2021-11-03T16:20:50.182Z</time>
      </trkpt>
      <trkpt lat="39.185517" lon="-1.707767">
        <ele>666.703553</ele>
        <time>2021-11-03T16:20:50.182Z</time>
      </trkpt>
      <trkpt lat="39.185456" lon="-1.707763">
        <ele>666.631938</ele>
        <time>2021-11-03T16:20:50.182Z</time>
      </trkpt>
      <trkpt lat="39.185393" lon="-1.707761">
        <ele>666.558048</ele>
        <time>2021-11-03T16:20:50.182Z</time>
      </trkpt>
      <trkpt lat="39.185263" lon="-1.707754">
        <ele>666.405491</ele>
        <time>2021-11-03T16:20:50.182Z</time>
      </trkpt>
      <trkpt lat="39.184994" lon="-1.707738">
        <ele>665.727269</ele>
        <time>2021-11-03T16:20:50.182Z</time>
      </trkpt>
      <trkpt lat="39.184715" lon="-1.707728">
        <ele>664.912821</ele>
        <time>2021-11-03T16:20:50.182Z</time>
      </trkpt>
      <trkpt lat="39.184442" lon="-1.707715">
        <ele>664.115653</ele>
        <time>2021-11-03T16:20:50.182Z</time>
      </trkpt>
      <trkpt lat="39.183964" lon="-1.707707">
        <ele>662.720711</ele>
        <time>2021-11-03T16:20:50.182Z</time>
      </trkpt>
      <trkpt lat="39.183896" lon="-1.707710">
        <ele>662.522168</ele>
        <time>2021-11-03T16:20:50.182Z</time>
      </trkpt>
      <trkpt lat="39.183830" lon="-1.707713">
        <ele>662.329458</ele>
        <time>2021-11-03T16:20:50.182Z</time>
      </trkpt>
      <trkpt lat="39.183763" lon="-1.707719">
        <ele>662.133479</ele>
        <time>2021-11-03T16:20:50.182Z</time>
      </trkpt>
      <trkpt lat="39.183697" lon="-1.707732">
        <ele>661.938656</ele>
        <time>2021-11-03T16:20:50.182Z</time>
      </trkpt>
      <trkpt lat="39.183569" lon="-1.707775">
        <ele>661.552692</ele>
        <time>2021-11-03T16:20:50.182Z</time>
      </trkpt>
      <trkpt lat="39.183507" lon="-1.707806">
        <ele>661.358661</ele>
        <time>2021-11-03T16:20:50.182Z</time>
      </trkpt>
      <trkpt lat="39.183385" lon="-1.707867">
        <ele>661.082047</ele>
        <time>2021-11-03T16:20:50.182Z</time>
      </trkpt>
      <trkpt lat="39.183256" lon="-1.707913">
        <ele>661.072366</ele>
        <time>2021-11-03T16:20:50.182Z</time>
      </trkpt>
      <trkpt lat="39.183125" lon="-1.707947">
        <ele>661.062700</ele>
        <time>2021-11-03T16:20:50.182Z</time>
      </trkpt>
      <trkpt lat="39.182997" lon="-1.707970">
        <ele>661.053352</ele>
        <time>2021-11-03T16:20:50.182Z</time>
      </trkpt>
      <trkpt lat="39.182878" lon="-1.708022">
        <ele>661.044264</ele>
        <time>2021-11-03T16:20:50.182Z</time>
      </trkpt>
      <trkpt lat="39.182652" lon="-1.708127">
        <ele>661.026888</ele>
        <time>2021-11-03T16:20:50.182Z</time>
      </trkpt>
      <trkpt lat="39.182487" lon="-1.708192">
        <ele>661.014409</ele>
        <time>2021-11-03T16:20:50.182Z</time>
      </trkpt>
      <trkpt lat="39.182430" lon="-1.708203">
        <ele>661.010240</ele>
        <time>2021-11-03T16:20:50.182Z</time>
      </trkpt>
      <trkpt lat="39.182084" lon="-1.708238">
        <ele>660.985135</ele>
        <time>2021-11-03T16:20:50.182Z</time>
      </trkpt>
      <trkpt lat="39.181979" lon="-1.708242">
        <ele>660.977537</ele>
        <time>2021-11-03T16:20:50.182Z</time>
      </trkpt>
      <trkpt lat="39.181723" lon="-1.708239">
        <ele>660.959019</ele>
        <time>2021-11-03T16:20:50.182Z</time>
      </trkpt>
      <trkpt lat="39.181623" lon="-1.708227">
        <ele>660.874502</ele>
        <time>2021-11-03T16:20:50.182Z</time>
      </trkpt>
      <trkpt lat="39.181522" lon="-1.708205">
        <ele>660.667135</ele>
        <time>2021-11-03T16:20:50.182Z</time>
      </trkpt>
      <trkpt lat="39.181318" lon="-1.708122">
        <ele>660.234089</ele>
        <time>2021-11-03T16:20:50.182Z</time>
      </trkpt>
      <trkpt lat="39.181217" lon="-1.708061">
        <ele>660.008318</ele>
        <time>2021-11-03T16:20:50.182Z</time>
      </trkpt>
      <trkpt lat="39.181109" lon="-1.707999">
        <ele>659.769003</ele>
        <time>2021-11-03T16:20:50.182Z</time>
      </trkpt>
      <trkpt lat="39.180929" lon="-1.707921">
        <ele>659.384588</ele>
        <time>2021-11-03T16:20:50.182Z</time>
      </trkpt>
      <trkpt lat="39.180862" lon="-1.707914">
        <ele>659.248504</ele>
        <time>2021-11-03T16:20:50.182Z</time>
      </trkpt>
      <trkpt lat="39.180793" lon="-1.707922">
        <ele>659.108252</ele>
        <time>2021-11-03T16:20:50.182Z</time>
      </trkpt>
      <trkpt lat="39.180651" lon="-1.707969">
        <ele>658.811465</ele>
        <time>2021-11-03T16:20:50.182Z</time>
      </trkpt>
      <trkpt lat="39.180508" lon="-1.708035">
        <ele>658.503994</ele>
        <time>2021-11-03T16:20:50.182Z</time>
      </trkpt>
      <trkpt lat="39.180307" lon="-1.708160">
        <ele>658.052260</ele>
        <time>2021-11-03T16:20:50.182Z</time>
      </trkpt>
      <trkpt lat="39.180184" lon="-1.708251">
        <ele>657.765205</ele>
        <time>2021-11-03T16:20:50.182Z</time>
      </trkpt>
      <trkpt lat="39.179974" lon="-1.708462">
        <ele>657.390517</ele>
        <time>2021-11-03T16:20:50.182Z</time>
      </trkpt>
      <trkpt lat="39.179787" lon="-1.708663">
        <ele>657.828038</ele>
        <time>2021-11-03T16:20:50.182Z</time>
      </trkpt>
      <trkpt lat="39.179699" lon="-1.708744">
        <ele>658.022356</ele>
        <time>2021-11-03T16:20:50.182Z</time>
      </trkpt>
      <trkpt lat="39.179611" lon="-1.708808">
        <ele>658.203942</ele>
        <time>2021-11-03T16:20:50.182Z</time>
      </trkpt>
      <trkpt lat="39.179530" lon="-1.708870">
        <ele>658.373241</ele>
        <time>2021-11-03T16:20:50.182Z</time>
      </trkpt>
      <trkpt lat="39.179494" lon="-1.708905">
        <ele>658.454270</ele>
        <time>2021-11-03T16:20:50.182Z</time>
      </trkpt>
      <trkpt lat="39.179391" lon="-1.708999">
        <ele>658.681060</ele>
        <time>2021-11-03T16:20:50.182Z</time>
      </trkpt>
      <trkpt lat="39.179300" lon="-1.709097">
        <ele>658.894138</ele>
        <time>2021-11-03T16:20:50.182Z</time>
      </trkpt>
      <trkpt lat="39.179270" lon="-1.709130">
        <ele>658.965006</ele>
        <time>2021-11-03T16:20:50.182Z</time>
      </trkpt>
      <trkpt lat="39.179241" lon="-1.709162">
        <ele>659.033602</ele>
        <time>2021-11-03T16:20:50.182Z</time>
      </trkpt>
      <trkpt lat="39.179212" lon="-1.709194">
        <ele>659.102199</ele>
        <time>2021-11-03T16:20:50.182Z</time>
      </trkpt>
      <trkpt lat="39.179183" lon="-1.709224">
        <ele>659.169017</ele>
        <time>2021-11-03T16:20:50.182Z</time>
      </trkpt>
      <trkpt lat="39.179126" lon="-1.709280">
        <ele>659.297805</ele>
        <time>2021-11-03T16:20:50.182Z</time>
      </trkpt>
      <trkpt lat="39.179067" lon="-1.709331">
        <ele>659.425465</ele>
        <time>2021-11-03T16:20:50.182Z</time>
      </trkpt>
      <trkpt lat="39.178956" lon="-1.709390">
        <ele>659.641262</ele>
        <time>2021-11-03T16:20:50.182Z</time>
      </trkpt>
      <trkpt lat="39.178877" lon="-1.709438">
        <ele>659.798228</ele>
        <time>2021-11-03T16:20:50.182Z</time>
      </trkpt>
      <trkpt lat="39.178701" lon="-1.709594">
        <ele>660.182069</ele>
        <time>2021-11-03T16:20:50.182Z</time>
      </trkpt>
      <trkpt lat="39.178638" lon="-1.709655">
        <ele>660.323662</ele>
        <time>2021-11-03T16:20:50.182Z</time>
      </trkpt>
      <trkpt lat="39.178532" lon="-1.709739">
        <ele>660.545148</ele>
        <time>2021-11-03T16:20:50.182Z</time>
      </trkpt>
      <trkpt lat="39.178443" lon="-1.709799">
        <ele>660.296567</ele>
        <time>2021-11-03T16:20:50.182Z</time>
      </trkpt>
      <trkpt lat="39.178131" lon="-1.710045">
        <ele>659.391405</ele>
        <time>2021-11-03T16:20:50.182Z</time>
      </trkpt>
      <trkpt lat="39.177974" lon="-1.710199">
        <ele>658.903177</ele>
        <time>2021-11-03T16:20:50.182Z</time>
      </trkpt>
      <trkpt lat="39.177742" lon="-1.710398">
        <ele>658.213516</ele>
        <time>2021-11-03T16:20:50.182Z</time>
      </trkpt>
      <trkpt lat="39.177531" lon="-1.710471">
        <ele>657.672747</ele>
        <time>2021-11-03T16:20:50.182Z</time>
      </trkpt>
      <trkpt lat="39.177459" lon="-1.710481">
        <ele>657.493488</ele>
        <time>2021-11-03T16:20:50.182Z</time>
      </trkpt>
      <trkpt lat="39.177103" lon="-1.710552">
        <ele>656.601774</ele>
        <time>2021-11-03T16:20:50.182Z</time>
      </trkpt>
      <trkpt lat="39.177035" lon="-1.710580">
        <ele>656.425079</ele>
        <time>2021-11-03T16:20:50.182Z</time>
      </trkpt>
      <trkpt lat="39.176971" lon="-1.710616">
        <ele>656.252247</ele>
        <time>2021-11-03T16:20:50.182Z</time>
      </trkpt>
      <trkpt lat="39.176566" lon="-1.710921">
        <ele>655.561847</ele>
        <time>2021-11-03T16:20:50.182Z</time>
      </trkpt>
      <trkpt lat="39.176357" lon="-1.711094">
        <ele>655.235582</ele>
        <time>2021-11-03T16:20:50.182Z</time>
      </trkpt>
      <trkpt lat="39.176264" lon="-1.711196">
        <ele>655.075199</ele>
        <time>2021-11-03T16:20:50.182Z</time>
      </trkpt>
      <trkpt lat="39.176225" lon="-1.711254">
        <ele>654.996999</ele>
        <time>2021-11-03T16:20:50.182Z</time>
      </trkpt>
      <trkpt lat="39.175970" lon="-1.711665">
        <ele>654.460829</ele>
        <time>2021-11-03T16:20:50.182Z</time>
      </trkpt>
      <trkpt lat="39.175656" lon="-1.712162">
        <ele>653.807809</ele>
        <time>2021-11-03T16:20:50.182Z</time>
      </trkpt>
      <trkpt lat="39.175611" lon="-1.712224">
        <ele>653.676150</ele>
        <time>2021-11-03T16:20:50.182Z</time>
      </trkpt>
      <trkpt lat="39.175494" lon="-1.712317">
        <ele>652.642552</ele>
        <time>2021-11-03T16:20:50.182Z</time>
      </trkpt>
      <trkpt lat="39.175353" lon="-1.712365">
        <ele>651.545788</ele>
        <time>2021-11-03T16:20:50.182Z</time>
      </trkpt>
      <trkpt lat="39.175286" lon="-1.712356">
        <ele>651.039158</ele>
        <time>2021-11-03T16:20:50.182Z</time>
      </trkpt>
      <trkpt lat="39.175222" lon="-1.712323">
        <ele>650.520786</ele>
        <time>2021-11-03T16:20:50.182Z</time>
      </trkpt>
      <trkpt lat="39.175100" lon="-1.712201">
        <ele>649.359806</ele>
        <time>2021-11-03T16:20:50.182Z</time>
      </trkpt>
      <trkpt lat="39.174923" lon="-1.711938">
        <ele>647.329182</ele>
        <time>2021-11-03T16:20:50.182Z</time>
      </trkpt>
      <trkpt lat="39.174870" lon="-1.711832">
        <ele>646.593760</ele>
        <time>2021-11-03T16:20:50.182Z</time>
      </trkpt>
      <trkpt lat="39.174786" lon="-1.711585">
        <ele>645.021165</ele>
        <time>2021-11-03T16:20:50.182Z</time>
      </trkpt>
      <trkpt lat="39.174752" lon="-1.711447">
        <ele>644.176908</ele>
        <time>2021-11-03T16:20:50.182Z</time>
      </trkpt>
      <trkpt lat="39.174723" lon="-1.711300">
        <ele>643.292518</ele>
        <time>2021-11-03T16:20:50.182Z</time>
      </trkpt>
      <trkpt lat="39.174702" lon="-1.711144">
        <ele>642.369359</ele>
        <time>2021-11-03T16:20:50.182Z</time>
      </trkpt>
      <trkpt lat="39.174681" lon="-1.710827">
        <ele>640.514374</ele>
        <time>2021-11-03T16:20:50.182Z</time>
      </trkpt>
      <trkpt lat="39.174679" lon="-1.710681">
        <ele>639.677072</ele>
        <time>2021-11-03T16:20:50.182Z</time>
      </trkpt>
      <trkpt lat="39.174673" lon="-1.710544">
        <ele>638.897869</ele>
        <time>2021-11-03T16:20:50.182Z</time>
      </trkpt>
      <trkpt lat="39.174656" lon="-1.710418">
        <ele>638.171615</ele>
        <time>2021-11-03T16:20:50.182Z</time>
      </trkpt>
      <trkpt lat="39.174626" lon="-1.710296">
        <ele>637.444814</ele>
        <time>2021-11-03T16:20:50.182Z</time>
      </trkpt>
      <trkpt lat="39.174502" lon="-1.709928">
        <ele>635.166235</ele>
        <time>2021-11-03T16:20:50.182Z</time>
      </trkpt>
      <trkpt lat="39.174408" lon="-1.709678">
        <ele>633.588421</ele>
        <time>2021-11-03T16:20:50.182Z</time>
      </trkpt>
      <trkpt lat="39.174367" lon="-1.709561">
        <ele>632.859301</ele>
        <time>2021-11-03T16:20:50.182Z</time>
      </trkpt>
      <trkpt lat="39.174311" lon="-1.709342">
        <ele>631.549785</ele>
        <time>2021-11-03T16:20:50.182Z</time>
      </trkpt>
      <trkpt lat="39.174299" lon="-1.709240">
        <ele>630.963937</ele>
        <time>2021-11-03T16:20:50.182Z</time>
      </trkpt>
      <trkpt lat="39.174290" lon="-1.709064">
        <ele>629.962334</ele>
        <time>2021-11-03T16:20:50.182Z</time>
      </trkpt>
      <trkpt lat="39.174221" lon="-1.708960">
        <ele>629.185008</ele>
        <time>2021-11-03T16:20:50.182Z</time>
      </trkpt>
      <trkpt lat="39.174114" lon="-1.708984">
        <ele>628.389466</ele>
        <time>2021-11-03T16:20:50.182Z</time>
      </trkpt>
      <trkpt lat="39.174076" lon="-1.709047">
        <ele>627.936182</ele>
        <time>2021-11-03T16:20:50.182Z</time>
      </trkpt>
      <trkpt lat="39.174051" lon="-1.709124">
        <ele>627.462130</ele>
        <time>2021-11-03T16:20:50.182Z</time>
      </trkpt>
      <trkpt lat="39.174031" lon="-1.709206">
        <ele>627.007148</ele>
        <time>2021-11-03T16:20:50.182Z</time>
      </trkpt>
      <trkpt lat="39.173983" lon="-1.709371">
        <ele>626.619150</ele>
        <time>2021-11-03T16:20:50.182Z</time>
      </trkpt>
      <trkpt lat="39.173933" lon="-1.709543">
        <ele>626.214727</ele>
        <time>2021-11-03T16:20:50.182Z</time>
      </trkpt>
      <trkpt lat="39.173900" lon="-1.709626">
        <ele>626.009363</ele>
        <time>2021-11-03T16:20:50.182Z</time>
      </trkpt>
      <trkpt lat="39.173801" lon="-1.709754">
        <ele>625.611292</ele>
        <time>2021-11-03T16:20:50.182Z</time>
      </trkpt>
      <trkpt lat="39.173737" lon="-1.709794">
        <ele>625.409326</ele>
        <time>2021-11-03T16:20:50.182Z</time>
      </trkpt>
      <trkpt lat="39.173444" lon="-1.709894">
        <ele>624.548595</ele>
        <time>2021-11-03T16:20:50.182Z</time>
      </trkpt>
      <trkpt lat="39.173370" lon="-1.709921">
        <ele>624.330195</ele>
        <time>2021-11-03T16:20:50.182Z</time>
      </trkpt>
      <trkpt lat="39.173224" lon="-1.709981">
        <ele>623.895032</ele>
        <time>2021-11-03T16:20:50.182Z</time>
      </trkpt>
      <trkpt lat="39.173019" lon="-1.710072">
        <ele>623.279339</ele>
        <time>2021-11-03T16:20:50.182Z</time>
      </trkpt>
      <trkpt lat="39.172953" lon="-1.710102">
        <ele>623.080607</ele>
        <time>2021-11-03T16:20:50.182Z</time>
      </trkpt>
      <trkpt lat="39.172886" lon="-1.710132">
        <ele>622.879194</ele>
        <time>2021-11-03T16:20:50.182Z</time>
      </trkpt>
      <trkpt lat="39.172825" lon="-1.710164">
        <ele>622.692181</ele>
        <time>2021-11-03T16:20:50.182Z</time>
      </trkpt>
      <trkpt lat="39.172648" lon="-1.710272">
        <ele>622.136113</ele>
        <time>2021-11-03T16:20:50.182Z</time>
      </trkpt>
      <trkpt lat="39.172544" lon="-1.710364">
        <ele>621.949175</ele>
        <time>2021-11-03T16:20:50.182Z</time>
      </trkpt>
      <trkpt lat="39.172448" lon="-1.710454">
        <ele>622.018020</ele>
        <time>2021-11-03T16:20:50.182Z</time>
      </trkpt>
      <trkpt lat="39.172364" lon="-1.710533">
        <ele>622.078326</ele>
        <time>2021-11-03T16:20:50.182Z</time>
      </trkpt>
      <trkpt lat="39.172242" lon="-1.710631">
        <ele>622.161700</ele>
        <time>2021-11-03T16:20:50.182Z</time>
      </trkpt>
      <trkpt lat="39.172198" lon="-1.710664">
        <ele>622.191226</ele>
        <time>2021-11-03T16:20:50.182Z</time>
      </trkpt>
      <trkpt lat="39.172157" lon="-1.710718">
        <ele>622.225218</ele>
        <time>2021-11-03T16:20:50.182Z</time>
      </trkpt>
      <trkpt lat="39.172127" lon="-1.710754">
        <ele>622.248988</ele>
        <time>2021-11-03T16:20:50.182Z</time>
      </trkpt>
      <trkpt lat="39.172091" lon="-1.710787">
        <ele>622.274608</ele>
        <time>2021-11-03T16:20:50.182Z</time>
      </trkpt>
      <trkpt lat="39.171981" lon="-1.710866">
        <ele>622.347644</ele>
        <time>2021-11-03T16:20:50.182Z</time>
      </trkpt>
      <trkpt lat="39.171959" lon="-1.710876">
        <ele>622.361176</ele>
        <time>2021-11-03T16:20:50.182Z</time>
      </trkpt>
      <trkpt lat="39.171935" lon="-1.710889">
        <ele>622.376276</ele>
        <time>2021-11-03T16:20:50.182Z</time>
      </trkpt>
      <trkpt lat="39.171912" lon="-1.710903">
        <ele>622.391029</ele>
        <time>2021-11-03T16:20:50.182Z</time>
      </trkpt>
      <trkpt lat="39.171798" lon="-1.710979">
        <ele>622.465472</ele>
        <time>2021-11-03T16:20:50.182Z</time>
      </trkpt>
      <trkpt lat="39.171733" lon="-1.711021">
        <ele>622.507646</ele>
        <time>2021-11-03T16:20:50.182Z</time>
      </trkpt>
      <trkpt lat="39.171527" lon="-1.711161">
        <ele>622.642720</ele>
        <time>2021-11-03T16:20:50.182Z</time>
      </trkpt>
      <trkpt lat="39.171489" lon="-1.711183">
        <ele>622.666882</ele>
        <time>2021-11-03T16:20:50.182Z</time>
      </trkpt>
      <trkpt lat="39.171449" lon="-1.711204">
        <ele>622.691935</ele>
        <time>2021-11-03T16:20:50.182Z</time>
      </trkpt>
      <trkpt lat="39.171214" lon="-1.711339">
        <ele>622.841169</ele>
        <time>2021-11-03T16:20:50.182Z</time>
      </trkpt>
      <trkpt lat="39.171060" lon="-1.711463">
        <ele>622.946483</ele>
        <time>2021-11-03T16:20:50.182Z</time>
      </trkpt>
      <trkpt lat="39.170943" lon="-1.711536">
        <ele>622.869724</ele>
        <time>2021-11-03T16:20:50.182Z</time>
      </trkpt>
      <trkpt lat="39.170691" lon="-1.711754">
        <ele>622.586642</ele>
        <time>2021-11-03T16:20:50.182Z</time>
      </trkpt>
      <trkpt lat="39.170555" lon="-1.711903">
        <ele>622.420169</ele>
        <time>2021-11-03T16:20:50.182Z</time>
      </trkpt>
      <trkpt lat="39.170399" lon="-1.712039">
        <ele>622.244504</ele>
        <time>2021-11-03T16:20:50.182Z</time>
      </trkpt>
      <trkpt lat="39.170314" lon="-1.712098">
        <ele>622.154450</ele>
        <time>2021-11-03T16:20:50.182Z</time>
      </trkpt>
      <trkpt lat="39.170225" lon="-1.712150">
        <ele>622.063296</ele>
        <time>2021-11-03T16:20:50.182Z</time>
      </trkpt>
      <trkpt lat="39.170029" lon="-1.712223">
        <ele>621.872967</ele>
        <time>2021-11-03T16:20:50.182Z</time>
      </trkpt>
      <trkpt lat="39.169876" lon="-1.712276">
        <ele>621.725167</ele>
        <time>2021-11-03T16:20:50.182Z</time>
      </trkpt>
      <trkpt lat="39.169710" lon="-1.712323">
        <ele>621.566610</ele>
        <time>2021-11-03T16:20:50.182Z</time>
      </trkpt>
      <trkpt lat="39.169585" lon="-1.712334">
        <ele>621.449720</ele>
        <time>2021-11-03T16:20:50.182Z</time>
      </trkpt>
      <trkpt lat="39.169521" lon="-1.712331">
        <ele>621.389971</ele>
        <time>2021-11-03T16:20:50.182Z</time>
      </trkpt>
      <trkpt lat="39.169460" lon="-1.712319">
        <ele>621.332403</ele>
        <time>2021-11-03T16:20:50.182Z</time>
      </trkpt>
      <trkpt lat="39.169401" lon="-1.712298">
        <ele>621.276026</ele>
        <time>2021-11-03T16:20:50.182Z</time>
      </trkpt>
      <trkpt lat="39.169346" lon="-1.712270">
        <ele>621.224779</ele>
        <time>2021-11-03T16:20:50.182Z</time>
      </trkpt>
      <trkpt lat="39.169041" lon="-1.712057">
        <ele>620.924177</ele>
        <time>2021-11-03T16:20:50.182Z</time>
      </trkpt>
      <trkpt lat="39.168946" lon="-1.711980">
        <ele>620.826933</ele>
        <time>2021-11-03T16:20:50.182Z</time>
      </trkpt>
      <trkpt lat="39.168611" lon="-1.711682">
        <ele>620.474236</ele>
        <time>2021-11-03T16:20:50.182Z</time>
      </trkpt>
      <trkpt lat="39.168178" lon="-1.711291">
        <ele>620.016128</ele>
        <time>2021-11-03T16:20:50.182Z</time>
      </trkpt>
      <trkpt lat="39.167996" lon="-1.711116">
        <ele>619.819381</ele>
        <time>2021-11-03T16:20:50.182Z</time>
      </trkpt>
      <trkpt lat="39.167855" lon="-1.710985">
        <ele>619.739763</ele>
        <time>2021-11-03T16:20:50.182Z</time>
      </trkpt>
      <trkpt lat="39.167672" lon="-1.710824">
        <ele>619.783414</ele>
        <time>2021-11-03T16:20:50.182Z</time>
      </trkpt>
      <trkpt lat="39.167529" lon="-1.710704">
        <ele>619.817033</ele>
        <time>2021-11-03T16:20:50.182Z</time>
      </trkpt>
      <trkpt lat="39.167187" lon="-1.710421">
        <ele>619.897103</ele>
        <time>2021-11-03T16:20:50.182Z</time>
      </trkpt>
      <trkpt lat="39.166844" lon="-1.710212">
        <ele>619.971857</ele>
        <time>2021-11-03T16:20:50.182Z</time>
      </trkpt>
      <trkpt lat="39.166542" lon="-1.710093">
        <ele>620.034084</ele>
        <time>2021-11-03T16:20:50.182Z</time>
      </trkpt>
      <trkpt lat="39.166490" lon="-1.710075">
        <ele>620.044693</ele>
        <time>2021-11-03T16:20:50.182Z</time>
      </trkpt>
      <trkpt lat="39.166009" lon="-1.709945">
        <ele>619.885574</ele>
        <time>2021-11-03T16:20:50.182Z</time>
      </trkpt>
      <trkpt lat="39.165619" lon="-1.709871">
        <ele>619.634542</ele>
        <time>2021-11-03T16:20:50.182Z</time>
      </trkpt>
      <trkpt lat="39.165459" lon="-1.709844">
        <ele>619.531782</ele>
        <time>2021-11-03T16:20:50.182Z</time>
      </trkpt>
      <trkpt lat="39.165277" lon="-1.709809">
        <ele>619.414600</ele>
        <time>2021-11-03T16:20:50.182Z</time>
      </trkpt>
      <trkpt lat="39.165155" lon="-1.709804">
        <ele>619.336869</ele>
        <time>2021-11-03T16:20:50.182Z</time>
      </trkpt>
      <trkpt lat="39.165036" lon="-1.709828">
        <ele>619.260167</ele>
        <time>2021-11-03T16:20:50.182Z</time>
      </trkpt>
      <trkpt lat="39.164978" lon="-1.709845">
        <ele>619.222290</ele>
        <time>2021-11-03T16:20:50.182Z</time>
      </trkpt>
      <trkpt lat="39.164739" lon="-1.709925">
        <ele>619.065048</ele>
        <time>2021-11-03T16:20:50.182Z</time>
      </trkpt>
      <trkpt lat="39.164683" lon="-1.709955">
        <ele>619.026432</ele>
        <time>2021-11-03T16:20:50.182Z</time>
      </trkpt>
      <trkpt lat="39.164632" lon="-1.709995">
        <ele>618.988421</ele>
        <time>2021-11-03T16:20:50.182Z</time>
      </trkpt>
      <trkpt lat="39.164434" lon="-1.710190">
        <ele>619.064032</ele>
        <time>2021-11-03T16:20:50.182Z</time>
      </trkpt>
      <trkpt lat="39.164395" lon="-1.710252">
        <ele>619.111840</ele>
        <time>2021-11-03T16:20:50.182Z</time>
      </trkpt>
      <trkpt lat="39.164205" lon="-1.710620">
        <ele>619.376592</ele>
        <time>2021-11-03T16:20:50.182Z</time>
      </trkpt>
      <trkpt lat="39.164048" lon="-1.710951">
        <ele>619.608949</ele>
        <time>2021-11-03T16:20:50.182Z</time>
      </trkpt>
      <trkpt lat="39.164028" lon="-1.711009">
        <ele>619.646960</ele>
        <time>2021-11-03T16:20:50.182Z</time>
      </trkpt>
      <trkpt lat="39.164007" lon="-1.711072">
        <ele>619.688025</ele>
        <time>2021-11-03T16:20:50.182Z</time>
      </trkpt>
      <trkpt lat="39.163973" lon="-1.711190">
        <ele>619.763407</ele>
        <time>2021-11-03T16:20:50.182Z</time>
      </trkpt>
      <trkpt lat="39.163952" lon="-1.711263">
        <ele>619.810032</ele>
        <time>2021-11-03T16:20:50.182Z</time>
      </trkpt>
      <trkpt lat="39.163779" lon="-1.711759">
        <ele>620.135717</ele>
        <time>2021-11-03T16:20:50.182Z</time>
      </trkpt>
      <trkpt lat="39.163730" lon="-1.711898">
        <ele>620.227152</ele>
        <time>2021-11-03T16:20:50.182Z</time>
      </trkpt>
      <trkpt lat="39.163679" lon="-1.712034">
        <ele>620.317617</ele>
        <time>2021-11-03T16:20:50.182Z</time>
      </trkpt>
      <trkpt lat="39.163625" lon="-1.712162">
        <ele>620.197332</ele>
        <time>2021-11-03T16:20:50.182Z</time>
      </trkpt>
      <trkpt lat="39.163398" lon="-1.712599">
        <ele>619.696100</ele>
        <time>2021-11-03T16:20:50.182Z</time>
      </trkpt>
      <trkpt lat="39.163187" lon="-1.713025">
        <ele>619.214406</ele>
        <time>2021-11-03T16:20:50.182Z</time>
      </trkpt>
      <trkpt lat="39.163160" lon="-1.713087">
        <ele>619.146645</ele>
        <time>2021-11-03T16:20:50.182Z</time>
      </trkpt>
      <trkpt lat="39.162933" lon="-1.713492">
        <ele>618.670441</ele>
        <time>2021-11-03T16:20:50.182Z</time>
      </trkpt>
      <trkpt lat="39.162905" lon="-1.713557">
        <ele>618.599585</ele>
        <time>2021-11-03T16:20:50.182Z</time>
      </trkpt>
      <trkpt lat="39.162798" lon="-1.713843">
        <ele>618.296986</ele>
        <time>2021-11-03T16:20:50.182Z</time>
      </trkpt>
      <trkpt lat="39.162729" lon="-1.713975">
        <ele>618.145287</ele>
        <time>2021-11-03T16:20:50.182Z</time>
      </trkpt>
      <trkpt lat="39.162688" lon="-1.714032">
        <ele>618.171691</ele>
        <time>2021-11-03T16:20:50.182Z</time>
      </trkpt>
      <trkpt lat="39.162644" lon="-1.714079">
        <ele>618.265330</ele>
        <time>2021-11-03T16:20:50.182Z</time>
      </trkpt>
      <trkpt lat="39.162543" lon="-1.714144">
        <ele>618.450334</ele>
        <time>2021-11-03T16:20:50.182Z</time>
      </trkpt>
      <trkpt lat="39.162439" lon="-1.714188">
        <ele>618.629728</ele>
        <time>2021-11-03T16:20:50.182Z</time>
      </trkpt>
      <trkpt lat="39.162388" lon="-1.714204">
        <ele>618.715755</ele>
        <time>2021-11-03T16:20:50.182Z</time>
      </trkpt>
      <trkpt lat="39.162238" lon="-1.714212">
        <ele>618.961816</ele>
        <time>2021-11-03T16:20:50.182Z</time>
      </trkpt>
      <trkpt lat="39.162190" lon="-1.714208">
        <ele>619.040652</ele>
        <time>2021-11-03T16:20:50.182Z</time>
      </trkpt>
      <trkpt lat="39.161918" lon="-1.714149">
        <ele>619.492723</ele>
        <time>2021-11-03T16:20:50.182Z</time>
      </trkpt>
      <trkpt lat="39.161749" lon="-1.714099">
        <ele>619.776910</ele>
        <time>2021-11-03T16:20:50.182Z</time>
      </trkpt>
      <trkpt lat="39.161495" lon="-1.714014">
        <ele>620.207004</ele>
        <time>2021-11-03T16:20:50.182Z</time>
      </trkpt>
      <trkpt lat="39.161369" lon="-1.713966">
        <ele>620.422340</ele>
        <time>2021-11-03T16:20:50.182Z</time>
      </trkpt>
      <trkpt lat="39.161287" lon="-1.713934">
        <ele>620.562756</ele>
        <time>2021-11-03T16:20:50.182Z</time>
      </trkpt>
      <trkpt lat="39.161245" lon="-1.713920">
        <ele>620.633856</ele>
        <time>2021-11-03T16:20:50.182Z</time>
      </trkpt>
      <trkpt lat="39.161165" lon="-1.713893">
        <ele>620.769392</ele>
        <time>2021-11-03T16:20:50.182Z</time>
      </trkpt>
      <trkpt lat="39.161165" lon="-1.713893">
        <ele>620.769392</ele>
        <time>2021-11-03T16:20:50.182Z</time>
      </trkpt>
      <trkpt lat="39.161025" lon="-1.713737">
        <ele>621.044463</ele>
        <time>2021-11-03T16:20:50.182Z</time>
      </trkpt>
      <trkpt lat="39.161009" lon="-1.713688">
        <ele>620.928733</ele>
        <time>2021-11-03T16:20:50.182Z</time>
      </trkpt>
      <trkpt lat="39.160967" lon="-1.713525">
        <ele>620.554855</ele>
        <time>2021-11-03T16:20:50.182Z</time>
      </trkpt>
      <trkpt lat="39.160950" lon="-1.713465">
        <ele>620.415808</ele>
        <time>2021-11-03T16:20:50.182Z</time>
      </trkpt>
      <trkpt lat="39.160776" lon="-1.712972">
        <ele>619.236757</ele>
        <time>2021-11-03T16:20:50.182Z</time>
      </trkpt>
      <trkpt lat="39.160748" lon="-1.712894">
        <ele>619.049662</ele>
        <time>2021-11-03T16:20:50.182Z</time>
      </trkpt>
      <trkpt lat="39.160655" lon="-1.712656">
        <ele>618.469541</ele>
        <time>2021-11-03T16:20:50.182Z</time>
      </trkpt>
      <trkpt lat="39.160589" lon="-1.712498">
        <ele>618.078890</ele>
        <time>2021-11-03T16:20:50.182Z</time>
      </trkpt>
      <trkpt lat="39.160553" lon="-1.712421">
        <ele>617.883172</ele>
        <time>2021-11-03T16:20:50.182Z</time>
      </trkpt>
      <trkpt lat="39.160510" lon="-1.712343">
        <ele>617.674851</ele>
        <time>2021-11-03T16:20:50.182Z</time>
      </trkpt>
      <trkpt lat="39.160468" lon="-1.712265">
        <ele>617.468144</ele>
        <time>2021-11-03T16:20:50.182Z</time>
      </trkpt>
      <trkpt lat="39.160414" lon="-1.712191">
        <ele>617.246952</ele>
        <time>2021-11-03T16:20:50.182Z</time>
      </trkpt>
      <trkpt lat="39.160287" lon="-1.712068">
        <ele>616.801092</ele>
        <time>2021-11-03T16:20:50.182Z</time>
      </trkpt>
      <trkpt lat="39.160150" lon="-1.711966">
        <ele>616.357010</ele>
        <time>2021-11-03T16:20:50.182Z</time>
      </trkpt>
      <trkpt lat="39.160012" lon="-1.711864">
        <ele>615.962614</ele>
        <time>2021-11-03T16:20:50.182Z</time>
      </trkpt>
      <trkpt lat="39.159945" lon="-1.711808">
        <ele>615.852478</ele>
        <time>2021-11-03T16:20:50.182Z</time>
      </trkpt>
      <trkpt lat="39.159811" lon="-1.711700">
        <ele>615.634504</ele>
        <time>2021-11-03T16:20:50.182Z</time>
      </trkpt>
      <trkpt lat="39.159489" lon="-1.711438">
        <ele>615.109305</ele>
        <time>2021-11-03T16:20:50.182Z</time>
      </trkpt>
      <trkpt lat="39.159306" lon="-1.711266">
        <ele>614.796939</ele>
        <time>2021-11-03T16:20:50.182Z</time>
      </trkpt>
      <trkpt lat="39.159125" lon="-1.711106">
        <ele>614.494236</ele>
        <time>2021-11-03T16:20:50.182Z</time>
      </trkpt>
      <trkpt lat="39.158957" lon="-1.710956">
        <ele>614.212368</ele>
        <time>2021-11-03T16:20:50.182Z</time>
      </trkpt>
      <trkpt lat="39.158809" lon="-1.710812">
        <ele>613.956624</ele>
        <time>2021-11-03T16:20:50.182Z</time>
      </trkpt>
      <trkpt lat="39.158733" lon="-1.710700">
        <ele>613.797430</ele>
        <time>2021-11-03T16:20:50.182Z</time>
      </trkpt>
      <trkpt lat="39.158704" lon="-1.710636">
        <ele>613.718142</ele>
        <time>2021-11-03T16:20:50.182Z</time>
      </trkpt>
      <trkpt lat="39.158656" lon="-1.710505">
        <ele>613.563163</ele>
        <time>2021-11-03T16:20:50.182Z</time>
      </trkpt>
      <trkpt lat="39.158604" lon="-1.710295">
        <ele>613.278007</ele>
        <time>2021-11-03T16:20:50.182Z</time>
      </trkpt>
      <trkpt lat="39.158585" lon="-1.710226">
        <ele>613.180779</ele>
        <time>2021-11-03T16:20:50.182Z</time>
      </trkpt>
      <trkpt lat="39.158559" lon="-1.710164">
        <ele>613.087183</ele>
        <time>2021-11-03T16:20:50.182Z</time>
      </trkpt>
      <trkpt lat="39.158497" lon="-1.710049">
        <ele>612.901196</ele>
        <time>2021-11-03T16:20:50.182Z</time>
      </trkpt>
      <trkpt lat="39.158415" lon="-1.709903">
        <ele>612.661816</ele>
        <time>2021-11-03T16:20:50.182Z</time>
      </trkpt>
      <trkpt lat="39.158376" lon="-1.709899">
        <ele>612.594818</ele>
        <time>2021-11-03T16:20:50.182Z</time>
      </trkpt>
      <trkpt lat="39.158182" lon="-1.709982">
        <ele>612.244794</ele>
        <time>2021-11-03T16:20:50.182Z</time>
      </trkpt>
      <trkpt lat="39.158125" lon="-1.709999">
        <ele>612.144607</ele>
        <time>2021-11-03T16:20:50.182Z</time>
      </trkpt>
      <trkpt lat="39.158065" lon="-1.710021">
        <ele>612.037786</ele>
        <time>2021-11-03T16:20:50.182Z</time>
      </trkpt>
      <trkpt lat="39.158004" lon="-1.710049">
        <ele>611.926906</ele>
        <time>2021-11-03T16:20:50.182Z</time>
      </trkpt>
      <trkpt lat="39.157940" lon="-1.710072">
        <ele>611.813132</ele>
        <time>2021-11-03T16:20:50.182Z</time>
      </trkpt>
      <trkpt lat="39.157875" lon="-1.710087">
        <ele>611.700053</ele>
        <time>2021-11-03T16:20:50.182Z</time>
      </trkpt>
      <trkpt lat="39.157742" lon="-1.710127">
        <ele>611.466182</ele>
        <time>2021-11-03T16:20:50.182Z</time>
      </trkpt>
      <trkpt lat="39.157680" lon="-1.710162">
        <ele>611.350282</ele>
        <time>2021-11-03T16:20:50.182Z</time>
      </trkpt>
      <trkpt lat="39.157624" lon="-1.710200">
        <ele>611.241919</ele>
        <time>2021-11-03T16:20:50.182Z</time>
      </trkpt>
      <trkpt lat="39.157519" lon="-1.710257">
        <ele>611.046828</ele>
        <time>2021-11-03T16:20:50.182Z</time>
      </trkpt>
      <trkpt lat="39.157409" lon="-1.710276">
        <ele>610.856774</ele>
        <time>2021-11-03T16:20:50.182Z</time>
      </trkpt>
      <trkpt lat="39.157074" lon="-1.710314">
        <ele>611.036849</ele>
        <time>2021-11-03T16:20:50.182Z</time>
      </trkpt>
      <trkpt lat="39.157022" lon="-1.710324">
        <ele>611.345280</ele>
        <time>2021-11-03T16:20:50.182Z</time>
      </trkpt>
      <trkpt lat="39.156976" lon="-1.710344">
        <ele>611.630062</ele>
        <time>2021-11-03T16:20:50.182Z</time>
      </trkpt>
      <trkpt lat="39.156921" lon="-1.710419">
        <ele>612.099645</ele>
        <time>2021-11-03T16:20:50.182Z</time>
      </trkpt>
      <trkpt lat="39.156909" lon="-1.710598">
        <ele>612.916953</ele>
        <time>2021-11-03T16:20:50.182Z</time>
      </trkpt>
      <trkpt lat="39.156912" lon="-1.710685">
        <ele>613.313107</ele>
        <time>2021-11-03T16:20:50.182Z</time>
      </trkpt>
      <trkpt lat="39.156922" lon="-1.710862">
        <ele>614.120413</ele>
        <time>2021-11-03T16:20:50.182Z</time>
      </trkpt>
      <trkpt lat="39.156925" lon="-1.710908">
        <ele>614.330406</ele>
        <time>2021-11-03T16:20:50.182Z</time>
      </trkpt>
      <trkpt lat="39.156926" lon="-1.710955">
        <ele>614.544289</ele>
        <time>2021-11-03T16:20:50.182Z</time>
      </trkpt>
      <trkpt lat="39.156877" lon="-1.711185">
        <ele>615.629330</ele>
        <time>2021-11-03T16:20:50.182Z</time>
      </trkpt>
      <trkpt lat="39.156849" lon="-1.711220">
        <ele>615.858090</ele>
        <time>2021-11-03T16:20:50.182Z</time>
      </trkpt>
      <trkpt lat="39.156789" lon="-1.711267">
        <ele>616.269926</ele>
        <time>2021-11-03T16:20:50.182Z</time>
      </trkpt>
      <trkpt lat="39.156726" lon="-1.711303">
        <ele>616.674172</ele>
        <time>2021-11-03T16:20:50.182Z</time>
      </trkpt>
      <trkpt lat="39.156630" lon="-1.711374">
        <ele>617.323396</ele>
        <time>2021-11-03T16:20:50.182Z</time>
      </trkpt>
      <trkpt lat="39.156574" lon="-1.711412">
        <ele>617.694623</ele>
        <time>2021-11-03T16:20:50.182Z</time>
      </trkpt>
      <trkpt lat="39.156476" lon="-1.711479">
        <ele>618.345333</ele>
        <time>2021-11-03T16:20:50.182Z</time>
      </trkpt>
      <trkpt lat="39.156334" lon="-1.711519">
        <ele>619.198017</ele>
        <time>2021-11-03T16:20:50.182Z</time>
      </trkpt>
      <trkpt lat="39.156311" lon="-1.711512">
        <ele>619.336653</ele>
        <time>2021-11-03T16:20:50.182Z</time>
      </trkpt>
      <trkpt lat="39.156292" lon="-1.711500">
        <ele>619.460766</ele>
        <time>2021-11-03T16:20:50.182Z</time>
      </trkpt>
      <trkpt lat="39.156275" lon="-1.711451">
        <ele>619.704962</ele>
        <time>2021-11-03T16:20:50.182Z</time>
      </trkpt>
      <trkpt lat="39.156272" lon="-1.711425">
        <ele>619.824539</ele>
        <time>2021-11-03T16:20:50.182Z</time>
      </trkpt>
      <trkpt lat="39.156277" lon="-1.711375">
        <ele>620.053875</ele>
        <time>2021-11-03T16:20:50.182Z</time>
      </trkpt>
      <trkpt lat="39.156302" lon="-1.711313">
        <ele>620.371769</ele>
        <time>2021-11-03T16:20:50.182Z</time>
      </trkpt>
      <trkpt lat="39.156316" lon="-1.711297">
        <ele>620.481510</ele>
        <time>2021-11-03T16:20:50.182Z</time>
      </trkpt>
      <trkpt lat="39.156342" lon="-1.711258">
        <ele>620.715476</ele>
        <time>2021-11-03T16:20:50.182Z</time>
      </trkpt>
      <trkpt lat="39.156354" lon="-1.711237">
        <ele>620.834143</ele>
        <time>2021-11-03T16:20:50.182Z</time>
      </trkpt>
      <trkpt lat="39.156365" lon="-1.711215">
        <ele>620.953223</ele>
        <time>2021-11-03T16:20:50.182Z</time>
      </trkpt>
      <trkpt lat="39.156378" lon="-1.711168">
        <ele>621.211161</ele>
        <time>2021-11-03T16:20:50.182Z</time>
      </trkpt>
      <trkpt lat="39.156383" lon="-1.711118">
        <ele>621.480630</ele>
        <time>2021-11-03T16:20:50.182Z</time>
      </trkpt>
      <trkpt lat="39.156398" lon="-1.711042">
        <ele>621.899811</ele>
        <time>2021-11-03T16:20:50.182Z</time>
      </trkpt>
      <trkpt lat="39.156388" lon="-1.710965">
        <ele>622.317117</ele>
        <time>2021-11-03T16:20:50.182Z</time>
      </trkpt>
      <trkpt lat="39.156385" lon="-1.710940">
        <ele>622.452336</ele>
        <time>2021-11-03T16:20:50.182Z</time>
      </trkpt>
      <trkpt lat="39.156383" lon="-1.710915">
        <ele>622.586673</ele>
        <time>2021-11-03T16:20:50.182Z</time>
      </trkpt>
      <trkpt lat="39.156380" lon="-1.710891">
        <ele>622.716612</ele>
        <time>2021-11-03T16:20:50.182Z</time>
      </trkpt>
      <trkpt lat="39.156367" lon="-1.710844">
        <ele>622.983336</ele>
        <time>2021-11-03T16:20:50.182Z</time>
      </trkpt>
      <trkpt lat="39.156340" lon="-1.710753">
        <ele>623.504133</ele>
        <time>2021-11-03T16:20:50.182Z</time>
      </trkpt>
      <trkpt lat="39.156309" lon="-1.710620">
        <ele>624.246455</ele>
        <time>2021-11-03T16:20:50.182Z</time>
      </trkpt>
      <trkpt lat="39.156306" lon="-1.710599">
        <ele>624.360592</ele>
        <time>2021-11-03T16:20:50.182Z</time>
      </trkpt>
      <trkpt lat="39.156273" lon="-1.710516">
        <ele>624.859155</ele>
        <time>2021-11-03T16:20:50.182Z</time>
      </trkpt>
      <trkpt lat="39.156262" lon="-1.710494">
        <ele>624.999074</ele>
        <time>2021-11-03T16:20:50.182Z</time>
      </trkpt>
      <trkpt lat="39.156249" lon="-1.710477">
        <ele>625.126694</ele>
        <time>2021-11-03T16:20:50.182Z</time>
      </trkpt>
      <trkpt lat="39.156213" lon="-1.710427">
        <ele>625.491394</ele>
        <time>2021-11-03T16:20:50.182Z</time>
      </trkpt>
      <trkpt lat="39.156156" lon="-1.710360">
        <ele>626.023024</ele>
        <time>2021-11-03T16:20:50.182Z</time>
      </trkpt>
      <trkpt lat="39.156140" lon="-1.710349">
        <ele>626.148007</ele>
        <time>2021-11-03T16:20:50.182Z</time>
      </trkpt>
      <trkpt lat="39.155975" lon="-1.710272">
        <ele>627.357553</ele>
        <time>2021-11-03T16:20:50.182Z</time>
      </trkpt>
      <trkpt lat="39.155938" lon="-1.710258">
        <ele>627.623351</ele>
        <time>2021-11-03T16:20:50.182Z</time>
      </trkpt>
      <trkpt lat="39.155883" lon="-1.710254">
        <ele>628.003076</ele>
        <time>2021-11-03T16:20:50.182Z</time>
      </trkpt>
      <trkpt lat="39.155865" lon="-1.710253">
        <ele>628.127267</ele>
        <time>2021-11-03T16:20:50.182Z</time>
      </trkpt>
      <trkpt lat="39.155797" lon="-1.710259">
        <ele>628.597097</ele>
        <time>2021-11-03T16:20:50.182Z</time>
      </trkpt>
      <trkpt lat="39.155780" lon="-1.710254">
        <ele>628.717289</ele>
        <time>2021-11-03T16:20:50.182Z</time>
      </trkpt>
      <trkpt lat="39.155761" lon="-1.710250">
        <ele>628.849992</ele>
        <time>2021-11-03T16:20:50.182Z</time>
      </trkpt>
      <trkpt lat="39.155646" lon="-1.710241">
        <ele>629.644162</ele>
        <time>2021-11-03T16:20:50.182Z</time>
      </trkpt>
      <trkpt lat="39.155626" lon="-1.710236">
        <ele>629.784591</ele>
        <time>2021-11-03T16:20:50.182Z</time>
      </trkpt>
      <trkpt lat="39.155503" lon="-1.710197">
        <ele>630.657698</ele>
        <time>2021-11-03T16:20:50.182Z</time>
      </trkpt>
      <trkpt lat="39.155462" lon="-1.710185">
        <ele>630.947504</ele>
        <time>2021-11-03T16:20:50.182Z</time>
      </trkpt>
      <trkpt lat="39.155339" lon="-1.710133">
        <ele>631.839758</ele>
        <time>2021-11-03T16:20:50.182Z</time>
      </trkpt>
      <trkpt lat="39.155297" lon="-1.710122">
        <ele>632.135180</ele>
        <time>2021-11-03T16:20:50.182Z</time>
      </trkpt>
      <trkpt lat="39.155216" lon="-1.710074">
        <ele>632.749652</ele>
        <time>2021-11-03T16:20:50.182Z</time>
      </trkpt>
      <trkpt lat="39.155064" lon="-1.709984">
        <ele>633.185931</ele>
        <time>2021-11-03T16:20:50.182Z</time>
      </trkpt>
      <trkpt lat="39.154854" lon="-1.709830">
        <ele>632.468442</ele>
        <time>2021-11-03T16:20:50.182Z</time>
      </trkpt>
      <trkpt lat="39.154764" lon="-1.709765">
        <ele>632.162079</ele>
        <time>2021-11-03T16:20:50.182Z</time>
      </trkpt>
      <trkpt lat="39.154530" lon="-1.709579">
        <ele>631.345688</ele>
        <time>2021-11-03T16:20:50.182Z</time>
      </trkpt>
      <trkpt lat="39.154373" lon="-1.709479">
        <ele>630.825624</ele>
        <time>2021-11-03T16:20:50.182Z</time>
      </trkpt>
      <trkpt lat="39.154202" lon="-1.709385">
        <ele>630.273540</ele>
        <time>2021-11-03T16:20:50.182Z</time>
      </trkpt>
      <trkpt lat="39.154082" lon="-1.709304">
        <ele>629.871270</ele>
        <time>2021-11-03T16:20:50.182Z</time>
      </trkpt>
      <trkpt lat="39.153959" lon="-1.709183">
        <ele>629.411804</ele>
        <time>2021-11-03T16:20:50.182Z</time>
      </trkpt>
      <trkpt lat="39.153905" lon="-1.709102">
        <ele>629.165791</ele>
        <time>2021-11-03T16:20:50.182Z</time>
      </trkpt>
      <trkpt lat="39.153856" lon="-1.709015">
        <ele>628.918149</ele>
        <time>2021-11-03T16:20:50.182Z</time>
      </trkpt>
      <trkpt lat="39.153806" lon="-1.708925">
        <ele>628.663167</ele>
        <time>2021-11-03T16:20:50.182Z</time>
      </trkpt>
      <trkpt lat="39.153699" lon="-1.708746">
        <ele>628.142645</ele>
        <time>2021-11-03T16:20:50.182Z</time>
      </trkpt>
      <trkpt lat="39.153527" lon="-1.708491">
        <ele>626.423732</ele>
        <time>2021-11-03T16:20:50.182Z</time>
      </trkpt>
      <trkpt lat="39.153444" lon="-1.708364">
        <ele>625.523930</ele>
        <time>2021-11-03T16:20:50.182Z</time>
      </trkpt>
      <trkpt lat="39.153361" lon="-1.708237">
        <ele>624.624128</ele>
        <time>2021-11-03T16:20:50.182Z</time>
      </trkpt>
      <trkpt lat="39.153308" lon="-1.708155">
        <ele>624.045803</ele>
        <time>2021-11-03T16:20:50.182Z</time>
      </trkpt>
      <trkpt lat="39.153253" lon="-1.708076">
        <ele>623.470628</ele>
        <time>2021-11-03T16:20:50.182Z</time>
      </trkpt>
      <trkpt lat="39.153194" lon="-1.707998">
        <ele>622.880310</ele>
        <time>2021-11-03T16:20:50.182Z</time>
      </trkpt>
      <trkpt lat="39.153129" lon="-1.707923">
        <ele>622.270951</ele>
        <time>2021-11-03T16:20:50.182Z</time>
      </trkpt>
      <trkpt lat="39.152983" lon="-1.707775">
        <ele>620.973522</ele>
        <time>2021-11-03T16:20:50.182Z</time>
      </trkpt>
      <trkpt lat="39.152855" lon="-1.707656">
        <ele>619.871102</ele>
        <time>2021-11-03T16:20:50.182Z</time>
      </trkpt>
      <trkpt lat="39.152727" lon="-1.707537">
        <ele>618.768680</ele>
        <time>2021-11-03T16:20:50.182Z</time>
      </trkpt>
      <trkpt lat="39.152638" lon="-1.707470">
        <ele>618.048697</ele>
        <time>2021-11-03T16:20:50.182Z</time>
      </trkpt>
      <trkpt lat="39.152476" lon="-1.707315">
        <ele>616.639401</ele>
        <time>2021-11-03T16:20:50.182Z</time>
      </trkpt>
      <trkpt lat="39.152439" lon="-1.707276">
        <ele>616.305539</ele>
        <time>2021-11-03T16:20:50.182Z</time>
      </trkpt>
      <trkpt lat="39.152403" lon="-1.707237">
        <ele>615.977057</ele>
        <time>2021-11-03T16:20:50.182Z</time>
      </trkpt>
      <trkpt lat="39.152327" lon="-1.707174">
        <ele>615.480931</ele>
        <time>2021-11-03T16:20:50.182Z</time>
      </trkpt>
      <trkpt lat="39.152171" lon="-1.707099">
        <ele>615.379707</ele>
        <time>2021-11-03T16:20:50.182Z</time>
      </trkpt>
      <trkpt lat="39.152024" lon="-1.707052">
        <ele>615.287625</ele>
        <time>2021-11-03T16:20:50.182Z</time>
      </trkpt>
      <trkpt lat="39.151958" lon="-1.707013">
        <ele>615.243485</ele>
        <time>2021-11-03T16:20:50.182Z</time>
      </trkpt>
      <trkpt lat="39.151836" lon="-1.706914">
        <ele>615.155845</ele>
        <time>2021-11-03T16:20:50.182Z</time>
      </trkpt>
      <trkpt lat="39.151383" lon="-1.706466">
        <ele>614.808752</ele>
        <time>2021-11-03T16:20:50.182Z</time>
      </trkpt>
      <trkpt lat="39.151328" lon="-1.706417">
        <ele>614.768107</ele>
        <time>2021-11-03T16:20:50.182Z</time>
      </trkpt>
      <trkpt lat="39.151108" lon="-1.706238">
        <ele>614.609948</ele>
        <time>2021-11-03T16:20:50.182Z</time>
      </trkpt>
      <trkpt lat="39.150915" lon="-1.706025">
        <ele>614.455497</ele>
        <time>2021-11-03T16:20:50.182Z</time>
      </trkpt>
      <trkpt lat="39.150636" lon="-1.705648">
        <ele>615.021874</ele>
        <time>2021-11-03T16:20:50.182Z</time>
      </trkpt>
      <trkpt lat="39.150447" lon="-1.705378">
        <ele>615.581649</ele>
        <time>2021-11-03T16:20:50.182Z</time>
      </trkpt>
      <trkpt lat="39.150341" lon="-1.705217">
        <ele>615.906682</ele>
        <time>2021-11-03T16:20:50.182Z</time>
      </trkpt>
      <trkpt lat="39.150139" lon="-1.704823">
        <ele>616.633582</ele>
        <time>2021-11-03T16:20:50.182Z</time>
      </trkpt>
      <trkpt lat="39.150112" lon="-1.704767">
        <ele>616.735065</ele>
        <time>2021-11-03T16:20:50.182Z</time>
      </trkpt>
      <trkpt lat="39.149910" lon="-1.704289">
        <ele>617.572846</ele>
        <time>2021-11-03T16:20:50.182Z</time>
      </trkpt>
      <trkpt lat="39.149792" lon="-1.703861">
        <ele>618.166126</ele>
        <time>2021-11-03T16:20:50.182Z</time>
      </trkpt>
      <trkpt lat="39.149780" lon="-1.703799">
        <ele>618.230040</ele>
        <time>2021-11-03T16:20:50.182Z</time>
      </trkpt>
      <trkpt lat="39.149768" lon="-1.703738">
        <ele>618.292984</ele>
        <time>2021-11-03T16:20:50.182Z</time>
      </trkpt>
      <trkpt lat="39.149711" lon="-1.703373">
        <ele>618.665381</ele>
        <time>2021-11-03T16:20:50.182Z</time>
      </trkpt>
      <trkpt lat="39.149683" lon="-1.703190">
        <ele>618.851944</ele>
        <time>2021-11-03T16:20:50.182Z</time>
      </trkpt>
      <trkpt lat="39.149616" lon="-1.702714">
        <ele>619.335812</ele>
        <time>2021-11-03T16:20:50.182Z</time>
      </trkpt>
      <trkpt lat="39.149574" lon="-1.702620">
        <ele>619.444318</ele>
        <time>2021-11-03T16:20:50.182Z</time>
      </trkpt>
      <trkpt lat="39.149519" lon="-1.702542">
        <ele>619.549761</ele>
        <time>2021-11-03T16:20:50.182Z</time>
      </trkpt>
      <trkpt lat="39.149497" lon="-1.702445">
        <ele>619.650843</ele>
        <time>2021-11-03T16:20:50.182Z</time>
      </trkpt>
      <trkpt lat="39.149507" lon="-1.702391">
        <ele>619.706372</ele>
        <time>2021-11-03T16:20:50.182Z</time>
      </trkpt>
      <trkpt lat="39.149530" lon="-1.702342">
        <ele>619.763660</ele>
        <time>2021-11-03T16:20:50.182Z</time>
      </trkpt>
      <trkpt lat="39.149600" lon="-1.702261">
        <ele>619.884962</ele>
        <time>2021-11-03T16:20:50.182Z</time>
      </trkpt>
      <trkpt lat="39.149713" lon="-1.702120">
        <ele>620.087764</ele>
        <time>2021-11-03T16:20:50.182Z</time>
      </trkpt>
      <trkpt lat="39.149744" lon="-1.701991">
        <ele>620.222841</ele>
        <time>2021-11-03T16:20:50.182Z</time>
      </trkpt>
      <trkpt lat="39.149740" lon="-1.701855">
        <ele>620.112840</ele>
        <time>2021-11-03T16:20:50.182Z</time>
      </trkpt>
      <trkpt lat="39.149718" lon="-1.701644">
        <ele>619.571288</ele>
        <time>2021-11-03T16:20:50.182Z</time>
      </trkpt>
      <trkpt lat="39.149716" lon="-1.701569">
        <ele>619.380396</ele>
        <time>2021-11-03T16:20:50.182Z</time>
      </trkpt>
      <trkpt lat="39.149718" lon="-1.701492">
        <ele>619.184421</ele>
        <time>2021-11-03T16:20:50.182Z</time>
      </trkpt>
      <trkpt lat="39.149731" lon="-1.701245">
        <ele>618.554678</ele>
        <time>2021-11-03T16:20:50.182Z</time>
      </trkpt>
      <trkpt lat="39.149735" lon="-1.701155">
        <ele>618.325369</ele>
        <time>2021-11-03T16:20:50.182Z</time>
      </trkpt>
      <trkpt lat="39.149753" lon="-1.700869">
        <ele>617.595475</ele>
        <time>2021-11-03T16:20:50.182Z</time>
      </trkpt>
      <trkpt lat="39.149762" lon="-1.700666">
        <ele>617.078259</ele>
        <time>2021-11-03T16:20:50.182Z</time>
      </trkpt>
      <trkpt lat="39.149760" lon="-1.700460">
        <ele>616.554213</ele>
        <time>2021-11-03T16:20:50.182Z</time>
      </trkpt>
      <trkpt lat="39.149748" lon="-1.700161">
        <ele>615.792626</ele>
        <time>2021-11-03T16:20:50.182Z</time>
      </trkpt>
      <trkpt lat="39.149740" lon="-1.699682">
        <ele>614.573905</ele>
        <time>2021-11-03T16:20:50.182Z</time>
      </trkpt>
      <trkpt lat="39.149747" lon="-1.699493">
        <ele>614.264587</ele>
        <time>2021-11-03T16:20:50.182Z</time>
      </trkpt>
      <trkpt lat="39.149752" lon="-1.699399">
        <ele>614.163625</ele>
        <time>2021-11-03T16:20:50.182Z</time>
      </trkpt>
      <trkpt lat="39.149780" lon="-1.699014">
        <ele>613.749270</ele>
        <time>2021-11-03T16:20:50.182Z</time>
      </trkpt>
      <trkpt lat="39.149792" lon="-1.698811">
        <ele>613.531116</ele>
        <time>2021-11-03T16:20:50.182Z</time>
      </trkpt>
      <trkpt lat="39.149798" lon="-1.698708">
        <ele>613.420436</ele>
        <time>2021-11-03T16:20:50.182Z</time>
      </trkpt>
      <trkpt lat="39.149822" lon="-1.698394">
        <ele>613.082340</ele>
        <time>2021-11-03T16:20:50.182Z</time>
      </trkpt>
      <trkpt lat="39.149874" lon="-1.697980">
        <ele>612.632940</ele>
        <time>2021-11-03T16:20:50.182Z</time>
      </trkpt>
      <trkpt lat="39.149889" lon="-1.697880">
        <ele>612.523800</ele>
        <time>2021-11-03T16:20:50.182Z</time>
      </trkpt>
      <trkpt lat="39.149958" lon="-1.697435">
        <ele>612.037525</ele>
        <time>2021-11-03T16:20:50.182Z</time>
      </trkpt>
      <trkpt lat="39.149973" lon="-1.697348">
        <ele>611.942025</ele>
        <time>2021-11-03T16:20:50.182Z</time>
      </trkpt>
      <trkpt lat="39.150007" lon="-1.697110">
        <ele>612.075668</ele>
        <time>2021-11-03T16:20:50.182Z</time>
      </trkpt>
      <trkpt lat="39.150005" lon="-1.697042">
        <ele>612.131942</ele>
        <time>2021-11-03T16:20:50.182Z</time>
      </trkpt>
      <trkpt lat="39.149998" lon="-1.696977">
        <ele>612.186211</ele>
        <time>2021-11-03T16:20:50.182Z</time>
      </trkpt>
      <trkpt lat="39.149997" lon="-1.696912">
        <ele>612.239974</ele>
        <time>2021-11-03T16:20:50.182Z</time>
      </trkpt>
      <trkpt lat="39.150026" lon="-1.696793">
        <ele>612.343128</ele>
        <time>2021-11-03T16:20:50.182Z</time>
      </trkpt>
      <trkpt lat="39.150101" lon="-1.696585">
        <ele>612.532822</ele>
        <time>2021-11-03T16:20:50.182Z</time>
      </trkpt>
      <trkpt lat="39.150112" lon="-1.696533">
        <ele>612.577396</ele>
        <time>2021-11-03T16:20:50.182Z</time>
      </trkpt>
      <trkpt lat="39.150122" lon="-1.696481">
        <ele>612.621701</ele>
        <time>2021-11-03T16:20:50.182Z</time>
      </trkpt>
      <trkpt lat="39.150163" lon="-1.696326">
        <ele>612.757132</ele>
        <time>2021-11-03T16:20:50.182Z</time>
      </trkpt>
      <trkpt lat="39.150239" lon="-1.696139">
        <ele>612.931725</ele>
        <time>2021-11-03T16:20:50.182Z</time>
      </trkpt>
      <trkpt lat="39.150336" lon="-1.695920">
        <ele>613.140288</ele>
        <time>2021-11-03T16:20:50.182Z</time>
      </trkpt>
      <trkpt lat="39.150443" lon="-1.695702">
        <ele>613.353641</ele>
        <time>2021-11-03T16:20:50.182Z</time>
      </trkpt>
      <trkpt lat="39.150478" lon="-1.695636">
        <ele>613.419762</ele>
        <time>2021-11-03T16:20:50.182Z</time>
      </trkpt>
      <trkpt lat="39.150575" lon="-1.695446">
        <ele>613.607877</ele>
        <time>2021-11-03T16:20:50.182Z</time>
      </trkpt>
      <trkpt lat="39.150731" lon="-1.695135">
        <ele>614.005190</ele>
        <time>2021-11-03T16:20:50.182Z</time>
      </trkpt>
      <trkpt lat="39.150797" lon="-1.695012">
        <ele>614.251722</ele>
        <time>2021-11-03T16:20:50.182Z</time>
      </trkpt>
      <trkpt lat="39.150895" lon="-1.694841">
        <ele>614.602183</ele>
        <time>2021-11-03T16:20:50.182Z</time>
      </trkpt>
      <trkpt lat="39.150996" lon="-1.694699">
        <ele>614.919768</ele>
        <time>2021-11-03T16:20:50.182Z</time>
      </trkpt>
      <trkpt lat="39.151148" lon="-1.694514">
        <ele>615.364004</ele>
        <time>2021-11-03T16:20:50.182Z</time>
      </trkpt>
      <trkpt lat="39.151243" lon="-1.694372">
        <ele>615.673111</ele>
        <time>2021-11-03T16:20:50.182Z</time>
      </trkpt>
      <trkpt lat="39.151299" lon="-1.694286">
        <ele>615.858202</ele>
        <time>2021-11-03T16:20:50.182Z</time>
      </trkpt>
      <trkpt lat="39.151410" lon="-1.694158">
        <ele>616.174695</ele>
        <time>2021-11-03T16:20:50.182Z</time>
      </trkpt>
      <trkpt lat="39.151440" lon="-1.694132">
        <ele>616.251520</ele>
        <time>2021-11-03T16:20:50.182Z</time>
      </trkpt>
      <trkpt lat="39.151564" lon="-1.694012">
        <ele>616.581032</ele>
        <time>2021-11-03T16:20:50.182Z</time>
      </trkpt>
      <trkpt lat="39.151633" lon="-1.693939">
        <ele>616.770726</ele>
        <time>2021-11-03T16:20:50.182Z</time>
      </trkpt>
      <trkpt lat="39.151922" lon="-1.693643">
        <ele>617.555144</ele>
        <time>2021-11-03T16:20:50.182Z</time>
      </trkpt>
      <trkpt lat="39.152284" lon="-1.693407">
        <ele>617.190064</ele>
        <time>2021-11-03T16:20:50.182Z</time>
      </trkpt>
      <trkpt lat="39.152548" lon="-1.693179">
        <ele>616.791713</ele>
        <time>2021-11-03T16:20:50.182Z</time>
      </trkpt>
      <trkpt lat="39.152874" lon="-1.692901">
        <ele>616.301720</ele>
        <time>2021-11-03T16:20:50.182Z</time>
      </trkpt>
      <trkpt lat="39.152924" lon="-1.692842">
        <ele>616.216751</ele>
        <time>2021-11-03T16:20:50.182Z</time>
      </trkpt>
      <trkpt lat="39.153110" lon="-1.692568">
        <ele>615.862718</ele>
        <time>2021-11-03T16:20:50.182Z</time>
      </trkpt>
      <trkpt lat="39.153145" lon="-1.692487">
        <ele>615.772569</ele>
        <time>2021-11-03T16:20:50.182Z</time>
      </trkpt>
      <trkpt lat="39.153172" lon="-1.692402">
        <ele>615.683267</ele>
        <time>2021-11-03T16:20:50.182Z</time>
      </trkpt>
      <trkpt lat="39.153206" lon="-1.692219">
        <ele>615.500318</ele>
        <time>2021-11-03T16:20:50.182Z</time>
      </trkpt>
      <trkpt lat="39.153205" lon="-1.692124">
        <ele>615.407950</ele>
        <time>2021-11-03T16:20:50.182Z</time>
      </trkpt>
      <trkpt lat="39.153193" lon="-1.692034">
        <ele>615.336260</ele>
        <time>2021-11-03T16:20:50.182Z</time>
      </trkpt>
      <trkpt lat="39.153179" lon="-1.691950">
        <ele>615.272775</ele>
        <time>2021-11-03T16:20:50.182Z</time>
      </trkpt>
      <trkpt lat="39.153159" lon="-1.691798">
        <ele>615.158856</ele>
        <time>2021-11-03T16:20:50.182Z</time>
      </trkpt>
      <trkpt lat="39.153141" lon="-1.691646">
        <ele>615.045240</ele>
        <time>2021-11-03T16:20:50.182Z</time>
      </trkpt>
      <trkpt lat="39.153129" lon="-1.691568">
        <ele>614.986482</ele>
        <time>2021-11-03T16:20:50.182Z</time>
      </trkpt>
      <trkpt lat="39.153105" lon="-1.691334">
        <ele>614.812072</ele>
        <time>2021-11-03T16:20:50.182Z</time>
      </trkpt>
      <trkpt lat="39.153095" lon="-1.691031">
        <ele>614.587980</ele>
        <time>2021-11-03T16:20:50.182Z</time>
      </trkpt>
      <trkpt lat="39.153110" lon="-1.690881">
        <ele>614.476226</ele>
        <time>2021-11-03T16:20:50.182Z</time>
      </trkpt>
      <trkpt lat="39.153140" lon="-1.690443">
        <ele>614.151325</ele>
        <time>2021-11-03T16:20:50.182Z</time>
      </trkpt>
      <trkpt lat="39.153147" lon="-1.689977">
        <ele>613.806930</ele>
        <time>2021-11-03T16:20:50.182Z</time>
      </trkpt>
      <trkpt lat="39.153160" lon="-1.689790">
        <ele>613.689311</ele>
        <time>2021-11-03T16:20:50.182Z</time>
      </trkpt>
      <trkpt lat="39.153211" lon="-1.689510">
        <ele>614.014840</ele>
        <time>2021-11-03T16:20:50.182Z</time>
      </trkpt>
      <trkpt lat="39.153264" lon="-1.689243">
        <ele>614.326773</ele>
        <time>2021-11-03T16:20:50.182Z</time>
      </trkpt>
      <trkpt lat="39.153288" lon="-1.688994">
        <ele>614.610759</ele>
        <time>2021-11-03T16:20:50.182Z</time>
      </trkpt>
      <trkpt lat="39.153280" lon="-1.688838">
        <ele>614.787705</ele>
        <time>2021-11-03T16:20:50.182Z</time>
      </trkpt>
      <trkpt lat="39.153274" lon="-1.688765">
        <ele>614.870789</ele>
        <time>2021-11-03T16:20:50.182Z</time>
      </trkpt>
      <trkpt lat="39.153240" lon="-1.688440">
        <ele>615.241956</ele>
        <time>2021-11-03T16:20:50.182Z</time>
      </trkpt>
      <trkpt lat="39.153231" lon="-1.688382">
        <ele>615.308901</ele>
        <time>2021-11-03T16:20:50.182Z</time>
      </trkpt>
      <trkpt lat="39.153206" lon="-1.688266">
        <ele>615.445166</ele>
        <time>2021-11-03T16:20:50.182Z</time>
      </trkpt>
      <trkpt lat="39.153161" lon="-1.688041">
        <ele>615.708154</ele>
        <time>2021-11-03T16:20:50.182Z</time>
      </trkpt>
      <trkpt lat="39.153149" lon="-1.687986">
        <ele>615.772820</ele>
        <time>2021-11-03T16:20:50.182Z</time>
      </trkpt>
      <trkpt lat="39.153068" lon="-1.687657">
        <ele>616.163498</ele>
        <time>2021-11-03T16:20:50.182Z</time>
      </trkpt>
      <trkpt lat="39.153056" lon="-1.687597">
        <ele>616.233629</ele>
        <time>2021-11-03T16:20:50.182Z</time>
      </trkpt>
      <trkpt lat="39.153001" lon="-1.687224">
        <ele>616.159230</ele>
        <time>2021-11-03T16:20:50.182Z</time>
      </trkpt>
      <trkpt lat="39.152987" lon="-1.687145">
        <ele>616.123102</ele>
        <time>2021-11-03T16:20:50.182Z</time>
      </trkpt>
      <trkpt lat="39.152936" lon="-1.687000">
        <ele>616.052119</ele>
        <time>2021-11-03T16:20:50.182Z</time>
      </trkpt>
      <trkpt lat="39.152900" lon="-1.686937">
        <ele>616.017230</ele>
        <time>2021-11-03T16:20:50.182Z</time>
      </trkpt>
      <trkpt lat="39.152780" lon="-1.686699">
        <ele>615.890668</ele>
        <time>2021-11-03T16:20:50.182Z</time>
      </trkpt>
      <trkpt lat="39.152756" lon="-1.686635">
        <ele>615.858974</ele>
        <time>2021-11-03T16:20:50.182Z</time>
      </trkpt>
      <trkpt lat="39.152727" lon="-1.686572">
        <ele>615.826312</ele>
        <time>2021-11-03T16:20:50.182Z</time>
      </trkpt>
      <trkpt lat="39.152563" lon="-1.686332">
        <ele>615.683700</ele>
        <time>2021-11-03T16:20:50.182Z</time>
      </trkpt>
      <trkpt lat="39.152259" lon="-1.686054">
        <ele>615.469441</ele>
        <time>2021-11-03T16:20:50.182Z</time>
      </trkpt>
      <trkpt lat="39.152157" lon="-1.685957">
        <ele>615.396579</ele>
        <time>2021-11-03T16:20:50.182Z</time>
      </trkpt>
      <trkpt lat="39.151843" lon="-1.685647">
        <ele>615.218799</ele>
        <time>2021-11-03T16:20:50.182Z</time>
      </trkpt>
      <trkpt lat="39.151789" lon="-1.685594">
        <ele>615.199439</ele>
        <time>2021-11-03T16:20:50.182Z</time>
      </trkpt>
      <trkpt lat="39.151595" lon="-1.685374">
        <ele>615.125735</ele>
        <time>2021-11-03T16:20:50.182Z</time>
      </trkpt>
      <trkpt lat="39.151450" lon="-1.685223">
        <ele>615.072563</ele>
        <time>2021-11-03T16:20:50.182Z</time>
      </trkpt>
      <trkpt lat="39.151252" lon="-1.685043">
        <ele>615.003449</ele>
        <time>2021-11-03T16:20:50.182Z</time>
      </trkpt>
      <trkpt lat="39.151164" lon="-1.684934">
        <ele>614.968638</ele>
        <time>2021-11-03T16:20:50.182Z</time>
      </trkpt>
      <trkpt lat="39.151125" lon="-1.684878">
        <ele>614.951985</ele>
        <time>2021-11-03T16:20:50.182Z</time>
      </trkpt>
      <trkpt lat="39.151088" lon="-1.684827">
        <ele>614.936534</ele>
        <time>2021-11-03T16:20:50.182Z</time>
      </trkpt>
      <trkpt lat="39.150961" lon="-1.684704">
        <ele>614.891221</ele>
        <time>2021-11-03T16:20:50.182Z</time>
      </trkpt>
      <trkpt lat="39.150913" lon="-1.684673">
        <ele>614.875906</ele>
        <time>2021-11-03T16:20:50.182Z</time>
      </trkpt>
      <trkpt lat="39.150866" lon="-1.684639">
        <ele>614.860531</ele>
        <time>2021-11-03T16:20:50.182Z</time>
      </trkpt>
      <trkpt lat="39.150623" lon="-1.684449">
        <ele>614.779457</ele>
        <time>2021-11-03T16:20:50.182Z</time>
      </trkpt>
      <trkpt lat="39.150410" lon="-1.684291">
        <ele>614.653286</ele>
        <time>2021-11-03T16:20:50.182Z</time>
      </trkpt>
      <trkpt lat="39.150299" lon="-1.684231">
        <ele>614.576301</ele>
        <time>2021-11-03T16:20:50.182Z</time>
      </trkpt>
      <trkpt lat="39.150242" lon="-1.684211">
        <ele>614.538516</ele>
        <time>2021-11-03T16:20:50.182Z</time>
      </trkpt>
      <trkpt lat="39.150020" lon="-1.684146">
        <ele>614.392902</ele>
        <time>2021-11-03T16:20:50.182Z</time>
      </trkpt>
      <trkpt lat="39.149854" lon="-1.684114">
        <ele>614.285543</ele>
        <time>2021-11-03T16:20:50.182Z</time>
      </trkpt>
      <trkpt lat="39.149666" lon="-1.684129">
        <ele>614.165061</ele>
        <time>2021-11-03T16:20:50.182Z</time>
      </trkpt>
      <trkpt lat="39.149612" lon="-1.684108">
        <ele>614.128984</ele>
        <time>2021-11-03T16:20:50.182Z</time>
      </trkpt>
      <trkpt lat="39.149566" lon="-1.684073">
        <ele>614.094820</ele>
        <time>2021-11-03T16:20:50.182Z</time>
      </trkpt>
      <trkpt lat="39.149471" lon="-1.683988">
        <ele>614.020860</ele>
        <time>2021-11-03T16:20:50.182Z</time>
      </trkpt>
      <trkpt lat="39.149419" lon="-1.683952">
        <ele>613.983108</ele>
        <time>2021-11-03T16:20:50.182Z</time>
      </trkpt>
      <trkpt lat="39.149364" lon="-1.683924">
        <ele>613.945285</ele>
        <time>2021-11-03T16:20:50.182Z</time>
      </trkpt>
      <trkpt lat="39.149195" lon="-1.683890">
        <ele>613.835879</ele>
        <time>2021-11-03T16:20:50.182Z</time>
      </trkpt>
      <trkpt lat="39.149138" lon="-1.683884">
        <ele>613.799298</ele>
        <time>2021-11-03T16:20:50.182Z</time>
      </trkpt>
      <trkpt lat="39.148841" lon="-1.683866">
        <ele>613.609116</ele>
        <time>2021-11-03T16:20:50.182Z</time>
      </trkpt>
      <trkpt lat="39.148441" lon="-1.683913">
        <ele>613.472092</ele>
        <time>2021-11-03T16:20:50.182Z</time>
      </trkpt>
      <trkpt lat="39.148328" lon="-1.683907">
        <ele>613.434194</ele>
        <time>2021-11-03T16:20:50.182Z</time>
      </trkpt>
      <trkpt lat="39.148085" lon="-1.683866">
        <ele>613.352070</ele>
        <time>2021-11-03T16:20:50.182Z</time>
      </trkpt>
      <trkpt lat="39.147575" lon="-1.683827">
        <ele>613.180869</ele>
        <time>2021-11-03T16:20:50.182Z</time>
      </trkpt>
      <trkpt lat="39.147509" lon="-1.683836">
        <ele>613.158629</ele>
        <time>2021-11-03T16:20:50.182Z</time>
      </trkpt>
      <trkpt lat="39.147387" lon="-1.683903">
        <ele>613.114193</ele>
        <time>2021-11-03T16:20:50.182Z</time>
      </trkpt>
      <trkpt lat="39.147263" lon="-1.684083">
        <ele>613.051625</ele>
        <time>2021-11-03T16:20:50.182Z</time>
      </trkpt>
      <trkpt lat="39.147220" lon="-1.684134">
        <ele>613.032047</ele>
        <time>2021-11-03T16:20:50.182Z</time>
      </trkpt>
      <trkpt lat="39.147170" lon="-1.684164">
        <ele>613.013567</ele>
        <time>2021-11-03T16:20:50.182Z</time>
      </trkpt>
      <trkpt lat="39.147121" lon="-1.684164">
        <ele>613.019261</ele>
        <time>2021-11-03T16:20:50.182Z</time>
      </trkpt>
      <trkpt lat="39.147063" lon="-1.684105">
        <ele>613.126681</ele>
        <time>2021-11-03T16:20:50.182Z</time>
      </trkpt>
      <trkpt lat="39.147050" lon="-1.684064">
        <ele>613.176631</ele>
        <time>2021-11-03T16:20:50.182Z</time>
      </trkpt>
      <trkpt lat="39.146995" lon="-1.683943">
        <ele>613.334788</ele>
        <time>2021-11-03T16:20:50.182Z</time>
      </trkpt>
      <trkpt lat="39.146931" lon="-1.683881">
        <ele>613.451186</ele>
        <time>2021-11-03T16:20:50.182Z</time>
      </trkpt>
      <trkpt lat="39.146894" lon="-1.683855">
        <ele>613.512457</ele>
        <time>2021-11-03T16:20:50.182Z</time>
      </trkpt>
      <trkpt lat="39.146854" lon="-1.683835">
        <ele>613.574839</ele>
        <time>2021-11-03T16:20:50.182Z</time>
      </trkpt>
      <trkpt lat="39.146811" lon="-1.683822">
        <ele>613.639059</ele>
        <time>2021-11-03T16:20:50.182Z</time>
      </trkpt>
      <trkpt lat="39.146767" lon="-1.683817">
        <ele>613.703286</ele>
        <time>2021-11-03T16:20:50.182Z</time>
      </trkpt>
      <trkpt lat="39.146544" lon="-1.683840">
        <ele>614.028578</ele>
        <time>2021-11-03T16:20:50.182Z</time>
      </trkpt>
      <trkpt lat="39.146448" lon="-1.683854">
        <ele>614.169059</ele>
        <time>2021-11-03T16:20:50.182Z</time>
      </trkpt>
      <trkpt lat="39.146136" lon="-1.683895">
        <ele>614.625077</ele>
        <time>2021-11-03T16:20:50.182Z</time>
      </trkpt>
      <trkpt lat="39.146030" lon="-1.683902">
        <ele>614.779410</ele>
        <time>2021-11-03T16:20:50.182Z</time>
      </trkpt>
      <trkpt lat="39.145837" lon="-1.683925">
        <ele>615.061240</ele>
        <time>2021-11-03T16:20:50.182Z</time>
      </trkpt>
      <trkpt lat="39.145794" lon="-1.683925">
        <ele>615.123765</ele>
        <time>2021-11-03T16:20:50.182Z</time>
      </trkpt>
      <trkpt lat="39.145745" lon="-1.683919">
        <ele>615.195335</ele>
        <time>2021-11-03T16:20:50.182Z</time>
      </trkpt>
      <trkpt lat="39.145544" lon="-1.683929">
        <ele>615.487820</ele>
        <time>2021-11-03T16:20:50.182Z</time>
      </trkpt>
      <trkpt lat="39.145406" lon="-1.683962">
        <ele>615.620387</ele>
        <time>2021-11-03T16:20:50.182Z</time>
      </trkpt>
      <trkpt lat="39.145267" lon="-1.683973">
        <ele>615.630484</ele>
        <time>2021-11-03T16:20:50.182Z</time>
      </trkpt>
      <trkpt lat="39.145220" lon="-1.683968">
        <ele>615.633903</ele>
        <time>2021-11-03T16:20:50.182Z</time>
      </trkpt>
      <trkpt lat="39.145018" lon="-1.683948">
        <ele>615.648591</ele>
        <time>2021-11-03T16:20:50.182Z</time>
      </trkpt>
      <trkpt lat="39.144964" lon="-1.683949">
        <ele>615.652507</ele>
        <time>2021-11-03T16:20:50.182Z</time>
      </trkpt>
      <trkpt lat="39.144562" lon="-1.683997">
        <ele>615.681777</ele>
        <time>2021-11-03T16:20:50.182Z</time>
      </trkpt>
      <trkpt lat="39.144337" lon="-1.684063">
        <ele>615.698507</ele>
        <time>2021-11-03T16:20:50.182Z</time>
      </trkpt>
      <trkpt lat="39.144227" lon="-1.684064">
        <ele>615.706483</ele>
        <time>2021-11-03T16:20:50.182Z</time>
      </trkpt>
      <trkpt lat="39.144005" lon="-1.684054">
        <ele>615.722588</ele>
        <time>2021-11-03T16:20:50.182Z</time>
      </trkpt>
      <trkpt lat="39.143894" lon="-1.684088">
        <ele>615.730859</ele>
        <time>2021-11-03T16:20:50.182Z</time>
      </trkpt>
      <trkpt lat="39.143797" lon="-1.684180">
        <ele>615.739590</ele>
        <time>2021-11-03T16:20:50.182Z</time>
      </trkpt>
      <trkpt lat="39.143763" lon="-1.684246">
        <ele>615.744045</ele>
        <time>2021-11-03T16:20:50.182Z</time>
      </trkpt>
      <trkpt lat="39.143702" lon="-1.684381">
        <ele>615.733838</ele>
        <time>2021-11-03T16:20:50.182Z</time>
      </trkpt>
      <trkpt lat="39.143616" lon="-1.684460">
        <ele>615.716388</ele>
        <time>2021-11-03T16:20:50.182Z</time>
      </trkpt>
      <trkpt lat="39.143536" lon="-1.684418">
        <ele>615.702114</ele>
        <time>2021-11-03T16:20:50.182Z</time>
      </trkpt>
      <trkpt lat="39.143508" lon="-1.684310">
        <ele>615.687519</ele>
        <time>2021-11-03T16:20:50.182Z</time>
      </trkpt>
      <trkpt lat="39.143505" lon="-1.684249">
        <ele>615.679685</ele>
        <time>2021-11-03T16:20:50.182Z</time>
      </trkpt>
      <trkpt lat="39.143494" lon="-1.684127">
        <ele>615.663943</ele>
        <time>2021-11-03T16:20:50.182Z</time>
      </trkpt>
      <trkpt lat="39.143444" lon="-1.683911">
        <ele>615.635052</ele>
        <time>2021-11-03T16:20:50.182Z</time>
      </trkpt>
      <trkpt lat="39.143390" lon="-1.683815">
        <ele>615.619853</ele>
        <time>2021-11-03T16:20:50.182Z</time>
      </trkpt>
      <trkpt lat="39.143304" lon="-1.683745">
        <ele>615.603046</ele>
        <time>2021-11-03T16:20:50.182Z</time>
      </trkpt>
      <trkpt lat="39.143192" lon="-1.683712">
        <ele>615.584060</ele>
        <time>2021-11-03T16:20:50.182Z</time>
      </trkpt>
      <trkpt lat="39.143072" lon="-1.683709">
        <ele>615.564226</ele>
        <time>2021-11-03T16:20:50.182Z</time>
      </trkpt>
      <trkpt lat="39.143014" lon="-1.683711">
        <ele>615.554637</ele>
        <time>2021-11-03T16:20:50.182Z</time>
      </trkpt>
      <trkpt lat="39.142737" lon="-1.683723">
        <ele>615.508836</ele>
        <time>2021-11-03T16:20:50.182Z</time>
      </trkpt>
      <trkpt lat="39.142353" lon="-1.683635">
        <ele>615.411400</ele>
        <time>2021-11-03T16:20:50.182Z</time>
      </trkpt>
      <trkpt lat="39.142301" lon="-1.683627">
        <ele>615.350077</ele>
        <time>2021-11-03T16:20:50.182Z</time>
      </trkpt>
      <trkpt lat="39.142153" lon="-1.683631">
        <ele>615.176731</ele>
        <time>2021-11-03T16:20:50.182Z</time>
      </trkpt>
      <trkpt lat="39.142105" lon="-1.683633">
        <ele>615.120493</ele>
        <time>2021-11-03T16:20:50.182Z</time>
      </trkpt>
      <trkpt lat="39.142015" lon="-1.683604">
        <ele>615.011862</ele>
        <time>2021-11-03T16:20:50.182Z</time>
      </trkpt>
      <trkpt lat="39.141937" lon="-1.683536">
        <ele>614.901605</ele>
        <time>2021-11-03T16:20:50.182Z</time>
      </trkpt>
      <trkpt lat="39.141861" lon="-1.683453">
        <ele>614.784975</ele>
        <time>2021-11-03T16:20:50.182Z</time>
      </trkpt>
      <trkpt lat="39.141671" lon="-1.683292">
        <ele>614.518737</ele>
        <time>2021-11-03T16:20:50.182Z</time>
      </trkpt>
      <trkpt lat="39.141567" lon="-1.683198">
        <ele>614.370010</ele>
        <time>2021-11-03T16:20:50.182Z</time>
      </trkpt>
      <trkpt lat="39.141367" lon="-1.682992">
        <ele>614.070255</ele>
        <time>2021-11-03T16:20:50.182Z</time>
      </trkpt>
      <trkpt lat="39.141323" lon="-1.682932">
        <ele>613.995260</ele>
        <time>2021-11-03T16:20:50.182Z</time>
      </trkpt>
      <trkpt lat="39.141178" lon="-1.682745">
        <ele>613.755104</ele>
        <time>2021-11-03T16:20:50.182Z</time>
      </trkpt>
      <trkpt lat="39.141059" lon="-1.682641">
        <ele>613.586760</ele>
        <time>2021-11-03T16:20:50.182Z</time>
      </trkpt>
      <trkpt lat="39.140931" lon="-1.682546">
        <ele>613.413813</ele>
        <time>2021-11-03T16:20:50.182Z</time>
      </trkpt>
      <trkpt lat="39.140628" lon="-1.682291">
        <ele>613.621244</ele>
        <time>2021-11-03T16:20:50.182Z</time>
      </trkpt>
      <trkpt lat="39.140576" lon="-1.682236">
        <ele>613.683106</ele>
        <time>2021-11-03T16:20:50.182Z</time>
      </trkpt>
      <trkpt lat="39.140250" lon="-1.681836">
        <ele>614.097029</ele>
        <time>2021-11-03T16:20:50.182Z</time>
      </trkpt>
      <trkpt lat="39.139923" lon="-1.681424">
        <ele>614.517557</ele>
        <time>2021-11-03T16:20:50.182Z</time>
      </trkpt>
      <trkpt lat="39.139821" lon="-1.681268">
        <ele>614.663113</ele>
        <time>2021-11-03T16:20:50.182Z</time>
      </trkpt>
      <trkpt lat="39.139696" lon="-1.681056">
        <ele>614.853089</ele>
        <time>2021-11-03T16:20:50.182Z</time>
      </trkpt>
      <trkpt lat="39.139664" lon="-1.681007">
        <ele>614.898786</ele>
        <time>2021-11-03T16:20:50.182Z</time>
      </trkpt>
      <trkpt lat="39.139470" lon="-1.680611">
        <ele>615.306034</ele>
        <time>2021-11-03T16:20:50.182Z</time>
      </trkpt>
      <trkpt lat="39.139259" lon="-1.680089">
        <ele>615.856613</ele>
        <time>2021-11-03T16:20:50.182Z</time>
      </trkpt>
      <trkpt lat="39.139212" lon="-1.679987">
        <ele>615.967585</ele>
        <time>2021-11-03T16:20:50.182Z</time>
      </trkpt>
      <trkpt lat="39.139153" lon="-1.679840">
        <ele>616.122400</ele>
        <time>2021-11-03T16:20:50.182Z</time>
      </trkpt>
      <trkpt lat="39.139082" lon="-1.679618">
        <ele>616.347009</ele>
        <time>2021-11-03T16:20:50.182Z</time>
      </trkpt>
      <trkpt lat="39.139029" lon="-1.679440">
        <ele>616.525348</ele>
        <time>2021-11-03T16:20:50.182Z</time>
      </trkpt>
      <trkpt lat="39.139010" lon="-1.679306">
        <ele>616.652763</ele>
        <time>2021-11-03T16:20:50.182Z</time>
      </trkpt>
      <trkpt lat="39.139011" lon="-1.679236">
        <ele>616.718248</ele>
        <time>2021-11-03T16:20:50.182Z</time>
      </trkpt>
      <trkpt lat="39.139012" lon="-1.679009">
        <ele>616.930577</ele>
        <time>2021-11-03T16:20:50.182Z</time>
      </trkpt>
      <trkpt lat="39.138986" lon="-1.678854">
        <ele>617.078908</ele>
        <time>2021-11-03T16:20:50.182Z</time>
      </trkpt>
      <trkpt lat="39.138955" lon="-1.678703">
        <ele>617.034072</ele>
        <time>2021-11-03T16:20:50.182Z</time>
      </trkpt>
      <trkpt lat="39.138921" lon="-1.678478">
        <ele>616.542735</ele>
        <time>2021-11-03T16:20:50.182Z</time>
      </trkpt>
      <trkpt lat="39.138917" lon="-1.678325">
        <ele>616.214605</ele>
        <time>2021-11-03T16:20:50.182Z</time>
      </trkpt>
      <trkpt lat="39.138898" lon="-1.678008">
        <ele>615.533114</ele>
        <time>2021-11-03T16:20:50.182Z</time>
      </trkpt>
      <trkpt lat="39.138857" lon="-1.677864">
        <ele>615.204322</ele>
        <time>2021-11-03T16:20:50.182Z</time>
      </trkpt>
      <trkpt lat="39.138839" lon="-1.677793">
        <ele>615.044215</ele>
        <time>2021-11-03T16:20:50.182Z</time>
      </trkpt>
      <trkpt lat="39.138832" lon="-1.677718">
        <ele>614.882299</ele>
        <time>2021-11-03T16:20:50.182Z</time>
      </trkpt>
      <trkpt lat="39.138839" lon="-1.677638">
        <ele>614.709737</ele>
        <time>2021-11-03T16:20:50.182Z</time>
      </trkpt>
      <trkpt lat="39.138937" lon="-1.677317">
        <ele>613.970317</ele>
        <time>2021-11-03T16:20:50.182Z</time>
      </trkpt>
      <trkpt lat="39.138970" lon="-1.677130">
        <ele>613.559253</ele>
        <time>2021-11-03T16:20:50.182Z</time>
      </trkpt>
      <trkpt lat="39.139010" lon="-1.676817">
        <ele>612.879317</ele>
        <time>2021-11-03T16:20:50.182Z</time>
      </trkpt>
      <trkpt lat="39.139027" lon="-1.676706">
        <ele>612.636804</ele>
        <time>2021-11-03T16:20:50.182Z</time>
      </trkpt>
      <trkpt lat="39.139053" lon="-1.676595">
        <ele>612.388272</ele>
        <time>2021-11-03T16:20:50.182Z</time>
      </trkpt>
      <trkpt lat="39.139132" lon="-1.676389">
        <ele>612.258386</ele>
        <time>2021-11-03T16:20:50.182Z</time>
      </trkpt>
      <trkpt lat="39.139229" lon="-1.676208">
        <ele>612.355505</ele>
        <time>2021-11-03T16:20:50.182Z</time>
      </trkpt>
      <trkpt lat="39.139316" lon="-1.676043">
        <ele>612.443581</ele>
        <time>2021-11-03T16:20:50.182Z</time>
      </trkpt>
      <trkpt lat="39.139357" lon="-1.675967">
        <ele>612.484448</ele>
        <time>2021-11-03T16:20:50.182Z</time>
      </trkpt>
      <trkpt lat="39.139427" lon="-1.675824">
        <ele>612.559096</ele>
        <time>2021-11-03T16:20:50.182Z</time>
      </trkpt>
      <trkpt lat="39.139473" lon="-1.675685">
        <ele>612.625808</ele>
        <time>2021-11-03T16:20:50.182Z</time>
      </trkpt>
      <trkpt lat="39.139508" lon="-1.675551">
        <ele>612.688226</ele>
        <time>2021-11-03T16:20:50.182Z</time>
      </trkpt>
      <trkpt lat="39.139536" lon="-1.675424">
        <ele>612.746510</ele>
        <time>2021-11-03T16:20:50.182Z</time>
      </trkpt>
      <trkpt lat="39.139580" lon="-1.675247">
        <ele>612.828560</ele>
        <time>2021-11-03T16:20:50.182Z</time>
      </trkpt>
      <trkpt lat="39.139638" lon="-1.675089">
        <ele>612.905726</ele>
        <time>2021-11-03T16:20:50.182Z</time>
      </trkpt>
      <trkpt lat="39.139692" lon="-1.674998">
        <ele>612.956306</ele>
        <time>2021-11-03T16:20:50.182Z</time>
      </trkpt>
      <trkpt lat="39.139799" lon="-1.674844">
        <ele>613.047576</ele>
        <time>2021-11-03T16:20:50.182Z</time>
      </trkpt>
      <trkpt lat="39.139858" lon="-1.674796">
        <ele>613.087283</ele>
        <time>2021-11-03T16:20:50.182Z</time>
      </trkpt>
      <trkpt lat="39.139989" lon="-1.674735">
        <ele>613.166556</ele>
        <time>2021-11-03T16:20:50.182Z</time>
      </trkpt>
      <trkpt lat="39.140043" lon="-1.674720">
        <ele>613.197995</ele>
        <time>2021-11-03T16:20:50.182Z</time>
      </trkpt>
      <trkpt lat="39.140104" lon="-1.674708">
        <ele>613.125429</ele>
        <time>2021-11-03T16:20:50.182Z</time>
      </trkpt>
      <trkpt lat="39.140311" lon="-1.674666">
        <ele>612.253876</ele>
        <time>2021-11-03T16:20:50.182Z</time>
      </trkpt>
      <trkpt lat="39.140386" lon="-1.674631">
        <ele>611.922131</ele>
        <time>2021-11-03T16:20:50.182Z</time>
      </trkpt>
      <trkpt lat="39.140457" lon="-1.674576">
        <ele>611.577625</ele>
        <time>2021-11-03T16:20:50.182Z</time>
      </trkpt>
      <trkpt lat="39.140521" lon="-1.674505">
        <ele>611.226463</ele>
        <time>2021-11-03T16:20:50.182Z</time>
      </trkpt>
      <trkpt lat="39.140581" lon="-1.674436">
        <ele>610.892066</ele>
        <time>2021-11-03T16:20:50.182Z</time>
      </trkpt>
      <trkpt lat="39.140641" lon="-1.674379">
        <ele>610.582087</ele>
        <time>2021-11-03T16:20:50.182Z</time>
      </trkpt>
      <trkpt lat="39.140705" lon="-1.674334">
        <ele>610.278888</ele>
        <time>2021-11-03T16:20:50.182Z</time>
      </trkpt>
      <trkpt lat="39.140771" lon="-1.674302">
        <ele>609.985612</ele>
        <time>2021-11-03T16:20:50.182Z</time>
      </trkpt>
      <trkpt lat="39.140839" lon="-1.674283">
        <ele>609.696220</ele>
        <time>2021-11-03T16:20:50.182Z</time>
      </trkpt>
      <trkpt lat="39.140910" lon="-1.674279">
        <ele>609.400634</ele>
        <time>2021-11-03T16:20:50.182Z</time>
      </trkpt>
      <trkpt lat="39.141051" lon="-1.674307">
        <ele>608.807270</ele>
        <time>2021-11-03T16:20:50.182Z</time>
      </trkpt>
      <trkpt lat="39.141436" lon="-1.674418">
        <ele>607.166426</ele>
        <time>2021-11-03T16:20:50.182Z</time>
      </trkpt>
      <trkpt lat="39.141668" lon="-1.674453">
        <ele>606.194906</ele>
        <time>2021-11-03T16:20:50.182Z</time>
      </trkpt>
      <trkpt lat="39.141782" lon="-1.674470">
        <ele>605.756065</ele>
        <time>2021-11-03T16:20:50.182Z</time>
      </trkpt>
      <trkpt lat="39.141837" lon="-1.674470">
        <ele>605.934433</ele>
        <time>2021-11-03T16:20:50.182Z</time>
      </trkpt>
      <trkpt lat="39.141931" lon="-1.674410">
        <ele>606.274591</ele>
        <time>2021-11-03T16:20:50.182Z</time>
      </trkpt>
      <trkpt lat="39.141979" lon="-1.674296">
        <ele>606.600861</ele>
        <time>2021-11-03T16:20:50.182Z</time>
      </trkpt>
      <trkpt lat="39.141991" lon="-1.674237">
        <ele>606.754279</ele>
        <time>2021-11-03T16:20:50.182Z</time>
      </trkpt>
      <trkpt lat="39.142000" lon="-1.674179">
        <ele>606.903055</ele>
        <time>2021-11-03T16:20:50.182Z</time>
      </trkpt>
      <trkpt lat="39.142025" lon="-1.673972">
        <ele>607.429989</ele>
        <time>2021-11-03T16:20:50.182Z</time>
      </trkpt>
      <trkpt lat="39.142025" lon="-1.673867">
        <ele>607.694091</ele>
        <time>2021-11-03T16:20:50.182Z</time>
      </trkpt>
      <trkpt lat="39.142004" lon="-1.673766">
        <ele>607.957103</ele>
        <time>2021-11-03T16:20:50.182Z</time>
      </trkpt>
      <trkpt lat="39.141945" lon="-1.673631">
        <ele>608.346863</ele>
        <time>2021-11-03T16:20:50.182Z</time>
      </trkpt>
      <trkpt lat="39.141933" lon="-1.673591">
        <ele>608.454737</ele>
        <time>2021-11-03T16:20:50.182Z</time>
      </trkpt>
      <trkpt lat="39.141958" lon="-1.673536">
        <ele>608.615085</ele>
        <time>2021-11-03T16:20:50.182Z</time>
      </trkpt>
      <trkpt lat="39.141988" lon="-1.673527">
        <ele>608.714975</ele>
        <time>2021-11-03T16:20:50.182Z</time>
      </trkpt>
      <trkpt lat="39.142130" lon="-1.673518">
        <ele>609.176045</ele>
        <time>2021-11-03T16:20:50.182Z</time>
      </trkpt>
      <trkpt lat="39.142233" lon="-1.673510">
        <ele>609.510685</ele>
        <time>2021-11-03T16:20:50.182Z</time>
      </trkpt>
      <trkpt lat="39.142267" lon="-1.673508">
        <ele>609.621064</ele>
        <time>2021-11-03T16:20:50.182Z</time>
      </trkpt>
      <trkpt lat="39.142390" lon="-1.673501">
        <ele>610.020348</ele>
        <time>2021-11-03T16:20:50.182Z</time>
      </trkpt>
      <trkpt lat="39.142631" lon="-1.673491">
        <ele>610.802329</ele>
        <time>2021-11-03T16:20:50.182Z</time>
      </trkpt>
      <trkpt lat="39.142684" lon="-1.673500">
        <ele>610.975695</ele>
        <time>2021-11-03T16:20:50.182Z</time>
      </trkpt>
      <trkpt lat="39.142741" lon="-1.673515">
        <ele>611.164360</ele>
        <time>2021-11-03T16:20:50.182Z</time>
      </trkpt>
      <trkpt lat="39.142982" lon="-1.673624">
        <ele>611.518820</ele>
        <time>2021-11-03T16:20:50.182Z</time>
      </trkpt>
      <trkpt lat="39.143054" lon="-1.673632">
        <ele>611.488994</ele>
        <time>2021-11-03T16:20:50.182Z</time>
      </trkpt>
      <trkpt lat="39.143123" lon="-1.673629">
        <ele>611.460501</ele>
        <time>2021-11-03T16:20:50.182Z</time>
      </trkpt>
      <trkpt lat="39.143185" lon="-1.673623">
        <ele>611.434841</ele>
        <time>2021-11-03T16:20:50.182Z</time>
      </trkpt>
      <trkpt lat="39.143237" lon="-1.673612">
        <ele>611.413092</ele>
        <time>2021-11-03T16:20:50.182Z</time>
      </trkpt>
      <trkpt lat="39.143434" lon="-1.673626">
        <ele>611.331664</ele>
        <time>2021-11-03T16:20:50.182Z</time>
      </trkpt>
      <trkpt lat="39.143471" lon="-1.673642">
        <ele>611.315558</ele>
        <time>2021-11-03T16:20:50.182Z</time>
      </trkpt>
      <trkpt lat="39.143548" lon="-1.673668">
        <ele>611.282707</ele>
        <time>2021-11-03T16:20:50.182Z</time>
      </trkpt>
      <trkpt lat="39.143701" lon="-1.673698">
        <ele>611.218836</ele>
        <time>2021-11-03T16:20:50.182Z</time>
      </trkpt>
      <trkpt lat="39.143948" lon="-1.673735">
        <ele>611.116209</ele>
        <time>2021-11-03T16:20:50.182Z</time>
      </trkpt>
      <trkpt lat="39.144005" lon="-1.673737">
        <ele>611.092676</ele>
        <time>2021-11-03T16:20:50.182Z</time>
      </trkpt>
      <trkpt lat="39.144133" lon="-1.673717">
        <ele>611.039462</ele>
        <time>2021-11-03T16:20:50.182Z</time>
      </trkpt>
      <trkpt lat="39.144202" lon="-1.673712">
        <ele>611.010940</ele>
        <time>2021-11-03T16:20:50.182Z</time>
      </trkpt>
      <trkpt lat="39.144272" lon="-1.673722">
        <ele>610.981873</ele>
        <time>2021-11-03T16:20:50.182Z</time>
      </trkpt>
      <trkpt lat="39.144338" lon="-1.673752">
        <ele>610.952991</ele>
        <time>2021-11-03T16:20:50.182Z</time>
      </trkpt>
      <trkpt lat="39.144399" lon="-1.673795">
        <ele>610.924298</ele>
        <time>2021-11-03T16:20:50.182Z</time>
      </trkpt>
      <trkpt lat="39.144461" lon="-1.673839">
        <ele>610.895090</ele>
        <time>2021-11-03T16:20:50.182Z</time>
      </trkpt>
      <trkpt lat="39.144523" lon="-1.673877">
        <ele>610.866758</ele>
        <time>2021-11-03T16:20:50.182Z</time>
      </trkpt>
      <trkpt lat="39.144586" lon="-1.673903">
        <ele>610.839458</ele>
        <time>2021-11-03T16:20:50.182Z</time>
      </trkpt>
      <trkpt lat="39.144652" lon="-1.673908">
        <ele>610.808398</ele>
        <time>2021-11-03T16:20:50.182Z</time>
      </trkpt>
      <trkpt lat="39.144771" lon="-1.673894">
        <ele>610.748632</ele>
        <time>2021-11-03T16:20:50.182Z</time>
      </trkpt>
      <trkpt lat="39.144882" lon="-1.673860">
        <ele>610.691569</ele>
        <time>2021-11-03T16:20:50.182Z</time>
      </trkpt>
      <trkpt lat="39.144930" lon="-1.673836">
        <ele>610.665820</ele>
        <time>2021-11-03T16:20:50.182Z</time>
      </trkpt>
      <trkpt lat="39.145020" lon="-1.673764">
        <ele>610.612845</ele>
        <time>2021-11-03T16:20:50.182Z</time>
      </trkpt>
      <trkpt lat="39.145057" lon="-1.673724">
        <ele>610.588695</ele>
        <time>2021-11-03T16:20:50.182Z</time>
      </trkpt>
      <trkpt lat="39.145097" lon="-1.673686">
        <ele>610.563845</ele>
        <time>2021-11-03T16:20:50.182Z</time>
      </trkpt>
      <trkpt lat="39.145192" lon="-1.673638">
        <ele>610.512812</ele>
        <time>2021-11-03T16:20:50.182Z</time>
      </trkpt>
      <trkpt lat="39.145244" lon="-1.673623">
        <ele>610.486161</ele>
        <time>2021-11-03T16:20:50.182Z</time>
      </trkpt>
      <trkpt lat="39.145297" lon="-1.673615">
        <ele>610.459472</ele>
        <time>2021-11-03T16:20:50.182Z</time>
      </trkpt>
      <trkpt lat="39.145351" lon="-1.673613">
        <ele>610.432452</ele>
        <time>2021-11-03T16:20:50.182Z</time>
      </trkpt>
      <trkpt lat="39.145402" lon="-1.673622">
        <ele>610.406706</ele>
        <time>2021-11-03T16:20:50.182Z</time>
      </trkpt>
      <trkpt lat="39.145454" lon="-1.673641">
        <ele>610.379674</ele>
        <time>2021-11-03T16:20:50.182Z</time>
      </trkpt>
      <trkpt lat="39.145626" lon="-1.673701">
        <ele>610.290554</ele>
        <time>2021-11-03T16:20:50.182Z</time>
      </trkpt>
      <trkpt lat="39.145690" lon="-1.673697">
        <ele>610.258506</ele>
        <time>2021-11-03T16:20:50.182Z</time>
      </trkpt>
      <trkpt lat="39.145752" lon="-1.673677">
        <ele>610.226541</ele>
        <time>2021-11-03T16:20:50.182Z</time>
      </trkpt>
      <trkpt lat="39.145929" lon="-1.673570">
        <ele>610.128766</ele>
        <time>2021-11-03T16:20:50.182Z</time>
      </trkpt>
      <trkpt lat="39.145983" lon="-1.673523">
        <ele>610.096180</ele>
        <time>2021-11-03T16:20:50.182Z</time>
      </trkpt>
      <trkpt lat="39.146161" lon="-1.673305">
        <ele>609.973394</ele>
        <time>2021-11-03T16:20:50.182Z</time>
      </trkpt>
      <trkpt lat="39.146321" lon="-1.673000">
        <ele>609.850465</ele>
        <time>2021-11-03T16:20:50.182Z</time>
      </trkpt>
      <trkpt lat="39.146376" lon="-1.672881">
        <ele>609.807445</ele>
        <time>2021-11-03T16:20:50.182Z</time>
      </trkpt>
      <trkpt lat="39.146448" lon="-1.672778">
        <ele>609.764383</ele>
        <time>2021-11-03T16:20:50.182Z</time>
      </trkpt>
      <trkpt lat="39.146491" lon="-1.672731">
        <ele>609.741811</ele>
        <time>2021-11-03T16:20:50.182Z</time>
      </trkpt>
      <trkpt lat="39.146645" lon="-1.672606">
        <ele>609.668944</ele>
        <time>2021-11-03T16:20:50.182Z</time>
      </trkpt>
      <trkpt lat="39.146763" lon="-1.672529">
        <ele>609.615987</ele>
        <time>2021-11-03T16:20:50.182Z</time>
      </trkpt>
      <trkpt lat="39.146952" lon="-1.672433">
        <ele>609.534646</ele>
        <time>2021-11-03T16:20:50.182Z</time>
      </trkpt>
      <trkpt lat="39.147012" lon="-1.672400">
        <ele>609.508526</ele>
        <time>2021-11-03T16:20:50.182Z</time>
      </trkpt>
      <trkpt lat="39.147066" lon="-1.672360">
        <ele>609.483588</ele>
        <time>2021-11-03T16:20:50.182Z</time>
      </trkpt>
      <trkpt lat="39.147111" lon="-1.672313">
        <ele>609.460399</ele>
        <time>2021-11-03T16:20:50.182Z</time>
      </trkpt>
      <trkpt lat="39.147184" lon="-1.672199">
        <ele>609.414489</ele>
        <time>2021-11-03T16:20:50.182Z</time>
      </trkpt>
      <trkpt lat="39.147214" lon="-1.672133">
        <ele>609.390732</ele>
        <time>2021-11-03T16:20:50.182Z</time>
      </trkpt>
      <trkpt lat="39.147425" lon="-1.671679">
        <ele>609.226367</ele>
        <time>2021-11-03T16:20:50.182Z</time>
      </trkpt>
      <trkpt lat="39.147542" lon="-1.671415">
        <ele>609.454663</ele>
        <time>2021-11-03T16:20:50.182Z</time>
      </trkpt>
      <trkpt lat="39.147590" lon="-1.671286">
        <ele>609.593588</ele>
        <time>2021-11-03T16:20:50.182Z</time>
      </trkpt>
      <trkpt lat="39.147629" lon="-1.671150">
        <ele>609.734376</ele>
        <time>2021-11-03T16:20:50.182Z</time>
      </trkpt>
      <trkpt lat="39.147741" lon="-1.670822">
        <ele>610.082354</ele>
        <time>2021-11-03T16:20:50.182Z</time>
      </trkpt>
      <trkpt lat="39.147832" lon="-1.670600">
        <ele>610.326164</ele>
        <time>2021-11-03T16:20:50.182Z</time>
      </trkpt>
      <trkpt lat="39.147898" lon="-1.670413">
        <ele>610.525651</ele>
        <time>2021-11-03T16:20:50.182Z</time>
      </trkpt>
      <trkpt lat="39.147969" lon="-1.670204">
        <ele>610.747195</ele>
        <time>2021-11-03T16:20:50.182Z</time>
      </trkpt>
      <trkpt lat="39.148064" lon="-1.669893">
        <ele>611.071742</ele>
        <time>2021-11-03T16:20:50.182Z</time>
      </trkpt>
      <trkpt lat="39.148094" lon="-1.669762">
        <ele>611.204366</ele>
        <time>2021-11-03T16:20:50.182Z</time>
      </trkpt>
      <trkpt lat="39.148149" lon="-1.669532">
        <ele>611.438060</ele>
        <time>2021-11-03T16:20:50.182Z</time>
      </trkpt>
      <trkpt lat="39.148172" lon="-1.669453">
        <ele>611.420099</ele>
        <time>2021-11-03T16:20:50.182Z</time>
      </trkpt>
      <trkpt lat="39.148284" lon="-1.669063">
        <ele>611.127686</ele>
        <time>2021-11-03T16:20:50.182Z</time>
      </trkpt>
      <trkpt lat="39.148306" lon="-1.668984">
        <ele>611.068667</ele>
        <time>2021-11-03T16:20:50.182Z</time>
      </trkpt>
      <trkpt lat="39.148329" lon="-1.668906">
        <ele>611.009994</ele>
        <time>2021-11-03T16:20:50.182Z</time>
      </trkpt>
      <trkpt lat="39.148349" lon="-1.668827">
        <ele>610.951563</ele>
        <time>2021-11-03T16:20:50.182Z</time>
      </trkpt>
      <trkpt lat="39.148362" lon="-1.668664">
        <ele>610.836351</ele>
        <time>2021-11-03T16:20:50.182Z</time>
      </trkpt>
      <trkpt lat="39.148358" lon="-1.668583">
        <ele>610.779283</ele>
        <time>2021-11-03T16:20:50.182Z</time>
      </trkpt>
      <trkpt lat="39.148342" lon="-1.668342">
        <ele>610.609213</ele>
        <time>2021-11-03T16:20:50.182Z</time>
      </trkpt>
      <trkpt lat="39.148291" lon="-1.668193">
        <ele>610.494698</ele>
        <time>2021-11-03T16:20:50.182Z</time>
      </trkpt>
      <trkpt lat="39.148177" lon="-1.668090">
        <ele>610.368494</ele>
        <time>2021-11-03T16:20:50.182Z</time>
      </trkpt>
      <trkpt lat="39.148118" lon="-1.668045">
        <ele>610.306345</ele>
        <time>2021-11-03T16:20:50.182Z</time>
      </trkpt>
      <trkpt lat="39.148075" lon="-1.667995">
        <ele>610.253849</ele>
        <time>2021-11-03T16:20:50.182Z</time>
      </trkpt>
      <trkpt lat="39.148053" lon="-1.667885">
        <ele>610.173975</ele>
        <time>2021-11-03T16:20:50.182Z</time>
      </trkpt>
      <trkpt lat="39.148086" lon="-1.667805">
        <ele>610.110264</ele>
        <time>2021-11-03T16:20:50.182Z</time>
      </trkpt>
      <trkpt lat="39.148114" lon="-1.667784">
        <ele>610.080896</ele>
        <time>2021-11-03T16:20:50.182Z</time>
      </trkpt>
      <trkpt lat="39.148142" lon="-1.667768">
        <ele>610.053129</ele>
        <time>2021-11-03T16:20:50.182Z</time>
      </trkpt>
      <trkpt lat="39.148193" lon="-1.667737">
        <ele>610.002010</ele>
        <time>2021-11-03T16:20:50.182Z</time>
      </trkpt>
      <trkpt lat="39.148220" lon="-1.667721">
        <ele>609.975070</ele>
        <time>2021-11-03T16:20:50.182Z</time>
      </trkpt>
      <trkpt lat="39.148275" lon="-1.667698">
        <ele>609.922648</ele>
        <time>2021-11-03T16:20:50.182Z</time>
      </trkpt>
      <trkpt lat="39.148308" lon="-1.667693">
        <ele>609.892523</ele>
        <time>2021-11-03T16:20:50.182Z</time>
      </trkpt>
      <trkpt lat="39.148462" lon="-1.667708">
        <ele>609.830926</ele>
        <time>2021-11-03T16:20:50.182Z</time>
      </trkpt>
      <trkpt lat="39.148582" lon="-1.667726">
        <ele>609.830370</ele>
        <time>2021-11-03T16:20:50.182Z</time>
      </trkpt>
      <trkpt lat="39.148659" lon="-1.667713">
        <ele>609.830013</ele>
        <time>2021-11-03T16:20:50.182Z</time>
      </trkpt>
      <trkpt lat="39.148695" lon="-1.667687">
        <ele>609.829823</ele>
        <time>2021-11-03T16:20:50.182Z</time>
      </trkpt>
      <trkpt lat="39.148730" lon="-1.667648">
        <ele>609.829610</ele>
        <time>2021-11-03T16:20:50.182Z</time>
      </trkpt>
      <trkpt lat="39.148824" lon="-1.667480">
        <ele>609.828871</ele>
        <time>2021-11-03T16:20:50.182Z</time>
      </trkpt>
      <trkpt lat="39.148957" lon="-1.667220">
        <ele>609.827759</ele>
        <time>2021-11-03T16:20:50.182Z</time>
      </trkpt>
      <trkpt lat="39.148977" lon="-1.667142">
        <ele>609.827466</ele>
        <time>2021-11-03T16:20:50.182Z</time>
      </trkpt>
      <trkpt lat="39.148990" lon="-1.667059">
        <ele>609.827164</ele>
        <time>2021-11-03T16:20:50.182Z</time>
      </trkpt>
      <trkpt lat="39.149026" lon="-1.666822">
        <ele>609.826302</ele>
        <time>2021-11-03T16:20:50.182Z</time>
      </trkpt>
      <trkpt lat="39.149030" lon="-1.666610">
        <ele>609.825546</ele>
        <time>2021-11-03T16:20:50.182Z</time>
      </trkpt>
      <trkpt lat="39.149014" lon="-1.666477">
        <ele>609.825065</ele>
        <time>2021-11-03T16:20:50.182Z</time>
      </trkpt>
      <trkpt lat="39.149007" lon="-1.666285">
        <ele>609.824379</ele>
        <time>2021-11-03T16:20:50.182Z</time>
      </trkpt>
      <trkpt lat="39.149019" lon="-1.666222">
        <ele>609.824148</ele>
        <time>2021-11-03T16:20:50.182Z</time>
      </trkpt>
      <trkpt lat="39.149047" lon="-1.666165">
        <ele>609.823907</ele>
        <time>2021-11-03T16:20:50.182Z</time>
      </trkpt>
      <trkpt lat="39.149133" lon="-1.666115">
        <ele>609.823473</ele>
        <time>2021-11-03T16:20:50.182Z</time>
      </trkpt>
      <trkpt lat="39.149182" lon="-1.666112">
        <ele>609.823247</ele>
        <time>2021-11-03T16:20:50.182Z</time>
      </trkpt>
      <trkpt lat="39.149332" lon="-1.666041">
        <ele>609.890276</ele>
        <time>2021-11-03T16:20:50.182Z</time>
      </trkpt>
      <trkpt lat="39.149354" lon="-1.665996">
        <ele>609.914008</ele>
        <time>2021-11-03T16:20:50.182Z</time>
      </trkpt>
      <trkpt lat="39.149388" lon="-1.665892">
        <ele>609.964360</ele>
        <time>2021-11-03T16:20:50.182Z</time>
      </trkpt>
      <trkpt lat="39.149404" lon="-1.665837">
        <ele>609.990567</ele>
        <time>2021-11-03T16:20:50.182Z</time>
      </trkpt>
      <trkpt lat="39.149455" lon="-1.665682">
        <ele>610.065684</ele>
        <time>2021-11-03T16:20:50.182Z</time>
      </trkpt>
      <trkpt lat="39.149540" lon="-1.665460">
        <ele>610.176139</ele>
        <time>2021-11-03T16:20:50.182Z</time>
      </trkpt>
      <trkpt lat="39.149652" lon="-1.665057">
        <ele>610.367127</ele>
        <time>2021-11-03T16:20:50.182Z</time>
      </trkpt>
      <trkpt lat="39.149687" lon="-1.664824">
        <ele>610.473007</ele>
        <time>2021-11-03T16:20:50.182Z</time>
      </trkpt>
      <trkpt lat="39.149695" lon="-1.664591">
        <ele>610.577058</ele>
        <time>2021-11-03T16:20:50.182Z</time>
      </trkpt>
      <trkpt lat="39.149654" lon="-1.664463">
        <ele>610.638842</ele>
        <time>2021-11-03T16:20:50.182Z</time>
      </trkpt>
      <trkpt lat="39.149621" lon="-1.664418">
        <ele>610.666472</ele>
        <time>2021-11-03T16:20:50.182Z</time>
      </trkpt>
      <trkpt lat="39.149516" lon="-1.664293">
        <ele>610.748683</ele>
        <time>2021-11-03T16:20:50.182Z</time>
      </trkpt>
      <trkpt lat="39.149475" lon="-1.664190">
        <ele>610.800334</ele>
        <time>2021-11-03T16:20:50.182Z</time>
      </trkpt>
      <trkpt lat="39.149472" lon="-1.664062">
        <ele>610.857465</ele>
        <time>2021-11-03T16:20:50.182Z</time>
      </trkpt>
      <trkpt lat="39.149505" lon="-1.663920">
        <ele>610.725001</ele>
        <time>2021-11-03T16:20:50.182Z</time>
      </trkpt>
      <trkpt lat="39.149603" lon="-1.663681">
        <ele>610.481703</ele>
        <time>2021-11-03T16:20:50.182Z</time>
      </trkpt>
      <trkpt lat="39.149651" lon="-1.663601">
        <ele>610.390677</ele>
        <time>2021-11-03T16:20:50.182Z</time>
      </trkpt>
      <trkpt lat="39.149699" lon="-1.663515">
        <ele>610.295323</ele>
        <time>2021-11-03T16:20:50.182Z</time>
      </trkpt>
      <trkpt lat="39.149759" lon="-1.663320">
        <ele>610.106529</ele>
        <time>2021-11-03T16:20:50.182Z</time>
      </trkpt>
      <trkpt lat="39.149793" lon="-1.663123">
        <ele>609.924907</ele>
        <time>2021-11-03T16:20:50.182Z</time>
      </trkpt>
      <trkpt lat="39.149807" lon="-1.662938">
        <ele>609.757630</ele>
        <time>2021-11-03T16:20:50.182Z</time>
      </trkpt>
      <trkpt lat="39.149802" lon="-1.662846">
        <ele>609.674634</ele>
        <time>2021-11-03T16:20:50.182Z</time>
      </trkpt>
      <trkpt lat="39.149752" lon="-1.662333">
        <ele>609.209341</ele>
        <time>2021-11-03T16:20:50.182Z</time>
      </trkpt>
      <trkpt lat="39.149680" lon="-1.661955">
        <ele>608.859059</ele>
        <time>2021-11-03T16:20:50.182Z</time>
      </trkpt>
      <trkpt lat="39.149658" lon="-1.661815">
        <ele>608.778715</ele>
        <time>2021-11-03T16:20:50.182Z</time>
      </trkpt>
      <trkpt lat="39.149641" lon="-1.661603">
        <ele>608.817836</ele>
        <time>2021-11-03T16:20:50.182Z</time>
      </trkpt>
      <trkpt lat="39.149671" lon="-1.661385">
        <ele>608.858476</ele>
        <time>2021-11-03T16:20:50.182Z</time>
      </trkpt>
      <trkpt lat="39.149682" lon="-1.661306">
        <ele>608.873208</ele>
        <time>2021-11-03T16:20:50.182Z</time>
      </trkpt>
      <trkpt lat="39.149656" lon="-1.661061">
        <ele>608.918598</ele>
        <time>2021-11-03T16:20:50.182Z</time>
      </trkpt>
      <trkpt lat="39.149636" lon="-1.660981">
        <ele>608.934027</ele>
        <time>2021-11-03T16:20:50.182Z</time>
      </trkpt>
      <trkpt lat="39.149566" lon="-1.660742">
        <ele>608.980921</ele>
        <time>2021-11-03T16:20:50.182Z</time>
      </trkpt>
      <trkpt lat="39.149552" lon="-1.660656">
        <ele>608.997051</ele>
        <time>2021-11-03T16:20:50.182Z</time>
      </trkpt>
      <trkpt lat="39.149542" lon="-1.660490">
        <ele>609.027612</ele>
        <time>2021-11-03T16:20:50.182Z</time>
      </trkpt>
      <trkpt lat="39.149561" lon="-1.660343">
        <ele>609.054967</ele>
        <time>2021-11-03T16:20:50.182Z</time>
      </trkpt>
      <trkpt lat="39.149573" lon="-1.660273">
        <ele>609.068126</ele>
        <time>2021-11-03T16:20:50.182Z</time>
      </trkpt>
      <trkpt lat="39.149569" lon="-1.660060">
        <ele>609.107235</ele>
        <time>2021-11-03T16:20:50.182Z</time>
      </trkpt>
      <trkpt lat="39.149555" lon="-1.659853">
        <ele>609.145375</ele>
        <time>2021-11-03T16:20:50.182Z</time>
      </trkpt>
      <trkpt lat="39.149531" lon="-1.659587">
        <ele>609.194530</ele>
        <time>2021-11-03T16:20:50.182Z</time>
      </trkpt>
      <trkpt lat="39.149535" lon="-1.659044">
        <ele>609.026845</ele>
        <time>2021-11-03T16:20:50.182Z</time>
      </trkpt>
      <trkpt lat="39.149482" lon="-1.658653">
        <ele>608.900797</ele>
        <time>2021-11-03T16:20:50.182Z</time>
      </trkpt>
      <trkpt lat="39.149330" lon="-1.658214">
        <ele>608.748125</ele>
        <time>2021-11-03T16:20:50.182Z</time>
      </trkpt>
      <trkpt lat="39.149303" lon="-1.658133">
        <ele>608.720127</ele>
        <time>2021-11-03T16:20:50.182Z</time>
      </trkpt>
      <trkpt lat="39.149254" lon="-1.657977">
        <ele>608.666679</ele>
        <time>2021-11-03T16:20:50.182Z</time>
      </trkpt>
      <trkpt lat="39.149232" lon="-1.657818">
        <ele>608.615390</ele>
        <time>2021-11-03T16:20:50.182Z</time>
      </trkpt>
      <trkpt lat="39.149190" lon="-1.657358">
        <ele>608.468303</ele>
        <time>2021-11-03T16:20:50.182Z</time>
      </trkpt>
      <trkpt lat="39.149180" lon="-1.657286">
        <ele>608.458079</ele>
        <time>2021-11-03T16:20:50.182Z</time>
      </trkpt>
      <trkpt lat="39.149176" lon="-1.657213">
        <ele>608.455433</ele>
        <time>2021-11-03T16:20:50.182Z</time>
      </trkpt>
      <trkpt lat="39.149187" lon="-1.657005">
        <ele>608.447895</ele>
        <time>2021-11-03T16:20:50.182Z</time>
      </trkpt>
      <trkpt lat="39.149125" lon="-1.656655">
        <ele>608.434914</ele>
        <time>2021-11-03T16:20:50.182Z</time>
      </trkpt>
      <trkpt lat="39.149094" lon="-1.656509">
        <ele>608.429441</ele>
        <time>2021-11-03T16:20:50.182Z</time>
      </trkpt>
      <trkpt lat="39.148982" lon="-1.656152">
        <ele>608.415517</ele>
        <time>2021-11-03T16:20:50.182Z</time>
      </trkpt>
      <trkpt lat="39.148948" lon="-1.656085">
        <ele>608.412622</ele>
        <time>2021-11-03T16:20:50.182Z</time>
      </trkpt>
      <trkpt lat="39.148720" lon="-1.655739">
        <ele>608.396205</ele>
        <time>2021-11-03T16:20:50.182Z</time>
      </trkpt>
      <trkpt lat="39.148692" lon="-1.655679">
        <ele>608.393673</ele>
        <time>2021-11-03T16:20:50.182Z</time>
      </trkpt>
      <trkpt lat="39.148620" lon="-1.655488">
        <ele>608.385994</ele>
        <time>2021-11-03T16:20:50.182Z</time>
      </trkpt>
      <trkpt lat="39.148598" lon="-1.655427">
        <ele>608.383562</ele>
        <time>2021-11-03T16:20:50.182Z</time>
      </trkpt>
      <trkpt lat="39.148554" lon="-1.655312">
        <ele>608.378925</ele>
        <time>2021-11-03T16:20:50.182Z</time>
      </trkpt>
      <trkpt lat="39.148477" lon="-1.655226">
        <ele>608.371117</ele>
        <time>2021-11-03T16:20:50.182Z</time>
      </trkpt>
      <trkpt lat="39.148316" lon="-1.655177">
        <ele>608.349645</ele>
        <time>2021-11-03T16:20:50.182Z</time>
      </trkpt>
      <trkpt lat="39.148266" lon="-1.655147">
        <ele>608.342487</ele>
        <time>2021-11-03T16:20:50.182Z</time>
      </trkpt>
      <trkpt lat="39.148219" lon="-1.655103">
        <ele>608.334949</ele>
        <time>2021-11-03T16:20:50.182Z</time>
      </trkpt>
      <trkpt lat="39.148176" lon="-1.655051">
        <ele>608.327297</ele>
        <time>2021-11-03T16:20:50.182Z</time>
      </trkpt>
      <trkpt lat="39.148136" lon="-1.654996">
        <ele>608.319707</ele>
        <time>2021-11-03T16:20:50.182Z</time>
      </trkpt>
      <trkpt lat="39.148099" lon="-1.654934">
        <ele>608.311832</ele>
        <time>2021-11-03T16:20:50.182Z</time>
      </trkpt>
      <trkpt lat="39.148069" lon="-1.654870">
        <ele>608.304305</ele>
        <time>2021-11-03T16:20:50.182Z</time>
      </trkpt>
      <trkpt lat="39.148046" lon="-1.654805">
        <ele>608.297113</ele>
        <time>2021-11-03T16:20:50.182Z</time>
      </trkpt>
      <trkpt lat="39.148028" lon="-1.654740">
        <ele>608.290165</ele>
        <time>2021-11-03T16:20:50.182Z</time>
      </trkpt>
      <trkpt lat="39.148016" lon="-1.654674">
        <ele>608.283342</ele>
        <time>2021-11-03T16:20:50.182Z</time>
      </trkpt>
      <trkpt lat="39.147944" lon="-1.654321">
        <ele>608.246600</ele>
        <time>2021-11-03T16:20:50.182Z</time>
      </trkpt>
      <trkpt lat="39.147914" lon="-1.654258">
        <ele>608.239159</ele>
        <time>2021-11-03T16:20:50.182Z</time>
      </trkpt>
      <trkpt lat="39.147877" lon="-1.654200">
        <ele>608.231599</ele>
        <time>2021-11-03T16:20:50.182Z</time>
      </trkpt>
      <trkpt lat="39.147834" lon="-1.654150">
        <ele>608.224084</ele>
        <time>2021-11-03T16:20:50.182Z</time>
      </trkpt>
      <trkpt lat="39.147786" lon="-1.654111">
        <ele>608.216720</ele>
        <time>2021-11-03T16:20:50.182Z</time>
      </trkpt>
      <trkpt lat="39.147735" lon="-1.654081">
        <ele>608.209444</ele>
        <time>2021-11-03T16:20:50.182Z</time>
      </trkpt>
      <trkpt lat="39.147684" lon="-1.654056">
        <ele>608.202362</ele>
        <time>2021-11-03T16:20:50.182Z</time>
      </trkpt>
      <trkpt lat="39.147582" lon="-1.654014">
        <ele>608.188464</ele>
        <time>2021-11-03T16:20:50.182Z</time>
      </trkpt>
      <trkpt lat="39.147471" lon="-1.654006">
        <ele>608.174034</ele>
        <time>2021-11-03T16:20:50.182Z</time>
      </trkpt>
      <trkpt lat="39.147417" lon="-1.654030">
        <ele>608.166620</ele>
        <time>2021-11-03T16:20:50.182Z</time>
      </trkpt>
      <trkpt lat="39.147374" lon="-1.654076">
        <ele>608.159368</ele>
        <time>2021-11-03T16:20:50.182Z</time>
      </trkpt>
      <trkpt lat="39.147333" lon="-1.654202">
        <ele>608.145614</ele>
        <time>2021-11-03T16:20:50.182Z</time>
      </trkpt>
      <trkpt lat="39.147296" lon="-1.654397">
        <ele>608.190370</ele>
        <time>2021-11-03T16:20:50.182Z</time>
      </trkpt>
      <trkpt lat="39.147238" lon="-1.654510">
        <ele>608.228774</ele>
        <time>2021-11-03T16:20:50.182Z</time>
      </trkpt>
      <trkpt lat="39.147155" lon="-1.654596">
        <ele>608.267685</ele>
        <time>2021-11-03T16:20:50.182Z</time>
      </trkpt>
      <trkpt lat="39.147055" lon="-1.654644">
        <ele>608.306679</ele>
        <time>2021-11-03T16:20:50.182Z</time>
      </trkpt>
      <trkpt lat="39.146948" lon="-1.654636">
        <ele>608.345847</ele>
        <time>2021-11-03T16:20:50.182Z</time>
      </trkpt>
      <trkpt lat="39.146850" lon="-1.654584">
        <ele>608.384574</ele>
        <time>2021-11-03T16:20:50.182Z</time>
      </trkpt>
      <trkpt lat="39.146590" lon="-1.654331">
        <ele>608.503608</ele>
        <time>2021-11-03T16:20:50.182Z</time>
      </trkpt>
      <trkpt lat="39.146490" lon="-1.654244">
        <ele>608.547692</ele>
        <time>2021-11-03T16:20:50.182Z</time>
      </trkpt>
      <trkpt lat="39.146322" lon="-1.654145">
        <ele>608.615194</ele>
        <time>2021-11-03T16:20:50.182Z</time>
      </trkpt>
      <trkpt lat="39.146208" lon="-1.654091">
        <ele>608.659576</ele>
        <time>2021-11-03T16:20:50.182Z</time>
      </trkpt>
      <trkpt lat="39.146058" lon="-1.653954">
        <ele>608.726751</ele>
        <time>2021-11-03T16:20:50.182Z</time>
      </trkpt>
      <trkpt lat="39.145927" lon="-1.653791">
        <ele>608.793278</ele>
        <time>2021-11-03T16:20:50.182Z</time>
      </trkpt>
      <trkpt lat="39.145866" lon="-1.653668">
        <ele>608.848041</ele>
        <time>2021-11-03T16:20:50.182Z</time>
      </trkpt>
      <trkpt lat="39.145847" lon="-1.653596">
        <ele>608.877856</ele>
        <time>2021-11-03T16:20:50.182Z</time>
      </trkpt>
      <trkpt lat="39.145819" lon="-1.653443">
        <ele>608.939483</ele>
        <time>2021-11-03T16:20:50.182Z</time>
      </trkpt>
      <trkpt lat="39.145766" lon="-1.653305">
        <ele>608.999852</ele>
        <time>2021-11-03T16:20:50.182Z</time>
      </trkpt>
      <trkpt lat="39.145695" lon="-1.653185">
        <ele>609.059022</ele>
        <time>2021-11-03T16:20:50.182Z</time>
      </trkpt>
      <trkpt lat="39.145599" lon="-1.653103">
        <ele>609.117230</ele>
        <time>2021-11-03T16:20:50.182Z</time>
      </trkpt>
      <trkpt lat="39.145491" lon="-1.653066">
        <ele>609.173717</ele>
        <time>2021-11-03T16:20:50.182Z</time>
      </trkpt>
      <trkpt lat="39.145380" lon="-1.653086">
        <ele>609.230370</ele>
        <time>2021-11-03T16:20:50.182Z</time>
      </trkpt>
      <trkpt lat="39.145293" lon="-1.653178">
        <ele>609.287246</ele>
        <time>2021-11-03T16:20:50.182Z</time>
      </trkpt>
      <trkpt lat="39.145255" lon="-1.653226">
        <ele>609.314135</ele>
        <time>2021-11-03T16:20:50.182Z</time>
      </trkpt>
      <trkpt lat="39.144956" lon="-1.653560">
        <ele>609.514105</ele>
        <time>2021-11-03T16:20:50.182Z</time>
      </trkpt>
      <trkpt lat="39.144817" lon="-1.653701">
        <ele>609.603504</ele>
        <time>2021-11-03T16:20:50.182Z</time>
      </trkpt>
      <trkpt lat="39.144681" lon="-1.653837">
        <ele>609.690502</ele>
        <time>2021-11-03T16:20:50.182Z</time>
      </trkpt>
      <trkpt lat="39.144649" lon="-1.653870">
        <ele>609.708967</ele>
        <time>2021-11-03T16:20:50.182Z</time>
      </trkpt>
      <trkpt lat="39.144504" lon="-1.653941">
        <ele>609.710693</ele>
        <time>2021-11-03T16:20:50.182Z</time>
      </trkpt>
      <trkpt lat="39.144444" lon="-1.653883">
        <ele>609.711527</ele>
        <time>2021-11-03T16:20:50.182Z</time>
      </trkpt>
      <trkpt lat="39.144432" lon="-1.653830">
        <ele>609.712004</ele>
        <time>2021-11-03T16:20:50.182Z</time>
      </trkpt>
      <trkpt lat="39.144433" lon="-1.653771">
        <ele>609.712513</ele>
        <time>2021-11-03T16:20:50.182Z</time>
      </trkpt>
      <trkpt lat="39.144437" lon="-1.653642">
        <ele>609.713627</ele>
        <time>2021-11-03T16:20:50.182Z</time>
      </trkpt>
      <trkpt lat="39.144440" lon="-1.653575">
        <ele>609.714207</ele>
        <time>2021-11-03T16:20:50.182Z</time>
      </trkpt>
      <trkpt lat="39.144423" lon="-1.653291">
        <ele>609.716665</ele>
        <time>2021-11-03T16:20:50.182Z</time>
      </trkpt>
      <trkpt lat="39.144397" lon="-1.653150">
        <ele>609.717916</ele>
        <time>2021-11-03T16:20:50.182Z</time>
      </trkpt>
      <trkpt lat="39.144360" lon="-1.653012">
        <ele>609.719176</ele>
        <time>2021-11-03T16:20:50.182Z</time>
      </trkpt>
      <trkpt lat="39.144243" lon="-1.652662">
        <ele>609.722465</ele>
        <time>2021-11-03T16:20:50.182Z</time>
      </trkpt>
      <trkpt lat="39.144030" lon="-1.652070">
        <ele>609.728097</ele>
        <time>2021-11-03T16:20:50.182Z</time>
      </trkpt>
      <trkpt lat="39.143946" lon="-1.651855">
        <ele>609.605934</ele>
        <time>2021-11-03T16:20:50.182Z</time>
      </trkpt>
      <trkpt lat="39.143824" lon="-1.651414">
        <ele>609.206247</ele>
        <time>2021-11-03T16:20:50.182Z</time>
      </trkpt>
      <trkpt lat="39.143793" lon="-1.651105">
        <ele>608.940274</ele>
        <time>2021-11-03T16:20:50.182Z</time>
      </trkpt>
      <trkpt lat="39.143780" lon="-1.650858">
        <ele>608.728940</ele>
        <time>2021-11-03T16:20:50.182Z</time>
      </trkpt>
      <trkpt lat="39.143781" lon="-1.650444">
        <ele>608.375531</ele>
        <time>2021-11-03T16:20:50.182Z</time>
      </trkpt>
      <trkpt lat="39.143791" lon="-1.650280">
        <ele>608.235102</ele>
        <time>2021-11-03T16:20:50.182Z</time>
      </trkpt>
      <trkpt lat="39.143834" lon="-1.649955">
        <ele>607.953661</ele>
        <time>2021-11-03T16:20:50.182Z</time>
      </trkpt>
      <trkpt lat="39.143942" lon="-1.649350">
        <ele>607.807817</ele>
        <time>2021-11-03T16:20:50.182Z</time>
      </trkpt>
      <trkpt lat="39.144007" lon="-1.649049">
        <ele>607.855833</ele>
        <time>2021-11-03T16:20:50.182Z</time>
      </trkpt>
      <trkpt lat="39.144046" lon="-1.648814">
        <ele>607.892765</ele>
        <time>2021-11-03T16:20:50.182Z</time>
      </trkpt>
      <trkpt lat="39.144165" lon="-1.648293">
        <ele>607.976230</ele>
        <time>2021-11-03T16:20:50.182Z</time>
      </trkpt>
      <trkpt lat="39.144294" lon="-1.647985">
        <ele>608.030022</ele>
        <time>2021-11-03T16:20:50.182Z</time>
      </trkpt>
      <trkpt lat="39.144500" lon="-1.647621">
        <ele>608.099269</ele>
        <time>2021-11-03T16:20:50.182Z</time>
      </trkpt>
      <trkpt lat="39.144570" lon="-1.647515">
        <ele>608.149258</ele>
        <time>2021-11-03T16:20:50.182Z</time>
      </trkpt>
      <trkpt lat="39.144643" lon="-1.647418">
        <ele>608.209490</ele>
        <time>2021-11-03T16:20:50.182Z</time>
      </trkpt>
      <trkpt lat="39.144769" lon="-1.647282">
        <ele>608.303908</ele>
        <time>2021-11-03T16:20:50.182Z</time>
      </trkpt>
      <trkpt lat="39.144950" lon="-1.647122">
        <ele>608.430004</ele>
        <time>2021-11-03T16:20:50.182Z</time>
      </trkpt>
      <trkpt lat="39.145006" lon="-1.647096">
        <ele>608.464204</ele>
        <time>2021-11-03T16:20:50.182Z</time>
      </trkpt>
      <trkpt lat="39.145130" lon="-1.647052">
        <ele>608.538103</ele>
        <time>2021-11-03T16:20:50.182Z</time>
      </trkpt>
      <trkpt lat="39.145254" lon="-1.646995">
        <ele>608.613746</ele>
        <time>2021-11-03T16:20:50.182Z</time>
      </trkpt>
      <trkpt lat="39.145371" lon="-1.646936">
        <ele>608.685932</ele>
        <time>2021-11-03T16:20:50.182Z</time>
      </trkpt>
      <trkpt lat="39.145541" lon="-1.646849">
        <ele>608.791026</ele>
        <time>2021-11-03T16:20:50.182Z</time>
      </trkpt>
      <trkpt lat="39.145702" lon="-1.646748">
        <ele>608.893904</ele>
        <time>2021-11-03T16:20:50.182Z</time>
      </trkpt>
      <trkpt lat="39.145753" lon="-1.646713">
        <ele>608.927101</ele>
        <time>2021-11-03T16:20:50.182Z</time>
      </trkpt>
      <trkpt lat="39.145955" lon="-1.646575">
        <ele>609.058454</ele>
        <time>2021-11-03T16:20:50.182Z</time>
      </trkpt>
      <trkpt lat="39.146058" lon="-1.646506">
        <ele>609.125149</ele>
        <time>2021-11-03T16:20:50.182Z</time>
      </trkpt>
      <trkpt lat="39.146170" lon="-1.646452">
        <ele>609.117348</ele>
        <time>2021-11-03T16:20:50.182Z</time>
      </trkpt>
      <trkpt lat="39.146447" lon="-1.646297">
        <ele>609.048377</ele>
        <time>2021-11-03T16:20:50.182Z</time>
      </trkpt>
      <trkpt lat="39.146546" lon="-1.646219">
        <ele>609.021876</ele>
        <time>2021-11-03T16:20:50.182Z</time>
      </trkpt>
      <trkpt lat="39.146895" lon="-1.645960">
        <ele>608.929900</ele>
        <time>2021-11-03T16:20:50.182Z</time>
      </trkpt>
      <trkpt lat="39.146949" lon="-1.645933">
        <ele>608.916671</ele>
        <time>2021-11-03T16:20:50.182Z</time>
      </trkpt>
      <trkpt lat="39.147116" lon="-1.645859">
        <ele>608.876336</ele>
        <time>2021-11-03T16:20:50.182Z</time>
      </trkpt>
      <trkpt lat="39.147295" lon="-1.645817">
        <ele>608.834779</ele>
        <time>2021-11-03T16:20:50.182Z</time>
      </trkpt>
      <trkpt lat="39.147471" lon="-1.645760">
        <ele>608.793329</ele>
        <time>2021-11-03T16:20:50.182Z</time>
      </trkpt>
      <trkpt lat="39.147570" lon="-1.645679">
        <ele>608.766548</ele>
        <time>2021-11-03T16:20:50.182Z</time>
      </trkpt>
      <trkpt lat="39.147720" lon="-1.645465">
        <ele>608.499664</ele>
        <time>2021-11-03T16:20:50.182Z</time>
      </trkpt>
      <trkpt lat="39.147785" lon="-1.645398">
        <ele>608.160822</ele>
        <time>2021-11-03T16:20:50.182Z</time>
      </trkpt>
      <trkpt lat="39.147864" lon="-1.645440">
        <ele>607.812877</ele>
        <time>2021-11-03T16:20:50.182Z</time>
      </trkpt>
      <trkpt lat="39.147873" lon="-1.645480">
        <ele>607.681356</ele>
        <time>2021-11-03T16:20:50.182Z</time>
      </trkpt>
      <trkpt lat="39.147867" lon="-1.645529">
        <ele>607.524706</ele>
        <time>2021-11-03T16:20:50.182Z</time>
      </trkpt>
      <trkpt lat="39.147855" lon="-1.645586">
        <ele>607.338197</ele>
        <time>2021-11-03T16:20:50.182Z</time>
      </trkpt>
      <trkpt lat="39.147851" lon="-1.645647">
        <ele>607.144883</ele>
        <time>2021-11-03T16:20:50.182Z</time>
      </trkpt>
      <trkpt lat="39.147890" lon="-1.645760">
        <ele>606.754310</ele>
        <time>2021-11-03T16:20:50.182Z</time>
      </trkpt>
      <trkpt lat="39.147988" lon="-1.645836">
        <ele>606.288659</ele>
        <time>2021-11-03T16:20:50.182Z</time>
      </trkpt>
      <trkpt lat="39.148053" lon="-1.645849">
        <ele>606.020823</ele>
        <time>2021-11-03T16:20:50.182Z</time>
      </trkpt>
      <trkpt lat="39.148117" lon="-1.645845">
        <ele>605.759918</ele>
        <time>2021-11-03T16:20:50.182Z</time>
      </trkpt>
      <trkpt lat="39.148175" lon="-1.645823">
        <ele>605.513744</ele>
        <time>2021-11-03T16:20:50.182Z</time>
      </trkpt>
      <trkpt lat="39.148220" lon="-1.645785">
        <ele>605.294715</ele>
        <time>2021-11-03T16:20:50.182Z</time>
      </trkpt>
      <trkpt lat="39.148250" lon="-1.645733">
        <ele>605.090056</ele>
        <time>2021-11-03T16:20:50.182Z</time>
      </trkpt>
      <trkpt lat="39.148293" lon="-1.645629">
        <ele>604.717887</ele>
        <time>2021-11-03T16:20:50.182Z</time>
      </trkpt>
      <trkpt lat="39.148357" lon="-1.645578">
        <ele>604.411541</ele>
        <time>2021-11-03T16:20:50.182Z</time>
      </trkpt>
      <trkpt lat="39.148392" lon="-1.645578">
        <ele>604.269026</ele>
        <time>2021-11-03T16:20:50.182Z</time>
      </trkpt>
      <trkpt lat="39.148569" lon="-1.645602">
        <ele>603.544333</ele>
        <time>2021-11-03T16:20:50.182Z</time>
      </trkpt>
      <trkpt lat="39.148656" lon="-1.645615">
        <ele>603.187711</ele>
        <time>2021-11-03T16:20:50.182Z</time>
      </trkpt>
      <trkpt lat="39.148688" lon="-1.645635">
        <ele>603.042912</ele>
        <time>2021-11-03T16:20:50.182Z</time>
      </trkpt>
      <trkpt lat="39.148720" lon="-1.645713">
        <ele>602.764265</ele>
        <time>2021-11-03T16:20:50.182Z</time>
      </trkpt>
      <trkpt lat="39.148726" lon="-1.645765">
        <ele>602.598253</ele>
        <time>2021-11-03T16:20:50.182Z</time>
      </trkpt>
      <trkpt lat="39.148730" lon="-1.645818">
        <ele>602.430101</ele>
        <time>2021-11-03T16:20:50.182Z</time>
      </trkpt>
      <trkpt lat="39.148735" lon="-1.645983">
        <ele>601.908671</ele>
        <time>2021-11-03T16:20:50.182Z</time>
      </trkpt>
      <trkpt lat="39.148735" lon="-1.646208">
        <ele>601.504946</ele>
        <time>2021-11-03T16:20:50.182Z</time>
      </trkpt>
      <trkpt lat="39.148740" lon="-1.646265">
        <ele>601.593195</ele>
        <time>2021-11-03T16:20:50.182Z</time>
      </trkpt>
      <trkpt lat="39.148757" lon="-1.646374">
        <ele>601.764238</ele>
        <time>2021-11-03T16:20:50.182Z</time>
      </trkpt>
      <trkpt lat="39.148836" lon="-1.646536">
        <ele>602.058638</ele>
        <time>2021-11-03T16:20:50.182Z</time>
      </trkpt>
      <trkpt lat="39.148871" lon="-1.646579">
        <ele>602.154537</ele>
        <time>2021-11-03T16:20:50.182Z</time>
      </trkpt>
      <trkpt lat="39.148903" lon="-1.646603">
        <ele>602.227973</ele>
        <time>2021-11-03T16:20:50.182Z</time>
      </trkpt>
      <trkpt lat="39.148941" lon="-1.646625">
        <ele>602.310605</ele>
        <time>2021-11-03T16:20:50.182Z</time>
      </trkpt>
      <trkpt lat="39.148965" lon="-1.646620">
        <ele>602.358832</ele>
        <time>2021-11-03T16:20:50.182Z</time>
      </trkpt>
      <trkpt lat="39.148985" lon="-1.646600">
        <ele>602.409039</ele>
        <time>2021-11-03T16:20:50.182Z</time>
      </trkpt>
      <trkpt lat="39.149012" lon="-1.646537">
        <ele>602.519773</ele>
        <time>2021-11-03T16:20:50.182Z</time>
      </trkpt>
      <trkpt lat="39.149040" lon="-1.646468">
        <ele>602.639577</ele>
        <time>2021-11-03T16:20:50.182Z</time>
      </trkpt>
      <trkpt lat="39.149069" lon="-1.646400">
        <ele>602.758963</ele>
        <time>2021-11-03T16:20:50.182Z</time>
      </trkpt>
      <trkpt lat="39.149175" lon="-1.646111">
        <ele>603.250779</ele>
        <time>2021-11-03T16:20:50.182Z</time>
      </trkpt>
      <trkpt lat="39.149196" lon="-1.646033">
        <ele>603.377800</ele>
        <time>2021-11-03T16:20:50.182Z</time>
      </trkpt>
      <trkpt lat="39.149236" lon="-1.645822">
        <ele>603.711959</ele>
        <time>2021-11-03T16:20:50.182Z</time>
      </trkpt>
      <trkpt lat="39.149324" lon="-1.645423">
        <ele>604.350120</ele>
        <time>2021-11-03T16:20:50.182Z</time>
      </trkpt>
      <trkpt lat="39.149363" lon="-1.645233">
        <ele>604.652480</ele>
        <time>2021-11-03T16:20:50.182Z</time>
      </trkpt>
      <trkpt lat="39.149379" lon="-1.645150">
        <ele>604.784053</ele>
        <time>2021-11-03T16:20:50.182Z</time>
      </trkpt>
      <trkpt lat="39.149407" lon="-1.645026">
        <ele>604.971648</ele>
        <time>2021-11-03T16:20:50.182Z</time>
      </trkpt>
      <trkpt lat="39.149446" lon="-1.644843">
        <ele>604.947752</ele>
        <time>2021-11-03T16:20:50.182Z</time>
      </trkpt>
      <trkpt lat="39.149539" lon="-1.644385">
        <ele>604.888139</ele>
        <time>2021-11-03T16:20:50.182Z</time>
      </trkpt>
      <trkpt lat="39.149568" lon="-1.644256">
        <ele>604.871228</ele>
        <time>2021-11-03T16:20:50.182Z</time>
      </trkpt>
      <trkpt lat="39.149659" lon="-1.643832">
        <ele>604.815834</ele>
        <time>2021-11-03T16:20:50.182Z</time>
      </trkpt>
      <trkpt lat="39.149675" lon="-1.643760">
        <ele>604.806403</ele>
        <time>2021-11-03T16:20:50.182Z</time>
      </trkpt>
      <trkpt lat="39.149846" lon="-1.643053">
        <ele>604.713153</ele>
        <time>2021-11-03T16:20:50.182Z</time>
      </trkpt>
      <trkpt lat="39.149887" lon="-1.642924">
        <ele>604.695599</ele>
        <time>2021-11-03T16:20:50.182Z</time>
      </trkpt>
      <trkpt lat="39.149911" lon="-1.642861">
        <ele>604.686761</ele>
        <time>2021-11-03T16:20:50.182Z</time>
      </trkpt>
      <trkpt lat="39.150063" lon="-1.642571">
        <ele>604.644420</ele>
        <time>2021-11-03T16:20:50.182Z</time>
      </trkpt>
      <trkpt lat="39.150236" lon="-1.642396">
        <ele>604.610356</ele>
        <time>2021-11-03T16:20:50.182Z</time>
      </trkpt>
      <trkpt lat="39.150285" lon="-1.642362">
        <ele>604.601736</ele>
        <time>2021-11-03T16:20:50.182Z</time>
      </trkpt>
      <trkpt lat="39.150394" lon="-1.642308">
        <ele>604.583646</ele>
        <time>2021-11-03T16:20:50.182Z</time>
      </trkpt>
      <trkpt lat="39.150573" lon="-1.642263">
        <ele>604.555394</ele>
        <time>2021-11-03T16:20:50.182Z</time>
      </trkpt>
      <trkpt lat="39.151066" lon="-1.642223">
        <ele>604.478867</ele>
        <time>2021-11-03T16:20:50.182Z</time>
      </trkpt>
      <trkpt lat="39.151633" lon="-1.642154">
        <ele>604.549616</ele>
        <time>2021-11-03T16:20:50.182Z</time>
      </trkpt>
      <trkpt lat="39.152183" lon="-1.642004">
        <ele>605.702199</ele>
        <time>2021-11-03T16:20:50.182Z</time>
      </trkpt>
      <trkpt lat="39.152299" lon="-1.641974">
        <ele>605.944764</ele>
        <time>2021-11-03T16:20:50.182Z</time>
      </trkpt>
      <trkpt lat="39.152580" lon="-1.641888">
        <ele>606.536888</ele>
        <time>2021-11-03T16:20:50.182Z</time>
      </trkpt>
      <trkpt lat="39.152794" lon="-1.641778">
        <ele>607.009214</ele>
        <time>2021-11-03T16:20:50.182Z</time>
      </trkpt>
      <trkpt lat="39.152894" lon="-1.641702">
        <ele>607.247196</ele>
        <time>2021-11-03T16:20:50.182Z</time>
      </trkpt>
      <trkpt lat="39.153149" lon="-1.641513">
        <ele>607.850213</ele>
        <time>2021-11-03T16:20:50.182Z</time>
      </trkpt>
      <trkpt lat="39.153343" lon="-1.641340">
        <ele>608.211579</ele>
        <time>2021-11-03T16:20:50.182Z</time>
      </trkpt>
      <trkpt lat="39.153569" lon="-1.641000">
        <ele>608.567387</ele>
        <time>2021-11-03T16:20:50.182Z</time>
      </trkpt>
      <trkpt lat="39.153732" lon="-1.640702">
        <ele>608.857136</ele>
        <time>2021-11-03T16:20:50.182Z</time>
      </trkpt>
      <trkpt lat="39.153923" lon="-1.640345">
        <ele>609.201747</ele>
        <time>2021-11-03T16:20:50.182Z</time>
      </trkpt>
      <trkpt lat="39.153991" lon="-1.640228">
        <ele>609.317920</ele>
        <time>2021-11-03T16:20:50.182Z</time>
      </trkpt>
      <trkpt lat="39.154286" lon="-1.639774">
        <ele>609.788536</ele>
        <time>2021-11-03T16:20:50.182Z</time>
      </trkpt>
      <trkpt lat="39.154653" lon="-1.639368">
        <ele>609.260878</ele>
        <time>2021-11-03T16:20:50.182Z</time>
      </trkpt>
      <trkpt lat="39.154755" lon="-1.639257">
        <ele>608.999691</ele>
        <time>2021-11-03T16:20:50.182Z</time>
      </trkpt>
      <trkpt lat="39.154965" lon="-1.639026">
        <ele>608.459526</ele>
        <time>2021-11-03T16:20:50.182Z</time>
      </trkpt>
      <trkpt lat="39.155019" lon="-1.638962">
        <ele>608.315998</ele>
        <time>2021-11-03T16:20:50.182Z</time>
      </trkpt>
      <trkpt lat="39.155174" lon="-1.638748">
        <ele>607.871619</ele>
        <time>2021-11-03T16:20:50.182Z</time>
      </trkpt>
      <trkpt lat="39.155249" lon="-1.638575">
        <ele>607.570845</ele>
        <time>2021-11-03T16:20:50.182Z</time>
      </trkpt>
      <trkpt lat="39.155323" lon="-1.638289">
        <ele>607.113312</ele>
        <time>2021-11-03T16:20:50.182Z</time>
      </trkpt>
      <trkpt lat="39.155370" lon="-1.638098">
        <ele>606.809223</ele>
        <time>2021-11-03T16:20:50.182Z</time>
      </trkpt>
      <trkpt lat="39.155440" lon="-1.637811">
        <ele>606.330726</ele>
        <time>2021-11-03T16:20:50.182Z</time>
      </trkpt>
      <trkpt lat="39.155553" lon="-1.637453">
        <ele>605.529100</ele>
        <time>2021-11-03T16:20:50.182Z</time>
      </trkpt>
      <trkpt lat="39.155588" lon="-1.637370">
        <ele>605.333156</ele>
        <time>2021-11-03T16:20:50.182Z</time>
      </trkpt>
      <trkpt lat="39.155736" lon="-1.637053">
        <ele>604.565751</ele>
        <time>2021-11-03T16:20:50.182Z</time>
      </trkpt>
      <trkpt lat="39.155779" lon="-1.636986">
        <ele>604.385378</ele>
        <time>2021-11-03T16:20:50.182Z</time>
      </trkpt>
      <trkpt lat="39.155829" lon="-1.636927">
        <ele>604.204116</ele>
        <time>2021-11-03T16:20:50.182Z</time>
      </trkpt>
      <trkpt lat="39.155883" lon="-1.636875">
        <ele>604.023868</ele>
        <time>2021-11-03T16:20:50.182Z</time>
      </trkpt>
      <trkpt lat="39.156133" lon="-1.636692">
        <ele>603.255025</ele>
        <time>2021-11-03T16:20:50.182Z</time>
      </trkpt>
      <trkpt lat="39.156413" lon="-1.636508">
        <ele>602.414528</ele>
        <time>2021-11-03T16:20:50.182Z</time>
      </trkpt>
      <trkpt lat="39.156643" lon="-1.636369">
        <ele>601.735184</ele>
        <time>2021-11-03T16:20:50.182Z</time>
      </trkpt>
      <trkpt lat="39.156803" lon="-1.636272">
        <ele>601.871477</ele>
        <time>2021-11-03T16:20:50.182Z</time>
      </trkpt>
      <trkpt lat="39.157181" lon="-1.636007">
        <ele>602.784952</ele>
        <time>2021-11-03T16:20:50.182Z</time>
      </trkpt>
      <trkpt lat="39.157250" lon="-1.635950">
        <ele>602.958929</ele>
        <time>2021-11-03T16:20:50.182Z</time>
      </trkpt>
      <trkpt lat="39.157519" lon="-1.635642">
        <ele>603.722677</ele>
        <time>2021-11-03T16:20:50.182Z</time>
      </trkpt>
      <trkpt lat="39.157557" lon="-1.635578">
        <ele>603.855384</ele>
        <time>2021-11-03T16:20:50.182Z</time>
      </trkpt>
      <trkpt lat="39.157593" lon="-1.635516">
        <ele>603.982902</ele>
        <time>2021-11-03T16:20:50.182Z</time>
      </trkpt>
      <trkpt lat="39.157659" lon="-1.635400">
        <ele>604.219772</ele>
        <time>2021-11-03T16:20:50.182Z</time>
      </trkpt>
      <trkpt lat="39.157720" lon="-1.635294">
        <ele>604.437091</ele>
        <time>2021-11-03T16:20:50.182Z</time>
      </trkpt>
      <trkpt lat="39.157749" lon="-1.635243">
        <ele>604.541210</ele>
        <time>2021-11-03T16:20:50.182Z</time>
      </trkpt>
      <trkpt lat="39.157833" lon="-1.635100">
        <ele>604.836560</ele>
        <time>2021-11-03T16:20:50.182Z</time>
      </trkpt>
      <trkpt lat="39.157918" lon="-1.634896">
        <ele>605.217826</ele>
        <time>2021-11-03T16:20:50.182Z</time>
      </trkpt>
      <trkpt lat="39.157947" lon="-1.634783">
        <ele>605.413785</ele>
        <time>2021-11-03T16:20:50.182Z</time>
      </trkpt>
      <trkpt lat="39.157970" lon="-1.634542">
        <ele>605.371298</ele>
        <time>2021-11-03T16:20:50.182Z</time>
      </trkpt>
      <trkpt lat="39.157971" lon="-1.634481">
        <ele>605.358659</ele>
        <time>2021-11-03T16:20:50.182Z</time>
      </trkpt>
      <trkpt lat="39.157954" lon="-1.634052">
        <ele>605.269680</ele>
        <time>2021-11-03T16:20:50.182Z</time>
      </trkpt>
      <trkpt lat="39.157940" lon="-1.634020">
        <ele>605.262070</ele>
        <time>2021-11-03T16:20:50.182Z</time>
      </trkpt>
      <trkpt lat="39.157933" lon="-1.633855">
        <ele>605.227840</ele>
        <time>2021-11-03T16:20:50.182Z</time>
      </trkpt>
      <trkpt lat="39.157934" lon="-1.633788">
        <ele>605.213959</ele>
        <time>2021-11-03T16:20:50.182Z</time>
      </trkpt>
      <trkpt lat="39.157927" lon="-1.633433">
        <ele>605.140401</ele>
        <time>2021-11-03T16:20:50.182Z</time>
      </trkpt>
      <trkpt lat="39.157927" lon="-1.633279">
        <ele>605.108501</ele>
        <time>2021-11-03T16:20:50.182Z</time>
      </trkpt>
      <trkpt lat="39.157947" lon="-1.632977">
        <ele>605.045717</ele>
        <time>2021-11-03T16:20:50.182Z</time>
      </trkpt>
      <trkpt lat="39.157969" lon="-1.632836">
        <ele>605.015925</ele>
        <time>2021-11-03T16:20:50.182Z</time>
      </trkpt>
      <trkpt lat="39.158026" lon="-1.632391">
        <ele>604.923619</ele>
        <time>2021-11-03T16:20:50.182Z</time>
      </trkpt>
      <trkpt lat="39.158158" lon="-1.631958">
        <ele>604.833330</ele>
        <time>2021-11-03T16:20:50.182Z</time>
      </trkpt>
      <trkpt lat="39.158188" lon="-1.631892">
        <ele>604.818483</ele>
        <time>2021-11-03T16:20:50.182Z</time>
      </trkpt>
      <trkpt lat="39.158222" lon="-1.631828">
        <ele>604.803428</ele>
        <time>2021-11-03T16:20:50.182Z</time>
      </trkpt>
      <trkpt lat="39.158299" lon="-1.631705">
        <ele>604.772750</ele>
        <time>2021-11-03T16:20:50.182Z</time>
      </trkpt>
      <trkpt lat="39.158343" lon="-1.631648">
        <ele>604.757142</ele>
        <time>2021-11-03T16:20:50.182Z</time>
      </trkpt>
      <trkpt lat="39.158437" lon="-1.631533">
        <ele>604.724716</ele>
        <time>2021-11-03T16:20:50.182Z</time>
      </trkpt>
      <trkpt lat="39.158552" lon="-1.631336">
        <ele>604.676863</ele>
        <time>2021-11-03T16:20:50.182Z</time>
      </trkpt>
      <trkpt lat="39.158584" lon="-1.631264">
        <ele>604.660758</ele>
        <time>2021-11-03T16:20:50.182Z</time>
      </trkpt>
      <trkpt lat="39.158792" lon="-1.630719">
        <ele>604.542879</ele>
        <time>2021-11-03T16:20:50.182Z</time>
      </trkpt>
      <trkpt lat="39.158819" lon="-1.630642">
        <ele>604.526480</ele>
        <time>2021-11-03T16:20:50.182Z</time>
      </trkpt>
      <trkpt lat="39.158891" lon="-1.630422">
        <ele>604.420324</ele>
        <time>2021-11-03T16:20:50.182Z</time>
      </trkpt>
      <trkpt lat="39.158973" lon="-1.630217">
        <ele>604.106526</ele>
        <time>2021-11-03T16:20:50.182Z</time>
      </trkpt>
      <trkpt lat="39.159008" lon="-1.630158">
        <ele>604.005468</ele>
        <time>2021-11-03T16:20:50.182Z</time>
      </trkpt>
      <trkpt lat="39.159109" lon="-1.630076">
        <ele>603.796083</ele>
        <time>2021-11-03T16:20:50.182Z</time>
      </trkpt>
      <trkpt lat="39.159169" lon="-1.630041">
        <ele>603.680550</ele>
        <time>2021-11-03T16:20:50.182Z</time>
      </trkpt>
      <trkpt lat="39.159224" lon="-1.629998">
        <ele>603.567710</ele>
        <time>2021-11-03T16:20:50.182Z</time>
      </trkpt>
      <trkpt lat="39.159266" lon="-1.629943">
        <ele>603.462697</ele>
        <time>2021-11-03T16:20:50.182Z</time>
      </trkpt>
      <trkpt lat="39.159290" lon="-1.629873">
        <ele>603.358578</ele>
        <time>2021-11-03T16:20:50.182Z</time>
      </trkpt>
      <trkpt lat="39.159277" lon="-1.629725">
        <ele>603.155955</ele>
        <time>2021-11-03T16:20:50.182Z</time>
      </trkpt>
      <trkpt lat="39.159254" lon="-1.629655">
        <ele>603.052532</ele>
        <time>2021-11-03T16:20:50.182Z</time>
      </trkpt>
      <trkpt lat="39.159214" lon="-1.629520">
        <ele>602.855931</ele>
        <time>2021-11-03T16:20:50.182Z</time>
      </trkpt>
      <trkpt lat="39.159219" lon="-1.629381">
        <ele>602.666636</ele>
        <time>2021-11-03T16:20:50.182Z</time>
      </trkpt>
      <trkpt lat="39.159272" lon="-1.629189">
        <ele>602.389387</ele>
        <time>2021-11-03T16:20:50.182Z</time>
      </trkpt>
      <trkpt lat="39.159296" lon="-1.629134">
        <ele>602.303532</ele>
        <time>2021-11-03T16:20:50.182Z</time>
      </trkpt>
      <trkpt lat="39.159324" lon="-1.629079">
        <ele>602.214026</ele>
        <time>2021-11-03T16:20:50.182Z</time>
      </trkpt>
      <trkpt lat="39.159360" lon="-1.629024">
        <ele>602.116112</ele>
        <time>2021-11-03T16:20:50.182Z</time>
      </trkpt>
      <trkpt lat="39.159438" lon="-1.628902">
        <ele>601.901005</ele>
        <time>2021-11-03T16:20:50.182Z</time>
      </trkpt>
      <trkpt lat="39.159462" lon="-1.628829">
        <ele>601.793141</ele>
        <time>2021-11-03T16:20:50.182Z</time>
      </trkpt>
      <trkpt lat="39.159469" lon="-1.628751">
        <ele>601.686324</ele>
        <time>2021-11-03T16:20:50.182Z</time>
      </trkpt>
      <trkpt lat="39.159446" lon="-1.628604">
        <ele>601.482319</ele>
        <time>2021-11-03T16:20:50.182Z</time>
      </trkpt>
      <trkpt lat="39.159403" lon="-1.628396">
        <ele>601.292505</ele>
        <time>2021-11-03T16:20:50.182Z</time>
      </trkpt>
      <trkpt lat="39.159406" lon="-1.628205">
        <ele>601.217241</ele>
        <time>2021-11-03T16:20:50.182Z</time>
      </trkpt>
      <trkpt lat="39.159413" lon="-1.628022">
        <ele>601.145056</ele>
        <time>2021-11-03T16:20:50.182Z</time>
      </trkpt>
      <trkpt lat="39.159416" lon="-1.627958">
        <ele>601.119796</ele>
        <time>2021-11-03T16:20:50.182Z</time>
      </trkpt>
      <trkpt lat="39.159411" lon="-1.627896">
        <ele>601.095238</ele>
        <time>2021-11-03T16:20:50.182Z</time>
      </trkpt>
      <trkpt lat="39.159399" lon="-1.627833">
        <ele>601.069680</ele>
        <time>2021-11-03T16:20:50.182Z</time>
      </trkpt>
      <trkpt lat="39.159377" lon="-1.627688">
        <ele>601.011471</ele>
        <time>2021-11-03T16:20:50.182Z</time>
      </trkpt>
      <trkpt lat="39.159376" lon="-1.627613">
        <ele>600.981919</ele>
        <time>2021-11-03T16:20:50.182Z</time>
      </trkpt>
      <trkpt lat="39.159383" lon="-1.627538">
        <ele>600.952158</ele>
        <time>2021-11-03T16:20:50.182Z</time>
      </trkpt>
      <trkpt lat="39.159373" lon="-1.627390">
        <ele>600.893629</ele>
        <time>2021-11-03T16:20:50.182Z</time>
      </trkpt>
      <trkpt lat="39.159274" lon="-1.626920">
        <ele>600.701752</ele>
        <time>2021-11-03T16:20:50.182Z</time>
      </trkpt>
      <trkpt lat="39.159200" lon="-1.626705">
        <ele>600.609079</ele>
        <time>2021-11-03T16:20:50.182Z</time>
      </trkpt>
      <trkpt lat="39.159161" lon="-1.626565">
        <ele>600.550471</ele>
        <time>2021-11-03T16:20:50.182Z</time>
      </trkpt>
      <trkpt lat="39.159133" lon="-1.626437">
        <ele>600.498074</ele>
        <time>2021-11-03T16:20:50.182Z</time>
      </trkpt>
      <trkpt lat="39.159078" lon="-1.626326">
        <ele>600.446177</ele>
        <time>2021-11-03T16:20:50.182Z</time>
      </trkpt>
      <trkpt lat="39.158943" lon="-1.626094">
        <ele>600.652251</ele>
        <time>2021-11-03T16:20:50.182Z</time>
      </trkpt>
      <trkpt lat="39.158850" lon="-1.625983">
        <ele>600.820322</ele>
        <time>2021-11-03T16:20:50.182Z</time>
      </trkpt>
      <trkpt lat="39.158631" lon="-1.625704">
        <ele>601.228620</ele>
        <time>2021-11-03T16:20:50.182Z</time>
      </trkpt>
      <trkpt lat="39.158586" lon="-1.625650">
        <ele>601.310148</ele>
        <time>2021-11-03T16:20:50.182Z</time>
      </trkpt>
      <trkpt lat="39.158413" lon="-1.625448">
        <ele>601.619682</ele>
        <time>2021-11-03T16:20:50.182Z</time>
      </trkpt>
      <trkpt lat="39.158325" lon="-1.625367">
        <ele>601.763080</ele>
        <time>2021-11-03T16:20:50.182Z</time>
      </trkpt>
      <trkpt lat="39.158249" lon="-1.625289">
        <ele>601.891908</ele>
        <time>2021-11-03T16:20:50.182Z</time>
      </trkpt>
      <trkpt lat="39.158116" lon="-1.625129">
        <ele>602.133148</ele>
        <time>2021-11-03T16:20:50.182Z</time>
      </trkpt>
      <trkpt lat="39.158053" lon="-1.625061">
        <ele>602.242113</ele>
        <time>2021-11-03T16:20:50.182Z</time>
      </trkpt>
      <trkpt lat="39.157899" lon="-1.624870">
        <ele>602.525501</ele>
        <time>2021-11-03T16:20:50.182Z</time>
      </trkpt>
      <trkpt lat="39.157845" lon="-1.624776">
        <ele>602.645818</ele>
        <time>2021-11-03T16:20:50.182Z</time>
      </trkpt>
      <trkpt lat="39.157721" lon="-1.624643">
        <ele>602.887230</ele>
        <time>2021-11-03T16:20:50.182Z</time>
      </trkpt>
      <trkpt lat="39.157693" lon="-1.624608">
        <ele>602.965548</ele>
        <time>2021-11-03T16:20:50.182Z</time>
      </trkpt>
      <trkpt lat="39.157645" lon="-1.624530">
        <ele>603.120630</ele>
        <time>2021-11-03T16:20:50.182Z</time>
      </trkpt>
      <trkpt lat="39.157577" lon="-1.624460">
        <ele>603.295379</ele>
        <time>2021-11-03T16:20:50.182Z</time>
      </trkpt>
      <trkpt lat="39.157483" lon="-1.624410">
        <ele>603.499602</ele>
        <time>2021-11-03T16:20:50.182Z</time>
      </trkpt>
      <trkpt lat="39.157366" lon="-1.624364">
        <ele>603.745268</ele>
        <time>2021-11-03T16:20:50.182Z</time>
      </trkpt>
      <trkpt lat="39.157173" lon="-1.624285">
        <ele>604.151957</ele>
        <time>2021-11-03T16:20:50.182Z</time>
      </trkpt>
      <trkpt lat="39.157038" lon="-1.624266">
        <ele>604.424708</ele>
        <time>2021-11-03T16:20:50.182Z</time>
      </trkpt>
      <trkpt lat="39.156971" lon="-1.624257">
        <ele>604.560002</ele>
        <time>2021-11-03T16:20:50.182Z</time>
      </trkpt>
      <trkpt lat="39.156845" lon="-1.624225">
        <ele>604.817928</ele>
        <time>2021-11-03T16:20:50.182Z</time>
      </trkpt>
      <trkpt lat="39.156730" lon="-1.624189">
        <ele>605.055607</ele>
        <time>2021-11-03T16:20:50.182Z</time>
      </trkpt>
      <trkpt lat="39.156556" lon="-1.624176">
        <ele>605.405664</ele>
        <time>2021-11-03T16:20:50.182Z</time>
      </trkpt>
      <trkpt lat="39.156484" lon="-1.624176">
        <ele>605.550273</ele>
        <time>2021-11-03T16:20:50.182Z</time>
      </trkpt>
      <trkpt lat="39.156414" lon="-1.624177">
        <ele>605.690873</ele>
        <time>2021-11-03T16:20:50.182Z</time>
      </trkpt>
      <trkpt lat="39.156268" lon="-1.624188">
        <ele>605.984607</ele>
        <time>2021-11-03T16:20:50.182Z</time>
      </trkpt>
      <trkpt lat="39.155931" lon="-1.624275">
        <ele>607.409317</ele>
        <time>2021-11-03T16:20:50.182Z</time>
      </trkpt>
      <trkpt lat="39.155679" lon="-1.624310">
        <ele>609.378080</ele>
        <time>2021-11-03T16:20:50.182Z</time>
      </trkpt>
      <trkpt lat="39.155556" lon="-1.624329">
        <ele>610.340329</ele>
        <time>2021-11-03T16:20:50.182Z</time>
      </trkpt>
      <trkpt lat="39.155482" lon="-1.624328">
        <ele>610.915166</ele>
        <time>2021-11-03T16:20:50.182Z</time>
      </trkpt>
      <trkpt lat="39.155350" lon="-1.624297">
        <ele>611.957357</ele>
        <time>2021-11-03T16:20:50.182Z</time>
      </trkpt>
      <trkpt lat="39.155321" lon="-1.624289">
        <ele>612.187714</ele>
        <time>2021-11-03T16:20:50.182Z</time>
      </trkpt>
      <trkpt lat="39.155226" lon="-1.624261">
        <ele>612.944667</ele>
        <time>2021-11-03T16:20:50.182Z</time>
      </trkpt>
      <trkpt lat="39.155152" lon="-1.624242">
        <ele>613.530754</ele>
        <time>2021-11-03T16:20:50.182Z</time>
      </trkpt>
      <trkpt lat="39.155075" lon="-1.624235">
        <ele>614.130346</ele>
        <time>2021-11-03T16:20:50.182Z</time>
      </trkpt>
      <trkpt lat="39.154999" lon="-1.624214">
        <ele>614.734086</ele>
        <time>2021-11-03T16:20:50.182Z</time>
      </trkpt>
      <trkpt lat="39.154949" lon="-1.624189">
        <ele>615.150638</ele>
        <time>2021-11-03T16:20:50.182Z</time>
      </trkpt>
      <trkpt lat="39.154871" lon="-1.624120">
        <ele>615.885361</ele>
        <time>2021-11-03T16:20:50.182Z</time>
      </trkpt>
      <trkpt lat="39.154842" lon="-1.624090">
        <ele>616.174143</ele>
        <time>2021-11-03T16:20:50.182Z</time>
      </trkpt>
      <trkpt lat="39.154803" lon="-1.624041">
        <ele>616.597087</ele>
        <time>2021-11-03T16:20:50.182Z</time>
      </trkpt>
      <trkpt lat="39.154759" lon="-1.623950">
        <ele>617.243038</ele>
        <time>2021-11-03T16:20:50.182Z</time>
      </trkpt>
      <trkpt lat="39.154734" lon="-1.623910">
        <ele>617.552488</ele>
        <time>2021-11-03T16:20:50.182Z</time>
      </trkpt>
      <trkpt lat="39.154670" lon="-1.623804">
        <ele>618.361679</ele>
        <time>2021-11-03T16:20:50.182Z</time>
      </trkpt>
      <trkpt lat="39.154628" lon="-1.623745">
        <ele>618.844097</ele>
        <time>2021-11-03T16:20:50.182Z</time>
      </trkpt>
      <trkpt lat="39.154568" lon="-1.623644">
        <ele>619.610460</ele>
        <time>2021-11-03T16:20:50.182Z</time>
      </trkpt>
      <trkpt lat="39.154556" lon="-1.623628">
        <ele>619.744536</ele>
        <time>2021-11-03T16:20:50.182Z</time>
      </trkpt>
      <trkpt lat="39.154495" lon="-1.623508">
        <ele>620.642390</ele>
        <time>2021-11-03T16:20:50.182Z</time>
      </trkpt>
      <trkpt lat="39.154484" lon="-1.623487">
        <ele>620.818462</ele>
        <time>2021-11-03T16:20:50.182Z</time>
      </trkpt>
      <trkpt lat="39.154465" lon="-1.623440">
        <ele>621.186719</ele>
        <time>2021-11-03T16:20:50.182Z</time>
      </trkpt>
      <trkpt lat="39.154428" lon="-1.623384">
        <ele>621.697875</ele>
        <time>2021-11-03T16:20:50.182Z</time>
      </trkpt>
      <trkpt lat="39.154406" lon="-1.623344">
        <ele>622.038595</ele>
        <time>2021-11-03T16:20:50.182Z</time>
      </trkpt>
      <trkpt lat="39.154397" lon="-1.623323">
        <ele>622.205299</ele>
        <time>2021-11-03T16:20:50.182Z</time>
      </trkpt>
      <trkpt lat="39.154385" lon="-1.623302">
        <ele>622.386539</ele>
        <time>2021-11-03T16:20:50.182Z</time>
      </trkpt>
      <trkpt lat="39.154358" lon="-1.623268">
        <ele>622.724659</ele>
        <time>2021-11-03T16:20:50.182Z</time>
      </trkpt>
      <trkpt lat="39.154345" lon="-1.623251">
        <ele>622.890543</ele>
        <time>2021-11-03T16:20:50.182Z</time>
      </trkpt>
      <trkpt lat="39.154290" lon="-1.623155">
        <ele>623.719829</ele>
        <time>2021-11-03T16:20:50.182Z</time>
      </trkpt>
      <trkpt lat="39.154277" lon="-1.623136">
        <ele>623.895878</ele>
        <time>2021-11-03T16:20:50.182Z</time>
      </trkpt>
      <trkpt lat="39.154246" lon="-1.623106">
        <ele>624.243141</ele>
        <time>2021-11-03T16:20:50.182Z</time>
      </trkpt>
      <trkpt lat="39.154221" lon="-1.623073">
        <ele>624.563674</ele>
        <time>2021-11-03T16:20:50.182Z</time>
      </trkpt>
      <trkpt lat="39.154212" lon="-1.623050">
        <ele>624.742668</ele>
        <time>2021-11-03T16:20:50.182Z</time>
      </trkpt>
      <trkpt lat="39.154200" lon="-1.623029">
        <ele>624.923908</ele>
        <time>2021-11-03T16:20:50.182Z</time>
      </trkpt>
      <trkpt lat="39.154122" lon="-1.622948">
        <ele>625.821194</ele>
        <time>2021-11-03T16:20:50.182Z</time>
      </trkpt>
      <trkpt lat="39.154087" lon="-1.622885">
        <ele>626.359649</ele>
        <time>2021-11-03T16:20:50.182Z</time>
      </trkpt>
      <trkpt lat="39.154050" lon="-1.622826">
        <ele>626.886845</ele>
        <time>2021-11-03T16:20:50.182Z</time>
      </trkpt>
      <trkpt lat="39.154030" lon="-1.622781">
        <ele>627.247210</ele>
        <time>2021-11-03T16:20:50.182Z</time>
      </trkpt>
      <trkpt lat="39.153991" lon="-1.622685">
        <ele>628.000193</ele>
        <time>2021-11-03T16:20:50.182Z</time>
      </trkpt>
      <trkpt lat="39.153956" lon="-1.622593">
        <ele>628.712176</ele>
        <time>2021-11-03T16:20:50.182Z</time>
      </trkpt>
      <trkpt lat="39.153932" lon="-1.622516">
        <ele>629.288760</ele>
        <time>2021-11-03T16:20:50.182Z</time>
      </trkpt>
      <trkpt lat="39.153910" lon="-1.622438">
        <ele>629.865428</ele>
        <time>2021-11-03T16:20:50.182Z</time>
      </trkpt>
      <trkpt lat="39.153869" lon="-1.622309">
        <ele>630.834063</ele>
        <time>2021-11-03T16:20:50.182Z</time>
      </trkpt>
      <trkpt lat="39.153817" lon="-1.622178">
        <ele>631.856551</ele>
        <time>2021-11-03T16:20:50.182Z</time>
      </trkpt>
      <trkpt lat="39.153783" lon="-1.622139">
        <ele>632.264256</ele>
        <time>2021-11-03T16:20:50.182Z</time>
      </trkpt>
      <trkpt lat="39.153727" lon="-1.622089">
        <ele>632.874528</ele>
        <time>2021-11-03T16:20:50.182Z</time>
      </trkpt>
      <trkpt lat="39.153708" lon="-1.622075">
        <ele>633.070594</ele>
        <time>2021-11-03T16:20:50.182Z</time>
      </trkpt>
      <trkpt lat="39.153644" lon="-1.622055">
        <ele>633.660615</ele>
        <time>2021-11-03T16:20:50.182Z</time>
      </trkpt>
      <trkpt lat="39.153622" lon="-1.622061">
        <ele>633.862089</ele>
        <time>2021-11-03T16:20:50.182Z</time>
      </trkpt>
      <trkpt lat="39.153580" lon="-1.622072">
        <ele>634.246081</ele>
        <time>2021-11-03T16:20:50.182Z</time>
      </trkpt>
      <trkpt lat="39.153492" lon="-1.622088">
        <ele>635.042338</ele>
        <time>2021-11-03T16:20:50.182Z</time>
      </trkpt>
      <trkpt lat="39.153449" lon="-1.622100">
        <ele>635.436526</ele>
        <time>2021-11-03T16:20:50.182Z</time>
      </trkpt>
      <trkpt lat="39.153365" lon="-1.622100">
        <ele>636.189145</ele>
        <time>2021-11-03T16:20:50.182Z</time>
      </trkpt>
      <trkpt lat="39.153343" lon="-1.622088">
        <ele>636.403167</ele>
        <time>2021-11-03T16:20:50.182Z</time>
      </trkpt>
      <trkpt lat="39.153215" lon="-1.622018">
        <ele>636.719118</ele>
        <time>2021-11-03T16:20:50.182Z</time>
      </trkpt>
      <trkpt lat="39.153195" lon="-1.622004">
        <ele>636.757231</ele>
        <time>2021-11-03T16:20:50.182Z</time>
      </trkpt>
      <trkpt lat="39.153136" lon="-1.621962">
        <ele>636.870102</ele>
        <time>2021-11-03T16:20:50.182Z</time>
      </trkpt>
      <trkpt lat="39.153038" lon="-1.621886">
        <ele>637.061629</ele>
        <time>2021-11-03T16:20:50.182Z</time>
      </trkpt>
      <trkpt lat="39.153003" lon="-1.621849">
        <ele>637.137427</ele>
        <time>2021-11-03T16:20:50.182Z</time>
      </trkpt>
      <trkpt lat="39.152939" lon="-1.621731">
        <ele>637.324447</ele>
        <time>2021-11-03T16:20:50.182Z</time>
      </trkpt>
      <trkpt lat="39.152924" lon="-1.621677">
        <ele>637.398944</ele>
        <time>2021-11-03T16:20:50.182Z</time>
      </trkpt>
      <trkpt lat="39.152930" lon="-1.621579">
        <ele>637.526619</ele>
        <time>2021-11-03T16:20:50.182Z</time>
      </trkpt>
      <trkpt lat="39.153008" lon="-1.621473">
        <ele>637.716405</ele>
        <time>2021-11-03T16:20:50.182Z</time>
      </trkpt>
      <trkpt lat="39.153035" lon="-1.621453">
        <ele>637.768555</ele>
        <time>2021-11-03T16:20:50.182Z</time>
      </trkpt>
      <trkpt lat="39.153235" lon="-1.621350">
        <ele>638.129244</ele>
        <time>2021-11-03T16:20:50.182Z</time>
      </trkpt>
      <trkpt lat="39.153272" lon="-1.621329">
        <ele>638.196949</ele>
        <time>2021-11-03T16:20:50.182Z</time>
      </trkpt>
      <trkpt lat="39.153349" lon="-1.621286">
        <ele>638.337483</ele>
        <time>2021-11-03T16:20:50.182Z</time>
      </trkpt>
      <trkpt lat="39.153428" lon="-1.621241">
        <ele>638.482128</ele>
        <time>2021-11-03T16:20:50.182Z</time>
      </trkpt>
      <trkpt lat="39.153469" lon="-1.621224">
        <ele>638.554258</ele>
        <time>2021-11-03T16:20:50.182Z</time>
      </trkpt>
      <trkpt lat="39.153556" lon="-1.621208">
        <ele>638.701442</ele>
        <time>2021-11-03T16:20:50.182Z</time>
      </trkpt>
      <trkpt lat="39.153655" lon="-1.621203">
        <ele>638.867377</ele>
        <time>2021-11-03T16:20:50.182Z</time>
      </trkpt>
      <trkpt lat="39.153906" lon="-1.621219">
        <ele>639.288271</ele>
        <time>2021-11-03T16:20:50.182Z</time>
      </trkpt>
      <trkpt lat="39.153971" lon="-1.621236">
        <ele>639.399351</ele>
        <time>2021-11-03T16:20:50.182Z</time>
      </trkpt>
      <trkpt lat="39.154098" lon="-1.621317">
        <ele>639.328045</ele>
        <time>2021-11-03T16:20:50.182Z</time>
      </trkpt>
      <trkpt lat="39.154155" lon="-1.621378">
        <ele>639.130036</ele>
        <time>2021-11-03T16:20:50.182Z</time>
      </trkpt>
      <trkpt lat="39.154213" lon="-1.621437">
        <ele>638.932557</ele>
        <time>2021-11-03T16:20:50.182Z</time>
      </trkpt>
      <trkpt lat="39.154354" lon="-1.621495">
        <ele>638.536920</ele>
        <time>2021-11-03T16:20:50.182Z</time>
      </trkpt>
      <trkpt lat="39.154493" lon="-1.621444">
        <ele>638.150594</ele>
        <time>2021-11-03T16:20:50.182Z</time>
      </trkpt>
      <trkpt lat="39.154542" lon="-1.621380">
        <ele>637.964157</ele>
        <time>2021-11-03T16:20:50.182Z</time>
      </trkpt>
      <trkpt lat="39.154576" lon="-1.621303">
        <ele>637.780476</ele>
        <time>2021-11-03T16:20:50.182Z</time>
      </trkpt>
      <trkpt lat="39.154603" lon="-1.621227">
        <ele>637.607186</ele>
        <time>2021-11-03T16:20:50.182Z</time>
      </trkpt>
      <trkpt lat="39.154632" lon="-1.621156">
        <ele>637.440838</ele>
        <time>2021-11-03T16:20:50.182Z</time>
      </trkpt>
      <trkpt lat="39.154713" lon="-1.621039">
        <ele>637.115709</ele>
        <time>2021-11-03T16:20:50.182Z</time>
      </trkpt>
      <trkpt lat="39.154764" lon="-1.620993">
        <ele>636.949337</ele>
        <time>2021-11-03T16:20:50.182Z</time>
      </trkpt>
      <trkpt lat="39.154999" lon="-1.620810">
        <ele>636.215477</ele>
        <time>2021-11-03T16:20:50.182Z</time>
      </trkpt>
      <trkpt lat="39.155051" lon="-1.620743">
        <ele>636.018976</ele>
        <time>2021-11-03T16:20:50.182Z</time>
      </trkpt>
      <trkpt lat="39.155094" lon="-1.620664">
        <ele>635.818898</ele>
        <time>2021-11-03T16:20:50.182Z</time>
      </trkpt>
      <trkpt lat="39.155177" lon="-1.620500">
        <ele>635.412939</ele>
        <time>2021-11-03T16:20:50.182Z</time>
      </trkpt>
      <trkpt lat="39.155231" lon="-1.620430">
        <ele>635.208260</ele>
        <time>2021-11-03T16:20:50.182Z</time>
      </trkpt>
      <trkpt lat="39.155297" lon="-1.620373">
        <ele>634.995916</ele>
        <time>2021-11-03T16:20:50.182Z</time>
      </trkpt>
      <trkpt lat="39.155371" lon="-1.620329">
        <ele>634.778083</ele>
        <time>2021-11-03T16:20:50.182Z</time>
      </trkpt>
      <trkpt lat="39.155450" lon="-1.620296">
        <ele>634.464855</ele>
        <time>2021-11-03T16:20:50.182Z</time>
      </trkpt>
      <trkpt lat="39.155615" lon="-1.620245">
        <ele>633.741664</ele>
        <time>2021-11-03T16:20:50.182Z</time>
      </trkpt>
      <trkpt lat="39.155701" lon="-1.620234">
        <ele>633.373311</ele>
        <time>2021-11-03T16:20:50.182Z</time>
      </trkpt>
      <trkpt lat="39.155788" lon="-1.620239">
        <ele>633.002127</ele>
        <time>2021-11-03T16:20:50.182Z</time>
      </trkpt>
      <trkpt lat="39.155875" lon="-1.620258">
        <ele>632.626030</ele>
        <time>2021-11-03T16:20:50.182Z</time>
      </trkpt>
      <trkpt lat="39.156035" lon="-1.620287">
        <ele>631.937366</ele>
        <time>2021-11-03T16:20:50.182Z</time>
      </trkpt>
      <trkpt lat="39.156107" lon="-1.620262">
        <ele>631.619555</ele>
        <time>2021-11-03T16:20:50.182Z</time>
      </trkpt>
      <trkpt lat="39.156170" lon="-1.620209">
        <ele>631.298948</ele>
        <time>2021-11-03T16:20:50.182Z</time>
      </trkpt>
      <trkpt lat="39.156228" lon="-1.620150">
        <ele>630.984087</ele>
        <time>2021-11-03T16:20:50.182Z</time>
      </trkpt>
      <trkpt lat="39.156294" lon="-1.620104">
        <ele>630.664323</ele>
        <time>2021-11-03T16:20:50.182Z</time>
      </trkpt>
      <trkpt lat="39.156605" lon="-1.620032">
        <ele>629.317570</ele>
        <time>2021-11-03T16:20:50.182Z</time>
      </trkpt>
      <trkpt lat="39.156775" lon="-1.620016">
        <ele>628.591059</ele>
        <time>2021-11-03T16:20:50.182Z</time>
      </trkpt>
      <trkpt lat="39.156938" lon="-1.619975">
        <ele>627.883219</ele>
        <time>2021-11-03T16:20:50.182Z</time>
      </trkpt>
      <trkpt lat="39.156994" lon="-1.619928">
        <ele>627.598437</ele>
        <time>2021-11-03T16:20:50.182Z</time>
      </trkpt>
      <trkpt lat="39.157022" lon="-1.619863">
        <ele>627.352686</ele>
        <time>2021-11-03T16:20:50.182Z</time>
      </trkpt>
      <trkpt lat="39.157027" lon="-1.619783">
        <ele>627.087426</ele>
        <time>2021-11-03T16:20:50.182Z</time>
      </trkpt>
      <trkpt lat="39.157016" lon="-1.619608">
        <ele>626.471823</ele>
        <time>2021-11-03T16:20:50.182Z</time>
      </trkpt>
      <trkpt lat="39.157046" lon="-1.619434">
        <ele>625.843890</ele>
        <time>2021-11-03T16:20:50.182Z</time>
      </trkpt>
      <trkpt lat="39.157085" lon="-1.619359">
        <ele>625.525772</ele>
        <time>2021-11-03T16:20:50.182Z</time>
      </trkpt>
      <trkpt lat="39.157134" lon="-1.619285">
        <ele>625.182971</ele>
        <time>2021-11-03T16:20:50.182Z</time>
      </trkpt>
      <trkpt lat="39.157190" lon="-1.619216">
        <ele>624.831106</ele>
        <time>2021-11-03T16:20:50.182Z</time>
      </trkpt>
      <trkpt lat="39.157253" lon="-1.619153">
        <ele>624.468927</ele>
        <time>2021-11-03T16:20:50.182Z</time>
      </trkpt>
      <trkpt lat="39.157326" lon="-1.619099">
        <ele>624.086598</ele>
        <time>2021-11-03T16:20:50.182Z</time>
      </trkpt>
      <trkpt lat="39.157404" lon="-1.619053">
        <ele>623.696945</ele>
        <time>2021-11-03T16:20:50.182Z</time>
      </trkpt>
      <trkpt lat="39.157486" lon="-1.619014">
        <ele>623.299886</ele>
        <time>2021-11-03T16:20:50.182Z</time>
      </trkpt>
      <trkpt lat="39.157654" lon="-1.618938">
        <ele>622.491054</ele>
        <time>2021-11-03T16:20:50.182Z</time>
      </trkpt>
      <trkpt lat="39.157815" lon="-1.618849">
        <ele>621.695256</ele>
        <time>2021-11-03T16:20:50.182Z</time>
      </trkpt>
      <trkpt lat="39.157894" lon="-1.618815">
        <ele>621.316895</ele>
        <time>2021-11-03T16:20:50.182Z</time>
      </trkpt>
      <trkpt lat="39.158053" lon="-1.618795">
        <ele>620.591119</ele>
        <time>2021-11-03T16:20:50.182Z</time>
      </trkpt>
      <trkpt lat="39.158196" lon="-1.618843">
        <ele>619.919814</ele>
        <time>2021-11-03T16:20:50.182Z</time>
      </trkpt>
      <trkpt lat="39.158255" lon="-1.618874">
        <ele>619.630381</ele>
        <time>2021-11-03T16:20:50.182Z</time>
      </trkpt>
      <trkpt lat="39.158312" lon="-1.618891">
        <ele>619.364591</ele>
        <time>2021-11-03T16:20:50.182Z</time>
      </trkpt>
      <trkpt lat="39.158422" lon="-1.618872">
        <ele>618.863597</ele>
        <time>2021-11-03T16:20:50.182Z</time>
      </trkpt>
      <trkpt lat="39.158505" lon="-1.618783">
        <ele>618.509406</ele>
        <time>2021-11-03T16:20:50.182Z</time>
      </trkpt>
      <trkpt lat="39.158577" lon="-1.618680">
        <ele>618.156567</ele>
        <time>2021-11-03T16:20:50.182Z</time>
      </trkpt>
      <trkpt lat="39.158743" lon="-1.618470">
        <ele>617.393559</ele>
        <time>2021-11-03T16:20:50.182Z</time>
      </trkpt>
      <trkpt lat="39.158845" lon="-1.618365">
        <ele>616.965317</ele>
        <time>2021-11-03T16:20:50.182Z</time>
      </trkpt>
      <trkpt lat="39.158903" lon="-1.618308">
        <ele>616.726042</ele>
        <time>2021-11-03T16:20:50.182Z</time>
      </trkpt>
      <trkpt lat="39.159089" lon="-1.618107">
        <ele>615.929780</ele>
        <time>2021-11-03T16:20:50.182Z</time>
      </trkpt>
      <trkpt lat="39.159148" lon="-1.618037">
        <ele>615.666720</ele>
        <time>2021-11-03T16:20:50.182Z</time>
      </trkpt>
      <trkpt lat="39.159202" lon="-1.617957">
        <ele>615.396855</ele>
        <time>2021-11-03T16:20:50.182Z</time>
      </trkpt>
      <trkpt lat="39.159248" lon="-1.617871">
        <ele>615.131034</ele>
        <time>2021-11-03T16:20:50.182Z</time>
      </trkpt>
      <trkpt lat="39.159289" lon="-1.617793">
        <ele>614.891276</ele>
        <time>2021-11-03T16:20:50.182Z</time>
      </trkpt>
      <trkpt lat="39.159324" lon="-1.617734">
        <ele>614.702268</ele>
        <time>2021-11-03T16:20:50.182Z</time>
      </trkpt>
      <trkpt lat="39.159381" lon="-1.617648">
        <ele>614.414414</ele>
        <time>2021-11-03T16:20:50.182Z</time>
      </trkpt>
      <trkpt lat="39.159409" lon="-1.617607">
        <ele>614.275406</ele>
        <time>2021-11-03T16:20:50.182Z</time>
      </trkpt>
      <trkpt lat="39.159463" lon="-1.617528">
        <ele>614.007456</ele>
        <time>2021-11-03T16:20:50.182Z</time>
      </trkpt>
      <trkpt lat="39.159526" lon="-1.617470">
        <ele>613.753466</ele>
        <time>2021-11-03T16:20:50.182Z</time>
      </trkpt>
      <trkpt lat="39.159764" lon="-1.617249">
        <ele>613.098328</ele>
        <time>2021-11-03T16:20:50.182Z</time>
      </trkpt>
      <trkpt lat="39.159897" lon="-1.617000">
        <ele>613.650093</ele>
        <time>2021-11-03T16:20:50.182Z</time>
      </trkpt>
      <trkpt lat="39.159950" lon="-1.616899">
        <ele>613.872643</ele>
        <time>2021-11-03T16:20:50.182Z</time>
      </trkpt>
      <trkpt lat="39.160118" lon="-1.616652">
        <ele>614.472218</ele>
        <time>2021-11-03T16:20:50.182Z</time>
      </trkpt>
      <trkpt lat="39.160189" lon="-1.616552">
        <ele>614.719648</ele>
        <time>2021-11-03T16:20:50.182Z</time>
      </trkpt>
      <trkpt lat="39.160225" lon="-1.616504">
        <ele>614.841511</ele>
        <time>2021-11-03T16:20:50.182Z</time>
      </trkpt>
      <trkpt lat="39.160369" lon="-1.616287">
        <ele>615.362722</ele>
        <time>2021-11-03T16:20:50.182Z</time>
      </trkpt>
      <trkpt lat="39.160415" lon="-1.616200">
        <ele>615.554881</ele>
        <time>2021-11-03T16:20:50.182Z</time>
      </trkpt>
      <trkpt lat="39.160439" lon="-1.616148">
        <ele>615.665311</ele>
        <time>2021-11-03T16:20:50.182Z</time>
      </trkpt>
      <trkpt lat="39.160461" lon="-1.616096">
        <ele>615.773408</ele>
        <time>2021-11-03T16:20:50.182Z</time>
      </trkpt>
      <trkpt lat="39.160494" lon="-1.616032">
        <ele>615.913664</ele>
        <time>2021-11-03T16:20:50.182Z</time>
      </trkpt>
      <trkpt lat="39.160532" lon="-1.615957">
        <ele>616.077155</ele>
        <time>2021-11-03T16:20:50.182Z</time>
      </trkpt>
      <trkpt lat="39.160546" lon="-1.615941">
        <ele>616.121178</ele>
        <time>2021-11-03T16:20:50.182Z</time>
      </trkpt>
      <trkpt lat="39.160547" lon="-1.615941">
        <ele>616.123532</ele>
        <time>2021-11-03T16:20:50.182Z</time>
      </trkpt>
      <trkpt lat="39.160546" lon="-1.615946">
        <ele>616.132955</ele>
        <time>2021-11-03T16:20:50.182Z</time>
      </trkpt>
      <trkpt lat="39.160550" lon="-1.615939">
        <ele>616.148823</ele>
        <time>2021-11-03T16:20:50.182Z</time>
      </trkpt>
      <trkpt lat="39.160561" lon="-1.615918">
        <ele>616.195069</ele>
        <time>2021-11-03T16:20:50.182Z</time>
      </trkpt>
      <trkpt lat="39.160611" lon="-1.615832">
        <ele>616.391221</ele>
        <time>2021-11-03T16:20:50.182Z</time>
      </trkpt>
      <trkpt lat="39.160681" lon="-1.615731">
        <ele>616.638424</ele>
        <time>2021-11-03T16:20:50.182Z</time>
      </trkpt>
      <trkpt lat="39.160714" lon="-1.615686">
        <ele>616.751451</ele>
        <time>2021-11-03T16:20:50.182Z</time>
      </trkpt>
      <trkpt lat="39.160764" lon="-1.615618">
        <ele>616.922462</ele>
        <time>2021-11-03T16:20:50.182Z</time>
      </trkpt>
      <trkpt lat="39.160796" lon="-1.615564">
        <ele>617.046486</ele>
        <time>2021-11-03T16:20:50.182Z</time>
      </trkpt>
      <trkpt lat="39.160812" lon="-1.615536">
        <ele>617.109958</ele>
        <time>2021-11-03T16:20:50.182Z</time>
      </trkpt>
      <trkpt lat="39.160878" lon="-1.615393">
        <ele>617.702340</ele>
        <time>2021-11-03T16:20:50.182Z</time>
      </trkpt>
      <trkpt lat="39.160909" lon="-1.615339">
        <ele>617.993059</ele>
        <time>2021-11-03T16:20:50.182Z</time>
      </trkpt>
      <trkpt lat="39.161020" lon="-1.615247">
        <ele>618.729357</ele>
        <time>2021-11-03T16:20:50.182Z</time>
      </trkpt>
      <trkpt lat="39.161047" lon="-1.615234">
        <ele>618.890182</ele>
        <time>2021-11-03T16:20:50.182Z</time>
      </trkpt>
      <trkpt lat="39.161242" lon="-1.615090">
        <ele>620.144098</ele>
        <time>2021-11-03T16:20:50.182Z</time>
      </trkpt>
      <trkpt lat="39.161249" lon="-1.614909">
        <ele>620.928226</ele>
        <time>2021-11-03T16:20:50.182Z</time>
      </trkpt>
      <trkpt lat="39.161227" lon="-1.614822">
        <ele>621.324173</ele>
        <time>2021-11-03T16:20:50.182Z</time>
      </trkpt>
      <trkpt lat="39.161196" lon="-1.614695">
        <ele>621.900266</ele>
        <time>2021-11-03T16:20:50.182Z</time>
      </trkpt>
      <trkpt lat="39.161164" lon="-1.614575">
        <ele>622.449334</ele>
        <time>2021-11-03T16:20:50.182Z</time>
      </trkpt>
      <trkpt lat="39.161138" lon="-1.614495">
        <ele>622.824657</ele>
        <time>2021-11-03T16:20:50.182Z</time>
      </trkpt>
      <trkpt lat="39.161102" lon="-1.614374">
        <ele>623.385423</ele>
        <time>2021-11-03T16:20:50.182Z</time>
      </trkpt>
      <trkpt lat="39.161087" lon="-1.614244">
        <ele>623.954105</ele>
        <time>2021-11-03T16:20:50.182Z</time>
      </trkpt>
      <trkpt lat="39.161136" lon="-1.613985">
        <ele>625.107630</ele>
        <time>2021-11-03T16:20:50.182Z</time>
      </trkpt>
      <trkpt lat="39.161199" lon="-1.613745">
        <ele>626.203964</ele>
        <time>2021-11-03T16:20:50.182Z</time>
      </trkpt>
      <trkpt lat="39.161204" lon="-1.613619">
        <ele>626.749857</ele>
        <time>2021-11-03T16:20:50.182Z</time>
      </trkpt>
      <trkpt lat="39.161199" lon="-1.613579">
        <ele>626.925165</ele>
        <time>2021-11-03T16:20:50.182Z</time>
      </trkpt>
      <trkpt lat="39.161187" lon="-1.613452">
        <ele>627.205150</ele>
        <time>2021-11-03T16:20:50.182Z</time>
      </trkpt>
      <trkpt lat="39.161165" lon="-1.613277">
        <ele>627.092890</ele>
        <time>2021-11-03T16:20:50.182Z</time>
      </trkpt>
      <trkpt lat="39.161160" lon="-1.613112">
        <ele>626.988329</ele>
        <time>2021-11-03T16:20:50.182Z</time>
      </trkpt>
      <trkpt lat="39.161168" lon="-1.612996">
        <ele>626.914586</ele>
        <time>2021-11-03T16:20:50.182Z</time>
      </trkpt>
      <trkpt lat="39.161175" lon="-1.612906">
        <ele>626.857311</ele>
        <time>2021-11-03T16:20:50.182Z</time>
      </trkpt>
      <trkpt lat="39.161189" lon="-1.612728">
        <ele>626.744020</ele>
        <time>2021-11-03T16:20:50.182Z</time>
      </trkpt>
      <trkpt lat="39.161202" lon="-1.612497">
        <ele>626.597362</ele>
        <time>2021-11-03T16:20:50.182Z</time>
      </trkpt>
      <trkpt lat="39.161207" lon="-1.612323">
        <ele>626.487107</ele>
        <time>2021-11-03T16:20:50.182Z</time>
      </trkpt>
      <trkpt lat="39.161204" lon="-1.612143">
        <ele>626.373101</ele>
        <time>2021-11-03T16:20:50.182Z</time>
      </trkpt>
      <trkpt lat="39.161165" lon="-1.611873">
        <ele>626.199191</ele>
        <time>2021-11-03T16:20:50.182Z</time>
      </trkpt>
      <trkpt lat="39.161143" lon="-1.611787">
        <ele>626.141848</ele>
        <time>2021-11-03T16:20:50.182Z</time>
      </trkpt>
      <trkpt lat="39.161046" lon="-1.611459">
        <ele>625.919558</ele>
        <time>2021-11-03T16:20:50.182Z</time>
      </trkpt>
      <trkpt lat="39.160933" lon="-1.611044">
        <ele>624.804181</ele>
        <time>2021-11-03T16:20:50.182Z</time>
      </trkpt>
      <trkpt lat="39.160916" lon="-1.610955">
        <ele>624.372949</ele>
        <time>2021-11-03T16:20:50.182Z</time>
      </trkpt>
      <trkpt lat="39.160906" lon="-1.610861">
        <ele>623.926569</ele>
        <time>2021-11-03T16:20:50.182Z</time>
      </trkpt>
      <trkpt lat="39.160911" lon="-1.610765">
        <ele>623.473905</ele>
        <time>2021-11-03T16:20:50.182Z</time>
      </trkpt>
      <trkpt lat="39.160933" lon="-1.610669">
        <ele>623.002946</ele>
        <time>2021-11-03T16:20:50.182Z</time>
      </trkpt>
      <trkpt lat="39.161023" lon="-1.610492">
        <ele>622.007140</ele>
        <time>2021-11-03T16:20:50.182Z</time>
      </trkpt>
      <trkpt lat="39.161069" lon="-1.610407">
        <ele>621.519475</ele>
        <time>2021-11-03T16:20:50.182Z</time>
      </trkpt>
      <trkpt lat="39.161099" lon="-1.610324">
        <ele>621.088648</ele>
        <time>2021-11-03T16:20:50.182Z</time>
      </trkpt>
      <trkpt lat="39.161112" lon="-1.610241">
        <ele>620.690276</ele>
        <time>2021-11-03T16:20:50.182Z</time>
      </trkpt>
      <trkpt lat="39.161102" lon="-1.610158">
        <ele>620.295105</ele>
        <time>2021-11-03T16:20:50.182Z</time>
      </trkpt>
      <trkpt lat="39.161069" lon="-1.610082">
        <ele>619.885306</ele>
        <time>2021-11-03T16:20:50.182Z</time>
      </trkpt>
      <trkpt lat="39.160965" lon="-1.609952">
        <ele>619.006526</ele>
        <time>2021-11-03T16:20:50.182Z</time>
      </trkpt>
      <trkpt lat="39.160819" lon="-1.609775">
        <ele>617.790720</ele>
        <time>2021-11-03T16:20:50.182Z</time>
      </trkpt>
      <trkpt lat="39.160789" lon="-1.609717">
        <ele>617.462708</ele>
        <time>2021-11-03T16:20:50.182Z</time>
      </trkpt>
      <trkpt lat="39.160772" lon="-1.609661">
        <ele>617.179774</ele>
        <time>2021-11-03T16:20:50.182Z</time>
      </trkpt>
      <trkpt lat="39.160765" lon="-1.609610">
        <ele>616.936107</ele>
        <time>2021-11-03T16:20:50.182Z</time>
      </trkpt>
      <trkpt lat="39.160774" lon="-1.609564">
        <ele>616.712909</ele>
        <time>2021-11-03T16:20:50.182Z</time>
      </trkpt>
      <trkpt lat="39.160825" lon="-1.609506">
        <ele>616.300338</ele>
        <time>2021-11-03T16:20:50.182Z</time>
      </trkpt>
      <trkpt lat="39.160867" lon="-1.609509">
        <ele>616.045109</ele>
        <time>2021-11-03T16:20:50.182Z</time>
      </trkpt>
      <trkpt lat="39.160911" lon="-1.609534">
        <ele>615.753376</ele>
        <time>2021-11-03T16:20:50.182Z</time>
      </trkpt>
      <trkpt lat="39.160955" lon="-1.609568">
        <ele>615.442151</ele>
        <time>2021-11-03T16:20:50.182Z</time>
      </trkpt>
      <trkpt lat="39.160999" lon="-1.609589">
        <ele>615.157483</ele>
        <time>2021-11-03T16:20:50.182Z</time>
      </trkpt>
      <trkpt lat="39.161041" lon="-1.609583">
        <ele>614.901087</ele>
        <time>2021-11-03T16:20:50.182Z</time>
      </trkpt>
      <trkpt lat="39.161071" lon="-1.609549">
        <ele>614.577461</ele>
        <time>2021-11-03T16:20:50.182Z</time>
      </trkpt>
      <trkpt lat="39.161059" lon="-1.609444">
        <ele>613.874167</ele>
        <time>2021-11-03T16:20:50.182Z</time>
      </trkpt>
      <trkpt lat="39.161021" lon="-1.609400">
        <ele>613.437735</ele>
        <time>2021-11-03T16:20:50.182Z</time>
      </trkpt>
      <trkpt lat="39.160923" lon="-1.609336">
        <ele>612.498962</ele>
        <time>2021-11-03T16:20:50.182Z</time>
      </trkpt>
      <trkpt lat="39.160871" lon="-1.609323">
        <ele>612.046292</ele>
        <time>2021-11-03T16:20:50.182Z</time>
      </trkpt>
      <trkpt lat="39.160820" lon="-1.609334">
        <ele>611.604387</ele>
        <time>2021-11-03T16:20:50.182Z</time>
      </trkpt>
      <trkpt lat="39.160774" lon="-1.609372">
        <ele>611.137535</ele>
        <time>2021-11-03T16:20:50.182Z</time>
      </trkpt>
      <trkpt lat="39.160738" lon="-1.609431">
        <ele>610.640036</ele>
        <time>2021-11-03T16:20:50.182Z</time>
      </trkpt>
      <trkpt lat="39.160691" lon="-1.609582">
        <ele>609.561828</ele>
        <time>2021-11-03T16:20:50.182Z</time>
      </trkpt>
      <trkpt lat="39.160696" lon="-1.609741">
        <ele>608.507353</ele>
        <time>2021-11-03T16:20:50.182Z</time>
      </trkpt>
      <trkpt lat="39.160694" lon="-1.609809">
        <ele>608.056429</ele>
        <time>2021-11-03T16:20:50.182Z</time>
      </trkpt>
      <trkpt lat="39.160637" lon="-1.609888">
        <ele>607.341350</ele>
        <time>2021-11-03T16:20:50.182Z</time>
      </trkpt>
      <trkpt lat="39.160600" lon="-1.609885">
        <ele>607.024519</ele>
        <time>2021-11-03T16:20:50.182Z</time>
      </trkpt>
      <trkpt lat="39.160575" lon="-1.609847">
        <ele>606.694286</ele>
        <time>2021-11-03T16:20:50.182Z</time>
      </trkpt>
      <trkpt lat="39.160576" lon="-1.609714">
        <ele>605.812922</ele>
        <time>2021-11-03T16:20:50.182Z</time>
      </trkpt>
      <trkpt lat="39.160591" lon="-1.609640">
        <ele>605.306083</ele>
        <time>2021-11-03T16:20:50.182Z</time>
      </trkpt>
      <trkpt lat="39.160640" lon="-1.609420">
        <ele>603.789306</ele>
        <time>2021-11-03T16:20:50.182Z</time>
      </trkpt>
      <trkpt lat="39.160691" lon="-1.609278">
        <ele>602.752304</ele>
        <time>2021-11-03T16:20:50.182Z</time>
      </trkpt>
      <trkpt lat="39.160728" lon="-1.609206">
        <ele>602.179926</ele>
        <time>2021-11-03T16:20:50.182Z</time>
      </trkpt>
      <trkpt lat="39.160818" lon="-1.609063">
        <ele>600.959472</ele>
        <time>2021-11-03T16:20:50.182Z</time>
      </trkpt>
      <trkpt lat="39.160919" lon="-1.608945">
        <ele>599.794807</ele>
        <time>2021-11-03T16:20:50.182Z</time>
      </trkpt>
      <trkpt lat="39.161011" lon="-1.608844">
        <ele>599.006146</ele>
        <time>2021-11-03T16:20:50.182Z</time>
      </trkpt>
      <trkpt lat="39.161104" lon="-1.608786">
        <ele>598.420631</ele>
        <time>2021-11-03T16:20:50.182Z</time>
      </trkpt>
      <trkpt lat="39.161153" lon="-1.608796">
        <ele>598.139446</ele>
        <time>2021-11-03T16:20:50.182Z</time>
      </trkpt>
      <trkpt lat="39.161200" lon="-1.608833">
        <ele>597.827346</ele>
        <time>2021-11-03T16:20:50.182Z</time>
      </trkpt>
      <trkpt lat="39.161268" lon="-1.608979">
        <ele>597.078850</ele>
        <time>2021-11-03T16:20:50.182Z</time>
      </trkpt>
      <trkpt lat="39.161316" lon="-1.609172">
        <ele>596.188095</ele>
        <time>2021-11-03T16:20:50.182Z</time>
      </trkpt>
      <trkpt lat="39.161348" lon="-1.609272">
        <ele>595.712663</ele>
        <time>2021-11-03T16:20:50.182Z</time>
      </trkpt>
      <trkpt lat="39.161385" lon="-1.609367">
        <ele>595.245449</ele>
        <time>2021-11-03T16:20:50.182Z</time>
      </trkpt>
      <trkpt lat="39.161424" lon="-1.609446">
        <ele>594.833866</ele>
        <time>2021-11-03T16:20:50.182Z</time>
      </trkpt>
      <trkpt lat="39.161534" lon="-1.609534">
        <ele>594.100185</ele>
        <time>2021-11-03T16:20:50.182Z</time>
      </trkpt>
      <trkpt lat="39.161666" lon="-1.609491">
        <ele>593.328519</ele>
        <time>2021-11-03T16:20:50.182Z</time>
      </trkpt>
      <trkpt lat="39.161717" lon="-1.609441">
        <ele>592.965417</ele>
        <time>2021-11-03T16:20:50.182Z</time>
      </trkpt>
      <trkpt lat="39.161788" lon="-1.609357">
        <ele>592.419319</ele>
        <time>2021-11-03T16:20:50.182Z</time>
      </trkpt>
      <trkpt lat="39.161817" lon="-1.609314">
        <ele>592.168862</ele>
        <time>2021-11-03T16:20:50.182Z</time>
      </trkpt>
      <trkpt lat="39.161851" lon="-1.609208">
        <ele>591.664733</ele>
        <time>2021-11-03T16:20:50.182Z</time>
      </trkpt>
      <trkpt lat="39.161852" lon="-1.609149">
        <ele>591.405382</ele>
        <time>2021-11-03T16:20:50.182Z</time>
      </trkpt>
      <trkpt lat="39.161842" lon="-1.609089">
        <ele>591.135675</ele>
        <time>2021-11-03T16:20:50.182Z</time>
      </trkpt>
      <trkpt lat="39.161777" lon="-1.608913">
        <ele>590.278942</ele>
        <time>2021-11-03T16:20:50.182Z</time>
      </trkpt>
      <trkpt lat="39.161748" lon="-1.608794">
        <ele>589.730746</ele>
        <time>2021-11-03T16:20:50.182Z</time>
      </trkpt>
      <trkpt lat="39.161713" lon="-1.608579">
        <ele>589.126302</ele>
        <time>2021-11-03T16:20:50.182Z</time>
      </trkpt>
      <trkpt lat="39.161678" lon="-1.608232">
        <ele>588.643015</ele>
        <time>2021-11-03T16:20:50.182Z</time>
      </trkpt>
      <trkpt lat="39.161686" lon="-1.608143">
        <ele>588.519272</ele>
        <time>2021-11-03T16:20:50.182Z</time>
      </trkpt>
      <trkpt lat="39.161710" lon="-1.608057">
        <ele>588.393036</ele>
        <time>2021-11-03T16:20:50.182Z</time>
      </trkpt>
      <trkpt lat="39.161804" lon="-1.607927">
        <ele>588.147533</ele>
        <time>2021-11-03T16:20:50.182Z</time>
      </trkpt>
      <trkpt lat="39.161985" lon="-1.607769">
        <ele>587.758221</ele>
        <time>2021-11-03T16:20:50.182Z</time>
      </trkpt>
      <trkpt lat="39.162051" lon="-1.607727">
        <ele>587.627126</ele>
        <time>2021-11-03T16:20:50.182Z</time>
      </trkpt>
      <trkpt lat="39.162119" lon="-1.607690">
        <ele>587.495663</ele>
        <time>2021-11-03T16:20:50.182Z</time>
      </trkpt>
      <trkpt lat="39.162315" lon="-1.607596">
        <ele>587.123182</ele>
        <time>2021-11-03T16:20:50.182Z</time>
      </trkpt>
      <trkpt lat="39.162569" lon="-1.607476">
        <ele>586.641345</ele>
        <time>2021-11-03T16:20:50.182Z</time>
      </trkpt>
      <trkpt lat="39.162925" lon="-1.607235">
        <ele>586.140106</ele>
        <time>2021-11-03T16:20:50.182Z</time>
      </trkpt>
      <trkpt lat="39.163195" lon="-1.607087">
        <ele>586.307647</ele>
        <time>2021-11-03T16:20:50.182Z</time>
      </trkpt>
      <trkpt lat="39.163242" lon="-1.607050">
        <ele>586.339093</ele>
        <time>2021-11-03T16:20:50.182Z</time>
      </trkpt>
      <trkpt lat="39.163330" lon="-1.606970">
        <ele>586.400578</ele>
        <time>2021-11-03T16:20:50.182Z</time>
      </trkpt>
      <trkpt lat="39.163371" lon="-1.606927">
        <ele>586.430757</ele>
        <time>2021-11-03T16:20:50.182Z</time>
      </trkpt>
      <trkpt lat="39.163409" lon="-1.606887">
        <ele>586.458768</ele>
        <time>2021-11-03T16:20:50.182Z</time>
      </trkpt>
      <trkpt lat="39.163443" lon="-1.606856">
        <ele>586.482547</ele>
        <time>2021-11-03T16:20:50.182Z</time>
      </trkpt>
      <trkpt lat="39.163477" lon="-1.606817">
        <ele>586.508532</ele>
        <time>2021-11-03T16:20:50.182Z</time>
      </trkpt>
      <trkpt lat="39.163509" lon="-1.606772">
        <ele>586.535569</ele>
        <time>2021-11-03T16:20:50.182Z</time>
      </trkpt>
      <trkpt lat="39.163540" lon="-1.606732">
        <ele>586.560611</ele>
        <time>2021-11-03T16:20:50.182Z</time>
      </trkpt>
      <trkpt lat="39.163639" lon="-1.606568">
        <ele>586.652642</ele>
        <time>2021-11-03T16:20:50.182Z</time>
      </trkpt>
      <trkpt lat="39.163748" lon="-1.606227">
        <ele>586.815961</ele>
        <time>2021-11-03T16:20:50.182Z</time>
      </trkpt>
      <trkpt lat="39.163820" lon="-1.605974">
        <ele>586.935293</ele>
        <time>2021-11-03T16:20:50.182Z</time>
      </trkpt>
      <trkpt lat="39.163890" lon="-1.605716">
        <ele>587.056324</ele>
        <time>2021-11-03T16:20:50.182Z</time>
      </trkpt>
      <trkpt lat="39.163954" lon="-1.605447">
        <ele>587.227560</ele>
        <time>2021-11-03T16:20:50.182Z</time>
      </trkpt>
      <trkpt lat="39.163967" lon="-1.605271">
        <ele>587.361327</ele>
        <time>2021-11-03T16:20:50.182Z</time>
      </trkpt>
      <trkpt lat="39.163967" lon="-1.605271">
        <ele>587.361327</ele>
        <time>2021-11-03T16:20:50.182Z</time>
      </trkpt>
      <trkpt lat="39.163972" lon="-1.604567">
        <ele>587.894004</ele>
        <time>2021-11-03T16:20:50.182Z</time>
      </trkpt>
      <trkpt lat="39.163963" lon="-1.604515">
        <ele>587.934316</ele>
        <time>2021-11-03T16:20:50.182Z</time>
      </trkpt>
      <trkpt lat="39.163964" lon="-1.604467">
        <ele>587.970646</ele>
        <time>2021-11-03T16:20:50.182Z</time>
      </trkpt>
      <trkpt lat="39.163916" lon="-1.604213">
        <ele>588.168452</ele>
        <time>2021-11-03T16:20:50.182Z</time>
      </trkpt>
      <trkpt lat="39.163896" lon="-1.604160">
        <ele>588.213049</ele>
        <time>2021-11-03T16:20:50.182Z</time>
      </trkpt>
      <trkpt lat="39.163854" lon="-1.604018">
        <ele>588.328040</ele>
        <time>2021-11-03T16:20:50.182Z</time>
      </trkpt>
      <trkpt lat="39.163841" lon="-1.603974">
        <ele>588.363667</ele>
        <time>2021-11-03T16:20:50.182Z</time>
      </trkpt>
      <trkpt lat="39.163784" lon="-1.603818">
        <ele>588.494148</ele>
        <time>2021-11-03T16:20:50.182Z</time>
      </trkpt>
      <trkpt lat="39.163688" lon="-1.603658">
        <ele>588.647220</ele>
        <time>2021-11-03T16:20:50.182Z</time>
      </trkpt>
      <trkpt lat="39.163505" lon="-1.603340">
        <ele>588.937669</ele>
        <time>2021-11-03T16:20:50.182Z</time>
      </trkpt>
      <trkpt lat="39.163464" lon="-1.603273">
        <ele>588.994500</ele>
        <time>2021-11-03T16:20:50.182Z</time>
      </trkpt>
      <trkpt lat="39.163218" lon="-1.602906">
        <ele>589.317518</ele>
        <time>2021-11-03T16:20:50.182Z</time>
      </trkpt>
      <trkpt lat="39.163171" lon="-1.602860">
        <ele>589.368185</ele>
        <time>2021-11-03T16:20:50.182Z</time>
      </trkpt>
      <trkpt lat="39.163071" lon="-1.602798">
        <ele>589.463467</ele>
        <time>2021-11-03T16:20:50.182Z</time>
      </trkpt>
      <trkpt lat="39.162969" lon="-1.602733">
        <ele>589.561169</ele>
        <time>2021-11-03T16:20:50.182Z</time>
      </trkpt>
      <trkpt lat="39.162917" lon="-1.602701">
        <ele>589.610647</ele>
        <time>2021-11-03T16:20:50.182Z</time>
      </trkpt>
      <trkpt lat="39.162678" lon="-1.602516">
        <ele>589.850017</ele>
        <time>2021-11-03T16:20:50.182Z</time>
      </trkpt>
      <trkpt lat="39.162631" lon="-1.602482">
        <ele>589.896294</ele>
        <time>2021-11-03T16:20:50.182Z</time>
      </trkpt>
      <trkpt lat="39.162581" lon="-1.602452">
        <ele>589.943651</ele>
        <time>2021-11-03T16:20:50.182Z</time>
      </trkpt>
      <trkpt lat="39.162531" lon="-1.602425">
        <ele>589.990200</ele>
        <time>2021-11-03T16:20:50.182Z</time>
      </trkpt>
      <trkpt lat="39.162480" lon="-1.602387">
        <ele>590.040780</ele>
        <time>2021-11-03T16:20:50.182Z</time>
      </trkpt>
      <trkpt lat="39.162428" lon="-1.602357">
        <ele>590.089699</ele>
        <time>2021-11-03T16:20:50.182Z</time>
      </trkpt>
      <trkpt lat="39.162375" lon="-1.602339">
        <ele>590.136765</ele>
        <time>2021-11-03T16:20:50.182Z</time>
      </trkpt>
      <trkpt lat="39.162320" lon="-1.602321">
        <ele>590.185493</ele>
        <time>2021-11-03T16:20:50.182Z</time>
      </trkpt>
      <trkpt lat="39.162267" lon="-1.602297">
        <ele>590.233731</ele>
        <time>2021-11-03T16:20:50.182Z</time>
      </trkpt>
      <trkpt lat="39.162212" lon="-1.602277">
        <ele>590.282804</ele>
        <time>2021-11-03T16:20:50.182Z</time>
      </trkpt>
      <trkpt lat="39.162156" lon="-1.602261">
        <ele>590.332060</ele>
        <time>2021-11-03T16:20:50.182Z</time>
      </trkpt>
      <trkpt lat="39.162102" lon="-1.602249">
        <ele>590.379116</ele>
        <time>2021-11-03T16:20:50.182Z</time>
      </trkpt>
      <trkpt lat="39.161995" lon="-1.602242">
        <ele>590.330063</ele>
        <time>2021-11-03T16:20:50.182Z</time>
      </trkpt>
      <trkpt lat="39.161791" lon="-1.602262">
        <ele>590.065038</ele>
        <time>2021-11-03T16:20:50.182Z</time>
      </trkpt>
      <trkpt lat="39.161589" lon="-1.602272">
        <ele>589.803173</ele>
        <time>2021-11-03T16:20:50.182Z</time>
      </trkpt>
      <trkpt lat="39.161268" lon="-1.602283">
        <ele>589.387201</ele>
        <time>2021-11-03T16:20:50.182Z</time>
      </trkpt>
      <trkpt lat="39.161092" lon="-1.602343">
        <ele>589.151379</ele>
        <time>2021-11-03T16:20:50.182Z</time>
      </trkpt>
      <trkpt lat="39.161034" lon="-1.602385">
        <ele>589.065213</ele>
        <time>2021-11-03T16:20:50.182Z</time>
      </trkpt>
      <trkpt lat="39.160904" lon="-1.602489">
        <ele>588.867042</ele>
        <time>2021-11-03T16:20:50.182Z</time>
      </trkpt>
      <trkpt lat="39.160723" lon="-1.602574">
        <ele>588.617514</ele>
        <time>2021-11-03T16:20:50.182Z</time>
      </trkpt>
      <trkpt lat="39.160650" lon="-1.602608">
        <ele>588.516971</ele>
        <time>2021-11-03T16:20:50.182Z</time>
      </trkpt>
      <trkpt lat="39.160528" lon="-1.602646">
        <ele>588.354388</ele>
        <time>2021-11-03T16:20:50.182Z</time>
      </trkpt>
      <trkpt lat="39.160386" lon="-1.602685">
        <ele>588.166316</ele>
        <time>2021-11-03T16:20:50.182Z</time>
      </trkpt>
      <trkpt lat="39.160057" lon="-1.602909">
        <ele>588.724428</ele>
        <time>2021-11-03T16:20:50.182Z</time>
      </trkpt>
      <trkpt lat="39.159933" lon="-1.602945">
        <ele>588.987317</ele>
        <time>2021-11-03T16:20:50.182Z</time>
      </trkpt>
      <trkpt lat="39.159656" lon="-1.602994">
        <ele>589.565605</ele>
        <time>2021-11-03T16:20:50.182Z</time>
      </trkpt>
      <trkpt lat="39.159551" lon="-1.603000">
        <ele>589.782992</ele>
        <time>2021-11-03T16:20:50.182Z</time>
      </trkpt>
      <trkpt lat="39.159393" lon="-1.602970">
        <ele>590.113309</ele>
        <time>2021-11-03T16:20:50.182Z</time>
      </trkpt>
      <trkpt lat="39.159341" lon="-1.602947">
        <ele>590.227011</ele>
        <time>2021-11-03T16:20:50.182Z</time>
      </trkpt>
      <trkpt lat="39.159291" lon="-1.602917">
        <ele>590.341071</ele>
        <time>2021-11-03T16:20:50.182Z</time>
      </trkpt>
      <trkpt lat="39.159205" lon="-1.602827">
        <ele>590.570141</ele>
        <time>2021-11-03T16:20:50.182Z</time>
      </trkpt>
      <trkpt lat="39.159172" lon="-1.602767">
        <ele>590.688116</ele>
        <time>2021-11-03T16:20:50.182Z</time>
      </trkpt>
      <trkpt lat="39.159149" lon="-1.602699">
        <ele>590.807096</ele>
        <time>2021-11-03T16:20:50.182Z</time>
      </trkpt>
      <trkpt lat="39.159142" lon="-1.602544">
        <ele>591.056100</ele>
        <time>2021-11-03T16:20:50.182Z</time>
      </trkpt>
      <trkpt lat="39.159154" lon="-1.602391">
        <ele>591.302728</ele>
        <time>2021-11-03T16:20:50.182Z</time>
      </trkpt>
      <trkpt lat="39.159164" lon="-1.602167">
        <ele>591.662566</ele>
        <time>2021-11-03T16:20:50.182Z</time>
      </trkpt>
      <trkpt lat="39.159138" lon="-1.601951">
        <ele>591.524866</ele>
        <time>2021-11-03T16:20:50.182Z</time>
      </trkpt>
      <trkpt lat="39.159071" lon="-1.601674">
        <ele>590.898086</ele>
        <time>2021-11-03T16:20:50.182Z</time>
      </trkpt>
      <trkpt lat="39.159028" lon="-1.601538">
        <ele>590.580830</ele>
        <time>2021-11-03T16:20:50.182Z</time>
      </trkpt>
      <trkpt lat="39.158920" lon="-1.601188">
        <ele>589.767133</ele>
        <time>2021-11-03T16:20:50.182Z</time>
      </trkpt>
      <trkpt lat="39.158878" lon="-1.601037">
        <ele>589.420609</ele>
        <time>2021-11-03T16:20:50.182Z</time>
      </trkpt>
      <trkpt lat="39.158857" lon="-1.600960">
        <ele>589.244293</ele>
        <time>2021-11-03T16:20:50.182Z</time>
      </trkpt>
      <trkpt lat="39.158815" lon="-1.600807">
        <ele>588.893699</ele>
        <time>2021-11-03T16:20:50.182Z</time>
      </trkpt>
      <trkpt lat="39.158747" lon="-1.600477">
        <ele>588.156126</ele>
        <time>2021-11-03T16:20:50.182Z</time>
      </trkpt>
      <trkpt lat="39.158744" lon="-1.600389">
        <ele>587.965853</ele>
        <time>2021-11-03T16:20:50.182Z</time>
      </trkpt>
      <trkpt lat="39.158750" lon="-1.600300">
        <ele>587.772880</ele>
        <time>2021-11-03T16:20:50.182Z</time>
      </trkpt>
      <trkpt lat="39.158764" lon="-1.600211">
        <ele>587.576715</ele>
        <time>2021-11-03T16:20:50.182Z</time>
      </trkpt>
      <trkpt lat="39.158811" lon="-1.600036">
        <ele>587.176665</ele>
        <time>2021-11-03T16:20:50.182Z</time>
      </trkpt>
      <trkpt lat="39.158869" lon="-1.599860">
        <ele>586.800754</ele>
        <time>2021-11-03T16:20:50.182Z</time>
      </trkpt>
      <trkpt lat="39.158934" lon="-1.599678">
        <ele>586.889222</ele>
        <time>2021-11-03T16:20:50.182Z</time>
      </trkpt>
      <trkpt lat="39.159045" lon="-1.599418">
        <ele>587.020263</ele>
        <time>2021-11-03T16:20:50.182Z</time>
      </trkpt>
      <trkpt lat="39.159324" lon="-1.598990">
        <ele>587.267133</ele>
        <time>2021-11-03T16:20:50.182Z</time>
      </trkpt>
      <trkpt lat="39.159408" lon="-1.598862">
        <ele>587.341169</ele>
        <time>2021-11-03T16:20:50.182Z</time>
      </trkpt>
      <trkpt lat="39.159447" lon="-1.598799">
        <ele>587.376761</ele>
        <time>2021-11-03T16:20:50.182Z</time>
      </trkpt>
      <trkpt lat="39.159485" lon="-1.598743">
        <ele>587.409616</ele>
        <time>2021-11-03T16:20:50.182Z</time>
      </trkpt>
      <trkpt lat="39.159563" lon="-1.598625">
        <ele>587.478075</ele>
        <time>2021-11-03T16:20:50.182Z</time>
      </trkpt>
      <trkpt lat="39.159603" lon="-1.598570">
        <ele>587.511367</ele>
        <time>2021-11-03T16:20:50.182Z</time>
      </trkpt>
      <trkpt lat="39.159903" lon="-1.598191">
        <ele>587.750487</ele>
        <time>2021-11-03T16:20:50.182Z</time>
      </trkpt>
      <trkpt lat="39.160014" lon="-1.598023">
        <ele>587.794205</ele>
        <time>2021-11-03T16:20:50.182Z</time>
      </trkpt>
      <trkpt lat="39.160050" lon="-1.597968">
        <ele>587.767810</ele>
        <time>2021-11-03T16:20:50.182Z</time>
      </trkpt>
      <trkpt lat="39.160220" lon="-1.597677">
        <ele>587.634197</ele>
        <time>2021-11-03T16:20:50.182Z</time>
      </trkpt>
      <trkpt lat="39.160249" lon="-1.597610">
        <ele>587.606058</ele>
        <time>2021-11-03T16:20:50.182Z</time>
      </trkpt>
      <trkpt lat="39.160331" lon="-1.597320">
        <ele>587.492859</ele>
        <time>2021-11-03T16:20:50.182Z</time>
      </trkpt>
      <trkpt lat="39.160447" lon="-1.596687">
        <ele>587.254333</ele>
        <time>2021-11-03T16:20:50.182Z</time>
      </trkpt>
      <trkpt lat="39.160450" lon="-1.596602">
        <ele>587.223130</ele>
        <time>2021-11-03T16:20:50.182Z</time>
      </trkpt>
      <trkpt lat="39.160435" lon="-1.596432">
        <ele>587.160386</ele>
        <time>2021-11-03T16:20:50.182Z</time>
      </trkpt>
      <trkpt lat="39.160419" lon="-1.596350">
        <ele>587.129378</ele>
        <time>2021-11-03T16:20:50.182Z</time>
      </trkpt>
      <trkpt lat="39.160339" lon="-1.596114">
        <ele>587.034924</ele>
        <time>2021-11-03T16:20:50.182Z</time>
      </trkpt>
      <trkpt lat="39.160263" lon="-1.595967">
        <ele>586.970132</ele>
        <time>2021-11-03T16:20:50.182Z</time>
      </trkpt>
      <trkpt lat="39.160167" lon="-1.595831">
        <ele>586.339788</ele>
        <time>2021-11-03T16:20:50.182Z</time>
      </trkpt>
      <trkpt lat="39.160036" lon="-1.595735">
        <ele>585.653594</ele>
        <time>2021-11-03T16:20:50.182Z</time>
      </trkpt>
      <trkpt lat="39.159962" lon="-1.595702">
        <ele>585.297001</ele>
        <time>2021-11-03T16:20:50.182Z</time>
      </trkpt>
      <trkpt lat="39.159726" lon="-1.595614">
        <ele>584.178177</ele>
        <time>2021-11-03T16:20:50.182Z</time>
      </trkpt>
      <trkpt lat="39.159645" lon="-1.595582">
        <ele>583.792363</ele>
        <time>2021-11-03T16:20:50.182Z</time>
      </trkpt>
      <trkpt lat="39.159562" lon="-1.595549">
        <ele>583.396806</ele>
        <time>2021-11-03T16:20:50.182Z</time>
      </trkpt>
      <trkpt lat="39.159477" lon="-1.595516">
        <ele>582.992535</ele>
        <time>2021-11-03T16:20:50.182Z</time>
      </trkpt>
      <trkpt lat="39.159390" lon="-1.595483">
        <ele>582.579534</ele>
        <time>2021-11-03T16:20:50.182Z</time>
      </trkpt>
      <trkpt lat="39.159299" lon="-1.595450">
        <ele>582.149026</ele>
        <time>2021-11-03T16:20:50.182Z</time>
      </trkpt>
      <trkpt lat="39.159206" lon="-1.595418">
        <ele>581.710665</ele>
        <time>2021-11-03T16:20:50.182Z</time>
      </trkpt>
      <trkpt lat="39.159111" lon="-1.595384">
        <ele>581.261661</ele>
        <time>2021-11-03T16:20:50.182Z</time>
      </trkpt>
      <trkpt lat="39.159014" lon="-1.595349">
        <ele>580.802935</ele>
        <time>2021-11-03T16:20:50.182Z</time>
      </trkpt>
      <trkpt lat="39.158815" lon="-1.595276">
        <ele>579.860690</ele>
        <time>2021-11-03T16:20:50.182Z</time>
      </trkpt>
      <trkpt lat="39.158616" lon="-1.595204">
        <ele>578.919406</ele>
        <time>2021-11-03T16:20:50.182Z</time>
      </trkpt>
      <trkpt lat="39.158428" lon="-1.595118">
        <ele>578.520065</ele>
        <time>2021-11-03T16:20:50.182Z</time>
      </trkpt>
      <trkpt lat="39.158267" lon="-1.594989">
        <ele>578.230950</ele>
        <time>2021-11-03T16:20:50.182Z</time>
      </trkpt>
      <trkpt lat="39.158202" lon="-1.594901">
        <ele>578.087204</ele>
        <time>2021-11-03T16:20:50.182Z</time>
      </trkpt>
      <trkpt lat="39.158013" lon="-1.594648">
        <ele>577.671690</ele>
        <time>2021-11-03T16:20:50.182Z</time>
      </trkpt>
      <trkpt lat="39.157842" lon="-1.594399">
        <ele>577.278287</ele>
        <time>2021-11-03T16:20:50.182Z</time>
      </trkpt>
      <trkpt lat="39.157571" lon="-1.593846">
        <ele>576.504549</ele>
        <time>2021-11-03T16:20:50.182Z</time>
      </trkpt>
      <trkpt lat="39.157527" lon="-1.593760">
        <ele>576.382685</ele>
        <time>2021-11-03T16:20:50.182Z</time>
      </trkpt>
      <trkpt lat="39.157483" lon="-1.593676">
        <ele>576.262788</ele>
        <time>2021-11-03T16:20:50.182Z</time>
      </trkpt>
      <trkpt lat="39.157362" lon="-1.593427">
        <ele>576.088493</ele>
        <time>2021-11-03T16:20:50.182Z</time>
      </trkpt>
      <trkpt lat="39.157284" lon="-1.593266">
        <ele>576.194485</ele>
        <time>2021-11-03T16:20:50.182Z</time>
      </trkpt>
      <trkpt lat="39.157207" lon="-1.593110">
        <ele>576.297731</ele>
        <time>2021-11-03T16:20:50.182Z</time>
      </trkpt>
      <trkpt lat="39.157093" lon="-1.592884">
        <ele>576.448260</ele>
        <time>2021-11-03T16:20:50.182Z</time>
      </trkpt>
      <trkpt lat="39.157053" lon="-1.592812">
        <ele>576.497712</ele>
        <time>2021-11-03T16:20:50.182Z</time>
      </trkpt>
      <trkpt lat="39.157008" lon="-1.592748">
        <ele>576.545947</ele>
        <time>2021-11-03T16:20:50.182Z</time>
      </trkpt>
      <trkpt lat="39.156958" lon="-1.592690">
        <ele>576.594370</ele>
        <time>2021-11-03T16:20:50.182Z</time>
      </trkpt>
      <trkpt lat="39.156906" lon="-1.592636">
        <ele>576.642441</ele>
        <time>2021-11-03T16:20:50.182Z</time>
      </trkpt>
      <trkpt lat="39.156738" lon="-1.592490">
        <ele>576.788307</ele>
        <time>2021-11-03T16:20:50.182Z</time>
      </trkpt>
      <trkpt lat="39.156629" lon="-1.592384">
        <ele>576.886603</ele>
        <time>2021-11-03T16:20:50.182Z</time>
      </trkpt>
      <trkpt lat="39.156539" lon="-1.592253">
        <ele>576.984321</ele>
        <time>2021-11-03T16:20:50.182Z</time>
      </trkpt>
      <trkpt lat="39.156504" lon="-1.592178">
        <ele>577.033194</ele>
        <time>2021-11-03T16:20:50.182Z</time>
      </trkpt>
      <trkpt lat="39.156477" lon="-1.592101">
        <ele>577.080376</ele>
        <time>2021-11-03T16:20:50.182Z</time>
      </trkpt>
      <trkpt lat="39.156446" lon="-1.591937">
        <ele>577.174623</ele>
        <time>2021-11-03T16:20:50.182Z</time>
      </trkpt>
      <trkpt lat="39.156441" lon="-1.591853">
        <ele>577.221660</ele>
        <time>2021-11-03T16:20:50.182Z</time>
      </trkpt>
      <trkpt lat="39.156487" lon="-1.591445">
        <ele>577.269440</ele>
        <time>2021-11-03T16:20:50.182Z</time>
      </trkpt>
      <trkpt lat="39.156652" lon="-1.590972">
        <ele>577.132525</ele>
        <time>2021-11-03T16:20:50.182Z</time>
      </trkpt>
      <trkpt lat="39.156988" lon="-1.590379">
        <ele>576.938647</ele>
        <time>2021-11-03T16:20:50.182Z</time>
      </trkpt>
      <trkpt lat="39.157032" lon="-1.590303">
        <ele>576.913610</ele>
        <time>2021-11-03T16:20:50.182Z</time>
      </trkpt>
      <trkpt lat="39.157120" lon="-1.590153">
        <ele>576.863957</ele>
        <time>2021-11-03T16:20:50.182Z</time>
      </trkpt>
      <trkpt lat="39.157403" lon="-1.589655">
        <ele>576.722791</ele>
        <time>2021-11-03T16:20:50.182Z</time>
      </trkpt>
      <trkpt lat="39.157627" lon="-1.589196">
        <ele>576.791995</ele>
        <time>2021-11-03T16:20:50.182Z</time>
      </trkpt>
      <trkpt lat="39.157642" lon="-1.589123">
        <ele>576.801631</ele>
        <time>2021-11-03T16:20:50.182Z</time>
      </trkpt>
      <trkpt lat="39.157660" lon="-1.588895">
        <ele>576.830875</ele>
        <time>2021-11-03T16:20:50.182Z</time>
      </trkpt>
      <trkpt lat="39.157647" lon="-1.588653">
        <ele>576.861828</ele>
        <time>2021-11-03T16:20:50.182Z</time>
      </trkpt>
      <trkpt lat="39.157628" lon="-1.588418">
        <ele>576.891977</ele>
        <time>2021-11-03T16:20:50.182Z</time>
      </trkpt>
      <trkpt lat="39.157552" lon="-1.588042">
        <ele>576.941558</ele>
        <time>2021-11-03T16:20:50.182Z</time>
      </trkpt>
      <trkpt lat="39.157521" lon="-1.587972">
        <ele>576.951844</ele>
        <time>2021-11-03T16:20:50.182Z</time>
      </trkpt>
      <trkpt lat="39.157406" lon="-1.587769">
        <ele>576.983924</ele>
        <time>2021-11-03T16:20:50.182Z</time>
      </trkpt>
      <trkpt lat="39.157356" lon="-1.587709">
        <ele>576.995163</ele>
        <time>2021-11-03T16:20:50.182Z</time>
      </trkpt>
      <trkpt lat="39.157243" lon="-1.587606">
        <ele>577.032223</ele>
        <time>2021-11-03T16:20:50.182Z</time>
      </trkpt>
      <trkpt lat="39.157125" lon="-1.587519">
        <ele>577.105575</ele>
        <time>2021-11-03T16:20:50.182Z</time>
      </trkpt>
      <trkpt lat="39.157064" lon="-1.587476">
        <ele>577.143091</ele>
        <time>2021-11-03T16:20:50.182Z</time>
      </trkpt>
      <trkpt lat="39.156850" lon="-1.587271">
        <ele>577.286953</ele>
        <time>2021-11-03T16:20:50.182Z</time>
      </trkpt>
      <trkpt lat="39.156806" lon="-1.587206">
        <ele>577.323059</ele>
        <time>2021-11-03T16:20:50.182Z</time>
      </trkpt>
      <trkpt lat="39.156731" lon="-1.587056">
        <ele>577.397746</ele>
        <time>2021-11-03T16:20:50.182Z</time>
      </trkpt>
      <trkpt lat="39.156701" lon="-1.586978">
        <ele>577.434180</ele>
        <time>2021-11-03T16:20:50.182Z</time>
      </trkpt>
      <trkpt lat="39.156639" lon="-1.586824">
        <ele>577.506792</ele>
        <time>2021-11-03T16:20:50.182Z</time>
      </trkpt>
      <trkpt lat="39.156534" lon="-1.586532">
        <ele>577.641482</ele>
        <time>2021-11-03T16:20:50.182Z</time>
      </trkpt>
      <trkpt lat="39.156514" lon="-1.586458">
        <ele>577.674275</ele>
        <time>2021-11-03T16:20:50.182Z</time>
      </trkpt>
      <trkpt lat="39.156493" lon="-1.586385">
        <ele>577.706858</ele>
        <time>2021-11-03T16:20:50.182Z</time>
      </trkpt>
      <trkpt lat="39.156447" lon="-1.586243">
        <ele>577.771256</ele>
        <time>2021-11-03T16:20:50.182Z</time>
      </trkpt>
      <trkpt lat="39.156292" lon="-1.585746">
        <ele>577.994316</ele>
        <time>2021-11-03T16:20:50.182Z</time>
      </trkpt>
      <trkpt lat="39.156237" lon="-1.585619">
        <ele>578.050041</ele>
        <time>2021-11-03T16:20:50.182Z</time>
      </trkpt>
      <trkpt lat="39.156205" lon="-1.585560">
        <ele>578.077623</ele>
        <time>2021-11-03T16:20:50.182Z</time>
      </trkpt>
      <trkpt lat="39.156114" lon="-1.585376">
        <ele>578.161228</ele>
        <time>2021-11-03T16:20:50.182Z</time>
      </trkpt>
      <trkpt lat="39.156041" lon="-1.585190">
        <ele>578.241089</ele>
        <time>2021-11-03T16:20:50.182Z</time>
      </trkpt>
      <trkpt lat="39.155954" lon="-1.584890">
        <ele>578.363790</ele>
        <time>2021-11-03T16:20:50.182Z</time>
      </trkpt>
      <trkpt lat="39.155918" lon="-1.584774">
        <ele>578.411655</ele>
        <time>2021-11-03T16:20:50.182Z</time>
      </trkpt>
      <trkpt lat="39.155895" lon="-1.584714">
        <ele>578.437295</ele>
        <time>2021-11-03T16:20:50.182Z</time>
      </trkpt>
      <trkpt lat="39.155838" lon="-1.584600">
        <ele>578.489259</ele>
        <time>2021-11-03T16:20:50.182Z</time>
      </trkpt>
      <trkpt lat="39.155633" lon="-1.584259">
        <ele>578.654553</ele>
        <time>2021-11-03T16:20:50.182Z</time>
      </trkpt>
      <trkpt lat="39.155605" lon="-1.584193">
        <ele>578.683374</ele>
        <time>2021-11-03T16:20:50.182Z</time>
      </trkpt>
      <trkpt lat="39.155480" lon="-1.583764">
        <ele>578.858939</ele>
        <time>2021-11-03T16:20:50.182Z</time>
      </trkpt>
      <trkpt lat="39.155443" lon="-1.583628">
        <ele>578.652058</ele>
        <time>2021-11-03T16:20:50.182Z</time>
      </trkpt>
      <trkpt lat="39.155420" lon="-1.583561">
        <ele>578.510014</ele>
        <time>2021-11-03T16:20:50.182Z</time>
      </trkpt>
      <trkpt lat="39.155382" lon="-1.583415">
        <ele>578.211463</ele>
        <time>2021-11-03T16:20:50.182Z</time>
      </trkpt>
      <trkpt lat="39.155286" lon="-1.583097">
        <ele>577.549922</ele>
        <time>2021-11-03T16:20:50.182Z</time>
      </trkpt>
      <trkpt lat="39.155221" lon="-1.582859">
        <ele>577.060757</ele>
        <time>2021-11-03T16:20:50.182Z</time>
      </trkpt>
      <trkpt lat="39.155195" lon="-1.582768">
        <ele>576.872752</ele>
        <time>2021-11-03T16:20:50.182Z</time>
      </trkpt>
      <trkpt lat="39.155089" lon="-1.582387">
        <ele>576.088047</ele>
        <time>2021-11-03T16:20:50.182Z</time>
      </trkpt>
      <trkpt lat="39.155076" lon="-1.582285">
        <ele>575.887658</ele>
        <time>2021-11-03T16:20:50.182Z</time>
      </trkpt>
      <trkpt lat="39.155050" lon="-1.581987">
        <ele>575.306311</ele>
        <time>2021-11-03T16:20:50.182Z</time>
      </trkpt>
      <trkpt lat="39.155052" lon="-1.581888">
        <ele>575.114325</ele>
        <time>2021-11-03T16:20:50.182Z</time>
      </trkpt>
      <trkpt lat="39.155085" lon="-1.581606">
        <ele>574.561451</ele>
        <time>2021-11-03T16:20:50.182Z</time>
      </trkpt>
      <trkpt lat="39.155127" lon="-1.581437">
        <ele>574.415139</ele>
        <time>2021-11-03T16:20:50.182Z</time>
      </trkpt>
      <trkpt lat="39.155157" lon="-1.581355">
        <ele>574.460884</ele>
        <time>2021-11-03T16:20:50.182Z</time>
      </trkpt>
      <trkpt lat="39.155288" lon="-1.581119">
        <ele>574.607315</ele>
        <time>2021-11-03T16:20:50.182Z</time>
      </trkpt>
      <trkpt lat="39.155333" lon="-1.581049">
        <ele>574.653190</ele>
        <time>2021-11-03T16:20:50.182Z</time>
      </trkpt>
      <trkpt lat="39.155425" lon="-1.580925">
        <ele>574.739775</ele>
        <time>2021-11-03T16:20:50.182Z</time>
      </trkpt>
      <trkpt lat="39.155580" lon="-1.580776">
        <ele>574.865559</ele>
        <time>2021-11-03T16:20:50.182Z</time>
      </trkpt>
      <trkpt lat="39.155748" lon="-1.580672">
        <ele>574.986807</ele>
        <time>2021-11-03T16:20:50.182Z</time>
      </trkpt>
      <trkpt lat="39.155857" lon="-1.580614">
        <ele>575.063526</ele>
        <time>2021-11-03T16:20:50.182Z</time>
      </trkpt>
      <trkpt lat="39.155912" lon="-1.580586">
        <ele>575.101999</ele>
        <time>2021-11-03T16:20:50.182Z</time>
      </trkpt>
      <trkpt lat="39.156072" lon="-1.580494">
        <ele>575.215980</ele>
        <time>2021-11-03T16:20:50.182Z</time>
      </trkpt>
      <trkpt lat="39.156242" lon="-1.580385">
        <ele>575.339505</ele>
        <time>2021-11-03T16:20:50.182Z</time>
      </trkpt>
      <trkpt lat="39.156586" lon="-1.580079">
        <ele>575.527139</ele>
        <time>2021-11-03T16:20:50.182Z</time>
      </trkpt>
      <trkpt lat="39.156636" lon="-1.580025">
        <ele>575.516073</ele>
        <time>2021-11-03T16:20:50.182Z</time>
      </trkpt>
      <trkpt lat="39.156793" lon="-1.579872">
        <ele>575.482682</ele>
        <time>2021-11-03T16:20:50.182Z</time>
      </trkpt>
      <trkpt lat="39.156899" lon="-1.579781">
        <ele>575.461075</ele>
        <time>2021-11-03T16:20:50.182Z</time>
      </trkpt>
      <trkpt lat="39.156949" lon="-1.579739">
        <ele>575.450950</ele>
        <time>2021-11-03T16:20:50.182Z</time>
      </trkpt>
      <trkpt lat="39.157100" lon="-1.579614">
        <ele>575.420504</ele>
        <time>2021-11-03T16:20:50.182Z</time>
      </trkpt>
      <trkpt lat="39.157391" lon="-1.579279">
        <ele>575.354315</ele>
        <time>2021-11-03T16:20:50.182Z</time>
      </trkpt>
      <trkpt lat="39.157472" lon="-1.579125">
        <ele>575.329831</ele>
        <time>2021-11-03T16:20:50.182Z</time>
      </trkpt>
      <trkpt lat="39.157482" lon="-1.579010">
        <ele>575.314605</ele>
        <time>2021-11-03T16:20:50.182Z</time>
      </trkpt>
      <trkpt lat="39.157545" lon="-1.578852">
        <ele>575.291229</ele>
        <time>2021-11-03T16:20:50.182Z</time>
      </trkpt>
      <trkpt lat="39.157620" lon="-1.578672">
        <ele>575.264344</ele>
        <time>2021-11-03T16:20:50.182Z</time>
      </trkpt>
      <trkpt lat="39.157687" lon="-1.578493">
        <ele>575.235526</ele>
        <time>2021-11-03T16:20:50.182Z</time>
      </trkpt>
      <trkpt lat="39.157758" lon="-1.578251">
        <ele>575.124641</ele>
        <time>2021-11-03T16:20:50.182Z</time>
      </trkpt>
      <trkpt lat="39.157768" lon="-1.578173">
        <ele>575.090760</ele>
        <time>2021-11-03T16:20:50.182Z</time>
      </trkpt>
      <trkpt lat="39.157775" lon="-1.578023">
        <ele>575.026361</ele>
        <time>2021-11-03T16:20:50.182Z</time>
      </trkpt>
      <trkpt lat="39.157767" lon="-1.577944">
        <ele>574.992217</ele>
        <time>2021-11-03T16:20:50.182Z</time>
      </trkpt>
      <trkpt lat="39.157778" lon="-1.577881">
        <ele>574.964543</ele>
        <time>2021-11-03T16:20:50.182Z</time>
      </trkpt>
      <trkpt lat="39.157806" lon="-1.577810">
        <ele>574.930406</ele>
        <time>2021-11-03T16:20:50.182Z</time>
      </trkpt>
      <trkpt lat="39.157820" lon="-1.577737">
        <ele>574.898179</ele>
        <time>2021-11-03T16:20:50.182Z</time>
      </trkpt>
      <trkpt lat="39.157861" lon="-1.577617">
        <ele>574.841982</ele>
        <time>2021-11-03T16:20:50.182Z</time>
      </trkpt>
      <trkpt lat="39.157817" lon="-1.577441">
        <ele>574.762733</ele>
        <time>2021-11-03T16:20:50.182Z</time>
      </trkpt>
      <trkpt lat="39.157752" lon="-1.577253">
        <ele>574.674519</ele>
        <time>2021-11-03T16:20:50.182Z</time>
      </trkpt>
      <trkpt lat="39.157721" lon="-1.577161">
        <ele>574.631530</ele>
        <time>2021-11-03T16:20:50.182Z</time>
      </trkpt>
      <trkpt lat="39.157696" lon="-1.577071">
        <ele>574.590560</ele>
        <time>2021-11-03T16:20:50.182Z</time>
      </trkpt>
      <trkpt lat="39.157658" lon="-1.576918">
        <ele>574.521710</ele>
        <time>2021-11-03T16:20:50.182Z</time>
      </trkpt>
      <trkpt lat="39.157570" lon="-1.576791">
        <ele>574.448719</ele>
        <time>2021-11-03T16:20:50.182Z</time>
      </trkpt>
      <trkpt lat="39.157390" lon="-1.576587">
        <ele>574.316281</ele>
        <time>2021-11-03T16:20:50.182Z</time>
      </trkpt>
      <trkpt lat="39.157362" lon="-1.576526">
        <ele>574.285902</ele>
        <time>2021-11-03T16:20:50.182Z</time>
      </trkpt>
      <trkpt lat="39.157343" lon="-1.576459">
        <ele>574.255329</ele>
        <time>2021-11-03T16:20:50.182Z</time>
      </trkpt>
      <trkpt lat="39.157319" lon="-1.576252">
        <ele>574.242549</ele>
        <time>2021-11-03T16:20:50.182Z</time>
      </trkpt>
      <trkpt lat="39.157317" lon="-1.576178">
        <ele>574.241454</ele>
        <time>2021-11-03T16:20:50.182Z</time>
      </trkpt>
      <trkpt lat="39.157314" lon="-1.576106">
        <ele>574.240387</ele>
        <time>2021-11-03T16:20:50.182Z</time>
      </trkpt>
      <trkpt lat="39.157304" lon="-1.576041">
        <ele>574.239407</ele>
        <time>2021-11-03T16:20:50.182Z</time>
      </trkpt>
      <trkpt lat="39.157290" lon="-1.575976">
        <ele>574.238409</ele>
        <time>2021-11-03T16:20:50.182Z</time>
      </trkpt>
      <trkpt lat="39.157274" lon="-1.575908">
        <ele>574.237358</ele>
        <time>2021-11-03T16:20:50.182Z</time>
      </trkpt>
      <trkpt lat="39.157254" lon="-1.575834">
        <ele>574.236199</ele>
        <time>2021-11-03T16:20:50.182Z</time>
      </trkpt>
      <trkpt lat="39.157227" lon="-1.575758">
        <ele>574.234962</ele>
        <time>2021-11-03T16:20:50.182Z</time>
      </trkpt>
      <trkpt lat="39.157095" lon="-1.575444">
        <ele>574.229678</ele>
        <time>2021-11-03T16:20:50.182Z</time>
      </trkpt>
      <trkpt lat="39.157042" lon="-1.575277">
        <ele>574.227009</ele>
        <time>2021-11-03T16:20:50.182Z</time>
      </trkpt>
      <trkpt lat="39.157028" lon="-1.575190">
        <ele>574.225694</ele>
        <time>2021-11-03T16:20:50.182Z</time>
      </trkpt>
      <trkpt lat="39.157026" lon="-1.575105">
        <ele>574.224436</ele>
        <time>2021-11-03T16:20:50.182Z</time>
      </trkpt>
      <trkpt lat="39.157030" lon="-1.575022">
        <ele>574.223206</ele>
        <time>2021-11-03T16:20:50.182Z</time>
      </trkpt>
      <trkpt lat="39.157037" lon="-1.574866">
        <ele>574.220894</ele>
        <time>2021-11-03T16:20:50.182Z</time>
      </trkpt>
      <trkpt lat="39.157036" lon="-1.574731">
        <ele>574.218897</ele>
        <time>2021-11-03T16:20:50.182Z</time>
      </trkpt>
      <trkpt lat="39.157036" lon="-1.574566">
        <ele>574.216456</ele>
        <time>2021-11-03T16:20:50.182Z</time>
      </trkpt>
      <trkpt lat="39.157046" lon="-1.574479">
        <ele>574.215155</ele>
        <time>2021-11-03T16:20:50.182Z</time>
      </trkpt>
      <trkpt lat="39.157050" lon="-1.574347">
        <ele>574.213201</ele>
        <time>2021-11-03T16:20:50.182Z</time>
      </trkpt>
      <trkpt lat="39.157014" lon="-1.574188">
        <ele>574.237846</ele>
        <time>2021-11-03T16:20:50.182Z</time>
      </trkpt>
      <trkpt lat="39.157007" lon="-1.574137">
        <ele>574.325616</ele>
        <time>2021-11-03T16:20:50.182Z</time>
      </trkpt>
      <trkpt lat="39.157014" lon="-1.573824">
        <ele>574.856259</ele>
        <time>2021-11-03T16:20:50.182Z</time>
      </trkpt>
      <trkpt lat="39.157030" lon="-1.573707">
        <ele>575.057591</ele>
        <time>2021-11-03T16:20:50.182Z</time>
      </trkpt>
      <trkpt lat="39.157042" lon="-1.573648">
        <ele>575.160957</ele>
        <time>2021-11-03T16:20:50.182Z</time>
      </trkpt>
      <trkpt lat="39.157042" lon="-1.573550">
        <ele>575.327032</ele>
        <time>2021-11-03T16:20:50.182Z</time>
      </trkpt>
      <trkpt lat="39.156982" lon="-1.573493">
        <ele>575.489896</ele>
        <time>2021-11-03T16:20:50.182Z</time>
      </trkpt>
      <trkpt lat="39.156938" lon="-1.573469">
        <ele>575.594304</ele>
        <time>2021-11-03T16:20:50.182Z</time>
      </trkpt>
      <trkpt lat="39.156660" lon="-1.573377">
        <ele>576.221544</ele>
        <time>2021-11-03T16:20:50.182Z</time>
      </trkpt>
      <trkpt lat="39.156615" lon="-1.573362">
        <ele>576.323122</ele>
        <time>2021-11-03T16:20:50.182Z</time>
      </trkpt>
      <trkpt lat="39.156532" lon="-1.573347">
        <ele>576.506287</ele>
        <time>2021-11-03T16:20:50.182Z</time>
      </trkpt>
      <trkpt lat="39.156462" lon="-1.573415">
        <ele>576.697814</ele>
        <time>2021-11-03T16:20:50.182Z</time>
      </trkpt>
      <trkpt lat="39.156422" lon="-1.573523">
        <ele>576.900642</ele>
        <time>2021-11-03T16:20:50.182Z</time>
      </trkpt>
      <trkpt lat="39.156403" lon="-1.573621">
        <ele>577.071830</ele>
        <time>2021-11-03T16:20:50.182Z</time>
      </trkpt>
      <trkpt lat="39.156378" lon="-1.573741">
        <ele>577.282401</ele>
        <time>2021-11-03T16:20:50.182Z</time>
      </trkpt>
      <trkpt lat="39.156351" lon="-1.573819">
        <ele>577.427156</ele>
        <time>2021-11-03T16:20:50.182Z</time>
      </trkpt>
      <trkpt lat="39.156340" lon="-1.573840">
        <ele>577.470103</ele>
        <time>2021-11-03T16:20:50.182Z</time>
      </trkpt>
      <trkpt lat="39.156307" lon="-1.573909">
        <ele>577.607486</ele>
        <time>2021-11-03T16:20:50.182Z</time>
      </trkpt>
      <trkpt lat="39.156288" lon="-1.573920">
        <ele>577.653002</ele>
        <time>2021-11-03T16:20:50.182Z</time>
      </trkpt>
      <trkpt lat="39.156264" lon="-1.573956">
        <ele>577.733457</ele>
        <time>2021-11-03T16:20:50.182Z</time>
      </trkpt>
      <trkpt lat="39.156239" lon="-1.573997">
        <ele>577.821847</ele>
        <time>2021-11-03T16:20:50.182Z</time>
      </trkpt>
      <trkpt lat="39.156237" lon="-1.574021">
        <ele>577.862753</ele>
        <time>2021-11-03T16:20:50.182Z</time>
      </trkpt>
      <trkpt lat="39.156238" lon="-1.574047">
        <ele>577.906868</ele>
        <time>2021-11-03T16:20:50.182Z</time>
      </trkpt>
      <trkpt lat="39.156243" lon="-1.574096">
        <ele>577.990622</ele>
        <time>2021-11-03T16:20:50.182Z</time>
      </trkpt>
      <trkpt lat="39.156252" lon="-1.574170">
        <ele>578.117560</ele>
        <time>2021-11-03T16:20:50.182Z</time>
      </trkpt>
      <trkpt lat="39.156260" lon="-1.574223">
        <ele>578.414005</ele>
        <time>2021-11-03T16:20:50.182Z</time>
      </trkpt>
      <trkpt lat="39.156261" lon="-1.574347">
        <ele>579.264763</ele>
        <time>2021-11-03T16:20:50.182Z</time>
      </trkpt>
      <trkpt lat="39.156254" lon="-1.574398">
        <ele>579.620091</ele>
        <time>2021-11-03T16:20:50.182Z</time>
      </trkpt>
      <trkpt lat="39.156245" lon="-1.574427">
        <ele>579.834391</ele>
        <time>2021-11-03T16:20:50.182Z</time>
      </trkpt>
      <trkpt lat="39.156241" lon="-1.574456">
        <ele>580.036471</ele>
        <time>2021-11-03T16:20:50.182Z</time>
      </trkpt>
      <trkpt lat="39.156235" lon="-1.574576">
        <ele>580.861451</ele>
        <time>2021-11-03T16:20:50.182Z</time>
      </trkpt>
      <trkpt lat="39.156236" lon="-1.574605">
        <ele>581.060604</ele>
        <time>2021-11-03T16:20:50.182Z</time>
      </trkpt>
      <trkpt lat="39.156210" lon="-1.574824">
        <ele>582.580580</ele>
        <time>2021-11-03T16:20:50.182Z</time>
      </trkpt>
      <trkpt lat="39.156194" lon="-1.574973">
        <ele>583.612563</ele>
        <time>2021-11-03T16:20:50.182Z</time>
      </trkpt>
      <trkpt lat="39.156195" lon="-1.575025">
        <ele>583.969423</ele>
        <time>2021-11-03T16:20:50.182Z</time>
      </trkpt>
      <trkpt lat="39.156195" lon="-1.575074">
        <ele>584.305592</ele>
        <time>2021-11-03T16:20:50.182Z</time>
      </trkpt>
      <trkpt lat="39.156200" lon="-1.575123">
        <ele>584.644659</ele>
        <time>2021-11-03T16:20:50.182Z</time>
      </trkpt>
      <trkpt lat="39.156200" lon="-1.575195">
        <ele>585.138621</ele>
        <time>2021-11-03T16:20:50.182Z</time>
      </trkpt>
      <trkpt lat="39.156193" lon="-1.575243">
        <ele>585.473702</ele>
        <time>2021-11-03T16:20:50.182Z</time>
      </trkpt>
      <trkpt lat="39.156204" lon="-1.575440">
        <ele>586.828737</ele>
        <time>2021-11-03T16:20:50.182Z</time>
      </trkpt>
      <trkpt lat="39.156205" lon="-1.575539">
        <ele>587.507993</ele>
        <time>2021-11-03T16:20:50.182Z</time>
      </trkpt>
      <trkpt lat="39.156201" lon="-1.575587">
        <ele>587.839198</ele>
        <time>2021-11-03T16:20:50.182Z</time>
      </trkpt>
      <trkpt lat="39.156192" lon="-1.575634">
        <ele>588.171332</ele>
        <time>2021-11-03T16:20:50.182Z</time>
      </trkpt>
      <trkpt lat="39.156161" lon="-1.575735">
        <ele>588.916558</ele>
        <time>2021-11-03T16:20:50.182Z</time>
      </trkpt>
      <trkpt lat="39.156144" lon="-1.575832">
        <ele>589.598821</ele>
        <time>2021-11-03T16:20:50.182Z</time>
      </trkpt>
      <trkpt lat="39.156142" lon="-1.575846">
        <ele>589.696486</ele>
        <time>2021-11-03T16:20:50.182Z</time>
      </trkpt>
      <trkpt lat="39.156128" lon="-1.575948">
        <ele>590.407144</ele>
        <time>2021-11-03T16:20:50.182Z</time>
      </trkpt>
      <trkpt lat="39.156164" lon="-1.576125">
        <ele>591.662546</ele>
        <time>2021-11-03T16:20:50.182Z</time>
      </trkpt>
      <trkpt lat="39.156173" lon="-1.576155">
        <ele>591.883230</ele>
        <time>2021-11-03T16:20:50.182Z</time>
      </trkpt>
      <trkpt lat="39.156205" lon="-1.576285">
        <ele>592.818965</ele>
        <time>2021-11-03T16:20:50.182Z</time>
      </trkpt>
      <trkpt lat="39.156217" lon="-1.576340">
        <ele>593.210949</ele>
        <time>2021-11-03T16:20:50.182Z</time>
      </trkpt>
      <trkpt lat="39.156228" lon="-1.576398">
        <ele>593.620592</ele>
        <time>2021-11-03T16:20:50.182Z</time>
      </trkpt>
      <trkpt lat="39.156255" lon="-1.576535">
        <ele>594.684213</ele>
        <time>2021-11-03T16:20:50.182Z</time>
      </trkpt>
      <trkpt lat="39.156263" lon="-1.576584">
        <ele>595.088003</ele>
        <time>2021-11-03T16:20:50.182Z</time>
      </trkpt>
      <trkpt lat="39.156260" lon="-1.576603">
        <ele>595.244359</ele>
        <time>2021-11-03T16:20:50.182Z</time>
      </trkpt>
      <trkpt lat="39.156239" lon="-1.576619">
        <ele>595.498007</ele>
        <time>2021-11-03T16:20:50.182Z</time>
      </trkpt>
      <trkpt lat="39.156227" lon="-1.576606">
        <ele>595.660985</ele>
        <time>2021-11-03T16:20:50.182Z</time>
      </trkpt>
      <trkpt lat="39.156223" lon="-1.576579">
        <ele>595.882646</ele>
        <time>2021-11-03T16:20:50.182Z</time>
      </trkpt>
      <trkpt lat="39.156215" lon="-1.576519">
        <ele>596.373574</ele>
        <time>2021-11-03T16:20:50.182Z</time>
      </trkpt>
      <trkpt lat="39.156203" lon="-1.576464">
        <ele>596.834305</ele>
        <time>2021-11-03T16:20:50.182Z</time>
      </trkpt>
      <trkpt lat="39.156188" lon="-1.576359">
        <ele>597.695254</ele>
        <time>2021-11-03T16:20:50.182Z</time>
      </trkpt>
      <trkpt lat="39.156169" lon="-1.576311">
        <ele>598.129831</ele>
        <time>2021-11-03T16:20:50.182Z</time>
      </trkpt>
      <trkpt lat="39.156151" lon="-1.576299">
        <ele>598.340549</ele>
        <time>2021-11-03T16:20:50.182Z</time>
      </trkpt>
      <trkpt lat="39.156134" lon="-1.576343">
        <ele>598.736960</ele>
        <time>2021-11-03T16:20:50.182Z</time>
      </trkpt>
      <trkpt lat="39.156146" lon="-1.576386">
        <ele>599.105476</ele>
        <time>2021-11-03T16:20:50.182Z</time>
      </trkpt>
      <trkpt lat="39.156175" lon="-1.576477">
        <ele>599.898836</ele>
        <time>2021-11-03T16:20:50.182Z</time>
      </trkpt>
      <trkpt lat="39.156189" lon="-1.576649">
        <ele>601.293431</ele>
        <time>2021-11-03T16:20:50.182Z</time>
      </trkpt>
      <trkpt lat="39.156194" lon="-1.576671">
        <ele>601.478298</ele>
        <time>2021-11-03T16:20:50.182Z</time>
      </trkpt>
      <trkpt lat="39.156213" lon="-1.576793">
        <ele>602.481728</ele>
        <time>2021-11-03T16:20:50.182Z</time>
      </trkpt>
      <trkpt lat="39.156235" lon="-1.576943">
        <ele>603.712744</ele>
        <time>2021-11-03T16:20:50.182Z</time>
      </trkpt>
      <trkpt lat="39.156241" lon="-1.576992">
        <ele>604.112767</ele>
        <time>2021-11-03T16:20:50.182Z</time>
      </trkpt>
      <trkpt lat="39.156269" lon="-1.577125">
        <ele>605.224076</ele>
        <time>2021-11-03T16:20:50.182Z</time>
      </trkpt>
      <trkpt lat="39.156276" lon="-1.577170">
        <ele>605.594177</ele>
        <time>2021-11-03T16:20:50.182Z</time>
      </trkpt>
      <trkpt lat="39.156301" lon="-1.577255">
        <ele>606.327248</ele>
        <time>2021-11-03T16:20:50.182Z</time>
      </trkpt>
      <trkpt lat="39.156311" lon="-1.577297">
        <ele>606.681533</ele>
        <time>2021-11-03T16:20:50.182Z</time>
      </trkpt>
      <trkpt lat="39.156322" lon="-1.577342">
        <ele>607.062007</ele>
        <time>2021-11-03T16:20:50.182Z</time>
      </trkpt>
      <trkpt lat="39.156336" lon="-1.577406">
        <ele>607.598232</ele>
        <time>2021-11-03T16:20:50.182Z</time>
      </trkpt>
      <trkpt lat="39.156327" lon="-1.577421">
        <ele>607.751171</ele>
        <time>2021-11-03T16:20:50.182Z</time>
      </trkpt>
      <trkpt lat="39.156307" lon="-1.577421">
        <ele>607.959154</ele>
        <time>2021-11-03T16:20:50.182Z</time>
      </trkpt>
      <trkpt lat="39.156300" lon="-1.577406">
        <ele>608.100326</ele>
        <time>2021-11-03T16:20:50.182Z</time>
      </trkpt>
      <trkpt lat="39.156281" lon="-1.577334">
        <ele>608.713619</ele>
        <time>2021-11-03T16:20:50.182Z</time>
      </trkpt>
      <trkpt lat="39.156259" lon="-1.577236">
        <ele>609.536322</ele>
        <time>2021-11-03T16:20:50.182Z</time>
      </trkpt>
      <trkpt lat="39.156251" lon="-1.577186">
        <ele>609.948006</ele>
        <time>2021-11-03T16:20:50.182Z</time>
      </trkpt>
      <trkpt lat="39.156233" lon="-1.577146">
        <ele>610.320937</ele>
        <time>2021-11-03T16:20:50.182Z</time>
      </trkpt>
      <trkpt lat="39.156200" lon="-1.577156">
        <ele>610.673457</ele>
        <time>2021-11-03T16:20:50.182Z</time>
      </trkpt>
      <trkpt lat="39.156198" lon="-1.577179">
        <ele>610.860087</ele>
        <time>2021-11-03T16:20:50.182Z</time>
      </trkpt>
      <trkpt lat="39.156216" lon="-1.577250">
        <ele>611.462440</ele>
        <time>2021-11-03T16:20:50.182Z</time>
      </trkpt>
      <trkpt lat="39.156244" lon="-1.577378">
        <ele>612.534892</ele>
        <time>2021-11-03T16:20:50.182Z</time>
      </trkpt>
      <trkpt lat="39.156253" lon="-1.577426">
        <ele>612.925182</ele>
        <time>2021-11-03T16:20:50.182Z</time>
      </trkpt>
      <trkpt lat="39.156300" lon="-1.577528">
        <ele>613.838207</ele>
        <time>2021-11-03T16:20:50.182Z</time>
      </trkpt>
      <trkpt lat="39.156337" lon="-1.577651">
        <ele>614.853432</ele>
        <time>2021-11-03T16:20:50.182Z</time>
      </trkpt>
      <trkpt lat="39.156343" lon="-1.577676">
        <ele>615.054814</ele>
        <time>2021-11-03T16:20:50.182Z</time>
      </trkpt>
      <trkpt lat="39.156355" lon="-1.577724">
        <ele>615.442902</ele>
        <time>2021-11-03T16:20:50.182Z</time>
      </trkpt>
      <trkpt lat="39.156365" lon="-1.577838">
        <ele>616.325740</ele>
        <time>2021-11-03T16:20:50.182Z</time>
      </trkpt>
      <trkpt lat="39.156367" lon="-1.577922">
        <ele>616.972435</ele>
        <time>2021-11-03T16:20:50.182Z</time>
      </trkpt>
      <trkpt lat="39.156354" lon="-1.577987">
        <ele>617.488986</ele>
        <time>2021-11-03T16:20:50.182Z</time>
      </trkpt>
      <trkpt lat="39.156346" lon="-1.578002">
        <ele>617.629080</ele>
        <time>2021-11-03T16:20:50.182Z</time>
      </trkpt>
      <trkpt lat="39.156283" lon="-1.578126">
        <ele>618.769850</ele>
        <time>2021-11-03T16:20:50.182Z</time>
      </trkpt>
      <trkpt lat="39.156269" lon="-1.578151">
        <ele>619.007150</ele>
        <time>2021-11-03T16:20:50.182Z</time>
      </trkpt>
      <trkpt lat="39.156245" lon="-1.578154">
        <ele>619.246436</ele>
        <time>2021-11-03T16:20:50.182Z</time>
      </trkpt>
      <trkpt lat="39.156232" lon="-1.578145">
        <ele>619.392859</ele>
        <time>2021-11-03T16:20:50.182Z</time>
      </trkpt>
      <trkpt lat="39.156206" lon="-1.578094">
        <ele>619.862530</ele>
        <time>2021-11-03T16:20:50.182Z</time>
      </trkpt>
      <trkpt lat="39.156192" lon="-1.578061">
        <ele>620.151991</ele>
        <time>2021-11-03T16:20:50.182Z</time>
      </trkpt>
      <trkpt lat="39.156158" lon="-1.577947">
        <ele>621.091886</ele>
        <time>2021-11-03T16:20:50.182Z</time>
      </trkpt>
      <trkpt lat="39.156138" lon="-1.577867">
        <ele>621.738701</ele>
        <time>2021-11-03T16:20:50.182Z</time>
      </trkpt>
      <trkpt lat="39.156124" lon="-1.577828">
        <ele>622.069410</ele>
        <time>2021-11-03T16:20:50.182Z</time>
      </trkpt>
      <trkpt lat="39.156102" lon="-1.577767">
        <ele>622.587101</ele>
        <time>2021-11-03T16:20:50.182Z</time>
      </trkpt>
      <trkpt lat="39.156041" lon="-1.577628">
        <ele>623.816143</ele>
        <time>2021-11-03T16:20:50.182Z</time>
      </trkpt>
      <trkpt lat="39.155985" lon="-1.577480">
        <ele>625.083380</ele>
        <time>2021-11-03T16:20:50.182Z</time>
      </trkpt>
      <trkpt lat="39.155978" lon="-1.577458">
        <ele>625.266371</ele>
        <time>2021-11-03T16:20:50.182Z</time>
      </trkpt>
      <trkpt lat="39.155943" lon="-1.577350">
        <ele>626.167109</ele>
        <time>2021-11-03T16:20:50.182Z</time>
      </trkpt>
      <trkpt lat="39.155929" lon="-1.577308">
        <ele>626.518902</ele>
        <time>2021-11-03T16:20:50.182Z</time>
      </trkpt>
      <trkpt lat="39.155892" lon="-1.577153">
        <ele>627.766890</ele>
        <time>2021-11-03T16:20:50.182Z</time>
      </trkpt>
      <trkpt lat="39.155880" lon="-1.577085">
        <ele>628.303541</ele>
        <time>2021-11-03T16:20:50.182Z</time>
      </trkpt>
      <trkpt lat="39.155870" lon="-1.577040">
        <ele>628.663763</ele>
        <time>2021-11-03T16:20:50.182Z</time>
      </trkpt>
      <trkpt lat="39.155827" lon="-1.576948">
        <ele>629.490377</ele>
        <time>2021-11-03T16:20:50.182Z</time>
      </trkpt>
      <trkpt lat="39.155799" lon="-1.576933">
        <ele>629.791263</ele>
        <time>2021-11-03T16:20:50.182Z</time>
      </trkpt>
      <trkpt lat="39.155749" lon="-1.576937">
        <ele>630.288403</ele>
        <time>2021-11-03T16:20:50.182Z</time>
      </trkpt>
      <trkpt lat="39.155698" lon="-1.576955">
        <ele>630.821458</ele>
        <time>2021-11-03T16:20:50.182Z</time>
      </trkpt>
      <trkpt lat="39.155647" lon="-1.576971">
        <ele>631.363588</ele>
        <time>2021-11-03T16:20:50.182Z</time>
      </trkpt>
      <trkpt lat="39.155559" lon="-1.577039">
        <ele>632.423199</ele>
        <time>2021-11-03T16:20:50.182Z</time>
      </trkpt>
      <trkpt lat="39.155530" lon="-1.577059">
        <ele>632.762876</ele>
        <time>2021-11-03T16:20:50.182Z</time>
      </trkpt>
      <trkpt lat="39.155473" lon="-1.577112">
        <ele>633.488690</ele>
        <time>2021-11-03T16:20:50.182Z</time>
      </trkpt>
      <trkpt lat="39.155461" lon="-1.577123">
        <ele>633.640757</ele>
        <time>2021-11-03T16:20:50.182Z</time>
      </trkpt>
      <trkpt lat="39.155425" lon="-1.577161">
        <ele>634.121270</ele>
        <time>2021-11-03T16:20:50.182Z</time>
      </trkpt>
      <trkpt lat="39.155401" lon="-1.577234">
        <ele>634.756327</ele>
        <time>2021-11-03T16:20:50.182Z</time>
      </trkpt>
      <trkpt lat="39.155363" lon="-1.577283">
        <ele>635.311369</ele>
        <time>2021-11-03T16:20:50.182Z</time>
      </trkpt>
      <trkpt lat="39.155352" lon="-1.577292">
        <ele>635.445923</ele>
        <time>2021-11-03T16:20:50.182Z</time>
      </trkpt>
      <trkpt lat="39.155327" lon="-1.577311">
        <ele>635.745647</ele>
        <time>2021-11-03T16:20:50.182Z</time>
      </trkpt>
      <trkpt lat="39.155288" lon="-1.577336">
        <ele>636.195490</ele>
        <time>2021-11-03T16:20:50.182Z</time>
      </trkpt>
      <trkpt lat="39.155246" lon="-1.577350">
        <ele>636.643555</ele>
        <time>2021-11-03T16:20:50.182Z</time>
      </trkpt>
      <trkpt lat="39.155231" lon="-1.577344">
        <ele>636.805768</ele>
        <time>2021-11-03T16:20:50.182Z</time>
      </trkpt>
      <trkpt lat="39.155202" lon="-1.577321">
        <ele>637.157415</ele>
        <time>2021-11-03T16:20:50.182Z</time>
      </trkpt>
      <trkpt lat="39.155173" lon="-1.577292">
        <ele>637.536453</ele>
        <time>2021-11-03T16:20:50.182Z</time>
      </trkpt>
      <trkpt lat="39.155160" lon="-1.577277">
        <ele>637.716628</ele>
        <time>2021-11-03T16:20:50.182Z</time>
      </trkpt>
      <trkpt lat="39.155105" lon="-1.577225">
        <ele>638.421026</ele>
        <time>2021-11-03T16:20:50.182Z</time>
      </trkpt>
      <trkpt lat="39.154998" lon="-1.577180">
        <ele>639.583488</ele>
        <time>2021-11-03T16:20:50.182Z</time>
      </trkpt>
      <trkpt lat="39.154981" lon="-1.577181">
        <ele>639.759259</ele>
        <time>2021-11-03T16:20:50.182Z</time>
      </trkpt>
      <trkpt lat="39.154897" lon="-1.577186">
        <ele>640.627798</ele>
        <time>2021-11-03T16:20:50.182Z</time>
      </trkpt>
      <trkpt lat="39.154864" lon="-1.577183">
        <ele>640.969493</ele>
        <time>2021-11-03T16:20:50.182Z</time>
      </trkpt>
      <trkpt lat="39.154781" lon="-1.577181">
        <ele>641.826929</ele>
        <time>2021-11-03T16:20:50.182Z</time>
      </trkpt>
      <trkpt lat="39.154764" lon="-1.577181">
        <ele>642.002518</ele>
        <time>2021-11-03T16:20:50.182Z</time>
      </trkpt>
      <trkpt lat="39.154702" lon="-1.577161">
        <ele>642.662632</ele>
        <time>2021-11-03T16:20:50.182Z</time>
      </trkpt>
      <trkpt lat="39.154671" lon="-1.577149">
        <ele>642.996937</ele>
        <time>2021-11-03T16:20:50.182Z</time>
      </trkpt>
      <trkpt lat="39.154572" lon="-1.577128">
        <ele>644.033225</ele>
        <time>2021-11-03T16:20:50.182Z</time>
      </trkpt>
      <trkpt lat="39.154554" lon="-1.577130">
        <ele>644.219831</ele>
        <time>2021-11-03T16:20:50.182Z</time>
      </trkpt>
      <trkpt lat="39.154467" lon="-1.577154">
        <ele>645.138763</ele>
        <time>2021-11-03T16:20:50.182Z</time>
      </trkpt>
      <trkpt lat="39.154418" lon="-1.577172">
        <ele>645.665005</ele>
        <time>2021-11-03T16:20:50.182Z</time>
      </trkpt>
      <trkpt lat="39.154374" lon="-1.577199">
        <ele>646.168299</ele>
        <time>2021-11-03T16:20:50.182Z</time>
      </trkpt>
      <trkpt lat="39.154302" lon="-1.577249">
        <ele>647.012942</ele>
        <time>2021-11-03T16:20:50.182Z</time>
      </trkpt>
      <trkpt lat="39.154276" lon="-1.577272">
        <ele>647.338601</ele>
        <time>2021-11-03T16:20:50.182Z</time>
      </trkpt>
      <trkpt lat="39.154209" lon="-1.577299">
        <ele>648.063630</ele>
        <time>2021-11-03T16:20:50.182Z</time>
      </trkpt>
      <trkpt lat="39.154108" lon="-1.577337">
        <ele>649.150326</ele>
        <time>2021-11-03T16:20:50.182Z</time>
      </trkpt>
      <trkpt lat="39.154072" lon="-1.577346">
        <ele>649.526209</ele>
        <time>2021-11-03T16:20:50.182Z</time>
      </trkpt>
      <trkpt lat="39.153942" lon="-1.577382">
        <ele>650.888024</ele>
        <time>2021-11-03T16:20:50.182Z</time>
      </trkpt>
      <trkpt lat="39.153855" lon="-1.577364">
        <ele>651.790475</ele>
        <time>2021-11-03T16:20:50.182Z</time>
      </trkpt>
      <trkpt lat="39.153771" lon="-1.577323">
        <ele>652.710367</ele>
        <time>2021-11-03T16:20:50.182Z</time>
      </trkpt>
      <trkpt lat="39.153741" lon="-1.577311">
        <ele>653.032069</ele>
        <time>2021-11-03T16:20:50.182Z</time>
      </trkpt>
      <trkpt lat="39.153714" lon="-1.577290">
        <ele>653.355007</ele>
        <time>2021-11-03T16:20:50.182Z</time>
      </trkpt>
      <trkpt lat="39.153674" lon="-1.577268">
        <ele>653.800393</ele>
        <time>2021-11-03T16:20:50.182Z</time>
      </trkpt>
      <trkpt lat="39.153632" lon="-1.577244">
        <ele>654.270898</ele>
        <time>2021-11-03T16:20:50.182Z</time>
      </trkpt>
      <trkpt lat="39.153617" lon="-1.577238">
        <ele>654.431749</ele>
        <time>2021-11-03T16:20:50.182Z</time>
      </trkpt>
      <trkpt lat="39.153520" lon="-1.577216">
        <ele>655.440473</ele>
        <time>2021-11-03T16:20:50.182Z</time>
      </trkpt>
      <trkpt lat="39.153469" lon="-1.577208">
        <ele>655.966666</ele>
        <time>2021-11-03T16:20:50.182Z</time>
      </trkpt>
      <trkpt lat="39.153384" lon="-1.577196">
        <ele>656.842438</ele>
        <time>2021-11-03T16:20:50.182Z</time>
      </trkpt>
      <trkpt lat="39.153352" lon="-1.577195">
        <ele>657.170279</ele>
        <time>2021-11-03T16:20:50.182Z</time>
      </trkpt>
      <trkpt lat="39.153302" lon="-1.577206">
        <ele>657.689779</ele>
        <time>2021-11-03T16:20:50.182Z</time>
      </trkpt>
      <trkpt lat="39.153253" lon="-1.577222">
        <ele>658.207476</ele>
        <time>2021-11-03T16:20:50.182Z</time>
      </trkpt>
      <trkpt lat="39.153236" lon="-1.577228">
        <ele>658.387994</ele>
        <time>2021-11-03T16:20:50.182Z</time>
      </trkpt>
      <trkpt lat="39.153190" lon="-1.577241">
        <ele>658.870307</ele>
        <time>2021-11-03T16:20:50.182Z</time>
      </trkpt>
      <trkpt lat="39.153110" lon="-1.577251">
        <ele>659.693509</ele>
        <time>2021-11-03T16:20:50.182Z</time>
      </trkpt>
      <trkpt lat="39.153044" lon="-1.577239">
        <ele>660.376168</ele>
        <time>2021-11-03T16:20:50.182Z</time>
      </trkpt>
      <trkpt lat="39.152998" lon="-1.577219">
        <ele>660.873358</ele>
        <time>2021-11-03T16:20:50.182Z</time>
      </trkpt>
      <trkpt lat="39.152954" lon="-1.577196">
        <ele>661.359623</ele>
        <time>2021-11-03T16:20:50.182Z</time>
      </trkpt>
      <trkpt lat="39.152881" lon="-1.577166">
        <ele>662.144338</ele>
        <time>2021-11-03T16:20:50.182Z</time>
      </trkpt>
      <trkpt lat="39.152867" lon="-1.577159">
        <ele>662.298127</ele>
        <time>2021-11-03T16:20:50.182Z</time>
      </trkpt>
      <trkpt lat="39.152786" lon="-1.577142">
        <ele>663.138646</ele>
        <time>2021-11-03T16:20:50.182Z</time>
      </trkpt>
      <trkpt lat="39.152770" lon="-1.577138">
        <ele>663.305569</ele>
        <time>2021-11-03T16:20:50.182Z</time>
      </trkpt>
      <trkpt lat="39.152688" lon="-1.577117">
        <ele>664.161816</ele>
        <time>2021-11-03T16:20:50.182Z</time>
      </trkpt>
      <trkpt lat="39.152675" lon="-1.577111">
        <ele>664.303233</ele>
        <time>2021-11-03T16:20:50.182Z</time>
      </trkpt>
      <trkpt lat="39.152661" lon="-1.577101">
        <ele>664.467149</ele>
        <time>2021-11-03T16:20:50.182Z</time>
      </trkpt>
      <trkpt lat="39.152630" lon="-1.577094">
        <ele>664.789482</ele>
        <time>2021-11-03T16:20:50.182Z</time>
      </trkpt>
      <trkpt lat="39.152614" lon="-1.577093">
        <ele>664.953546</ele>
        <time>2021-11-03T16:20:50.182Z</time>
      </trkpt>
      <trkpt lat="39.152568" lon="-1.577080">
        <ele>665.435860</ele>
        <time>2021-11-03T16:20:50.182Z</time>
      </trkpt>
      <trkpt lat="39.152506" lon="-1.577055">
        <ele>666.101185</ele>
        <time>2021-11-03T16:20:50.182Z</time>
      </trkpt>
      <trkpt lat="39.152461" lon="-1.577028">
        <ele>666.609522</ele>
        <time>2021-11-03T16:20:50.182Z</time>
      </trkpt>
      <trkpt lat="39.152417" lon="-1.577005">
        <ele>667.095787</ele>
        <time>2021-11-03T16:20:50.182Z</time>
      </trkpt>
      <trkpt lat="39.152355" lon="-1.576985">
        <ele>667.727775</ele>
        <time>2021-11-03T16:20:50.182Z</time>
      </trkpt>
      <trkpt lat="39.152305" lon="-1.576981">
        <ele>668.159206</ele>
        <time>2021-11-03T16:20:50.182Z</time>
      </trkpt>
      <trkpt lat="39.152240" lon="-1.576993">
        <ele>668.724698</ele>
        <time>2021-11-03T16:20:50.182Z</time>
      </trkpt>
      <trkpt lat="39.152209" lon="-1.577003">
        <ele>668.999899</ele>
        <time>2021-11-03T16:20:50.182Z</time>
      </trkpt>
      <trkpt lat="39.152150" lon="-1.577041">
        <ele>669.567862</ele>
        <time>2021-11-03T16:20:50.182Z</time>
      </trkpt>
      <trkpt lat="39.152134" lon="-1.577051">
        <ele>669.720987</ele>
        <time>2021-11-03T16:20:50.182Z</time>
      </trkpt>
      <trkpt lat="39.152118" lon="-1.577059">
        <ele>669.868775</ele>
        <time>2021-11-03T16:20:50.182Z</time>
      </trkpt>
      <trkpt lat="39.152017" lon="-1.577038">
        <ele>670.749828</ele>
        <time>2021-11-03T16:20:50.182Z</time>
      </trkpt>
      <trkpt lat="39.151983" lon="-1.577021">
        <ele>671.063879</ele>
        <time>2021-11-03T16:20:50.182Z</time>
      </trkpt>
      <trkpt lat="39.151960" lon="-1.577010">
        <ele>671.275141</ele>
        <time>2021-11-03T16:20:50.182Z</time>
      </trkpt>
      <trkpt lat="39.151936" lon="-1.576996">
        <ele>671.501994</ele>
        <time>2021-11-03T16:20:50.182Z</time>
      </trkpt>
      <trkpt lat="39.151899" lon="-1.576984">
        <ele>671.830565</ele>
        <time>2021-11-03T16:20:50.182Z</time>
      </trkpt>
      <trkpt lat="39.151900" lon="-1.576983">
        <ele>671.841463</ele>
        <time>2021-11-03T16:20:50.182Z</time>
      </trkpt>
      <trkpt lat="39.151898" lon="-1.576976">
        <ele>671.891284</ele>
        <time>2021-11-03T16:20:50.182Z</time>
      </trkpt>
      <trkpt lat="39.151867" lon="-1.576957">
        <ele>672.186879</ele>
        <time>2021-11-03T16:20:50.182Z</time>
      </trkpt>
      <trkpt lat="39.151751" lon="-1.576907">
        <ele>673.240210</ele>
        <time>2021-11-03T16:20:50.182Z</time>
      </trkpt>
      <trkpt lat="39.151678" lon="-1.576873">
        <ele>673.908641</ele>
        <time>2021-11-03T16:20:50.182Z</time>
      </trkpt>
      <trkpt lat="39.151617" lon="-1.576848">
        <ele>674.459871</ele>
        <time>2021-11-03T16:20:50.182Z</time>
      </trkpt>
      <trkpt lat="39.151597" lon="-1.576844">
        <ele>674.634172</ele>
        <time>2021-11-03T16:20:50.182Z</time>
      </trkpt>
      <trkpt lat="39.151579" lon="-1.576835">
        <ele>674.800434</ele>
        <time>2021-11-03T16:20:50.182Z</time>
      </trkpt>
      <trkpt lat="39.151487" lon="-1.576776">
        <ele>675.685316</ele>
        <time>2021-11-03T16:20:50.182Z</time>
      </trkpt>
      <trkpt lat="39.151358" lon="-1.576732">
        <ele>676.834479</ele>
        <time>2021-11-03T16:20:50.182Z</time>
      </trkpt>
      <trkpt lat="39.151339" lon="-1.576734">
        <ele>676.998653</ele>
        <time>2021-11-03T16:20:50.182Z</time>
      </trkpt>
      <trkpt lat="39.151244" lon="-1.576720">
        <ele>677.822125</ele>
        <time>2021-11-03T16:20:50.182Z</time>
      </trkpt>
      <trkpt lat="39.151208" lon="-1.576719">
        <ele>678.132231</ele>
        <time>2021-11-03T16:20:50.182Z</time>
      </trkpt>
      <trkpt lat="39.151126" lon="-1.576712">
        <ele>678.839967</ele>
        <time>2021-11-03T16:20:50.182Z</time>
      </trkpt>
      <trkpt lat="39.151060" lon="-1.576705">
        <ele>679.410283</ele>
        <time>2021-11-03T16:20:50.182Z</time>
      </trkpt>
      <trkpt lat="39.151044" lon="-1.576702">
        <ele>679.549525</ele>
        <time>2021-11-03T16:20:50.182Z</time>
      </trkpt>
      <trkpt lat="39.151028" lon="-1.576699">
        <ele>679.688767</ele>
        <time>2021-11-03T16:20:50.182Z</time>
      </trkpt>
      <trkpt lat="39.150952" lon="-1.576662">
        <ele>680.388378</ele>
        <time>2021-11-03T16:20:50.182Z</time>
      </trkpt>
      <trkpt lat="39.150908" lon="-1.576641">
        <ele>680.792430</ele>
        <time>2021-11-03T16:20:50.182Z</time>
      </trkpt>
      <trkpt lat="39.150852" lon="-1.576604">
        <ele>681.334327</ele>
        <time>2021-11-03T16:20:50.182Z</time>
      </trkpt>
      <trkpt lat="39.150790" lon="-1.576544">
        <ele>682.001913</ele>
        <time>2021-11-03T16:20:50.182Z</time>
      </trkpt>
      <trkpt lat="39.150764" lon="-1.576521">
        <ele>682.273450</ele>
        <time>2021-11-03T16:20:50.182Z</time>
      </trkpt>
      <trkpt lat="39.150714" lon="-1.576466">
        <ele>682.839440</ele>
        <time>2021-11-03T16:20:50.182Z</time>
      </trkpt>
      <trkpt lat="39.150702" lon="-1.576452">
        <ele>682.978804</ele>
        <time>2021-11-03T16:20:50.182Z</time>
      </trkpt>
      <trkpt lat="39.150670" lon="-1.576412">
        <ele>683.228347</ele>
        <time>2021-11-03T16:20:50.182Z</time>
      </trkpt>
      <trkpt lat="39.150633" lon="-1.576350">
        <ele>683.485219</ele>
        <time>2021-11-03T16:20:50.182Z</time>
      </trkpt>
      <trkpt lat="39.150620" lon="-1.576334">
        <ele>683.561309</ele>
        <time>2021-11-03T16:20:50.182Z</time>
      </trkpt>
      <trkpt lat="39.150555" lon="-1.576253">
        <ele>683.944028</ele>
        <time>2021-11-03T16:20:50.182Z</time>
      </trkpt>
      <trkpt lat="39.150540" lon="-1.576235">
        <ele>684.030784</ele>
        <time>2021-11-03T16:20:50.182Z</time>
      </trkpt>
      <trkpt lat="39.150475" lon="-1.576175">
        <ele>684.369240</ele>
        <time>2021-11-03T16:20:50.182Z</time>
      </trkpt>
      <trkpt lat="39.150411" lon="-1.576113">
        <ele>684.708165</ele>
        <time>2021-11-03T16:20:50.182Z</time>
      </trkpt>
      <trkpt lat="39.150375" lon="-1.576080">
        <ele>684.895177</ele>
        <time>2021-11-03T16:20:50.182Z</time>
      </trkpt>
      <trkpt lat="39.150282" lon="-1.575993">
        <ele>685.381644</ele>
        <time>2021-11-03T16:20:50.182Z</time>
      </trkpt>
      <trkpt lat="39.150260" lon="-1.575973">
        <ele>685.495614</ele>
        <time>2021-11-03T16:20:50.182Z</time>
      </trkpt>
      <trkpt lat="39.150160" lon="-1.575883">
        <ele>686.011942</ele>
        <time>2021-11-03T16:20:50.182Z</time>
      </trkpt>
      <trkpt lat="39.150079" lon="-1.575807">
        <ele>686.436075</ele>
        <time>2021-11-03T16:20:50.182Z</time>
      </trkpt>
      <trkpt lat="39.149996" lon="-1.575723">
        <ele>686.882807</ele>
        <time>2021-11-03T16:20:50.182Z</time>
      </trkpt>
      <trkpt lat="39.149842" lon="-1.575580">
        <ele>687.686309</ele>
        <time>2021-11-03T16:20:50.182Z</time>
      </trkpt>
      <trkpt lat="39.149594" lon="-1.575389">
        <ele>688.909371</ele>
        <time>2021-11-03T16:20:50.182Z</time>
      </trkpt>
      <trkpt lat="39.149557" lon="-1.575360">
        <ele>689.092698</ele>
        <time>2021-11-03T16:20:50.182Z</time>
      </trkpt>
      <trkpt lat="39.149280" lon="-1.575148">
        <ele>690.456538</ele>
        <time>2021-11-03T16:20:50.182Z</time>
      </trkpt>
      <trkpt lat="39.149201" lon="-1.575087">
        <ele>690.705051</ele>
        <time>2021-11-03T16:20:50.182Z</time>
      </trkpt>
      <trkpt lat="39.149000" lon="-1.574932">
        <ele>690.638310</ele>
        <time>2021-11-03T16:20:50.182Z</time>
      </trkpt>
      <trkpt lat="39.148801" lon="-1.574759">
        <ele>690.569915</ele>
        <time>2021-11-03T16:20:50.182Z</time>
      </trkpt>
      <trkpt lat="39.148499" lon="-1.574515">
        <ele>690.468354</ele>
        <time>2021-11-03T16:20:50.182Z</time>
      </trkpt>
      <trkpt lat="39.148190" lon="-1.574283">
        <ele>690.366456</ele>
        <time>2021-11-03T16:20:50.182Z</time>
      </trkpt>
      <trkpt lat="39.147865" lon="-1.574078">
        <ele>690.263351</ele>
        <time>2021-11-03T16:20:50.182Z</time>
      </trkpt>
      <trkpt lat="39.147562" lon="-1.573983">
        <ele>690.230605</ele>
        <time>2021-11-03T16:20:50.182Z</time>
      </trkpt>
      <trkpt lat="39.147512" lon="-1.573974">
        <ele>690.246224</ele>
        <time>2021-11-03T16:20:50.182Z</time>
      </trkpt>
      <trkpt lat="39.147305" lon="-1.573953">
        <ele>690.310464</ele>
        <time>2021-11-03T16:20:50.182Z</time>
      </trkpt>
      <trkpt lat="39.146996" lon="-1.573915">
        <ele>690.406498</ele>
        <time>2021-11-03T16:20:50.182Z</time>
      </trkpt>
      <trkpt lat="39.146529" lon="-1.573852">
        <ele>690.551768</ele>
        <time>2021-11-03T16:20:50.182Z</time>
      </trkpt>
      <trkpt lat="39.146164" lon="-1.573769">
        <ele>690.666436</ele>
        <time>2021-11-03T16:20:50.182Z</time>
      </trkpt>
      <trkpt lat="39.146112" lon="-1.573754">
        <ele>690.682921</ele>
        <time>2021-11-03T16:20:50.182Z</time>
      </trkpt>
      <trkpt lat="39.145868" lon="-1.573635">
        <ele>690.760534</ele>
        <time>2021-11-03T16:20:50.182Z</time>
      </trkpt>
      <trkpt lat="39.145560" lon="-1.573375">
        <ele>690.813285</ele>
        <time>2021-11-03T16:20:50.182Z</time>
      </trkpt>
      <trkpt lat="39.145074" lon="-1.572947">
        <ele>690.897617</ele>
        <time>2021-11-03T16:20:50.182Z</time>
      </trkpt>
      <trkpt lat="39.144643" lon="-1.572586">
        <ele>690.971261</ele>
        <time>2021-11-03T16:20:50.182Z</time>
      </trkpt>
      <trkpt lat="39.144198" lon="-1.572214">
        <ele>691.090723</ele>
        <time>2021-11-03T16:20:50.182Z</time>
      </trkpt>
      <trkpt lat="39.143755" lon="-1.571828">
        <ele>691.272520</ele>
        <time>2021-11-03T16:20:50.182Z</time>
      </trkpt>
      <trkpt lat="39.143303" lon="-1.571446">
        <ele>691.456281</ele>
        <time>2021-11-03T16:20:50.182Z</time>
      </trkpt>
      <trkpt lat="39.143205" lon="-1.571363">
        <ele>691.496149</ele>
        <time>2021-11-03T16:20:50.182Z</time>
      </trkpt>
      <trkpt lat="39.142766" lon="-1.570993">
        <ele>691.773416</ele>
        <time>2021-11-03T16:20:50.182Z</time>
      </trkpt>
      <trkpt lat="39.142475" lon="-1.570756">
        <ele>692.135177</ele>
        <time>2021-11-03T16:20:50.182Z</time>
      </trkpt>
      <trkpt lat="39.142288" lon="-1.570600">
        <ele>692.369274</ele>
        <time>2021-11-03T16:20:50.182Z</time>
      </trkpt>
      <trkpt lat="39.142019" lon="-1.570377">
        <ele>692.705403</ele>
        <time>2021-11-03T16:20:50.182Z</time>
      </trkpt>
      <trkpt lat="39.141933" lon="-1.570307">
        <ele>692.812298</ele>
        <time>2021-11-03T16:20:50.182Z</time>
      </trkpt>
      <trkpt lat="39.141470" lon="-1.569928">
        <ele>693.388722</ele>
        <time>2021-11-03T16:20:50.182Z</time>
      </trkpt>
      <trkpt lat="39.141385" lon="-1.569858">
        <ele>693.494730</ele>
        <time>2021-11-03T16:20:50.182Z</time>
      </trkpt>
      <trkpt lat="39.141072" lon="-1.569580">
        <ele>693.755678</ele>
        <time>2021-11-03T16:20:50.182Z</time>
      </trkpt>
      <trkpt lat="39.140909" lon="-1.569462">
        <ele>693.879879</ele>
        <time>2021-11-03T16:20:50.182Z</time>
      </trkpt>
      <trkpt lat="39.140709" lon="-1.569306">
        <ele>694.035185</ele>
        <time>2021-11-03T16:20:50.182Z</time>
      </trkpt>
      <trkpt lat="39.140503" lon="-1.569165">
        <ele>694.190143</ele>
        <time>2021-11-03T16:20:50.182Z</time>
      </trkpt>
      <trkpt lat="39.140406" lon="-1.569150">
        <ele>694.255053</ele>
        <time>2021-11-03T16:20:50.182Z</time>
      </trkpt>
      <trkpt lat="39.140316" lon="-1.569200">
        <ele>694.320164</ele>
        <time>2021-11-03T16:20:50.182Z</time>
      </trkpt>
      <trkpt lat="39.140238" lon="-1.569276">
        <ele>694.385122</ele>
        <time>2021-11-03T16:20:50.182Z</time>
      </trkpt>
      <trkpt lat="39.140200" lon="-1.569316">
        <ele>694.417715</ele>
        <time>2021-11-03T16:20:50.182Z</time>
      </trkpt>
      <trkpt lat="39.139876" lon="-1.569707">
        <ele>694.712568</ele>
        <time>2021-11-03T16:20:50.182Z</time>
      </trkpt>
      <trkpt lat="39.139803" lon="-1.569798">
        <ele>694.707011</ele>
        <time>2021-11-03T16:20:50.182Z</time>
      </trkpt>
      <trkpt lat="39.139507" lon="-1.570223">
        <ele>694.682352</ele>
        <time>2021-11-03T16:20:50.182Z</time>
      </trkpt>
      <trkpt lat="39.139299" lon="-1.570547">
        <ele>694.664195</ele>
        <time>2021-11-03T16:20:50.182Z</time>
      </trkpt>
      <trkpt lat="39.139255" lon="-1.570580">
        <ele>694.661362</ele>
        <time>2021-11-03T16:20:50.182Z</time>
      </trkpt>
      <trkpt lat="39.139204" lon="-1.570600">
        <ele>694.658395</ele>
        <time>2021-11-03T16:20:50.182Z</time>
      </trkpt>
      <trkpt lat="39.139096" lon="-1.570615">
        <ele>694.652348</ele>
        <time>2021-11-03T16:20:50.182Z</time>
      </trkpt>
      <trkpt lat="39.139041" lon="-1.570618">
        <ele>694.649284</ele>
        <time>2021-11-03T16:20:50.182Z</time>
      </trkpt>
      <trkpt lat="39.138642" lon="-1.570597">
        <ele>694.627058</ele>
        <time>2021-11-03T16:20:50.182Z</time>
      </trkpt>
      <trkpt lat="39.138165" lon="-1.570571">
        <ele>694.505821</ele>
        <time>2021-11-03T16:20:50.182Z</time>
      </trkpt>
      <trkpt lat="39.137602" lon="-1.570556">
        <ele>694.228427</ele>
        <time>2021-11-03T16:20:50.182Z</time>
      </trkpt>
      <trkpt lat="39.137542" lon="-1.570555">
        <ele>694.198869</ele>
        <time>2021-11-03T16:20:50.182Z</time>
      </trkpt>
      <trkpt lat="39.136976" lon="-1.570533">
        <ele>693.919930</ele>
        <time>2021-11-03T16:20:50.182Z</time>
      </trkpt>
      <trkpt lat="39.136847" lon="-1.570526">
        <ele>693.856328</ele>
        <time>2021-11-03T16:20:50.182Z</time>
      </trkpt>
      <trkpt lat="39.136276" lon="-1.570508">
        <ele>692.912503</ele>
        <time>2021-11-03T16:20:50.182Z</time>
      </trkpt>
      <trkpt lat="39.136212" lon="-1.570506">
        <ele>692.743126</ele>
        <time>2021-11-03T16:20:50.182Z</time>
      </trkpt>
      <trkpt lat="39.135948" lon="-1.570494">
        <ele>692.044217</ele>
        <time>2021-11-03T16:20:50.182Z</time>
      </trkpt>
      <trkpt lat="39.135597" lon="-1.570490">
        <ele>691.115525</ele>
        <time>2021-11-03T16:20:50.182Z</time>
      </trkpt>
      <trkpt lat="39.135449" lon="-1.570486">
        <ele>690.723869</ele>
        <time>2021-11-03T16:20:50.182Z</time>
      </trkpt>
      <trkpt lat="39.135299" lon="-1.570485">
        <ele>690.327003</ele>
        <time>2021-11-03T16:20:50.182Z</time>
      </trkpt>
      <trkpt lat="39.135077" lon="-1.570506">
        <ele>689.738070</ele>
        <time>2021-11-03T16:20:50.182Z</time>
      </trkpt>
      <trkpt lat="39.134846" lon="-1.570537">
        <ele>689.123601</ele>
        <time>2021-11-03T16:20:50.182Z</time>
      </trkpt>
      <trkpt lat="39.134621" lon="-1.570568">
        <ele>688.464146</ele>
        <time>2021-11-03T16:20:50.182Z</time>
      </trkpt>
      <trkpt lat="39.134548" lon="-1.570579">
        <ele>688.243008</ele>
        <time>2021-11-03T16:20:50.182Z</time>
      </trkpt>
      <trkpt lat="39.134326" lon="-1.570618">
        <ele>687.568879</ele>
        <time>2021-11-03T16:20:50.182Z</time>
      </trkpt>
      <trkpt lat="39.134102" lon="-1.570659">
        <ele>686.888147</ele>
        <time>2021-11-03T16:20:50.182Z</time>
      </trkpt>
      <trkpt lat="39.133805" lon="-1.570710">
        <ele>685.986638</ele>
        <time>2021-11-03T16:20:50.182Z</time>
      </trkpt>
      <trkpt lat="39.133585" lon="-1.570746">
        <ele>685.319388</ele>
        <time>2021-11-03T16:20:50.182Z</time>
      </trkpt>
      <trkpt lat="39.133222" lon="-1.570810">
        <ele>684.217024</ele>
        <time>2021-11-03T16:20:50.182Z</time>
      </trkpt>
      <trkpt lat="39.133148" lon="-1.570825">
        <ele>683.991636</ele>
        <time>2021-11-03T16:20:50.182Z</time>
      </trkpt>
      <trkpt lat="39.132631" lon="-1.570911">
        <ele>683.793187</ele>
        <time>2021-11-03T16:20:50.182Z</time>
      </trkpt>
      <trkpt lat="39.132357" lon="-1.570936">
        <ele>683.966225</ele>
        <time>2021-11-03T16:20:50.182Z</time>
      </trkpt>
      <trkpt lat="39.132164" lon="-1.570963">
        <ele>684.088519</ele>
        <time>2021-11-03T16:20:50.182Z</time>
      </trkpt>
      <trkpt lat="39.131854" lon="-1.571022">
        <ele>684.285920</ele>
        <time>2021-11-03T16:20:50.182Z</time>
      </trkpt>
      <trkpt lat="39.131553" lon="-1.571074">
        <ele>684.477231</ele>
        <time>2021-11-03T16:20:50.182Z</time>
      </trkpt>
      <trkpt lat="39.131318" lon="-1.571114">
        <ele>684.626554</ele>
        <time>2021-11-03T16:20:50.182Z</time>
      </trkpt>
      <trkpt lat="39.131259" lon="-1.571124">
        <ele>684.664041</ele>
        <time>2021-11-03T16:20:50.182Z</time>
      </trkpt>
      <trkpt lat="39.131083" lon="-1.571156">
        <ele>684.550318</ele>
        <time>2021-11-03T16:20:50.182Z</time>
      </trkpt>
      <trkpt lat="39.130963" lon="-1.571171">
        <ele>684.429118</ele>
        <time>2021-11-03T16:20:50.182Z</time>
      </trkpt>
      <trkpt lat="39.130587" lon="-1.571232">
        <ele>684.048148</ele>
        <time>2021-11-03T16:20:50.182Z</time>
      </trkpt>
      <trkpt lat="39.130524" lon="-1.571245">
        <ele>683.984009</ele>
        <time>2021-11-03T16:20:50.182Z</time>
      </trkpt>
      <trkpt lat="39.130462" lon="-1.571259">
        <ele>683.920732</ele>
        <time>2021-11-03T16:20:50.182Z</time>
      </trkpt>
      <trkpt lat="39.130025" lon="-1.571331">
        <ele>683.477848</ele>
        <time>2021-11-03T16:20:50.182Z</time>
      </trkpt>
      <trkpt lat="39.129902" lon="-1.571354">
        <ele>683.352903</ele>
        <time>2021-11-03T16:20:50.182Z</time>
      </trkpt>
      <trkpt lat="39.129371" lon="-1.571452">
        <ele>682.869427</ele>
        <time>2021-11-03T16:20:50.182Z</time>
      </trkpt>
      <trkpt lat="39.129203" lon="-1.571487">
        <ele>682.840218</ele>
        <time>2021-11-03T16:20:50.182Z</time>
      </trkpt>
      <trkpt lat="39.128868" lon="-1.571535">
        <ele>682.782364</ele>
        <time>2021-11-03T16:20:50.182Z</time>
      </trkpt>
      <trkpt lat="39.128313" lon="-1.571639">
        <ele>682.686103</ele>
        <time>2021-11-03T16:20:50.182Z</time>
      </trkpt>
      <trkpt lat="39.127758" lon="-1.571737">
        <ele>682.589953</ele>
        <time>2021-11-03T16:20:50.182Z</time>
      </trkpt>
      <trkpt lat="39.127649" lon="-1.571749">
        <ele>682.573459</ele>
        <time>2021-11-03T16:20:50.182Z</time>
      </trkpt>
      <trkpt lat="39.127437" lon="-1.571780">
        <ele>682.619180</ele>
        <time>2021-11-03T16:20:50.182Z</time>
      </trkpt>
      <trkpt lat="39.126899" lon="-1.571877">
        <ele>682.735589</ele>
        <time>2021-11-03T16:20:50.182Z</time>
      </trkpt>
      <trkpt lat="39.126844" lon="-1.571886">
        <ele>682.747470</ele>
        <time>2021-11-03T16:20:50.182Z</time>
      </trkpt>
      <trkpt lat="39.126293" lon="-1.571970">
        <ele>682.866366</ele>
        <time>2021-11-03T16:20:50.182Z</time>
      </trkpt>
      <trkpt lat="39.126184" lon="-1.571969">
        <ele>682.889724</ele>
        <time>2021-11-03T16:20:50.182Z</time>
      </trkpt>
      <trkpt lat="39.126023" lon="-1.571974">
        <ele>682.924234</ele>
        <time>2021-11-03T16:20:50.182Z</time>
      </trkpt>
      <trkpt lat="39.125765" lon="-1.571947">
        <ele>682.986389</ele>
        <time>2021-11-03T16:20:50.182Z</time>
      </trkpt>
      <trkpt lat="39.125362" lon="-1.571812">
        <ele>683.102630</ele>
        <time>2021-11-03T16:20:50.182Z</time>
      </trkpt>
      <trkpt lat="39.125313" lon="-1.571787">
        <ele>683.117342</ele>
        <time>2021-11-03T16:20:50.182Z</time>
      </trkpt>
      <trkpt lat="39.125263" lon="-1.571765">
        <ele>683.132091</ele>
        <time>2021-11-03T16:20:50.182Z</time>
      </trkpt>
      <trkpt lat="39.125001" lon="-1.571688">
        <ele>683.207109</ele>
        <time>2021-11-03T16:20:50.182Z</time>
      </trkpt>
      <trkpt lat="39.124606" lon="-1.571632">
        <ele>683.318045</ele>
        <time>2021-11-03T16:20:50.182Z</time>
      </trkpt>
      <trkpt lat="39.124267" lon="-1.571731">
        <ele>683.415081</ele>
        <time>2021-11-03T16:20:50.182Z</time>
      </trkpt>
      <trkpt lat="39.123727" lon="-1.572033">
        <ele>683.866487</ele>
        <time>2021-11-03T16:20:50.182Z</time>
      </trkpt>
      <trkpt lat="39.123674" lon="-1.572059">
        <ele>683.920297</ele>
        <time>2021-11-03T16:20:50.182Z</time>
      </trkpt>
      <trkpt lat="39.123621" lon="-1.572087">
        <ele>683.974649</ele>
        <time>2021-11-03T16:20:50.182Z</time>
      </trkpt>
      <trkpt lat="39.123467" lon="-1.572171">
        <ele>684.133322</ele>
        <time>2021-11-03T16:20:50.182Z</time>
      </trkpt>
      <trkpt lat="39.123021" lon="-1.572448">
        <ele>684.603091</ele>
        <time>2021-11-03T16:20:50.182Z</time>
      </trkpt>
      <trkpt lat="39.122841" lon="-1.572545">
        <ele>684.788217</ele>
        <time>2021-11-03T16:20:50.182Z</time>
      </trkpt>
      <trkpt lat="39.122713" lon="-1.572607">
        <ele>684.917967</ele>
        <time>2021-11-03T16:20:50.182Z</time>
      </trkpt>
      <trkpt lat="39.122670" lon="-1.572629">
        <ele>684.961866</ele>
        <time>2021-11-03T16:20:50.182Z</time>
      </trkpt>
      <trkpt lat="39.122188" lon="-1.572883">
        <ele>685.448233</ele>
        <time>2021-11-03T16:20:50.182Z</time>
      </trkpt>
      <trkpt lat="39.121729" lon="-1.573126">
        <ele>685.906486</ele>
        <time>2021-11-03T16:20:50.182Z</time>
      </trkpt>
      <trkpt lat="39.121411" lon="-1.573288">
        <ele>686.222267</ele>
        <time>2021-11-03T16:20:50.182Z</time>
      </trkpt>
      <trkpt lat="39.121321" lon="-1.573337">
        <ele>686.312493</ele>
        <time>2021-11-03T16:20:50.182Z</time>
      </trkpt>
      <trkpt lat="39.121133" lon="-1.573429">
        <ele>686.498205</ele>
        <time>2021-11-03T16:20:50.182Z</time>
      </trkpt>
      <trkpt lat="39.120947" lon="-1.573522">
        <ele>686.682449</ele>
        <time>2021-11-03T16:20:50.182Z</time>
      </trkpt>
      <trkpt lat="39.120757" lon="-1.573610">
        <ele>686.905372</ele>
        <time>2021-11-03T16:20:50.182Z</time>
      </trkpt>
      <trkpt lat="39.120558" lon="-1.573655">
        <ele>687.256442</ele>
        <time>2021-11-03T16:20:50.182Z</time>
      </trkpt>
      <trkpt lat="39.120457" lon="-1.573647">
        <ele>687.432274</ele>
        <time>2021-11-03T16:20:50.182Z</time>
      </trkpt>
      <trkpt lat="39.120155" lon="-1.573536">
        <ele>687.977957</ele>
        <time>2021-11-03T16:20:50.182Z</time>
      </trkpt>
      <trkpt lat="39.120059" lon="-1.573474">
        <ele>688.164538</ele>
        <time>2021-11-03T16:20:50.182Z</time>
      </trkpt>
      <trkpt lat="39.119879" lon="-1.573331">
        <ele>688.531949</ele>
        <time>2021-11-03T16:20:50.182Z</time>
      </trkpt>
      <trkpt lat="39.119753" lon="-1.573217">
        <ele>688.799445</ele>
        <time>2021-11-03T16:20:50.182Z</time>
      </trkpt>
      <trkpt lat="39.119455" lon="-1.572953">
        <ele>689.427774</ele>
        <time>2021-11-03T16:20:50.182Z</time>
      </trkpt>
      <trkpt lat="39.119242" lon="-1.572759">
        <ele>689.880969</ele>
        <time>2021-11-03T16:20:50.182Z</time>
      </trkpt>
      <trkpt lat="39.119021" lon="-1.572578">
        <ele>690.038634</ele>
        <time>2021-11-03T16:20:50.182Z</time>
      </trkpt>
      <trkpt lat="39.118565" lon="-1.572192">
        <ele>690.250791</ele>
        <time>2021-11-03T16:20:50.182Z</time>
      </trkpt>
      <trkpt lat="39.118519" lon="-1.572152">
        <ele>690.272371</ele>
        <time>2021-11-03T16:20:50.182Z</time>
      </trkpt>
      <trkpt lat="39.118055" lon="-1.571761">
        <ele>690.487957</ele>
        <time>2021-11-03T16:20:50.182Z</time>
      </trkpt>
      <trkpt lat="39.118009" lon="-1.571721">
        <ele>690.509537</ele>
        <time>2021-11-03T16:20:50.182Z</time>
      </trkpt>
      <trkpt lat="39.117606" lon="-1.571374">
        <ele>690.775934</ele>
        <time>2021-11-03T16:20:50.182Z</time>
      </trkpt>
      <trkpt lat="39.117375" lon="-1.571176">
        <ele>691.068040</ele>
        <time>2021-11-03T16:20:50.182Z</time>
      </trkpt>
      <trkpt lat="39.117142" lon="-1.570976">
        <ele>691.362804</ele>
        <time>2021-11-03T16:20:50.182Z</time>
      </trkpt>
      <trkpt lat="39.117097" lon="-1.570934">
        <ele>691.421305</ele>
        <time>2021-11-03T16:20:50.182Z</time>
      </trkpt>
      <trkpt lat="39.116792" lon="-1.570622">
        <ele>691.831310</ele>
        <time>2021-11-03T16:20:50.182Z</time>
      </trkpt>
      <trkpt lat="39.116603" lon="-1.570457">
        <ele>692.071672</ele>
        <time>2021-11-03T16:20:50.182Z</time>
      </trkpt>
      <trkpt lat="39.116476" lon="-1.570307">
        <ele>692.253052</ele>
        <time>2021-11-03T16:20:50.182Z</time>
      </trkpt>
      <trkpt lat="39.116257" lon="-1.570055">
        <ele>692.562591</ele>
        <time>2021-11-03T16:20:50.182Z</time>
      </trkpt>
      <trkpt lat="39.116131" lon="-1.569903">
        <ele>692.749048</ele>
        <time>2021-11-03T16:20:50.182Z</time>
      </trkpt>
      <trkpt lat="39.116091" lon="-1.569852">
        <ele>692.809837</ele>
        <time>2021-11-03T16:20:50.182Z</time>
      </trkpt>
      <trkpt lat="39.115924" lon="-1.569648">
        <ele>693.058427</ele>
        <time>2021-11-03T16:20:50.182Z</time>
      </trkpt>
      <trkpt lat="39.115841" lon="-1.569546">
        <ele>693.182331</ele>
        <time>2021-11-03T16:20:50.182Z</time>
      </trkpt>
      <trkpt lat="39.115468" lon="-1.569097">
        <ele>693.733751</ele>
        <time>2021-11-03T16:20:50.182Z</time>
      </trkpt>
      <trkpt lat="39.115041" lon="-1.568588">
        <ele>694.362149</ele>
        <time>2021-11-03T16:20:50.182Z</time>
      </trkpt>
      <trkpt lat="39.114723" lon="-1.568205">
        <ele>694.958608</ele>
        <time>2021-11-03T16:20:50.182Z</time>
      </trkpt>
      <trkpt lat="39.114681" lon="-1.568156">
        <ele>695.042350</ele>
        <time>2021-11-03T16:20:50.182Z</time>
      </trkpt>
      <trkpt lat="39.114491" lon="-1.567925">
        <ele>695.428445</ele>
        <time>2021-11-03T16:20:50.182Z</time>
      </trkpt>
      <trkpt lat="39.114452" lon="-1.567878">
        <ele>695.507370</ele>
        <time>2021-11-03T16:20:50.182Z</time>
      </trkpt>
      <trkpt lat="39.114269" lon="-1.567662">
        <ele>695.874175</ele>
        <time>2021-11-03T16:20:50.182Z</time>
      </trkpt>
      <trkpt lat="39.114237" lon="-1.567622">
        <ele>695.940069</ele>
        <time>2021-11-03T16:20:50.182Z</time>
      </trkpt>
      <trkpt lat="39.114067" lon="-1.567415">
        <ele>696.285773</ele>
        <time>2021-11-03T16:20:50.182Z</time>
      </trkpt>
      <trkpt lat="39.113993" lon="-1.567326">
        <ele>696.435388</ele>
        <time>2021-11-03T16:20:50.182Z</time>
      </trkpt>
      <trkpt lat="39.113956" lon="-1.567280">
        <ele>696.511379</ele>
        <time>2021-11-03T16:20:50.182Z</time>
      </trkpt>
      <trkpt lat="39.113919" lon="-1.567238">
        <ele>696.584261</ele>
        <time>2021-11-03T16:20:50.182Z</time>
      </trkpt>
      <trkpt lat="39.113764" lon="-1.567053">
        <ele>696.896535</ele>
        <time>2021-11-03T16:20:50.182Z</time>
      </trkpt>
      <trkpt lat="39.113646" lon="-1.566915">
        <ele>697.132067</ele>
        <time>2021-11-03T16:20:50.182Z</time>
      </trkpt>
      <trkpt lat="39.113607" lon="-1.566867">
        <ele>697.187717</ele>
        <time>2021-11-03T16:20:50.182Z</time>
      </trkpt>
      <trkpt lat="39.113414" lon="-1.566634">
        <ele>697.430535</ele>
        <time>2021-11-03T16:20:50.182Z</time>
      </trkpt>
      <trkpt lat="39.113148" lon="-1.566309">
        <ele>697.767088</ele>
        <time>2021-11-03T16:20:50.182Z</time>
      </trkpt>
      <trkpt lat="39.112931" lon="-1.566052">
        <ele>698.037691</ele>
        <time>2021-11-03T16:20:50.182Z</time>
      </trkpt>
      <trkpt lat="39.112829" lon="-1.565937">
        <ele>698.162127</ele>
        <time>2021-11-03T16:20:50.182Z</time>
      </trkpt>
      <trkpt lat="39.112625" lon="-1.565688">
        <ele>698.420115</ele>
        <time>2021-11-03T16:20:50.182Z</time>
      </trkpt>
      <trkpt lat="39.112590" lon="-1.565647">
        <ele>698.463544</ele>
        <time>2021-11-03T16:20:50.182Z</time>
      </trkpt>
      <trkpt lat="39.112371" lon="-1.565385">
        <ele>698.737914</ele>
        <time>2021-11-03T16:20:50.182Z</time>
      </trkpt>
      <trkpt lat="39.111945" lon="-1.564866">
        <ele>698.982023</ele>
        <time>2021-11-03T16:20:50.182Z</time>
      </trkpt>
      <trkpt lat="39.111739" lon="-1.564621">
        <ele>699.080479</ele>
        <time>2021-11-03T16:20:50.182Z</time>
      </trkpt>
      <trkpt lat="39.111453" lon="-1.564279">
        <ele>699.217513</ele>
        <time>2021-11-03T16:20:50.182Z</time>
      </trkpt>
      <trkpt lat="39.111054" lon="-1.563796">
        <ele>699.409783</ele>
        <time>2021-11-03T16:20:50.182Z</time>
      </trkpt>
      <trkpt lat="39.110935" lon="-1.563656">
        <ele>699.497933</ele>
        <time>2021-11-03T16:20:50.182Z</time>
      </trkpt>
      <trkpt lat="39.110895" lon="-1.563608">
        <ele>699.534523</ele>
        <time>2021-11-03T16:20:50.182Z</time>
      </trkpt>
      <trkpt lat="39.110855" lon="-1.563561">
        <ele>699.570761</ele>
        <time>2021-11-03T16:20:50.182Z</time>
      </trkpt>
      <trkpt lat="39.110774" lon="-1.563466">
        <ele>699.644081</ele>
        <time>2021-11-03T16:20:50.182Z</time>
      </trkpt>
      <trkpt lat="39.110614" lon="-1.563275">
        <ele>699.790088</ele>
        <time>2021-11-03T16:20:50.182Z</time>
      </trkpt>
      <trkpt lat="39.110493" lon="-1.563133">
        <ele>699.899647</ele>
        <time>2021-11-03T16:20:50.182Z</time>
      </trkpt>
      <trkpt lat="39.110453" lon="-1.563085">
        <ele>699.936237</ele>
        <time>2021-11-03T16:20:50.182Z</time>
      </trkpt>
      <trkpt lat="39.110371" lon="-1.562985">
        <ele>700.011816</ele>
        <time>2021-11-03T16:20:50.182Z</time>
      </trkpt>
      <trkpt lat="39.110209" lon="-1.562780">
        <ele>700.163812</ele>
        <time>2021-11-03T16:20:50.182Z</time>
      </trkpt>
      <trkpt lat="39.109782" lon="-1.562267">
        <ele>700.554625</ele>
        <time>2021-11-03T16:20:50.182Z</time>
      </trkpt>
      <trkpt lat="39.109739" lon="-1.562218">
        <ele>700.593052</ele>
        <time>2021-11-03T16:20:50.182Z</time>
      </trkpt>
      <trkpt lat="39.109463" lon="-1.561879">
        <ele>700.794634</ele>
        <time>2021-11-03T16:20:50.182Z</time>
      </trkpt>
      <trkpt lat="39.109359" lon="-1.561763">
        <ele>700.863471</ele>
        <time>2021-11-03T16:20:50.182Z</time>
      </trkpt>
      <trkpt lat="39.109325" lon="-1.561731">
        <ele>700.884542</ele>
        <time>2021-11-03T16:20:50.182Z</time>
      </trkpt>
      <trkpt lat="39.109248" lon="-1.561690">
        <ele>700.926239</ele>
        <time>2021-11-03T16:20:50.182Z</time>
      </trkpt>
      <trkpt lat="39.109207" lon="-1.561687">
        <ele>700.946791</ele>
        <time>2021-11-03T16:20:50.182Z</time>
      </trkpt>
      <trkpt lat="39.108980" lon="-1.561688">
        <ele>701.060401</ele>
        <time>2021-11-03T16:20:50.182Z</time>
      </trkpt>
      <trkpt lat="39.108884" lon="-1.561694">
        <ele>701.108504</ele>
        <time>2021-11-03T16:20:50.182Z</time>
      </trkpt>
      <trkpt lat="39.108740" lon="-1.561707">
        <ele>701.180749</ele>
        <time>2021-11-03T16:20:50.182Z</time>
      </trkpt>
      <trkpt lat="39.108692" lon="-1.561711">
        <ele>701.204822</ele>
        <time>2021-11-03T16:20:50.182Z</time>
      </trkpt>
      <trkpt lat="39.108596" lon="-1.561718">
        <ele>701.252945</ele>
        <time>2021-11-03T16:20:50.182Z</time>
      </trkpt>
      <trkpt lat="39.108452" lon="-1.561728">
        <ele>701.325119</ele>
        <time>2021-11-03T16:20:50.182Z</time>
      </trkpt>
      <trkpt lat="39.107969" lon="-1.561760">
        <ele>701.633250</ele>
        <time>2021-11-03T16:20:50.182Z</time>
      </trkpt>
      <trkpt lat="39.107824" lon="-1.561771">
        <ele>701.859451</ele>
        <time>2021-11-03T16:20:50.182Z</time>
      </trkpt>
      <trkpt lat="39.107339" lon="-1.561797">
        <ele>702.615400</ele>
        <time>2021-11-03T16:20:50.182Z</time>
      </trkpt>
      <trkpt lat="39.107240" lon="-1.561803">
        <ele>702.769745</ele>
        <time>2021-11-03T16:20:50.182Z</time>
      </trkpt>
      <trkpt lat="39.106940" lon="-1.561819">
        <ele>703.237338</ele>
        <time>2021-11-03T16:20:50.182Z</time>
      </trkpt>
      <trkpt lat="39.106739" lon="-1.561831">
        <ele>703.550694</ele>
        <time>2021-11-03T16:20:50.182Z</time>
      </trkpt>
      <trkpt lat="39.106346" lon="-1.561814">
        <ele>704.163062</ele>
        <time>2021-11-03T16:20:50.182Z</time>
      </trkpt>
      <trkpt lat="39.106157" lon="-1.561760">
        <ele>704.481013</ele>
        <time>2021-11-03T16:20:50.182Z</time>
      </trkpt>
      <trkpt lat="39.106067" lon="-1.561707">
        <ele>704.655002</ele>
        <time>2021-11-03T16:20:50.182Z</time>
      </trkpt>
      <trkpt lat="39.105780" lon="-1.561435">
        <ele>705.281414</ele>
        <time>2021-11-03T16:20:50.182Z</time>
      </trkpt>
      <trkpt lat="39.105668" lon="-1.561305">
        <ele>705.546451</ele>
        <time>2021-11-03T16:20:50.182Z</time>
      </trkpt>
      <trkpt lat="39.105557" lon="-1.561166">
        <ele>705.818594</ele>
        <time>2021-11-03T16:20:50.182Z</time>
      </trkpt>
      <trkpt lat="39.105479" lon="-1.561078">
        <ele>706.000876</ele>
        <time>2021-11-03T16:20:50.182Z</time>
      </trkpt>
      <trkpt lat="39.105356" lon="-1.560948">
        <ele>706.280584</ele>
        <time>2021-11-03T16:20:50.182Z</time>
      </trkpt>
      <trkpt lat="39.105314" lon="-1.560905">
        <ele>706.374903</ele>
        <time>2021-11-03T16:20:50.182Z</time>
      </trkpt>
      <trkpt lat="39.105232" lon="-1.560814">
        <ele>706.565180</ele>
        <time>2021-11-03T16:20:50.182Z</time>
      </trkpt>
      <trkpt lat="39.105190" lon="-1.560770">
        <ele>706.660353</ele>
        <time>2021-11-03T16:20:50.182Z</time>
      </trkpt>
      <trkpt lat="39.105146" lon="-1.560729">
        <ele>706.755826</ele>
        <time>2021-11-03T16:20:50.182Z</time>
      </trkpt>
      <trkpt lat="39.105063" lon="-1.560649">
        <ele>706.938072</ele>
        <time>2021-11-03T16:20:50.182Z</time>
      </trkpt>
      <trkpt lat="39.104945" lon="-1.560530">
        <ele>707.201534</ele>
        <time>2021-11-03T16:20:50.182Z</time>
      </trkpt>
      <trkpt lat="39.104899" lon="-1.560495">
        <ele>707.295463</ele>
        <time>2021-11-03T16:20:50.182Z</time>
      </trkpt>
      <trkpt lat="39.104749" lon="-1.560444">
        <ele>707.536398</ele>
        <time>2021-11-03T16:20:50.182Z</time>
      </trkpt>
      <trkpt lat="39.104201" lon="-1.560326">
        <ele>708.060684</ele>
        <time>2021-11-03T16:20:50.182Z</time>
      </trkpt>
      <trkpt lat="39.104153" lon="-1.560309">
        <ele>708.107659</ele>
        <time>2021-11-03T16:20:50.182Z</time>
      </trkpt>
      <trkpt lat="39.104007" lon="-1.560267">
        <ele>708.248822</ele>
        <time>2021-11-03T16:20:50.182Z</time>
      </trkpt>
      <trkpt lat="39.103815" lon="-1.560242">
        <ele>708.430924</ele>
        <time>2021-11-03T16:20:50.182Z</time>
      </trkpt>
      <trkpt lat="39.103434" lon="-1.560180">
        <ele>708.793308</ele>
        <time>2021-11-03T16:20:50.182Z</time>
      </trkpt>
      <trkpt lat="39.103242" lon="-1.560144">
        <ele>708.976395</ele>
        <time>2021-11-03T16:20:50.182Z</time>
      </trkpt>
      <trkpt lat="39.102901" lon="-1.560074">
        <ele>709.310981</ele>
        <time>2021-11-03T16:20:50.182Z</time>
      </trkpt>
      <trkpt lat="39.102568" lon="-1.559971">
        <ele>709.660947</ele>
        <time>2021-11-03T16:20:50.182Z</time>
      </trkpt>
      <trkpt lat="39.102375" lon="-1.559918">
        <ele>709.862607</ele>
        <time>2021-11-03T16:20:50.182Z</time>
      </trkpt>
      <trkpt lat="39.101918" lon="-1.559829">
        <ele>710.334929</ele>
        <time>2021-11-03T16:20:50.182Z</time>
      </trkpt>
      <trkpt lat="39.101879" lon="-1.559821">
        <ele>710.375286</ele>
        <time>2021-11-03T16:20:50.182Z</time>
      </trkpt>
      <trkpt lat="39.101676" lon="-1.559772">
        <ele>710.586344</ele>
        <time>2021-11-03T16:20:50.182Z</time>
      </trkpt>
      <trkpt lat="39.101547" lon="-1.559744">
        <ele>710.720029</ele>
        <time>2021-11-03T16:20:50.182Z</time>
      </trkpt>
      <trkpt lat="39.101254" lon="-1.559779">
        <ele>711.020736</ele>
        <time>2021-11-03T16:20:50.182Z</time>
      </trkpt>
      <trkpt lat="39.101119" lon="-1.559795">
        <ele>710.989628</ele>
        <time>2021-11-03T16:20:50.182Z</time>
      </trkpt>
      <trkpt lat="39.100983" lon="-1.559807">
        <ele>710.938965</ele>
        <time>2021-11-03T16:20:50.182Z</time>
      </trkpt>
      <trkpt lat="39.100862" lon="-1.559794">
        <ele>710.893839</ele>
        <time>2021-11-03T16:20:50.182Z</time>
      </trkpt>
      <trkpt lat="39.100838" lon="-1.559776">
        <ele>710.883518</ele>
        <time>2021-11-03T16:20:50.182Z</time>
      </trkpt>
      <trkpt lat="39.100732" lon="-1.559679">
        <ele>710.835200</ele>
        <time>2021-11-03T16:20:50.182Z</time>
      </trkpt>
      <trkpt lat="39.100656" lon="-1.559510">
        <ele>710.778865</ele>
        <time>2021-11-03T16:20:50.182Z</time>
      </trkpt>
      <trkpt lat="39.100637" lon="-1.559436">
        <ele>710.756384</ele>
        <time>2021-11-03T16:20:50.182Z</time>
      </trkpt>
      <trkpt lat="39.100617" lon="-1.559354">
        <ele>710.731593</ele>
        <time>2021-11-03T16:20:50.182Z</time>
      </trkpt>
      <trkpt lat="39.100594" lon="-1.559278">
        <ele>710.708066</ele>
        <time>2021-11-03T16:20:50.182Z</time>
      </trkpt>
      <trkpt lat="39.100585" lon="-1.559240">
        <ele>710.696607</ele>
        <time>2021-11-03T16:20:50.182Z</time>
      </trkpt>
      <trkpt lat="39.100576" lon="-1.559200">
        <ele>710.684595</ele>
        <time>2021-11-03T16:20:50.182Z</time>
      </trkpt>
      <trkpt lat="39.100474" lon="-1.558828">
        <ele>710.570803</ele>
        <time>2021-11-03T16:20:50.182Z</time>
      </trkpt>
      <trkpt lat="39.100452" lon="-1.558742">
        <ele>710.544686</ele>
        <time>2021-11-03T16:20:50.182Z</time>
      </trkpt>
      <trkpt lat="39.100394" lon="-1.558528">
        <ele>710.479309</ele>
        <time>2021-11-03T16:20:50.182Z</time>
      </trkpt>
      <trkpt lat="39.100371" lon="-1.558446">
        <ele>710.454161</ele>
        <time>2021-11-03T16:20:50.182Z</time>
      </trkpt>
      <trkpt lat="39.100338" lon="-1.558318">
        <ele>710.415259</ele>
        <time>2021-11-03T16:20:50.182Z</time>
      </trkpt>
      <trkpt lat="39.100297" lon="-1.558151">
        <ele>710.368674</ele>
        <time>2021-11-03T16:20:50.182Z</time>
      </trkpt>
      <trkpt lat="39.100272" lon="-1.558067">
        <ele>710.404236</ele>
        <time>2021-11-03T16:20:50.182Z</time>
      </trkpt>
      <trkpt lat="39.100178" lon="-1.557721">
        <ele>710.549145</ele>
        <time>2021-11-03T16:20:50.182Z</time>
      </trkpt>
      <trkpt lat="39.100133" lon="-1.557550">
        <ele>710.620519</ele>
        <time>2021-11-03T16:20:50.182Z</time>
      </trkpt>
      <trkpt lat="39.100071" lon="-1.557307">
        <ele>710.721633</ele>
        <time>2021-11-03T16:20:50.182Z</time>
      </trkpt>
      <trkpt lat="39.100022" lon="-1.557118">
        <ele>710.800401</ele>
        <time>2021-11-03T16:20:50.182Z</time>
      </trkpt>
      <trkpt lat="39.099991" lon="-1.556992">
        <ele>710.852651</ele>
        <time>2021-11-03T16:20:50.182Z</time>
      </trkpt>
      <trkpt lat="39.099908" lon="-1.556674">
        <ele>710.985272</ele>
        <time>2021-11-03T16:20:50.182Z</time>
      </trkpt>
      <trkpt lat="39.099893" lon="-1.556615">
        <ele>711.009814</ele>
        <time>2021-11-03T16:20:50.182Z</time>
      </trkpt>
      <trkpt lat="39.099815" lon="-1.556304">
        <ele>711.139010</ele>
        <time>2021-11-03T16:20:50.182Z</time>
      </trkpt>
      <trkpt lat="39.099789" lon="-1.556209">
        <ele>711.178829</ele>
        <time>2021-11-03T16:20:50.182Z</time>
      </trkpt>
      <trkpt lat="39.099744" lon="-1.556026">
        <ele>711.254712</ele>
        <time>2021-11-03T16:20:50.182Z</time>
      </trkpt>
      <trkpt lat="39.099691" lon="-1.555847">
        <ele>711.397642</ele>
        <time>2021-11-03T16:20:50.182Z</time>
      </trkpt>
      <trkpt lat="39.099681" lon="-1.555801">
        <ele>711.443027</ele>
        <time>2021-11-03T16:20:50.182Z</time>
      </trkpt>
      <trkpt lat="39.099660" lon="-1.555710">
        <ele>711.533223</ele>
        <time>2021-11-03T16:20:50.182Z</time>
      </trkpt>
      <trkpt lat="39.099622" lon="-1.555567">
        <ele>711.676824</ele>
        <time>2021-11-03T16:20:50.182Z</time>
      </trkpt>
      <trkpt lat="39.099583" lon="-1.555427">
        <ele>711.818140</ele>
        <time>2021-11-03T16:20:50.182Z</time>
      </trkpt>
      <trkpt lat="39.099571" lon="-1.555380">
        <ele>711.865147</ele>
        <time>2021-11-03T16:20:50.182Z</time>
      </trkpt>
      <trkpt lat="39.099468" lon="-1.554968">
        <ele>712.276377</ele>
        <time>2021-11-03T16:20:50.182Z</time>
      </trkpt>
      <trkpt lat="39.099436" lon="-1.554825">
        <ele>712.417770</ele>
        <time>2021-11-03T16:20:50.182Z</time>
      </trkpt>
      <trkpt lat="39.099395" lon="-1.554579">
        <ele>712.656812</ele>
        <time>2021-11-03T16:20:50.182Z</time>
      </trkpt>
      <trkpt lat="39.099384" lon="-1.554474">
        <ele>712.757473</ele>
        <time>2021-11-03T16:20:50.182Z</time>
      </trkpt>
      <trkpt lat="39.099379" lon="-1.554367">
        <ele>712.859312</ele>
        <time>2021-11-03T16:20:50.182Z</time>
      </trkpt>
      <trkpt lat="39.099386" lon="-1.553912">
        <ele>713.291672</ele>
        <time>2021-11-03T16:20:50.182Z</time>
      </trkpt>
      <trkpt lat="39.099388" lon="-1.553852">
        <ele>713.348727</ele>
        <time>2021-11-03T16:20:50.182Z</time>
      </trkpt>
      <trkpt lat="39.099390" lon="-1.553790">
        <ele>713.407681</ele>
        <time>2021-11-03T16:20:50.182Z</time>
      </trkpt>
      <trkpt lat="39.099401" lon="-1.553460">
        <ele>712.901849</ele>
        <time>2021-11-03T16:20:50.182Z</time>
      </trkpt>
      <trkpt lat="39.099407" lon="-1.553251">
        <ele>712.413393</ele>
        <time>2021-11-03T16:20:50.182Z</time>
      </trkpt>
      <trkpt lat="39.099411" lon="-1.553102">
        <ele>712.065193</ele>
        <time>2021-11-03T16:20:50.182Z</time>
      </trkpt>
      <trkpt lat="39.099422" lon="-1.552714">
        <ele>711.158409</ele>
        <time>2021-11-03T16:20:50.182Z</time>
      </trkpt>
      <trkpt lat="39.099435" lon="-1.552311">
        <ele>710.216384</ele>
        <time>2021-11-03T16:20:50.182Z</time>
      </trkpt>
      <trkpt lat="39.099442" lon="-1.552070">
        <ele>709.653131</ele>
        <time>2021-11-03T16:20:50.182Z</time>
      </trkpt>
      <trkpt lat="39.099443" lon="-1.551909">
        <ele>709.277102</ele>
        <time>2021-11-03T16:20:50.182Z</time>
      </trkpt>
      <trkpt lat="39.099434" lon="-1.551575">
        <ele>708.496570</ele>
        <time>2021-11-03T16:20:50.182Z</time>
      </trkpt>
      <trkpt lat="39.099408" lon="-1.551402">
        <ele>708.085019</ele>
        <time>2021-11-03T16:20:50.182Z</time>
      </trkpt>
      <trkpt lat="39.099385" lon="-1.551315">
        <ele>707.906507</ele>
        <time>2021-11-03T16:20:50.182Z</time>
      </trkpt>
      <trkpt lat="39.099354" lon="-1.551231">
        <ele>707.728307</ele>
        <time>2021-11-03T16:20:50.182Z</time>
      </trkpt>
      <trkpt lat="39.099276" lon="-1.551070">
        <ele>707.364687</ele>
        <time>2021-11-03T16:20:50.182Z</time>
      </trkpt>
      <trkpt lat="39.099232" lon="-1.550994">
        <ele>707.183030</ele>
        <time>2021-11-03T16:20:50.182Z</time>
      </trkpt>
      <trkpt lat="39.099137" lon="-1.550850">
        <ele>706.820936</ele>
        <time>2021-11-03T16:20:50.182Z</time>
      </trkpt>
      <trkpt lat="39.099097" lon="-1.550776">
        <ele>706.648163</ele>
        <time>2021-11-03T16:20:50.182Z</time>
      </trkpt>
      <trkpt lat="39.099063" lon="-1.550703">
        <ele>706.485053</ele>
        <time>2021-11-03T16:20:50.182Z</time>
      </trkpt>
      <trkpt lat="39.099028" lon="-1.550637">
        <ele>706.331905</ele>
        <time>2021-11-03T16:20:50.182Z</time>
      </trkpt>
      <trkpt lat="39.098930" lon="-1.550554">
        <ele>706.042394</ele>
        <time>2021-11-03T16:20:50.182Z</time>
      </trkpt>
      <trkpt lat="39.098744" lon="-1.550500">
        <ele>705.571708</ele>
        <time>2021-11-03T16:20:50.182Z</time>
      </trkpt>
      <trkpt lat="39.098618" lon="-1.550483">
        <ele>705.258952</ele>
        <time>2021-11-03T16:20:50.182Z</time>
      </trkpt>
      <trkpt lat="39.098275" lon="-1.550376">
        <ele>704.387731</ele>
        <time>2021-11-03T16:20:50.182Z</time>
      </trkpt>
      <trkpt lat="39.098129" lon="-1.550281">
        <ele>703.983955</ele>
        <time>2021-11-03T16:20:50.182Z</time>
      </trkpt>
      <trkpt lat="39.098046" lon="-1.550201">
        <ele>703.728072</ele>
        <time>2021-11-03T16:20:50.182Z</time>
      </trkpt>
      <trkpt lat="39.098010" lon="-1.550154">
        <ele>703.649730</ele>
        <time>2021-11-03T16:20:50.182Z</time>
      </trkpt>
      <trkpt lat="39.097977" lon="-1.550104">
        <ele>703.728235</ele>
        <time>2021-11-03T16:20:50.182Z</time>
      </trkpt>
      <trkpt lat="39.097946" lon="-1.550052">
        <ele>703.806663</ele>
        <time>2021-11-03T16:20:50.182Z</time>
      </trkpt>
      <trkpt lat="39.097922" lon="-1.550000">
        <ele>703.879026</ele>
        <time>2021-11-03T16:20:50.182Z</time>
      </trkpt>
      <trkpt lat="39.097902" lon="-1.549947">
        <ele>703.949514</ele>
        <time>2021-11-03T16:20:50.182Z</time>
      </trkpt>
      <trkpt lat="39.097869" lon="-1.549838">
        <ele>704.089454</ele>
        <time>2021-11-03T16:20:50.182Z</time>
      </trkpt>
      <trkpt lat="39.097855" lon="-1.549783">
        <ele>704.158686</ele>
        <time>2021-11-03T16:20:50.182Z</time>
      </trkpt>
      <trkpt lat="39.097783" lon="-1.549572">
        <ele>704.434374</ele>
        <time>2021-11-03T16:20:50.182Z</time>
      </trkpt>
      <trkpt lat="39.097717" lon="-1.549434">
        <ele>704.628257</ele>
        <time>2021-11-03T16:20:50.182Z</time>
      </trkpt>
      <trkpt lat="39.097694" lon="-1.549391">
        <ele>704.690720</ele>
        <time>2021-11-03T16:20:50.182Z</time>
      </trkpt>
      <trkpt lat="39.097612" lon="-1.549284">
        <ele>704.870581</ele>
        <time>2021-11-03T16:20:50.182Z</time>
      </trkpt>
      <trkpt lat="39.097551" lon="-1.549239">
        <ele>704.978911</ele>
        <time>2021-11-03T16:20:50.182Z</time>
      </trkpt>
      <trkpt lat="39.097396" lon="-1.549161">
        <ele>705.235365</ele>
        <time>2021-11-03T16:20:50.182Z</time>
      </trkpt>
      <trkpt lat="39.097335" lon="-1.549129">
        <ele>705.336870</ele>
        <time>2021-11-03T16:20:50.182Z</time>
      </trkpt>
      <trkpt lat="39.097305" lon="-1.549110">
        <ele>705.388389</ele>
        <time>2021-11-03T16:20:50.182Z</time>
      </trkpt>
      <trkpt lat="39.097181" lon="-1.549031">
        <ele>705.601579</ele>
        <time>2021-11-03T16:20:50.182Z</time>
      </trkpt>
      <trkpt lat="39.096997" lon="-1.548901">
        <ele>705.924989</ele>
        <time>2021-11-03T16:20:50.182Z</time>
      </trkpt>
      <trkpt lat="39.096721" lon="-1.548752">
        <ele>706.386181</ele>
        <time>2021-11-03T16:20:50.182Z</time>
      </trkpt>
      <trkpt lat="39.096431" lon="-1.548659">
        <ele>707.218396</ele>
        <time>2021-11-03T16:20:50.182Z</time>
      </trkpt>
      <trkpt lat="39.096315" lon="-1.548626">
        <ele>707.554894</ele>
        <time>2021-11-03T16:20:50.182Z</time>
      </trkpt>
      <trkpt lat="39.096203" lon="-1.548596">
        <ele>707.878931</ele>
        <time>2021-11-03T16:20:50.182Z</time>
      </trkpt>
      <trkpt lat="39.096122" lon="-1.548556">
        <ele>708.124647</ele>
        <time>2021-11-03T16:20:50.182Z</time>
      </trkpt>
      <trkpt lat="39.096047" lon="-1.548514">
        <ele>708.356291</ele>
        <time>2021-11-03T16:20:50.182Z</time>
      </trkpt>
      <trkpt lat="39.096024" lon="-1.548497">
        <ele>708.431400</ele>
        <time>2021-11-03T16:20:50.182Z</time>
      </trkpt>
      <trkpt lat="39.095961" lon="-1.548433">
        <ele>708.658648</ele>
        <time>2021-11-03T16:20:50.182Z</time>
      </trkpt>
      <trkpt lat="39.095942" lon="-1.548410">
        <ele>708.732494</ele>
        <time>2021-11-03T16:20:50.182Z</time>
      </trkpt>
      <trkpt lat="39.095909" lon="-1.548357">
        <ele>708.881871</ele>
        <time>2021-11-03T16:20:50.182Z</time>
      </trkpt>
      <trkpt lat="39.095875" lon="-1.548302">
        <ele>709.036451</ele>
        <time>2021-11-03T16:20:50.182Z</time>
      </trkpt>
      <trkpt lat="39.095773" lon="-1.548142">
        <ele>709.491644</ele>
        <time>2021-11-03T16:20:50.182Z</time>
      </trkpt>
      <trkpt lat="39.095719" lon="-1.548061">
        <ele>709.726391</ele>
        <time>2021-11-03T16:20:50.182Z</time>
      </trkpt>
      <trkpt lat="39.095703" lon="-1.548032">
        <ele>709.804612</ele>
        <time>2021-11-03T16:20:50.182Z</time>
      </trkpt>
      <trkpt lat="39.095630" lon="-1.547923">
        <ele>710.121122</ele>
        <time>2021-11-03T16:20:50.182Z</time>
      </trkpt>
      <trkpt lat="39.095532" lon="-1.547745">
        <ele>710.600900</ele>
        <time>2021-11-03T16:20:50.182Z</time>
      </trkpt>
      <trkpt lat="39.095498" lon="-1.547604">
        <ele>710.925490</ele>
        <time>2021-11-03T16:20:50.182Z</time>
      </trkpt>
      <trkpt lat="39.095492" lon="-1.547486">
        <ele>711.185456</ele>
        <time>2021-11-03T16:20:50.182Z</time>
      </trkpt>
      <trkpt lat="39.095541" lon="-1.547131">
        <ele>711.634037</ele>
        <time>2021-11-03T16:20:50.182Z</time>
      </trkpt>
      <trkpt lat="39.095560" lon="-1.546876">
        <ele>711.793480</ele>
        <time>2021-11-03T16:20:50.182Z</time>
      </trkpt>
      <trkpt lat="39.095555" lon="-1.546820">
        <ele>711.828565</ele>
        <time>2021-11-03T16:20:50.182Z</time>
      </trkpt>
      <trkpt lat="39.095542" lon="-1.546761">
        <ele>711.866738</ele>
        <time>2021-11-03T16:20:50.182Z</time>
      </trkpt>
      <trkpt lat="39.095493" lon="-1.546652">
        <ele>711.945139</ele>
        <time>2021-11-03T16:20:50.182Z</time>
      </trkpt>
      <trkpt lat="39.095460" lon="-1.546603">
        <ele>711.985519</ele>
        <time>2021-11-03T16:20:50.182Z</time>
      </trkpt>
      <trkpt lat="39.095424" lon="-1.546560">
        <ele>712.024887</ele>
        <time>2021-11-03T16:20:50.182Z</time>
      </trkpt>
      <trkpt lat="39.095252" lon="-1.546382">
        <ele>712.201808</ele>
        <time>2021-11-03T16:20:50.182Z</time>
      </trkpt>
      <trkpt lat="39.095116" lon="-1.546206">
        <ele>712.356391</ele>
        <time>2021-11-03T16:20:50.182Z</time>
      </trkpt>
      <trkpt lat="39.095095" lon="-1.546182">
        <ele>712.378902</ele>
        <time>2021-11-03T16:20:50.182Z</time>
      </trkpt>
      <trkpt lat="39.094983" lon="-1.546014">
        <ele>712.516748</ele>
        <time>2021-11-03T16:20:50.182Z</time>
      </trkpt>
      <trkpt lat="39.094955" lon="-1.545953">
        <ele>712.560859</ele>
        <time>2021-11-03T16:20:50.182Z</time>
      </trkpt>
      <trkpt lat="39.094908" lon="-1.545865">
        <ele>712.627347</ele>
        <time>2021-11-03T16:20:50.182Z</time>
      </trkpt>
      <trkpt lat="39.094856" lon="-1.545778">
        <ele>712.695694</ele>
        <time>2021-11-03T16:20:50.182Z</time>
      </trkpt>
      <trkpt lat="39.094838" lon="-1.545749">
        <ele>712.718806</ele>
        <time>2021-11-03T16:20:50.182Z</time>
      </trkpt>
      <trkpt lat="39.094819" lon="-1.545722">
        <ele>712.741491</ele>
        <time>2021-11-03T16:20:50.182Z</time>
      </trkpt>
      <trkpt lat="39.094687" lon="-1.545576">
        <ele>712.881005</ele>
        <time>2021-11-03T16:20:50.182Z</time>
      </trkpt>
      <trkpt lat="39.094662" lon="-1.545552">
        <ele>712.906007</ele>
        <time>2021-11-03T16:20:50.182Z</time>
      </trkpt>
      <trkpt lat="39.094470" lon="-1.545406">
        <ele>713.144181</ele>
        <time>2021-11-03T16:20:50.182Z</time>
      </trkpt>
      <trkpt lat="39.094384" lon="-1.545335">
        <ele>713.259825</ele>
        <time>2021-11-03T16:20:50.182Z</time>
      </trkpt>
      <trkpt lat="39.094182" lon="-1.545173">
        <ele>713.529216</ele>
        <time>2021-11-03T16:20:50.182Z</time>
      </trkpt>
      <trkpt lat="39.093964" lon="-1.544952">
        <ele>713.843279</ele>
        <time>2021-11-03T16:20:50.182Z</time>
      </trkpt>
      <trkpt lat="39.093708" lon="-1.544737">
        <ele>714.189263</ele>
        <time>2021-11-03T16:20:50.182Z</time>
      </trkpt>
      <trkpt lat="39.093666" lon="-1.544652">
        <ele>714.277808</ele>
        <time>2021-11-03T16:20:50.182Z</time>
      </trkpt>
      <trkpt lat="39.093640" lon="-1.544554">
        <ele>714.368816</ele>
        <time>2021-11-03T16:20:50.182Z</time>
      </trkpt>
      <trkpt lat="39.093629" lon="-1.544453">
        <ele>714.458438</ele>
        <time>2021-11-03T16:20:50.182Z</time>
      </trkpt>
      <trkpt lat="39.093600" lon="-1.544191">
        <ele>714.690995</ele>
        <time>2021-11-03T16:20:50.182Z</time>
      </trkpt>
      <trkpt lat="39.093587" lon="-1.544140">
        <ele>714.738166</ele>
        <time>2021-11-03T16:20:50.182Z</time>
      </trkpt>
      <trkpt lat="39.093555" lon="-1.544044">
        <ele>714.829976</ele>
        <time>2021-11-03T16:20:50.182Z</time>
      </trkpt>
      <trkpt lat="39.093485" lon="-1.543865">
        <ele>715.048743</ele>
        <time>2021-11-03T16:20:50.182Z</time>
      </trkpt>
      <trkpt lat="39.093339" lon="-1.543579">
        <ele>715.791025</ele>
        <time>2021-11-03T16:20:50.182Z</time>
      </trkpt>
      <trkpt lat="39.093321" lon="-1.543551">
        <ele>715.869862</ele>
        <time>2021-11-03T16:20:50.182Z</time>
      </trkpt>
      <trkpt lat="39.093304" lon="-1.543523">
        <ele>715.946947</ele>
        <time>2021-11-03T16:20:50.182Z</time>
      </trkpt>
      <trkpt lat="39.093287" lon="-1.543493">
        <ele>716.027493</ele>
        <time>2021-11-03T16:20:50.182Z</time>
      </trkpt>
      <trkpt lat="39.093253" lon="-1.543432">
        <ele>716.190340</ele>
        <time>2021-11-03T16:20:50.182Z</time>
      </trkpt>
      <trkpt lat="39.093196" lon="-1.543307">
        <ele>716.504709</ele>
        <time>2021-11-03T16:20:50.182Z</time>
      </trkpt>
      <trkpt lat="39.093185" lon="-1.543275">
        <ele>716.580599</ele>
        <time>2021-11-03T16:20:50.182Z</time>
      </trkpt>
      <trkpt lat="39.093161" lon="-1.543170">
        <ele>716.817948</ele>
        <time>2021-11-03T16:20:50.182Z</time>
      </trkpt>
      <trkpt lat="39.093146" lon="-1.543060">
        <ele>717.060124</ele>
        <time>2021-11-03T16:20:50.182Z</time>
      </trkpt>
      <trkpt lat="39.093139" lon="-1.542992">
        <ele>717.208866</ele>
        <time>2021-11-03T16:20:50.182Z</time>
      </trkpt>
      <trkpt lat="39.093136" lon="-1.542958">
        <ele>717.283066</ele>
        <time>2021-11-03T16:20:50.182Z</time>
      </trkpt>
      <trkpt lat="39.093139" lon="-1.542852">
        <ele>717.513068</ele>
        <time>2021-11-03T16:20:50.182Z</time>
      </trkpt>
      <trkpt lat="39.093179" lon="-1.542656">
        <ele>717.952519</ele>
        <time>2021-11-03T16:20:50.182Z</time>
      </trkpt>
      <trkpt lat="39.093289" lon="-1.542332">
        <ele>718.719354</ele>
        <time>2021-11-03T16:20:50.182Z</time>
      </trkpt>
      <trkpt lat="39.093305" lon="-1.542284">
        <ele>718.832630</ele>
        <time>2021-11-03T16:20:50.182Z</time>
      </trkpt>
      <trkpt lat="39.093372" lon="-1.542062">
        <ele>719.349125</ele>
        <time>2021-11-03T16:20:50.182Z</time>
      </trkpt>
      <trkpt lat="39.093382" lon="-1.542022">
        <ele>719.440249</ele>
        <time>2021-11-03T16:20:50.182Z</time>
      </trkpt>
      <trkpt lat="39.093415" lon="-1.541896">
        <ele>719.728602</ele>
        <time>2021-11-03T16:20:50.182Z</time>
      </trkpt>
      <trkpt lat="39.093429" lon="-1.541644">
        <ele>720.098873</ele>
        <time>2021-11-03T16:20:50.182Z</time>
      </trkpt>
      <trkpt lat="39.093400" lon="-1.541481">
        <ele>720.226666</ele>
        <time>2021-11-03T16:20:50.182Z</time>
      </trkpt>
      <trkpt lat="39.093336" lon="-1.541296">
        <ele>720.381449</ele>
        <time>2021-11-03T16:20:50.182Z</time>
      </trkpt>
      <trkpt lat="39.093217" lon="-1.541054">
        <ele>720.600377</ele>
        <time>2021-11-03T16:20:50.182Z</time>
      </trkpt>
      <trkpt lat="39.093185" lon="-1.541008">
        <ele>720.647583</ele>
        <time>2021-11-03T16:20:50.182Z</time>
      </trkpt>
      <trkpt lat="39.093154" lon="-1.540962">
        <ele>720.694138</ele>
        <time>2021-11-03T16:20:50.182Z</time>
      </trkpt>
      <trkpt lat="39.093021" lon="-1.540708">
        <ele>720.928287</ele>
        <time>2021-11-03T16:20:50.182Z</time>
      </trkpt>
      <trkpt lat="39.092972" lon="-1.540614">
        <ele>721.014820</ele>
        <time>2021-11-03T16:20:50.182Z</time>
      </trkpt>
      <trkpt lat="39.092865" lon="-1.540404">
        <ele>721.206792</ele>
        <time>2021-11-03T16:20:50.182Z</time>
      </trkpt>
      <trkpt lat="39.092826" lon="-1.540330">
        <ele>721.275148</ele>
        <time>2021-11-03T16:20:50.182Z</time>
      </trkpt>
      <trkpt lat="39.092741" lon="-1.540199">
        <ele>721.405633</ele>
        <time>2021-11-03T16:20:50.182Z</time>
      </trkpt>
      <trkpt lat="39.092719" lon="-1.540166">
        <ele>721.438878</ele>
        <time>2021-11-03T16:20:50.182Z</time>
      </trkpt>
      <trkpt lat="39.092562" lon="-1.539961">
        <ele>721.658967</ele>
        <time>2021-11-03T16:20:50.182Z</time>
      </trkpt>
      <trkpt lat="39.092522" lon="-1.539908">
        <ele>721.715461</ele>
        <time>2021-11-03T16:20:50.182Z</time>
      </trkpt>
      <trkpt lat="39.092437" lon="-1.539813">
        <ele>721.843649</ele>
        <time>2021-11-03T16:20:50.182Z</time>
      </trkpt>
      <trkpt lat="39.092311" lon="-1.539670">
        <ele>722.063216</ele>
        <time>2021-11-03T16:20:50.182Z</time>
      </trkpt>
      <trkpt lat="39.092261" lon="-1.539587">
        <ele>722.169849</ele>
        <time>2021-11-03T16:20:50.182Z</time>
      </trkpt>
      <trkpt lat="39.092245" lon="-1.539559">
        <ele>722.205138</ele>
        <time>2021-11-03T16:20:50.182Z</time>
      </trkpt>
      <trkpt lat="39.092152" lon="-1.539434">
        <ele>722.380874</ele>
        <time>2021-11-03T16:20:50.182Z</time>
      </trkpt>
      <trkpt lat="39.092062" lon="-1.539352">
        <ele>722.525014</ele>
        <time>2021-11-03T16:20:50.182Z</time>
      </trkpt>
      <trkpt lat="39.091958" lon="-1.539269">
        <ele>722.684984</ele>
        <time>2021-11-03T16:20:50.182Z</time>
      </trkpt>
      <trkpt lat="39.091857" lon="-1.539214">
        <ele>722.828368</ele>
        <time>2021-11-03T16:20:50.182Z</time>
      </trkpt>
      <trkpt lat="39.091816" lon="-1.539196">
        <ele>722.885008</ele>
        <time>2021-11-03T16:20:50.182Z</time>
      </trkpt>
      <trkpt lat="39.091727" lon="-1.539139">
        <ele>723.014973</ele>
        <time>2021-11-03T16:20:50.182Z</time>
      </trkpt>
      <trkpt lat="39.091683" lon="-1.539100">
        <ele>723.084809</ele>
        <time>2021-11-03T16:20:50.182Z</time>
      </trkpt>
      <trkpt lat="39.091641" lon="-1.539055">
        <ele>723.156239</ele>
        <time>2021-11-03T16:20:50.182Z</time>
      </trkpt>
      <trkpt lat="39.091607" lon="-1.539005">
        <ele>723.223706</ele>
        <time>2021-11-03T16:20:50.182Z</time>
      </trkpt>
      <trkpt lat="39.091579" lon="-1.538952">
        <ele>723.288775</ele>
        <time>2021-11-03T16:20:50.182Z</time>
      </trkpt>
      <trkpt lat="39.091555" lon="-1.538898">
        <ele>723.351929</ele>
        <time>2021-11-03T16:20:50.182Z</time>
      </trkpt>
      <trkpt lat="39.091534" lon="-1.538845">
        <ele>723.412324</ele>
        <time>2021-11-03T16:20:50.182Z</time>
      </trkpt>
      <trkpt lat="39.091476" lon="-1.538685">
        <ele>723.591548</ele>
        <time>2021-11-03T16:20:50.182Z</time>
      </trkpt>
      <trkpt lat="39.091381" lon="-1.538482">
        <ele>723.832130</ele>
        <time>2021-11-03T16:20:50.182Z</time>
      </trkpt>
      <trkpt lat="39.091162" lon="-1.538185">
        <ele>724.564275</ele>
        <time>2021-11-03T16:20:50.182Z</time>
      </trkpt>
      <trkpt lat="39.091076" lon="-1.538083">
        <ele>725.111253</ele>
        <time>2021-11-03T16:20:50.182Z</time>
      </trkpt>
      <trkpt lat="39.091005" lon="-1.538007">
        <ele>725.543193</ele>
        <time>2021-11-03T16:20:50.182Z</time>
      </trkpt>
      <trkpt lat="39.090983" lon="-1.537987">
        <ele>725.669186</ele>
        <time>2021-11-03T16:20:50.182Z</time>
      </trkpt>
      <trkpt lat="39.090888" lon="-1.537845">
        <ele>726.350066</ele>
        <time>2021-11-03T16:20:50.182Z</time>
      </trkpt>
      <trkpt lat="39.090799" lon="-1.537701">
        <ele>727.018624</ele>
        <time>2021-11-03T16:20:50.182Z</time>
      </trkpt>
      <trkpt lat="39.090687" lon="-1.537587">
        <ele>727.686533</ele>
        <time>2021-11-03T16:20:50.182Z</time>
      </trkpt>
      <trkpt lat="39.090667" lon="-1.537570">
        <ele>727.798653</ele>
        <time>2021-11-03T16:20:50.182Z</time>
      </trkpt>
      <trkpt lat="39.090534" lon="-1.537494">
        <ele>728.479479</ele>
        <time>2021-11-03T16:20:50.182Z</time>
      </trkpt>
      <trkpt lat="39.090511" lon="-1.537484">
        <ele>728.593069</ele>
        <time>2021-11-03T16:20:50.182Z</time>
      </trkpt>
      <trkpt lat="39.090420" lon="-1.537445">
        <ele>729.041835</ele>
        <time>2021-11-03T16:20:50.182Z</time>
      </trkpt>
      <trkpt lat="39.090399" lon="-1.537429">
        <ele>729.155999</ele>
        <time>2021-11-03T16:20:50.182Z</time>
      </trkpt>
      <trkpt lat="39.090378" lon="-1.537414">
        <ele>729.268358</ele>
        <time>2021-11-03T16:20:50.182Z</time>
      </trkpt>
      <trkpt lat="39.090334" lon="-1.537378">
        <ele>729.512260</ele>
        <time>2021-11-03T16:20:50.182Z</time>
      </trkpt>
      <trkpt lat="39.090183" lon="-1.537175">
        <ele>730.533464</ele>
        <time>2021-11-03T16:20:50.182Z</time>
      </trkpt>
      <trkpt lat="39.090162" lon="-1.537144">
        <ele>730.682907</ele>
        <time>2021-11-03T16:20:50.182Z</time>
      </trkpt>
      <trkpt lat="39.090109" lon="-1.537050">
        <ele>731.104884</ele>
        <time>2021-11-03T16:20:50.182Z</time>
      </trkpt>
      <trkpt lat="39.090048" lon="-1.536880">
        <ele>731.785104</ele>
        <time>2021-11-03T16:20:50.182Z</time>
      </trkpt>
      <trkpt lat="39.090016" lon="-1.536781">
        <ele>732.174602</ele>
        <time>2021-11-03T16:20:50.182Z</time>
      </trkpt>
      <trkpt lat="39.089949" lon="-1.536669">
        <ele>732.616980</ele>
        <time>2021-11-03T16:20:50.182Z</time>
      </trkpt>
      <trkpt lat="39.089882" lon="-1.536604">
        <ele>732.818540</ele>
        <time>2021-11-03T16:20:50.182Z</time>
      </trkpt>
      <trkpt lat="39.089813" lon="-1.536541">
        <ele>733.021782</ele>
        <time>2021-11-03T16:20:50.182Z</time>
      </trkpt>
      <trkpt lat="39.089714" lon="-1.536413">
        <ele>733.358846</ele>
        <time>2021-11-03T16:20:50.182Z</time>
      </trkpt>
      <trkpt lat="39.089693" lon="-1.536388">
        <ele>733.427560</ele>
        <time>2021-11-03T16:20:50.182Z</time>
      </trkpt>
      <trkpt lat="39.089565" lon="-1.536190">
        <ele>733.908217</ele>
        <time>2021-11-03T16:20:50.182Z</time>
      </trkpt>
      <trkpt lat="39.089506" lon="-1.536104">
        <ele>734.122316</ele>
        <time>2021-11-03T16:20:50.182Z</time>
      </trkpt>
      <trkpt lat="39.089486" lon="-1.536075">
        <ele>734.194679</ele>
        <time>2021-11-03T16:20:50.182Z</time>
      </trkpt>
      <trkpt lat="39.089380" lon="-1.535940">
        <ele>734.552877</ele>
        <time>2021-11-03T16:20:50.182Z</time>
      </trkpt>
      <trkpt lat="39.089294" lon="-1.535831">
        <ele>734.842799</ele>
        <time>2021-11-03T16:20:50.182Z</time>
      </trkpt>
      <trkpt lat="39.089274" lon="-1.535800">
        <ele>734.917992</ele>
        <time>2021-11-03T16:20:50.182Z</time>
      </trkpt>
      <trkpt lat="39.089089" lon="-1.535515">
        <ele>735.611017</ele>
        <time>2021-11-03T16:20:50.182Z</time>
      </trkpt>
      <trkpt lat="39.088934" lon="-1.535301">
        <ele>736.157003</ele>
        <time>2021-11-03T16:20:50.182Z</time>
      </trkpt>
      <trkpt lat="39.088738" lon="-1.535077">
        <ele>736.786653</ele>
        <time>2021-11-03T16:20:50.182Z</time>
      </trkpt>
      <trkpt lat="39.088715" lon="-1.535049">
        <ele>736.862700</ele>
        <time>2021-11-03T16:20:50.182Z</time>
      </trkpt>
      <trkpt lat="39.088594" lon="-1.534912">
        <ele>737.352317</ele>
        <time>2021-11-03T16:20:50.182Z</time>
      </trkpt>
      <trkpt lat="39.088568" lon="-1.534887">
        <ele>737.451017</ele>
        <time>2021-11-03T16:20:50.182Z</time>
      </trkpt>
      <trkpt lat="39.088434" lon="-1.534718">
        <ele>738.021493</ele>
        <time>2021-11-03T16:20:50.182Z</time>
      </trkpt>
      <trkpt lat="39.088417" lon="-1.534685">
        <ele>738.115018</ele>
        <time>2021-11-03T16:20:50.182Z</time>
      </trkpt>
      <trkpt lat="39.088370" lon="-1.534577">
        <ele>738.407393</ele>
        <time>2021-11-03T16:20:50.182Z</time>
      </trkpt>
      <trkpt lat="39.088340" lon="-1.534502">
        <ele>738.606627</ele>
        <time>2021-11-03T16:20:50.182Z</time>
      </trkpt>
      <trkpt lat="39.088275" lon="-1.534319">
        <ele>739.081849</ele>
        <time>2021-11-03T16:20:50.182Z</time>
      </trkpt>
      <trkpt lat="39.088227" lon="-1.534182">
        <ele>739.436785</ele>
        <time>2021-11-03T16:20:50.182Z</time>
      </trkpt>
      <trkpt lat="39.088183" lon="-1.534044">
        <ele>739.789072</ele>
        <time>2021-11-03T16:20:50.182Z</time>
      </trkpt>
      <trkpt lat="39.088111" lon="-1.533798">
        <ele>740.409889</ele>
        <time>2021-11-03T16:20:50.182Z</time>
      </trkpt>
      <trkpt lat="39.088066" lon="-1.533667">
        <ele>740.748166</ele>
        <time>2021-11-03T16:20:50.182Z</time>
      </trkpt>
      <trkpt lat="39.087965" lon="-1.533418">
        <ele>741.411589</ele>
        <time>2021-11-03T16:20:50.182Z</time>
      </trkpt>
      <trkpt lat="39.087829" lon="-1.533174">
        <ele>742.120927</ele>
        <time>2021-11-03T16:20:50.182Z</time>
      </trkpt>
      <trkpt lat="39.087801" lon="-1.533119">
        <ele>742.276245</ele>
        <time>2021-11-03T16:20:50.182Z</time>
      </trkpt>
      <trkpt lat="39.087676" lon="-1.532874">
        <ele>743.289072</ele>
        <time>2021-11-03T16:20:50.182Z</time>
      </trkpt>
      <trkpt lat="39.087597" lon="-1.532718">
        <ele>743.951888</ele>
        <time>2021-11-03T16:20:50.182Z</time>
      </trkpt>
      <trkpt lat="39.087560" lon="-1.532637">
        <ele>744.286331</ele>
        <time>2021-11-03T16:20:50.182Z</time>
      </trkpt>
      <trkpt lat="39.087470" lon="-1.532465">
        <ele>745.024472</ele>
        <time>2021-11-03T16:20:50.182Z</time>
      </trkpt>
      <trkpt lat="39.087444" lon="-1.532414">
        <ele>745.241597</ele>
        <time>2021-11-03T16:20:50.182Z</time>
      </trkpt>
      <trkpt lat="39.087406" lon="-1.532332">
        <ele>745.581439</ele>
        <time>2021-11-03T16:20:50.182Z</time>
      </trkpt>
      <trkpt lat="39.087345" lon="-1.532160">
        <ele>746.254355</ele>
        <time>2021-11-03T16:20:50.182Z</time>
      </trkpt>
      <trkpt lat="39.087289" lon="-1.532059">
        <ele>746.696037</ele>
        <time>2021-11-03T16:20:50.182Z</time>
      </trkpt>
      <trkpt lat="39.087224" lon="-1.531928">
        <ele>747.249303</ele>
        <time>2021-11-03T16:20:50.182Z</time>
      </trkpt>
      <trkpt lat="39.087192" lon="-1.531877">
        <ele>747.482665</ele>
        <time>2021-11-03T16:20:50.182Z</time>
      </trkpt>
      <trkpt lat="39.087122" lon="-1.531752">
        <ele>748.031155</ele>
        <time>2021-11-03T16:20:50.182Z</time>
      </trkpt>
      <trkpt lat="39.087107" lon="-1.531727">
        <ele>748.143596</ele>
        <time>2021-11-03T16:20:50.182Z</time>
      </trkpt>
      <trkpt lat="39.087039" lon="-1.531561">
        <ele>748.811518</ele>
        <time>2021-11-03T16:20:50.182Z</time>
      </trkpt>
      <trkpt lat="39.087015" lon="-1.531476">
        <ele>749.133378</ele>
        <time>2021-11-03T16:20:50.182Z</time>
      </trkpt>
      <trkpt lat="39.086965" lon="-1.531371">
        <ele>749.571728</ele>
        <time>2021-11-03T16:20:50.182Z</time>
      </trkpt>
      <trkpt lat="39.086872" lon="-1.531190">
        <ele>750.344144</ele>
        <time>2021-11-03T16:20:50.182Z</time>
      </trkpt>
      <trkpt lat="39.086836" lon="-1.531118">
        <ele>750.681822</ele>
        <time>2021-11-03T16:20:50.182Z</time>
      </trkpt>
      <trkpt lat="39.086774" lon="-1.531010">
        <ele>751.395941</ele>
        <time>2021-11-03T16:20:50.182Z</time>
      </trkpt>
      <trkpt lat="39.086746" lon="-1.530936">
        <ele>751.833593</ele>
        <time>2021-11-03T16:20:50.182Z</time>
      </trkpt>
      <trkpt lat="39.086738" lon="-1.530911">
        <ele>751.977350</ele>
        <time>2021-11-03T16:20:50.182Z</time>
      </trkpt>
      <trkpt lat="39.086708" lon="-1.530841">
        <ele>752.402440</ele>
        <time>2021-11-03T16:20:50.182Z</time>
      </trkpt>
      <trkpt lat="39.086699" lon="-1.530818">
        <ele>752.539372</ele>
        <time>2021-11-03T16:20:50.182Z</time>
      </trkpt>
      <trkpt lat="39.086656" lon="-1.530729">
        <ele>753.096685</ele>
        <time>2021-11-03T16:20:50.182Z</time>
      </trkpt>
      <trkpt lat="39.086646" lon="-1.530706">
        <ele>753.236834</ele>
        <time>2021-11-03T16:20:50.182Z</time>
      </trkpt>
      <trkpt lat="39.086601" lon="-1.530621">
        <ele>753.783812</ele>
        <time>2021-11-03T16:20:50.182Z</time>
      </trkpt>
      <trkpt lat="39.086572" lon="-1.530555">
        <ele>754.186999</ele>
        <time>2021-11-03T16:20:50.182Z</time>
      </trkpt>
      <trkpt lat="39.086505" lon="-1.530408">
        <ele>755.093251</ele>
        <time>2021-11-03T16:20:50.182Z</time>
      </trkpt>
      <trkpt lat="39.086493" lon="-1.530388">
        <ele>755.227638</ele>
        <time>2021-11-03T16:20:50.182Z</time>
      </trkpt>
      <trkpt lat="39.086445" lon="-1.530280">
        <ele>755.889249</ele>
        <time>2021-11-03T16:20:50.182Z</time>
      </trkpt>
      <trkpt lat="39.086410" lon="-1.530218">
        <ele>756.296807</ele>
        <time>2021-11-03T16:20:50.182Z</time>
      </trkpt>
      <trkpt lat="39.086398" lon="-1.530198">
        <ele>756.431194</ele>
        <time>2021-11-03T16:20:50.182Z</time>
      </trkpt>
      <trkpt lat="39.086365" lon="-1.530134">
        <ele>756.839663</ele>
        <time>2021-11-03T16:20:50.182Z</time>
      </trkpt>
      <trkpt lat="39.086319" lon="-1.530054">
        <ele>757.368944</ele>
        <time>2021-11-03T16:20:50.182Z</time>
      </trkpt>
      <trkpt lat="39.086308" lon="-1.530032">
        <ele>757.508066</ele>
        <time>2021-11-03T16:20:50.182Z</time>
      </trkpt>
      <trkpt lat="39.086279" lon="-1.529968">
        <ele>757.902037</ele>
        <time>2021-11-03T16:20:50.182Z</time>
      </trkpt>
      <trkpt lat="39.086238" lon="-1.529882">
        <ele>758.438585</ele>
        <time>2021-11-03T16:20:50.182Z</time>
      </trkpt>
      <trkpt lat="39.086223" lon="-1.529827">
        <ele>758.748501</ele>
        <time>2021-11-03T16:20:50.182Z</time>
      </trkpt>
      <trkpt lat="39.086200" lon="-1.529644">
        <ele>759.734042</ele>
        <time>2021-11-03T16:20:50.182Z</time>
      </trkpt>
      <trkpt lat="39.086197" lon="-1.529516">
        <ele>760.414830</ele>
        <time>2021-11-03T16:20:50.182Z</time>
      </trkpt>
      <trkpt lat="39.086202" lon="-1.529438">
        <ele>760.830908</ele>
        <time>2021-11-03T16:20:50.182Z</time>
      </trkpt>
      <trkpt lat="39.086201" lon="-1.529334">
        <ele>761.383838</ele>
        <time>2021-11-03T16:20:50.182Z</time>
      </trkpt>
      <trkpt lat="39.086201" lon="-1.529229">
        <ele>761.942042</ele>
        <time>2021-11-03T16:20:50.182Z</time>
      </trkpt>
      <trkpt lat="39.086201" lon="-1.529095">
        <ele>762.654417</ele>
        <time>2021-11-03T16:20:50.182Z</time>
      </trkpt>
      <trkpt lat="39.086192" lon="-1.528988">
        <ele>762.873790</ele>
        <time>2021-11-03T16:20:50.182Z</time>
      </trkpt>
      <trkpt lat="39.086188" lon="-1.528907">
        <ele>762.837294</ele>
        <time>2021-11-03T16:20:50.182Z</time>
      </trkpt>
      <trkpt lat="39.086179" lon="-1.528826">
        <ele>762.800501</ele>
        <time>2021-11-03T16:20:50.182Z</time>
      </trkpt>
      <trkpt lat="39.086177" lon="-1.528769">
        <ele>762.774844</ele>
        <time>2021-11-03T16:20:50.182Z</time>
      </trkpt>
      <trkpt lat="39.086173" lon="-1.528706">
        <ele>762.746421</ele>
        <time>2021-11-03T16:20:50.182Z</time>
      </trkpt>
      <trkpt lat="39.086168" lon="-1.528673">
        <ele>762.731302</ele>
        <time>2021-11-03T16:20:50.182Z</time>
      </trkpt>
      <trkpt lat="39.086120" lon="-1.528512">
        <ele>762.653750</ele>
        <time>2021-11-03T16:20:50.182Z</time>
      </trkpt>
      <trkpt lat="39.085997" lon="-1.528280">
        <ele>762.527417</ele>
        <time>2021-11-03T16:20:50.182Z</time>
      </trkpt>
      <trkpt lat="39.085978" lon="-1.528249">
        <ele>762.509656</ele>
        <time>2021-11-03T16:20:50.182Z</time>
      </trkpt>
      <trkpt lat="39.085776" lon="-1.527943">
        <ele>762.329027</ele>
        <time>2021-11-03T16:20:50.182Z</time>
      </trkpt>
      <trkpt lat="39.085728" lon="-1.527865">
        <ele>762.284268</ele>
        <time>2021-11-03T16:20:50.182Z</time>
      </trkpt>
      <trkpt lat="39.085656" lon="-1.527730">
        <ele>762.210615</ele>
        <time>2021-11-03T16:20:50.182Z</time>
      </trkpt>
      <trkpt lat="39.085601" lon="-1.527628">
        <ele>762.154769</ele>
        <time>2021-11-03T16:20:50.182Z</time>
      </trkpt>
      <trkpt lat="39.085572" lon="-1.527572">
        <ele>762.124498</ele>
        <time>2021-11-03T16:20:50.182Z</time>
      </trkpt>
      <trkpt lat="39.085509" lon="-1.527452">
        <ele>762.059355</ele>
        <time>2021-11-03T16:20:50.182Z</time>
      </trkpt>
      <trkpt lat="39.085480" lon="-1.527388">
        <ele>762.026031</ele>
        <time>2021-11-03T16:20:50.182Z</time>
      </trkpt>
      <trkpt lat="39.085449" lon="-1.527315">
        <ele>761.988615</ele>
        <time>2021-11-03T16:20:50.182Z</time>
      </trkpt>
      <trkpt lat="39.085413" lon="-1.527243">
        <ele>761.950103</ele>
        <time>2021-11-03T16:20:50.182Z</time>
      </trkpt>
      <trkpt lat="39.085326" lon="-1.527101">
        <ele>761.868757</ele>
        <time>2021-11-03T16:20:50.182Z</time>
      </trkpt>
      <trkpt lat="39.085281" lon="-1.527021">
        <ele>761.877888</ele>
        <time>2021-11-03T16:20:50.182Z</time>
      </trkpt>
      <trkpt lat="39.085236" lon="-1.526939">
        <ele>761.901826</ele>
        <time>2021-11-03T16:20:50.182Z</time>
      </trkpt>
      <trkpt lat="39.085047" lon="-1.526571">
        <ele>762.007011</ele>
        <time>2021-11-03T16:20:50.182Z</time>
      </trkpt>
      <trkpt lat="39.085023" lon="-1.526519">
        <ele>762.021432</ele>
        <time>2021-11-03T16:20:50.182Z</time>
      </trkpt>
      <trkpt lat="39.085010" lon="-1.526419">
        <ele>762.045601</ele>
        <time>2021-11-03T16:20:50.182Z</time>
      </trkpt>
      <trkpt lat="39.085019" lon="-1.526326">
        <ele>762.067941</ele>
        <time>2021-11-03T16:20:50.182Z</time>
      </trkpt>
      <trkpt lat="39.085061" lon="-1.526156">
        <ele>762.110468</ele>
        <time>2021-11-03T16:20:50.182Z</time>
      </trkpt>
      <trkpt lat="39.085074" lon="-1.526115">
        <ele>762.121025</ele>
        <time>2021-11-03T16:20:50.182Z</time>
      </trkpt>
      <trkpt lat="39.085124" lon="-1.525903">
        <ele>762.173841</ele>
        <time>2021-11-03T16:20:50.182Z</time>
      </trkpt>
      <trkpt lat="39.085135" lon="-1.525820">
        <ele>762.193913</ele>
        <time>2021-11-03T16:20:50.182Z</time>
      </trkpt>
      <trkpt lat="39.085177" lon="-1.525400">
        <ele>762.294856</ele>
        <time>2021-11-03T16:20:50.182Z</time>
      </trkpt>
      <trkpt lat="39.085151" lon="-1.525019">
        <ele>762.386027</ele>
        <time>2021-11-03T16:20:50.182Z</time>
      </trkpt>
      <trkpt lat="39.085116" lon="-1.524664">
        <ele>762.287910</ele>
        <time>2021-11-03T16:20:50.182Z</time>
      </trkpt>
      <trkpt lat="39.085128" lon="-1.524307">
        <ele>762.111110</ele>
        <time>2021-11-03T16:20:50.182Z</time>
      </trkpt>
      <trkpt lat="39.085145" lon="-1.524000">
        <ele>761.958829</ele>
        <time>2021-11-03T16:20:50.182Z</time>
      </trkpt>
      <trkpt lat="39.085145" lon="-1.523911">
        <ele>761.914794</ele>
        <time>2021-11-03T16:20:50.182Z</time>
      </trkpt>
      <trkpt lat="39.085147" lon="-1.523815">
        <ele>761.867279</ele>
        <time>2021-11-03T16:20:50.182Z</time>
      </trkpt>
      <trkpt lat="39.085153" lon="-1.523719">
        <ele>761.819627</ele>
        <time>2021-11-03T16:20:50.182Z</time>
      </trkpt>
      <trkpt lat="39.085171" lon="-1.523538">
        <ele>761.729341</ele>
        <time>2021-11-03T16:20:50.182Z</time>
      </trkpt>
      <trkpt lat="39.085169" lon="-1.523458">
        <ele>761.689739</ele>
        <time>2021-11-03T16:20:50.182Z</time>
      </trkpt>
      <trkpt lat="39.085163" lon="-1.523332">
        <ele>761.627280</ele>
        <time>2021-11-03T16:20:50.182Z</time>
      </trkpt>
      <trkpt lat="39.085164" lon="-1.523227">
        <ele>761.575325</ele>
        <time>2021-11-03T16:20:50.182Z</time>
      </trkpt>
      <trkpt lat="39.085172" lon="-1.523129">
        <ele>761.526570</ele>
        <time>2021-11-03T16:20:50.182Z</time>
      </trkpt>
      <trkpt lat="39.085178" lon="-1.523081">
        <ele>761.502515</ele>
        <time>2021-11-03T16:20:50.182Z</time>
      </trkpt>
      <trkpt lat="39.085193" lon="-1.522984">
        <ele>761.453579</ele>
        <time>2021-11-03T16:20:50.182Z</time>
      </trkpt>
      <trkpt lat="39.085215" lon="-1.522845">
        <ele>761.383390</ele>
        <time>2021-11-03T16:20:50.182Z</time>
      </trkpt>
      <trkpt lat="39.085245" lon="-1.522663">
        <ele>761.291334</ele>
        <time>2021-11-03T16:20:50.182Z</time>
      </trkpt>
      <trkpt lat="39.085257" lon="-1.522574">
        <ele>761.215890</ele>
        <time>2021-11-03T16:20:50.182Z</time>
      </trkpt>
      <trkpt lat="39.085279" lon="-1.522438">
        <ele>761.033272</ele>
        <time>2021-11-03T16:20:50.182Z</time>
      </trkpt>
      <trkpt lat="39.085336" lon="-1.522261">
        <ele>760.781371</ele>
        <time>2021-11-03T16:20:50.182Z</time>
      </trkpt>
      <trkpt lat="39.085384" lon="-1.522123">
        <ele>760.582585</ele>
        <time>2021-11-03T16:20:50.182Z</time>
      </trkpt>
      <trkpt lat="39.085429" lon="-1.521980">
        <ele>760.379746</ele>
        <time>2021-11-03T16:20:50.182Z</time>
      </trkpt>
      <trkpt lat="39.085463" lon="-1.521827">
        <ele>760.170543</ele>
        <time>2021-11-03T16:20:50.182Z</time>
      </trkpt>
      <trkpt lat="39.085605" lon="-1.521518">
        <ele>759.698504</ele>
        <time>2021-11-03T16:20:50.182Z</time>
      </trkpt>
      <trkpt lat="39.085800" lon="-1.521200">
        <ele>759.165778</ele>
        <time>2021-11-03T16:20:50.182Z</time>
      </trkpt>
      <trkpt lat="39.085831" lon="-1.521135">
        <ele>759.065494</ele>
        <time>2021-11-03T16:20:50.182Z</time>
      </trkpt>
      <trkpt lat="39.085903" lon="-1.520907">
        <ele>758.741929</ele>
        <time>2021-11-03T16:20:50.182Z</time>
      </trkpt>
      <trkpt lat="39.085916" lon="-1.520818">
        <ele>758.622883</ele>
        <time>2021-11-03T16:20:50.182Z</time>
      </trkpt>
      <trkpt lat="39.085925" lon="-1.520724">
        <ele>758.498382</ele>
        <time>2021-11-03T16:20:50.182Z</time>
      </trkpt>
      <trkpt lat="39.085928" lon="-1.520624">
        <ele>758.366832</ele>
        <time>2021-11-03T16:20:50.182Z</time>
      </trkpt>
      <trkpt lat="39.085922" lon="-1.520521">
        <ele>758.231056</ele>
        <time>2021-11-03T16:20:50.182Z</time>
      </trkpt>
      <trkpt lat="39.085906" lon="-1.520418">
        <ele>757.994290</ele>
        <time>2021-11-03T16:20:50.182Z</time>
      </trkpt>
      <trkpt lat="39.085845" lon="-1.520218">
        <ele>757.490876</ele>
        <time>2021-11-03T16:20:50.182Z</time>
      </trkpt>
      <trkpt lat="39.085779" lon="-1.520027">
        <ele>757.001082</ele>
        <time>2021-11-03T16:20:50.182Z</time>
      </trkpt>
      <trkpt lat="39.085741" lon="-1.519834">
        <ele>756.534620</ele>
        <time>2021-11-03T16:20:50.182Z</time>
      </trkpt>
      <trkpt lat="39.085736" lon="-1.519666">
        <ele>756.140756</ele>
        <time>2021-11-03T16:20:50.182Z</time>
      </trkpt>
      <trkpt lat="39.085730" lon="-1.519480">
        <ele>755.704636</ele>
        <time>2021-11-03T16:20:50.182Z</time>
      </trkpt>
      <trkpt lat="39.085727" lon="-1.519386">
        <ele>755.484235</ele>
        <time>2021-11-03T16:20:50.182Z</time>
      </trkpt>
      <trkpt lat="39.085733" lon="-1.519373">
        <ele>755.448803</ele>
        <time>2021-11-03T16:20:50.182Z</time>
      </trkpt>
      <trkpt lat="39.085744" lon="-1.519364">
        <ele>755.409474</ele>
        <time>2021-11-03T16:20:50.182Z</time>
      </trkpt>
      <trkpt lat="39.085789" lon="-1.519373">
        <ele>755.272030</ele>
        <time>2021-11-03T16:20:50.182Z</time>
      </trkpt>
      <trkpt lat="39.085832" lon="-1.519342">
        <ele>755.123311</ele>
        <time>2021-11-03T16:20:50.182Z</time>
      </trkpt>
      <trkpt lat="39.085832" lon="-1.519342">
        <ele>755.123311</ele>
        <time>2021-11-03T16:20:50.182Z</time>
      </trkpt>
      <trkpt lat="39.085852" lon="-1.519317">
        <ele>755.039204</ele>
        <time>2021-11-03T16:20:50.182Z</time>
      </trkpt>
      <trkpt lat="39.085900" lon="-1.519234">
        <ele>754.796725</ele>
        <time>2021-11-03T16:20:50.182Z</time>
      </trkpt>
      <trkpt lat="39.085911" lon="-1.519207">
        <ele>754.725288</ele>
        <time>2021-11-03T16:20:50.182Z</time>
      </trkpt>
      <trkpt lat="39.085922" lon="-1.519171">
        <ele>754.634651</ele>
        <time>2021-11-03T16:20:50.182Z</time>
      </trkpt>
      <trkpt lat="39.085964" lon="-1.518981">
        <ele>754.171840</ele>
        <time>2021-11-03T16:20:50.182Z</time>
      </trkpt>
      <trkpt lat="39.085994" lon="-1.518870">
        <ele>753.896487</ele>
        <time>2021-11-03T16:20:50.182Z</time>
      </trkpt>
      <trkpt lat="39.086021" lon="-1.518747">
        <ele>753.597034</ele>
        <time>2021-11-03T16:20:50.182Z</time>
      </trkpt>
      <trkpt lat="39.086031" lon="-1.518688">
        <ele>753.455558</ele>
        <time>2021-11-03T16:20:50.182Z</time>
      </trkpt>
      <trkpt lat="39.086039" lon="-1.518633">
        <ele>753.324467</ele>
        <time>2021-11-03T16:20:50.182Z</time>
      </trkpt>
      <trkpt lat="39.086047" lon="-1.518536">
        <ele>753.095946</ele>
        <time>2021-11-03T16:20:50.182Z</time>
      </trkpt>
      <trkpt lat="39.086043" lon="-1.518421">
        <ele>752.826265</ele>
        <time>2021-11-03T16:20:50.182Z</time>
      </trkpt>
      <trkpt lat="39.086035" lon="-1.518354">
        <ele>752.947163</ele>
        <time>2021-11-03T16:20:50.182Z</time>
      </trkpt>
      <trkpt lat="39.086024" lon="-1.518259">
        <ele>753.233482</ele>
        <time>2021-11-03T16:20:50.182Z</time>
      </trkpt>
      <trkpt lat="39.086022" lon="-1.518227">
        <ele>753.329180</ele>
        <time>2021-11-03T16:20:50.182Z</time>
      </trkpt>
      <trkpt lat="39.086021" lon="-1.518197">
        <ele>753.418690</ele>
        <time>2021-11-03T16:20:50.182Z</time>
      </trkpt>
      <trkpt lat="39.086021" lon="-1.518166">
        <ele>753.511098</ele>
        <time>2021-11-03T16:20:50.182Z</time>
      </trkpt>
      <trkpt lat="39.086020" lon="-1.518135">
        <ele>753.603586</ele>
        <time>2021-11-03T16:20:50.182Z</time>
      </trkpt>
      <trkpt lat="39.086020" lon="-1.518104">
        <ele>753.695994</ele>
        <time>2021-11-03T16:20:50.182Z</time>
      </trkpt>
      <trkpt lat="39.086019" lon="-1.518072">
        <ele>753.791460</ele>
        <time>2021-11-03T16:20:50.182Z</time>
      </trkpt>
      <trkpt lat="39.086019" lon="-1.518039">
        <ele>753.889830</ele>
        <time>2021-11-03T16:20:50.182Z</time>
      </trkpt>
      <trkpt lat="39.086020" lon="-1.518007">
        <ele>753.985296</ele>
        <time>2021-11-03T16:20:50.182Z</time>
      </trkpt>
      <trkpt lat="39.086023" lon="-1.517974">
        <ele>754.084338</ele>
        <time>2021-11-03T16:20:50.182Z</time>
      </trkpt>
      <trkpt lat="39.086028" lon="-1.517941">
        <ele>754.184565</ele>
        <time>2021-11-03T16:20:50.182Z</time>
      </trkpt>
      <trkpt lat="39.086037" lon="-1.517876">
        <ele>754.381382</ele>
        <time>2021-11-03T16:20:50.182Z</time>
      </trkpt>
      <trkpt lat="39.086045" lon="-1.517809">
        <ele>754.583452</ele>
        <time>2021-11-03T16:20:50.182Z</time>
      </trkpt>
      <trkpt lat="39.086050" lon="-1.517776">
        <ele>754.683678</ele>
        <time>2021-11-03T16:20:50.182Z</time>
      </trkpt>
      <trkpt lat="39.086072" lon="-1.517644">
        <ele>755.086126</ele>
        <time>2021-11-03T16:20:50.182Z</time>
      </trkpt>
      <trkpt lat="39.086091" lon="-1.517545">
        <ele>755.390122</ele>
        <time>2021-11-03T16:20:50.182Z</time>
      </trkpt>
      <trkpt lat="39.086098" lon="-1.517512">
        <ele>755.492099</ele>
        <time>2021-11-03T16:20:50.182Z</time>
      </trkpt>
      <trkpt lat="39.086106" lon="-1.517480">
        <ele>755.592313</ele>
        <time>2021-11-03T16:20:50.182Z</time>
      </trkpt>
      <trkpt lat="39.086139" lon="-1.517357">
        <ele>755.980249</ele>
        <time>2021-11-03T16:20:50.182Z</time>
      </trkpt>
      <trkpt lat="39.086166" lon="-1.517267">
        <ele>756.267871</ele>
        <time>2021-11-03T16:20:50.182Z</time>
      </trkpt>
      <trkpt lat="39.086198" lon="-1.517177">
        <ele>756.562959</ele>
        <time>2021-11-03T16:20:50.182Z</time>
      </trkpt>
      <trkpt lat="39.086209" lon="-1.517148">
        <ele>756.659175</ele>
        <time>2021-11-03T16:20:50.182Z</time>
      </trkpt>
      <trkpt lat="39.086220" lon="-1.517119">
        <ele>756.755391</ele>
        <time>2021-11-03T16:20:50.182Z</time>
      </trkpt>
      <trkpt lat="39.086231" lon="-1.517090">
        <ele>756.851606</ele>
        <time>2021-11-03T16:20:50.182Z</time>
      </trkpt>
      <trkpt lat="39.086242" lon="-1.517061">
        <ele>756.947822</ele>
        <time>2021-11-03T16:20:50.182Z</time>
      </trkpt>
      <trkpt lat="39.086251" lon="-1.517031">
        <ele>757.043696</ele>
        <time>2021-11-03T16:20:50.182Z</time>
      </trkpt>
      <trkpt lat="39.086260" lon="-1.517002">
        <ele>757.136796</ele>
        <time>2021-11-03T16:20:50.182Z</time>
      </trkpt>
      <trkpt lat="39.086280" lon="-1.516942">
        <ele>757.331444</ele>
        <time>2021-11-03T16:20:50.182Z</time>
      </trkpt>
      <trkpt lat="39.086337" lon="-1.516800">
        <ele>757.807983</ele>
        <time>2021-11-03T16:20:50.182Z</time>
      </trkpt>
      <trkpt lat="39.086349" lon="-1.516772">
        <ele>757.903326</ele>
        <time>2021-11-03T16:20:50.182Z</time>
      </trkpt>
      <trkpt lat="39.086435" lon="-1.516565">
        <ele>758.603200</ele>
        <time>2021-11-03T16:20:50.182Z</time>
      </trkpt>
      <trkpt lat="39.086469" lon="-1.516473">
        <ele>758.906939</ele>
        <time>2021-11-03T16:20:50.182Z</time>
      </trkpt>
      <trkpt lat="39.086539" lon="-1.516289">
        <ele>759.517759</ele>
        <time>2021-11-03T16:20:50.182Z</time>
      </trkpt>
      <trkpt lat="39.086604" lon="-1.516102">
        <ele>759.907777</ele>
        <time>2021-11-03T16:20:50.182Z</time>
      </trkpt>
      <trkpt lat="39.086655" lon="-1.515980">
        <ele>760.109033</ele>
        <time>2021-11-03T16:20:50.182Z</time>
      </trkpt>
      <trkpt lat="39.086745" lon="-1.515809">
        <ele>760.409104</ele>
        <time>2021-11-03T16:20:50.182Z</time>
      </trkpt>
      <trkpt lat="39.086817" lon="-1.515662">
        <ele>760.661559</ele>
        <time>2021-11-03T16:20:50.182Z</time>
      </trkpt>
      <trkpt lat="39.086912" lon="-1.515476">
        <ele>760.984942</ele>
        <time>2021-11-03T16:20:50.182Z</time>
      </trkpt>
      <trkpt lat="39.086945" lon="-1.515415">
        <ele>761.092933</ele>
        <time>2021-11-03T16:20:50.182Z</time>
      </trkpt>
      <trkpt lat="39.086973" lon="-1.515268">
        <ele>761.312769</ele>
        <time>2021-11-03T16:20:50.182Z</time>
      </trkpt>
      <trkpt lat="39.086967" lon="-1.515185">
        <ele>761.433838</ele>
        <time>2021-11-03T16:20:50.182Z</time>
      </trkpt>
      <trkpt lat="39.086929" lon="-1.514956">
        <ele>761.773950</ele>
        <time>2021-11-03T16:20:50.182Z</time>
      </trkpt>
      <trkpt lat="39.086790" lon="-1.514539">
        <ele>762.433082</ele>
        <time>2021-11-03T16:20:50.182Z</time>
      </trkpt>
      <trkpt lat="39.086665" lon="-1.514291">
        <ele>762.862554</ele>
        <time>2021-11-03T16:20:50.182Z</time>
      </trkpt>
      <trkpt lat="39.086544" lon="-1.514085">
        <ele>762.991306</ele>
        <time>2021-11-03T16:20:50.182Z</time>
      </trkpt>
      <trkpt lat="39.086447" lon="-1.513922">
        <ele>762.867497</ele>
        <time>2021-11-03T16:20:50.182Z</time>
      </trkpt>
      <trkpt lat="39.086416" lon="-1.513863">
        <ele>762.824550</ele>
        <time>2021-11-03T16:20:50.182Z</time>
      </trkpt>
      <trkpt lat="39.086385" lon="-1.513802">
        <ele>762.780599</ele>
        <time>2021-11-03T16:20:50.182Z</time>
      </trkpt>
      <trkpt lat="39.086353" lon="-1.513742">
        <ele>762.736717</ele>
        <time>2021-11-03T16:20:50.182Z</time>
      </trkpt>
      <trkpt lat="39.086287" lon="-1.513619">
        <ele>762.646581</ele>
        <time>2021-11-03T16:20:50.182Z</time>
      </trkpt>
      <trkpt lat="39.086182" lon="-1.513439">
        <ele>762.510853</ele>
        <time>2021-11-03T16:20:50.182Z</time>
      </trkpt>
      <trkpt lat="39.086072" lon="-1.513249">
        <ele>762.367971</ele>
        <time>2021-11-03T16:20:50.182Z</time>
      </trkpt>
      <trkpt lat="39.085753" lon="-1.512698">
        <ele>761.953615</ele>
        <time>2021-11-03T16:20:50.182Z</time>
      </trkpt>
      <trkpt lat="39.085719" lon="-1.512643">
        <ele>761.911232</ele>
        <time>2021-11-03T16:20:50.182Z</time>
      </trkpt>
      <trkpt lat="39.085457" lon="-1.512179">
        <ele>761.184919</ele>
        <time>2021-11-03T16:20:50.182Z</time>
      </trkpt>
      <trkpt lat="39.085428" lon="-1.512117">
        <ele>760.977592</ele>
        <time>2021-11-03T16:20:50.182Z</time>
      </trkpt>
      <trkpt lat="39.085401" lon="-1.512052">
        <ele>760.766440</ele>
        <time>2021-11-03T16:20:50.182Z</time>
      </trkpt>
      <trkpt lat="39.085325" lon="-1.511844">
        <ele>760.107991</ele>
        <time>2021-11-03T16:20:50.182Z</time>
      </trkpt>
      <trkpt lat="39.085282" lon="-1.511698">
        <ele>759.660734</ele>
        <time>2021-11-03T16:20:50.182Z</time>
      </trkpt>
      <trkpt lat="39.085247" lon="-1.511549">
        <ele>759.214861</ele>
        <time>2021-11-03T16:20:50.182Z</time>
      </trkpt>
      <trkpt lat="39.085183" lon="-1.511243">
        <ele>758.307168</ele>
        <time>2021-11-03T16:20:50.182Z</time>
      </trkpt>
      <trkpt lat="39.085169" lon="-1.511164">
        <ele>758.075077</ele>
        <time>2021-11-03T16:20:50.182Z</time>
      </trkpt>
      <trkpt lat="39.085147" lon="-1.511002">
        <ele>757.604035</ele>
        <time>2021-11-03T16:20:50.182Z</time>
      </trkpt>
      <trkpt lat="39.085133" lon="-1.510920">
        <ele>757.363559</ele>
        <time>2021-11-03T16:20:50.182Z</time>
      </trkpt>
      <trkpt lat="39.085105" lon="-1.510841">
        <ele>757.114818</ele>
        <time>2021-11-03T16:20:50.182Z</time>
      </trkpt>
      <trkpt lat="39.085065" lon="-1.510769">
        <ele>756.861220</ele>
        <time>2021-11-03T16:20:50.182Z</time>
      </trkpt>
      <trkpt lat="39.084955" lon="-1.510639">
        <ele>756.310414</ele>
        <time>2021-11-03T16:20:50.182Z</time>
      </trkpt>
      <trkpt lat="39.084888" lon="-1.510587">
        <ele>756.021792</ele>
        <time>2021-11-03T16:20:50.182Z</time>
      </trkpt>
      <trkpt lat="39.084742" lon="-1.510492">
        <ele>755.418246</ele>
        <time>2021-11-03T16:20:50.182Z</time>
      </trkpt>
      <trkpt lat="39.084673" lon="-1.510434">
        <ele>755.114238</ele>
        <time>2021-11-03T16:20:50.182Z</time>
      </trkpt>
      <trkpt lat="39.084608" lon="-1.510364">
        <ele>754.940066</ele>
        <time>2021-11-03T16:20:50.182Z</time>
      </trkpt>
      <trkpt lat="39.084423" lon="-1.510123">
        <ele>754.558045</ele>
        <time>2021-11-03T16:20:50.182Z</time>
      </trkpt>
      <trkpt lat="39.084365" lon="-1.510042">
        <ele>754.433839</ele>
        <time>2021-11-03T16:20:50.182Z</time>
      </trkpt>
      <trkpt lat="39.084266" lon="-1.509886">
        <ele>754.206729</ele>
        <time>2021-11-03T16:20:50.182Z</time>
      </trkpt>
      <trkpt lat="39.084191" lon="-1.509738">
        <ele>754.007518</ele>
        <time>2021-11-03T16:20:50.182Z</time>
      </trkpt>
      <trkpt lat="39.084164" lon="-1.509664">
        <ele>753.915359</ele>
        <time>2021-11-03T16:20:50.182Z</time>
      </trkpt>
      <trkpt lat="39.084152" lon="-1.509585">
        <ele>753.824630</ele>
        <time>2021-11-03T16:20:50.182Z</time>
      </trkpt>
      <trkpt lat="39.084156" lon="-1.509508">
        <ele>753.737650</ele>
        <time>2021-11-03T16:20:50.182Z</time>
      </trkpt>
      <trkpt lat="39.084194" lon="-1.509354">
        <ele>753.555519</ele>
        <time>2021-11-03T16:20:50.182Z</time>
      </trkpt>
      <trkpt lat="39.084368" lon="-1.508818">
        <ele>752.900695</ele>
        <time>2021-11-03T16:20:50.182Z</time>
      </trkpt>
      <trkpt lat="39.084468" lon="-1.508493">
        <ele>752.506663</ele>
        <time>2021-11-03T16:20:50.182Z</time>
      </trkpt>
      <trkpt lat="39.084477" lon="-1.508410">
        <ele>752.425623</ele>
        <time>2021-11-03T16:20:50.182Z</time>
      </trkpt>
      <trkpt lat="39.084465" lon="-1.508335">
        <ele>752.532020</ele>
        <time>2021-11-03T16:20:50.182Z</time>
      </trkpt>
      <trkpt lat="39.084433" lon="-1.508276">
        <ele>752.632024</ele>
        <time>2021-11-03T16:20:50.182Z</time>
      </trkpt>
      <trkpt lat="39.084389" lon="-1.508234">
        <ele>752.730046</ele>
        <time>2021-11-03T16:20:50.182Z</time>
      </trkpt>
      <trkpt lat="39.084340" lon="-1.508209">
        <ele>752.824383</ele>
        <time>2021-11-03T16:20:50.182Z</time>
      </trkpt>
      <trkpt lat="39.084290" lon="-1.508196">
        <ele>752.915686</ele>
        <time>2021-11-03T16:20:50.182Z</time>
      </trkpt>
      <trkpt lat="39.084242" lon="-1.508188">
        <ele>753.002321</ele>
        <time>2021-11-03T16:20:50.182Z</time>
      </trkpt>
      <trkpt lat="39.084196" lon="-1.508179">
        <ele>753.085604</ele>
        <time>2021-11-03T16:20:50.182Z</time>
      </trkpt>
      <trkpt lat="39.083915" lon="-1.508082">
        <ele>753.606331</ele>
        <time>2021-11-03T16:20:50.182Z</time>
      </trkpt>
      <trkpt lat="39.083744" lon="-1.508017">
        <ele>753.925462</ele>
        <time>2021-11-03T16:20:50.182Z</time>
      </trkpt>
      <trkpt lat="39.083612" lon="-1.507967">
        <ele>754.171741</ele>
        <time>2021-11-03T16:20:50.182Z</time>
      </trkpt>
      <trkpt lat="39.083580" lon="-1.507954">
        <ele>754.231800</ele>
        <time>2021-11-03T16:20:50.182Z</time>
      </trkpt>
      <trkpt lat="39.083548" lon="-1.507942">
        <ele>754.291457</ele>
        <time>2021-11-03T16:20:50.182Z</time>
      </trkpt>
      <trkpt lat="39.083259" lon="-1.507832">
        <ele>754.830866</ele>
        <time>2021-11-03T16:20:50.182Z</time>
      </trkpt>
      <trkpt lat="39.083161" lon="-1.507798">
        <ele>755.012533</ele>
        <time>2021-11-03T16:20:50.182Z</time>
      </trkpt>
      <trkpt lat="39.082878" lon="-1.507687">
        <ele>755.542055</ele>
        <time>2021-11-03T16:20:50.182Z</time>
      </trkpt>
      <trkpt lat="39.082753" lon="-1.507633">
        <ele>755.881327</ele>
        <time>2021-11-03T16:20:50.182Z</time>
      </trkpt>
      <trkpt lat="39.082691" lon="-1.507610">
        <ele>756.081830</ele>
        <time>2021-11-03T16:20:50.182Z</time>
      </trkpt>
      <trkpt lat="39.082389" lon="-1.507464">
        <ele>757.084242</ele>
        <time>2021-11-03T16:20:50.182Z</time>
      </trkpt>
      <trkpt lat="39.082218" lon="-1.507344">
        <ele>757.689375</ele>
        <time>2021-11-03T16:20:50.182Z</time>
      </trkpt>
      <trkpt lat="39.082159" lon="-1.507307">
        <ele>757.893295</ele>
        <time>2021-11-03T16:20:50.182Z</time>
      </trkpt>
      <trkpt lat="39.082073" lon="-1.507246">
        <ele>758.198384</ele>
        <time>2021-11-03T16:20:50.182Z</time>
      </trkpt>
      <trkpt lat="39.082043" lon="-1.507226">
        <ele>758.303356</ele>
        <time>2021-11-03T16:20:50.182Z</time>
      </trkpt>
      <trkpt lat="39.081745" lon="-1.507023">
        <ele>759.350932</ele>
        <time>2021-11-03T16:20:50.182Z</time>
      </trkpt>
      <trkpt lat="39.081352" lon="-1.506752">
        <ele>760.736190</ele>
        <time>2021-11-03T16:20:50.182Z</time>
      </trkpt>
      <trkpt lat="39.081317" lon="-1.506728">
        <ele>760.859406</ele>
        <time>2021-11-03T16:20:50.182Z</time>
      </trkpt>
      <trkpt lat="39.081282" lon="-1.506704">
        <ele>760.982622</ele>
        <time>2021-11-03T16:20:50.182Z</time>
      </trkpt>
      <trkpt lat="39.081212" lon="-1.506655">
        <ele>761.228183</ele>
        <time>2021-11-03T16:20:50.182Z</time>
      </trkpt>
      <trkpt lat="39.081106" lon="-1.506577">
        <ele>761.346822</ele>
        <time>2021-11-03T16:20:50.182Z</time>
      </trkpt>
      <trkpt lat="39.080959" lon="-1.506473">
        <ele>761.509813</ele>
        <time>2021-11-03T16:20:50.182Z</time>
      </trkpt>
      <trkpt lat="39.080729" lon="-1.506300">
        <ele>761.768655</ele>
        <time>2021-11-03T16:20:50.182Z</time>
      </trkpt>
      <trkpt lat="39.080609" lon="-1.506212">
        <ele>761.902851</ele>
        <time>2021-11-03T16:20:50.182Z</time>
      </trkpt>
      <trkpt lat="39.080448" lon="-1.506100">
        <ele>762.080677</ele>
        <time>2021-11-03T16:20:50.182Z</time>
      </trkpt>
      <trkpt lat="39.080249" lon="-1.505957">
        <ele>762.302133</ele>
        <time>2021-11-03T16:20:50.182Z</time>
      </trkpt>
      <trkpt lat="39.080171" lon="-1.505902">
        <ele>762.388551</ele>
        <time>2021-11-03T16:20:50.182Z</time>
      </trkpt>
      <trkpt lat="39.080021" lon="-1.505786">
        <ele>762.558581</ele>
        <time>2021-11-03T16:20:50.182Z</time>
      </trkpt>
      <trkpt lat="39.079908" lon="-1.505706">
        <ele>762.683894</ele>
        <time>2021-11-03T16:20:50.182Z</time>
      </trkpt>
      <trkpt lat="39.079869" lon="-1.505685">
        <ele>762.724974</ele>
        <time>2021-11-03T16:20:50.182Z</time>
      </trkpt>
      <trkpt lat="39.079828" lon="-1.505668">
        <ele>762.766834</ele>
        <time>2021-11-03T16:20:50.182Z</time>
      </trkpt>
      <trkpt lat="39.079785" lon="-1.505659">
        <ele>762.809172</ele>
        <time>2021-11-03T16:20:50.182Z</time>
      </trkpt>
      <trkpt lat="39.079565" lon="-1.505659">
        <ele>762.922707</ele>
        <time>2021-11-03T16:20:50.182Z</time>
      </trkpt>
      <trkpt lat="39.079130" lon="-1.505700">
        <ele>762.455089</ele>
        <time>2021-11-03T16:20:50.182Z</time>
      </trkpt>
      <trkpt lat="39.079026" lon="-1.505700">
        <ele>762.343588</ele>
        <time>2021-11-03T16:20:50.182Z</time>
      </trkpt>
      <trkpt lat="39.078866" lon="-1.505716">
        <ele>762.171533</ele>
        <time>2021-11-03T16:20:50.182Z</time>
      </trkpt>
      <trkpt lat="39.078701" lon="-1.505764">
        <ele>761.990179</ele>
        <time>2021-11-03T16:20:50.182Z</time>
      </trkpt>
      <trkpt lat="39.078645" lon="-1.505781">
        <ele>761.928496</ele>
        <time>2021-11-03T16:20:50.182Z</time>
      </trkpt>
      <trkpt lat="39.078443" lon="-1.505865">
        <ele>761.700923</ele>
        <time>2021-11-03T16:20:50.182Z</time>
      </trkpt>
      <trkpt lat="39.078348" lon="-1.505917">
        <ele>761.590259</ele>
        <time>2021-11-03T16:20:50.182Z</time>
      </trkpt>
      <trkpt lat="39.078271" lon="-1.505964">
        <ele>761.498907</ele>
        <time>2021-11-03T16:20:50.182Z</time>
      </trkpt>
      <trkpt lat="39.078155" lon="-1.506026">
        <ele>761.364261</ele>
        <time>2021-11-03T16:20:50.182Z</time>
      </trkpt>
      <trkpt lat="39.078073" lon="-1.506075">
        <ele>761.267349</ele>
        <time>2021-11-03T16:20:50.182Z</time>
      </trkpt>
      <trkpt lat="39.077884" lon="-1.506161">
        <ele>761.052449</ele>
        <time>2021-11-03T16:20:50.182Z</time>
      </trkpt>
      <trkpt lat="39.077755" lon="-1.506189">
        <ele>761.312850</ele>
        <time>2021-11-03T16:20:50.182Z</time>
      </trkpt>
      <trkpt lat="39.077659" lon="-1.506191">
        <ele>761.515981</ele>
        <time>2021-11-03T16:20:50.182Z</time>
      </trkpt>
      <trkpt lat="39.077562" lon="-1.506187">
        <ele>761.721306</ele>
        <time>2021-11-03T16:20:50.182Z</time>
      </trkpt>
      <trkpt lat="39.077381" lon="-1.506132">
        <ele>762.114751</ele>
        <time>2021-11-03T16:20:50.182Z</time>
      </trkpt>
      <trkpt lat="39.077343" lon="-1.506115">
        <ele>762.199857</ele>
        <time>2021-11-03T16:20:50.182Z</time>
      </trkpt>
      <trkpt lat="39.077226" lon="-1.506106">
        <ele>762.447831</ele>
        <time>2021-11-03T16:20:50.182Z</time>
      </trkpt>
      <trkpt lat="39.077197" lon="-1.506117">
        <ele>762.511790</ele>
        <time>2021-11-03T16:20:50.182Z</time>
      </trkpt>
      <trkpt lat="39.077180" lon="-1.506123">
        <ele>762.549082</ele>
        <time>2021-11-03T16:20:50.182Z</time>
      </trkpt>
      <trkpt lat="39.077130" lon="-1.506154">
        <ele>762.666480</ele>
        <time>2021-11-03T16:20:50.182Z</time>
      </trkpt>
      <trkpt lat="39.076936" lon="-1.506211">
        <ele>763.087461</ele>
        <time>2021-11-03T16:20:50.182Z</time>
      </trkpt>
      <trkpt lat="39.076886" lon="-1.506167">
        <ele>763.215572</ele>
        <time>2021-11-03T16:20:50.182Z</time>
      </trkpt>
      <trkpt lat="39.076882" lon="-1.506136">
        <ele>763.267184</ele>
        <time>2021-11-03T16:20:50.182Z</time>
      </trkpt>
      <trkpt lat="39.076902" lon="-1.506024">
        <ele>763.455936</ele>
        <time>2021-11-03T16:20:50.182Z</time>
      </trkpt>
      <trkpt lat="39.076892" lon="-1.505975">
        <ele>763.539148</ele>
        <time>2021-11-03T16:20:50.182Z</time>
      </trkpt>
      <trkpt lat="39.076867" lon="-1.505939">
        <ele>763.618479</ele>
        <time>2021-11-03T16:20:50.182Z</time>
      </trkpt>
      <trkpt lat="39.076802" lon="-1.505882">
        <ele>763.784839</ele>
        <time>2021-11-03T16:20:50.182Z</time>
      </trkpt>
      <trkpt lat="39.076588" lon="-1.505642">
        <ele>764.385138</ele>
        <time>2021-11-03T16:20:50.182Z</time>
      </trkpt>
      <trkpt lat="39.076411" lon="-1.505458">
        <ele>764.860467</ele>
        <time>2021-11-03T16:20:50.182Z</time>
      </trkpt>
      <trkpt lat="39.076384" lon="-1.505427">
        <ele>764.905033</ele>
        <time>2021-11-03T16:20:50.182Z</time>
      </trkpt>
      <trkpt lat="39.076271" lon="-1.505317">
        <ele>765.079557</ele>
        <time>2021-11-03T16:20:50.182Z</time>
      </trkpt>
      <trkpt lat="39.076078" lon="-1.505090">
        <ele>765.401587</ele>
        <time>2021-11-03T16:20:50.182Z</time>
      </trkpt>
      <trkpt lat="39.076053" lon="-1.505049">
        <ele>765.451457</ele>
        <time>2021-11-03T16:20:50.182Z</time>
      </trkpt>
      <trkpt lat="39.075927" lon="-1.504837">
        <ele>765.706855</ele>
        <time>2021-11-03T16:20:50.182Z</time>
      </trkpt>
      <trkpt lat="39.075875" lon="-1.504779">
        <ele>765.791611</ele>
        <time>2021-11-03T16:20:50.182Z</time>
      </trkpt>
      <trkpt lat="39.075780" lon="-1.504522">
        <ele>766.063893</ele>
        <time>2021-11-03T16:20:50.182Z</time>
      </trkpt>
      <trkpt lat="39.075706" lon="-1.504217">
        <ele>766.369561</ele>
        <time>2021-11-03T16:20:50.182Z</time>
      </trkpt>
      <trkpt lat="39.075668" lon="-1.504063">
        <ele>766.524134</ele>
        <time>2021-11-03T16:20:50.182Z</time>
      </trkpt>
      <trkpt lat="39.075654" lon="-1.504011">
        <ele>766.576782</ele>
        <time>2021-11-03T16:20:50.182Z</time>
      </trkpt>
      <trkpt lat="39.075575" lon="-1.503768">
        <ele>766.828786</ele>
        <time>2021-11-03T16:20:50.182Z</time>
      </trkpt>
      <trkpt lat="39.075532" lon="-1.503622">
        <ele>766.978157</ele>
        <time>2021-11-03T16:20:50.182Z</time>
      </trkpt>
      <trkpt lat="39.075424" lon="-1.503059">
        <ele>768.065172</ele>
        <time>2021-11-03T16:20:50.182Z</time>
      </trkpt>
      <trkpt lat="39.075419" lon="-1.502684">
        <ele>768.835165</ele>
        <time>2021-11-03T16:20:50.182Z</time>
      </trkpt>
      <trkpt lat="39.075426" lon="-1.502577">
        <ele>769.055616</ele>
        <time>2021-11-03T16:20:50.182Z</time>
      </trkpt>
      <trkpt lat="39.075453" lon="-1.502201">
        <ele>769.830844</ele>
        <time>2021-11-03T16:20:50.182Z</time>
      </trkpt>
      <trkpt lat="39.075448" lon="-1.502165">
        <ele>769.905925</ele>
        <time>2021-11-03T16:20:50.182Z</time>
      </trkpt>
      <trkpt lat="39.075420" lon="-1.502019">
        <ele>770.214676</ele>
        <time>2021-11-03T16:20:50.182Z</time>
      </trkpt>
      <trkpt lat="39.075391" lon="-1.501976">
        <ele>770.331616</ele>
        <time>2021-11-03T16:20:50.182Z</time>
      </trkpt>
      <trkpt lat="39.075311" lon="-1.501914">
        <ele>770.578520</ele>
        <time>2021-11-03T16:20:50.182Z</time>
      </trkpt>
      <trkpt lat="39.075271" lon="-1.501883">
        <ele>770.701972</ele>
        <time>2021-11-03T16:20:50.182Z</time>
      </trkpt>
      <trkpt lat="39.075207" lon="-1.501802">
        <ele>770.939247</ele>
        <time>2021-11-03T16:20:50.182Z</time>
      </trkpt>
      <trkpt lat="39.075175" lon="-1.501757">
        <ele>771.064534</ele>
        <time>2021-11-03T16:20:50.182Z</time>
      </trkpt>
      <trkpt lat="39.075105" lon="-1.501623">
        <ele>771.396123</ele>
        <time>2021-11-03T16:20:50.182Z</time>
      </trkpt>
      <trkpt lat="39.075078" lon="-1.501566">
        <ele>771.533209</ele>
        <time>2021-11-03T16:20:50.182Z</time>
      </trkpt>
      <trkpt lat="39.075015" lon="-1.501388">
        <ele>771.922980</ele>
        <time>2021-11-03T16:20:50.182Z</time>
      </trkpt>
      <trkpt lat="39.075006" lon="-1.501355">
        <ele>771.987029</ele>
        <time>2021-11-03T16:20:50.182Z</time>
      </trkpt>
      <trkpt lat="39.074999" lon="-1.501320">
        <ele>772.053212</ele>
        <time>2021-11-03T16:20:50.182Z</time>
      </trkpt>
      <trkpt lat="39.074969" lon="-1.501041">
        <ele>772.568981</ele>
        <time>2021-11-03T16:20:50.182Z</time>
      </trkpt>
      <trkpt lat="39.074959" lon="-1.500780">
        <ele>773.047493</ele>
        <time>2021-11-03T16:20:50.182Z</time>
      </trkpt>
      <trkpt lat="39.074957" lon="-1.500702">
        <ele>773.190401</ele>
        <time>2021-11-03T16:20:50.182Z</time>
      </trkpt>
      <trkpt lat="39.074953" lon="-1.500628">
        <ele>773.326234</ele>
        <time>2021-11-03T16:20:50.182Z</time>
      </trkpt>
      <trkpt lat="39.074944" lon="-1.500547">
        <ele>773.476069</ele>
        <time>2021-11-03T16:20:50.182Z</time>
      </trkpt>
      <trkpt lat="39.074925" lon="-1.500406">
        <ele>773.738122</ele>
        <time>2021-11-03T16:20:50.182Z</time>
      </trkpt>
      <trkpt lat="39.074891" lon="-1.500213">
        <ele>774.100520</ele>
        <time>2021-11-03T16:20:50.182Z</time>
      </trkpt>
      <trkpt lat="39.074881" lon="-1.500122">
        <ele>774.268817</ele>
        <time>2021-11-03T16:20:50.182Z</time>
      </trkpt>
      <trkpt lat="39.074883" lon="-1.500031">
        <ele>774.435518</ele>
        <time>2021-11-03T16:20:50.182Z</time>
      </trkpt>
      <trkpt lat="39.074925" lon="-1.499860">
        <ele>774.763944</ele>
        <time>2021-11-03T16:20:50.182Z</time>
      </trkpt>
      <trkpt lat="39.074956" lon="-1.499776">
        <ele>774.934256</ele>
        <time>2021-11-03T16:20:50.182Z</time>
      </trkpt>
      <trkpt lat="39.074995" lon="-1.499498">
        <ele>775.451562</ele>
        <time>2021-11-03T16:20:50.182Z</time>
      </trkpt>
      <trkpt lat="39.074924" lon="-1.499149">
        <ele>776.181847</ele>
        <time>2021-11-03T16:20:50.182Z</time>
      </trkpt>
      <trkpt lat="39.074881" lon="-1.499032">
        <ele>776.789730</ele>
        <time>2021-11-03T16:20:50.182Z</time>
      </trkpt>
      <trkpt lat="39.074799" lon="-1.498876">
        <ele>777.674424</ele>
        <time>2021-11-03T16:20:50.182Z</time>
      </trkpt>
      <trkpt lat="39.074740" lon="-1.498792">
        <ele>778.206371</ele>
        <time>2021-11-03T16:20:50.182Z</time>
      </trkpt>
      <trkpt lat="39.074676" lon="-1.498728">
        <ele>778.696469</ele>
        <time>2021-11-03T16:20:50.182Z</time>
      </trkpt>
      <trkpt lat="39.074583" lon="-1.498588">
        <ele>779.561734</ele>
        <time>2021-11-03T16:20:50.182Z</time>
      </trkpt>
      <trkpt lat="39.074552" lon="-1.498554">
        <ele>779.808016</ele>
        <time>2021-11-03T16:20:50.182Z</time>
      </trkpt>
      <trkpt lat="39.074493" lon="-1.498480">
        <ele>780.306139</ele>
        <time>2021-11-03T16:20:50.182Z</time>
      </trkpt>
      <trkpt lat="39.074413" lon="-1.498405">
        <ele>780.904651</ele>
        <time>2021-11-03T16:20:50.182Z</time>
      </trkpt>
      <trkpt lat="39.074379" lon="-1.498376">
        <ele>781.151316</ele>
        <time>2021-11-03T16:20:50.182Z</time>
      </trkpt>
      <trkpt lat="39.074361" lon="-1.498365">
        <ele>781.271829</ele>
        <time>2021-11-03T16:20:50.182Z</time>
      </trkpt>
      <trkpt lat="39.074248" lon="-1.498255">
        <ele>782.128594</ele>
        <time>2021-11-03T16:20:50.182Z</time>
      </trkpt>
      <trkpt lat="39.074213" lon="-1.498193">
        <ele>782.488582</ele>
        <time>2021-11-03T16:20:50.182Z</time>
      </trkpt>
      <trkpt lat="39.074177" lon="-1.498074">
        <ele>783.088334</ele>
        <time>2021-11-03T16:20:50.182Z</time>
      </trkpt>
      <trkpt lat="39.074116" lon="-1.497913">
        <ele>783.929623</ele>
        <time>2021-11-03T16:20:50.182Z</time>
      </trkpt>
      <trkpt lat="39.074094" lon="-1.497840">
        <ele>784.297354</ele>
        <time>2021-11-03T16:20:50.182Z</time>
      </trkpt>
      <trkpt lat="39.074058" lon="-1.497718">
        <ele>784.910255</ele>
        <time>2021-11-03T16:20:50.182Z</time>
      </trkpt>
      <trkpt lat="39.074046" lon="-1.497667">
        <ele>785.160509</ele>
        <time>2021-11-03T16:20:50.182Z</time>
      </trkpt>
      <trkpt lat="39.074009" lon="-1.497495">
        <ele>785.998654</ele>
        <time>2021-11-03T16:20:50.182Z</time>
      </trkpt>
      <trkpt lat="39.074002" lon="-1.497470">
        <ele>786.123457</ele>
        <time>2021-11-03T16:20:50.182Z</time>
      </trkpt>
      <trkpt lat="39.073961" lon="-1.497325">
        <ele>786.848135</ele>
        <time>2021-11-03T16:20:50.182Z</time>
      </trkpt>
      <trkpt lat="39.073935" lon="-1.497199">
        <ele>787.597447</ele>
        <time>2021-11-03T16:20:50.182Z</time>
      </trkpt>
      <trkpt lat="39.073898" lon="-1.497075">
        <ele>788.388041</ele>
        <time>2021-11-03T16:20:50.182Z</time>
      </trkpt>
      <trkpt lat="39.073852" lon="-1.496872">
        <ele>789.646569</ele>
        <time>2021-11-03T16:20:50.182Z</time>
      </trkpt>
      <trkpt lat="39.073834" lon="-1.496690">
        <ele>790.738462</ele>
        <time>2021-11-03T16:20:50.182Z</time>
      </trkpt>
      <trkpt lat="39.073837" lon="-1.496661">
        <ele>790.912575</ele>
        <time>2021-11-03T16:20:50.182Z</time>
      </trkpt>
      <trkpt lat="39.073867" lon="-1.496507">
        <ele>791.857491</ele>
        <time>2021-11-03T16:20:50.182Z</time>
      </trkpt>
      <trkpt lat="39.073873" lon="-1.496480">
        <ele>792.024630</ele>
        <time>2021-11-03T16:20:50.182Z</time>
      </trkpt>
      <trkpt lat="39.073877" lon="-1.496453">
        <ele>792.188214</ele>
        <time>2021-11-03T16:20:50.182Z</time>
      </trkpt>
      <trkpt lat="39.073871" lon="-1.496292">
        <ele>793.147478</ele>
        <time>2021-11-03T16:20:50.182Z</time>
      </trkpt>
      <trkpt lat="39.073861" lon="-1.496267">
        <ele>793.314849</ele>
        <time>2021-11-03T16:20:50.182Z</time>
      </trkpt>
      <trkpt lat="39.073841" lon="-1.496217">
        <ele>793.649590</ele>
        <time>2021-11-03T16:20:50.182Z</time>
      </trkpt>
      <trkpt lat="39.073769" lon="-1.496076">
        <ele>794.653977</ele>
        <time>2021-11-03T16:20:50.182Z</time>
      </trkpt>
      <trkpt lat="39.073759" lon="-1.496055">
        <ele>794.800592</ele>
        <time>2021-11-03T16:20:50.182Z</time>
      </trkpt>
      <trkpt lat="39.073719" lon="-1.495964">
        <ele>795.422946</ele>
        <time>2021-11-03T16:20:50.182Z</time>
      </trkpt>
      <trkpt lat="39.073691" lon="-1.495917">
        <ele>795.775524</ele>
        <time>2021-11-03T16:20:50.182Z</time>
      </trkpt>
      <trkpt lat="39.073573" lon="-1.495800">
        <ele>796.917060</ele>
        <time>2021-11-03T16:20:50.182Z</time>
      </trkpt>
      <trkpt lat="39.073457" lon="-1.495742">
        <ele>797.870950</ele>
        <time>2021-11-03T16:20:50.182Z</time>
      </trkpt>
      <trkpt lat="39.073404" lon="-1.495711">
        <ele>798.317169</ele>
        <time>2021-11-03T16:20:50.182Z</time>
      </trkpt>
      <trkpt lat="39.073355" lon="-1.495678">
        <ele>798.741042</ele>
        <time>2021-11-03T16:20:50.182Z</time>
      </trkpt>
      <trkpt lat="39.073332" lon="-1.495639">
        <ele>799.032519</ele>
        <time>2021-11-03T16:20:50.182Z</time>
      </trkpt>
      <trkpt lat="39.073299" lon="-1.495525">
        <ele>799.756603</ele>
        <time>2021-11-03T16:20:50.182Z</time>
      </trkpt>
      <trkpt lat="39.073288" lon="-1.495450">
        <ele>800.210850</ele>
        <time>2021-11-03T16:20:50.182Z</time>
      </trkpt>
      <trkpt lat="39.073285" lon="-1.495372">
        <ele>800.675625</ele>
        <time>2021-11-03T16:20:50.182Z</time>
      </trkpt>
      <trkpt lat="39.073285" lon="-1.495266">
        <ele>800.750281</ele>
        <time>2021-11-03T16:20:50.182Z</time>
      </trkpt>
      <trkpt lat="39.073285" lon="-1.495211">
        <ele>800.758562</ele>
        <time>2021-11-03T16:20:50.182Z</time>
      </trkpt>
      <trkpt lat="39.073285" lon="-1.495129">
        <ele>800.770908</ele>
        <time>2021-11-03T16:20:50.182Z</time>
      </trkpt>
      <trkpt lat="39.073257" lon="-1.494998">
        <ele>800.791366</ele>
        <time>2021-11-03T16:20:50.182Z</time>
      </trkpt>
      <trkpt lat="39.073246" lon="-1.494974">
        <ele>800.795562</ele>
        <time>2021-11-03T16:20:50.182Z</time>
      </trkpt>
      <trkpt lat="39.073198" lon="-1.494881">
        <ele>800.812377</ele>
        <time>2021-11-03T16:20:50.182Z</time>
      </trkpt>
      <trkpt lat="39.073149" lon="-1.494813">
        <ele>800.826345</ele>
        <time>2021-11-03T16:20:50.182Z</time>
      </trkpt>
      <trkpt lat="39.073038" lon="-1.494648">
        <ele>800.859218</ele>
        <time>2021-11-03T16:20:50.182Z</time>
      </trkpt>
      <trkpt lat="39.073019" lon="-1.494611">
        <ele>800.865897</ele>
        <time>2021-11-03T16:20:50.182Z</time>
      </trkpt>
      <trkpt lat="39.072997" lon="-1.494572">
        <ele>800.873155</ele>
        <time>2021-11-03T16:20:50.182Z</time>
      </trkpt>
      <trkpt lat="39.072976" lon="-1.494529">
        <ele>800.880804</ele>
        <time>2021-11-03T16:20:50.182Z</time>
      </trkpt>
      <trkpt lat="39.072905" lon="-1.494376">
        <ele>800.907642</ele>
        <time>2021-11-03T16:20:50.182Z</time>
      </trkpt>
      <trkpt lat="39.072876" lon="-1.494321">
        <ele>800.917652</ele>
        <time>2021-11-03T16:20:50.182Z</time>
      </trkpt>
      <trkpt lat="39.072712" lon="-1.494031">
        <ele>800.971672</ele>
        <time>2021-11-03T16:20:50.182Z</time>
      </trkpt>
      <trkpt lat="39.072641" lon="-1.493903">
        <ele>800.995358</ele>
        <time>2021-11-03T16:20:50.182Z</time>
      </trkpt>
      <trkpt lat="39.072569" lon="-1.493764">
        <ele>801.020517</ele>
        <time>2021-11-03T16:20:50.182Z</time>
      </trkpt>
      <trkpt lat="39.072497" lon="-1.493612">
        <ele>801.047326</ele>
        <time>2021-11-03T16:20:50.182Z</time>
      </trkpt>
      <trkpt lat="39.072401" lon="-1.493364">
        <ele>801.021201</ele>
        <time>2021-11-03T16:20:50.182Z</time>
      </trkpt>
      <trkpt lat="39.072337" lon="-1.493199">
        <ele>800.618618</ele>
        <time>2021-11-03T16:20:50.182Z</time>
      </trkpt>
      <trkpt lat="39.072305" lon="-1.493116">
        <ele>800.416349</ele>
        <time>2021-11-03T16:20:50.182Z</time>
      </trkpt>
      <trkpt lat="39.072185" lon="-1.492854">
        <ele>799.752394</ele>
        <time>2021-11-03T16:20:50.182Z</time>
      </trkpt>
      <trkpt lat="39.072101" lon="-1.492659">
        <ele>799.265649</ele>
        <time>2021-11-03T16:20:50.182Z</time>
      </trkpt>
      <trkpt lat="39.072085" lon="-1.492626">
        <ele>799.180729</ele>
        <time>2021-11-03T16:20:50.182Z</time>
      </trkpt>
      <trkpt lat="39.072084" lon="-1.492620">
        <ele>799.167334</ele>
        <time>2021-11-03T16:20:50.182Z</time>
      </trkpt>
      <trkpt lat="39.072055" lon="-1.492526">
        <ele>798.946559</ele>
        <time>2021-11-03T16:20:50.182Z</time>
      </trkpt>
      <trkpt lat="39.072036" lon="-1.492480">
        <ele>798.832831</ele>
        <time>2021-11-03T16:20:50.182Z</time>
      </trkpt>
      <trkpt lat="39.071945" lon="-1.492270">
        <ele>798.307907</ele>
        <time>2021-11-03T16:20:50.182Z</time>
      </trkpt>
      <trkpt lat="39.071921" lon="-1.492212">
        <ele>798.164453</ele>
        <time>2021-11-03T16:20:50.182Z</time>
      </trkpt>
      <trkpt lat="39.071895" lon="-1.492153">
        <ele>798.016377</ele>
        <time>2021-11-03T16:20:50.182Z</time>
      </trkpt>
      <trkpt lat="39.071838" lon="-1.492039">
        <ele>797.720415</ele>
        <time>2021-11-03T16:20:50.182Z</time>
      </trkpt>
      <trkpt lat="39.071773" lon="-1.491925">
        <ele>797.411695</ele>
        <time>2021-11-03T16:20:50.182Z</time>
      </trkpt>
      <trkpt lat="39.071700" lon="-1.491812">
        <ele>797.090833</ele>
        <time>2021-11-03T16:20:50.182Z</time>
      </trkpt>
      <trkpt lat="39.071474" lon="-1.491355">
        <ele>795.981587</ele>
        <time>2021-11-03T16:20:50.182Z</time>
      </trkpt>
      <trkpt lat="39.071444" lon="-1.491283">
        <ele>795.912563</ele>
        <time>2021-11-03T16:20:50.182Z</time>
      </trkpt>
      <trkpt lat="39.071383" lon="-1.491135">
        <ele>795.771021</ele>
        <time>2021-11-03T16:20:50.182Z</time>
      </trkpt>
      <trkpt lat="39.071217" lon="-1.490773">
        <ele>795.415880</ele>
        <time>2021-11-03T16:20:50.182Z</time>
      </trkpt>
      <trkpt lat="39.071115" lon="-1.490562">
        <ele>795.205918</ele>
        <time>2021-11-03T16:20:50.182Z</time>
      </trkpt>
      <trkpt lat="39.070916" lon="-1.490148">
        <ele>794.794606</ele>
        <time>2021-11-03T16:20:50.182Z</time>
      </trkpt>
      <trkpt lat="39.070635" lon="-1.489564">
        <ele>794.214233</ele>
        <time>2021-11-03T16:20:50.182Z</time>
      </trkpt>
      <trkpt lat="39.070576" lon="-1.489445">
        <ele>794.094963</ele>
        <time>2021-11-03T16:20:50.182Z</time>
      </trkpt>
      <trkpt lat="39.070495" lon="-1.489193">
        <ele>794.146608</ele>
        <time>2021-11-03T16:20:50.182Z</time>
      </trkpt>
      <trkpt lat="39.070441" lon="-1.488949">
        <ele>794.225178</ele>
        <time>2021-11-03T16:20:50.182Z</time>
      </trkpt>
      <trkpt lat="39.070417" lon="-1.488830">
        <ele>794.263253</ele>
        <time>2021-11-03T16:20:50.182Z</time>
      </trkpt>
      <trkpt lat="39.070387" lon="-1.488710">
        <ele>794.302292</ele>
        <time>2021-11-03T16:20:50.182Z</time>
      </trkpt>
      <trkpt lat="39.070246" lon="-1.488375">
        <ele>794.420297</ele>
        <time>2021-11-03T16:20:50.182Z</time>
      </trkpt>
      <trkpt lat="39.070217" lon="-1.488325">
        <ele>794.439625</ele>
        <time>2021-11-03T16:20:50.182Z</time>
      </trkpt>
      <trkpt lat="39.069980" lon="-1.488012">
        <ele>794.575018</ele>
        <time>2021-11-03T16:20:50.182Z</time>
      </trkpt>
      <trkpt lat="39.069647" lon="-1.487674">
        <ele>794.744128</ele>
        <time>2021-11-03T16:20:50.182Z</time>
      </trkpt>
      <trkpt lat="39.069610" lon="-1.487642">
        <ele>794.761905</ele>
        <time>2021-11-03T16:20:50.182Z</time>
      </trkpt>
      <trkpt lat="39.069474" lon="-1.487527">
        <ele>794.900590</ele>
        <time>2021-11-03T16:20:50.182Z</time>
      </trkpt>
      <trkpt lat="39.069388" lon="-1.487437">
        <ele>795.029684</ele>
        <time>2021-11-03T16:20:50.182Z</time>
      </trkpt>
      <trkpt lat="39.069275" lon="-1.487325">
        <ele>795.195797</ele>
        <time>2021-11-03T16:20:50.182Z</time>
      </trkpt>
      <trkpt lat="39.069187" lon="-1.487244">
        <ele>795.321806</ele>
        <time>2021-11-03T16:20:50.182Z</time>
      </trkpt>
      <trkpt lat="39.068883" lon="-1.486929">
        <ele>795.776353</ele>
        <time>2021-11-03T16:20:50.182Z</time>
      </trkpt>
      <trkpt lat="39.068679" lon="-1.486692">
        <ele>796.096412</ele>
        <time>2021-11-03T16:20:50.182Z</time>
      </trkpt>
      <trkpt lat="39.068625" lon="-1.486634">
        <ele>796.178327</ele>
        <time>2021-11-03T16:20:50.182Z</time>
      </trkpt>
      <trkpt lat="39.068393" lon="-1.486340">
        <ele>796.557498</ele>
        <time>2021-11-03T16:20:50.182Z</time>
      </trkpt>
      <trkpt lat="39.068255" lon="-1.486076">
        <ele>796.845368</ele>
        <time>2021-11-03T16:20:50.182Z</time>
      </trkpt>
      <trkpt lat="39.068237" lon="-1.485886">
        <ele>796.906506</ele>
        <time>2021-11-03T16:20:50.182Z</time>
      </trkpt>
      <trkpt lat="39.068243" lon="-1.485729">
        <ele>796.930446</ele>
        <time>2021-11-03T16:20:50.182Z</time>
      </trkpt>
      <trkpt lat="39.068315" lon="-1.485068">
        <ele>797.032099</ele>
        <time>2021-11-03T16:20:50.182Z</time>
      </trkpt>
      <trkpt lat="39.068387" lon="-1.484412">
        <ele>797.132999</ele>
        <time>2021-11-03T16:20:50.182Z</time>
      </trkpt>
      <trkpt lat="39.068421" lon="-1.484094">
        <ele>797.181886</ele>
        <time>2021-11-03T16:20:50.182Z</time>
      </trkpt>
      <trkpt lat="39.068439" lon="-1.483993">
        <ele>797.197668</ele>
        <time>2021-11-03T16:20:50.182Z</time>
      </trkpt>
      <trkpt lat="39.068465" lon="-1.483891">
        <ele>797.214018</ele>
        <time>2021-11-03T16:20:50.182Z</time>
      </trkpt>
      <trkpt lat="39.068529" lon="-1.483422">
        <ele>797.733937</ele>
        <time>2021-11-03T16:20:50.182Z</time>
      </trkpt>
      <trkpt lat="39.068599" lon="-1.483010">
        <ele>798.374168</ele>
        <time>2021-11-03T16:20:50.182Z</time>
      </trkpt>
      <trkpt lat="39.068616" lon="-1.482907">
        <ele>798.534020</ele>
        <time>2021-11-03T16:20:50.182Z</time>
      </trkpt>
      <trkpt lat="39.068650" lon="-1.482648">
        <ele>798.932771</ele>
        <time>2021-11-03T16:20:50.182Z</time>
      </trkpt>
      <trkpt lat="39.068674" lon="-1.482330">
        <ele>799.417781</ele>
        <time>2021-11-03T16:20:50.182Z</time>
      </trkpt>
      <trkpt lat="39.068661" lon="-1.481979">
        <ele>799.951217</ele>
        <time>2021-11-03T16:20:50.182Z</time>
      </trkpt>
      <trkpt lat="39.068650" lon="-1.481784">
        <ele>800.248014</ele>
        <time>2021-11-03T16:20:50.182Z</time>
      </trkpt>
      <trkpt lat="39.068634" lon="-1.481539">
        <ele>800.621246</ele>
        <time>2021-11-03T16:20:50.182Z</time>
      </trkpt>
      <trkpt lat="39.068612" lon="-1.481297">
        <ele>800.994874</ele>
        <time>2021-11-03T16:20:50.182Z</time>
      </trkpt>
      <trkpt lat="39.068600" lon="-1.480906">
        <ele>801.598270</ele>
        <time>2021-11-03T16:20:50.182Z</time>
      </trkpt>
      <trkpt lat="39.068595" lon="-1.480663">
        <ele>801.973110</ele>
        <time>2021-11-03T16:20:50.182Z</time>
      </trkpt>
      <trkpt lat="39.068575" lon="-1.480360">
        <ele>802.442024</ele>
        <time>2021-11-03T16:20:50.182Z</time>
      </trkpt>
      <trkpt lat="39.068569" lon="-1.480308">
        <ele>802.523089</ele>
        <time>2021-11-03T16:20:50.182Z</time>
      </trkpt>
      <trkpt lat="39.068485" lon="-1.479754">
        <ele>803.393502</ele>
        <time>2021-11-03T16:20:50.182Z</time>
      </trkpt>
      <trkpt lat="39.068474" lon="-1.479704">
        <ele>803.473638</ele>
        <time>2021-11-03T16:20:50.182Z</time>
      </trkpt>
      <trkpt lat="39.068429" lon="-1.479346">
        <ele>804.032867</ele>
        <time>2021-11-03T16:20:50.182Z</time>
      </trkpt>
      <trkpt lat="39.068414" lon="-1.479140">
        <ele>804.350700</ele>
        <time>2021-11-03T16:20:50.182Z</time>
      </trkpt>
      <trkpt lat="39.068395" lon="-1.478880">
        <ele>804.734688</ele>
        <time>2021-11-03T16:20:50.182Z</time>
      </trkpt>
      <trkpt lat="39.068389" lon="-1.478265">
        <ele>805.639040</ele>
        <time>2021-11-03T16:20:50.182Z</time>
      </trkpt>
      <trkpt lat="39.068382" lon="-1.478113">
        <ele>805.862929</ele>
        <time>2021-11-03T16:20:50.182Z</time>
      </trkpt>
      <trkpt lat="39.068381" lon="-1.477766">
        <ele>806.373153</ele>
        <time>2021-11-03T16:20:50.182Z</time>
      </trkpt>
      <trkpt lat="39.068361" lon="-1.477308">
        <ele>807.047650</ele>
        <time>2021-11-03T16:20:50.182Z</time>
      </trkpt>
      <trkpt lat="39.068355" lon="-1.477106">
        <ele>807.344883</ele>
        <time>2021-11-03T16:20:50.182Z</time>
      </trkpt>
      <trkpt lat="39.068341" lon="-1.476758">
        <ele>807.906744</ele>
        <time>2021-11-03T16:20:50.182Z</time>
      </trkpt>
      <trkpt lat="39.068300" lon="-1.476571">
        <ele>808.305439</ele>
        <time>2021-11-03T16:20:50.182Z</time>
      </trkpt>
      <trkpt lat="39.068272" lon="-1.476438">
        <ele>808.588185</ele>
        <time>2021-11-03T16:20:50.182Z</time>
      </trkpt>
      <trkpt lat="39.068215" lon="-1.476104">
        <ele>809.289853</ele>
        <time>2021-11-03T16:20:50.182Z</time>
      </trkpt>
      <trkpt lat="39.068210" lon="-1.476061">
        <ele>809.379065</ele>
        <time>2021-11-03T16:20:50.182Z</time>
      </trkpt>
      <trkpt lat="39.068164" lon="-1.475762">
        <ele>810.004488</ele>
        <time>2021-11-03T16:20:50.182Z</time>
      </trkpt>
      <trkpt lat="39.068153" lon="-1.475721">
        <ele>810.093494</ele>
        <time>2021-11-03T16:20:50.182Z</time>
      </trkpt>
      <trkpt lat="39.068104" lon="-1.475424">
        <ele>810.716492</ele>
        <time>2021-11-03T16:20:50.182Z</time>
      </trkpt>
      <trkpt lat="39.068064" lon="-1.474944">
        <ele>811.707024</ele>
        <time>2021-11-03T16:20:50.182Z</time>
      </trkpt>
      <trkpt lat="39.068052" lon="-1.474727">
        <ele>812.153397</ele>
        <time>2021-11-03T16:20:50.182Z</time>
      </trkpt>
      <trkpt lat="39.068029" lon="-1.474463">
        <ele>812.675010</ele>
        <time>2021-11-03T16:20:50.182Z</time>
      </trkpt>
      <trkpt lat="39.067990" lon="-1.474249">
        <ele>813.076340</ele>
        <time>2021-11-03T16:20:50.182Z</time>
      </trkpt>
      <trkpt lat="39.067939" lon="-1.473991">
        <ele>813.562411</ele>
        <time>2021-11-03T16:20:50.182Z</time>
      </trkpt>
      <trkpt lat="39.067874" lon="-1.473733">
        <ele>814.057634</ele>
        <time>2021-11-03T16:20:50.182Z</time>
      </trkpt>
      <trkpt lat="39.067838" lon="-1.473559">
        <ele>814.386402</ele>
        <time>2021-11-03T16:20:50.182Z</time>
      </trkpt>
      <trkpt lat="39.067767" lon="-1.473167">
        <ele>815.121314</ele>
        <time>2021-11-03T16:20:50.182Z</time>
      </trkpt>
      <trkpt lat="39.067752" lon="-1.473079">
        <ele>815.285807</ele>
        <time>2021-11-03T16:20:50.182Z</time>
      </trkpt>
      <trkpt lat="39.067663" lon="-1.472731">
        <ele>815.954753</ele>
        <time>2021-11-03T16:20:50.182Z</time>
      </trkpt>
      <trkpt lat="39.067623" lon="-1.472610">
        <ele>816.194861</ele>
        <time>2021-11-03T16:20:50.182Z</time>
      </trkpt>
      <trkpt lat="39.067566" lon="-1.472445">
        <ele>816.524586</ele>
        <time>2021-11-03T16:20:50.182Z</time>
      </trkpt>
      <trkpt lat="39.067503" lon="-1.472207">
        <ele>816.899699</ele>
        <time>2021-11-03T16:20:50.182Z</time>
      </trkpt>
      <trkpt lat="39.067477" lon="-1.472110">
        <ele>817.028471</ele>
        <time>2021-11-03T16:20:50.182Z</time>
      </trkpt>
      <trkpt lat="39.067471" lon="-1.472091">
        <ele>817.054210</ele>
        <time>2021-11-03T16:20:50.182Z</time>
      </trkpt>
      <trkpt lat="39.067469" lon="-1.472087">
        <ele>817.060181</ele>
        <time>2021-11-03T16:20:50.182Z</time>
      </trkpt>
      <trkpt lat="39.067473" lon="-1.472077">
        <ele>817.074297</ele>
        <time>2021-11-03T16:20:50.182Z</time>
      </trkpt>
      <trkpt lat="39.067470" lon="-1.472072">
        <ele>817.082227</ele>
        <time>2021-11-03T16:20:50.182Z</time>
      </trkpt>
      <trkpt lat="39.067469" lon="-1.472073">
        <ele>817.084273</ele>
        <time>2021-11-03T16:20:50.182Z</time>
      </trkpt>
      <trkpt lat="39.067473" lon="-1.472078">
        <ele>817.093282</ele>
        <time>2021-11-03T16:20:50.182Z</time>
      </trkpt>
      <trkpt lat="39.067475" lon="-1.472084">
        <ele>817.101476</ele>
        <time>2021-11-03T16:20:50.182Z</time>
      </trkpt>
      <trkpt lat="39.067480" lon="-1.472093">
        <ele>817.115363</ele>
        <time>2021-11-03T16:20:50.182Z</time>
      </trkpt>
      <trkpt lat="39.067480" lon="-1.472093">
        <ele>817.115363</ele>
        <time>2021-11-03T16:20:50.182Z</time>
      </trkpt>
      <trkpt lat="39.067480" lon="-1.472097">
        <ele>817.120383</ele>
        <time>2021-11-03T16:20:50.182Z</time>
      </trkpt>
      <trkpt lat="39.067482" lon="-1.472094">
        <ele>817.125345</ele>
        <time>2021-11-03T16:20:50.182Z</time>
      </trkpt>
      <trkpt lat="39.067484" lon="-1.472096">
        <ele>817.129437</ele>
        <time>2021-11-03T16:20:50.182Z</time>
      </trkpt>
      <trkpt lat="39.067485" lon="-1.472100">
        <ele>817.134710</ele>
        <time>2021-11-03T16:20:50.182Z</time>
      </trkpt>
      <trkpt lat="39.067484" lon="-1.472097">
        <ele>817.138807</ele>
        <time>2021-11-03T16:20:50.182Z</time>
      </trkpt>
      <trkpt lat="39.067487" lon="-1.472100">
        <ele>817.144946</ele>
        <time>2021-11-03T16:20:50.182Z</time>
      </trkpt>
      <trkpt lat="39.067486" lon="-1.472100">
        <ele>817.146562</ele>
        <time>2021-11-03T16:20:50.182Z</time>
      </trkpt>
      <trkpt lat="39.067484" lon="-1.472103">
        <ele>817.151524</ele>
        <time>2021-11-03T16:20:50.182Z</time>
      </trkpt>
      <trkpt lat="39.067482" lon="-1.472109">
        <ele>817.159718</ele>
        <time>2021-11-03T16:20:50.182Z</time>
      </trkpt>
      <trkpt lat="39.067481" lon="-1.472109">
        <ele>817.161334</ele>
        <time>2021-11-03T16:20:50.182Z</time>
      </trkpt>
      <trkpt lat="39.067482" lon="-1.472109">
        <ele>817.162951</ele>
        <time>2021-11-03T16:20:50.182Z</time>
      </trkpt>
      <trkpt lat="39.067485" lon="-1.472110">
        <ele>817.167959</ele>
        <time>2021-11-03T16:20:50.182Z</time>
      </trkpt>
      <trkpt lat="39.067486" lon="-1.472110">
        <ele>817.169575</ele>
        <time>2021-11-03T16:20:50.182Z</time>
      </trkpt>
      <trkpt lat="39.067486" lon="-1.472111">
        <ele>817.170830</ele>
        <time>2021-11-03T16:20:50.182Z</time>
      </trkpt>
      <trkpt lat="39.067485" lon="-1.472110">
        <ele>817.172876</ele>
        <time>2021-11-03T16:20:50.182Z</time>
      </trkpt>
      <trkpt lat="39.067482" lon="-1.472110">
        <ele>817.177725</ele>
        <time>2021-11-03T16:20:50.182Z</time>
      </trkpt>
      <trkpt lat="39.067469" lon="-1.472095">
        <ele>817.205935</ele>
        <time>2021-11-03T16:20:50.182Z</time>
      </trkpt>
      <trkpt lat="39.067441" lon="-1.472054">
        <ele>817.274456</ele>
        <time>2021-11-03T16:20:50.182Z</time>
      </trkpt>
      <trkpt lat="39.067363" lon="-1.471865">
        <ele>817.543051</ele>
        <time>2021-11-03T16:20:50.182Z</time>
      </trkpt>
      <trkpt lat="39.067253" lon="-1.471624">
        <ele>817.893864</ele>
        <time>2021-11-03T16:20:50.182Z</time>
      </trkpt>
      <trkpt lat="39.067217" lon="-1.471547">
        <ele>818.006656</ele>
        <time>2021-11-03T16:20:50.182Z</time>
      </trkpt>
      <trkpt lat="39.067201" lon="-1.471508">
        <ele>818.062009</ele>
        <time>2021-11-03T16:20:50.182Z</time>
      </trkpt>
      <trkpt lat="39.067129" lon="-1.471351">
        <ele>818.290827</ele>
        <time>2021-11-03T16:20:50.182Z</time>
      </trkpt>
      <trkpt lat="39.067111" lon="-1.471313">
        <ele>818.346686</ele>
        <time>2021-11-03T16:20:50.182Z</time>
      </trkpt>
      <trkpt lat="39.067093" lon="-1.471273">
        <ele>818.404703</ele>
        <time>2021-11-03T16:20:50.182Z</time>
      </trkpt>
      <trkpt lat="39.067075" lon="-1.471233">
        <ele>818.462720</ele>
        <time>2021-11-03T16:20:50.182Z</time>
      </trkpt>
      <trkpt lat="39.067057" lon="-1.471193">
        <ele>818.520736</ele>
        <time>2021-11-03T16:20:50.182Z</time>
      </trkpt>
      <trkpt lat="39.067038" lon="-1.471153">
        <ele>818.579580</ele>
        <time>2021-11-03T16:20:50.182Z</time>
      </trkpt>
      <trkpt lat="39.067019" lon="-1.471115">
        <ele>818.636298</ele>
        <time>2021-11-03T16:20:50.182Z</time>
      </trkpt>
      <trkpt lat="39.066999" lon="-1.471077">
        <ele>818.693908</ele>
        <time>2021-11-03T16:20:50.182Z</time>
      </trkpt>
      <trkpt lat="39.066963" lon="-1.471004">
        <ele>818.802431</ele>
        <time>2021-11-03T16:20:50.182Z</time>
      </trkpt>
      <trkpt lat="39.066895" lon="-1.470851">
        <ele>819.023660</ele>
        <time>2021-11-03T16:20:50.182Z</time>
      </trkpt>
      <trkpt lat="39.066861" lon="-1.470772">
        <ele>819.137007</ele>
        <time>2021-11-03T16:20:50.182Z</time>
      </trkpt>
      <trkpt lat="39.066757" lon="-1.470541">
        <ele>819.472096</ele>
        <time>2021-11-03T16:20:50.182Z</time>
      </trkpt>
      <trkpt lat="39.066640" lon="-1.470320">
        <ele>819.808176</ele>
        <time>2021-11-03T16:20:50.182Z</time>
      </trkpt>
      <trkpt lat="39.066582" lon="-1.470209">
        <ele>819.976451</ele>
        <time>2021-11-03T16:20:50.182Z</time>
      </trkpt>
      <trkpt lat="39.066564" lon="-1.470173">
        <ele>820.030304</ele>
        <time>2021-11-03T16:20:50.182Z</time>
      </trkpt>
      <trkpt lat="39.066463" lon="-1.469993">
        <ele>820.309620</ele>
        <time>2021-11-03T16:20:50.182Z</time>
      </trkpt>
      <trkpt lat="39.066339" lon="-1.469785">
        <ele>820.639440</ele>
        <time>2021-11-03T16:20:50.182Z</time>
      </trkpt>
      <trkpt lat="39.066138" lon="-1.469540">
        <ele>821.087725</ele>
        <time>2021-11-03T16:20:50.182Z</time>
      </trkpt>
      <trkpt lat="39.066082" lon="-1.469487">
        <ele>821.200295</ele>
        <time>2021-11-03T16:20:50.182Z</time>
      </trkpt>
      <trkpt lat="39.065975" lon="-1.469377">
        <ele>821.422065</ele>
        <time>2021-11-03T16:20:50.182Z</time>
      </trkpt>
      <trkpt lat="39.065838" lon="-1.469247">
        <ele>821.697714</ele>
        <time>2021-11-03T16:20:50.182Z</time>
      </trkpt>
      <trkpt lat="39.065515" lon="-1.468936">
        <ele>822.350978</ele>
        <time>2021-11-03T16:20:50.182Z</time>
      </trkpt>
      <trkpt lat="39.065460" lon="-1.468885">
        <ele>822.460759</ele>
        <time>2021-11-03T16:20:50.182Z</time>
      </trkpt>
      <trkpt lat="39.065239" lon="-1.468669">
        <ele>822.990385</ele>
        <time>2021-11-03T16:20:50.182Z</time>
      </trkpt>
      <trkpt lat="39.065210" lon="-1.468643">
        <ele>823.059886</ele>
        <time>2021-11-03T16:20:50.182Z</time>
      </trkpt>
      <trkpt lat="39.065182" lon="-1.468616">
        <ele>823.128687</ele>
        <time>2021-11-03T16:20:50.182Z</time>
      </trkpt>
      <trkpt lat="39.065127" lon="-1.468563">
        <ele>823.263800</ele>
        <time>2021-11-03T16:20:50.182Z</time>
      </trkpt>
      <trkpt lat="39.065072" lon="-1.468512">
        <ele>823.397104</ele>
        <time>2021-11-03T16:20:50.182Z</time>
      </trkpt>
      <trkpt lat="39.064958" lon="-1.468421">
        <ele>823.660914</ele>
        <time>2021-11-03T16:20:50.182Z</time>
      </trkpt>
      <trkpt lat="39.064866" lon="-1.468360">
        <ele>823.864448</ele>
        <time>2021-11-03T16:20:50.182Z</time>
      </trkpt>
      <trkpt lat="39.064834" lon="-1.468342">
        <ele>823.933132</ele>
        <time>2021-11-03T16:20:50.182Z</time>
      </trkpt>
      <trkpt lat="39.064537" lon="-1.468227">
        <ele>824.543152</ele>
        <time>2021-11-03T16:20:50.182Z</time>
      </trkpt>
      <trkpt lat="39.064437" lon="-1.468195">
        <ele>824.745829</ele>
        <time>2021-11-03T16:20:50.182Z</time>
      </trkpt>
      <trkpt lat="39.064209" lon="-1.468145">
        <ele>825.200753</ele>
        <time>2021-11-03T16:20:50.182Z</time>
      </trkpt>
      <trkpt lat="39.064111" lon="-1.468126">
        <ele>825.395688</ele>
        <time>2021-11-03T16:20:50.182Z</time>
      </trkpt>
      <trkpt lat="39.063812" lon="-1.468092">
        <ele>825.986100</ele>
        <time>2021-11-03T16:20:50.182Z</time>
      </trkpt>
      <trkpt lat="39.063552" lon="-1.468072">
        <ele>826.548460</ele>
        <time>2021-11-03T16:20:50.182Z</time>
      </trkpt>
      <trkpt lat="39.063420" lon="-1.468054">
        <ele>826.840306</ele>
        <time>2021-11-03T16:20:50.182Z</time>
      </trkpt>
      <trkpt lat="39.063187" lon="-1.468024">
        <ele>827.355149</ele>
        <time>2021-11-03T16:20:50.182Z</time>
      </trkpt>
      <trkpt lat="39.063088" lon="-1.468010">
        <ele>827.574125</ele>
        <time>2021-11-03T16:20:50.182Z</time>
      </trkpt>
      <trkpt lat="39.063055" lon="-1.468003">
        <ele>827.647658</ele>
        <time>2021-11-03T16:20:50.182Z</time>
      </trkpt>
      <trkpt lat="39.062760" lon="-1.467964">
        <ele>828.299672</ele>
        <time>2021-11-03T16:20:50.182Z</time>
      </trkpt>
      <trkpt lat="39.062524" lon="-1.467918">
        <ele>828.824466</ele>
        <time>2021-11-03T16:20:50.182Z</time>
      </trkpt>
      <trkpt lat="39.062455" lon="-1.467909">
        <ele>828.976950</ele>
        <time>2021-11-03T16:20:50.182Z</time>
      </trkpt>
      <trkpt lat="39.062176" lon="-1.467876">
        <ele>829.592959</ele>
        <time>2021-11-03T16:20:50.182Z</time>
      </trkpt>
      <trkpt lat="39.062141" lon="-1.467873">
        <ele>829.670082</ele>
        <time>2021-11-03T16:20:50.182Z</time>
      </trkpt>
      <trkpt lat="39.061833" lon="-1.467880">
        <ele>830.389449</ele>
        <time>2021-11-03T16:20:50.182Z</time>
      </trkpt>
      <trkpt lat="39.061582" lon="-1.467990">
        <ele>831.049244</ele>
        <time>2021-11-03T16:20:50.182Z</time>
      </trkpt>
      <trkpt lat="39.061496" lon="-1.468051">
        <ele>831.293569</ele>
        <time>2021-11-03T16:20:50.182Z</time>
      </trkpt>
      <trkpt lat="39.061442" lon="-1.468098">
        <ele>831.455760</ele>
        <time>2021-11-03T16:20:50.182Z</time>
      </trkpt>
      <trkpt lat="39.061417" lon="-1.468124">
        <ele>831.535725</ele>
        <time>2021-11-03T16:20:50.182Z</time>
      </trkpt>
      <trkpt lat="39.061393" lon="-1.468148">
        <ele>831.611340</ele>
        <time>2021-11-03T16:20:50.182Z</time>
      </trkpt>
      <trkpt lat="39.061177" lon="-1.468361">
        <ele>832.288336</ele>
        <time>2021-11-03T16:20:50.182Z</time>
      </trkpt>
      <trkpt lat="39.060949" lon="-1.468545">
        <ele>832.957914</ele>
        <time>2021-11-03T16:20:50.182Z</time>
      </trkpt>
      <trkpt lat="39.060849" lon="-1.468621">
        <ele>833.246867</ele>
        <time>2021-11-03T16:20:50.182Z</time>
      </trkpt>
      <trkpt lat="39.060715" lon="-1.468709">
        <ele>833.621182</ele>
        <time>2021-11-03T16:20:50.182Z</time>
      </trkpt>
      <trkpt lat="39.060599" lon="-1.468768">
        <ele>833.931548</ele>
        <time>2021-11-03T16:20:50.182Z</time>
      </trkpt>
      <trkpt lat="39.060538" lon="-1.468791">
        <ele>834.089720</ele>
        <time>2021-11-03T16:20:50.182Z</time>
      </trkpt>
      <trkpt lat="39.060333" lon="-1.468896">
        <ele>834.625628</ele>
        <time>2021-11-03T16:20:50.182Z</time>
      </trkpt>
      <trkpt lat="39.060256" lon="-1.468945">
        <ele>834.818534</ele>
        <time>2021-11-03T16:20:50.182Z</time>
      </trkpt>
      <trkpt lat="39.060231" lon="-1.468960">
        <ele>834.880480</ele>
        <time>2021-11-03T16:20:50.182Z</time>
      </trkpt>
      <trkpt lat="39.060154" lon="-1.469006">
        <ele>835.071127</ele>
        <time>2021-11-03T16:20:50.182Z</time>
      </trkpt>
      <trkpt lat="39.060047" lon="-1.469065">
        <ele>835.332556</ele>
        <time>2021-11-03T16:20:50.182Z</time>
      </trkpt>
      <trkpt lat="39.059909" lon="-1.469132">
        <ele>835.663804</ele>
        <time>2021-11-03T16:20:50.182Z</time>
      </trkpt>
      <trkpt lat="39.059769" lon="-1.469197">
        <ele>835.998060</ele>
        <time>2021-11-03T16:20:50.182Z</time>
      </trkpt>
      <trkpt lat="39.059601" lon="-1.469271">
        <ele>836.396856</ele>
        <time>2021-11-03T16:20:50.182Z</time>
      </trkpt>
      <trkpt lat="39.059321" lon="-1.469409">
        <ele>837.070229</ele>
        <time>2021-11-03T16:20:50.182Z</time>
      </trkpt>
      <trkpt lat="39.059112" lon="-1.469552">
        <ele>837.601791</ele>
        <time>2021-11-03T16:20:50.182Z</time>
      </trkpt>
      <trkpt lat="39.059010" lon="-1.469630">
        <ele>837.868232</ele>
        <time>2021-11-03T16:20:50.182Z</time>
      </trkpt>
      <trkpt lat="39.058861" lon="-1.469757">
        <ele>838.269552</ele>
        <time>2021-11-03T16:20:50.182Z</time>
      </trkpt>
      <trkpt lat="39.058624" lon="-1.469961">
        <ele>838.890935</ele>
        <time>2021-11-03T16:20:50.182Z</time>
      </trkpt>
      <trkpt lat="39.058551" lon="-1.470017">
        <ele>839.071928</ele>
        <time>2021-11-03T16:20:50.182Z</time>
      </trkpt>
      <trkpt lat="39.058366" lon="-1.470149">
        <ele>839.522434</ele>
        <time>2021-11-03T16:20:50.182Z</time>
      </trkpt>
      <trkpt lat="39.058183" lon="-1.470206">
        <ele>839.923479</ele>
        <time>2021-11-03T16:20:50.182Z</time>
      </trkpt>
      <trkpt lat="39.058115" lon="-1.470208">
        <ele>840.068362</ele>
        <time>2021-11-03T16:20:50.182Z</time>
      </trkpt>
      <trkpt lat="39.057811" lon="-1.470155">
        <ele>840.721815</ele>
        <time>2021-11-03T16:20:50.182Z</time>
      </trkpt>
      <trkpt lat="39.057350" lon="-1.470041">
        <ele>841.721724</ele>
        <time>2021-11-03T16:20:50.182Z</time>
      </trkpt>
      <trkpt lat="39.057155" lon="-1.469920">
        <ele>842.182793</ele>
        <time>2021-11-03T16:20:50.182Z</time>
      </trkpt>
      <trkpt lat="39.057009" lon="-1.469789">
        <ele>842.672624</ele>
        <time>2021-11-03T16:20:50.182Z</time>
      </trkpt>
      <trkpt lat="39.056910" lon="-1.469704">
        <ele>843.076637</ele>
        <time>2021-11-03T16:20:50.182Z</time>
      </trkpt>
      <trkpt lat="39.056846" lon="-1.469663">
        <ele>843.319352</ele>
        <time>2021-11-03T16:20:50.182Z</time>
      </trkpt>
      <trkpt lat="39.056752" lon="-1.469626">
        <ele>843.653104</ele>
        <time>2021-11-03T16:20:50.182Z</time>
      </trkpt>
      <trkpt lat="39.056655" lon="-1.469600">
        <ele>843.989524</ele>
        <time>2021-11-03T16:20:50.182Z</time>
      </trkpt>
      <trkpt lat="39.056409" lon="-1.469505">
        <ele>844.861562</ele>
        <time>2021-11-03T16:20:50.182Z</time>
      </trkpt>
      <trkpt lat="39.056340" lon="-1.469464">
        <ele>845.119588</ele>
        <time>2021-11-03T16:20:50.182Z</time>
      </trkpt>
      <trkpt lat="39.056231" lon="-1.469389">
        <ele>845.539213</ele>
        <time>2021-11-03T16:20:50.182Z</time>
      </trkpt>
      <trkpt lat="39.056210" lon="-1.469373">
        <ele>845.622064</ele>
        <time>2021-11-03T16:20:50.182Z</time>
      </trkpt>
      <trkpt lat="39.056102" lon="-1.469293">
        <ele>846.045114</ele>
        <time>2021-11-03T16:20:50.182Z</time>
      </trkpt>
      <trkpt lat="39.056059" lon="-1.469261">
        <ele>846.213746</ele>
        <time>2021-11-03T16:20:50.182Z</time>
      </trkpt>
      <trkpt lat="39.055925" lon="-1.469171">
        <ele>846.726905</ele>
        <time>2021-11-03T16:20:50.182Z</time>
      </trkpt>
      <trkpt lat="39.055790" lon="-1.469058">
        <ele>847.273618</ele>
        <time>2021-11-03T16:20:50.182Z</time>
      </trkpt>
      <trkpt lat="39.055585" lon="-1.468888">
        <ele>848.101530</ele>
        <time>2021-11-03T16:20:50.182Z</time>
      </trkpt>
      <trkpt lat="39.055538" lon="-1.468846">
        <ele>848.295777</ele>
        <time>2021-11-03T16:20:50.182Z</time>
      </trkpt>
      <trkpt lat="39.055423" lon="-1.468726">
        <ele>848.710939</ele>
        <time>2021-11-03T16:20:50.182Z</time>
      </trkpt>
      <trkpt lat="39.055228" lon="-1.468475">
        <ele>849.387935</ele>
        <time>2021-11-03T16:20:50.182Z</time>
      </trkpt>
      <trkpt lat="39.055035" lon="-1.468297">
        <ele>849.970845</ele>
        <time>2021-11-03T16:20:50.182Z</time>
      </trkpt>
      <trkpt lat="39.055009" lon="-1.468279">
        <ele>850.043328</ele>
        <time>2021-11-03T16:20:50.182Z</time>
      </trkpt>
      <trkpt lat="39.054885" lon="-1.468186">
        <ele>850.395683</ele>
        <time>2021-11-03T16:20:50.182Z</time>
      </trkpt>
      <trkpt lat="39.054737" lon="-1.468080">
        <ele>850.811519</ele>
        <time>2021-11-03T16:20:50.182Z</time>
      </trkpt>
      <trkpt lat="39.054713" lon="-1.468061">
        <ele>850.880695</ele>
        <time>2021-11-03T16:20:50.182Z</time>
      </trkpt>
      <trkpt lat="39.054493" lon="-1.467895">
        <ele>851.506803</ele>
        <time>2021-11-03T16:20:50.182Z</time>
      </trkpt>
      <trkpt lat="39.054467" lon="-1.467879">
        <ele>851.577561</ele>
        <time>2021-11-03T16:20:50.182Z</time>
      </trkpt>
      <trkpt lat="39.054297" lon="-1.467767">
        <ele>852.046450</ele>
        <time>2021-11-03T16:20:50.182Z</time>
      </trkpt>
      <trkpt lat="39.054106" lon="-1.467672">
        <ele>852.549213</ele>
        <time>2021-11-03T16:20:50.182Z</time>
      </trkpt>
      <trkpt lat="39.054081" lon="-1.467662">
        <ele>852.613493</ele>
        <time>2021-11-03T16:20:50.182Z</time>
      </trkpt>
      <trkpt lat="39.054003" lon="-1.467642">
        <ele>852.808780</ele>
        <time>2021-11-03T16:20:50.182Z</time>
      </trkpt>
      <trkpt lat="39.053885" lon="-1.467589">
        <ele>853.205552</ele>
        <time>2021-11-03T16:20:50.182Z</time>
      </trkpt>
      <trkpt lat="39.053862" lon="-1.467576">
        <ele>853.292837</ele>
        <time>2021-11-03T16:20:50.182Z</time>
      </trkpt>
      <trkpt lat="39.053763" lon="-1.467476">
        <ele>853.730070</ele>
        <time>2021-11-03T16:20:50.182Z</time>
      </trkpt>
      <trkpt lat="39.053618" lon="-1.467343">
        <ele>854.348699</ele>
        <time>2021-11-03T16:20:50.182Z</time>
      </trkpt>
      <trkpt lat="39.053555" lon="-1.467289">
        <ele>854.611686</ele>
        <time>2021-11-03T16:20:50.182Z</time>
      </trkpt>
      <trkpt lat="39.053465" lon="-1.467237">
        <ele>854.954473</ele>
        <time>2021-11-03T16:20:50.182Z</time>
      </trkpt>
      <trkpt lat="39.053394" lon="-1.467198">
        <ele>855.222707</ele>
        <time>2021-11-03T16:20:50.182Z</time>
      </trkpt>
      <trkpt lat="39.053271" lon="-1.467142">
        <ele>855.676059</ele>
        <time>2021-11-03T16:20:50.182Z</time>
      </trkpt>
      <trkpt lat="39.053196" lon="-1.467109">
        <ele>855.951477</ele>
        <time>2021-11-03T16:20:50.182Z</time>
      </trkpt>
      <trkpt lat="39.053009" lon="-1.467017">
        <ele>856.647112</ele>
        <time>2021-11-03T16:20:50.182Z</time>
      </trkpt>
      <trkpt lat="39.052955" lon="-1.466988">
        <ele>856.850426</ele>
        <time>2021-11-03T16:20:50.182Z</time>
      </trkpt>
      <trkpt lat="39.052780" lon="-1.466861">
        <ele>857.548473</ele>
        <time>2021-11-03T16:20:50.182Z</time>
      </trkpt>
      <trkpt lat="39.052677" lon="-1.466743">
        <ele>858.027543</ele>
        <time>2021-11-03T16:20:50.182Z</time>
      </trkpt>
      <trkpt lat="39.052632" lon="-1.466691">
        <ele>858.237648</ele>
        <time>2021-11-03T16:20:50.182Z</time>
      </trkpt>
      <trkpt lat="39.052543" lon="-1.466587">
        <ele>858.655279</ele>
        <time>2021-11-03T16:20:50.182Z</time>
      </trkpt>
      <trkpt lat="39.052418" lon="-1.466429">
        <ele>859.217499</ele>
        <time>2021-11-03T16:20:50.182Z</time>
      </trkpt>
      <trkpt lat="39.052339" lon="-1.466312">
        <ele>859.466261</ele>
        <time>2021-11-03T16:20:50.182Z</time>
      </trkpt>
      <trkpt lat="39.052267" lon="-1.466183">
        <ele>859.721154</ele>
        <time>2021-11-03T16:20:50.182Z</time>
      </trkpt>
      <trkpt lat="39.052158" lon="-1.465932">
        <ele>860.182573</ele>
        <time>2021-11-03T16:20:50.182Z</time>
      </trkpt>
      <trkpt lat="39.052077" lon="-1.465544">
        <ele>860.827220</ele>
        <time>2021-11-03T16:20:50.182Z</time>
      </trkpt>
      <trkpt lat="39.052050" lon="-1.465249">
        <ele>861.303823</ele>
        <time>2021-11-03T16:20:50.182Z</time>
      </trkpt>
      <trkpt lat="39.051993" lon="-1.465047">
        <ele>861.648664</ele>
        <time>2021-11-03T16:20:50.182Z</time>
      </trkpt>
      <trkpt lat="39.051973" lon="-1.465011">
        <ele>861.719686</ele>
        <time>2021-11-03T16:20:50.182Z</time>
      </trkpt>
      <trkpt lat="39.051808" lon="-1.464801">
        <ele>862.199010</ele>
        <time>2021-11-03T16:20:50.182Z</time>
      </trkpt>
      <trkpt lat="39.051616" lon="-1.464509">
        <ele>862.812910</ele>
        <time>2021-11-03T16:20:50.182Z</time>
      </trkpt>
      <trkpt lat="39.051557" lon="-1.464304">
        <ele>863.501589</ele>
        <time>2021-11-03T16:20:50.182Z</time>
      </trkpt>
      <trkpt lat="39.051547" lon="-1.464237">
        <ele>863.735142</ele>
        <time>2021-11-03T16:20:50.182Z</time>
      </trkpt>
      <trkpt lat="39.051520" lon="-1.464110">
        <ele>864.185888</ele>
        <time>2021-11-03T16:20:50.182Z</time>
      </trkpt>
      <trkpt lat="39.051484" lon="-1.463954">
        <ele>864.742989</ele>
        <time>2021-11-03T16:20:50.182Z</time>
      </trkpt>
      <trkpt lat="39.051452" lon="-1.463805">
        <ele>865.272194</ele>
        <time>2021-11-03T16:20:50.182Z</time>
      </trkpt>
      <trkpt lat="39.051397" lon="-1.463594">
        <ele>866.034097</ele>
        <time>2021-11-03T16:20:50.182Z</time>
      </trkpt>
      <trkpt lat="39.051344" lon="-1.463489">
        <ele>866.462790</ele>
        <time>2021-11-03T16:20:50.182Z</time>
      </trkpt>
      <trkpt lat="39.051285" lon="-1.463389">
        <ele>866.892702</ele>
        <time>2021-11-03T16:20:50.182Z</time>
      </trkpt>
      <trkpt lat="39.051240" lon="-1.463321">
        <ele>867.198536</ele>
        <time>2021-11-03T16:20:50.182Z</time>
      </trkpt>
      <trkpt lat="39.051183" lon="-1.463225">
        <ele>867.612214</ele>
        <time>2021-11-03T16:20:50.182Z</time>
      </trkpt>
      <trkpt lat="39.051064" lon="-1.463066">
        <ele>868.368137</ele>
        <time>2021-11-03T16:20:50.182Z</time>
      </trkpt>
      <trkpt lat="39.051024" lon="-1.463026">
        <ele>868.591384</ele>
        <time>2021-11-03T16:20:50.182Z</time>
      </trkpt>
      <trkpt lat="39.050813" lon="-1.462871">
        <ele>869.662193</ele>
        <time>2021-11-03T16:20:50.182Z</time>
      </trkpt>
      <trkpt lat="39.050760" lon="-1.462841">
        <ele>869.917396</ele>
        <time>2021-11-03T16:20:50.182Z</time>
      </trkpt>
      <trkpt lat="39.050524" lon="-1.462708">
        <ele>870.955361</ele>
        <time>2021-11-03T16:20:50.182Z</time>
      </trkpt>
      <trkpt lat="39.050252" lon="-1.462566">
        <ele>871.761244</ele>
        <time>2021-11-03T16:20:50.182Z</time>
      </trkpt>
      <trkpt lat="39.050028" lon="-1.462458">
        <ele>872.417988</ele>
        <time>2021-11-03T16:20:50.182Z</time>
      </trkpt>
      <trkpt lat="39.049831" lon="-1.462367">
        <ele>872.992648</ele>
        <time>2021-11-03T16:20:50.182Z</time>
      </trkpt>
      <trkpt lat="39.049719" lon="-1.462317">
        <ele>873.318127</ele>
        <time>2021-11-03T16:20:50.182Z</time>
      </trkpt>
      <trkpt lat="39.049527" lon="-1.462242">
        <ele>873.869030</ele>
        <time>2021-11-03T16:20:50.182Z</time>
      </trkpt>
      <trkpt lat="39.049500" lon="-1.462231">
        <ele>873.946787</ele>
        <time>2021-11-03T16:20:50.182Z</time>
      </trkpt>
      <trkpt lat="39.049301" lon="-1.462172">
        <ele>874.507484</ele>
        <time>2021-11-03T16:20:50.182Z</time>
      </trkpt>
      <trkpt lat="39.049271" lon="-1.462166">
        <ele>874.590843</ele>
        <time>2021-11-03T16:20:50.182Z</time>
      </trkpt>
      <trkpt lat="39.049041" lon="-1.462104">
        <ele>875.236051</ele>
        <time>2021-11-03T16:20:50.182Z</time>
      </trkpt>
      <trkpt lat="39.049014" lon="-1.462093">
        <ele>875.313807</ele>
        <time>2021-11-03T16:20:50.182Z</time>
      </trkpt>
      <trkpt lat="39.048825" lon="-1.462022">
        <ele>875.874851</ele>
        <time>2021-11-03T16:20:50.182Z</time>
      </trkpt>
      <trkpt lat="39.048797" lon="-1.462010">
        <ele>875.969510</ele>
        <time>2021-11-03T16:20:50.182Z</time>
      </trkpt>
      <trkpt lat="39.048568" lon="-1.461855">
        <ele>876.799369</ele>
        <time>2021-11-03T16:20:50.182Z</time>
      </trkpt>
      <trkpt lat="39.048323" lon="-1.461652">
        <ele>877.733894</ele>
        <time>2021-11-03T16:20:50.182Z</time>
      </trkpt>
      <trkpt lat="39.048162" lon="-1.461578">
        <ele>878.282244</ele>
        <time>2021-11-03T16:20:50.182Z</time>
      </trkpt>
      <trkpt lat="39.048096" lon="-1.461577">
        <ele>878.493965</ele>
        <time>2021-11-03T16:20:50.182Z</time>
      </trkpt>
      <trkpt lat="39.047930" lon="-1.461565">
        <ele>879.027277</ele>
        <time>2021-11-03T16:20:50.182Z</time>
      </trkpt>
      <trkpt lat="39.047872" lon="-1.461558">
        <ele>879.214138</ele>
        <time>2021-11-03T16:20:50.182Z</time>
      </trkpt>
      <trkpt lat="39.047683" lon="-1.461533">
        <ele>879.823578</ele>
        <time>2021-11-03T16:20:50.182Z</time>
      </trkpt>
      <trkpt lat="39.047449" lon="-1.461440">
        <ele>880.609115</ele>
        <time>2021-11-03T16:20:50.182Z</time>
      </trkpt>
      <trkpt lat="39.047386" lon="-1.461391">
        <ele>880.845204</ele>
        <time>2021-11-03T16:20:50.182Z</time>
      </trkpt>
      <trkpt lat="39.047360" lon="-1.461355">
        <ele>880.967671</ele>
        <time>2021-11-03T16:20:50.182Z</time>
      </trkpt>
      <trkpt lat="39.047348" lon="-1.461333">
        <ele>881.034643</ele>
        <time>2021-11-03T16:20:50.182Z</time>
      </trkpt>
      <trkpt lat="39.047312" lon="-1.461266">
        <ele>881.237604</ele>
        <time>2021-11-03T16:20:50.182Z</time>
      </trkpt>
      <trkpt lat="39.047291" lon="-1.461221">
        <ele>881.368388</ele>
        <time>2021-11-03T16:20:50.182Z</time>
      </trkpt>
      <trkpt lat="39.047269" lon="-1.461176">
        <ele>881.500853</ele>
        <time>2021-11-03T16:20:50.182Z</time>
      </trkpt>
      <trkpt lat="39.047246" lon="-1.461128">
        <ele>881.684588</ele>
        <time>2021-11-03T16:20:50.182Z</time>
      </trkpt>
      <trkpt lat="39.047162" lon="-1.460988">
        <ele>882.262215</ele>
        <time>2021-11-03T16:20:50.182Z</time>
      </trkpt>
      <trkpt lat="39.047125" lon="-1.460946">
        <ele>882.469582</ele>
        <time>2021-11-03T16:20:50.182Z</time>
      </trkpt>
      <trkpt lat="39.047038" lon="-1.460876">
        <ele>882.900874</ele>
        <time>2021-11-03T16:20:50.182Z</time>
      </trkpt>
      <trkpt lat="39.046965" lon="-1.460834">
        <ele>883.237016</ele>
        <time>2021-11-03T16:20:50.182Z</time>
      </trkpt>
      <trkpt lat="39.046914" lon="-1.460815">
        <ele>883.460219</ele>
        <time>2021-11-03T16:20:50.182Z</time>
      </trkpt>
      <trkpt lat="39.046863" lon="-1.460795">
        <ele>883.684351</ele>
        <time>2021-11-03T16:20:50.182Z</time>
      </trkpt>
      <trkpt lat="39.046812" lon="-1.460779">
        <ele>883.905032</ele>
        <time>2021-11-03T16:20:50.182Z</time>
      </trkpt>
      <trkpt lat="39.046762" lon="-1.460759">
        <ele>884.125146</ele>
        <time>2021-11-03T16:20:50.182Z</time>
      </trkpt>
      <trkpt lat="39.046589" lon="-1.460680">
        <ele>884.896838</ele>
        <time>2021-11-03T16:20:50.182Z</time>
      </trkpt>
      <trkpt lat="39.046465" lon="-1.460637">
        <ele>885.436720</ele>
        <time>2021-11-03T16:20:50.182Z</time>
      </trkpt>
      <trkpt lat="39.046389" lon="-1.460613">
        <ele>885.765700</ele>
        <time>2021-11-03T16:20:50.182Z</time>
      </trkpt>
      <trkpt lat="39.046225" lon="-1.460585">
        <ele>886.461206</ele>
        <time>2021-11-03T16:20:50.182Z</time>
      </trkpt>
      <trkpt lat="39.046174" lon="-1.460584">
        <ele>886.675639</ele>
        <time>2021-11-03T16:20:50.182Z</time>
      </trkpt>
      <trkpt lat="39.046014" lon="-1.460577">
        <ele>887.348682</ele>
        <time>2021-11-03T16:20:50.182Z</time>
      </trkpt>
      <trkpt lat="39.045961" lon="-1.460577">
        <ele>887.571499</ele>
        <time>2021-11-03T16:20:50.182Z</time>
      </trkpt>
      <trkpt lat="39.045842" lon="-1.460573">
        <ele>888.071956</ele>
        <time>2021-11-03T16:20:50.182Z</time>
      </trkpt>
      <trkpt lat="39.045817" lon="-1.460568">
        <ele>888.178319</ele>
        <time>2021-11-03T16:20:50.182Z</time>
      </trkpt>
      <trkpt lat="39.045665" lon="-1.460558">
        <ele>888.818174</ele>
        <time>2021-11-03T16:20:50.182Z</time>
      </trkpt>
      <trkpt lat="39.045641" lon="-1.460558">
        <ele>888.919072</ele>
        <time>2021-11-03T16:20:50.182Z</time>
      </trkpt>
      <trkpt lat="39.045541" lon="-1.460550">
        <ele>889.431963</ele>
        <time>2021-11-03T16:20:50.182Z</time>
      </trkpt>
      <trkpt lat="39.045466" lon="-1.460545">
        <ele>889.852390</ele>
        <time>2021-11-03T16:20:50.182Z</time>
      </trkpt>
      <trkpt lat="39.045342" lon="-1.460522">
        <ele>890.553732</ele>
        <time>2021-11-03T16:20:50.182Z</time>
      </trkpt>
      <trkpt lat="39.045320" lon="-1.460521">
        <ele>890.676969</ele>
        <time>2021-11-03T16:20:50.182Z</time>
      </trkpt>
      <trkpt lat="39.045155" lon="-1.460501">
        <ele>891.604755</ele>
        <time>2021-11-03T16:20:50.182Z</time>
      </trkpt>
      <trkpt lat="39.045108" lon="-1.460494">
        <ele>891.869625</ele>
        <time>2021-11-03T16:20:50.182Z</time>
      </trkpt>
      <trkpt lat="39.045086" lon="-1.460491">
        <ele>891.993474</ele>
        <time>2021-11-03T16:20:50.182Z</time>
      </trkpt>
      <trkpt lat="39.045063" lon="-1.460488">
        <ele>892.122891</ele>
        <time>2021-11-03T16:20:50.182Z</time>
      </trkpt>
      <trkpt lat="39.045042" lon="-1.460485">
        <ele>892.241175</ele>
        <time>2021-11-03T16:20:50.182Z</time>
      </trkpt>
      <trkpt lat="39.044955" lon="-1.460463">
        <ele>892.737521</ele>
        <time>2021-11-03T16:20:50.182Z</time>
      </trkpt>
      <trkpt lat="39.044934" lon="-1.460461">
        <ele>892.855405</ele>
        <time>2021-11-03T16:20:50.182Z</time>
      </trkpt>
      <trkpt lat="39.044871" lon="-1.460449">
        <ele>893.211929</ele>
        <time>2021-11-03T16:20:50.182Z</time>
      </trkpt>
      <trkpt lat="39.044808" lon="-1.460433">
        <ele>893.571411</ele>
        <time>2021-11-03T16:20:50.182Z</time>
      </trkpt>
      <trkpt lat="39.044746" lon="-1.460419">
        <ele>893.923796</ele>
        <time>2021-11-03T16:20:50.182Z</time>
      </trkpt>
      <trkpt lat="39.044608" lon="-1.460361">
        <ele>894.736463</ele>
        <time>2021-11-03T16:20:50.182Z</time>
      </trkpt>
      <trkpt lat="39.044568" lon="-1.460342">
        <ele>894.975142</ele>
        <time>2021-11-03T16:20:50.182Z</time>
      </trkpt>
      <trkpt lat="39.044512" lon="-1.460314">
        <ele>895.311449</ele>
        <time>2021-11-03T16:20:50.182Z</time>
      </trkpt>
      <trkpt lat="39.044410" lon="-1.460262">
        <ele>895.925595</ele>
        <time>2021-11-03T16:20:50.182Z</time>
      </trkpt>
      <trkpt lat="39.044344" lon="-1.460235">
        <ele>896.313277</ele>
        <time>2021-11-03T16:20:50.182Z</time>
      </trkpt>
      <trkpt lat="39.044231" lon="-1.460172">
        <ele>897.002630</ele>
        <time>2021-11-03T16:20:50.182Z</time>
      </trkpt>
      <trkpt lat="39.043955" lon="-1.460042">
        <ele>898.647872</ele>
        <time>2021-11-03T16:20:50.182Z</time>
      </trkpt>
      <trkpt lat="39.043929" lon="-1.460030">
        <ele>898.802494</ele>
        <time>2021-11-03T16:20:50.182Z</time>
      </trkpt>
      <trkpt lat="39.043707" lon="-1.459925">
        <ele>899.770873</ele>
        <time>2021-11-03T16:20:50.182Z</time>
      </trkpt>
      <trkpt lat="39.043456" lon="-1.459799">
        <ele>900.739194</ele>
        <time>2021-11-03T16:20:50.182Z</time>
      </trkpt>
      <trkpt lat="39.043408" lon="-1.459772">
        <ele>900.927468</ele>
        <time>2021-11-03T16:20:50.182Z</time>
      </trkpt>
      <trkpt lat="39.043331" lon="-1.459735">
        <ele>901.222877</ele>
        <time>2021-11-03T16:20:50.182Z</time>
      </trkpt>
      <trkpt lat="39.043305" lon="-1.459728">
        <ele>901.318351</ele>
        <time>2021-11-03T16:20:50.182Z</time>
      </trkpt>
      <trkpt lat="39.043068" lon="-1.459686">
        <ele>902.178238</ele>
        <time>2021-11-03T16:20:50.182Z</time>
      </trkpt>
      <trkpt lat="39.043041" lon="-1.459683">
        <ele>902.275646</ele>
        <time>2021-11-03T16:20:50.182Z</time>
      </trkpt>
      <trkpt lat="39.042853" lon="-1.459675">
        <ele>902.951749</ele>
        <time>2021-11-03T16:20:50.182Z</time>
      </trkpt>
      <trkpt lat="39.042795" lon="-1.459674">
        <ele>903.160239</ele>
        <time>2021-11-03T16:20:50.182Z</time>
      </trkpt>
      <trkpt lat="39.042621" lon="-1.459649">
        <ele>903.789534</ele>
        <time>2021-11-03T16:20:50.182Z</time>
      </trkpt>
      <trkpt lat="39.042430" lon="-1.459556">
        <ele>904.523503</ele>
        <time>2021-11-03T16:20:50.182Z</time>
      </trkpt>
      <trkpt lat="39.042387" lon="-1.459531">
        <ele>904.693086</ele>
        <time>2021-11-03T16:20:50.182Z</time>
      </trkpt>
      <trkpt lat="39.042285" lon="-1.459445">
        <ele>905.131322</ele>
        <time>2021-11-03T16:20:50.182Z</time>
      </trkpt>
      <trkpt lat="39.042269" lon="-1.459421">
        <ele>905.219618</ele>
        <time>2021-11-03T16:20:50.182Z</time>
      </trkpt>
      <trkpt lat="39.042255" lon="-1.459397">
        <ele>905.303410</ele>
        <time>2021-11-03T16:20:50.182Z</time>
      </trkpt>
      <trkpt lat="39.042150" lon="-1.459261">
        <ele>905.923462</ele>
        <time>2021-11-03T16:20:50.182Z</time>
      </trkpt>
      <trkpt lat="39.042129" lon="-1.459244">
        <ele>906.043988</ele>
        <time>2021-11-03T16:20:50.182Z</time>
      </trkpt>
      <trkpt lat="39.042041" lon="-1.459188">
        <ele>906.520936</ele>
        <time>2021-11-03T16:20:50.182Z</time>
      </trkpt>
      <trkpt lat="39.041992" lon="-1.459160">
        <ele>906.781411</ele>
        <time>2021-11-03T16:20:50.182Z</time>
      </trkpt>
      <trkpt lat="39.041774" lon="-1.459063">
        <ele>907.902096</ele>
        <time>2021-11-03T16:20:50.182Z</time>
      </trkpt>
      <trkpt lat="39.041552" lon="-1.458983">
        <ele>909.022199</ele>
        <time>2021-11-03T16:20:50.182Z</time>
      </trkpt>
      <trkpt lat="39.041510" lon="-1.458947">
        <ele>909.267354</ele>
        <time>2021-11-03T16:20:50.182Z</time>
      </trkpt>
      <trkpt lat="39.041441" lon="-1.458880">
        <ele>909.687266</ele>
        <time>2021-11-03T16:20:50.182Z</time>
      </trkpt>
      <trkpt lat="39.041390" lon="-1.458828">
        <ele>910.003356</ele>
        <time>2021-11-03T16:20:50.182Z</time>
      </trkpt>
      <trkpt lat="39.041333" lon="-1.458790">
        <ele>910.315231</ele>
        <time>2021-11-03T16:20:50.182Z</time>
      </trkpt>
      <trkpt lat="39.041271" lon="-1.458759">
        <ele>910.638394</ele>
        <time>2021-11-03T16:20:50.182Z</time>
      </trkpt>
      <trkpt lat="39.041147" lon="-1.458715">
        <ele>911.263346</ele>
        <time>2021-11-03T16:20:50.182Z</time>
      </trkpt>
      <trkpt lat="39.040920" lon="-1.458611">
        <ele>912.434040</ele>
        <time>2021-11-03T16:20:50.182Z</time>
      </trkpt>
      <trkpt lat="39.040827" lon="-1.458530">
        <ele>912.979588</ele>
        <time>2021-11-03T16:20:50.182Z</time>
      </trkpt>
      <trkpt lat="39.040811" lon="-1.458517">
        <ele>913.071515</ele>
        <time>2021-11-03T16:20:50.182Z</time>
      </trkpt>
      <trkpt lat="39.040748" lon="-1.458447">
        <ele>913.475845</ele>
        <time>2021-11-03T16:20:50.182Z</time>
      </trkpt>
      <trkpt lat="39.040734" lon="-1.458434">
        <ele>913.559714</ele>
        <time>2021-11-03T16:20:50.182Z</time>
      </trkpt>
      <trkpt lat="39.040656" lon="-1.458358">
        <ele>914.034993</ele>
        <time>2021-11-03T16:20:50.182Z</time>
      </trkpt>
      <trkpt lat="39.040553" lon="-1.458250">
        <ele>914.740461</ele>
        <time>2021-11-03T16:20:50.182Z</time>
      </trkpt>
      <trkpt lat="39.040539" lon="-1.458233">
        <ele>914.850321</ele>
        <time>2021-11-03T16:20:50.182Z</time>
      </trkpt>
      <trkpt lat="39.040472" lon="-1.458151">
        <ele>915.378038</ele>
        <time>2021-11-03T16:20:50.182Z</time>
      </trkpt>
      <trkpt lat="39.040442" lon="-1.458118">
        <ele>915.603293</ele>
        <time>2021-11-03T16:20:50.182Z</time>
      </trkpt>
      <trkpt lat="39.040383" lon="-1.458049">
        <ele>916.058313</ele>
        <time>2021-11-03T16:20:50.182Z</time>
      </trkpt>
      <trkpt lat="39.040325" lon="-1.457975">
        <ele>916.524454</ele>
        <time>2021-11-03T16:20:50.182Z</time>
      </trkpt>
      <trkpt lat="39.040282" lon="-1.457916">
        <ele>916.883193</ele>
        <time>2021-11-03T16:20:50.182Z</time>
      </trkpt>
      <trkpt lat="39.040204" lon="-1.457829">
        <ele>917.472327</ele>
        <time>2021-11-03T16:20:50.182Z</time>
      </trkpt>
      <trkpt lat="39.040188" lon="-1.457814">
        <ele>917.585315</ele>
        <time>2021-11-03T16:20:50.182Z</time>
      </trkpt>
      <trkpt lat="39.040171" lon="-1.457798">
        <ele>917.705528</ele>
        <time>2021-11-03T16:20:50.182Z</time>
      </trkpt>
      <trkpt lat="39.040153" lon="-1.457784">
        <ele>917.825579</ele>
        <time>2021-11-03T16:20:50.182Z</time>
      </trkpt>
      <trkpt lat="39.040097" lon="-1.457742">
        <ele>918.195552</ele>
        <time>2021-11-03T16:20:50.182Z</time>
      </trkpt>
      <trkpt lat="39.040078" lon="-1.457729">
        <ele>918.318382</ele>
        <time>2021-11-03T16:20:50.182Z</time>
      </trkpt>
      <trkpt lat="39.039999" lon="-1.457648">
        <ele>918.894905</ele>
        <time>2021-11-03T16:20:50.182Z</time>
      </trkpt>
      <trkpt lat="39.039977" lon="-1.457608">
        <ele>919.112228</ele>
        <time>2021-11-03T16:20:50.182Z</time>
      </trkpt>
      <trkpt lat="39.039952" lon="-1.457539">
        <ele>919.449822</ele>
        <time>2021-11-03T16:20:50.182Z</time>
      </trkpt>
      <trkpt lat="39.039920" lon="-1.457475">
        <ele>919.787312</ele>
        <time>2021-11-03T16:20:50.182Z</time>
      </trkpt>
      <trkpt lat="39.039906" lon="-1.457459">
        <ele>919.894179</ele>
        <time>2021-11-03T16:20:50.182Z</time>
      </trkpt>
      <trkpt lat="39.039867" lon="-1.457407">
        <ele>920.214693</ele>
        <time>2021-11-03T16:20:50.182Z</time>
      </trkpt>
      <trkpt lat="39.039831" lon="-1.457382">
        <ele>920.448194</ele>
        <time>2021-11-03T16:20:50.182Z</time>
      </trkpt>
      <trkpt lat="39.039776" lon="-1.457352">
        <ele>920.789188</ele>
        <time>2021-11-03T16:20:50.182Z</time>
      </trkpt>
      <trkpt lat="39.039683" lon="-1.457290">
        <ele>921.387048</ele>
        <time>2021-11-03T16:20:50.182Z</time>
      </trkpt>
      <trkpt lat="39.039664" lon="-1.457277">
        <ele>921.509878</ele>
        <time>2021-11-03T16:20:50.182Z</time>
      </trkpt>
      <trkpt lat="39.039539" lon="-1.457185">
        <ele>922.331833</ele>
        <time>2021-11-03T16:20:50.182Z</time>
      </trkpt>
      <trkpt lat="39.039519" lon="-1.457170">
        <ele>922.463967</ele>
        <time>2021-11-03T16:20:50.182Z</time>
      </trkpt>
      <trkpt lat="39.039429" lon="-1.457113">
        <ele>923.036547</ele>
        <time>2021-11-03T16:20:50.182Z</time>
      </trkpt>
      <trkpt lat="39.039384" lon="-1.457084">
        <ele>923.323823</ele>
        <time>2021-11-03T16:20:50.182Z</time>
      </trkpt>
      <trkpt lat="39.039320" lon="-1.457030">
        <ele>923.760647</ele>
        <time>2021-11-03T16:20:50.182Z</time>
      </trkpt>
      <trkpt lat="39.039177" lon="-1.456889">
        <ele>924.721929</ele>
        <time>2021-11-03T16:20:50.182Z</time>
      </trkpt>
      <trkpt lat="39.039069" lon="-1.456651">
        <ele>925.498999</ele>
        <time>2021-11-03T16:20:50.182Z</time>
      </trkpt>
      <trkpt lat="39.039033" lon="-1.456560">
        <ele>925.786900</ele>
        <time>2021-11-03T16:20:50.182Z</time>
      </trkpt>
      <trkpt lat="39.038971" lon="-1.456491">
        <ele>926.084353</ele>
        <time>2021-11-03T16:20:50.182Z</time>
      </trkpt>
      <trkpt lat="39.038939" lon="-1.456481">
        <ele>926.203871</ele>
        <time>2021-11-03T16:20:50.182Z</time>
      </trkpt>
      <trkpt lat="39.038830" lon="-1.456482">
        <ele>926.599503</ele>
        <time>2021-11-03T16:20:50.182Z</time>
      </trkpt>
      <trkpt lat="39.038537" lon="-1.456532">
        <ele>927.672265</ele>
        <time>2021-11-03T16:20:50.182Z</time>
      </trkpt>
      <trkpt lat="39.038425" lon="-1.456610">
        <ele>928.134439</ele>
        <time>2021-11-03T16:20:50.182Z</time>
      </trkpt>
      <trkpt lat="39.038289" lon="-1.456714">
        <ele>928.708567</ele>
        <time>2021-11-03T16:20:50.182Z</time>
      </trkpt>
      <trkpt lat="39.038262" lon="-1.456738">
        <ele>928.827653</ele>
        <time>2021-11-03T16:20:50.182Z</time>
      </trkpt>
      <trkpt lat="39.038164" lon="-1.456869">
        <ele>929.340402</ele>
        <time>2021-11-03T16:20:50.182Z</time>
      </trkpt>
      <trkpt lat="39.037910" lon="-1.457114">
        <ele>930.492349</ele>
        <time>2021-11-03T16:20:50.182Z</time>
      </trkpt>
      <trkpt lat="39.037790" lon="-1.457210">
        <ele>931.005134</ele>
        <time>2021-11-03T16:20:50.182Z</time>
      </trkpt>
      <trkpt lat="39.037743" lon="-1.457227">
        <ele>931.168671</ele>
        <time>2021-11-03T16:20:50.182Z</time>
      </trkpt>
      <trkpt lat="39.037689" lon="-1.457235">
        <ele>931.310991</ele>
        <time>2021-11-03T16:20:50.182Z</time>
      </trkpt>
      <trkpt lat="39.037673" lon="-1.457236">
        <ele>931.352932</ele>
        <time>2021-11-03T16:20:50.182Z</time>
      </trkpt>
      <trkpt lat="39.037643" lon="-1.457237">
        <ele>931.431507</ele>
        <time>2021-11-03T16:20:50.182Z</time>
      </trkpt>
      <trkpt lat="39.037616" lon="-1.457229">
        <ele>931.504048</ele>
        <time>2021-11-03T16:20:50.182Z</time>
      </trkpt>
      <trkpt lat="39.037585" lon="-1.457217">
        <ele>931.588803</ele>
        <time>2021-11-03T16:20:50.182Z</time>
      </trkpt>
      <trkpt lat="39.037569" lon="-1.457212">
        <ele>931.631912</ele>
        <time>2021-11-03T16:20:50.182Z</time>
      </trkpt>
      <trkpt lat="39.037495" lon="-1.457195">
        <ele>931.828724</ele>
        <time>2021-11-03T16:20:50.182Z</time>
      </trkpt>
      <trkpt lat="39.037480" lon="-1.457191">
        <ele>931.868832</ele>
        <time>2021-11-03T16:20:50.182Z</time>
      </trkpt>
      <trkpt lat="39.037421" lon="-1.457171">
        <ele>932.028574</ele>
        <time>2021-11-03T16:20:50.182Z</time>
      </trkpt>
      <trkpt lat="39.037381" lon="-1.457148">
        <ele>932.143276</ele>
        <time>2021-11-03T16:20:50.182Z</time>
      </trkpt>
      <trkpt lat="39.037367" lon="-1.457140">
        <ele>932.183380</ele>
        <time>2021-11-03T16:20:50.182Z</time>
      </trkpt>
      <trkpt lat="39.037329" lon="-1.457109">
        <ele>932.301167</ele>
        <time>2021-11-03T16:20:50.182Z</time>
      </trkpt>
      <trkpt lat="39.037252" lon="-1.457046">
        <ele>932.540040</ele>
        <time>2021-11-03T16:20:50.182Z</time>
      </trkpt>
      <trkpt lat="39.037185" lon="-1.457000">
        <ele>932.738850</ele>
        <time>2021-11-03T16:20:50.182Z</time>
      </trkpt>
      <trkpt lat="39.037155" lon="-1.456977">
        <ele>932.830270</ele>
        <time>2021-11-03T16:20:50.182Z</time>
      </trkpt>
      <trkpt lat="39.037087" lon="-1.456958">
        <ele>933.012457</ele>
        <time>2021-11-03T16:20:50.182Z</time>
      </trkpt>
      <trkpt lat="39.037034" lon="-1.456951">
        <ele>933.151953</ele>
        <time>2021-11-03T16:20:50.182Z</time>
      </trkpt>
      <trkpt lat="39.036950" lon="-1.456937">
        <ele>933.373723</ele>
        <time>2021-11-03T16:20:50.182Z</time>
      </trkpt>
      <trkpt lat="39.036934" lon="-1.456918">
        <ele>933.430715</ele>
        <time>2021-11-03T16:20:50.182Z</time>
      </trkpt>
      <trkpt lat="39.036831" lon="-1.456784">
        <ele>933.814112</ele>
        <time>2021-11-03T16:20:50.182Z</time>
      </trkpt>
      <trkpt lat="39.036751" lon="-1.456684">
        <ele>934.106061</ele>
        <time>2021-11-03T16:20:50.182Z</time>
      </trkpt>
      <trkpt lat="39.036707" lon="-1.456626">
        <ele>934.270941</ele>
        <time>2021-11-03T16:20:50.182Z</time>
      </trkpt>
      <trkpt lat="39.036647" lon="-1.456500">
        <ele>934.571511</ele>
        <time>2021-11-03T16:20:50.182Z</time>
      </trkpt>
      <trkpt lat="39.036557" lon="-1.456384">
        <ele>934.904951</ele>
        <time>2021-11-03T16:20:50.182Z</time>
      </trkpt>
      <trkpt lat="39.036484" lon="-1.456292">
        <ele>935.172420</ele>
        <time>2021-11-03T16:20:50.182Z</time>
      </trkpt>
      <trkpt lat="39.036439" lon="-1.456243">
        <ele>935.326733</ele>
        <time>2021-11-03T16:20:50.182Z</time>
      </trkpt>
      <trkpt lat="39.036322" lon="-1.456098">
        <ele>935.751942</ele>
        <time>2021-11-03T16:20:50.182Z</time>
      </trkpt>
      <trkpt lat="39.036281" lon="-1.456052">
        <ele>935.724675</ele>
        <time>2021-11-03T16:20:50.182Z</time>
      </trkpt>
      <trkpt lat="39.036236" lon="-1.456008">
        <ele>935.387052</ele>
        <time>2021-11-03T16:20:50.182Z</time>
      </trkpt>
      <trkpt lat="39.036152" lon="-1.455924">
        <ele>934.751544</ele>
        <time>2021-11-03T16:20:50.182Z</time>
      </trkpt>
      <trkpt lat="39.036119" lon="-1.455873">
        <ele>934.443488</ele>
        <time>2021-11-03T16:20:50.182Z</time>
      </trkpt>
      <trkpt lat="39.036042" lon="-1.455773">
        <ele>933.790000</ele>
        <time>2021-11-03T16:20:50.182Z</time>
      </trkpt>
      <trkpt lat="39.035951" lon="-1.455677">
        <ele>933.087059</ele>
        <time>2021-11-03T16:20:50.182Z</time>
      </trkpt>
      <trkpt lat="39.035898" lon="-1.455636">
        <ele>932.717620</ele>
        <time>2021-11-03T16:20:50.182Z</time>
      </trkpt>
      <trkpt lat="39.035780" lon="-1.455561">
        <ele>931.931343</ele>
        <time>2021-11-03T16:20:50.182Z</time>
      </trkpt>
      <trkpt lat="39.035598" lon="-1.455436">
        <ele>930.698848</ele>
        <time>2021-11-03T16:20:50.182Z</time>
      </trkpt>
      <trkpt lat="39.035537" lon="-1.455395">
        <ele>930.287699</ele>
        <time>2021-11-03T16:20:50.182Z</time>
      </trkpt>
      <trkpt lat="39.035425" lon="-1.455300">
        <ele>929.486325</ele>
        <time>2021-11-03T16:20:50.182Z</time>
      </trkpt>
      <trkpt lat="39.035337" lon="-1.455228">
        <ele>928.863338</ele>
        <time>2021-11-03T16:20:50.182Z</time>
      </trkpt>
      <trkpt lat="39.035248" lon="-1.455176">
        <ele>928.279374</ele>
        <time>2021-11-03T16:20:50.182Z</time>
      </trkpt>
      <trkpt lat="39.035159" lon="-1.455116">
        <ele>927.679112</ele>
        <time>2021-11-03T16:20:50.182Z</time>
      </trkpt>
      <trkpt lat="39.035111" lon="-1.455084">
        <ele>927.356146</ele>
        <time>2021-11-03T16:20:50.182Z</time>
      </trkpt>
      <trkpt lat="39.035057" lon="-1.455057">
        <ele>927.010024</ele>
        <time>2021-11-03T16:20:50.182Z</time>
      </trkpt>
      <trkpt lat="39.034948" lon="-1.455009">
        <ele>926.321716</ele>
        <time>2021-11-03T16:20:50.182Z</time>
      </trkpt>
      <trkpt lat="39.034890" lon="-1.454995">
        <ele>925.969134</ele>
        <time>2021-11-03T16:20:50.182Z</time>
      </trkpt>
      <trkpt lat="39.034769" lon="-1.454958">
        <ele>925.226061</ele>
        <time>2021-11-03T16:20:50.182Z</time>
      </trkpt>
      <trkpt lat="39.034539" lon="-1.454880">
        <ele>923.851909</ele>
        <time>2021-11-03T16:20:50.182Z</time>
      </trkpt>
      <trkpt lat="39.034409" lon="-1.454898">
        <ele>923.099106</ele>
        <time>2021-11-03T16:20:50.182Z</time>
      </trkpt>
      <trkpt lat="39.034288" lon="-1.454940">
        <ele>922.377560</ele>
        <time>2021-11-03T16:20:50.182Z</time>
      </trkpt>
      <trkpt lat="39.034167" lon="-1.454931">
        <ele>921.679731</ele>
        <time>2021-11-03T16:20:50.182Z</time>
      </trkpt>
      <trkpt lat="39.034109" lon="-1.454906">
        <ele>921.327570</ele>
        <time>2021-11-03T16:20:50.182Z</time>
      </trkpt>
      <trkpt lat="39.034052" lon="-1.454885">
        <ele>920.986214</ele>
        <time>2021-11-03T16:20:50.182Z</time>
      </trkpt>
      <trkpt lat="39.033879" lon="-1.454848">
        <ele>919.976499</ele>
        <time>2021-11-03T16:20:50.182Z</time>
      </trkpt>
      <trkpt lat="39.033817" lon="-1.454847">
        <ele>919.619501</ele>
        <time>2021-11-03T16:20:50.182Z</time>
      </trkpt>
      <trkpt lat="39.033691" lon="-1.454845">
        <ele>918.893990</ele>
        <time>2021-11-03T16:20:50.182Z</time>
      </trkpt>
      <trkpt lat="39.033629" lon="-1.454831">
        <ele>918.531570</ele>
        <time>2021-11-03T16:20:50.182Z</time>
      </trkpt>
      <trkpt lat="39.033433" lon="-1.454752">
        <ele>917.349067</ele>
        <time>2021-11-03T16:20:50.182Z</time>
      </trkpt>
      <trkpt lat="39.033361" lon="-1.454744">
        <ele>916.932979</ele>
        <time>2021-11-03T16:20:50.182Z</time>
      </trkpt>
      <trkpt lat="39.033288" lon="-1.454750">
        <ele>916.511820</ele>
        <time>2021-11-03T16:20:50.182Z</time>
      </trkpt>
      <trkpt lat="39.033147" lon="-1.454742">
        <ele>915.699212</ele>
        <time>2021-11-03T16:20:50.182Z</time>
      </trkpt>
      <trkpt lat="39.033085" lon="-1.454726">
        <ele>915.335140</ele>
        <time>2021-11-03T16:20:50.182Z</time>
      </trkpt>
      <trkpt lat="39.033026" lon="-1.454722">
        <ele>914.994972</ele>
        <time>2021-11-03T16:20:50.182Z</time>
      </trkpt>
      <trkpt lat="39.032909" lon="-1.454726">
        <ele>914.641059</ele>
        <time>2021-11-03T16:20:50.182Z</time>
      </trkpt>
      <trkpt lat="39.032849" lon="-1.454736">
        <ele>914.558702</ele>
        <time>2021-11-03T16:20:50.182Z</time>
      </trkpt>
      <trkpt lat="39.032720" lon="-1.454759">
        <ele>914.381423</ele>
        <time>2021-11-03T16:20:50.182Z</time>
      </trkpt>
      <trkpt lat="39.032595" lon="-1.454824">
        <ele>914.197908</ele>
        <time>2021-11-03T16:20:50.182Z</time>
      </trkpt>
      <trkpt lat="39.032411" lon="-1.454964">
        <ele>913.906958</ele>
        <time>2021-11-03T16:20:50.182Z</time>
      </trkpt>
      <trkpt lat="39.032244" lon="-1.455134">
        <ele>913.617143</ele>
        <time>2021-11-03T16:20:50.182Z</time>
      </trkpt>
      <trkpt lat="39.032174" lon="-1.455219">
        <ele>913.486153</ele>
        <time>2021-11-03T16:20:50.182Z</time>
      </trkpt>
      <trkpt lat="39.032138" lon="-1.455236">
        <ele>913.433954</ele>
        <time>2021-11-03T16:20:50.182Z</time>
      </trkpt>
      <trkpt lat="39.032100" lon="-1.455234">
        <ele>913.382183</ele>
        <time>2021-11-03T16:20:50.182Z</time>
      </trkpt>
      <trkpt lat="39.032040" lon="-1.455171">
        <ele>913.276785</ele>
        <time>2021-11-03T16:20:50.182Z</time>
      </trkpt>
      <trkpt lat="39.032009" lon="-1.455056">
        <ele>913.148067</ele>
        <time>2021-11-03T16:20:50.182Z</time>
      </trkpt>
      <trkpt lat="39.032006" lon="-1.455021">
        <ele>913.110833</ele>
        <time>2021-11-03T16:20:50.182Z</time>
      </trkpt>
      <trkpt lat="39.031988" lon="-1.454876">
        <ele>912.955561</ele>
        <time>2021-11-03T16:20:50.182Z</time>
      </trkpt>
      <trkpt lat="39.031960" lon="-1.454776">
        <ele>912.843159</ele>
        <time>2021-11-03T16:20:50.182Z</time>
      </trkpt>
      <trkpt lat="39.031919" lon="-1.454598">
        <ele>912.646838</ele>
        <time>2021-11-03T16:20:50.182Z</time>
      </trkpt>
      <trkpt lat="39.031923" lon="-1.454362">
        <ele>912.397227</ele>
        <time>2021-11-03T16:20:50.182Z</time>
      </trkpt>
      <trkpt lat="39.031923" lon="-1.454333">
        <ele>912.366562</ele>
        <time>2021-11-03T16:20:50.182Z</time>
      </trkpt>
      <trkpt lat="39.031888" lon="-1.454081">
        <ele>912.470177</ele>
        <time>2021-11-03T16:20:50.182Z</time>
      </trkpt>
      <trkpt lat="39.031899" lon="-1.453916">
        <ele>912.629762</ele>
        <time>2021-11-03T16:20:50.182Z</time>
      </trkpt>
      <trkpt lat="39.031906" lon="-1.453885">
        <ele>912.660871</ele>
        <time>2021-11-03T16:20:50.182Z</time>
      </trkpt>
      <trkpt lat="39.031968" lon="-1.453740">
        <ele>912.820368</ele>
        <time>2021-11-03T16:20:50.182Z</time>
      </trkpt>
      <trkpt lat="39.032035" lon="-1.453595">
        <ele>912.982948</ele>
        <time>2021-11-03T16:20:50.182Z</time>
      </trkpt>
      <trkpt lat="39.032062" lon="-1.453539">
        <ele>913.046461</ele>
        <time>2021-11-03T16:20:50.182Z</time>
      </trkpt>
      <trkpt lat="39.032205" lon="-1.453279">
        <ele>913.353450</ele>
        <time>2021-11-03T16:20:50.182Z</time>
      </trkpt>
      <trkpt lat="39.032223" lon="-1.453248">
        <ele>913.390746</ele>
        <time>2021-11-03T16:20:50.182Z</time>
      </trkpt>
      <trkpt lat="39.032386" lon="-1.452965">
        <ele>913.730242</ele>
        <time>2021-11-03T16:20:50.182Z</time>
      </trkpt>
      <trkpt lat="39.032591" lon="-1.452743">
        <ele>914.062563</ele>
        <time>2021-11-03T16:20:50.182Z</time>
      </trkpt>
      <trkpt lat="39.032680" lon="-1.452513">
        <ele>914.310175</ele>
        <time>2021-11-03T16:20:50.182Z</time>
      </trkpt>
      <trkpt lat="39.032764" lon="-1.452218">
        <ele>914.553039</ele>
        <time>2021-11-03T16:20:50.182Z</time>
      </trkpt>
      <trkpt lat="39.032814" lon="-1.452104">
        <ele>914.595192</ele>
        <time>2021-11-03T16:20:50.182Z</time>
      </trkpt>
      <trkpt lat="39.032830" lon="-1.452038">
        <ele>914.617454</ele>
        <time>2021-11-03T16:20:50.182Z</time>
      </trkpt>
      <trkpt lat="39.032834" lon="-1.451967">
        <ele>914.640375</ele>
        <time>2021-11-03T16:20:50.182Z</time>
      </trkpt>
      <trkpt lat="39.032829" lon="-1.451896">
        <ele>914.663329</ele>
        <time>2021-11-03T16:20:50.182Z</time>
      </trkpt>
      <trkpt lat="39.032790" lon="-1.451757">
        <ele>914.710915</ele>
        <time>2021-11-03T16:20:50.182Z</time>
      </trkpt>
      <trkpt lat="39.032757" lon="-1.451697">
        <ele>914.734586</ele>
        <time>2021-11-03T16:20:50.182Z</time>
      </trkpt>
      <trkpt lat="39.032680" lon="-1.451586">
        <ele>914.782504</ele>
        <time>2021-11-03T16:20:50.182Z</time>
      </trkpt>
      <trkpt lat="39.032640" lon="-1.451536">
        <ele>914.805614</ele>
        <time>2021-11-03T16:20:50.182Z</time>
      </trkpt>
      <trkpt lat="39.032576" lon="-1.451440">
        <ele>914.846347</ele>
        <time>2021-11-03T16:20:50.182Z</time>
      </trkpt>
      <trkpt lat="39.032533" lon="-1.451334">
        <ele>914.884852</ele>
        <time>2021-11-03T16:20:50.182Z</time>
      </trkpt>
      <trkpt lat="39.032494" lon="-1.451217">
        <ele>914.925846</ele>
        <time>2021-11-03T16:20:50.182Z</time>
      </trkpt>
      <trkpt lat="39.032402" lon="-1.450986">
        <ele>915.009431</ele>
        <time>2021-11-03T16:20:50.182Z</time>
      </trkpt>
      <trkpt lat="39.032384" lon="-1.450925">
        <ele>915.030441</ele>
        <time>2021-11-03T16:20:50.182Z</time>
      </trkpt>
      <trkpt lat="39.032377" lon="-1.450803">
        <ele>915.069830</ele>
        <time>2021-11-03T16:20:50.182Z</time>
      </trkpt>
      <trkpt lat="39.032383" lon="-1.450748">
        <ele>915.087713</ele>
        <time>2021-11-03T16:20:50.182Z</time>
      </trkpt>
      <trkpt lat="39.032380" lon="-1.450558">
        <ele>915.148903</ele>
        <time>2021-11-03T16:20:50.182Z</time>
      </trkpt>
      <trkpt lat="39.032374" lon="-1.450513">
        <ele>915.163604</ele>
        <time>2021-11-03T16:20:50.182Z</time>
      </trkpt>
      <trkpt lat="39.032342" lon="-1.450337">
        <ele>915.221805</ele>
        <time>2021-11-03T16:20:50.182Z</time>
      </trkpt>
      <trkpt lat="39.032325" lon="-1.450253">
        <ele>915.249755</ele>
        <time>2021-11-03T16:20:50.182Z</time>
      </trkpt>
      <trkpt lat="39.032282" lon="-1.450088">
        <ele>915.395429</ele>
        <time>2021-11-03T16:20:50.182Z</time>
      </trkpt>
      <trkpt lat="39.032254" lon="-1.450007">
        <ele>915.492645</ele>
        <time>2021-11-03T16:20:50.182Z</time>
      </trkpt>
      <trkpt lat="39.032210" lon="-1.449762">
        <ele>915.768380</ele>
        <time>2021-11-03T16:20:50.182Z</time>
      </trkpt>
      <trkpt lat="39.032222" lon="-1.449676">
        <ele>915.864191</ele>
        <time>2021-11-03T16:20:50.182Z</time>
      </trkpt>
      <trkpt lat="39.032261" lon="-1.449464">
        <ele>916.103084</ele>
        <time>2021-11-03T16:20:50.182Z</time>
      </trkpt>
      <trkpt lat="39.032367" lon="-1.449168">
        <ele>916.460485</ele>
        <time>2021-11-03T16:20:50.182Z</time>
      </trkpt>
      <trkpt lat="39.032556" lon="-1.448967">
        <ele>916.806542</ele>
        <time>2021-11-03T16:20:50.182Z</time>
      </trkpt>
      <trkpt lat="39.032580" lon="-1.448870">
        <ele>916.918169</ele>
        <time>2021-11-03T16:20:50.182Z</time>
      </trkpt>
      <trkpt lat="39.032576" lon="-1.448815">
        <ele>916.978741</ele>
        <time>2021-11-03T16:20:50.182Z</time>
      </trkpt>
      <trkpt lat="39.032548" lon="-1.448606">
        <ele>917.211297</ele>
        <time>2021-11-03T16:20:50.182Z</time>
      </trkpt>
      <trkpt lat="39.032521" lon="-1.448567">
        <ele>917.268581</ele>
        <time>2021-11-03T16:20:50.182Z</time>
      </trkpt>
      <trkpt lat="39.032371" lon="-1.448528">
        <ele>917.484597</ele>
        <time>2021-11-03T16:20:50.182Z</time>
      </trkpt>
      <trkpt lat="39.032107" lon="-1.448454">
        <ele>917.851175</ele>
        <time>2021-11-03T16:20:50.182Z</time>
      </trkpt>
      <trkpt lat="39.032042" lon="-1.448417">
        <ele>917.926081</ele>
        <time>2021-11-03T16:20:50.182Z</time>
      </trkpt>
      <trkpt lat="39.031902" lon="-1.448301">
        <ele>918.101556</ele>
        <time>2021-11-03T16:20:50.182Z</time>
      </trkpt>
      <trkpt lat="39.031877" lon="-1.448273">
        <ele>918.136482</ele>
        <time>2021-11-03T16:20:50.182Z</time>
      </trkpt>
      <trkpt lat="39.031654" lon="-1.448054">
        <ele>918.432097</ele>
        <time>2021-11-03T16:20:50.182Z</time>
      </trkpt>
      <trkpt lat="39.031508" lon="-1.447951">
        <ele>918.607567</ele>
        <time>2021-11-03T16:20:50.182Z</time>
      </trkpt>
      <trkpt lat="39.031435" lon="-1.447879">
        <ele>918.704492</ele>
        <time>2021-11-03T16:20:50.182Z</time>
      </trkpt>
      <trkpt lat="39.031404" lon="-1.447837">
        <ele>918.751925</ele>
        <time>2021-11-03T16:20:50.182Z</time>
      </trkpt>
      <trkpt lat="39.031295" lon="-1.447704">
        <ele>918.910212</ele>
        <time>2021-11-03T16:20:50.182Z</time>
      </trkpt>
      <trkpt lat="39.031249" lon="-1.447668">
        <ele>918.966950</ele>
        <time>2021-11-03T16:20:50.182Z</time>
      </trkpt>
      <trkpt lat="39.031204" lon="-1.447643">
        <ele>919.018607</ele>
        <time>2021-11-03T16:20:50.182Z</time>
      </trkpt>
      <trkpt lat="39.031159" lon="-1.447624">
        <ele>919.068521</ele>
        <time>2021-11-03T16:20:50.182Z</time>
      </trkpt>
      <trkpt lat="39.031080" lon="-1.447578">
        <ele>919.159905</ele>
        <time>2021-11-03T16:20:50.182Z</time>
      </trkpt>
      <trkpt lat="39.031045" lon="-1.447551">
        <ele>919.202910</ele>
        <time>2021-11-03T16:20:50.182Z</time>
      </trkpt>
      <trkpt lat="39.030903" lon="-1.447454">
        <ele>919.372337</ele>
        <time>2021-11-03T16:20:50.182Z</time>
      </trkpt>
      <trkpt lat="39.030809" lon="-1.447355">
        <ele>919.500341</ele>
        <time>2021-11-03T16:20:50.182Z</time>
      </trkpt>
      <trkpt lat="39.030641" lon="-1.447125">
        <ele>919.789893</ele>
        <time>2021-11-03T16:20:50.182Z</time>
      </trkpt>
      <trkpt lat="39.030614" lon="-1.447088">
        <ele>919.854677</ele>
        <time>2021-11-03T16:20:50.182Z</time>
      </trkpt>
      <trkpt lat="39.030514" lon="-1.446937">
        <ele>920.107899</ele>
        <time>2021-11-03T16:20:50.182Z</time>
      </trkpt>
      <trkpt lat="39.030461" lon="-1.446858">
        <ele>920.241109</ele>
        <time>2021-11-03T16:20:50.182Z</time>
      </trkpt>
      <trkpt lat="39.030425" lon="-1.446829">
        <ele>920.310875</ele>
        <time>2021-11-03T16:20:50.182Z</time>
      </trkpt>
      <trkpt lat="39.030384" lon="-1.446809">
        <ele>920.382904</ele>
        <time>2021-11-03T16:20:50.182Z</time>
      </trkpt>
      <trkpt lat="39.030225" lon="-1.446782">
        <ele>920.646373</ele>
        <time>2021-11-03T16:20:50.182Z</time>
      </trkpt>
      <trkpt lat="39.029940" lon="-1.446741">
        <ele>921.117489</ele>
        <time>2021-11-03T16:20:50.182Z</time>
      </trkpt>
      <trkpt lat="39.029844" lon="-1.446717">
        <ele>921.278145</ele>
        <time>2021-11-03T16:20:50.182Z</time>
      </trkpt>
      <trkpt lat="39.029663" lon="-1.446672">
        <ele>921.580989</ele>
        <time>2021-11-03T16:20:50.182Z</time>
      </trkpt>
      <trkpt lat="39.029428" lon="-1.446590">
        <ele>921.980980</ele>
        <time>2021-11-03T16:20:50.182Z</time>
      </trkpt>
      <trkpt lat="39.029380" lon="-1.446562">
        <ele>922.067554</ele>
        <time>2021-11-03T16:20:50.182Z</time>
      </trkpt>
      <trkpt lat="39.029340" lon="-1.446528">
        <ele>922.146299</ele>
        <time>2021-11-03T16:20:50.182Z</time>
      </trkpt>
      <trkpt lat="39.029270" lon="-1.446447">
        <ele>922.300926</ele>
        <time>2021-11-03T16:20:50.182Z</time>
      </trkpt>
      <trkpt lat="39.029221" lon="-1.446352">
        <ele>922.446454</ele>
        <time>2021-11-03T16:20:50.182Z</time>
      </trkpt>
      <trkpt lat="39.029148" lon="-1.446047">
        <ele>923.129284</ele>
        <time>2021-11-03T16:20:50.182Z</time>
      </trkpt>
      <trkpt lat="39.029093" lon="-1.445751">
        <ele>924.064527</ele>
        <time>2021-11-03T16:20:50.182Z</time>
      </trkpt>
      <trkpt lat="39.029061" lon="-1.445566">
        <ele>924.646940</ele>
        <time>2021-11-03T16:20:50.182Z</time>
      </trkpt>
      <trkpt lat="39.029054" lon="-1.445489">
        <ele>924.885170</ele>
        <time>2021-11-03T16:20:50.182Z</time>
      </trkpt>
      <trkpt lat="39.029052" lon="-1.445448">
        <ele>925.011408</ele>
        <time>2021-11-03T16:20:50.182Z</time>
      </trkpt>
      <trkpt lat="39.029050" lon="-1.445409">
        <ele>925.131513</ele>
        <time>2021-11-03T16:20:50.182Z</time>
      </trkpt>
      <trkpt lat="39.029044" lon="-1.445299">
        <ele>925.470367</ele>
        <time>2021-11-03T16:20:50.182Z</time>
      </trkpt>
      <trkpt lat="39.029018" lon="-1.445155">
        <ele>925.924664</ele>
        <time>2021-11-03T16:20:50.182Z</time>
      </trkpt>
      <trkpt lat="39.028986" lon="-1.445051">
        <ele>926.268405</ele>
        <time>2021-11-03T16:20:50.182Z</time>
      </trkpt>
      <trkpt lat="39.028966" lon="-1.444988">
        <ele>926.477541</ele>
        <time>2021-11-03T16:20:50.182Z</time>
      </trkpt>
      <trkpt lat="39.028948" lon="-1.444887">
        <ele>926.795970</ele>
        <time>2021-11-03T16:20:50.182Z</time>
      </trkpt>
      <trkpt lat="39.028925" lon="-1.444755">
        <ele>927.211675</ele>
        <time>2021-11-03T16:20:50.182Z</time>
      </trkpt>
      <trkpt lat="39.028914" lon="-1.444694">
        <ele>927.404108</ele>
        <time>2021-11-03T16:20:50.182Z</time>
      </trkpt>
      <trkpt lat="39.028909" lon="-1.444664">
        <ele>927.498394</ele>
        <time>2021-11-03T16:20:50.182Z</time>
      </trkpt>
      <trkpt lat="39.028866" lon="-1.444512">
        <ele>927.995487</ele>
        <time>2021-11-03T16:20:50.182Z</time>
      </trkpt>
      <trkpt lat="39.028842" lon="-1.444422">
        <ele>928.287893</ele>
        <time>2021-11-03T16:20:50.182Z</time>
      </trkpt>
      <trkpt lat="39.028819" lon="-1.444335">
        <ele>928.570295</ele>
        <time>2021-11-03T16:20:50.182Z</time>
      </trkpt>
      <trkpt lat="39.028813" lon="-1.444305">
        <ele>928.665490</ele>
        <time>2021-11-03T16:20:50.182Z</time>
      </trkpt>
      <trkpt lat="39.028781" lon="-1.444146">
        <ele>929.170218</ele>
        <time>2021-11-03T16:20:50.182Z</time>
      </trkpt>
      <trkpt lat="39.028762" lon="-1.444061">
        <ele>929.442016</ele>
        <time>2021-11-03T16:20:50.182Z</time>
      </trkpt>
      <trkpt lat="39.028748" lon="-1.444003">
        <ele>929.628652</ele>
        <time>2021-11-03T16:20:50.182Z</time>
      </trkpt>
      <trkpt lat="39.028692" lon="-1.443755">
        <ele>930.297776</ele>
        <time>2021-11-03T16:20:50.182Z</time>
      </trkpt>
      <trkpt lat="39.028671" lon="-1.443669">
        <ele>930.521675</ele>
        <time>2021-11-03T16:20:50.182Z</time>
      </trkpt>
      <trkpt lat="39.028660" lon="-1.443611">
        <ele>930.669959</ele>
        <time>2021-11-03T16:20:50.182Z</time>
      </trkpt>
      <trkpt lat="39.028652" lon="-1.443513">
        <ele>930.914699</ele>
        <time>2021-11-03T16:20:50.182Z</time>
      </trkpt>
      <trkpt lat="39.028648" lon="-1.443447">
        <ele>931.079119</ele>
        <time>2021-11-03T16:20:50.182Z</time>
      </trkpt>
      <trkpt lat="39.028636" lon="-1.443231">
        <ele>931.616962</ele>
        <time>2021-11-03T16:20:50.182Z</time>
      </trkpt>
      <trkpt lat="39.028630" lon="-1.443069">
        <ele>932.019773</ele>
        <time>2021-11-03T16:20:50.182Z</time>
      </trkpt>
      <trkpt lat="39.028626" lon="-1.443002">
        <ele>932.186670</ele>
        <time>2021-11-03T16:20:50.182Z</time>
      </trkpt>
      <trkpt lat="39.028610" lon="-1.442778">
        <ele>932.745359</ele>
        <time>2021-11-03T16:20:50.182Z</time>
      </trkpt>
      <trkpt lat="39.028588" lon="-1.442545">
        <ele>933.328313</ele>
        <time>2021-11-03T16:20:50.182Z</time>
      </trkpt>
      <trkpt lat="39.028585" lon="-1.442504">
        <ele>933.430595</ele>
        <time>2021-11-03T16:20:50.182Z</time>
      </trkpt>
      <trkpt lat="39.028614" lon="-1.442280">
        <ele>933.994610</ele>
        <time>2021-11-03T16:20:50.182Z</time>
      </trkpt>
      <trkpt lat="39.028673" lon="-1.442065">
        <ele>934.560937</ele>
        <time>2021-11-03T16:20:50.182Z</time>
      </trkpt>
      <trkpt lat="39.028689" lon="-1.441991">
        <ele>934.751715</ele>
        <time>2021-11-03T16:20:50.182Z</time>
      </trkpt>
      <trkpt lat="39.028728" lon="-1.441785">
        <ele>935.278325</ele>
        <time>2021-11-03T16:20:50.182Z</time>
      </trkpt>
      <trkpt lat="39.028733" lon="-1.441725">
        <ele>935.428200</ele>
        <time>2021-11-03T16:20:50.182Z</time>
      </trkpt>
      <trkpt lat="39.028738" lon="-1.441547">
        <ele>936.002961</ele>
        <time>2021-11-03T16:20:50.182Z</time>
      </trkpt>
      <trkpt lat="39.028741" lon="-1.441485">
        <ele>936.216107</ele>
        <time>2021-11-03T16:20:50.182Z</time>
      </trkpt>
      <trkpt lat="39.028744" lon="-1.441421">
        <ele>936.436103</ele>
        <time>2021-11-03T16:20:50.182Z</time>
      </trkpt>
      <trkpt lat="39.028754" lon="-1.441251">
        <ele>937.021075</ele>
        <time>2021-11-03T16:20:50.182Z</time>
      </trkpt>
      <trkpt lat="39.028761" lon="-1.441184">
        <ele>937.253034</ele>
        <time>2021-11-03T16:20:50.182Z</time>
      </trkpt>
      <trkpt lat="39.028795" lon="-1.440938">
        <ele>938.110362</ele>
        <time>2021-11-03T16:20:50.182Z</time>
      </trkpt>
      <trkpt lat="39.028804" lon="-1.440879">
        <ele>938.316668</ele>
        <time>2021-11-03T16:20:50.182Z</time>
      </trkpt>
      <trkpt lat="39.028819" lon="-1.440749">
        <ele>938.767616</ele>
        <time>2021-11-03T16:20:50.182Z</time>
      </trkpt>
      <trkpt lat="39.028805" lon="-1.440603">
        <ele>939.272371</ele>
        <time>2021-11-03T16:20:50.182Z</time>
      </trkpt>
      <trkpt lat="39.028781" lon="-1.440486">
        <ele>939.687581</ele>
        <time>2021-11-03T16:20:50.182Z</time>
      </trkpt>
      <trkpt lat="39.028733" lon="-1.440178">
        <ele>940.765444</ele>
        <time>2021-11-03T16:20:50.182Z</time>
      </trkpt>
      <trkpt lat="39.028711" lon="-1.440029">
        <ele>941.285844</ele>
        <time>2021-11-03T16:20:50.182Z</time>
      </trkpt>
      <trkpt lat="39.028677" lon="-1.439861">
        <ele>941.881525</ele>
        <time>2021-11-03T16:20:50.182Z</time>
      </trkpt>
      <trkpt lat="39.028677" lon="-1.439702">
        <ele>942.427085</ele>
        <time>2021-11-03T16:20:50.182Z</time>
      </trkpt>
      <trkpt lat="39.028676" lon="-1.439506">
        <ele>943.099613</ele>
        <time>2021-11-03T16:20:50.182Z</time>
      </trkpt>
      <trkpt lat="39.028672" lon="-1.439439">
        <ele>943.330181</ele>
        <time>2021-11-03T16:20:50.182Z</time>
      </trkpt>
      <trkpt lat="39.028669" lon="-1.439271">
        <ele>944.074717</ele>
        <time>2021-11-03T16:20:50.182Z</time>
      </trkpt>
      <trkpt lat="39.028666" lon="-1.439241">
        <ele>944.218229</ele>
        <time>2021-11-03T16:20:50.182Z</time>
      </trkpt>
      <trkpt lat="39.028678" lon="-1.438996">
        <ele>945.382966</ele>
        <time>2021-11-03T16:20:50.182Z</time>
      </trkpt>
      <trkpt lat="39.028691" lon="-1.438812">
        <ele>946.259577</ele>
        <time>2021-11-03T16:20:50.182Z</time>
      </trkpt>
      <trkpt lat="39.028693" lon="-1.438782">
        <ele>946.402439</ele>
        <time>2021-11-03T16:20:50.182Z</time>
      </trkpt>
      <trkpt lat="39.028697" lon="-1.438751">
        <ele>946.551537</ele>
        <time>2021-11-03T16:20:50.182Z</time>
      </trkpt>
      <trkpt lat="39.028703" lon="-1.438689">
        <ele>946.847976</ele>
        <time>2021-11-03T16:20:50.182Z</time>
      </trkpt>
      <trkpt lat="39.028718" lon="-1.438571">
        <ele>947.415286</ele>
        <time>2021-11-03T16:20:50.182Z</time>
      </trkpt>
      <trkpt lat="39.028737" lon="-1.438455">
        <ele>947.977760</ele>
        <time>2021-11-03T16:20:50.182Z</time>
      </trkpt>
      <trkpt lat="39.028758" lon="-1.438370">
        <ele>948.400956</ele>
        <time>2021-11-03T16:20:50.182Z</time>
      </trkpt>
      <trkpt lat="39.028783" lon="-1.438283">
        <ele>948.841072</ele>
        <time>2021-11-03T16:20:50.182Z</time>
      </trkpt>
      <trkpt lat="39.028793" lon="-1.438255">
        <ele>948.987288</ele>
        <time>2021-11-03T16:20:50.182Z</time>
      </trkpt>
      <trkpt lat="39.028804" lon="-1.438226">
        <ele>949.140408</ele>
        <time>2021-11-03T16:20:50.182Z</time>
      </trkpt>
      <trkpt lat="39.028864" lon="-1.438063">
        <ele>949.996207</ele>
        <time>2021-11-03T16:20:50.182Z</time>
      </trkpt>
      <trkpt lat="39.028888" lon="-1.438012">
        <ele>950.279117</ele>
        <time>2021-11-03T16:20:50.182Z</time>
      </trkpt>
      <trkpt lat="39.028916" lon="-1.437899">
        <ele>950.841870</ele>
        <time>2021-11-03T16:20:50.182Z</time>
      </trkpt>
      <trkpt lat="39.028953" lon="-1.437794">
        <ele>951.388911</ele>
        <time>2021-11-03T16:20:50.182Z</time>
      </trkpt>
      <trkpt lat="39.028979" lon="-1.437714">
        <ele>951.800357</ele>
        <time>2021-11-03T16:20:50.182Z</time>
      </trkpt>
      <trkpt lat="39.029057" lon="-1.437549">
        <ele>952.716773</ele>
        <time>2021-11-03T16:20:50.182Z</time>
      </trkpt>
      <trkpt lat="39.029079" lon="-1.437504">
        <ele>952.969042</ele>
        <time>2021-11-03T16:20:50.182Z</time>
      </trkpt>
      <trkpt lat="39.029152" lon="-1.437384">
        <ele>953.692193</ele>
        <time>2021-11-03T16:20:50.182Z</time>
      </trkpt>
      <trkpt lat="39.029221" lon="-1.437212">
        <ele>954.551112</ele>
        <time>2021-11-03T16:20:50.182Z</time>
      </trkpt>
      <trkpt lat="39.029230" lon="-1.437185">
        <ele>954.637694</ele>
        <time>2021-11-03T16:20:50.182Z</time>
      </trkpt>
      <trkpt lat="39.029241" lon="-1.437158">
        <ele>954.727539</ele>
        <time>2021-11-03T16:20:50.182Z</time>
      </trkpt>
      <trkpt lat="39.029261" lon="-1.437105">
        <ele>954.901177</ele>
        <time>2021-11-03T16:20:50.182Z</time>
      </trkpt>
      <trkpt lat="39.029315" lon="-1.436981">
        <ele>955.320095</ele>
        <time>2021-11-03T16:20:50.182Z</time>
      </trkpt>
      <trkpt lat="39.029346" lon="-1.436920">
        <ele>955.534906</ele>
        <time>2021-11-03T16:20:50.182Z</time>
      </trkpt>
      <trkpt lat="39.029374" lon="-1.436858">
        <ele>955.746245</ele>
        <time>2021-11-03T16:20:50.182Z</time>
      </trkpt>
      <trkpt lat="39.029438" lon="-1.436683">
        <ele>956.316243</ele>
        <time>2021-11-03T16:20:50.182Z</time>
      </trkpt>
      <trkpt lat="39.029446" lon="-1.436656">
        <ele>956.401401</ele>
        <time>2021-11-03T16:20:50.182Z</time>
      </trkpt>
      <trkpt lat="39.029471" lon="-1.436513">
        <ele>956.833346</ele>
        <time>2021-11-03T16:20:50.182Z</time>
      </trkpt>
      <trkpt lat="39.029502" lon="-1.436394">
        <ele>957.203219</ele>
        <time>2021-11-03T16:20:50.182Z</time>
      </trkpt>
      <trkpt lat="39.029519" lon="-1.436337">
        <ele>957.383146</ele>
        <time>2021-11-03T16:20:50.182Z</time>
      </trkpt>
      <trkpt lat="39.029561" lon="-1.436173">
        <ele>957.892022</ele>
        <time>2021-11-03T16:20:50.182Z</time>
      </trkpt>
      <trkpt lat="39.029624" lon="-1.435950">
        <ele>958.591286</ele>
        <time>2021-11-03T16:20:50.182Z</time>
      </trkpt>
      <trkpt lat="39.029648" lon="-1.435894">
        <ele>958.779760</ele>
        <time>2021-11-03T16:20:50.182Z</time>
      </trkpt>
      <trkpt lat="39.029663" lon="-1.435867">
        <ele>958.877580</ele>
        <time>2021-11-03T16:20:50.182Z</time>
      </trkpt>
      <trkpt lat="39.029714" lon="-1.435749">
        <ele>959.275510</ele>
        <time>2021-11-03T16:20:50.182Z</time>
      </trkpt>
      <trkpt lat="39.029800" lon="-1.435523">
        <ele>960.017118</ele>
        <time>2021-11-03T16:20:50.182Z</time>
      </trkpt>
      <trkpt lat="39.029811" lon="-1.435489">
        <ele>960.125655</ele>
        <time>2021-11-03T16:20:50.182Z</time>
      </trkpt>
      <trkpt lat="39.029854" lon="-1.435274">
        <ele>960.779895</ele>
        <time>2021-11-03T16:20:50.182Z</time>
      </trkpt>
      <trkpt lat="39.029879" lon="-1.434999">
        <ele>961.123844</ele>
        <time>2021-11-03T16:20:50.182Z</time>
      </trkpt>
      <trkpt lat="39.029882" lon="-1.434887">
        <ele>960.965655</ele>
        <time>2021-11-03T16:20:50.182Z</time>
      </trkpt>
      <trkpt lat="39.029910" lon="-1.434474">
        <ele>960.380462</ele>
        <time>2021-11-03T16:20:50.182Z</time>
      </trkpt>
      <trkpt lat="39.029921" lon="-1.434436">
        <ele>960.323219</ele>
        <time>2021-11-03T16:20:50.182Z</time>
      </trkpt>
      <trkpt lat="39.030026" lon="-1.434149">
        <ele>959.875419</ele>
        <time>2021-11-03T16:20:50.182Z</time>
      </trkpt>
      <trkpt lat="39.030161" lon="-1.433791">
        <ele>959.313685</ele>
        <time>2021-11-03T16:20:50.182Z</time>
      </trkpt>
      <trkpt lat="39.030272" lon="-1.433549">
        <ele>958.916984</ele>
        <time>2021-11-03T16:20:50.182Z</time>
      </trkpt>
      <trkpt lat="39.030296" lon="-1.433485">
        <ele>958.816669</ele>
        <time>2021-11-03T16:20:50.182Z</time>
      </trkpt>
      <trkpt lat="39.030309" lon="-1.433421">
        <ele>958.723292</ele>
        <time>2021-11-03T16:20:50.182Z</time>
      </trkpt>
      <trkpt lat="39.030305" lon="-1.433359">
        <ele>958.635474</ele>
        <time>2021-11-03T16:20:50.182Z</time>
      </trkpt>
      <trkpt lat="39.030288" lon="-1.433298">
        <ele>958.543996</ele>
        <time>2021-11-03T16:20:50.182Z</time>
      </trkpt>
      <trkpt lat="39.030266" lon="-1.433235">
        <ele>958.446495</ele>
        <time>2021-11-03T16:20:50.182Z</time>
      </trkpt>
      <trkpt lat="39.030235" lon="-1.433174">
        <ele>958.343601</ele>
        <time>2021-11-03T16:20:50.182Z</time>
      </trkpt>
      <trkpt lat="39.030198" lon="-1.433113">
        <ele>958.234356</ele>
        <time>2021-11-03T16:20:50.182Z</time>
      </trkpt>
      <trkpt lat="39.030158" lon="-1.433054">
        <ele>958.123817</ele>
        <time>2021-11-03T16:20:50.182Z</time>
      </trkpt>
      <trkpt lat="39.030114" lon="-1.432993">
        <ele>958.005033</ele>
        <time>2021-11-03T16:20:50.182Z</time>
      </trkpt>
      <trkpt lat="39.030069" lon="-1.432930">
        <ele>957.808483</ele>
        <time>2021-11-03T16:20:50.182Z</time>
      </trkpt>
      <trkpt lat="39.030027" lon="-1.432868">
        <ele>957.619561</ele>
        <time>2021-11-03T16:20:50.182Z</time>
      </trkpt>
      <trkpt lat="39.029903" lon="-1.432673">
        <ele>957.040823</ele>
        <time>2021-11-03T16:20:50.182Z</time>
      </trkpt>
      <trkpt lat="39.029862" lon="-1.432604">
        <ele>956.841318</ele>
        <time>2021-11-03T16:20:50.182Z</time>
      </trkpt>
      <trkpt lat="39.029795" lon="-1.432469">
        <ele>956.473410</ele>
        <time>2021-11-03T16:20:50.182Z</time>
      </trkpt>
      <trkpt lat="39.029774" lon="-1.432403">
        <ele>956.309615</ele>
        <time>2021-11-03T16:20:50.182Z</time>
      </trkpt>
      <trkpt lat="39.029769" lon="-1.432332">
        <ele>956.145890</ele>
        <time>2021-11-03T16:20:50.182Z</time>
      </trkpt>
      <trkpt lat="39.029785" lon="-1.432261">
        <ele>955.976112</ele>
        <time>2021-11-03T16:20:50.182Z</time>
      </trkpt>
      <trkpt lat="39.029860" lon="-1.432121">
        <ele>955.585552</ele>
        <time>2021-11-03T16:20:50.182Z</time>
      </trkpt>
      <trkpt lat="39.030001" lon="-1.431917">
        <ele>954.958454</ele>
        <time>2021-11-03T16:20:50.182Z</time>
      </trkpt>
      <trkpt lat="39.030108" lon="-1.431798">
        <ele>954.540420</ele>
        <time>2021-11-03T16:20:50.182Z</time>
      </trkpt>
      <trkpt lat="39.030149" lon="-1.431731">
        <ele>954.344543</ele>
        <time>2021-11-03T16:20:50.182Z</time>
      </trkpt>
      <trkpt lat="39.030159" lon="-1.431606">
        <ele>954.055956</ele>
        <time>2021-11-03T16:20:50.182Z</time>
      </trkpt>
      <trkpt lat="39.030114" lon="-1.431519">
        <ele>953.815917</ele>
        <time>2021-11-03T16:20:50.182Z</time>
      </trkpt>
      <trkpt lat="39.030073" lon="-1.431437">
        <ele>953.591963</ele>
        <time>2021-11-03T16:20:50.182Z</time>
      </trkpt>
      <trkpt lat="39.030054" lon="-1.431396">
        <ele>953.482323</ele>
        <time>2021-11-03T16:20:50.182Z</time>
      </trkpt>
      <trkpt lat="39.029971" lon="-1.431189">
        <ele>952.947343</ele>
        <time>2021-11-03T16:20:50.182Z</time>
      </trkpt>
      <trkpt lat="39.029930" lon="-1.431072">
        <ele>952.734449</ele>
        <time>2021-11-03T16:20:50.182Z</time>
      </trkpt>
      <trkpt lat="39.029860" lon="-1.430835">
        <ele>953.395639</ele>
        <time>2021-11-03T16:20:50.182Z</time>
      </trkpt>
      <trkpt lat="39.029819" lon="-1.430672">
        <ele>953.842421</ele>
        <time>2021-11-03T16:20:50.182Z</time>
      </trkpt>
      <trkpt lat="39.029754" lon="-1.430428">
        <ele>954.515074</ele>
        <time>2021-11-03T16:20:50.182Z</time>
      </trkpt>
      <trkpt lat="39.029730" lon="-1.430349">
        <ele>954.736277</ele>
        <time>2021-11-03T16:20:50.182Z</time>
      </trkpt>
      <trkpt lat="39.029645" lon="-1.430112">
        <ele>955.416992</ele>
        <time>2021-11-03T16:20:50.182Z</time>
      </trkpt>
      <trkpt lat="39.029614" lon="-1.430036">
        <ele>955.640838</ele>
        <time>2021-11-03T16:20:50.182Z</time>
      </trkpt>
      <trkpt lat="39.029553" lon="-1.429780">
        <ele>956.339112</ele>
        <time>2021-11-03T16:20:50.182Z</time>
      </trkpt>
      <trkpt lat="39.029536" lon="-1.429431">
        <ele>957.250991</ele>
        <time>2021-11-03T16:20:50.182Z</time>
      </trkpt>
      <trkpt lat="39.029579" lon="-1.429094">
        <ele>958.141565</ele>
        <time>2021-11-03T16:20:50.182Z</time>
      </trkpt>
      <trkpt lat="39.029641" lon="-1.428861">
        <ele>958.816248</ele>
        <time>2021-11-03T16:20:50.182Z</time>
      </trkpt>
      <trkpt lat="39.029649" lon="-1.428829">
        <ele>958.955559</ele>
        <time>2021-11-03T16:20:50.182Z</time>
      </trkpt>
      <trkpt lat="39.029679" lon="-1.428689">
        <ele>959.557408</ele>
        <time>2021-11-03T16:20:50.182Z</time>
      </trkpt>
      <trkpt lat="39.029695" lon="-1.428615">
        <ele>959.875731</ele>
        <time>2021-11-03T16:20:50.182Z</time>
      </trkpt>
      <trkpt lat="39.029731" lon="-1.428366">
        <ele>960.925341</ele>
        <time>2021-11-03T16:20:50.182Z</time>
      </trkpt>
      <trkpt lat="39.029732" lon="-1.428334">
        <ele>961.058060</ele>
        <time>2021-11-03T16:20:50.182Z</time>
      </trkpt>
      <trkpt lat="39.029733" lon="-1.428125">
        <ele>961.924201</ele>
        <time>2021-11-03T16:20:50.182Z</time>
      </trkpt>
      <trkpt lat="39.029729" lon="-1.428095">
        <ele>962.050343</ele>
        <time>2021-11-03T16:20:50.182Z</time>
      </trkpt>
      <trkpt lat="39.029729" lon="-1.427965">
        <ele>962.589080</ele>
        <time>2021-11-03T16:20:50.182Z</time>
      </trkpt>
      <trkpt lat="39.029731" lon="-1.427899">
        <ele>962.862801</ele>
        <time>2021-11-03T16:20:50.182Z</time>
      </trkpt>
      <trkpt lat="39.029733" lon="-1.427723">
        <ele>963.592247</ele>
        <time>2021-11-03T16:20:50.182Z</time>
      </trkpt>
      <trkpt lat="39.029725" lon="-1.427660">
        <ele>963.856793</ele>
        <time>2021-11-03T16:20:50.182Z</time>
      </trkpt>
      <trkpt lat="39.029709" lon="-1.427569">
        <ele>964.243448</ele>
        <time>2021-11-03T16:20:50.182Z</time>
      </trkpt>
      <trkpt lat="39.029666" lon="-1.427445">
        <ele>964.806198</ele>
        <time>2021-11-03T16:20:50.182Z</time>
      </trkpt>
      <trkpt lat="39.029636" lon="-1.427326">
        <ele>965.324670</ele>
        <time>2021-11-03T16:20:50.182Z</time>
      </trkpt>
      <trkpt lat="39.029608" lon="-1.427234">
        <ele>965.734148</ele>
        <time>2021-11-03T16:20:50.182Z</time>
      </trkpt>
      <trkpt lat="39.029591" lon="-1.427067">
        <ele>966.432136</ele>
        <time>2021-11-03T16:20:50.182Z</time>
      </trkpt>
      <trkpt lat="39.029587" lon="-1.427044">
        <ele>966.529811</ele>
        <time>2021-11-03T16:20:50.182Z</time>
      </trkpt>
      <trkpt lat="39.029628" lon="-1.426935">
        <ele>967.031691</ele>
        <time>2021-11-03T16:20:50.182Z</time>
      </trkpt>
      <trkpt lat="39.029660" lon="-1.426877">
        <ele>967.326506</ele>
        <time>2021-11-03T16:20:50.182Z</time>
      </trkpt>
      <trkpt lat="39.029720" lon="-1.426775">
        <ele>967.856724</ele>
        <time>2021-11-03T16:20:50.182Z</time>
      </trkpt>
      <trkpt lat="39.029762" lon="-1.426693">
        <ele>968.263761</ele>
        <time>2021-11-03T16:20:50.182Z</time>
      </trkpt>
      <trkpt lat="39.029856" lon="-1.426530">
        <ele>969.203033</ele>
        <time>2021-11-03T16:20:50.182Z</time>
      </trkpt>
      <trkpt lat="39.029912" lon="-1.426456">
        <ele>969.684877</ele>
        <time>2021-11-03T16:20:50.182Z</time>
      </trkpt>
      <trkpt lat="39.029945" lon="-1.426405">
        <ele>969.994456</ele>
        <time>2021-11-03T16:20:50.182Z</time>
      </trkpt>
      <trkpt lat="39.029994" lon="-1.426340">
        <ele>970.416906</ele>
        <time>2021-11-03T16:20:50.182Z</time>
      </trkpt>
      <trkpt lat="39.030090" lon="-1.426232">
        <ele>971.182389</ele>
        <time>2021-11-03T16:20:50.182Z</time>
      </trkpt>
      <trkpt lat="39.030121" lon="-1.426188">
        <ele>971.459442</ele>
        <time>2021-11-03T16:20:50.182Z</time>
      </trkpt>
      <trkpt lat="39.030165" lon="-1.426125">
        <ele>971.854576</ele>
        <time>2021-11-03T16:20:50.182Z</time>
      </trkpt>
      <trkpt lat="39.030183" lon="-1.426101">
        <ele>972.010172</ele>
        <time>2021-11-03T16:20:50.182Z</time>
      </trkpt>
      <trkpt lat="39.030295" lon="-1.425985">
        <ele>972.873258</ele>
        <time>2021-11-03T16:20:50.182Z</time>
      </trkpt>
      <trkpt lat="39.030334" lon="-1.425950">
        <ele>973.158703</ele>
        <time>2021-11-03T16:20:50.182Z</time>
      </trkpt>
      <trkpt lat="39.030441" lon="-1.425859">
        <ele>973.928682</ele>
        <time>2021-11-03T16:20:50.182Z</time>
      </trkpt>
      <trkpt lat="39.030459" lon="-1.425844">
        <ele>974.057424</ele>
        <time>2021-11-03T16:20:50.182Z</time>
      </trkpt>
      <trkpt lat="39.030540" lon="-1.425784">
        <ele>974.618522</ele>
        <time>2021-11-03T16:20:50.182Z</time>
      </trkpt>
      <trkpt lat="39.030615" lon="-1.425721">
        <ele>975.156217</ele>
        <time>2021-11-03T16:20:50.182Z</time>
      </trkpt>
      <trkpt lat="39.030673" lon="-1.425681">
        <ele>975.551280</ele>
        <time>2021-11-03T16:20:50.182Z</time>
      </trkpt>
      <trkpt lat="39.030693" lon="-1.425666">
        <ele>975.690255</ele>
        <time>2021-11-03T16:20:50.182Z</time>
      </trkpt>
      <trkpt lat="39.030712" lon="-1.425651">
        <ele>975.824077</ele>
        <time>2021-11-03T16:20:50.182Z</time>
      </trkpt>
      <trkpt lat="39.030757" lon="-1.425624">
        <ele>976.122167</ele>
        <time>2021-11-03T16:20:50.182Z</time>
      </trkpt>
      <trkpt lat="39.030943" lon="-1.425535">
        <ele>977.313581</ele>
        <time>2021-11-03T16:20:50.182Z</time>
      </trkpt>
      <trkpt lat="39.030994" lon="-1.425522">
        <ele>977.625735</ele>
        <time>2021-11-03T16:20:50.182Z</time>
      </trkpt>
      <trkpt lat="39.031134" lon="-1.425518">
        <ele>978.466516</ele>
        <time>2021-11-03T16:20:50.182Z</time>
      </trkpt>
      <trkpt lat="39.031260" lon="-1.425526">
        <ele>979.204241</ele>
        <time>2021-11-03T16:20:50.182Z</time>
      </trkpt>
      <trkpt lat="39.031298" lon="-1.425531">
        <ele>979.388662</ele>
        <time>2021-11-03T16:20:50.182Z</time>
      </trkpt>
      <trkpt lat="39.031358" lon="-1.425537">
        <ele>979.679215</ele>
        <time>2021-11-03T16:20:50.182Z</time>
      </trkpt>
      <trkpt lat="39.031437" lon="-1.425503">
        <ele>980.081379</ele>
        <time>2021-11-03T16:20:50.182Z</time>
      </trkpt>
      <trkpt lat="39.031471" lon="-1.425470">
        <ele>980.286960</ele>
        <time>2021-11-03T16:20:50.182Z</time>
      </trkpt>
      <trkpt lat="39.031489" lon="-1.425453">
        <ele>980.394744</ele>
        <time>2021-11-03T16:20:50.182Z</time>
      </trkpt>
      <trkpt lat="39.031561" lon="-1.425338">
        <ele>980.948688</ele>
        <time>2021-11-03T16:20:50.182Z</time>
      </trkpt>
      <trkpt lat="39.031651" lon="-1.425183">
        <ele>981.674451</ele>
        <time>2021-11-03T16:20:50.182Z</time>
      </trkpt>
      <trkpt lat="39.031669" lon="-1.425161">
        <ele>981.794284</ele>
        <time>2021-11-03T16:20:50.182Z</time>
      </trkpt>
      <trkpt lat="39.031824" lon="-1.425058">
        <ele>982.636446</ele>
        <time>2021-11-03T16:20:50.182Z</time>
      </trkpt>
      <trkpt lat="39.031895" lon="-1.425030">
        <ele>982.994959</ele>
        <time>2021-11-03T16:20:50.182Z</time>
      </trkpt>
      <trkpt lat="39.032056" lon="-1.424970">
        <ele>983.804186</ele>
        <time>2021-11-03T16:20:50.182Z</time>
      </trkpt>
      <trkpt lat="39.032152" lon="-1.424855">
        <ele>984.437302</ele>
        <time>2021-11-03T16:20:50.182Z</time>
      </trkpt>
      <trkpt lat="39.032235" lon="-1.424603">
        <ele>985.463840</ele>
        <time>2021-11-03T16:20:50.182Z</time>
      </trkpt>
      <trkpt lat="39.032254" lon="-1.424528">
        <ele>985.759697</ele>
        <time>2021-11-03T16:20:50.182Z</time>
      </trkpt>
      <trkpt lat="39.032283" lon="-1.424343">
        <ele>986.467501</ele>
        <time>2021-11-03T16:20:50.182Z</time>
      </trkpt>
      <trkpt lat="39.032278" lon="-1.424234">
        <ele>986.877002</ele>
        <time>2021-11-03T16:20:50.182Z</time>
      </trkpt>
      <trkpt lat="39.032246" lon="-1.424100">
        <ele>987.402763</ele>
        <time>2021-11-03T16:20:50.182Z</time>
      </trkpt>
      <trkpt lat="39.032165" lon="-1.423837">
        <ele>988.085541</ele>
        <time>2021-11-03T16:20:50.182Z</time>
      </trkpt>
      <trkpt lat="39.032151" lon="-1.423566">
        <ele>988.517329</ele>
        <time>2021-11-03T16:20:50.182Z</time>
      </trkpt>
      <trkpt lat="39.032168" lon="-1.423319">
        <ele>988.911548</ele>
        <time>2021-11-03T16:20:50.182Z</time>
      </trkpt>
      <trkpt lat="39.032170" lon="-1.423284">
        <ele>988.967342</ele>
        <time>2021-11-03T16:20:50.182Z</time>
      </trkpt>
      <trkpt lat="39.032151" lon="-1.423068">
        <ele>989.312934</ele>
        <time>2021-11-03T16:20:50.182Z</time>
      </trkpt>
      <trkpt lat="39.032127" lon="-1.422997">
        <ele>989.436034</ele>
        <time>2021-11-03T16:20:50.182Z</time>
      </trkpt>
      <trkpt lat="39.032010" lon="-1.422832">
        <ele>989.791209</ele>
        <time>2021-11-03T16:20:50.182Z</time>
      </trkpt>
      <trkpt lat="39.031755" lon="-1.422644">
        <ele>990.392624</ele>
        <time>2021-11-03T16:20:50.182Z</time>
      </trkpt>
      <trkpt lat="39.031674" lon="-1.422608">
        <ele>990.568002</ele>
        <time>2021-11-03T16:20:50.182Z</time>
      </trkpt>
      <trkpt lat="39.031582" lon="-1.422591">
        <ele>990.758221</ele>
        <time>2021-11-03T16:20:50.182Z</time>
      </trkpt>
      <trkpt lat="39.031534" lon="-1.422594">
        <ele>990.856575</ele>
        <time>2021-11-03T16:20:50.182Z</time>
      </trkpt>
      <trkpt lat="39.031386" lon="-1.422620">
        <ele>991.162283</ele>
        <time>2021-11-03T16:20:50.182Z</time>
      </trkpt>
      <trkpt lat="39.031253" lon="-1.422663">
        <ele>991.442937</ele>
        <time>2021-11-03T16:20:50.182Z</time>
      </trkpt>
      <trkpt lat="39.031172" lon="-1.422690">
        <ele>991.656210</ele>
        <time>2021-11-03T16:20:50.182Z</time>
      </trkpt>
      <trkpt lat="39.030852" lon="-1.422756">
        <ele>992.541024</ele>
        <time>2021-11-03T16:20:50.182Z</time>
      </trkpt>
      <trkpt lat="39.030529" lon="-1.422845">
        <ele>993.442861</ele>
        <time>2021-11-03T16:20:50.182Z</time>
      </trkpt>
      <trkpt lat="39.030356" lon="-1.422905">
        <ele>993.932031</ele>
        <time>2021-11-03T16:20:50.182Z</time>
      </trkpt>
      <trkpt lat="39.030253" lon="-1.422896">
        <ele>994.213891</ele>
        <time>2021-11-03T16:20:50.182Z</time>
      </trkpt>
      <trkpt lat="39.030196" lon="-1.422858">
        <ele>994.389144</ele>
        <time>2021-11-03T16:20:50.182Z</time>
      </trkpt>
      <trkpt lat="39.030152" lon="-1.422797">
        <ele>994.565691</ele>
        <time>2021-11-03T16:20:50.182Z</time>
      </trkpt>
      <trkpt lat="39.030098" lon="-1.422704">
        <ele>994.811943</ele>
        <time>2021-11-03T16:20:50.182Z</time>
      </trkpt>
      <trkpt lat="39.030038" lon="-1.422538">
        <ele>995.200254</ele>
        <time>2021-11-03T16:20:50.182Z</time>
      </trkpt>
      <trkpt lat="39.030018" lon="-1.422467">
        <ele>995.360432</ele>
        <time>2021-11-03T16:20:50.182Z</time>
      </trkpt>
      <trkpt lat="39.029953" lon="-1.422228">
        <ele>995.897490</ele>
        <time>2021-11-03T16:20:50.182Z</time>
      </trkpt>
      <trkpt lat="39.029879" lon="-1.421900">
        <ele>996.707698</ele>
        <time>2021-11-03T16:20:50.182Z</time>
      </trkpt>
      <trkpt lat="39.029864" lon="-1.421827">
        <ele>996.929519</ele>
        <time>2021-11-03T16:20:50.182Z</time>
      </trkpt>
      <trkpt lat="39.029840" lon="-1.421607">
        <ele>997.582135</ele>
        <time>2021-11-03T16:20:50.182Z</time>
      </trkpt>
      <trkpt lat="39.029839" lon="-1.421329">
        <ele>998.398800</ele>
        <time>2021-11-03T16:20:50.182Z</time>
      </trkpt>
      <trkpt lat="39.029839" lon="-1.421256">
        <ele>998.613245</ele>
        <time>2021-11-03T16:20:50.182Z</time>
      </trkpt>
      <trkpt lat="39.029757" lon="-1.421068">
        <ele>999.246618</ele>
        <time>2021-11-03T16:20:50.182Z</time>
      </trkpt>
      <trkpt lat="39.029717" lon="-1.421022">
        <ele>999.449450</ele>
        <time>2021-11-03T16:20:50.182Z</time>
      </trkpt>
      <trkpt lat="39.029617" lon="-1.420924">
        <ele>999.924722</ele>
        <time>2021-11-03T16:20:50.182Z</time>
      </trkpt>
      <trkpt lat="39.029580" lon="-1.420883">
        <ele>1000.109340</ele>
        <time>2021-11-03T16:20:50.182Z</time>
      </trkpt>
      <trkpt lat="39.029483" lon="-1.420785">
        <ele>1000.575636</ele>
        <time>2021-11-03T16:20:50.182Z</time>
      </trkpt>
      <trkpt lat="39.029402" lon="-1.420708">
        <ele>1000.956412</ele>
        <time>2021-11-03T16:20:50.182Z</time>
      </trkpt>
      <trkpt lat="39.029299" lon="-1.420615">
        <ele>1001.432177</ele>
        <time>2021-11-03T16:20:50.182Z</time>
      </trkpt>
      <trkpt lat="39.029075" lon="-1.420402">
        <ele>1002.485297</ele>
        <time>2021-11-03T16:20:50.182Z</time>
      </trkpt>
      <trkpt lat="39.028962" lon="-1.420234">
        <ele>1003.138114</ele>
        <time>2021-11-03T16:20:50.182Z</time>
      </trkpt>
      <trkpt lat="39.028945" lon="-1.420211">
        <ele>1003.249202</ele>
        <time>2021-11-03T16:20:50.182Z</time>
      </trkpt>
      <trkpt lat="39.028839" lon="-1.420049">
        <ele>1004.234035</ele>
        <time>2021-11-03T16:20:50.182Z</time>
      </trkpt>
      <trkpt lat="39.028806" lon="-1.420001">
        <ele>1004.532068</ele>
        <time>2021-11-03T16:20:50.182Z</time>
      </trkpt>
      <trkpt lat="39.028689" lon="-1.419833">
        <ele>1005.581155</ele>
        <time>2021-11-03T16:20:50.182Z</time>
      </trkpt>
      <trkpt lat="39.028624" lon="-1.419738">
        <ele>1006.169774</ele>
        <time>2021-11-03T16:20:50.182Z</time>
      </trkpt>
      <trkpt lat="39.028558" lon="-1.419645">
        <ele>1006.755467</ele>
        <time>2021-11-03T16:20:50.182Z</time>
      </trkpt>
      <trkpt lat="39.028520" lon="-1.419606">
        <ele>1007.046352</ele>
        <time>2021-11-03T16:20:50.182Z</time>
      </trkpt>
      <trkpt lat="39.028431" lon="-1.419459">
        <ele>1007.912919</ele>
        <time>2021-11-03T16:20:50.182Z</time>
      </trkpt>
      <trkpt lat="39.028336" lon="-1.419308">
        <ele>1008.816390</ele>
        <time>2021-11-03T16:20:50.182Z</time>
      </trkpt>
      <trkpt lat="39.028318" lon="-1.419285">
        <ele>1008.968192</ele>
        <time>2021-11-03T16:20:50.182Z</time>
      </trkpt>
      <trkpt lat="39.028213" lon="-1.419124">
        <ele>1009.945620</ele>
        <time>2021-11-03T16:20:50.182Z</time>
      </trkpt>
      <trkpt lat="39.028190" lon="-1.419082">
        <ele>1010.184551</ele>
        <time>2021-11-03T16:20:50.182Z</time>
      </trkpt>
      <trkpt lat="39.028130" lon="-1.418982">
        <ele>1010.772057</ele>
        <time>2021-11-03T16:20:50.182Z</time>
      </trkpt>
      <trkpt lat="39.028079" lon="-1.418882">
        <ele>1011.328272</ele>
        <time>2021-11-03T16:20:50.182Z</time>
      </trkpt>
      <trkpt lat="39.028050" lon="-1.418823">
        <ele>1011.652904</ele>
        <time>2021-11-03T16:20:50.182Z</time>
      </trkpt>
      <trkpt lat="39.028020" lon="-1.418738">
        <ele>1012.087004</ele>
        <time>2021-11-03T16:20:50.182Z</time>
      </trkpt>
      <trkpt lat="39.027998" lon="-1.418657">
        <ele>1012.485984</ele>
        <time>2021-11-03T16:20:50.182Z</time>
      </trkpt>
      <trkpt lat="39.027985" lon="-1.418617">
        <ele>1012.687592</ele>
        <time>2021-11-03T16:20:50.182Z</time>
      </trkpt>
      <trkpt lat="39.027933" lon="-1.418489">
        <ele>1013.359220</ele>
        <time>2021-11-03T16:20:50.182Z</time>
      </trkpt>
      <trkpt lat="39.027877" lon="-1.418356">
        <ele>1013.997067</ele>
        <time>2021-11-03T16:20:50.182Z</time>
      </trkpt>
      <trkpt lat="39.027866" lon="-1.418335">
        <ele>1014.034630</ele>
        <time>2021-11-03T16:20:50.182Z</time>
      </trkpt>
      <trkpt lat="39.027831" lon="-1.418277">
        <ele>1014.143550</ele>
        <time>2021-11-03T16:20:50.182Z</time>
      </trkpt>
      <trkpt lat="39.027820" lon="-1.418258">
        <ele>1014.178693</ele>
        <time>2021-11-03T16:20:50.182Z</time>
      </trkpt>
      <trkpt lat="39.027794" lon="-1.418223">
        <ele>1014.250512</ele>
        <time>2021-11-03T16:20:50.182Z</time>
      </trkpt>
      <trkpt lat="39.027765" lon="-1.418191">
        <ele>1014.323433</ele>
        <time>2021-11-03T16:20:50.182Z</time>
      </trkpt>
      <trkpt lat="39.027750" lon="-1.418175">
        <ele>1014.360623</ele>
        <time>2021-11-03T16:20:50.182Z</time>
      </trkpt>
      <trkpt lat="39.027698" lon="-1.418134">
        <ele>1014.477037</ele>
        <time>2021-11-03T16:20:50.182Z</time>
      </trkpt>
      <trkpt lat="39.027618" lon="-1.418073">
        <ele>1014.654547</ele>
        <time>2021-11-03T16:20:50.182Z</time>
      </trkpt>
      <trkpt lat="39.027583" lon="-1.418048">
        <ele>1014.730963</ele>
        <time>2021-11-03T16:20:50.182Z</time>
      </trkpt>
      <trkpt lat="39.027501" lon="-1.417979">
        <ele>1014.917987</ele>
        <time>2021-11-03T16:20:50.182Z</time>
      </trkpt>
      <trkpt lat="39.027486" lon="-1.417960">
        <ele>1014.958162</ele>
        <time>2021-11-03T16:20:50.182Z</time>
      </trkpt>
      <trkpt lat="39.027444" lon="-1.417900">
        <ele>1015.077942</ele>
        <time>2021-11-03T16:20:50.182Z</time>
      </trkpt>
      <trkpt lat="39.027379" lon="-1.417808">
        <ele>1015.262373</ele>
        <time>2021-11-03T16:20:50.182Z</time>
      </trkpt>
      <trkpt lat="39.027358" lon="-1.417780">
        <ele>1015.320094</ele>
        <time>2021-11-03T16:20:50.182Z</time>
      </trkpt>
      <trkpt lat="39.027288" lon="-1.417674">
        <ele>1015.526424</ele>
        <time>2021-11-03T16:20:50.182Z</time>
      </trkpt>
      <trkpt lat="39.027238" lon="-1.417579">
        <ele>1015.696606</ele>
        <time>2021-11-03T16:20:50.182Z</time>
      </trkpt>
      <trkpt lat="39.027212" lon="-1.417523">
        <ele>1015.793360</ele>
        <time>2021-11-03T16:20:50.182Z</time>
      </trkpt>
      <trkpt lat="39.027124" lon="-1.417327">
        <ele>1016.129098</ele>
        <time>2021-11-03T16:20:50.182Z</time>
      </trkpt>
      <trkpt lat="39.027094" lon="-1.417257">
        <ele>1016.247663</ele>
        <time>2021-11-03T16:20:50.182Z</time>
      </trkpt>
      <trkpt lat="39.027025" lon="-1.417121">
        <ele>1016.488566</ele>
        <time>2021-11-03T16:20:50.182Z</time>
      </trkpt>
      <trkpt lat="39.026914" lon="-1.416963">
        <ele>1016.804499</ele>
        <time>2021-11-03T16:20:50.182Z</time>
      </trkpt>
      <trkpt lat="39.026715" lon="-1.416740">
        <ele>1017.308196</ele>
        <time>2021-11-03T16:20:50.182Z</time>
      </trkpt>
      <trkpt lat="39.026682" lon="-1.416708">
        <ele>1017.387071</ele>
        <time>2021-11-03T16:20:50.182Z</time>
      </trkpt>
      <trkpt lat="39.026619" lon="-1.416645">
        <ele>1017.564722</ele>
        <time>2021-11-03T16:20:50.182Z</time>
      </trkpt>
      <trkpt lat="39.026375" lon="-1.416366">
        <ele>1018.301217</ele>
        <time>2021-11-03T16:20:50.182Z</time>
      </trkpt>
      <trkpt lat="39.026140" lon="-1.416047">
        <ele>1019.071924</ele>
        <time>2021-11-03T16:20:50.182Z</time>
      </trkpt>
      <trkpt lat="39.026020" lon="-1.415828">
        <ele>1019.541751</ele>
        <time>2021-11-03T16:20:50.182Z</time>
      </trkpt>
      <trkpt lat="39.025981" lon="-1.415730">
        <ele>1019.734787</ele>
        <time>2021-11-03T16:20:50.182Z</time>
      </trkpt>
      <trkpt lat="39.025904" lon="-1.415420">
        <ele>1020.305357</ele>
        <time>2021-11-03T16:20:50.182Z</time>
      </trkpt>
      <trkpt lat="39.025874" lon="-1.415323">
        <ele>1020.488390</ele>
        <time>2021-11-03T16:20:50.182Z</time>
      </trkpt>
      <trkpt lat="39.025826" lon="-1.415130">
        <ele>1020.843659</ele>
        <time>2021-11-03T16:20:50.182Z</time>
      </trkpt>
      <trkpt lat="39.025795" lon="-1.414991">
        <ele>1021.097185</ele>
        <time>2021-11-03T16:20:50.182Z</time>
      </trkpt>
      <trkpt lat="39.025784" lon="-1.414947">
        <ele>1021.178219</ele>
        <time>2021-11-03T16:20:50.182Z</time>
      </trkpt>
      <trkpt lat="39.025689" lon="-1.414717">
        <ele>1021.880585</ele>
        <time>2021-11-03T16:20:50.182Z</time>
      </trkpt>
      <trkpt lat="39.025672" lon="-1.414694">
        <ele>1022.014022</ele>
        <time>2021-11-03T16:20:50.182Z</time>
      </trkpt>
      <trkpt lat="39.025607" lon="-1.414630">
        <ele>1022.456787</ele>
        <time>2021-11-03T16:20:50.182Z</time>
      </trkpt>
      <trkpt lat="39.025528" lon="-1.414487">
        <ele>1023.194322</ele>
        <time>2021-11-03T16:20:50.182Z</time>
      </trkpt>
      <trkpt lat="39.025513" lon="-1.414456">
        <ele>1023.347828</ele>
        <time>2021-11-03T16:20:50.182Z</time>
      </trkpt>
      <trkpt lat="39.025389" lon="-1.414220">
        <ele>1024.545353</ele>
        <time>2021-11-03T16:20:50.182Z</time>
      </trkpt>
      <trkpt lat="39.025340" lon="-1.414141">
        <ele>1024.970256</ele>
        <time>2021-11-03T16:20:50.182Z</time>
      </trkpt>
      <trkpt lat="39.025234" lon="-1.414038">
        <ele>1025.688822</ele>
        <time>2021-11-03T16:20:50.182Z</time>
      </trkpt>
      <trkpt lat="39.025173" lon="-1.413988">
        <ele>1026.080091</ele>
        <time>2021-11-03T16:20:50.182Z</time>
      </trkpt>
      <trkpt lat="39.025151" lon="-1.413975">
        <ele>1026.211064</ele>
        <time>2021-11-03T16:20:50.182Z</time>
      </trkpt>
      <trkpt lat="39.025053" lon="-1.413904">
        <ele>1026.819500</ele>
        <time>2021-11-03T16:20:50.182Z</time>
      </trkpt>
      <trkpt lat="39.025013" lon="-1.413876">
        <ele>1027.065848</ele>
        <time>2021-11-03T16:20:50.182Z</time>
      </trkpt>
      <trkpt lat="39.024903" lon="-1.413771">
        <ele>1027.806780</ele>
        <time>2021-11-03T16:20:50.182Z</time>
      </trkpt>
      <trkpt lat="39.024866" lon="-1.413736">
        <ele>1028.055208</ele>
        <time>2021-11-03T16:20:50.182Z</time>
      </trkpt>
      <trkpt lat="39.024808" lon="-1.413683">
        <ele>1028.440047</ele>
        <time>2021-11-03T16:20:50.182Z</time>
      </trkpt>
      <trkpt lat="39.024712" lon="-1.413600">
        <ele>1029.065736</ele>
        <time>2021-11-03T16:20:50.182Z</time>
      </trkpt>
      <trkpt lat="39.024559" lon="-1.413470">
        <ele>1030.057614</ele>
        <time>2021-11-03T16:20:50.182Z</time>
      </trkpt>
      <trkpt lat="39.024464" lon="-1.413380">
        <ele>1030.695808</ele>
        <time>2021-11-03T16:20:50.182Z</time>
      </trkpt>
      <trkpt lat="39.024445" lon="-1.413360">
        <ele>1030.828603</ele>
        <time>2021-11-03T16:20:50.182Z</time>
      </trkpt>
      <trkpt lat="39.024290" lon="-1.413214">
        <ele>1031.937323</ele>
        <time>2021-11-03T16:20:50.182Z</time>
      </trkpt>
      <trkpt lat="39.024247" lon="-1.413186">
        <ele>1032.224820</ele>
        <time>2021-11-03T16:20:50.182Z</time>
      </trkpt>
      <trkpt lat="39.024129" lon="-1.413128">
        <ele>1032.978394</ele>
        <time>2021-11-03T16:20:50.182Z</time>
      </trkpt>
      <trkpt lat="39.023989" lon="-1.413068">
        <ele>1033.858721</ele>
        <time>2021-11-03T16:20:50.182Z</time>
      </trkpt>
      <trkpt lat="39.023967" lon="-1.413054">
        <ele>1034.005138</ele>
        <time>2021-11-03T16:20:50.182Z</time>
      </trkpt>
      <trkpt lat="39.023825" lon="-1.412951">
        <ele>1034.977568</ele>
        <time>2021-11-03T16:20:50.182Z</time>
      </trkpt>
      <trkpt lat="39.023767" lon="-1.412913">
        <ele>1035.365843</ele>
        <time>2021-11-03T16:20:50.182Z</time>
      </trkpt>
      <trkpt lat="39.023727" lon="-1.412884">
        <ele>1035.639736</ele>
        <time>2021-11-03T16:20:50.182Z</time>
      </trkpt>
      <trkpt lat="39.023683" lon="-1.412853">
        <ele>1035.938992</ele>
        <time>2021-11-03T16:20:50.182Z</time>
      </trkpt>
      <trkpt lat="39.023619" lon="-1.412803">
        <ele>1036.385644</ele>
        <time>2021-11-03T16:20:50.182Z</time>
      </trkpt>
      <trkpt lat="39.023514" lon="-1.412722">
        <ele>1037.115966</ele>
        <time>2021-11-03T16:20:50.182Z</time>
      </trkpt>
      <trkpt lat="39.023493" lon="-1.412706">
        <ele>1037.261556</ele>
        <time>2021-11-03T16:20:50.182Z</time>
      </trkpt>
      <trkpt lat="39.023363" lon="-1.412609">
        <ele>1038.158030</ele>
        <time>2021-11-03T16:20:50.182Z</time>
      </trkpt>
      <trkpt lat="39.023324" lon="-1.412572">
        <ele>1038.447077</ele>
        <time>2021-11-03T16:20:50.182Z</time>
      </trkpt>
      <trkpt lat="39.023286" lon="-1.412530">
        <ele>1038.745896</ele>
        <time>2021-11-03T16:20:50.182Z</time>
      </trkpt>
      <trkpt lat="39.023210" lon="-1.412388">
        <ele>1039.545128</ele>
        <time>2021-11-03T16:20:50.182Z</time>
      </trkpt>
      <trkpt lat="39.023200" lon="-1.412357">
        <ele>1039.700706</ele>
        <time>2021-11-03T16:20:50.182Z</time>
      </trkpt>
      <trkpt lat="39.023172" lon="-1.412141">
        <ele>1040.715700</ele>
        <time>2021-11-03T16:20:50.182Z</time>
      </trkpt>
      <trkpt lat="39.023188" lon="-1.411888">
        <ele>1041.892227</ele>
        <time>2021-11-03T16:20:50.182Z</time>
      </trkpt>
      <trkpt lat="39.023210" lon="-1.411492">
        <ele>1042.336880</ele>
        <time>2021-11-03T16:20:50.182Z</time>
      </trkpt>
      <trkpt lat="39.023213" lon="-1.411449">
        <ele>1042.382797</ele>
        <time>2021-11-03T16:20:50.182Z</time>
      </trkpt>
      <trkpt lat="39.023223" lon="-1.411140">
        <ele>1042.711718</ele>
        <time>2021-11-03T16:20:50.182Z</time>
      </trkpt>
      <trkpt lat="39.023228" lon="-1.410718">
        <ele>1043.160588</ele>
        <time>2021-11-03T16:20:50.182Z</time>
      </trkpt>
      <trkpt lat="39.023235" lon="-1.410320">
        <ele>1043.583988</ele>
        <time>2021-11-03T16:20:50.182Z</time>
      </trkpt>
      <trkpt lat="39.023240" lon="-1.410272">
        <ele>1043.635495</ele>
        <time>2021-11-03T16:20:50.182Z</time>
      </trkpt>
      <trkpt lat="39.023269" lon="-1.410039">
        <ele>1043.886462</ele>
        <time>2021-11-03T16:20:50.182Z</time>
      </trkpt>
      <trkpt lat="39.023305" lon="-1.409840">
        <ele>1044.103770</ele>
        <time>2021-11-03T16:20:50.182Z</time>
      </trkpt>
      <trkpt lat="39.023318" lon="-1.409791">
        <ele>1044.158839</ele>
        <time>2021-11-03T16:20:50.182Z</time>
      </trkpt>
      <trkpt lat="39.023414" lon="-1.409509">
        <ele>1044.084509</ele>
        <time>2021-11-03T16:20:50.182Z</time>
      </trkpt>
      <trkpt lat="39.023443" lon="-1.409407">
        <ele>1043.747963</ele>
        <time>2021-11-03T16:20:50.182Z</time>
      </trkpt>
      <trkpt lat="39.023468" lon="-1.409299">
        <ele>1043.398787</ele>
        <time>2021-11-03T16:20:50.182Z</time>
      </trkpt>
      <trkpt lat="39.023483" lon="-1.409185">
        <ele>1043.040528</ele>
        <time>2021-11-03T16:20:50.182Z</time>
      </trkpt>
      <trkpt lat="39.023487" lon="-1.409064">
        <ele>1042.665271</ele>
        <time>2021-11-03T16:20:50.182Z</time>
      </trkpt>
      <trkpt lat="39.023482" lon="-1.409003">
        <ele>1042.475213</ele>
        <time>2021-11-03T16:20:50.182Z</time>
      </trkpt>
      <trkpt lat="39.023442" lon="-1.408739">
        <ele>1041.641799</ele>
        <time>2021-11-03T16:20:50.182Z</time>
      </trkpt>
      <trkpt lat="39.023400" lon="-1.408518">
        <ele>1040.936840</ele>
        <time>2021-11-03T16:20:50.182Z</time>
      </trkpt>
      <trkpt lat="39.023368" lon="-1.408365">
        <ele>1040.445890</ele>
        <time>2021-11-03T16:20:50.182Z</time>
      </trkpt>
      <trkpt lat="39.023334" lon="-1.408199">
        <ele>1039.913964</ele>
        <time>2021-11-03T16:20:50.182Z</time>
      </trkpt>
      <trkpt lat="39.023316" lon="-1.408111">
        <ele>1039.632003</ele>
        <time>2021-11-03T16:20:50.182Z</time>
      </trkpt>
      <trkpt lat="39.023275" lon="-1.407927">
        <ele>1039.038892</ele>
        <time>2021-11-03T16:20:50.182Z</time>
      </trkpt>
      <trkpt lat="39.023230" lon="-1.407741">
        <ele>1038.435270</ele>
        <time>2021-11-03T16:20:50.182Z</time>
      </trkpt>
      <trkpt lat="39.023184" lon="-1.407570">
        <ele>1037.874562</ele>
        <time>2021-11-03T16:20:50.182Z</time>
      </trkpt>
      <trkpt lat="39.023157" lon="-1.407402">
        <ele>1037.342990</ele>
        <time>2021-11-03T16:20:50.182Z</time>
      </trkpt>
      <trkpt lat="39.023146" lon="-1.407230">
        <ele>1036.409817</ele>
        <time>2021-11-03T16:20:50.182Z</time>
      </trkpt>
      <trkpt lat="39.023119" lon="-1.406968">
        <ele>1034.778790</ele>
        <time>2021-11-03T16:20:50.182Z</time>
      </trkpt>
      <trkpt lat="39.023110" lon="-1.406802">
        <ele>1033.751873</ele>
        <time>2021-11-03T16:20:50.182Z</time>
      </trkpt>
      <trkpt lat="39.023116" lon="-1.406708">
        <ele>1033.169822</ele>
        <time>2021-11-03T16:20:50.182Z</time>
      </trkpt>
      <trkpt lat="39.023133" lon="-1.406611">
        <ele>1032.556169</ele>
        <time>2021-11-03T16:20:50.182Z</time>
      </trkpt>
      <trkpt lat="39.023155" lon="-1.406513">
        <ele>1031.926645</ele>
        <time>2021-11-03T16:20:50.182Z</time>
      </trkpt>
      <trkpt lat="39.023178" lon="-1.406420">
        <ele>1031.324342</ele>
        <time>2021-11-03T16:20:50.182Z</time>
      </trkpt>
      <trkpt lat="39.023203" lon="-1.406333">
        <ele>1030.751895</ele>
        <time>2021-11-03T16:20:50.182Z</time>
      </trkpt>
      <trkpt lat="39.023229" lon="-1.406249">
        <ele>1030.193885</ele>
        <time>2021-11-03T16:20:50.182Z</time>
      </trkpt>
      <trkpt lat="39.023254" lon="-1.406163">
        <ele>1029.627222</ele>
        <time>2021-11-03T16:20:50.182Z</time>
      </trkpt>
      <trkpt lat="39.023287" lon="-1.405967">
        <ele>1028.389583</ele>
        <time>2021-11-03T16:20:50.182Z</time>
      </trkpt>
      <trkpt lat="39.023293" lon="-1.405643">
        <ele>1026.389539</ele>
        <time>2021-11-03T16:20:50.182Z</time>
      </trkpt>
      <trkpt lat="39.023285" lon="-1.405437">
        <ele>1025.116680</ele>
        <time>2021-11-03T16:20:50.182Z</time>
      </trkpt>
      <trkpt lat="39.023272" lon="-1.405328">
        <ele>1024.436136</ele>
        <time>2021-11-03T16:20:50.182Z</time>
      </trkpt>
      <trkpt lat="39.023202" lon="-1.405025">
        <ele>1022.711667</ele>
        <time>2021-11-03T16:20:50.182Z</time>
      </trkpt>
      <trkpt lat="39.023185" lon="-1.404926">
        <ele>1022.409911</ele>
        <time>2021-11-03T16:20:50.182Z</time>
      </trkpt>
      <trkpt lat="39.023166" lon="-1.404719">
        <ele>1021.789552</ele>
        <time>2021-11-03T16:20:50.182Z</time>
      </trkpt>
      <trkpt lat="39.023161" lon="-1.404611">
        <ele>1021.467551</ele>
        <time>2021-11-03T16:20:50.182Z</time>
      </trkpt>
      <trkpt lat="39.023156" lon="-1.404503">
        <ele>1021.145551</ele>
        <time>2021-11-03T16:20:50.182Z</time>
      </trkpt>
      <trkpt lat="39.023151" lon="-1.404292">
        <ele>1020.517280</ele>
        <time>2021-11-03T16:20:50.182Z</time>
      </trkpt>
      <trkpt lat="39.023154" lon="-1.404190">
        <ele>1020.213489</ele>
        <time>2021-11-03T16:20:50.182Z</time>
      </trkpt>
      <trkpt lat="39.023161" lon="-1.404088">
        <ele>1019.908734</ele>
        <time>2021-11-03T16:20:50.182Z</time>
      </trkpt>
      <trkpt lat="39.023174" lon="-1.403988">
        <ele>1019.606976</ele>
        <time>2021-11-03T16:20:50.182Z</time>
      </trkpt>
      <trkpt lat="39.023153" lon="-1.403966">
        <ele>1019.503249</ele>
        <time>2021-11-03T16:20:50.182Z</time>
      </trkpt>
      <trkpt lat="39.023131" lon="-1.403964">
        <ele>1019.418759</ele>
        <time>2021-11-03T16:20:50.182Z</time>
      </trkpt>
      <trkpt lat="39.023098" lon="-1.403907">
        <ele>1019.207191</ele>
        <time>2021-11-03T16:20:50.182Z</time>
      </trkpt>
      <trkpt lat="39.023029" lon="-1.403664">
        <ele>1018.437179</ele>
        <time>2021-11-03T16:20:50.182Z</time>
      </trkpt>
      <trkpt lat="39.023019" lon="-1.403599">
        <ele>1018.239969</ele>
        <time>2021-11-03T16:20:50.182Z</time>
      </trkpt>
      <trkpt lat="39.023000" lon="-1.403472">
        <ele>1017.855045</ele>
        <time>2021-11-03T16:20:50.182Z</time>
      </trkpt>
      <trkpt lat="39.022983" lon="-1.403426">
        <ele>1017.703439</ele>
        <time>2021-11-03T16:20:50.182Z</time>
      </trkpt>
      <trkpt lat="39.022965" lon="-1.403397">
        <ele>1017.592965</ele>
        <time>2021-11-03T16:20:50.182Z</time>
      </trkpt>
      <trkpt lat="39.022933" lon="-1.403380">
        <ele>1017.460345</ele>
        <time>2021-11-03T16:20:50.182Z</time>
      </trkpt>
      <trkpt lat="39.022905" lon="-1.403376">
        <ele>1017.352421</ele>
        <time>2021-11-03T16:20:50.182Z</time>
      </trkpt>
      <trkpt lat="39.022883" lon="-1.403351">
        <ele>1017.239996</ele>
        <time>2021-11-03T16:20:50.182Z</time>
      </trkpt>
      <trkpt lat="39.022898" lon="-1.403317">
        <ele>1017.123627</ele>
        <time>2021-11-03T16:20:50.182Z</time>
      </trkpt>
      <trkpt lat="39.022937" lon="-1.403311">
        <ele>1016.973158</ele>
        <time>2021-11-03T16:20:50.182Z</time>
      </trkpt>
      <trkpt lat="39.023009" lon="-1.403307">
        <ele>1016.697076</ele>
        <time>2021-11-03T16:20:50.182Z</time>
      </trkpt>
      <trkpt lat="39.023028" lon="-1.403285">
        <ele>1016.599172</ele>
        <time>2021-11-03T16:20:50.182Z</time>
      </trkpt>
      <trkpt lat="39.023038" lon="-1.403253">
        <ele>1016.496517</ele>
        <time>2021-11-03T16:20:50.182Z</time>
      </trkpt>
      <trkpt lat="39.023046" lon="-1.403217">
        <ele>1016.385076</ele>
        <time>2021-11-03T16:20:50.182Z</time>
      </trkpt>
      <trkpt lat="39.023055" lon="-1.403177">
        <ele>1016.261136</ele>
        <time>2021-11-03T16:20:50.182Z</time>
      </trkpt>
      <trkpt lat="39.023078" lon="-1.403095">
        <ele>1016.028984</ele>
        <time>2021-11-03T16:20:50.182Z</time>
      </trkpt>
      <trkpt lat="39.023102" lon="-1.403010">
        <ele>1016.001796</ele>
        <time>2021-11-03T16:20:50.182Z</time>
      </trkpt>
      <trkpt lat="39.023156" lon="-1.402700">
        <ele>1015.906292</ele>
        <time>2021-11-03T16:20:50.182Z</time>
      </trkpt>
      <trkpt lat="39.023151" lon="-1.402395">
        <ele>1015.814585</ele>
        <time>2021-11-03T16:20:50.182Z</time>
      </trkpt>
      <trkpt lat="39.023153" lon="-1.402353">
        <ele>1015.801935</ele>
        <time>2021-11-03T16:20:50.182Z</time>
      </trkpt>
      <trkpt lat="39.023155" lon="-1.402309">
        <ele>1015.788686</ele>
        <time>2021-11-03T16:20:50.182Z</time>
      </trkpt>
      <trkpt lat="39.023156" lon="-1.402264">
        <ele>1015.775153</ele>
        <time>2021-11-03T16:20:50.182Z</time>
      </trkpt>
      <trkpt lat="39.023156" lon="-1.402219">
        <ele>1015.761625</ele>
        <time>2021-11-03T16:20:50.182Z</time>
      </trkpt>
      <trkpt lat="39.023138" lon="-1.402084">
        <ele>1015.720449</ele>
        <time>2021-11-03T16:20:50.182Z</time>
      </trkpt>
      <trkpt lat="39.023129" lon="-1.402040">
        <ele>1015.706771</ele>
        <time>2021-11-03T16:20:50.182Z</time>
      </trkpt>
      <trkpt lat="39.023119" lon="-1.401996">
        <ele>1015.692990</ele>
        <time>2021-11-03T16:20:50.182Z</time>
      </trkpt>
      <trkpt lat="39.023044" lon="-1.401775">
        <ele>1015.620492</ele>
        <time>2021-11-03T16:20:50.182Z</time>
      </trkpt>
      <trkpt lat="39.023009" lon="-1.401680">
        <ele>1015.588885</ele>
        <time>2021-11-03T16:20:50.182Z</time>
      </trkpt>
      <trkpt lat="39.022994" lon="-1.401579">
        <ele>1015.557973</ele>
        <time>2021-11-03T16:20:50.182Z</time>
      </trkpt>
      <trkpt lat="39.022992" lon="-1.401526">
        <ele>1015.542022</ele>
        <time>2021-11-03T16:20:50.182Z</time>
      </trkpt>
      <trkpt lat="39.022929" lon="-1.401201">
        <ele>1015.441327</ele>
        <time>2021-11-03T16:20:50.182Z</time>
      </trkpt>
      <trkpt lat="39.022913" lon="-1.401147">
        <ele>1015.423953</ele>
        <time>2021-11-03T16:20:50.182Z</time>
      </trkpt>
      <trkpt lat="39.022900" lon="-1.401091">
        <ele>1015.406383</ele>
        <time>2021-11-03T16:20:50.182Z</time>
      </trkpt>
      <trkpt lat="39.022880" lon="-1.400865">
        <ele>1015.338005</ele>
        <time>2021-11-03T16:20:50.182Z</time>
      </trkpt>
      <trkpt lat="39.022882" lon="-1.400752">
        <ele>1015.145073</ele>
        <time>2021-11-03T16:20:50.182Z</time>
      </trkpt>
      <trkpt lat="39.022886" lon="-1.400579">
        <ele>1014.835014</ele>
        <time>2021-11-03T16:20:50.182Z</time>
      </trkpt>
      <trkpt lat="39.022908" lon="-1.400462">
        <ele>1014.619363</ele>
        <time>2021-11-03T16:20:50.182Z</time>
      </trkpt>
      <trkpt lat="39.022964" lon="-1.400170">
        <ele>1014.080557</ele>
        <time>2021-11-03T16:20:50.182Z</time>
      </trkpt>
      <trkpt lat="39.022984" lon="-1.400002">
        <ele>1013.776081</ele>
        <time>2021-11-03T16:20:50.182Z</time>
      </trkpt>
      <trkpt lat="39.022989" lon="-1.399945">
        <ele>1013.673320</ele>
        <time>2021-11-03T16:20:50.182Z</time>
      </trkpt>
      <trkpt lat="39.023005" lon="-1.399832">
        <ele>1013.467552</ele>
        <time>2021-11-03T16:20:50.182Z</time>
      </trkpt>
      <trkpt lat="39.023036" lon="-1.399722">
        <ele>1013.257928</ele>
        <time>2021-11-03T16:20:50.182Z</time>
      </trkpt>
      <trkpt lat="39.023049" lon="-1.399667">
        <ele>1013.154939</ele>
        <time>2021-11-03T16:20:50.182Z</time>
      </trkpt>
      <trkpt lat="39.023083" lon="-1.399426">
        <ele>1012.716140</ele>
        <time>2021-11-03T16:20:50.182Z</time>
      </trkpt>
      <trkpt lat="39.023087" lon="-1.399361">
        <ele>1012.599331</ele>
        <time>2021-11-03T16:20:50.182Z</time>
      </trkpt>
      <trkpt lat="39.023059" lon="-1.399174">
        <ele>1012.258166</ele>
        <time>2021-11-03T16:20:50.182Z</time>
      </trkpt>
      <trkpt lat="39.023050" lon="-1.399046">
        <ele>1012.027924</ele>
        <time>2021-11-03T16:20:50.182Z</time>
      </trkpt>
      <trkpt lat="39.023050" lon="-1.398980">
        <ele>1011.909688</ele>
        <time>2021-11-03T16:20:50.182Z</time>
      </trkpt>
      <trkpt lat="39.023047" lon="-1.398915">
        <ele>1011.793039</ele>
        <time>2021-11-03T16:20:50.182Z</time>
      </trkpt>
      <trkpt lat="39.023044" lon="-1.398850">
        <ele>1011.676390</ele>
        <time>2021-11-03T16:20:50.182Z</time>
      </trkpt>
      <trkpt lat="39.023035" lon="-1.398720">
        <ele>1011.442579</ele>
        <time>2021-11-03T16:20:50.182Z</time>
      </trkpt>
      <trkpt lat="39.023025" lon="-1.398591">
        <ele>1011.210335</ele>
        <time>2021-11-03T16:20:50.182Z</time>
      </trkpt>
      <trkpt lat="39.023015" lon="-1.398526">
        <ele>1011.080345</ele>
        <time>2021-11-03T16:20:50.182Z</time>
      </trkpt>
      <trkpt lat="39.023005" lon="-1.398463">
        <ele>1010.951742</ele>
        <time>2021-11-03T16:20:50.182Z</time>
      </trkpt>
      <trkpt lat="39.022989" lon="-1.398332">
        <ele>1010.686525</ele>
        <time>2021-11-03T16:20:50.182Z</time>
      </trkpt>
      <trkpt lat="39.022967" lon="-1.398201">
        <ele>1010.418475</ele>
        <time>2021-11-03T16:20:50.182Z</time>
      </trkpt>
      <trkpt lat="39.022953" lon="-1.398139">
        <ele>1010.289344</ele>
        <time>2021-11-03T16:20:50.182Z</time>
      </trkpt>
      <trkpt lat="39.022942" lon="-1.398078">
        <ele>1010.164101</ele>
        <time>2021-11-03T16:20:50.182Z</time>
      </trkpt>
      <trkpt lat="39.022917" lon="-1.397956">
        <ele>1009.911757</ele>
        <time>2021-11-03T16:20:50.182Z</time>
      </trkpt>
      <trkpt lat="39.022906" lon="-1.397893">
        <ele>1009.782614</ele>
        <time>2021-11-03T16:20:50.182Z</time>
      </trkpt>
      <trkpt lat="39.022895" lon="-1.397698">
        <ele>1009.391588</ele>
        <time>2021-11-03T16:20:50.182Z</time>
      </trkpt>
      <trkpt lat="39.022858" lon="-1.397446">
        <ele>1008.878668</ele>
        <time>2021-11-03T16:20:50.182Z</time>
      </trkpt>
      <trkpt lat="39.022844" lon="-1.397388">
        <ele>1008.757198</ele>
        <time>2021-11-03T16:20:50.182Z</time>
      </trkpt>
      <trkpt lat="39.022832" lon="-1.397333">
        <ele>1008.642943</ele>
        <time>2021-11-03T16:20:50.182Z</time>
      </trkpt>
      <trkpt lat="39.022811" lon="-1.397104">
        <ele>1008.181764</ele>
        <time>2021-11-03T16:20:50.182Z</time>
      </trkpt>
      <trkpt lat="39.022811" lon="-1.396827">
        <ele>1007.627765</ele>
        <time>2021-11-03T16:20:50.182Z</time>
      </trkpt>
      <trkpt lat="39.022810" lon="-1.396774">
        <ele>1007.521734</ele>
        <time>2021-11-03T16:20:50.182Z</time>
      </trkpt>
      <trkpt lat="39.022802" lon="-1.396721">
        <ele>1007.413752</ele>
        <time>2021-11-03T16:20:50.182Z</time>
      </trkpt>
      <trkpt lat="39.022788" lon="-1.396667">
        <ele>1007.299897</ele>
        <time>2021-11-03T16:20:50.182Z</time>
      </trkpt>
      <trkpt lat="39.022738" lon="-1.396565">
        <ele>1007.058683</ele>
        <time>2021-11-03T16:20:50.182Z</time>
      </trkpt>
      <trkpt lat="39.022704" lon="-1.396520">
        <ele>1006.933140</ele>
        <time>2021-11-03T16:20:50.182Z</time>
      </trkpt>
      <trkpt lat="39.022674" lon="-1.396470">
        <ele>1006.806789</ele>
        <time>2021-11-03T16:20:50.182Z</time>
      </trkpt>
      <trkpt lat="39.022638" lon="-1.396343">
        <ele>1006.518291</ele>
        <time>2021-11-03T16:20:50.182Z</time>
      </trkpt>
      <trkpt lat="39.022627" lon="-1.396196">
        <ele>1005.977762</ele>
        <time>2021-11-03T16:20:50.182Z</time>
      </trkpt>
      <trkpt lat="39.022631" lon="-1.396119">
        <ele>1005.695302</ele>
        <time>2021-11-03T16:20:50.182Z</time>
      </trkpt>
      <trkpt lat="39.022642" lon="-1.396038">
        <ele>1005.394336</ele>
        <time>2021-11-03T16:20:50.182Z</time>
      </trkpt>
      <trkpt lat="39.022671" lon="-1.395774">
        <ele>1004.418450</ele>
        <time>2021-11-03T16:20:50.182Z</time>
      </trkpt>
      <trkpt lat="39.022657" lon="-1.395680">
        <ele>1004.068132</ele>
        <time>2021-11-03T16:20:50.182Z</time>
      </trkpt>
      <trkpt lat="39.022625" lon="-1.395588">
        <ele>1003.699192</ele>
        <time>2021-11-03T16:20:50.182Z</time>
      </trkpt>
      <trkpt lat="39.022543" lon="-1.395405">
        <ele>1002.925964</ele>
        <time>2021-11-03T16:20:50.182Z</time>
      </trkpt>
      <trkpt lat="39.022500" lon="-1.395314">
        <ele>1002.536122</ele>
        <time>2021-11-03T16:20:50.182Z</time>
      </trkpt>
      <trkpt lat="39.022420" lon="-1.395127">
        <ele>1001.754765</ele>
        <time>2021-11-03T16:20:50.182Z</time>
      </trkpt>
      <trkpt lat="39.022384" lon="-1.395033">
        <ele>1001.371178</ele>
        <time>2021-11-03T16:20:50.182Z</time>
      </trkpt>
      <trkpt lat="39.022354" lon="-1.394935">
        <ele>1000.985643</ele>
        <time>2021-11-03T16:20:50.182Z</time>
      </trkpt>
      <trkpt lat="39.022338" lon="-1.394836">
        <ele>1000.615531</ele>
        <time>2021-11-03T16:20:50.182Z</time>
      </trkpt>
      <trkpt lat="39.022330" lon="-1.394645">
        <ele>999.915427</ele>
        <time>2021-11-03T16:20:50.182Z</time>
      </trkpt>
      <trkpt lat="39.022350" lon="-1.394454">
        <ele>999.210017</ele>
        <time>2021-11-03T16:20:50.182Z</time>
      </trkpt>
      <trkpt lat="39.022389" lon="-1.394168">
        <ele>998.147213</ele>
        <time>2021-11-03T16:20:50.182Z</time>
      </trkpt>
      <trkpt lat="39.022427" lon="-1.393975">
        <ele>997.832414</ele>
        <time>2021-11-03T16:20:50.182Z</time>
      </trkpt>
      <trkpt lat="39.022448" lon="-1.393877">
        <ele>997.691605</ele>
        <time>2021-11-03T16:20:50.182Z</time>
      </trkpt>
      <trkpt lat="39.022508" lon="-1.393566">
        <ele>997.247752</ele>
        <time>2021-11-03T16:20:50.182Z</time>
      </trkpt>
      <trkpt lat="39.022508" lon="-1.393348">
        <ele>996.945798</ele>
        <time>2021-11-03T16:20:50.182Z</time>
      </trkpt>
      <trkpt lat="39.022432" lon="-1.392801">
        <ele>996.176122</ele>
        <time>2021-11-03T16:20:50.182Z</time>
      </trkpt>
      <trkpt lat="39.022400" lon="-1.392702">
        <ele>996.027601</ele>
        <time>2021-11-03T16:20:50.182Z</time>
      </trkpt>
      <trkpt lat="39.022278" lon="-1.392424">
        <ele>995.585353</ele>
        <time>2021-11-03T16:20:50.182Z</time>
      </trkpt>
      <trkpt lat="39.022209" lon="-1.392241">
        <ele>995.303602</ele>
        <time>2021-11-03T16:20:50.182Z</time>
      </trkpt>
      <trkpt lat="39.022171" lon="-1.392053">
        <ele>995.034532</ele>
        <time>2021-11-03T16:20:50.182Z</time>
      </trkpt>
      <trkpt lat="39.022159" lon="-1.391960">
        <ele>994.903951</ele>
        <time>2021-11-03T16:20:50.182Z</time>
      </trkpt>
      <trkpt lat="39.022146" lon="-1.391869">
        <ele>994.716346</ele>
        <time>2021-11-03T16:20:50.182Z</time>
      </trkpt>
      <trkpt lat="39.022125" lon="-1.391780">
        <ele>994.512347</ele>
        <time>2021-11-03T16:20:50.182Z</time>
      </trkpt>
      <trkpt lat="39.022102" lon="-1.391692">
        <ele>994.308716</ele>
        <time>2021-11-03T16:20:50.182Z</time>
      </trkpt>
      <trkpt lat="39.022074" lon="-1.391603">
        <ele>994.098123</ele>
        <time>2021-11-03T16:20:50.182Z</time>
      </trkpt>
      <trkpt lat="39.022008" lon="-1.391431">
        <ele>993.677387</ele>
        <time>2021-11-03T16:20:50.182Z</time>
      </trkpt>
      <trkpt lat="39.021982" lon="-1.391340">
        <ele>993.464737</ele>
        <time>2021-11-03T16:20:50.182Z</time>
      </trkpt>
      <trkpt lat="39.021942" lon="-1.391151">
        <ele>993.035114</ele>
        <time>2021-11-03T16:20:50.182Z</time>
      </trkpt>
      <trkpt lat="39.021896" lon="-1.390960">
        <ele>992.596545</ele>
        <time>2021-11-03T16:20:50.182Z</time>
      </trkpt>
      <trkpt lat="39.021818" lon="-1.390662">
        <ele>991.906871</ele>
        <time>2021-11-03T16:20:50.182Z</time>
      </trkpt>
      <trkpt lat="39.021777" lon="-1.390568">
        <ele>991.670440</ele>
        <time>2021-11-03T16:20:50.182Z</time>
      </trkpt>
      <trkpt lat="39.021726" lon="-1.390484">
        <ele>991.436626</ele>
        <time>2021-11-03T16:20:50.182Z</time>
      </trkpt>
      <trkpt lat="39.021615" lon="-1.390322">
        <ele>990.962885</ele>
        <time>2021-11-03T16:20:50.182Z</time>
      </trkpt>
      <trkpt lat="39.021559" lon="-1.390236">
        <ele>990.716779</ele>
        <time>2021-11-03T16:20:50.182Z</time>
      </trkpt>
      <trkpt lat="39.021501" lon="-1.390150">
        <ele>990.467008</ele>
        <time>2021-11-03T16:20:50.182Z</time>
      </trkpt>
      <trkpt lat="39.021389" lon="-1.389986">
        <ele>989.988108</ele>
        <time>2021-11-03T16:20:50.182Z</time>
      </trkpt>
      <trkpt lat="39.021274" lon="-1.389853">
        <ele>989.619330</ele>
        <time>2021-11-03T16:20:50.182Z</time>
      </trkpt>
      <trkpt lat="39.021096" lon="-1.389676">
        <ele>989.157298</ele>
        <time>2021-11-03T16:20:50.182Z</time>
      </trkpt>
      <trkpt lat="39.020993" lon="-1.389533">
        <ele>988.846103</ele>
        <time>2021-11-03T16:20:50.182Z</time>
      </trkpt>
      <trkpt lat="39.020903" lon="-1.389374">
        <ele>988.532158</ele>
        <time>2021-11-03T16:20:50.182Z</time>
      </trkpt>
      <trkpt lat="39.020791" lon="-1.389110">
        <ele>988.052128</ele>
        <time>2021-11-03T16:20:50.182Z</time>
      </trkpt>
      <trkpt lat="39.020758" lon="-1.389019">
        <ele>987.891863</ele>
        <time>2021-11-03T16:20:50.182Z</time>
      </trkpt>
      <trkpt lat="39.020622" lon="-1.388567">
        <ele>987.118323</ele>
        <time>2021-11-03T16:20:50.182Z</time>
      </trkpt>
      <trkpt lat="39.020608" lon="-1.388475">
        <ele>986.968713</ele>
        <time>2021-11-03T16:20:50.182Z</time>
      </trkpt>
      <trkpt lat="39.020599" lon="-1.388383">
        <ele>986.820733</ele>
        <time>2021-11-03T16:20:50.182Z</time>
      </trkpt>
      <trkpt lat="39.020603" lon="-1.388197">
        <ele>986.523787</ele>
        <time>2021-11-03T16:20:50.182Z</time>
      </trkpt>
      <trkpt lat="39.020615" lon="-1.388104">
        <ele>986.373338</ele>
        <time>2021-11-03T16:20:50.182Z</time>
      </trkpt>
      <trkpt lat="39.020656" lon="-1.387828">
        <ele>985.841594</ele>
        <time>2021-11-03T16:20:50.182Z</time>
      </trkpt>
      <trkpt lat="39.020661" lon="-1.387736">
        <ele>985.626527</ele>
        <time>2021-11-03T16:20:50.182Z</time>
      </trkpt>
      <trkpt lat="39.020647" lon="-1.387549">
        <ele>985.188425</ele>
        <time>2021-11-03T16:20:50.182Z</time>
      </trkpt>
      <trkpt lat="39.020628" lon="-1.387456">
        <ele>984.964177</ele>
        <time>2021-11-03T16:20:50.182Z</time>
      </trkpt>
      <trkpt lat="39.020567" lon="-1.387275">
        <ele>984.504085</ele>
        <time>2021-11-03T16:20:50.182Z</time>
      </trkpt>
      <trkpt lat="39.020528" lon="-1.387189">
        <ele>984.271869</ele>
        <time>2021-11-03T16:20:50.182Z</time>
      </trkpt>
      <trkpt lat="39.020484" lon="-1.387106">
        <ele>984.037548</ele>
        <time>2021-11-03T16:20:50.182Z</time>
      </trkpt>
      <trkpt lat="39.020392" lon="-1.386944">
        <ele>983.569598</ele>
        <time>2021-11-03T16:20:50.182Z</time>
      </trkpt>
      <trkpt lat="39.020270" lon="-1.386804">
        <ele>983.079000</ele>
        <time>2021-11-03T16:20:50.182Z</time>
      </trkpt>
      <trkpt lat="39.020199" lon="-1.386747">
        <ele>982.827831</ele>
        <time>2021-11-03T16:20:50.182Z</time>
      </trkpt>
      <trkpt lat="39.020122" lon="-1.386701">
        <ele>982.573028</ele>
        <time>2021-11-03T16:20:50.182Z</time>
      </trkpt>
      <trkpt lat="39.020043" lon="-1.386661">
        <ele>982.318215</ele>
        <time>2021-11-03T16:20:50.182Z</time>
      </trkpt>
      <trkpt lat="39.019962" lon="-1.386626">
        <ele>982.061752</ele>
        <time>2021-11-03T16:20:50.182Z</time>
      </trkpt>
      <trkpt lat="39.019797" lon="-1.386558">
        <ele>981.541722</ele>
        <time>2021-11-03T16:20:50.182Z</time>
      </trkpt>
      <trkpt lat="39.019475" lon="-1.386392">
        <ele>980.270433</ele>
        <time>2021-11-03T16:20:50.182Z</time>
      </trkpt>
      <trkpt lat="39.019395" lon="-1.386344">
        <ele>979.709733</ele>
        <time>2021-11-03T16:20:50.182Z</time>
      </trkpt>
      <trkpt lat="39.019154" lon="-1.386186">
        <ele>977.991636</ele>
        <time>2021-11-03T16:20:50.182Z</time>
      </trkpt>
      <trkpt lat="39.018989" lon="-1.386071">
        <ele>976.799676</ele>
        <time>2021-11-03T16:20:50.182Z</time>
      </trkpt>
      <trkpt lat="39.018905" lon="-1.386013">
        <ele>976.194137</ele>
        <time>2021-11-03T16:20:50.182Z</time>
      </trkpt>
      <trkpt lat="39.018820" lon="-1.385953">
        <ele>975.578307</ele>
        <time>2021-11-03T16:20:50.182Z</time>
      </trkpt>
      <trkpt lat="39.018737" lon="-1.385895">
        <ele>974.978359</ele>
        <time>2021-11-03T16:20:50.182Z</time>
      </trkpt>
      <trkpt lat="39.018583" lon="-1.385797">
        <ele>973.887044</ele>
        <time>2021-11-03T16:20:50.182Z</time>
      </trkpt>
      <trkpt lat="39.018511" lon="-1.385763">
        <ele>973.399856</ele>
        <time>2021-11-03T16:20:50.182Z</time>
      </trkpt>
      <trkpt lat="39.018371" lon="-1.385721">
        <ele>972.486676</ele>
        <time>2021-11-03T16:20:50.182Z</time>
      </trkpt>
      <trkpt lat="39.018236" lon="-1.385722">
        <ele>971.629082</ele>
        <time>2021-11-03T16:20:50.182Z</time>
      </trkpt>
      <trkpt lat="39.018175" lon="-1.385744">
        <ele>971.226657</ele>
        <time>2021-11-03T16:20:50.182Z</time>
      </trkpt>
      <trkpt lat="39.018123" lon="-1.385786">
        <ele>970.836675</ele>
        <time>2021-11-03T16:20:50.182Z</time>
      </trkpt>
      <trkpt lat="39.018082" lon="-1.385847">
        <ele>970.438586</ele>
        <time>2021-11-03T16:20:50.182Z</time>
      </trkpt>
      <trkpt lat="39.018054" lon="-1.385921">
        <ele>970.032349</ele>
        <time>2021-11-03T16:20:50.182Z</time>
      </trkpt>
      <trkpt lat="39.018037" lon="-1.386001">
        <ele>969.623005</ele>
        <time>2021-11-03T16:20:50.182Z</time>
      </trkpt>
      <trkpt lat="39.018026" lon="-1.386086">
        <ele>969.321711</ele>
        <time>2021-11-03T16:20:50.182Z</time>
      </trkpt>
      <trkpt lat="39.018008" lon="-1.386254">
        <ele>969.731780</ele>
        <time>2021-11-03T16:20:50.182Z</time>
      </trkpt>
      <trkpt lat="39.017946" lon="-1.386390">
        <ele>970.113058</ele>
        <time>2021-11-03T16:20:50.182Z</time>
      </trkpt>
      <trkpt lat="39.017901" lon="-1.386438">
        <ele>970.294949</ele>
        <time>2021-11-03T16:20:50.182Z</time>
      </trkpt>
      <trkpt lat="39.017848" lon="-1.386471">
        <ele>970.478181</ele>
        <time>2021-11-03T16:20:50.182Z</time>
      </trkpt>
      <trkpt lat="39.017788" lon="-1.386487">
        <ele>970.668878</ele>
        <time>2021-11-03T16:20:50.182Z</time>
      </trkpt>
      <trkpt lat="39.017674" lon="-1.386483">
        <ele>971.023798</ele>
        <time>2021-11-03T16:20:50.182Z</time>
      </trkpt>
      <trkpt lat="39.017575" lon="-1.386458">
        <ele>971.337778</ele>
        <time>2021-11-03T16:20:50.182Z</time>
      </trkpt>
      <trkpt lat="39.017534" lon="-1.386445">
        <ele>971.469192</ele>
        <time>2021-11-03T16:20:50.182Z</time>
      </trkpt>
      <trkpt lat="39.017470" lon="-1.386428">
        <ele>971.672569</ele>
        <time>2021-11-03T16:20:50.182Z</time>
      </trkpt>
      <trkpt lat="39.017396" lon="-1.386415">
        <ele>971.905006</ele>
        <time>2021-11-03T16:20:50.182Z</time>
      </trkpt>
      <trkpt lat="39.017347" lon="-1.386410">
        <ele>972.057981</ele>
        <time>2021-11-03T16:20:50.182Z</time>
      </trkpt>
      <trkpt lat="39.017321" lon="-1.386407">
        <ele>972.139223</ele>
        <time>2021-11-03T16:20:50.182Z</time>
      </trkpt>
      <trkpt lat="39.017270" lon="-1.386409">
        <ele>972.298017</ele>
        <time>2021-11-03T16:20:50.182Z</time>
      </trkpt>
      <trkpt lat="39.017244" lon="-1.386407">
        <ele>972.379078</ele>
        <time>2021-11-03T16:20:50.182Z</time>
      </trkpt>
      <trkpt lat="39.017165" lon="-1.386406">
        <ele>972.624953</ele>
        <time>2021-11-03T16:20:50.182Z</time>
      </trkpt>
      <trkpt lat="39.017085" lon="-1.386405">
        <ele>972.873939</ele>
        <time>2021-11-03T16:20:50.182Z</time>
      </trkpt>
      <trkpt lat="39.017059" lon="-1.386402">
        <ele>972.955180</ele>
        <time>2021-11-03T16:20:50.182Z</time>
      </trkpt>
      <trkpt lat="39.017006" lon="-1.386402">
        <ele>973.120125</ele>
        <time>2021-11-03T16:20:50.182Z</time>
      </trkpt>
      <trkpt lat="39.016876" lon="-1.386429">
        <ele>973.529942</ele>
        <time>2021-11-03T16:20:50.182Z</time>
      </trkpt>
      <trkpt lat="39.016849" lon="-1.386432">
        <ele>973.614284</ele>
        <time>2021-11-03T16:20:50.182Z</time>
      </trkpt>
      <trkpt lat="39.016691" lon="-1.386464">
        <ele>974.112059</ele>
        <time>2021-11-03T16:20:50.182Z</time>
      </trkpt>
      <trkpt lat="39.016559" lon="-1.386503">
        <ele>974.533552</ele>
        <time>2021-11-03T16:20:50.182Z</time>
      </trkpt>
      <trkpt lat="39.016359" lon="-1.386574">
        <ele>974.984676</ele>
        <time>2021-11-03T16:20:50.182Z</time>
      </trkpt>
      <trkpt lat="39.016151" lon="-1.386641">
        <ele>975.220077</ele>
        <time>2021-11-03T16:20:50.182Z</time>
      </trkpt>
      <trkpt lat="39.015902" lon="-1.386719">
        <ele>975.501429</ele>
        <time>2021-11-03T16:20:50.182Z</time>
      </trkpt>
      <trkpt lat="39.015839" lon="-1.386737">
        <ele>975.572279</ele>
        <time>2021-11-03T16:20:50.182Z</time>
      </trkpt>
      <trkpt lat="39.015559" lon="-1.386839">
        <ele>975.891760</ele>
        <time>2021-11-03T16:20:50.182Z</time>
      </trkpt>
      <trkpt lat="39.015529" lon="-1.386853">
        <ele>975.926794</ele>
        <time>2021-11-03T16:20:50.182Z</time>
      </trkpt>
      <trkpt lat="39.015366" lon="-1.386954">
        <ele>976.125408</ele>
        <time>2021-11-03T16:20:50.182Z</time>
      </trkpt>
      <trkpt lat="39.015340" lon="-1.386975">
        <ele>976.159108</ele>
        <time>2021-11-03T16:20:50.182Z</time>
      </trkpt>
      <trkpt lat="39.015313" lon="-1.386997">
        <ele>976.194191</ele>
        <time>2021-11-03T16:20:50.182Z</time>
      </trkpt>
      <trkpt lat="39.015187" lon="-1.387106">
        <ele>976.360868</ele>
        <time>2021-11-03T16:20:50.182Z</time>
      </trkpt>
      <trkpt lat="39.015145" lon="-1.387154">
        <ele>976.422534</ele>
        <time>2021-11-03T16:20:50.182Z</time>
      </trkpt>
      <trkpt lat="39.015058" lon="-1.387276">
        <ele>976.563791</ele>
        <time>2021-11-03T16:20:50.182Z</time>
      </trkpt>
      <trkpt lat="39.014937" lon="-1.387423">
        <ele>976.746469</ele>
        <time>2021-11-03T16:20:50.182Z</time>
      </trkpt>
      <trkpt lat="39.014793" lon="-1.387597">
        <ele>976.836432</ele>
        <time>2021-11-03T16:20:50.182Z</time>
      </trkpt>
      <trkpt lat="39.014773" lon="-1.387621">
        <ele>976.831822</ele>
        <time>2021-11-03T16:20:50.182Z</time>
      </trkpt>
      <trkpt lat="39.014601" lon="-1.387824">
        <ele>976.792480</ele>
        <time>2021-11-03T16:20:50.182Z</time>
      </trkpt>
      <trkpt lat="39.014579" lon="-1.387844">
        <ele>976.787940</ele>
        <time>2021-11-03T16:20:50.182Z</time>
      </trkpt>
      <trkpt lat="39.014558" lon="-1.387868">
        <ele>976.783205</ele>
        <time>2021-11-03T16:20:50.182Z</time>
      </trkpt>
      <trkpt lat="39.014536" lon="-1.387893">
        <ele>976.778258</ele>
        <time>2021-11-03T16:20:50.182Z</time>
      </trkpt>
      <trkpt lat="39.014489" lon="-1.387942">
        <ele>976.768061</ele>
        <time>2021-11-03T16:20:50.182Z</time>
      </trkpt>
      <trkpt lat="39.014439" lon="-1.387987">
        <ele>976.757776</ele>
        <time>2021-11-03T16:20:50.182Z</time>
      </trkpt>
      <trkpt lat="39.014382" lon="-1.388032">
        <ele>976.746503</ele>
        <time>2021-11-03T16:20:50.182Z</time>
      </trkpt>
      <trkpt lat="39.014248" lon="-1.388118">
        <ele>976.721260</ele>
        <time>2021-11-03T16:20:50.182Z</time>
      </trkpt>
      <trkpt lat="39.014211" lon="-1.388141">
        <ele>976.714333</ele>
        <time>2021-11-03T16:20:50.182Z</time>
      </trkpt>
      <trkpt lat="39.014131" lon="-1.388189">
        <ele>976.699453</ele>
        <time>2021-11-03T16:20:50.182Z</time>
      </trkpt>
      <trkpt lat="39.013898" lon="-1.388314">
        <ele>976.656898</ele>
        <time>2021-11-03T16:20:50.182Z</time>
      </trkpt>
      <trkpt lat="39.013715" lon="-1.388410">
        <ele>976.623584</ele>
        <time>2021-11-03T16:20:50.182Z</time>
      </trkpt>
      <trkpt lat="39.013542" lon="-1.388496">
        <ele>976.592319</ele>
        <time>2021-11-03T16:20:50.182Z</time>
      </trkpt>
      <trkpt lat="39.013459" lon="-1.388535">
        <ele>976.577424</ele>
        <time>2021-11-03T16:20:50.182Z</time>
      </trkpt>
      <trkpt lat="39.013336" lon="-1.388579">
        <ele>976.555902</ele>
        <time>2021-11-03T16:20:50.182Z</time>
      </trkpt>
      <trkpt lat="39.013254" lon="-1.388587">
        <ele>976.722996</ele>
        <time>2021-11-03T16:20:50.182Z</time>
      </trkpt>
      <trkpt lat="39.013016" lon="-1.388639">
        <ele>977.595134</ele>
        <time>2021-11-03T16:20:50.182Z</time>
      </trkpt>
      <trkpt lat="39.012870" lon="-1.388672">
        <ele>978.130668</ele>
        <time>2021-11-03T16:20:50.182Z</time>
      </trkpt>
      <trkpt lat="39.012707" lon="-1.388726">
        <ele>978.738744</ele>
        <time>2021-11-03T16:20:50.182Z</time>
      </trkpt>
      <trkpt lat="39.012675" lon="-1.388736">
        <ele>978.857711</ele>
        <time>2021-11-03T16:20:50.182Z</time>
      </trkpt>
      <trkpt lat="39.012611" lon="-1.388757">
        <ele>979.096324</ele>
        <time>2021-11-03T16:20:50.182Z</time>
      </trkpt>
      <trkpt lat="39.012515" lon="-1.388786">
        <ele>979.452574</ele>
        <time>2021-11-03T16:20:50.182Z</time>
      </trkpt>
      <trkpt lat="39.012448" lon="-1.388804">
        <ele>979.699846</ele>
        <time>2021-11-03T16:20:50.182Z</time>
      </trkpt>
      <trkpt lat="39.012346" lon="-1.388823">
        <ele>980.072186</ele>
        <time>2021-11-03T16:20:50.182Z</time>
      </trkpt>
      <trkpt lat="39.012187" lon="-1.388834">
        <ele>980.647443</ele>
        <time>2021-11-03T16:20:50.182Z</time>
      </trkpt>
      <trkpt lat="39.012096" lon="-1.388835">
        <ele>980.976215</ele>
        <time>2021-11-03T16:20:50.182Z</time>
      </trkpt>
      <trkpt lat="39.012007" lon="-1.388834">
        <ele>981.297763</ele>
        <time>2021-11-03T16:20:50.182Z</time>
      </trkpt>
      <trkpt lat="39.011763" lon="-1.388808">
        <ele>982.182290</ele>
        <time>2021-11-03T16:20:50.182Z</time>
      </trkpt>
      <trkpt lat="39.011734" lon="-1.388803">
        <ele>982.287996</ele>
        <time>2021-11-03T16:20:50.182Z</time>
      </trkpt>
      <trkpt lat="39.011648" lon="-1.388788">
        <ele>982.601533</ele>
        <time>2021-11-03T16:20:50.182Z</time>
      </trkpt>
      <trkpt lat="39.011562" lon="-1.388771">
        <ele>982.915873</ele>
        <time>2021-11-03T16:20:50.182Z</time>
      </trkpt>
      <trkpt lat="39.011533" lon="-1.388764">
        <ele>983.022470</ele>
        <time>2021-11-03T16:20:50.182Z</time>
      </trkpt>
      <trkpt lat="39.011416" lon="-1.388733">
        <ele>983.507577</ele>
        <time>2021-11-03T16:20:50.182Z</time>
      </trkpt>
      <trkpt lat="39.011388" lon="-1.388723">
        <ele>983.626408</ele>
        <time>2021-11-03T16:20:50.182Z</time>
      </trkpt>
      <trkpt lat="39.011330" lon="-1.388703">
        <ele>983.871961</ele>
        <time>2021-11-03T16:20:50.182Z</time>
      </trkpt>
      <trkpt lat="39.011189" lon="-1.388634">
        <ele>984.488846</ele>
        <time>2021-11-03T16:20:50.182Z</time>
      </trkpt>
      <trkpt lat="39.010954" lon="-1.388518">
        <ele>985.518123</ele>
        <time>2021-11-03T16:20:50.182Z</time>
      </trkpt>
      <trkpt lat="39.010924" lon="-1.388509">
        <ele>985.644095</ele>
        <time>2021-11-03T16:20:50.182Z</time>
      </trkpt>
      <trkpt lat="39.010713" lon="-1.388487">
        <ele>986.509789</ele>
        <time>2021-11-03T16:20:50.182Z</time>
      </trkpt>
      <trkpt lat="39.010685" lon="-1.388484">
        <ele>986.624689</ele>
        <time>2021-11-03T16:20:50.182Z</time>
      </trkpt>
      <trkpt lat="39.010571" lon="-1.388475">
        <ele>987.091759</ele>
        <time>2021-11-03T16:20:50.182Z</time>
      </trkpt>
      <trkpt lat="39.010486" lon="-1.388464">
        <ele>987.441112</ele>
        <time>2021-11-03T16:20:50.182Z</time>
      </trkpt>
      <trkpt lat="39.010372" lon="-1.388436">
        <ele>987.915720</ele>
        <time>2021-11-03T16:20:50.182Z</time>
      </trkpt>
      <trkpt lat="39.010290" lon="-1.388403">
        <ele>988.267065</ele>
        <time>2021-11-03T16:20:50.182Z</time>
      </trkpt>
      <trkpt lat="39.010179" lon="-1.388352">
        <ele>988.749052</ele>
        <time>2021-11-03T16:20:50.182Z</time>
      </trkpt>
      <trkpt lat="39.010077" lon="-1.388283">
        <ele>989.220287</ele>
        <time>2021-11-03T16:20:50.182Z</time>
      </trkpt>
      <trkpt lat="39.009985" lon="-1.388201">
        <ele>989.677933</ele>
        <time>2021-11-03T16:20:50.182Z</time>
      </trkpt>
      <trkpt lat="39.009961" lon="-1.388182">
        <ele>989.793162</ele>
        <time>2021-11-03T16:20:50.182Z</time>
      </trkpt>
      <trkpt lat="39.009893" lon="-1.388120">
        <ele>990.133960</ele>
        <time>2021-11-03T16:20:50.182Z</time>
      </trkpt>
      <trkpt lat="39.009870" lon="-1.388098">
        <ele>990.251151</ele>
        <time>2021-11-03T16:20:50.182Z</time>
      </trkpt>
      <trkpt lat="39.009739" lon="-1.387970">
        <ele>990.906736</ele>
        <time>2021-11-03T16:20:50.182Z</time>
      </trkpt>
      <trkpt lat="39.009696" lon="-1.387934">
        <ele>991.109645</ele>
        <time>2021-11-03T16:20:50.182Z</time>
      </trkpt>
      <trkpt lat="39.009609" lon="-1.387867">
        <ele>991.510680</ele>
        <time>2021-11-03T16:20:50.182Z</time>
      </trkpt>
      <trkpt lat="39.009517" lon="-1.387810">
        <ele>991.914559</ele>
        <time>2021-11-03T16:20:50.182Z</time>
      </trkpt>
      <trkpt lat="39.009325" lon="-1.387695">
        <ele>992.752234</ele>
        <time>2021-11-03T16:20:50.182Z</time>
      </trkpt>
      <trkpt lat="39.009276" lon="-1.387666">
        <ele>992.965565</ele>
        <time>2021-11-03T16:20:50.182Z</time>
      </trkpt>
      <trkpt lat="39.009251" lon="-1.387653">
        <ele>993.072219</ele>
        <time>2021-11-03T16:20:50.182Z</time>
      </trkpt>
      <trkpt lat="39.009200" lon="-1.387626">
        <ele>993.290351</ele>
        <time>2021-11-03T16:20:50.182Z</time>
      </trkpt>
      <trkpt lat="39.009022" lon="-1.387517">
        <ele>994.070068</ele>
        <time>2021-11-03T16:20:50.182Z</time>
      </trkpt>
      <trkpt lat="39.008949" lon="-1.387457">
        <ele>994.412683</ele>
        <time>2021-11-03T16:20:50.182Z</time>
      </trkpt>
      <trkpt lat="39.008788" lon="-1.387303">
        <ele>995.206155</ele>
        <time>2021-11-03T16:20:50.182Z</time>
      </trkpt>
      <trkpt lat="39.008765" lon="-1.387280">
        <ele>995.321368</ele>
        <time>2021-11-03T16:20:50.182Z</time>
      </trkpt>
      <trkpt lat="39.008653" lon="-1.387166">
        <ele>995.886198</ele>
        <time>2021-11-03T16:20:50.182Z</time>
      </trkpt>
      <trkpt lat="39.008581" lon="-1.387103">
        <ele>996.230586</ele>
        <time>2021-11-03T16:20:50.182Z</time>
      </trkpt>
      <trkpt lat="39.008531" lon="-1.387064">
        <ele>996.461851</ele>
        <time>2021-11-03T16:20:50.182Z</time>
      </trkpt>
      <trkpt lat="39.008481" lon="-1.387025">
        <ele>996.693115</ele>
        <time>2021-11-03T16:20:50.182Z</time>
      </trkpt>
      <trkpt lat="39.008350" lon="-1.386935">
        <ele>997.280498</ele>
        <time>2021-11-03T16:20:50.182Z</time>
      </trkpt>
      <trkpt lat="39.008324" lon="-1.386919">
        <ele>997.394493</ele>
        <time>2021-11-03T16:20:50.182Z</time>
      </trkpt>
      <trkpt lat="39.008160" lon="-1.386851">
        <ele>997.978599</ele>
        <time>2021-11-03T16:20:50.182Z</time>
      </trkpt>
      <trkpt lat="39.008133" lon="-1.386848">
        <ele>998.067076</ele>
        <time>2021-11-03T16:20:50.182Z</time>
      </trkpt>
      <trkpt lat="39.008106" lon="-1.386847">
        <ele>998.155263</ele>
        <time>2021-11-03T16:20:50.182Z</time>
      </trkpt>
      <trkpt lat="39.007994" lon="-1.386868">
        <ele>998.524781</ele>
        <time>2021-11-03T16:20:50.182Z</time>
      </trkpt>
      <trkpt lat="39.007911" lon="-1.386899">
        <ele>998.806942</ele>
        <time>2021-11-03T16:20:50.182Z</time>
      </trkpt>
      <trkpt lat="39.007682" lon="-1.386947">
        <ele>999.564434</ele>
        <time>2021-11-03T16:20:50.182Z</time>
      </trkpt>
      <trkpt lat="39.007421" lon="-1.386896">
        <ele>1000.426315</ele>
        <time>2021-11-03T16:20:50.182Z</time>
      </trkpt>
      <trkpt lat="39.007356" lon="-1.386887">
        <ele>1000.639752</ele>
        <time>2021-11-03T16:20:50.182Z</time>
      </trkpt>
      <trkpt lat="39.007188" lon="-1.386912">
        <ele>1001.191894</ele>
        <time>2021-11-03T16:20:50.182Z</time>
      </trkpt>
      <trkpt lat="39.006973" lon="-1.386994">
        <ele>1001.924006</ele>
        <time>2021-11-03T16:20:50.182Z</time>
      </trkpt>
      <trkpt lat="39.006851" lon="-1.387033">
        <ele>1002.334417</ele>
        <time>2021-11-03T16:20:50.182Z</time>
      </trkpt>
      <trkpt lat="39.006820" lon="-1.387039">
        <ele>1002.436765</ele>
        <time>2021-11-03T16:20:50.182Z</time>
      </trkpt>
      <trkpt lat="39.006722" lon="-1.387053">
        <ele>1002.758681</ele>
        <time>2021-11-03T16:20:50.182Z</time>
      </trkpt>
      <trkpt lat="39.006599" lon="-1.387064">
        <ele>1003.161220</ele>
        <time>2021-11-03T16:20:50.182Z</time>
      </trkpt>
      <trkpt lat="39.006510" lon="-1.387055">
        <ele>1003.466264</ele>
        <time>2021-11-03T16:20:50.182Z</time>
      </trkpt>
      <trkpt lat="39.006363" lon="-1.387059">
        <ele>1004.050722</ele>
        <time>2021-11-03T16:20:50.182Z</time>
      </trkpt>
      <trkpt lat="39.006331" lon="-1.387061">
        <ele>1004.178073</ele>
        <time>2021-11-03T16:20:50.182Z</time>
      </trkpt>
      <trkpt lat="39.006211" lon="-1.387051">
        <ele>1004.656075</ele>
        <time>2021-11-03T16:20:50.182Z</time>
      </trkpt>
      <trkpt lat="39.006151" lon="-1.387050">
        <ele>1004.894596</ele>
        <time>2021-11-03T16:20:50.182Z</time>
      </trkpt>
      <trkpt lat="39.005982" lon="-1.387024">
        <ele>1005.571159</ele>
        <time>2021-11-03T16:20:50.182Z</time>
      </trkpt>
      <trkpt lat="39.005898" lon="-1.386995">
        <ele>1005.916868</ele>
        <time>2021-11-03T16:20:50.182Z</time>
      </trkpt>
      <trkpt lat="39.005725" lon="-1.386939">
        <ele>1006.625969</ele>
        <time>2021-11-03T16:20:50.182Z</time>
      </trkpt>
      <trkpt lat="39.005696" lon="-1.386927">
        <ele>1006.747058</ele>
        <time>2021-11-03T16:20:50.182Z</time>
      </trkpt>
      <trkpt lat="39.005669" lon="-1.386913">
        <ele>1006.862768</ele>
        <time>2021-11-03T16:20:50.182Z</time>
      </trkpt>
      <trkpt lat="39.005405" lon="-1.386771">
        <ele>1008.000154</ele>
        <time>2021-11-03T16:20:50.182Z</time>
      </trkpt>
      <trkpt lat="39.005258" lon="-1.386697">
        <ele>1008.627601</ele>
        <time>2021-11-03T16:20:50.182Z</time>
      </trkpt>
      <trkpt lat="39.005133" lon="-1.386666">
        <ele>1009.133622</ele>
        <time>2021-11-03T16:20:50.182Z</time>
      </trkpt>
      <trkpt lat="39.005038" lon="-1.386685">
        <ele>1009.515782</ele>
        <time>2021-11-03T16:20:50.182Z</time>
      </trkpt>
      <trkpt lat="39.004956" lon="-1.386713">
        <ele>1009.853014</ele>
        <time>2021-11-03T16:20:50.182Z</time>
      </trkpt>
      <trkpt lat="39.004930" lon="-1.386721">
        <ele>1009.959278</ele>
        <time>2021-11-03T16:20:50.182Z</time>
      </trkpt>
      <trkpt lat="39.004823" lon="-1.386782">
        <ele>1010.424475</ele>
        <time>2021-11-03T16:20:50.182Z</time>
      </trkpt>
      <trkpt lat="39.004742" lon="-1.386832">
        <ele>1010.939858</ele>
        <time>2021-11-03T16:20:50.182Z</time>
      </trkpt>
      <trkpt lat="39.004627" lon="-1.386871">
        <ele>1011.722201</ele>
        <time>2021-11-03T16:20:50.182Z</time>
      </trkpt>
      <trkpt lat="39.004606" lon="-1.386877">
        <ele>1011.863711</ele>
        <time>2021-11-03T16:20:50.182Z</time>
      </trkpt>
      <trkpt lat="39.004485" lon="-1.386908">
        <ele>1012.675317</ele>
        <time>2021-11-03T16:20:50.182Z</time>
      </trkpt>
      <trkpt lat="39.004464" lon="-1.386912">
        <ele>1012.814968</ele>
        <time>2021-11-03T16:20:50.182Z</time>
      </trkpt>
      <trkpt lat="39.004381" lon="-1.386939">
        <ele>1013.378149</ele>
        <time>2021-11-03T16:20:50.182Z</time>
      </trkpt>
      <trkpt lat="39.004342" lon="-1.386962">
        <ele>1013.660365</ele>
        <time>2021-11-03T16:20:50.182Z</time>
      </trkpt>
      <trkpt lat="39.004322" lon="-1.386975">
        <ele>1013.807764</ele>
        <time>2021-11-03T16:20:50.182Z</time>
      </trkpt>
      <trkpt lat="39.004267" lon="-1.387018">
        <ele>1014.231117</ele>
        <time>2021-11-03T16:20:50.182Z</time>
      </trkpt>
      <trkpt lat="39.004187" lon="-1.387097">
        <ele>1014.894485</ele>
        <time>2021-11-03T16:20:50.182Z</time>
      </trkpt>
      <trkpt lat="39.004171" lon="-1.387111">
        <ele>1015.021766</ele>
        <time>2021-11-03T16:20:50.182Z</time>
      </trkpt>
      <trkpt lat="39.004138" lon="-1.387138">
        <ele>1015.279016</ele>
        <time>2021-11-03T16:20:50.182Z</time>
      </trkpt>
      <trkpt lat="39.004086" lon="-1.387179">
        <ele>1015.680197</ele>
        <time>2021-11-03T16:20:50.182Z</time>
      </trkpt>
      <trkpt lat="39.004032" lon="-1.387212">
        <ele>1016.073451</ele>
        <time>2021-11-03T16:20:50.182Z</time>
      </trkpt>
      <trkpt lat="39.003976" lon="-1.387236">
        <ele>1016.461734</ele>
        <time>2021-11-03T16:20:50.182Z</time>
      </trkpt>
      <trkpt lat="39.003895" lon="-1.387273">
        <ele>1017.027158</ele>
        <time>2021-11-03T16:20:50.182Z</time>
      </trkpt>
      <trkpt lat="39.003852" lon="-1.387287">
        <ele>1017.318942</ele>
        <time>2021-11-03T16:20:50.182Z</time>
      </trkpt>
      <trkpt lat="39.003829" lon="-1.387293">
        <ele>1017.473322</ele>
        <time>2021-11-03T16:20:50.182Z</time>
      </trkpt>
      <trkpt lat="39.003693" lon="-1.387367">
        <ele>1018.444673</ele>
        <time>2021-11-03T16:20:50.182Z</time>
      </trkpt>
      <trkpt lat="39.003593" lon="-1.387449">
        <ele>1019.224720</ele>
        <time>2021-11-03T16:20:50.182Z</time>
      </trkpt>
      <trkpt lat="39.003575" lon="-1.387469">
        <ele>1019.381164</ele>
        <time>2021-11-03T16:20:50.182Z</time>
      </trkpt>
      <trkpt lat="39.003537" lon="-1.387503">
        <ele>1019.685630</ele>
        <time>2021-11-03T16:20:50.182Z</time>
      </trkpt>
      <trkpt lat="39.003515" lon="-1.387517">
        <ele>1019.847084</ele>
        <time>2021-11-03T16:20:50.182Z</time>
      </trkpt>
      <trkpt lat="39.003399" lon="-1.387539">
        <ele>1020.618419</ele>
        <time>2021-11-03T16:20:50.182Z</time>
      </trkpt>
      <trkpt lat="39.003286" lon="-1.387455">
        <ele>1021.476894</ele>
        <time>2021-11-03T16:20:50.182Z</time>
      </trkpt>
      <trkpt lat="39.003264" lon="-1.387434">
        <ele>1021.657089</ele>
        <time>2021-11-03T16:20:50.182Z</time>
      </trkpt>
      <trkpt lat="39.003083" lon="-1.387315">
        <ele>1023.104479</ele>
        <time>2021-11-03T16:20:50.182Z</time>
      </trkpt>
      <trkpt lat="39.003008" lon="-1.387250">
        <ele>1023.804784</ele>
        <time>2021-11-03T16:20:50.182Z</time>
      </trkpt>
      <trkpt lat="39.002955" lon="-1.387205">
        <ele>1024.296550</ele>
        <time>2021-11-03T16:20:50.182Z</time>
      </trkpt>
      <trkpt lat="39.002862" lon="-1.387157">
        <ele>1025.072581</ele>
        <time>2021-11-03T16:20:50.182Z</time>
      </trkpt>
      <trkpt lat="39.002758" lon="-1.387147">
        <ele>1025.880273</ele>
        <time>2021-11-03T16:20:50.182Z</time>
      </trkpt>
      <trkpt lat="39.002739" lon="-1.387157">
        <ele>1026.039254</ele>
        <time>2021-11-03T16:20:50.182Z</time>
      </trkpt>
      <trkpt lat="39.002624" lon="-1.387208">
        <ele>1026.981301</ele>
        <time>2021-11-03T16:20:50.182Z</time>
      </trkpt>
      <trkpt lat="39.002578" lon="-1.387238">
        <ele>1027.380698</ele>
        <time>2021-11-03T16:20:50.182Z</time>
      </trkpt>
      <trkpt lat="39.002388" lon="-1.387287">
        <ele>1028.881449</ele>
        <time>2021-11-03T16:20:50.182Z</time>
      </trkpt>
      <trkpt lat="39.002324" lon="-1.387243">
        <ele>1029.443415</ele>
        <time>2021-11-03T16:20:50.182Z</time>
      </trkpt>
      <trkpt lat="39.002311" lon="-1.387227">
        <ele>1029.582733</ele>
        <time>2021-11-03T16:20:50.182Z</time>
      </trkpt>
      <trkpt lat="39.002285" lon="-1.387199">
        <ele>1029.845308</ele>
        <time>2021-11-03T16:20:50.182Z</time>
      </trkpt>
      <trkpt lat="39.002241" lon="-1.387138">
        <ele>1030.346214</ele>
        <time>2021-11-03T16:20:50.182Z</time>
      </trkpt>
      <trkpt lat="39.002203" lon="-1.387069">
        <ele>1030.855203</ele>
        <time>2021-11-03T16:20:50.182Z</time>
      </trkpt>
      <trkpt lat="39.002157" lon="-1.386984">
        <ele>1031.478604</ele>
        <time>2021-11-03T16:20:50.182Z</time>
      </trkpt>
      <trkpt lat="39.002136" lon="-1.386953">
        <ele>1031.726115</ele>
        <time>2021-11-03T16:20:50.182Z</time>
      </trkpt>
      <trkpt lat="39.002124" lon="-1.386940">
        <ele>1031.847601</ele>
        <time>2021-11-03T16:20:50.182Z</time>
      </trkpt>
      <trkpt lat="39.002099" lon="-1.386914">
        <ele>1032.096548</ele>
        <time>2021-11-03T16:20:50.182Z</time>
      </trkpt>
      <trkpt lat="39.002048" lon="-1.386866">
        <ele>1032.585901</ele>
        <time>2021-11-03T16:20:50.182Z</time>
      </trkpt>
      <trkpt lat="39.002021" lon="-1.386845">
        <ele>1032.830236</ele>
        <time>2021-11-03T16:20:50.182Z</time>
      </trkpt>
      <trkpt lat="39.002006" lon="-1.386836">
        <ele>1032.958414</ele>
        <time>2021-11-03T16:20:50.182Z</time>
      </trkpt>
      <trkpt lat="39.001903" lon="-1.386776">
        <ele>1033.834047</ele>
        <time>2021-11-03T16:20:50.182Z</time>
      </trkpt>
      <trkpt lat="39.001874" lon="-1.386754">
        <ele>1034.094768</ele>
        <time>2021-11-03T16:20:50.182Z</time>
      </trkpt>
      <trkpt lat="39.001809" lon="-1.386714">
        <ele>1034.652776</ele>
        <time>2021-11-03T16:20:50.182Z</time>
      </trkpt>
      <trkpt lat="39.001792" lon="-1.386706">
        <ele>1034.792964</ele>
        <time>2021-11-03T16:20:50.182Z</time>
      </trkpt>
      <trkpt lat="39.001778" lon="-1.386697">
        <ele>1034.914167</ele>
        <time>2021-11-03T16:20:50.182Z</time>
      </trkpt>
      <trkpt lat="39.001712" lon="-1.386636">
        <ele>1035.543501</ele>
        <time>2021-11-03T16:20:50.182Z</time>
      </trkpt>
      <trkpt lat="39.001682" lon="-1.386630">
        <ele>1035.778631</ele>
        <time>2021-11-03T16:20:50.182Z</time>
      </trkpt>
      <trkpt lat="39.001669" lon="-1.386626">
        <ele>1035.882150</ele>
        <time>2021-11-03T16:20:50.182Z</time>
      </trkpt>
      <trkpt lat="39.001658" lon="-1.386614">
        <ele>1035.993836</ele>
        <time>2021-11-03T16:20:50.182Z</time>
      </trkpt>
      <trkpt lat="39.001629" lon="-1.386563">
        <ele>1036.314728</ele>
        <time>2021-11-03T16:20:50.182Z</time>
      </trkpt>
      <trkpt lat="39.001561" lon="-1.386451">
        <ele>1036.465741</ele>
        <time>2021-11-03T16:20:50.182Z</time>
      </trkpt>
      <trkpt lat="39.001528" lon="-1.386373">
        <ele>1036.560102</ele>
        <time>2021-11-03T16:20:50.182Z</time>
      </trkpt>
      <trkpt lat="39.001508" lon="-1.386284">
        <ele>1036.658540</ele>
        <time>2021-11-03T16:20:50.182Z</time>
      </trkpt>
      <trkpt lat="39.001505" lon="-1.386250">
        <ele>1036.694897</ele>
        <time>2021-11-03T16:20:50.182Z</time>
      </trkpt>
      <trkpt lat="39.001503" lon="-1.386217">
        <ele>1036.730067</ele>
        <time>2021-11-03T16:20:50.182Z</time>
      </trkpt>
      <trkpt lat="39.001491" lon="-1.385983">
        <ele>1036.979235</ele>
        <time>2021-11-03T16:20:50.182Z</time>
      </trkpt>
      <trkpt lat="39.001488" lon="-1.385919">
        <ele>1037.047359</ele>
        <time>2021-11-03T16:20:50.182Z</time>
      </trkpt>
      <trkpt lat="39.001454" lon="-1.385727">
        <ele>1037.256590</ele>
        <time>2021-11-03T16:20:50.182Z</time>
      </trkpt>
      <trkpt lat="39.001452" lon="-1.385696">
        <ele>1037.289642</ele>
        <time>2021-11-03T16:20:50.182Z</time>
      </trkpt>
      <trkpt lat="39.001383" lon="-1.385553">
        <ele>1037.468486</ele>
        <time>2021-11-03T16:20:50.182Z</time>
      </trkpt>
      <trkpt lat="39.001240" lon="-1.385450">
        <ele>1037.692544</ele>
        <time>2021-11-03T16:20:50.182Z</time>
      </trkpt>
      <trkpt lat="39.001091" lon="-1.385413">
        <ele>1037.900019</ele>
        <time>2021-11-03T16:20:50.182Z</time>
      </trkpt>
      <trkpt lat="39.001050" lon="-1.385425">
        <ele>1037.957507</ele>
        <time>2021-11-03T16:20:50.182Z</time>
      </trkpt>
      <trkpt lat="39.000969" lon="-1.385461">
        <ele>1038.074672</ele>
        <time>2021-11-03T16:20:50.182Z</time>
      </trkpt>
      <trkpt lat="39.000783" lon="-1.385597">
        <ele>1038.367164</ele>
        <time>2021-11-03T16:20:50.182Z</time>
      </trkpt>
      <trkpt lat="39.000706" lon="-1.385648">
        <ele>1038.485568</ele>
        <time>2021-11-03T16:20:50.182Z</time>
      </trkpt>
      <trkpt lat="39.000665" lon="-1.385667">
        <ele>1038.545149</ele>
        <time>2021-11-03T16:20:50.182Z</time>
      </trkpt>
      <trkpt lat="39.000525" lon="-1.385732">
        <ele>1038.748639</ele>
        <time>2021-11-03T16:20:50.182Z</time>
      </trkpt>
      <trkpt lat="39.000376" lon="-1.385806">
        <ele>1038.334833</ele>
        <time>2021-11-03T16:20:50.182Z</time>
      </trkpt>
      <trkpt lat="39.000229" lon="-1.385882">
        <ele>1037.886321</ele>
        <time>2021-11-03T16:20:50.182Z</time>
      </trkpt>
      <trkpt lat="39.000040" lon="-1.385966">
        <ele>1037.320220</ele>
        <time>2021-11-03T16:20:50.182Z</time>
      </trkpt>
      <trkpt lat="38.999896" lon="-1.386037">
        <ele>1036.883633</ele>
        <time>2021-11-03T16:20:50.182Z</time>
      </trkpt>
      <trkpt lat="38.999846" lon="-1.386062">
        <ele>1036.731766</ele>
        <time>2021-11-03T16:20:50.182Z</time>
      </trkpt>
      <trkpt lat="38.999744" lon="-1.386112">
        <ele>1036.422746</ele>
        <time>2021-11-03T16:20:50.182Z</time>
      </trkpt>
      <trkpt lat="38.999591" lon="-1.386189">
        <ele>1035.957631</ele>
        <time>2021-11-03T16:20:50.182Z</time>
      </trkpt>
      <trkpt lat="38.999488" lon="-1.386240">
        <ele>1035.645181</ele>
        <time>2021-11-03T16:20:50.182Z</time>
      </trkpt>
      <trkpt lat="38.999439" lon="-1.386265">
        <ele>1035.495948</ele>
        <time>2021-11-03T16:20:50.182Z</time>
      </trkpt>
      <trkpt lat="38.999287" lon="-1.386344">
        <ele>1035.031839</ele>
        <time>2021-11-03T16:20:50.182Z</time>
      </trkpt>
      <trkpt lat="38.999123" lon="-1.386441">
        <ele>1034.520832</ele>
        <time>2021-11-03T16:20:50.182Z</time>
      </trkpt>
      <trkpt lat="38.999069" lon="-1.386478">
        <ele>1034.347628</ele>
        <time>2021-11-03T16:20:50.182Z</time>
      </trkpt>
      <trkpt lat="38.998967" lon="-1.386561">
        <ele>1034.005954</ele>
        <time>2021-11-03T16:20:50.182Z</time>
      </trkpt>
      <trkpt lat="38.998864" lon="-1.386628">
        <ele>1033.679204</ele>
        <time>2021-11-03T16:20:50.182Z</time>
      </trkpt>
      <trkpt lat="38.998834" lon="-1.386619">
        <ele>1033.709357</ele>
        <time>2021-11-03T16:20:50.182Z</time>
      </trkpt>
      <trkpt lat="38.998809" lon="-1.386571">
        <ele>1033.776126</ele>
        <time>2021-11-03T16:20:50.182Z</time>
      </trkpt>
      <trkpt lat="38.998803" lon="-1.386536">
        <ele>1033.817542</ele>
        <time>2021-11-03T16:20:50.182Z</time>
      </trkpt>
      <trkpt lat="38.998814" lon="-1.386405">
        <ele>1033.969797</ele>
        <time>2021-11-03T16:20:50.182Z</time>
      </trkpt>
      <trkpt lat="38.998816" lon="-1.386024">
        <ele>1034.410062</ele>
        <time>2021-11-03T16:20:50.182Z</time>
      </trkpt>
      <trkpt lat="38.998800" lon="-1.385822">
        <ele>1034.644687</ele>
        <time>2021-11-03T16:20:50.182Z</time>
      </trkpt>
      <trkpt lat="38.998757" lon="-1.385570">
        <ele>1034.942816</ele>
        <time>2021-11-03T16:20:50.182Z</time>
      </trkpt>
      <trkpt lat="38.998727" lon="-1.385472">
        <ele>1035.064526</ele>
        <time>2021-11-03T16:20:50.182Z</time>
      </trkpt>
      <trkpt lat="38.998710" lon="-1.385423">
        <ele>1035.126533</ele>
        <time>2021-11-03T16:20:50.182Z</time>
      </trkpt>
      <trkpt lat="38.998693" lon="-1.385374">
        <ele>1035.188539</ele>
        <time>2021-11-03T16:20:50.182Z</time>
      </trkpt>
      <trkpt lat="38.998676" lon="-1.385325">
        <ele>1035.250546</ele>
        <time>2021-11-03T16:20:50.182Z</time>
      </trkpt>
      <trkpt lat="38.998660" lon="-1.385278">
        <ele>1035.309838</ele>
        <time>2021-11-03T16:20:50.182Z</time>
      </trkpt>
      <trkpt lat="38.998643" lon="-1.385230">
        <ele>1035.370791</ele>
        <time>2021-11-03T16:20:50.182Z</time>
      </trkpt>
      <trkpt lat="38.998619" lon="-1.385133">
        <ele>1035.488421</ele>
        <time>2021-11-03T16:20:50.182Z</time>
      </trkpt>
      <trkpt lat="38.998606" lon="-1.384983">
        <ele>1035.662824</ele>
        <time>2021-11-03T16:20:50.182Z</time>
      </trkpt>
      <trkpt lat="38.998606" lon="-1.384774">
        <ele>1035.904330</ele>
        <time>2021-11-03T16:20:50.182Z</time>
      </trkpt>
      <trkpt lat="38.998557" lon="-1.384271">
        <ele>1036.553588</ele>
        <time>2021-11-03T16:20:50.182Z</time>
      </trkpt>
      <trkpt lat="38.998547" lon="-1.384222">
        <ele>1036.637436</ele>
        <time>2021-11-03T16:20:50.182Z</time>
      </trkpt>
      <trkpt lat="38.998473" lon="-1.383830">
        <ele>1037.305089</ele>
        <time>2021-11-03T16:20:50.182Z</time>
      </trkpt>
      <trkpt lat="38.998486" lon="-1.383631">
        <ele>1037.635610</ele>
        <time>2021-11-03T16:20:50.182Z</time>
      </trkpt>
      <trkpt lat="38.998505" lon="-1.383481">
        <ele>1037.887146</ele>
        <time>2021-11-03T16:20:50.182Z</time>
      </trkpt>
      <trkpt lat="38.998510" lon="-1.383430">
        <ele>1037.972224</ele>
        <time>2021-11-03T16:20:50.182Z</time>
      </trkpt>
      <trkpt lat="38.998525" lon="-1.382961">
        <ele>1038.749108</ele>
        <time>2021-11-03T16:20:50.182Z</time>
      </trkpt>
      <trkpt lat="38.998525" lon="-1.382908">
        <ele>1038.836827</ele>
        <time>2021-11-03T16:20:50.182Z</time>
      </trkpt>
      <trkpt lat="38.998497" lon="-1.382327">
        <ele>1039.800270</ele>
        <time>2021-11-03T16:20:50.182Z</time>
      </trkpt>
      <trkpt lat="38.998474" lon="-1.382029">
        <ele>1040.245013</ele>
        <time>2021-11-03T16:20:50.182Z</time>
      </trkpt>
      <trkpt lat="38.998459" lon="-1.381840">
        <ele>1040.428477</ele>
        <time>2021-11-03T16:20:50.182Z</time>
      </trkpt>
      <trkpt lat="38.998393" lon="-1.381174">
        <ele>1041.076834</ele>
        <time>2021-11-03T16:20:50.182Z</time>
      </trkpt>
      <trkpt lat="38.998391" lon="-1.380670">
        <ele>1041.563547</ele>
        <time>2021-11-03T16:20:50.182Z</time>
      </trkpt>
      <trkpt lat="38.998382" lon="-1.380181">
        <ele>1042.035901</ele>
        <time>2021-11-03T16:20:50.182Z</time>
      </trkpt>
      <trkpt lat="38.998399" lon="-1.380059">
        <ele>1042.155594</ele>
        <time>2021-11-03T16:20:50.182Z</time>
      </trkpt>
      <trkpt lat="38.998457" lon="-1.379635">
        <ele>1042.692336</ele>
        <time>2021-11-03T16:20:50.182Z</time>
      </trkpt>
      <trkpt lat="38.998508" lon="-1.379293">
        <ele>1043.278777</ele>
        <time>2021-11-03T16:20:50.182Z</time>
      </trkpt>
      <trkpt lat="38.998528" lon="-1.379119">
        <ele>1043.574983</ele>
        <time>2021-11-03T16:20:50.182Z</time>
      </trkpt>
      <trkpt lat="38.998587" lon="-1.378723">
        <ele>1044.253998</ele>
        <time>2021-11-03T16:20:50.182Z</time>
      </trkpt>
      <trkpt lat="38.998610" lon="-1.378611">
        <ele>1044.449081</ele>
        <time>2021-11-03T16:20:50.182Z</time>
      </trkpt>
      <trkpt lat="38.998626" lon="-1.378493">
        <ele>1044.650797</ele>
        <time>2021-11-03T16:20:50.182Z</time>
      </trkpt>
      <trkpt lat="38.998653" lon="-1.378134">
        <ele>1045.258183</ele>
        <time>2021-11-03T16:20:50.182Z</time>
      </trkpt>
      <trkpt lat="38.998671" lon="-1.377668">
        <ele>1046.043902</ele>
        <time>2021-11-03T16:20:50.182Z</time>
      </trkpt>
      <trkpt lat="38.998677" lon="-1.377610">
        <ele>1046.142437</ele>
        <time>2021-11-03T16:20:50.182Z</time>
      </trkpt>
      <trkpt lat="38.998712" lon="-1.377438">
        <ele>1046.344327</ele>
        <time>2021-11-03T16:20:50.182Z</time>
      </trkpt>
      <trkpt lat="38.998745" lon="-1.377331">
        <ele>1046.398889</ele>
        <time>2021-11-03T16:20:50.182Z</time>
      </trkpt>
      <trkpt lat="38.998795" lon="-1.377194">
        <ele>1046.470626</ele>
        <time>2021-11-03T16:20:50.182Z</time>
      </trkpt>
      <trkpt lat="38.998794" lon="-1.377193">
        <ele>1046.471399</ele>
        <time>2021-11-03T16:20:50.182Z</time>
      </trkpt>
      <trkpt lat="38.998795" lon="-1.377202">
        <ele>1046.475708</ele>
        <time>2021-11-03T16:20:50.182Z</time>
      </trkpt>
      <trkpt lat="38.998796" lon="-1.377207">
        <ele>1046.478155</ele>
        <time>2021-11-03T16:20:50.182Z</time>
      </trkpt>
      <trkpt lat="38.998797" lon="-1.377208">
        <ele>1046.478927</ele>
        <time>2021-11-03T16:20:50.182Z</time>
      </trkpt>
      <trkpt lat="38.998796" lon="-1.377210">
        <ele>1046.480055</ele>
        <time>2021-11-03T16:20:50.182Z</time>
      </trkpt>
      <trkpt lat="38.998796" lon="-1.377212">
        <ele>1046.481002</ele>
        <time>2021-11-03T16:20:50.182Z</time>
      </trkpt>
      <trkpt lat="38.998808" lon="-1.377197">
        <ele>1046.491206</ele>
        <time>2021-11-03T16:20:50.182Z</time>
      </trkpt>
      <trkpt lat="38.998861" lon="-1.377085">
        <ele>1046.553357</ele>
        <time>2021-11-03T16:20:50.182Z</time>
      </trkpt>
      <trkpt lat="38.998894" lon="-1.376993">
        <ele>1046.601383</ele>
        <time>2021-11-03T16:20:50.182Z</time>
      </trkpt>
      <trkpt lat="38.998925" lon="-1.376832">
        <ele>1046.679999</ele>
        <time>2021-11-03T16:20:50.182Z</time>
      </trkpt>
      <trkpt lat="38.998955" lon="-1.376610">
        <ele>1046.786799</ele>
        <time>2021-11-03T16:20:50.182Z</time>
      </trkpt>
      <trkpt lat="38.998989" lon="-1.376436">
        <ele>1046.871836</ele>
        <time>2021-11-03T16:20:50.182Z</time>
      </trkpt>
      <trkpt lat="38.999049" lon="-1.376130">
        <ele>1047.021416</ele>
        <time>2021-11-03T16:20:50.182Z</time>
      </trkpt>
      <trkpt lat="38.999061" lon="-1.376069">
        <ele>1047.051239</ele>
        <time>2021-11-03T16:20:50.182Z</time>
      </trkpt>
      <trkpt lat="38.999073" lon="-1.376008">
        <ele>1047.081063</ele>
        <time>2021-11-03T16:20:50.182Z</time>
      </trkpt>
      <trkpt lat="38.999086" lon="-1.375947">
        <ele>1047.111043</ele>
        <time>2021-11-03T16:20:50.182Z</time>
      </trkpt>
      <trkpt lat="38.999095" lon="-1.375885">
        <ele>1047.140937</ele>
        <time>2021-11-03T16:20:50.182Z</time>
      </trkpt>
      <trkpt lat="38.999100" lon="-1.375822">
        <ele>1047.170952</ele>
        <time>2021-11-03T16:20:50.182Z</time>
      </trkpt>
      <trkpt lat="38.999097" lon="-1.375759">
        <ele>1047.200868</ele>
        <time>2021-11-03T16:20:50.182Z</time>
      </trkpt>
      <trkpt lat="38.999086" lon="-1.375695">
        <ele>1047.231935</ele>
        <time>2021-11-03T16:20:50.182Z</time>
      </trkpt>
      <trkpt lat="38.999004" lon="-1.375443">
        <ele>1047.361422</ele>
        <time>2021-11-03T16:20:50.182Z</time>
      </trkpt>
      <trkpt lat="38.998927" lon="-1.375247">
        <ele>1047.165975</ele>
        <time>2021-11-03T16:20:50.182Z</time>
      </trkpt>
      <trkpt lat="38.998900" lon="-1.375180">
        <ele>1047.030146</ele>
        <time>2021-11-03T16:20:50.182Z</time>
      </trkpt>
      <trkpt lat="38.998811" lon="-1.374981">
        <ele>1046.616929</ele>
        <time>2021-11-03T16:20:50.182Z</time>
      </trkpt>
      <trkpt lat="38.998654" lon="-1.374641">
        <ele>1045.905153</ele>
        <time>2021-11-03T16:20:50.182Z</time>
      </trkpt>
      <trkpt lat="38.998622" lon="-1.374570">
        <ele>1045.757439</ele>
        <time>2021-11-03T16:20:50.182Z</time>
      </trkpt>
      <trkpt lat="38.998556" lon="-1.374422">
        <ele>1045.450341</ele>
        <time>2021-11-03T16:20:50.182Z</time>
      </trkpt>
      <trkpt lat="38.998487" lon="-1.374271">
        <ele>1045.135084</ele>
        <time>2021-11-03T16:20:50.182Z</time>
      </trkpt>
      <trkpt lat="38.998451" lon="-1.374193">
        <ele>1044.971815</ele>
        <time>2021-11-03T16:20:50.182Z</time>
      </trkpt>
      <trkpt lat="38.998415" lon="-1.374114">
        <ele>1044.806996</ele>
        <time>2021-11-03T16:20:50.182Z</time>
      </trkpt>
      <trkpt lat="38.998377" lon="-1.374036">
        <ele>1044.641314</ele>
        <time>2021-11-03T16:20:50.182Z</time>
      </trkpt>
      <trkpt lat="38.998265" lon="-1.373794">
        <ele>1044.134396</ele>
        <time>2021-11-03T16:20:50.182Z</time>
      </trkpt>
      <trkpt lat="38.998194" lon="-1.373622">
        <ele>1043.783882</ele>
        <time>2021-11-03T16:20:50.182Z</time>
      </trkpt>
      <trkpt lat="38.998154" lon="-1.373537">
        <ele>1043.605044</ele>
        <time>2021-11-03T16:20:50.182Z</time>
      </trkpt>
      <trkpt lat="38.998115" lon="-1.373450">
        <ele>1043.424285</ele>
        <time>2021-11-03T16:20:50.182Z</time>
      </trkpt>
      <trkpt lat="38.997974" lon="-1.373096">
        <ele>1042.481347</ele>
        <time>2021-11-03T16:20:50.182Z</time>
      </trkpt>
      <trkpt lat="38.997962" lon="-1.373004">
        <ele>1042.241459</ele>
        <time>2021-11-03T16:20:50.182Z</time>
      </trkpt>
      <trkpt lat="38.997971" lon="-1.372912">
        <ele>1042.003013</ele>
        <time>2021-11-03T16:20:50.182Z</time>
      </trkpt>
      <trkpt lat="38.998046" lon="-1.372758">
        <ele>1041.535668</ele>
        <time>2021-11-03T16:20:50.182Z</time>
      </trkpt>
      <trkpt lat="38.998101" lon="-1.372694">
        <ele>1041.290303</ele>
        <time>2021-11-03T16:20:50.182Z</time>
      </trkpt>
      <trkpt lat="38.998160" lon="-1.372636">
        <ele>1041.044629</ele>
        <time>2021-11-03T16:20:50.182Z</time>
      </trkpt>
      <trkpt lat="38.998281" lon="-1.372521">
        <ele>1040.546887</ele>
        <time>2021-11-03T16:20:50.182Z</time>
      </trkpt>
      <trkpt lat="38.998343" lon="-1.372467">
        <ele>1040.299162</ele>
        <time>2021-11-03T16:20:50.182Z</time>
      </trkpt>
      <trkpt lat="38.998588" lon="-1.372236">
        <ele>1039.294161</ele>
        <time>2021-11-03T16:20:50.182Z</time>
      </trkpt>
      <trkpt lat="38.998772" lon="-1.372065">
        <ele>1038.543146</ele>
        <time>2021-11-03T16:20:50.182Z</time>
      </trkpt>
      <trkpt lat="38.998835" lon="-1.372010">
        <ele>1038.291240</ele>
        <time>2021-11-03T16:20:50.182Z</time>
      </trkpt>
      <trkpt lat="38.999122" lon="-1.371726">
        <ele>1037.153802</ele>
        <time>2021-11-03T16:20:50.182Z</time>
      </trkpt>
      <trkpt lat="38.999180" lon="-1.371667">
        <ele>1036.985840</ele>
        <time>2021-11-03T16:20:50.182Z</time>
      </trkpt>
      <trkpt lat="38.999457" lon="-1.371402">
        <ele>1036.201701</ele>
        <time>2021-11-03T16:20:50.182Z</time>
      </trkpt>
      <trkpt lat="38.999498" lon="-1.371365">
        <ele>1036.087936</ele>
        <time>2021-11-03T16:20:50.182Z</time>
      </trkpt>
      <trkpt lat="38.999530" lon="-1.371327">
        <ele>1035.989014</ele>
        <time>2021-11-03T16:20:50.182Z</time>
      </trkpt>
      <trkpt lat="38.999570" lon="-1.371249">
        <ele>1035.824026</ele>
        <time>2021-11-03T16:20:50.182Z</time>
      </trkpt>
      <trkpt lat="38.999574" lon="-1.371213">
        <ele>1035.759823</ele>
        <time>2021-11-03T16:20:50.182Z</time>
      </trkpt>
      <trkpt lat="38.999529" lon="-1.371139">
        <ele>1035.593934</ele>
        <time>2021-11-03T16:20:50.182Z</time>
      </trkpt>
      <trkpt lat="38.999488" lon="-1.371110">
        <ele>1035.487648</ele>
        <time>2021-11-03T16:20:50.182Z</time>
      </trkpt>
      <trkpt lat="38.999444" lon="-1.371086">
        <ele>1035.379081</ele>
        <time>2021-11-03T16:20:50.182Z</time>
      </trkpt>
      <trkpt lat="38.999352" lon="-1.371043">
        <ele>1035.156720</ele>
        <time>2021-11-03T16:20:50.182Z</time>
      </trkpt>
      <trkpt lat="38.999216" lon="-1.370983">
        <ele>1034.830108</ele>
        <time>2021-11-03T16:20:50.182Z</time>
      </trkpt>
      <trkpt lat="38.999172" lon="-1.370969">
        <ele>1034.727140</ele>
        <time>2021-11-03T16:20:50.182Z</time>
      </trkpt>
      <trkpt lat="38.999129" lon="-1.370957">
        <ele>1034.627184</ele>
        <time>2021-11-03T16:20:50.182Z</time>
      </trkpt>
      <trkpt lat="38.999086" lon="-1.370943">
        <ele>1034.526421</ele>
        <time>2021-11-03T16:20:50.182Z</time>
      </trkpt>
      <trkpt lat="38.998995" lon="-1.370923">
        <ele>1034.316698</ele>
        <time>2021-11-03T16:20:50.182Z</time>
      </trkpt>
      <trkpt lat="38.998948" lon="-1.370919">
        <ele>1034.209693</ele>
        <time>2021-11-03T16:20:50.182Z</time>
      </trkpt>
      <trkpt lat="38.998903" lon="-1.370906">
        <ele>1034.104919</ele>
        <time>2021-11-03T16:20:50.182Z</time>
      </trkpt>
      <trkpt lat="38.998733" lon="-1.370821">
        <ele>1033.690591</ele>
        <time>2021-11-03T16:20:50.182Z</time>
      </trkpt>
      <trkpt lat="38.998686" lon="-1.370800">
        <ele>1033.577565</ele>
        <time>2021-11-03T16:20:50.182Z</time>
      </trkpt>
      <trkpt lat="38.998549" lon="-1.370754">
        <ele>1033.255914</ele>
        <time>2021-11-03T16:20:50.182Z</time>
      </trkpt>
      <trkpt lat="38.998451" lon="-1.370693">
        <ele>1033.234161</ele>
        <time>2021-11-03T16:20:50.182Z</time>
      </trkpt>
      <trkpt lat="38.998425" lon="-1.370653">
        <ele>1033.250397</ele>
        <time>2021-11-03T16:20:50.182Z</time>
      </trkpt>
      <trkpt lat="38.998369" lon="-1.370562">
        <ele>1033.286538</ele>
        <time>2021-11-03T16:20:50.182Z</time>
      </trkpt>
      <trkpt lat="38.998295" lon="-1.370486">
        <ele>1033.324470</ele>
        <time>2021-11-03T16:20:50.182Z</time>
      </trkpt>
      <trkpt lat="38.998253" lon="-1.370453">
        <ele>1033.344185</ele>
        <time>2021-11-03T16:20:50.182Z</time>
      </trkpt>
      <trkpt lat="38.998168" lon="-1.370390">
        <ele>1033.383484</ele>
        <time>2021-11-03T16:20:50.182Z</time>
      </trkpt>
      <trkpt lat="38.998126" lon="-1.370354">
        <ele>1033.403702</ele>
        <time>2021-11-03T16:20:50.182Z</time>
      </trkpt>
      <trkpt lat="38.998088" lon="-1.370313">
        <ele>1033.423570</ele>
        <time>2021-11-03T16:20:50.182Z</time>
      </trkpt>
      <trkpt lat="38.998023" lon="-1.370218">
        <ele>1033.462978</ele>
        <time>2021-11-03T16:20:50.182Z</time>
      </trkpt>
      <trkpt lat="38.997994" lon="-1.370164">
        <ele>1033.483415</ele>
        <time>2021-11-03T16:20:50.182Z</time>
      </trkpt>
      <trkpt lat="38.997879" lon="-1.369904">
        <ele>1033.576560</ele>
        <time>2021-11-03T16:20:50.182Z</time>
      </trkpt>
      <trkpt lat="38.997863" lon="-1.369800">
        <ele>1033.609570</ele>
        <time>2021-11-03T16:20:50.182Z</time>
      </trkpt>
      <trkpt lat="38.997869" lon="-1.369744">
        <ele>1033.627171</ele>
        <time>2021-11-03T16:20:50.182Z</time>
      </trkpt>
      <trkpt lat="38.997877" lon="-1.369684">
        <ele>1033.646125</ele>
        <time>2021-11-03T16:20:50.182Z</time>
      </trkpt>
      <trkpt lat="38.997883" lon="-1.369622">
        <ele>1033.665578</ele>
        <time>2021-11-03T16:20:50.182Z</time>
      </trkpt>
      <trkpt lat="38.997893" lon="-1.369438">
        <ele>1033.723008</ele>
        <time>2021-11-03T16:20:50.182Z</time>
      </trkpt>
      <trkpt lat="38.997878" lon="-1.369383">
        <ele>1033.741156</ele>
        <time>2021-11-03T16:20:50.182Z</time>
      </trkpt>
      <trkpt lat="38.997816" lon="-1.369185">
        <ele>1033.807621</ele>
        <time>2021-11-03T16:20:50.182Z</time>
      </trkpt>
      <trkpt lat="38.997779" lon="-1.369088">
        <ele>1033.841264</ele>
        <time>2021-11-03T16:20:50.182Z</time>
      </trkpt>
      <trkpt lat="38.997760" lon="-1.368936">
        <ele>1033.889199</ele>
        <time>2021-11-03T16:20:50.182Z</time>
      </trkpt>
      <trkpt lat="38.997759" lon="-1.368882">
        <ele>1033.906017</ele>
        <time>2021-11-03T16:20:50.182Z</time>
      </trkpt>
      <trkpt lat="38.997695" lon="-1.368526">
        <ele>1034.159377</ele>
        <time>2021-11-03T16:20:50.182Z</time>
      </trkpt>
      <trkpt lat="38.997690" lon="-1.368430">
        <ele>1034.231638</ele>
        <time>2021-11-03T16:20:50.182Z</time>
      </trkpt>
      <trkpt lat="38.997691" lon="-1.368335">
        <ele>1034.302992</ele>
        <time>2021-11-03T16:20:50.182Z</time>
      </trkpt>
      <trkpt lat="38.997679" lon="-1.368148">
        <ele>1034.443914</ele>
        <time>2021-11-03T16:20:50.182Z</time>
      </trkpt>
      <trkpt lat="38.997672" lon="-1.368014">
        <ele>1034.544779</ele>
        <time>2021-11-03T16:20:50.182Z</time>
      </trkpt>
      <trkpt lat="38.997664" lon="-1.367782">
        <ele>1034.719190</ele>
        <time>2021-11-03T16:20:50.182Z</time>
      </trkpt>
      <trkpt lat="38.997625" lon="-1.367553">
        <ele>1034.895258</ele>
        <time>2021-11-03T16:20:50.182Z</time>
      </trkpt>
      <trkpt lat="38.997523" lon="-1.367285">
        <ele>1035.119375</ele>
        <time>2021-11-03T16:20:50.182Z</time>
      </trkpt>
      <trkpt lat="38.997450" lon="-1.367101">
        <ele>1035.274530</ele>
        <time>2021-11-03T16:20:50.182Z</time>
      </trkpt>
      <trkpt lat="38.997388" lon="-1.367032">
        <ele>1035.353747</ele>
        <time>2021-11-03T16:20:50.182Z</time>
      </trkpt>
      <trkpt lat="38.997251" lon="-1.366916">
        <ele>1035.512232</ele>
        <time>2021-11-03T16:20:50.182Z</time>
      </trkpt>
      <trkpt lat="38.997183" lon="-1.366856">
        <ele>1035.591912</ele>
        <time>2021-11-03T16:20:50.182Z</time>
      </trkpt>
      <trkpt lat="38.997146" lon="-1.366829">
        <ele>1035.633017</ele>
        <time>2021-11-03T16:20:50.182Z</time>
      </trkpt>
      <trkpt lat="38.997109" lon="-1.366805">
        <ele>1035.646006</ele>
        <time>2021-11-03T16:20:50.182Z</time>
      </trkpt>
      <trkpt lat="38.996966" lon="-1.366702">
        <ele>1035.497761</ele>
        <time>2021-11-03T16:20:50.182Z</time>
      </trkpt>
      <trkpt lat="38.996897" lon="-1.366635">
        <ele>1035.419565</ele>
        <time>2021-11-03T16:20:50.182Z</time>
      </trkpt>
      <trkpt lat="38.996859" lon="-1.366606">
        <ele>1035.379600</ele>
        <time>2021-11-03T16:20:50.182Z</time>
      </trkpt>
      <trkpt lat="38.996815" lon="-1.366585">
        <ele>1035.337148</ele>
        <time>2021-11-03T16:20:50.182Z</time>
      </trkpt>
      <trkpt lat="38.996680" lon="-1.366549">
        <ele>1035.212433</ele>
        <time>2021-11-03T16:20:50.182Z</time>
      </trkpt>
      <trkpt lat="38.996495" lon="-1.366475">
        <ele>1035.037183</ele>
        <time>2021-11-03T16:20:50.182Z</time>
      </trkpt>
      <trkpt lat="38.996449" lon="-1.366449">
        <ele>1034.991734</ele>
        <time>2021-11-03T16:20:50.182Z</time>
      </trkpt>
      <trkpt lat="38.996404" lon="-1.366419">
        <ele>1034.945888</ele>
        <time>2021-11-03T16:20:50.182Z</time>
      </trkpt>
      <trkpt lat="38.996069" lon="-1.366217">
        <ele>1034.611224</ele>
        <time>2021-11-03T16:20:50.182Z</time>
      </trkpt>
      <trkpt lat="38.995971" lon="-1.366159">
        <ele>1034.513646</ele>
        <time>2021-11-03T16:20:50.182Z</time>
      </trkpt>
      <trkpt lat="38.995879" lon="-1.366098">
        <ele>1034.420024</ele>
        <time>2021-11-03T16:20:50.182Z</time>
      </trkpt>
      <trkpt lat="38.995838" lon="-1.366057">
        <ele>1034.373052</ele>
        <time>2021-11-03T16:20:50.182Z</time>
      </trkpt>
      <trkpt lat="38.995643" lon="-1.365782">
        <ele>1034.111337</ele>
        <time>2021-11-03T16:20:50.182Z</time>
      </trkpt>
      <trkpt lat="38.995603" lon="-1.365725">
        <ele>1034.057345</ele>
        <time>2021-11-03T16:20:50.182Z</time>
      </trkpt>
      <trkpt lat="38.995562" lon="-1.365671">
        <ele>1033.956249</ele>
        <time>2021-11-03T16:20:50.182Z</time>
      </trkpt>
      <trkpt lat="38.995344" lon="-1.365403">
        <ele>1033.211986</ele>
        <time>2021-11-03T16:20:50.182Z</time>
      </trkpt>
      <trkpt lat="38.995301" lon="-1.365350">
        <ele>1033.064999</ele>
        <time>2021-11-03T16:20:50.182Z</time>
      </trkpt>
      <trkpt lat="38.995211" lon="-1.365250">
        <ele>1032.771466</ele>
        <time>2021-11-03T16:20:50.182Z</time>
      </trkpt>
      <trkpt lat="38.995071" lon="-1.365109">
        <ele>1032.332602</ele>
        <time>2021-11-03T16:20:50.182Z</time>
      </trkpt>
      <trkpt lat="38.994764" lon="-1.364778">
        <ele>1031.343898</ele>
        <time>2021-11-03T16:20:50.182Z</time>
      </trkpt>
      <trkpt lat="38.994723" lon="-1.364726">
        <ele>1031.201788</ele>
        <time>2021-11-03T16:20:50.182Z</time>
      </trkpt>
      <trkpt lat="38.994687" lon="-1.364667">
        <ele>1031.057881</ele>
        <time>2021-11-03T16:20:50.182Z</time>
      </trkpt>
      <trkpt lat="38.994630" lon="-1.364533">
        <ele>1030.764817</ele>
        <time>2021-11-03T16:20:50.182Z</time>
      </trkpt>
      <trkpt lat="38.994590" lon="-1.364390">
        <ele>1030.473245</ele>
        <time>2021-11-03T16:20:50.182Z</time>
      </trkpt>
      <trkpt lat="38.994576" lon="-1.364320">
        <ele>1030.334575</ele>
        <time>2021-11-03T16:20:50.182Z</time>
      </trkpt>
      <trkpt lat="38.994549" lon="-1.364184">
        <ele>1030.065281</ele>
        <time>2021-11-03T16:20:50.182Z</time>
      </trkpt>
      <trkpt lat="38.994506" lon="-1.363983">
        <ele>1029.665321</ele>
        <time>2021-11-03T16:20:50.182Z</time>
      </trkpt>
      <trkpt lat="38.994452" lon="-1.363861">
        <ele>1029.244587</ele>
        <time>2021-11-03T16:20:50.182Z</time>
      </trkpt>
      <trkpt lat="38.994362" lon="-1.363728">
        <ele>1028.645233</ele>
        <time>2021-11-03T16:20:50.182Z</time>
      </trkpt>
      <trkpt lat="38.994311" lon="-1.363662">
        <ele>1028.328917</ele>
        <time>2021-11-03T16:20:50.182Z</time>
      </trkpt>
      <trkpt lat="38.994254" lon="-1.363599">
        <ele>1028.000319</ele>
        <time>2021-11-03T16:20:50.182Z</time>
      </trkpt>
      <trkpt lat="38.994195" lon="-1.363535">
        <ele>1027.662856</ele>
        <time>2021-11-03T16:20:50.182Z</time>
      </trkpt>
      <trkpt lat="38.994076" lon="-1.363386">
        <ele>1026.936737</ele>
        <time>2021-11-03T16:20:50.182Z</time>
      </trkpt>
      <trkpt lat="38.994011" lon="-1.363315">
        <ele>1026.563877</ele>
        <time>2021-11-03T16:20:50.182Z</time>
      </trkpt>
      <trkpt lat="38.993944" lon="-1.363245">
        <ele>1026.186459</ele>
        <time>2021-11-03T16:20:50.182Z</time>
      </trkpt>
      <trkpt lat="38.993815" lon="-1.363103">
        <ele>1025.444067</ele>
        <time>2021-11-03T16:20:50.182Z</time>
      </trkpt>
      <trkpt lat="38.993758" lon="-1.363031">
        <ele>1025.094764</ele>
        <time>2021-11-03T16:20:50.182Z</time>
      </trkpt>
      <trkpt lat="38.993715" lon="-1.362961">
        <ele>1024.791514</ele>
        <time>2021-11-03T16:20:50.182Z</time>
      </trkpt>
      <trkpt lat="38.993683" lon="-1.362891">
        <ele>1024.515500</ele>
        <time>2021-11-03T16:20:50.182Z</time>
      </trkpt>
      <trkpt lat="38.993630" lon="-1.362754">
        <ele>1023.995380</ele>
        <time>2021-11-03T16:20:50.182Z</time>
      </trkpt>
      <trkpt lat="38.993596" lon="-1.362693">
        <ele>1023.740254</ele>
        <time>2021-11-03T16:20:50.182Z</time>
      </trkpt>
      <trkpt lat="38.993554" lon="-1.362640">
        <ele>1023.482998</ele>
        <time>2021-11-03T16:20:50.182Z</time>
      </trkpt>
      <trkpt lat="38.993402" lon="-1.362508">
        <ele>1022.681070</ele>
        <time>2021-11-03T16:20:50.182Z</time>
      </trkpt>
      <trkpt lat="38.993104" lon="-1.362184">
        <ele>1021.237844</ele>
        <time>2021-11-03T16:20:50.182Z</time>
      </trkpt>
      <trkpt lat="38.993055" lon="-1.362128">
        <ele>1021.051461</ele>
        <time>2021-11-03T16:20:50.182Z</time>
      </trkpt>
      <trkpt lat="38.992848" lon="-1.361911">
        <ele>1020.292127</ele>
        <time>2021-11-03T16:20:50.182Z</time>
      </trkpt>
      <trkpt lat="38.992742" lon="-1.361805">
        <ele>1019.910338</ele>
        <time>2021-11-03T16:20:50.182Z</time>
      </trkpt>
      <trkpt lat="38.992691" lon="-1.361750">
        <ele>1019.721092</ele>
        <time>2021-11-03T16:20:50.182Z</time>
      </trkpt>
      <trkpt lat="38.992591" lon="-1.361635">
        <ele>1019.339668</ele>
        <time>2021-11-03T16:20:50.182Z</time>
      </trkpt>
      <trkpt lat="38.992486" lon="-1.361528">
        <ele>1018.958751</ele>
        <time>2021-11-03T16:20:50.182Z</time>
      </trkpt>
      <trkpt lat="38.992388" lon="-1.361424">
        <ele>1018.597485</ele>
        <time>2021-11-03T16:20:50.182Z</time>
      </trkpt>
      <trkpt lat="38.992230" lon="-1.361274">
        <ele>1018.039078</ele>
        <time>2021-11-03T16:20:50.182Z</time>
      </trkpt>
      <trkpt lat="38.992087" lon="-1.361150">
        <ele>1017.548671</ele>
        <time>2021-11-03T16:20:50.182Z</time>
      </trkpt>
      <trkpt lat="38.991856" lon="-1.360921">
        <ele>1016.719360</ele>
        <time>2021-11-03T16:20:50.182Z</time>
      </trkpt>
      <trkpt lat="38.991793" lon="-1.360872">
        <ele>1016.571583</ele>
        <time>2021-11-03T16:20:50.182Z</time>
      </trkpt>
      <trkpt lat="38.991821" lon="-1.360908">
        <ele>1016.527171</ele>
        <time>2021-11-03T16:20:50.182Z</time>
      </trkpt>
      <trkpt lat="38.991820" lon="-1.360919">
        <ele>1016.517514</ele>
        <time>2021-11-03T16:20:50.182Z</time>
      </trkpt>
      <trkpt lat="38.991764" lon="-1.361010">
        <ele>1016.416298</ele>
        <time>2021-11-03T16:20:50.182Z</time>
      </trkpt>
      <trkpt lat="38.991667" lon="-1.361214">
        <ele>1016.207757</ele>
        <time>2021-11-03T16:20:50.182Z</time>
      </trkpt>
      <trkpt lat="38.991591" lon="-1.361346">
        <ele>1016.064508</ele>
        <time>2021-11-03T16:20:50.182Z</time>
      </trkpt>
      <trkpt lat="38.991526" lon="-1.361489">
        <ele>1015.920050</ele>
        <time>2021-11-03T16:20:50.182Z</time>
      </trkpt>
      <trkpt lat="38.991401" lon="-1.361715">
        <ele>1015.678166</ele>
        <time>2021-11-03T16:20:50.182Z</time>
      </trkpt>
      <trkpt lat="38.991328" lon="-1.361859">
        <ele>1015.528246</ele>
        <time>2021-11-03T16:20:50.182Z</time>
      </trkpt>
      <trkpt lat="38.991251" lon="-1.361996">
        <ele>1015.380815</ele>
        <time>2021-11-03T16:20:50.182Z</time>
      </trkpt>
      <trkpt lat="38.991143" lon="-1.362208">
        <ele>1015.159774</ele>
        <time>2021-11-03T16:20:50.182Z</time>
      </trkpt>
      <trkpt lat="38.991010" lon="-1.362502">
        <ele>1014.863134</ele>
        <time>2021-11-03T16:20:50.182Z</time>
      </trkpt>
      <trkpt lat="38.990779" lon="-1.362954">
        <ele>1014.607653</ele>
        <time>2021-11-03T16:20:50.182Z</time>
      </trkpt>
      <trkpt lat="38.990652" lon="-1.363216">
        <ele>1014.626198</ele>
        <time>2021-11-03T16:20:50.182Z</time>
      </trkpt>
      <trkpt lat="38.990627" lon="-1.363268">
        <ele>1014.629870</ele>
        <time>2021-11-03T16:20:50.182Z</time>
      </trkpt>
      <trkpt lat="38.990605" lon="-1.363321">
        <ele>1014.633479</ele>
        <time>2021-11-03T16:20:50.182Z</time>
      </trkpt>
      <trkpt lat="38.990583" lon="-1.363377">
        <ele>1014.637247</ele>
        <time>2021-11-03T16:20:50.182Z</time>
      </trkpt>
      <trkpt lat="38.990466" lon="-1.363654">
        <ele>1014.656182</ele>
        <time>2021-11-03T16:20:50.182Z</time>
      </trkpt>
      <trkpt lat="38.990411" lon="-1.363764">
        <ele>1014.664037</ele>
        <time>2021-11-03T16:20:50.182Z</time>
      </trkpt>
      <trkpt lat="38.990355" lon="-1.363874">
        <ele>1014.671935</ele>
        <time>2021-11-03T16:20:50.182Z</time>
      </trkpt>
      <trkpt lat="38.990296" lon="-1.363981">
        <ele>1014.679814</ele>
        <time>2021-11-03T16:20:50.182Z</time>
      </trkpt>
      <trkpt lat="38.990157" lon="-1.364166">
        <ele>1014.695268</ele>
        <time>2021-11-03T16:20:50.182Z</time>
      </trkpt>
      <trkpt lat="38.990116" lon="-1.364203">
        <ele>1014.699138</ele>
        <time>2021-11-03T16:20:50.182Z</time>
      </trkpt>
      <trkpt lat="38.990073" lon="-1.364237">
        <ele>1014.703038</ele>
        <time>2021-11-03T16:20:50.182Z</time>
      </trkpt>
      <trkpt lat="38.989882" lon="-1.364330">
        <ele>1014.718819</ele>
        <time>2021-11-03T16:20:50.182Z</time>
      </trkpt>
      <trkpt lat="38.989675" lon="-1.364370">
        <ele>1014.671861</ele>
        <time>2021-11-03T16:20:50.182Z</time>
      </trkpt>
      <trkpt lat="38.989565" lon="-1.364382">
        <ele>1014.445153</ele>
        <time>2021-11-03T16:20:50.182Z</time>
      </trkpt>
      <trkpt lat="38.989201" lon="-1.364401">
        <ele>1013.697023</ele>
        <time>2021-11-03T16:20:50.182Z</time>
      </trkpt>
      <trkpt lat="38.989003" lon="-1.364396">
        <ele>1013.290329</ele>
        <time>2021-11-03T16:20:50.182Z</time>
      </trkpt>
      <trkpt lat="38.988657" lon="-1.364383">
        <ele>1012.579476</ele>
        <time>2021-11-03T16:20:50.182Z</time>
      </trkpt>
      <trkpt lat="38.988586" lon="-1.364381">
        <ele>1012.433635</ele>
        <time>2021-11-03T16:20:50.182Z</time>
      </trkpt>
      <trkpt lat="38.988375" lon="-1.364380">
        <ele>1012.000320</ele>
        <time>2021-11-03T16:20:50.182Z</time>
      </trkpt>
      <trkpt lat="38.987950" lon="-1.364370">
        <ele>1011.127389</ele>
        <time>2021-11-03T16:20:50.182Z</time>
      </trkpt>
      <trkpt lat="38.987387" lon="-1.364357">
        <ele>1011.069824</ele>
        <time>2021-11-03T16:20:50.182Z</time>
      </trkpt>
      <trkpt lat="38.987253" lon="-1.364353">
        <ele>1011.077772</ele>
        <time>2021-11-03T16:20:50.182Z</time>
      </trkpt>
      <trkpt lat="38.986928" lon="-1.364353">
        <ele>1011.097042</ele>
        <time>2021-11-03T16:20:50.182Z</time>
      </trkpt>
      <trkpt lat="38.986865" lon="-1.364350">
        <ele>1011.100781</ele>
        <time>2021-11-03T16:20:50.182Z</time>
      </trkpt>
      <trkpt lat="38.986548" lon="-1.364332">
        <ele>1011.119595</ele>
        <time>2021-11-03T16:20:50.182Z</time>
      </trkpt>
      <trkpt lat="38.986423" lon="-1.364343">
        <ele>1011.127024</ele>
        <time>2021-11-03T16:20:50.182Z</time>
      </trkpt>
      <trkpt lat="38.986303" lon="-1.364350">
        <ele>1011.134147</ele>
        <time>2021-11-03T16:20:50.182Z</time>
      </trkpt>
      <trkpt lat="38.986074" lon="-1.364354">
        <ele>1011.174934</ele>
        <time>2021-11-03T16:20:50.182Z</time>
      </trkpt>
      <trkpt lat="38.985849" lon="-1.364394">
        <ele>1011.363838</ele>
        <time>2021-11-03T16:20:50.182Z</time>
      </trkpt>
      <trkpt lat="38.985736" lon="-1.364397">
        <ele>1011.457837</ele>
        <time>2021-11-03T16:20:50.182Z</time>
      </trkpt>
      <trkpt lat="38.985356" lon="-1.364457">
        <ele>1011.776242</ele>
        <time>2021-11-03T16:20:50.182Z</time>
      </trkpt>
      <trkpt lat="38.984988" lon="-1.364609">
        <ele>1012.097684</ele>
        <time>2021-11-03T16:20:50.182Z</time>
      </trkpt>
      <trkpt lat="38.984906" lon="-1.364652">
        <ele>1012.171329</ele>
        <time>2021-11-03T16:20:50.182Z</time>
      </trkpt>
      <trkpt lat="38.984648" lon="-1.364801">
        <ele>1012.406528</ele>
        <time>2021-11-03T16:20:50.182Z</time>
      </trkpt>
      <trkpt lat="38.984401" lon="-1.364938">
        <ele>1012.630230</ele>
        <time>2021-11-03T16:20:50.182Z</time>
      </trkpt>
      <trkpt lat="38.984193" lon="-1.365050">
        <ele>1012.609387</ele>
        <time>2021-11-03T16:20:50.182Z</time>
      </trkpt>
      <trkpt lat="38.984141" lon="-1.365080">
        <ele>1012.600747</ele>
        <time>2021-11-03T16:20:50.182Z</time>
      </trkpt>
      <trkpt lat="38.983987" lon="-1.365174">
        <ele>1012.574905</ele>
        <time>2021-11-03T16:20:50.182Z</time>
      </trkpt>
      <trkpt lat="38.983883" lon="-1.365239">
        <ele>1012.557375</ele>
        <time>2021-11-03T16:20:50.182Z</time>
      </trkpt>
      <trkpt lat="38.983668" lon="-1.365361">
        <ele>1012.521750</ele>
        <time>2021-11-03T16:20:50.182Z</time>
      </trkpt>
      <trkpt lat="38.983564" lon="-1.365432">
        <ele>1012.503900</ele>
        <time>2021-11-03T16:20:50.182Z</time>
      </trkpt>
      <trkpt lat="38.983463" lon="-1.365499">
        <ele>1012.486672</ele>
        <time>2021-11-03T16:20:50.182Z</time>
      </trkpt>
      <trkpt lat="38.983100" lon="-1.365655">
        <ele>1012.428649</ele>
        <time>2021-11-03T16:20:50.182Z</time>
      </trkpt>
      <trkpt lat="38.982609" lon="-1.365814">
        <ele>1012.281879</ele>
        <time>2021-11-03T16:20:50.182Z</time>
      </trkpt>
      <trkpt lat="38.982061" lon="-1.366016">
        <ele>1011.838292</ele>
        <time>2021-11-03T16:20:50.182Z</time>
      </trkpt>
      <trkpt lat="38.981779" lon="-1.366234">
        <ele>1011.582281</ele>
        <time>2021-11-03T16:20:50.182Z</time>
      </trkpt>
      <trkpt lat="38.981357" lon="-1.366628">
        <ele>1011.176530</ele>
        <time>2021-11-03T16:20:50.182Z</time>
      </trkpt>
      <trkpt lat="38.981086" lon="-1.366789">
        <ele>1010.942995</ele>
        <time>2021-11-03T16:20:50.182Z</time>
      </trkpt>
      <trkpt lat="38.980980" lon="-1.366854">
        <ele>1010.847027</ele>
        <time>2021-11-03T16:20:50.182Z</time>
      </trkpt>
      <trkpt lat="38.980927" lon="-1.366888">
        <ele>1010.798625</ele>
        <time>2021-11-03T16:20:50.182Z</time>
      </trkpt>
      <trkpt lat="38.980821" lon="-1.366960">
        <ele>1010.700661</ele>
        <time>2021-11-03T16:20:50.182Z</time>
      </trkpt>
      <trkpt lat="38.980542" lon="-1.367227">
        <ele>1010.416471</ele>
        <time>2021-11-03T16:20:50.182Z</time>
      </trkpt>
      <trkpt lat="38.980389" lon="-1.367433">
        <ele>1010.235465</ele>
        <time>2021-11-03T16:20:50.182Z</time>
      </trkpt>
      <trkpt lat="38.980309" lon="-1.367532">
        <ele>1010.144744</ele>
        <time>2021-11-03T16:20:50.182Z</time>
      </trkpt>
      <trkpt lat="38.979917" lon="-1.368022">
        <ele>1009.698042</ele>
        <time>2021-11-03T16:20:50.182Z</time>
      </trkpt>
      <trkpt lat="38.979597" lon="-1.368423">
        <ele>1009.370822</ele>
        <time>2021-11-03T16:20:50.182Z</time>
      </trkpt>
      <trkpt lat="38.979258" lon="-1.368824">
        <ele>1009.080167</ele>
        <time>2021-11-03T16:20:50.182Z</time>
      </trkpt>
      <trkpt lat="38.979017" lon="-1.369045">
        <ele>1008.893377</ele>
        <time>2021-11-03T16:20:50.182Z</time>
      </trkpt>
      <trkpt lat="38.978826" lon="-1.369219">
        <ele>1008.745666</ele>
        <time>2021-11-03T16:20:50.182Z</time>
      </trkpt>
      <trkpt lat="38.978631" lon="-1.369389">
        <ele>1008.596997</ele>
        <time>2021-11-03T16:20:50.182Z</time>
      </trkpt>
      <trkpt lat="38.978394" lon="-1.369599">
        <ele>1008.415370</ele>
        <time>2021-11-03T16:20:50.182Z</time>
      </trkpt>
      <trkpt lat="38.978201" lon="-1.369753">
        <ele>1008.188011</ele>
        <time>2021-11-03T16:20:50.182Z</time>
      </trkpt>
      <trkpt lat="38.977960" lon="-1.369941">
        <ele>1007.847775</ele>
        <time>2021-11-03T16:20:50.182Z</time>
      </trkpt>
      <trkpt lat="38.977665" lon="-1.370172">
        <ele>1007.430877</ele>
        <time>2021-11-03T16:20:50.182Z</time>
      </trkpt>
      <trkpt lat="38.977458" lon="-1.370328">
        <ele>1007.141273</ele>
        <time>2021-11-03T16:20:50.182Z</time>
      </trkpt>
      <trkpt lat="38.977164" lon="-1.370480">
        <ele>1006.758780</ele>
        <time>2021-11-03T16:20:50.182Z</time>
      </trkpt>
      <trkpt lat="38.977100" lon="-1.370500">
        <ele>1006.679276</ele>
        <time>2021-11-03T16:20:50.182Z</time>
      </trkpt>
      <trkpt lat="38.976909" lon="-1.370557">
        <ele>1006.442588</ele>
        <time>2021-11-03T16:20:50.182Z</time>
      </trkpt>
      <trkpt lat="38.976844" lon="-1.370578">
        <ele>1006.361686</ele>
        <time>2021-11-03T16:20:50.182Z</time>
      </trkpt>
      <trkpt lat="38.976646" lon="-1.370675">
        <ele>1005.983137</ele>
        <time>2021-11-03T16:20:50.182Z</time>
      </trkpt>
      <trkpt lat="38.976455" lon="-1.370802">
        <ele>1005.357053</ele>
        <time>2021-11-03T16:20:50.182Z</time>
      </trkpt>
      <trkpt lat="38.976331" lon="-1.370879">
        <ele>1004.956106</ele>
        <time>2021-11-03T16:20:50.182Z</time>
      </trkpt>
      <trkpt lat="38.975936" lon="-1.371176">
        <ele>1003.623818</ele>
        <time>2021-11-03T16:20:50.182Z</time>
      </trkpt>
      <trkpt lat="38.975742" lon="-1.371394">
        <ele>1002.873710</ele>
        <time>2021-11-03T16:20:50.182Z</time>
      </trkpt>
      <trkpt lat="38.975650" lon="-1.371512">
        <ele>1002.495395</ele>
        <time>2021-11-03T16:20:50.182Z</time>
      </trkpt>
      <trkpt lat="38.975606" lon="-1.371575">
        <ele>1002.303679</ele>
        <time>2021-11-03T16:20:50.182Z</time>
      </trkpt>
      <trkpt lat="38.975397" lon="-1.371898">
        <ele>1001.352352</ele>
        <time>2021-11-03T16:20:50.182Z</time>
      </trkpt>
      <trkpt lat="38.975298" lon="-1.372021">
        <ele>1000.951922</ele>
        <time>2021-11-03T16:20:50.182Z</time>
      </trkpt>
      <trkpt lat="38.975115" lon="-1.372188">
        <ele>1000.360273</ele>
        <time>2021-11-03T16:20:50.182Z</time>
      </trkpt>
      <trkpt lat="38.975048" lon="-1.372242">
        <ele>1000.151787</ele>
        <time>2021-11-03T16:20:50.182Z</time>
      </trkpt>
      <trkpt lat="38.974914" lon="-1.372360">
        <ele>999.723578</ele>
        <time>2021-11-03T16:20:50.182Z</time>
      </trkpt>
      <trkpt lat="38.974725" lon="-1.372560">
        <ele>999.078238</ele>
        <time>2021-11-03T16:20:50.182Z</time>
      </trkpt>
      <trkpt lat="38.974613" lon="-1.372702">
        <ele>998.663563</ele>
        <time>2021-11-03T16:20:50.182Z</time>
      </trkpt>
      <trkpt lat="38.974513" lon="-1.372841">
        <ele>998.275330</ele>
        <time>2021-11-03T16:20:50.182Z</time>
      </trkpt>
      <trkpt lat="38.974416" lon="-1.372975">
        <ele>997.899991</ele>
        <time>2021-11-03T16:20:50.182Z</time>
      </trkpt>
      <trkpt lat="38.974273" lon="-1.373170">
        <ele>997.350464</ele>
        <time>2021-11-03T16:20:50.182Z</time>
      </trkpt>
      <trkpt lat="38.974225" lon="-1.373234">
        <ele>997.168165</ele>
        <time>2021-11-03T16:20:50.182Z</time>
      </trkpt>
      <trkpt lat="38.974135" lon="-1.373367">
        <ele>996.806701</ele>
        <time>2021-11-03T16:20:50.182Z</time>
      </trkpt>
      <trkpt lat="38.974049" lon="-1.373499">
        <ele>996.453646</ele>
        <time>2021-11-03T16:20:50.182Z</time>
      </trkpt>
      <trkpt lat="38.974004" lon="-1.373562">
        <ele>996.278262</ele>
        <time>2021-11-03T16:20:50.182Z</time>
      </trkpt>
      <trkpt lat="38.973959" lon="-1.373622">
        <ele>996.166840</ele>
        <time>2021-11-03T16:20:50.182Z</time>
      </trkpt>
      <trkpt lat="38.973841" lon="-1.373820">
        <ele>995.944436</ele>
        <time>2021-11-03T16:20:50.182Z</time>
      </trkpt>
      <trkpt lat="38.973815" lon="-1.373896">
        <ele>995.870415</ele>
        <time>2021-11-03T16:20:50.182Z</time>
      </trkpt>
      <trkpt lat="38.973735" lon="-1.374270">
        <ele>995.524618</ele>
        <time>2021-11-03T16:20:50.182Z</time>
      </trkpt>
      <trkpt lat="38.973721" lon="-1.374342">
        <ele>995.458455</ele>
        <time>2021-11-03T16:20:50.182Z</time>
      </trkpt>
      <trkpt lat="38.973681" lon="-1.374488">
        <ele>995.320456</ele>
        <time>2021-11-03T16:20:50.182Z</time>
      </trkpt>
      <trkpt lat="38.973611" lon="-1.374692">
        <ele>995.121671</ele>
        <time>2021-11-03T16:20:50.182Z</time>
      </trkpt>
      <trkpt lat="38.973543" lon="-1.374753">
        <ele>995.026607</ele>
        <time>2021-11-03T16:20:50.182Z</time>
      </trkpt>
      <trkpt lat="38.973499" lon="-1.374752">
        <ele>994.976146</ele>
        <time>2021-11-03T16:20:50.182Z</time>
      </trkpt>
      <trkpt lat="38.973407" lon="-1.374701">
        <ele>994.861272</ele>
        <time>2021-11-03T16:20:50.182Z</time>
      </trkpt>
      <trkpt lat="38.973323" lon="-1.374605">
        <ele>994.732424</ele>
        <time>2021-11-03T16:20:50.182Z</time>
      </trkpt>
      <trkpt lat="38.973276" lon="-1.374469">
        <ele>994.599745</ele>
        <time>2021-11-03T16:20:50.182Z</time>
      </trkpt>
      <trkpt lat="38.973273" lon="-1.374395">
        <ele>994.533686</ele>
        <time>2021-11-03T16:20:50.182Z</time>
      </trkpt>
      <trkpt lat="38.973271" lon="-1.374237">
        <ele>994.392815</ele>
        <time>2021-11-03T16:20:50.182Z</time>
      </trkpt>
      <trkpt lat="38.973243" lon="-1.374071">
        <ele>994.241388</ele>
        <time>2021-11-03T16:20:50.182Z</time>
      </trkpt>
      <trkpt lat="38.973217" lon="-1.373990">
        <ele>994.163267</ele>
        <time>2021-11-03T16:20:50.182Z</time>
      </trkpt>
      <trkpt lat="38.973130" lon="-1.373841">
        <ele>993.848254</ele>
        <time>2021-11-03T16:20:50.182Z</time>
      </trkpt>
      <trkpt lat="38.972972" lon="-1.373624">
        <ele>993.325296</ele>
        <time>2021-11-03T16:20:50.182Z</time>
      </trkpt>
      <trkpt lat="38.972745" lon="-1.373339">
        <ele>992.607599</ele>
        <time>2021-11-03T16:20:50.182Z</time>
      </trkpt>
      <trkpt lat="38.972633" lon="-1.373214">
        <ele>992.272103</ele>
        <time>2021-11-03T16:20:50.182Z</time>
      </trkpt>
      <trkpt lat="38.972464" lon="-1.373025">
        <ele>991.765421</ele>
        <time>2021-11-03T16:20:50.182Z</time>
      </trkpt>
      <trkpt lat="38.972357" lon="-1.372898">
        <ele>991.436009</ele>
        <time>2021-11-03T16:20:50.182Z</time>
      </trkpt>
      <trkpt lat="38.972141" lon="-1.372665">
        <ele>990.798195</ele>
        <time>2021-11-03T16:20:50.182Z</time>
      </trkpt>
      <trkpt lat="38.972079" lon="-1.372636">
        <ele>990.648931</ele>
        <time>2021-11-03T16:20:50.182Z</time>
      </trkpt>
      <trkpt lat="38.972016" lon="-1.372628">
        <ele>990.505699</ele>
        <time>2021-11-03T16:20:50.182Z</time>
      </trkpt>
      <trkpt lat="38.971827" lon="-1.372651">
        <ele>990.079508</ele>
        <time>2021-11-03T16:20:50.182Z</time>
      </trkpt>
      <trkpt lat="38.971640" lon="-1.372694">
        <ele>989.967753</ele>
        <time>2021-11-03T16:20:50.182Z</time>
      </trkpt>
      <trkpt lat="38.971515" lon="-1.372706">
        <ele>989.894012</ele>
        <time>2021-11-03T16:20:50.182Z</time>
      </trkpt>
      <trkpt lat="38.971452" lon="-1.372707">
        <ele>989.856947</ele>
        <time>2021-11-03T16:20:50.182Z</time>
      </trkpt>
      <trkpt lat="38.971013" lon="-1.372696">
        <ele>989.598638</ele>
        <time>2021-11-03T16:20:50.182Z</time>
      </trkpt>
      <trkpt lat="38.970649" lon="-1.372713">
        <ele>989.384359</ele>
        <time>2021-11-03T16:20:50.182Z</time>
      </trkpt>
      <trkpt lat="38.970177" lon="-1.372698">
        <ele>989.106600</ele>
        <time>2021-11-03T16:20:50.182Z</time>
      </trkpt>
      <trkpt lat="38.970120" lon="-1.372696">
        <ele>989.073055</ele>
        <time>2021-11-03T16:20:50.182Z</time>
      </trkpt>
      <trkpt lat="38.969953" lon="-1.372698">
        <ele>989.089671</ele>
        <time>2021-11-03T16:20:50.182Z</time>
      </trkpt>
      <trkpt lat="38.969669" lon="-1.372700">
        <ele>989.324531</ele>
        <time>2021-11-03T16:20:50.182Z</time>
      </trkpt>
      <trkpt lat="38.969367" lon="-1.372696">
        <ele>989.574286</ele>
        <time>2021-11-03T16:20:50.182Z</time>
      </trkpt>
      <trkpt lat="38.969306" lon="-1.372688">
        <ele>989.624992</ele>
        <time>2021-11-03T16:20:50.182Z</time>
      </trkpt>
      <trkpt lat="38.969246" lon="-1.372672">
        <ele>989.675665</ele>
        <time>2021-11-03T16:20:50.182Z</time>
      </trkpt>
      <trkpt lat="38.969134" lon="-1.372615">
        <ele>989.775272</ele>
        <time>2021-11-03T16:20:50.182Z</time>
      </trkpt>
      <trkpt lat="38.969081" lon="-1.372576">
        <ele>989.825766</ele>
        <time>2021-11-03T16:20:50.182Z</time>
      </trkpt>
      <trkpt lat="38.968982" lon="-1.372484">
        <ele>989.926769</ele>
        <time>2021-11-03T16:20:50.182Z</time>
      </trkpt>
      <trkpt lat="38.968854" lon="-1.372322">
        <ele>990.075272</ele>
        <time>2021-11-03T16:20:50.182Z</time>
      </trkpt>
      <trkpt lat="38.968794" lon="-1.372190">
        <ele>990.173582</ele>
        <time>2021-11-03T16:20:50.182Z</time>
      </trkpt>
      <trkpt lat="38.968737" lon="-1.372057">
        <ele>990.271225</ele>
        <time>2021-11-03T16:20:50.182Z</time>
      </trkpt>
      <trkpt lat="38.968653" lon="-1.371945">
        <ele>990.371280</ele>
        <time>2021-11-03T16:20:50.182Z</time>
      </trkpt>
      <trkpt lat="38.968515" lon="-1.371786">
        <ele>990.529328</ele>
        <time>2021-11-03T16:20:50.182Z</time>
      </trkpt>
      <trkpt lat="38.968469" lon="-1.371735">
        <ele>990.596256</ele>
        <time>2021-11-03T16:20:50.182Z</time>
      </trkpt>
      <trkpt lat="38.968064" lon="-1.371254">
        <ele>991.203762</ele>
        <time>2021-11-03T16:20:50.182Z</time>
      </trkpt>
      <trkpt lat="38.968019" lon="-1.371200">
        <ele>991.271586</ele>
        <time>2021-11-03T16:20:50.182Z</time>
      </trkpt>
      <trkpt lat="38.967973" lon="-1.371144">
        <ele>991.341387</ele>
        <time>2021-11-03T16:20:50.182Z</time>
      </trkpt>
      <trkpt lat="38.967652" lon="-1.370758">
        <ele>991.825671</ele>
        <time>2021-11-03T16:20:50.182Z</time>
      </trkpt>
      <trkpt lat="38.967517" lon="-1.370588">
        <ele>992.033882</ele>
        <time>2021-11-03T16:20:50.182Z</time>
      </trkpt>
      <trkpt lat="38.967100" lon="-1.370129">
        <ele>992.074749</ele>
        <time>2021-11-03T16:20:50.182Z</time>
      </trkpt>
      <trkpt lat="38.966665" lon="-1.369703">
        <ele>990.359392</ele>
        <time>2021-11-03T16:20:50.182Z</time>
      </trkpt>
      <trkpt lat="38.966594" lon="-1.369659">
        <ele>990.112127</ele>
        <time>2021-11-03T16:20:50.182Z</time>
      </trkpt>
      <trkpt lat="38.966368" lon="-1.369570">
        <ele>989.370583</ele>
        <time>2021-11-03T16:20:50.182Z</time>
      </trkpt>
      <trkpt lat="38.966290" lon="-1.369555">
        <ele>989.123146</ele>
        <time>2021-11-03T16:20:50.182Z</time>
      </trkpt>
      <trkpt lat="38.966132" lon="-1.369541">
        <ele>988.626263</ele>
        <time>2021-11-03T16:20:50.182Z</time>
      </trkpt>
      <trkpt lat="38.965975" lon="-1.369530">
        <ele>988.132962</ele>
        <time>2021-11-03T16:20:50.182Z</time>
      </trkpt>
      <trkpt lat="38.965740" lon="-1.369471">
        <ele>987.381759</ele>
        <time>2021-11-03T16:20:50.182Z</time>
      </trkpt>
      <trkpt lat="38.965583" lon="-1.369408">
        <ele>986.865770</ele>
        <time>2021-11-03T16:20:50.182Z</time>
      </trkpt>
      <trkpt lat="38.965029" lon="-1.369113">
        <ele>984.226402</ele>
        <time>2021-11-03T16:20:50.182Z</time>
      </trkpt>
      <trkpt lat="38.964945" lon="-1.369073">
        <ele>983.831103</ele>
        <time>2021-11-03T16:20:50.182Z</time>
      </trkpt>
      <trkpt lat="38.964861" lon="-1.369038">
        <ele>983.441430</ele>
        <time>2021-11-03T16:20:50.182Z</time>
      </trkpt>
      <trkpt lat="38.964777" lon="-1.369002">
        <ele>983.050684</ele>
        <time>2021-11-03T16:20:50.182Z</time>
      </trkpt>
      <trkpt lat="38.964693" lon="-1.368964">
        <ele>982.657716</ele>
        <time>2021-11-03T16:20:50.182Z</time>
      </trkpt>
      <trkpt lat="38.964531" lon="-1.368875">
        <ele>981.880290</ele>
        <time>2021-11-03T16:20:50.182Z</time>
      </trkpt>
      <trkpt lat="38.964452" lon="-1.368826">
        <ele>981.493224</ele>
        <time>2021-11-03T16:20:50.182Z</time>
      </trkpt>
      <trkpt lat="38.964372" lon="-1.368777">
        <ele>981.102179</ele>
        <time>2021-11-03T16:20:50.182Z</time>
      </trkpt>
      <trkpt lat="38.964127" lon="-1.368649">
        <ele>979.935150</ele>
        <time>2021-11-03T16:20:50.182Z</time>
      </trkpt>
      <trkpt lat="38.963954" lon="-1.368601">
        <ele>979.154110</ele>
        <time>2021-11-03T16:20:50.182Z</time>
      </trkpt>
      <trkpt lat="38.963780" lon="-1.368570">
        <ele>978.488007</ele>
        <time>2021-11-03T16:20:50.182Z</time>
      </trkpt>
      <trkpt lat="38.963520" lon="-1.368526">
        <ele>977.567849</ele>
        <time>2021-11-03T16:20:50.182Z</time>
      </trkpt>
      <trkpt lat="38.963173" lon="-1.368513">
        <ele>976.349770</ele>
        <time>2021-11-03T16:20:50.182Z</time>
      </trkpt>
      <trkpt lat="38.963001" lon="-1.368535">
        <ele>975.743275</ele>
        <time>2021-11-03T16:20:50.182Z</time>
      </trkpt>
      <trkpt lat="38.962832" lon="-1.368570">
        <ele>975.142644</ele>
        <time>2021-11-03T16:20:50.182Z</time>
      </trkpt>
      <trkpt lat="38.962668" lon="-1.368606">
        <ele>974.558875</ele>
        <time>2021-11-03T16:20:50.182Z</time>
      </trkpt>
      <trkpt lat="38.962587" lon="-1.368614">
        <ele>974.273823</ele>
        <time>2021-11-03T16:20:50.182Z</time>
      </trkpt>
      <trkpt lat="38.962428" lon="-1.368593">
        <ele>973.712986</ele>
        <time>2021-11-03T16:20:50.182Z</time>
      </trkpt>
      <trkpt lat="38.962352" lon="-1.368557">
        <ele>973.428802</ele>
        <time>2021-11-03T16:20:50.182Z</time>
      </trkpt>
      <trkpt lat="38.962280" lon="-1.368508">
        <ele>973.142976</ele>
        <time>2021-11-03T16:20:50.182Z</time>
      </trkpt>
      <trkpt lat="38.962073" lon="-1.368331">
        <ele>972.177035</ele>
        <time>2021-11-03T16:20:50.182Z</time>
      </trkpt>
      <trkpt lat="38.961998" lon="-1.368280">
        <ele>971.794677</ele>
        <time>2021-11-03T16:20:50.182Z</time>
      </trkpt>
      <trkpt lat="38.961753" lon="-1.368173">
        <ele>970.628558</ele>
        <time>2021-11-03T16:20:50.182Z</time>
      </trkpt>
      <trkpt lat="38.961504" lon="-1.368056">
        <ele>969.433785</ele>
        <time>2021-11-03T16:20:50.182Z</time>
      </trkpt>
      <trkpt lat="38.961341" lon="-1.367944">
        <ele>968.600884</ele>
        <time>2021-11-03T16:20:50.182Z</time>
      </trkpt>
      <trkpt lat="38.961180" lon="-1.367815">
        <ele>967.745970</ele>
        <time>2021-11-03T16:20:50.182Z</time>
      </trkpt>
      <trkpt lat="38.960929" lon="-1.367610">
        <ele>966.405898</ele>
        <time>2021-11-03T16:20:50.182Z</time>
      </trkpt>
      <trkpt lat="38.960843" lon="-1.367541">
        <ele>965.949062</ele>
        <time>2021-11-03T16:20:50.182Z</time>
      </trkpt>
      <trkpt lat="38.960754" lon="-1.367473">
        <ele>965.482500</ele>
        <time>2021-11-03T16:20:50.182Z</time>
      </trkpt>
      <trkpt lat="38.960574" lon="-1.367340">
        <ele>964.546897</ele>
        <time>2021-11-03T16:20:50.182Z</time>
      </trkpt>
      <trkpt lat="38.960481" lon="-1.367277">
        <ele>963.880333</ele>
        <time>2021-11-03T16:20:50.182Z</time>
      </trkpt>
      <trkpt lat="38.960385" lon="-1.367220">
        <ele>963.185418</ele>
        <time>2021-11-03T16:20:50.182Z</time>
      </trkpt>
      <trkpt lat="38.960288" lon="-1.367167">
        <ele>962.492777</ele>
        <time>2021-11-03T16:20:50.182Z</time>
      </trkpt>
      <trkpt lat="38.960188" lon="-1.367116">
        <ele>961.785778</ele>
        <time>2021-11-03T16:20:50.182Z</time>
      </trkpt>
      <trkpt lat="38.960087" lon="-1.367072">
        <ele>961.084948</ele>
        <time>2021-11-03T16:20:50.182Z</time>
      </trkpt>
      <trkpt lat="38.959984" lon="-1.367032">
        <ele>960.377835</ele>
        <time>2021-11-03T16:20:50.182Z</time>
      </trkpt>
      <trkpt lat="38.959883" lon="-1.366997">
        <ele>959.690380</ele>
        <time>2021-11-03T16:20:50.182Z</time>
      </trkpt>
      <trkpt lat="38.959786" lon="-1.366965">
        <ele>959.032248</ele>
        <time>2021-11-03T16:20:50.182Z</time>
      </trkpt>
      <trkpt lat="38.959697" lon="-1.366932">
        <ele>958.423508</ele>
        <time>2021-11-03T16:20:50.182Z</time>
      </trkpt>
      <trkpt lat="38.959615" lon="-1.366896">
        <ele>957.854061</ele>
        <time>2021-11-03T16:20:50.182Z</time>
      </trkpt>
      <trkpt lat="38.959466" lon="-1.366809">
        <ele>956.778617</ele>
        <time>2021-11-03T16:20:50.182Z</time>
      </trkpt>
      <trkpt lat="38.959406" lon="-1.366747">
        <ele>956.272770</ele>
        <time>2021-11-03T16:20:50.182Z</time>
      </trkpt>
      <trkpt lat="38.959365" lon="-1.366668">
        <ele>955.787387</ele>
        <time>2021-11-03T16:20:50.182Z</time>
      </trkpt>
      <trkpt lat="38.959326" lon="-1.366466">
        <ele>954.723745</ele>
        <time>2021-11-03T16:20:50.182Z</time>
      </trkpt>
      <trkpt lat="38.959293" lon="-1.366253">
        <ele>953.613835</ele>
        <time>2021-11-03T16:20:50.182Z</time>
      </trkpt>
      <trkpt lat="38.959216" lon="-1.366092">
        <ele>952.658895</ele>
        <time>2021-11-03T16:20:50.182Z</time>
      </trkpt>
      <trkpt lat="38.959101" lon="-1.365980">
        <ele>952.123400</ele>
        <time>2021-11-03T16:20:50.182Z</time>
      </trkpt>
      <trkpt lat="38.959033" lon="-1.365929">
        <ele>951.831185</ele>
        <time>2021-11-03T16:20:50.182Z</time>
      </trkpt>
      <trkpt lat="38.958963" lon="-1.365883">
        <ele>951.539377</ele>
        <time>2021-11-03T16:20:50.182Z</time>
      </trkpt>
      <trkpt lat="38.958749" lon="-1.365750">
        <ele>950.657080</ele>
        <time>2021-11-03T16:20:50.182Z</time>
      </trkpt>
      <trkpt lat="38.958675" lon="-1.365694">
        <ele>950.338352</ele>
        <time>2021-11-03T16:20:50.182Z</time>
      </trkpt>
      <trkpt lat="38.958524" lon="-1.365573">
        <ele>949.677909</ele>
        <time>2021-11-03T16:20:50.182Z</time>
      </trkpt>
      <trkpt lat="38.958294" lon="-1.365407">
        <ele>948.698851</ele>
        <time>2021-11-03T16:20:50.182Z</time>
      </trkpt>
      <trkpt lat="38.958222" lon="-1.365346">
        <ele>948.378790</ele>
        <time>2021-11-03T16:20:50.182Z</time>
      </trkpt>
      <trkpt lat="38.958146" lon="-1.365287">
        <ele>948.049250</ele>
        <time>2021-11-03T16:20:50.182Z</time>
      </trkpt>
      <trkpt lat="38.957994" lon="-1.365173">
        <ele>947.396061</ele>
        <time>2021-11-03T16:20:50.182Z</time>
      </trkpt>
      <trkpt lat="38.957830" lon="-1.365082">
        <ele>946.733021</ele>
        <time>2021-11-03T16:20:50.182Z</time>
      </trkpt>
      <trkpt lat="38.957745" lon="-1.365048">
        <ele>946.402580</ele>
        <time>2021-11-03T16:20:50.182Z</time>
      </trkpt>
      <trkpt lat="38.957358" lon="-1.364826">
        <ele>945.679041</ele>
        <time>2021-11-03T16:20:50.182Z</time>
      </trkpt>
      <trkpt lat="38.957287" lon="-1.364762">
        <ele>945.591503</ele>
        <time>2021-11-03T16:20:50.182Z</time>
      </trkpt>
      <trkpt lat="38.957162" lon="-1.364605">
        <ele>945.415097</ele>
        <time>2021-11-03T16:20:50.182Z</time>
      </trkpt>
      <trkpt lat="38.957107" lon="-1.364515">
        <ele>945.325231</ele>
        <time>2021-11-03T16:20:50.182Z</time>
      </trkpt>
      <trkpt lat="38.956948" lon="-1.364228">
        <ele>945.048577</ele>
        <time>2021-11-03T16:20:50.182Z</time>
      </trkpt>
      <trkpt lat="38.956808" lon="-1.363928">
        <ele>944.773894</ele>
        <time>2021-11-03T16:20:50.182Z</time>
      </trkpt>
      <trkpt lat="38.956760" lon="-1.363831">
        <ele>944.683629</ele>
        <time>2021-11-03T16:20:50.182Z</time>
      </trkpt>
      <trkpt lat="38.956545" lon="-1.363378">
        <ele>944.266975</ele>
        <time>2021-11-03T16:20:50.182Z</time>
      </trkpt>
      <trkpt lat="38.956393" lon="-1.363020">
        <ele>943.926861</ele>
        <time>2021-11-03T16:20:50.182Z</time>
      </trkpt>
      <trkpt lat="38.956343" lon="-1.362940">
        <ele>943.839426</ele>
        <time>2021-11-03T16:20:50.182Z</time>
      </trkpt>
      <trkpt lat="38.956290" lon="-1.362868">
        <ele>943.754968</ele>
        <time>2021-11-03T16:20:50.182Z</time>
      </trkpt>
      <trkpt lat="38.955921" lon="-1.362362">
        <ele>943.164021</ele>
        <time>2021-11-03T16:20:50.182Z</time>
      </trkpt>
      <trkpt lat="38.955765" lon="-1.362142">
        <ele>942.910386</ele>
        <time>2021-11-03T16:20:50.182Z</time>
      </trkpt>
      <trkpt lat="38.955599" lon="-1.361929">
        <ele>942.653489</ele>
        <time>2021-11-03T16:20:50.182Z</time>
      </trkpt>
      <trkpt lat="38.955545" lon="-1.361854">
        <ele>942.566416</ele>
        <time>2021-11-03T16:20:50.182Z</time>
      </trkpt>
      <trkpt lat="38.955494" lon="-1.361773">
        <ele>942.477630</ele>
        <time>2021-11-03T16:20:50.182Z</time>
      </trkpt>
      <trkpt lat="38.955362" lon="-1.361483">
        <ele>942.165986</ele>
        <time>2021-11-03T16:20:50.182Z</time>
      </trkpt>
      <trkpt lat="38.955142" lon="-1.360982">
        <ele>941.010539</ele>
        <time>2021-11-03T16:20:50.182Z</time>
      </trkpt>
      <trkpt lat="38.955093" lon="-1.360886">
        <ele>940.779931</ele>
        <time>2021-11-03T16:20:50.182Z</time>
      </trkpt>
      <trkpt lat="38.954986" lon="-1.360698">
        <ele>940.312068</ele>
        <time>2021-11-03T16:20:50.182Z</time>
      </trkpt>
      <trkpt lat="38.954805" lon="-1.360433">
        <ele>939.603758</ele>
        <time>2021-11-03T16:20:50.182Z</time>
      </trkpt>
      <trkpt lat="38.954609" lon="-1.360181">
        <ele>938.887997</ele>
        <time>2021-11-03T16:20:50.182Z</time>
      </trkpt>
      <trkpt lat="38.954539" lon="-1.360103">
        <ele>938.648800</ele>
        <time>2021-11-03T16:20:50.182Z</time>
      </trkpt>
      <trkpt lat="38.954227" lon="-1.359838">
        <ele>937.683181</ele>
        <time>2021-11-03T16:20:50.182Z</time>
      </trkpt>
      <trkpt lat="38.953735" lon="-1.359533">
        <ele>936.626698</ele>
        <time>2021-11-03T16:20:50.182Z</time>
      </trkpt>
      <trkpt lat="38.953574" lon="-1.359435">
        <ele>936.292694</ele>
        <time>2021-11-03T16:20:50.182Z</time>
      </trkpt>
      <trkpt lat="38.953495" lon="-1.359386">
        <ele>936.128230</ele>
        <time>2021-11-03T16:20:50.182Z</time>
      </trkpt>
      <trkpt lat="38.953189" lon="-1.359162">
        <ele>935.467995</ele>
        <time>2021-11-03T16:20:50.182Z</time>
      </trkpt>
      <trkpt lat="38.953046" lon="-1.359035">
        <ele>935.142121</ele>
        <time>2021-11-03T16:20:50.182Z</time>
      </trkpt>
      <trkpt lat="38.952730" lon="-1.358671">
        <ele>934.346621</ele>
        <time>2021-11-03T16:20:50.182Z</time>
      </trkpt>
      <trkpt lat="38.952426" lon="-1.358333">
        <ele>933.184269</ele>
        <time>2021-11-03T16:20:50.182Z</time>
      </trkpt>
      <trkpt lat="38.952253" lon="-1.358105">
        <ele>932.402999</ele>
        <time>2021-11-03T16:20:50.182Z</time>
      </trkpt>
      <trkpt lat="38.951887" lon="-1.357601">
        <ele>930.711740</ele>
        <time>2021-11-03T16:20:50.182Z</time>
      </trkpt>
      <trkpt lat="38.951764" lon="-1.357431">
        <ele>930.142247</ele>
        <time>2021-11-03T16:20:50.182Z</time>
      </trkpt>
      <trkpt lat="38.951699" lon="-1.357349">
        <ele>929.855070</ele>
        <time>2021-11-03T16:20:50.182Z</time>
      </trkpt>
      <trkpt lat="38.951495" lon="-1.357119">
        <ele>928.999417</ele>
        <time>2021-11-03T16:20:50.182Z</time>
      </trkpt>
      <trkpt lat="38.951357" lon="-1.356967">
        <ele>928.381439</ele>
        <time>2021-11-03T16:20:50.182Z</time>
      </trkpt>
      <trkpt lat="38.951289" lon="-1.356888">
        <ele>927.953759</ele>
        <time>2021-11-03T16:20:50.182Z</time>
      </trkpt>
      <trkpt lat="38.951153" lon="-1.356725">
        <ele>927.086128</ele>
        <time>2021-11-03T16:20:50.182Z</time>
      </trkpt>
      <trkpt lat="38.950951" lon="-1.356473">
        <ele>925.772686</ele>
        <time>2021-11-03T16:20:50.182Z</time>
      </trkpt>
      <trkpt lat="38.950740" lon="-1.356218">
        <ele>924.421345</ele>
        <time>2021-11-03T16:20:50.182Z</time>
      </trkpt>
      <trkpt lat="38.950594" lon="-1.356052">
        <ele>923.511836</ele>
        <time>2021-11-03T16:20:50.182Z</time>
      </trkpt>
      <trkpt lat="38.950445" lon="-1.355885">
        <ele>922.589411</ele>
        <time>2021-11-03T16:20:50.182Z</time>
      </trkpt>
      <trkpt lat="38.950218" lon="-1.355644">
        <ele>921.215622</ele>
        <time>2021-11-03T16:20:50.182Z</time>
      </trkpt>
      <trkpt lat="38.950142" lon="-1.355565">
        <ele>920.759549</ele>
        <time>2021-11-03T16:20:50.182Z</time>
      </trkpt>
      <trkpt lat="38.949988" lon="-1.355413">
        <ele>919.977673</ele>
        <time>2021-11-03T16:20:50.182Z</time>
      </trkpt>
      <trkpt lat="38.949908" lon="-1.355344">
        <ele>919.732873</ele>
        <time>2021-11-03T16:20:50.182Z</time>
      </trkpt>
      <trkpt lat="38.949829" lon="-1.355278">
        <ele>919.493461</ele>
        <time>2021-11-03T16:20:50.182Z</time>
      </trkpt>
      <trkpt lat="38.949750" lon="-1.355211">
        <ele>919.252966</ele>
        <time>2021-11-03T16:20:50.182Z</time>
      </trkpt>
      <trkpt lat="38.949441" lon="-1.354932">
        <ele>918.293459</ele>
        <time>2021-11-03T16:20:50.182Z</time>
      </trkpt>
      <trkpt lat="38.949143" lon="-1.354624">
        <ele>917.321849</ele>
        <time>2021-11-03T16:20:50.182Z</time>
      </trkpt>
      <trkpt lat="38.948935" lon="-1.354366">
        <ele>916.587415</ele>
        <time>2021-11-03T16:20:50.182Z</time>
      </trkpt>
      <trkpt lat="38.948601" lon="-1.353920">
        <ele>915.321498</ele>
        <time>2021-11-03T16:20:50.182Z</time>
      </trkpt>
      <trkpt lat="38.948410" lon="-1.353646">
        <ele>914.433907</ele>
        <time>2021-11-03T16:20:50.182Z</time>
      </trkpt>
      <trkpt lat="38.948089" lon="-1.353211">
        <ele>912.987402</ele>
        <time>2021-11-03T16:20:50.182Z</time>
      </trkpt>
      <trkpt lat="38.948023" lon="-1.353130">
        <ele>912.704410</ele>
        <time>2021-11-03T16:20:50.182Z</time>
      </trkpt>
      <trkpt lat="38.947765" lon="-1.352833">
        <ele>911.630325</ele>
        <time>2021-11-03T16:20:50.182Z</time>
      </trkpt>
      <trkpt lat="38.947696" lon="-1.352790">
        <ele>911.392497</ele>
        <time>2021-11-03T16:20:50.182Z</time>
      </trkpt>
      <trkpt lat="38.947620" lon="-1.352767">
        <ele>911.150327</ele>
        <time>2021-11-03T16:20:50.182Z</time>
      </trkpt>
      <trkpt lat="38.947465" lon="-1.352779">
        <ele>910.668694</ele>
        <time>2021-11-03T16:20:50.182Z</time>
      </trkpt>
      <trkpt lat="38.947390" lon="-1.352815">
        <ele>910.420386</ele>
        <time>2021-11-03T16:20:50.182Z</time>
      </trkpt>
      <trkpt lat="38.947320" lon="-1.352866">
        <ele>910.170835</ele>
        <time>2021-11-03T16:20:50.182Z</time>
      </trkpt>
      <trkpt lat="38.947253" lon="-1.352927">
        <ele>909.980397</ele>
        <time>2021-11-03T16:20:50.182Z</time>
      </trkpt>
      <trkpt lat="38.947055" lon="-1.353113">
        <ele>910.030554</ele>
        <time>2021-11-03T16:20:50.182Z</time>
      </trkpt>
      <trkpt lat="38.946924" lon="-1.353229">
        <ele>910.063089</ele>
        <time>2021-11-03T16:20:50.182Z</time>
      </trkpt>
      <trkpt lat="38.946732" lon="-1.353400">
        <ele>910.110862</ele>
        <time>2021-11-03T16:20:50.182Z</time>
      </trkpt>
      <trkpt lat="38.946544" lon="-1.353565">
        <ele>910.157421</ele>
        <time>2021-11-03T16:20:50.182Z</time>
      </trkpt>
      <trkpt lat="38.946347" lon="-1.353701">
        <ele>910.203156</ele>
        <time>2021-11-03T16:20:50.182Z</time>
      </trkpt>
      <trkpt lat="38.946166" lon="-1.353817">
        <ele>910.244523</ele>
        <time>2021-11-03T16:20:50.182Z</time>
      </trkpt>
      <trkpt lat="38.946105" lon="-1.353841">
        <ele>910.257571</ele>
        <time>2021-11-03T16:20:50.182Z</time>
      </trkpt>
      <trkpt lat="38.945976" lon="-1.353834">
        <ele>910.283981</ele>
        <time>2021-11-03T16:20:50.182Z</time>
      </trkpt>
      <trkpt lat="38.945670" lon="-1.353652">
        <ele>910.355671</ele>
        <time>2021-11-03T16:20:50.182Z</time>
      </trkpt>
      <trkpt lat="38.945201" lon="-1.353268">
        <ele>910.505403</ele>
        <time>2021-11-03T16:20:50.182Z</time>
      </trkpt>
      <trkpt lat="38.944958" lon="-1.353059">
        <ele>910.584132</ele>
        <time>2021-11-03T16:20:50.182Z</time>
      </trkpt>
      <trkpt lat="38.944642" lon="-1.352788">
        <ele>910.686422</ele>
        <time>2021-11-03T16:20:50.182Z</time>
      </trkpt>
      <trkpt lat="38.944175" lon="-1.352393">
        <ele>910.745357</ele>
        <time>2021-11-03T16:20:50.182Z</time>
      </trkpt>
      <trkpt lat="38.944107" lon="-1.352338">
        <ele>910.527198</ele>
        <time>2021-11-03T16:20:50.182Z</time>
      </trkpt>
      <trkpt lat="38.944038" lon="-1.352283">
        <ele>910.306736</ele>
        <time>2021-11-03T16:20:50.182Z</time>
      </trkpt>
      <trkpt lat="38.943903" lon="-1.352171">
        <ele>909.870439</ele>
        <time>2021-11-03T16:20:50.182Z</time>
      </trkpt>
      <trkpt lat="38.943429" lon="-1.351790">
        <ele>908.352416</ele>
        <time>2021-11-03T16:20:50.182Z</time>
      </trkpt>
      <trkpt lat="38.943217" lon="-1.351626">
        <ele>907.680541</ele>
        <time>2021-11-03T16:20:50.182Z</time>
      </trkpt>
      <trkpt lat="38.943145" lon="-1.351570">
        <ele>907.452027</ele>
        <time>2021-11-03T16:20:50.182Z</time>
      </trkpt>
      <trkpt lat="38.942781" lon="-1.351288">
        <ele>906.297977</ele>
        <time>2021-11-03T16:20:50.182Z</time>
      </trkpt>
      <trkpt lat="38.942565" lon="-1.351111">
        <ele>905.378168</ele>
        <time>2021-11-03T16:20:50.182Z</time>
      </trkpt>
      <trkpt lat="38.942493" lon="-1.351052">
        <ele>904.994255</ele>
        <time>2021-11-03T16:20:50.182Z</time>
      </trkpt>
      <trkpt lat="38.942203" lon="-1.350807">
        <ele>903.433949</ele>
        <time>2021-11-03T16:20:50.182Z</time>
      </trkpt>
      <trkpt lat="38.941990" lon="-1.350618">
        <ele>902.270245</ele>
        <time>2021-11-03T16:20:50.182Z</time>
      </trkpt>
      <trkpt lat="38.941777" lon="-1.350426">
        <ele>901.100548</ele>
        <time>2021-11-03T16:20:50.182Z</time>
      </trkpt>
      <trkpt lat="38.941633" lon="-1.350299">
        <ele>900.315353</ele>
        <time>2021-11-03T16:20:50.182Z</time>
      </trkpt>
      <trkpt lat="38.941482" lon="-1.350174">
        <ele>899.507814</ele>
        <time>2021-11-03T16:20:50.182Z</time>
      </trkpt>
      <trkpt lat="38.941405" lon="-1.350117">
        <ele>899.108294</ele>
        <time>2021-11-03T16:20:50.182Z</time>
      </trkpt>
      <trkpt lat="38.941327" lon="-1.350061">
        <ele>898.706588</ele>
        <time>2021-11-03T16:20:50.182Z</time>
      </trkpt>
      <trkpt lat="38.941247" lon="-1.350008">
        <ele>898.301919</ele>
        <time>2021-11-03T16:20:50.182Z</time>
      </trkpt>
      <trkpt lat="38.941004" lon="-1.349857">
        <ele>897.398573</ele>
        <time>2021-11-03T16:20:50.182Z</time>
      </trkpt>
      <trkpt lat="38.940839" lon="-1.349763">
        <ele>896.914725</ele>
        <time>2021-11-03T16:20:50.182Z</time>
      </trkpt>
      <trkpt lat="38.940598" lon="-1.349615">
        <ele>896.198680</ele>
        <time>2021-11-03T16:20:50.182Z</time>
      </trkpt>
      <trkpt lat="38.940214" lon="-1.349368">
        <ele>895.047518</ele>
        <time>2021-11-03T16:20:50.182Z</time>
      </trkpt>
      <trkpt lat="38.939996" lon="-1.349219">
        <ele>894.385603</ele>
        <time>2021-11-03T16:20:50.182Z</time>
      </trkpt>
      <trkpt lat="38.939852" lon="-1.349114">
        <ele>893.941770</ele>
        <time>2021-11-03T16:20:50.182Z</time>
      </trkpt>
      <trkpt lat="38.939778" lon="-1.349060">
        <ele>893.713646</ele>
        <time>2021-11-03T16:20:50.182Z</time>
      </trkpt>
      <trkpt lat="38.939483" lon="-1.348843">
        <ele>892.938360</ele>
        <time>2021-11-03T16:20:50.182Z</time>
      </trkpt>
      <trkpt lat="38.939419" lon="-1.348792">
        <ele>892.854706</ele>
        <time>2021-11-03T16:20:50.182Z</time>
      </trkpt>
      <trkpt lat="38.939277" lon="-1.348679">
        <ele>892.669170</ele>
        <time>2021-11-03T16:20:50.182Z</time>
      </trkpt>
      <trkpt lat="38.939241" lon="-1.348656">
        <ele>892.624508</ele>
        <time>2021-11-03T16:20:50.182Z</time>
      </trkpt>
      <trkpt lat="38.939206" lon="-1.348619">
        <ele>892.574166</ele>
        <time>2021-11-03T16:20:50.182Z</time>
      </trkpt>
      <trkpt lat="38.939152" lon="-1.348506">
        <ele>892.459561</ele>
        <time>2021-11-03T16:20:50.182Z</time>
      </trkpt>
      <trkpt lat="38.939168" lon="-1.348367">
        <ele>892.338137</ele>
        <time>2021-11-03T16:20:50.182Z</time>
      </trkpt>
      <trkpt lat="38.939189" lon="-1.348338">
        <ele>892.303897</ele>
        <time>2021-11-03T16:20:50.182Z</time>
      </trkpt>
      <trkpt lat="38.939197" lon="-1.348293">
        <ele>892.264008</ele>
        <time>2021-11-03T16:20:50.182Z</time>
      </trkpt>
      <trkpt lat="38.939201" lon="-1.348118">
        <ele>892.112718</ele>
        <time>2021-11-03T16:20:50.182Z</time>
      </trkpt>
      <trkpt lat="38.939225" lon="-1.347556">
        <ele>891.626337</ele>
        <time>2021-11-03T16:20:50.182Z</time>
      </trkpt>
      <trkpt lat="38.939239" lon="-1.347222">
        <ele>891.337295</ele>
        <time>2021-11-03T16:20:50.182Z</time>
      </trkpt>
      <trkpt lat="38.939254" lon="-1.346935">
        <ele>891.088726</ele>
        <time>2021-11-03T16:20:50.182Z</time>
      </trkpt>
      <trkpt lat="38.939282" lon="-1.346257">
        <ele>890.602687</ele>
        <time>2021-11-03T16:20:50.182Z</time>
      </trkpt>
      <trkpt lat="38.939285" lon="-1.346178">
        <ele>890.547218</ele>
        <time>2021-11-03T16:20:50.182Z</time>
      </trkpt>
      <trkpt lat="38.939288" lon="-1.346100">
        <ele>890.492450</ele>
        <time>2021-11-03T16:20:50.182Z</time>
      </trkpt>
      <trkpt lat="38.939292" lon="-1.346021">
        <ele>890.436930</ele>
        <time>2021-11-03T16:20:50.182Z</time>
      </trkpt>
      <trkpt lat="38.939295" lon="-1.345942">
        <ele>890.381461</ele>
        <time>2021-11-03T16:20:50.182Z</time>
      </trkpt>
      <trkpt lat="38.939299" lon="-1.345863">
        <ele>890.325941</ele>
        <time>2021-11-03T16:20:50.182Z</time>
      </trkpt>
      <trkpt lat="38.939302" lon="-1.345783">
        <ele>890.269772</ele>
        <time>2021-11-03T16:20:50.182Z</time>
      </trkpt>
      <trkpt lat="38.939315" lon="-1.345459">
        <ele>890.042248</ele>
        <time>2021-11-03T16:20:50.182Z</time>
      </trkpt>
      <trkpt lat="38.939330" lon="-1.345130">
        <ele>889.811124</ele>
        <time>2021-11-03T16:20:50.182Z</time>
      </trkpt>
      <trkpt lat="38.939334" lon="-1.345046">
        <ele>889.752105</ele>
        <time>2021-11-03T16:20:50.182Z</time>
      </trkpt>
      <trkpt lat="38.939371" lon="-1.344330">
        <ele>889.163765</ele>
        <time>2021-11-03T16:20:50.182Z</time>
      </trkpt>
      <trkpt lat="38.939386" lon="-1.344046">
        <ele>888.861596</ele>
        <time>2021-11-03T16:20:50.182Z</time>
      </trkpt>
      <trkpt lat="38.939392" lon="-1.343950">
        <ele>888.759361</ele>
        <time>2021-11-03T16:20:50.182Z</time>
      </trkpt>
      <trkpt lat="38.939401" lon="-1.343658">
        <ele>888.449152</ele>
        <time>2021-11-03T16:20:50.182Z</time>
      </trkpt>
      <trkpt lat="38.939414" lon="-1.343363">
        <ele>888.135499</ele>
        <time>2021-11-03T16:20:50.182Z</time>
      </trkpt>
      <trkpt lat="38.939435" lon="-1.342964">
        <ele>887.710980</ele>
        <time>2021-11-03T16:20:50.182Z</time>
      </trkpt>
      <trkpt lat="38.939453" lon="-1.342558">
        <ele>887.279300</ele>
        <time>2021-11-03T16:20:50.182Z</time>
      </trkpt>
      <trkpt lat="38.939456" lon="-1.342456">
        <ele>887.170947</ele>
        <time>2021-11-03T16:20:50.182Z</time>
      </trkpt>
      <trkpt lat="38.939473" lon="-1.342051">
        <ele>886.707062</ele>
        <time>2021-11-03T16:20:50.182Z</time>
      </trkpt>
      <trkpt lat="38.939507" lon="-1.341343">
        <ele>885.839650</ele>
        <time>2021-11-03T16:20:50.182Z</time>
      </trkpt>
      <trkpt lat="38.939530" lon="-1.340934">
        <ele>885.338208</ele>
        <time>2021-11-03T16:20:50.182Z</time>
      </trkpt>
      <trkpt lat="38.939537" lon="-1.340831">
        <ele>885.211776</ele>
        <time>2021-11-03T16:20:50.182Z</time>
      </trkpt>
      <trkpt lat="38.939551" lon="-1.340423">
        <ele>884.712377</ele>
        <time>2021-11-03T16:20:50.182Z</time>
      </trkpt>
      <trkpt lat="38.939569" lon="-1.340018">
        <ele>884.216324</ele>
        <time>2021-11-03T16:20:50.182Z</time>
      </trkpt>
      <trkpt lat="38.939581" lon="-1.339813">
        <ele>883.994555</ele>
        <time>2021-11-03T16:20:50.182Z</time>
      </trkpt>
      <trkpt lat="38.939588" lon="-1.339605">
        <ele>883.785081</ele>
        <time>2021-11-03T16:20:50.182Z</time>
      </trkpt>
      <trkpt lat="38.939608" lon="-1.339082">
        <ele>883.258232</ele>
        <time>2021-11-03T16:20:50.182Z</time>
      </trkpt>
      <trkpt lat="38.939618" lon="-1.338873">
        <ele>883.047550</ele>
        <time>2021-11-03T16:20:50.182Z</time>
      </trkpt>
      <trkpt lat="38.939629" lon="-1.338559">
        <ele>882.731301</ele>
        <time>2021-11-03T16:20:50.182Z</time>
      </trkpt>
      <trkpt lat="38.939633" lon="-1.338455">
        <ele>882.626534</ele>
        <time>2021-11-03T16:20:50.182Z</time>
      </trkpt>
      <trkpt lat="38.939637" lon="-1.338351">
        <ele>882.521767</ele>
        <time>2021-11-03T16:20:50.182Z</time>
      </trkpt>
      <trkpt lat="38.939642" lon="-1.338247">
        <ele>882.416928</ele>
        <time>2021-11-03T16:20:50.182Z</time>
      </trkpt>
      <trkpt lat="38.939647" lon="-1.338143">
        <ele>882.312089</ele>
        <time>2021-11-03T16:20:50.182Z</time>
      </trkpt>
      <trkpt lat="38.939651" lon="-1.338039">
        <ele>882.207323</ele>
        <time>2021-11-03T16:20:50.182Z</time>
      </trkpt>
      <trkpt lat="38.939654" lon="-1.337935">
        <ele>882.102612</ele>
        <time>2021-11-03T16:20:50.182Z</time>
      </trkpt>
      <trkpt lat="38.939666" lon="-1.337627">
        <ele>881.790718</ele>
        <time>2021-11-03T16:20:50.182Z</time>
      </trkpt>
      <trkpt lat="38.939685" lon="-1.337215">
        <ele>881.324348</ele>
        <time>2021-11-03T16:20:50.182Z</time>
      </trkpt>
      <trkpt lat="38.939697" lon="-1.336904">
        <ele>880.972491</ele>
        <time>2021-11-03T16:20:50.182Z</time>
      </trkpt>
      <trkpt lat="38.939720" lon="-1.336385">
        <ele>880.385080</ele>
        <time>2021-11-03T16:20:50.182Z</time>
      </trkpt>
      <trkpt lat="38.939725" lon="-1.336280">
        <ele>880.266209</ele>
        <time>2021-11-03T16:20:50.182Z</time>
      </trkpt>
      <trkpt lat="38.939729" lon="-1.336176">
        <ele>880.148548</ele>
        <time>2021-11-03T16:20:50.182Z</time>
      </trkpt>
      <trkpt lat="38.939734" lon="-1.336073">
        <ele>880.031933</ele>
        <time>2021-11-03T16:20:50.182Z</time>
      </trkpt>
      <trkpt lat="38.939771" lon="-1.335663">
        <ele>879.565533</ele>
        <time>2021-11-03T16:20:50.182Z</time>
      </trkpt>
      <trkpt lat="38.939816" lon="-1.335357">
        <ele>879.213633</ele>
        <time>2021-11-03T16:20:50.182Z</time>
      </trkpt>
      <trkpt lat="38.939873" lon="-1.335050">
        <ele>878.755223</ele>
        <time>2021-11-03T16:20:50.182Z</time>
      </trkpt>
      <trkpt lat="38.940006" lon="-1.334340">
        <ele>877.679645</ele>
        <time>2021-11-03T16:20:50.182Z</time>
      </trkpt>
      <trkpt lat="38.940027" lon="-1.334242">
        <ele>877.529934</ele>
        <time>2021-11-03T16:20:50.182Z</time>
      </trkpt>
      <trkpt lat="38.940064" lon="-1.334042">
        <ele>877.227160</ele>
        <time>2021-11-03T16:20:50.182Z</time>
      </trkpt>
      <trkpt lat="38.940080" lon="-1.333941">
        <ele>877.075354</ele>
        <time>2021-11-03T16:20:50.182Z</time>
      </trkpt>
      <trkpt lat="38.940096" lon="-1.333839">
        <ele>876.922106</ele>
        <time>2021-11-03T16:20:50.182Z</time>
      </trkpt>
      <trkpt lat="38.940231" lon="-1.333125">
        <ele>875.839914</ele>
        <time>2021-11-03T16:20:50.182Z</time>
      </trkpt>
      <trkpt lat="38.940302" lon="-1.332711">
        <ele>875.253902</ele>
        <time>2021-11-03T16:20:50.182Z</time>
      </trkpt>
      <trkpt lat="38.940320" lon="-1.332609">
        <ele>875.110208</ele>
        <time>2021-11-03T16:20:50.182Z</time>
      </trkpt>
      <trkpt lat="38.940377" lon="-1.332305">
        <ele>874.680596</ele>
        <time>2021-11-03T16:20:50.182Z</time>
      </trkpt>
      <trkpt lat="38.940418" lon="-1.332106">
        <ele>874.397772</ele>
        <time>2021-11-03T16:20:50.182Z</time>
      </trkpt>
      <trkpt lat="38.940453" lon="-1.331904">
        <ele>874.113453</ele>
        <time>2021-11-03T16:20:50.182Z</time>
      </trkpt>
      <trkpt lat="38.940578" lon="-1.331198">
        <ele>873.118709</ele>
        <time>2021-11-03T16:20:50.182Z</time>
      </trkpt>
      <trkpt lat="38.940597" lon="-1.331095">
        <ele>872.973278</ele>
        <time>2021-11-03T16:20:50.182Z</time>
      </trkpt>
      <trkpt lat="38.940616" lon="-1.330992">
        <ele>872.827847</ele>
        <time>2021-11-03T16:20:50.182Z</time>
      </trkpt>
      <trkpt lat="38.940694" lon="-1.330576">
        <ele>872.179501</ele>
        <time>2021-11-03T16:20:50.182Z</time>
      </trkpt>
      <trkpt lat="38.940755" lon="-1.330257">
        <ele>871.654394</ele>
        <time>2021-11-03T16:20:50.182Z</time>
      </trkpt>
      <trkpt lat="38.940772" lon="-1.330149">
        <ele>871.478257</ele>
        <time>2021-11-03T16:20:50.182Z</time>
      </trkpt>
      <trkpt lat="38.940913" lon="-1.329418">
        <ele>870.274359</ele>
        <time>2021-11-03T16:20:50.182Z</time>
      </trkpt>
      <trkpt lat="38.940934" lon="-1.329320">
        <ele>870.111870</ele>
        <time>2021-11-03T16:20:50.182Z</time>
      </trkpt>
      <trkpt lat="38.940967" lon="-1.329141">
        <ele>869.817812</ele>
        <time>2021-11-03T16:20:50.182Z</time>
      </trkpt>
      <trkpt lat="38.940959" lon="-1.329065">
        <ele>869.695219</ele>
        <time>2021-11-03T16:20:50.182Z</time>
      </trkpt>
      <trkpt lat="38.940927" lon="-1.329003">
        <ele>869.576277</ele>
        <time>2021-11-03T16:20:50.182Z</time>
      </trkpt>
      <trkpt lat="38.940877" lon="-1.328958">
        <ele>869.450843</ele>
        <time>2021-11-03T16:20:50.182Z</time>
      </trkpt>
      <trkpt lat="38.940818" lon="-1.328929">
        <ele>869.321029</ele>
        <time>2021-11-03T16:20:50.182Z</time>
      </trkpt>
      <trkpt lat="38.940755" lon="-1.328912">
        <ele>869.188733</ele>
        <time>2021-11-03T16:20:50.182Z</time>
      </trkpt>
      <trkpt lat="38.940630" lon="-1.328887">
        <ele>868.928748</ele>
        <time>2021-11-03T16:20:50.182Z</time>
      </trkpt>
      <trkpt lat="38.940449" lon="-1.328848">
        <ele>868.779867</ele>
        <time>2021-11-03T16:20:50.182Z</time>
      </trkpt>
      <trkpt lat="38.940390" lon="-1.328837">
        <ele>868.734701</ele>
        <time>2021-11-03T16:20:50.182Z</time>
      </trkpt>
      <trkpt lat="38.940332" lon="-1.328825">
        <ele>868.690196</ele>
        <time>2021-11-03T16:20:50.182Z</time>
      </trkpt>
      <trkpt lat="38.940274" lon="-1.328814">
        <ele>868.645780</ele>
        <time>2021-11-03T16:20:50.182Z</time>
      </trkpt>
      <trkpt lat="38.940163" lon="-1.328785">
        <ele>868.559968</ele>
        <time>2021-11-03T16:20:50.182Z</time>
      </trkpt>
      <trkpt lat="38.939612" lon="-1.328662">
        <ele>868.136289</ele>
        <time>2021-11-03T16:20:50.182Z</time>
      </trkpt>
      <trkpt lat="38.939452" lon="-1.328621">
        <ele>868.012690</ele>
        <time>2021-11-03T16:20:50.182Z</time>
      </trkpt>
      <trkpt lat="38.939136" lon="-1.328540">
        <ele>867.768579</ele>
        <time>2021-11-03T16:20:50.182Z</time>
      </trkpt>
      <trkpt lat="38.939084" lon="-1.328523">
        <ele>867.727930</ele>
        <time>2021-11-03T16:20:50.182Z</time>
      </trkpt>
      <trkpt lat="38.939032" lon="-1.328511">
        <ele>867.687906</ele>
        <time>2021-11-03T16:20:50.182Z</time>
      </trkpt>
      <trkpt lat="38.938928" lon="-1.328485">
        <ele>867.607641</ele>
        <time>2021-11-03T16:20:50.182Z</time>
      </trkpt>
      <trkpt lat="38.938823" lon="-1.328452">
        <ele>867.565315</ele>
        <time>2021-11-03T16:20:50.182Z</time>
      </trkpt>
      <trkpt lat="38.938562" lon="-1.328373">
        <ele>867.686693</ele>
        <time>2021-11-03T16:20:50.182Z</time>
      </trkpt>
      <trkpt lat="38.938350" lon="-1.328317">
        <ele>867.784664</ele>
        <time>2021-11-03T16:20:50.182Z</time>
      </trkpt>
      <trkpt lat="38.938297" lon="-1.328303">
        <ele>867.809157</ele>
        <time>2021-11-03T16:20:50.182Z</time>
      </trkpt>
      <trkpt lat="38.938034" lon="-1.328227">
        <ele>867.931180</ele>
        <time>2021-11-03T16:20:50.182Z</time>
      </trkpt>
      <trkpt lat="38.937711" lon="-1.328131">
        <ele>868.081250</ele>
        <time>2021-11-03T16:20:50.182Z</time>
      </trkpt>
      <trkpt lat="38.937430" lon="-1.328071">
        <ele>868.210194</ele>
        <time>2021-11-03T16:20:50.182Z</time>
      </trkpt>
      <trkpt lat="38.937317" lon="-1.328081">
        <ele>868.261467</ele>
        <time>2021-11-03T16:20:50.182Z</time>
      </trkpt>
      <trkpt lat="38.937266" lon="-1.328095">
        <ele>868.285074</ele>
        <time>2021-11-03T16:20:50.182Z</time>
      </trkpt>
      <trkpt lat="38.937174" lon="-1.328138">
        <ele>868.329386</ele>
        <time>2021-11-03T16:20:50.182Z</time>
      </trkpt>
      <trkpt lat="38.937095" lon="-1.328197">
        <ele>868.388643</ele>
        <time>2021-11-03T16:20:50.182Z</time>
      </trkpt>
      <trkpt lat="38.937026" lon="-1.328257">
        <ele>868.538294</ele>
        <time>2021-11-03T16:20:50.182Z</time>
      </trkpt>
      <trkpt lat="38.936886" lon="-1.328435">
        <ele>868.892026</ele>
        <time>2021-11-03T16:20:50.182Z</time>
      </trkpt>
      <trkpt lat="38.936839" lon="-1.328512">
        <ele>869.028799</ele>
        <time>2021-11-03T16:20:50.182Z</time>
      </trkpt>
      <trkpt lat="38.936760" lon="-1.328735">
        <ele>869.371213</ele>
        <time>2021-11-03T16:20:50.182Z</time>
      </trkpt>
      <trkpt lat="38.936734" lon="-1.328832">
        <ele>869.514583</ele>
        <time>2021-11-03T16:20:50.182Z</time>
      </trkpt>
      <trkpt lat="38.936632" lon="-1.329112">
        <ele>869.946636</ele>
        <time>2021-11-03T16:20:50.182Z</time>
      </trkpt>
      <trkpt lat="38.936415" lon="-1.329336">
        <ele>870.446591</ele>
        <time>2021-11-03T16:20:50.182Z</time>
      </trkpt>
      <trkpt lat="38.936313" lon="-1.329422">
        <ele>870.665726</ele>
        <time>2021-11-03T16:20:50.182Z</time>
      </trkpt>
      <trkpt lat="38.936202" lon="-1.329494">
        <ele>870.889082</ele>
        <time>2021-11-03T16:20:50.182Z</time>
      </trkpt>
      <trkpt lat="38.936128" lon="-1.329540">
        <ele>871.036748</ele>
        <time>2021-11-03T16:20:50.182Z</time>
      </trkpt>
      <trkpt lat="38.936052" lon="-1.329582">
        <ele>871.185362</ele>
        <time>2021-11-03T16:20:50.182Z</time>
      </trkpt>
      <trkpt lat="38.935937" lon="-1.329642">
        <ele>871.408325</ele>
        <time>2021-11-03T16:20:50.182Z</time>
      </trkpt>
      <trkpt lat="38.935821" lon="-1.329703">
        <ele>871.616421</ele>
        <time>2021-11-03T16:20:50.182Z</time>
      </trkpt>
      <trkpt lat="38.935556" lon="-1.329858">
        <ele>871.901545</ele>
        <time>2021-11-03T16:20:50.182Z</time>
      </trkpt>
      <trkpt lat="38.935516" lon="-1.329878">
        <ele>871.943578</ele>
        <time>2021-11-03T16:20:50.182Z</time>
      </trkpt>
      <trkpt lat="38.935400" lon="-1.329943">
        <ele>872.067504</ele>
        <time>2021-11-03T16:20:50.182Z</time>
      </trkpt>
      <trkpt lat="38.935209" lon="-1.330064">
        <ele>872.276037</ele>
        <time>2021-11-03T16:20:50.182Z</time>
      </trkpt>
      <trkpt lat="38.935172" lon="-1.330090">
        <ele>872.317332</ele>
        <time>2021-11-03T16:20:50.182Z</time>
      </trkpt>
      <trkpt lat="38.935097" lon="-1.330138">
        <ele>872.399381</ele>
        <time>2021-11-03T16:20:50.182Z</time>
      </trkpt>
      <trkpt lat="38.934911" lon="-1.330280">
        <ele>872.611238</ele>
        <time>2021-11-03T16:20:50.182Z</time>
      </trkpt>
      <trkpt lat="38.934874" lon="-1.330312">
        <ele>872.654910</ele>
        <time>2021-11-03T16:20:50.182Z</time>
      </trkpt>
      <trkpt lat="38.934568" lon="-1.330632">
        <ele>873.041218</ele>
        <time>2021-11-03T16:20:50.182Z</time>
      </trkpt>
      <trkpt lat="38.934419" lon="-1.330828">
        <ele>873.249994</ele>
        <time>2021-11-03T16:20:50.182Z</time>
      </trkpt>
      <trkpt lat="38.934362" lon="-1.330911">
        <ele>873.334339</ele>
        <time>2021-11-03T16:20:50.182Z</time>
      </trkpt>
      <trkpt lat="38.934251" lon="-1.331076">
        <ele>873.713345</ele>
        <time>2021-11-03T16:20:50.182Z</time>
      </trkpt>
      <trkpt lat="38.934191" lon="-1.331150">
        <ele>873.915916</ele>
        <time>2021-11-03T16:20:50.182Z</time>
      </trkpt>
      <trkpt lat="38.934131" lon="-1.331226">
        <ele>874.121130</ele>
        <time>2021-11-03T16:20:50.182Z</time>
      </trkpt>
      <trkpt lat="38.934068" lon="-1.331298">
        <ele>874.326500</ele>
        <time>2021-11-03T16:20:50.182Z</time>
      </trkpt>
      <trkpt lat="38.933975" lon="-1.331401">
        <ele>874.625564</ele>
        <time>2021-11-03T16:20:50.182Z</time>
      </trkpt>
      <trkpt lat="38.933882" lon="-1.331486">
        <ele>874.903568</ele>
        <time>2021-11-03T16:20:50.182Z</time>
      </trkpt>
      <trkpt lat="38.933758" lon="-1.331577">
        <ele>875.251429</ele>
        <time>2021-11-03T16:20:50.182Z</time>
      </trkpt>
      <trkpt lat="38.933727" lon="-1.331600">
        <ele>875.338630</ele>
        <time>2021-11-03T16:20:50.182Z</time>
      </trkpt>
      <trkpt lat="38.933605" lon="-1.331677">
        <ele>875.669749</ele>
        <time>2021-11-03T16:20:50.182Z</time>
      </trkpt>
      <trkpt lat="38.933450" lon="-1.331767">
        <ele>876.084109</ele>
        <time>2021-11-03T16:20:50.182Z</time>
      </trkpt>
      <trkpt lat="38.933417" lon="-1.331782">
        <ele>876.169385</ele>
        <time>2021-11-03T16:20:50.182Z</time>
      </trkpt>
      <trkpt lat="38.933249" lon="-1.331832">
        <ele>876.589510</ele>
        <time>2021-11-03T16:20:50.182Z</time>
      </trkpt>
      <trkpt lat="38.933214" lon="-1.331842">
        <ele>876.676861</ele>
        <time>2021-11-03T16:20:50.182Z</time>
      </trkpt>
      <trkpt lat="38.932914" lon="-1.331950">
        <ele>877.435871</ele>
        <time>2021-11-03T16:20:50.182Z</time>
      </trkpt>
      <trkpt lat="38.932578" lon="-1.332046">
        <ele>876.796951</ele>
        <time>2021-11-03T16:20:50.182Z</time>
      </trkpt>
      <trkpt lat="38.932347" lon="-1.332184">
        <ele>875.703452</ele>
        <time>2021-11-03T16:20:50.182Z</time>
      </trkpt>
      <trkpt lat="38.932285" lon="-1.332228">
        <ele>875.399431</ele>
        <time>2021-11-03T16:20:50.182Z</time>
      </trkpt>
      <trkpt lat="38.932222" lon="-1.332277">
        <ele>875.083333</ele>
        <time>2021-11-03T16:20:50.182Z</time>
      </trkpt>
      <trkpt lat="38.932156" lon="-1.332327">
        <ele>874.754465</ele>
        <time>2021-11-03T16:20:50.182Z</time>
      </trkpt>
      <trkpt lat="38.932090" lon="-1.332381">
        <ele>874.418618</ele>
        <time>2021-11-03T16:20:50.182Z</time>
      </trkpt>
      <trkpt lat="38.932027" lon="-1.332444">
        <ele>874.075976</ele>
        <time>2021-11-03T16:20:50.182Z</time>
      </trkpt>
      <trkpt lat="38.931964" lon="-1.332511">
        <ele>873.724974</ele>
        <time>2021-11-03T16:20:50.182Z</time>
      </trkpt>
      <trkpt lat="38.931839" lon="-1.332652">
        <ele>873.011075</ele>
        <time>2021-11-03T16:20:50.182Z</time>
      </trkpt>
      <trkpt lat="38.931618" lon="-1.332959">
        <ele>871.614256</ele>
        <time>2021-11-03T16:20:50.182Z</time>
      </trkpt>
      <trkpt lat="38.931567" lon="-1.333026">
        <ele>871.301219</ele>
        <time>2021-11-03T16:20:50.182Z</time>
      </trkpt>
      <trkpt lat="38.931418" lon="-1.333205">
        <ele>870.425750</ele>
        <time>2021-11-03T16:20:50.182Z</time>
      </trkpt>
      <trkpt lat="38.931229" lon="-1.333417">
        <ele>870.290849</ele>
        <time>2021-11-03T16:20:50.182Z</time>
      </trkpt>
      <trkpt lat="38.931039" lon="-1.333599">
        <ele>870.705282</ele>
        <time>2021-11-03T16:20:50.182Z</time>
      </trkpt>
      <trkpt lat="38.930944" lon="-1.333680">
        <ele>870.904667</ele>
        <time>2021-11-03T16:20:50.182Z</time>
      </trkpt>
      <trkpt lat="38.930730" lon="-1.333866">
        <ele>871.356487</ele>
        <time>2021-11-03T16:20:50.182Z</time>
      </trkpt>
      <trkpt lat="38.930692" lon="-1.333900">
        <ele>871.437465</ele>
        <time>2021-11-03T16:20:50.182Z</time>
      </trkpt>
      <trkpt lat="38.930618" lon="-1.333966">
        <ele>871.594995</ele>
        <time>2021-11-03T16:20:50.182Z</time>
      </trkpt>
      <trkpt lat="38.930545" lon="-1.334027">
        <ele>871.747279</ele>
        <time>2021-11-03T16:20:50.182Z</time>
      </trkpt>
      <trkpt lat="38.930412" lon="-1.334149">
        <ele>872.033054</ele>
        <time>2021-11-03T16:20:50.182Z</time>
      </trkpt>
      <trkpt lat="38.930282" lon="-1.334267">
        <ele>872.311399</ele>
        <time>2021-11-03T16:20:50.182Z</time>
      </trkpt>
      <trkpt lat="38.930142" lon="-1.334363">
        <ele>872.588924</ele>
        <time>2021-11-03T16:20:50.182Z</time>
      </trkpt>
      <trkpt lat="38.930000" lon="-1.334440">
        <ele>872.858481</ele>
        <time>2021-11-03T16:20:50.182Z</time>
      </trkpt>
      <trkpt lat="38.929807" lon="-1.334563">
        <ele>873.263024</ele>
        <time>2021-11-03T16:20:50.182Z</time>
      </trkpt>
      <trkpt lat="38.929730" lon="-1.334624">
        <ele>873.482952</ele>
        <time>2021-11-03T16:20:50.182Z</time>
      </trkpt>
      <trkpt lat="38.929609" lon="-1.334698">
        <ele>873.808769</ele>
        <time>2021-11-03T16:20:50.182Z</time>
      </trkpt>
      <trkpt lat="38.929308" lon="-1.334894">
        <ele>874.629211</ele>
        <time>2021-11-03T16:20:50.182Z</time>
      </trkpt>
      <trkpt lat="38.929172" lon="-1.334990">
        <ele>875.006479</ele>
        <time>2021-11-03T16:20:50.182Z</time>
      </trkpt>
      <trkpt lat="38.929073" lon="-1.335048">
        <ele>875.271024</ele>
        <time>2021-11-03T16:20:50.182Z</time>
      </trkpt>
      <trkpt lat="38.929039" lon="-1.335065">
        <ele>875.359730</ele>
        <time>2021-11-03T16:20:50.182Z</time>
      </trkpt>
      <trkpt lat="38.928879" lon="-1.335181">
        <ele>875.806389</ele>
        <time>2021-11-03T16:20:50.182Z</time>
      </trkpt>
      <trkpt lat="38.928689" lon="-1.335319">
        <ele>876.337029</ele>
        <time>2021-11-03T16:20:50.182Z</time>
      </trkpt>
      <trkpt lat="38.928658" lon="-1.335343">
        <ele>876.425023</ele>
        <time>2021-11-03T16:20:50.182Z</time>
      </trkpt>
      <trkpt lat="38.928567" lon="-1.335412">
        <ele>876.681919</ele>
        <time>2021-11-03T16:20:50.182Z</time>
      </trkpt>
      <trkpt lat="38.928474" lon="-1.335473">
        <ele>876.935791</ele>
        <time>2021-11-03T16:20:50.182Z</time>
      </trkpt>
      <trkpt lat="38.928444" lon="-1.335493">
        <ele>877.017964</ele>
        <time>2021-11-03T16:20:50.182Z</time>
      </trkpt>
      <trkpt lat="38.928138" lon="-1.335685">
        <ele>877.649845</ele>
        <time>2021-11-03T16:20:50.182Z</time>
      </trkpt>
      <trkpt lat="38.927947" lon="-1.335800">
        <ele>877.836569</ele>
        <time>2021-11-03T16:20:50.182Z</time>
      </trkpt>
      <trkpt lat="38.927818" lon="-1.335875">
        <ele>877.961911</ele>
        <time>2021-11-03T16:20:50.182Z</time>
      </trkpt>
      <trkpt lat="38.927587" lon="-1.336019">
        <ele>878.189196</ele>
        <time>2021-11-03T16:20:50.182Z</time>
      </trkpt>
      <trkpt lat="38.927551" lon="-1.336040">
        <ele>878.224196</ele>
        <time>2021-11-03T16:20:50.182Z</time>
      </trkpt>
      <trkpt lat="38.927377" lon="-1.336148">
        <ele>878.395257</ele>
        <time>2021-11-03T16:20:50.182Z</time>
      </trkpt>
      <trkpt lat="38.927300" lon="-1.336193">
        <ele>878.470140</ele>
        <time>2021-11-03T16:20:50.182Z</time>
      </trkpt>
      <trkpt lat="38.926977" lon="-1.336406">
        <ele>878.791528</ele>
        <time>2021-11-03T16:20:50.182Z</time>
      </trkpt>
      <trkpt lat="38.926541" lon="-1.336719">
        <ele>879.004262</ele>
        <time>2021-11-03T16:20:50.182Z</time>
      </trkpt>
      <trkpt lat="38.926384" lon="-1.336839">
        <ele>878.808308</ele>
        <time>2021-11-03T16:20:50.182Z</time>
      </trkpt>
      <trkpt lat="38.926164" lon="-1.337004">
        <ele>878.535058</ele>
        <time>2021-11-03T16:20:50.182Z</time>
      </trkpt>
      <trkpt lat="38.926057" lon="-1.337097">
        <ele>878.396492</ele>
        <time>2021-11-03T16:20:50.182Z</time>
      </trkpt>
      <trkpt lat="38.925894" lon="-1.337226">
        <ele>878.191141</ele>
        <time>2021-11-03T16:20:50.182Z</time>
      </trkpt>
      <trkpt lat="38.925783" lon="-1.337308">
        <ele>878.053797</ele>
        <time>2021-11-03T16:20:50.182Z</time>
      </trkpt>
      <trkpt lat="38.925561" lon="-1.337461">
        <ele>877.783565</ele>
        <time>2021-11-03T16:20:50.182Z</time>
      </trkpt>
      <trkpt lat="38.925059" lon="-1.337837">
        <ele>877.225547</ele>
        <time>2021-11-03T16:20:50.182Z</time>
      </trkpt>
      <trkpt lat="38.924820" lon="-1.338012">
        <ele>877.410855</ele>
        <time>2021-11-03T16:20:50.182Z</time>
      </trkpt>
      <trkpt lat="38.924678" lon="-1.338112">
        <ele>877.519939</ele>
        <time>2021-11-03T16:20:50.182Z</time>
      </trkpt>
      <trkpt lat="38.924583" lon="-1.338180">
        <ele>877.593195</ele>
        <time>2021-11-03T16:20:50.182Z</time>
      </trkpt>
      <trkpt lat="38.924350" lon="-1.338353">
        <ele>877.774476</ele>
        <time>2021-11-03T16:20:50.182Z</time>
      </trkpt>
      <trkpt lat="38.924017" lon="-1.338590">
        <ele>878.030915</ele>
        <time>2021-11-03T16:20:50.182Z</time>
      </trkpt>
      <trkpt lat="38.923535" lon="-1.338952">
        <ele>878.407011</ele>
        <time>2021-11-03T16:20:50.182Z</time>
      </trkpt>
      <trkpt lat="38.923394" lon="-1.339058">
        <ele>878.587898</ele>
        <time>2021-11-03T16:20:50.182Z</time>
      </trkpt>
      <trkpt lat="38.923255" lon="-1.339160">
        <ele>878.768527</ele>
        <time>2021-11-03T16:20:50.182Z</time>
      </trkpt>
      <trkpt lat="38.922884" lon="-1.339426">
        <ele>879.247943</ele>
        <time>2021-11-03T16:20:50.182Z</time>
      </trkpt>
      <trkpt lat="38.922743" lon="-1.339519">
        <ele>879.426793</ele>
        <time>2021-11-03T16:20:50.182Z</time>
      </trkpt>
      <trkpt lat="38.922326" lon="-1.339804">
        <ele>879.959781</ele>
        <time>2021-11-03T16:20:50.182Z</time>
      </trkpt>
      <trkpt lat="38.921810" lon="-1.340133">
        <ele>880.420973</ele>
        <time>2021-11-03T16:20:50.182Z</time>
      </trkpt>
      <trkpt lat="38.921761" lon="-1.340166">
        <ele>880.413170</ele>
        <time>2021-11-03T16:20:50.182Z</time>
      </trkpt>
      <trkpt lat="38.921259" lon="-1.340492">
        <ele>880.333844</ele>
        <time>2021-11-03T16:20:50.182Z</time>
      </trkpt>
      <trkpt lat="38.920805" lon="-1.340790">
        <ele>880.261945</ele>
        <time>2021-11-03T16:20:50.182Z</time>
      </trkpt>
      <trkpt lat="38.920389" lon="-1.341044">
        <ele>880.196988</ele>
        <time>2021-11-03T16:20:50.182Z</time>
      </trkpt>
      <trkpt lat="38.920191" lon="-1.341170">
        <ele>880.038889</ele>
        <time>2021-11-03T16:20:50.182Z</time>
      </trkpt>
      <trkpt lat="38.919950" lon="-1.341336">
        <ele>879.782195</ele>
        <time>2021-11-03T16:20:50.182Z</time>
      </trkpt>
      <trkpt lat="38.919804" lon="-1.341432">
        <ele>879.628234</ele>
        <time>2021-11-03T16:20:50.182Z</time>
      </trkpt>
      <trkpt lat="38.919608" lon="-1.341551">
        <ele>879.424732</ele>
        <time>2021-11-03T16:20:50.182Z</time>
      </trkpt>
      <trkpt lat="38.919298" lon="-1.341697">
        <ele>879.114778</ele>
        <time>2021-11-03T16:20:50.182Z</time>
      </trkpt>
      <trkpt lat="38.919191" lon="-1.341717">
        <ele>879.013269</ele>
        <time>2021-11-03T16:20:50.182Z</time>
      </trkpt>
      <trkpt lat="38.918973" lon="-1.341736">
        <ele>878.808138</ele>
        <time>2021-11-03T16:20:50.182Z</time>
      </trkpt>
      <trkpt lat="38.918648" lon="-1.341717">
        <ele>878.502710</ele>
        <time>2021-11-03T16:20:50.182Z</time>
      </trkpt>
      <trkpt lat="38.918096" lon="-1.341663">
        <ele>878.943586</ele>
        <time>2021-11-03T16:20:50.182Z</time>
      </trkpt>
      <trkpt lat="38.917925" lon="-1.341653">
        <ele>879.081647</ele>
        <time>2021-11-03T16:20:50.182Z</time>
      </trkpt>
      <trkpt lat="38.917640" lon="-1.341632">
        <ele>879.311887</ele>
        <time>2021-11-03T16:20:50.182Z</time>
      </trkpt>
      <trkpt lat="38.917474" lon="-1.341618">
        <ele>879.446060</ele>
        <time>2021-11-03T16:20:50.182Z</time>
      </trkpt>
      <trkpt lat="38.917364" lon="-1.341608">
        <ele>879.535001</ele>
        <time>2021-11-03T16:20:50.182Z</time>
      </trkpt>
      <trkpt lat="38.916987" lon="-1.341579">
        <ele>879.839610</ele>
        <time>2021-11-03T16:20:50.182Z</time>
      </trkpt>
      <trkpt lat="38.916440" lon="-1.341536">
        <ele>879.546020</ele>
        <time>2021-11-03T16:20:50.182Z</time>
      </trkpt>
      <trkpt lat="38.916050" lon="-1.341511">
        <ele>879.161589</ele>
        <time>2021-11-03T16:20:50.182Z</time>
      </trkpt>
      <trkpt lat="38.915993" lon="-1.341507">
        <ele>879.105389</ele>
        <time>2021-11-03T16:20:50.182Z</time>
      </trkpt>
      <trkpt lat="38.915411" lon="-1.341465">
        <ele>878.531510</ele>
        <time>2021-11-03T16:20:50.182Z</time>
      </trkpt>
      <trkpt lat="38.914939" lon="-1.341428">
        <ele>877.955149</ele>
        <time>2021-11-03T16:20:50.182Z</time>
      </trkpt>
      <trkpt lat="38.914765" lon="-1.341413">
        <ele>877.616038</ele>
        <time>2021-11-03T16:20:50.182Z</time>
      </trkpt>
      <trkpt lat="38.914535" lon="-1.341390">
        <ele>877.167442</ele>
        <time>2021-11-03T16:20:50.182Z</time>
      </trkpt>
      <trkpt lat="38.914419" lon="-1.341382">
        <ele>876.941550</ele>
        <time>2021-11-03T16:20:50.182Z</time>
      </trkpt>
      <trkpt lat="38.914248" lon="-1.341367">
        <ele>876.608260</ele>
        <time>2021-11-03T16:20:50.182Z</time>
      </trkpt>
      <trkpt lat="38.913684" lon="-1.341346">
        <ele>875.511078</ele>
        <time>2021-11-03T16:20:50.182Z</time>
      </trkpt>
      <trkpt lat="38.913628" lon="-1.341344">
        <ele>875.402142</ele>
        <time>2021-11-03T16:20:50.182Z</time>
      </trkpt>
      <trkpt lat="38.913287" lon="-1.341329">
        <ele>874.738665</ele>
        <time>2021-11-03T16:20:50.182Z</time>
      </trkpt>
      <trkpt lat="38.913061" lon="-1.341324">
        <ele>874.701784</ele>
        <time>2021-11-03T16:20:50.182Z</time>
      </trkpt>
      <trkpt lat="38.912618" lon="-1.341281">
        <ele>874.746271</ele>
        <time>2021-11-03T16:20:50.182Z</time>
      </trkpt>
      <trkpt lat="38.912564" lon="-1.341277">
        <ele>874.751688</ele>
        <time>2021-11-03T16:20:50.182Z</time>
      </trkpt>
      <trkpt lat="38.912406" lon="-1.341258">
        <ele>874.767578</ele>
        <time>2021-11-03T16:20:50.182Z</time>
      </trkpt>
      <trkpt lat="38.912247" lon="-1.341226">
        <ele>874.783694</ele>
        <time>2021-11-03T16:20:50.182Z</time>
      </trkpt>
      <trkpt lat="38.911762" lon="-1.341173">
        <ele>874.832436</ele>
        <time>2021-11-03T16:20:50.182Z</time>
      </trkpt>
      <trkpt lat="38.911332" lon="-1.341137">
        <ele>874.661898</ele>
        <time>2021-11-03T16:20:50.182Z</time>
      </trkpt>
      <trkpt lat="38.910816" lon="-1.341104">
        <ele>873.889292</ele>
        <time>2021-11-03T16:20:50.182Z</time>
      </trkpt>
      <trkpt lat="38.910520" lon="-1.341084">
        <ele>873.446028</ele>
        <time>2021-11-03T16:20:50.182Z</time>
      </trkpt>
      <trkpt lat="38.910098" lon="-1.341070">
        <ele>872.814738</ele>
        <time>2021-11-03T16:20:50.182Z</time>
      </trkpt>
      <trkpt lat="38.909974" lon="-1.341064">
        <ele>872.629171</ele>
        <time>2021-11-03T16:20:50.182Z</time>
      </trkpt>
      <trkpt lat="38.909394" lon="-1.341027">
        <ele>871.957034</ele>
        <time>2021-11-03T16:20:50.182Z</time>
      </trkpt>
      <trkpt lat="38.909329" lon="-1.341023">
        <ele>871.906122</ele>
        <time>2021-11-03T16:20:50.182Z</time>
      </trkpt>
      <trkpt lat="38.908882" lon="-1.340992">
        <ele>871.555895</ele>
        <time>2021-11-03T16:20:50.182Z</time>
      </trkpt>
      <trkpt lat="38.908640" lon="-1.340984">
        <ele>871.366500</ele>
        <time>2021-11-03T16:20:50.182Z</time>
      </trkpt>
      <trkpt lat="38.908228" lon="-1.340962">
        <ele>871.043887</ele>
        <time>2021-11-03T16:20:50.182Z</time>
      </trkpt>
      <trkpt lat="38.907891" lon="-1.340939">
        <ele>870.779859</ele>
        <time>2021-11-03T16:20:50.182Z</time>
      </trkpt>
      <trkpt lat="38.907462" lon="-1.340921">
        <ele>871.167449</ele>
        <time>2021-11-03T16:20:50.182Z</time>
      </trkpt>
      <trkpt lat="38.906937" lon="-1.340867">
        <ele>871.683553</ele>
        <time>2021-11-03T16:20:50.182Z</time>
      </trkpt>
      <trkpt lat="38.906779" lon="-1.340858">
        <ele>871.838533</ele>
        <time>2021-11-03T16:20:50.182Z</time>
      </trkpt>
      <trkpt lat="38.906526" lon="-1.340853">
        <ele>872.086482</ele>
        <time>2021-11-03T16:20:50.182Z</time>
      </trkpt>
      <trkpt lat="38.906051" lon="-1.340817">
        <ele>872.581171</ele>
        <time>2021-11-03T16:20:50.182Z</time>
      </trkpt>
      <trkpt lat="38.905911" lon="-1.340802">
        <ele>872.875160</ele>
        <time>2021-11-03T16:20:50.182Z</time>
      </trkpt>
      <trkpt lat="38.905680" lon="-1.340790">
        <ele>873.358960</ele>
        <time>2021-11-03T16:20:50.182Z</time>
      </trkpt>
      <trkpt lat="38.905635" lon="-1.340786">
        <ele>873.453355</ele>
        <time>2021-11-03T16:20:50.182Z</time>
      </trkpt>
      <trkpt lat="38.905238" lon="-1.340762">
        <ele>874.285060</ele>
        <time>2021-11-03T16:20:50.182Z</time>
      </trkpt>
      <trkpt lat="38.904916" lon="-1.340736">
        <ele>874.960225</ele>
        <time>2021-11-03T16:20:50.182Z</time>
      </trkpt>
      <trkpt lat="38.904876" lon="-1.340732">
        <ele>875.044185</ele>
        <time>2021-11-03T16:20:50.182Z</time>
      </trkpt>
      <trkpt lat="38.904720" lon="-1.340712">
        <ele>875.372261</ele>
        <time>2021-11-03T16:20:50.182Z</time>
      </trkpt>
      <trkpt lat="38.904641" lon="-1.340720">
        <ele>875.538094</ele>
        <time>2021-11-03T16:20:50.182Z</time>
      </trkpt>
      <trkpt lat="38.904411" lon="-1.340723">
        <ele>876.019430</ele>
        <time>2021-11-03T16:20:50.182Z</time>
      </trkpt>
      <trkpt lat="38.904373" lon="-1.340719">
        <ele>876.099218</ele>
        <time>2021-11-03T16:20:50.182Z</time>
      </trkpt>
      <trkpt lat="38.904335" lon="-1.340717">
        <ele>876.178806</ele>
        <time>2021-11-03T16:20:50.182Z</time>
      </trkpt>
      <trkpt lat="38.904104" lon="-1.340697">
        <ele>876.955847</ele>
        <time>2021-11-03T16:20:50.182Z</time>
      </trkpt>
      <trkpt lat="38.903987" lon="-1.340693">
        <ele>877.393580</ele>
        <time>2021-11-03T16:20:50.182Z</time>
      </trkpt>
      <trkpt lat="38.903674" lon="-1.340670">
        <ele>878.566107</ele>
        <time>2021-11-03T16:20:50.182Z</time>
      </trkpt>
      <trkpt lat="38.903596" lon="-1.340657">
        <ele>878.860269</ele>
        <time>2021-11-03T16:20:50.182Z</time>
      </trkpt>
      <trkpt lat="38.903391" lon="-1.340660">
        <ele>879.627015</ele>
        <time>2021-11-03T16:20:50.182Z</time>
      </trkpt>
      <trkpt lat="38.903364" lon="-1.340662">
        <ele>879.728162</ele>
        <time>2021-11-03T16:20:50.182Z</time>
      </trkpt>
      <trkpt lat="38.903178" lon="-1.340725">
        <ele>880.447559</ele>
        <time>2021-11-03T16:20:50.182Z</time>
      </trkpt>
      <trkpt lat="38.902875" lon="-1.340804">
        <ele>881.603864</ele>
        <time>2021-11-03T16:20:50.182Z</time>
      </trkpt>
      <trkpt lat="38.902715" lon="-1.340822">
        <ele>882.204550</ele>
        <time>2021-11-03T16:20:50.182Z</time>
      </trkpt>
      <trkpt lat="38.902683" lon="-1.340821">
        <ele>882.324265</ele>
        <time>2021-11-03T16:20:50.182Z</time>
      </trkpt>
      <trkpt lat="38.902651" lon="-1.340825">
        <ele>882.444509</ele>
        <time>2021-11-03T16:20:50.182Z</time>
      </trkpt>
      <trkpt lat="38.902562" lon="-1.340850">
        <ele>882.785228</ele>
        <time>2021-11-03T16:20:50.182Z</time>
      </trkpt>
      <trkpt lat="38.902508" lon="-1.340863">
        <ele>882.990701</ele>
        <time>2021-11-03T16:20:50.182Z</time>
      </trkpt>
      <trkpt lat="38.902425" lon="-1.340885">
        <ele>883.492841</ele>
        <time>2021-11-03T16:20:50.182Z</time>
      </trkpt>
      <trkpt lat="38.902237" lon="-1.340942">
        <ele>884.678053</ele>
        <time>2021-11-03T16:20:50.182Z</time>
      </trkpt>
      <trkpt lat="38.902212" lon="-1.340949">
        <ele>884.835048</ele>
        <time>2021-11-03T16:20:50.182Z</time>
      </trkpt>
      <trkpt lat="38.902066" lon="-1.341007">
        <ele>885.772713</ele>
        <time>2021-11-03T16:20:50.182Z</time>
      </trkpt>
      <trkpt lat="38.902042" lon="-1.341011">
        <ele>885.921206</ele>
        <time>2021-11-03T16:20:50.182Z</time>
      </trkpt>
      <trkpt lat="38.901894" lon="-1.341040">
        <ele>886.839807</ele>
        <time>2021-11-03T16:20:50.182Z</time>
      </trkpt>
      <trkpt lat="38.901822" lon="-1.341058">
        <ele>887.289870</ele>
        <time>2021-11-03T16:20:50.182Z</time>
      </trkpt>
      <trkpt lat="38.901725" lon="-1.341082">
        <ele>887.895979</ele>
        <time>2021-11-03T16:20:50.182Z</time>
      </trkpt>
      <trkpt lat="38.901604" lon="-1.341117">
        <ele>888.656992</ele>
        <time>2021-11-03T16:20:50.182Z</time>
      </trkpt>
      <trkpt lat="38.901580" lon="-1.341124">
        <ele>888.807998</ele>
        <time>2021-11-03T16:20:50.182Z</time>
      </trkpt>
      <trkpt lat="38.901438" lon="-1.341173">
        <ele>889.710156</ele>
        <time>2021-11-03T16:20:50.182Z</time>
      </trkpt>
      <trkpt lat="38.901389" lon="-1.341186">
        <ele>890.017153</ele>
        <time>2021-11-03T16:20:50.182Z</time>
      </trkpt>
      <trkpt lat="38.901338" lon="-1.341196">
        <ele>890.333703</ele>
        <time>2021-11-03T16:20:50.182Z</time>
      </trkpt>
      <trkpt lat="38.901189" lon="-1.341238">
        <ele>891.269681</ele>
        <time>2021-11-03T16:20:50.182Z</time>
      </trkpt>
      <trkpt lat="38.901140" lon="-1.341251">
        <ele>891.576678</ele>
        <time>2021-11-03T16:20:50.182Z</time>
      </trkpt>
      <trkpt lat="38.901065" lon="-1.341267">
        <ele>892.043164</ele>
        <time>2021-11-03T16:20:50.182Z</time>
      </trkpt>
      <trkpt lat="38.901015" lon="-1.341283">
        <ele>892.359326</ele>
        <time>2021-11-03T16:20:50.182Z</time>
      </trkpt>
      <trkpt lat="38.900990" lon="-1.341290">
        <ele>892.516322</ele>
        <time>2021-11-03T16:20:50.182Z</time>
      </trkpt>
      <trkpt lat="38.900938" lon="-1.341306">
        <ele>892.844405</ele>
        <time>2021-11-03T16:20:50.182Z</time>
      </trkpt>
      <trkpt lat="38.900911" lon="-1.341313">
        <ele>893.013411</ele>
        <time>2021-11-03T16:20:50.182Z</time>
      </trkpt>
      <trkpt lat="38.900776" lon="-1.341351">
        <ele>893.861390</ele>
        <time>2021-11-03T16:20:50.182Z</time>
      </trkpt>
      <trkpt lat="38.900747" lon="-1.341359">
        <ele>894.043383</ele>
        <time>2021-11-03T16:20:50.182Z</time>
      </trkpt>
      <trkpt lat="38.900568" lon="-1.341416">
        <ele>893.971880</ele>
        <time>2021-11-03T16:20:50.182Z</time>
      </trkpt>
      <trkpt lat="38.900444" lon="-1.341467">
        <ele>893.912784</ele>
        <time>2021-11-03T16:20:50.182Z</time>
      </trkpt>
      <trkpt lat="38.900232" lon="-1.341537">
        <ele>893.813431</ele>
        <time>2021-11-03T16:20:50.182Z</time>
      </trkpt>
      <trkpt lat="38.899944" lon="-1.341641">
        <ele>893.677645</ele>
        <time>2021-11-03T16:20:50.182Z</time>
      </trkpt>
      <trkpt lat="38.899898" lon="-1.341657">
        <ele>893.656014</ele>
        <time>2021-11-03T16:20:50.182Z</time>
      </trkpt>
      <trkpt lat="38.899850" lon="-1.341672">
        <ele>893.633592</ele>
        <time>2021-11-03T16:20:50.182Z</time>
      </trkpt>
      <trkpt lat="38.899802" lon="-1.341689">
        <ele>893.610992</ele>
        <time>2021-11-03T16:20:50.182Z</time>
      </trkpt>
      <trkpt lat="38.899752" lon="-1.341707">
        <ele>893.587423</ele>
        <time>2021-11-03T16:20:50.182Z</time>
      </trkpt>
      <trkpt lat="38.899652" lon="-1.341750">
        <ele>893.539560</ele>
        <time>2021-11-03T16:20:50.182Z</time>
      </trkpt>
      <trkpt lat="38.899603" lon="-1.341776">
        <ele>893.515497</ele>
        <time>2021-11-03T16:20:50.182Z</time>
      </trkpt>
      <trkpt lat="38.899266" lon="-1.341900">
        <ele>893.356386</ele>
        <time>2021-11-03T16:20:50.182Z</time>
      </trkpt>
      <trkpt lat="38.899207" lon="-1.341924">
        <ele>893.328296</ele>
        <time>2021-11-03T16:20:50.182Z</time>
      </trkpt>
      <trkpt lat="38.899022" lon="-1.341991">
        <ele>893.241053</ele>
        <time>2021-11-03T16:20:50.182Z</time>
      </trkpt>
      <trkpt lat="38.898833" lon="-1.342064">
        <ele>893.224597</ele>
        <time>2021-11-03T16:20:50.182Z</time>
      </trkpt>
      <trkpt lat="38.898771" lon="-1.342091">
        <ele>893.219894</ele>
        <time>2021-11-03T16:20:50.182Z</time>
      </trkpt>
      <trkpt lat="38.898712" lon="-1.342116">
        <ele>893.215431</ele>
        <time>2021-11-03T16:20:50.182Z</time>
      </trkpt>
      <trkpt lat="38.898655" lon="-1.342141">
        <ele>893.211104</ele>
        <time>2021-11-03T16:20:50.182Z</time>
      </trkpt>
      <trkpt lat="38.898546" lon="-1.342193">
        <ele>893.202752</ele>
        <time>2021-11-03T16:20:50.182Z</time>
      </trkpt>
      <trkpt lat="38.898342" lon="-1.342298">
        <ele>893.186965</ele>
        <time>2021-11-03T16:20:50.182Z</time>
      </trkpt>
      <trkpt lat="38.898293" lon="-1.342325">
        <ele>893.183135</ele>
        <time>2021-11-03T16:20:50.182Z</time>
      </trkpt>
      <trkpt lat="38.898244" lon="-1.342352">
        <ele>893.179305</ele>
        <time>2021-11-03T16:20:50.182Z</time>
      </trkpt>
      <trkpt lat="38.898195" lon="-1.342381">
        <ele>893.175430</ele>
        <time>2021-11-03T16:20:50.182Z</time>
      </trkpt>
      <trkpt lat="38.898097" lon="-1.342437">
        <ele>893.167725</ele>
        <time>2021-11-03T16:20:50.182Z</time>
      </trkpt>
      <trkpt lat="38.897998" lon="-1.342495">
        <ele>893.159909</ele>
        <time>2021-11-03T16:20:50.182Z</time>
      </trkpt>
      <trkpt lat="38.897949" lon="-1.342524">
        <ele>893.156034</ele>
        <time>2021-11-03T16:20:50.182Z</time>
      </trkpt>
      <trkpt lat="38.897900" lon="-1.342554">
        <ele>893.152134</ele>
        <time>2021-11-03T16:20:50.182Z</time>
      </trkpt>
      <trkpt lat="38.897853" lon="-1.342584">
        <ele>893.148364</ele>
        <time>2021-11-03T16:20:50.182Z</time>
      </trkpt>
      <trkpt lat="38.897805" lon="-1.342613">
        <ele>893.144554</ele>
        <time>2021-11-03T16:20:50.182Z</time>
      </trkpt>
      <trkpt lat="38.897758" lon="-1.342641">
        <ele>893.140833</ele>
        <time>2021-11-03T16:20:50.182Z</time>
      </trkpt>
      <trkpt lat="38.897710" lon="-1.342669">
        <ele>893.137046</ele>
        <time>2021-11-03T16:20:50.182Z</time>
      </trkpt>
      <trkpt lat="38.897521" lon="-1.342785">
        <ele>893.121999</ele>
        <time>2021-11-03T16:20:50.182Z</time>
      </trkpt>
      <trkpt lat="38.897262" lon="-1.342945">
        <ele>892.676342</ele>
        <time>2021-11-03T16:20:50.182Z</time>
      </trkpt>
      <trkpt lat="38.896911" lon="-1.343149">
        <ele>891.137315</ele>
        <time>2021-11-03T16:20:50.182Z</time>
      </trkpt>
      <trkpt lat="38.896785" lon="-1.343227">
        <ele>890.578569</ele>
        <time>2021-11-03T16:20:50.182Z</time>
      </trkpt>
      <trkpt lat="38.896653" lon="-1.343314">
        <ele>889.985897</ele>
        <time>2021-11-03T16:20:50.182Z</time>
      </trkpt>
      <trkpt lat="38.896515" lon="-1.343400">
        <ele>889.373163</ele>
        <time>2021-11-03T16:20:50.182Z</time>
      </trkpt>
      <trkpt lat="38.896294" lon="-1.343537">
        <ele>888.392881</ele>
        <time>2021-11-03T16:20:50.182Z</time>
      </trkpt>
      <trkpt lat="38.896218" lon="-1.343586">
        <ele>888.053180</ele>
        <time>2021-11-03T16:20:50.182Z</time>
      </trkpt>
      <trkpt lat="38.895983" lon="-1.343738">
        <ele>887.002109</ele>
        <time>2021-11-03T16:20:50.182Z</time>
      </trkpt>
      <trkpt lat="38.895819" lon="-1.343836">
        <ele>886.279538</ele>
        <time>2021-11-03T16:20:50.182Z</time>
      </trkpt>
      <trkpt lat="38.895739" lon="-1.343888">
        <ele>885.923252</ele>
        <time>2021-11-03T16:20:50.182Z</time>
      </trkpt>
      <trkpt lat="38.895582" lon="-1.343987">
        <ele>885.827433</ele>
        <time>2021-11-03T16:20:50.182Z</time>
      </trkpt>
      <trkpt lat="38.895229" lon="-1.344207">
        <ele>885.612479</ele>
        <time>2021-11-03T16:20:50.182Z</time>
      </trkpt>
      <trkpt lat="38.894926" lon="-1.344411">
        <ele>885.425059</ele>
        <time>2021-11-03T16:20:50.182Z</time>
      </trkpt>
      <trkpt lat="38.894812" lon="-1.344486">
        <ele>885.354888</ele>
        <time>2021-11-03T16:20:50.182Z</time>
      </trkpt>
      <trkpt lat="38.894755" lon="-1.344520">
        <ele>885.320457</ele>
        <time>2021-11-03T16:20:50.182Z</time>
      </trkpt>
      <trkpt lat="38.894341" lon="-1.344778">
        <ele>885.068360</ele>
        <time>2021-11-03T16:20:50.182Z</time>
      </trkpt>
      <trkpt lat="38.894239" lon="-1.344841">
        <ele>885.006354</ele>
        <time>2021-11-03T16:20:50.182Z</time>
      </trkpt>
      <trkpt lat="38.894189" lon="-1.344872">
        <ele>884.975937</ele>
        <time>2021-11-03T16:20:50.182Z</time>
      </trkpt>
      <trkpt lat="38.893987" lon="-1.344996">
        <ele>884.977267</ele>
        <time>2021-11-03T16:20:50.182Z</time>
      </trkpt>
      <trkpt lat="38.893741" lon="-1.345143">
        <ele>885.045904</ele>
        <time>2021-11-03T16:20:50.182Z</time>
      </trkpt>
      <trkpt lat="38.893692" lon="-1.345173">
        <ele>885.059636</ele>
        <time>2021-11-03T16:20:50.182Z</time>
      </trkpt>
      <trkpt lat="38.893350" lon="-1.345390">
        <ele>885.156134</ele>
        <time>2021-11-03T16:20:50.182Z</time>
      </trkpt>
      <trkpt lat="38.893300" lon="-1.345420">
        <ele>885.170094</ele>
        <time>2021-11-03T16:20:50.182Z</time>
      </trkpt>
      <trkpt lat="38.892892" lon="-1.345665">
        <ele>885.284031</ele>
        <time>2021-11-03T16:20:50.182Z</time>
      </trkpt>
      <trkpt lat="38.892585" lon="-1.345857">
        <ele>885.370411</ele>
        <time>2021-11-03T16:20:50.182Z</time>
      </trkpt>
      <trkpt lat="38.892379" lon="-1.345968">
        <ele>885.238264</ele>
        <time>2021-11-03T16:20:50.182Z</time>
      </trkpt>
      <trkpt lat="38.891931" lon="-1.346247">
        <ele>884.660921</ele>
        <time>2021-11-03T16:20:50.182Z</time>
      </trkpt>
      <trkpt lat="38.891882" lon="-1.346276">
        <ele>884.598358</ele>
        <time>2021-11-03T16:20:50.182Z</time>
      </trkpt>
      <trkpt lat="38.891515" lon="-1.346453">
        <ele>884.143765</ele>
        <time>2021-11-03T16:20:50.182Z</time>
      </trkpt>
      <trkpt lat="38.891459" lon="-1.346479">
        <ele>884.074714</ele>
        <time>2021-11-03T16:20:50.182Z</time>
      </trkpt>
      <trkpt lat="38.891402" lon="-1.346502">
        <ele>884.005430</ele>
        <time>2021-11-03T16:20:50.182Z</time>
      </trkpt>
      <trkpt lat="38.891101" lon="-1.346585">
        <ele>883.648423</ele>
        <time>2021-11-03T16:20:50.182Z</time>
      </trkpt>
      <trkpt lat="38.890917" lon="-1.346629">
        <ele>883.431381</ele>
        <time>2021-11-03T16:20:50.182Z</time>
      </trkpt>
      <trkpt lat="38.890604" lon="-1.346700">
        <ele>882.320832</ele>
        <time>2021-11-03T16:20:50.182Z</time>
      </trkpt>
      <trkpt lat="38.890205" lon="-1.346754">
        <ele>880.443834</ele>
        <time>2021-11-03T16:20:50.182Z</time>
      </trkpt>
      <trkpt lat="38.889986" lon="-1.346774">
        <ele>879.416687</ele>
        <time>2021-11-03T16:20:50.182Z</time>
      </trkpt>
      <trkpt lat="38.889830" lon="-1.346780">
        <ele>878.686534</ele>
        <time>2021-11-03T16:20:50.182Z</time>
      </trkpt>
      <trkpt lat="38.889667" lon="-1.346778">
        <ele>877.923925</ele>
        <time>2021-11-03T16:20:50.182Z</time>
      </trkpt>
      <trkpt lat="38.889582" lon="-1.346777">
        <ele>877.526247</ele>
        <time>2021-11-03T16:20:50.182Z</time>
      </trkpt>
      <trkpt lat="38.889496" lon="-1.346774">
        <ele>877.123759</ele>
        <time>2021-11-03T16:20:50.182Z</time>
      </trkpt>
      <trkpt lat="38.889408" lon="-1.346770">
        <ele>876.711805</ele>
        <time>2021-11-03T16:20:50.182Z</time>
      </trkpt>
      <trkpt lat="38.889230" lon="-1.346763">
        <ele>875.878666</ele>
        <time>2021-11-03T16:20:50.182Z</time>
      </trkpt>
      <trkpt lat="38.889049" lon="-1.346747">
        <ele>875.029879</ele>
        <time>2021-11-03T16:20:50.182Z</time>
      </trkpt>
      <trkpt lat="38.888866" lon="-1.346734">
        <ele>874.414249</ele>
        <time>2021-11-03T16:20:50.182Z</time>
      </trkpt>
      <trkpt lat="38.888588" lon="-1.346735">
        <ele>873.550369</ele>
        <time>2021-11-03T16:20:50.182Z</time>
      </trkpt>
      <trkpt lat="38.888498" lon="-1.346737">
        <ele>873.270654</ele>
        <time>2021-11-03T16:20:50.182Z</time>
      </trkpt>
      <trkpt lat="38.888233" lon="-1.346753">
        <ele>872.446265</ele>
        <time>2021-11-03T16:20:50.182Z</time>
      </trkpt>
      <trkpt lat="38.888147" lon="-1.346760">
        <ele>872.178487</ele>
        <time>2021-11-03T16:20:50.182Z</time>
      </trkpt>
      <trkpt lat="38.887826" lon="-1.346800">
        <ele>871.176307</ele>
        <time>2021-11-03T16:20:50.182Z</time>
      </trkpt>
      <trkpt lat="38.887749" lon="-1.346812">
        <ele>870.935278</ele>
        <time>2021-11-03T16:20:50.182Z</time>
      </trkpt>
      <trkpt lat="38.887316" lon="-1.346861">
        <ele>869.584533</ele>
        <time>2021-11-03T16:20:50.182Z</time>
      </trkpt>
      <trkpt lat="38.886984" lon="-1.346876">
        <ele>869.449887</ele>
        <time>2021-11-03T16:20:50.182Z</time>
      </trkpt>
      <trkpt lat="38.886919" lon="-1.346879">
        <ele>869.489310</ele>
        <time>2021-11-03T16:20:50.182Z</time>
      </trkpt>
      <trkpt lat="38.886855" lon="-1.346883">
        <ele>869.528148</ele>
        <time>2021-11-03T16:20:50.182Z</time>
      </trkpt>
      <trkpt lat="38.886792" lon="-1.346886">
        <ele>869.566360</ele>
        <time>2021-11-03T16:20:50.182Z</time>
      </trkpt>
      <trkpt lat="38.886730" lon="-1.346886">
        <ele>869.603940</ele>
        <time>2021-11-03T16:20:50.182Z</time>
      </trkpt>
      <trkpt lat="38.886667" lon="-1.346886">
        <ele>869.642125</ele>
        <time>2021-11-03T16:20:50.182Z</time>
      </trkpt>
      <trkpt lat="38.886605" lon="-1.346894">
        <ele>869.679894</ele>
        <time>2021-11-03T16:20:50.182Z</time>
      </trkpt>
      <trkpt lat="38.886544" lon="-1.346901">
        <ele>869.717014</ele>
        <time>2021-11-03T16:20:50.182Z</time>
      </trkpt>
      <trkpt lat="38.886362" lon="-1.346903">
        <ele>869.827333</ele>
        <time>2021-11-03T16:20:50.182Z</time>
      </trkpt>
      <trkpt lat="38.886246" lon="-1.346901">
        <ele>869.897649</ele>
        <time>2021-11-03T16:20:50.182Z</time>
      </trkpt>
      <trkpt lat="38.885968" lon="-1.346920">
        <ele>870.066389</ele>
        <time>2021-11-03T16:20:50.182Z</time>
      </trkpt>
      <trkpt lat="38.885865" lon="-1.346927">
        <ele>870.128907</ele>
        <time>2021-11-03T16:20:50.182Z</time>
      </trkpt>
      <trkpt lat="38.885815" lon="-1.346931">
        <ele>870.159272</ele>
        <time>2021-11-03T16:20:50.182Z</time>
      </trkpt>
      <trkpt lat="38.885680" lon="-1.346934">
        <ele>870.241110</ele>
        <time>2021-11-03T16:20:50.182Z</time>
      </trkpt>
      <trkpt lat="38.885602" lon="-1.346939">
        <ele>870.288447</ele>
        <time>2021-11-03T16:20:50.182Z</time>
      </trkpt>
      <trkpt lat="38.885414" lon="-1.346937">
        <ele>870.407093</ele>
        <time>2021-11-03T16:20:50.182Z</time>
      </trkpt>
      <trkpt lat="38.885260" lon="-1.346951">
        <ele>870.550373</ele>
        <time>2021-11-03T16:20:50.182Z</time>
      </trkpt>
      <trkpt lat="38.885068" lon="-1.346954">
        <ele>870.728575</ele>
        <time>2021-11-03T16:20:50.182Z</time>
      </trkpt>
      <trkpt lat="38.884971" lon="-1.346951">
        <ele>870.818623</ele>
        <time>2021-11-03T16:20:50.182Z</time>
      </trkpt>
      <trkpt lat="38.884909" lon="-1.346953">
        <ele>870.876182</ele>
        <time>2021-11-03T16:20:50.182Z</time>
      </trkpt>
      <trkpt lat="38.884882" lon="-1.346954">
        <ele>870.901250</ele>
        <time>2021-11-03T16:20:50.182Z</time>
      </trkpt>
      <trkpt lat="38.884756" lon="-1.346953">
        <ele>871.018189</ele>
        <time>2021-11-03T16:20:50.182Z</time>
      </trkpt>
      <trkpt lat="38.884574" lon="-1.346948">
        <ele>871.187135</ele>
        <time>2021-11-03T16:20:50.182Z</time>
      </trkpt>
      <trkpt lat="38.884489" lon="-1.346954">
        <ele>871.266140</ele>
        <time>2021-11-03T16:20:50.182Z</time>
      </trkpt>
      <trkpt lat="38.884493" lon="-1.346954">
        <ele>871.269852</ele>
        <time>2021-11-03T16:20:50.182Z</time>
      </trkpt>
      <trkpt lat="38.884495" lon="-1.346954">
        <ele>871.271708</ele>
        <time>2021-11-03T16:20:50.182Z</time>
      </trkpt>
      <trkpt lat="38.884495" lon="-1.346955">
        <ele>871.272431</ele>
        <time>2021-11-03T16:20:50.182Z</time>
      </trkpt>
      <trkpt lat="38.884494" lon="-1.346954">
        <ele>871.273607</ele>
        <time>2021-11-03T16:20:50.182Z</time>
      </trkpt>
      <trkpt lat="38.884495" lon="-1.346954">
        <ele>871.274535</ele>
        <time>2021-11-03T16:20:50.182Z</time>
      </trkpt>
      <trkpt lat="38.884495" lon="-1.346954">
        <ele>871.274535</ele>
        <time>2021-11-03T16:20:50.182Z</time>
      </trkpt>
      <trkpt lat="38.884495" lon="-1.346955">
        <ele>871.275257</ele>
        <time>2021-11-03T16:20:50.182Z</time>
      </trkpt>
      <trkpt lat="38.884496" lon="-1.346955">
        <ele>871.276185</ele>
        <time>2021-11-03T16:20:50.182Z</time>
      </trkpt>
      <trkpt lat="38.884492" lon="-1.346956">
        <ele>871.279967</ele>
        <time>2021-11-03T16:20:50.182Z</time>
      </trkpt>
      <trkpt lat="38.884492" lon="-1.346955">
        <ele>871.280690</ele>
        <time>2021-11-03T16:20:50.182Z</time>
      </trkpt>
      <trkpt lat="38.884492" lon="-1.346955">
        <ele>871.280690</ele>
        <time>2021-11-03T16:20:50.182Z</time>
      </trkpt>
      <trkpt lat="38.884492" lon="-1.346954">
        <ele>871.281412</ele>
        <time>2021-11-03T16:20:50.182Z</time>
      </trkpt>
      <trkpt lat="38.884492" lon="-1.346954">
        <ele>871.281412</ele>
        <time>2021-11-03T16:20:50.182Z</time>
      </trkpt>
      <trkpt lat="38.884491" lon="-1.346954">
        <ele>871.282340</ele>
        <time>2021-11-03T16:20:50.182Z</time>
      </trkpt>
      <trkpt lat="38.884491" lon="-1.346953">
        <ele>871.283063</ele>
        <time>2021-11-03T16:20:50.182Z</time>
      </trkpt>
      <trkpt lat="38.884491" lon="-1.346953">
        <ele>871.283063</ele>
        <time>2021-11-03T16:20:50.182Z</time>
      </trkpt>
      <trkpt lat="38.884493" lon="-1.346953">
        <ele>871.284919</ele>
        <time>2021-11-03T16:20:50.182Z</time>
      </trkpt>
      <trkpt lat="38.884486" lon="-1.346950">
        <ele>871.291767</ele>
        <time>2021-11-03T16:20:50.182Z</time>
      </trkpt>
      <trkpt lat="38.884441" lon="-1.346933">
        <ele>871.335298</ele>
        <time>2021-11-03T16:20:50.182Z</time>
      </trkpt>
      <trkpt lat="38.884303" lon="-1.346921">
        <ele>871.463665</ele>
        <time>2021-11-03T16:20:50.182Z</time>
      </trkpt>
      <trkpt lat="38.884272" lon="-1.346922">
        <ele>871.492444</ele>
        <time>2021-11-03T16:20:50.182Z</time>
      </trkpt>
      <trkpt lat="38.884043" lon="-1.346926">
        <ele>871.704991</ele>
        <time>2021-11-03T16:20:50.182Z</time>
      </trkpt>
      <trkpt lat="38.883982" lon="-1.346926">
        <ele>871.761603</ele>
        <time>2021-11-03T16:20:50.182Z</time>
      </trkpt>
      <trkpt lat="38.883864" lon="-1.346931">
        <ele>871.871174</ele>
        <time>2021-11-03T16:20:50.182Z</time>
      </trkpt>
      <trkpt lat="38.883802" lon="-1.346937">
        <ele>871.928877</ele>
        <time>2021-11-03T16:20:50.182Z</time>
      </trkpt>
      <trkpt lat="38.883738" lon="-1.346939">
        <ele>871.988291</ele>
        <time>2021-11-03T16:20:50.182Z</time>
      </trkpt>
      <trkpt lat="38.883599" lon="-1.346942">
        <ele>872.239709</ele>
        <time>2021-11-03T16:20:50.182Z</time>
      </trkpt>
      <trkpt lat="38.883589" lon="-1.346941">
        <ele>872.269931</ele>
        <time>2021-11-03T16:20:50.182Z</time>
      </trkpt>
      <trkpt lat="38.883590" lon="-1.346941">
        <ele>872.272944</ele>
        <time>2021-11-03T16:20:50.182Z</time>
      </trkpt>
      <trkpt lat="38.883591" lon="-1.346939">
        <ele>872.278519</ele>
        <time>2021-11-03T16:20:50.182Z</time>
      </trkpt>
      <trkpt lat="38.883592" lon="-1.346939">
        <ele>872.281532</ele>
        <time>2021-11-03T16:20:50.182Z</time>
      </trkpt>
      <trkpt lat="38.883592" lon="-1.346940">
        <ele>872.283877</ele>
        <time>2021-11-03T16:20:50.182Z</time>
      </trkpt>
      <trkpt lat="38.883593" lon="-1.346939">
        <ele>872.287696</ele>
        <time>2021-11-03T16:20:50.182Z</time>
      </trkpt>
      <trkpt lat="38.883592" lon="-1.346937">
        <ele>872.293271</ele>
        <time>2021-11-03T16:20:50.182Z</time>
      </trkpt>
      <trkpt lat="38.883591" lon="-1.346936">
        <ele>872.297089</ele>
        <time>2021-11-03T16:20:50.182Z</time>
      </trkpt>
      <trkpt lat="38.883591" lon="-1.346935">
        <ele>872.299435</ele>
        <time>2021-11-03T16:20:50.182Z</time>
      </trkpt>
      <trkpt lat="38.883591" lon="-1.346934">
        <ele>872.301780</ele>
        <time>2021-11-03T16:20:50.182Z</time>
      </trkpt>
      <trkpt lat="38.883591" lon="-1.346934">
        <ele>872.301780</ele>
        <time>2021-11-03T16:20:50.182Z</time>
      </trkpt>
      <trkpt lat="38.883591" lon="-1.346934">
        <ele>872.301780</ele>
        <time>2021-11-03T16:20:50.182Z</time>
      </trkpt>
      <trkpt lat="38.883590" lon="-1.346933">
        <ele>872.305598</ele>
        <time>2021-11-03T16:20:50.182Z</time>
      </trkpt>
      <trkpt lat="38.883590" lon="-1.346933">
        <ele>872.305598</ele>
        <time>2021-11-03T16:20:50.182Z</time>
      </trkpt>
      <trkpt lat="38.883590" lon="-1.346933">
        <ele>872.305598</ele>
        <time>2021-11-03T16:20:50.182Z</time>
      </trkpt>
      <trkpt lat="38.883590" lon="-1.346933">
        <ele>872.305598</ele>
        <time>2021-11-03T16:20:50.182Z</time>
      </trkpt>
      <trkpt lat="38.883592" lon="-1.346931">
        <ele>872.313235</ele>
        <time>2021-11-03T16:20:50.182Z</time>
      </trkpt>
      <trkpt lat="38.883592" lon="-1.346931">
        <ele>872.313235</ele>
        <time>2021-11-03T16:20:50.182Z</time>
      </trkpt>
      <trkpt lat="38.883592" lon="-1.346930">
        <ele>872.315580</ele>
        <time>2021-11-03T16:20:50.182Z</time>
      </trkpt>
      <trkpt lat="38.883592" lon="-1.346930">
        <ele>872.315580</ele>
        <time>2021-11-03T16:20:50.182Z</time>
      </trkpt>
      <trkpt lat="38.883592" lon="-1.346929">
        <ele>872.317926</ele>
        <time>2021-11-03T16:20:50.182Z</time>
      </trkpt>
      <trkpt lat="38.883583" lon="-1.346916">
        <ele>872.358731</ele>
        <time>2021-11-03T16:20:50.182Z</time>
      </trkpt>
      <trkpt lat="38.883574" lon="-1.346903">
        <ele>872.399535</ele>
        <time>2021-11-03T16:20:50.182Z</time>
      </trkpt>
      <trkpt lat="38.883569" lon="-1.346896">
        <ele>872.421818</ele>
        <time>2021-11-03T16:20:50.182Z</time>
      </trkpt>
      <trkpt lat="38.883568" lon="-1.346894">
        <ele>872.427393</ele>
        <time>2021-11-03T16:20:50.182Z</time>
      </trkpt>
      <trkpt lat="38.883568" lon="-1.346894">
        <ele>872.427393</ele>
        <time>2021-11-03T16:20:50.182Z</time>
      </trkpt>
      <trkpt lat="38.883568" lon="-1.346894">
        <ele>872.427393</ele>
        <time>2021-11-03T16:20:50.182Z</time>
      </trkpt>
      <trkpt lat="38.883567" lon="-1.346894">
        <ele>872.430406</ele>
        <time>2021-11-03T16:20:50.182Z</time>
      </trkpt>
      <trkpt lat="38.883561" lon="-1.346892">
        <ele>872.449083</ele>
        <time>2021-11-03T16:20:50.182Z</time>
      </trkpt>
      <trkpt lat="38.883561" lon="-1.346891">
        <ele>872.451429</ele>
        <time>2021-11-03T16:20:50.182Z</time>
      </trkpt>
      <trkpt lat="38.883561" lon="-1.346891">
        <ele>872.451429</ele>
        <time>2021-11-03T16:20:50.182Z</time>
      </trkpt>
      <trkpt lat="38.883561" lon="-1.346890">
        <ele>872.453774</ele>
        <time>2021-11-03T16:20:50.182Z</time>
      </trkpt>
      <trkpt lat="38.883560" lon="-1.346887">
        <ele>872.461428</ele>
        <time>2021-11-03T16:20:50.182Z</time>
      </trkpt>
      <trkpt lat="38.883558" lon="-1.346886">
        <ele>872.467895</ele>
        <time>2021-11-03T16:20:50.182Z</time>
      </trkpt>
      <trkpt lat="38.883557" lon="-1.346881">
        <ele>872.480003</ele>
        <time>2021-11-03T16:20:50.182Z</time>
      </trkpt>
      <trkpt lat="38.883556" lon="-1.346879">
        <ele>872.485578</ele>
        <time>2021-11-03T16:20:50.182Z</time>
      </trkpt>
      <trkpt lat="38.883556" lon="-1.346877">
        <ele>872.490269</ele>
        <time>2021-11-03T16:20:50.182Z</time>
      </trkpt>
      <trkpt lat="38.883557" lon="-1.346875">
        <ele>872.495844</ele>
        <time>2021-11-03T16:20:50.182Z</time>
      </trkpt>
      <trkpt lat="38.883557" lon="-1.346875">
        <ele>872.495844</ele>
        <time>2021-11-03T16:20:50.182Z</time>
      </trkpt>
      <trkpt lat="38.883556" lon="-1.346875">
        <ele>872.498857</ele>
        <time>2021-11-03T16:20:50.182Z</time>
      </trkpt>
      <trkpt lat="38.883555" lon="-1.346874">
        <ele>872.502675</ele>
        <time>2021-11-03T16:20:50.182Z</time>
      </trkpt>
      <trkpt lat="38.883555" lon="-1.346876">
        <ele>872.507366</ele>
        <time>2021-11-03T16:20:50.182Z</time>
      </trkpt>
      <trkpt lat="38.883554" lon="-1.346878">
        <ele>872.512942</ele>
        <time>2021-11-03T16:20:50.182Z</time>
      </trkpt>
      <trkpt lat="38.883553" lon="-1.346877">
        <ele>872.516760</ele>
        <time>2021-11-03T16:20:50.182Z</time>
      </trkpt>
      <trkpt lat="38.883533" lon="-1.346874">
        <ele>872.577430</ele>
        <time>2021-11-03T16:20:50.182Z</time>
      </trkpt>
      <trkpt lat="38.883544" lon="-1.346866">
        <ele>872.615517</ele>
        <time>2021-11-03T16:20:50.182Z</time>
      </trkpt>
      <trkpt lat="38.883545" lon="-1.346866">
        <ele>872.618530</ele>
        <time>2021-11-03T16:20:50.182Z</time>
      </trkpt>
      <trkpt lat="38.883547" lon="-1.346867">
        <ele>872.624996</ele>
        <time>2021-11-03T16:20:50.182Z</time>
      </trkpt>
      <trkpt lat="38.883548" lon="-1.346868">
        <ele>872.628814</ele>
        <time>2021-11-03T16:20:50.182Z</time>
      </trkpt>
      <trkpt lat="38.883545" lon="-1.346878">
        <ele>872.653950</ele>
        <time>2021-11-03T16:20:50.182Z</time>
      </trkpt>
      <trkpt lat="38.883544" lon="-1.346874">
        <ele>872.663804</ele>
        <time>2021-11-03T16:20:50.182Z</time>
      </trkpt>
      <trkpt lat="38.883547" lon="-1.346868">
        <ele>872.680529</ele>
        <time>2021-11-03T16:20:50.182Z</time>
      </trkpt>
      <trkpt lat="38.883546" lon="-1.346868">
        <ele>872.683542</ele>
        <time>2021-11-03T16:20:50.182Z</time>
      </trkpt>
      <trkpt lat="38.883546" lon="-1.346868">
        <ele>872.683542</ele>
        <time>2021-11-03T16:20:50.182Z</time>
      </trkpt>
      <trkpt lat="38.883545" lon="-1.346868">
        <ele>872.686556</ele>
        <time>2021-11-03T16:20:50.182Z</time>
      </trkpt>
      <trkpt lat="38.883543" lon="-1.346867">
        <ele>872.693022</ele>
        <time>2021-11-03T16:20:50.182Z</time>
      </trkpt>
      <trkpt lat="38.883542" lon="-1.346868">
        <ele>872.696840</ele>
        <time>2021-11-03T16:20:50.182Z</time>
      </trkpt>
      <trkpt lat="38.883540" lon="-1.346863">
        <ele>872.710025</ele>
        <time>2021-11-03T16:20:50.182Z</time>
      </trkpt>
      <trkpt lat="38.883540" lon="-1.346863">
        <ele>872.710025</ele>
        <time>2021-11-03T16:20:50.182Z</time>
      </trkpt>
      <trkpt lat="38.883537" lon="-1.346864">
        <ele>872.719364</ele>
        <time>2021-11-03T16:20:50.182Z</time>
      </trkpt>
      <trkpt lat="38.883536" lon="-1.346864">
        <ele>872.722377</ele>
        <time>2021-11-03T16:20:50.182Z</time>
      </trkpt>
      <trkpt lat="38.883535" lon="-1.346861">
        <ele>872.730031</ele>
        <time>2021-11-03T16:20:50.182Z</time>
      </trkpt>
      <trkpt lat="38.883534" lon="-1.346861">
        <ele>872.733044</ele>
        <time>2021-11-03T16:20:50.182Z</time>
      </trkpt>
      <trkpt lat="38.883533" lon="-1.346860">
        <ele>872.736862</ele>
        <time>2021-11-03T16:20:50.182Z</time>
      </trkpt>
      <trkpt lat="38.883530" lon="-1.346857">
        <ele>872.748317</ele>
        <time>2021-11-03T16:20:50.182Z</time>
      </trkpt>
      <trkpt lat="38.883535" lon="-1.346853">
        <ele>872.766065</ele>
        <time>2021-11-03T16:20:50.182Z</time>
      </trkpt>
      <trkpt lat="38.883538" lon="-1.346846">
        <ele>872.784807</ele>
        <time>2021-11-03T16:20:50.182Z</time>
      </trkpt>
      <trkpt lat="38.883531" lon="-1.346844">
        <ele>872.806414</ele>
        <time>2021-11-03T16:20:50.182Z</time>
      </trkpt>
      <trkpt lat="38.883532" lon="-1.346840">
        <ele>872.816267</ele>
        <time>2021-11-03T16:20:50.182Z</time>
      </trkpt>
      <trkpt lat="38.883538" lon="-1.346828">
        <ele>872.849718</ele>
        <time>2021-11-03T16:20:50.182Z</time>
      </trkpt>
      <trkpt lat="38.883536" lon="-1.346819">
        <ele>872.871670</ele>
        <time>2021-11-03T16:20:50.182Z</time>
      </trkpt>
      <trkpt lat="38.883536" lon="-1.346819">
        <ele>872.871670</ele>
        <time>2021-11-03T16:20:50.182Z</time>
      </trkpt>
      <trkpt lat="38.883550" lon="-1.346827">
        <ele>872.917838</ele>
        <time>2021-11-03T16:20:50.182Z</time>
      </trkpt>
      <trkpt lat="38.883552" lon="-1.346829">
        <ele>872.925475</ele>
        <time>2021-11-03T16:20:50.182Z</time>
      </trkpt>
      <trkpt lat="38.883551" lon="-1.346831">
        <ele>872.931050</ele>
        <time>2021-11-03T16:20:50.182Z</time>
      </trkpt>
      <trkpt lat="38.883550" lon="-1.346834">
        <ele>872.938704</ele>
        <time>2021-11-03T16:20:50.182Z</time>
      </trkpt>
      <trkpt lat="38.883550" lon="-1.346834">
        <ele>872.938704</ele>
        <time>2021-11-03T16:20:50.182Z</time>
      </trkpt>
      <trkpt lat="38.883550" lon="-1.346837">
        <ele>872.945740</ele>
        <time>2021-11-03T16:20:50.182Z</time>
      </trkpt>
      <trkpt lat="38.883550" lon="-1.346840">
        <ele>872.952777</ele>
        <time>2021-11-03T16:20:50.182Z</time>
      </trkpt>
      <trkpt lat="38.883550" lon="-1.346845">
        <ele>872.964504</ele>
        <time>2021-11-03T16:20:50.182Z</time>
      </trkpt>
      <trkpt lat="38.883552" lon="-1.346846">
        <ele>872.970970</ele>
        <time>2021-11-03T16:20:50.182Z</time>
      </trkpt>
      <trkpt lat="38.883551" lon="-1.346847">
        <ele>872.974789</ele>
        <time>2021-11-03T16:20:50.182Z</time>
      </trkpt>
      <trkpt lat="38.883552" lon="-1.346846">
        <ele>872.978607</ele>
        <time>2021-11-03T16:20:50.182Z</time>
      </trkpt>
      <trkpt lat="38.883550" lon="-1.346850">
        <ele>872.989757</ele>
        <time>2021-11-03T16:20:50.182Z</time>
      </trkpt>
      <trkpt lat="38.883550" lon="-1.346851">
        <ele>872.992103</ele>
        <time>2021-11-03T16:20:50.182Z</time>
      </trkpt>
      <trkpt lat="38.883551" lon="-1.346852">
        <ele>872.995921</ele>
        <time>2021-11-03T16:20:50.182Z</time>
      </trkpt>
      <trkpt lat="38.883552" lon="-1.346850">
        <ele>873.001496</ele>
        <time>2021-11-03T16:20:50.182Z</time>
      </trkpt>
      <trkpt lat="38.883552" lon="-1.346851">
        <ele>873.003842</ele>
        <time>2021-11-03T16:20:50.182Z</time>
      </trkpt>
      <trkpt lat="38.883554" lon="-1.346851">
        <ele>873.009868</ele>
        <time>2021-11-03T16:20:50.182Z</time>
      </trkpt>
      <trkpt lat="38.883554" lon="-1.346851">
        <ele>873.009868</ele>
        <time>2021-11-03T16:20:50.182Z</time>
      </trkpt>
      <trkpt lat="38.883555" lon="-1.346850">
        <ele>873.013686</ele>
        <time>2021-11-03T16:20:50.182Z</time>
      </trkpt>
      <trkpt lat="38.883555" lon="-1.346851">
        <ele>873.016032</ele>
        <time>2021-11-03T16:20:50.182Z</time>
      </trkpt>
      <trkpt lat="38.883554" lon="-1.346852">
        <ele>873.019850</ele>
        <time>2021-11-03T16:20:50.182Z</time>
      </trkpt>
      <trkpt lat="38.883555" lon="-1.346852">
        <ele>873.022863</ele>
        <time>2021-11-03T16:20:50.182Z</time>
      </trkpt>
      <trkpt lat="38.883556" lon="-1.346855">
        <ele>873.030517</ele>
        <time>2021-11-03T16:20:50.182Z</time>
      </trkpt>
      <trkpt lat="38.883558" lon="-1.346858">
        <ele>873.039781</ele>
        <time>2021-11-03T16:20:50.182Z</time>
      </trkpt>
      <trkpt lat="38.883559" lon="-1.346859">
        <ele>873.043600</ele>
        <time>2021-11-03T16:20:50.182Z</time>
      </trkpt>
      <trkpt lat="38.883558" lon="-1.346860">
        <ele>873.047418</ele>
        <time>2021-11-03T16:20:50.182Z</time>
      </trkpt>
      <trkpt lat="38.883557" lon="-1.346867">
        <ele>873.064110</ele>
        <time>2021-11-03T16:20:50.182Z</time>
      </trkpt>
      <trkpt lat="38.883562" lon="-1.346866">
        <ele>873.079357</ele>
        <time>2021-11-03T16:20:50.182Z</time>
      </trkpt>
      <trkpt lat="38.883562" lon="-1.346867">
        <ele>873.081702</ele>
        <time>2021-11-03T16:20:50.182Z</time>
      </trkpt>
      <trkpt lat="38.883563" lon="-1.346868">
        <ele>873.085521</ele>
        <time>2021-11-03T16:20:50.182Z</time>
      </trkpt>
      <trkpt lat="38.883563" lon="-1.346866">
        <ele>873.090211</ele>
        <time>2021-11-03T16:20:50.182Z</time>
      </trkpt>
      <trkpt lat="38.883564" lon="-1.346866">
        <ele>873.093225</ele>
        <time>2021-11-03T16:20:50.182Z</time>
      </trkpt>
      <trkpt lat="38.883564" lon="-1.346866">
        <ele>873.093225</ele>
        <time>2021-11-03T16:20:50.182Z</time>
      </trkpt>
      <trkpt lat="38.883564" lon="-1.346865">
        <ele>873.095570</ele>
        <time>2021-11-03T16:20:50.182Z</time>
      </trkpt>
      <trkpt lat="38.883564" lon="-1.346867">
        <ele>873.100261</ele>
        <time>2021-11-03T16:20:50.182Z</time>
      </trkpt>
      <trkpt lat="38.883564" lon="-1.346867">
        <ele>873.100261</ele>
        <time>2021-11-03T16:20:50.182Z</time>
      </trkpt>
      <trkpt lat="38.883564" lon="-1.346868">
        <ele>873.102606</ele>
        <time>2021-11-03T16:20:50.182Z</time>
      </trkpt>
      <trkpt lat="38.883563" lon="-1.346868">
        <ele>873.105619</ele>
        <time>2021-11-03T16:20:50.182Z</time>
      </trkpt>
      <trkpt lat="38.883564" lon="-1.346869">
        <ele>873.109438</ele>
        <time>2021-11-03T16:20:50.182Z</time>
      </trkpt>
      <trkpt lat="38.883564" lon="-1.346869">
        <ele>873.109438</ele>
        <time>2021-11-03T16:20:50.182Z</time>
      </trkpt>
      <trkpt lat="38.883563" lon="-1.346871">
        <ele>873.115013</ele>
        <time>2021-11-03T16:20:50.182Z</time>
      </trkpt>
      <trkpt lat="38.883563" lon="-1.346857">
        <ele>873.147849</ele>
        <time>2021-11-03T16:20:50.182Z</time>
      </trkpt>
      <trkpt lat="38.883557" lon="-1.346852">
        <ele>873.169398</ele>
        <time>2021-11-03T16:20:50.182Z</time>
      </trkpt>
      <trkpt lat="38.883554" lon="-1.346851">
        <ele>873.178736</ele>
        <time>2021-11-03T16:20:50.182Z</time>
      </trkpt>
      <trkpt lat="38.883557" lon="-1.346846">
        <ele>873.193543</ele>
        <time>2021-11-03T16:20:50.182Z</time>
      </trkpt>
      <trkpt lat="38.883559" lon="-1.346845">
        <ele>873.200009</ele>
        <time>2021-11-03T16:20:50.182Z</time>
      </trkpt>
      <trkpt lat="38.883562" lon="-1.346845">
        <ele>873.209048</ele>
        <time>2021-11-03T16:20:50.182Z</time>
      </trkpt>
      <trkpt lat="38.883562" lon="-1.346847">
        <ele>873.213739</ele>
        <time>2021-11-03T16:20:50.182Z</time>
      </trkpt>
      <trkpt lat="38.883561" lon="-1.346847">
        <ele>873.216752</ele>
        <time>2021-11-03T16:20:50.182Z</time>
      </trkpt>
      <trkpt lat="38.883562" lon="-1.346847">
        <ele>873.219765</ele>
        <time>2021-11-03T16:20:50.182Z</time>
      </trkpt>
      <trkpt lat="38.883562" lon="-1.346847">
        <ele>873.219765</ele>
        <time>2021-11-03T16:20:50.182Z</time>
      </trkpt>
      <trkpt lat="38.883562" lon="-1.346847">
        <ele>873.219765</ele>
        <time>2021-11-03T16:20:50.182Z</time>
      </trkpt>
      <trkpt lat="38.883562" lon="-1.346847">
        <ele>873.219765</ele>
        <time>2021-11-03T16:20:50.182Z</time>
      </trkpt>
      <trkpt lat="38.883561" lon="-1.346846">
        <ele>873.223584</ele>
        <time>2021-11-03T16:20:50.182Z</time>
      </trkpt>
      <trkpt lat="38.883560" lon="-1.346846">
        <ele>873.226597</ele>
        <time>2021-11-03T16:20:50.182Z</time>
      </trkpt>
      <trkpt lat="38.883560" lon="-1.346845">
        <ele>873.228942</ele>
        <time>2021-11-03T16:20:50.182Z</time>
      </trkpt>
      <trkpt lat="38.883561" lon="-1.346840">
        <ele>873.241050</ele>
        <time>2021-11-03T16:20:50.182Z</time>
      </trkpt>
      <trkpt lat="38.883562" lon="-1.346839">
        <ele>873.244868</ele>
        <time>2021-11-03T16:20:50.182Z</time>
      </trkpt>
      <trkpt lat="38.883565" lon="-1.346836">
        <ele>873.256323</ele>
        <time>2021-11-03T16:20:50.182Z</time>
      </trkpt>
      <trkpt lat="38.883565" lon="-1.346833">
        <ele>873.263360</ele>
        <time>2021-11-03T16:20:50.182Z</time>
      </trkpt>
      <trkpt lat="38.883565" lon="-1.346833">
        <ele>873.263360</ele>
        <time>2021-11-03T16:20:50.182Z</time>
      </trkpt>
      <trkpt lat="38.883565" lon="-1.346832">
        <ele>873.265705</ele>
        <time>2021-11-03T16:20:50.182Z</time>
      </trkpt>
      <trkpt lat="38.883565" lon="-1.346832">
        <ele>873.265705</ele>
        <time>2021-11-03T16:20:50.182Z</time>
      </trkpt>
      <trkpt lat="38.883565" lon="-1.346832">
        <ele>873.265705</ele>
        <time>2021-11-03T16:20:50.182Z</time>
      </trkpt>
      <trkpt lat="38.883565" lon="-1.346832">
        <ele>873.265705</ele>
        <time>2021-11-03T16:20:50.182Z</time>
      </trkpt>
      <trkpt lat="38.883565" lon="-1.346831">
        <ele>873.268050</ele>
        <time>2021-11-03T16:20:50.182Z</time>
      </trkpt>
      <trkpt lat="38.883565" lon="-1.346831">
        <ele>873.268050</ele>
        <time>2021-11-03T16:20:50.182Z</time>
      </trkpt>
      <trkpt lat="38.883565" lon="-1.346832">
        <ele>873.270396</ele>
        <time>2021-11-03T16:20:50.182Z</time>
      </trkpt>
      <trkpt lat="38.883566" lon="-1.346832">
        <ele>873.273409</ele>
        <time>2021-11-03T16:20:50.182Z</time>
      </trkpt>
      <trkpt lat="38.883566" lon="-1.346832">
        <ele>873.273409</ele>
        <time>2021-11-03T16:20:50.182Z</time>
      </trkpt>
      <trkpt lat="38.883566" lon="-1.346832">
        <ele>873.273409</ele>
        <time>2021-11-03T16:20:50.182Z</time>
      </trkpt>
      <trkpt lat="38.883566" lon="-1.346831">
        <ele>873.275754</ele>
        <time>2021-11-03T16:20:50.182Z</time>
      </trkpt>
      <trkpt lat="38.883565" lon="-1.346833">
        <ele>873.281330</ele>
        <time>2021-11-03T16:20:50.182Z</time>
      </trkpt>
      <trkpt lat="38.883564" lon="-1.346832">
        <ele>873.285148</ele>
        <time>2021-11-03T16:20:50.182Z</time>
      </trkpt>
      <trkpt lat="38.883564" lon="-1.346828">
        <ele>873.294530</ele>
        <time>2021-11-03T16:20:50.182Z</time>
      </trkpt>
      <trkpt lat="38.883562" lon="-1.346826">
        <ele>873.302166</ele>
        <time>2021-11-03T16:20:50.182Z</time>
      </trkpt>
      <trkpt lat="38.883562" lon="-1.346827">
        <ele>873.304512</ele>
        <time>2021-11-03T16:20:50.182Z</time>
      </trkpt>
      <trkpt lat="38.883561" lon="-1.346827">
        <ele>873.307525</ele>
        <time>2021-11-03T16:20:50.182Z</time>
      </trkpt>
      <trkpt lat="38.883561" lon="-1.346827">
        <ele>873.307525</ele>
        <time>2021-11-03T16:20:50.182Z</time>
      </trkpt>
      <trkpt lat="38.883561" lon="-1.346828">
        <ele>873.309870</ele>
        <time>2021-11-03T16:20:50.182Z</time>
      </trkpt>
      <trkpt lat="38.883561" lon="-1.346829">
        <ele>873.312216</ele>
        <time>2021-11-03T16:20:50.182Z</time>
      </trkpt>
      <trkpt lat="38.883561" lon="-1.346829">
        <ele>873.312216</ele>
        <time>2021-11-03T16:20:50.182Z</time>
      </trkpt>
      <trkpt lat="38.883560" lon="-1.346829">
        <ele>873.315229</ele>
        <time>2021-11-03T16:20:50.182Z</time>
      </trkpt>
      <trkpt lat="38.883560" lon="-1.346834">
        <ele>873.326956</ele>
        <time>2021-11-03T16:20:50.182Z</time>
      </trkpt>
      <trkpt lat="38.883560" lon="-1.346836">
        <ele>873.331647</ele>
        <time>2021-11-03T16:20:50.182Z</time>
      </trkpt>
      <trkpt lat="38.883559" lon="-1.346835">
        <ele>873.335465</ele>
        <time>2021-11-03T16:20:50.182Z</time>
      </trkpt>
      <trkpt lat="38.883559" lon="-1.346835">
        <ele>873.335465</ele>
        <time>2021-11-03T16:20:50.182Z</time>
      </trkpt>
      <trkpt lat="38.883560" lon="-1.346837">
        <ele>873.341040</ele>
        <time>2021-11-03T16:20:50.182Z</time>
      </trkpt>
      <trkpt lat="38.883559" lon="-1.346837">
        <ele>873.344053</ele>
        <time>2021-11-03T16:20:50.182Z</time>
      </trkpt>
      <trkpt lat="38.883559" lon="-1.346837">
        <ele>873.344053</ele>
        <time>2021-11-03T16:20:50.182Z</time>
      </trkpt>
      <trkpt lat="38.883559" lon="-1.346838">
        <ele>873.346399</ele>
        <time>2021-11-03T16:20:50.182Z</time>
      </trkpt>
      <trkpt lat="38.883559" lon="-1.346838">
        <ele>873.346399</ele>
        <time>2021-11-03T16:20:50.182Z</time>
      </trkpt>
      <trkpt lat="38.883559" lon="-1.346838">
        <ele>873.346399</ele>
        <time>2021-11-03T16:20:50.182Z</time>
      </trkpt>
      <trkpt lat="38.883559" lon="-1.346838">
        <ele>873.346399</ele>
        <time>2021-11-03T16:20:50.182Z</time>
      </trkpt>
      <trkpt lat="38.883559" lon="-1.346837">
        <ele>873.348744</ele>
        <time>2021-11-03T16:20:50.182Z</time>
      </trkpt>
      <trkpt lat="38.883560" lon="-1.346837">
        <ele>873.351757</ele>
        <time>2021-11-03T16:20:50.182Z</time>
      </trkpt>
      <trkpt lat="38.883560" lon="-1.346836">
        <ele>873.354102</ele>
        <time>2021-11-03T16:20:50.182Z</time>
      </trkpt>
      <trkpt lat="38.883564" lon="-1.346834">
        <ele>873.367035</ele>
        <time>2021-11-03T16:20:50.182Z</time>
      </trkpt>
      <trkpt lat="38.883564" lon="-1.346836">
        <ele>873.371726</ele>
        <time>2021-11-03T16:20:50.182Z</time>
      </trkpt>
      <trkpt lat="38.883560" lon="-1.346841">
        <ele>873.388542</ele>
        <time>2021-11-03T16:20:50.182Z</time>
      </trkpt>
      <trkpt lat="38.883560" lon="-1.346842">
        <ele>873.390888</ele>
        <time>2021-11-03T16:20:50.182Z</time>
      </trkpt>
      <trkpt lat="38.883563" lon="-1.346842">
        <ele>873.399927</ele>
        <time>2021-11-03T16:20:50.182Z</time>
      </trkpt>
      <trkpt lat="38.883561" lon="-1.346841">
        <ele>873.406393</ele>
        <time>2021-11-03T16:20:50.182Z</time>
      </trkpt>
      <trkpt lat="38.883557" lon="-1.346837">
        <ele>873.421667</ele>
        <time>2021-11-03T16:20:50.182Z</time>
      </trkpt>
      <trkpt lat="38.883558" lon="-1.346836">
        <ele>873.425485</ele>
        <time>2021-11-03T16:20:50.182Z</time>
      </trkpt>
      <trkpt lat="38.883558" lon="-1.346836">
        <ele>873.425485</ele>
        <time>2021-11-03T16:20:50.182Z</time>
      </trkpt>
      <trkpt lat="38.883557" lon="-1.346839">
        <ele>873.433139</ele>
        <time>2021-11-03T16:20:50.182Z</time>
      </trkpt>
      <trkpt lat="38.883557" lon="-1.346839">
        <ele>873.433139</ele>
        <time>2021-11-03T16:20:50.182Z</time>
      </trkpt>
      <trkpt lat="38.883557" lon="-1.346839">
        <ele>873.433139</ele>
        <time>2021-11-03T16:20:50.182Z</time>
      </trkpt>
      <trkpt lat="38.883557" lon="-1.346839">
        <ele>873.433139</ele>
        <time>2021-11-03T16:20:50.182Z</time>
      </trkpt>
      <trkpt lat="38.883558" lon="-1.346839">
        <ele>873.436152</ele>
        <time>2021-11-03T16:20:50.182Z</time>
      </trkpt>
      <trkpt lat="38.883558" lon="-1.346839">
        <ele>873.436152</ele>
        <time>2021-11-03T16:20:50.182Z</time>
      </trkpt>
      <trkpt lat="38.883557" lon="-1.346839">
        <ele>873.439165</ele>
        <time>2021-11-03T16:20:50.182Z</time>
      </trkpt>
      <trkpt lat="38.883557" lon="-1.346842">
        <ele>873.446202</ele>
        <time>2021-11-03T16:20:50.182Z</time>
      </trkpt>
      <trkpt lat="38.883557" lon="-1.346844">
        <ele>873.450892</ele>
        <time>2021-11-03T16:20:50.182Z</time>
      </trkpt>
      <trkpt lat="38.883555" lon="-1.346845">
        <ele>873.457359</ele>
        <time>2021-11-03T16:20:50.182Z</time>
      </trkpt>
      <trkpt lat="38.883556" lon="-1.346845">
        <ele>873.460372</ele>
        <time>2021-11-03T16:20:50.182Z</time>
      </trkpt>
      <trkpt lat="38.883556" lon="-1.346847">
        <ele>873.465063</ele>
        <time>2021-11-03T16:20:50.182Z</time>
      </trkpt>
      <trkpt lat="38.883556" lon="-1.346848">
        <ele>873.467408</ele>
        <time>2021-11-03T16:20:50.182Z</time>
      </trkpt>
      <trkpt lat="38.883556" lon="-1.346850">
        <ele>873.472099</ele>
        <time>2021-11-03T16:20:50.182Z</time>
      </trkpt>
      <trkpt lat="38.883556" lon="-1.346851">
        <ele>873.474445</ele>
        <time>2021-11-03T16:20:50.182Z</time>
      </trkpt>
      <trkpt lat="38.883555" lon="-1.346852">
        <ele>873.478263</ele>
        <time>2021-11-03T16:20:50.182Z</time>
      </trkpt>
      <trkpt lat="38.883555" lon="-1.346851">
        <ele>873.480608</ele>
        <time>2021-11-03T16:20:50.182Z</time>
      </trkpt>
      <trkpt lat="38.883553" lon="-1.346854">
        <ele>873.489872</ele>
        <time>2021-11-03T16:20:50.182Z</time>
      </trkpt>
      <trkpt lat="38.883553" lon="-1.346854">
        <ele>873.489872</ele>
        <time>2021-11-03T16:20:50.182Z</time>
      </trkpt>
      <trkpt lat="38.883554" lon="-1.346856">
        <ele>873.495448</ele>
        <time>2021-11-03T16:20:50.182Z</time>
      </trkpt>
      <trkpt lat="38.883555" lon="-1.346856">
        <ele>873.498461</ele>
        <time>2021-11-03T16:20:50.182Z</time>
      </trkpt>
      <trkpt lat="38.883555" lon="-1.346857">
        <ele>873.500806</ele>
        <time>2021-11-03T16:20:50.182Z</time>
      </trkpt>
      <trkpt lat="38.883555" lon="-1.346857">
        <ele>873.500806</ele>
        <time>2021-11-03T16:20:50.182Z</time>
      </trkpt>
      <trkpt lat="38.883555" lon="-1.346857">
        <ele>873.500806</ele>
        <time>2021-11-03T16:20:50.182Z</time>
      </trkpt>
      <trkpt lat="38.883555" lon="-1.346858">
        <ele>873.503151</ele>
        <time>2021-11-03T16:20:50.182Z</time>
      </trkpt>
      <trkpt lat="38.883554" lon="-1.346859">
        <ele>873.506970</ele>
        <time>2021-11-03T16:20:50.182Z</time>
      </trkpt>
      <trkpt lat="38.883554" lon="-1.346859">
        <ele>873.506970</ele>
        <time>2021-11-03T16:20:50.182Z</time>
      </trkpt>
      <trkpt lat="38.883554" lon="-1.346859">
        <ele>873.506970</ele>
        <time>2021-11-03T16:20:50.182Z</time>
      </trkpt>
      <trkpt lat="38.883554" lon="-1.346858">
        <ele>873.509315</ele>
        <time>2021-11-03T16:20:50.182Z</time>
      </trkpt>
      <trkpt lat="38.883551" lon="-1.346862">
        <ele>873.522343</ele>
        <time>2021-11-03T16:20:50.182Z</time>
      </trkpt>
      <trkpt lat="38.883546" lon="-1.346867">
        <ele>873.541435</ele>
        <time>2021-11-03T16:20:50.182Z</time>
      </trkpt>
      <trkpt lat="38.883547" lon="-1.346872">
        <ele>873.553543</ele>
        <time>2021-11-03T16:20:50.182Z</time>
      </trkpt>
      <trkpt lat="38.883547" lon="-1.346873">
        <ele>873.555888</ele>
        <time>2021-11-03T16:20:50.182Z</time>
      </trkpt>
      <trkpt lat="38.883548" lon="-1.346874">
        <ele>873.559706</ele>
        <time>2021-11-03T16:20:50.182Z</time>
      </trkpt>
      <trkpt lat="38.883547" lon="-1.346875">
        <ele>873.563525</ele>
        <time>2021-11-03T16:20:50.182Z</time>
      </trkpt>
      <trkpt lat="38.883546" lon="-1.346870">
        <ele>873.575633</ele>
        <time>2021-11-03T16:20:50.182Z</time>
      </trkpt>
      <trkpt lat="38.883546" lon="-1.346867">
        <ele>873.582669</ele>
        <time>2021-11-03T16:20:50.182Z</time>
      </trkpt>
      <trkpt lat="38.883546" lon="-1.346866">
        <ele>873.585014</ele>
        <time>2021-11-03T16:20:50.182Z</time>
      </trkpt>
      <trkpt lat="38.883546" lon="-1.346862">
        <ele>873.594396</ele>
        <time>2021-11-03T16:20:50.182Z</time>
      </trkpt>
      <trkpt lat="38.883546" lon="-1.346862">
        <ele>873.594396</ele>
        <time>2021-11-03T16:20:50.182Z</time>
      </trkpt>
      <trkpt lat="38.883546" lon="-1.346862">
        <ele>873.594396</ele>
        <time>2021-11-03T16:20:50.182Z</time>
      </trkpt>
      <trkpt lat="38.883550" lon="-1.346861">
        <ele>873.606674</ele>
        <time>2021-11-03T16:20:50.182Z</time>
      </trkpt>
      <trkpt lat="38.883554" lon="-1.346858">
        <ele>873.620630</ele>
        <time>2021-11-03T16:20:50.182Z</time>
      </trkpt>
      <trkpt lat="38.883554" lon="-1.346854">
        <ele>873.630012</ele>
        <time>2021-11-03T16:20:50.182Z</time>
      </trkpt>
      <trkpt lat="38.883554" lon="-1.346853">
        <ele>873.632357</ele>
        <time>2021-11-03T16:20:50.182Z</time>
      </trkpt>
      <trkpt lat="38.883556" lon="-1.346856">
        <ele>873.641622</ele>
        <time>2021-11-03T16:20:50.182Z</time>
      </trkpt>
      <trkpt lat="38.883556" lon="-1.346857">
        <ele>873.643967</ele>
        <time>2021-11-03T16:20:50.182Z</time>
      </trkpt>
      <trkpt lat="38.883556" lon="-1.346855">
        <ele>873.648658</ele>
        <time>2021-11-03T16:20:50.182Z</time>
      </trkpt>
      <trkpt lat="38.883555" lon="-1.346855">
        <ele>873.651671</ele>
        <time>2021-11-03T16:20:50.182Z</time>
      </trkpt>
      <trkpt lat="38.883555" lon="-1.346856">
        <ele>873.654016</ele>
        <time>2021-11-03T16:20:50.182Z</time>
      </trkpt>
      <trkpt lat="38.883554" lon="-1.346856">
        <ele>873.657029</ele>
        <time>2021-11-03T16:20:50.182Z</time>
      </trkpt>
      <trkpt lat="38.883550" lon="-1.346855">
        <ele>873.669308</ele>
        <time>2021-11-03T16:20:50.182Z</time>
      </trkpt>
      <trkpt lat="38.883550" lon="-1.346856">
        <ele>873.671653</ele>
        <time>2021-11-03T16:20:50.182Z</time>
      </trkpt>
      <trkpt lat="38.883549" lon="-1.346857">
        <ele>873.675471</ele>
        <time>2021-11-03T16:20:50.182Z</time>
      </trkpt>
      <trkpt lat="38.883549" lon="-1.346857">
        <ele>873.675471</ele>
        <time>2021-11-03T16:20:50.182Z</time>
      </trkpt>
      <trkpt lat="38.883549" lon="-1.346858">
        <ele>873.677817</ele>
        <time>2021-11-03T16:20:50.182Z</time>
      </trkpt>
      <trkpt lat="38.883549" lon="-1.346858">
        <ele>873.677817</ele>
        <time>2021-11-03T16:20:50.182Z</time>
      </trkpt>
      <trkpt lat="38.883549" lon="-1.346858">
        <ele>873.677817</ele>
        <time>2021-11-03T16:20:50.182Z</time>
      </trkpt>
      <trkpt lat="38.883549" lon="-1.346858">
        <ele>873.677817</ele>
        <time>2021-11-03T16:20:50.182Z</time>
      </trkpt>
      <trkpt lat="38.883549" lon="-1.346859">
        <ele>873.680162</ele>
        <time>2021-11-03T16:20:50.182Z</time>
      </trkpt>
      <trkpt lat="38.883548" lon="-1.346860">
        <ele>873.683981</ele>
        <time>2021-11-03T16:20:50.182Z</time>
      </trkpt>
      <trkpt lat="38.883545" lon="-1.346870">
        <ele>873.709116</ele>
        <time>2021-11-03T16:20:50.182Z</time>
      </trkpt>
      <trkpt lat="38.883544" lon="-1.346871">
        <ele>873.712935</ele>
        <time>2021-11-03T16:20:50.182Z</time>
      </trkpt>
      <trkpt lat="38.883541" lon="-1.346878">
        <ele>873.731677</ele>
        <time>2021-11-03T16:20:50.182Z</time>
      </trkpt>
      <trkpt lat="38.883538" lon="-1.346875">
        <ele>873.743132</ele>
        <time>2021-11-03T16:20:50.182Z</time>
      </trkpt>
      <trkpt lat="38.883533" lon="-1.346867">
        <ele>873.767195</ele>
        <time>2021-11-03T16:20:50.182Z</time>
      </trkpt>
      <trkpt lat="38.883529" lon="-1.346862">
        <ele>873.784011</ele>
        <time>2021-11-03T16:20:50.182Z</time>
      </trkpt>
      <trkpt lat="38.883524" lon="-1.346859">
        <ele>873.800638</ele>
        <time>2021-11-03T16:20:50.182Z</time>
      </trkpt>
      <trkpt lat="38.883521" lon="-1.346857">
        <ele>873.810822</ele>
        <time>2021-11-03T16:20:50.182Z</time>
      </trkpt>
      <trkpt lat="38.883519" lon="-1.346860">
        <ele>873.820086</ele>
        <time>2021-11-03T16:20:50.182Z</time>
      </trkpt>
      <trkpt lat="38.883506" lon="-1.346888">
        <ele>873.896552</ele>
        <time>2021-11-03T16:20:50.182Z</time>
      </trkpt>
      <trkpt lat="38.883496" lon="-1.346906">
        <ele>873.948419</ele>
        <time>2021-11-03T16:20:50.182Z</time>
      </trkpt>
      <trkpt lat="38.883501" lon="-1.346914">
        <ele>873.972482</ele>
        <time>2021-11-03T16:20:50.182Z</time>
      </trkpt>
      <trkpt lat="38.883507" lon="-1.346927">
        <ele>874.007930</ele>
        <time>2021-11-03T16:20:50.182Z</time>
      </trkpt>
      <trkpt lat="38.883507" lon="-1.346926">
        <ele>874.010275</ele>
        <time>2021-11-03T16:20:50.182Z</time>
      </trkpt>
      <trkpt lat="38.883508" lon="-1.346924">
        <ele>874.015850</ele>
        <time>2021-11-03T16:20:50.182Z</time>
      </trkpt>
      <trkpt lat="38.883509" lon="-1.346921">
        <ele>874.023504</ele>
        <time>2021-11-03T16:20:50.182Z</time>
      </trkpt>
      <trkpt lat="38.883509" lon="-1.346916">
        <ele>874.035232</ele>
        <time>2021-11-03T16:20:50.182Z</time>
      </trkpt>
      <trkpt lat="38.883509" lon="-1.346905">
        <ele>874.061031</ele>
        <time>2021-11-03T16:20:50.182Z</time>
      </trkpt>
      <trkpt lat="38.883515" lon="-1.346901">
        <ele>874.081399</ele>
        <time>2021-11-03T16:20:50.182Z</time>
      </trkpt>
      <trkpt lat="38.883519" lon="-1.346887">
        <ele>874.116377</ele>
        <time>2021-11-03T16:20:50.182Z</time>
      </trkpt>
      <trkpt lat="38.883525" lon="-1.346888">
        <ele>874.134607</ele>
        <time>2021-11-03T16:20:50.182Z</time>
      </trkpt>
      <trkpt lat="38.883529" lon="-1.346889">
        <ele>874.146885</ele>
        <time>2021-11-03T16:20:50.182Z</time>
      </trkpt>
      <trkpt lat="38.883529" lon="-1.346889">
        <ele>874.146885</ele>
        <time>2021-11-03T16:20:50.182Z</time>
      </trkpt>
      <trkpt lat="38.883529" lon="-1.346891">
        <ele>874.151576</ele>
        <time>2021-11-03T16:20:50.182Z</time>
      </trkpt>
      <trkpt lat="38.883529" lon="-1.346890">
        <ele>874.153921</ele>
        <time>2021-11-03T16:20:50.182Z</time>
      </trkpt>
      <trkpt lat="38.883530" lon="-1.346887">
        <ele>874.161576</ele>
        <time>2021-11-03T16:20:50.182Z</time>
      </trkpt>
      <trkpt lat="38.883531" lon="-1.346886">
        <ele>874.165394</ele>
        <time>2021-11-03T16:20:50.182Z</time>
      </trkpt>
      <trkpt lat="38.883533" lon="-1.346885">
        <ele>874.171860</ele>
        <time>2021-11-03T16:20:50.182Z</time>
      </trkpt>
      <trkpt lat="38.883530" lon="-1.346885">
        <ele>874.180900</ele>
        <time>2021-11-03T16:20:50.182Z</time>
      </trkpt>
      <trkpt lat="38.883531" lon="-1.346885">
        <ele>874.183913</ele>
        <time>2021-11-03T16:20:50.182Z</time>
      </trkpt>
      <trkpt lat="38.883529" lon="-1.346880">
        <ele>874.197098</ele>
        <time>2021-11-03T16:20:50.182Z</time>
      </trkpt>
      <trkpt lat="38.883529" lon="-1.346873">
        <ele>874.213516</ele>
        <time>2021-11-03T16:20:50.182Z</time>
      </trkpt>
      <trkpt lat="38.883529" lon="-1.346871">
        <ele>874.218206</ele>
        <time>2021-11-03T16:20:50.182Z</time>
      </trkpt>
      <trkpt lat="38.883529" lon="-1.346872">
        <ele>874.220552</ele>
        <time>2021-11-03T16:20:50.182Z</time>
      </trkpt>
      <trkpt lat="38.883528" lon="-1.346871">
        <ele>874.224370</ele>
        <time>2021-11-03T16:20:50.182Z</time>
      </trkpt>
      <trkpt lat="38.883527" lon="-1.346875">
        <ele>874.234224</ele>
        <time>2021-11-03T16:20:50.182Z</time>
      </trkpt>
      <trkpt lat="38.883522" lon="-1.346882">
        <ele>874.256506</ele>
        <time>2021-11-03T16:20:50.182Z</time>
      </trkpt>
      <trkpt lat="38.883516" lon="-1.346885">
        <ele>874.275906</ele>
        <time>2021-11-03T16:20:50.182Z</time>
      </trkpt>
      <trkpt lat="38.883520" lon="-1.346884">
        <ele>874.288184</ele>
        <time>2021-11-03T16:20:50.182Z</time>
      </trkpt>
      <trkpt lat="38.883519" lon="-1.346884">
        <ele>874.291197</ele>
        <time>2021-11-03T16:20:50.182Z</time>
      </trkpt>
      <trkpt lat="38.883520" lon="-1.346882">
        <ele>874.296772</ele>
        <time>2021-11-03T16:20:50.182Z</time>
      </trkpt>
      <trkpt lat="38.883521" lon="-1.346883">
        <ele>874.300591</ele>
        <time>2021-11-03T16:20:50.182Z</time>
      </trkpt>
      <trkpt lat="38.883522" lon="-1.346878">
        <ele>874.312699</ele>
        <time>2021-11-03T16:20:50.182Z</time>
      </trkpt>
      <trkpt lat="38.883520" lon="-1.346870">
        <ele>874.332406</ele>
        <time>2021-11-03T16:20:50.182Z</time>
      </trkpt>
      <trkpt lat="38.883519" lon="-1.346867">
        <ele>874.340060</ele>
        <time>2021-11-03T16:20:50.182Z</time>
      </trkpt>
      <trkpt lat="38.883519" lon="-1.346866">
        <ele>874.342406</ele>
        <time>2021-11-03T16:20:50.182Z</time>
      </trkpt>
      <trkpt lat="38.883520" lon="-1.346865">
        <ele>874.346224</ele>
        <time>2021-11-03T16:20:50.182Z</time>
      </trkpt>
      <trkpt lat="38.883520" lon="-1.346865">
        <ele>874.346224</ele>
        <time>2021-11-03T16:20:50.182Z</time>
      </trkpt>
      <trkpt lat="38.883521" lon="-1.346857">
        <ele>874.365228</ele>
        <time>2021-11-03T16:20:50.182Z</time>
      </trkpt>
      <trkpt lat="38.883521" lon="-1.346857">
        <ele>874.365228</ele>
        <time>2021-11-03T16:20:50.182Z</time>
      </trkpt>
      <trkpt lat="38.883520" lon="-1.346858">
        <ele>874.369046</ele>
        <time>2021-11-03T16:20:50.182Z</time>
      </trkpt>
      <trkpt lat="38.883518" lon="-1.346856">
        <ele>874.376683</ele>
        <time>2021-11-03T16:20:50.182Z</time>
      </trkpt>
      <trkpt lat="38.883516" lon="-1.346853">
        <ele>874.385947</ele>
        <time>2021-11-03T16:20:50.182Z</time>
      </trkpt>
      <trkpt lat="38.883535" lon="-1.346864">
        <ele>874.448740</ele>
        <time>2021-11-03T16:20:50.182Z</time>
      </trkpt>
      <trkpt lat="38.883534" lon="-1.346865">
        <ele>874.452558</ele>
        <time>2021-11-03T16:20:50.182Z</time>
      </trkpt>
      <trkpt lat="38.883534" lon="-1.346865">
        <ele>874.452558</ele>
        <time>2021-11-03T16:20:50.182Z</time>
      </trkpt>
      <trkpt lat="38.883533" lon="-1.346869">
        <ele>874.462412</ele>
        <time>2021-11-03T16:20:50.182Z</time>
      </trkpt>
      <trkpt lat="38.883534" lon="-1.346869">
        <ele>874.465425</ele>
        <time>2021-11-03T16:20:50.182Z</time>
      </trkpt>
      <trkpt lat="38.883534" lon="-1.346876">
        <ele>874.481843</ele>
        <time>2021-11-03T16:20:50.182Z</time>
      </trkpt>
      <trkpt lat="38.883534" lon="-1.346878">
        <ele>874.486534</ele>
        <time>2021-11-03T16:20:50.182Z</time>
      </trkpt>
      <trkpt lat="38.883534" lon="-1.346879">
        <ele>874.488879</ele>
        <time>2021-11-03T16:20:50.182Z</time>
      </trkpt>
      <trkpt lat="38.883533" lon="-1.346879">
        <ele>874.491892</ele>
        <time>2021-11-03T16:20:50.182Z</time>
      </trkpt>
      <trkpt lat="38.883534" lon="-1.346878">
        <ele>874.495711</ele>
        <time>2021-11-03T16:20:50.182Z</time>
      </trkpt>
      <trkpt lat="38.883533" lon="-1.346880">
        <ele>874.501286</ele>
        <time>2021-11-03T16:20:50.182Z</time>
      </trkpt>
      <trkpt lat="38.883533" lon="-1.346883">
        <ele>874.508322</ele>
        <time>2021-11-03T16:20:50.182Z</time>
      </trkpt>
      <trkpt lat="38.883532" lon="-1.346883">
        <ele>874.511335</ele>
        <time>2021-11-03T16:20:50.182Z</time>
      </trkpt>
      <trkpt lat="38.883532" lon="-1.346883">
        <ele>874.511335</ele>
        <time>2021-11-03T16:20:50.182Z</time>
      </trkpt>
      <trkpt lat="38.883531" lon="-1.346881">
        <ele>874.516910</ele>
        <time>2021-11-03T16:20:50.182Z</time>
      </trkpt>
      <trkpt lat="38.883531" lon="-1.346880">
        <ele>874.519256</ele>
        <time>2021-11-03T16:20:50.182Z</time>
      </trkpt>
      <trkpt lat="38.883532" lon="-1.346882">
        <ele>874.524831</ele>
        <time>2021-11-03T16:20:50.182Z</time>
      </trkpt>
      <trkpt lat="38.883532" lon="-1.346882">
        <ele>874.524831</ele>
        <time>2021-11-03T16:20:50.182Z</time>
      </trkpt>
      <trkpt lat="38.883532" lon="-1.346883">
        <ele>874.527176</ele>
        <time>2021-11-03T16:20:50.182Z</time>
      </trkpt>
      <trkpt lat="38.883532" lon="-1.346883">
        <ele>874.527176</ele>
        <time>2021-11-03T16:20:50.182Z</time>
      </trkpt>
      <trkpt lat="38.883532" lon="-1.346883">
        <ele>874.527176</ele>
        <time>2021-11-03T16:20:50.182Z</time>
      </trkpt>
      <trkpt lat="38.883532" lon="-1.346883">
        <ele>874.527176</ele>
        <time>2021-11-03T16:20:50.182Z</time>
      </trkpt>
      <trkpt lat="38.883531" lon="-1.346883">
        <ele>874.530189</ele>
        <time>2021-11-03T16:20:50.182Z</time>
      </trkpt>
      <trkpt lat="38.883530" lon="-1.346883">
        <ele>874.533203</ele>
        <time>2021-11-03T16:20:50.182Z</time>
      </trkpt>
      <trkpt lat="38.883530" lon="-1.346883">
        <ele>874.533203</ele>
        <time>2021-11-03T16:20:50.182Z</time>
      </trkpt>
      <trkpt lat="38.883529" lon="-1.346884">
        <ele>874.537021</ele>
        <time>2021-11-03T16:20:50.182Z</time>
      </trkpt>
      <trkpt lat="38.883528" lon="-1.346882">
        <ele>874.542596</ele>
        <time>2021-11-03T16:20:50.182Z</time>
      </trkpt>
      <trkpt lat="38.883529" lon="-1.346881">
        <ele>874.546414</ele>
        <time>2021-11-03T16:20:50.182Z</time>
      </trkpt>
      <trkpt lat="38.883530" lon="-1.346881">
        <ele>874.549427</ele>
        <time>2021-11-03T16:20:50.182Z</time>
      </trkpt>
      <trkpt lat="38.883532" lon="-1.346881">
        <ele>874.555454</ele>
        <time>2021-11-03T16:20:50.182Z</time>
      </trkpt>
      <trkpt lat="38.883533" lon="-1.346879">
        <ele>874.561029</ele>
        <time>2021-11-03T16:20:50.182Z</time>
      </trkpt>
      <trkpt lat="38.883534" lon="-1.346878">
        <ele>874.564847</ele>
        <time>2021-11-03T16:20:50.182Z</time>
      </trkpt>
      <trkpt lat="38.883533" lon="-1.346878">
        <ele>874.567860</ele>
        <time>2021-11-03T16:20:50.182Z</time>
      </trkpt>
      <trkpt lat="38.883533" lon="-1.346878">
        <ele>874.567860</ele>
        <time>2021-11-03T16:20:50.182Z</time>
      </trkpt>
      <trkpt lat="38.883533" lon="-1.346878">
        <ele>874.567860</ele>
        <time>2021-11-03T16:20:50.182Z</time>
      </trkpt>
      <trkpt lat="38.883533" lon="-1.346878">
        <ele>874.567860</ele>
        <time>2021-11-03T16:20:50.182Z</time>
      </trkpt>
      <trkpt lat="38.883533" lon="-1.346877">
        <ele>874.570206</ele>
        <time>2021-11-03T16:20:50.182Z</time>
      </trkpt>
      <trkpt lat="38.883533" lon="-1.346878">
        <ele>874.572551</ele>
        <time>2021-11-03T16:20:50.182Z</time>
      </trkpt>
      <trkpt lat="38.883534" lon="-1.346877">
        <ele>874.576369</ele>
        <time>2021-11-03T16:20:50.182Z</time>
      </trkpt>
      <trkpt lat="38.883533" lon="-1.346877">
        <ele>874.579382</ele>
        <time>2021-11-03T16:20:50.182Z</time>
      </trkpt>
      <trkpt lat="38.883533" lon="-1.346881">
        <ele>874.588764</ele>
        <time>2021-11-03T16:20:50.182Z</time>
      </trkpt>
      <trkpt lat="38.883533" lon="-1.346883">
        <ele>874.593455</ele>
        <time>2021-11-03T16:20:50.182Z</time>
      </trkpt>
      <trkpt lat="38.883534" lon="-1.346887">
        <ele>874.603309</ele>
        <time>2021-11-03T16:20:50.182Z</time>
      </trkpt>
      <trkpt lat="38.883533" lon="-1.346885">
        <ele>874.608884</ele>
        <time>2021-11-03T16:20:50.182Z</time>
      </trkpt>
      <trkpt lat="38.883531" lon="-1.346887">
        <ele>874.616520</ele>
        <time>2021-11-03T16:20:50.182Z</time>
      </trkpt>
      <trkpt lat="38.883530" lon="-1.346885">
        <ele>874.622096</ele>
        <time>2021-11-03T16:20:50.182Z</time>
      </trkpt>
      <trkpt lat="38.883530" lon="-1.346884">
        <ele>874.624441</ele>
        <time>2021-11-03T16:20:50.182Z</time>
      </trkpt>
      <trkpt lat="38.883529" lon="-1.346887">
        <ele>874.632095</ele>
        <time>2021-11-03T16:20:50.182Z</time>
      </trkpt>
      <trkpt lat="38.883527" lon="-1.346890">
        <ele>874.641359</ele>
        <time>2021-11-03T16:20:50.182Z</time>
      </trkpt>
      <trkpt lat="38.883527" lon="-1.346891">
        <ele>874.643705</ele>
        <time>2021-11-03T16:20:50.182Z</time>
      </trkpt>
      <trkpt lat="38.883527" lon="-1.346884">
        <ele>874.660123</ele>
        <time>2021-11-03T16:20:50.182Z</time>
      </trkpt>
      <trkpt lat="38.883531" lon="-1.346891">
        <ele>874.680490</ele>
        <time>2021-11-03T16:20:50.182Z</time>
      </trkpt>
      <trkpt lat="38.883537" lon="-1.346893">
        <ele>874.699167</ele>
        <time>2021-11-03T16:20:50.182Z</time>
      </trkpt>
      <trkpt lat="38.883539" lon="-1.346889">
        <ele>874.710317</ele>
        <time>2021-11-03T16:20:50.182Z</time>
      </trkpt>
      <trkpt lat="38.883541" lon="-1.346886">
        <ele>874.719581</ele>
        <time>2021-11-03T16:20:50.182Z</time>
      </trkpt>
      <trkpt lat="38.883541" lon="-1.346892">
        <ele>874.733654</ele>
        <time>2021-11-03T16:20:50.182Z</time>
      </trkpt>
      <trkpt lat="38.883540" lon="-1.346891">
        <ele>874.737472</ele>
        <time>2021-11-03T16:20:50.182Z</time>
      </trkpt>
      <trkpt lat="38.883529" lon="-1.346892">
        <ele>874.770698</ele>
        <time>2021-11-03T16:20:50.182Z</time>
      </trkpt>
      <trkpt lat="38.883518" lon="-1.346902">
        <ele>874.811301</ele>
        <time>2021-11-03T16:20:50.182Z</time>
      </trkpt>
      <trkpt lat="38.883506" lon="-1.346908">
        <ele>874.850100</ele>
        <time>2021-11-03T16:20:50.182Z</time>
      </trkpt>
      <trkpt lat="38.883438" lon="-1.346900">
        <ele>875.055845</ele>
        <time>2021-11-03T16:20:50.182Z</time>
      </trkpt>
      <trkpt lat="38.883405" lon="-1.346905">
        <ele>875.155965</ele>
        <time>2021-11-03T16:20:50.182Z</time>
      </trkpt>
      <trkpt lat="38.883242" lon="-1.346912">
        <ele>875.647367</ele>
        <time>2021-11-03T16:20:50.182Z</time>
      </trkpt>
      <trkpt lat="38.883199" lon="-1.346913">
        <ele>875.776949</ele>
        <time>2021-11-03T16:20:50.182Z</time>
      </trkpt>
      <trkpt lat="38.883069" lon="-1.346919">
        <ele>876.168899</ele>
        <time>2021-11-03T16:20:50.182Z</time>
      </trkpt>
      <trkpt lat="38.883025" lon="-1.346920">
        <ele>876.301494</ele>
        <time>2021-11-03T16:20:50.182Z</time>
      </trkpt>
      <trkpt lat="38.882981" lon="-1.346923">
        <ele>876.434255</ele>
        <time>2021-11-03T16:20:50.182Z</time>
      </trkpt>
      <trkpt lat="38.882894" lon="-1.346931">
        <ele>876.697061</ele>
        <time>2021-11-03T16:20:50.182Z</time>
      </trkpt>
      <trkpt lat="38.882809" lon="-1.346935">
        <ele>876.953342</ele>
        <time>2021-11-03T16:20:50.182Z</time>
      </trkpt>
      <trkpt lat="38.882605" lon="-1.346926">
        <ele>877.583763</ele>
        <time>2021-11-03T16:20:50.182Z</time>
      </trkpt>
      <trkpt lat="38.882565" lon="-1.346926">
        <ele>877.725828</ele>
        <time>2021-11-03T16:20:50.182Z</time>
      </trkpt>
      <trkpt lat="38.882278" lon="-1.346938">
        <ele>878.745684</ele>
        <time>2021-11-03T16:20:50.182Z</time>
      </trkpt>
      <trkpt lat="38.882238" lon="-1.346942">
        <ele>878.888179</ele>
        <time>2021-11-03T16:20:50.182Z</time>
      </trkpt>
      <trkpt lat="38.882197" lon="-1.346946">
        <ele>879.034215</ele>
        <time>2021-11-03T16:20:50.182Z</time>
      </trkpt>
      <trkpt lat="38.882070" lon="-1.346968">
        <ele>879.489354</ele>
        <time>2021-11-03T16:20:50.182Z</time>
      </trkpt>
      <trkpt lat="38.882029" lon="-1.346977">
        <ele>879.637081</ele>
        <time>2021-11-03T16:20:50.182Z</time>
      </trkpt>
      <trkpt lat="38.881948" lon="-1.346994">
        <ele>879.928577</ele>
        <time>2021-11-03T16:20:50.182Z</time>
      </trkpt>
      <trkpt lat="38.881908" lon="-1.347004">
        <ele>880.073307</ele>
        <time>2021-11-03T16:20:50.182Z</time>
      </trkpt>
      <trkpt lat="38.881787" lon="-1.347040">
        <ele>880.514429</ele>
        <time>2021-11-03T16:20:50.182Z</time>
      </trkpt>
      <trkpt lat="38.881669" lon="-1.347087">
        <ele>880.953203</ele>
        <time>2021-11-03T16:20:50.182Z</time>
      </trkpt>
      <trkpt lat="38.881629" lon="-1.347098">
        <ele>881.098487</ele>
        <time>2021-11-03T16:20:50.182Z</time>
      </trkpt>
      <trkpt lat="38.881472" lon="-1.347147">
        <ele>881.672313</ele>
        <time>2021-11-03T16:20:50.182Z</time>
      </trkpt>
      <trkpt lat="38.881351" lon="-1.347191">
        <ele>882.118945</ele>
        <time>2021-11-03T16:20:50.182Z</time>
      </trkpt>
      <trkpt lat="38.881271" lon="-1.347217">
        <ele>882.412027</ele>
        <time>2021-11-03T16:20:50.182Z</time>
      </trkpt>
      <trkpt lat="38.881152" lon="-1.347255">
        <ele>882.847533</ele>
        <time>2021-11-03T16:20:50.182Z</time>
      </trkpt>
      <trkpt lat="38.880951" lon="-1.347321">
        <ele>883.584362</ele>
        <time>2021-11-03T16:20:50.182Z</time>
      </trkpt>
      <trkpt lat="38.880870" lon="-1.347348">
        <ele>883.869862</ele>
        <time>2021-11-03T16:20:50.182Z</time>
      </trkpt>
      <trkpt lat="38.880709" lon="-1.347409">
        <ele>883.844453</ele>
        <time>2021-11-03T16:20:50.182Z</time>
      </trkpt>
      <trkpt lat="38.880595" lon="-1.347491">
        <ele>883.824676</ele>
        <time>2021-11-03T16:20:50.182Z</time>
      </trkpt>
      <trkpt lat="38.880446" lon="-1.347703">
        <ele>883.791020</ele>
        <time>2021-11-03T16:20:50.182Z</time>
      </trkpt>
      <trkpt lat="38.880422" lon="-1.347749">
        <ele>883.784495</ele>
        <time>2021-11-03T16:20:50.182Z</time>
      </trkpt>
      <trkpt lat="38.880347" lon="-1.347893">
        <ele>883.764079</ele>
        <time>2021-11-03T16:20:50.182Z</time>
      </trkpt>
      <trkpt lat="38.880324" lon="-1.347943">
        <ele>883.757235</ele>
        <time>2021-11-03T16:20:50.182Z</time>
      </trkpt>
      <trkpt lat="38.880196" lon="-1.348112">
        <ele>883.729451</ele>
        <time>2021-11-03T16:20:50.182Z</time>
      </trkpt>
      <trkpt lat="38.880123" lon="-1.348170">
        <ele>883.716458</ele>
        <time>2021-11-03T16:20:50.182Z</time>
      </trkpt>
      <trkpt lat="38.879955" lon="-1.348253">
        <ele>883.689212</ele>
        <time>2021-11-03T16:20:50.182Z</time>
      </trkpt>
      <trkpt lat="38.879819" lon="-1.348304">
        <ele>883.667766</ele>
        <time>2021-11-03T16:20:50.182Z</time>
      </trkpt>
      <trkpt lat="38.879644" lon="-1.348382">
        <ele>883.639727</ele>
        <time>2021-11-03T16:20:50.182Z</time>
      </trkpt>
      <trkpt lat="38.879457" lon="-1.348438">
        <ele>883.610662</ele>
        <time>2021-11-03T16:20:50.182Z</time>
      </trkpt>
      <trkpt lat="38.879119" lon="-1.348560">
        <ele>882.502256</ele>
        <time>2021-11-03T16:20:50.182Z</time>
      </trkpt>
      <trkpt lat="38.879076" lon="-1.348604">
        <ele>882.277441</ele>
        <time>2021-11-03T16:20:50.182Z</time>
      </trkpt>
      <trkpt lat="38.879040" lon="-1.348665">
        <ele>882.033753</ele>
        <time>2021-11-03T16:20:50.182Z</time>
      </trkpt>
      <trkpt lat="38.879015" lon="-1.348740">
        <ele>881.774024</ele>
        <time>2021-11-03T16:20:50.182Z</time>
      </trkpt>
      <trkpt lat="38.879005" lon="-1.348824">
        <ele>881.503502</ele>
        <time>2021-11-03T16:20:50.182Z</time>
      </trkpt>
      <trkpt lat="38.879011" lon="-1.348909">
        <ele>881.231795</ele>
        <time>2021-11-03T16:20:50.182Z</time>
      </trkpt>
      <trkpt lat="38.879022" lon="-1.348987">
        <ele>880.979441</ele>
        <time>2021-11-03T16:20:50.182Z</time>
      </trkpt>
      <trkpt lat="38.879032" lon="-1.349052">
        <ele>880.768512</ele>
        <time>2021-11-03T16:20:50.182Z</time>
      </trkpt>
      <trkpt lat="38.879056" lon="-1.349160">
        <ele>880.410961</ele>
        <time>2021-11-03T16:20:50.182Z</time>
      </trkpt>
      <trkpt lat="38.879067" lon="-1.349217">
        <ele>880.224010</ele>
        <time>2021-11-03T16:20:50.182Z</time>
      </trkpt>
      <trkpt lat="38.879083" lon="-1.349345">
        <ele>879.811303</ele>
        <time>2021-11-03T16:20:50.182Z</time>
      </trkpt>
      <trkpt lat="38.879094" lon="-1.349410">
        <ele>879.599544</ele>
        <time>2021-11-03T16:20:50.182Z</time>
      </trkpt>
      <trkpt lat="38.879115" lon="-1.349539">
        <ele>879.179991</ele>
        <time>2021-11-03T16:20:50.182Z</time>
      </trkpt>
      <trkpt lat="38.879135" lon="-1.349798">
        <ele>878.351421</ele>
        <time>2021-11-03T16:20:50.182Z</time>
      </trkpt>
      <trkpt lat="38.879132" lon="-1.349934">
        <ele>877.918294</ele>
        <time>2021-11-03T16:20:50.182Z</time>
      </trkpt>
      <trkpt lat="38.879094" lon="-1.350154">
        <ele>877.200894</ele>
        <time>2021-11-03T16:20:50.182Z</time>
      </trkpt>
      <trkpt lat="38.878931" lon="-1.350588">
        <ele>875.887081</ele>
        <time>2021-11-03T16:20:50.182Z</time>
      </trkpt>
      <trkpt lat="38.878783" lon="-1.350861">
        <ele>875.233024</ele>
        <time>2021-11-03T16:20:50.182Z</time>
      </trkpt>
      <trkpt lat="38.878702" lon="-1.350997">
        <ele>874.896361</ele>
        <time>2021-11-03T16:20:50.182Z</time>
      </trkpt>
      <trkpt lat="38.878524" lon="-1.351250">
        <ele>874.225908</ele>
        <time>2021-11-03T16:20:50.182Z</time>
      </trkpt>
      <trkpt lat="38.878340" lon="-1.351488">
        <ele>873.566443</ele>
        <time>2021-11-03T16:20:50.182Z</time>
      </trkpt>
      <trkpt lat="38.878086" lon="-1.351729">
        <ele>872.768942</ele>
        <time>2021-11-03T16:20:50.182Z</time>
      </trkpt>
      <trkpt lat="38.878032" lon="-1.351774">
        <ele>872.606380</ele>
        <time>2021-11-03T16:20:50.182Z</time>
      </trkpt>
      <trkpt lat="38.877924" lon="-1.351870">
        <ele>872.274687</ele>
        <time>2021-11-03T16:20:50.182Z</time>
      </trkpt>
      <trkpt lat="38.877717" lon="-1.352081">
        <ele>871.667342</ele>
        <time>2021-11-03T16:20:50.182Z</time>
      </trkpt>
      <trkpt lat="38.877664" lon="-1.352131">
        <ele>871.608605</ele>
        <time>2021-11-03T16:20:50.182Z</time>
      </trkpt>
      <trkpt lat="38.877397" lon="-1.352384">
        <ele>871.312243</ele>
        <time>2021-11-03T16:20:50.182Z</time>
      </trkpt>
      <trkpt lat="38.877180" lon="-1.352597">
        <ele>871.068299</ele>
        <time>2021-11-03T16:20:50.182Z</time>
      </trkpt>
      <trkpt lat="38.877127" lon="-1.352651">
        <ele>871.007873</ele>
        <time>2021-11-03T16:20:50.182Z</time>
      </trkpt>
      <trkpt lat="38.876699" lon="-1.353067">
        <ele>870.528459</ele>
        <time>2021-11-03T16:20:50.182Z</time>
      </trkpt>
      <trkpt lat="38.876593" lon="-1.353167">
        <ele>870.410984</ele>
        <time>2021-11-03T16:20:50.182Z</time>
      </trkpt>
      <trkpt lat="38.876489" lon="-1.353258">
        <ele>870.298582</ele>
        <time>2021-11-03T16:20:50.182Z</time>
      </trkpt>
      <trkpt lat="38.876386" lon="-1.353334">
        <ele>870.192480</ele>
        <time>2021-11-03T16:20:50.182Z</time>
      </trkpt>
      <trkpt lat="38.876335" lon="-1.353364">
        <ele>870.142376</ele>
        <time>2021-11-03T16:20:50.182Z</time>
      </trkpt>
      <trkpt lat="38.876234" lon="-1.353383">
        <ele>870.089370</ele>
        <time>2021-11-03T16:20:50.182Z</time>
      </trkpt>
      <trkpt lat="38.876188" lon="-1.353368">
        <ele>870.085154</ele>
        <time>2021-11-03T16:20:50.182Z</time>
      </trkpt>
      <trkpt lat="38.876145" lon="-1.353336">
        <ele>870.080739</ele>
        <time>2021-11-03T16:20:50.182Z</time>
      </trkpt>
      <trkpt lat="38.876025" lon="-1.353186">
        <ele>870.065864</ele>
        <time>2021-11-03T16:20:50.182Z</time>
      </trkpt>
      <trkpt lat="38.875934" lon="-1.353081">
        <ele>870.054998</ele>
        <time>2021-11-03T16:20:50.182Z</time>
      </trkpt>
      <trkpt lat="38.875883" lon="-1.353039">
        <ele>870.049616</ele>
        <time>2021-11-03T16:20:50.182Z</time>
      </trkpt>
      <trkpt lat="38.875830" lon="-1.353009">
        <ele>870.044471</ele>
        <time>2021-11-03T16:20:50.182Z</time>
      </trkpt>
      <trkpt lat="38.875564" lon="-1.352968">
        <ele>870.020671</ele>
        <time>2021-11-03T16:20:50.182Z</time>
      </trkpt>
      <trkpt lat="38.875406" lon="-1.352951">
        <ele>870.006586</ele>
        <time>2021-11-03T16:20:50.182Z</time>
      </trkpt>
      <trkpt lat="38.875349" lon="-1.352946">
        <ele>870.001511</ele>
        <time>2021-11-03T16:20:50.182Z</time>
      </trkpt>
      <trkpt lat="38.875176" lon="-1.352934">
        <ele>869.986120</ele>
        <time>2021-11-03T16:20:50.182Z</time>
      </trkpt>
      <trkpt lat="38.875061" lon="-1.352938">
        <ele>869.975900</ele>
        <time>2021-11-03T16:20:50.182Z</time>
      </trkpt>
      <trkpt lat="38.874947" lon="-1.352954">
        <ele>869.965713</ele>
        <time>2021-11-03T16:20:50.182Z</time>
      </trkpt>
      <trkpt lat="38.874840" lon="-1.352918">
        <ele>869.955887</ele>
        <time>2021-11-03T16:20:50.182Z</time>
      </trkpt>
      <trkpt lat="38.874675" lon="-1.352859">
        <ele>869.940672</ele>
        <time>2021-11-03T16:20:50.182Z</time>
      </trkpt>
      <trkpt lat="38.874585" lon="-1.352842">
        <ele>869.956212</ele>
        <time>2021-11-03T16:20:50.182Z</time>
      </trkpt>
      <trkpt lat="38.874490" lon="-1.352827">
        <ele>870.113367</ele>
        <time>2021-11-03T16:20:50.182Z</time>
      </trkpt>
      <trkpt lat="38.874237" lon="-1.352782">
        <ele>870.532733</ele>
        <time>2021-11-03T16:20:50.182Z</time>
      </trkpt>
      <trkpt lat="38.874184" lon="-1.352770">
        <ele>870.621096</ele>
        <time>2021-11-03T16:20:50.182Z</time>
      </trkpt>
      <trkpt lat="38.874130" lon="-1.352758">
        <ele>870.711075</ele>
        <time>2021-11-03T16:20:50.182Z</time>
      </trkpt>
      <trkpt lat="38.873615" lon="-1.352605">
        <ele>871.578979</ele>
        <time>2021-11-03T16:20:50.182Z</time>
      </trkpt>
      <trkpt lat="38.873517" lon="-1.352550">
        <ele>871.754575</ele>
        <time>2021-11-03T16:20:50.182Z</time>
      </trkpt>
      <trkpt lat="38.873365" lon="-1.352458">
        <ele>872.030465</ele>
        <time>2021-11-03T16:20:50.182Z</time>
      </trkpt>
      <trkpt lat="38.873216" lon="-1.352365">
        <ele>872.302463</ele>
        <time>2021-11-03T16:20:50.182Z</time>
      </trkpt>
      <trkpt lat="38.872983" lon="-1.352196">
        <ele>872.741808</ele>
        <time>2021-11-03T16:20:50.182Z</time>
      </trkpt>
      <trkpt lat="38.872840" lon="-1.352081">
        <ele>872.973722</ele>
        <time>2021-11-03T16:20:50.182Z</time>
      </trkpt>
      <trkpt lat="38.872697" lon="-1.351979">
        <ele>873.150399</ele>
        <time>2021-11-03T16:20:50.182Z</time>
      </trkpt>
      <trkpt lat="38.872477" lon="-1.351820">
        <ele>873.423063</ele>
        <time>2021-11-03T16:20:50.182Z</time>
      </trkpt>
      <trkpt lat="38.872334" lon="-1.351739">
        <ele>873.591875</ele>
        <time>2021-11-03T16:20:50.182Z</time>
      </trkpt>
      <trkpt lat="38.872239" lon="-1.351693">
        <ele>873.701536</ele>
        <time>2021-11-03T16:20:50.182Z</time>
      </trkpt>
      <trkpt lat="38.872143" lon="-1.351653">
        <ele>873.810549</ele>
        <time>2021-11-03T16:20:50.182Z</time>
      </trkpt>
      <trkpt lat="38.872097" lon="-1.351637">
        <ele>873.862024</ele>
        <time>2021-11-03T16:20:50.182Z</time>
      </trkpt>
      <trkpt lat="38.872005" lon="-1.351608">
        <ele>873.964345</ele>
        <time>2021-11-03T16:20:50.182Z</time>
      </trkpt>
      <trkpt lat="38.871914" lon="-1.351585">
        <ele>874.064522</ele>
        <time>2021-11-03T16:20:50.182Z</time>
      </trkpt>
      <trkpt lat="38.871777" lon="-1.351573">
        <ele>874.212844</ele>
        <time>2021-11-03T16:20:50.182Z</time>
      </trkpt>
      <trkpt lat="38.871536" lon="-1.351593">
        <ele>874.473699</ele>
        <time>2021-11-03T16:20:50.182Z</time>
      </trkpt>
      <trkpt lat="38.871479" lon="-1.351624">
        <ele>874.540558</ele>
        <time>2021-11-03T16:20:50.182Z</time>
      </trkpt>
      <trkpt lat="38.871407" lon="-1.351721">
        <ele>874.653262</ele>
        <time>2021-11-03T16:20:50.182Z</time>
      </trkpt>
      <trkpt lat="38.871276" lon="-1.351903">
        <ele>874.746645</ele>
        <time>2021-11-03T16:20:50.182Z</time>
      </trkpt>
      <trkpt lat="38.871239" lon="-1.351964">
        <ele>874.577290</ele>
        <time>2021-11-03T16:20:50.182Z</time>
      </trkpt>
      <trkpt lat="38.871202" lon="-1.352032">
        <ele>874.395598</ele>
        <time>2021-11-03T16:20:50.182Z</time>
      </trkpt>
      <trkpt lat="38.871165" lon="-1.352103">
        <ele>874.208482</ele>
        <time>2021-11-03T16:20:50.182Z</time>
      </trkpt>
      <trkpt lat="38.871126" lon="-1.352177">
        <ele>874.012774</ele>
        <time>2021-11-03T16:20:50.182Z</time>
      </trkpt>
      <trkpt lat="38.871046" lon="-1.352330">
        <ele>873.609133</ele>
        <time>2021-11-03T16:20:50.182Z</time>
      </trkpt>
      <trkpt lat="38.870966" lon="-1.352490">
        <ele>873.192678</ele>
        <time>2021-11-03T16:20:50.182Z</time>
      </trkpt>
      <trkpt lat="38.870847" lon="-1.352731">
        <ele>872.567660</ele>
        <time>2021-11-03T16:20:50.182Z</time>
      </trkpt>
      <trkpt lat="38.870730" lon="-1.352963">
        <ele>871.962273</ele>
        <time>2021-11-03T16:20:50.182Z</time>
      </trkpt>
      <trkpt lat="38.870692" lon="-1.353038">
        <ele>871.766295</ele>
        <time>2021-11-03T16:20:50.182Z</time>
      </trkpt>
      <trkpt lat="38.870655" lon="-1.353112">
        <ele>871.573684</ele>
        <time>2021-11-03T16:20:50.182Z</time>
      </trkpt>
      <trkpt lat="38.870618" lon="-1.353185">
        <ele>871.382912</ele>
        <time>2021-11-03T16:20:50.182Z</time>
      </trkpt>
      <trkpt lat="38.870581" lon="-1.353258">
        <ele>871.192139</ele>
        <time>2021-11-03T16:20:50.182Z</time>
      </trkpt>
      <trkpt lat="38.870545" lon="-1.353331">
        <ele>871.002887</ele>
        <time>2021-11-03T16:20:50.182Z</time>
      </trkpt>
      <trkpt lat="38.870296" lon="-1.353830">
        <ele>869.794739</ele>
        <time>2021-11-03T16:20:50.182Z</time>
      </trkpt>
      <trkpt lat="38.870262" lon="-1.353897">
        <ele>869.860606</ele>
        <time>2021-11-03T16:20:50.182Z</time>
      </trkpt>
      <trkpt lat="38.869966" lon="-1.354481">
        <ele>870.434525</ele>
        <time>2021-11-03T16:20:50.182Z</time>
      </trkpt>
      <trkpt lat="38.869932" lon="-1.354542">
        <ele>870.496311</ele>
        <time>2021-11-03T16:20:50.182Z</time>
      </trkpt>
      <trkpt lat="38.869896" lon="-1.354600">
        <ele>870.557402</ele>
        <time>2021-11-03T16:20:50.182Z</time>
      </trkpt>
      <trkpt lat="38.869862" lon="-1.354660">
        <ele>870.618520</ele>
        <time>2021-11-03T16:20:50.182Z</time>
      </trkpt>
      <trkpt lat="38.869744" lon="-1.354911">
        <ele>870.860006</ele>
        <time>2021-11-03T16:20:50.182Z</time>
      </trkpt>
      <trkpt lat="38.869533" lon="-1.355335">
        <ele>871.274450</ele>
        <time>2021-11-03T16:20:50.182Z</time>
      </trkpt>
      <trkpt lat="38.869448" lon="-1.355510">
        <ele>871.444327</ele>
        <time>2021-11-03T16:20:50.182Z</time>
      </trkpt>
      <trkpt lat="38.869340" lon="-1.355732">
        <ele>871.659924</ele>
        <time>2021-11-03T16:20:50.182Z</time>
      </trkpt>
      <trkpt lat="38.869197" lon="-1.356017">
        <ele>872.182494</ele>
        <time>2021-11-03T16:20:50.182Z</time>
      </trkpt>
      <trkpt lat="38.869141" lon="-1.356131">
        <ele>872.394928</ele>
        <time>2021-11-03T16:20:50.182Z</time>
      </trkpt>
      <trkpt lat="38.869038" lon="-1.356351">
        <ele>872.799505</ele>
        <time>2021-11-03T16:20:50.182Z</time>
      </trkpt>
      <trkpt lat="38.868957" lon="-1.356509">
        <ele>873.097645</ele>
        <time>2021-11-03T16:20:50.182Z</time>
      </trkpt>
      <trkpt lat="38.868927" lon="-1.356558">
        <ele>873.195886</ele>
        <time>2021-11-03T16:20:50.182Z</time>
      </trkpt>
      <trkpt lat="38.868845" lon="-1.356712">
        <ele>873.489919</ele>
        <time>2021-11-03T16:20:50.182Z</time>
      </trkpt>
      <trkpt lat="38.868819" lon="-1.356764">
        <ele>873.587315</ele>
        <time>2021-11-03T16:20:50.182Z</time>
      </trkpt>
      <trkpt lat="38.868744" lon="-1.356921">
        <ele>873.877609</ele>
        <time>2021-11-03T16:20:50.182Z</time>
      </trkpt>
      <trkpt lat="38.868614" lon="-1.357177">
        <ele>874.359296</ele>
        <time>2021-11-03T16:20:50.182Z</time>
      </trkpt>
      <trkpt lat="38.868562" lon="-1.357280">
        <ele>874.552764</ele>
        <time>2021-11-03T16:20:50.182Z</time>
      </trkpt>
      <trkpt lat="38.868510" lon="-1.357385">
        <ele>874.748885</ele>
        <time>2021-11-03T16:20:50.182Z</time>
      </trkpt>
      <trkpt lat="38.868275" lon="-1.357850">
        <ele>875.362209</ele>
        <time>2021-11-03T16:20:50.182Z</time>
      </trkpt>
      <trkpt lat="38.868249" lon="-1.357900">
        <ele>875.377113</ele>
        <time>2021-11-03T16:20:50.182Z</time>
      </trkpt>
      <trkpt lat="38.868223" lon="-1.357950">
        <ele>875.392018</ele>
        <time>2021-11-03T16:20:50.182Z</time>
      </trkpt>
      <trkpt lat="38.867962" lon="-1.358455">
        <ele>875.542271</ele>
        <time>2021-11-03T16:20:50.182Z</time>
      </trkpt>
      <trkpt lat="38.867748" lon="-1.358832">
        <ele>875.657925</ele>
        <time>2021-11-03T16:20:50.182Z</time>
      </trkpt>
      <trkpt lat="38.867643" lon="-1.358991">
        <ele>875.709607</ele>
        <time>2021-11-03T16:20:50.182Z</time>
      </trkpt>
      <trkpt lat="38.867269" lon="-1.359506">
        <ele>875.884183</ele>
        <time>2021-11-03T16:20:50.182Z</time>
      </trkpt>
      <trkpt lat="38.866853" lon="-1.359932">
        <ele>875.167251</ele>
        <time>2021-11-03T16:20:50.182Z</time>
      </trkpt>
      <trkpt lat="38.866698" lon="-1.360077">
        <ele>874.904883</ele>
        <time>2021-11-03T16:20:50.182Z</time>
      </trkpt>
      <trkpt lat="38.866481" lon="-1.360271">
        <ele>874.543130</ele>
        <time>2021-11-03T16:20:50.182Z</time>
      </trkpt>
      <trkpt lat="38.866320" lon="-1.360424">
        <ele>874.269100</ele>
        <time>2021-11-03T16:20:50.182Z</time>
      </trkpt>
      <trkpt lat="38.865998" lon="-1.360718">
        <ele>873.728546</ele>
        <time>2021-11-03T16:20:50.182Z</time>
      </trkpt>
      <trkpt lat="38.865883" lon="-1.360796">
        <ele>873.550606</ele>
        <time>2021-11-03T16:20:50.182Z</time>
      </trkpt>
      <trkpt lat="38.865475" lon="-1.360999">
        <ele>873.735278</ele>
        <time>2021-11-03T16:20:50.182Z</time>
      </trkpt>
      <trkpt lat="38.865254" lon="-1.361085">
        <ele>873.942168</ele>
        <time>2021-11-03T16:20:50.182Z</time>
      </trkpt>
      <trkpt lat="38.865094" lon="-1.361146">
        <ele>874.091700</ele>
        <time>2021-11-03T16:20:50.182Z</time>
      </trkpt>
      <trkpt lat="38.864885" lon="-1.361230">
        <ele>874.287904</ele>
        <time>2021-11-03T16:20:50.182Z</time>
      </trkpt>
      <trkpt lat="38.864783" lon="-1.361271">
        <ele>874.383661</ele>
        <time>2021-11-03T16:20:50.182Z</time>
      </trkpt>
      <trkpt lat="38.864734" lon="-1.361291">
        <ele>874.429725</ele>
        <time>2021-11-03T16:20:50.182Z</time>
      </trkpt>
      <trkpt lat="38.864585" lon="-1.361350">
        <ele>874.569420</ele>
        <time>2021-11-03T16:20:50.182Z</time>
      </trkpt>
      <trkpt lat="38.864486" lon="-1.361386">
        <ele>874.661604</ele>
        <time>2021-11-03T16:20:50.182Z</time>
      </trkpt>
      <trkpt lat="38.863949" lon="-1.361594">
        <ele>875.131273</ele>
        <time>2021-11-03T16:20:50.182Z</time>
      </trkpt>
      <trkpt lat="38.863512" lon="-1.361761">
        <ele>875.434386</ele>
        <time>2021-11-03T16:20:50.182Z</time>
      </trkpt>
      <trkpt lat="38.863082" lon="-1.361932">
        <ele>875.733648</ele>
        <time>2021-11-03T16:20:50.182Z</time>
      </trkpt>
      <trkpt lat="38.862988" lon="-1.361970">
        <ele>875.799163</ele>
        <time>2021-11-03T16:20:50.182Z</time>
      </trkpt>
      <trkpt lat="38.862844" lon="-1.362025">
        <ele>875.899040</ele>
        <time>2021-11-03T16:20:50.182Z</time>
      </trkpt>
      <trkpt lat="38.862797" lon="-1.362045">
        <ele>875.931957</ele>
        <time>2021-11-03T16:20:50.182Z</time>
      </trkpt>
      <trkpt lat="38.862652" lon="-1.362105">
        <ele>876.033236</ele>
        <time>2021-11-03T16:20:50.182Z</time>
      </trkpt>
      <trkpt lat="38.862507" lon="-1.362162">
        <ele>876.134049</ele>
        <time>2021-11-03T16:20:50.182Z</time>
      </trkpt>
      <trkpt lat="38.862459" lon="-1.362180">
        <ele>876.167292</ele>
        <time>2021-11-03T16:20:50.182Z</time>
      </trkpt>
      <trkpt lat="38.862178" lon="-1.362291">
        <ele>876.411488</ele>
        <time>2021-11-03T16:20:50.182Z</time>
      </trkpt>
      <trkpt lat="38.862083" lon="-1.362326">
        <ele>876.501792</ele>
        <time>2021-11-03T16:20:50.182Z</time>
      </trkpt>
      <trkpt lat="38.861989" lon="-1.362361">
        <ele>876.591217</ele>
        <time>2021-11-03T16:20:50.182Z</time>
      </trkpt>
      <trkpt lat="38.861707" lon="-1.362444">
        <ele>876.855563</ele>
        <time>2021-11-03T16:20:50.182Z</time>
      </trkpt>
      <trkpt lat="38.861615" lon="-1.362489">
        <ele>876.945515</ele>
        <time>2021-11-03T16:20:50.182Z</time>
      </trkpt>
      <trkpt lat="38.861478" lon="-1.362552">
        <ele>877.078476</ele>
        <time>2021-11-03T16:20:50.182Z</time>
      </trkpt>
      <trkpt lat="38.861387" lon="-1.362596">
        <ele>877.167321</ele>
        <time>2021-11-03T16:20:50.182Z</time>
      </trkpt>
      <trkpt lat="38.861063" lon="-1.362737">
        <ele>877.479897</ele>
        <time>2021-11-03T16:20:50.182Z</time>
      </trkpt>
      <trkpt lat="38.860786" lon="-1.362837">
        <ele>877.742804</ele>
        <time>2021-11-03T16:20:50.182Z</time>
      </trkpt>
      <trkpt lat="38.860693" lon="-1.362875">
        <ele>877.831977</ele>
        <time>2021-11-03T16:20:50.182Z</time>
      </trkpt>
      <trkpt lat="38.860648" lon="-1.362897">
        <ele>877.875972</ele>
        <time>2021-11-03T16:20:50.182Z</time>
      </trkpt>
      <trkpt lat="38.860558" lon="-1.362938">
        <ele>877.905496</ele>
        <time>2021-11-03T16:20:50.182Z</time>
      </trkpt>
      <trkpt lat="38.860513" lon="-1.362958">
        <ele>877.920218</ele>
        <time>2021-11-03T16:20:50.182Z</time>
      </trkpt>
      <trkpt lat="38.860467" lon="-1.362977">
        <ele>877.935157</ele>
        <time>2021-11-03T16:20:50.182Z</time>
      </trkpt>
      <trkpt lat="38.860421" lon="-1.362995">
        <ele>877.950024</ele>
        <time>2021-11-03T16:20:50.182Z</time>
      </trkpt>
      <trkpt lat="38.860329" lon="-1.363033">
        <ele>877.979902</ele>
        <time>2021-11-03T16:20:50.182Z</time>
      </trkpt>
      <trkpt lat="38.860281" lon="-1.363052">
        <ele>877.995430</ele>
        <time>2021-11-03T16:20:50.182Z</time>
      </trkpt>
      <trkpt lat="38.860187" lon="-1.363090">
        <ele>878.025897</ele>
        <time>2021-11-03T16:20:50.182Z</time>
      </trkpt>
      <trkpt lat="38.860140" lon="-1.363108">
        <ele>878.041060</ele>
        <time>2021-11-03T16:20:50.182Z</time>
      </trkpt>
      <trkpt lat="38.859661" lon="-1.363289">
        <ele>878.195426</ele>
        <time>2021-11-03T16:20:50.182Z</time>
      </trkpt>
      <trkpt lat="38.859224" lon="-1.363476">
        <ele>878.337833</ele>
        <time>2021-11-03T16:20:50.182Z</time>
      </trkpt>
      <trkpt lat="38.859174" lon="-1.363491">
        <ele>878.353707</ele>
        <time>2021-11-03T16:20:50.182Z</time>
      </trkpt>
      <trkpt lat="38.859124" lon="-1.363509">
        <ele>878.369761</ele>
        <time>2021-11-03T16:20:50.182Z</time>
      </trkpt>
      <trkpt lat="38.858881" lon="-1.363616">
        <ele>878.481307</ele>
        <time>2021-11-03T16:20:50.182Z</time>
      </trkpt>
      <trkpt lat="38.858500" lon="-1.363786">
        <ele>878.839784</ele>
        <time>2021-11-03T16:20:50.182Z</time>
      </trkpt>
      <trkpt lat="38.857979" lon="-1.364005">
        <ele>879.327006</ele>
        <time>2021-11-03T16:20:50.182Z</time>
      </trkpt>
      <trkpt lat="38.857931" lon="-1.364024">
        <ele>879.371648</ele>
        <time>2021-11-03T16:20:50.182Z</time>
      </trkpt>
      <trkpt lat="38.857647" lon="-1.364133">
        <ele>879.635089</ele>
        <time>2021-11-03T16:20:50.182Z</time>
      </trkpt>
      <trkpt lat="38.857558" lon="-1.364165">
        <ele>879.717231</ele>
        <time>2021-11-03T16:20:50.182Z</time>
      </trkpt>
      <trkpt lat="38.857372" lon="-1.364223">
        <ele>879.887346</ele>
        <time>2021-11-03T16:20:50.182Z</time>
      </trkpt>
      <trkpt lat="38.857283" lon="-1.364267">
        <ele>879.972105</ele>
        <time>2021-11-03T16:20:50.182Z</time>
      </trkpt>
      <trkpt lat="38.856846" lon="-1.364451">
        <ele>880.030242</ele>
        <time>2021-11-03T16:20:50.182Z</time>
      </trkpt>
      <trkpt lat="38.856615" lon="-1.364559">
        <ele>880.030007</ele>
        <time>2021-11-03T16:20:50.182Z</time>
      </trkpt>
      <trkpt lat="38.856470" lon="-1.364610">
        <ele>880.029864</ele>
        <time>2021-11-03T16:20:50.182Z</time>
      </trkpt>
      <trkpt lat="38.856181" lon="-1.364726">
        <ele>880.029575</ele>
        <time>2021-11-03T16:20:50.182Z</time>
      </trkpt>
      <trkpt lat="38.856040" lon="-1.364787">
        <ele>880.029433</ele>
        <time>2021-11-03T16:20:50.182Z</time>
      </trkpt>
      <trkpt lat="38.855946" lon="-1.364833">
        <ele>880.029337</ele>
        <time>2021-11-03T16:20:50.182Z</time>
      </trkpt>
      <trkpt lat="38.855753" lon="-1.364925">
        <ele>880.029141</ele>
        <time>2021-11-03T16:20:50.182Z</time>
      </trkpt>
      <trkpt lat="38.855352" lon="-1.365083">
        <ele>879.877249</ele>
        <time>2021-11-03T16:20:50.182Z</time>
      </trkpt>
      <trkpt lat="38.855299" lon="-1.365106">
        <ele>879.827068</ele>
        <time>2021-11-03T16:20:50.182Z</time>
      </trkpt>
      <trkpt lat="38.855194" lon="-1.365153">
        <ele>879.727330</ele>
        <time>2021-11-03T16:20:50.182Z</time>
      </trkpt>
      <trkpt lat="38.855035" lon="-1.365222">
        <ele>879.576789</ele>
        <time>2021-11-03T16:20:50.182Z</time>
      </trkpt>
      <trkpt lat="38.854760" lon="-1.365341">
        <ele>879.316495</ele>
        <time>2021-11-03T16:20:50.182Z</time>
      </trkpt>
      <trkpt lat="38.854372" lon="-1.365513">
        <ele>878.948319</ele>
        <time>2021-11-03T16:20:50.182Z</time>
      </trkpt>
      <trkpt lat="38.854039" lon="-1.365659">
        <ele>878.632700</ele>
        <time>2021-11-03T16:20:50.182Z</time>
      </trkpt>
      <trkpt lat="38.853486" lon="-1.365906">
        <ele>878.274450</ele>
        <time>2021-11-03T16:20:50.182Z</time>
      </trkpt>
      <trkpt lat="38.853428" lon="-1.365932">
        <ele>878.249205</ele>
        <time>2021-11-03T16:20:50.182Z</time>
      </trkpt>
      <trkpt lat="38.853197" lon="-1.366029">
        <ele>878.149332</ele>
        <time>2021-11-03T16:20:50.182Z</time>
      </trkpt>
      <trkpt lat="38.853084" lon="-1.366080">
        <ele>878.100111</ele>
        <time>2021-11-03T16:20:50.182Z</time>
      </trkpt>
      <trkpt lat="38.852913" lon="-1.366155">
        <ele>878.025854</ele>
        <time>2021-11-03T16:20:50.182Z</time>
      </trkpt>
      <trkpt lat="38.852800" lon="-1.366204">
        <ele>877.976842</ele>
        <time>2021-11-03T16:20:50.182Z</time>
      </trkpt>
      <trkpt lat="38.852688" lon="-1.366252">
        <ele>877.928321</ele>
        <time>2021-11-03T16:20:50.182Z</time>
      </trkpt>
      <trkpt lat="38.852575" lon="-1.366301">
        <ele>877.879308</ele>
        <time>2021-11-03T16:20:50.182Z</time>
      </trkpt>
      <trkpt lat="38.852465" lon="-1.366352">
        <ele>877.831248</ele>
        <time>2021-11-03T16:20:50.182Z</time>
      </trkpt>
      <trkpt lat="38.852303" lon="-1.366422">
        <ele>877.761008</ele>
        <time>2021-11-03T16:20:50.182Z</time>
      </trkpt>
      <trkpt lat="38.851744" lon="-1.366663">
        <ele>877.983518</ele>
        <time>2021-11-03T16:20:50.182Z</time>
      </trkpt>
      <trkpt lat="38.851207" lon="-1.366898">
        <ele>878.437307</ele>
        <time>2021-11-03T16:20:50.182Z</time>
      </trkpt>
      <trkpt lat="38.850656" lon="-1.367136">
        <ele>878.902302</ele>
        <time>2021-11-03T16:20:50.182Z</time>
      </trkpt>
      <trkpt lat="38.850546" lon="-1.367185">
        <ele>878.995432</ele>
        <time>2021-11-03T16:20:50.182Z</time>
      </trkpt>
      <trkpt lat="38.850436" lon="-1.367233">
        <ele>879.088359</ele>
        <time>2021-11-03T16:20:50.182Z</time>
      </trkpt>
      <trkpt lat="38.849965" lon="-1.367436">
        <ele>880.347273</ele>
        <time>2021-11-03T16:20:50.182Z</time>
      </trkpt>
      <trkpt lat="38.849917" lon="-1.367462">
        <ele>880.485805</ele>
        <time>2021-11-03T16:20:50.182Z</time>
      </trkpt>
      <trkpt lat="38.849792" lon="-1.367565">
        <ele>880.880756</ele>
        <time>2021-11-03T16:20:50.182Z</time>
      </trkpt>
      <trkpt lat="38.849639" lon="-1.367703">
        <ele>881.377952</ele>
        <time>2021-11-03T16:20:50.182Z</time>
      </trkpt>
      <trkpt lat="38.849602" lon="-1.367733">
        <ele>881.494315</ele>
        <time>2021-11-03T16:20:50.182Z</time>
      </trkpt>
      <trkpt lat="38.849530" lon="-1.367794">
        <ele>881.723696</ele>
        <time>2021-11-03T16:20:50.182Z</time>
      </trkpt>
      <trkpt lat="38.849360" lon="-1.368016">
        <ele>882.368464</ele>
        <time>2021-11-03T16:20:50.182Z</time>
      </trkpt>
      <trkpt lat="38.849336" lon="-1.368052">
        <ele>882.466603</ele>
        <time>2021-11-03T16:20:50.182Z</time>
      </trkpt>
      <trkpt lat="38.849289" lon="-1.368124">
        <ele>882.661163</ele>
        <time>2021-11-03T16:20:50.182Z</time>
      </trkpt>
      <trkpt lat="38.849137" lon="-1.368374">
        <ele>883.317993</ele>
        <time>2021-11-03T16:20:50.182Z</time>
      </trkpt>
      <trkpt lat="38.848875" lon="-1.368764">
        <ele>884.575145</ele>
        <time>2021-11-03T16:20:50.182Z</time>
      </trkpt>
      <trkpt lat="38.848804" lon="-1.368868">
        <ele>884.973690</ele>
        <time>2021-11-03T16:20:50.182Z</time>
      </trkpt>
      <trkpt lat="38.848711" lon="-1.369012">
        <ele>885.512779</ele>
        <time>2021-11-03T16:20:50.182Z</time>
      </trkpt>
      <trkpt lat="38.848516" lon="-1.369304">
        <ele>886.621239</ele>
        <time>2021-11-03T16:20:50.182Z</time>
      </trkpt>
      <trkpt lat="38.848396" lon="-1.369483">
        <ele>887.301856</ele>
        <time>2021-11-03T16:20:50.182Z</time>
      </trkpt>
      <trkpt lat="38.848252" lon="-1.369702">
        <ele>888.127808</ele>
        <time>2021-11-03T16:20:50.182Z</time>
      </trkpt>
      <trkpt lat="38.848193" lon="-1.369791">
        <ele>888.464617</ele>
        <time>2021-11-03T16:20:50.182Z</time>
      </trkpt>
      <trkpt lat="38.848120" lon="-1.369899">
        <ele>888.876715</ele>
        <time>2021-11-03T16:20:50.182Z</time>
      </trkpt>
      <trkpt lat="38.848101" lon="-1.369927">
        <ele>888.983736</ele>
        <time>2021-11-03T16:20:50.182Z</time>
      </trkpt>
      <trkpt lat="38.848046" lon="-1.370001">
        <ele>889.278511</ele>
        <time>2021-11-03T16:20:50.182Z</time>
      </trkpt>
      <trkpt lat="38.848027" lon="-1.370017">
        <ele>889.362586</ele>
        <time>2021-11-03T16:20:50.182Z</time>
      </trkpt>
      <trkpt lat="38.848004" lon="-1.370024">
        <ele>889.450048</ele>
        <time>2021-11-03T16:20:50.182Z</time>
      </trkpt>
      <trkpt lat="38.847979" lon="-1.370023">
        <ele>889.542598</ele>
        <time>2021-11-03T16:20:50.182Z</time>
      </trkpt>
      <trkpt lat="38.847437" lon="-1.369595">
        <ele>891.649280</ele>
        <time>2021-11-03T16:20:50.182Z</time>
      </trkpt>
      <trkpt lat="38.847343" lon="-1.369520">
        <ele>891.983279</ele>
        <time>2021-11-03T16:20:50.182Z</time>
      </trkpt>
      <trkpt lat="38.847149" lon="-1.369372">
        <ele>892.664310</ele>
        <time>2021-11-03T16:20:50.182Z</time>
      </trkpt>
      <trkpt lat="38.847108" lon="-1.369330">
        <ele>892.822601</ele>
        <time>2021-11-03T16:20:50.182Z</time>
      </trkpt>
      <trkpt lat="38.847070" lon="-1.369288">
        <ele>892.973921</ele>
        <time>2021-11-03T16:20:50.182Z</time>
      </trkpt>
      <trkpt lat="38.846996" lon="-1.369224">
        <ele>893.243188</ele>
        <time>2021-11-03T16:20:50.182Z</time>
      </trkpt>
      <trkpt lat="38.846889" lon="-1.369128">
        <ele>893.637135</ele>
        <time>2021-11-03T16:20:50.182Z</time>
      </trkpt>
      <trkpt lat="38.846658" lon="-1.368944">
        <ele>894.457538</ele>
        <time>2021-11-03T16:20:50.182Z</time>
      </trkpt>
      <trkpt lat="38.846616" lon="-1.368918">
        <ele>894.598255</ele>
        <time>2021-11-03T16:20:50.182Z</time>
      </trkpt>
      <trkpt lat="38.846449" lon="-1.368800">
        <ele>895.173530</ele>
        <time>2021-11-03T16:20:50.182Z</time>
      </trkpt>
      <trkpt lat="38.846325" lon="-1.368700">
        <ele>895.615451</ele>
        <time>2021-11-03T16:20:50.182Z</time>
      </trkpt>
      <trkpt lat="38.846244" lon="-1.368632">
        <ele>895.907520</ele>
        <time>2021-11-03T16:20:50.182Z</time>
      </trkpt>
      <trkpt lat="38.846167" lon="-1.368556">
        <ele>895.882013</ele>
        <time>2021-11-03T16:20:50.182Z</time>
      </trkpt>
      <trkpt lat="38.846127" lon="-1.368519">
        <ele>895.814383</ele>
        <time>2021-11-03T16:20:50.182Z</time>
      </trkpt>
      <trkpt lat="38.846087" lon="-1.368485">
        <ele>895.748575</ele>
        <time>2021-11-03T16:20:50.182Z</time>
      </trkpt>
      <trkpt lat="38.846048" lon="-1.368452">
        <ele>895.684500</ele>
        <time>2021-11-03T16:20:50.182Z</time>
      </trkpt>
      <trkpt lat="38.846008" lon="-1.368419">
        <ele>895.619276</ele>
        <time>2021-11-03T16:20:50.182Z</time>
      </trkpt>
      <trkpt lat="38.845967" lon="-1.368386">
        <ele>895.552893</ele>
        <time>2021-11-03T16:20:50.182Z</time>
      </trkpt>
      <trkpt lat="38.845823" lon="-1.368284">
        <ele>895.327282</ele>
        <time>2021-11-03T16:20:50.182Z</time>
      </trkpt>
      <trkpt lat="38.845769" lon="-1.368239">
        <ele>895.238969</ele>
        <time>2021-11-03T16:20:50.182Z</time>
      </trkpt>
      <trkpt lat="38.845602" lon="-1.368107">
        <ele>894.969942</ele>
        <time>2021-11-03T16:20:50.182Z</time>
      </trkpt>
      <trkpt lat="38.845338" lon="-1.367910">
        <ele>894.551056</ele>
        <time>2021-11-03T16:20:50.182Z</time>
      </trkpt>
      <trkpt lat="38.844860" lon="-1.367556">
        <ele>893.794057</ele>
        <time>2021-11-03T16:20:50.182Z</time>
      </trkpt>
      <trkpt lat="38.844803" lon="-1.367516">
        <ele>893.704946</ele>
        <time>2021-11-03T16:20:50.182Z</time>
      </trkpt>
      <trkpt lat="38.844745" lon="-1.367476">
        <ele>893.614628</ele>
        <time>2021-11-03T16:20:50.182Z</time>
      </trkpt>
      <trkpt lat="38.844516" lon="-1.367303">
        <ele>893.225262</ele>
        <time>2021-11-03T16:20:50.182Z</time>
      </trkpt>
      <trkpt lat="38.844338" lon="-1.367163">
        <ele>892.911926</ele>
        <time>2021-11-03T16:20:50.182Z</time>
      </trkpt>
      <trkpt lat="38.844216" lon="-1.367062">
        <ele>892.694028</ele>
        <time>2021-11-03T16:20:50.182Z</time>
      </trkpt>
      <trkpt lat="38.844082" lon="-1.366973">
        <ele>892.467567</ele>
        <time>2021-11-03T16:20:50.182Z</time>
      </trkpt>
      <trkpt lat="38.844012" lon="-1.366931">
        <ele>892.351585</ele>
        <time>2021-11-03T16:20:50.182Z</time>
      </trkpt>
      <trkpt lat="38.843684" lon="-1.366698">
        <ele>891.788904</ele>
        <time>2021-11-03T16:20:50.182Z</time>
      </trkpt>
      <trkpt lat="38.843622" lon="-1.366651">
        <ele>891.680827</ele>
        <time>2021-11-03T16:20:50.182Z</time>
      </trkpt>
      <trkpt lat="38.843378" lon="-1.366468">
        <ele>891.256657</ele>
        <time>2021-11-03T16:20:50.182Z</time>
      </trkpt>
      <trkpt lat="38.843143" lon="-1.366302">
        <ele>890.854044</ele>
        <time>2021-11-03T16:20:50.182Z</time>
      </trkpt>
      <trkpt lat="38.842929" lon="-1.366152">
        <ele>891.286301</ele>
        <time>2021-11-03T16:20:50.182Z</time>
      </trkpt>
      <trkpt lat="38.842834" lon="-1.366086">
        <ele>891.520923</ele>
        <time>2021-11-03T16:20:50.182Z</time>
      </trkpt>
      <trkpt lat="38.842793" lon="-1.366057">
        <ele>891.622599</ele>
        <time>2021-11-03T16:20:50.182Z</time>
      </trkpt>
      <trkpt lat="38.842681" lon="-1.365974">
        <ele>891.903490</ele>
        <time>2021-11-03T16:20:50.182Z</time>
      </trkpt>
      <trkpt lat="38.842455" lon="-1.365792">
        <ele>892.482957</ele>
        <time>2021-11-03T16:20:50.182Z</time>
      </trkpt>
      <trkpt lat="38.842387" lon="-1.365718">
        <ele>892.676578</ele>
        <time>2021-11-03T16:20:50.182Z</time>
      </trkpt>
      <trkpt lat="38.842289" lon="-1.365592">
        <ele>892.977828</ele>
        <time>2021-11-03T16:20:50.182Z</time>
      </trkpt>
      <trkpt lat="38.842255" lon="-1.365549">
        <ele>893.081491</ele>
        <time>2021-11-03T16:20:50.182Z</time>
      </trkpt>
      <trkpt lat="38.842084" lon="-1.365319">
        <ele>893.619421</ele>
        <time>2021-11-03T16:20:50.182Z</time>
      </trkpt>
      <trkpt lat="38.841938" lon="-1.365115">
        <ele>894.088123</ele>
        <time>2021-11-03T16:20:50.182Z</time>
      </trkpt>
      <trkpt lat="38.841902" lon="-1.365060">
        <ele>894.209665</ele>
        <time>2021-11-03T16:20:50.182Z</time>
      </trkpt>
      <trkpt lat="38.841803" lon="-1.364883">
        <ele>894.578326</ele>
        <time>2021-11-03T16:20:50.182Z</time>
      </trkpt>
      <trkpt lat="38.841744" lon="-1.364754">
        <ele>894.599199</ele>
        <time>2021-11-03T16:20:50.182Z</time>
      </trkpt>
      <trkpt lat="38.841712" lon="-1.364690">
        <ele>894.457031</ele>
        <time>2021-11-03T16:20:50.182Z</time>
      </trkpt>
      <trkpt lat="38.841639" lon="-1.364561">
        <ele>894.158958</ele>
        <time>2021-11-03T16:20:50.182Z</time>
      </trkpt>
      <trkpt lat="38.841558" lon="-1.364431">
        <ele>893.847752</ele>
        <time>2021-11-03T16:20:50.182Z</time>
      </trkpt>
      <trkpt lat="38.841488" lon="-1.364287">
        <ele>893.530441</ele>
        <time>2021-11-03T16:20:50.182Z</time>
      </trkpt>
      <trkpt lat="38.841325" lon="-1.363846">
        <ele>892.617942</ele>
        <time>2021-11-03T16:20:50.182Z</time>
      </trkpt>
      <trkpt lat="38.841241" lon="-1.363580">
        <ele>892.081378</ele>
        <time>2021-11-03T16:20:50.182Z</time>
      </trkpt>
      <trkpt lat="38.841214" lon="-1.363544">
        <ele>891.987954</ele>
        <time>2021-11-03T16:20:50.182Z</time>
      </trkpt>
      <trkpt lat="38.841178" lon="-1.363536">
        <ele>891.900267</ele>
        <time>2021-11-03T16:20:50.182Z</time>
      </trkpt>
      <trkpt lat="38.841141" lon="-1.363555">
        <ele>891.804626</ele>
        <time>2021-11-03T16:20:50.182Z</time>
      </trkpt>
      <trkpt lat="38.841113" lon="-1.363594">
        <ele>891.705474</ele>
        <time>2021-11-03T16:20:50.182Z</time>
      </trkpt>
      <trkpt lat="38.841095" lon="-1.363645">
        <ele>891.600805</ele>
        <time>2021-11-03T16:20:50.182Z</time>
      </trkpt>
      <trkpt lat="38.841059" lon="-1.363812">
        <ele>891.276886</ele>
        <time>2021-11-03T16:20:50.182Z</time>
      </trkpt>
      <trkpt lat="38.840985" lon="-1.364093">
        <ele>890.722382</ele>
        <time>2021-11-03T16:20:50.182Z</time>
      </trkpt>
      <trkpt lat="38.840921" lon="-1.364324">
        <ele>890.348005</ele>
        <time>2021-11-03T16:20:50.182Z</time>
      </trkpt>
      <trkpt lat="38.840888" lon="-1.364440">
        <ele>890.255361</ele>
        <time>2021-11-03T16:20:50.182Z</time>
      </trkpt>
      <trkpt lat="38.840872" lon="-1.364500">
        <ele>890.207786</ele>
        <time>2021-11-03T16:20:50.182Z</time>
      </trkpt>
      <trkpt lat="38.840741" lon="-1.364974">
        <ele>889.830478</ele>
        <time>2021-11-03T16:20:50.182Z</time>
      </trkpt>
      <trkpt lat="38.840707" lon="-1.365094">
        <ele>889.734684</ele>
        <time>2021-11-03T16:20:50.182Z</time>
      </trkpt>
      <trkpt lat="38.840673" lon="-1.365214">
        <ele>889.638891</ele>
        <time>2021-11-03T16:20:50.182Z</time>
      </trkpt>
      <trkpt lat="38.840556" lon="-1.365636">
        <ele>889.302855</ele>
        <time>2021-11-03T16:20:50.182Z</time>
      </trkpt>
      <trkpt lat="38.840511" lon="-1.365821">
        <ele>889.157461</ele>
        <time>2021-11-03T16:20:50.182Z</time>
      </trkpt>
      <trkpt lat="38.840358" lon="-1.366394">
        <ele>888.703046</ele>
        <time>2021-11-03T16:20:50.182Z</time>
      </trkpt>
      <trkpt lat="38.840231" lon="-1.366889">
        <ele>887.355740</ele>
        <time>2021-11-03T16:20:50.182Z</time>
      </trkpt>
      <trkpt lat="38.840215" lon="-1.366967">
        <ele>887.134420</ele>
        <time>2021-11-03T16:20:50.182Z</time>
      </trkpt>
      <trkpt lat="38.840125" lon="-1.367276">
        <ele>886.229223</ele>
        <time>2021-11-03T16:20:50.182Z</time>
      </trkpt>
      <trkpt lat="38.840038" lon="-1.367619">
        <ele>885.239428</ele>
        <time>2021-11-03T16:20:50.182Z</time>
      </trkpt>
      <trkpt lat="38.839987" lon="-1.367795">
        <ele>884.724168</ele>
        <time>2021-11-03T16:20:50.182Z</time>
      </trkpt>
      <trkpt lat="38.839936" lon="-1.367978">
        <ele>884.190864</ele>
        <time>2021-11-03T16:20:50.182Z</time>
      </trkpt>
      <trkpt lat="38.839856" lon="-1.368258">
        <ele>883.372518</ele>
        <time>2021-11-03T16:20:50.182Z</time>
      </trkpt>
      <trkpt lat="38.839802" lon="-1.368448">
        <ele>882.817558</ele>
        <time>2021-11-03T16:20:50.182Z</time>
      </trkpt>
      <trkpt lat="38.839635" lon="-1.369095">
        <ele>882.480552</ele>
        <time>2021-11-03T16:20:50.182Z</time>
      </trkpt>
      <trkpt lat="38.839613" lon="-1.369178">
        <ele>882.505645</ele>
        <time>2021-11-03T16:20:50.182Z</time>
      </trkpt>
      <trkpt lat="38.839591" lon="-1.369260">
        <ele>882.530466</ele>
        <time>2021-11-03T16:20:50.182Z</time>
      </trkpt>
      <trkpt lat="38.839569" lon="-1.369338">
        <ele>882.554209</ele>
        <time>2021-11-03T16:20:50.182Z</time>
      </trkpt>
      <trkpt lat="38.839504" lon="-1.369572">
        <ele>882.625311</ele>
        <time>2021-11-03T16:20:50.182Z</time>
      </trkpt>
      <trkpt lat="38.839484" lon="-1.369648">
        <ele>882.648271</ele>
        <time>2021-11-03T16:20:50.182Z</time>
      </trkpt>
      <trkpt lat="38.839423" lon="-1.369869">
        <ele>882.715375</ele>
        <time>2021-11-03T16:20:50.182Z</time>
      </trkpt>
      <trkpt lat="38.839403" lon="-1.369940">
        <ele>882.736984</ele>
        <time>2021-11-03T16:20:50.182Z</time>
      </trkpt>
      <trkpt lat="38.839385" lon="-1.370010">
        <ele>882.758081</ele>
        <time>2021-11-03T16:20:50.182Z</time>
      </trkpt>
      <trkpt lat="38.839367" lon="-1.370078">
        <ele>882.778636</ele>
        <time>2021-11-03T16:20:50.182Z</time>
      </trkpt>
      <trkpt lat="38.839349" lon="-1.370145">
        <ele>882.798920</ele>
        <time>2021-11-03T16:20:50.182Z</time>
      </trkpt>
      <trkpt lat="38.839316" lon="-1.370275">
        <ele>882.838053</ele>
        <time>2021-11-03T16:20:50.182Z</time>
      </trkpt>
      <trkpt lat="38.839282" lon="-1.370399">
        <ele>882.875677</ele>
        <time>2021-11-03T16:20:50.182Z</time>
      </trkpt>
      <trkpt lat="38.839251" lon="-1.370513">
        <ele>882.910235</ele>
        <time>2021-11-03T16:20:50.182Z</time>
      </trkpt>
      <trkpt lat="38.839222" lon="-1.370617">
        <ele>882.941850</ele>
        <time>2021-11-03T16:20:50.182Z</time>
      </trkpt>
      <trkpt lat="38.839207" lon="-1.370666">
        <ele>882.956918</ele>
        <time>2021-11-03T16:20:50.182Z</time>
      </trkpt>
      <trkpt lat="38.839185" lon="-1.370714">
        <ele>882.972858</ele>
        <time>2021-11-03T16:20:50.182Z</time>
      </trkpt>
      <trkpt lat="38.839148" lon="-1.370793">
        <ele>883.008822</ele>
        <time>2021-11-03T16:20:50.182Z</time>
      </trkpt>
      <trkpt lat="38.839138" lon="-1.370809">
        <ele>883.036241</ele>
        <time>2021-11-03T16:20:50.182Z</time>
      </trkpt>
      <trkpt lat="38.839136" lon="-1.370809">
        <ele>883.039673</ele>
        <time>2021-11-03T16:20:50.182Z</time>
      </trkpt>
      <trkpt lat="38.839132" lon="-1.370806">
        <ele>883.047622</ele>
        <time>2021-11-03T16:20:50.182Z</time>
      </trkpt>
      <trkpt lat="38.839120" lon="-1.370795">
        <ele>883.072924</ele>
        <time>2021-11-03T16:20:50.182Z</time>
      </trkpt>
      <trkpt lat="38.839119" lon="-1.370795">
        <ele>883.074640</ele>
        <time>2021-11-03T16:20:50.182Z</time>
      </trkpt>
      <trkpt lat="38.839119" lon="-1.370795">
        <ele>883.074640</ele>
        <time>2021-11-03T16:20:50.182Z</time>
      </trkpt>
      <trkpt lat="38.839119" lon="-1.370795">
        <ele>883.074640</ele>
        <time>2021-11-03T16:20:50.182Z</time>
      </trkpt>
      <trkpt lat="38.839119" lon="-1.370792">
        <ele>883.078650</ele>
        <time>2021-11-03T16:20:50.182Z</time>
      </trkpt>
      <trkpt lat="38.839122" lon="-1.370782">
        <ele>883.092973</ele>
        <time>2021-11-03T16:20:50.182Z</time>
      </trkpt>
      <trkpt lat="38.839122" lon="-1.370782">
        <ele>883.092973</ele>
        <time>2021-11-03T16:20:50.182Z</time>
      </trkpt>
      <trkpt lat="38.839122" lon="-1.370781">
        <ele>883.094309</ele>
        <time>2021-11-03T16:20:50.182Z</time>
      </trkpt>
      <trkpt lat="38.839123" lon="-1.370780">
        <ele>883.096484</ele>
        <time>2021-11-03T16:20:50.182Z</time>
      </trkpt>
      <trkpt lat="38.839123" lon="-1.370780">
        <ele>883.096484</ele>
        <time>2021-11-03T16:20:50.182Z</time>
      </trkpt>
      <trkpt lat="38.839124" lon="-1.370781">
        <ele>883.098659</ele>
        <time>2021-11-03T16:20:50.182Z</time>
      </trkpt>
      <trkpt lat="38.839124" lon="-1.370781">
        <ele>883.098659</ele>
        <time>2021-11-03T16:20:50.182Z</time>
      </trkpt>
      <trkpt lat="38.839124" lon="-1.370781">
        <ele>883.098659</ele>
        <time>2021-11-03T16:20:50.182Z</time>
      </trkpt>
      <trkpt lat="38.839124" lon="-1.370781">
        <ele>883.098659</ele>
        <time>2021-11-03T16:20:50.182Z</time>
      </trkpt>
      <trkpt lat="38.839124" lon="-1.370781">
        <ele>883.098659</ele>
        <time>2021-11-03T16:20:50.182Z</time>
      </trkpt>
      <trkpt lat="38.839122" lon="-1.370779">
        <ele>883.103010</ele>
        <time>2021-11-03T16:20:50.182Z</time>
      </trkpt>
      <trkpt lat="38.839119" lon="-1.370779">
        <ele>883.108158</ele>
        <time>2021-11-03T16:20:50.182Z</time>
      </trkpt>
      <trkpt lat="38.839117" lon="-1.370778">
        <ele>883.111841</ele>
        <time>2021-11-03T16:20:50.182Z</time>
      </trkpt>
      <trkpt lat="38.839116" lon="-1.370777">
        <ele>883.114016</ele>
        <time>2021-11-03T16:20:50.182Z</time>
      </trkpt>
      <trkpt lat="38.839116" lon="-1.370777">
        <ele>883.114016</ele>
        <time>2021-11-03T16:20:50.182Z</time>
      </trkpt>
      <trkpt lat="38.839117" lon="-1.370775">
        <ele>883.117192</ele>
        <time>2021-11-03T16:20:50.182Z</time>
      </trkpt>
      <trkpt lat="38.839118" lon="-1.370774">
        <ele>883.119367</ele>
        <time>2021-11-03T16:20:50.182Z</time>
      </trkpt>
      <trkpt lat="38.839114" lon="-1.370772">
        <ele>883.126733</ele>
        <time>2021-11-03T16:20:50.182Z</time>
      </trkpt>
      <trkpt lat="38.839117" lon="-1.370769">
        <ele>883.133259</ele>
        <time>2021-11-03T16:20:50.182Z</time>
      </trkpt>
      <trkpt lat="38.839117" lon="-1.370769">
        <ele>883.133259</ele>
        <time>2021-11-03T16:20:50.182Z</time>
      </trkpt>
      <trkpt lat="38.839117" lon="-1.370768">
        <ele>883.134595</ele>
        <time>2021-11-03T16:20:50.182Z</time>
      </trkpt>
      <trkpt lat="38.839117" lon="-1.370768">
        <ele>883.134595</ele>
        <time>2021-11-03T16:20:50.182Z</time>
      </trkpt>
      <trkpt lat="38.839117" lon="-1.370768">
        <ele>883.134595</ele>
        <time>2021-11-03T16:20:50.182Z</time>
      </trkpt>
      <trkpt lat="38.839118" lon="-1.370767">
        <ele>883.136770</ele>
        <time>2021-11-03T16:20:50.182Z</time>
      </trkpt>
      <trkpt lat="38.839112" lon="-1.370769">
        <ele>883.147407</ele>
        <time>2021-11-03T16:20:50.182Z</time>
      </trkpt>
      <trkpt lat="38.839113" lon="-1.370774">
        <ele>883.154307</ele>
        <time>2021-11-03T16:20:50.182Z</time>
      </trkpt>
      <trkpt lat="38.839117" lon="-1.370773">
        <ele>883.161300</ele>
        <time>2021-11-03T16:20:50.182Z</time>
      </trkpt>
      <trkpt lat="38.839115" lon="-1.370788">
        <ele>883.181640</ele>
        <time>2021-11-03T16:20:50.182Z</time>
      </trkpt>
      <trkpt lat="38.839107" lon="-1.370808">
        <ele>883.211691</ele>
        <time>2021-11-03T16:20:50.182Z</time>
      </trkpt>
      <trkpt lat="38.839072" lon="-1.370847">
        <ele>883.291216</ele>
        <time>2021-11-03T16:20:50.182Z</time>
      </trkpt>
      <trkpt lat="38.839030" lon="-1.370890">
        <ele>883.383398</ele>
        <time>2021-11-03T16:20:50.182Z</time>
      </trkpt>
      <trkpt lat="38.838849" lon="-1.370965">
        <ele>883.709765</ele>
        <time>2021-11-03T16:20:50.182Z</time>
      </trkpt>
      <trkpt lat="38.838456" lon="-1.371041">
        <ele>884.391749</ele>
        <time>2021-11-03T16:20:50.182Z</time>
      </trkpt>
      <trkpt lat="38.838404" lon="-1.371051">
        <ele>884.481975</ele>
        <time>2021-11-03T16:20:50.182Z</time>
      </trkpt>
      <trkpt lat="38.838253" lon="-1.371084">
        <ele>884.744814</ele>
        <time>2021-11-03T16:20:50.182Z</time>
      </trkpt>
      <trkpt lat="38.837964" lon="-1.371126">
        <ele>885.243897</ele>
        <time>2021-11-03T16:20:50.182Z</time>
      </trkpt>
      <trkpt lat="38.837634" lon="-1.371179">
        <ele>885.814581</ele>
        <time>2021-11-03T16:20:50.182Z</time>
      </trkpt>
      <trkpt lat="38.837587" lon="-1.371194">
        <ele>885.897686</ele>
        <time>2021-11-03T16:20:50.182Z</time>
      </trkpt>
      <trkpt lat="38.837494" lon="-1.371228">
        <ele>886.063616</ele>
        <time>2021-11-03T16:20:50.182Z</time>
      </trkpt>
      <trkpt lat="38.837366" lon="-1.371289">
        <ele>886.218026</ele>
        <time>2021-11-03T16:20:50.182Z</time>
      </trkpt>
      <trkpt lat="38.837247" lon="-1.371363">
        <ele>886.360566</ele>
        <time>2021-11-03T16:20:50.182Z</time>
      </trkpt>
      <trkpt lat="38.837212" lon="-1.371395">
        <ele>886.406886</ele>
        <time>2021-11-03T16:20:50.182Z</time>
      </trkpt>
      <trkpt lat="38.837178" lon="-1.371427">
        <ele>886.452333</ele>
        <time>2021-11-03T16:20:50.182Z</time>
      </trkpt>
      <trkpt lat="38.837031" lon="-1.371543">
        <ele>886.638342</ele>
        <time>2021-11-03T16:20:50.182Z</time>
      </trkpt>
      <trkpt lat="38.836923" lon="-1.371633">
        <ele>886.777144</ele>
        <time>2021-11-03T16:20:50.182Z</time>
      </trkpt>
      <trkpt lat="38.836814" lon="-1.371724">
        <ele>886.917308</ele>
        <time>2021-11-03T16:20:50.182Z</time>
      </trkpt>
      <trkpt lat="38.836778" lon="-1.371755">
        <ele>886.964037</ele>
        <time>2021-11-03T16:20:50.182Z</time>
      </trkpt>
      <trkpt lat="38.836588" lon="-1.371896">
        <ele>887.200617</ele>
        <time>2021-11-03T16:20:50.182Z</time>
      </trkpt>
      <trkpt lat="38.836397" lon="-1.372024">
        <ele>887.432882</ele>
        <time>2021-11-03T16:20:50.182Z</time>
      </trkpt>
      <trkpt lat="38.836244" lon="-1.372113">
        <ele>887.613959</ele>
        <time>2021-11-03T16:20:50.182Z</time>
      </trkpt>
      <trkpt lat="38.835854" lon="-1.372377">
        <ele>888.132775</ele>
        <time>2021-11-03T16:20:50.182Z</time>
      </trkpt>
      <trkpt lat="38.835776" lon="-1.372429">
        <ele>888.288850</ele>
        <time>2021-11-03T16:20:50.182Z</time>
      </trkpt>
      <trkpt lat="38.835579" lon="-1.372536">
        <ele>888.668703</ele>
        <time>2021-11-03T16:20:50.182Z</time>
      </trkpt>
      <trkpt lat="38.835540" lon="-1.372561">
        <ele>888.746113</ele>
        <time>2021-11-03T16:20:50.182Z</time>
      </trkpt>
      <trkpt lat="38.835308" lon="-1.372725">
        <ele>889.216426</ele>
        <time>2021-11-03T16:20:50.182Z</time>
      </trkpt>
      <trkpt lat="38.835127" lon="-1.372856">
        <ele>889.585407</ele>
        <time>2021-11-03T16:20:50.182Z</time>
      </trkpt>
      <trkpt lat="38.834839" lon="-1.373069">
        <ele>890.175636</ele>
        <time>2021-11-03T16:20:50.182Z</time>
      </trkpt>
      <trkpt lat="38.834729" lon="-1.373155">
        <ele>890.404347</ele>
        <time>2021-11-03T16:20:50.182Z</time>
      </trkpt>
      <trkpt lat="38.834653" lon="-1.373213">
        <ele>890.561354</ele>
        <time>2021-11-03T16:20:50.182Z</time>
      </trkpt>
      <trkpt lat="38.834616" lon="-1.373243">
        <ele>890.639066</ele>
        <time>2021-11-03T16:20:50.182Z</time>
      </trkpt>
      <trkpt lat="38.834432" lon="-1.373393">
        <ele>891.026127</ele>
        <time>2021-11-03T16:20:50.182Z</time>
      </trkpt>
      <trkpt lat="38.834320" lon="-1.373486">
        <ele>891.216690</ele>
        <time>2021-11-03T16:20:50.182Z</time>
      </trkpt>
      <trkpt lat="38.834247" lon="-1.373544">
        <ele>891.218842</ele>
        <time>2021-11-03T16:20:50.182Z</time>
      </trkpt>
      <trkpt lat="38.833989" lon="-1.373740">
        <ele>891.226359</ele>
        <time>2021-11-03T16:20:50.182Z</time>
      </trkpt>
      <trkpt lat="38.833762" lon="-1.373901">
        <ele>891.232862</ele>
        <time>2021-11-03T16:20:50.182Z</time>
      </trkpt>
      <trkpt lat="38.833724" lon="-1.373929">
        <ele>891.233960</ele>
        <time>2021-11-03T16:20:50.182Z</time>
      </trkpt>
      <trkpt lat="38.833681" lon="-1.373955">
        <ele>891.235152</ele>
        <time>2021-11-03T16:20:50.182Z</time>
      </trkpt>
      <trkpt lat="38.833438" lon="-1.374193">
        <ele>891.242815</ele>
        <time>2021-11-03T16:20:50.182Z</time>
      </trkpt>
      <trkpt lat="38.833395" lon="-1.374236">
        <ele>891.244182</ele>
        <time>2021-11-03T16:20:50.182Z</time>
      </trkpt>
      <trkpt lat="38.833349" lon="-1.374278">
        <ele>891.245597</ele>
        <time>2021-11-03T16:20:50.182Z</time>
      </trkpt>
      <trkpt lat="38.832979" lon="-1.374652">
        <ele>891.257405</ele>
        <time>2021-11-03T16:20:50.182Z</time>
      </trkpt>
      <trkpt lat="38.832797" lon="-1.374856">
        <ele>891.176394</ele>
        <time>2021-11-03T16:20:50.182Z</time>
      </trkpt>
      <trkpt lat="38.832763" lon="-1.374903">
        <ele>891.131009</ele>
        <time>2021-11-03T16:20:50.182Z</time>
      </trkpt>
      <trkpt lat="38.832730" lon="-1.374953">
        <ele>891.084639</ele>
        <time>2021-11-03T16:20:50.182Z</time>
      </trkpt>
      <trkpt lat="38.832698" lon="-1.375003">
        <ele>891.038851</ele>
        <time>2021-11-03T16:20:50.182Z</time>
      </trkpt>
      <trkpt lat="38.832506" lon="-1.375379">
        <ele>890.720733</ele>
        <time>2021-11-03T16:20:50.182Z</time>
      </trkpt>
      <trkpt lat="38.832485" lon="-1.375438">
        <ele>890.674834</ele>
        <time>2021-11-03T16:20:50.182Z</time>
      </trkpt>
      <trkpt lat="38.832464" lon="-1.375499">
        <ele>890.627645</ele>
        <time>2021-11-03T16:20:50.182Z</time>
      </trkpt>
      <trkpt lat="38.832443" lon="-1.375558">
        <ele>890.581746</ele>
        <time>2021-11-03T16:20:50.182Z</time>
      </trkpt>
      <trkpt lat="38.832342" lon="-1.375913">
        <ele>890.314324</ele>
        <time>2021-11-03T16:20:50.182Z</time>
      </trkpt>
      <trkpt lat="38.832247" lon="-1.376356">
        <ele>889.989203</ele>
        <time>2021-11-03T16:20:50.182Z</time>
      </trkpt>
      <trkpt lat="38.832234" lon="-1.376419">
        <ele>889.943088</ele>
        <time>2021-11-03T16:20:50.182Z</time>
      </trkpt>
      <trkpt lat="38.832221" lon="-1.376483">
        <ele>889.896288</ele>
        <time>2021-11-03T16:20:50.182Z</time>
      </trkpt>
      <trkpt lat="38.832174" lon="-1.376745">
        <ele>889.706049</ele>
        <time>2021-11-03T16:20:50.182Z</time>
      </trkpt>
      <trkpt lat="38.832125" lon="-1.377089">
        <ele>889.995481</ele>
        <time>2021-11-03T16:20:50.182Z</time>
      </trkpt>
      <trkpt lat="38.832117" lon="-1.377159">
        <ele>890.104701</ele>
        <time>2021-11-03T16:20:50.182Z</time>
      </trkpt>
      <trkpt lat="38.832111" lon="-1.377230">
        <ele>890.214952</ele>
        <time>2021-11-03T16:20:50.182Z</time>
      </trkpt>
      <trkpt lat="38.832112" lon="-1.377442">
        <ele>890.542236</ele>
        <time>2021-11-03T16:20:50.182Z</time>
      </trkpt>
      <trkpt lat="38.832126" lon="-1.377575">
        <ele>890.749423</ele>
        <time>2021-11-03T16:20:50.182Z</time>
      </trkpt>
      <trkpt lat="38.832139" lon="-1.377639">
        <ele>890.851528</ele>
        <time>2021-11-03T16:20:50.182Z</time>
      </trkpt>
      <trkpt lat="38.832215" lon="-1.377876">
        <ele>891.247188</ele>
        <time>2021-11-03T16:20:50.182Z</time>
      </trkpt>
      <trkpt lat="38.832235" lon="-1.377933">
        <ele>891.343697</ele>
        <time>2021-11-03T16:20:50.182Z</time>
      </trkpt>
      <trkpt lat="38.832281" lon="-1.378045">
        <ele>891.539159</ele>
        <time>2021-11-03T16:20:50.182Z</time>
      </trkpt>
      <trkpt lat="38.832332" lon="-1.378148">
        <ele>891.727569</ele>
        <time>2021-11-03T16:20:50.182Z</time>
      </trkpt>
      <trkpt lat="38.832378" lon="-1.378248">
        <ele>891.906852</ele>
        <time>2021-11-03T16:20:50.182Z</time>
      </trkpt>
      <trkpt lat="38.832432" lon="-1.378401">
        <ele>892.166160</ele>
        <time>2021-11-03T16:20:50.182Z</time>
      </trkpt>
      <trkpt lat="38.832465" lon="-1.378558">
        <ele>892.417198</ele>
        <time>2021-11-03T16:20:50.182Z</time>
      </trkpt>
      <trkpt lat="38.832475" lon="-1.378612">
        <ele>892.502884</ele>
        <time>2021-11-03T16:20:50.182Z</time>
      </trkpt>
      <trkpt lat="38.832490" lon="-1.378778">
        <ele>892.760867</ele>
        <time>2021-11-03T16:20:50.182Z</time>
      </trkpt>
      <trkpt lat="38.832480" lon="-1.378941">
        <ele>893.013278</ele>
        <time>2021-11-03T16:20:50.182Z</time>
      </trkpt>
      <trkpt lat="38.832444" lon="-1.379102">
        <ele>893.204111</ele>
        <time>2021-11-03T16:20:50.182Z</time>
      </trkpt>
      <trkpt lat="38.832384" lon="-1.379252">
        <ele>893.244071</ele>
        <time>2021-11-03T16:20:50.182Z</time>
      </trkpt>
      <trkpt lat="38.832360" lon="-1.379301">
        <ele>893.257788</ele>
        <time>2021-11-03T16:20:50.182Z</time>
      </trkpt>
      <trkpt lat="38.832239" lon="-1.379550">
        <ele>893.327338</ele>
        <time>2021-11-03T16:20:50.182Z</time>
      </trkpt>
      <trkpt lat="38.832153" lon="-1.379693">
        <ele>893.370151</ele>
        <time>2021-11-03T16:20:50.182Z</time>
      </trkpt>
      <trkpt lat="38.831905" lon="-1.380095">
        <ele>893.491677</ele>
        <time>2021-11-03T16:20:50.182Z</time>
      </trkpt>
      <trkpt lat="38.831873" lon="-1.380145">
        <ele>893.507013</ele>
        <time>2021-11-03T16:20:50.182Z</time>
      </trkpt>
      <trkpt lat="38.831812" lon="-1.380244">
        <ele>893.536927</ele>
        <time>2021-11-03T16:20:50.182Z</time>
      </trkpt>
      <trkpt lat="38.831658" lon="-1.380496">
        <ele>893.612832</ele>
        <time>2021-11-03T16:20:50.182Z</time>
      </trkpt>
      <trkpt lat="38.831627" lon="-1.380546">
        <ele>893.627976</ele>
        <time>2021-11-03T16:20:50.182Z</time>
      </trkpt>
      <trkpt lat="38.831502" lon="-1.380744">
        <ele>893.688374</ele>
        <time>2021-11-03T16:20:50.182Z</time>
      </trkpt>
      <trkpt lat="38.831472" lon="-1.380795">
        <ele>893.703520</ele>
        <time>2021-11-03T16:20:50.182Z</time>
      </trkpt>
      <trkpt lat="38.831284" lon="-1.381095">
        <ele>893.496384</ele>
        <time>2021-11-03T16:20:50.182Z</time>
      </trkpt>
      <trkpt lat="38.831130" lon="-1.381362">
        <ele>893.153734</ele>
        <time>2021-11-03T16:20:50.182Z</time>
      </trkpt>
      <trkpt lat="38.831069" lon="-1.381477">
        <ele>893.010237</ele>
        <time>2021-11-03T16:20:50.182Z</time>
      </trkpt>
      <trkpt lat="38.830923" lon="-1.381680">
        <ele>892.725274</ele>
        <time>2021-11-03T16:20:50.182Z</time>
      </trkpt>
      <trkpt lat="38.830878" lon="-1.381725">
        <ele>892.649749</ele>
        <time>2021-11-03T16:20:50.182Z</time>
      </trkpt>
      <trkpt lat="38.830665" lon="-1.381853">
        <ele>892.338365</ele>
        <time>2021-11-03T16:20:50.182Z</time>
      </trkpt>
      <trkpt lat="38.830607" lon="-1.381870">
        <ele>892.259597</ele>
        <time>2021-11-03T16:20:50.182Z</time>
      </trkpt>
      <trkpt lat="38.830250" lon="-1.381931">
        <ele>891.782758</ele>
        <time>2021-11-03T16:20:50.182Z</time>
      </trkpt>
      <trkpt lat="38.830191" lon="-1.381926">
        <ele>891.704472</ele>
        <time>2021-11-03T16:20:50.182Z</time>
      </trkpt>
      <trkpt lat="38.830131" lon="-1.381912">
        <ele>891.623730</ele>
        <time>2021-11-03T16:20:50.182Z</time>
      </trkpt>
      <trkpt lat="38.829940" lon="-1.381830">
        <ele>891.355862</ele>
        <time>2021-11-03T16:20:50.182Z</time>
      </trkpt>
      <trkpt lat="38.829806" lon="-1.381735">
        <ele>890.686737</ele>
        <time>2021-11-03T16:20:50.182Z</time>
      </trkpt>
      <trkpt lat="38.829672" lon="-1.381618">
        <ele>889.978352</ele>
        <time>2021-11-03T16:20:50.182Z</time>
      </trkpt>
      <trkpt lat="38.829604" lon="-1.381559">
        <ele>889.619586</ele>
        <time>2021-11-03T16:20:50.182Z</time>
      </trkpt>
      <trkpt lat="38.829463" lon="-1.381434">
        <ele>888.870560</ele>
        <time>2021-11-03T16:20:50.182Z</time>
      </trkpt>
      <trkpt lat="38.829240" lon="-1.381226">
        <ele>887.665644</ele>
        <time>2021-11-03T16:20:50.182Z</time>
      </trkpt>
      <trkpt lat="38.829162" lon="-1.381158">
        <ele>887.253499</ele>
        <time>2021-11-03T16:20:50.182Z</time>
      </trkpt>
      <trkpt lat="38.829081" lon="-1.381091">
        <ele>886.832296</ele>
        <time>2021-11-03T16:20:50.182Z</time>
      </trkpt>
      <trkpt lat="38.828758" lon="-1.380824">
        <ele>885.153003</ele>
        <time>2021-11-03T16:20:50.182Z</time>
      </trkpt>
      <trkpt lat="38.828535" lon="-1.380639">
        <ele>883.992390</ele>
        <time>2021-11-03T16:20:50.182Z</time>
      </trkpt>
      <trkpt lat="38.828030" lon="-1.380202">
        <ele>881.848135</ele>
        <time>2021-11-03T16:20:50.182Z</time>
      </trkpt>
      <trkpt lat="38.827665" lon="-1.379898">
        <ele>880.401168</ele>
        <time>2021-11-03T16:20:50.182Z</time>
      </trkpt>
      <trkpt lat="38.827451" lon="-1.379712">
        <ele>879.541694</ele>
        <time>2021-11-03T16:20:50.182Z</time>
      </trkpt>
      <trkpt lat="38.827308" lon="-1.379590">
        <ele>878.970676</ele>
        <time>2021-11-03T16:20:50.182Z</time>
      </trkpt>
      <trkpt lat="38.827089" lon="-1.379407">
        <ele>878.101647</ele>
        <time>2021-11-03T16:20:50.182Z</time>
      </trkpt>
      <trkpt lat="38.827016" lon="-1.379344">
        <ele>877.809111</ele>
        <time>2021-11-03T16:20:50.182Z</time>
      </trkpt>
      <trkpt lat="38.826944" lon="-1.379278">
        <ele>877.514881</ele>
        <time>2021-11-03T16:20:50.182Z</time>
      </trkpt>
      <trkpt lat="38.826871" lon="-1.379213">
        <ele>877.226798</ele>
        <time>2021-11-03T16:20:50.182Z</time>
      </trkpt>
      <trkpt lat="38.826797" lon="-1.379149">
        <ele>876.937488</ele>
        <time>2021-11-03T16:20:50.182Z</time>
      </trkpt>
      <trkpt lat="38.826722" lon="-1.379084">
        <ele>876.644077</ele>
        <time>2021-11-03T16:20:50.182Z</time>
      </trkpt>
      <trkpt lat="38.826648" lon="-1.379019">
        <ele>876.353348</ele>
        <time>2021-11-03T16:20:50.182Z</time>
      </trkpt>
      <trkpt lat="38.826572" lon="-1.378954">
        <ele>876.057244</ele>
        <time>2021-11-03T16:20:50.182Z</time>
      </trkpt>
      <trkpt lat="38.826496" lon="-1.378891">
        <ele>875.763911</ele>
        <time>2021-11-03T16:20:50.182Z</time>
      </trkpt>
      <trkpt lat="38.826018" lon="-1.378503">
        <ele>873.930205</ele>
        <time>2021-11-03T16:20:50.182Z</time>
      </trkpt>
      <trkpt lat="38.825938" lon="-1.378435">
        <ele>873.619104</ele>
        <time>2021-11-03T16:20:50.182Z</time>
      </trkpt>
      <trkpt lat="38.825778" lon="-1.378299">
        <ele>872.996903</ele>
        <time>2021-11-03T16:20:50.182Z</time>
      </trkpt>
      <trkpt lat="38.825303" lon="-1.377906">
        <ele>871.358960</ele>
        <time>2021-11-03T16:20:50.182Z</time>
      </trkpt>
      <trkpt lat="38.825228" lon="-1.377840">
        <ele>871.174849</ele>
        <time>2021-11-03T16:20:50.182Z</time>
      </trkpt>
      <trkpt lat="38.824705" lon="-1.377393">
        <ele>869.902678</ele>
        <time>2021-11-03T16:20:50.182Z</time>
      </trkpt>
      <trkpt lat="38.824558" lon="-1.377269">
        <ele>869.546533</ele>
        <time>2021-11-03T16:20:50.182Z</time>
      </trkpt>
      <trkpt lat="38.824200" lon="-1.376969">
        <ele>868.680903</ele>
        <time>2021-11-03T16:20:50.182Z</time>
      </trkpt>
      <trkpt lat="38.823926" lon="-1.376733">
        <ele>867.994844</ele>
        <time>2021-11-03T16:20:50.182Z</time>
      </trkpt>
      <trkpt lat="38.823859" lon="-1.376673">
        <ele>867.721957</ele>
        <time>2021-11-03T16:20:50.182Z</time>
      </trkpt>
      <trkpt lat="38.823662" lon="-1.376488">
        <ele>866.906602</ele>
        <time>2021-11-03T16:20:50.182Z</time>
      </trkpt>
      <trkpt lat="38.823331" lon="-1.376174">
        <ele>865.531762</ele>
        <time>2021-11-03T16:20:50.182Z</time>
      </trkpt>
      <trkpt lat="38.823263" lon="-1.376110">
        <ele>865.250100</ele>
        <time>2021-11-03T16:20:50.182Z</time>
      </trkpt>
      <trkpt lat="38.823054" lon="-1.375903">
        <ele>864.368298</ele>
        <time>2021-11-03T16:20:50.182Z</time>
      </trkpt>
      <trkpt lat="38.822776" lon="-1.375640">
        <ele>863.214712</ele>
        <time>2021-11-03T16:20:50.182Z</time>
      </trkpt>
      <trkpt lat="38.822638" lon="-1.375508">
        <ele>862.639827</ele>
        <time>2021-11-03T16:20:50.182Z</time>
      </trkpt>
      <trkpt lat="38.822438" lon="-1.375313">
        <ele>861.982557</ele>
        <time>2021-11-03T16:20:50.182Z</time>
      </trkpt>
      <trkpt lat="38.821996" lon="-1.374884">
        <ele>861.583888</ele>
        <time>2021-11-03T16:20:50.182Z</time>
      </trkpt>
      <trkpt lat="38.821755" lon="-1.374652">
        <ele>861.367157</ele>
        <time>2021-11-03T16:20:50.182Z</time>
      </trkpt>
      <trkpt lat="38.821518" lon="-1.374427">
        <ele>861.155079</ele>
        <time>2021-11-03T16:20:50.182Z</time>
      </trkpt>
      <trkpt lat="38.821113" lon="-1.374031">
        <ele>860.788793</ele>
        <time>2021-11-03T16:20:50.182Z</time>
      </trkpt>
      <trkpt lat="38.820677" lon="-1.373613">
        <ele>861.741260</ele>
        <time>2021-11-03T16:20:50.182Z</time>
      </trkpt>
      <trkpt lat="38.820580" lon="-1.373513">
        <ele>862.004381</ele>
        <time>2021-11-03T16:20:50.182Z</time>
      </trkpt>
      <trkpt lat="38.820271" lon="-1.373207">
        <ele>862.829770</ele>
        <time>2021-11-03T16:20:50.182Z</time>
      </trkpt>
      <trkpt lat="38.820228" lon="-1.373168">
        <ele>862.941123</ele>
        <time>2021-11-03T16:20:50.182Z</time>
      </trkpt>
      <trkpt lat="38.819957" lon="-1.372916">
        <ele>863.648855</ele>
        <time>2021-11-03T16:20:50.182Z</time>
      </trkpt>
      <trkpt lat="38.819783" lon="-1.372773">
        <ele>864.085813</ele>
        <time>2021-11-03T16:20:50.182Z</time>
      </trkpt>
      <trkpt lat="38.819726" lon="-1.372723">
        <ele>864.231824</ele>
        <time>2021-11-03T16:20:50.182Z</time>
      </trkpt>
      <trkpt lat="38.819668" lon="-1.372621">
        <ele>864.439893</ele>
        <time>2021-11-03T16:20:50.182Z</time>
      </trkpt>
      <trkpt lat="38.819655" lon="-1.372605">
        <ele>864.477984</ele>
        <time>2021-11-03T16:20:50.182Z</time>
      </trkpt>
      <trkpt lat="38.819653" lon="-1.372613">
        <ele>864.491828</ele>
        <time>2021-11-03T16:20:50.182Z</time>
      </trkpt>
      <trkpt lat="38.819655" lon="-1.372617">
        <ele>864.499659</ele>
        <time>2021-11-03T16:20:50.182Z</time>
      </trkpt>
      <trkpt lat="38.819658" lon="-1.372616">
        <ele>864.506214</ele>
        <time>2021-11-03T16:20:50.182Z</time>
      </trkpt>
      <trkpt lat="38.819659" lon="-1.372617">
        <ele>864.508895</ele>
        <time>2021-11-03T16:20:50.182Z</time>
      </trkpt>
      <trkpt lat="38.819659" lon="-1.372616">
        <ele>864.510543</ele>
        <time>2021-11-03T16:20:50.182Z</time>
      </trkpt>
      <trkpt lat="38.819659" lon="-1.372617">
        <ele>864.512191</ele>
        <time>2021-11-03T16:20:50.182Z</time>
      </trkpt>
      <trkpt lat="38.819659" lon="-1.372616">
        <ele>864.513838</ele>
        <time>2021-11-03T16:20:50.182Z</time>
      </trkpt>
      <trkpt lat="38.819659" lon="-1.372616">
        <ele>864.513838</ele>
        <time>2021-11-03T16:20:50.182Z</time>
      </trkpt>
      <trkpt lat="38.819659" lon="-1.372616">
        <ele>864.513838</ele>
        <time>2021-11-03T16:20:50.182Z</time>
      </trkpt>
      <trkpt lat="38.819658" lon="-1.372616">
        <ele>864.515953</ele>
        <time>2021-11-03T16:20:50.182Z</time>
      </trkpt>
      <trkpt lat="38.819658" lon="-1.372616">
        <ele>864.515953</ele>
        <time>2021-11-03T16:20:50.182Z</time>
      </trkpt>
      <trkpt lat="38.819658" lon="-1.372616">
        <ele>864.515953</ele>
        <time>2021-11-03T16:20:50.182Z</time>
      </trkpt>
      <trkpt lat="38.819658" lon="-1.372616">
        <ele>864.515953</ele>
        <time>2021-11-03T16:20:50.182Z</time>
      </trkpt>
      <trkpt lat="38.819658" lon="-1.372617">
        <ele>864.517601</ele>
        <time>2021-11-03T16:20:50.182Z</time>
      </trkpt>
      <trkpt lat="38.819658" lon="-1.372616">
        <ele>864.519249</ele>
        <time>2021-11-03T16:20:50.182Z</time>
      </trkpt>
      <trkpt lat="38.819658" lon="-1.372616">
        <ele>864.519249</ele>
        <time>2021-11-03T16:20:50.182Z</time>
      </trkpt>
      <trkpt lat="38.819658" lon="-1.372617">
        <ele>864.520896</ele>
        <time>2021-11-03T16:20:50.182Z</time>
      </trkpt>
      <trkpt lat="38.819658" lon="-1.372618">
        <ele>864.522544</ele>
        <time>2021-11-03T16:20:50.182Z</time>
      </trkpt>
      <trkpt lat="38.819658" lon="-1.372617">
        <ele>864.524192</ele>
        <time>2021-11-03T16:20:50.182Z</time>
      </trkpt>
      <trkpt lat="38.819658" lon="-1.372617">
        <ele>864.524192</ele>
        <time>2021-11-03T16:20:50.182Z</time>
      </trkpt>
      <trkpt lat="38.819658" lon="-1.372617">
        <ele>864.524192</ele>
        <time>2021-11-03T16:20:50.182Z</time>
      </trkpt>
      <trkpt lat="38.819658" lon="-1.372617">
        <ele>864.524192</ele>
        <time>2021-11-03T16:20:50.182Z</time>
      </trkpt>
      <trkpt lat="38.819658" lon="-1.372617">
        <ele>864.524192</ele>
        <time>2021-11-03T16:20:50.182Z</time>
      </trkpt>
      <trkpt lat="38.819657" lon="-1.372620">
        <ele>864.529569</ele>
        <time>2021-11-03T16:20:50.182Z</time>
      </trkpt>
      <trkpt lat="38.819657" lon="-1.372620">
        <ele>864.529569</ele>
        <time>2021-11-03T16:20:50.182Z</time>
      </trkpt>
      <trkpt lat="38.819657" lon="-1.372621">
        <ele>864.531216</ele>
        <time>2021-11-03T16:20:50.182Z</time>
      </trkpt>
      <trkpt lat="38.819657" lon="-1.372621">
        <ele>864.531216</ele>
        <time>2021-11-03T16:20:50.182Z</time>
      </trkpt>
      <trkpt lat="38.819656" lon="-1.372621">
        <ele>864.533331</ele>
        <time>2021-11-03T16:20:50.182Z</time>
      </trkpt>
      <trkpt lat="38.819656" lon="-1.372620">
        <ele>864.534979</ele>
        <time>2021-11-03T16:20:50.182Z</time>
      </trkpt>
      <trkpt lat="38.819655" lon="-1.372620">
        <ele>864.537094</ele>
        <time>2021-11-03T16:20:50.182Z</time>
      </trkpt>
      <trkpt lat="38.819655" lon="-1.372620">
        <ele>864.537094</ele>
        <time>2021-11-03T16:20:50.182Z</time>
      </trkpt>
      <trkpt lat="38.819654" lon="-1.372620">
        <ele>864.539209</ele>
        <time>2021-11-03T16:20:50.182Z</time>
      </trkpt>
      <trkpt lat="38.819655" lon="-1.372618">
        <ele>864.543971</ele>
        <time>2021-11-03T16:20:50.182Z</time>
      </trkpt>
      <trkpt lat="38.819656" lon="-1.372618">
        <ele>864.548241</ele>
        <time>2021-11-03T16:20:50.182Z</time>
      </trkpt>
      <trkpt lat="38.819657" lon="-1.372617">
        <ele>864.553653</ele>
        <time>2021-11-03T16:20:50.182Z</time>
      </trkpt>
      <trkpt lat="38.819657" lon="-1.372619">
        <ele>864.560306</ele>
        <time>2021-11-03T16:20:50.182Z</time>
      </trkpt>
      <trkpt lat="38.819652" lon="-1.372610">
        <ele>864.597074</ele>
        <time>2021-11-03T16:20:50.182Z</time>
      </trkpt>
      <trkpt lat="38.819591" lon="-1.372535">
        <ele>864.957717</ele>
        <time>2021-11-03T16:20:50.182Z</time>
      </trkpt>
      <trkpt lat="38.819343" lon="-1.372339">
        <ele>866.201150</ele>
        <time>2021-11-03T16:20:50.182Z</time>
      </trkpt>
      <trkpt lat="38.819176" lon="-1.372211">
        <ele>867.031591</ele>
        <time>2021-11-03T16:20:50.182Z</time>
      </trkpt>
      <trkpt lat="38.819137" lon="-1.372181">
        <ele>867.225710</ele>
        <time>2021-11-03T16:20:50.182Z</time>
      </trkpt>
      <trkpt lat="38.819098" lon="-1.372152">
        <ele>867.418140</ele>
        <time>2021-11-03T16:20:50.182Z</time>
      </trkpt>
      <trkpt lat="38.819061" lon="-1.372124">
        <ele>867.601521</ele>
        <time>2021-11-03T16:20:50.182Z</time>
      </trkpt>
      <trkpt lat="38.819023" lon="-1.372093">
        <ele>867.793754</ele>
        <time>2021-11-03T16:20:50.182Z</time>
      </trkpt>
      <trkpt lat="38.818987" lon="-1.372060">
        <ele>867.982626</ele>
        <time>2021-11-03T16:20:50.182Z</time>
      </trkpt>
      <trkpt lat="38.818952" lon="-1.372022">
        <ele>868.178346</ele>
        <time>2021-11-03T16:20:50.182Z</time>
      </trkpt>
      <trkpt lat="38.818920" lon="-1.371981">
        <ele>868.371387</ele>
        <time>2021-11-03T16:20:50.182Z</time>
      </trkpt>
      <trkpt lat="38.818827" lon="-1.371859">
        <ele>868.939137</ele>
        <time>2021-11-03T16:20:50.182Z</time>
      </trkpt>
      <trkpt lat="38.818714" lon="-1.371708">
        <ele>869.635584</ele>
        <time>2021-11-03T16:20:50.182Z</time>
      </trkpt>
      <trkpt lat="38.818686" lon="-1.371671">
        <ele>869.807160</ele>
        <time>2021-11-03T16:20:50.182Z</time>
      </trkpt>
      <trkpt lat="38.818601" lon="-1.371565">
        <ele>870.313144</ele>
        <time>2021-11-03T16:20:50.182Z</time>
      </trkpt>
      <trkpt lat="38.818549" lon="-1.371490">
        <ele>870.647102</ele>
        <time>2021-11-03T16:20:50.182Z</time>
      </trkpt>
      <trkpt lat="38.818499" lon="-1.371408">
        <ele>870.993468</ele>
        <time>2021-11-03T16:20:50.182Z</time>
      </trkpt>
      <trkpt lat="38.818372" lon="-1.371128">
        <ele>872.071193</ele>
        <time>2021-11-03T16:20:50.182Z</time>
      </trkpt>
      <trkpt lat="38.818336" lon="-1.371023">
        <ele>872.214619</ele>
        <time>2021-11-03T16:20:50.182Z</time>
      </trkpt>
      <trkpt lat="38.818242" lon="-1.370755">
        <ele>872.186156</ele>
        <time>2021-11-03T16:20:50.182Z</time>
      </trkpt>
      <trkpt lat="38.818183" lon="-1.370600">
        <ele>872.169449</ele>
        <time>2021-11-03T16:20:50.182Z</time>
      </trkpt>
      <trkpt lat="38.818121" lon="-1.370450">
        <ele>872.153005</ele>
        <time>2021-11-03T16:20:50.182Z</time>
      </trkpt>
      <trkpt lat="38.818061" lon="-1.370299">
        <ele>872.136589</ele>
        <time>2021-11-03T16:20:50.182Z</time>
      </trkpt>
      <trkpt lat="38.818041" lon="-1.370251">
        <ele>872.131318</ele>
        <time>2021-11-03T16:20:50.182Z</time>
      </trkpt>
      <trkpt lat="38.818021" lon="-1.370201">
        <ele>872.125874</ele>
        <time>2021-11-03T16:20:50.182Z</time>
      </trkpt>
      <trkpt lat="38.818001" lon="-1.370150">
        <ele>872.120345</ele>
        <time>2021-11-03T16:20:50.182Z</time>
      </trkpt>
      <trkpt lat="38.817954" lon="-1.370047">
        <ele>872.108785</ele>
        <time>2021-11-03T16:20:50.182Z</time>
      </trkpt>
      <trkpt lat="38.817898" lon="-1.369942">
        <ele>872.096462</ele>
        <time>2021-11-03T16:20:50.182Z</time>
      </trkpt>
      <trkpt lat="38.817870" lon="-1.369886">
        <ele>872.090018</ele>
        <time>2021-11-03T16:20:50.182Z</time>
      </trkpt>
      <trkpt lat="38.817805" lon="-1.369773">
        <ele>872.076415</ele>
        <time>2021-11-03T16:20:50.182Z</time>
      </trkpt>
      <trkpt lat="38.817680" lon="-1.369607">
        <ele>872.054058</ele>
        <time>2021-11-03T16:20:50.182Z</time>
      </trkpt>
      <trkpt lat="38.817524" lon="-1.369453">
        <ele>872.029595</ele>
        <time>2021-11-03T16:20:50.182Z</time>
      </trkpt>
      <trkpt lat="38.817204" lon="-1.369205">
        <ele>871.457983</ele>
        <time>2021-11-03T16:20:50.182Z</time>
      </trkpt>
      <trkpt lat="38.817138" lon="-1.369154">
        <ele>871.105355</ele>
        <time>2021-11-03T16:20:50.182Z</time>
      </trkpt>
      <trkpt lat="38.817072" lon="-1.369100">
        <ele>870.747091</ele>
        <time>2021-11-03T16:20:50.182Z</time>
      </trkpt>
      <trkpt lat="38.816937" lon="-1.368993">
        <ele>870.020826</ele>
        <time>2021-11-03T16:20:50.182Z</time>
      </trkpt>
      <trkpt lat="38.816797" lon="-1.368894">
        <ele>869.289178</ele>
        <time>2021-11-03T16:20:50.182Z</time>
      </trkpt>
      <trkpt lat="38.816651" lon="-1.368805">
        <ele>868.549348</ele>
        <time>2021-11-03T16:20:50.182Z</time>
      </trkpt>
      <trkpt lat="38.816256" lon="-1.368663">
        <ele>866.671739</ele>
        <time>2021-11-03T16:20:50.182Z</time>
      </trkpt>
      <trkpt lat="38.816015" lon="-1.368600">
        <ele>865.545967</ele>
        <time>2021-11-03T16:20:50.182Z</time>
      </trkpt>
      <trkpt lat="38.815866" lon="-1.368516">
        <ele>864.801057</ele>
        <time>2021-11-03T16:20:50.182Z</time>
      </trkpt>
      <trkpt lat="38.815733" lon="-1.368386">
        <ele>864.035831</ele>
        <time>2021-11-03T16:20:50.182Z</time>
      </trkpt>
      <trkpt lat="38.815672" lon="-1.368311">
        <ele>863.653504</ele>
        <time>2021-11-03T16:20:50.182Z</time>
      </trkpt>
      <trkpt lat="38.815616" lon="-1.368227">
        <ele>863.273996</ele>
        <time>2021-11-03T16:20:50.182Z</time>
      </trkpt>
      <trkpt lat="38.815454" lon="-1.367970">
        <ele>862.139187</ele>
        <time>2021-11-03T16:20:50.182Z</time>
      </trkpt>
      <trkpt lat="38.815347" lon="-1.367791">
        <ele>861.364698</ele>
        <time>2021-11-03T16:20:50.182Z</time>
      </trkpt>
      <trkpt lat="38.815292" lon="-1.367700">
        <ele>860.969339</ele>
        <time>2021-11-03T16:20:50.182Z</time>
      </trkpt>
      <trkpt lat="38.815233" lon="-1.367612">
        <ele>860.570803</ele>
        <time>2021-11-03T16:20:50.182Z</time>
      </trkpt>
      <trkpt lat="38.815171" lon="-1.367527">
        <ele>860.171100</ele>
        <time>2021-11-03T16:20:50.182Z</time>
      </trkpt>
      <trkpt lat="38.815043" lon="-1.367359">
        <ele>859.364473</ele>
        <time>2021-11-03T16:20:50.182Z</time>
      </trkpt>
      <trkpt lat="38.814980" lon="-1.367270">
        <ele>858.951689</ele>
        <time>2021-11-03T16:20:50.182Z</time>
      </trkpt>
      <trkpt lat="38.814858" lon="-1.367082">
        <ele>858.111783</ele>
        <time>2021-11-03T16:20:50.182Z</time>
      </trkpt>
      <trkpt lat="38.814794" lon="-1.366990">
        <ele>857.688397</ele>
        <time>2021-11-03T16:20:50.182Z</time>
      </trkpt>
      <trkpt lat="38.814669" lon="-1.366804">
        <ele>856.845182</ele>
        <time>2021-11-03T16:20:50.182Z</time>
      </trkpt>
      <trkpt lat="38.814608" lon="-1.366708">
        <ele>856.419930</ele>
        <time>2021-11-03T16:20:50.182Z</time>
      </trkpt>
      <trkpt lat="38.814488" lon="-1.366519">
        <ele>855.915393</ele>
        <time>2021-11-03T16:20:50.182Z</time>
      </trkpt>
      <trkpt lat="38.814368" lon="-1.366339">
        <ele>856.152271</ele>
        <time>2021-11-03T16:20:50.182Z</time>
      </trkpt>
      <trkpt lat="38.814309" lon="-1.366253">
        <ele>856.266848</ele>
        <time>2021-11-03T16:20:50.182Z</time>
      </trkpt>
      <trkpt lat="38.814253" lon="-1.366167">
        <ele>856.378918</ele>
        <time>2021-11-03T16:20:50.182Z</time>
      </trkpt>
      <trkpt lat="38.813943" lon="-1.365676">
        <ele>857.010835</ele>
        <time>2021-11-03T16:20:50.182Z</time>
      </trkpt>
      <trkpt lat="38.813798" lon="-1.365460">
        <ele>857.295926</ele>
        <time>2021-11-03T16:20:50.182Z</time>
      </trkpt>
      <trkpt lat="38.813709" lon="-1.365330">
        <ele>857.468967</ele>
        <time>2021-11-03T16:20:50.182Z</time>
      </trkpt>
      <trkpt lat="38.813671" lon="-1.365265">
        <ele>857.550223</ele>
        <time>2021-11-03T16:20:50.182Z</time>
      </trkpt>
      <trkpt lat="38.813609" lon="-1.365131">
        <ele>857.706059</ele>
        <time>2021-11-03T16:20:50.182Z</time>
      </trkpt>
      <trkpt lat="38.813479" lon="-1.364843">
        <ele>858.038877</ele>
        <time>2021-11-03T16:20:50.182Z</time>
      </trkpt>
      <trkpt lat="38.813296" lon="-1.364545">
        <ele>856.943694</ele>
        <time>2021-11-03T16:20:50.182Z</time>
      </trkpt>
      <trkpt lat="38.813228" lon="-1.364429">
        <ele>856.295052</ele>
        <time>2021-11-03T16:20:50.182Z</time>
      </trkpt>
      <trkpt lat="38.813191" lon="-1.364370">
        <ele>855.956637</ele>
        <time>2021-11-03T16:20:50.182Z</time>
      </trkpt>
      <trkpt lat="38.813156" lon="-1.364305">
        <ele>855.603587</ele>
        <time>2021-11-03T16:20:50.182Z</time>
      </trkpt>
      <trkpt lat="38.813087" lon="-1.364140">
        <ele>854.766829</ele>
        <time>2021-11-03T16:20:50.182Z</time>
      </trkpt>
      <trkpt lat="38.813050" lon="-1.364045">
        <ele>854.292255</ele>
        <time>2021-11-03T16:20:50.182Z</time>
      </trkpt>
      <trkpt lat="38.813008" lon="-1.363942">
        <ele>853.772796</ele>
        <time>2021-11-03T16:20:50.182Z</time>
      </trkpt>
      <trkpt lat="38.812961" lon="-1.363834">
        <ele>853.220041</ele>
        <time>2021-11-03T16:20:50.182Z</time>
      </trkpt>
      <trkpt lat="38.812909" lon="-1.363722">
        <ele>852.637471</ele>
        <time>2021-11-03T16:20:50.182Z</time>
      </trkpt>
      <trkpt lat="38.812851" lon="-1.363606">
        <ele>852.021596</ele>
        <time>2021-11-03T16:20:50.182Z</time>
      </trkpt>
      <trkpt lat="38.812793" lon="-1.363491">
        <ele>851.409477</ele>
        <time>2021-11-03T16:20:50.182Z</time>
      </trkpt>
      <trkpt lat="38.812677" lon="-1.363272">
        <ele>850.226198</ele>
        <time>2021-11-03T16:20:50.182Z</time>
      </trkpt>
      <trkpt lat="38.812622" lon="-1.363174">
        <ele>849.686529</ele>
        <time>2021-11-03T16:20:50.182Z</time>
      </trkpt>
      <trkpt lat="38.812571" lon="-1.363081">
        <ele>849.178364</ele>
        <time>2021-11-03T16:20:50.182Z</time>
      </trkpt>
      <trkpt lat="38.812376" lon="-1.362758">
        <ele>847.373177</ele>
        <time>2021-11-03T16:20:50.182Z</time>
      </trkpt>
      <trkpt lat="38.812333" lon="-1.362692">
        <ele>847.005228</ele>
        <time>2021-11-03T16:20:50.182Z</time>
      </trkpt>
      <trkpt lat="38.812286" lon="-1.362628">
        <ele>846.629094</ele>
        <time>2021-11-03T16:20:50.182Z</time>
      </trkpt>
      <trkpt lat="38.812191" lon="-1.362513">
        <ele>845.912285</ele>
        <time>2021-11-03T16:20:50.182Z</time>
      </trkpt>
      <trkpt lat="38.812134" lon="-1.362460">
        <ele>845.525933</ele>
        <time>2021-11-03T16:20:50.182Z</time>
      </trkpt>
      <trkpt lat="38.812068" lon="-1.362415">
        <ele>845.115717</ele>
        <time>2021-11-03T16:20:50.182Z</time>
      </trkpt>
      <trkpt lat="38.811993" lon="-1.362382">
        <ele>844.680530</ele>
        <time>2021-11-03T16:20:50.182Z</time>
      </trkpt>
      <trkpt lat="38.811915" lon="-1.362357">
        <ele>844.239249</ele>
        <time>2021-11-03T16:20:50.182Z</time>
      </trkpt>
      <trkpt lat="38.811835" lon="-1.362340">
        <ele>843.794161</ele>
        <time>2021-11-03T16:20:50.182Z</time>
      </trkpt>
      <trkpt lat="38.811673" lon="-1.362311">
        <ele>842.896358</ele>
        <time>2021-11-03T16:20:50.182Z</time>
      </trkpt>
      <trkpt lat="38.811513" lon="-1.362272">
        <ele>842.002440</ele>
        <time>2021-11-03T16:20:50.182Z</time>
      </trkpt>
      <trkpt lat="38.811434" lon="-1.362233">
        <ele>841.537844</ele>
        <time>2021-11-03T16:20:50.182Z</time>
      </trkpt>
      <trkpt lat="38.811359" lon="-1.362182">
        <ele>841.071962</ele>
        <time>2021-11-03T16:20:50.182Z</time>
      </trkpt>
      <trkpt lat="38.811288" lon="-1.362118">
        <ele>840.595727</ele>
        <time>2021-11-03T16:20:50.182Z</time>
      </trkpt>
      <trkpt lat="38.811224" lon="-1.362044">
        <ele>840.122891</ele>
        <time>2021-11-03T16:20:50.182Z</time>
      </trkpt>
      <trkpt lat="38.811041" lon="-1.361776">
        <ele>838.598816</ele>
        <time>2021-11-03T16:20:50.182Z</time>
      </trkpt>
      <trkpt lat="38.810985" lon="-1.361680">
        <ele>838.085916</ele>
        <time>2021-11-03T16:20:50.182Z</time>
      </trkpt>
      <trkpt lat="38.810928" lon="-1.361586">
        <ele>837.764391</ele>
        <time>2021-11-03T16:20:50.182Z</time>
      </trkpt>
      <trkpt lat="38.810872" lon="-1.361491">
        <ele>837.503527</ele>
        <time>2021-11-03T16:20:50.182Z</time>
      </trkpt>
      <trkpt lat="38.810816" lon="-1.361397">
        <ele>837.244406</ele>
        <time>2021-11-03T16:20:50.182Z</time>
      </trkpt>
      <trkpt lat="38.810704" lon="-1.361212">
        <ele>836.731367</ele>
        <time>2021-11-03T16:20:50.182Z</time>
      </trkpt>
      <trkpt lat="38.810531" lon="-1.360952">
        <ele>835.982649</ele>
        <time>2021-11-03T16:20:50.182Z</time>
      </trkpt>
      <trkpt lat="38.810264" lon="-1.360549">
        <ele>834.824229</ele>
        <time>2021-11-03T16:20:50.182Z</time>
      </trkpt>
      <trkpt lat="38.810163" lon="-1.360395">
        <ele>834.383427</ele>
        <time>2021-11-03T16:20:50.182Z</time>
      </trkpt>
      <trkpt lat="38.810116" lon="-1.360325">
        <ele>834.181074</ele>
        <time>2021-11-03T16:20:50.182Z</time>
      </trkpt>
      <trkpt lat="38.809992" lon="-1.360111">
        <ele>833.597060</ele>
        <time>2021-11-03T16:20:50.182Z</time>
      </trkpt>
      <trkpt lat="38.809887" lon="-1.359884">
        <ele>833.018957</ele>
        <time>2021-11-03T16:20:50.182Z</time>
      </trkpt>
      <trkpt lat="38.809866" lon="-1.359797">
        <ele>832.948500</ele>
        <time>2021-11-03T16:20:50.182Z</time>
      </trkpt>
      <trkpt lat="38.809831" lon="-1.359688">
        <ele>833.072399</ele>
        <time>2021-11-03T16:20:50.182Z</time>
      </trkpt>
      <trkpt lat="38.809783" lon="-1.359570">
        <ele>833.212293</ele>
        <time>2021-11-03T16:20:50.182Z</time>
      </trkpt>
      <trkpt lat="38.809750" lon="-1.359521">
        <ele>833.280358</ele>
        <time>2021-11-03T16:20:50.182Z</time>
      </trkpt>
      <trkpt lat="38.809710" lon="-1.359484">
        <ele>833.346860</ele>
        <time>2021-11-03T16:20:50.182Z</time>
      </trkpt>
      <trkpt lat="38.809617" lon="-1.359444">
        <ele>833.479148</ele>
        <time>2021-11-03T16:20:50.182Z</time>
      </trkpt>
      <trkpt lat="38.809517" lon="-1.359429">
        <ele>833.614938</ele>
        <time>2021-11-03T16:20:50.182Z</time>
      </trkpt>
      <trkpt lat="38.809061" lon="-1.359366">
        <ele>834.233505</ele>
        <time>2021-11-03T16:20:50.182Z</time>
      </trkpt>
      <trkpt lat="38.808707" lon="-1.359302">
        <ele>834.715665</ele>
        <time>2021-11-03T16:20:50.182Z</time>
      </trkpt>
      <trkpt lat="38.808344" lon="-1.359209">
        <ele>835.214910</ele>
        <time>2021-11-03T16:20:50.182Z</time>
      </trkpt>
      <trkpt lat="38.808295" lon="-1.359183">
        <ele>835.286423</ele>
        <time>2021-11-03T16:20:50.182Z</time>
      </trkpt>
      <trkpt lat="38.808249" lon="-1.359148">
        <ele>835.334522</ele>
        <time>2021-11-03T16:20:50.182Z</time>
      </trkpt>
      <trkpt lat="38.808167" lon="-1.359059">
        <ele>835.345643</ele>
        <time>2021-11-03T16:20:50.182Z</time>
      </trkpt>
      <trkpt lat="38.808134" lon="-1.359004">
        <ele>835.351244</ele>
        <time>2021-11-03T16:20:50.182Z</time>
      </trkpt>
      <trkpt lat="38.808059" lon="-1.358819">
        <ele>835.368072</ele>
        <time>2021-11-03T16:20:50.182Z</time>
      </trkpt>
      <trkpt lat="38.808023" lon="-1.358694">
        <ele>835.378825</ele>
        <time>2021-11-03T16:20:50.182Z</time>
      </trkpt>
      <trkpt lat="38.808010" lon="-1.358635">
        <ele>835.383772</ele>
        <time>2021-11-03T16:20:50.182Z</time>
      </trkpt>
      <trkpt lat="38.807990" lon="-1.358519">
        <ele>835.393359</ele>
        <time>2021-11-03T16:20:50.182Z</time>
      </trkpt>
      <trkpt lat="38.807987" lon="-1.358403">
        <ele>835.402724</ele>
        <time>2021-11-03T16:20:50.182Z</time>
      </trkpt>
      <trkpt lat="38.807988" lon="-1.358346">
        <ele>835.407325</ele>
        <time>2021-11-03T16:20:50.182Z</time>
      </trkpt>
      <trkpt lat="38.807989" lon="-1.358289">
        <ele>835.411926</ele>
        <time>2021-11-03T16:20:50.182Z</time>
      </trkpt>
      <trkpt lat="38.807988" lon="-1.358110">
        <ele>835.426370</ele>
        <time>2021-11-03T16:20:50.182Z</time>
      </trkpt>
      <trkpt lat="38.807986" lon="-1.357979">
        <ele>835.436942</ele>
        <time>2021-11-03T16:20:50.182Z</time>
      </trkpt>
      <trkpt lat="38.807980" lon="-1.357768">
        <ele>835.453980</ele>
        <time>2021-11-03T16:20:50.182Z</time>
      </trkpt>
      <trkpt lat="38.807952" lon="-1.357385">
        <ele>835.485020</ele>
        <time>2021-11-03T16:20:50.182Z</time>
      </trkpt>
      <trkpt lat="38.807951" lon="-1.357298">
        <ele>835.492041</ele>
        <time>2021-11-03T16:20:50.182Z</time>
      </trkpt>
      <trkpt lat="38.807953" lon="-1.357209">
        <ele>835.499226</ele>
        <time>2021-11-03T16:20:50.182Z</time>
      </trkpt>
      <trkpt lat="38.807968" lon="-1.356843">
        <ele>835.104195</ele>
        <time>2021-11-03T16:20:50.182Z</time>
      </trkpt>
      <trkpt lat="38.807966" lon="-1.356748">
        <ele>834.787081</ele>
        <time>2021-11-03T16:20:50.182Z</time>
      </trkpt>
      <trkpt lat="38.807955" lon="-1.356654">
        <ele>834.469903</ele>
        <time>2021-11-03T16:20:50.182Z</time>
      </trkpt>
      <trkpt lat="38.807936" lon="-1.356561">
        <ele>834.149091</ele>
        <time>2021-11-03T16:20:50.182Z</time>
      </trkpt>
      <trkpt lat="38.807911" lon="-1.356468">
        <ele>833.820821</ele>
        <time>2021-11-03T16:20:50.182Z</time>
      </trkpt>
      <trkpt lat="38.807852" lon="-1.356280">
        <ele>833.144535</ele>
        <time>2021-11-03T16:20:50.182Z</time>
      </trkpt>
      <trkpt lat="38.807739" lon="-1.356001">
        <ele>832.095321</ele>
        <time>2021-11-03T16:20:50.182Z</time>
      </trkpt>
      <trkpt lat="38.807696" lon="-1.355912">
        <ele>831.745894</ele>
        <time>2021-11-03T16:20:50.182Z</time>
      </trkpt>
      <trkpt lat="38.807605" lon="-1.355740">
        <ele>831.052176</ele>
        <time>2021-11-03T16:20:50.182Z</time>
      </trkpt>
      <trkpt lat="38.807443" lon="-1.355500">
        <ele>829.992664</ele>
        <time>2021-11-03T16:20:50.182Z</time>
      </trkpt>
      <trkpt lat="38.807383" lon="-1.355426">
        <ele>829.636317</ele>
        <time>2021-11-03T16:20:50.182Z</time>
      </trkpt>
      <trkpt lat="38.807144" lon="-1.355143">
        <ele>828.243786</ele>
        <time>2021-11-03T16:20:50.182Z</time>
      </trkpt>
      <trkpt lat="38.807032" lon="-1.355004">
        <ele>827.579252</ele>
        <time>2021-11-03T16:20:50.182Z</time>
      </trkpt>
      <trkpt lat="38.806726" lon="-1.354597">
        <ele>825.712951</ele>
        <time>2021-11-03T16:20:50.182Z</time>
      </trkpt>
      <trkpt lat="38.806433" lon="-1.354190">
        <ele>823.884440</ele>
        <time>2021-11-03T16:20:50.182Z</time>
      </trkpt>
      <trkpt lat="38.806331" lon="-1.354031">
        <ele>823.204818</ele>
        <time>2021-11-03T16:20:50.182Z</time>
      </trkpt>
      <trkpt lat="38.806273" lon="-1.353952">
        <ele>822.846639</ele>
        <time>2021-11-03T16:20:50.182Z</time>
      </trkpt>
      <trkpt lat="38.806212" lon="-1.353873">
        <ele>822.479632</ele>
        <time>2021-11-03T16:20:50.182Z</time>
      </trkpt>
      <trkpt lat="38.806081" lon="-1.353718">
        <ele>821.725057</ele>
        <time>2021-11-03T16:20:50.182Z</time>
      </trkpt>
      <trkpt lat="38.805941" lon="-1.353573">
        <ele>820.963181</ele>
        <time>2021-11-03T16:20:50.182Z</time>
      </trkpt>
      <trkpt lat="38.805868" lon="-1.353510">
        <ele>820.590638</ele>
        <time>2021-11-03T16:20:50.182Z</time>
      </trkpt>
      <trkpt lat="38.805791" lon="-1.353456">
        <ele>820.219045</ele>
        <time>2021-11-03T16:20:50.182Z</time>
      </trkpt>
      <trkpt lat="38.805710" lon="-1.353414">
        <ele>819.717966</ele>
        <time>2021-11-03T16:20:50.182Z</time>
      </trkpt>
      <trkpt lat="38.805541" lon="-1.353354">
        <ele>818.697971</ele>
        <time>2021-11-03T16:20:50.182Z</time>
      </trkpt>
      <trkpt lat="38.805458" lon="-1.353319">
        <ele>818.189763</ele>
        <time>2021-11-03T16:20:50.182Z</time>
      </trkpt>
      <trkpt lat="38.805303" lon="-1.353199">
        <ele>817.136753</ele>
        <time>2021-11-03T16:20:50.182Z</time>
      </trkpt>
      <trkpt lat="38.805175" lon="-1.353014">
        <ele>816.015301</ele>
        <time>2021-11-03T16:20:50.182Z</time>
      </trkpt>
      <trkpt lat="38.805118" lon="-1.352911">
        <ele>815.442644</ele>
        <time>2021-11-03T16:20:50.182Z</time>
      </trkpt>
      <trkpt lat="38.805060" lon="-1.352807">
        <ele>814.862920</ele>
        <time>2021-11-03T16:20:50.182Z</time>
      </trkpt>
      <trkpt lat="38.805000" lon="-1.352706">
        <ele>814.287221</ele>
        <time>2021-11-03T16:20:50.182Z</time>
      </trkpt>
      <trkpt lat="38.804885" lon="-1.352497">
        <ele>813.127446</ele>
        <time>2021-11-03T16:20:50.182Z</time>
      </trkpt>
      <trkpt lat="38.804829" lon="-1.352395">
        <ele>812.561847</ele>
        <time>2021-11-03T16:20:50.182Z</time>
      </trkpt>
      <trkpt lat="38.804770" lon="-1.352298">
        <ele>812.004058</ele>
        <time>2021-11-03T16:20:50.182Z</time>
      </trkpt>
      <trkpt lat="38.804709" lon="-1.352205">
        <ele>811.453028</ele>
        <time>2021-11-03T16:20:50.182Z</time>
      </trkpt>
      <trkpt lat="38.804589" lon="-1.352027">
        <ele>810.386107</ele>
        <time>2021-11-03T16:20:50.182Z</time>
      </trkpt>
      <trkpt lat="38.804364" lon="-1.351681">
        <ele>809.320176</ele>
        <time>2021-11-03T16:20:50.182Z</time>
      </trkpt>
      <trkpt lat="38.804201" lon="-1.351404">
        <ele>808.849276</ele>
        <time>2021-11-03T16:20:50.182Z</time>
      </trkpt>
      <trkpt lat="38.804067" lon="-1.351126">
        <ele>808.405807</ele>
        <time>2021-11-03T16:20:50.182Z</time>
      </trkpt>
      <trkpt lat="38.804037" lon="-1.351034">
        <ele>808.270507</ele>
        <time>2021-11-03T16:20:50.182Z</time>
      </trkpt>
      <trkpt lat="38.804024" lon="-1.350843">
        <ele>808.010396</ele>
        <time>2021-11-03T16:20:50.182Z</time>
      </trkpt>
      <trkpt lat="38.804057" lon="-1.350567">
        <ele>807.631573</ele>
        <time>2021-11-03T16:20:50.182Z</time>
      </trkpt>
      <trkpt lat="38.804040" lon="-1.350482">
        <ele>807.512519</ele>
        <time>2021-11-03T16:20:50.182Z</time>
      </trkpt>
      <trkpt lat="38.804007" lon="-1.350408">
        <ele>807.396850</ele>
        <time>2021-11-03T16:20:50.182Z</time>
      </trkpt>
      <trkpt lat="38.803915" lon="-1.350294">
        <ele>807.174202</ele>
        <time>2021-11-03T16:20:50.182Z</time>
      </trkpt>
      <trkpt lat="38.803713" lon="-1.350132">
        <ele>806.759510</ele>
        <time>2021-11-03T16:20:50.182Z</time>
      </trkpt>
      <trkpt lat="38.803563" lon="-1.350016">
        <ele>806.654453</ele>
        <time>2021-11-03T16:20:50.182Z</time>
      </trkpt>
      <trkpt lat="38.803513" lon="-1.349977">
        <ele>806.686929</ele>
        <time>2021-11-03T16:20:50.182Z</time>
      </trkpt>
      <trkpt lat="38.803354" lon="-1.349885">
        <ele>806.783734</ele>
        <time>2021-11-03T16:20:50.182Z</time>
      </trkpt>
      <trkpt lat="38.803241" lon="-1.349851">
        <ele>806.848153</ele>
        <time>2021-11-03T16:20:50.182Z</time>
      </trkpt>
      <trkpt lat="38.802954" lon="-1.349812">
        <ele>807.008335</ele>
        <time>2021-11-03T16:20:50.182Z</time>
      </trkpt>
      <trkpt lat="38.802898" lon="-1.349817">
        <ele>807.039491</ele>
        <time>2021-11-03T16:20:50.182Z</time>
      </trkpt>
      <trkpt lat="38.802841" lon="-1.349823">
        <ele>807.071233</ele>
        <time>2021-11-03T16:20:50.182Z</time>
      </trkpt>
      <trkpt lat="38.802537" lon="-1.349876">
        <ele>807.241510</ele>
        <time>2021-11-03T16:20:50.182Z</time>
      </trkpt>
      <trkpt lat="38.802475" lon="-1.349888">
        <ele>807.276311</ele>
        <time>2021-11-03T16:20:50.182Z</time>
      </trkpt>
      <trkpt lat="38.802353" lon="-1.349907">
        <ele>807.344520</ele>
        <time>2021-11-03T16:20:50.182Z</time>
      </trkpt>
      <trkpt lat="38.802168" lon="-1.349913">
        <ele>807.447232</ele>
        <time>2021-11-03T16:20:50.182Z</time>
      </trkpt>
      <trkpt lat="38.802047" lon="-1.349889">
        <ele>807.515187</ele>
        <time>2021-11-03T16:20:50.182Z</time>
      </trkpt>
      <trkpt lat="38.801989" lon="-1.349866">
        <ele>807.548881</ele>
        <time>2021-11-03T16:20:50.182Z</time>
      </trkpt>
      <trkpt lat="38.801934" lon="-1.349834">
        <ele>807.582398</ele>
        <time>2021-11-03T16:20:50.182Z</time>
      </trkpt>
      <trkpt lat="38.801738" lon="-1.349676">
        <ele>807.702081</ele>
        <time>2021-11-03T16:20:50.182Z</time>
      </trkpt>
      <trkpt lat="38.801694" lon="-1.349636">
        <ele>807.729539</ele>
        <time>2021-11-03T16:20:50.182Z</time>
      </trkpt>
      <trkpt lat="38.801480" lon="-1.349425">
        <ele>807.866963</ele>
        <time>2021-11-03T16:20:50.182Z</time>
      </trkpt>
      <trkpt lat="38.801387" lon="-1.349328">
        <ele>807.927989</ele>
        <time>2021-11-03T16:20:50.182Z</time>
      </trkpt>
      <trkpt lat="38.801206" lon="-1.349126">
        <ele>808.050137</ele>
        <time>2021-11-03T16:20:50.182Z</time>
      </trkpt>
      <trkpt lat="38.801167" lon="-1.349068">
        <ele>808.080537</ele>
        <time>2021-11-03T16:20:50.182Z</time>
      </trkpt>
      <trkpt lat="38.800921" lon="-1.348729">
        <ele>808.264353</ele>
        <time>2021-11-03T16:20:50.182Z</time>
      </trkpt>
      <trkpt lat="38.800824" lon="-1.348633">
        <ele>808.326730</ele>
        <time>2021-11-03T16:20:50.182Z</time>
      </trkpt>
      <trkpt lat="38.800460" lon="-1.348206">
        <ele>808.518642</ele>
        <time>2021-11-03T16:20:50.182Z</time>
      </trkpt>
      <trkpt lat="38.800416" lon="-1.348154">
        <ele>808.517763</ele>
        <time>2021-11-03T16:20:50.182Z</time>
      </trkpt>
      <trkpt lat="38.800287" lon="-1.347983">
        <ele>808.515038</ele>
        <time>2021-11-03T16:20:50.182Z</time>
      </trkpt>
      <trkpt lat="38.800199" lon="-1.347869">
        <ele>808.513201</ele>
        <time>2021-11-03T16:20:50.182Z</time>
      </trkpt>
      <trkpt lat="38.800158" lon="-1.347813">
        <ele>808.512321</ele>
        <time>2021-11-03T16:20:50.182Z</time>
      </trkpt>
      <trkpt lat="38.800116" lon="-1.347755">
        <ele>808.511415</ele>
        <time>2021-11-03T16:20:50.182Z</time>
      </trkpt>
      <trkpt lat="38.799879" lon="-1.347395">
        <ele>808.506019</ele>
        <time>2021-11-03T16:20:50.182Z</time>
      </trkpt>
      <trkpt lat="38.799614" lon="-1.346872">
        <ele>808.498876</ele>
        <time>2021-11-03T16:20:50.182Z</time>
      </trkpt>
      <trkpt lat="38.799584" lon="-1.346808">
        <ele>808.498021</ele>
        <time>2021-11-03T16:20:50.182Z</time>
      </trkpt>
      <trkpt lat="38.799488" lon="-1.346610">
        <ele>808.495351</ele>
        <time>2021-11-03T16:20:50.182Z</time>
      </trkpt>
      <trkpt lat="38.799319" lon="-1.346276">
        <ele>808.077191</ele>
        <time>2021-11-03T16:20:50.182Z</time>
      </trkpt>
      <trkpt lat="38.799249" lon="-1.346141">
        <ele>807.826498</ele>
        <time>2021-11-03T16:20:50.182Z</time>
      </trkpt>
      <trkpt lat="38.799209" lon="-1.346078">
        <ele>807.700865</ele>
        <time>2021-11-03T16:20:50.182Z</time>
      </trkpt>
      <trkpt lat="38.799080" lon="-1.345905">
        <ele>807.330690</ele>
        <time>2021-11-03T16:20:50.182Z</time>
      </trkpt>
      <trkpt lat="38.798655" lon="-1.345434">
        <ele>806.216640</ele>
        <time>2021-11-03T16:20:50.182Z</time>
      </trkpt>
      <trkpt lat="38.798603" lon="-1.345390">
        <ele>806.093072</ele>
        <time>2021-11-03T16:20:50.182Z</time>
      </trkpt>
      <trkpt lat="38.798490" lon="-1.345305">
        <ele>805.833222</ele>
        <time>2021-11-03T16:20:50.182Z</time>
      </trkpt>
      <trkpt lat="38.798198" lon="-1.345112">
        <ele>805.181618</ele>
        <time>2021-11-03T16:20:50.182Z</time>
      </trkpt>
      <trkpt lat="38.798023" lon="-1.344991">
        <ele>804.761330</ele>
        <time>2021-11-03T16:20:50.182Z</time>
      </trkpt>
      <trkpt lat="38.797963" lon="-1.344951">
        <ele>804.602082</ele>
        <time>2021-11-03T16:20:50.182Z</time>
      </trkpt>
      <trkpt lat="38.797900" lon="-1.344915">
        <ele>804.439656</ele>
        <time>2021-11-03T16:20:50.182Z</time>
      </trkpt>
      <trkpt lat="38.797835" lon="-1.344883">
        <ele>804.275686</ele>
        <time>2021-11-03T16:20:50.182Z</time>
      </trkpt>
      <trkpt lat="38.797767" lon="-1.344858">
        <ele>804.109088</ele>
        <time>2021-11-03T16:20:50.182Z</time>
      </trkpt>
      <trkpt lat="38.797697" lon="-1.344840">
        <ele>803.940947</ele>
        <time>2021-11-03T16:20:50.182Z</time>
      </trkpt>
      <trkpt lat="38.797628" lon="-1.344823">
        <ele>803.775469</ele>
        <time>2021-11-03T16:20:50.182Z</time>
      </trkpt>
      <trkpt lat="38.797418" lon="-1.344758">
        <ele>803.266691</ele>
        <time>2021-11-03T16:20:50.182Z</time>
      </trkpt>
      <trkpt lat="38.797279" lon="-1.344691">
        <ele>802.916980</ele>
        <time>2021-11-03T16:20:50.182Z</time>
      </trkpt>
      <trkpt lat="38.796884" lon="-1.344410">
        <ele>801.853257</ele>
        <time>2021-11-03T16:20:50.182Z</time>
      </trkpt>
      <trkpt lat="38.796819" lon="-1.344359">
        <ele>801.673814</ele>
        <time>2021-11-03T16:20:50.182Z</time>
      </trkpt>
      <trkpt lat="38.796754" lon="-1.344307">
        <ele>801.493408</ele>
        <time>2021-11-03T16:20:50.182Z</time>
      </trkpt>
      <trkpt lat="38.796572" lon="-1.344133">
        <ele>800.958854</ele>
        <time>2021-11-03T16:20:50.182Z</time>
      </trkpt>
      <trkpt lat="38.796463" lon="-1.344007">
        <ele>800.685877</ele>
        <time>2021-11-03T16:20:50.182Z</time>
      </trkpt>
      <trkpt lat="38.796060" lon="-1.343503">
        <ele>800.621392</ele>
        <time>2021-11-03T16:20:50.182Z</time>
      </trkpt>
      <trkpt lat="38.795810" lon="-1.343198">
        <ele>800.581863</ele>
        <time>2021-11-03T16:20:50.182Z</time>
      </trkpt>
      <trkpt lat="38.795653" lon="-1.343046">
        <ele>800.559326</ele>
        <time>2021-11-03T16:20:50.182Z</time>
      </trkpt>
      <trkpt lat="38.795328" lon="-1.342650">
        <ele>800.507969</ele>
        <time>2021-11-03T16:20:50.182Z</time>
      </trkpt>
      <trkpt lat="38.795157" lon="-1.342232">
        <ele>800.064441</ele>
        <time>2021-11-03T16:20:50.182Z</time>
      </trkpt>
      <trkpt lat="38.795061" lon="-1.341767">
        <ele>799.046219</ele>
        <time>2021-11-03T16:20:50.182Z</time>
      </trkpt>
      <trkpt lat="38.795058" lon="-1.341682">
        <ele>798.866113</ele>
        <time>2021-11-03T16:20:50.182Z</time>
      </trkpt>
      <trkpt lat="38.795061" lon="-1.341413">
        <ele>798.296656</ele>
        <time>2021-11-03T16:20:50.182Z</time>
      </trkpt>
      <trkpt lat="38.795069" lon="-1.341118">
        <ele>797.671844</ele>
        <time>2021-11-03T16:20:50.182Z</time>
      </trkpt>
      <trkpt lat="38.795073" lon="-1.341012">
        <ele>797.447208</ele>
        <time>2021-11-03T16:20:50.182Z</time>
      </trkpt>
      <trkpt lat="38.795076" lon="-1.340904">
        <ele>797.218457</ele>
        <time>2021-11-03T16:20:50.182Z</time>
      </trkpt>
      <trkpt lat="38.795090" lon="-1.340453">
        <ele>796.263058</ele>
        <time>2021-11-03T16:20:50.182Z</time>
      </trkpt>
      <trkpt lat="38.795101" lon="-1.340113">
        <ele>795.573204</ele>
        <time>2021-11-03T16:20:50.182Z</time>
      </trkpt>
      <trkpt lat="38.795105" lon="-1.340002">
        <ele>795.466216</ele>
        <time>2021-11-03T16:20:50.182Z</time>
      </trkpt>
      <trkpt lat="38.795103" lon="-1.339454">
        <ele>794.938579</ele>
        <time>2021-11-03T16:20:50.182Z</time>
      </trkpt>
      <trkpt lat="38.795097" lon="-1.339133">
        <ele>794.629422</ele>
        <time>2021-11-03T16:20:50.182Z</time>
      </trkpt>
      <trkpt lat="38.795059" lon="-1.338416">
        <ele>793.937480</ele>
        <time>2021-11-03T16:20:50.182Z</time>
      </trkpt>
      <trkpt lat="38.795048" lon="-1.338218">
        <ele>793.746356</ele>
        <time>2021-11-03T16:20:50.182Z</time>
      </trkpt>
      <trkpt lat="38.794986" lon="-1.337461">
        <ele>793.476026</ele>
        <time>2021-11-03T16:20:50.182Z</time>
      </trkpt>
      <trkpt lat="38.794969" lon="-1.337371">
        <ele>793.500427</ele>
        <time>2021-11-03T16:20:50.182Z</time>
      </trkpt>
      <trkpt lat="38.794822" lon="-1.336700">
        <ele>793.684082</ele>
        <time>2021-11-03T16:20:50.182Z</time>
      </trkpt>
      <trkpt lat="38.794804" lon="-1.336619">
        <ele>793.706275</ele>
        <time>2021-11-03T16:20:50.182Z</time>
      </trkpt>
      <trkpt lat="38.794596" lon="-1.335987">
        <ele>793.887041</ele>
        <time>2021-11-03T16:20:50.182Z</time>
      </trkpt>
      <trkpt lat="38.794353" lon="-1.335510">
        <ele>794.178555</ele>
        <time>2021-11-03T16:20:50.182Z</time>
      </trkpt>
      <trkpt lat="38.794284" lon="-1.335384">
        <ele>794.328428</ele>
        <time>2021-11-03T16:20:50.182Z</time>
      </trkpt>
      <trkpt lat="38.794216" lon="-1.335259">
        <ele>794.476789</ele>
        <time>2021-11-03T16:20:50.182Z</time>
      </trkpt>
      <trkpt lat="38.794044" lon="-1.334975">
        <ele>794.826833</ele>
        <time>2021-11-03T16:20:50.182Z</time>
      </trkpt>
      <trkpt lat="38.794012" lon="-1.334923">
        <ele>794.891316</ele>
        <time>2021-11-03T16:20:50.182Z</time>
      </trkpt>
      <trkpt lat="38.793979" lon="-1.334872">
        <ele>794.955828</ele>
        <time>2021-11-03T16:20:50.182Z</time>
      </trkpt>
      <trkpt lat="38.793773" lon="-1.334551">
        <ele>795.360520</ele>
        <time>2021-11-03T16:20:50.182Z</time>
      </trkpt>
      <trkpt lat="38.793693" lon="-1.334428">
        <ele>795.516438</ele>
        <time>2021-11-03T16:20:50.182Z</time>
      </trkpt>
      <trkpt lat="38.793611" lon="-1.334296">
        <ele>795.680724</ele>
        <time>2021-11-03T16:20:50.182Z</time>
      </trkpt>
      <trkpt lat="38.793525" lon="-1.334164">
        <ele>795.848168</ele>
        <time>2021-11-03T16:20:50.182Z</time>
      </trkpt>
      <trkpt lat="38.793313" lon="-1.333826">
        <ele>796.142677</ele>
        <time>2021-11-03T16:20:50.182Z</time>
      </trkpt>
      <trkpt lat="38.793176" lon="-1.333636">
        <ele>795.583923</ele>
        <time>2021-11-03T16:20:50.182Z</time>
      </trkpt>
      <trkpt lat="38.793026" lon="-1.333469">
        <ele>795.033864</ele>
        <time>2021-11-03T16:20:50.182Z</time>
      </trkpt>
      <trkpt lat="38.792917" lon="-1.333376">
        <ele>794.671310</ele>
        <time>2021-11-03T16:20:50.182Z</time>
      </trkpt>
      <trkpt lat="38.792860" lon="-1.333334">
        <ele>794.489256</ele>
        <time>2021-11-03T16:20:50.182Z</time>
      </trkpt>
      <trkpt lat="38.792749" lon="-1.333251">
        <ele>794.133420</ele>
        <time>2021-11-03T16:20:50.182Z</time>
      </trkpt>
      <trkpt lat="38.792642" lon="-1.333165">
        <ele>793.783717</ele>
        <time>2021-11-03T16:20:50.182Z</time>
      </trkpt>
      <trkpt lat="38.792362" lon="-1.332829">
        <ele>792.721867</ele>
        <time>2021-11-03T16:20:50.182Z</time>
      </trkpt>
      <trkpt lat="38.792127" lon="-1.332342">
        <ele>791.485385</ele>
        <time>2021-11-03T16:20:50.182Z</time>
      </trkpt>
      <trkpt lat="38.792093" lon="-1.332266">
        <ele>791.296216</ele>
        <time>2021-11-03T16:20:50.182Z</time>
      </trkpt>
      <trkpt lat="38.791930" lon="-1.331857">
        <ele>790.658421</ele>
        <time>2021-11-03T16:20:50.182Z</time>
      </trkpt>
      <trkpt lat="38.791874" lon="-1.331671">
        <ele>790.389243</ele>
        <time>2021-11-03T16:20:50.182Z</time>
      </trkpt>
      <trkpt lat="38.791751" lon="-1.331306">
        <ele>789.852418</ele>
        <time>2021-11-03T16:20:50.182Z</time>
      </trkpt>
      <trkpt lat="38.791726" lon="-1.331215">
        <ele>789.722161</ele>
        <time>2021-11-03T16:20:50.182Z</time>
      </trkpt>
      <trkpt lat="38.791701" lon="-1.331127">
        <ele>789.595718</ele>
        <time>2021-11-03T16:20:50.182Z</time>
      </trkpt>
      <trkpt lat="38.791563" lon="-1.330696">
        <ele>788.966693</ele>
        <time>2021-11-03T16:20:50.182Z</time>
      </trkpt>
      <trkpt lat="38.791375" lon="-1.330026">
        <ele>788.242217</ele>
        <time>2021-11-03T16:20:50.182Z</time>
      </trkpt>
      <trkpt lat="38.791316" lon="-1.329874">
        <ele>788.435766</ele>
        <time>2021-11-03T16:20:50.182Z</time>
      </trkpt>
      <trkpt lat="38.791230" lon="-1.329753">
        <ele>788.622417</ele>
        <time>2021-11-03T16:20:50.182Z</time>
      </trkpt>
      <trkpt lat="38.791129" lon="-1.329651">
        <ele>788.810387</ele>
        <time>2021-11-03T16:20:50.182Z</time>
      </trkpt>
      <trkpt lat="38.790883" lon="-1.329456">
        <ele>789.233259</ele>
        <time>2021-11-03T16:20:50.182Z</time>
      </trkpt>
      <trkpt lat="38.790839" lon="-1.329418">
        <ele>789.310824</ele>
        <time>2021-11-03T16:20:50.182Z</time>
      </trkpt>
      <trkpt lat="38.790755" lon="-1.329343">
        <ele>789.460483</ele>
        <time>2021-11-03T16:20:50.182Z</time>
      </trkpt>
      <trkpt lat="38.790592" lon="-1.329198">
        <ele>789.750545</ele>
        <time>2021-11-03T16:20:50.182Z</time>
      </trkpt>
      <trkpt lat="38.790434" lon="-1.329057">
        <ele>790.032001</ele>
        <time>2021-11-03T16:20:50.182Z</time>
      </trkpt>
      <trkpt lat="38.790395" lon="-1.329022">
        <ele>790.101602</ele>
        <time>2021-11-03T16:20:50.182Z</time>
      </trkpt>
      <trkpt lat="38.790123" lon="-1.328770">
        <ele>790.592242</ele>
        <time>2021-11-03T16:20:50.182Z</time>
      </trkpt>
      <trkpt lat="38.790050" lon="-1.328699">
        <ele>790.726205</ele>
        <time>2021-11-03T16:20:50.182Z</time>
      </trkpt>
      <trkpt lat="38.790014" lon="-1.328664">
        <ele>790.880126</ele>
        <time>2021-11-03T16:20:50.182Z</time>
      </trkpt>
      <trkpt lat="38.789305" lon="-1.328049">
        <ele>796.036798</ele>
        <time>2021-11-03T16:20:50.182Z</time>
      </trkpt>
      <trkpt lat="38.789306" lon="-1.328049">
        <ele>796.042823</ele>
        <time>2021-11-03T16:20:50.182Z</time>
      </trkpt>
      <trkpt lat="38.789308" lon="-1.328047">
        <ele>796.058102</ele>
        <time>2021-11-03T16:20:50.182Z</time>
      </trkpt>
      <trkpt lat="38.789312" lon="-1.328044">
        <ele>796.086019</ele>
        <time>2021-11-03T16:20:50.182Z</time>
      </trkpt>
      <trkpt lat="38.789312" lon="-1.328043">
        <ele>796.090716</ele>
        <time>2021-11-03T16:20:50.182Z</time>
      </trkpt>
      <trkpt lat="38.788811" lon="-1.328237">
        <ele>799.243866</ele>
        <time>2021-11-03T16:20:50.182Z</time>
      </trkpt>
      <trkpt lat="38.788734" lon="-1.328313">
        <ele>799.829223</ele>
        <time>2021-11-03T16:20:50.182Z</time>
      </trkpt>
      <trkpt lat="38.788553" lon="-1.328425">
        <ele>801.040016</ele>
        <time>2021-11-03T16:20:50.182Z</time>
      </trkpt>
      <trkpt lat="38.787873" lon="-1.328882">
        <ele>802.914863</ele>
        <time>2021-11-03T16:20:50.182Z</time>
      </trkpt>
      <trkpt lat="38.785487" lon="-1.330369">
        <ele>807.928178</ele>
        <time>2021-11-03T16:20:50.182Z</time>
      </trkpt>
      <trkpt lat="38.786260" lon="-1.327650">
        <ele>797.815806</ele>
        <time>2021-11-03T16:20:50.182Z</time>
      </trkpt>
      <trkpt lat="38.785765" lon="-1.327485">
        <ele>796.672943</ele>
        <time>2021-11-03T16:20:50.182Z</time>
      </trkpt>
      <trkpt lat="38.785270" lon="-1.327320">
        <ele>795.530080</ele>
        <time>2021-11-03T16:20:50.182Z</time>
      </trkpt>
      <trkpt lat="38.784825" lon="-1.327210">
        <ele>794.517385</ele>
        <time>2021-11-03T16:20:50.182Z</time>
      </trkpt>
      <trkpt lat="38.784380" lon="-1.327100">
        <ele>793.864180</ele>
        <time>2021-11-03T16:20:50.182Z</time>
      </trkpt>
      <trkpt lat="38.784180" lon="-1.327180">
        <ele>793.633015</ele>
        <time>2021-11-03T16:20:50.182Z</time>
      </trkpt>
      <trkpt lat="38.784000" lon="-1.327210">
        <ele>793.432728</ele>
        <time>2021-11-03T16:20:50.182Z</time>
      </trkpt>
      <trkpt lat="38.783450" lon="-1.327350">
        <ele>792.814011</ele>
        <time>2021-11-03T16:20:50.182Z</time>
      </trkpt>
      <trkpt lat="38.783030" lon="-1.327420">
        <ele>792.346676</ele>
        <time>2021-11-03T16:20:50.182Z</time>
      </trkpt>
      <trkpt lat="38.782403" lon="-1.327470">
        <ele>790.656625</ele>
        <time>2021-11-03T16:20:50.182Z</time>
      </trkpt>
      <trkpt lat="38.781777" lon="-1.327520">
        <ele>788.768192</ele>
        <time>2021-11-03T16:20:50.182Z</time>
      </trkpt>
      <trkpt lat="38.781150" lon="-1.327570">
        <ele>786.876754</ele>
        <time>2021-11-03T16:20:50.182Z</time>
      </trkpt>
      <trkpt lat="38.780580" lon="-1.327720">
        <ele>785.748004</ele>
        <time>2021-11-03T16:20:50.182Z</time>
      </trkpt>
      <trkpt lat="38.780010" lon="-1.327870">
        <ele>784.642117</ele>
        <time>2021-11-03T16:20:50.182Z</time>
      </trkpt>
      <trkpt lat="38.779250" lon="-1.328010">
        <ele>783.257315</ele>
        <time>2021-11-03T16:20:50.182Z</time>
      </trkpt>
      <trkpt lat="38.779000" lon="-1.328100">
        <ele>782.935958</ele>
        <time>2021-11-03T16:20:50.182Z</time>
      </trkpt>
      <trkpt lat="38.778260" lon="-1.328430">
        <ele>781.966356</ele>
        <time>2021-11-03T16:20:50.182Z</time>
      </trkpt>
      <trkpt lat="38.778050" lon="-1.328480">
        <ele>781.702017</ele>
        <time>2021-11-03T16:20:50.182Z</time>
      </trkpt>
      <trkpt lat="38.777890" lon="-1.328500">
        <ele>781.503060</ele>
        <time>2021-11-03T16:20:50.182Z</time>
      </trkpt>
      <trkpt lat="38.777450" lon="-1.328610">
        <ele>780.398849</ele>
        <time>2021-11-03T16:20:50.182Z</time>
      </trkpt>
      <trkpt lat="38.777240" lon="-1.328640">
        <ele>779.490178</ele>
        <time>2021-11-03T16:20:50.182Z</time>
      </trkpt>
      <trkpt lat="38.777000" lon="-1.328640">
        <ele>778.458078</ele>
        <time>2021-11-03T16:20:50.182Z</time>
      </trkpt>
      <trkpt lat="38.776830" lon="-1.328670">
        <ele>777.720121</ele>
        <time>2021-11-03T16:20:50.182Z</time>
      </trkpt>
      <trkpt lat="38.776670" lon="-1.328720">
        <ele>777.011930</ele>
        <time>2021-11-03T16:20:50.182Z</time>
      </trkpt>
      <trkpt lat="38.776530" lon="-1.328670">
        <ele>776.386971</ele>
        <time>2021-11-03T16:20:50.182Z</time>
      </trkpt>
      <trkpt lat="38.776420" lon="-1.328440">
        <ele>775.482339</ele>
        <time>2021-11-03T16:20:50.182Z</time>
      </trkpt>
      <trkpt lat="38.776260" lon="-1.328270">
        <ele>774.588881</ele>
        <time>2021-11-03T16:20:50.182Z</time>
      </trkpt>
      <trkpt lat="38.776150" lon="-1.328210">
        <ele>774.074842</ele>
        <time>2021-11-03T16:20:50.182Z</time>
      </trkpt>
      <trkpt lat="38.776030" lon="-1.328210">
        <ele>773.558792</ele>
        <time>2021-11-03T16:20:50.182Z</time>
      </trkpt>
      <trkpt lat="38.775790" lon="-1.328280">
        <ele>772.637557</ele>
        <time>2021-11-03T16:20:50.182Z</time>
      </trkpt>
      <trkpt lat="38.775670" lon="-1.328270">
        <ele>772.196307</ele>
        <time>2021-11-03T16:20:50.182Z</time>
      </trkpt>
      <trkpt lat="38.775590" lon="-1.328170">
        <ele>771.786426</ele>
        <time>2021-11-03T16:20:50.182Z</time>
      </trkpt>
      <trkpt lat="38.775530" lon="-1.328030">
        <ele>771.329412</ele>
        <time>2021-11-03T16:20:50.182Z</time>
      </trkpt>
      <trkpt lat="38.775540" lon="-1.327820">
        <ele>770.727558</ele>
        <time>2021-11-03T16:20:50.182Z</time>
      </trkpt>
      <trkpt lat="38.775720" lon="-1.327280">
        <ele>769.047537</ele>
        <time>2021-11-03T16:20:50.182Z</time>
      </trkpt>
      <trkpt lat="38.775740" lon="-1.327010">
        <ele>768.271688</ele>
        <time>2021-11-03T16:20:50.182Z</time>
      </trkpt>
      <trkpt lat="38.775730" lon="-1.326335">
        <ele>766.647775</ele>
        <time>2021-11-03T16:20:50.182Z</time>
      </trkpt>
      <trkpt lat="38.775720" lon="-1.325660">
        <ele>765.915438</ele>
        <time>2021-11-03T16:20:50.182Z</time>
      </trkpt>
      <trkpt lat="38.775790" lon="-1.325620">
        <ele>765.808812</ele>
        <time>2021-11-03T16:20:50.182Z</time>
      </trkpt>
      <trkpt lat="38.775750" lon="-1.325490">
        <ele>765.657209</ele>
        <time>2021-11-03T16:20:50.182Z</time>
      </trkpt>
      <trkpt lat="38.775040" lon="-1.324880">
        <ele>764.468179</ele>
        <time>2021-11-03T16:20:50.182Z</time>
      </trkpt>
      <trkpt lat="38.774380" lon="-1.324160">
        <ele>763.208793</ele>
        <time>2021-11-03T16:20:50.182Z</time>
      </trkpt>
      <trkpt lat="38.774230" lon="-1.324040">
        <ele>762.950440</ele>
        <time>2021-11-03T16:20:50.182Z</time>
      </trkpt>
      <trkpt lat="38.774060" lon="-1.323930">
        <ele>762.672179</ele>
        <time>2021-11-03T16:20:50.182Z</time>
      </trkpt>
      <trkpt lat="38.773630" lon="-1.323760">
        <ele>762.014600</ele>
        <time>2021-11-03T16:20:50.182Z</time>
      </trkpt>
      <trkpt lat="38.773110" lon="-1.323450">
        <ele>761.184637</ele>
        <time>2021-11-03T16:20:50.182Z</time>
      </trkpt>
      <trkpt lat="38.772700" lon="-1.323130">
        <ele>760.493934</ele>
        <time>2021-11-03T16:20:50.182Z</time>
      </trkpt>
      <trkpt lat="38.772500" lon="-1.322940">
        <ele>760.135755</ele>
        <time>2021-11-03T16:20:50.182Z</time>
      </trkpt>
      <trkpt lat="38.772130" lon="-1.322485">
        <ele>759.398078</ele>
        <time>2021-11-03T16:20:50.182Z</time>
      </trkpt>
      <trkpt lat="38.771760" lon="-1.322030">
        <ele>758.770554</ele>
        <time>2021-11-03T16:20:50.182Z</time>
      </trkpt>
      <trkpt lat="38.771370" lon="-1.321490">
        <ele>758.144415</ele>
        <time>2021-11-03T16:20:50.182Z</time>
      </trkpt>
      <trkpt lat="38.771220" lon="-1.321490">
        <ele>757.980758</ele>
        <time>2021-11-03T16:20:50.182Z</time>
      </trkpt>
      <trkpt lat="38.770690" lon="-1.321590">
        <ele>757.396282</ele>
        <time>2021-11-03T16:20:50.182Z</time>
      </trkpt>
      <trkpt lat="38.770400" lon="-1.321620">
        <ele>757.156775</ele>
        <time>2021-11-03T16:20:50.182Z</time>
      </trkpt>
      <trkpt lat="38.770170" lon="-1.321420">
        <ele>757.170465</ele>
        <time>2021-11-03T16:20:50.182Z</time>
      </trkpt>
      <trkpt lat="38.769810" lon="-1.321180">
        <ele>757.190453</ele>
        <time>2021-11-03T16:20:50.182Z</time>
      </trkpt>
      <trkpt lat="38.769660" lon="-1.321050">
        <ele>757.199372</ele>
        <time>2021-11-03T16:20:50.182Z</time>
      </trkpt>
      <trkpt lat="38.769390" lon="-1.320770">
        <ele>757.216478</ele>
        <time>2021-11-03T16:20:50.182Z</time>
      </trkpt>
      <trkpt lat="38.768925" lon="-1.320605">
        <ele>757.240247</ele>
        <time>2021-11-03T16:20:50.182Z</time>
      </trkpt>
      <trkpt lat="38.768460" lon="-1.320440">
        <ele>757.727895</ele>
        <time>2021-11-03T16:20:50.182Z</time>
      </trkpt>
      <trkpt lat="38.768100" lon="-1.320330">
        <ele>758.130625</ele>
        <time>2021-11-03T16:20:50.182Z</time>
      </trkpt>
      <trkpt lat="38.767570" lon="-1.320300">
        <ele>758.707953</ele>
        <time>2021-11-03T16:20:50.182Z</time>
      </trkpt>
      <trkpt lat="38.767450" lon="-1.320270">
        <ele>758.841000</ele>
        <time>2021-11-03T16:20:50.182Z</time>
      </trkpt>
      <trkpt lat="38.767220" lon="-1.320110">
        <ele>759.125742</ele>
        <time>2021-11-03T16:20:50.182Z</time>
      </trkpt>
      <trkpt lat="38.767090" lon="-1.319970">
        <ele>759.311147</ele>
        <time>2021-11-03T16:20:50.182Z</time>
      </trkpt>
      <trkpt lat="38.766980" lon="-1.319900">
        <ele>759.445591</ele>
        <time>2021-11-03T16:20:50.182Z</time>
      </trkpt>
      <trkpt lat="38.766360" lon="-1.319620">
        <ele>760.165255</ele>
        <time>2021-11-03T16:20:50.182Z</time>
      </trkpt>
      <trkpt lat="38.766050" lon="-1.319540">
        <ele>760.511463</ele>
        <time>2021-11-03T16:20:50.182Z</time>
      </trkpt>
      <trkpt lat="38.765730" lon="-1.319500">
        <ele>760.863477</ele>
        <time>2021-11-03T16:20:50.182Z</time>
      </trkpt>
      <trkpt lat="38.765460" lon="-1.319530">
        <ele>761.160195</ele>
        <time>2021-11-03T16:20:50.182Z</time>
      </trkpt>
      <trkpt lat="38.765200" lon="-1.319590">
        <ele>761.030159</ele>
        <time>2021-11-03T16:20:50.182Z</time>
      </trkpt>
      <trkpt lat="38.764550" lon="-1.319570">
        <ele>760.679122</ele>
        <time>2021-11-03T16:20:50.182Z</time>
      </trkpt>
      <trkpt lat="38.764130" lon="-1.319490">
        <ele>760.449876</ele>
        <time>2021-11-03T16:20:50.182Z</time>
      </trkpt>
      <trkpt lat="38.763780" lon="-1.319260">
        <ele>760.237549</ele>
        <time>2021-11-03T16:20:50.182Z</time>
      </trkpt>
      <trkpt lat="38.763610" lon="-1.319200">
        <ele>760.119403</ele>
        <time>2021-11-03T16:20:50.182Z</time>
      </trkpt>
      <trkpt lat="38.763260" lon="-1.318590">
        <ele>759.667979</ele>
        <time>2021-11-03T16:20:50.182Z</time>
      </trkpt>
      <trkpt lat="38.762940" lon="-1.318270">
        <ele>759.357788</ele>
        <time>2021-11-03T16:20:50.182Z</time>
      </trkpt>
      <trkpt lat="38.762490" lon="-1.318030">
        <ele>758.985234</ele>
        <time>2021-11-03T16:20:50.182Z</time>
      </trkpt>
      <trkpt lat="38.762140" lon="-1.317900">
        <ele>758.837526</ele>
        <time>2021-11-03T16:20:50.182Z</time>
      </trkpt>
      <trkpt lat="38.761820" lon="-1.317870">
        <ele>758.869103</ele>
        <time>2021-11-03T16:20:50.182Z</time>
      </trkpt>
      <trkpt lat="38.761380" lon="-1.317770">
        <ele>758.913081</ele>
        <time>2021-11-03T16:20:50.182Z</time>
      </trkpt>
      <trkpt lat="38.761060" lon="-1.317600">
        <ele>758.947170</ele>
        <time>2021-11-03T16:20:50.182Z</time>
      </trkpt>
      <trkpt lat="38.760500" lon="-1.317390">
        <ele>758.993909</ele>
        <time>2021-11-03T16:20:50.182Z</time>
      </trkpt>
      <trkpt lat="38.760030" lon="-1.317320">
        <ele>758.940439</ele>
        <time>2021-11-03T16:20:50.182Z</time>
      </trkpt>
      <trkpt lat="38.759610" lon="-1.317330">
        <ele>758.892968</ele>
        <time>2021-11-03T16:20:50.182Z</time>
      </trkpt>
      <trkpt lat="38.758980" lon="-1.317260">
        <ele>758.821507</ele>
        <time>2021-11-03T16:20:50.182Z</time>
      </trkpt>
      <trkpt lat="38.758670" lon="-1.317010">
        <ele>758.793074</ele>
        <time>2021-11-03T16:20:50.182Z</time>
      </trkpt>
      <trkpt lat="38.758130" lon="-1.316815">
        <ele>758.780242</ele>
        <time>2021-11-03T16:20:50.182Z</time>
      </trkpt>
      <trkpt lat="38.757590" lon="-1.316620">
        <ele>758.767411</ele>
        <time>2021-11-03T16:20:50.182Z</time>
      </trkpt>
      <trkpt lat="38.756930" lon="-1.316650">
        <ele>758.922898</ele>
        <time>2021-11-03T16:20:50.182Z</time>
      </trkpt>
      <trkpt lat="38.756400" lon="-1.316780">
        <ele>759.632845</ele>
        <time>2021-11-03T16:20:50.182Z</time>
      </trkpt>
      <trkpt lat="38.755685" lon="-1.316590">
        <ele>760.593536</ele>
        <time>2021-11-03T16:20:50.182Z</time>
      </trkpt>
      <trkpt lat="38.754970" lon="-1.316400">
        <ele>760.885275</ele>
        <time>2021-11-03T16:20:50.182Z</time>
      </trkpt>
      <trkpt lat="38.754290" lon="-1.316130">
        <ele>760.373521</ele>
        <time>2021-11-03T16:20:50.182Z</time>
      </trkpt>
      <trkpt lat="38.753940" lon="-1.316060">
        <ele>760.118862</ele>
        <time>2021-11-03T16:20:50.182Z</time>
      </trkpt>
      <trkpt lat="38.753500" lon="-1.316010">
        <ele>759.813541</ele>
        <time>2021-11-03T16:20:50.182Z</time>
      </trkpt>
      <trkpt lat="38.752720" lon="-1.316250">
        <ele>759.495489</ele>
        <time>2021-11-03T16:20:50.182Z</time>
      </trkpt>
      <trkpt lat="38.752100" lon="-1.316315">
        <ele>759.248837</ele>
        <time>2021-11-03T16:20:50.182Z</time>
      </trkpt>
      <trkpt lat="38.751480" lon="-1.316380">
        <ele>759.384720</ele>
        <time>2021-11-03T16:20:50.182Z</time>
      </trkpt>
      <trkpt lat="38.751140" lon="-1.316350">
        <ele>759.706079</ele>
        <time>2021-11-03T16:20:50.182Z</time>
      </trkpt>
      <trkpt lat="38.750610" lon="-1.316470">
        <ele>760.213570</ele>
        <time>2021-11-03T16:20:50.182Z</time>
      </trkpt>
      <trkpt lat="38.750130" lon="-1.316690">
        <ele>760.694228</ele>
        <time>2021-11-03T16:20:50.182Z</time>
      </trkpt>
      <trkpt lat="38.749720" lon="-1.316810">
        <ele>761.270907</ele>
        <time>2021-11-03T16:20:50.182Z</time>
      </trkpt>
      <trkpt lat="38.749340" lon="-1.317020">
        <ele>761.912694</ele>
        <time>2021-11-03T16:20:50.182Z</time>
      </trkpt>
      <trkpt lat="38.748720" lon="-1.317250">
        <ele>762.913746</ele>
        <time>2021-11-03T16:20:50.182Z</time>
      </trkpt>
      <trkpt lat="38.748480" lon="-1.317460">
        <ele>763.364398</ele>
        <time>2021-11-03T16:20:50.182Z</time>
      </trkpt>
      <trkpt lat="38.748160" lon="-1.317660">
        <ele>763.571377</ele>
        <time>2021-11-03T16:20:50.182Z</time>
      </trkpt>
      <trkpt lat="38.747490" lon="-1.317830">
        <ele>763.471474</ele>
        <time>2021-11-03T16:20:50.182Z</time>
      </trkpt>
      <trkpt lat="38.747090" lon="-1.317860">
        <ele>763.412864</ele>
        <time>2021-11-03T16:20:50.182Z</time>
      </trkpt>
      <trkpt lat="38.746690" lon="-1.317720">
        <ele>763.352214</ele>
        <time>2021-11-03T16:20:50.182Z</time>
      </trkpt>
      <trkpt lat="38.746200" lon="-1.317690">
        <ele>763.088887</ele>
        <time>2021-11-03T16:20:50.182Z</time>
      </trkpt>
      <trkpt lat="38.745640" lon="-1.317500">
        <ele>762.722204</ele>
        <time>2021-11-03T16:20:50.182Z</time>
      </trkpt>
      <trkpt lat="38.744990" lon="-1.317430">
        <ele>762.309303</ele>
        <time>2021-11-03T16:20:50.182Z</time>
      </trkpt>
      <trkpt lat="38.744680" lon="-1.317380">
        <ele>762.049298</ele>
        <time>2021-11-03T16:20:50.182Z</time>
      </trkpt>
      <trkpt lat="38.744300" lon="-1.317350">
        <ele>761.637804</ele>
        <time>2021-11-03T16:20:50.182Z</time>
      </trkpt>
      <trkpt lat="38.743920" lon="-1.317190">
        <ele>761.205508</ele>
        <time>2021-11-03T16:20:50.182Z</time>
      </trkpt>
      <trkpt lat="38.743440" lon="-1.316740">
        <ele>760.562812</ele>
        <time>2021-11-03T16:20:50.182Z</time>
      </trkpt>
      <trkpt lat="38.742915" lon="-1.316510">
        <ele>759.716378</ele>
        <time>2021-11-03T16:20:50.182Z</time>
      </trkpt>
      <trkpt lat="38.742390" lon="-1.316280">
        <ele>758.610432</ele>
        <time>2021-11-03T16:20:50.182Z</time>
      </trkpt>
      <trkpt lat="38.742110" lon="-1.316030">
        <ele>757.930270</ele>
        <time>2021-11-03T16:20:50.182Z</time>
      </trkpt>
      <trkpt lat="38.741950" lon="-1.316010">
        <ele>757.609813</ele>
        <time>2021-11-03T16:20:50.182Z</time>
      </trkpt>
      <trkpt lat="38.741500" lon="-1.316010">
        <ele>756.712782</ele>
        <time>2021-11-03T16:20:50.182Z</time>
      </trkpt>
      <trkpt lat="38.741050" lon="-1.316010">
        <ele>756.673570</ele>
        <time>2021-11-03T16:20:50.182Z</time>
      </trkpt>
      <trkpt lat="38.740220" lon="-1.316150">
        <ele>756.680480</ele>
        <time>2021-11-03T16:20:50.182Z</time>
      </trkpt>
      <trkpt lat="38.739890" lon="-1.316170">
        <ele>756.683207</ele>
        <time>2021-11-03T16:20:50.182Z</time>
      </trkpt>
      <trkpt lat="38.739720" lon="-1.316090">
        <ele>756.684701</ele>
        <time>2021-11-03T16:20:50.182Z</time>
      </trkpt>
      <trkpt lat="38.739740" lon="-1.316110">
        <ele>756.681062</ele>
        <time>2021-11-03T16:20:50.182Z</time>
      </trkpt>
      <trkpt lat="38.739060" lon="-1.315420">
        <ele>755.829568</ele>
        <time>2021-11-03T16:20:50.182Z</time>
      </trkpt>
      <trkpt lat="38.738550" lon="-1.314810">
        <ele>755.144723</ele>
        <time>2021-11-03T16:20:50.182Z</time>
      </trkpt>
      <trkpt lat="38.738175" lon="-1.314220">
        <ele>755.358112</ele>
        <time>2021-11-03T16:20:50.182Z</time>
      </trkpt>
      <trkpt lat="38.737800" lon="-1.313630">
        <ele>756.075328</ele>
        <time>2021-11-03T16:20:50.182Z</time>
      </trkpt>
      <trkpt lat="38.737560" lon="-1.313080">
        <ele>756.669229</ele>
        <time>2021-11-03T16:20:50.182Z</time>
      </trkpt>
      <trkpt lat="38.737440" lon="-1.312720">
        <ele>757.038166</ele>
        <time>2021-11-03T16:20:50.182Z</time>
      </trkpt>
      <trkpt lat="38.737230" lon="-1.312480">
        <ele>757.791814</ele>
        <time>2021-11-03T16:20:50.182Z</time>
      </trkpt>
      <trkpt lat="38.736635" lon="-1.312160">
        <ele>759.698409</ele>
        <time>2021-11-03T16:20:50.182Z</time>
      </trkpt>
      <trkpt lat="38.736040" lon="-1.311840">
        <ele>761.605006</ele>
        <time>2021-11-03T16:20:50.182Z</time>
      </trkpt>
      <trkpt lat="38.735570" lon="-1.312060">
        <ele>763.181740</ele>
        <time>2021-11-03T16:20:50.182Z</time>
      </trkpt>
      <trkpt lat="38.735300" lon="-1.312710">
        <ele>765.125555</ele>
        <time>2021-11-03T16:20:50.182Z</time>
      </trkpt>
      <trkpt lat="38.734920" lon="-1.313190">
        <ele>766.930750</ele>
        <time>2021-11-03T16:20:50.182Z</time>
      </trkpt>
      <trkpt lat="38.734400" lon="-1.313390">
        <ele>768.888237</ele>
        <time>2021-11-03T16:20:50.182Z</time>
      </trkpt>
      <trkpt lat="38.733960" lon="-1.313160">
        <ele>771.200491</ele>
        <time>2021-11-03T16:20:50.182Z</time>
      </trkpt>
      <trkpt lat="38.733320" lon="-1.312510">
        <ele>775.173746</ele>
        <time>2021-11-03T16:20:50.182Z</time>
      </trkpt>
      <trkpt lat="38.732680" lon="-1.311860">
        <ele>778.680229</ele>
        <time>2021-11-03T16:20:50.182Z</time>
      </trkpt>
      <trkpt lat="38.732170" lon="-1.311580">
        <ele>780.717264</ele>
        <time>2021-11-03T16:20:50.182Z</time>
      </trkpt>
      <trkpt lat="38.731660" lon="-1.311300">
        <ele>782.754301</ele>
        <time>2021-11-03T16:20:50.182Z</time>
      </trkpt>
      <trkpt lat="38.731040" lon="-1.311200">
        <ele>784.749570</ele>
        <time>2021-11-03T16:20:50.182Z</time>
      </trkpt>
      <trkpt lat="38.730920" lon="-1.311110">
        <ele>785.132728</ele>
        <time>2021-11-03T16:20:50.182Z</time>
      </trkpt>
      <trkpt lat="38.730630" lon="-1.310600">
        <ele>786.489549</ele>
        <time>2021-11-03T16:20:50.182Z</time>
      </trkpt>
      <trkpt lat="38.730120" lon="-1.310000">
        <ele>788.397294</ele>
        <time>2021-11-03T16:20:50.182Z</time>
      </trkpt>
      <trkpt lat="38.729760" lon="-1.309660">
        <ele>789.516093</ele>
        <time>2021-11-03T16:20:50.182Z</time>
      </trkpt>
      <trkpt lat="38.729280" lon="-1.309450">
        <ele>790.721094</ele>
        <time>2021-11-03T16:20:50.182Z</time>
      </trkpt>
      <trkpt lat="38.728970" lon="-1.309210">
        <ele>791.581514</ele>
        <time>2021-11-03T16:20:50.182Z</time>
      </trkpt>
      <trkpt lat="38.728750" lon="-1.308890">
        <ele>792.372066</ele>
        <time>2021-11-03T16:20:50.182Z</time>
      </trkpt>
      <trkpt lat="38.728590" lon="-1.308500">
        <ele>793.051736</ele>
        <time>2021-11-03T16:20:50.182Z</time>
      </trkpt>
      <trkpt lat="38.728110" lon="-1.307890">
        <ele>792.640396</ele>
        <time>2021-11-03T16:20:50.182Z</time>
      </trkpt>
      <trkpt lat="38.727900" lon="-1.307560">
        <ele>792.438211</ele>
        <time>2021-11-03T16:20:50.182Z</time>
      </trkpt>
      <trkpt lat="38.727760" lon="-1.307280">
        <ele>792.280318</ele>
        <time>2021-11-03T16:20:50.182Z</time>
      </trkpt>
      <trkpt lat="38.727540" lon="-1.306970">
        <ele>792.081354</ele>
        <time>2021-11-03T16:20:50.182Z</time>
      </trkpt>
      <trkpt lat="38.727440" lon="-1.306980">
        <ele>792.020312</ele>
        <time>2021-11-03T16:20:50.182Z</time>
      </trkpt>
      <trkpt lat="38.727360" lon="-1.306940">
        <ele>791.859054</ele>
        <time>2021-11-03T16:20:50.182Z</time>
      </trkpt>
      <trkpt lat="38.727175" lon="-1.306330">
        <ele>789.558786</ele>
        <time>2021-11-03T16:20:50.182Z</time>
      </trkpt>
      <trkpt lat="38.726990" lon="-1.305720">
        <ele>787.258513</ele>
        <time>2021-11-03T16:20:50.182Z</time>
      </trkpt>
      <trkpt lat="38.726870" lon="-1.305450">
        <ele>786.166348</ele>
        <time>2021-11-03T16:20:50.182Z</time>
      </trkpt>
      <trkpt lat="38.726780" lon="-1.304910">
        <ele>784.225577</ele>
        <time>2021-11-03T16:20:50.182Z</time>
      </trkpt>
      <trkpt lat="38.726570" lon="-1.304390">
        <ele>782.813444</ele>
        <time>2021-11-03T16:20:50.182Z</time>
      </trkpt>
      <trkpt lat="38.726265" lon="-1.303445">
        <ele>780.573335</ele>
        <time>2021-11-03T16:20:50.182Z</time>
      </trkpt>
      <trkpt lat="38.725960" lon="-1.302500">
        <ele>778.474452</ele>
        <time>2021-11-03T16:20:50.182Z</time>
      </trkpt>
      <trkpt lat="38.725655" lon="-1.301555">
        <ele>776.869095</ele>
        <time>2021-11-03T16:20:50.182Z</time>
      </trkpt>
      <trkpt lat="38.725350" lon="-1.300610">
        <ele>775.263732</ele>
        <time>2021-11-03T16:20:50.182Z</time>
      </trkpt>
      <trkpt lat="38.724900" lon="-1.300185">
        <ele>774.600509</ele>
        <time>2021-11-03T16:20:50.182Z</time>
      </trkpt>
      <trkpt lat="38.724450" lon="-1.299760">
        <ele>773.959294</ele>
        <time>2021-11-03T16:20:50.182Z</time>
      </trkpt>
      <trkpt lat="38.724030" lon="-1.299220">
        <ele>773.276871</ele>
        <time>2021-11-03T16:20:50.182Z</time>
      </trkpt>
      <trkpt lat="38.723610" lon="-1.298680">
        <ele>773.422323</ele>
        <time>2021-11-03T16:20:50.182Z</time>
      </trkpt>
      <trkpt lat="38.723510" lon="-1.298030">
        <ele>773.714229</ele>
        <time>2021-11-03T16:20:50.182Z</time>
      </trkpt>
      <trkpt lat="38.723550" lon="-1.297150">
        <ele>774.102617</ele>
        <time>2021-11-03T16:20:50.182Z</time>
      </trkpt>
      <trkpt lat="38.723630" lon="-1.296470">
        <ele>774.033963</ele>
        <time>2021-11-03T16:20:50.182Z</time>
      </trkpt>
      <trkpt lat="38.723600" lon="-1.296290">
        <ele>773.989801</ele>
        <time>2021-11-03T16:20:50.182Z</time>
      </trkpt>
      <trkpt lat="38.723790" lon="-1.295660">
        <ele>773.827746</ele>
        <time>2021-11-03T16:20:50.182Z</time>
      </trkpt>
      <trkpt lat="38.723740" lon="-1.295530">
        <ele>773.792971</ele>
        <time>2021-11-03T16:20:50.182Z</time>
      </trkpt>
      <trkpt lat="38.723640" lon="-1.294920">
        <ele>773.643418</ele>
        <time>2021-11-03T16:20:50.182Z</time>
      </trkpt>
      <trkpt lat="38.723750" lon="-1.294300">
        <ele>774.047767</ele>
        <time>2021-11-03T16:20:50.182Z</time>
      </trkpt>
      <trkpt lat="38.723730" lon="-1.293660">
        <ele>774.601470</ele>
        <time>2021-11-03T16:20:50.182Z</time>
      </trkpt>
      <trkpt lat="38.723670" lon="-1.292980">
        <ele>775.193055</ele>
        <time>2021-11-03T16:20:50.182Z</time>
      </trkpt>
      <trkpt lat="38.723660" lon="-1.292240">
        <ele>775.874104</ele>
        <time>2021-11-03T16:20:50.182Z</time>
      </trkpt>
      <trkpt lat="38.723770" lon="-1.291690">
        <ele>776.453721</ele>
        <time>2021-11-03T16:20:50.182Z</time>
      </trkpt>
      <trkpt lat="38.723680" lon="-1.291220">
        <ele>776.947756</ele>
        <time>2021-11-03T16:20:50.182Z</time>
      </trkpt>
      <trkpt lat="38.723440" lon="-1.290710">
        <ele>777.555762</ele>
        <time>2021-11-03T16:20:50.182Z</time>
      </trkpt>
      <trkpt lat="38.723200" lon="-1.290200">
        <ele>777.566841</ele>
        <time>2021-11-03T16:20:50.182Z</time>
      </trkpt>
      <trkpt lat="38.723050" lon="-1.289350">
        <ele>775.871644</ele>
        <time>2021-11-03T16:20:50.182Z</time>
      </trkpt>
      <trkpt lat="38.723120" lon="-1.288480">
        <ele>774.170336</ele>
        <time>2021-11-03T16:20:50.182Z</time>
      </trkpt>
      <trkpt lat="38.723080" lon="-1.288060">
        <ele>773.408326</ele>
        <time>2021-11-03T16:20:50.182Z</time>
      </trkpt>
      <trkpt lat="38.723010" lon="-1.287630">
        <ele>772.966178</ele>
        <time>2021-11-03T16:20:50.182Z</time>
      </trkpt>
      <trkpt lat="38.722403" lon="-1.288375">
        <ele>771.881899</ele>
        <time>2021-11-03T16:20:50.182Z</time>
      </trkpt>
      <trkpt lat="38.721795" lon="-1.289120">
        <ele>770.308258</ele>
        <time>2021-11-03T16:20:50.182Z</time>
      </trkpt>
      <trkpt lat="38.721187" lon="-1.289865">
        <ele>767.736326</ele>
        <time>2021-11-03T16:20:50.182Z</time>
      </trkpt>
      <trkpt lat="38.720580" lon="-1.290610">
        <ele>765.484140</ele>
        <time>2021-11-03T16:20:50.182Z</time>
      </trkpt>
      <trkpt lat="38.720370" lon="-1.290750">
        <ele>765.232368</ele>
        <time>2021-11-03T16:20:50.182Z</time>
      </trkpt>
      <trkpt lat="38.719850" lon="-1.290980">
        <ele>764.647268</ele>
        <time>2021-11-03T16:20:50.182Z</time>
      </trkpt>
      <trkpt lat="38.719104" lon="-1.291332">
        <ele>763.801732</ele>
        <time>2021-11-03T16:20:50.182Z</time>
      </trkpt>
      <trkpt lat="38.718358" lon="-1.291684">
        <ele>764.756735</ele>
        <time>2021-11-03T16:20:50.182Z</time>
      </trkpt>
      <trkpt lat="38.717612" lon="-1.292036">
        <ele>765.852518</ele>
        <time>2021-11-03T16:20:50.182Z</time>
      </trkpt>
      <trkpt lat="38.716866" lon="-1.292388">
        <ele>768.146985</ele>
        <time>2021-11-03T16:20:50.182Z</time>
      </trkpt>
      <trkpt lat="38.716120" lon="-1.292740">
        <ele>771.045590</ele>
        <time>2021-11-03T16:20:50.182Z</time>
      </trkpt>
      <trkpt lat="38.715630" lon="-1.292915">
        <ele>772.812409</ele>
        <time>2021-11-03T16:20:50.182Z</time>
      </trkpt>
      <trkpt lat="38.715140" lon="-1.293090">
        <ele>773.333458</ele>
        <time>2021-11-03T16:20:50.182Z</time>
      </trkpt>
      <trkpt lat="38.714930" lon="-1.292980">
        <ele>773.565842</ele>
        <time>2021-11-03T16:20:50.182Z</time>
      </trkpt>
      <trkpt lat="38.714750" lon="-1.292710">
        <ele>773.849683</ele>
        <time>2021-11-03T16:20:50.182Z</time>
      </trkpt>
      <trkpt lat="38.714040" lon="-1.292025">
        <ele>774.285282</ele>
        <time>2021-11-03T16:20:50.182Z</time>
      </trkpt>
      <trkpt lat="38.713330" lon="-1.291340">
        <ele>772.098406</ele>
        <time>2021-11-03T16:20:50.182Z</time>
      </trkpt>
      <trkpt lat="38.713340" lon="-1.291350">
        <ele>772.067194</ele>
        <time>2021-11-03T16:20:50.182Z</time>
      </trkpt>
      <trkpt lat="38.712850" lon="-1.290680">
        <ele>770.303986</ele>
        <time>2021-11-03T16:20:50.182Z</time>
      </trkpt>
      <trkpt lat="38.712630" lon="-1.290300">
        <ele>769.117506</ele>
        <time>2021-11-03T16:20:50.182Z</time>
      </trkpt>
      <trkpt lat="38.712480" lon="-1.290130">
        <ele>768.453361</ele>
        <time>2021-11-03T16:20:50.182Z</time>
      </trkpt>
      <trkpt lat="38.712360" lon="-1.289760">
        <ele>767.416364</ele>
        <time>2021-11-03T16:20:50.182Z</time>
      </trkpt>
      <trkpt lat="38.712170" lon="-1.289350">
        <ele>766.182240</ele>
        <time>2021-11-03T16:20:50.182Z</time>
      </trkpt>
      <trkpt lat="38.712130" lon="-1.289190">
        <ele>765.747418</ele>
        <time>2021-11-03T16:20:50.182Z</time>
      </trkpt>
      <trkpt lat="38.712185" lon="-1.288580">
        <ele>764.225189</ele>
        <time>2021-11-03T16:20:50.182Z</time>
      </trkpt>
      <trkpt lat="38.712240" lon="-1.287970">
        <ele>764.144167</ele>
        <time>2021-11-03T16:20:50.182Z</time>
      </trkpt>
      <trkpt lat="38.712180" lon="-1.287800">
        <ele>764.119548</ele>
        <time>2021-11-03T16:20:50.182Z</time>
      </trkpt>
      <trkpt lat="38.712180" lon="-1.287730">
        <ele>764.110312</ele>
        <time>2021-11-03T16:20:50.182Z</time>
      </trkpt>
      <trkpt lat="38.712200" lon="-1.287590">
        <ele>764.091533</ele>
        <time>2021-11-03T16:20:50.182Z</time>
      </trkpt>
      <trkpt lat="38.712250" lon="-1.287560">
        <ele>764.082197</ele>
        <time>2021-11-03T16:20:50.182Z</time>
      </trkpt>
      <trkpt lat="38.712300" lon="-1.287460">
        <ele>764.066526</ele>
        <time>2021-11-03T16:20:50.182Z</time>
      </trkpt>
      <trkpt lat="38.712300" lon="-1.287290">
        <ele>764.044096</ele>
        <time>2021-11-03T16:20:50.182Z</time>
      </trkpt>
      <trkpt lat="38.712260" lon="-1.287190">
        <ele>764.029269</ele>
        <time>2021-11-03T16:20:50.182Z</time>
      </trkpt>
      <trkpt lat="38.712160" lon="-1.287120">
        <ele>764.010001</ele>
        <time>2021-11-03T16:20:50.182Z</time>
      </trkpt>
      <trkpt lat="38.711650" lon="-1.286470">
        <ele>764.227973</ele>
        <time>2021-11-03T16:20:50.182Z</time>
      </trkpt>
      <trkpt lat="38.711580" lon="-1.286300">
        <ele>764.440089</ele>
        <time>2021-11-03T16:20:50.182Z</time>
      </trkpt>
      <trkpt lat="38.711450" lon="-1.286130">
        <ele>764.702754</ele>
        <time>2021-11-03T16:20:50.182Z</time>
      </trkpt>
      <trkpt lat="38.711360" lon="-1.285960">
        <ele>764.929455</ele>
        <time>2021-11-03T16:20:50.182Z</time>
      </trkpt>
      <trkpt lat="38.711190" lon="-1.285420">
        <ele>765.572027</ele>
        <time>2021-11-03T16:20:50.182Z</time>
      </trkpt>
      <trkpt lat="38.710970" lon="-1.285050">
        <ele>766.085362</ele>
        <time>2021-11-03T16:20:50.182Z</time>
      </trkpt>
      <trkpt lat="38.710820" lon="-1.284850">
        <ele>766.391485</ele>
        <time>2021-11-03T16:20:50.182Z</time>
      </trkpt>
      <trkpt lat="38.710480" lon="-1.284610">
        <ele>766.680758</ele>
        <time>2021-11-03T16:20:50.182Z</time>
      </trkpt>
      <trkpt lat="38.710220" lon="-1.284300">
        <ele>766.906750</ele>
        <time>2021-11-03T16:20:50.182Z</time>
      </trkpt>
      <trkpt lat="38.710170" lon="-1.284170">
        <ele>766.978720</ele>
        <time>2021-11-03T16:20:50.182Z</time>
      </trkpt>
      <trkpt lat="38.710080" lon="-1.284030">
        <ele>767.068793</ele>
        <time>2021-11-03T16:20:50.182Z</time>
      </trkpt>
      <trkpt lat="38.709850" lon="-1.283900">
        <ele>767.228762</ele>
        <time>2021-11-03T16:20:50.182Z</time>
      </trkpt>
      <trkpt lat="38.709800" lon="-1.283830">
        <ele>767.275886</ele>
        <time>2021-11-03T16:20:50.182Z</time>
      </trkpt>
      <trkpt lat="38.709640" lon="-1.283490">
        <ele>767.473047</ele>
        <time>2021-11-03T16:20:50.182Z</time>
      </trkpt>
      <trkpt lat="38.709580" lon="-1.283250">
        <ele>767.598192</ele>
        <time>2021-11-03T16:20:50.182Z</time>
      </trkpt>
      <trkpt lat="38.709420" lon="-1.283020">
        <ele>768.167612</ele>
        <time>2021-11-03T16:20:50.182Z</time>
      </trkpt>
      <trkpt lat="38.708880" lon="-1.282880">
        <ele>769.573949</ele>
        <time>2021-11-03T16:20:50.182Z</time>
      </trkpt>
      <trkpt lat="38.708450" lon="-1.282850">
        <ele>770.673199</ele>
        <time>2021-11-03T16:20:50.182Z</time>
      </trkpt>
      <trkpt lat="38.708320" lon="-1.282810">
        <ele>771.014470</ele>
        <time>2021-11-03T16:20:50.182Z</time>
      </trkpt>
      <trkpt lat="38.708250" lon="-1.282750">
        <ele>771.229438</ele>
        <time>2021-11-03T16:20:50.182Z</time>
      </trkpt>
      <trkpt lat="38.708070" lon="-1.282410">
        <ele>772.047839</ele>
        <time>2021-11-03T16:20:50.182Z</time>
      </trkpt>
      <trkpt lat="38.707690" lon="-1.281800">
        <ele>774.636673</ele>
        <time>2021-11-03T16:20:50.182Z</time>
      </trkpt>
      <trkpt lat="38.707650" lon="-1.281670">
        <ele>775.120853</ele>
        <time>2021-11-03T16:20:50.182Z</time>
      </trkpt>
      <trkpt lat="38.707380" lon="-1.281700">
        <ele>776.324187</ele>
        <time>2021-11-03T16:20:50.182Z</time>
      </trkpt>
      <trkpt lat="38.706730" lon="-1.282030">
        <ele>779.428520</ele>
        <time>2021-11-03T16:20:50.182Z</time>
      </trkpt>
      <trkpt lat="38.706610" lon="-1.282030">
        <ele>779.961336</ele>
        <time>2021-11-03T16:20:50.182Z</time>
      </trkpt>
      <trkpt lat="38.706560" lon="-1.281970">
        <ele>780.219108</ele>
        <time>2021-11-03T16:20:50.182Z</time>
      </trkpt>
      <trkpt lat="38.706400" lon="-1.281390">
        <ele>781.034547</ele>
        <time>2021-11-03T16:20:50.182Z</time>
      </trkpt>
      <trkpt lat="38.706120" lon="-1.280470">
        <ele>782.343515</ele>
        <time>2021-11-03T16:20:50.182Z</time>
      </trkpt>
      <trkpt lat="38.706080" lon="-1.280170">
        <ele>782.746943</ele>
        <time>2021-11-03T16:20:50.182Z</time>
      </trkpt>
      <trkpt lat="38.705900" lon="-1.279530">
        <ele>783.824125</ele>
        <time>2021-11-03T16:20:50.182Z</time>
      </trkpt>
      <trkpt lat="38.705900" lon="-1.279210">
        <ele>784.432883</ele>
        <time>2021-11-03T16:20:50.182Z</time>
      </trkpt>
      <trkpt lat="38.705660" lon="-1.278950">
        <ele>785.199011</ele>
        <time>2021-11-03T16:20:50.182Z</time>
      </trkpt>
      <trkpt lat="38.705470" lon="-1.278920">
        <ele>785.665694</ele>
        <time>2021-11-03T16:20:50.182Z</time>
      </trkpt>
      <trkpt lat="38.704990" lon="-1.278750">
        <ele>786.879702</ele>
        <time>2021-11-03T16:20:50.182Z</time>
      </trkpt>
      <trkpt lat="38.704820" lon="-1.278640">
        <ele>787.343963</ele>
        <time>2021-11-03T16:20:50.182Z</time>
      </trkpt>
      <trkpt lat="38.704780" lon="-1.278580">
        <ele>787.494088</ele>
        <time>2021-11-03T16:20:50.182Z</time>
      </trkpt>
      <trkpt lat="38.704730" lon="-1.278510">
        <ele>787.704319</ele>
        <time>2021-11-03T16:20:50.182Z</time>
      </trkpt>
      <trkpt lat="38.704570" lon="-1.278200">
        <ele>788.885434</ele>
        <time>2021-11-03T16:20:50.182Z</time>
      </trkpt>
      <trkpt lat="38.704350" lon="-1.277530">
        <ele>791.195425</ele>
        <time>2021-11-03T16:20:50.182Z</time>
      </trkpt>
      <trkpt lat="38.704280" lon="-1.277390">
        <ele>791.723817</ele>
        <time>2021-11-03T16:20:50.182Z</time>
      </trkpt>
      <trkpt lat="38.704140" lon="-1.277190">
        <ele>792.577626</ele>
        <time>2021-11-03T16:20:50.182Z</time>
      </trkpt>
      <trkpt lat="38.704140" lon="-1.276950">
        <ele>793.340323</ele>
        <time>2021-11-03T16:20:50.182Z</time>
      </trkpt>
      <trkpt lat="38.704080" lon="-1.276850">
        <ele>793.741185</ele>
        <time>2021-11-03T16:20:50.182Z</time>
      </trkpt>
      <trkpt lat="38.703870" lon="-1.276680">
        <ele>794.752706</ele>
        <time>2021-11-03T16:20:50.182Z</time>
      </trkpt>
      <trkpt lat="38.703780" lon="-1.276640">
        <ele>795.033293</ele>
        <time>2021-11-03T16:20:50.182Z</time>
      </trkpt>
      <trkpt lat="38.703540" lon="-1.276580">
        <ele>795.453909</ele>
        <time>2021-11-03T16:20:50.182Z</time>
      </trkpt>
      <trkpt lat="38.703180" lon="-1.276370">
        <ele>796.134303</ele>
        <time>2021-11-03T16:20:50.182Z</time>
      </trkpt>
      <trkpt lat="38.703080" lon="-1.276340">
        <ele>796.310968</ele>
        <time>2021-11-03T16:20:50.182Z</time>
      </trkpt>
      <trkpt lat="38.702880" lon="-1.276340">
        <ele>796.654995</ele>
        <time>2021-11-03T16:20:50.182Z</time>
      </trkpt>
      <trkpt lat="38.702800" lon="-1.276300">
        <ele>796.802711</ele>
        <time>2021-11-03T16:20:50.182Z</time>
      </trkpt>
      <trkpt lat="38.702720" lon="-1.276200">
        <ele>796.994952</ele>
        <time>2021-11-03T16:20:50.182Z</time>
      </trkpt>
      <trkpt lat="38.702610" lon="-1.275800">
        <ele>797.564273</ele>
        <time>2021-11-03T16:20:50.182Z</time>
      </trkpt>
      <trkpt lat="38.702190" lon="-1.275250">
        <ele>797.046973</ele>
        <time>2021-11-03T16:20:50.182Z</time>
      </trkpt>
      <trkpt lat="38.701670" lon="-1.274820">
        <ele>795.102945</ele>
        <time>2021-11-03T16:20:50.182Z</time>
      </trkpt>
      <trkpt lat="38.701530" lon="-1.274640">
        <ele>794.479963</ele>
        <time>2021-11-03T16:20:50.182Z</time>
      </trkpt>
      <trkpt lat="38.701460" lon="-1.274590">
        <ele>794.228222</ele>
        <time>2021-11-03T16:20:50.182Z</time>
      </trkpt>
      <trkpt lat="38.701310" lon="-1.274580">
        <ele>793.756404</ele>
        <time>2021-11-03T16:20:50.182Z</time>
      </trkpt>
      <trkpt lat="38.701210" lon="-1.274540">
        <ele>793.427333</ele>
        <time>2021-11-03T16:20:50.182Z</time>
      </trkpt>
      <trkpt lat="38.701080" lon="-1.274440">
        <ele>792.951043</ele>
        <time>2021-11-03T16:20:50.182Z</time>
      </trkpt>
      <trkpt lat="38.701040" lon="-1.274380">
        <ele>792.757595</ele>
        <time>2021-11-03T16:20:50.182Z</time>
      </trkpt>
      <trkpt lat="38.701000" lon="-1.274270">
        <ele>792.460098</ele>
        <time>2021-11-03T16:20:50.182Z</time>
      </trkpt>
      <trkpt lat="38.701000" lon="-1.273660">
        <ele>789.072493</ele>
        <time>2021-11-03T16:20:50.182Z</time>
      </trkpt>
      <trkpt lat="38.701080" lon="-1.272580">
        <ele>782.903955</ele>
        <time>2021-11-03T16:20:50.182Z</time>
      </trkpt>
      <trkpt lat="38.701110" lon="-1.271690">
        <ele>777.888806</ele>
        <time>2021-11-03T16:20:50.182Z</time>
      </trkpt>
      <trkpt lat="38.700990" lon="-1.270810">
        <ele>772.984307</ele>
        <time>2021-11-03T16:20:50.182Z</time>
      </trkpt>
      <trkpt lat="38.700980" lon="-1.270650">
        <ele>772.103075</ele>
        <time>2021-11-03T16:20:50.182Z</time>
      </trkpt>
      <trkpt lat="38.701020" lon="-1.269935">
        <ele>768.167567</ele>
        <time>2021-11-03T16:20:50.182Z</time>
      </trkpt>
      <trkpt lat="38.701060" lon="-1.269220">
        <ele>764.725671</ele>
        <time>2021-11-03T16:20:50.182Z</time>
      </trkpt>
      <trkpt lat="38.701110" lon="-1.268650">
        <ele>762.221892</ele>
        <time>2021-11-03T16:20:50.182Z</time>
      </trkpt>
      <trkpt lat="38.701230" lon="-1.268030">
        <ele>759.433541</ele>
        <time>2021-11-03T16:20:50.182Z</time>
      </trkpt>
      <trkpt lat="38.701260" lon="-1.267420">
        <ele>756.765550</ele>
        <time>2021-11-03T16:20:50.182Z</time>
      </trkpt>
      <trkpt lat="38.701300" lon="-1.267290">
        <ele>756.186416</ele>
        <time>2021-11-03T16:20:50.182Z</time>
      </trkpt>
      <trkpt lat="38.701480" lon="-1.267050">
        <ele>754.838874</ele>
        <time>2021-11-03T16:20:50.182Z</time>
      </trkpt>
      <trkpt lat="38.701450" lon="-1.266510">
        <ele>752.647243</ele>
        <time>2021-11-03T16:20:50.182Z</time>
      </trkpt>
      <trkpt lat="38.701440" lon="-1.265530">
        <ele>748.679537</ele>
        <time>2021-11-03T16:20:50.182Z</time>
      </trkpt>
      <trkpt lat="38.701410" lon="-1.265390">
        <ele>748.091793</ele>
        <time>2021-11-03T16:20:50.182Z</time>
      </trkpt>
      <trkpt lat="38.701270" lon="-1.265130">
        <ele>746.759882</ele>
        <time>2021-11-03T16:20:50.182Z</time>
      </trkpt>
      <trkpt lat="38.701210" lon="-1.265050">
        <ele>746.256142</ele>
        <time>2021-11-03T16:20:50.182Z</time>
      </trkpt>
      <trkpt lat="38.700990" lon="-1.264540">
        <ele>743.610525</ele>
        <time>2021-11-03T16:20:50.182Z</time>
      </trkpt>
      <trkpt lat="38.700780" lon="-1.264000">
        <ele>740.871348</ele>
        <time>2021-11-03T16:20:50.182Z</time>
      </trkpt>
      <trkpt lat="38.700690" lon="-1.263660">
        <ele>739.241334</ele>
        <time>2021-11-03T16:20:50.182Z</time>
      </trkpt>
      <trkpt lat="38.700570" lon="-1.263390">
        <ele>737.830659</ele>
        <time>2021-11-03T16:20:50.182Z</time>
      </trkpt>
      <trkpt lat="38.700400" lon="-1.262650">
        <ele>734.527942</ele>
        <time>2021-11-03T16:20:50.182Z</time>
      </trkpt>
      <trkpt lat="38.700350" lon="-1.262035">
        <ele>731.948491</ele>
        <time>2021-11-03T16:20:50.182Z</time>
      </trkpt>
      <trkpt lat="38.700300" lon="-1.261420">
        <ele>729.369038</ele>
        <time>2021-11-03T16:20:50.182Z</time>
      </trkpt>
      <trkpt lat="38.700300" lon="-1.261090">
        <ele>727.992390</ele>
        <time>2021-11-03T16:20:50.182Z</time>
      </trkpt>
      <trkpt lat="38.700340" lon="-1.260710">
        <ele>726.632963</ele>
        <time>2021-11-03T16:20:50.182Z</time>
      </trkpt>
      <trkpt lat="38.700410" lon="-1.260280">
        <ele>725.365111</ele>
        <time>2021-11-03T16:20:50.182Z</time>
      </trkpt>
      <trkpt lat="38.700570" lon="-1.259690">
        <ele>723.562272</ele>
        <time>2021-11-03T16:20:50.182Z</time>
      </trkpt>
      <trkpt lat="38.700630" lon="-1.259620">
        <ele>723.262164</ele>
        <time>2021-11-03T16:20:50.182Z</time>
      </trkpt>
      <trkpt lat="38.700760" lon="-1.259160">
        <ele>721.850067</ele>
        <time>2021-11-03T16:20:50.182Z</time>
      </trkpt>
      <trkpt lat="38.700780" lon="-1.258950">
        <ele>721.239436</ele>
        <time>2021-11-03T16:20:50.182Z</time>
      </trkpt>
      <trkpt lat="38.700780" lon="-1.258680">
        <ele>720.461424</ele>
        <time>2021-11-03T16:20:50.182Z</time>
      </trkpt>
      <trkpt lat="38.700580" lon="-1.257560">
        <ele>717.217211</ele>
        <time>2021-11-03T16:20:50.182Z</time>
      </trkpt>
      <trkpt lat="38.700570" lon="-1.257230">
        <ele>716.284704</ele>
        <time>2021-11-03T16:20:50.182Z</time>
      </trkpt>
      <trkpt lat="38.700580" lon="-1.256515">
        <ele>714.265471</ele>
        <time>2021-11-03T16:20:50.182Z</time>
      </trkpt>
      <trkpt lat="38.700590" lon="-1.255800">
        <ele>712.011288</ele>
        <time>2021-11-03T16:20:50.182Z</time>
      </trkpt>
      <trkpt lat="38.700560" lon="-1.255510">
        <ele>711.075385</ele>
        <time>2021-11-03T16:20:50.182Z</time>
      </trkpt>
      <trkpt lat="38.700420" lon="-1.255050">
        <ele>709.495772</ele>
        <time>2021-11-03T16:20:50.182Z</time>
      </trkpt>
      <trkpt lat="38.700240" lon="-1.254580">
        <ele>707.820814</ele>
        <time>2021-11-03T16:20:50.182Z</time>
      </trkpt>
      <trkpt lat="38.700060" lon="-1.253970">
        <ele>705.899713</ele>
        <time>2021-11-03T16:20:50.182Z</time>
      </trkpt>
      <trkpt lat="38.699880" lon="-1.253360">
        <ele>704.194543</ele>
        <time>2021-11-03T16:20:50.182Z</time>
      </trkpt>
      <trkpt lat="38.699830" lon="-1.253250">
        <ele>703.861698</ele>
        <time>2021-11-03T16:20:50.182Z</time>
      </trkpt>
      <trkpt lat="38.699200" lon="-1.252600">
        <ele>701.151786</ele>
        <time>2021-11-03T16:20:50.182Z</time>
      </trkpt>
      <trkpt lat="38.698570" lon="-1.251950">
        <ele>699.135285</ele>
        <time>2021-11-03T16:20:50.182Z</time>
      </trkpt>
      <trkpt lat="38.697940" lon="-1.251300">
        <ele>697.290849</ele>
        <time>2021-11-03T16:20:50.182Z</time>
      </trkpt>
      <trkpt lat="38.697310" lon="-1.250650">
        <ele>696.423864</ele>
        <time>2021-11-03T16:20:50.182Z</time>
      </trkpt>
      <trkpt lat="38.696623" lon="-1.249960">
        <ele>696.259981</ele>
        <time>2021-11-03T16:20:50.182Z</time>
      </trkpt>
      <trkpt lat="38.695937" lon="-1.249270">
        <ele>696.526977</ele>
        <time>2021-11-03T16:20:50.182Z</time>
      </trkpt>
      <trkpt lat="38.695250" lon="-1.248580">
        <ele>697.272378</ele>
        <time>2021-11-03T16:20:50.182Z</time>
      </trkpt>
      <trkpt lat="38.694563" lon="-1.247890">
        <ele>697.373449</ele>
        <time>2021-11-03T16:20:50.182Z</time>
      </trkpt>
      <trkpt lat="38.693877" lon="-1.247200">
        <ele>696.560243</ele>
        <time>2021-11-03T16:20:50.182Z</time>
      </trkpt>
      <trkpt lat="38.693190" lon="-1.246510">
        <ele>695.256279</ele>
        <time>2021-11-03T16:20:50.182Z</time>
      </trkpt>
      <trkpt lat="38.692860" lon="-1.245870">
        <ele>693.742813</ele>
        <time>2021-11-03T16:20:50.182Z</time>
      </trkpt>
      <trkpt lat="38.692640" lon="-1.245600">
        <ele>692.972669</ele>
        <time>2021-11-03T16:20:50.182Z</time>
      </trkpt>
      <trkpt lat="38.692195" lon="-1.244990">
        <ele>691.343650</ele>
        <time>2021-11-03T16:20:50.182Z</time>
      </trkpt>
      <trkpt lat="38.691750" lon="-1.244380">
        <ele>689.885587</ele>
        <time>2021-11-03T16:20:50.182Z</time>
      </trkpt>
      <trkpt lat="38.691310" lon="-1.243660">
        <ele>688.288730</ele>
        <time>2021-11-03T16:20:50.182Z</time>
      </trkpt>
      <trkpt lat="38.690920" lon="-1.243130">
        <ele>687.239879</ele>
        <time>2021-11-03T16:20:50.182Z</time>
      </trkpt>
      <trkpt lat="38.690440" lon="-1.242395">
        <ele>686.405823</ele>
        <time>2021-11-03T16:20:50.182Z</time>
      </trkpt>
      <trkpt lat="38.689960" lon="-1.241660">
        <ele>685.571764</ele>
        <time>2021-11-03T16:20:50.182Z</time>
      </trkpt>
      <trkpt lat="38.689830" lon="-1.241290">
        <ele>685.172020</ele>
        <time>2021-11-03T16:20:50.182Z</time>
      </trkpt>
      <trkpt lat="38.689710" lon="-1.240410">
        <ele>684.241919</ele>
        <time>2021-11-03T16:20:50.182Z</time>
      </trkpt>
      <trkpt lat="38.689660" lon="-1.240260">
        <ele>684.072099</ele>
        <time>2021-11-03T16:20:50.182Z</time>
      </trkpt>
      <trkpt lat="38.689660" lon="-1.240250">
        <ele>684.061687</ele>
        <time>2021-11-03T16:20:50.182Z</time>
      </trkpt>
      <trkpt lat="38.689570" lon="-1.240140">
        <ele>683.895769</ele>
        <time>2021-11-03T16:20:50.182Z</time>
      </trkpt>
      <trkpt lat="38.689220" lon="-1.239940">
        <ele>683.384571</ele>
        <time>2021-11-03T16:20:50.182Z</time>
      </trkpt>
      <trkpt lat="38.688575" lon="-1.239618">
        <ele>682.587276</ele>
        <time>2021-11-03T16:20:50.182Z</time>
      </trkpt>
      <trkpt lat="38.687930" lon="-1.239295">
        <ele>681.859057</ele>
        <time>2021-11-03T16:20:50.182Z</time>
      </trkpt>
      <trkpt lat="38.687285" lon="-1.238973">
        <ele>681.166213</ele>
        <time>2021-11-03T16:20:50.182Z</time>
      </trkpt>
      <trkpt lat="38.686640" lon="-1.238650">
        <ele>681.181776</ele>
        <time>2021-11-03T16:20:50.182Z</time>
      </trkpt>
      <trkpt lat="38.686140" lon="-1.238405">
        <ele>681.193807</ele>
        <time>2021-11-03T16:20:50.182Z</time>
      </trkpt>
      <trkpt lat="38.685640" lon="-1.238160">
        <ele>681.205837</ele>
        <time>2021-11-03T16:20:50.182Z</time>
      </trkpt>
      <trkpt lat="38.685580" lon="-1.238340">
        <ele>681.186210</ele>
        <time>2021-11-03T16:20:50.182Z</time>
      </trkpt>
      <trkpt lat="38.685100" lon="-1.238140">
        <ele>681.119943</ele>
        <time>2021-11-03T16:20:50.182Z</time>
      </trkpt>
      <trkpt lat="38.684640" lon="-1.237885">
        <ele>681.054139</ele>
        <time>2021-11-03T16:20:50.182Z</time>
      </trkpt>
      <trkpt lat="38.684180" lon="-1.237630">
        <ele>680.988335</ele>
        <time>2021-11-03T16:20:50.182Z</time>
      </trkpt>
      <trkpt lat="38.683820" lon="-1.237330">
        <ele>680.750255</ele>
        <time>2021-11-03T16:20:50.182Z</time>
      </trkpt>
      <trkpt lat="38.683620" lon="-1.237190">
        <ele>680.576541</ele>
        <time>2021-11-03T16:20:50.182Z</time>
      </trkpt>
      <trkpt lat="38.683010" lon="-1.237020">
        <ele>680.100723</ele>
        <time>2021-11-03T16:20:50.182Z</time>
      </trkpt>
      <trkpt lat="38.682780" lon="-1.236920">
        <ele>679.915594</ele>
        <time>2021-11-03T16:20:50.182Z</time>
      </trkpt>
      <trkpt lat="38.681970" lon="-1.236650">
        <ele>678.790519</ele>
        <time>2021-11-03T16:20:50.182Z</time>
      </trkpt>
      <trkpt lat="38.681940" lon="-1.236620">
        <ele>678.717514</ele>
        <time>2021-11-03T16:20:50.182Z</time>
      </trkpt>
      <trkpt lat="38.681950" lon="-1.236510">
        <ele>678.551684</ele>
        <time>2021-11-03T16:20:50.182Z</time>
      </trkpt>
      <trkpt lat="38.682065" lon="-1.235935">
        <ele>677.662853</ele>
        <time>2021-11-03T16:20:50.182Z</time>
      </trkpt>
      <trkpt lat="38.682180" lon="-1.235360">
        <ele>676.774023</ele>
        <time>2021-11-03T16:20:50.182Z</time>
      </trkpt>
      <trkpt lat="38.682220" lon="-1.235060">
        <ele>676.318290</ele>
        <time>2021-11-03T16:20:50.182Z</time>
      </trkpt>
      <trkpt lat="38.682200" lon="-1.234950">
        <ele>676.149165</ele>
        <time>2021-11-03T16:20:50.182Z</time>
      </trkpt>
      <trkpt lat="38.682160" lon="-1.234890">
        <ele>676.072539</ele>
        <time>2021-11-03T16:20:50.182Z</time>
      </trkpt>
      <trkpt lat="38.682110" lon="-1.234860">
        <ele>676.004029</ele>
        <time>2021-11-03T16:20:50.182Z</time>
      </trkpt>
      <trkpt lat="38.681610" lon="-1.234690">
        <ele>675.362126</ele>
        <time>2021-11-03T16:20:50.182Z</time>
      </trkpt>
      <trkpt lat="38.681430" lon="-1.234650">
        <ele>675.135439</ele>
        <time>2021-11-03T16:20:50.182Z</time>
      </trkpt>
      <trkpt lat="38.680730" lon="-1.234410">
        <ele>674.236275</ele>
        <time>2021-11-03T16:20:50.182Z</time>
      </trkpt>
      <trkpt lat="38.680290" lon="-1.234280">
        <ele>673.871425</ele>
        <time>2021-11-03T16:20:50.182Z</time>
      </trkpt>
      <trkpt lat="38.679785" lon="-1.234095">
        <ele>673.748697</ele>
        <time>2021-11-03T16:20:50.182Z</time>
      </trkpt>
      <trkpt lat="38.679280" lon="-1.233910">
        <ele>673.625969</ele>
        <time>2021-11-03T16:20:50.182Z</time>
      </trkpt>
      <trkpt lat="38.678530" lon="-1.233680">
        <ele>673.845576</ele>
        <time>2021-11-03T16:20:50.182Z</time>
      </trkpt>
      <trkpt lat="38.677780" lon="-1.233450">
        <ele>675.085579</ele>
        <time>2021-11-03T16:20:50.182Z</time>
      </trkpt>
      <trkpt lat="38.677640" lon="-1.234070">
        <ele>675.895733</ele>
        <time>2021-11-03T16:20:50.182Z</time>
      </trkpt>
      <trkpt lat="38.677500" lon="-1.234690">
        <ele>676.917689</ele>
        <time>2021-11-03T16:20:50.182Z</time>
      </trkpt>
      <trkpt lat="38.677400" lon="-1.235230">
        <ele>678.079281</ele>
        <time>2021-11-03T16:20:50.182Z</time>
      </trkpt>
      <trkpt lat="38.677360" lon="-1.235290">
        <ele>678.244421</ele>
        <time>2021-11-03T16:20:50.182Z</time>
      </trkpt>
      <trkpt lat="38.677310" lon="-1.235290">
        <ele>678.378472</ele>
        <time>2021-11-03T16:20:50.182Z</time>
      </trkpt>
      <trkpt lat="38.676950" lon="-1.235190">
        <ele>679.366076</ele>
        <time>2021-11-03T16:20:50.182Z</time>
      </trkpt>
      <trkpt lat="38.676850" lon="-1.235190">
        <ele>679.634178</ele>
        <time>2021-11-03T16:20:50.182Z</time>
      </trkpt>
      <trkpt lat="38.676790" lon="-1.235260">
        <ele>679.851761</ele>
        <time>2021-11-03T16:20:50.182Z</time>
      </trkpt>
      <trkpt lat="38.676710" lon="-1.235460">
        <ele>680.322117</ele>
        <time>2021-11-03T16:20:50.182Z</time>
      </trkpt>
      <trkpt lat="38.676620" lon="-1.235560">
        <ele>680.641539</ele>
        <time>2021-11-03T16:20:50.182Z</time>
      </trkpt>
      <trkpt lat="38.676300" lon="-1.235830">
        <ele>681.439924</ele>
        <time>2021-11-03T16:20:50.182Z</time>
      </trkpt>
      <trkpt lat="38.676140" lon="-1.235900">
        <ele>681.666685</ele>
        <time>2021-11-03T16:20:50.182Z</time>
      </trkpt>
      <trkpt lat="38.676050" lon="-1.235900">
        <ele>681.787391</ele>
        <time>2021-11-03T16:20:50.182Z</time>
      </trkpt>
      <trkpt lat="38.675540" lon="-1.235740">
        <ele>682.491612</ele>
        <time>2021-11-03T16:20:50.182Z</time>
      </trkpt>
      <trkpt lat="38.675450" lon="-1.235740">
        <ele>682.612318</ele>
        <time>2021-11-03T16:20:50.182Z</time>
      </trkpt>
      <trkpt lat="38.675300" lon="-1.235840">
        <ele>682.839113</ele>
        <time>2021-11-03T16:20:50.182Z</time>
      </trkpt>
      <trkpt lat="38.675000" lon="-1.236070">
        <ele>683.308033</ele>
        <time>2021-11-03T16:20:50.182Z</time>
      </trkpt>
      <trkpt lat="38.674800" lon="-1.236070">
        <ele>683.576270</ele>
        <time>2021-11-03T16:20:50.182Z</time>
      </trkpt>
      <trkpt lat="38.673935" lon="-1.235835">
        <ele>683.500314</ele>
        <time>2021-11-03T16:20:50.182Z</time>
      </trkpt>
      <trkpt lat="38.673070" lon="-1.235600">
        <ele>683.372524</ele>
        <time>2021-11-03T16:20:50.182Z</time>
      </trkpt>
      <trkpt lat="38.672610" lon="-1.235430">
        <ele>683.959831</ele>
        <time>2021-11-03T16:20:50.182Z</time>
      </trkpt>
      <trkpt lat="38.672270" lon="-1.235400">
        <ele>684.451375</ele>
        <time>2021-11-03T16:20:50.182Z</time>
      </trkpt>
      <trkpt lat="38.671980" lon="-1.235310">
        <ele>684.881745</ele>
        <time>2021-11-03T16:20:50.182Z</time>
      </trkpt>
      <trkpt lat="38.671870" lon="-1.235290">
        <ele>685.041989</ele>
        <time>2021-11-03T16:20:50.182Z</time>
      </trkpt>
      <trkpt lat="38.671330" lon="-1.235090">
        <ele>685.852739</ele>
        <time>2021-11-03T16:20:50.182Z</time>
      </trkpt>
      <trkpt lat="38.671170" lon="-1.234990">
        <ele>686.026611</ele>
        <time>2021-11-03T16:20:50.182Z</time>
      </trkpt>
      <trkpt lat="38.670730" lon="-1.234860">
        <ele>686.323150</ele>
        <time>2021-11-03T16:20:50.182Z</time>
      </trkpt>
      <trkpt lat="38.670670" lon="-1.234890">
        <ele>686.365448</ele>
        <time>2021-11-03T16:20:50.182Z</time>
      </trkpt>
      <trkpt lat="38.670540" lon="-1.234980">
        <ele>686.462493</ele>
        <time>2021-11-03T16:20:50.182Z</time>
      </trkpt>
      <trkpt lat="38.670260" lon="-1.234910">
        <ele>686.649841</ele>
        <time>2021-11-03T16:20:50.182Z</time>
      </trkpt>
      <trkpt lat="38.669520" lon="-1.234650">
        <ele>687.096699</ele>
        <time>2021-11-03T16:20:50.182Z</time>
      </trkpt>
      <trkpt lat="38.668730" lon="-1.234300">
        <ele>685.594181</ele>
        <time>2021-11-03T16:20:50.182Z</time>
      </trkpt>
      <trkpt lat="38.668800" lon="-1.233770">
        <ele>684.839824</ele>
        <time>2021-11-03T16:20:50.182Z</time>
      </trkpt>
      <trkpt lat="38.668800" lon="-1.233630">
        <ele>684.643351</ele>
        <time>2021-11-03T16:20:50.182Z</time>
      </trkpt>
      <trkpt lat="38.668780" lon="-1.233530">
        <ele>684.498482</ele>
        <time>2021-11-03T16:20:50.182Z</time>
      </trkpt>
      <trkpt lat="38.668700" lon="-1.233430">
        <ele>684.297556</ele>
        <time>2021-11-03T16:20:50.182Z</time>
      </trkpt>
      <trkpt lat="38.668147" lon="-1.233023">
        <ele>683.101409</ele>
        <time>2021-11-03T16:20:50.182Z</time>
      </trkpt>
      <trkpt lat="38.667593" lon="-1.232617">
        <ele>681.878492</ele>
        <time>2021-11-03T16:20:50.182Z</time>
      </trkpt>
      <trkpt lat="38.667040" lon="-1.232210">
        <ele>680.656491</ele>
        <time>2021-11-03T16:20:50.182Z</time>
      </trkpt>
      <trkpt lat="38.666500" lon="-1.231840">
        <ele>678.561466</ele>
        <time>2021-11-03T16:20:50.182Z</time>
      </trkpt>
      <trkpt lat="38.666330" lon="-1.231680">
        <ele>677.775695</ele>
        <time>2021-11-03T16:20:50.182Z</time>
      </trkpt>
      <trkpt lat="38.666320" lon="-1.231690">
        <ele>677.728440</ele>
        <time>2021-11-03T16:20:50.182Z</time>
      </trkpt>
      <trkpt lat="38.666260" lon="-1.231500">
        <ele>677.132405</ele>
        <time>2021-11-03T16:20:50.182Z</time>
      </trkpt>
      <trkpt lat="38.666210" lon="-1.231190">
        <ele>676.211836</ele>
        <time>2021-11-03T16:20:50.182Z</time>
      </trkpt>
      <trkpt lat="38.666290" lon="-1.230690">
        <ele>674.727530</ele>
        <time>2021-11-03T16:20:50.182Z</time>
      </trkpt>
      <trkpt lat="38.666245" lon="-1.230095">
        <ele>672.792000</ele>
        <time>2021-11-03T16:20:50.182Z</time>
      </trkpt>
      <trkpt lat="38.666200" lon="-1.229500">
        <ele>670.609254</ele>
        <time>2021-11-03T16:20:50.182Z</time>
      </trkpt>
      <trkpt lat="38.666130" lon="-1.228850">
        <ele>668.213378</ele>
        <time>2021-11-03T16:20:50.182Z</time>
      </trkpt>
      <trkpt lat="38.666000" lon="-1.227970">
        <ele>665.129230</ele>
        <time>2021-11-03T16:20:50.182Z</time>
      </trkpt>
      <trkpt lat="38.665740" lon="-1.227300">
        <ele>663.650337</ele>
        <time>2021-11-03T16:20:50.182Z</time>
      </trkpt>
      <trkpt lat="38.665600" lon="-1.226820">
        <ele>662.637515</ele>
        <time>2021-11-03T16:20:50.182Z</time>
      </trkpt>
      <trkpt lat="38.665500" lon="-1.226350">
        <ele>661.674617</ele>
        <time>2021-11-03T16:20:50.182Z</time>
      </trkpt>
      <trkpt lat="38.665420" lon="-1.226070">
        <ele>661.085266</ele>
        <time>2021-11-03T16:20:50.182Z</time>
      </trkpt>
      <trkpt lat="38.665260" lon="-1.225770">
        <ele>660.569234</ele>
        <time>2021-11-03T16:20:50.182Z</time>
      </trkpt>
      <trkpt lat="38.664860" lon="-1.224750">
        <ele>659.377448</ele>
        <time>2021-11-03T16:20:50.182Z</time>
      </trkpt>
      <trkpt lat="38.664610" lon="-1.224060">
        <ele>658.583211</ele>
        <time>2021-11-03T16:20:50.182Z</time>
      </trkpt>
      <trkpt lat="38.664280" lon="-1.223470">
        <ele>658.225316</ele>
        <time>2021-11-03T16:20:50.182Z</time>
      </trkpt>
      <trkpt lat="38.663740" lon="-1.222750">
        <ele>657.920846</ele>
        <time>2021-11-03T16:20:50.182Z</time>
      </trkpt>
      <trkpt lat="38.663260" lon="-1.222010">
        <ele>657.598122</ele>
        <time>2021-11-03T16:20:50.182Z</time>
      </trkpt>
      <trkpt lat="38.663000" lon="-1.221485">
        <ele>657.316371</ele>
        <time>2021-11-03T16:20:50.182Z</time>
      </trkpt>
      <trkpt lat="38.662740" lon="-1.220960">
        <ele>657.034619</ele>
        <time>2021-11-03T16:20:50.182Z</time>
      </trkpt>
      <trkpt lat="38.662210" lon="-1.220210">
        <ele>656.559770</ele>
        <time>2021-11-03T16:20:50.182Z</time>
      </trkpt>
      <trkpt lat="38.661970" lon="-1.219800">
        <ele>656.271200</ele>
        <time>2021-11-03T16:20:50.182Z</time>
      </trkpt>
      <trkpt lat="38.661590" lon="-1.218890">
        <ele>655.690045</ele>
        <time>2021-11-03T16:20:50.182Z</time>
      </trkpt>
      <trkpt lat="38.661460" lon="-1.218480">
        <ele>655.440839</ele>
        <time>2021-11-03T16:20:50.182Z</time>
      </trkpt>
      <trkpt lat="38.661330" lon="-1.217900">
        <ele>655.416059</ele>
        <time>2021-11-03T16:20:50.182Z</time>
      </trkpt>
      <trkpt lat="38.661220" lon="-1.217300">
        <ele>655.514169</ele>
        <time>2021-11-03T16:20:50.182Z</time>
      </trkpt>
      <trkpt lat="38.661070" lon="-1.216705">
        <ele>655.613701</ele>
        <time>2021-11-03T16:20:50.182Z</time>
      </trkpt>
      <trkpt lat="38.660920" lon="-1.216110">
        <ele>655.713232</ele>
        <time>2021-11-03T16:20:50.182Z</time>
      </trkpt>
      <trkpt lat="38.660780" lon="-1.215800">
        <ele>656.072484</ele>
        <time>2021-11-03T16:20:50.182Z</time>
      </trkpt>
      <trkpt lat="38.660640" lon="-1.215670">
        <ele>656.294908</ele>
        <time>2021-11-03T16:20:50.182Z</time>
      </trkpt>
      <trkpt lat="38.660410" lon="-1.215540">
        <ele>656.618268</ele>
        <time>2021-11-03T16:20:50.182Z</time>
      </trkpt>
      <trkpt lat="38.659800" lon="-1.215500">
        <ele>657.403886</ele>
        <time>2021-11-03T16:20:50.182Z</time>
      </trkpt>
      <trkpt lat="38.659650" lon="-1.215400">
        <ele>657.621395</ele>
        <time>2021-11-03T16:20:50.182Z</time>
      </trkpt>
      <trkpt lat="38.659450" lon="-1.215230">
        <ele>657.930145</ele>
        <time>2021-11-03T16:20:50.182Z</time>
      </trkpt>
      <trkpt lat="38.659300" lon="-1.214920">
        <ele>657.816398</ele>
        <time>2021-11-03T16:20:50.182Z</time>
      </trkpt>
      <trkpt lat="38.659170" lon="-1.214480">
        <ele>657.447848</ele>
        <time>2021-11-03T16:20:50.182Z</time>
      </trkpt>
      <trkpt lat="38.659080" lon="-1.213880">
        <ele>656.969207</ele>
        <time>2021-11-03T16:20:50.182Z</time>
      </trkpt>
      <trkpt lat="38.659000" lon="-1.213100">
        <ele>656.352896</ele>
        <time>2021-11-03T16:20:50.182Z</time>
      </trkpt>
      <trkpt lat="38.658920" lon="-1.212620">
        <ele>656.103132</ele>
        <time>2021-11-03T16:20:50.182Z</time>
      </trkpt>
      <trkpt lat="38.658670" lon="-1.211700">
        <ele>655.745028</ele>
        <time>2021-11-03T16:20:50.182Z</time>
      </trkpt>
      <trkpt lat="38.658460" lon="-1.210860">
        <ele>655.420786</ele>
        <time>2021-11-03T16:20:50.182Z</time>
      </trkpt>
      <trkpt lat="38.658200" lon="-1.210165">
        <ele>654.854802</ele>
        <time>2021-11-03T16:20:50.182Z</time>
      </trkpt>
      <trkpt lat="38.657940" lon="-1.209470">
        <ele>654.235037</ele>
        <time>2021-11-03T16:20:50.182Z</time>
      </trkpt>
      <trkpt lat="38.657635" lon="-1.208775">
        <ele>653.593883</ele>
        <time>2021-11-03T16:20:50.182Z</time>
      </trkpt>
      <trkpt lat="38.657330" lon="-1.208080">
        <ele>652.618205</ele>
        <time>2021-11-03T16:20:50.182Z</time>
      </trkpt>
      <trkpt lat="38.657120" lon="-1.207470">
        <ele>651.767629</ele>
        <time>2021-11-03T16:20:50.182Z</time>
      </trkpt>
      <trkpt lat="38.656930" lon="-1.206420">
        <ele>650.430294</ele>
        <time>2021-11-03T16:20:50.182Z</time>
      </trkpt>
      <trkpt lat="38.656840" lon="-1.206010">
        <ele>649.994114</ele>
        <time>2021-11-03T16:20:50.182Z</time>
      </trkpt>
      <trkpt lat="38.656563" lon="-1.205287">
        <ele>649.169327</ele>
        <time>2021-11-03T16:20:50.182Z</time>
      </trkpt>
      <trkpt lat="38.656287" lon="-1.204563">
        <ele>648.344194</ele>
        <time>2021-11-03T16:20:50.182Z</time>
      </trkpt>
      <trkpt lat="38.656010" lon="-1.203840">
        <ele>647.647562</ele>
        <time>2021-11-03T16:20:50.182Z</time>
      </trkpt>
      <trkpt lat="38.655705" lon="-1.203130">
        <ele>646.968295</ele>
        <time>2021-11-03T16:20:50.182Z</time>
      </trkpt>
      <trkpt lat="38.655400" lon="-1.202420">
        <ele>646.290224</ele>
        <time>2021-11-03T16:20:50.182Z</time>
      </trkpt>
      <trkpt lat="38.655020" lon="-1.201910">
        <ele>645.824646</ele>
        <time>2021-11-03T16:20:50.182Z</time>
      </trkpt>
      <trkpt lat="38.654740" lon="-1.201300">
        <ele>645.357301</ele>
        <time>2021-11-03T16:20:50.182Z</time>
      </trkpt>
      <trkpt lat="38.654520" lon="-1.200650">
        <ele>644.889392</ele>
        <time>2021-11-03T16:20:50.182Z</time>
      </trkpt>
      <trkpt lat="38.654205" lon="-1.199805">
        <ele>644.376890</ele>
        <time>2021-11-03T16:20:50.182Z</time>
      </trkpt>
      <trkpt lat="38.653890" lon="-1.198960">
        <ele>643.888841</ele>
        <time>2021-11-03T16:20:50.182Z</time>
      </trkpt>
      <trkpt lat="38.653750" lon="-1.198480">
        <ele>643.621768</ele>
        <time>2021-11-03T16:20:50.182Z</time>
      </trkpt>
      <trkpt lat="38.653590" lon="-1.198180">
        <ele>643.368180</ele>
        <time>2021-11-03T16:20:50.182Z</time>
      </trkpt>
      <trkpt lat="38.653110" lon="-1.197530">
        <ele>642.688712</ele>
        <time>2021-11-03T16:20:50.182Z</time>
      </trkpt>
      <trkpt lat="38.652705" lon="-1.196720">
        <ele>641.958195</ele>
        <time>2021-11-03T16:20:50.182Z</time>
      </trkpt>
      <trkpt lat="38.652300" lon="-1.195910">
        <ele>641.253550</ele>
        <time>2021-11-03T16:20:50.182Z</time>
      </trkpt>
      <trkpt lat="38.652030" lon="-1.195260">
        <ele>640.718636</ele>
        <time>2021-11-03T16:20:50.182Z</time>
      </trkpt>
      <trkpt lat="38.651790" lon="-1.194790">
        <ele>640.310630</ele>
        <time>2021-11-03T16:20:50.182Z</time>
      </trkpt>
      <trkpt lat="38.651600" lon="-1.194320">
        <ele>639.991612</ele>
        <time>2021-11-03T16:20:50.182Z</time>
      </trkpt>
      <trkpt lat="38.651450" lon="-1.193740">
        <ele>639.677462</ele>
        <time>2021-11-03T16:20:50.182Z</time>
      </trkpt>
      <trkpt lat="38.651310" lon="-1.193330">
        <ele>639.447379</ele>
        <time>2021-11-03T16:20:50.182Z</time>
      </trkpt>
      <trkpt lat="38.651020" lon="-1.192620">
        <ele>639.035396</ele>
        <time>2021-11-03T16:20:50.182Z</time>
      </trkpt>
      <trkpt lat="38.650615" lon="-1.191690">
        <ele>638.568759</ele>
        <time>2021-11-03T16:20:50.182Z</time>
      </trkpt>
      <trkpt lat="38.650210" lon="-1.190760">
        <ele>638.113862</ele>
        <time>2021-11-03T16:20:50.182Z</time>
      </trkpt>
      <trkpt lat="38.650070" lon="-1.190190">
        <ele>637.851768</ele>
        <time>2021-11-03T16:20:50.182Z</time>
      </trkpt>
      <trkpt lat="38.649830" lon="-1.189680">
        <ele>637.583332</ele>
        <time>2021-11-03T16:20:50.182Z</time>
      </trkpt>
      <trkpt lat="38.649590" lon="-1.189170">
        <ele>637.314895</ele>
        <time>2021-11-03T16:20:50.182Z</time>
      </trkpt>
      <trkpt lat="38.649340" lon="-1.188620">
        <ele>637.027999</ele>
        <time>2021-11-03T16:20:50.182Z</time>
      </trkpt>
      <trkpt lat="38.649270" lon="-1.188210">
        <ele>636.914130</ele>
        <time>2021-11-03T16:20:50.182Z</time>
      </trkpt>
      <trkpt lat="38.649290" lon="-1.187360">
        <ele>636.805793</ele>
        <time>2021-11-03T16:20:50.182Z</time>
      </trkpt>
      <trkpt lat="38.649130" lon="-1.186450">
        <ele>636.686960</ele>
        <time>2021-11-03T16:20:50.182Z</time>
      </trkpt>
      <trkpt lat="38.649040" lon="-1.185540">
        <ele>636.051635</ele>
        <time>2021-11-03T16:20:50.182Z</time>
      </trkpt>
      <trkpt lat="38.648885" lon="-1.184980">
        <ele>635.487238</ele>
        <time>2021-11-03T16:20:50.182Z</time>
      </trkpt>
      <trkpt lat="38.648730" lon="-1.184420">
        <ele>634.922840</ele>
        <time>2021-11-03T16:20:50.182Z</time>
      </trkpt>
      <trkpt lat="38.648570" lon="-1.183940">
        <ele>634.425854</ele>
        <time>2021-11-03T16:20:50.182Z</time>
      </trkpt>
      <trkpt lat="38.648340" lon="-1.183600">
        <ele>633.984017</ele>
        <time>2021-11-03T16:20:50.182Z</time>
      </trkpt>
      <trkpt lat="38.648030" lon="-1.183160">
        <ele>633.401937</ele>
        <time>2021-11-03T16:20:50.182Z</time>
      </trkpt>
      <trkpt lat="38.647750" lon="-1.182490">
        <ele>632.655510</ele>
        <time>2021-11-03T16:20:50.182Z</time>
      </trkpt>
      <trkpt lat="38.647420" lon="-1.181615">
        <ele>631.823766</ele>
        <time>2021-11-03T16:20:50.182Z</time>
      </trkpt>
      <trkpt lat="38.647090" lon="-1.180740">
        <ele>631.103864</ele>
        <time>2021-11-03T16:20:50.182Z</time>
      </trkpt>
      <trkpt lat="38.646780" lon="-1.179940">
        <ele>630.455194</ele>
        <time>2021-11-03T16:20:50.182Z</time>
      </trkpt>
      <trkpt lat="38.646530" lon="-1.179500">
        <ele>630.152812</ele>
        <time>2021-11-03T16:20:50.182Z</time>
      </trkpt>
      <trkpt lat="38.646380" lon="-1.179080">
        <ele>629.896158</ele>
        <time>2021-11-03T16:20:50.182Z</time>
      </trkpt>
      <trkpt lat="38.646260" lon="-1.178360">
        <ele>629.487021</ele>
        <time>2021-11-03T16:20:50.182Z</time>
      </trkpt>
      <trkpt lat="38.646170" lon="-1.177880">
        <ele>629.212988</ele>
        <time>2021-11-03T16:20:50.182Z</time>
      </trkpt>
      <trkpt lat="38.646060" lon="-1.177470">
        <ele>629.015936</ele>
        <time>2021-11-03T16:20:50.182Z</time>
      </trkpt>
      <trkpt lat="38.645860" lon="-1.177070">
        <ele>628.800050</ele>
        <time>2021-11-03T16:20:50.182Z</time>
      </trkpt>
      <trkpt lat="38.645740" lon="-1.176900">
        <ele>628.695894</ele>
        <time>2021-11-03T16:20:50.182Z</time>
      </trkpt>
      <trkpt lat="38.645140" lon="-1.176080">
        <ele>628.185144</ele>
        <time>2021-11-03T16:20:50.182Z</time>
      </trkpt>
      <trkpt lat="38.644900" lon="-1.175640">
        <ele>627.736795</ele>
        <time>2021-11-03T16:20:50.182Z</time>
      </trkpt>
      <trkpt lat="38.644790" lon="-1.175340">
        <ele>627.450110</ele>
        <time>2021-11-03T16:20:50.182Z</time>
      </trkpt>
      <trkpt lat="38.644630" lon="-1.174960">
        <ele>627.076673</ele>
        <time>2021-11-03T16:20:50.182Z</time>
      </trkpt>
      <trkpt lat="38.644165" lon="-1.174185">
        <ele>626.231286</ele>
        <time>2021-11-03T16:20:50.182Z</time>
      </trkpt>
      <trkpt lat="38.643700" lon="-1.173410">
        <ele>625.773227</ele>
        <time>2021-11-03T16:20:50.182Z</time>
      </trkpt>
      <trkpt lat="38.643100" lon="-1.172660">
        <ele>625.300106</ele>
        <time>2021-11-03T16:20:50.182Z</time>
      </trkpt>
      <trkpt lat="38.642570" lon="-1.171840">
        <ele>624.860727</ele>
        <time>2021-11-03T16:20:50.182Z</time>
      </trkpt>
      <trkpt lat="38.642270" lon="-1.171440">
        <ele>624.638342</ele>
        <time>2021-11-03T16:20:50.182Z</time>
      </trkpt>
      <trkpt lat="38.641790" lon="-1.170670">
        <ele>624.243269</ele>
        <time>2021-11-03T16:20:50.182Z</time>
      </trkpt>
      <trkpt lat="38.641490" lon="-1.170420">
        <ele>624.016397</ele>
        <time>2021-11-03T16:20:50.182Z</time>
      </trkpt>
      <trkpt lat="38.641310" lon="-1.170150">
        <ele>623.839516</ele>
        <time>2021-11-03T16:20:50.182Z</time>
      </trkpt>
      <trkpt lat="38.640980" lon="-1.169470">
        <ele>623.440603</ele>
        <time>2021-11-03T16:20:50.182Z</time>
      </trkpt>
      <trkpt lat="38.640620" lon="-1.169100">
        <ele>623.146091</ele>
        <time>2021-11-03T16:20:50.182Z</time>
      </trkpt>
      <trkpt lat="38.640440" lon="-1.168620">
        <ele>622.648675</ele>
        <time>2021-11-03T16:20:50.182Z</time>
      </trkpt>
      <trkpt lat="38.639960" lon="-1.167910">
        <ele>621.660949</ele>
        <time>2021-11-03T16:20:50.182Z</time>
      </trkpt>
      <trkpt lat="38.639460" lon="-1.167420">
        <ele>620.812980</ele>
        <time>2021-11-03T16:20:50.182Z</time>
      </trkpt>
      <trkpt lat="38.638960" lon="-1.166930">
        <ele>620.181854</ele>
        <time>2021-11-03T16:20:50.182Z</time>
      </trkpt>
      <trkpt lat="38.638485" lon="-1.166405">
        <ele>619.597641</ele>
        <time>2021-11-03T16:20:50.182Z</time>
      </trkpt>
      <trkpt lat="38.638010" lon="-1.165880">
        <ele>619.013427</ele>
        <time>2021-11-03T16:20:50.182Z</time>
      </trkpt>
      <trkpt lat="38.637800" lon="-1.165570">
        <ele>618.692681</ele>
        <time>2021-11-03T16:20:50.182Z</time>
      </trkpt>
      <trkpt lat="38.637440" lon="-1.165100">
        <ele>618.175504</ele>
        <time>2021-11-03T16:20:50.182Z</time>
      </trkpt>
      <trkpt lat="38.637270" lon="-1.164860">
        <ele>617.920958</ele>
        <time>2021-11-03T16:20:50.182Z</time>
      </trkpt>
      <trkpt lat="38.637160" lon="-1.164620">
        <ele>617.702334</ele>
        <time>2021-11-03T16:20:50.182Z</time>
      </trkpt>
      <trkpt lat="38.637020" lon="-1.164150">
        <ele>617.307129</ele>
        <time>2021-11-03T16:20:50.182Z</time>
      </trkpt>
      <trkpt lat="38.636850" lon="-1.163670">
        <ele>617.001895</ele>
        <time>2021-11-03T16:20:50.182Z</time>
      </trkpt>
      <trkpt lat="38.636493" lon="-1.163030">
        <ele>616.615283</ele>
        <time>2021-11-03T16:20:50.182Z</time>
      </trkpt>
      <trkpt lat="38.636137" lon="-1.162390">
        <ele>616.229034</ele>
        <time>2021-11-03T16:20:50.182Z</time>
      </trkpt>
      <trkpt lat="38.635780" lon="-1.161750">
        <ele>615.952752</ele>
        <time>2021-11-03T16:20:50.182Z</time>
      </trkpt>
      <trkpt lat="38.635345" lon="-1.160915">
        <ele>615.719261</ele>
        <time>2021-11-03T16:20:50.182Z</time>
      </trkpt>
      <trkpt lat="38.634910" lon="-1.160080">
        <ele>615.483162</ele>
        <time>2021-11-03T16:20:50.182Z</time>
      </trkpt>
      <trkpt lat="38.634450" lon="-1.159540">
        <ele>615.281356</ele>
        <time>2021-11-03T16:20:50.182Z</time>
      </trkpt>
      <trkpt lat="38.633990" lon="-1.159000">
        <ele>615.079549</ele>
        <time>2021-11-03T16:20:50.182Z</time>
      </trkpt>
      <trkpt lat="38.633580" lon="-1.158425">
        <ele>614.824134</ele>
        <time>2021-11-03T16:20:50.182Z</time>
      </trkpt>
      <trkpt lat="38.633170" lon="-1.157850">
        <ele>614.403960</ele>
        <time>2021-11-03T16:20:50.182Z</time>
      </trkpt>
      <trkpt lat="38.632990" lon="-1.157510">
        <ele>614.182289</ele>
        <time>2021-11-03T16:20:50.182Z</time>
      </trkpt>
      <trkpt lat="38.632940" lon="-1.157350">
        <ele>614.089283</ele>
        <time>2021-11-03T16:20:50.182Z</time>
      </trkpt>
      <trkpt lat="38.632870" lon="-1.156350">
        <ele>613.531050</ele>
        <time>2021-11-03T16:20:50.182Z</time>
      </trkpt>
      <trkpt lat="38.632870" lon="-1.155780">
        <ele>613.188583</ele>
        <time>2021-11-03T16:20:50.182Z</time>
      </trkpt>
      <trkpt lat="38.632850" lon="-1.155540">
        <ele>613.043567</ele>
        <time>2021-11-03T16:20:50.182Z</time>
      </trkpt>
      <trkpt lat="38.632655" lon="-1.154660">
        <ele>612.493984</ele>
        <time>2021-11-03T16:20:50.182Z</time>
      </trkpt>
      <trkpt lat="38.632460" lon="-1.153780">
        <ele>612.044984</ele>
        <time>2021-11-03T16:20:50.182Z</time>
      </trkpt>
      <trkpt lat="38.632265" lon="-1.152900">
        <ele>611.647214</ele>
        <time>2021-11-03T16:20:50.182Z</time>
      </trkpt>
      <trkpt lat="38.632070" lon="-1.152020">
        <ele>611.286099</ele>
        <time>2021-11-03T16:20:50.182Z</time>
      </trkpt>
      <trkpt lat="38.631930" lon="-1.151570">
        <ele>611.208986</ele>
        <time>2021-11-03T16:20:50.182Z</time>
      </trkpt>
      <trkpt lat="38.631680" lon="-1.150900">
        <ele>611.090777</ele>
        <time>2021-11-03T16:20:50.182Z</time>
      </trkpt>
      <trkpt lat="38.631450" lon="-1.150600">
        <ele>611.023858</ele>
        <time>2021-11-03T16:20:50.182Z</time>
      </trkpt>
      <trkpt lat="38.631065" lon="-1.150190">
        <ele>610.995591</ele>
        <time>2021-11-03T16:20:50.182Z</time>
      </trkpt>
      <trkpt lat="38.630680" lon="-1.149780">
        <ele>611.291719</ele>
        <time>2021-11-03T16:20:50.182Z</time>
      </trkpt>
      <trkpt lat="38.630140" lon="-1.149170">
        <ele>611.717570</ele>
        <time>2021-11-03T16:20:50.182Z</time>
      </trkpt>
      <trkpt lat="38.629920" lon="-1.148900">
        <ele>611.897784</ele>
        <time>2021-11-03T16:20:50.182Z</time>
      </trkpt>
      <trkpt lat="38.629590" lon="-1.148530">
        <ele>612.172060</ele>
        <time>2021-11-03T16:20:50.182Z</time>
      </trkpt>
      <trkpt lat="38.629450" lon="-1.148450">
        <ele>612.271537</ele>
        <time>2021-11-03T16:20:50.182Z</time>
      </trkpt>
      <trkpt lat="38.629380" lon="-1.148460">
        <ele>612.317237</ele>
        <time>2021-11-03T16:20:50.182Z</time>
      </trkpt>
      <trkpt lat="38.629300" lon="-1.148490">
        <ele>612.371326</ele>
        <time>2021-11-03T16:20:50.182Z</time>
      </trkpt>
      <trkpt lat="38.629320" lon="-1.148610">
        <ele>612.433519</ele>
        <time>2021-11-03T16:20:50.182Z</time>
      </trkpt>
      <trkpt lat="38.629280" lon="-1.148730">
        <ele>612.499649</ele>
        <time>2021-11-03T16:20:50.182Z</time>
      </trkpt>
      <trkpt lat="38.629190" lon="-1.148740">
        <ele>612.558264</ele>
        <time>2021-11-03T16:20:50.182Z</time>
      </trkpt>
      <trkpt lat="38.629160" lon="-1.148730">
        <ele>612.578378</ele>
        <time>2021-11-03T16:20:50.182Z</time>
      </trkpt>
      <trkpt lat="38.629100" lon="-1.148640">
        <ele>612.638350</ele>
        <time>2021-11-03T16:20:50.182Z</time>
      </trkpt>
      <trkpt lat="38.629050" lon="-1.148410">
        <ele>612.759361</ele>
        <time>2021-11-03T16:20:50.182Z</time>
      </trkpt>
      <trkpt lat="38.628980" lon="-1.148260">
        <ele>612.847924</ele>
        <time>2021-11-03T16:20:50.182Z</time>
      </trkpt>
      <trkpt lat="38.628455" lon="-1.147460">
        <ele>612.727948</ele>
        <time>2021-11-03T16:20:50.182Z</time>
      </trkpt>
      <trkpt lat="38.627930" lon="-1.146660">
        <ele>611.589553</ele>
        <time>2021-11-03T16:20:50.182Z</time>
      </trkpt>
      <trkpt lat="38.627360" lon="-1.145850">
        <ele>610.481434</ele>
        <time>2021-11-03T16:20:50.182Z</time>
      </trkpt>
      <trkpt lat="38.626777" lon="-1.145047">
        <ele>609.651817</ele>
        <time>2021-11-03T16:20:50.182Z</time>
      </trkpt>
      <trkpt lat="38.626193" lon="-1.144243">
        <ele>608.833608</ele>
        <time>2021-11-03T16:20:50.182Z</time>
      </trkpt>
      <trkpt lat="38.625610" lon="-1.143440">
        <ele>608.109460</ele>
        <time>2021-11-03T16:20:50.182Z</time>
      </trkpt>
      <trkpt lat="38.625230" lon="-1.142900">
        <ele>607.629365</ele>
        <time>2021-11-03T16:20:50.182Z</time>
      </trkpt>
      <trkpt lat="38.624850" lon="-1.142360">
        <ele>607.260797</ele>
        <time>2021-11-03T16:20:50.182Z</time>
      </trkpt>
      <trkpt lat="38.624380" lon="-1.141460">
        <ele>606.864501</ele>
        <time>2021-11-03T16:20:50.182Z</time>
      </trkpt>
      <trkpt lat="38.623910" lon="-1.140560">
        <ele>606.393460</ele>
        <time>2021-11-03T16:20:50.182Z</time>
      </trkpt>
      <trkpt lat="38.623830" lon="-1.140250">
        <ele>606.172915</ele>
        <time>2021-11-03T16:20:50.182Z</time>
      </trkpt>
      <trkpt lat="38.623790" lon="-1.139820">
        <ele>605.880384</ele>
        <time>2021-11-03T16:20:50.182Z</time>
      </trkpt>
      <trkpt lat="38.623760" lon="-1.138760">
        <ele>605.163848</ele>
        <time>2021-11-03T16:20:50.182Z</time>
      </trkpt>
      <trkpt lat="38.623700" lon="-1.138250">
        <ele>604.724552</ele>
        <time>2021-11-03T16:20:50.182Z</time>
      </trkpt>
      <trkpt lat="38.623650" lon="-1.138150">
        <ele>604.605145</ele>
        <time>2021-11-03T16:20:50.182Z</time>
      </trkpt>
      <trkpt lat="38.623660" lon="-1.138030">
        <ele>604.483773</ele>
        <time>2021-11-03T16:20:50.182Z</time>
      </trkpt>
      <trkpt lat="38.623640" lon="-1.137580">
        <ele>604.030461</ele>
        <time>2021-11-03T16:20:50.182Z</time>
      </trkpt>
      <trkpt lat="38.623510" lon="-1.137270">
        <ele>603.676609</ele>
        <time>2021-11-03T16:20:50.182Z</time>
      </trkpt>
      <trkpt lat="38.623300" lon="-1.136870">
        <ele>603.191921</ele>
        <time>2021-11-03T16:20:50.182Z</time>
      </trkpt>
      <trkpt lat="38.623190" lon="-1.136560">
        <ele>602.849491</ele>
        <time>2021-11-03T16:20:50.182Z</time>
      </trkpt>
      <trkpt lat="38.623020" lon="-1.135870">
        <ele>601.920616</ele>
        <time>2021-11-03T16:20:50.182Z</time>
      </trkpt>
      <trkpt lat="38.622950" lon="-1.135640">
        <ele>601.583810</ele>
        <time>2021-11-03T16:20:50.182Z</time>
      </trkpt>
      <trkpt lat="38.622760" lon="-1.135240">
        <ele>600.945052</ele>
        <time>2021-11-03T16:20:50.182Z</time>
      </trkpt>
      <trkpt lat="38.622210" lon="-1.134490">
        <ele>599.541509</ele>
        <time>2021-11-03T16:20:50.182Z</time>
      </trkpt>
      <trkpt lat="38.621708" lon="-1.133550">
        <ele>598.002716</ele>
        <time>2021-11-03T16:20:50.182Z</time>
      </trkpt>
      <trkpt lat="38.621205" lon="-1.132610">
        <ele>596.462939</ele>
        <time>2021-11-03T16:20:50.182Z</time>
      </trkpt>
      <trkpt lat="38.620702" lon="-1.131670">
        <ele>595.633193</ele>
        <time>2021-11-03T16:20:50.182Z</time>
      </trkpt>
      <trkpt lat="38.620200" lon="-1.130730">
        <ele>594.817881</ele>
        <time>2021-11-03T16:20:50.182Z</time>
      </trkpt>
      <trkpt lat="38.620080" lon="-1.130590">
        <ele>585.903824</ele>
        <time>2021-11-03T16:20:50.182Z</time>
      </trkpt>
      <trkpt lat="38.619420" lon="-1.130045">
        <ele>530.699767</ele>
        <time>2021-11-03T16:20:50.182Z</time>
      </trkpt>
      <trkpt lat="38.618760" lon="-1.129500">
        <ele>475.495561</ele>
        <time>2021-11-03T16:20:50.182Z</time>
      </trkpt>
      <trkpt lat="38.618580" lon="-1.129460">
        <ele>447.200503</ele>
        <time>2021-11-03T16:20:50.182Z</time>
      </trkpt>
      <trkpt lat="38.618520" lon="-1.129510">
        <ele>428.556542</ele>
        <time>2021-11-03T16:20:50.182Z</time>
      </trkpt>
      <trkpt lat="38.618390" lon="-1.129440">
        <ele>391.830529</ele>
        <time>2021-11-03T16:20:50.182Z</time>
      </trkpt>
      <trkpt lat="38.618330" lon="-1.129240">
        <ele>348.242735</ele>
        <time>2021-11-03T16:20:50.182Z</time>
      </trkpt>
      <trkpt lat="38.618225" lon="-1.129301">
        <ele>318.215738</ele>
        <time>2021-11-03T16:20:50.182Z</time>
      </trkpt>
      <trkpt lat="38.617370" lon="-1.128284">
        <ele>14.267528</ele>
        <time>2021-11-03T16:20:50.182Z</time>
      </trkpt>
      <trkpt lat="38.616960" lon="-1.128000">
        <ele>0.000000</ele>
        <time>2021-11-03T16:20:50.182Z</time>
      </trkpt>
      <trkpt lat="38.616516" lon="-1.127954">
        <ele>0.000000</ele>
        <time>2021-11-03T16:20:50.182Z</time>
      </trkpt>
      <trkpt lat="38.616327" lon="-1.128075">
        <ele>0.000000</ele>
        <time>2021-11-03T16:20:50.182Z</time>
      </trkpt>
      <trkpt lat="38.616264" lon="-1.126782">
        <ele>0.000000</ele>
        <time>2021-11-03T16:20:50.182Z</time>
      </trkpt>
      <trkpt lat="38.616042" lon="-1.125809">
        <ele>0.000000</ele>
        <time>2021-11-03T16:20:50.182Z</time>
      </trkpt>
      <trkpt lat="38.615852" lon="-1.125200">
        <ele>0.000000</ele>
        <time>2021-11-03T16:20:50.182Z</time>
      </trkpt>
      <trkpt lat="38.615726" lon="-1.124352">
        <ele>0.000000</ele>
        <time>2021-11-03T16:20:50.182Z</time>
      </trkpt>
      <trkpt lat="38.615682" lon="-1.123198">
        <ele>0.000000</ele>
        <time>2021-11-03T16:20:50.182Z</time>
      </trkpt>
      <trkpt lat="38.615696" lon="-1.122199">
        <ele>0.000000</ele>
        <time>2021-11-03T16:20:50.182Z</time>
      </trkpt>
      <trkpt lat="38.615726" lon="-1.121790">
        <ele>0.000000</ele>
        <time>2021-11-03T16:20:50.182Z</time>
      </trkpt>
      <trkpt lat="38.615270" lon="-1.120706">
        <ele>0.000000</ele>
        <time>2021-11-03T16:20:50.182Z</time>
      </trkpt>
      <trkpt lat="38.615119" lon="-1.119716">
        <ele>0.000000</ele>
        <time>2021-11-03T16:20:50.182Z</time>
      </trkpt>
      <trkpt lat="38.614878" lon="-1.118307">
        <ele>0.000000</ele>
        <time>2021-11-03T16:20:50.182Z</time>
      </trkpt>
      <trkpt lat="38.614577" lon="-1.117590">
        <ele>0.000000</ele>
        <time>2021-11-03T16:20:50.182Z</time>
      </trkpt>
      <trkpt lat="38.614085" lon="-1.116203">
        <ele>0.000000</ele>
        <time>2021-11-03T16:20:50.182Z</time>
      </trkpt>
      <trkpt lat="38.613445" lon="-1.114806">
        <ele>0.000000</ele>
        <time>2021-11-03T16:20:50.182Z</time>
      </trkpt>
      <trkpt lat="38.613370" lon="-1.114616">
        <ele>0.000000</ele>
        <time>2021-11-03T16:20:50.182Z</time>
      </trkpt>
      <trkpt lat="38.611940" lon="-1.115548">
        <ele>0.000000</ele>
        <time>2021-11-03T16:20:50.182Z</time>
      </trkpt>
      <trkpt lat="38.612202" lon="-1.116678">
        <ele>0.000000</ele>
        <time>2021-11-03T16:20:50.182Z</time>
      </trkpt>
      <trkpt lat="38.612289" lon="-1.116788">
        <ele>0.000000</ele>
        <time>2021-10-29T14:18:04.000Z</time>
      </trkpt>
      <trkpt lat="38.612317" lon="-1.116848">
        <ele>0.000000</ele>
        <time>2021-10-29T14:18:04.000Z</time>
      </trkpt>
      <trkpt lat="38.612327" lon="-1.116909">
        <ele>0.000000</ele>
        <time>2021-10-29T14:18:04.000Z</time>
      </trkpt>
      <trkpt lat="38.612346" lon="-1.116945">
        <ele>0.000000</ele>
        <time>2021-10-29T14:18:04.000Z</time>
      </trkpt>
      <trkpt lat="38.612374" lon="-1.117019">
        <ele>0.000000</ele>
        <time>2021-10-29T14:18:04.000Z</time>
      </trkpt>
      <trkpt lat="38.612403" lon="-1.117067">
        <ele>0.000000</ele>
        <time>2021-10-29T14:18:04.000Z</time>
      </trkpt>
      <trkpt lat="38.612422" lon="-1.117103">
        <ele>0.000000</ele>
        <time>2021-10-29T14:18:04.000Z</time>
      </trkpt>
      <trkpt lat="38.612459" lon="-1.117174">
        <ele>0.000000</ele>
        <time>2021-10-29T14:18:04.000Z</time>
      </trkpt>
      <trkpt lat="38.612498" lon="-1.117223">
        <ele>0.000000</ele>
        <time>2021-10-29T14:18:04.000Z</time>
      </trkpt>
      <trkpt lat="38.612526" lon="-1.117248">
        <ele>0.000000</ele>
        <time>2021-10-29T14:18:04.000Z</time>
      </trkpt>
      <trkpt lat="38.612555" lon="-1.117309">
        <ele>0.000000</ele>
        <time>2021-10-29T14:18:04.000Z</time>
      </trkpt>
      <trkpt lat="38.612602" lon="-1.117381">
        <ele>0.000000</ele>
        <time>2021-10-29T14:18:04.000Z</time>
      </trkpt>
      <trkpt lat="38.612631" lon="-1.117416">
        <ele>0.000000</ele>
        <time>2021-10-29T14:18:04.000Z</time>
      </trkpt>
      <trkpt lat="38.612668" lon="-1.117439">
        <ele>0.000000</ele>
        <time>2021-10-29T14:18:04.000Z</time>
      </trkpt>
      <trkpt lat="38.612697" lon="-1.117500">
        <ele>0.000000</ele>
        <time>2021-10-29T14:18:04.000Z</time>
      </trkpt>
      <trkpt lat="38.612735" lon="-1.117535">
        <ele>0.000000</ele>
        <time>2021-10-29T14:18:04.000Z</time>
      </trkpt>
      <trkpt lat="38.612763" lon="-1.117582">
        <ele>0.000000</ele>
        <time>2021-10-29T14:18:04.000Z</time>
      </trkpt>
      <trkpt lat="38.612811" lon="-1.117628">
        <ele>0.000000</ele>
        <time>2021-10-29T14:18:04.000Z</time>
      </trkpt>
      <trkpt lat="38.612839" lon="-1.117650">
        <ele>0.000000</ele>
        <time>2021-10-29T14:18:04.000Z</time>
      </trkpt>
      <trkpt lat="38.612877" lon="-1.117726">
        <ele>0.000000</ele>
        <time>2021-10-29T14:18:04.000Z</time>
      </trkpt>
      <trkpt lat="38.612925" lon="-1.117765">
        <ele>0.000000</ele>
        <time>2021-10-29T14:18:04.000Z</time>
      </trkpt>
      <trkpt lat="38.612963" lon="-1.117776">
        <ele>0.000000</ele>
        <time>2021-10-29T14:18:04.000Z</time>
      </trkpt>
      <trkpt lat="38.613011" lon="-1.117799">
        <ele>0.000000</ele>
        <time>2021-10-29T14:18:04.000Z</time>
      </trkpt>
      <trkpt lat="38.613049" lon="-1.117835">
        <ele>0.000000</ele>
        <time>2021-10-29T14:18:04.000Z</time>
      </trkpt>
      <trkpt lat="38.613087" lon="-1.117845">
        <ele>0.000000</ele>
        <time>2021-10-29T14:18:04.000Z</time>
      </trkpt>
      <trkpt lat="38.613125" lon="-1.117868">
        <ele>0.000000</ele>
        <time>2021-10-29T14:18:04.000Z</time>
      </trkpt>
      <trkpt lat="38.613183" lon="-1.117915">
        <ele>0.000000</ele>
        <time>2021-10-29T14:18:04.000Z</time>
      </trkpt>
      <trkpt lat="38.613240" lon="-1.117937">
        <ele>0.000000</ele>
        <time>2021-10-29T14:18:04.000Z</time>
      </trkpt>
      <trkpt lat="38.613278" lon="-1.117961">
        <ele>0.000000</ele>
        <time>2021-10-29T14:18:04.000Z</time>
      </trkpt>
      <trkpt lat="38.613336" lon="-1.118008">
        <ele>0.000000</ele>
        <time>2021-10-29T14:18:04.000Z</time>
      </trkpt>
      <trkpt lat="38.613336" lon="-1.118033">
        <ele>0.000000</ele>
        <time>2021-10-29T14:18:04.000Z</time>
      </trkpt>
      <trkpt lat="38.613355" lon="-1.118131">
        <ele>0.000000</ele>
        <time>2021-10-29T14:18:04.000Z</time>
      </trkpt>
      <trkpt lat="38.613441" lon="-1.118235">
        <ele>0.000000</ele>
        <time>2021-10-29T14:18:04.000Z</time>
      </trkpt>
      <trkpt lat="38.613510" lon="-1.118259">
        <ele>0.000000</ele>
        <time>2021-10-29T14:18:04.000Z</time>
      </trkpt>
      <trkpt lat="38.613586" lon="-1.118292">
        <ele>0.000000</ele>
        <time>2021-10-29T14:18:04.000Z</time>
      </trkpt>
      <trkpt lat="38.613617" lon="-1.118374">
        <ele>0.000000</ele>
        <time>2021-10-29T14:18:04.000Z</time>
      </trkpt>
      <trkpt lat="38.613712" lon="-1.118588">
        <ele>0.000000</ele>
        <time>2021-10-29T14:18:04.000Z</time>
      </trkpt>
      <trkpt lat="38.613721" lon="-1.118777">
        <ele>0.000000</ele>
        <time>2021-10-29T14:18:04.000Z</time>
      </trkpt>
      <trkpt lat="38.613760" lon="-1.118812">
        <ele>0.000000</ele>
        <time>2021-10-29T14:18:04.000Z</time>
      </trkpt>
      <trkpt lat="38.613779" lon="-1.118873">
        <ele>0.000000</ele>
        <time>2021-10-29T14:18:04.000Z</time>
      </trkpt>
      <trkpt lat="38.613809" lon="-1.118945">
        <ele>0.000000</ele>
        <time>2021-10-29T14:18:04.000Z</time>
      </trkpt>
      <trkpt lat="38.613828" lon="-1.119018">
        <ele>0.000000</ele>
        <time>2021-10-29T14:18:04.000Z</time>
      </trkpt>
      <trkpt lat="38.613857" lon="-1.119091">
        <ele>0.000000</ele>
        <time>2021-10-29T14:18:04.000Z</time>
      </trkpt>
      <trkpt lat="38.613877" lon="-1.119152">
        <ele>0.000000</ele>
        <time>2021-10-29T14:18:04.000Z</time>
      </trkpt>
      <trkpt lat="38.613897" lon="-1.119236">
        <ele>0.000000</ele>
        <time>2021-10-29T14:18:04.000Z</time>
      </trkpt>
      <trkpt lat="38.613906" lon="-1.119260">
        <ele>0.000000</ele>
        <time>2021-10-29T14:18:04.000Z</time>
      </trkpt>
      <trkpt lat="38.613936" lon="-1.119320">
        <ele>0.000000</ele>
        <time>2021-10-29T14:18:04.000Z</time>
      </trkpt>
      <trkpt lat="38.613955" lon="-1.119382">
        <ele>0.000000</ele>
        <time>2021-10-29T14:18:04.000Z</time>
      </trkpt>
      <trkpt lat="38.613994" lon="-1.119456">
        <ele>0.000000</ele>
        <time>2021-10-29T14:18:04.000Z</time>
      </trkpt>
      <trkpt lat="38.614033" lon="-1.119468">
        <ele>0.000000</ele>
        <time>2021-10-29T14:18:04.000Z</time>
      </trkpt>
      <trkpt lat="38.614081" lon="-1.119468">
        <ele>0.000000</ele>
        <time>2021-10-29T14:18:04.000Z</time>
      </trkpt>
      <trkpt lat="38.614149" lon="-1.119467">
        <ele>0.000000</ele>
        <time>2021-10-29T14:18:04.000Z</time>
      </trkpt>
      <trkpt lat="38.614198" lon="-1.119479">
        <ele>0.000000</ele>
        <time>2021-10-29T14:18:04.000Z</time>
      </trkpt>
      <trkpt lat="38.614246" lon="-1.119490">
        <ele>0.000000</ele>
        <time>2021-10-29T14:18:04.000Z</time>
      </trkpt>
      <trkpt lat="38.614285" lon="-1.119490">
        <ele>0.000000</ele>
        <time>2021-10-29T14:18:04.000Z</time>
      </trkpt>
      <trkpt lat="38.614324" lon="-1.119502">
        <ele>0.000000</ele>
        <time>2021-10-29T14:18:04.000Z</time>
      </trkpt>
      <trkpt lat="38.614402" lon="-1.119525">
        <ele>0.000000</ele>
        <time>2021-10-29T14:18:04.000Z</time>
      </trkpt>
      <trkpt lat="38.614441" lon="-1.119574">
        <ele>0.000000</ele>
        <time>2021-10-29T14:18:04.000Z</time>
      </trkpt>
      <trkpt lat="38.614481" lon="-1.119598">
        <ele>0.000000</ele>
        <time>2021-10-29T14:18:04.000Z</time>
      </trkpt>
      <trkpt lat="38.614520" lon="-1.119635">
        <ele>0.000000</ele>
        <time>2021-10-29T14:18:04.000Z</time>
      </trkpt>
      <trkpt lat="38.614549" lon="-1.119671">
        <ele>0.000000</ele>
        <time>2021-10-29T14:18:04.000Z</time>
      </trkpt>
      <trkpt lat="38.614588" lon="-1.119733">
        <ele>0.000000</ele>
        <time>2021-10-29T14:18:04.000Z</time>
      </trkpt>
      <trkpt lat="38.614618" lon="-1.119795">
        <ele>0.000000</ele>
        <time>2021-10-29T14:18:04.000Z</time>
      </trkpt>
      <trkpt lat="38.614647" lon="-1.119943">
        <ele>0.000000</ele>
        <time>2021-10-29T14:18:04.000Z</time>
      </trkpt>
      <trkpt lat="38.614667" lon="-1.120042">
        <ele>0.000000</ele>
        <time>2021-10-29T14:18:04.000Z</time>
      </trkpt>
      <trkpt lat="38.614666" lon="-1.120092">
        <ele>0.000000</ele>
        <time>2021-10-29T14:18:04.000Z</time>
      </trkpt>
      <trkpt lat="38.614666" lon="-1.120192">
        <ele>0.000000</ele>
        <time>2021-10-29T14:18:04.000Z</time>
      </trkpt>
      <trkpt lat="38.614666" lon="-1.120291">
        <ele>0.000000</ele>
        <time>2021-10-29T14:18:04.000Z</time>
      </trkpt>
      <trkpt lat="38.614676" lon="-1.120341">
        <ele>0.000000</ele>
        <time>2021-10-29T14:18:04.000Z</time>
      </trkpt>
      <trkpt lat="38.614695" lon="-1.120440">
        <ele>0.000000</ele>
        <time>2021-10-29T14:18:04.000Z</time>
      </trkpt>
      <trkpt lat="38.614715" lon="-1.120589">
        <ele>0.000000</ele>
        <time>2021-10-29T14:18:04.000Z</time>
      </trkpt>
      <trkpt lat="38.614724" lon="-1.120676">
        <ele>0.000000</ele>
        <time>2021-10-29T14:18:04.000Z</time>
      </trkpt>
      <trkpt lat="38.614733" lon="-1.120776">
        <ele>0.000000</ele>
        <time>2021-10-29T14:18:04.000Z</time>
      </trkpt>
      <trkpt lat="38.614752" lon="-1.120863">
        <ele>0.000000</ele>
        <time>2021-10-29T14:18:04.000Z</time>
      </trkpt>
      <trkpt lat="38.614771" lon="-1.120962">
        <ele>0.000000</ele>
        <time>2021-10-29T14:18:04.000Z</time>
      </trkpt>
      <trkpt lat="38.614791" lon="-1.121036">
        <ele>0.000000</ele>
        <time>2021-10-29T14:18:04.000Z</time>
      </trkpt>
      <trkpt lat="38.614829" lon="-1.121185">
        <ele>0.000000</ele>
        <time>2021-10-29T14:18:04.000Z</time>
      </trkpt>
      <trkpt lat="38.614848" lon="-1.121284">
        <ele>0.000000</ele>
        <time>2021-10-29T14:18:04.000Z</time>
      </trkpt>
      <trkpt lat="38.614867" lon="-1.121359">
        <ele>0.000000</ele>
        <time>2021-10-29T14:18:04.000Z</time>
      </trkpt>
      <trkpt lat="38.614877" lon="-1.121433">
        <ele>0.000000</ele>
        <time>2021-10-29T14:18:04.000Z</time>
      </trkpt>
      <trkpt lat="38.614887" lon="-1.121507">
        <ele>0.000000</ele>
        <time>2021-10-29T14:18:04.000Z</time>
      </trkpt>
      <trkpt lat="38.614906" lon="-1.121582">
        <ele>0.000000</ele>
        <time>2021-10-29T14:18:04.000Z</time>
      </trkpt>
      <trkpt lat="38.614907" lon="-1.121656">
        <ele>0.000000</ele>
        <time>2021-10-29T14:18:04.000Z</time>
      </trkpt>
      <trkpt lat="38.614917" lon="-1.121743">
        <ele>0.000000</ele>
        <time>2021-10-29T14:18:04.000Z</time>
      </trkpt>
      <trkpt lat="38.614927" lon="-1.121830">
        <ele>0.000000</ele>
        <time>2021-10-29T14:18:04.000Z</time>
      </trkpt>
      <trkpt lat="38.614927" lon="-1.121879">
        <ele>0.000000</ele>
        <time>2021-10-29T14:18:04.000Z</time>
      </trkpt>
      <trkpt lat="38.614937" lon="-1.121929">
        <ele>0.000000</ele>
        <time>2021-10-29T14:18:04.000Z</time>
      </trkpt>
      <trkpt lat="38.614937" lon="-1.122016">
        <ele>0.000000</ele>
        <time>2021-10-29T14:18:04.000Z</time>
      </trkpt>
      <trkpt lat="38.614937" lon="-1.122090">
        <ele>0.000000</ele>
        <time>2021-10-29T14:18:04.000Z</time>
      </trkpt>
      <trkpt lat="38.614938" lon="-1.122165">
        <ele>0.000000</ele>
        <time>2021-10-29T14:18:04.000Z</time>
      </trkpt>
      <trkpt lat="38.614929" lon="-1.122252">
        <ele>0.000000</ele>
        <time>2021-10-29T14:18:04.000Z</time>
      </trkpt>
      <trkpt lat="38.614930" lon="-1.122377">
        <ele>0.000000</ele>
        <time>2021-10-29T14:18:04.000Z</time>
      </trkpt>
      <trkpt lat="38.614931" lon="-1.122452">
        <ele>0.000000</ele>
        <time>2021-10-29T14:18:04.000Z</time>
      </trkpt>
      <trkpt lat="38.614971" lon="-1.122602">
        <ele>0.000000</ele>
        <time>2021-10-29T14:18:04.000Z</time>
      </trkpt>
      <trkpt lat="38.614992" lon="-1.122714">
        <ele>0.000000</ele>
        <time>2021-10-29T14:18:04.000Z</time>
      </trkpt>
      <trkpt lat="38.615012" lon="-1.122839">
        <ele>0.000000</ele>
        <time>2021-10-29T14:18:04.000Z</time>
      </trkpt>
      <trkpt lat="38.615033" lon="-1.123014">
        <ele>0.000000</ele>
        <time>2021-10-29T14:18:04.000Z</time>
      </trkpt>
      <trkpt lat="38.615033" lon="-1.123177">
        <ele>0.000000</ele>
        <time>2021-10-29T14:18:04.000Z</time>
      </trkpt>
      <trkpt lat="38.615033" lon="-1.123264">
        <ele>0.000000</ele>
        <time>2021-10-29T14:18:04.000Z</time>
      </trkpt>
      <trkpt lat="38.615034" lon="-1.123364">
        <ele>0.000000</ele>
        <time>2021-10-29T14:18:04.000Z</time>
      </trkpt>
      <trkpt lat="38.615034" lon="-1.123402">
        <ele>0.000000</ele>
        <time>2021-10-29T14:18:04.000Z</time>
      </trkpt>
      <trkpt lat="38.615053" lon="-1.123514">
        <ele>0.000000</ele>
        <time>2021-10-29T14:18:04.000Z</time>
      </trkpt>
      <trkpt lat="38.615053" lon="-1.123713">
        <ele>0.000000</ele>
        <time>2021-10-29T14:18:04.000Z</time>
      </trkpt>
      <trkpt lat="38.615052" lon="-1.123887">
        <ele>0.000000</ele>
        <time>2021-10-29T14:18:04.000Z</time>
      </trkpt>
      <trkpt lat="38.615042" lon="-1.123999">
        <ele>0.000000</ele>
        <time>2021-10-29T14:18:04.000Z</time>
      </trkpt>
      <trkpt lat="38.615032" lon="-1.124172">
        <ele>0.000000</ele>
        <time>2021-10-29T14:18:04.000Z</time>
      </trkpt>
      <trkpt lat="38.615032" lon="-1.124235">
        <ele>0.000000</ele>
        <time>2021-10-29T14:18:04.000Z</time>
      </trkpt>
      <trkpt lat="38.615032" lon="-1.124434">
        <ele>0.000000</ele>
        <time>2021-10-29T14:18:04.000Z</time>
      </trkpt>
      <trkpt lat="38.615032" lon="-1.124620">
        <ele>0.000000</ele>
        <time>2021-10-29T14:18:04.000Z</time>
      </trkpt>
      <trkpt lat="38.615051" lon="-1.124745">
        <ele>0.000000</ele>
        <time>2021-10-29T14:18:04.000Z</time>
      </trkpt>
      <trkpt lat="38.615072" lon="-1.124884">
        <ele>0.000000</ele>
        <time>2021-10-29T14:18:04.000Z</time>
      </trkpt>
      <trkpt lat="38.615092" lon="-1.124972">
        <ele>0.000000</ele>
        <time>2021-10-29T14:18:04.000Z</time>
      </trkpt>
      <trkpt lat="38.615131" lon="-1.125110">
        <ele>0.000000</ele>
        <time>2021-10-29T14:18:04.000Z</time>
      </trkpt>
      <trkpt lat="38.615161" lon="-1.125261">
        <ele>0.000000</ele>
        <time>2021-10-29T14:18:04.000Z</time>
      </trkpt>
      <trkpt lat="38.615211" lon="-1.125438">
        <ele>0.000000</ele>
        <time>2021-10-29T14:18:04.000Z</time>
      </trkpt>
      <trkpt lat="38.615231" lon="-1.125538">
        <ele>15.757282</ele>
        <time>2021-10-29T14:18:04.000Z</time>
      </trkpt>
      <trkpt lat="38.615251" lon="-1.125626">
        <ele>34.861542</ele>
        <time>2021-10-29T14:18:04.000Z</time>
      </trkpt>
      <trkpt lat="38.615290" lon="-1.125739">
        <ele>60.612512</ele>
        <time>2021-10-29T14:18:04.000Z</time>
      </trkpt>
      <trkpt lat="38.615309" lon="-1.125814">
        <ele>77.047805</ele>
        <time>2021-10-29T14:18:04.000Z</time>
      </trkpt>
      <trkpt lat="38.615329" lon="-1.125864">
        <ele>88.756909</ele>
        <time>2021-10-29T14:18:04.000Z</time>
      </trkpt>
      <trkpt lat="38.615349" lon="-1.125989">
        <ele>115.354405</ele>
        <time>2021-10-29T14:18:04.000Z</time>
      </trkpt>
      <trkpt lat="38.615358" lon="-1.126076">
        <ele>133.648189</ele>
        <time>2021-10-29T14:18:04.000Z</time>
      </trkpt>
      <trkpt lat="38.615358" lon="-1.126114">
        <ele>141.569454</ele>
        <time>2021-10-29T14:18:04.000Z</time>
      </trkpt>
      <trkpt lat="38.615358" lon="-1.126176">
        <ele>154.493623</ele>
        <time>2021-10-29T14:18:04.000Z</time>
      </trkpt>
      <trkpt lat="38.615368" lon="-1.126226">
        <ele>165.252364</ele>
        <time>2021-10-29T14:18:04.000Z</time>
      </trkpt>
      <trkpt lat="38.615378" lon="-1.126276">
        <ele>176.011103</ele>
        <time>2021-10-29T14:18:04.000Z</time>
      </trkpt>
      <trkpt lat="38.615388" lon="-1.126352">
        <ele>192.076690</ele>
        <time>2021-10-29T14:18:04.000Z</time>
      </trkpt>
      <trkpt lat="38.615388" lon="-1.126427">
        <ele>207.710759</ele>
        <time>2021-10-29T14:18:04.000Z</time>
      </trkpt>
      <trkpt lat="38.615388" lon="-1.126502">
        <ele>223.344827</ele>
        <time>2021-10-29T14:18:04.000Z</time>
      </trkpt>
      <trkpt lat="38.615388" lon="-1.126527">
        <ele>228.556184</ele>
        <time>2021-10-29T14:18:04.000Z</time>
      </trkpt>
      <trkpt lat="38.615388" lon="-1.126602">
        <ele>244.190252</ele>
        <time>2021-10-29T14:18:04.000Z</time>
      </trkpt>
      <trkpt lat="38.615388" lon="-1.126678">
        <ele>260.032775</ele>
        <time>2021-10-29T14:18:04.000Z</time>
      </trkpt>
      <trkpt lat="38.615369" lon="-1.126777">
        <ele>281.283159</ele>
        <time>2021-10-29T14:18:04.000Z</time>
      </trkpt>
      <trkpt lat="38.615359" lon="-1.126827">
        <ele>292.041900</ele>
        <time>2021-10-29T14:18:04.000Z</time>
      </trkpt>
      <trkpt lat="38.615339" lon="-1.126888">
        <ele>305.831730</ele>
        <time>2021-10-29T14:18:04.000Z</time>
      </trkpt>
      <trkpt lat="38.615329" lon="-1.126925">
        <ele>313.992917</ele>
        <time>2021-10-29T14:18:04.000Z</time>
      </trkpt>
      <trkpt lat="38.615299" lon="-1.126974">
        <ele>326.969386</ele>
        <time>2021-10-29T14:18:04.000Z</time>
      </trkpt>
      <trkpt lat="38.615279" lon="-1.126973">
        <ele>332.309182</ele>
        <time>2021-10-29T14:18:04.000Z</time>
      </trkpt>
      <trkpt lat="38.615320" lon="-1.126970">
        <ele>343.265283</ele>
        <time>2021-10-29T14:18:04.000Z</time>
      </trkpt>
      <trkpt lat="38.615220" lon="-1.126920">
        <ele>371.907605</ele>
        <time>2021-10-29T14:18:04.000Z</time>
      </trkpt>
      <trkpt lat="38.614790" lon="-1.126800">
        <ele>482.314326</ele>
        <time>2021-10-29T14:18:04.000Z</time>
      </trkpt>
      <trkpt lat="38.614625" lon="-1.127740">
        <ele>534.515659</ele>
        <time>2021-10-29T14:18:04.000Z</time>
      </trkpt>
      <trkpt lat="38.614460" lon="-1.128680">
        <ele>586.717107</ele>
        <time>2021-10-29T14:18:04.000Z</time>
      </trkpt>
      <trkpt lat="38.614470" lon="-1.128730">
        <ele>589.513603</ele>
        <time>2021-10-29T14:18:04.000Z</time>
      </trkpt>
      <trkpt lat="38.614150" lon="-1.129400">
        <ele>604.856936</ele>
        <time>2021-10-29T14:18:04.000Z</time>
      </trkpt>
      <trkpt lat="38.613830" lon="-1.130010">
        <ele>605.259346</ele>
        <time>2021-10-29T14:18:04.000Z</time>
      </trkpt>
      <trkpt lat="38.613500" lon="-1.130340">
        <ele>605.552900</ele>
        <time>2021-10-29T14:18:04.000Z</time>
      </trkpt>
      <trkpt lat="38.613700" lon="-1.130500">
        <ele>605.718227</ele>
        <time>2021-10-29T14:18:04.000Z</time>
      </trkpt>
      <trkpt lat="38.613660" lon="-1.130590">
        <ele>605.774936</ele>
        <time>2021-10-29T14:18:04.000Z</time>
      </trkpt>
      <trkpt lat="38.613278" lon="-1.131443">
        <ele>605.596830</ele>
        <time>2021-10-29T14:18:04.000Z</time>
      </trkpt>
      <trkpt lat="38.612895" lon="-1.132295">
        <ele>605.320472</ele>
        <time>2021-10-29T14:18:04.000Z</time>
      </trkpt>
      <trkpt lat="38.612513" lon="-1.133147">
        <ele>604.813140</ele>
        <time>2021-10-29T14:18:04.000Z</time>
      </trkpt>
      <trkpt lat="38.612130" lon="-1.134000">
        <ele>604.105751</ele>
        <time>2021-10-29T14:18:04.000Z</time>
      </trkpt>
      <trkpt lat="38.611707" lon="-1.134933">
        <ele>603.818050</ele>
        <time>2021-10-29T14:18:04.000Z</time>
      </trkpt>
      <trkpt lat="38.611283" lon="-1.135867">
        <ele>604.868123</ele>
        <time>2021-10-29T14:18:04.000Z</time>
      </trkpt>
      <trkpt lat="38.610860" lon="-1.136800">
        <ele>605.912386</ele>
        <time>2021-10-29T14:18:04.000Z</time>
      </trkpt>
      <trkpt lat="38.610482" lon="-1.137670">
        <ele>606.850348</ele>
        <time>2021-10-29T14:18:04.000Z</time>
      </trkpt>
      <trkpt lat="38.610104" lon="-1.138540">
        <ele>607.788314</ele>
        <time>2021-10-29T14:18:04.000Z</time>
      </trkpt>
      <trkpt lat="38.609726" lon="-1.139410">
        <ele>607.500736</ele>
        <time>2021-10-29T14:18:04.000Z</time>
      </trkpt>
      <trkpt lat="38.609348" lon="-1.140280">
        <ele>606.968968</ele>
        <time>2021-10-29T14:18:04.000Z</time>
      </trkpt>
      <trkpt lat="38.608970" lon="-1.141150">
        <ele>606.939431</ele>
        <time>2021-10-29T14:18:04.000Z</time>
      </trkpt>
      <trkpt lat="38.608800" lon="-1.141030">
        <ele>607.047059</ele>
        <time>2021-10-29T14:18:04.000Z</time>
      </trkpt>
      <trkpt lat="38.608690" lon="-1.140920">
        <ele>607.124449</ele>
        <time>2021-10-29T14:18:04.000Z</time>
      </trkpt>
      <trkpt lat="38.608267" lon="-1.141857">
        <ele>607.593219</ele>
        <time>2021-10-29T14:18:04.000Z</time>
      </trkpt>
      <trkpt lat="38.607843" lon="-1.142793">
        <ele>608.723873</ele>
        <time>2021-10-29T14:18:04.000Z</time>
      </trkpt>
      <trkpt lat="38.607420" lon="-1.143730">
        <ele>610.078620</ele>
        <time>2021-10-29T14:18:04.000Z</time>
      </trkpt>
      <trkpt lat="38.607160" lon="-1.144245">
        <ele>610.863711</ele>
        <time>2021-10-29T14:18:04.000Z</time>
      </trkpt>
      <trkpt lat="38.606900" lon="-1.144760">
        <ele>611.684378</ele>
        <time>2021-10-29T14:18:04.000Z</time>
      </trkpt>
      <trkpt lat="38.606525" lon="-1.145405">
        <ele>612.760443</ele>
        <time>2021-10-29T14:18:04.000Z</time>
      </trkpt>
      <trkpt lat="38.606150" lon="-1.146050">
        <ele>613.898689</ele>
        <time>2021-10-29T14:18:04.000Z</time>
      </trkpt>
      <trkpt lat="38.605785" lon="-1.146540">
        <ele>615.151559</ele>
        <time>2021-10-29T14:18:04.000Z</time>
      </trkpt>
      <trkpt lat="38.605420" lon="-1.147030">
        <ele>616.404431</ele>
        <time>2021-10-29T14:18:04.000Z</time>
      </trkpt>
      <trkpt lat="38.605005" lon="-1.147660">
        <ele>617.929407</ele>
        <time>2021-10-29T14:18:04.000Z</time>
      </trkpt>
      <trkpt lat="38.604590" lon="-1.148290">
        <ele>619.126908</ele>
        <time>2021-10-29T14:18:04.000Z</time>
      </trkpt>
      <trkpt lat="38.604180" lon="-1.149100">
        <ele>620.528373</ele>
        <time>2021-10-29T14:18:04.000Z</time>
      </trkpt>
      <trkpt lat="38.603920" lon="-1.149725">
        <ele>621.488485</ele>
        <time>2021-10-29T14:18:04.000Z</time>
      </trkpt>
      <trkpt lat="38.603660" lon="-1.150350">
        <ele>622.266957</ele>
        <time>2021-10-29T14:18:04.000Z</time>
      </trkpt>
      <trkpt lat="38.603540" lon="-1.150540">
        <ele>622.535553</ele>
        <time>2021-10-29T14:18:04.000Z</time>
      </trkpt>
      <trkpt lat="38.603175" lon="-1.151040">
        <ele>623.287834</ele>
        <time>2021-10-29T14:18:04.000Z</time>
      </trkpt>
      <trkpt lat="38.602810" lon="-1.151540">
        <ele>624.116482</ele>
        <time>2021-10-29T14:18:04.000Z</time>
      </trkpt>
      <trkpt lat="38.602390" lon="-1.152290">
        <ele>625.462957</ele>
        <time>2021-10-29T14:18:04.000Z</time>
      </trkpt>
      <trkpt lat="38.602060" lon="-1.152800">
        <ele>626.429210</ele>
        <time>2021-10-29T14:18:04.000Z</time>
      </trkpt>
      <trkpt lat="38.601730" lon="-1.153310">
        <ele>627.462397</ele>
        <time>2021-10-29T14:18:04.000Z</time>
      </trkpt>
      <trkpt lat="38.601280" lon="-1.153810">
        <ele>628.899123</ele>
        <time>2021-10-29T14:18:04.000Z</time>
      </trkpt>
      <trkpt lat="38.601020" lon="-1.154120">
        <ele>629.755837</ele>
        <time>2021-10-29T14:18:04.000Z</time>
      </trkpt>
      <trkpt lat="38.600670" lon="-1.154660">
        <ele>631.077552</ele>
        <time>2021-10-29T14:18:04.000Z</time>
      </trkpt>
      <trkpt lat="38.600455" lon="-1.155185">
        <ele>632.129995</ele>
        <time>2021-10-29T14:18:04.000Z</time>
      </trkpt>
      <trkpt lat="38.600240" lon="-1.155710">
        <ele>633.143136</ele>
        <time>2021-10-29T14:18:04.000Z</time>
      </trkpt>
      <trkpt lat="38.599865" lon="-1.156390">
        <ele>634.565731</ele>
        <time>2021-10-29T14:18:04.000Z</time>
      </trkpt>
      <trkpt lat="38.599490" lon="-1.157070">
        <ele>636.113794</ele>
        <time>2021-10-29T14:18:04.000Z</time>
      </trkpt>
      <trkpt lat="38.599170" lon="-1.157470">
        <ele>637.314274</ele>
        <time>2021-10-29T14:18:04.000Z</time>
      </trkpt>
      <trkpt lat="38.598830" lon="-1.157740">
        <ele>638.388103</ele>
        <time>2021-10-29T14:18:04.000Z</time>
      </trkpt>
      <trkpt lat="38.598470" lon="-1.157950">
        <ele>639.449826</ele>
        <time>2021-10-29T14:18:04.000Z</time>
      </trkpt>
      <trkpt lat="38.598080" lon="-1.158020">
        <ele>640.653956</ele>
        <time>2021-10-29T14:18:04.000Z</time>
      </trkpt>
      <trkpt lat="38.597590" lon="-1.158050">
        <ele>642.763473</ele>
        <time>2021-10-29T14:18:04.000Z</time>
      </trkpt>
      <trkpt lat="38.597300" lon="-1.158290">
        <ele>644.248655</ele>
        <time>2021-10-29T14:18:04.000Z</time>
      </trkpt>
      <trkpt lat="38.597080" lon="-1.158390">
        <ele>645.252627</ele>
        <time>2021-10-29T14:18:04.000Z</time>
      </trkpt>
      <trkpt lat="38.596930" lon="-1.158560">
        <ele>646.114312</ele>
        <time>2021-10-29T14:18:04.000Z</time>
      </trkpt>
      <trkpt lat="38.596610" lon="-1.159270">
        <ele>649.107441</ele>
        <time>2021-10-29T14:18:04.000Z</time>
      </trkpt>
      <trkpt lat="38.596440" lon="-1.159710">
        <ele>651.208282</ele>
        <time>2021-10-29T14:18:04.000Z</time>
      </trkpt>
      <trkpt lat="38.595980" lon="-1.160260">
        <ele>654.656203</ele>
        <time>2021-10-29T14:18:04.000Z</time>
      </trkpt>
      <trkpt lat="38.595900" lon="-1.160620">
        <ele>656.258160</ele>
        <time>2021-10-29T14:18:04.000Z</time>
      </trkpt>
      <trkpt lat="38.595880" lon="-1.160800">
        <ele>657.036349</ele>
        <time>2021-10-29T14:18:04.000Z</time>
      </trkpt>
      <trkpt lat="38.595780" lon="-1.161030">
        <ele>658.045770</ele>
        <time>2021-10-29T14:18:04.000Z</time>
      </trkpt>
      <trkpt lat="38.595650" lon="-1.161200">
        <ele>658.686448</ele>
        <time>2021-10-29T14:18:04.000Z</time>
      </trkpt>
      <trkpt lat="38.595340" lon="-1.161470">
        <ele>659.978960</ele>
        <time>2021-10-29T14:18:04.000Z</time>
      </trkpt>
      <trkpt lat="38.595210" lon="-1.161510">
        <ele>660.439795</ele>
        <time>2021-10-29T14:18:04.000Z</time>
      </trkpt>
      <trkpt lat="38.594655" lon="-1.161440">
        <ele>662.361944</ele>
        <time>2021-10-29T14:18:04.000Z</time>
      </trkpt>
      <trkpt lat="38.594100" lon="-1.161370">
        <ele>664.217223</ele>
        <time>2021-10-29T14:18:04.000Z</time>
      </trkpt>
      <trkpt lat="38.593760" lon="-1.161370">
        <ele>665.059716</ele>
        <time>2021-10-29T14:18:04.000Z</time>
      </trkpt>
      <trkpt lat="38.593610" lon="-1.161450">
        <ele>665.462404</ele>
        <time>2021-10-29T14:18:04.000Z</time>
      </trkpt>
      <trkpt lat="38.593420" lon="-1.161640">
        <ele>666.059952</ele>
        <time>2021-10-29T14:18:04.000Z</time>
      </trkpt>
      <trkpt lat="38.593190" lon="-1.161710">
        <ele>666.645776</ele>
        <time>2021-10-29T14:18:04.000Z</time>
      </trkpt>
      <trkpt lat="38.592350" lon="-1.161570">
        <ele>669.211028</ele>
        <time>2021-10-29T14:18:04.000Z</time>
      </trkpt>
      <trkpt lat="38.591750" lon="-1.161570">
        <ele>673.564977</ele>
        <time>2021-10-29T14:18:04.000Z</time>
      </trkpt>
      <trkpt lat="38.591150" lon="-1.161570">
        <ele>677.918926</ele>
        <time>2021-10-29T14:18:04.000Z</time>
      </trkpt>
      <trkpt lat="38.590330" lon="-1.161370">
        <ele>683.657307</ele>
        <time>2021-10-29T14:18:04.000Z</time>
      </trkpt>
      <trkpt lat="38.589810" lon="-1.161400">
        <ele>686.936664</ele>
        <time>2021-10-29T14:18:04.000Z</time>
      </trkpt>
      <trkpt lat="38.589375" lon="-1.161760">
        <ele>690.200581</ele>
        <time>2021-10-29T14:18:04.000Z</time>
      </trkpt>
      <trkpt lat="38.588940" lon="-1.162120">
        <ele>693.001176</ele>
        <time>2021-10-29T14:18:04.000Z</time>
      </trkpt>
      <trkpt lat="38.588840" lon="-1.162530">
        <ele>693.420450</ele>
        <time>2021-10-29T14:18:04.000Z</time>
      </trkpt>
      <trkpt lat="38.588810" lon="-1.162930">
        <ele>693.812723</ele>
        <time>2021-10-29T14:18:04.000Z</time>
      </trkpt>
      <trkpt lat="38.588690" lon="-1.163170">
        <ele>694.090845</ele>
        <time>2021-10-29T14:18:04.000Z</time>
      </trkpt>
      <trkpt lat="38.588420" lon="-1.163510">
        <ele>694.563995</ele>
        <time>2021-10-29T14:18:04.000Z</time>
      </trkpt>
      <trkpt lat="38.588040" lon="-1.163710">
        <ele>695.077172</ele>
        <time>2021-10-29T14:18:04.000Z</time>
      </trkpt>
      <trkpt lat="38.587405" lon="-1.163710">
        <ele>694.392185</ele>
        <time>2021-10-29T14:18:04.000Z</time>
      </trkpt>
      <trkpt lat="38.586770" lon="-1.163710">
        <ele>693.595362</ele>
        <time>2021-10-29T14:18:04.000Z</time>
      </trkpt>
      <trkpt lat="38.586430" lon="-1.163840">
        <ele>693.150069</ele>
        <time>2021-10-29T14:18:04.000Z</time>
      </trkpt>
      <trkpt lat="38.585910" lon="-1.163850">
        <ele>691.089108</ele>
        <time>2021-10-29T14:18:04.000Z</time>
      </trkpt>
      <trkpt lat="38.585750" lon="-1.163780">
        <ele>690.087311</ele>
        <time>2021-10-29T14:18:04.000Z</time>
      </trkpt>
      <trkpt lat="38.585340" lon="-1.163640">
        <ele>687.573281</ele>
        <time>2021-10-29T14:18:04.000Z</time>
      </trkpt>
      <trkpt lat="38.584705" lon="-1.163490">
        <ele>683.747707</ele>
        <time>2021-10-29T14:18:04.000Z</time>
      </trkpt>
      <trkpt lat="38.584070" lon="-1.163340">
        <ele>681.675041</ele>
        <time>2021-10-29T14:18:04.000Z</time>
      </trkpt>
      <trkpt lat="38.583640" lon="-1.163370">
        <ele>681.069893</ele>
        <time>2021-10-29T14:18:04.000Z</time>
      </trkpt>
      <trkpt lat="38.583080" lon="-1.163710">
        <ele>680.198832</ele>
        <time>2021-10-29T14:18:04.000Z</time>
      </trkpt>
      <trkpt lat="38.582680" lon="-1.163980">
        <ele>679.612379</ele>
        <time>2021-10-29T14:18:04.000Z</time>
      </trkpt>
      <trkpt lat="38.582280" lon="-1.164250">
        <ele>679.218112</ele>
        <time>2021-10-29T14:18:04.000Z</time>
      </trkpt>
      <trkpt lat="38.581750" lon="-1.164390">
        <ele>678.746334</ele>
        <time>2021-10-29T14:18:04.000Z</time>
      </trkpt>
      <trkpt lat="38.581510" lon="-1.164560">
        <ele>678.507180</ele>
        <time>2021-10-29T14:18:04.000Z</time>
      </trkpt>
      <trkpt lat="38.580880" lon="-1.164960">
        <ele>677.927251</ele>
        <time>2021-10-29T14:18:04.000Z</time>
      </trkpt>
      <trkpt lat="38.580410" lon="-1.165170">
        <ele>677.555749</ele>
        <time>2021-10-29T14:18:04.000Z</time>
      </trkpt>
      <trkpt lat="38.579850" lon="-1.165480">
        <ele>677.100415</ele>
        <time>2021-10-29T14:18:04.000Z</time>
      </trkpt>
      <trkpt lat="38.579350" lon="-1.165950">
        <ele>676.642946</ele>
        <time>2021-10-29T14:18:04.000Z</time>
      </trkpt>
      <trkpt lat="38.578590" lon="-1.166430">
        <ele>676.034649</ele>
        <time>2021-10-29T14:18:04.000Z</time>
      </trkpt>
      <trkpt lat="38.578210" lon="-1.166590">
        <ele>675.747536</ele>
        <time>2021-10-29T14:18:04.000Z</time>
      </trkpt>
      <trkpt lat="38.577550" lon="-1.167060">
        <ele>675.643717</ele>
        <time>2021-10-29T14:18:04.000Z</time>
      </trkpt>
      <trkpt lat="38.577000" lon="-1.167285">
        <ele>675.864023</ele>
        <time>2021-10-29T14:18:04.000Z</time>
      </trkpt>
      <trkpt lat="38.576450" lon="-1.167510">
        <ele>676.084330</ele>
        <time>2021-10-29T14:18:04.000Z</time>
      </trkpt>
      <trkpt lat="38.576000" lon="-1.167740">
        <ele>676.466872</ele>
        <time>2021-10-29T14:18:04.000Z</time>
      </trkpt>
      <trkpt lat="38.575410" lon="-1.168185">
        <ele>677.293264</ele>
        <time>2021-10-29T14:18:04.000Z</time>
      </trkpt>
      <trkpt lat="38.574820" lon="-1.168630">
        <ele>678.119657</ele>
        <time>2021-10-29T14:18:04.000Z</time>
      </trkpt>
      <trkpt lat="38.574560" lon="-1.168790">
        <ele>678.486014</ele>
        <time>2021-10-29T14:18:04.000Z</time>
      </trkpt>
      <trkpt lat="38.574210" lon="-1.168930">
        <ele>678.995814</ele>
        <time>2021-10-29T14:18:04.000Z</time>
      </trkpt>
      <trkpt lat="38.573920" lon="-1.168930">
        <ele>679.398967</ele>
        <time>2021-10-29T14:18:04.000Z</time>
      </trkpt>
      <trkpt lat="38.573510" lon="-1.169170">
        <ele>680.025793</ele>
        <time>2021-10-29T14:18:04.000Z</time>
      </trkpt>
      <trkpt lat="38.573230" lon="-1.169300">
        <ele>680.439894</ele>
        <time>2021-10-29T14:18:04.000Z</time>
      </trkpt>
      <trkpt lat="38.573070" lon="-1.169400">
        <ele>680.687457</ele>
        <time>2021-10-29T14:18:04.000Z</time>
      </trkpt>
      <trkpt lat="38.572910" lon="-1.169570">
        <ele>680.884115</ele>
        <time>2021-10-29T14:18:04.000Z</time>
      </trkpt>
      <trkpt lat="38.572740" lon="-1.169670">
        <ele>680.956618</ele>
        <time>2021-10-29T14:18:04.000Z</time>
      </trkpt>
      <trkpt lat="38.572070" lon="-1.169780">
        <ele>681.218358</ele>
        <time>2021-10-29T14:18:04.000Z</time>
      </trkpt>
      <trkpt lat="38.571530" lon="-1.170010">
        <ele>681.438893</ele>
        <time>2021-10-29T14:18:04.000Z</time>
      </trkpt>
      <trkpt lat="38.570860" lon="-1.170170">
        <ele>681.878134</ele>
        <time>2021-10-29T14:18:04.000Z</time>
      </trkpt>
      <trkpt lat="38.570190" lon="-1.170330">
        <ele>682.435568</ele>
        <time>2021-10-29T14:18:04.000Z</time>
      </trkpt>
      <trkpt lat="38.569520" lon="-1.170490">
        <ele>682.993003</ele>
        <time>2021-10-29T14:18:04.000Z</time>
      </trkpt>
      <trkpt lat="38.569070" lon="-1.170640">
        <ele>683.157214</ele>
        <time>2021-10-29T14:18:04.000Z</time>
      </trkpt>
      <trkpt lat="38.568620" lon="-1.170790">
        <ele>683.307298</ele>
        <time>2021-10-29T14:18:04.000Z</time>
      </trkpt>
      <trkpt lat="38.568065" lon="-1.171065">
        <ele>683.499391</ele>
        <time>2021-10-29T14:18:04.000Z</time>
      </trkpt>
      <trkpt lat="38.567510" lon="-1.171340">
        <ele>683.235606</ele>
        <time>2021-10-29T14:18:04.000Z</time>
      </trkpt>
      <trkpt lat="38.567180" lon="-1.171540">
        <ele>682.785817</ele>
        <time>2021-10-29T14:18:04.000Z</time>
      </trkpt>
      <trkpt lat="38.566555" lon="-1.172183">
        <ele>681.797852</ele>
        <time>2021-10-29T14:18:04.000Z</time>
      </trkpt>
      <trkpt lat="38.565930" lon="-1.172825">
        <ele>681.336325</ele>
        <time>2021-10-29T14:18:04.000Z</time>
      </trkpt>
      <trkpt lat="38.565305" lon="-1.173468">
        <ele>681.258266</ele>
        <time>2021-10-29T14:18:04.000Z</time>
      </trkpt>
      <trkpt lat="38.564680" lon="-1.174110">
        <ele>681.185238</ele>
        <time>2021-10-29T14:18:04.000Z</time>
      </trkpt>
      <trkpt lat="38.564500" lon="-1.174350">
        <ele>681.164756</ele>
        <time>2021-10-29T14:18:04.000Z</time>
      </trkpt>
      <trkpt lat="38.564420" lon="-1.174520">
        <ele>681.152536</ele>
        <time>2021-10-29T14:18:04.000Z</time>
      </trkpt>
      <trkpt lat="38.564220" lon="-1.175250">
        <ele>681.104895</ele>
        <time>2021-10-29T14:18:04.000Z</time>
      </trkpt>
      <trkpt lat="38.564020" lon="-1.175980">
        <ele>681.352989</ele>
        <time>2021-10-29T14:18:04.000Z</time>
      </trkpt>
      <trkpt lat="38.563820" lon="-1.176790">
        <ele>683.372406</ele>
        <time>2021-10-29T14:18:04.000Z</time>
      </trkpt>
      <trkpt lat="38.563620" lon="-1.177270">
        <ele>684.665465</ele>
        <time>2021-10-29T14:18:04.000Z</time>
      </trkpt>
      <trkpt lat="38.563500" lon="-1.177440">
        <ele>685.209951</ele>
        <time>2021-10-29T14:18:04.000Z</time>
      </trkpt>
      <trkpt lat="38.563260" lon="-1.177610">
        <ele>686.044114</ele>
        <time>2021-10-29T14:18:04.000Z</time>
      </trkpt>
      <trkpt lat="38.563220" lon="-1.177600">
        <ele>686.168035</ele>
        <time>2021-10-29T14:18:04.000Z</time>
      </trkpt>
      <trkpt lat="38.562860" lon="-1.177610">
        <ele>686.088766</ele>
        <time>2021-10-29T14:18:04.000Z</time>
      </trkpt>
      <trkpt lat="38.562170" lon="-1.177555">
        <ele>684.807265</ele>
        <time>2021-10-29T14:18:04.000Z</time>
      </trkpt>
      <trkpt lat="38.561480" lon="-1.177500">
        <ele>683.525763</ele>
        <time>2021-10-29T14:18:04.000Z</time>
      </trkpt>
      <trkpt lat="38.561190" lon="-1.177710">
        <ele>683.043386</ele>
        <time>2021-10-29T14:18:04.000Z</time>
      </trkpt>
      <trkpt lat="38.560950" lon="-1.178010">
        <ele>682.710310</ele>
        <time>2021-10-29T14:18:04.000Z</time>
      </trkpt>
      <trkpt lat="38.560700" lon="-1.178220">
        <ele>682.413456</ele>
        <time>2021-10-29T14:18:04.000Z</time>
      </trkpt>
      <trkpt lat="38.560420" lon="-1.178220">
        <ele>682.135564</ele>
        <time>2021-10-29T14:18:04.000Z</time>
      </trkpt>
      <trkpt lat="38.560050" lon="-1.178180">
        <ele>681.767041</ele>
        <time>2021-10-29T14:18:04.000Z</time>
      </trkpt>
      <trkpt lat="38.559335" lon="-1.177925">
        <ele>681.884384</ele>
        <time>2021-10-29T14:18:04.000Z</time>
      </trkpt>
      <trkpt lat="38.558620" lon="-1.177670">
        <ele>682.786339</ele>
        <time>2021-10-29T14:18:04.000Z</time>
      </trkpt>
      <trkpt lat="38.558490" lon="-1.177710">
        <ele>682.948811</ele>
        <time>2021-10-29T14:18:04.000Z</time>
      </trkpt>
      <trkpt lat="38.558400" lon="-1.177810">
        <ele>683.093683</ele>
        <time>2021-10-29T14:18:04.000Z</time>
      </trkpt>
      <trkpt lat="38.558270" lon="-1.178110">
        <ele>683.419580</ele>
        <time>2021-10-29T14:18:04.000Z</time>
      </trkpt>
      <trkpt lat="38.558070" lon="-1.178690">
        <ele>684.443272</ele>
        <time>2021-10-29T14:18:04.000Z</time>
      </trkpt>
      <trkpt lat="38.557960" lon="-1.179060">
        <ele>685.194919</ele>
        <time>2021-10-29T14:18:04.000Z</time>
      </trkpt>
      <trkpt lat="38.557800" lon="-1.180045">
        <ele>687.105241</ele>
        <time>2021-10-29T14:18:04.000Z</time>
      </trkpt>
      <trkpt lat="38.557640" lon="-1.181030">
        <ele>689.410163</ele>
        <time>2021-10-29T14:18:04.000Z</time>
      </trkpt>
      <trkpt lat="38.557450" lon="-1.181840">
        <ele>691.620545</ele>
        <time>2021-10-29T14:18:04.000Z</time>
      </trkpt>
      <trkpt lat="38.557320" lon="-1.182210">
        <ele>692.680789</ele>
        <time>2021-10-29T14:18:04.000Z</time>
      </trkpt>
      <trkpt lat="38.557010" lon="-1.182960">
        <ele>695.247223</ele>
        <time>2021-10-29T14:18:04.000Z</time>
      </trkpt>
      <trkpt lat="38.556670" lon="-1.183725">
        <ele>698.421151</ele>
        <time>2021-10-29T14:18:04.000Z</time>
      </trkpt>
      <trkpt lat="38.556330" lon="-1.184490">
        <ele>701.595089</ele>
        <time>2021-10-29T14:18:04.000Z</time>
      </trkpt>
      <trkpt lat="38.555913" lon="-1.185370">
        <ele>705.714401</ele>
        <time>2021-10-29T14:18:04.000Z</time>
      </trkpt>
      <trkpt lat="38.555497" lon="-1.186250">
        <ele>709.922642</ele>
        <time>2021-10-29T14:18:04.000Z</time>
      </trkpt>
      <trkpt lat="38.555080" lon="-1.187130">
        <ele>714.332355</ele>
        <time>2021-10-29T14:18:04.000Z</time>
      </trkpt>
      <trkpt lat="38.554900" lon="-1.187540">
        <ele>716.413042</ele>
        <time>2021-10-29T14:18:04.000Z</time>
      </trkpt>
      <trkpt lat="38.554790" lon="-1.187850">
        <ele>717.919468</ele>
        <time>2021-10-29T14:18:04.000Z</time>
      </trkpt>
      <trkpt lat="38.554710" lon="-1.188150">
        <ele>719.322090</ele>
        <time>2021-10-29T14:18:04.000Z</time>
      </trkpt>
      <trkpt lat="38.554680" lon="-1.188420">
        <ele>720.528894</ele>
        <time>2021-10-29T14:18:04.000Z</time>
      </trkpt>
      <trkpt lat="38.554710" lon="-1.189230">
        <ele>723.376000</ele>
        <time>2021-10-29T14:18:04.000Z</time>
      </trkpt>
      <trkpt lat="38.554670" lon="-1.189500">
        <ele>724.191471</ele>
        <time>2021-10-29T14:18:04.000Z</time>
      </trkpt>
      <trkpt lat="38.554610" lon="-1.189670">
        <ele>724.744942</ele>
        <time>2021-10-29T14:18:04.000Z</time>
      </trkpt>
      <trkpt lat="38.554390" lon="-1.190180">
        <ele>726.473343</ele>
        <time>2021-10-29T14:18:04.000Z</time>
      </trkpt>
      <trkpt lat="38.554330" lon="-1.190380">
        <ele>727.109015</ele>
        <time>2021-10-29T14:18:04.000Z</time>
      </trkpt>
      <trkpt lat="38.554230" lon="-1.191270">
        <ele>729.172676</ele>
        <time>2021-10-29T14:18:04.000Z</time>
      </trkpt>
      <trkpt lat="38.554210" lon="-1.191570">
        <ele>729.568366</ele>
        <time>2021-10-29T14:18:04.000Z</time>
      </trkpt>
      <trkpt lat="38.554250" lon="-1.192620">
        <ele>730.949912</ele>
        <time>2021-10-29T14:18:04.000Z</time>
      </trkpt>
      <trkpt lat="38.554237" lon="-1.193457">
        <ele>731.833470</ele>
        <time>2021-10-29T14:18:04.000Z</time>
      </trkpt>
      <trkpt lat="38.554223" lon="-1.194293">
        <ele>732.222393</ele>
        <time>2021-10-29T14:18:04.000Z</time>
      </trkpt>
      <trkpt lat="38.554210" lon="-1.195130">
        <ele>732.611770</ele>
        <time>2021-10-29T14:18:04.000Z</time>
      </trkpt>
      <trkpt lat="38.554180" lon="-1.195500">
        <ele>732.784254</ele>
        <time>2021-10-29T14:18:04.000Z</time>
      </trkpt>
      <trkpt lat="38.554070" lon="-1.196280">
        <ele>732.294693</ele>
        <time>2021-10-29T14:18:04.000Z</time>
      </trkpt>
      <trkpt lat="38.554040" lon="-1.196760">
        <ele>731.997261</ele>
        <time>2021-10-29T14:18:04.000Z</time>
      </trkpt>
      <trkpt lat="38.554020" lon="-1.197690">
        <ele>731.422601</ele>
        <time>2021-10-29T14:18:04.000Z</time>
      </trkpt>
      <trkpt lat="38.554000" lon="-1.198620">
        <ele>731.139058</ele>
        <time>2021-10-29T14:18:04.000Z</time>
      </trkpt>
      <trkpt lat="38.553970" lon="-1.199160">
        <ele>730.993342</ele>
        <time>2021-10-29T14:18:04.000Z</time>
      </trkpt>
      <trkpt lat="38.553920" lon="-1.199600">
        <ele>730.873665</ele>
        <time>2021-10-29T14:18:04.000Z</time>
      </trkpt>
      <trkpt lat="38.553810" lon="-1.200110">
        <ele>730.750005</ele>
        <time>2021-10-29T14:18:04.000Z</time>
      </trkpt>
      <trkpt lat="38.553517" lon="-1.201163">
        <ele>730.865242</ele>
        <time>2021-10-29T14:18:04.000Z</time>
      </trkpt>
      <trkpt lat="38.553225" lon="-1.202215">
        <ele>730.980338</ele>
        <time>2021-10-29T14:18:04.000Z</time>
      </trkpt>
      <trkpt lat="38.552933" lon="-1.203268">
        <ele>731.288634</ele>
        <time>2021-10-29T14:18:04.000Z</time>
      </trkpt>
      <trkpt lat="38.552640" lon="-1.204320">
        <ele>731.599535</ele>
        <time>2021-10-29T14:18:04.000Z</time>
      </trkpt>
      <trkpt lat="38.552430" lon="-1.205260">
        <ele>731.809277</ele>
        <time>2021-10-29T14:18:04.000Z</time>
      </trkpt>
      <trkpt lat="38.552320" lon="-1.205910">
        <ele>731.948090</ele>
        <time>2021-10-29T14:18:04.000Z</time>
      </trkpt>
      <trkpt lat="38.552210" lon="-1.206750">
        <ele>732.119489</ele>
        <time>2021-10-29T14:18:04.000Z</time>
      </trkpt>
      <trkpt lat="38.552100" lon="-1.207590">
        <ele>732.249105</ele>
        <time>2021-10-29T14:18:04.000Z</time>
      </trkpt>
      <trkpt lat="38.551990" lon="-1.208430">
        <ele>732.378722</ele>
        <time>2021-10-29T14:18:04.000Z</time>
      </trkpt>
      <trkpt lat="38.551970" lon="-1.208750">
        <ele>732.427577</ele>
        <time>2021-10-29T14:18:04.000Z</time>
      </trkpt>
      <trkpt lat="38.551940" lon="-1.209870">
        <ele>732.214212</ele>
        <time>2021-10-29T14:18:04.000Z</time>
      </trkpt>
      <trkpt lat="38.551890" lon="-1.210310">
        <ele>732.103675</ele>
        <time>2021-10-29T14:18:04.000Z</time>
      </trkpt>
      <trkpt lat="38.551720" lon="-1.211300">
        <ele>731.842203</ele>
        <time>2021-10-29T14:18:04.000Z</time>
      </trkpt>
      <trkpt lat="38.551550" lon="-1.212075">
        <ele>731.576368</ele>
        <time>2021-10-29T14:18:04.000Z</time>
      </trkpt>
      <trkpt lat="38.551380" lon="-1.212850">
        <ele>731.310533</ele>
        <time>2021-10-29T14:18:04.000Z</time>
      </trkpt>
      <trkpt lat="38.551090" lon="-1.213735">
        <ele>730.902412</ele>
        <time>2021-10-29T14:18:04.000Z</time>
      </trkpt>
      <trkpt lat="38.550800" lon="-1.214620">
        <ele>730.358530</ele>
        <time>2021-10-29T14:18:04.000Z</time>
      </trkpt>
      <trkpt lat="38.550530" lon="-1.215360">
        <ele>729.895685</ele>
        <time>2021-10-29T14:18:04.000Z</time>
      </trkpt>
      <trkpt lat="38.550200" lon="-1.216350">
        <ele>728.690614</ele>
        <time>2021-10-29T14:18:04.000Z</time>
      </trkpt>
      <trkpt lat="38.549930" lon="-1.217228">
        <ele>727.557334</ele>
        <time>2021-10-29T14:18:04.000Z</time>
      </trkpt>
      <trkpt lat="38.549660" lon="-1.218106">
        <ele>726.057217</ele>
        <time>2021-10-29T14:18:04.000Z</time>
      </trkpt>
      <trkpt lat="38.549390" lon="-1.218984">
        <ele>724.264742</ele>
        <time>2021-10-29T14:18:04.000Z</time>
      </trkpt>
      <trkpt lat="38.549120" lon="-1.219862">
        <ele>722.481269</ele>
        <time>2021-10-29T14:18:04.000Z</time>
      </trkpt>
      <trkpt lat="38.548850" lon="-1.220740">
        <ele>720.764642</ele>
        <time>2021-10-29T14:18:04.000Z</time>
      </trkpt>
      <trkpt lat="38.548700" lon="-1.221540">
        <ele>719.267750</ele>
        <time>2021-10-29T14:18:04.000Z</time>
      </trkpt>
      <trkpt lat="38.548440" lon="-1.222577">
        <ele>717.818246</ele>
        <time>2021-10-29T14:18:04.000Z</time>
      </trkpt>
      <trkpt lat="38.548180" lon="-1.223613">
        <ele>716.705871</ele>
        <time>2021-10-29T14:18:04.000Z</time>
      </trkpt>
      <trkpt lat="38.547920" lon="-1.224650">
        <ele>715.715222</ele>
        <time>2021-10-29T14:18:04.000Z</time>
      </trkpt>
      <trkpt lat="38.547710" lon="-1.225550">
        <ele>714.966646</ele>
        <time>2021-10-29T14:18:04.000Z</time>
      </trkpt>
      <trkpt lat="38.547500" lon="-1.226450">
        <ele>714.117557</ele>
        <time>2021-10-29T14:18:04.000Z</time>
      </trkpt>
      <trkpt lat="38.547247" lon="-1.227433">
        <ele>712.447903</ele>
        <time>2021-10-29T14:18:04.000Z</time>
      </trkpt>
      <trkpt lat="38.546993" lon="-1.228417">
        <ele>710.776067</ele>
        <time>2021-10-29T14:18:04.000Z</time>
      </trkpt>
      <trkpt lat="38.546740" lon="-1.229400">
        <ele>709.513840</ele>
        <time>2021-10-29T14:18:04.000Z</time>
      </trkpt>
      <trkpt lat="38.546515" lon="-1.230300">
        <ele>708.403649</ele>
        <time>2021-10-29T14:18:04.000Z</time>
      </trkpt>
      <trkpt lat="38.546290" lon="-1.231200">
        <ele>707.717224</ele>
        <time>2021-10-29T14:18:04.000Z</time>
      </trkpt>
      <trkpt lat="38.546065" lon="-1.232100">
        <ele>707.378167</ele>
        <time>2021-10-29T14:18:04.000Z</time>
      </trkpt>
      <trkpt lat="38.545840" lon="-1.233000">
        <ele>706.860921</ele>
        <time>2021-10-29T14:18:04.000Z</time>
      </trkpt>
      <trkpt lat="38.545665" lon="-1.233670">
        <ele>705.454959</ele>
        <time>2021-10-29T14:18:04.000Z</time>
      </trkpt>
      <trkpt lat="38.545490" lon="-1.234340">
        <ele>704.048995</ele>
        <time>2021-10-29T14:18:04.000Z</time>
      </trkpt>
      <trkpt lat="38.545430" lon="-1.234510">
        <ele>703.677770</ele>
        <time>2021-10-29T14:18:04.000Z</time>
      </trkpt>
      <trkpt lat="38.544877" lon="-1.235143">
        <ele>701.217085</ele>
        <time>2021-10-29T14:18:04.000Z</time>
      </trkpt>
      <trkpt lat="38.544323" lon="-1.235777">
        <ele>697.805631</ele>
        <time>2021-10-29T14:18:04.000Z</time>
      </trkpt>
      <trkpt lat="38.543770" lon="-1.236410">
        <ele>694.399978</ele>
        <time>2021-10-29T14:18:04.000Z</time>
      </trkpt>
      <trkpt lat="38.543290" lon="-1.236920">
        <ele>692.558467</ele>
        <time>2021-10-29T14:18:04.000Z</time>
      </trkpt>
      <trkpt lat="38.543130" lon="-1.237120">
        <ele>691.918745</ele>
        <time>2021-10-29T14:18:04.000Z</time>
      </trkpt>
      <trkpt lat="38.542980" lon="-1.237230">
        <ele>691.424372</ele>
        <time>2021-10-29T14:18:04.000Z</time>
      </trkpt>
      <trkpt lat="38.542880" lon="-1.237260">
        <ele>691.130713</ele>
        <time>2021-10-29T14:18:04.000Z</time>
      </trkpt>
      <trkpt lat="38.542180" lon="-1.237480">
        <ele>689.077680</ele>
        <time>2021-10-29T14:18:04.000Z</time>
      </trkpt>
      <trkpt lat="38.541480" lon="-1.237700">
        <ele>687.462361</ele>
        <time>2021-10-29T14:18:04.000Z</time>
      </trkpt>
      <trkpt lat="38.541220" lon="-1.238010">
        <ele>686.665691</ele>
        <time>2021-10-29T14:18:04.000Z</time>
      </trkpt>
      <trkpt lat="38.540780" lon="-1.238990">
        <ele>684.703014</ele>
        <time>2021-10-29T14:18:04.000Z</time>
      </trkpt>
      <trkpt lat="38.540340" lon="-1.239970">
        <ele>682.813191</ele>
        <time>2021-10-29T14:18:04.000Z</time>
      </trkpt>
      <trkpt lat="38.540020" lon="-1.240615">
        <ele>681.535761</ele>
        <time>2021-10-29T14:18:04.000Z</time>
      </trkpt>
      <trkpt lat="38.539700" lon="-1.241260">
        <ele>680.530694</ele>
        <time>2021-10-29T14:18:04.000Z</time>
      </trkpt>
      <trkpt lat="38.539400" lon="-1.241700">
        <ele>679.828255</ele>
        <time>2021-10-29T14:18:04.000Z</time>
      </trkpt>
      <trkpt lat="38.539010" lon="-1.242105">
        <ele>679.055214</ele>
        <time>2021-10-29T14:18:04.000Z</time>
      </trkpt>
      <trkpt lat="38.538620" lon="-1.242510">
        <ele>678.259643</ele>
        <time>2021-10-29T14:18:04.000Z</time>
      </trkpt>
      <trkpt lat="38.538320" lon="-1.243130">
        <ele>677.272489</ele>
        <time>2021-10-29T14:18:04.000Z</time>
      </trkpt>
      <trkpt lat="38.538010" lon="-1.243883">
        <ele>676.120291</ele>
        <time>2021-10-29T14:18:04.000Z</time>
      </trkpt>
      <trkpt lat="38.537700" lon="-1.244637">
        <ele>674.981074</ele>
        <time>2021-10-29T14:18:04.000Z</time>
      </trkpt>
      <trkpt lat="38.537390" lon="-1.245390">
        <ele>673.871684</ele>
        <time>2021-10-29T14:18:04.000Z</time>
      </trkpt>
      <trkpt lat="38.537190" lon="-1.245770">
        <ele>673.274550</ele>
        <time>2021-10-29T14:18:04.000Z</time>
      </trkpt>
      <trkpt lat="38.536820" lon="-1.246310">
        <ele>672.335580</ele>
        <time>2021-10-29T14:18:04.000Z</time>
      </trkpt>
      <trkpt lat="38.536820" lon="-1.246340">
        <ele>672.286622</ele>
        <time>2021-10-29T14:18:04.000Z</time>
      </trkpt>
      <trkpt lat="38.536730" lon="-1.246410">
        <ele>672.066834</ele>
        <time>2021-10-29T14:18:04.000Z</time>
      </trkpt>
      <trkpt lat="38.536520" lon="-1.246720">
        <ele>671.397588</ele>
        <time>2021-10-29T14:18:04.000Z</time>
      </trkpt>
      <trkpt lat="38.536220" lon="-1.247290">
        <ele>670.276415</ele>
        <time>2021-10-29T14:18:04.000Z</time>
      </trkpt>
      <trkpt lat="38.535910" lon="-1.247935">
        <ele>669.040988</ele>
        <time>2021-10-29T14:18:04.000Z</time>
      </trkpt>
      <trkpt lat="38.535600" lon="-1.248580">
        <ele>667.870262</ele>
        <time>2021-10-29T14:18:04.000Z</time>
      </trkpt>
      <trkpt lat="38.535170" lon="-1.249120">
        <ele>666.715372</ele>
        <time>2021-10-29T14:18:04.000Z</time>
      </trkpt>
      <trkpt lat="38.534780" lon="-1.249770">
        <ele>665.487610</ele>
        <time>2021-10-29T14:18:04.000Z</time>
      </trkpt>
      <trkpt lat="38.534410" lon="-1.250610">
        <ele>664.047123</ele>
        <time>2021-10-29T14:18:04.000Z</time>
      </trkpt>
      <trkpt lat="38.534175" lon="-1.251105">
        <ele>663.182689</ele>
        <time>2021-10-29T14:18:04.000Z</time>
      </trkpt>
      <trkpt lat="38.533940" lon="-1.251600">
        <ele>662.318254</ele>
        <time>2021-10-29T14:18:04.000Z</time>
      </trkpt>
      <trkpt lat="38.533670" lon="-1.252310">
        <ele>661.129786</ele>
        <time>2021-10-29T14:18:04.000Z</time>
      </trkpt>
      <trkpt lat="38.533640" lon="-1.252340">
        <ele>661.055854</ele>
        <time>2021-10-29T14:18:04.000Z</time>
      </trkpt>
      <trkpt lat="38.533410" lon="-1.252850">
        <ele>660.162002</ele>
        <time>2021-10-29T14:18:04.000Z</time>
      </trkpt>
      <trkpt lat="38.533180" lon="-1.253360">
        <ele>659.268147</ele>
        <time>2021-10-29T14:18:04.000Z</time>
      </trkpt>
      <trkpt lat="38.532870" lon="-1.254140">
        <ele>657.959101</ele>
        <time>2021-10-29T14:18:04.000Z</time>
      </trkpt>
      <trkpt lat="38.532610" lon="-1.254630">
        <ele>657.120566</ele>
        <time>2021-10-29T14:18:04.000Z</time>
      </trkpt>
      <trkpt lat="38.532150" lon="-1.255400">
        <ele>655.748431</ele>
        <time>2021-10-29T14:18:04.000Z</time>
      </trkpt>
      <trkpt lat="38.531780" lon="-1.256380">
        <ele>654.135940</ele>
        <time>2021-10-29T14:18:04.000Z</time>
      </trkpt>
      <trkpt lat="38.531370" lon="-1.257220">
        <ele>652.602756</ele>
        <time>2021-10-29T14:18:04.000Z</time>
      </trkpt>
      <trkpt lat="38.530940" lon="-1.258020">
        <ele>651.128044</ele>
        <time>2021-10-29T14:18:04.000Z</time>
      </trkpt>
      <trkpt lat="38.530510" lon="-1.258820">
        <ele>649.761795</ele>
        <time>2021-10-29T14:18:04.000Z</time>
      </trkpt>
      <trkpt lat="38.530340" lon="-1.259190">
        <ele>649.157807</ele>
        <time>2021-10-29T14:18:04.000Z</time>
      </trkpt>
      <trkpt lat="38.530100" lon="-1.259630">
        <ele>648.402782</ele>
        <time>2021-10-29T14:18:04.000Z</time>
      </trkpt>
      <trkpt lat="38.529910" lon="-1.260100">
        <ele>647.504526</ele>
        <time>2021-10-29T14:18:04.000Z</time>
      </trkpt>
      <trkpt lat="38.529620" lon="-1.260920">
        <ele>645.861325</ele>
        <time>2021-10-29T14:18:04.000Z</time>
      </trkpt>
      <trkpt lat="38.529260" lon="-1.261600">
        <ele>644.362046</ele>
        <time>2021-10-29T14:18:04.000Z</time>
      </trkpt>
      <trkpt lat="38.528920" lon="-1.262270">
        <ele>643.083740</ele>
        <time>2021-10-29T14:18:04.000Z</time>
      </trkpt>
      <trkpt lat="38.528430" lon="-1.263050">
        <ele>641.563534</ele>
        <time>2021-10-29T14:18:04.000Z</time>
      </trkpt>
      <trkpt lat="38.527980" lon="-1.263660">
        <ele>640.297876</ele>
        <time>2021-10-29T14:18:04.000Z</time>
      </trkpt>
      <trkpt lat="38.527650" lon="-1.264210">
        <ele>639.290847</ele>
        <time>2021-10-29T14:18:04.000Z</time>
      </trkpt>
      <trkpt lat="38.527325" lon="-1.264785">
        <ele>638.260223</ele>
        <time>2021-10-29T14:18:04.000Z</time>
      </trkpt>
      <trkpt lat="38.527000" lon="-1.265360">
        <ele>637.229596</ele>
        <time>2021-10-29T14:18:04.000Z</time>
      </trkpt>
      <trkpt lat="38.526670" lon="-1.266070">
        <ele>636.138215</ele>
        <time>2021-10-29T14:18:04.000Z</time>
      </trkpt>
      <trkpt lat="38.526370" lon="-1.266820">
        <ele>635.033726</ele>
        <time>2021-10-29T14:18:04.000Z</time>
      </trkpt>
      <trkpt lat="38.526010" lon="-1.267590">
        <ele>633.880947</ele>
        <time>2021-10-29T14:18:04.000Z</time>
      </trkpt>
      <trkpt lat="38.525590" lon="-1.268170">
        <ele>632.934480</ele>
        <time>2021-10-29T14:18:04.000Z</time>
      </trkpt>
      <trkpt lat="38.525080" lon="-1.269000">
        <ele>631.670565</ele>
        <time>2021-10-29T14:18:04.000Z</time>
      </trkpt>
      <trkpt lat="38.524720" lon="-1.269530">
        <ele>630.782836</ele>
        <time>2021-10-29T14:18:04.000Z</time>
      </trkpt>
      <trkpt lat="38.524470" lon="-1.270170">
        <ele>629.851917</ele>
        <time>2021-10-29T14:18:04.000Z</time>
      </trkpt>
      <trkpt lat="38.524220" lon="-1.270810">
        <ele>628.920996</ele>
        <time>2021-10-29T14:18:04.000Z</time>
      </trkpt>
      <trkpt lat="38.523890" lon="-1.271490">
        <ele>628.002192</ele>
        <time>2021-10-29T14:18:04.000Z</time>
      </trkpt>
      <trkpt lat="38.523560" lon="-1.272170">
        <ele>627.214686</ele>
        <time>2021-10-29T14:18:04.000Z</time>
      </trkpt>
      <trkpt lat="38.523250" lon="-1.272915">
        <ele>626.384248</ele>
        <time>2021-10-29T14:18:04.000Z</time>
      </trkpt>
      <trkpt lat="38.522940" lon="-1.273660">
        <ele>625.359337</ele>
        <time>2021-10-29T14:18:04.000Z</time>
      </trkpt>
      <trkpt lat="38.522590" lon="-1.274340">
        <ele>624.283047</ele>
        <time>2021-10-29T14:18:04.000Z</time>
      </trkpt>
      <trkpt lat="38.522290" lon="-1.275090">
        <ele>623.169228</ele>
        <time>2021-10-29T14:18:04.000Z</time>
      </trkpt>
      <trkpt lat="38.521800" lon="-1.276040">
        <ele>621.710292</ele>
        <time>2021-10-29T14:18:04.000Z</time>
      </trkpt>
      <trkpt lat="38.521590" lon="-1.276640">
        <ele>620.869186</ele>
        <time>2021-10-29T14:18:04.000Z</time>
      </trkpt>
      <trkpt lat="38.521330" lon="-1.277120">
        <ele>620.124850</ele>
        <time>2021-10-29T14:18:04.000Z</time>
      </trkpt>
      <trkpt lat="38.520890" lon="-1.277760">
        <ele>619.221429</ele>
        <time>2021-10-29T14:18:04.000Z</time>
      </trkpt>
      <trkpt lat="38.520530" lon="-1.278320">
        <ele>618.452878</ele>
        <time>2021-10-29T14:18:04.000Z</time>
      </trkpt>
      <trkpt lat="38.520150" lon="-1.279090">
        <ele>617.495834</ele>
        <time>2021-10-29T14:18:04.000Z</time>
      </trkpt>
      <trkpt lat="38.519830" lon="-1.279860">
        <ele>616.607401</ele>
        <time>2021-10-29T14:18:04.000Z</time>
      </trkpt>
      <trkpt lat="38.519590" lon="-1.280525">
        <ele>615.861159</ele>
        <time>2021-10-29T14:18:04.000Z</time>
      </trkpt>
      <trkpt lat="38.519350" lon="-1.281190">
        <ele>615.125719</ele>
        <time>2021-10-29T14:18:04.000Z</time>
      </trkpt>
      <trkpt lat="38.519050" lon="-1.282200">
        <ele>614.073834</ele>
        <time>2021-10-29T14:18:04.000Z</time>
      </trkpt>
      <trkpt lat="38.518900" lon="-1.282620">
        <ele>613.624304</ele>
        <time>2021-10-29T14:18:04.000Z</time>
      </trkpt>
      <trkpt lat="38.518687" lon="-1.283420">
        <ele>612.654980</ele>
        <time>2021-10-29T14:18:04.000Z</time>
      </trkpt>
      <trkpt lat="38.518473" lon="-1.284220">
        <ele>611.452422</ele>
        <time>2021-10-29T14:18:04.000Z</time>
      </trkpt>
      <trkpt lat="38.518260" lon="-1.285020">
        <ele>610.250448</ele>
        <time>2021-10-29T14:18:04.000Z</time>
      </trkpt>
      <trkpt lat="38.518190" lon="-1.285420">
        <ele>609.653961</ele>
        <time>2021-10-29T14:18:04.000Z</time>
      </trkpt>
      <trkpt lat="38.518010" lon="-1.286070">
        <ele>608.600652</ele>
        <time>2021-10-29T14:18:04.000Z</time>
      </trkpt>
      <trkpt lat="38.517755" lon="-1.286660">
        <ele>607.570987</ele>
        <time>2021-10-29T14:18:04.000Z</time>
      </trkpt>
      <trkpt lat="38.517500" lon="-1.287250">
        <ele>606.541319</ele>
        <time>2021-10-29T14:18:04.000Z</time>
      </trkpt>
      <trkpt lat="38.517213" lon="-1.287997">
        <ele>605.394711</ele>
        <time>2021-10-29T14:18:04.000Z</time>
      </trkpt>
      <trkpt lat="38.516927" lon="-1.288743">
        <ele>604.273824</ele>
        <time>2021-10-29T14:18:04.000Z</time>
      </trkpt>
      <trkpt lat="38.516640" lon="-1.289490">
        <ele>603.207716</ele>
        <time>2021-10-29T14:18:04.000Z</time>
      </trkpt>
      <trkpt lat="38.516440" lon="-1.290100">
        <ele>602.909593</ele>
        <time>2021-10-29T14:18:04.000Z</time>
      </trkpt>
      <trkpt lat="38.516390" lon="-1.290200">
        <ele>602.856100</ele>
        <time>2021-10-29T14:18:04.000Z</time>
      </trkpt>
      <trkpt lat="38.515990" lon="-1.290610">
        <ele>602.560708</ele>
        <time>2021-10-29T14:18:04.000Z</time>
      </trkpt>
      <trkpt lat="38.515470" lon="-1.290980">
        <ele>602.217842</ele>
        <time>2021-10-29T14:18:04.000Z</time>
      </trkpt>
      <trkpt lat="38.514960" lon="-1.291290">
        <ele>602.200000</ele>
        <time>2021-10-29T14:18:04.000Z</time>
      </trkpt>
      <trkpt lat="38.514310" lon="-1.291730">
        <ele>602.200000</ele>
        <time>2021-10-29T14:18:04.000Z</time>
      </trkpt>
      <trkpt lat="38.513880" lon="-1.292000">
        <ele>602.200000</ele>
        <time>2021-10-29T14:18:04.000Z</time>
      </trkpt>
      <trkpt lat="38.513450" lon="-1.292270">
        <ele>602.186156</ele>
        <time>2021-10-29T14:18:04.000Z</time>
      </trkpt>
      <trkpt lat="38.513000" lon="-1.292505">
        <ele>602.170463</ele>
        <time>2021-10-29T14:18:04.000Z</time>
      </trkpt>
      <trkpt lat="38.512550" lon="-1.292740">
        <ele>602.154770</ele>
        <time>2021-10-29T14:18:04.000Z</time>
      </trkpt>
      <trkpt lat="38.511790" lon="-1.293080">
        <ele>602.235991</ele>
        <time>2021-10-29T14:18:04.000Z</time>
      </trkpt>
      <trkpt lat="38.511030" lon="-1.293420">
        <ele>602.421760</ele>
        <time>2021-10-29T14:18:04.000Z</time>
      </trkpt>
      <trkpt lat="38.510450" lon="-1.293830">
        <ele>602.612563</ele>
        <time>2021-10-29T14:18:04.000Z</time>
      </trkpt>
      <trkpt lat="38.509720" lon="-1.294270">
        <ele>603.195534</ele>
        <time>2021-10-29T14:18:04.000Z</time>
      </trkpt>
      <trkpt lat="38.509010" lon="-1.294540">
        <ele>603.730581</ele>
        <time>2021-10-29T14:18:04.000Z</time>
      </trkpt>
      <trkpt lat="38.508650" lon="-1.294620">
        <ele>603.979320</ele>
        <time>2021-10-29T14:18:04.000Z</time>
      </trkpt>
      <trkpt lat="38.508150" lon="-1.294950">
        <ele>604.341212</ele>
        <time>2021-10-29T14:18:04.000Z</time>
      </trkpt>
      <trkpt lat="38.507510" lon="-1.295460">
        <ele>604.826245</ele>
        <time>2021-10-29T14:18:04.000Z</time>
      </trkpt>
      <trkpt lat="38.506950" lon="-1.295760">
        <ele>605.285004</ele>
        <time>2021-10-29T14:18:04.000Z</time>
      </trkpt>
      <trkpt lat="38.506140" lon="-1.296070">
        <ele>606.010700</ele>
        <time>2021-10-29T14:18:04.000Z</time>
      </trkpt>
      <trkpt lat="38.505440" lon="-1.296375">
        <ele>606.712590</ele>
        <time>2021-10-29T14:18:04.000Z</time>
      </trkpt>
      <trkpt lat="38.504740" lon="-1.296680">
        <ele>607.825987</ele>
        <time>2021-10-29T14:18:04.000Z</time>
      </trkpt>
      <trkpt lat="38.504010" lon="-1.297180">
        <ele>609.072888</ele>
        <time>2021-10-29T14:18:04.000Z</time>
      </trkpt>
      <trkpt lat="38.503500" lon="-1.297420">
        <ele>609.524921</ele>
        <time>2021-10-29T14:18:04.000Z</time>
      </trkpt>
      <trkpt lat="38.502940" lon="-1.297730">
        <ele>609.907047</ele>
        <time>2021-10-29T14:18:04.000Z</time>
      </trkpt>
      <trkpt lat="38.502565" lon="-1.298050">
        <ele>610.189391</ele>
        <time>2021-10-29T14:18:04.000Z</time>
      </trkpt>
      <trkpt lat="38.502190" lon="-1.298370">
        <ele>610.423101</ele>
        <time>2021-10-29T14:18:04.000Z</time>
      </trkpt>
      <trkpt lat="38.501790" lon="-1.298660">
        <ele>610.538898</ele>
        <time>2021-10-29T14:18:04.000Z</time>
      </trkpt>
      <trkpt lat="38.501390" lon="-1.298950">
        <ele>610.654695</ele>
        <time>2021-10-29T14:18:04.000Z</time>
      </trkpt>
      <trkpt lat="38.500600" lon="-1.299150">
        <ele>610.813128</ele>
        <time>2021-10-29T14:18:04.000Z</time>
      </trkpt>
      <trkpt lat="38.500110" lon="-1.299220">
        <ele>610.549797</ele>
        <time>2021-10-29T14:18:04.000Z</time>
      </trkpt>
      <trkpt lat="38.499440" lon="-1.299220">
        <ele>610.191960</ele>
        <time>2021-10-29T14:18:04.000Z</time>
      </trkpt>
      <trkpt lat="38.498710" lon="-1.299420">
        <ele>609.685989</ele>
        <time>2021-10-29T14:18:04.000Z</time>
      </trkpt>
      <trkpt lat="38.498600" lon="-1.299480">
        <ele>609.545513</ele>
        <time>2021-10-29T14:18:04.000Z</time>
      </trkpt>
      <trkpt lat="38.498410" lon="-1.299790">
        <ele>609.183577</ele>
        <time>2021-10-29T14:18:04.000Z</time>
      </trkpt>
      <trkpt lat="38.498300" lon="-1.300100">
        <ele>608.870702</ele>
        <time>2021-10-29T14:18:04.000Z</time>
      </trkpt>
      <trkpt lat="38.498180" lon="-1.300200">
        <ele>608.702434</ele>
        <time>2021-10-29T14:18:04.000Z</time>
      </trkpt>
      <trkpt lat="38.497535" lon="-1.300165">
        <ele>607.944189</ele>
        <time>2021-10-29T14:18:04.000Z</time>
      </trkpt>
      <trkpt lat="38.496890" lon="-1.300130">
        <ele>607.261431</ele>
        <time>2021-10-29T14:18:04.000Z</time>
      </trkpt>
      <trkpt lat="38.496070" lon="-1.300440">
        <ele>606.386844</ele>
        <time>2021-10-29T14:18:04.000Z</time>
      </trkpt>
      <trkpt lat="38.495320" lon="-1.300540">
        <ele>604.917371</ele>
        <time>2021-10-29T14:18:04.000Z</time>
      </trkpt>
      <trkpt lat="38.494630" lon="-1.300680">
        <ele>602.618630</ele>
        <time>2021-10-29T14:18:04.000Z</time>
      </trkpt>
      <trkpt lat="38.494520" lon="-1.300740">
        <ele>602.225097</ele>
        <time>2021-10-29T14:18:04.000Z</time>
      </trkpt>
      <trkpt lat="38.494050" lon="-1.301150">
        <ele>600.352602</ele>
        <time>2021-10-29T14:18:04.000Z</time>
      </trkpt>
      <trkpt lat="38.493710" lon="-1.301520">
        <ele>599.058994</ele>
        <time>2021-10-29T14:18:04.000Z</time>
      </trkpt>
      <trkpt lat="38.493110" lon="-1.301760">
        <ele>597.312471</ele>
        <time>2021-10-29T14:18:04.000Z</time>
      </trkpt>
      <trkpt lat="38.492560" lon="-1.301890">
        <ele>595.758691</ele>
        <time>2021-10-29T14:18:04.000Z</time>
      </trkpt>
      <trkpt lat="38.492400" lon="-1.301950">
        <ele>595.295475</ele>
        <time>2021-10-29T14:18:04.000Z</time>
      </trkpt>
      <trkpt lat="38.491690" lon="-1.302330">
        <ele>592.075384</ele>
        <time>2021-10-29T14:18:04.000Z</time>
      </trkpt>
      <trkpt lat="38.491220" lon="-1.302610">
        <ele>589.796536</ele>
        <time>2021-10-29T14:18:04.000Z</time>
      </trkpt>
      <trkpt lat="38.491060" lon="-1.302680">
        <ele>589.053357</ele>
        <time>2021-10-29T14:18:04.000Z</time>
      </trkpt>
      <trkpt lat="38.490810" lon="-1.303010">
        <ele>587.473734</ele>
        <time>2021-10-29T14:18:04.000Z</time>
      </trkpt>
      <trkpt lat="38.490730" lon="-1.303390">
        <ele>586.246075</ele>
        <time>2021-10-29T14:18:04.000Z</time>
      </trkpt>
      <trkpt lat="38.490545" lon="-1.304030">
        <ele>584.197102</ele>
        <time>2021-10-29T14:18:04.000Z</time>
      </trkpt>
      <trkpt lat="38.490360" lon="-1.304670">
        <ele>582.148125</ele>
        <time>2021-10-29T14:18:04.000Z</time>
      </trkpt>
      <trkpt lat="38.490235" lon="-1.305230">
        <ele>580.399240</ele>
        <time>2021-10-29T14:18:04.000Z</time>
      </trkpt>
      <trkpt lat="38.490110" lon="-1.305790">
        <ele>578.914567</ele>
        <time>2021-10-29T14:18:04.000Z</time>
      </trkpt>
      <trkpt lat="38.489980" lon="-1.306840">
        <ele>576.262510</ele>
        <time>2021-10-29T14:18:04.000Z</time>
      </trkpt>
      <trkpt lat="38.489730" lon="-1.307790">
        <ele>574.065354</ele>
        <time>2021-10-29T14:18:04.000Z</time>
      </trkpt>
      <trkpt lat="38.489460" lon="-1.308680">
        <ele>572.692824</ele>
        <time>2021-10-29T14:18:04.000Z</time>
      </trkpt>
      <trkpt lat="38.488990" lon="-1.309620">
        <ele>571.074497</ele>
        <time>2021-10-29T14:18:04.000Z</time>
      </trkpt>
      <trkpt lat="38.488740" lon="-1.310165">
        <ele>570.011636</ele>
        <time>2021-10-29T14:18:04.000Z</time>
      </trkpt>
      <trkpt lat="38.488490" lon="-1.310710">
        <ele>568.948773</ele>
        <time>2021-10-29T14:18:04.000Z</time>
      </trkpt>
      <trkpt lat="38.488240" lon="-1.311620">
        <ele>567.326068</ele>
        <time>2021-10-29T14:18:04.000Z</time>
      </trkpt>
      <trkpt lat="38.488130" lon="-1.311910">
        <ele>566.913629</ele>
        <time>2021-10-29T14:18:04.000Z</time>
      </trkpt>
      <trkpt lat="38.487880" lon="-1.312390">
        <ele>566.184067</ele>
        <time>2021-10-29T14:18:04.000Z</time>
      </trkpt>
      <trkpt lat="38.487630" lon="-1.312870">
        <ele>565.454504</ele>
        <time>2021-10-29T14:18:04.000Z</time>
      </trkpt>
      <trkpt lat="38.487320" lon="-1.313420">
        <ele>564.596875</ele>
        <time>2021-10-29T14:18:04.000Z</time>
      </trkpt>
      <trkpt lat="38.486850" lon="-1.314100">
        <ele>562.367577</ele>
        <time>2021-10-29T14:18:04.000Z</time>
      </trkpt>
      <trkpt lat="38.486520" lon="-1.314640">
        <ele>560.514500</ele>
        <time>2021-10-29T14:18:04.000Z</time>
      </trkpt>
      <trkpt lat="38.486200" lon="-1.315260">
        <ele>558.505702</ele>
        <time>2021-10-29T14:18:04.000Z</time>
      </trkpt>
      <trkpt lat="38.486130" lon="-1.315450">
        <ele>557.794170</ele>
        <time>2021-10-29T14:18:04.000Z</time>
      </trkpt>
      <trkpt lat="38.485990" lon="-1.316010">
        <ele>555.277986</ele>
        <time>2021-10-29T14:18:04.000Z</time>
      </trkpt>
      <trkpt lat="38.485880" lon="-1.316810">
        <ele>551.801405</ele>
        <time>2021-10-29T14:18:04.000Z</time>
      </trkpt>
      <trkpt lat="38.485590" lon="-1.317790">
        <ele>547.850783</ele>
        <time>2021-10-29T14:18:04.000Z</time>
      </trkpt>
      <trkpt lat="38.485490" lon="-1.318060">
        <ele>547.233514</ele>
        <time>2021-10-29T14:18:04.000Z</time>
      </trkpt>
      <trkpt lat="38.485290" lon="-1.318470">
        <ele>546.235178</ele>
        <time>2021-10-29T14:18:04.000Z</time>
      </trkpt>
      <trkpt lat="38.485190" lon="-1.318570">
        <ele>545.899912</ele>
        <time>2021-10-29T14:18:04.000Z</time>
      </trkpt>
      <trkpt lat="38.485120" lon="-1.318610">
        <ele>545.697464</ele>
        <time>2021-10-29T14:18:04.000Z</time>
      </trkpt>
      <trkpt lat="38.484544" lon="-1.317589">
        <ele>543.600509</ele>
        <time>2021-10-29T14:18:04.000Z</time>
      </trkpt>
      <trkpt lat="38.478507" lon="-1.314386">
        <ele>543.600000</ele>
        <time>2021-10-29T14:18:04.000Z</time>
      </trkpt>
      <trkpt lat="38.477878" lon="-1.314304">
        <ele>543.600000</ele>
        <time>2021-10-29T14:18:04.000Z</time>
      </trkpt>
      <trkpt lat="38.476998" lon="-1.313729">
        <ele>543.600000</ele>
        <time>2021-10-29T14:18:04.000Z</time>
      </trkpt>
      <trkpt lat="38.474231" lon="-1.311265">
        <ele>543.600000</ele>
        <time>2021-10-29T14:18:04.000Z</time>
      </trkpt>
      <trkpt lat="38.471590" lon="-1.314058">
        <ele>543.600000</ele>
        <time>2021-10-29T14:18:04.000Z</time>
      </trkpt>
      <trkpt lat="38.473854" lon="-1.318411">
        <ele>543.600000</ele>
        <time>2021-10-29T14:18:04.000Z</time>
      </trkpt>
      <trkpt lat="38.469955" lon="-1.330319">
        <ele>543.600000</ele>
        <time>2021-10-29T14:18:04.000Z</time>
      </trkpt>
      <trkpt lat="38.467126" lon="-1.331305">
        <ele>517.185306</ele>
        <time>2021-10-29T14:18:04.000Z</time>
      </trkpt>
      <trkpt lat="38.467050" lon="-1.331130">
        <ele>514.731075</ele>
        <time>2021-10-29T14:18:04.000Z</time>
      </trkpt>
      <trkpt lat="38.467050" lon="-1.330990">
        <ele>512.988135</ele>
        <time>2021-10-29T14:18:04.000Z</time>
      </trkpt>
      <trkpt lat="38.467100" lon="-1.330850">
        <ele>511.072434</ele>
        <time>2021-10-29T14:18:04.000Z</time>
      </trkpt>
      <trkpt lat="38.466780" lon="-1.330620">
        <ele>505.233892</ele>
        <time>2021-10-29T14:18:04.000Z</time>
      </trkpt>
      <trkpt lat="38.465960" lon="-1.330200">
        <ele>491.186047</ele>
        <time>2021-10-29T14:18:04.000Z</time>
      </trkpt>
      <trkpt lat="38.465190" lon="-1.329780">
        <ele>486.363609</ele>
        <time>2021-10-29T14:18:04.000Z</time>
      </trkpt>
      <trkpt lat="38.464830" lon="-1.329620">
        <ele>485.881340</ele>
        <time>2021-10-29T14:18:04.000Z</time>
      </trkpt>
      <trkpt lat="38.464670" lon="-1.329520">
        <ele>485.655965</ele>
        <time>2021-10-29T14:18:04.000Z</time>
      </trkpt>
      <trkpt lat="38.464420" lon="-1.329320">
        <ele>485.282731</ele>
        <time>2021-10-29T14:18:04.000Z</time>
      </trkpt>
      <trkpt lat="38.464170" lon="-1.328910">
        <ele>484.759979</ele>
        <time>2021-10-29T14:18:04.000Z</time>
      </trkpt>
      <trkpt lat="38.464020" lon="-1.328780">
        <ele>484.496889</ele>
        <time>2021-10-29T14:18:04.000Z</time>
      </trkpt>
      <trkpt lat="38.463200" lon="-1.328340">
        <ele>483.206034</ele>
        <time>2021-10-29T14:18:04.000Z</time>
      </trkpt>
      <trkpt lat="38.462640" lon="-1.327990">
        <ele>482.301190</ele>
        <time>2021-10-29T14:18:04.000Z</time>
      </trkpt>
      <trkpt lat="38.462250" lon="-1.327620">
        <ele>481.551535</ele>
        <time>2021-10-29T14:18:04.000Z</time>
      </trkpt>
      <trkpt lat="38.461735" lon="-1.327060">
        <ele>480.498818</ele>
        <time>2021-10-29T14:18:04.000Z</time>
      </trkpt>
      <trkpt lat="38.461220" lon="-1.326500">
        <ele>479.446098</ele>
        <time>2021-10-29T14:18:04.000Z</time>
      </trkpt>
      <trkpt lat="38.460715" lon="-1.325995">
        <ele>478.652704</ele>
        <time>2021-10-29T14:18:04.000Z</time>
      </trkpt>
      <trkpt lat="38.460210" lon="-1.325490">
        <ele>477.866512</ele>
        <time>2021-10-29T14:18:04.000Z</time>
      </trkpt>
      <trkpt lat="38.460020" lon="-1.325180">
        <ele>477.488664</ele>
        <time>2021-10-29T14:18:04.000Z</time>
      </trkpt>
      <trkpt lat="38.459740" lon="-1.324570">
        <ele>476.897918</ele>
        <time>2021-10-29T14:18:04.000Z</time>
      </trkpt>
      <trkpt lat="38.459580" lon="-1.324280">
        <ele>476.632729</ele>
        <time>2021-10-29T14:18:04.000Z</time>
      </trkpt>
      <trkpt lat="38.459250" lon="-1.323900">
        <ele>476.208540</ele>
        <time>2021-10-29T14:18:04.000Z</time>
      </trkpt>
      <trkpt lat="38.458725" lon="-1.323515">
        <ele>475.630597</ele>
        <time>2021-10-29T14:18:04.000Z</time>
      </trkpt>
      <trkpt lat="38.458200" lon="-1.323130">
        <ele>475.119585</ele>
        <time>2021-10-29T14:18:04.000Z</time>
      </trkpt>
      <trkpt lat="38.457563" lon="-1.322610">
        <ele>474.508194</ele>
        <time>2021-10-29T14:18:04.000Z</time>
      </trkpt>
      <trkpt lat="38.456927" lon="-1.322090">
        <ele>473.927397</ele>
        <time>2021-10-29T14:18:04.000Z</time>
      </trkpt>
      <trkpt lat="38.456290" lon="-1.321570">
        <ele>473.448137</ele>
        <time>2021-10-29T14:18:04.000Z</time>
      </trkpt>
      <trkpt lat="38.455795" lon="-1.321035">
        <ele>473.037047</ele>
        <time>2021-10-29T14:18:04.000Z</time>
      </trkpt>
      <trkpt lat="38.455300" lon="-1.320500">
        <ele>472.686509</ele>
        <time>2021-10-29T14:18:04.000Z</time>
      </trkpt>
      <trkpt lat="38.455030" lon="-1.320180">
        <ele>472.505412</ele>
        <time>2021-10-29T14:18:04.000Z</time>
      </trkpt>
      <trkpt lat="38.454580" lon="-1.319495">
        <ele>472.161192</ele>
        <time>2021-10-29T14:18:04.000Z</time>
      </trkpt>
      <trkpt lat="38.454130" lon="-1.318810">
        <ele>472.590826</ele>
        <time>2021-10-29T14:18:04.000Z</time>
      </trkpt>
      <trkpt lat="38.453630" lon="-1.318070">
        <ele>473.711678</ele>
        <time>2021-10-29T14:18:04.000Z</time>
      </trkpt>
      <trkpt lat="38.453570" lon="-1.318000">
        <ele>473.830693</ele>
        <time>2021-10-29T14:18:04.000Z</time>
      </trkpt>
      <trkpt lat="38.453440" lon="-1.317930">
        <ele>474.037300</ele>
        <time>2021-10-29T14:18:04.000Z</time>
      </trkpt>
      <trkpt lat="38.453250" lon="-1.317860">
        <ele>474.326889</ele>
        <time>2021-10-29T14:18:04.000Z</time>
      </trkpt>
      <trkpt lat="38.452510" lon="-1.317760">
        <ele>476.761767</ele>
        <time>2021-10-29T14:18:04.000Z</time>
      </trkpt>
      <trkpt lat="38.452220" lon="-1.317690">
        <ele>477.947856</ele>
        <time>2021-10-29T14:18:04.000Z</time>
      </trkpt>
      <trkpt lat="38.451378" lon="-1.317474">
        <ele>481.399291</ele>
        <time>2021-10-29T14:18:04.000Z</time>
      </trkpt>
      <trkpt lat="38.450536" lon="-1.317259">
        <ele>485.337581</ele>
        <time>2021-10-29T14:18:04.000Z</time>
      </trkpt>
      <trkpt lat="38.449695" lon="-1.317044">
        <ele>489.349006</ele>
        <time>2021-10-29T14:18:04.000Z</time>
      </trkpt>
      <trkpt lat="38.448853" lon="-1.316828">
        <ele>493.588760</ele>
        <time>2021-10-29T14:18:04.000Z</time>
      </trkpt>
      <trkpt lat="38.448011" lon="-1.316613">
        <ele>497.895603</ele>
        <time>2021-10-29T14:18:04.000Z</time>
      </trkpt>
      <trkpt lat="38.447169" lon="-1.316397">
        <ele>502.497888</ele>
        <time>2021-10-29T14:18:04.000Z</time>
      </trkpt>
      <trkpt lat="38.446327" lon="-1.316182">
        <ele>507.243005</ele>
        <time>2021-10-29T14:18:04.000Z</time>
      </trkpt>
      <trkpt lat="38.445485" lon="-1.315966">
        <ele>511.940803</ele>
        <time>2021-10-29T14:18:04.000Z</time>
      </trkpt>
      <trkpt lat="38.444644" lon="-1.315751">
        <ele>516.597233</ele>
        <time>2021-10-29T14:18:04.000Z</time>
      </trkpt>
      <trkpt lat="38.443802" lon="-1.315535">
        <ele>521.175216</ele>
        <time>2021-10-29T14:18:04.000Z</time>
      </trkpt>
      <trkpt lat="38.442960" lon="-1.315320">
        <ele>525.661509</ele>
        <time>2021-10-29T14:18:04.000Z</time>
      </trkpt>
      <trkpt lat="38.442540" lon="-1.315230">
        <ele>527.886565</ele>
        <time>2021-10-29T14:18:04.000Z</time>
      </trkpt>
      <trkpt lat="38.441845" lon="-1.315120">
        <ele>531.123175</ele>
        <time>2021-10-29T14:18:04.000Z</time>
      </trkpt>
      <trkpt lat="38.441150" lon="-1.315010">
        <ele>534.289396</ele>
        <time>2021-10-29T14:18:04.000Z</time>
      </trkpt>
      <trkpt lat="38.440550" lon="-1.314810">
        <ele>537.074785</ele>
        <time>2021-10-29T14:18:04.000Z</time>
      </trkpt>
      <trkpt lat="38.440360" lon="-1.314680">
        <ele>538.017223</ele>
        <time>2021-10-29T14:18:04.000Z</time>
      </trkpt>
      <trkpt lat="38.440200" lon="-1.314520">
        <ele>538.905768</ele>
        <time>2021-10-29T14:18:04.000Z</time>
      </trkpt>
      <trkpt lat="38.439750" lon="-1.314165">
        <ele>541.218430</ele>
        <time>2021-10-29T14:18:04.000Z</time>
      </trkpt>
      <trkpt lat="38.439300" lon="-1.313810">
        <ele>543.531096</ele>
        <time>2021-10-29T14:18:04.000Z</time>
      </trkpt>
      <trkpt lat="38.439170" lon="-1.313760">
        <ele>544.124682</ele>
        <time>2021-10-29T14:18:04.000Z</time>
      </trkpt>
      <trkpt lat="38.438780" lon="-1.313720">
        <ele>546.496670</ele>
        <time>2021-10-29T14:18:04.000Z</time>
      </trkpt>
      <trkpt lat="38.438560" lon="-1.313730">
        <ele>547.904116</ele>
        <time>2021-10-29T14:18:04.000Z</time>
      </trkpt>
      <trkpt lat="38.437800" lon="-1.313870">
        <ele>552.813441</ele>
        <time>2021-10-29T14:18:04.000Z</time>
      </trkpt>
      <trkpt lat="38.437040" lon="-1.314010">
        <ele>557.758788</ele>
        <time>2021-10-29T14:18:04.000Z</time>
      </trkpt>
      <trkpt lat="38.436650" lon="-1.314030">
        <ele>560.303666</ele>
        <time>2021-10-29T14:18:04.000Z</time>
      </trkpt>
      <trkpt lat="38.435850" lon="-1.313910">
        <ele>565.555600</ele>
        <time>2021-10-29T14:18:04.000Z</time>
      </trkpt>
      <trkpt lat="38.435050" lon="-1.313790">
        <ele>570.713331</ele>
        <time>2021-10-29T14:18:04.000Z</time>
      </trkpt>
      <trkpt lat="38.434880" lon="-1.313870">
        <ele>571.859611</ele>
        <time>2021-10-29T14:18:04.000Z</time>
      </trkpt>
      <trkpt lat="38.434343" lon="-1.314400">
        <ele>576.153955</ele>
        <time>2021-10-29T14:18:04.000Z</time>
      </trkpt>
      <trkpt lat="38.433807" lon="-1.314930">
        <ele>580.843162</ele>
        <time>2021-10-29T14:18:04.000Z</time>
      </trkpt>
      <trkpt lat="38.433270" lon="-1.315460">
        <ele>586.336318</ele>
        <time>2021-10-29T14:18:04.000Z</time>
      </trkpt>
      <trkpt lat="38.432940" lon="-1.315730">
        <ele>589.508366</ele>
        <time>2021-10-29T14:18:04.000Z</time>
      </trkpt>
      <trkpt lat="38.432480" lon="-1.316040">
        <ele>593.750115</ele>
        <time>2021-10-29T14:18:04.000Z</time>
      </trkpt>
      <trkpt lat="38.432420" lon="-1.316040">
        <ele>594.339202</ele>
        <time>2021-10-29T14:18:04.000Z</time>
      </trkpt>
      <trkpt lat="38.432370" lon="-1.316010">
        <ele>594.881626</ele>
        <time>2021-10-29T14:18:04.000Z</time>
      </trkpt>
      <trkpt lat="38.431880" lon="-1.315345">
        <ele>601.903208</ele>
        <time>2021-10-29T14:18:04.000Z</time>
      </trkpt>
      <trkpt lat="38.431390" lon="-1.314680">
        <ele>608.924815</ele>
        <time>2021-10-29T14:18:04.000Z</time>
      </trkpt>
      <trkpt lat="38.431270" lon="-1.314640">
        <ele>610.142492</ele>
        <time>2021-10-29T14:18:04.000Z</time>
      </trkpt>
      <trkpt lat="38.431110" lon="-1.314620">
        <ele>611.991011</ele>
        <time>2021-10-29T14:18:04.000Z</time>
      </trkpt>
      <trkpt lat="38.430520" lon="-1.314595">
        <ele>620.951779</ele>
        <time>2021-10-29T14:18:04.000Z</time>
      </trkpt>
      <trkpt lat="38.429930" lon="-1.314570">
        <ele>629.912548</ele>
        <time>2021-10-29T14:18:04.000Z</time>
      </trkpt>
      <trkpt lat="38.429860" lon="-1.314520">
        <ele>631.130136</ele>
        <time>2021-10-29T14:18:04.000Z</time>
      </trkpt>
      <trkpt lat="38.429790" lon="-1.314390">
        <ele>633.005942</ele>
        <time>2021-10-29T14:18:04.000Z</time>
      </trkpt>
      <trkpt lat="38.429700" lon="-1.314270">
        <ele>634.981412</ele>
        <time>2021-10-29T14:18:04.000Z</time>
      </trkpt>
      <trkpt lat="38.429620" lon="-1.314230">
        <ele>636.285592</ele>
        <time>2021-10-29T14:18:04.000Z</time>
      </trkpt>
      <trkpt lat="38.429210" lon="-1.314170">
        <ele>640.821512</ele>
        <time>2021-10-29T14:18:04.000Z</time>
      </trkpt>
      <trkpt lat="38.429140" lon="-1.314190">
        <ele>641.442368</ele>
        <time>2021-10-29T14:18:04.000Z</time>
      </trkpt>
      <trkpt lat="38.429080" lon="-1.314280">
        <ele>642.243659</ele>
        <time>2021-10-29T14:18:04.000Z</time>
      </trkpt>
      <trkpt lat="38.429030" lon="-1.314130">
        <ele>643.348951</ele>
        <time>2021-10-29T14:18:04.000Z</time>
      </trkpt>
      <trkpt lat="38.429091" lon="-1.314347">
        <ele>644.912141</ele>
        <time>2021-10-29T14:18:04.000Z</time>
      </trkpt>
      <trkpt lat="38.429040" lon="-1.314124">
        <ele>646.487269</ele>
        <time>2021-10-29T14:18:06.000Z</time>
      </trkpt>
      <trkpt lat="38.428838" lon="-1.313725">
        <ele>649.708401</ele>
        <time>2021-10-29T14:18:12.000Z</time>
      </trkpt>
      <trkpt lat="38.428663" lon="-1.313326">
        <ele>652.808915</ele>
        <time>2021-10-29T14:18:14.000Z</time>
      </trkpt>
      <trkpt lat="38.428613" lon="-1.312862">
        <ele>654.611750</ele>
        <time>2021-10-29T14:18:18.000Z</time>
      </trkpt>
      <trkpt lat="38.428550" lon="-1.312305">
        <ele>655.653447</ele>
        <time>2021-10-29T14:18:20.000Z</time>
      </trkpt>
      <trkpt lat="38.428492" lon="-1.312217">
        <ele>655.866317</ele>
        <time>2021-10-29T14:18:23.000Z</time>
      </trkpt>
      <trkpt lat="38.428371" lon="-1.312217">
        <ele>656.152219</ele>
        <time>2021-10-29T14:18:26.000Z</time>
      </trkpt>
      <trkpt lat="38.428285" lon="-1.312323">
        <ele>656.434688</ele>
        <time>2021-10-29T14:18:28.000Z</time>
      </trkpt>
      <trkpt lat="38.428178" lon="-1.312616">
        <ele>657.033067</ele>
        <time>2021-10-29T14:18:34.000Z</time>
      </trkpt>
      <trkpt lat="38.428106" lon="-1.312780">
        <ele>657.381053</ele>
        <time>2021-10-29T14:18:36.000Z</time>
      </trkpt>
      <trkpt lat="38.428056" lon="-1.312921">
        <ele>657.667539</ele>
        <time>2021-10-29T14:18:37.000Z</time>
      </trkpt>
      <trkpt lat="38.427984" lon="-1.313144">
        <ele>658.113998</ele>
        <time>2021-10-29T14:18:41.000Z</time>
      </trkpt>
      <trkpt lat="38.427993" lon="-1.313607">
        <ele>659.123996</ele>
        <time>2021-10-29T14:18:42.000Z</time>
      </trkpt>
      <trkpt lat="38.427962" lon="-1.313660">
        <ele>659.276335</ele>
        <time>2021-10-29T14:18:44.000Z</time>
      </trkpt>
      <trkpt lat="38.427791" lon="-1.313977">
        <ele>660.162792</ele>
        <time>2021-10-29T14:18:50.000Z</time>
      </trkpt>
      <trkpt lat="38.427665" lon="-1.314348">
        <ele>661.094115</ele>
        <time>2021-10-29T14:18:55.000Z</time>
      </trkpt>
      <trkpt lat="38.427588" lon="-1.314677">
        <ele>661.884956</ele>
        <time>2021-10-29T14:18:58.000Z</time>
      </trkpt>
      <trkpt lat="38.427427" lon="-1.315316">
        <ele>663.430939</ele>
        <time>2021-10-29T14:19:00.000Z</time>
      </trkpt>
      <trkpt lat="38.427341" lon="-1.315615">
        <ele>664.108408</ele>
        <time>2021-10-29T14:19:05.000Z</time>
      </trkpt>
      <trkpt lat="38.427260" lon="-1.315885">
        <ele>664.703836</ele>
        <time>2021-10-29T14:19:09.000Z</time>
      </trkpt>
      <trkpt lat="38.427184" lon="-1.316255">
        <ele>665.491590</ele>
        <time>2021-10-29T14:19:12.000Z</time>
      </trkpt>
      <trkpt lat="38.427040" lon="-1.316554">
        <ele>666.214421</ele>
        <time>2021-10-29T14:19:18.000Z</time>
      </trkpt>
      <trkpt lat="38.427000" lon="-1.316730">
        <ele>666.591830</ele>
        <time>2021-10-29T14:19:19.000Z</time>
      </trkpt>
      <trkpt lat="38.427004" lon="-1.316894">
        <ele>666.929744</ele>
        <time>2021-10-29T14:19:20.000Z</time>
      </trkpt>
      <trkpt lat="38.427013" lon="-1.317059">
        <ele>667.270376</ele>
        <time>2021-10-29T14:19:27.000Z</time>
      </trkpt>
      <trkpt lat="38.427139" lon="-1.317598">
        <ele>668.851362</ele>
        <time>2021-10-29T14:19:29.000Z</time>
      </trkpt>
      <trkpt lat="38.427166" lon="-1.317974">
        <ele>674.587870</ele>
        <time>2021-10-29T14:19:29.000Z</time>
      </trkpt>
      <trkpt lat="38.427189" lon="-1.318144">
        <ele>677.208910</ele>
        <time>2021-10-29T14:19:29.000Z</time>
      </trkpt>
      <trkpt lat="38.427049" lon="-1.318607">
        <ele>684.749066</ele>
        <time>2021-10-29T14:19:29.000Z</time>
      </trkpt>
      <trkpt lat="38.426846" lon="-1.319261">
        <ele>695.436819</ele>
        <time>2021-10-29T14:22:49.000Z</time>
      </trkpt>
      <trkpt lat="38.426847" lon="-1.319274">
        <ele>695.635279</ele>
        <time>2021-10-29T14:22:50.000Z</time>
      </trkpt>
      <trkpt lat="38.426835" lon="-1.319312">
        <ele>696.257755</ele>
        <time>2021-10-29T14:22:54.000Z</time>
      </trkpt>
      <trkpt lat="38.426835" lon="-1.319334">
        <ele>696.592002</ele>
        <time>2021-10-29T14:22:56.000Z</time>
      </trkpt>
      <trkpt lat="38.426837" lon="-1.319416">
        <ele>697.838435</ele>
        <time>2021-10-29T14:23:00.000Z</time>
      </trkpt>
      <trkpt lat="38.426843" lon="-1.319463">
        <ele>698.561927</ele>
        <time>2021-10-29T14:23:02.000Z</time>
      </trkpt>
      <trkpt lat="38.426872" lon="-1.319532">
        <ele>699.751585</ele>
        <time>2021-10-29T14:23:05.000Z</time>
      </trkpt>
      <trkpt lat="38.426942" lon="-1.319663">
        <ele>702.160777</ele>
        <time>2021-10-29T14:23:11.000Z</time>
      </trkpt>
      <trkpt lat="38.426955" lon="-1.319683">
        <ele>702.555611</ele>
        <time>2021-10-29T14:23:12.000Z</time>
      </trkpt>
      <trkpt lat="38.427008" lon="-1.319771">
        <ele>703.856877</ele>
        <time>2021-10-29T14:23:16.000Z</time>
      </trkpt>
      <trkpt lat="38.427022" lon="-1.319794">
        <ele>704.128483</ele>
        <time>2021-10-29T14:23:17.000Z</time>
      </trkpt>
      <trkpt lat="38.427036" lon="-1.319819">
        <ele>704.415045</ele>
        <time>2021-10-29T14:23:18.000Z</time>
      </trkpt>
      <trkpt lat="38.427049" lon="-1.319844">
        <ele>704.694853</ele>
        <time>2021-10-29T14:23:19.000Z</time>
      </trkpt>
      <trkpt lat="38.427062" lon="-1.319869">
        <ele>704.974660</ele>
        <time>2021-10-29T14:23:20.000Z</time>
      </trkpt>
      <trkpt lat="38.427083" lon="-1.319921">
        <ele>705.520198</ele>
        <time>2021-10-29T14:23:22.000Z</time>
      </trkpt>
      <trkpt lat="38.427092" lon="-1.319949">
        <ele>705.802420</ele>
        <time>2021-10-29T14:23:23.000Z</time>
      </trkpt>
      <trkpt lat="38.427104" lon="-1.320034">
        <ele>706.607811</ele>
        <time>2021-10-29T14:23:26.000Z</time>
      </trkpt>
      <trkpt lat="38.427100" lon="-1.320091">
        <ele>707.141463</ele>
        <time>2021-10-29T14:23:28.000Z</time>
      </trkpt>
      <trkpt lat="38.427097" lon="-1.320119">
        <ele>707.404993</ele>
        <time>2021-10-29T14:23:29.000Z</time>
      </trkpt>
      <trkpt lat="38.427047" lon="-1.320273">
        <ele>708.959487</ele>
        <time>2021-10-29T14:23:35.000Z</time>
      </trkpt>
      <trkpt lat="38.427037" lon="-1.320295">
        <ele>709.196668</ele>
        <time>2021-10-29T14:23:36.000Z</time>
      </trkpt>
      <trkpt lat="38.426996" lon="-1.320362">
        <ele>709.989460</ele>
        <time>2021-10-29T14:23:39.000Z</time>
      </trkpt>
      <trkpt lat="38.426968" lon="-1.320403">
        <ele>710.496663</ele>
        <time>2021-10-29T14:23:41.000Z</time>
      </trkpt>
      <trkpt lat="38.426918" lon="-1.320469">
        <ele>711.352815</ele>
        <time>2021-10-29T14:23:44.000Z</time>
      </trkpt>
      <trkpt lat="38.426858" lon="-1.320543">
        <ele>712.345912</ele>
        <time>2021-10-29T14:23:48.000Z</time>
      </trkpt>
      <trkpt lat="38.426842" lon="-1.320561">
        <ele>712.599773</ele>
        <time>2021-10-29T14:23:49.000Z</time>
      </trkpt>
      <trkpt lat="38.426796" lon="-1.320614">
        <ele>713.337383</ele>
        <time>2021-10-29T14:23:52.000Z</time>
      </trkpt>
      <trkpt lat="38.426781" lon="-1.320631">
        <ele>713.576150</ele>
        <time>2021-10-29T14:23:53.000Z</time>
      </trkpt>
      <trkpt lat="38.426764" lon="-1.320650">
        <ele>713.845109</ele>
        <time>2021-10-29T14:23:54.000Z</time>
      </trkpt>
      <trkpt lat="38.426748" lon="-1.320670">
        <ele>714.111669</ele>
        <time>2021-10-29T14:23:55.000Z</time>
      </trkpt>
      <trkpt lat="38.426732" lon="-1.320688">
        <ele>714.365530</ele>
        <time>2021-10-29T14:23:56.000Z</time>
      </trkpt>
      <trkpt lat="38.426716" lon="-1.320706">
        <ele>714.619391</ele>
        <time>2021-10-29T14:23:57.000Z</time>
      </trkpt>
      <trkpt lat="38.426701" lon="-1.320724">
        <ele>714.864449</ele>
        <time>2021-10-29T14:23:58.000Z</time>
      </trkpt>
      <trkpt lat="38.426633" lon="-1.320820">
        <ele>716.071325</ele>
        <time>2021-10-29T14:24:03.000Z</time>
      </trkpt>
      <trkpt lat="38.426600" lon="-1.320892">
        <ele>716.849193</ele>
        <time>2021-10-29T14:24:06.000Z</time>
      </trkpt>
      <trkpt lat="38.426583" lon="-1.320971">
        <ele>717.613159</ele>
        <time>2021-10-29T14:24:09.000Z</time>
      </trkpt>
      <trkpt lat="38.426568" lon="-1.321106">
        <ele>718.884639</ele>
        <time>2021-10-29T14:24:14.000Z</time>
      </trkpt>
      <trkpt lat="38.426565" lon="-1.321133">
        <ele>719.138935</ele>
        <time>2021-10-29T14:24:15.000Z</time>
      </trkpt>
      <trkpt lat="38.426557" lon="-1.321220">
        <ele>719.955784</ele>
        <time>2021-10-29T14:24:18.000Z</time>
      </trkpt>
      <trkpt lat="38.426554" lon="-1.321281">
        <ele>720.525732</ele>
        <time>2021-10-29T14:24:20.000Z</time>
      </trkpt>
      <trkpt lat="38.426548" lon="-1.321342">
        <ele>721.099026</ele>
        <time>2021-10-29T14:24:22.000Z</time>
      </trkpt>
      <trkpt lat="38.426530" lon="-1.321461">
        <ele>722.229203</ele>
        <time>2021-10-29T14:24:26.000Z</time>
      </trkpt>
      <trkpt lat="38.426524" lon="-1.321489">
        <ele>722.499896</ele>
        <time>2021-10-29T14:24:27.000Z</time>
      </trkpt>
      <trkpt lat="38.426514" lon="-1.321546">
        <ele>723.044589</ele>
        <time>2021-10-29T14:24:29.000Z</time>
      </trkpt>
      <trkpt lat="38.426509" lon="-1.321574">
        <ele>723.312388</ele>
        <time>2021-10-29T14:24:30.000Z</time>
      </trkpt>
      <trkpt lat="38.426504" lon="-1.321602">
        <ele>723.580187</ele>
        <time>2021-10-29T14:24:31.000Z</time>
      </trkpt>
      <trkpt lat="38.426483" lon="-1.321715">
        <ele>724.658589</ele>
        <time>2021-10-29T14:24:35.000Z</time>
      </trkpt>
      <trkpt lat="38.426461" lon="-1.321845">
        <ele>725.246866</ele>
        <time>2021-10-29T14:24:40.000Z</time>
      </trkpt>
      <trkpt lat="38.426452" lon="-1.321898">
        <ele>725.486739</ele>
        <time>2021-10-29T14:24:42.000Z</time>
      </trkpt>
      <trkpt lat="38.426424" lon="-1.322004">
        <ele>725.981531</ele>
        <time>2021-10-29T14:24:46.000Z</time>
      </trkpt>
      <trkpt lat="38.426396" lon="-1.322090">
        <ele>726.393468</ele>
        <time>2021-10-29T14:24:49.000Z</time>
      </trkpt>
      <trkpt lat="38.426385" lon="-1.322119">
        <ele>726.535985</ele>
        <time>2021-10-29T14:24:50.000Z</time>
      </trkpt>
      <trkpt lat="38.426335" lon="-1.322234">
        <ele>727.117739</ele>
        <time>2021-10-29T14:24:54.000Z</time>
      </trkpt>
      <trkpt lat="38.426310" lon="-1.322290">
        <ele>727.402833</ele>
        <time>2021-10-29T14:24:56.000Z</time>
      </trkpt>
      <trkpt lat="38.426289" lon="-1.322347">
        <ele>727.681443</ele>
        <time>2021-10-29T14:24:58.000Z</time>
      </trkpt>
      <trkpt lat="38.426241" lon="-1.322469">
        <ele>728.285304</ele>
        <time>2021-10-29T14:25:02.000Z</time>
      </trkpt>
      <trkpt lat="38.426210" lon="-1.322563">
        <ele>728.736423</ele>
        <time>2021-10-29T14:25:05.000Z</time>
      </trkpt>
      <trkpt lat="38.426185" lon="-1.322661">
        <ele>729.192299</ele>
        <time>2021-10-29T14:25:08.000Z</time>
      </trkpt>
      <trkpt lat="38.426136" lon="-1.322825">
        <ele>729.968670</ele>
        <time>2021-10-29T14:25:13.000Z</time>
      </trkpt>
      <trkpt lat="38.426126" lon="-1.322859">
        <ele>730.129308</ele>
        <time>2021-10-29T14:25:14.000Z</time>
      </trkpt>
      <trkpt lat="38.426039" lon="-1.323098">
        <ele>731.295003</ele>
        <time>2021-10-29T14:25:21.000Z</time>
      </trkpt>
      <trkpt lat="38.426005" lon="-1.323164">
        <ele>731.644396</ele>
        <time>2021-10-29T14:25:23.000Z</time>
      </trkpt>
      <trkpt lat="38.425869" lon="-1.323370">
        <ele>732.835980</ele>
        <time>2021-10-29T14:25:29.000Z</time>
      </trkpt>
      <trkpt lat="38.425777" lon="-1.323538">
        <ele>733.742632</ele>
        <time>2021-10-29T14:25:33.000Z</time>
      </trkpt>
      <trkpt lat="38.425756" lon="-1.323583">
        <ele>733.974315</ele>
        <time>2021-10-29T14:25:34.000Z</time>
      </trkpt>
      <trkpt lat="38.425737" lon="-1.323629">
        <ele>734.204331</ele>
        <time>2021-10-29T14:25:35.000Z</time>
      </trkpt>
      <trkpt lat="38.425719" lon="-1.323674">
        <ele>734.427821</ele>
        <time>2021-10-29T14:25:36.000Z</time>
      </trkpt>
      <trkpt lat="38.425699" lon="-1.323720">
        <ele>734.660524</ele>
        <time>2021-10-29T14:25:37.000Z</time>
      </trkpt>
      <trkpt lat="38.425679" lon="-1.323765">
        <ele>734.857020</ele>
        <time>2021-10-29T14:25:38.000Z</time>
      </trkpt>
      <trkpt lat="38.425659" lon="-1.323813">
        <ele>734.999778</ele>
        <time>2021-10-29T14:25:39.000Z</time>
      </trkpt>
      <trkpt lat="38.425639" lon="-1.323862">
        <ele>735.144860</ele>
        <time>2021-10-29T14:25:40.000Z</time>
      </trkpt>
      <trkpt lat="38.425618" lon="-1.323910">
        <ele>735.289223</ele>
        <time>2021-10-29T14:25:41.000Z</time>
      </trkpt>
      <trkpt lat="38.425597" lon="-1.323960">
        <ele>735.438193</ele>
        <time>2021-10-29T14:25:42.000Z</time>
      </trkpt>
      <trkpt lat="38.425576" lon="-1.324013">
        <ele>735.594151</ele>
        <time>2021-10-29T14:25:43.000Z</time>
      </trkpt>
      <trkpt lat="38.425557" lon="-1.324067">
        <ele>735.749591</ele>
        <time>2021-10-29T14:25:44.000Z</time>
      </trkpt>
      <trkpt lat="38.425541" lon="-1.324124">
        <ele>735.908582</ele>
        <time>2021-10-29T14:25:45.000Z</time>
      </trkpt>
      <trkpt lat="38.425527" lon="-1.324182">
        <ele>736.067947</ele>
        <time>2021-10-29T14:25:46.000Z</time>
      </trkpt>
      <trkpt lat="38.425483" lon="-1.324571">
        <ele>737.099994</ele>
        <time>2021-10-29T14:25:53.000Z</time>
      </trkpt>
      <trkpt lat="38.425474" lon="-1.324671">
        <ele>737.364306</ele>
        <time>2021-10-29T14:25:55.000Z</time>
      </trkpt>
      <trkpt lat="38.425445" lon="-1.324866">
        <ele>737.885492</ele>
        <time>2021-10-29T14:25:59.000Z</time>
      </trkpt>
      <trkpt lat="38.425423" lon="-1.325007">
        <ele>738.263009</ele>
        <time>2021-10-29T14:26:02.000Z</time>
      </trkpt>
      <trkpt lat="38.425353" lon="-1.325235">
        <ele>738.906036</ele>
        <time>2021-10-29T14:26:07.000Z</time>
      </trkpt>
      <trkpt lat="38.425339" lon="-1.325283">
        <ele>739.040529</ele>
        <time>2021-10-29T14:26:08.000Z</time>
      </trkpt>
      <trkpt lat="38.425310" lon="-1.325390">
        <ele>739.337835</ele>
        <time>2021-10-29T14:26:10.000Z</time>
      </trkpt>
      <trkpt lat="38.425251" lon="-1.325718">
        <ele>740.221527</ele>
        <time>2021-10-29T14:26:16.000Z</time>
      </trkpt>
      <trkpt lat="38.425248" lon="-1.325822">
        <ele>740.494802</ele>
        <time>2021-10-29T14:26:18.000Z</time>
      </trkpt>
      <trkpt lat="38.425246" lon="-1.325922">
        <ele>740.757473</ele>
        <time>2021-10-29T14:26:20.000Z</time>
      </trkpt>
      <trkpt lat="38.425209" lon="-1.326259">
        <ele>741.198628</ele>
        <time>2021-10-29T14:26:27.000Z</time>
      </trkpt>
      <trkpt lat="38.425167" lon="-1.326492">
        <ele>741.476912</ele>
        <time>2021-10-29T14:26:32.000Z</time>
      </trkpt>
      <trkpt lat="38.425157" lon="-1.326537">
        <ele>741.531355</ele>
        <time>2021-10-29T14:26:33.000Z</time>
      </trkpt>
      <trkpt lat="38.425135" lon="-1.326625">
        <ele>741.638871</ele>
        <time>2021-10-29T14:26:35.000Z</time>
      </trkpt>
      <trkpt lat="38.425124" lon="-1.326667">
        <ele>741.690415</ele>
        <time>2021-10-29T14:26:36.000Z</time>
      </trkpt>
      <trkpt lat="38.425098" lon="-1.326745">
        <ele>741.789079</ele>
        <time>2021-10-29T14:26:38.000Z</time>
      </trkpt>
      <trkpt lat="38.425005" lon="-1.326879">
        <ele>741.997447</ele>
        <time>2021-10-29T14:26:42.000Z</time>
      </trkpt>
      <trkpt lat="38.424814" lon="-1.327027">
        <ele>742.329411</ele>
        <time>2021-10-29T14:26:47.000Z</time>
      </trkpt>
      <trkpt lat="38.424765" lon="-1.327052">
        <ele>742.407811</ele>
        <time>2021-10-29T14:26:48.000Z</time>
      </trkpt>
      <trkpt lat="38.424713" lon="-1.327078">
        <ele>742.490784</ele>
        <time>2021-10-29T14:26:49.000Z</time>
      </trkpt>
      <trkpt lat="38.424605" lon="-1.327132">
        <ele>742.663112</ele>
        <time>2021-10-29T14:26:51.000Z</time>
      </trkpt>
      <trkpt lat="38.424263" lon="-1.327273">
        <ele>743.197072</ele>
        <time>2021-10-29T14:26:57.000Z</time>
      </trkpt>
      <trkpt lat="38.424033" lon="-1.327376">
        <ele>743.441738</ele>
        <time>2021-10-29T14:27:01.000Z</time>
      </trkpt>
      <trkpt lat="38.423976" lon="-1.327405">
        <ele>743.312125</ele>
        <time>2021-10-29T14:27:02.000Z</time>
      </trkpt>
      <trkpt lat="38.423704" lon="-1.327558">
        <ele>742.684262</ele>
        <time>2021-10-29T14:27:07.000Z</time>
      </trkpt>
      <trkpt lat="38.423651" lon="-1.327590">
        <ele>742.560416</ele>
        <time>2021-10-29T14:27:08.000Z</time>
      </trkpt>
      <trkpt lat="38.423301" lon="-1.327724">
        <ele>741.788568</ele>
        <time>2021-10-29T14:27:14.000Z</time>
      </trkpt>
      <trkpt lat="38.422985" lon="-1.327804">
        <ele>741.108076</ele>
        <time>2021-10-29T14:27:19.000Z</time>
      </trkpt>
      <trkpt lat="38.422925" lon="-1.327832">
        <ele>740.973132</ele>
        <time>2021-10-29T14:27:20.000Z</time>
      </trkpt>
      <trkpt lat="38.422869" lon="-1.327866">
        <ele>740.842143</ele>
        <time>2021-10-29T14:27:21.000Z</time>
      </trkpt>
      <trkpt lat="38.422818" lon="-1.327905">
        <ele>740.716562</ele>
        <time>2021-10-29T14:27:22.000Z</time>
      </trkpt>
      <trkpt lat="38.422681" lon="-1.328032">
        <ele>740.358908</ele>
        <time>2021-10-29T14:27:25.000Z</time>
      </trkpt>
      <trkpt lat="38.422456" lon="-1.328265">
        <ele>739.746896</ele>
        <time>2021-10-29T14:27:30.000Z</time>
      </trkpt>
      <trkpt lat="38.422363" lon="-1.328335">
        <ele>739.585880</ele>
        <time>2021-10-29T14:27:32.000Z</time>
      </trkpt>
      <trkpt lat="38.422314" lon="-1.328361">
        <ele>739.512812</ele>
        <time>2021-10-29T14:27:33.000Z</time>
      </trkpt>
      <trkpt lat="38.422214" lon="-1.328393">
        <ele>739.370857</ele>
        <time>2021-10-29T14:27:35.000Z</time>
      </trkpt>
      <trkpt lat="38.422162" lon="-1.328399">
        <ele>739.298964</ele>
        <time>2021-10-29T14:27:36.000Z</time>
      </trkpt>
      <trkpt lat="38.421898" lon="-1.328375">
        <ele>738.934531</ele>
        <time>2021-10-29T14:27:41.000Z</time>
      </trkpt>
      <trkpt lat="38.421844" lon="-1.328362">
        <ele>738.858865</ele>
        <time>2021-10-29T14:27:42.000Z</time>
      </trkpt>
      <trkpt lat="38.421427" lon="-1.328288">
        <ele>738.279159</ele>
        <time>2021-10-29T14:27:49.000Z</time>
      </trkpt>
      <trkpt lat="38.421366" lon="-1.328291">
        <ele>738.195103</ele>
        <time>2021-10-29T14:27:50.000Z</time>
      </trkpt>
      <trkpt lat="38.421247" lon="-1.328324">
        <ele>738.027424</ele>
        <time>2021-10-29T14:27:52.000Z</time>
      </trkpt>
      <trkpt lat="38.421192" lon="-1.328358">
        <ele>737.943278</ele>
        <time>2021-10-29T14:27:53.000Z</time>
      </trkpt>
      <trkpt lat="38.420956" lon="-1.328572">
        <ele>737.544663</ele>
        <time>2021-10-29T14:27:58.000Z</time>
      </trkpt>
      <trkpt lat="38.420862" lon="-1.328651">
        <ele>737.389693</ele>
        <time>2021-10-29T14:28:00.000Z</time>
      </trkpt>
      <trkpt lat="38.420523" lon="-1.328840">
        <ele>736.093775</ele>
        <time>2021-10-29T14:28:06.000Z</time>
      </trkpt>
      <trkpt lat="38.420395" lon="-1.328906">
        <ele>735.481891</ele>
        <time>2021-10-29T14:28:08.000Z</time>
      </trkpt>
      <trkpt lat="38.420201" lon="-1.329015">
        <ele>734.542393</ele>
        <time>2021-10-29T14:28:11.000Z</time>
      </trkpt>
      <trkpt lat="38.420137" lon="-1.329054">
        <ele>734.228052</ele>
        <time>2021-10-29T14:28:12.000Z</time>
      </trkpt>
      <trkpt lat="38.420008" lon="-1.329118">
        <ele>733.614606</ele>
        <time>2021-10-29T14:28:14.000Z</time>
      </trkpt>
      <trkpt lat="38.419941" lon="-1.329129">
        <ele>733.315193</ele>
        <time>2021-10-29T14:28:15.000Z</time>
      </trkpt>
      <trkpt lat="38.419870" lon="-1.329123">
        <ele>732.999808</ele>
        <time>2021-10-29T14:28:16.000Z</time>
      </trkpt>
      <trkpt lat="38.419488" lon="-1.329044">
        <ele>731.284575</ele>
        <time>2021-10-29T14:28:21.000Z</time>
      </trkpt>
      <trkpt lat="38.419408" lon="-1.329026">
        <ele>730.924521</ele>
        <time>2021-10-29T14:28:22.000Z</time>
      </trkpt>
      <trkpt lat="38.419329" lon="-1.329008">
        <ele>730.568831</ele>
        <time>2021-10-29T14:28:23.000Z</time>
      </trkpt>
      <trkpt lat="38.419172" lon="-1.328956">
        <ele>729.849906</ele>
        <time>2021-10-29T14:28:25.000Z</time>
      </trkpt>
      <trkpt lat="38.418846" lon="-1.328846">
        <ele>728.070447</ele>
        <time>2021-10-29T14:28:29.000Z</time>
      </trkpt>
      <trkpt lat="38.418682" lon="-1.328867">
        <ele>727.110507</ele>
        <time>2021-10-29T14:28:31.000Z</time>
      </trkpt>
      <trkpt lat="38.418607" lon="-1.328895">
        <ele>726.655400</ele>
        <time>2021-10-29T14:28:32.000Z</time>
      </trkpt>
      <trkpt lat="38.418531" lon="-1.328915">
        <ele>726.203461</ele>
        <time>2021-10-29T14:28:33.000Z</time>
      </trkpt>
      <trkpt lat="38.418376" lon="-1.328908">
        <ele>725.300168</ele>
        <time>2021-10-29T14:28:35.000Z</time>
      </trkpt>
      <trkpt lat="38.418293" lon="-1.328899">
        <ele>724.815029</ele>
        <time>2021-10-29T14:28:36.000Z</time>
      </trkpt>
      <trkpt lat="38.418122" lon="-1.328930">
        <ele>723.809120</ele>
        <time>2021-10-29T14:28:38.000Z</time>
      </trkpt>
      <trkpt lat="38.418036" lon="-1.328968">
        <ele>723.279085</ele>
        <time>2021-10-29T14:28:39.000Z</time>
      </trkpt>
      <trkpt lat="38.417948" lon="-1.329007">
        <ele>722.736550</ele>
        <time>2021-10-29T14:28:40.000Z</time>
      </trkpt>
      <trkpt lat="38.417861" lon="-1.329048">
        <ele>722.196421</ele>
        <time>2021-10-29T14:28:41.000Z</time>
      </trkpt>
      <trkpt lat="38.417775" lon="-1.329076">
        <ele>721.679512</ele>
        <time>2021-10-29T14:28:42.000Z</time>
      </trkpt>
      <trkpt lat="38.417625" lon="-1.329069">
        <ele>720.805320</ele>
        <time>2021-10-29T14:28:44.000Z</time>
      </trkpt>
      <trkpt lat="38.417565" lon="-1.329028">
        <ele>720.408945</ele>
        <time>2021-10-29T14:28:45.000Z</time>
      </trkpt>
      <trkpt lat="38.417518" lon="-1.328969">
        <ele>720.025003</ele>
        <time>2021-10-29T14:28:46.000Z</time>
      </trkpt>
      <trkpt lat="38.417466" lon="-1.328811">
        <ele>719.242998</ele>
        <time>2021-10-29T14:28:48.000Z</time>
      </trkpt>
      <trkpt lat="38.417454" lon="-1.328723">
        <ele>718.835402</ele>
        <time>2021-10-29T14:28:49.000Z</time>
      </trkpt>
      <trkpt lat="38.417432" lon="-1.328640">
        <ele>718.432896</ele>
        <time>2021-10-29T14:28:50.000Z</time>
      </trkpt>
      <trkpt lat="38.417385" lon="-1.328573">
        <ele>718.019405</ele>
        <time>2021-10-29T14:28:51.000Z</time>
      </trkpt>
      <trkpt lat="38.417318" lon="-1.328533">
        <ele>717.585334</ele>
        <time>2021-10-29T14:28:52.000Z</time>
      </trkpt>
      <trkpt lat="38.417240" lon="-1.328525">
        <ele>717.126124</ele>
        <time>2021-10-29T14:28:53.000Z</time>
      </trkpt>
      <trkpt lat="38.417159" lon="-1.328541">
        <ele>716.645126</ele>
        <time>2021-10-29T14:28:54.000Z</time>
      </trkpt>
      <trkpt lat="38.417077" lon="-1.328571">
        <ele>716.144538</ele>
        <time>2021-10-29T14:28:55.000Z</time>
      </trkpt>
      <trkpt lat="38.416994" lon="-1.328610">
        <ele>715.625502</ele>
        <time>2021-10-29T14:28:56.000Z</time>
      </trkpt>
      <trkpt lat="38.416909" lon="-1.328652">
        <ele>715.090611</ele>
        <time>2021-10-29T14:28:57.000Z</time>
      </trkpt>
      <trkpt lat="38.416736" lon="-1.328722">
        <ele>714.025583</ele>
        <time>2021-10-29T14:28:59.000Z</time>
      </trkpt>
      <trkpt lat="38.416560" lon="-1.328750">
        <ele>712.984753</ele>
        <time>2021-10-29T14:29:01.000Z</time>
      </trkpt>
      <trkpt lat="38.416470" lon="-1.328749">
        <ele>712.456578</ele>
        <time>2021-10-29T14:29:02.000Z</time>
      </trkpt>
      <trkpt lat="38.416381" lon="-1.328736">
        <ele>711.930882</ele>
        <time>2021-10-29T14:29:03.000Z</time>
      </trkpt>
      <trkpt lat="38.416291" lon="-1.328713">
        <ele>711.392243</ele>
        <time>2021-10-29T14:29:04.000Z</time>
      </trkpt>
      <trkpt lat="38.416206" lon="-1.328682">
        <ele>710.873464</ele>
        <time>2021-10-29T14:29:05.000Z</time>
      </trkpt>
      <trkpt lat="38.416041" lon="-1.328614">
        <ele>709.855951</ele>
        <time>2021-10-29T14:29:07.000Z</time>
      </trkpt>
      <trkpt lat="38.415955" lon="-1.328592">
        <ele>709.341232</ele>
        <time>2021-10-29T14:29:08.000Z</time>
      </trkpt>
      <trkpt lat="38.415791" lon="-1.328612">
        <ele>708.374432</ele>
        <time>2021-10-29T14:29:10.000Z</time>
      </trkpt>
      <trkpt lat="38.415682" lon="-1.328762">
        <ele>707.435772</ele>
        <time>2021-10-29T14:29:12.000Z</time>
      </trkpt>
      <trkpt lat="38.415580" lon="-1.329055">
        <ele>705.965261</ele>
        <time>2021-10-29T14:29:15.000Z</time>
      </trkpt>
      <trkpt lat="38.415536" lon="-1.329138">
        <ele>705.505637</ele>
        <time>2021-10-29T14:29:16.000Z</time>
      </trkpt>
      <trkpt lat="38.415483" lon="-1.329205">
        <ele>705.068966</ele>
        <time>2021-10-29T14:29:17.000Z</time>
      </trkpt>
      <trkpt lat="38.415353" lon="-1.329305">
        <ele>704.180459</ele>
        <time>2021-10-29T14:29:19.000Z</time>
      </trkpt>
      <trkpt lat="38.415282" lon="-1.329347">
        <ele>703.722377</ele>
        <time>2021-10-29T14:29:20.000Z</time>
      </trkpt>
      <trkpt lat="38.415210" lon="-1.329381">
        <ele>703.272990</ele>
        <time>2021-10-29T14:29:21.000Z</time>
      </trkpt>
      <trkpt lat="38.415145" lon="-1.329413">
        <ele>702.865176</ele>
        <time>2021-10-29T14:29:22.000Z</time>
      </trkpt>
      <trkpt lat="38.415091" lon="-1.329454">
        <ele>702.497372</ele>
        <time>2021-10-29T14:29:23.000Z</time>
      </trkpt>
      <trkpt lat="38.415040" lon="-1.329594">
        <ele>701.789252</ele>
        <time>2021-10-29T14:29:25.000Z</time>
      </trkpt>
      <trkpt lat="38.415093" lon="-1.329749">
        <ele>701.013594</ele>
        <time>2021-10-29T14:29:27.000Z</time>
      </trkpt>
      <trkpt lat="38.415154" lon="-1.329794">
        <ele>700.601163</ele>
        <time>2021-10-29T14:29:28.000Z</time>
      </trkpt>
      <trkpt lat="38.415225" lon="-1.329814">
        <ele>700.175550</ele>
        <time>2021-10-29T14:29:29.000Z</time>
      </trkpt>
      <trkpt lat="38.415303" lon="-1.329809">
        <ele>699.718389</ele>
        <time>2021-10-29T14:29:30.000Z</time>
      </trkpt>
      <trkpt lat="38.415383" lon="-1.329777">
        <ele>699.227635</ele>
        <time>2021-10-29T14:29:31.000Z</time>
      </trkpt>
      <trkpt lat="38.415456" lon="-1.329721">
        <ele>698.729068</ele>
        <time>2021-10-29T14:29:32.000Z</time>
      </trkpt>
      <trkpt lat="38.415524" lon="-1.329651">
        <ele>698.217679</ele>
        <time>2021-10-29T14:29:33.000Z</time>
      </trkpt>
      <trkpt lat="38.415650" lon="-1.329486">
        <ele>696.951927</ele>
        <time>2021-10-29T14:29:35.000Z</time>
      </trkpt>
      <trkpt lat="38.415706" lon="-1.329394">
        <ele>696.211728</ele>
        <time>2021-10-29T14:29:36.000Z</time>
      </trkpt>
      <trkpt lat="38.415758" lon="-1.329310">
        <ele>695.531545</ele>
        <time>2021-10-29T14:29:37.000Z</time>
      </trkpt>
      <trkpt lat="38.415810" lon="-1.329240">
        <ele>694.918672</ele>
        <time>2021-10-29T14:29:38.000Z</time>
      </trkpt>
      <trkpt lat="38.415860" lon="-1.329183">
        <ele>694.375027</ele>
        <time>2021-10-29T14:29:39.000Z</time>
      </trkpt>
      <trkpt lat="38.415910" lon="-1.329141">
        <ele>693.889638</ele>
        <time>2021-10-29T14:29:40.000Z</time>
      </trkpt>
      <trkpt lat="38.416025" lon="-1.329146">
        <ele>692.956554</ele>
        <time>2021-10-29T14:29:42.000Z</time>
      </trkpt>
      <trkpt lat="38.416080" lon="-1.329183">
        <ele>692.452392</ele>
        <time>2021-10-29T14:29:43.000Z</time>
      </trkpt>
      <trkpt lat="38.416125" lon="-1.329231">
        <ele>691.976823</ele>
        <time>2021-10-29T14:29:44.000Z</time>
      </trkpt>
      <trkpt lat="38.416152" lon="-1.329284">
        <ele>691.575162</ele>
        <time>2021-10-29T14:29:45.000Z</time>
      </trkpt>
      <trkpt lat="38.416160" lon="-1.329346">
        <ele>691.175933</ele>
        <time>2021-10-29T14:29:46.000Z</time>
      </trkpt>
      <trkpt lat="38.416112" lon="-1.329486">
        <ele>690.204994</ele>
        <time>2021-10-29T14:29:48.000Z</time>
      </trkpt>
      <trkpt lat="38.416054" lon="-1.329555">
        <ele>689.562032</ele>
        <time>2021-10-29T14:29:49.000Z</time>
      </trkpt>
      <trkpt lat="38.415984" lon="-1.329613">
        <ele>688.885269</ele>
        <time>2021-10-29T14:29:50.000Z</time>
      </trkpt>
      <trkpt lat="38.415909" lon="-1.329670">
        <ele>688.177427</ele>
        <time>2021-10-29T14:29:51.000Z</time>
      </trkpt>
      <trkpt lat="38.415837" lon="-1.329738">
        <ele>687.451102</ele>
        <time>2021-10-29T14:29:52.000Z</time>
      </trkpt>
      <trkpt lat="38.415771" lon="-1.329819">
        <ele>686.708608</ele>
        <time>2021-10-29T14:29:53.000Z</time>
      </trkpt>
      <trkpt lat="38.415712" lon="-1.329908">
        <ele>685.967892</ele>
        <time>2021-10-29T14:29:54.000Z</time>
      </trkpt>
      <trkpt lat="38.415661" lon="-1.330003">
        <ele>685.236208</ele>
        <time>2021-10-29T14:29:55.000Z</time>
      </trkpt>
      <trkpt lat="38.415563" lon="-1.330189">
        <ele>683.812083</ele>
        <time>2021-10-29T14:29:57.000Z</time>
      </trkpt>
      <trkpt lat="38.415506" lon="-1.330272">
        <ele>683.112991</ele>
        <time>2021-10-29T14:29:58.000Z</time>
      </trkpt>
      <trkpt lat="38.415439" lon="-1.330338">
        <ele>682.630464</ele>
        <time>2021-10-29T14:29:59.000Z</time>
      </trkpt>
      <trkpt lat="38.415363" lon="-1.330382">
        <ele>682.154676</ele>
        <time>2021-10-29T14:30:00.000Z</time>
      </trkpt>
      <trkpt lat="38.415203" lon="-1.330418">
        <ele>681.228413</ele>
        <time>2021-10-29T14:30:02.000Z</time>
      </trkpt>
      <trkpt lat="38.415123" lon="-1.330422">
        <ele>680.771966</ele>
        <time>2021-10-29T14:30:03.000Z</time>
      </trkpt>
      <trkpt lat="38.414966" lon="-1.330414">
        <ele>679.876161</ele>
        <time>2021-10-29T14:30:05.000Z</time>
      </trkpt>
      <trkpt lat="38.414828" lon="-1.330384">
        <ele>679.078061</ele>
        <time>2021-10-29T14:30:07.000Z</time>
      </trkpt>
      <trkpt lat="38.414709" lon="-1.330304">
        <ele>678.311249</ele>
        <time>2021-10-29T14:30:09.000Z</time>
      </trkpt>
      <trkpt lat="38.414656" lon="-1.330247">
        <ele>677.916107</ele>
        <time>2021-10-29T14:30:10.000Z</time>
      </trkpt>
      <trkpt lat="38.414610" lon="-1.330178">
        <ele>677.511405</ele>
        <time>2021-10-29T14:30:11.000Z</time>
      </trkpt>
      <trkpt lat="38.414571" lon="-1.330100">
        <ele>677.098071</ele>
        <time>2021-10-29T14:30:12.000Z</time>
      </trkpt>
      <trkpt lat="38.414480" lon="-1.329944">
        <ele>676.229283</ele>
        <time>2021-10-29T14:30:14.000Z</time>
      </trkpt>
      <trkpt lat="38.414422" lon="-1.329879">
        <ele>675.789222</ele>
        <time>2021-10-29T14:30:15.000Z</time>
      </trkpt>
      <trkpt lat="38.414356" lon="-1.329823">
        <ele>675.337374</ele>
        <time>2021-10-29T14:30:16.000Z</time>
      </trkpt>
      <trkpt lat="38.414282" lon="-1.329773">
        <ele>674.860007</ele>
        <time>2021-10-29T14:30:17.000Z</time>
      </trkpt>
      <trkpt lat="38.414205" lon="-1.329728">
        <ele>674.377177</ele>
        <time>2021-10-29T14:30:18.000Z</time>
      </trkpt>
      <trkpt lat="38.414124" lon="-1.329686">
        <ele>673.878720</ele>
        <time>2021-10-29T14:30:19.000Z</time>
      </trkpt>
      <trkpt lat="38.414037" lon="-1.329651">
        <ele>673.358655</ele>
        <time>2021-10-29T14:30:20.000Z</time>
      </trkpt>
      <trkpt lat="38.413860" lon="-1.329603">
        <ele>672.289879</ele>
        <time>2021-10-29T14:30:22.000Z</time>
      </trkpt>
      <trkpt lat="38.413533" lon="-1.329543">
        <ele>670.276089</ele>
        <time>2021-10-29T14:30:26.000Z</time>
      </trkpt>
      <trkpt lat="38.413463" lon="-1.329508">
        <ele>669.817812</ele>
        <time>2021-10-29T14:30:27.000Z</time>
      </trkpt>
      <trkpt lat="38.413396" lon="-1.329461">
        <ele>669.351771</ele>
        <time>2021-10-29T14:30:28.000Z</time>
      </trkpt>
      <trkpt lat="38.413181" lon="-1.329310">
        <ele>667.855854</ele>
        <time>2021-10-29T14:30:31.000Z</time>
      </trkpt>
      <trkpt lat="38.413111" lon="-1.329260">
        <ele>667.366871</ele>
        <time>2021-10-29T14:30:32.000Z</time>
      </trkpt>
      <trkpt lat="38.413047" lon="-1.329204">
        <ele>666.893860</ele>
        <time>2021-10-29T14:30:33.000Z</time>
      </trkpt>
      <trkpt lat="38.412990" lon="-1.329140">
        <ele>666.431078</ele>
        <time>2021-10-29T14:30:34.000Z</time>
      </trkpt>
      <trkpt lat="38.412936" lon="-1.329068">
        <ele>665.955037</ele>
        <time>2021-10-29T14:30:35.000Z</time>
      </trkpt>
      <trkpt lat="38.412878" lon="-1.328996">
        <ele>665.461822</ele>
        <time>2021-10-29T14:30:36.000Z</time>
      </trkpt>
      <trkpt lat="38.412813" lon="-1.328930">
        <ele>664.955497</ele>
        <time>2021-10-29T14:30:37.000Z</time>
      </trkpt>
      <trkpt lat="38.412738" lon="-1.328879">
        <ele>664.437473</ele>
        <time>2021-10-29T14:30:38.000Z</time>
      </trkpt>
      <trkpt lat="38.412654" lon="-1.328843">
        <ele>663.897334</ele>
        <time>2021-10-29T14:30:39.000Z</time>
      </trkpt>
      <trkpt lat="38.412567" lon="-1.328814">
        <ele>663.349217</ele>
        <time>2021-10-29T14:30:40.000Z</time>
      </trkpt>
      <trkpt lat="38.412393" lon="-1.328756">
        <ele>662.252984</ele>
        <time>2021-10-29T14:30:42.000Z</time>
      </trkpt>
      <trkpt lat="38.412215" lon="-1.328710">
        <ele>660.667988</ele>
        <time>2021-10-29T14:30:44.000Z</time>
      </trkpt>
      <trkpt lat="38.412118" lon="-1.328698">
        <ele>659.697232</ele>
        <time>2021-10-29T14:30:45.000Z</time>
      </trkpt>
      <trkpt lat="38.412018" lon="-1.328695">
        <ele>658.700846</ele>
        <time>2021-10-29T14:30:46.000Z</time>
      </trkpt>
      <trkpt lat="38.411823" lon="-1.328705">
        <ele>656.756863</ele>
        <time>2021-10-29T14:30:48.000Z</time>
      </trkpt>
      <trkpt lat="38.411728" lon="-1.328722">
        <ele>655.801301</ele>
        <time>2021-10-29T14:30:49.000Z</time>
      </trkpt>
      <trkpt lat="38.411630" lon="-1.328745">
        <ele>654.808744</ele>
        <time>2021-10-29T14:30:50.000Z</time>
      </trkpt>
      <trkpt lat="38.411527" lon="-1.328763">
        <ele>653.773176</ele>
        <time>2021-10-29T14:30:51.000Z</time>
      </trkpt>
      <trkpt lat="38.411420" lon="-1.328771">
        <ele>652.705510</ele>
        <time>2021-10-29T14:30:52.000Z</time>
      </trkpt>
      <trkpt lat="38.411310" lon="-1.328778">
        <ele>651.608427</ele>
        <time>2021-10-29T14:30:53.000Z</time>
      </trkpt>
      <trkpt lat="38.411198" lon="-1.328799">
        <ele>650.480807</ele>
        <time>2021-10-29T14:30:54.000Z</time>
      </trkpt>
      <trkpt lat="38.411087" lon="-1.328831">
        <ele>649.347265</ele>
        <time>2021-10-29T14:30:55.000Z</time>
      </trkpt>
      <trkpt lat="38.410980" lon="-1.328868">
        <ele>648.242995</ele>
        <time>2021-10-29T14:30:56.000Z</time>
      </trkpt>
      <trkpt lat="38.410803" lon="-1.328936">
        <ele>646.401723</ele>
        <time>2021-10-29T14:30:58.000Z</time>
      </trkpt>
      <trkpt lat="38.410725" lon="-1.328950">
        <ele>645.617110</ele>
        <time>2021-10-29T14:30:59.000Z</time>
      </trkpt>
      <trkpt lat="38.410408" lon="-1.328874">
        <ele>642.825424</ele>
        <time>2021-10-29T14:31:03.000Z</time>
      </trkpt>
      <trkpt lat="38.410228" lon="-1.328806">
        <ele>641.454354</ele>
        <time>2021-10-29T14:31:05.000Z</time>
      </trkpt>
      <trkpt lat="38.410027" lon="-1.328752">
        <ele>639.954119</ele>
        <time>2021-10-29T14:31:07.000Z</time>
      </trkpt>
      <trkpt lat="38.409924" lon="-1.328724">
        <ele>639.184952</ele>
        <time>2021-10-29T14:31:08.000Z</time>
      </trkpt>
      <trkpt lat="38.409826" lon="-1.328691">
        <ele>638.444685</ele>
        <time>2021-10-29T14:31:09.000Z</time>
      </trkpt>
      <trkpt lat="38.409631" lon="-1.328616">
        <ele>636.957174</ele>
        <time>2021-10-29T14:31:11.000Z</time>
      </trkpt>
      <trkpt lat="38.409429" lon="-1.328542">
        <ele>635.422229</ele>
        <time>2021-10-29T14:31:13.000Z</time>
      </trkpt>
      <trkpt lat="38.409231" lon="-1.328459">
        <ele>633.900064</ele>
        <time>2021-10-29T14:31:15.000Z</time>
      </trkpt>
      <trkpt lat="38.408960" lon="-1.328290">
        <ele>631.697059</ele>
        <time>2021-10-29T14:31:18.000Z</time>
      </trkpt>
      <trkpt lat="38.408878" lon="-1.328220">
        <ele>630.976509</ele>
        <time>2021-10-29T14:31:19.000Z</time>
      </trkpt>
      <trkpt lat="38.408720" lon="-1.328069">
        <ele>630.301445</ele>
        <time>2021-10-29T14:31:21.000Z</time>
      </trkpt>
      <trkpt lat="38.408578" lon="-1.327897">
        <ele>629.707406</ele>
        <time>2021-10-29T14:31:23.000Z</time>
      </trkpt>
      <trkpt lat="38.408453" lon="-1.327712">
        <ele>629.126605</ele>
        <time>2021-10-29T14:31:25.000Z</time>
      </trkpt>
      <trkpt lat="38.408403" lon="-1.327613">
        <ele>628.846564</ele>
        <time>2021-10-29T14:31:26.000Z</time>
      </trkpt>
      <trkpt lat="38.408354" lon="-1.327516">
        <ele>628.572164</ele>
        <time>2021-10-29T14:31:27.000Z</time>
      </trkpt>
      <trkpt lat="38.408171" lon="-1.327149">
        <ele>627.537884</ele>
        <time>2021-10-29T14:31:31.000Z</time>
      </trkpt>
      <trkpt lat="38.408129" lon="-1.327061">
        <ele>627.292897</ele>
        <time>2021-10-29T14:31:32.000Z</time>
      </trkpt>
      <trkpt lat="38.408087" lon="-1.326974">
        <ele>627.049938</ele>
        <time>2021-10-29T14:31:33.000Z</time>
      </trkpt>
      <trkpt lat="38.407858" lon="-1.326458">
        <ele>625.639973</ele>
        <time>2021-10-29T14:31:39.000Z</time>
      </trkpt>
      <trkpt lat="38.407789" lon="-1.326274">
        <ele>625.119622</ele>
        <time>2021-10-29T14:31:41.000Z</time>
      </trkpt>
      <trkpt lat="38.407721" lon="-1.326086">
        <ele>624.552872</ele>
        <time>2021-10-29T14:31:43.000Z</time>
      </trkpt>
      <trkpt lat="38.407657" lon="-1.325886">
        <ele>623.961563</ele>
        <time>2021-10-29T14:31:45.000Z</time>
      </trkpt>
      <trkpt lat="38.407622" lon="-1.325783">
        <ele>623.654275</ele>
        <time>2021-10-29T14:31:46.000Z</time>
      </trkpt>
      <trkpt lat="38.407586" lon="-1.325679">
        <ele>623.343078</ele>
        <time>2021-10-29T14:31:47.000Z</time>
      </trkpt>
      <trkpt lat="38.407512" lon="-1.325468">
        <ele>622.710342</ele>
        <time>2021-10-29T14:31:49.000Z</time>
      </trkpt>
      <trkpt lat="38.407400" lon="-1.325161">
        <ele>621.783441</ele>
        <time>2021-10-29T14:31:52.000Z</time>
      </trkpt>
      <trkpt lat="38.407370" lon="-1.325058">
        <ele>621.482673</ele>
        <time>2021-10-29T14:31:53.000Z</time>
      </trkpt>
      <trkpt lat="38.407347" lon="-1.324955">
        <ele>621.189526</ele>
        <time>2021-10-29T14:31:54.000Z</time>
      </trkpt>
      <trkpt lat="38.407271" lon="-1.324332">
        <ele>619.463755</ele>
        <time>2021-10-29T14:32:00.000Z</time>
      </trkpt>
      <trkpt lat="38.407241" lon="-1.323779">
        <ele>618.579786</ele>
        <time>2021-10-29T14:32:06.000Z</time>
      </trkpt>
      <trkpt lat="38.407212" lon="-1.323213">
        <ele>617.875055</ele>
        <time>2021-10-29T14:32:13.000Z</time>
      </trkpt>
      <trkpt lat="38.407196" lon="-1.322678">
        <ele>617.209858</ele>
        <time>2021-10-29T14:32:19.000Z</time>
      </trkpt>
      <trkpt lat="38.407229" lon="-1.322286">
        <ele>616.720014</ele>
        <time>2021-10-29T14:32:23.000Z</time>
      </trkpt>
      <trkpt lat="38.407255" lon="-1.322081">
        <ele>616.461996</ele>
        <time>2021-10-29T14:32:25.000Z</time>
      </trkpt>
      <trkpt lat="38.407270" lon="-1.321980">
        <ele>616.334274</ele>
        <time>2021-10-29T14:32:26.000Z</time>
      </trkpt>
      <trkpt lat="38.407283" lon="-1.321880">
        <ele>616.189484</ele>
        <time>2021-10-29T14:32:27.000Z</time>
      </trkpt>
      <trkpt lat="38.407281" lon="-1.321677">
        <ele>615.834016</ele>
        <time>2021-10-29T14:32:29.000Z</time>
      </trkpt>
      <trkpt lat="38.407264" lon="-1.321580">
        <ele>615.659979</ele>
        <time>2021-10-29T14:32:30.000Z</time>
      </trkpt>
      <trkpt lat="38.407235" lon="-1.321489">
        <ele>615.487971</ele>
        <time>2021-10-29T14:32:31.000Z</time>
      </trkpt>
      <trkpt lat="38.407151" lon="-1.321338">
        <ele>615.163732</ele>
        <time>2021-10-29T14:32:33.000Z</time>
      </trkpt>
      <trkpt lat="38.406891" lon="-1.321029">
        <ele>614.369860</ele>
        <time>2021-10-29T14:32:38.000Z</time>
      </trkpt>
      <trkpt lat="38.406542" lon="-1.320547">
        <ele>613.220783</ele>
        <time>2021-10-29T14:32:45.000Z</time>
      </trkpt>
      <trkpt lat="38.406490" lon="-1.320474">
        <ele>613.048046</ele>
        <time>2021-10-29T14:32:46.000Z</time>
      </trkpt>
      <trkpt lat="38.406385" lon="-1.320327">
        <ele>612.699772</ele>
        <time>2021-10-29T14:32:48.000Z</time>
      </trkpt>
      <trkpt lat="38.406282" lon="-1.320178">
        <ele>612.351875</ele>
        <time>2021-10-29T14:32:50.000Z</time>
      </trkpt>
      <trkpt lat="38.406183" lon="-1.320031">
        <ele>612.219670</ele>
        <time>2021-10-29T14:32:52.000Z</time>
      </trkpt>
      <trkpt lat="38.406091" lon="-1.319887">
        <ele>612.196669</ele>
        <time>2021-10-29T14:32:54.000Z</time>
      </trkpt>
      <trkpt lat="38.406048" lon="-1.319814">
        <ele>612.185362</ele>
        <time>2021-10-29T14:32:55.000Z</time>
      </trkpt>
      <trkpt lat="38.405965" lon="-1.319664">
        <ele>612.162629</ele>
        <time>2021-10-29T14:32:57.000Z</time>
      </trkpt>
      <trkpt lat="38.405773" lon="-1.319384">
        <ele>612.116567</ele>
        <time>2021-10-29T14:33:01.000Z</time>
      </trkpt>
      <trkpt lat="38.405465" lon="-1.319051">
        <ele>612.052791</ele>
        <time>2021-10-29T14:33:07.000Z</time>
      </trkpt>
      <trkpt lat="38.405205" lon="-1.318718">
        <ele>611.994595</ele>
        <time>2021-10-29T14:33:13.000Z</time>
      </trkpt>
      <trkpt lat="38.404932" lon="-1.318270">
        <ele>612.250861</ele>
        <time>2021-10-29T14:33:20.000Z</time>
      </trkpt>
      <trkpt lat="38.404894" lon="-1.318196">
        <ele>612.372668</ele>
        <time>2021-10-29T14:33:21.000Z</time>
      </trkpt>
      <trkpt lat="38.404703" lon="-1.317799">
        <ele>613.014041</ele>
        <time>2021-10-29T14:33:26.000Z</time>
      </trkpt>
      <trkpt lat="38.404630" lon="-1.317640">
        <ele>613.267753</ele>
        <time>2021-10-29T14:33:28.000Z</time>
      </trkpt>
      <trkpt lat="38.404598" lon="-1.317563">
        <ele>613.387751</ele>
        <time>2021-10-29T14:33:29.000Z</time>
      </trkpt>
      <trkpt lat="38.404449" lon="-1.317220">
        <ele>613.927692</ele>
        <time>2021-10-29T14:33:34.000Z</time>
      </trkpt>
      <trkpt lat="38.404394" lon="-1.317098">
        <ele>614.121472</ele>
        <time>2021-10-29T14:33:36.000Z</time>
      </trkpt>
      <trkpt lat="38.404367" lon="-1.317041">
        <ele>614.213171</ele>
        <time>2021-10-29T14:33:37.000Z</time>
      </trkpt>
      <trkpt lat="38.404216" lon="-1.316800">
        <ele>614.637995</ele>
        <time>2021-10-29T14:33:42.000Z</time>
      </trkpt>
      <trkpt lat="38.404109" lon="-1.316678">
        <ele>614.890093</ele>
        <time>2021-10-29T14:33:45.000Z</time>
      </trkpt>
      <trkpt lat="38.403977" lon="-1.316570">
        <ele>615.070459</ele>
        <time>2021-10-29T14:33:48.000Z</time>
      </trkpt>
      <trkpt lat="38.403929" lon="-1.316539">
        <ele>614.999298</ele>
        <time>2021-10-29T14:33:49.000Z</time>
      </trkpt>
      <trkpt lat="38.403611" lon="-1.316392">
        <ele>614.551912</ele>
        <time>2021-10-29T14:33:55.000Z</time>
      </trkpt>
      <trkpt lat="38.403384" lon="-1.316320">
        <ele>614.242509</ele>
        <time>2021-10-29T14:33:59.000Z</time>
      </trkpt>
      <trkpt lat="38.403151" lon="-1.316259">
        <ele>613.927887</ele>
        <time>2021-10-29T14:34:03.000Z</time>
      </trkpt>
      <trkpt lat="38.402971" lon="-1.316206">
        <ele>613.683534</ele>
        <time>2021-10-29T14:34:06.000Z</time>
      </trkpt>
      <trkpt lat="38.402672" lon="-1.316124">
        <ele>613.278999</ele>
        <time>2021-10-29T14:34:11.000Z</time>
      </trkpt>
      <trkpt lat="38.402496" lon="-1.316061">
        <ele>613.037207</ele>
        <time>2021-10-29T14:34:14.000Z</time>
      </trkpt>
      <trkpt lat="38.402318" lon="-1.315976">
        <ele>612.785810</ele>
        <time>2021-10-29T14:34:17.000Z</time>
      </trkpt>
      <trkpt lat="38.402254" lon="-1.315946">
        <ele>612.577464</ele>
        <time>2021-10-29T14:34:18.000Z</time>
      </trkpt>
      <trkpt lat="38.402112" lon="-1.315910">
        <ele>611.766418</ele>
        <time>2021-10-29T14:34:20.000Z</time>
      </trkpt>
      <trkpt lat="38.402034" lon="-1.315904">
        <ele>611.328661</ele>
        <time>2021-10-29T14:34:21.000Z</time>
      </trkpt>
      <trkpt lat="38.401956" lon="-1.315909">
        <ele>610.891146</ele>
        <time>2021-10-29T14:34:22.000Z</time>
      </trkpt>
      <trkpt lat="38.401877" lon="-1.315923">
        <ele>610.444333</ele>
        <time>2021-10-29T14:34:23.000Z</time>
      </trkpt>
      <trkpt lat="38.401720" lon="-1.315973">
        <ele>609.537825</ele>
        <time>2021-10-29T14:34:25.000Z</time>
      </trkpt>
      <trkpt lat="38.401570" lon="-1.316041">
        <ele>608.646056</ele>
        <time>2021-10-29T14:34:27.000Z</time>
      </trkpt>
      <trkpt lat="38.401349" lon="-1.316145">
        <ele>607.326484</ele>
        <time>2021-10-29T14:34:30.000Z</time>
      </trkpt>
      <trkpt lat="38.401204" lon="-1.316196">
        <ele>606.483886</ele>
        <time>2021-10-29T14:34:32.000Z</time>
      </trkpt>
      <trkpt lat="38.401131" lon="-1.316215">
        <ele>606.066513</ele>
        <time>2021-10-29T14:34:33.000Z</time>
      </trkpt>
      <trkpt lat="38.400740" lon="-1.316306">
        <ele>603.839957</ele>
        <time>2021-10-29T14:34:38.000Z</time>
      </trkpt>
      <trkpt lat="38.400658" lon="-1.316324">
        <ele>603.373837</ele>
        <time>2021-10-29T14:34:39.000Z</time>
      </trkpt>
      <trkpt lat="38.400575" lon="-1.316343">
        <ele>602.901440</ele>
        <time>2021-10-29T14:34:40.000Z</time>
      </trkpt>
      <trkpt lat="38.400412" lon="-1.316379">
        <ele>602.272635</ele>
        <time>2021-10-29T14:34:42.000Z</time>
      </trkpt>
      <trkpt lat="38.400171" lon="-1.316398">
        <ele>601.511488</ele>
        <time>2021-10-29T14:34:45.000Z</time>
      </trkpt>
      <trkpt lat="38.400012" lon="-1.316388">
        <ele>601.009669</ele>
        <time>2021-10-29T14:34:47.000Z</time>
      </trkpt>
      <trkpt lat="38.399931" lon="-1.316382">
        <ele>600.753905</ele>
        <time>2021-10-29T14:34:48.000Z</time>
      </trkpt>
      <trkpt lat="38.399848" lon="-1.316374">
        <ele>600.491521</ele>
        <time>2021-10-29T14:34:49.000Z</time>
      </trkpt>
      <trkpt lat="38.399767" lon="-1.316366">
        <ele>600.235423</ele>
        <time>2021-10-29T14:34:50.000Z</time>
      </trkpt>
      <trkpt lat="38.399686" lon="-1.316357">
        <ele>599.979122</ele>
        <time>2021-10-29T14:34:51.000Z</time>
      </trkpt>
      <trkpt lat="38.399607" lon="-1.316347">
        <ele>599.728871</ele>
        <time>2021-10-29T14:34:52.000Z</time>
      </trkpt>
      <trkpt lat="38.399370" lon="-1.316304">
        <ele>598.974267</ele>
        <time>2021-10-29T14:34:55.000Z</time>
      </trkpt>
      <trkpt lat="38.399223" lon="-1.316263">
        <ele>598.499943</ele>
        <time>2021-10-29T14:34:57.000Z</time>
      </trkpt>
      <trkpt lat="38.399160" lon="-1.316229">
        <ele>598.284317</ele>
        <time>2021-10-29T14:34:58.000Z</time>
      </trkpt>
      <trkpt lat="38.399108" lon="-1.316185">
        <ele>598.087632</ele>
        <time>2021-10-29T14:34:59.000Z</time>
      </trkpt>
      <trkpt lat="38.399047" lon="-1.316060">
        <ele>597.723852</ele>
        <time>2021-10-29T14:35:01.000Z</time>
      </trkpt>
      <trkpt lat="38.398999" lon="-1.315908">
        <ele>597.319006</ele>
        <time>2021-10-29T14:35:03.000Z</time>
      </trkpt>
      <trkpt lat="38.398909" lon="-1.315768">
        <ele>596.896638</ele>
        <time>2021-10-29T14:35:05.000Z</time>
      </trkpt>
      <trkpt lat="38.398794" lon="-1.315652">
        <ele>596.535314</ele>
        <time>2021-10-29T14:35:07.000Z</time>
      </trkpt>
      <trkpt lat="38.398668" lon="-1.315568">
        <ele>596.184915</ele>
        <time>2021-10-29T14:35:09.000Z</time>
      </trkpt>
      <trkpt lat="38.398469" lon="-1.315501">
        <ele>595.677632</ele>
        <time>2021-10-29T14:35:12.000Z</time>
      </trkpt>
      <trkpt lat="38.398340" lon="-1.315464">
        <ele>595.351738</ele>
        <time>2021-10-29T14:35:14.000Z</time>
      </trkpt>
      <trkpt lat="38.397942" lon="-1.315325">
        <ele>594.334664</ele>
        <time>2021-10-29T14:35:20.000Z</time>
      </trkpt>
      <trkpt lat="38.397805" lon="-1.315281">
        <ele>593.986454</ele>
        <time>2021-10-29T14:35:22.000Z</time>
      </trkpt>
      <trkpt lat="38.397736" lon="-1.315256">
        <ele>593.809659</ele>
        <time>2021-10-29T14:35:23.000Z</time>
      </trkpt>
      <trkpt lat="38.397532" lon="-1.315159">
        <ele>593.273061</ele>
        <time>2021-10-29T14:35:26.000Z</time>
      </trkpt>
      <trkpt lat="38.397466" lon="-1.315118">
        <ele>593.092128</ele>
        <time>2021-10-29T14:35:27.000Z</time>
      </trkpt>
      <trkpt lat="38.397397" lon="-1.315078">
        <ele>592.905327</ele>
        <time>2021-10-29T14:35:28.000Z</time>
      </trkpt>
      <trkpt lat="38.397253" lon="-1.315001">
        <ele>592.541846</ele>
        <time>2021-10-29T14:35:30.000Z</time>
      </trkpt>
      <trkpt lat="38.397043" lon="-1.314879">
        <ele>592.348384</ele>
        <time>2021-10-29T14:35:33.000Z</time>
      </trkpt>
      <trkpt lat="38.396986" lon="-1.314822">
        <ele>592.287665</ele>
        <time>2021-10-29T14:35:34.000Z</time>
      </trkpt>
      <trkpt lat="38.396940" lon="-1.314755">
        <ele>592.229134</ele>
        <time>2021-10-29T14:35:35.000Z</time>
      </trkpt>
      <trkpt lat="38.396900" lon="-1.314681">
        <ele>592.170065</ele>
        <time>2021-10-29T14:35:36.000Z</time>
      </trkpt>
      <trkpt lat="38.396824" lon="-1.314527">
        <ele>592.050480</ele>
        <time>2021-10-29T14:35:38.000Z</time>
      </trkpt>
      <trkpt lat="38.396529" lon="-1.314001">
        <ele>591.625460</ele>
        <time>2021-10-29T14:35:45.000Z</time>
      </trkpt>
      <trkpt lat="38.396200" lon="-1.313386">
        <ele>591.136170</ele>
        <time>2021-10-29T14:35:54.000Z</time>
      </trkpt>
      <trkpt lat="38.396088" lon="-1.313091">
        <ele>591.272858</ele>
        <time>2021-10-29T14:35:59.000Z</time>
      </trkpt>
      <trkpt lat="38.396071" lon="-1.313028">
        <ele>591.353355</ele>
        <time>2021-10-29T14:36:00.000Z</time>
      </trkpt>
      <trkpt lat="38.396053" lon="-1.312965">
        <ele>591.434366</ele>
        <time>2021-10-29T14:36:01.000Z</time>
      </trkpt>
      <trkpt lat="38.396020" lon="-1.312835">
        <ele>591.599454</ele>
        <time>2021-10-29T14:36:03.000Z</time>
      </trkpt>
      <trkpt lat="38.395983" lon="-1.312632">
        <ele>591.851248</ele>
        <time>2021-10-29T14:36:06.000Z</time>
      </trkpt>
      <trkpt lat="38.395960" lon="-1.312495">
        <ele>592.020515</ele>
        <time>2021-10-29T14:36:08.000Z</time>
      </trkpt>
      <trkpt lat="38.395950" lon="-1.312428">
        <ele>592.102914</ele>
        <time>2021-10-29T14:36:09.000Z</time>
      </trkpt>
      <trkpt lat="38.395932" lon="-1.312296">
        <ele>592.264782</ele>
        <time>2021-10-29T14:36:11.000Z</time>
      </trkpt>
      <trkpt lat="38.395890" lon="-1.312026">
        <ele>592.597338</ele>
        <time>2021-10-29T14:36:15.000Z</time>
      </trkpt>
      <trkpt lat="38.395839" lon="-1.311819">
        <ele>592.859485</ele>
        <time>2021-10-29T14:36:18.000Z</time>
      </trkpt>
      <trkpt lat="38.395703" lon="-1.311484">
        <ele>593.315281</ele>
        <time>2021-10-29T14:36:23.000Z</time>
      </trkpt>
      <trkpt lat="38.395501" lon="-1.311013">
        <ele>593.812454</ele>
        <time>2021-10-29T14:36:30.000Z</time>
      </trkpt>
      <trkpt lat="38.395383" lon="-1.310641">
        <ele>593.796092</ele>
        <time>2021-10-29T14:36:35.000Z</time>
      </trkpt>
      <trkpt lat="38.395292" lon="-1.310336">
        <ele>593.782785</ele>
        <time>2021-10-29T14:36:39.000Z</time>
      </trkpt>
      <trkpt lat="38.395064" lon="-1.309765">
        <ele>593.756657</ele>
        <time>2021-10-29T14:36:47.000Z</time>
      </trkpt>
      <trkpt lat="38.394929" lon="-1.309445">
        <ele>593.741840</ele>
        <time>2021-10-29T14:36:52.000Z</time>
      </trkpt>
      <trkpt lat="38.394903" lon="-1.309375">
        <ele>593.738682</ele>
        <time>2021-10-29T14:36:53.000Z</time>
      </trkpt>
      <trkpt lat="38.394876" lon="-1.309306">
        <ele>593.735537</ele>
        <time>2021-10-29T14:36:54.000Z</time>
      </trkpt>
      <trkpt lat="38.394849" lon="-1.309234">
        <ele>593.732283</ele>
        <time>2021-10-29T14:36:55.000Z</time>
      </trkpt>
      <trkpt lat="38.394767" lon="-1.309018">
        <ele>593.719364</ele>
        <time>2021-10-29T14:36:58.000Z</time>
      </trkpt>
      <trkpt lat="38.394739" lon="-1.308944">
        <ele>593.708137</ele>
        <time>2021-10-29T14:36:59.000Z</time>
      </trkpt>
      <trkpt lat="38.394681" lon="-1.308797">
        <ele>593.685650</ele>
        <time>2021-10-29T14:37:01.000Z</time>
      </trkpt>
      <trkpt lat="38.394570" lon="-1.308485">
        <ele>593.638835</ele>
        <time>2021-10-29T14:37:05.000Z</time>
      </trkpt>
      <trkpt lat="38.394546" lon="-1.308400">
        <ele>593.626490</ele>
        <time>2021-10-29T14:37:06.000Z</time>
      </trkpt>
      <trkpt lat="38.394482" lon="-1.308024">
        <ele>593.573919</ele>
        <time>2021-10-29T14:37:10.000Z</time>
      </trkpt>
      <trkpt lat="38.394460" lon="-1.307838">
        <ele>593.548217</ele>
        <time>2021-10-29T14:37:12.000Z</time>
      </trkpt>
      <trkpt lat="38.394431" lon="-1.307506">
        <ele>593.502574</ele>
        <time>2021-10-29T14:37:16.000Z</time>
      </trkpt>
      <trkpt lat="38.394434" lon="-1.307203">
        <ele>593.461171</ele>
        <time>2021-10-29T14:37:20.000Z</time>
      </trkpt>
      <trkpt lat="38.394451" lon="-1.307062">
        <ele>593.441679</ele>
        <time>2021-10-29T14:37:22.000Z</time>
      </trkpt>
      <trkpt lat="38.394464" lon="-1.306993">
        <ele>593.431983</ele>
        <time>2021-10-29T14:37:23.000Z</time>
      </trkpt>
      <trkpt lat="38.394492" lon="-1.306858">
        <ele>593.412902</ele>
        <time>2021-10-29T14:37:25.000Z</time>
      </trkpt>
      <trkpt lat="38.394521" lon="-1.306737">
        <ele>593.579556</ele>
        <time>2021-10-29T14:37:27.000Z</time>
      </trkpt>
      <trkpt lat="38.394548" lon="-1.306618">
        <ele>593.775083</ele>
        <time>2021-10-29T14:37:29.000Z</time>
      </trkpt>
      <trkpt lat="38.394586" lon="-1.306439">
        <ele>594.067775</ele>
        <time>2021-10-29T14:37:32.000Z</time>
      </trkpt>
      <trkpt lat="38.394621" lon="-1.306184">
        <ele>594.476360</ele>
        <time>2021-10-29T14:37:36.000Z</time>
      </trkpt>
      <trkpt lat="38.394623" lon="-1.305908">
        <ele>594.911983</ele>
        <time>2021-10-29T14:37:40.000Z</time>
      </trkpt>
      <trkpt lat="38.394605" lon="-1.305772">
        <ele>595.129668</ele>
        <time>2021-10-29T14:37:42.000Z</time>
      </trkpt>
      <trkpt lat="38.394496" lon="-1.305067">
        <ele>596.263798</ele>
        <time>2021-10-29T14:37:52.000Z</time>
      </trkpt>
      <trkpt lat="38.394497" lon="-1.304616">
        <ele>596.975605</ele>
        <time>2021-10-29T14:37:58.000Z</time>
      </trkpt>
      <trkpt lat="38.394557" lon="-1.304095">
        <ele>597.987327</ele>
        <time>2021-10-29T14:38:05.000Z</time>
      </trkpt>
      <trkpt lat="38.394592" lon="-1.303905">
        <ele>598.367212</ele>
        <time>2021-10-29T14:38:08.000Z</time>
      </trkpt>
      <trkpt lat="38.394626" lon="-1.303732">
        <ele>598.714356</ele>
        <time>2021-10-29T14:38:11.000Z</time>
      </trkpt>
      <trkpt lat="38.394635" lon="-1.303676">
        <ele>598.825620</ele>
        <time>2021-10-29T14:38:12.000Z</time>
      </trkpt>
      <trkpt lat="38.394698" lon="-1.303245">
        <ele>599.678962</ele>
        <time>2021-10-29T14:38:20.000Z</time>
      </trkpt>
      <trkpt lat="38.394703" lon="-1.303189">
        <ele>599.788663</ele>
        <time>2021-10-29T14:38:21.000Z</time>
      </trkpt>
      <trkpt lat="38.394705" lon="-1.303131">
        <ele>599.901660</ele>
        <time>2021-10-29T14:38:22.000Z</time>
      </trkpt>
      <trkpt lat="38.394704" lon="-1.303073">
        <ele>600.014576</ele>
        <time>2021-10-29T14:38:23.000Z</time>
      </trkpt>
      <trkpt lat="38.394694" lon="-1.302957">
        <ele>600.241714</ele>
        <time>2021-10-29T14:38:25.000Z</time>
      </trkpt>
      <trkpt lat="38.394671" lon="-1.302843">
        <ele>600.470832</ele>
        <time>2021-10-29T14:38:27.000Z</time>
      </trkpt>
      <trkpt lat="38.394655" lon="-1.302785">
        <ele>600.590509</ele>
        <time>2021-10-29T14:38:28.000Z</time>
      </trkpt>
      <trkpt lat="38.394613" lon="-1.302673">
        <ele>600.832168</ele>
        <time>2021-10-29T14:38:30.000Z</time>
      </trkpt>
      <trkpt lat="38.394519" lon="-1.302527">
        <ele>601.199924</ele>
        <time>2021-10-29T14:38:33.000Z</time>
      </trkpt>
      <trkpt lat="38.394193" lon="-1.302153">
        <ele>601.563154</ele>
        <time>2021-10-29T14:38:41.000Z</time>
      </trkpt>
      <trkpt lat="38.393973" lon="-1.301887">
        <ele>601.624311</ele>
        <time>2021-10-29T14:38:46.000Z</time>
      </trkpt>
      <trkpt lat="38.393875" lon="-1.301776">
        <ele>601.650753</ele>
        <time>2021-10-29T14:38:48.000Z</time>
      </trkpt>
      <trkpt lat="38.393734" lon="-1.301620">
        <ele>601.688410</ele>
        <time>2021-10-29T14:38:51.000Z</time>
      </trkpt>
      <trkpt lat="38.393652" lon="-1.301571">
        <ele>601.706681</ele>
        <time>2021-10-29T14:38:53.000Z</time>
      </trkpt>
      <trkpt lat="38.393611" lon="-1.301567">
        <ele>601.714978</ele>
        <time>2021-10-29T14:38:54.000Z</time>
      </trkpt>
      <trkpt lat="38.393574" lon="-1.301580">
        <ele>601.722721</ele>
        <time>2021-10-29T14:38:55.000Z</time>
      </trkpt>
      <trkpt lat="38.393546" lon="-1.301615">
        <ele>601.730631</ele>
        <time>2021-10-29T14:38:56.000Z</time>
      </trkpt>
      <trkpt lat="38.393525" lon="-1.301662">
        <ele>601.739187</ele>
        <time>2021-10-29T14:38:57.000Z</time>
      </trkpt>
      <trkpt lat="38.393489" lon="-1.301763">
        <ele>601.756734</ele>
        <time>2021-10-29T14:38:59.000Z</time>
      </trkpt>
      <trkpt lat="38.393430" lon="-1.301913">
        <ele>601.783275</ele>
        <time>2021-10-29T14:39:02.000Z</time>
      </trkpt>
      <trkpt lat="38.393243" lon="-1.302244">
        <ele>601.847804</ele>
        <time>2021-10-29T14:39:09.000Z</time>
      </trkpt>
      <trkpt lat="38.393069" lon="-1.302455">
        <ele>601.963113</ele>
        <time>2021-10-29T14:39:14.000Z</time>
      </trkpt>
      <trkpt lat="38.393039" lon="-1.302507">
        <ele>601.993220</ele>
        <time>2021-10-29T14:39:15.000Z</time>
      </trkpt>
      <trkpt lat="38.392977" lon="-1.302679">
        <ele>602.081498</ele>
        <time>2021-10-29T14:39:18.000Z</time>
      </trkpt>
      <trkpt lat="38.392967" lon="-1.302738">
        <ele>602.109645</ele>
        <time>2021-10-29T14:39:19.000Z</time>
      </trkpt>
      <trkpt lat="38.392955" lon="-1.302854">
        <ele>602.164203</ele>
        <time>2021-10-29T14:39:21.000Z</time>
      </trkpt>
      <trkpt lat="38.392928" lon="-1.302965">
        <ele>602.218397</ele>
        <time>2021-10-29T14:39:23.000Z</time>
      </trkpt>
      <trkpt lat="38.392909" lon="-1.303019">
        <ele>602.245997</ele>
        <time>2021-10-29T14:39:24.000Z</time>
      </trkpt>
      <trkpt lat="38.392828" lon="-1.303179">
        <ele>602.334814</ele>
        <time>2021-10-29T14:39:27.000Z</time>
      </trkpt>
      <trkpt lat="38.392700" lon="-1.303385">
        <ele>602.457394</ele>
        <time>2021-10-29T14:39:31.000Z</time>
      </trkpt>
      <trkpt lat="38.392417" lon="-1.303792">
        <ele>602.711094</ele>
        <time>2021-10-29T14:39:39.000Z</time>
      </trkpt>
      <trkpt lat="38.392380" lon="-1.303851">
        <ele>602.746328</ele>
        <time>2021-10-29T14:39:40.000Z</time>
      </trkpt>
      <trkpt lat="38.392165" lon="-1.304251">
        <ele>602.847577</ele>
        <time>2021-10-29T14:39:46.000Z</time>
      </trkpt>
      <trkpt lat="38.391852" lon="-1.304838">
        <ele>602.157568</ele>
        <time>2021-10-29T14:39:55.000Z</time>
      </trkpt>
      <trkpt lat="38.391681" lon="-1.305256">
        <ele>601.699306</ele>
        <time>2021-10-29T14:40:01.000Z</time>
      </trkpt>
      <trkpt lat="38.391654" lon="-1.305506">
        <ele>601.454036</ele>
        <time>2021-10-29T14:40:04.000Z</time>
      </trkpt>
      <trkpt lat="38.391659" lon="-1.305666">
        <ele>601.298408</ele>
        <time>2021-10-29T14:40:06.000Z</time>
      </trkpt>
      <trkpt lat="38.391658" lon="-1.305739">
        <ele>601.227449</ele>
        <time>2021-10-29T14:40:07.000Z</time>
      </trkpt>
      <trkpt lat="38.391620" lon="-1.305866">
        <ele>601.095329</ele>
        <time>2021-10-29T14:40:09.000Z</time>
      </trkpt>
      <trkpt lat="38.391520" lon="-1.305938">
        <ele>600.952946</ele>
        <time>2021-10-29T14:40:11.000Z</time>
      </trkpt>
      <trkpt lat="38.391460" lon="-1.305952">
        <ele>600.877311</ele>
        <time>2021-10-29T14:40:12.000Z</time>
      </trkpt>
      <trkpt lat="38.391397" lon="-1.305961">
        <ele>600.798702</ele>
        <time>2021-10-29T14:40:13.000Z</time>
      </trkpt>
      <trkpt lat="38.391267" lon="-1.305994">
        <ele>600.790377</ele>
        <time>2021-10-29T14:40:15.000Z</time>
      </trkpt>
      <trkpt lat="38.391150" lon="-1.306070">
        <ele>601.004950</ele>
        <time>2021-10-29T14:40:17.000Z</time>
      </trkpt>
      <trkpt lat="38.390723" lon="-1.306387">
        <ele>601.812355</ele>
        <time>2021-10-29T14:40:25.000Z</time>
      </trkpt>
      <trkpt lat="38.390505" lon="-1.306530">
        <ele>602.212973</ele>
        <time>2021-10-29T14:40:29.000Z</time>
      </trkpt>
      <trkpt lat="38.390310" lon="-1.306671">
        <ele>602.579292</ele>
        <time>2021-10-29T14:40:33.000Z</time>
      </trkpt>
      <trkpt lat="38.390181" lon="-1.306766">
        <ele>602.822723</ele>
        <time>2021-10-29T14:40:36.000Z</time>
      </trkpt>
      <trkpt lat="38.390063" lon="-1.306860">
        <ele>603.050080</ele>
        <time>2021-10-29T14:40:39.000Z</time>
      </trkpt>
      <trkpt lat="38.389989" lon="-1.306927">
        <ele>603.198380</ele>
        <time>2021-10-29T14:40:41.000Z</time>
      </trkpt>
      <trkpt lat="38.389918" lon="-1.307012">
        <ele>603.357504</ele>
        <time>2021-10-29T14:40:43.000Z</time>
      </trkpt>
      <trkpt lat="38.389783" lon="-1.307225">
        <ele>603.633720</ele>
        <time>2021-10-29T14:40:47.000Z</time>
      </trkpt>
      <trkpt lat="38.389568" lon="-1.307607">
        <ele>603.566245</ele>
        <time>2021-10-29T14:40:53.000Z</time>
      </trkpt>
      <trkpt lat="38.389446" lon="-1.307893">
        <ele>603.519527</ele>
        <time>2021-10-29T14:40:57.000Z</time>
      </trkpt>
      <trkpt lat="38.389339" lon="-1.308178">
        <ele>603.474186</ele>
        <time>2021-10-29T14:41:01.000Z</time>
      </trkpt>
      <trkpt lat="38.389275" lon="-1.308381">
        <ele>603.442793</ele>
        <time>2021-10-29T14:41:04.000Z</time>
      </trkpt>
      <trkpt lat="38.389213" lon="-1.308652">
        <ele>603.402287</ele>
        <time>2021-10-29T14:41:08.000Z</time>
      </trkpt>
      <trkpt lat="38.389175" lon="-1.309111">
        <ele>603.336065</ele>
        <time>2021-10-29T14:41:14.000Z</time>
      </trkpt>
      <trkpt lat="38.389177" lon="-1.309280">
        <ele>603.309253</ele>
        <time>2021-10-29T14:41:16.000Z</time>
      </trkpt>
      <trkpt lat="38.389162" lon="-1.309629">
        <ele>602.552953</ele>
        <time>2021-10-29T14:41:20.000Z</time>
      </trkpt>
      <trkpt lat="38.389149" lon="-1.309722">
        <ele>602.348544</ele>
        <time>2021-10-29T14:41:21.000Z</time>
      </trkpt>
      <trkpt lat="38.389115" lon="-1.309914">
        <ele>601.922624</ele>
        <time>2021-10-29T14:41:23.000Z</time>
      </trkpt>
      <trkpt lat="38.389076" lon="-1.310198">
        <ele>601.298745</ele>
        <time>2021-10-29T14:41:26.000Z</time>
      </trkpt>
      <trkpt lat="38.389064" lon="-1.310295">
        <ele>601.086258</ele>
        <time>2021-10-29T14:41:27.000Z</time>
      </trkpt>
      <trkpt lat="38.389017" lon="-1.310806">
        <ele>599.972969</ele>
        <time>2021-10-29T14:41:32.000Z</time>
      </trkpt>
      <trkpt lat="38.389024" lon="-1.311014">
        <ele>599.522483</ele>
        <time>2021-10-29T14:41:34.000Z</time>
      </trkpt>
      <trkpt lat="38.389033" lon="-1.311118">
        <ele>599.296080</ele>
        <time>2021-10-29T14:41:35.000Z</time>
      </trkpt>
      <trkpt lat="38.389047" lon="-1.311222">
        <ele>599.067750</ele>
        <time>2021-10-29T14:41:36.000Z</time>
      </trkpt>
      <trkpt lat="38.389059" lon="-1.311320">
        <ele>598.853126</ele>
        <time>2021-10-29T14:41:37.000Z</time>
      </trkpt>
      <trkpt lat="38.389084" lon="-1.311506">
        <ele>598.444784</ele>
        <time>2021-10-29T14:41:39.000Z</time>
      </trkpt>
      <trkpt lat="38.389086" lon="-1.311696">
        <ele>598.300511</ele>
        <time>2021-10-29T14:41:41.000Z</time>
      </trkpt>
      <trkpt lat="38.389074" lon="-1.311793">
        <ele>598.269197</ele>
        <time>2021-10-29T14:41:42.000Z</time>
      </trkpt>
      <trkpt lat="38.389028" lon="-1.312109">
        <ele>598.166708</ele>
        <time>2021-10-29T14:41:45.000Z</time>
      </trkpt>
      <trkpt lat="38.388999" lon="-1.312324">
        <ele>598.097142</ele>
        <time>2021-10-29T14:41:47.000Z</time>
      </trkpt>
      <trkpt lat="38.388986" lon="-1.312427">
        <ele>598.063874</ele>
        <time>2021-10-29T14:41:48.000Z</time>
      </trkpt>
      <trkpt lat="38.388950" lon="-1.312726">
        <ele>597.967411</ele>
        <time>2021-10-29T14:41:51.000Z</time>
      </trkpt>
      <trkpt lat="38.388898" lon="-1.313192">
        <ele>597.817316</ele>
        <time>2021-10-29T14:41:56.000Z</time>
      </trkpt>
      <trkpt lat="38.388880" lon="-1.313367">
        <ele>597.761033</ele>
        <time>2021-10-29T14:41:58.000Z</time>
      </trkpt>
      <trkpt lat="38.388846" lon="-1.313795">
        <ele>597.623854</ele>
        <time>2021-10-29T14:42:03.000Z</time>
      </trkpt>
      <trkpt lat="38.388839" lon="-1.313880">
        <ele>597.520575</ele>
        <time>2021-10-29T14:42:04.000Z</time>
      </trkpt>
      <trkpt lat="38.388838" lon="-1.314428">
        <ele>596.619793</ele>
        <time>2021-10-29T14:42:10.000Z</time>
      </trkpt>
      <trkpt lat="38.388895" lon="-1.314978">
        <ele>595.707857</ele>
        <time>2021-10-29T14:42:16.000Z</time>
      </trkpt>
      <trkpt lat="38.388897" lon="-1.315073">
        <ele>595.551644</ele>
        <time>2021-10-29T14:42:17.000Z</time>
      </trkpt>
      <trkpt lat="38.388859" lon="-1.315479">
        <ele>594.879537</ele>
        <time>2021-10-29T14:42:21.000Z</time>
      </trkpt>
      <trkpt lat="38.388843" lon="-1.315590">
        <ele>594.694020</ele>
        <time>2021-10-29T14:42:22.000Z</time>
      </trkpt>
      <trkpt lat="38.388830" lon="-1.315701">
        <ele>594.509537</ele>
        <time>2021-10-29T14:42:23.000Z</time>
      </trkpt>
      <trkpt lat="38.388810" lon="-1.315919">
        <ele>594.148752</ele>
        <time>2021-10-29T14:42:25.000Z</time>
      </trkpt>
      <trkpt lat="38.388789" lon="-1.316128">
        <ele>593.785639</ele>
        <time>2021-10-29T14:42:27.000Z</time>
      </trkpt>
      <trkpt lat="38.388795" lon="-1.316607">
        <ele>592.672543</ele>
        <time>2021-10-29T14:42:32.000Z</time>
      </trkpt>
      <trkpt lat="38.388822" lon="-1.316888">
        <ele>592.014754</ele>
        <time>2021-10-29T14:42:35.000Z</time>
      </trkpt>
      <trkpt lat="38.388814" lon="-1.317085">
        <ele>591.556412</ele>
        <time>2021-10-29T14:42:37.000Z</time>
      </trkpt>
      <trkpt lat="38.388833" lon="-1.317629">
        <ele>590.291177</ele>
        <time>2021-10-29T14:42:42.000Z</time>
      </trkpt>
      <trkpt lat="38.388832" lon="-1.317736">
        <ele>590.042545</ele>
        <time>2021-10-29T14:42:43.000Z</time>
      </trkpt>
      <trkpt lat="38.388827" lon="-1.317847">
        <ele>589.784212</ele>
        <time>2021-10-29T14:42:44.000Z</time>
      </trkpt>
      <trkpt lat="38.388801" lon="-1.318173">
        <ele>589.022842</ele>
        <time>2021-10-29T14:42:47.000Z</time>
      </trkpt>
      <trkpt lat="38.388786" lon="-1.318391">
        <ele>588.514372</ele>
        <time>2021-10-29T14:42:49.000Z</time>
      </trkpt>
      <trkpt lat="38.388786" lon="-1.318740">
        <ele>587.611632</ele>
        <time>2021-10-29T14:42:52.000Z</time>
      </trkpt>
      <trkpt lat="38.388803" lon="-1.318853">
        <ele>587.313884</ele>
        <time>2021-10-29T14:42:53.000Z</time>
      </trkpt>
      <trkpt lat="38.388859" lon="-1.319495">
        <ele>585.642322</ele>
        <time>2021-10-29T14:42:59.000Z</time>
      </trkpt>
      <trkpt lat="38.388854" lon="-1.319831">
        <ele>584.772697</ele>
        <time>2021-10-29T14:43:02.000Z</time>
      </trkpt>
      <trkpt lat="38.388852" lon="-1.320238">
        <ele>583.719480</ele>
        <time>2021-10-29T14:43:06.000Z</time>
      </trkpt>
      <trkpt lat="38.388847" lon="-1.320327">
        <ele>583.488584</ele>
        <time>2021-10-29T14:43:07.000Z</time>
      </trkpt>
      <trkpt lat="38.388811" lon="-1.320499">
        <ele>583.027903</ele>
        <time>2021-10-29T14:43:09.000Z</time>
      </trkpt>
      <trkpt lat="38.388777" lon="-1.320583">
        <ele>582.783264</ele>
        <time>2021-10-29T14:43:10.000Z</time>
      </trkpt>
      <trkpt lat="38.388671" lon="-1.320848">
        <ele>582.180230</ele>
        <time>2021-10-29T14:43:13.000Z</time>
      </trkpt>
      <trkpt lat="38.388654" lon="-1.320950">
        <ele>581.990829</ele>
        <time>2021-10-29T14:43:14.000Z</time>
      </trkpt>
      <trkpt lat="38.388656" lon="-1.321061">
        <ele>581.789170</ele>
        <time>2021-10-29T14:43:15.000Z</time>
      </trkpt>
      <trkpt lat="38.388678" lon="-1.321165">
        <ele>581.593520</ele>
        <time>2021-10-29T14:43:16.000Z</time>
      </trkpt>
      <trkpt lat="38.388709" lon="-1.321257">
        <ele>581.411637</ele>
        <time>2021-10-29T14:43:17.000Z</time>
      </trkpt>
      <trkpt lat="38.388769" lon="-1.321426">
        <ele>581.074669</ele>
        <time>2021-10-29T14:43:19.000Z</time>
      </trkpt>
      <trkpt lat="38.388790" lon="-1.321507">
        <ele>580.919712</ele>
        <time>2021-10-29T14:43:20.000Z</time>
      </trkpt>
      <trkpt lat="38.388814" lon="-1.321668">
        <ele>580.622052</ele>
        <time>2021-10-29T14:43:22.000Z</time>
      </trkpt>
      <trkpt lat="38.388808" lon="-1.321836">
        <ele>580.316604</ele>
        <time>2021-10-29T14:43:24.000Z</time>
      </trkpt>
      <trkpt lat="38.388778" lon="-1.322012">
        <ele>579.989470</ele>
        <time>2021-10-29T14:43:26.000Z</time>
      </trkpt>
      <trkpt lat="38.388759" lon="-1.322099">
        <ele>579.825436</ele>
        <time>2021-10-29T14:43:27.000Z</time>
      </trkpt>
      <trkpt lat="38.388646" lon="-1.322419">
        <ele>579.187970</ele>
        <time>2021-10-29T14:43:31.000Z</time>
      </trkpt>
      <trkpt lat="38.388503" lon="-1.322924">
        <ele>578.084480</ele>
        <time>2021-10-29T14:43:37.000Z</time>
      </trkpt>
      <trkpt lat="38.388515" lon="-1.323132">
        <ele>577.453250</ele>
        <time>2021-10-29T14:43:39.000Z</time>
      </trkpt>
      <trkpt lat="38.388536" lon="-1.323241">
        <ele>577.113535</ele>
        <time>2021-10-29T14:43:40.000Z</time>
      </trkpt>
      <trkpt lat="38.388563" lon="-1.323351">
        <ele>576.764670</ele>
        <time>2021-10-29T14:43:41.000Z</time>
      </trkpt>
      <trkpt lat="38.388619" lon="-1.323572">
        <ele>576.061714</ele>
        <time>2021-10-29T14:43:43.000Z</time>
      </trkpt>
      <trkpt lat="38.388647" lon="-1.323680">
        <ele>575.717429</ele>
        <time>2021-10-29T14:43:44.000Z</time>
      </trkpt>
      <trkpt lat="38.388696" lon="-1.323888">
        <ele>575.060085</ele>
        <time>2021-10-29T14:43:46.000Z</time>
      </trkpt>
      <trkpt lat="38.388758" lon="-1.324268">
        <ele>573.885339</ele>
        <time>2021-10-29T14:43:50.000Z</time>
      </trkpt>
      <trkpt lat="38.388779" lon="-1.324450">
        <ele>573.328569</ele>
        <time>2021-10-29T14:43:52.000Z</time>
      </trkpt>
      <trkpt lat="38.388816" lon="-1.325040">
        <ele>571.537193</ele>
        <time>2021-10-29T14:43:58.000Z</time>
      </trkpt>
      <trkpt lat="38.388837" lon="-1.325390">
        <ele>571.789177</ele>
        <time>2021-10-29T14:44:01.000Z</time>
      </trkpt>
      <trkpt lat="38.388852" lon="-1.325601">
        <ele>572.003365</ele>
        <time>2021-10-29T14:44:03.000Z</time>
      </trkpt>
      <trkpt lat="38.388860" lon="-1.325698">
        <ele>572.101969</ele>
        <time>2021-10-29T14:44:04.000Z</time>
      </trkpt>
      <trkpt lat="38.388889" lon="-1.326117">
        <ele>572.527209</ele>
        <time>2021-10-29T14:44:09.000Z</time>
      </trkpt>
      <trkpt lat="38.388887" lon="-1.326193">
        <ele>572.604085</ele>
        <time>2021-10-29T14:44:10.000Z</time>
      </trkpt>
      <trkpt lat="38.388879" lon="-1.326266">
        <ele>572.678603</ele>
        <time>2021-10-29T14:44:11.000Z</time>
      </trkpt>
      <trkpt lat="38.388864" lon="-1.326334">
        <ele>572.750019</ele>
        <time>2021-10-29T14:44:12.000Z</time>
      </trkpt>
      <trkpt lat="38.388841" lon="-1.326398">
        <ele>572.821196</ele>
        <time>2021-10-29T14:44:13.000Z</time>
      </trkpt>
      <trkpt lat="38.388808" lon="-1.326462">
        <ele>572.898643</ele>
        <time>2021-10-29T14:44:14.000Z</time>
      </trkpt>
      <trkpt lat="38.388769" lon="-1.326522">
        <ele>572.977444</ele>
        <time>2021-10-29T14:44:15.000Z</time>
      </trkpt>
      <trkpt lat="38.388669" lon="-1.326620">
        <ele>573.140082</ele>
        <time>2021-10-29T14:44:17.000Z</time>
      </trkpt>
      <trkpt lat="38.388605" lon="-1.326656">
        <ele>573.230296</ele>
        <time>2021-10-29T14:44:18.000Z</time>
      </trkpt>
      <trkpt lat="38.388470" lon="-1.326707">
        <ele>573.411892</ele>
        <time>2021-10-29T14:44:20.000Z</time>
      </trkpt>
      <trkpt lat="38.388399" lon="-1.326732">
        <ele>573.506891</ele>
        <time>2021-10-29T14:44:21.000Z</time>
      </trkpt>
      <trkpt lat="38.388335" lon="-1.326772">
        <ele>573.598811</ele>
        <time>2021-10-29T14:44:22.000Z</time>
      </trkpt>
      <trkpt lat="38.388282" lon="-1.326832">
        <ele>573.690202</ele>
        <time>2021-10-29T14:44:23.000Z</time>
      </trkpt>
      <trkpt lat="38.388252" lon="-1.326911">
        <ele>573.778948</ele>
        <time>2021-10-29T14:44:24.000Z</time>
      </trkpt>
      <trkpt lat="38.388251" lon="-1.326997">
        <ele>573.819052</ele>
        <time>2021-10-29T14:44:25.000Z</time>
      </trkpt>
      <trkpt lat="38.388271" lon="-1.327160">
        <ele>573.894935</ele>
        <time>2021-10-29T14:44:27.000Z</time>
      </trkpt>
      <trkpt lat="38.388254" lon="-1.327298">
        <ele>573.959186</ele>
        <time>2021-10-29T14:44:29.000Z</time>
      </trkpt>
      <trkpt lat="38.388222" lon="-1.327345">
        <ele>573.987820</ele>
        <time>2021-10-29T14:44:30.000Z</time>
      </trkpt>
      <trkpt lat="38.388178" lon="-1.327372">
        <ele>574.016470</ele>
        <time>2021-10-29T14:44:31.000Z</time>
      </trkpt>
      <trkpt lat="38.388078" lon="-1.327372">
        <ele>574.075150</ele>
        <time>2021-10-29T14:44:33.000Z</time>
      </trkpt>
      <trkpt lat="38.387985" lon="-1.327317">
        <ele>574.135300</ele>
        <time>2021-10-29T14:44:35.000Z</time>
      </trkpt>
      <trkpt lat="38.387894" lon="-1.327228">
        <ele>574.202583</ele>
        <time>2021-10-29T14:44:37.000Z</time>
      </trkpt>
      <trkpt lat="38.387840" lon="-1.327185">
        <ele>574.239936</ele>
        <time>2021-10-29T14:44:38.000Z</time>
      </trkpt>
      <trkpt lat="38.387714" lon="-1.327147">
        <ele>574.315910</ele>
        <time>2021-10-29T14:44:40.000Z</time>
      </trkpt>
      <trkpt lat="38.387592" lon="-1.327200">
        <ele>574.391535</ele>
        <time>2021-10-29T14:44:42.000Z</time>
      </trkpt>
      <trkpt lat="38.387536" lon="-1.327238">
        <ele>574.428755</ele>
        <time>2021-10-29T14:44:43.000Z</time>
      </trkpt>
      <trkpt lat="38.387219" lon="-1.327432">
        <ele>574.635063</ele>
        <time>2021-10-29T14:44:49.000Z</time>
      </trkpt>
      <trkpt lat="38.387176" lon="-1.327468">
        <ele>574.665243</ele>
        <time>2021-10-29T14:44:50.000Z</time>
      </trkpt>
      <trkpt lat="38.387104" lon="-1.327564">
        <ele>574.726355</ele>
        <time>2021-10-29T14:44:52.000Z</time>
      </trkpt>
      <trkpt lat="38.387080" lon="-1.327625">
        <ele>574.757748</ele>
        <time>2021-10-29T14:44:53.000Z</time>
      </trkpt>
      <trkpt lat="38.387066" lon="-1.327692">
        <ele>574.789641</ele>
        <time>2021-10-29T14:44:54.000Z</time>
      </trkpt>
      <trkpt lat="38.387059" lon="-1.327762">
        <ele>574.822098</ele>
        <time>2021-10-29T14:44:55.000Z</time>
      </trkpt>
      <trkpt lat="38.387057" lon="-1.327907">
        <ele>574.715297</ele>
        <time>2021-10-29T14:44:57.000Z</time>
      </trkpt>
      <trkpt lat="38.387035" lon="-1.328525">
        <ele>574.075671</ele>
        <time>2021-10-29T14:45:05.000Z</time>
      </trkpt>
      <trkpt lat="38.387005" lon="-1.328995">
        <ele>573.588116</ele>
        <time>2021-10-29T14:45:11.000Z</time>
      </trkpt>
      <trkpt lat="38.387006" lon="-1.329404">
        <ele>573.165238</ele>
        <time>2021-10-29T14:45:16.000Z</time>
      </trkpt>
      <trkpt lat="38.386993" lon="-1.329570">
        <ele>572.992751</ele>
        <time>2021-10-29T14:45:18.000Z</time>
      </trkpt>
      <trkpt lat="38.386965" lon="-1.329850">
        <ele>572.700904</ele>
        <time>2021-10-29T14:45:21.000Z</time>
      </trkpt>
      <trkpt lat="38.386963" lon="-1.330053">
        <ele>572.491000</ele>
        <time>2021-10-29T14:45:23.000Z</time>
      </trkpt>
      <trkpt lat="38.386989" lon="-1.330244">
        <ele>572.401699</ele>
        <time>2021-10-29T14:45:25.000Z</time>
      </trkpt>
      <trkpt lat="38.387055" lon="-1.330415">
        <ele>572.331746</ele>
        <time>2021-10-29T14:45:27.000Z</time>
      </trkpt>
      <trkpt lat="38.387123" lon="-1.330564">
        <ele>572.268469</ele>
        <time>2021-10-29T14:45:29.000Z</time>
      </trkpt>
      <trkpt lat="38.387138" lon="-1.330640">
        <ele>572.239707</ele>
        <time>2021-10-29T14:45:30.000Z</time>
      </trkpt>
      <trkpt lat="38.387134" lon="-1.330718">
        <ele>572.211020</ele>
        <time>2021-10-29T14:45:31.000Z</time>
      </trkpt>
      <trkpt lat="38.387089" lon="-1.330885">
        <ele>572.146210</ele>
        <time>2021-10-29T14:45:33.000Z</time>
      </trkpt>
      <trkpt lat="38.387019" lon="-1.331047">
        <ele>572.078321</ele>
        <time>2021-10-29T14:45:35.000Z</time>
      </trkpt>
      <trkpt lat="38.386924" lon="-1.331140">
        <ele>572.022255</ele>
        <time>2021-10-29T14:45:37.000Z</time>
      </trkpt>
      <trkpt lat="38.386811" lon="-1.331132">
        <ele>571.969265</ele>
        <time>2021-10-29T14:45:39.000Z</time>
      </trkpt>
      <trkpt lat="38.386752" lon="-1.331115">
        <ele>571.940945</ele>
        <time>2021-10-29T14:45:40.000Z</time>
      </trkpt>
      <trkpt lat="38.386690" lon="-1.331107">
        <ele>571.911768</ele>
        <time>2021-10-29T14:45:41.000Z</time>
      </trkpt>
      <trkpt lat="38.386567" lon="-1.331148">
        <ele>571.852244</ele>
        <time>2021-10-29T14:45:43.000Z</time>
      </trkpt>
      <trkpt lat="38.386421" lon="-1.331298">
        <ele>571.764475</ele>
        <time>2021-10-29T14:45:46.000Z</time>
      </trkpt>
      <trkpt lat="38.386366" lon="-1.331321">
        <ele>571.737375</ele>
        <time>2021-10-29T14:45:47.000Z</time>
      </trkpt>
      <trkpt lat="38.386314" lon="-1.331314">
        <ele>571.712893</ele>
        <time>2021-10-29T14:45:48.000Z</time>
      </trkpt>
      <trkpt lat="38.386271" lon="-1.331282">
        <ele>571.689585</ele>
        <time>2021-10-29T14:45:49.000Z</time>
      </trkpt>
      <trkpt lat="38.386234" lon="-1.331238">
        <ele>571.665902</ele>
        <time>2021-10-29T14:45:50.000Z</time>
      </trkpt>
      <trkpt lat="38.386161" lon="-1.331135">
        <ele>571.643409</ele>
        <time>2021-10-29T14:45:52.000Z</time>
      </trkpt>
      <trkpt lat="38.386075" lon="-1.331030">
        <ele>571.862720</ele>
        <time>2021-10-29T14:45:54.000Z</time>
      </trkpt>
      <trkpt lat="38.385968" lon="-1.330975">
        <ele>572.075253</ele>
        <time>2021-10-29T14:45:56.000Z</time>
      </trkpt>
      <trkpt lat="38.385910" lon="-1.330980">
        <ele>572.182355</ele>
        <time>2021-10-29T14:45:57.000Z</time>
      </trkpt>
      <trkpt lat="38.385854" lon="-1.331006">
        <ele>572.292147</ele>
        <time>2021-10-29T14:45:58.000Z</time>
      </trkpt>
      <trkpt lat="38.385775" lon="-1.331118">
        <ele>572.509736</ele>
        <time>2021-10-29T14:46:00.000Z</time>
      </trkpt>
      <trkpt lat="38.385642" lon="-1.331527">
        <ele>573.149200</ele>
        <time>2021-10-29T14:46:06.000Z</time>
      </trkpt>
      <trkpt lat="38.385452" lon="-1.331905">
        <ele>573.797681</ele>
        <time>2021-10-29T14:46:12.000Z</time>
      </trkpt>
      <trkpt lat="38.385411" lon="-1.331965">
        <ele>573.912632</ele>
        <time>2021-10-29T14:46:13.000Z</time>
      </trkpt>
      <trkpt lat="38.385215" lon="-1.332218">
        <ele>574.426336</ele>
        <time>2021-10-29T14:46:18.000Z</time>
      </trkpt>
      <trkpt lat="38.385175" lon="-1.332260">
        <ele>574.521782</ele>
        <time>2021-10-29T14:46:19.000Z</time>
      </trkpt>
      <trkpt lat="38.385044" lon="-1.332380">
        <ele>574.818906</ele>
        <time>2021-10-29T14:46:22.000Z</time>
      </trkpt>
      <trkpt lat="38.384913" lon="-1.332513">
        <ele>575.359032</ele>
        <time>2021-10-29T14:46:25.000Z</time>
      </trkpt>
      <trkpt lat="38.384873" lon="-1.332569">
        <ele>575.599868</ele>
        <time>2021-10-29T14:46:26.000Z</time>
      </trkpt>
      <trkpt lat="38.384785" lon="-1.332762">
        <ele>576.309621</ele>
        <time>2021-10-29T14:46:29.000Z</time>
      </trkpt>
      <trkpt lat="38.384736" lon="-1.332881">
        <ele>576.736916</ele>
        <time>2021-10-29T14:46:31.000Z</time>
      </trkpt>
      <trkpt lat="38.384666" lon="-1.332956">
        <ele>577.107623</ele>
        <time>2021-10-29T14:46:33.000Z</time>
      </trkpt>
      <trkpt lat="38.384550" lon="-1.332926">
        <ele>577.587611</ele>
        <time>2021-10-29T14:46:36.000Z</time>
      </trkpt>
      <trkpt lat="38.384515" lon="-1.332895">
        <ele>577.760402</ele>
        <time>2021-10-29T14:46:37.000Z</time>
      </trkpt>
      <trkpt lat="38.384444" lon="-1.332828">
        <ele>578.118542</ele>
        <time>2021-10-29T14:46:39.000Z</time>
      </trkpt>
      <trkpt lat="38.384407" lon="-1.332792">
        <ele>578.307248</ele>
        <time>2021-10-29T14:46:40.000Z</time>
      </trkpt>
      <trkpt lat="38.384371" lon="-1.332754">
        <ele>578.496735</ele>
        <time>2021-10-29T14:46:41.000Z</time>
      </trkpt>
      <trkpt lat="38.384330" lon="-1.332721">
        <ele>578.693330</ele>
        <time>2021-10-29T14:46:42.000Z</time>
      </trkpt>
      <trkpt lat="38.384288" lon="-1.332694">
        <ele>578.884057</ele>
        <time>2021-10-29T14:46:43.000Z</time>
      </trkpt>
      <trkpt lat="38.384244" lon="-1.332677">
        <ele>579.070495</ele>
        <time>2021-10-29T14:46:44.000Z</time>
      </trkpt>
      <trkpt lat="38.384159" lon="-1.332693">
        <ele>579.418931</ele>
        <time>2021-10-29T14:46:46.000Z</time>
      </trkpt>
      <trkpt lat="38.384118" lon="-1.332789">
        <ele>579.766455</ele>
        <time>2021-10-29T14:46:48.000Z</time>
      </trkpt>
      <trkpt lat="38.384123" lon="-1.332852">
        <ele>579.967745</ele>
        <time>2021-10-29T14:46:49.000Z</time>
      </trkpt>
      <trkpt lat="38.384163" lon="-1.333052">
        <ele>580.623880</ele>
        <time>2021-10-29T14:46:52.000Z</time>
      </trkpt>
      <trkpt lat="38.384166" lon="-1.333184">
        <ele>581.043663</ele>
        <time>2021-10-29T14:46:54.000Z</time>
      </trkpt>
      <trkpt lat="38.384113" lon="-1.333282">
        <ele>581.422139</ele>
        <time>2021-10-29T14:46:56.000Z</time>
      </trkpt>
      <trkpt lat="38.384068" lon="-1.333295">
        <ele>581.609250</ele>
        <time>2021-10-29T14:46:57.000Z</time>
      </trkpt>
      <trkpt lat="38.384020" lon="-1.333288">
        <ele>581.805174</ele>
        <time>2021-10-29T14:46:58.000Z</time>
      </trkpt>
      <trkpt lat="38.383975" lon="-1.333262">
        <ele>582.005507</ele>
        <time>2021-10-29T14:46:59.000Z</time>
      </trkpt>
      <trkpt lat="38.383933" lon="-1.333229">
        <ele>582.205544</ele>
        <time>2021-10-29T14:47:00.000Z</time>
      </trkpt>
      <trkpt lat="38.383658" lon="-1.332973">
        <ele>582.219241</ele>
        <time>2021-10-29T14:47:07.000Z</time>
      </trkpt>
      <trkpt lat="38.383611" lon="-1.332951">
        <ele>582.217845</ele>
        <time>2021-10-29T14:47:08.000Z</time>
      </trkpt>
      <trkpt lat="38.383563" lon="-1.332952">
        <ele>582.216506</ele>
        <time>2021-10-29T14:47:09.000Z</time>
      </trkpt>
      <trkpt lat="38.383479" lon="-1.333032">
        <ele>582.213583</ele>
        <time>2021-10-29T14:47:11.000Z</time>
      </trkpt>
      <trkpt lat="38.383328" lon="-1.333356">
        <ele>582.205342</ele>
        <time>2021-10-29T14:47:16.000Z</time>
      </trkpt>
      <trkpt lat="38.383290" lon="-1.333417">
        <ele>582.203638</ele>
        <time>2021-10-29T14:47:17.000Z</time>
      </trkpt>
      <trkpt lat="38.383246" lon="-1.333476">
        <ele>582.201858</ele>
        <time>2021-10-29T14:47:18.000Z</time>
      </trkpt>
      <trkpt lat="38.383090" lon="-1.333658">
        <ele>582.195962</ele>
        <time>2021-10-29T14:47:21.000Z</time>
      </trkpt>
      <trkpt lat="38.382981" lon="-1.333783">
        <ele>582.191874</ele>
        <time>2021-10-29T14:47:23.000Z</time>
      </trkpt>
      <trkpt lat="38.382791" lon="-1.334008">
        <ele>582.184644</ele>
        <time>2021-10-29T14:47:27.000Z</time>
      </trkpt>
      <trkpt lat="38.382568" lon="-1.334284">
        <ele>582.281550</ele>
        <time>2021-10-29T14:47:33.000Z</time>
      </trkpt>
      <trkpt lat="38.382533" lon="-1.334330">
        <ele>582.340916</ele>
        <time>2021-10-29T14:47:34.000Z</time>
      </trkpt>
      <trkpt lat="38.382366" lon="-1.334569">
        <ele>582.637407</ele>
        <time>2021-10-29T14:47:39.000Z</time>
      </trkpt>
      <trkpt lat="38.382334" lon="-1.334619">
        <ele>582.697182</ele>
        <time>2021-10-29T14:47:40.000Z</time>
      </trkpt>
      <trkpt lat="38.382273" lon="-1.334718">
        <ele>582.813793</ele>
        <time>2021-10-29T14:47:42.000Z</time>
      </trkpt>
      <trkpt lat="38.382142" lon="-1.334894">
        <ele>583.038546</ele>
        <time>2021-10-29T14:47:46.000Z</time>
      </trkpt>
      <trkpt lat="38.382060" lon="-1.334958">
        <ele>583.152110</ele>
        <time>2021-10-29T14:47:48.000Z</time>
      </trkpt>
      <trkpt lat="38.381969" lon="-1.335008">
        <ele>583.269161</ele>
        <time>2021-10-29T14:47:50.000Z</time>
      </trkpt>
      <trkpt lat="38.381750" lon="-1.335165">
        <ele>583.565932</ele>
        <time>2021-10-29T14:47:55.000Z</time>
      </trkpt>
      <trkpt lat="38.381675" lon="-1.335261">
        <ele>583.691446</ele>
        <time>2021-10-29T14:47:57.000Z</time>
      </trkpt>
      <trkpt lat="38.381639" lon="-1.335317">
        <ele>583.758514</ele>
        <time>2021-10-29T14:47:58.000Z</time>
      </trkpt>
      <trkpt lat="38.381578" lon="-1.335440">
        <ele>583.893301</ele>
        <time>2021-10-29T14:48:00.000Z</time>
      </trkpt>
      <trkpt lat="38.381459" lon="-1.335786">
        <ele>584.243201</ele>
        <time>2021-10-29T14:48:05.000Z</time>
      </trkpt>
      <trkpt lat="38.381427" lon="-1.335853">
        <ele>584.309430</ele>
        <time>2021-10-29T14:48:06.000Z</time>
      </trkpt>
      <trkpt lat="38.381390" lon="-1.335910">
        <ele>584.343010</ele>
        <time>2021-10-29T14:48:07.000Z</time>
      </trkpt>
      <trkpt lat="38.381288" lon="-1.335996">
        <ele>584.413781</ele>
        <time>2021-10-29T14:48:09.000Z</time>
      </trkpt>
      <trkpt lat="38.381233" lon="-1.336022">
        <ele>584.447733</ele>
        <time>2021-10-29T14:48:10.000Z</time>
      </trkpt>
      <trkpt lat="38.381002" lon="-1.336112">
        <ele>584.587541</ele>
        <time>2021-10-29T14:48:14.000Z</time>
      </trkpt>
      <trkpt lat="38.380904" lon="-1.336209">
        <ele>584.659340</ele>
        <time>2021-10-29T14:48:16.000Z</time>
      </trkpt>
      <trkpt lat="38.380867" lon="-1.336273">
        <ele>584.695423</ele>
        <time>2021-10-29T14:48:17.000Z</time>
      </trkpt>
      <trkpt lat="38.380668" lon="-1.336748">
        <ele>584.939804</ele>
        <time>2021-10-29T14:48:24.000Z</time>
      </trkpt>
      <trkpt lat="38.380435" lon="-1.337114">
        <ele>585.153743</ele>
        <time>2021-10-29T14:48:30.000Z</time>
      </trkpt>
      <trkpt lat="38.380198" lon="-1.337474">
        <ele>585.468627</ele>
        <time>2021-10-29T14:48:36.000Z</time>
      </trkpt>
      <trkpt lat="38.380149" lon="-1.337597">
        <ele>585.811572</ele>
        <time>2021-10-29T14:48:38.000Z</time>
      </trkpt>
      <trkpt lat="38.380097" lon="-1.337704">
        <ele>586.124497</ele>
        <time>2021-10-29T14:48:40.000Z</time>
      </trkpt>
      <trkpt lat="38.380033" lon="-1.337777">
        <ele>586.396721</ele>
        <time>2021-10-29T14:48:42.000Z</time>
      </trkpt>
      <trkpt lat="38.379998" lon="-1.337791">
        <ele>586.513027</ele>
        <time>2021-10-29T14:48:43.000Z</time>
      </trkpt>
      <trkpt lat="38.379931" lon="-1.337782">
        <ele>586.726646</ele>
        <time>2021-10-29T14:48:45.000Z</time>
      </trkpt>
      <trkpt lat="38.379901" lon="-1.337773">
        <ele>586.824366</ele>
        <time>2021-10-29T14:48:46.000Z</time>
      </trkpt>
      <trkpt lat="38.379869" lon="-1.337763">
        <ele>586.928832</ele>
        <time>2021-10-29T14:48:47.000Z</time>
      </trkpt>
      <trkpt lat="38.379776" lon="-1.337731">
        <ele>587.234256</ele>
        <time>2021-10-29T14:48:50.000Z</time>
      </trkpt>
      <trkpt lat="38.379683" lon="-1.337708">
        <ele>587.534632</ele>
        <time>2021-10-29T14:48:53.000Z</time>
      </trkpt>
      <trkpt lat="38.379650" lon="-1.337704">
        <ele>587.639741</ele>
        <time>2021-10-29T14:48:54.000Z</time>
      </trkpt>
      <trkpt lat="38.379550" lon="-1.337714">
        <ele>587.957794</ele>
        <time>2021-10-29T14:48:57.000Z</time>
      </trkpt>
      <trkpt lat="38.379486" lon="-1.337749">
        <ele>588.178588</ele>
        <time>2021-10-29T14:48:59.000Z</time>
      </trkpt>
      <trkpt lat="38.379410" lon="-1.337899">
        <ele>588.622534</ele>
        <time>2021-10-29T14:49:03.000Z</time>
      </trkpt>
      <trkpt lat="38.379408" lon="-1.337949">
        <ele>588.746978</ele>
        <time>2021-10-29T14:49:04.000Z</time>
      </trkpt>
      <trkpt lat="38.379424" lon="-1.338053">
        <ele>589.010417</ele>
        <time>2021-10-29T14:49:06.000Z</time>
      </trkpt>
      <trkpt lat="38.379437" lon="-1.338107">
        <ele>589.150829</ele>
        <time>2021-10-29T14:49:07.000Z</time>
      </trkpt>
      <trkpt lat="38.379484" lon="-1.338474">
        <ele>590.075155</ele>
        <time>2021-10-29T14:49:13.000Z</time>
      </trkpt>
      <trkpt lat="38.379473" lon="-1.338606">
        <ele>590.405110</ele>
        <time>2021-10-29T14:49:15.000Z</time>
      </trkpt>
      <trkpt lat="38.379430" lon="-1.338811">
        <ele>590.932594</ele>
        <time>2021-10-29T14:49:18.000Z</time>
      </trkpt>
      <trkpt lat="38.379391" lon="-1.338950">
        <ele>590.832522</ele>
        <time>2021-10-29T14:49:20.000Z</time>
      </trkpt>
      <trkpt lat="38.379365" lon="-1.339016">
        <ele>590.675887</ele>
        <time>2021-10-29T14:49:21.000Z</time>
      </trkpt>
      <trkpt lat="38.379269" lon="-1.339205">
        <ele>590.198325</ele>
        <time>2021-10-29T14:49:24.000Z</time>
      </trkpt>
      <trkpt lat="38.379185" lon="-1.339335">
        <ele>589.841076</ele>
        <time>2021-10-29T14:49:26.000Z</time>
      </trkpt>
      <trkpt lat="38.379034" lon="-1.339504">
        <ele>589.297682</ele>
        <time>2021-10-29T14:49:29.000Z</time>
      </trkpt>
      <trkpt lat="38.378966" lon="-1.339652">
        <ele>588.933905</ele>
        <time>2021-10-29T14:49:31.000Z</time>
      </trkpt>
      <trkpt lat="38.378957" lon="-1.339743">
        <ele>588.739404</ele>
        <time>2021-10-29T14:49:32.000Z</time>
      </trkpt>
      <trkpt lat="38.378959" lon="-1.339836">
        <ele>588.542117</ele>
        <time>2021-10-29T14:49:33.000Z</time>
      </trkpt>
      <trkpt lat="38.378969" lon="-1.339932">
        <ele>588.336754</ele>
        <time>2021-10-29T14:49:34.000Z</time>
      </trkpt>
      <trkpt lat="38.378998" lon="-1.340122">
        <ele>587.926281</ele>
        <time>2021-10-29T14:49:36.000Z</time>
      </trkpt>
      <trkpt lat="38.379019" lon="-1.340305">
        <ele>587.534082</ele>
        <time>2021-10-29T14:49:38.000Z</time>
      </trkpt>
      <trkpt lat="38.378999" lon="-1.340471">
        <ele>587.177935</ele>
        <time>2021-10-29T14:49:40.000Z</time>
      </trkpt>
      <trkpt lat="38.378912" lon="-1.340595">
        <ele>586.825049</ele>
        <time>2021-10-29T14:49:42.000Z</time>
      </trkpt>
      <trkpt lat="38.378857" lon="-1.340638">
        <ele>586.650551</ele>
        <time>2021-10-29T14:49:43.000Z</time>
      </trkpt>
      <trkpt lat="38.378747" lon="-1.340724">
        <ele>586.301553</ele>
        <time>2021-10-29T14:49:45.000Z</time>
      </trkpt>
      <trkpt lat="38.378674" lon="-1.340845">
        <ele>585.914451</ele>
        <time>2021-10-29T14:49:47.000Z</time>
      </trkpt>
      <trkpt lat="38.378668" lon="-1.340993">
        <ele>585.502778</ele>
        <time>2021-10-29T14:49:49.000Z</time>
      </trkpt>
      <trkpt lat="38.378758" lon="-1.341087">
        <ele>585.090598</ele>
        <time>2021-10-29T14:49:51.000Z</time>
      </trkpt>
      <trkpt lat="38.378821" lon="-1.341094">
        <ele>584.866511</ele>
        <time>2021-10-29T14:49:52.000Z</time>
      </trkpt>
      <trkpt lat="38.378958" lon="-1.341104">
        <ele>584.380252</ele>
        <time>2021-10-29T14:49:54.000Z</time>
      </trkpt>
      <trkpt lat="38.379100" lon="-1.341155">
        <ele>583.857507</ele>
        <time>2021-10-29T14:49:56.000Z</time>
      </trkpt>
      <trkpt lat="38.379213" lon="-1.341256">
        <ele>583.368579</ele>
        <time>2021-10-29T14:49:58.000Z</time>
      </trkpt>
      <trkpt lat="38.379248" lon="-1.341329">
        <ele>583.130877</ele>
        <time>2021-10-29T14:49:59.000Z</time>
      </trkpt>
      <trkpt lat="38.379271" lon="-1.341409">
        <ele>582.894175</ele>
        <time>2021-10-29T14:50:00.000Z</time>
      </trkpt>
      <trkpt lat="38.379297" lon="-1.341573">
        <ele>582.429387</ele>
        <time>2021-10-29T14:50:02.000Z</time>
      </trkpt>
      <trkpt lat="38.379305" lon="-1.341655">
        <ele>582.199847</ele>
        <time>2021-10-29T14:50:03.000Z</time>
      </trkpt>
      <trkpt lat="38.379309" lon="-1.341907">
        <ele>581.499688</ele>
        <time>2021-10-29T14:50:06.000Z</time>
      </trkpt>
      <trkpt lat="38.379283" lon="-1.342087">
        <ele>580.991260</ele>
        <time>2021-10-29T14:50:08.000Z</time>
      </trkpt>
      <trkpt lat="38.379260" lon="-1.342271">
        <ele>580.473680</ele>
        <time>2021-10-29T14:50:10.000Z</time>
      </trkpt>
      <trkpt lat="38.379262" lon="-1.342366">
        <ele>580.209690</ele>
        <time>2021-10-29T14:50:11.000Z</time>
      </trkpt>
      <trkpt lat="38.379276" lon="-1.342460">
        <ele>579.943902</ele>
        <time>2021-10-29T14:50:12.000Z</time>
      </trkpt>
      <trkpt lat="38.379357" lon="-1.342727">
        <ele>579.265548</ele>
        <time>2021-10-29T14:50:15.000Z</time>
      </trkpt>
      <trkpt lat="38.379385" lon="-1.342813">
        <ele>579.052706</ele>
        <time>2021-10-29T14:50:16.000Z</time>
      </trkpt>
      <trkpt lat="38.379405" lon="-1.342900">
        <ele>578.845483</ele>
        <time>2021-10-29T14:50:17.000Z</time>
      </trkpt>
      <trkpt lat="38.379414" lon="-1.343077">
        <ele>578.440078</ele>
        <time>2021-10-29T14:50:19.000Z</time>
      </trkpt>
      <trkpt lat="38.379405" lon="-1.343263">
        <ele>578.014143</ele>
        <time>2021-10-29T14:50:21.000Z</time>
      </trkpt>
      <trkpt lat="38.379384" lon="-1.343446">
        <ele>577.591417</ele>
        <time>2021-10-29T14:50:23.000Z</time>
      </trkpt>
      <trkpt lat="38.379361" lon="-1.343534">
        <ele>577.379397</ele>
        <time>2021-10-29T14:50:24.000Z</time>
      </trkpt>
      <trkpt lat="38.379329" lon="-1.343619">
        <ele>577.163877</ele>
        <time>2021-10-29T14:50:25.000Z</time>
      </trkpt>
      <trkpt lat="38.379288" lon="-1.343699">
        <ele>576.945419</ele>
        <time>2021-10-29T14:50:26.000Z</time>
      </trkpt>
      <trkpt lat="38.379201" lon="-1.343865">
        <ele>576.489021</ele>
        <time>2021-10-29T14:50:28.000Z</time>
      </trkpt>
      <trkpt lat="38.379139" lon="-1.344046">
        <ele>576.037552</ele>
        <time>2021-10-29T14:50:30.000Z</time>
      </trkpt>
      <trkpt lat="38.379125" lon="-1.344240">
        <ele>575.592265</ele>
        <time>2021-10-29T14:50:32.000Z</time>
      </trkpt>
      <trkpt lat="38.379163" lon="-1.344837">
        <ele>574.487330</ele>
        <time>2021-10-29T14:50:38.000Z</time>
      </trkpt>
      <trkpt lat="38.379162" lon="-1.345029">
        <ele>574.388268</ele>
        <time>2021-10-29T14:50:40.000Z</time>
      </trkpt>
      <trkpt lat="38.379162" lon="-1.345379">
        <ele>574.207689</ele>
        <time>2021-10-29T14:50:44.000Z</time>
      </trkpt>
      <trkpt lat="38.379128" lon="-1.345610">
        <ele>574.086425</ele>
        <time>2021-10-29T14:50:47.000Z</time>
      </trkpt>
      <trkpt lat="38.379070" lon="-1.345750">
        <ele>574.004727</ele>
        <time>2021-10-29T14:50:49.000Z</time>
      </trkpt>
      <trkpt lat="38.378974" lon="-1.345848">
        <ele>573.923804</ele>
        <time>2021-10-29T14:50:51.000Z</time>
      </trkpt>
      <trkpt lat="38.378913" lon="-1.345875">
        <ele>573.881309</ele>
        <time>2021-10-29T14:50:52.000Z</time>
      </trkpt>
      <trkpt lat="38.378848" lon="-1.345885">
        <ele>573.838219</ele>
        <time>2021-10-29T14:50:53.000Z</time>
      </trkpt>
      <trkpt lat="38.378778" lon="-1.345890">
        <ele>573.792076</ele>
        <time>2021-10-29T14:50:54.000Z</time>
      </trkpt>
      <trkpt lat="38.378706" lon="-1.345903">
        <ele>573.744217</ele>
        <time>2021-10-29T14:50:55.000Z</time>
      </trkpt>
      <trkpt lat="38.378637" lon="-1.345931">
        <ele>573.696562</ele>
        <time>2021-10-29T14:50:56.000Z</time>
      </trkpt>
      <trkpt lat="38.378274" lon="-1.346182">
        <ele>573.424812</ele>
        <time>2021-10-29T14:51:02.000Z</time>
      </trkpt>
      <trkpt lat="38.378169" lon="-1.346302">
        <ele>573.263525</ele>
        <time>2021-10-29T14:51:04.000Z</time>
      </trkpt>
      <trkpt lat="38.378085" lon="-1.346441">
        <ele>573.045105</ele>
        <time>2021-10-29T14:51:06.000Z</time>
      </trkpt>
      <trkpt lat="38.377895" lon="-1.346779">
        <ele>572.527492</ele>
        <time>2021-10-29T14:51:11.000Z</time>
      </trkpt>
      <trkpt lat="38.377863" lon="-1.346931">
        <ele>572.331623</ele>
        <time>2021-10-29T14:51:13.000Z</time>
      </trkpt>
      <trkpt lat="38.377905" lon="-1.347076">
        <ele>572.139244</ele>
        <time>2021-10-29T14:51:15.000Z</time>
      </trkpt>
      <trkpt lat="38.377950" lon="-1.347129">
        <ele>572.042012</ele>
        <time>2021-10-29T14:51:16.000Z</time>
      </trkpt>
      <trkpt lat="38.377998" lon="-1.347182">
        <ele>571.941229</ele>
        <time>2021-10-29T14:51:17.000Z</time>
      </trkpt>
      <trkpt lat="38.378056" lon="-1.347310">
        <ele>571.757234</ele>
        <time>2021-10-29T14:51:19.000Z</time>
      </trkpt>
      <trkpt lat="38.378037" lon="-1.347447">
        <ele>571.584089</ele>
        <time>2021-10-29T14:51:21.000Z</time>
      </trkpt>
      <trkpt lat="38.378009" lon="-1.347511">
        <ele>571.492876</ele>
        <time>2021-10-29T14:51:22.000Z</time>
      </trkpt>
      <trkpt lat="38.377970" lon="-1.347571">
        <ele>571.395876</ele>
        <time>2021-10-29T14:51:23.000Z</time>
      </trkpt>
      <trkpt lat="38.377798" lon="-1.347802">
        <ele>570.999384</ele>
        <time>2021-10-29T14:51:27.000Z</time>
      </trkpt>
      <trkpt lat="38.377672" lon="-1.347959">
        <ele>570.719762</ele>
        <time>2021-10-29T14:51:30.000Z</time>
      </trkpt>
      <trkpt lat="38.377491" lon="-1.348159">
        <ele>570.406595</ele>
        <time>2021-10-29T14:51:34.000Z</time>
      </trkpt>
      <trkpt lat="38.377212" lon="-1.348493">
        <ele>570.018487</ele>
        <time>2021-10-29T14:51:40.000Z</time>
      </trkpt>
      <trkpt lat="38.377136" lon="-1.348645">
        <ele>569.875127</ele>
        <time>2021-10-29T14:51:42.000Z</time>
      </trkpt>
      <trkpt lat="38.377105" lon="-1.348722">
        <ele>569.806295</ele>
        <time>2021-10-29T14:51:43.000Z</time>
      </trkpt>
      <trkpt lat="38.377041" lon="-1.348865">
        <ele>569.675358</ele>
        <time>2021-10-29T14:51:45.000Z</time>
      </trkpt>
      <trkpt lat="38.376953" lon="-1.348979">
        <ele>569.548136</ele>
        <time>2021-10-29T14:51:47.000Z</time>
      </trkpt>
      <trkpt lat="38.376848" lon="-1.349068">
        <ele>569.420261</ele>
        <time>2021-10-29T14:51:49.000Z</time>
      </trkpt>
      <trkpt lat="38.376611" lon="-1.349224">
        <ele>569.149742</ele>
        <time>2021-10-29T14:51:53.000Z</time>
      </trkpt>
      <trkpt lat="38.376558" lon="-1.349276">
        <ele>569.081919</ele>
        <time>2021-10-29T14:51:54.000Z</time>
      </trkpt>
      <trkpt lat="38.376512" lon="-1.349339">
        <ele>569.013459</ele>
        <time>2021-10-29T14:51:55.000Z</time>
      </trkpt>
      <trkpt lat="38.376458" lon="-1.349497">
        <ele>568.876398</ele>
        <time>2021-10-29T14:51:57.000Z</time>
      </trkpt>
      <trkpt lat="38.376315" lon="-1.350065">
        <ele>568.415746</ele>
        <time>2021-10-29T14:52:04.000Z</time>
      </trkpt>
      <trkpt lat="38.376129" lon="-1.350398">
        <ele>568.105563</ele>
        <time>2021-10-29T14:52:09.000Z</time>
      </trkpt>
      <trkpt lat="38.376048" lon="-1.350525">
        <ele>567.981361</ele>
        <time>2021-10-29T14:52:11.000Z</time>
      </trkpt>
      <trkpt lat="38.375754" lon="-1.350862">
        <ele>567.598868</ele>
        <time>2021-10-29T14:52:17.000Z</time>
      </trkpt>
      <trkpt lat="38.375383" lon="-1.351189">
        <ele>567.162485</ele>
        <time>2021-10-29T14:52:24.000Z</time>
      </trkpt>
      <trkpt lat="38.375263" lon="-1.351279">
        <ele>567.027778</ele>
        <time>2021-10-29T14:52:26.000Z</time>
      </trkpt>
      <trkpt lat="38.375208" lon="-1.351340">
        <ele>566.957187</ele>
        <time>2021-10-29T14:52:27.000Z</time>
      </trkpt>
      <trkpt lat="38.375159" lon="-1.351415">
        <ele>566.881532</ele>
        <time>2021-10-29T14:52:28.000Z</time>
      </trkpt>
      <trkpt lat="38.375096" lon="-1.351582">
        <ele>566.737918</ele>
        <time>2021-10-29T14:52:30.000Z</time>
      </trkpt>
      <trkpt lat="38.375077" lon="-1.351669">
        <ele>566.667934</ele>
        <time>2021-10-29T14:52:31.000Z</time>
      </trkpt>
      <trkpt lat="38.375009" lon="-1.352118">
        <ele>566.313565</ele>
        <time>2021-10-29T14:52:36.000Z</time>
      </trkpt>
      <trkpt lat="38.374996" lon="-1.352209">
        <ele>566.241887</ele>
        <time>2021-10-29T14:52:37.000Z</time>
      </trkpt>
      <trkpt lat="38.374898" lon="-1.352863">
        <ele>565.725918</ele>
        <time>2021-10-29T14:52:45.000Z</time>
      </trkpt>
      <trkpt lat="38.374872" lon="-1.353016">
        <ele>565.604602</ele>
        <time>2021-10-29T14:52:47.000Z</time>
      </trkpt>
      <trkpt lat="38.374829" lon="-1.353251">
        <ele>565.417603</ele>
        <time>2021-10-29T14:52:50.000Z</time>
      </trkpt>
      <trkpt lat="38.374834" lon="-1.353421">
        <ele>565.285775</ele>
        <time>2021-10-29T14:52:52.000Z</time>
      </trkpt>
      <trkpt lat="38.374879" lon="-1.353586">
        <ele>565.145411</ele>
        <time>2021-10-29T14:52:54.000Z</time>
      </trkpt>
      <trkpt lat="38.374949" lon="-1.353738">
        <ele>564.987448</ele>
        <time>2021-10-29T14:52:56.000Z</time>
      </trkpt>
      <trkpt lat="38.374976" lon="-1.353819">
        <ele>564.908579</ele>
        <time>2021-10-29T14:52:57.000Z</time>
      </trkpt>
      <trkpt lat="38.374989" lon="-1.353986">
        <ele>564.758201</ele>
        <time>2021-10-29T14:52:59.000Z</time>
      </trkpt>
      <trkpt lat="38.374938" lon="-1.354102">
        <ele>564.639029</ele>
        <time>2021-10-29T14:53:01.000Z</time>
      </trkpt>
      <trkpt lat="38.374895" lon="-1.354129">
        <ele>564.584248</ele>
        <time>2021-10-29T14:53:02.000Z</time>
      </trkpt>
      <trkpt lat="38.374844" lon="-1.354137">
        <ele>564.525517</ele>
        <time>2021-10-29T14:53:03.000Z</time>
      </trkpt>
      <trkpt lat="38.374733" lon="-1.354120">
        <ele>564.397735</ele>
        <time>2021-10-29T14:53:05.000Z</time>
      </trkpt>
      <trkpt lat="38.374567" lon="-1.354057">
        <ele>564.199779</ele>
        <time>2021-10-29T14:53:08.000Z</time>
      </trkpt>
      <trkpt lat="38.374403" lon="-1.353985">
        <ele>564.001538</ele>
        <time>2021-10-29T14:53:11.000Z</time>
      </trkpt>
      <trkpt lat="38.374104" lon="-1.353936">
        <ele>563.656977</ele>
        <time>2021-10-29T14:53:16.000Z</time>
      </trkpt>
      <trkpt lat="38.373929" lon="-1.353936">
        <ele>563.456955</ele>
        <time>2021-10-29T14:53:19.000Z</time>
      </trkpt>
      <trkpt lat="38.373696" lon="-1.353948">
        <ele>563.190423</ele>
        <time>2021-10-29T14:53:23.000Z</time>
      </trkpt>
      <trkpt lat="38.373571" lon="-1.353968">
        <ele>562.915228</ele>
        <time>2021-10-29T14:53:25.000Z</time>
      </trkpt>
      <trkpt lat="38.373449" lon="-1.354017">
        <ele>562.529418</ele>
        <time>2021-10-29T14:53:27.000Z</time>
      </trkpt>
      <trkpt lat="38.373398" lon="-1.354065">
        <ele>562.338238</ele>
        <time>2021-10-29T14:53:28.000Z</time>
      </trkpt>
      <trkpt lat="38.373360" lon="-1.354134">
        <ele>562.138832</ele>
        <time>2021-10-29T14:53:29.000Z</time>
      </trkpt>
      <trkpt lat="38.373342" lon="-1.354301">
        <ele>561.740197</ele>
        <time>2021-10-29T14:53:31.000Z</time>
      </trkpt>
      <trkpt lat="38.373438" lon="-1.354720">
        <ele>560.707904</ele>
        <time>2021-10-29T14:53:36.000Z</time>
      </trkpt>
      <trkpt lat="38.373478" lon="-1.354907">
        <ele>560.249525</ele>
        <time>2021-10-29T14:53:38.000Z</time>
      </trkpt>
      <trkpt lat="38.373539" lon="-1.355091">
        <ele>559.777100</ele>
        <time>2021-10-29T14:53:40.000Z</time>
      </trkpt>
      <trkpt lat="38.373560" lon="-1.355178">
        <ele>559.561833</ele>
        <time>2021-10-29T14:53:41.000Z</time>
      </trkpt>
      <trkpt lat="38.373544" lon="-1.355348">
        <ele>559.156933</ele>
        <time>2021-10-29T14:53:43.000Z</time>
      </trkpt>
      <trkpt lat="38.373465" lon="-1.355511">
        <ele>558.703763</ele>
        <time>2021-10-29T14:53:45.000Z</time>
      </trkpt>
      <trkpt lat="38.373418" lon="-1.355588">
        <ele>558.472993</ele>
        <time>2021-10-29T14:53:46.000Z</time>
      </trkpt>
      <trkpt lat="38.373333" lon="-1.355766">
        <ele>557.980122</ele>
        <time>2021-10-29T14:53:48.000Z</time>
      </trkpt>
      <trkpt lat="38.373299" lon="-1.355866">
        <ele>557.722362</ele>
        <time>2021-10-29T14:53:49.000Z</time>
      </trkpt>
      <trkpt lat="38.373271" lon="-1.355970">
        <ele>557.767607</ele>
        <time>2021-10-29T14:53:50.000Z</time>
      </trkpt>
      <trkpt lat="38.373220" lon="-1.356269">
        <ele>557.969218</ele>
        <time>2021-10-29T14:53:53.000Z</time>
      </trkpt>
      <trkpt lat="38.373189" lon="-1.356449">
        <ele>558.090643</ele>
        <time>2021-10-29T14:53:55.000Z</time>
      </trkpt>
      <trkpt lat="38.373137" lon="-1.356607">
        <ele>558.203546</ele>
        <time>2021-10-29T14:53:57.000Z</time>
      </trkpt>
      <trkpt lat="38.373067" lon="-1.356739">
        <ele>558.308545</ele>
        <time>2021-10-29T14:53:59.000Z</time>
      </trkpt>
      <trkpt lat="38.373031" lon="-1.356797">
        <ele>558.357286</ele>
        <time>2021-10-29T14:54:00.000Z</time>
      </trkpt>
      <trkpt lat="38.372915" lon="-1.356954">
        <ele>558.499429</ele>
        <time>2021-10-29T14:54:03.000Z</time>
      </trkpt>
      <trkpt lat="38.372833" lon="-1.357056">
        <ele>558.595687</ele>
        <time>2021-10-29T14:54:05.000Z</time>
      </trkpt>
      <trkpt lat="38.372535" lon="-1.357433">
        <ele>558.948423</ele>
        <time>2021-10-29T14:54:12.000Z</time>
      </trkpt>
      <trkpt lat="38.372326" lon="-1.357700">
        <ele>559.197019</ele>
        <time>2021-10-29T14:54:17.000Z</time>
      </trkpt>
      <trkpt lat="38.372289" lon="-1.357759">
        <ele>559.142678</ele>
        <time>2021-10-29T14:54:18.000Z</time>
      </trkpt>
      <trkpt lat="38.372257" lon="-1.357823">
        <ele>559.040015</ele>
        <time>2021-10-29T14:54:19.000Z</time>
      </trkpt>
      <trkpt lat="38.372141" lon="-1.358170">
        <ele>558.529825</ele>
        <time>2021-10-29T14:54:24.000Z</time>
      </trkpt>
      <trkpt lat="38.372063" lon="-1.358445">
        <ele>558.134304</ele>
        <time>2021-10-29T14:54:28.000Z</time>
      </trkpt>
      <trkpt lat="38.371964" lon="-1.358729">
        <ele>557.713944</ele>
        <time>2021-10-29T14:54:32.000Z</time>
      </trkpt>
      <trkpt lat="38.371878" lon="-1.358831">
        <ele>557.511358</ele>
        <time>2021-10-29T14:54:34.000Z</time>
      </trkpt>
      <trkpt lat="38.371822" lon="-1.358868">
        <ele>557.402561</ele>
        <time>2021-10-29T14:54:35.000Z</time>
      </trkpt>
      <trkpt lat="38.371634" lon="-1.358965">
        <ele>557.052713</ele>
        <time>2021-10-29T14:54:38.000Z</time>
      </trkpt>
      <trkpt lat="38.371440" lon="-1.359047">
        <ele>556.700147</ele>
        <time>2021-10-29T14:54:41.000Z</time>
      </trkpt>
      <trkpt lat="38.371198" lon="-1.359182">
        <ele>556.244491</ele>
        <time>2021-10-29T14:54:45.000Z</time>
      </trkpt>
      <trkpt lat="38.371149" lon="-1.359239">
        <ele>556.130086</ele>
        <time>2021-10-29T14:54:46.000Z</time>
      </trkpt>
      <trkpt lat="38.371113" lon="-1.359312">
        <ele>555.938019</ele>
        <time>2021-10-29T14:54:47.000Z</time>
      </trkpt>
      <trkpt lat="38.371087" lon="-1.359479">
        <ele>555.527575</ele>
        <time>2021-10-29T14:54:49.000Z</time>
      </trkpt>
      <trkpt lat="38.371136" lon="-1.359630">
        <ele>555.133614</ele>
        <time>2021-10-29T14:54:51.000Z</time>
      </trkpt>
      <trkpt lat="38.371178" lon="-1.359692">
        <ele>554.936087</ele>
        <time>2021-10-29T14:54:52.000Z</time>
      </trkpt>
      <trkpt lat="38.371411" lon="-1.359983">
        <ele>553.933398</ele>
        <time>2021-10-29T14:54:57.000Z</time>
      </trkpt>
      <trkpt lat="38.371445" lon="-1.360047">
        <ele>553.747031</ele>
        <time>2021-10-29T14:54:58.000Z</time>
      </trkpt>
      <trkpt lat="38.371472" lon="-1.360116">
        <ele>553.561128</ele>
        <time>2021-10-29T14:54:59.000Z</time>
      </trkpt>
      <trkpt lat="38.371491" lon="-1.360265">
        <ele>553.197218</ele>
        <time>2021-10-29T14:55:01.000Z</time>
      </trkpt>
      <trkpt lat="38.371466" lon="-1.360401">
        <ele>552.860477</ele>
        <time>2021-10-29T14:55:03.000Z</time>
      </trkpt>
      <trkpt lat="38.371406" lon="-1.360528">
        <ele>552.503031</ele>
        <time>2021-10-29T14:55:05.000Z</time>
      </trkpt>
      <trkpt lat="38.371365" lon="-1.360585">
        <ele>552.316553</ele>
        <time>2021-10-29T14:55:06.000Z</time>
      </trkpt>
      <trkpt lat="38.371277" lon="-1.360703">
        <ele>551.923956</ele>
        <time>2021-10-29T14:55:08.000Z</time>
      </trkpt>
      <trkpt lat="38.371244" lon="-1.360776">
        <ele>551.720819</ele>
        <time>2021-10-29T14:55:09.000Z</time>
      </trkpt>
      <trkpt lat="38.371225" lon="-1.360862">
        <ele>551.505427</ele>
        <time>2021-10-29T14:55:10.000Z</time>
      </trkpt>
      <trkpt lat="38.371257" lon="-1.361032">
        <ele>551.083966</ele>
        <time>2021-10-29T14:55:12.000Z</time>
      </trkpt>
      <trkpt lat="38.371305" lon="-1.361196">
        <ele>550.661964</ele>
        <time>2021-10-29T14:55:14.000Z</time>
      </trkpt>
      <trkpt lat="38.371300" lon="-1.361365">
        <ele>550.416998</ele>
        <time>2021-10-29T14:55:16.000Z</time>
      </trkpt>
      <trkpt lat="38.371245" lon="-1.361607">
        <ele>550.113648</ele>
        <time>2021-10-29T14:55:19.000Z</time>
      </trkpt>
      <trkpt lat="38.371169" lon="-1.361843">
        <ele>549.806481</ele>
        <time>2021-10-29T14:55:22.000Z</time>
      </trkpt>
      <trkpt lat="38.371099" lon="-1.361978">
        <ele>549.611617</ele>
        <time>2021-10-29T14:55:24.000Z</time>
      </trkpt>
      <trkpt lat="38.370995" lon="-1.362083">
        <ele>549.407934</ele>
        <time>2021-10-29T14:55:26.000Z</time>
      </trkpt>
      <trkpt lat="38.370807" lon="-1.362210">
        <ele>549.081244</ele>
        <time>2021-10-29T14:55:29.000Z</time>
      </trkpt>
      <trkpt lat="38.370748" lon="-1.362264">
        <ele>548.969729</ele>
        <time>2021-10-29T14:55:30.000Z</time>
      </trkpt>
      <trkpt lat="38.370689" lon="-1.362328">
        <ele>548.850792</ele>
        <time>2021-10-29T14:55:31.000Z</time>
      </trkpt>
      <trkpt lat="38.370631" lon="-1.362401">
        <ele>548.725663</ele>
        <time>2021-10-29T14:55:32.000Z</time>
      </trkpt>
      <trkpt lat="38.370523" lon="-1.362550">
        <ele>548.481355</ele>
        <time>2021-10-29T14:55:34.000Z</time>
      </trkpt>
      <trkpt lat="38.370436" lon="-1.362688">
        <ele>548.268156</ele>
        <time>2021-10-29T14:55:36.000Z</time>
      </trkpt>
      <trkpt lat="38.370359" lon="-1.362817">
        <ele>548.072956</ele>
        <time>2021-10-29T14:55:38.000Z</time>
      </trkpt>
      <trkpt lat="38.370321" lon="-1.362882">
        <ele>547.975338</ele>
        <time>2021-10-29T14:55:39.000Z</time>
      </trkpt>
      <trkpt lat="38.370243" lon="-1.363009">
        <ele>547.856584</ele>
        <time>2021-10-29T14:55:41.000Z</time>
      </trkpt>
      <trkpt lat="38.370168" lon="-1.363137">
        <ele>548.065506</ele>
        <time>2021-10-29T14:55:43.000Z</time>
      </trkpt>
      <trkpt lat="38.370096" lon="-1.363260">
        <ele>548.266198</ele>
        <time>2021-10-29T14:55:45.000Z</time>
      </trkpt>
      <trkpt lat="38.369995" lon="-1.363464">
        <ele>548.581641</ele>
        <time>2021-10-29T14:55:48.000Z</time>
      </trkpt>
      <trkpt lat="38.369915" lon="-1.363677">
        <ele>548.890429</ele>
        <time>2021-10-29T14:55:51.000Z</time>
      </trkpt>
      <trkpt lat="38.369864" lon="-1.363890">
        <ele>549.181609</ele>
        <time>2021-10-29T14:55:54.000Z</time>
      </trkpt>
      <trkpt lat="38.369787" lon="-1.364224">
        <ele>549.636778</ele>
        <time>2021-10-29T14:55:59.000Z</time>
      </trkpt>
      <trkpt lat="38.369773" lon="-1.364283">
        <ele>549.717372</ele>
        <time>2021-10-29T14:56:00.000Z</time>
      </trkpt>
      <trkpt lat="38.369717" lon="-1.364524">
        <ele>550.046011</ele>
        <time>2021-10-29T14:56:04.000Z</time>
      </trkpt>
      <trkpt lat="38.369689" lon="-1.364658">
        <ele>550.227323</ele>
        <time>2021-10-29T14:56:06.000Z</time>
      </trkpt>
      <trkpt lat="38.369650" lon="-1.364782">
        <ele>550.402003</ele>
        <time>2021-10-29T14:56:08.000Z</time>
      </trkpt>
      <trkpt lat="38.369628" lon="-1.364836">
        <ele>550.481568</ele>
        <time>2021-10-29T14:56:09.000Z</time>
      </trkpt>
      <trkpt lat="38.369564" lon="-1.364923">
        <ele>550.637545</ele>
        <time>2021-10-29T14:56:11.000Z</time>
      </trkpt>
      <trkpt lat="38.369476" lon="-1.364997">
        <ele>550.813317</ele>
        <time>2021-10-29T14:56:13.000Z</time>
      </trkpt>
      <trkpt lat="38.369427" lon="-1.365033">
        <ele>550.765796</ele>
        <time>2021-10-29T14:56:14.000Z</time>
      </trkpt>
      <trkpt lat="38.369273" lon="-1.365150">
        <ele>550.598413</ele>
        <time>2021-10-29T14:56:17.000Z</time>
      </trkpt>
      <trkpt lat="38.368956" lon="-1.365367">
        <ele>550.262461</ele>
        <time>2021-10-29T14:56:23.000Z</time>
      </trkpt>
      <trkpt lat="38.368904" lon="-1.365410">
        <ele>550.204591</ele>
        <time>2021-10-29T14:56:24.000Z</time>
      </trkpt>
      <trkpt lat="38.368810" lon="-1.365517">
        <ele>550.086941</ele>
        <time>2021-10-29T14:56:26.000Z</time>
      </trkpt>
      <trkpt lat="38.368772" lon="-1.365582">
        <ele>550.027580</ele>
        <time>2021-10-29T14:56:27.000Z</time>
      </trkpt>
      <trkpt lat="38.368669" lon="-1.365778">
        <ele>549.854831</ele>
        <time>2021-10-29T14:56:30.000Z</time>
      </trkpt>
      <trkpt lat="38.368574" lon="-1.365880">
        <ele>549.738873</ele>
        <time>2021-10-29T14:56:32.000Z</time>
      </trkpt>
      <trkpt lat="38.368297" lon="-1.366037">
        <ele>549.455822</ele>
        <time>2021-10-29T14:56:37.000Z</time>
      </trkpt>
      <trkpt lat="38.368033" lon="-1.366189">
        <ele>549.185345</ele>
        <time>2021-10-29T14:56:42.000Z</time>
      </trkpt>
      <trkpt lat="38.367928" lon="-1.366245">
        <ele>549.076173</ele>
        <time>2021-10-29T14:56:44.000Z</time>
      </trkpt>
      <trkpt lat="38.367876" lon="-1.366274">
        <ele>549.020534</ele>
        <time>2021-10-29T14:56:45.000Z</time>
      </trkpt>
      <trkpt lat="38.367604" lon="-1.366430">
        <ele>548.728152</ele>
        <time>2021-10-29T14:56:50.000Z</time>
      </trkpt>
      <trkpt lat="38.367453" lon="-1.366542">
        <ele>548.556903</ele>
        <time>2021-10-29T14:56:53.000Z</time>
      </trkpt>
      <trkpt lat="38.367248" lon="-1.366761">
        <ele>548.294741</ele>
        <time>2021-10-29T14:56:58.000Z</time>
      </trkpt>
      <trkpt lat="38.367178" lon="-1.366859">
        <ele>548.192839</ele>
        <time>2021-10-29T14:57:00.000Z</time>
      </trkpt>
      <trkpt lat="38.367035" lon="-1.367058">
        <ele>547.985349</ele>
        <time>2021-10-29T14:57:04.000Z</time>
      </trkpt>
      <trkpt lat="38.366955" lon="-1.367158">
        <ele>547.875532</ele>
        <time>2021-10-29T14:57:06.000Z</time>
      </trkpt>
      <trkpt lat="38.366866" lon="-1.367262">
        <ele>547.757195</ele>
        <time>2021-10-29T14:57:08.000Z</time>
      </trkpt>
      <trkpt lat="38.366819" lon="-1.367320">
        <ele>547.693080</ele>
        <time>2021-10-29T14:57:09.000Z</time>
      </trkpt>
      <trkpt lat="38.366725" lon="-1.367442">
        <ele>547.561601</ele>
        <time>2021-10-29T14:57:11.000Z</time>
      </trkpt>
      <trkpt lat="38.366541" lon="-1.367697">
        <ele>547.015483</ele>
        <time>2021-10-29T14:57:15.000Z</time>
      </trkpt>
      <trkpt lat="38.366260" lon="-1.368184">
        <ele>544.896033</ele>
        <time>2021-10-29T14:57:22.000Z</time>
      </trkpt>
      <trkpt lat="38.366030" lon="-1.368635">
        <ele>543.010206</ele>
        <time>2021-10-29T14:57:28.000Z</time>
      </trkpt>
      <trkpt lat="38.365952" lon="-1.368811">
        <ele>542.301558</ele>
        <time>2021-10-29T14:57:30.000Z</time>
      </trkpt>
      <trkpt lat="38.365876" lon="-1.368992">
        <ele>541.581864</ele>
        <time>2021-10-29T14:57:32.000Z</time>
      </trkpt>
      <trkpt lat="38.365801" lon="-1.369168">
        <ele>540.879717</ele>
        <time>2021-10-29T14:57:34.000Z</time>
      </trkpt>
      <trkpt lat="38.365767" lon="-1.369252">
        <ele>540.548359</ele>
        <time>2021-10-29T14:57:35.000Z</time>
      </trkpt>
      <trkpt lat="38.365602" lon="-1.369660">
        <ele>538.898683</ele>
        <time>2021-10-29T14:57:40.000Z</time>
      </trkpt>
      <trkpt lat="38.365572" lon="-1.369744">
        <ele>538.541835</ele>
        <time>2021-10-29T14:57:41.000Z</time>
      </trkpt>
      <trkpt lat="38.365470" lon="-1.370004">
        <ele>537.417866</ele>
        <time>2021-10-29T14:57:44.000Z</time>
      </trkpt>
      <trkpt lat="38.365357" lon="-1.370289">
        <ele>536.183181</ele>
        <time>2021-10-29T14:57:47.000Z</time>
      </trkpt>
      <trkpt lat="38.365316" lon="-1.370384">
        <ele>535.763945</ele>
        <time>2021-10-29T14:57:48.000Z</time>
      </trkpt>
      <trkpt lat="38.365242" lon="-1.370575">
        <ele>534.940302</ele>
        <time>2021-10-29T14:57:50.000Z</time>
      </trkpt>
      <trkpt lat="38.365206" lon="-1.370673">
        <ele>534.521909</ele>
        <time>2021-10-29T14:57:51.000Z</time>
      </trkpt>
      <trkpt lat="38.365100" lon="-1.370952">
        <ele>533.323323</ele>
        <time>2021-10-29T14:57:54.000Z</time>
      </trkpt>
      <trkpt lat="38.365003" lon="-1.371216">
        <ele>532.196179</ele>
        <time>2021-10-29T14:57:57.000Z</time>
      </trkpt>
      <trkpt lat="38.364964" lon="-1.371295">
        <ele>531.835265</ele>
        <time>2021-10-29T14:57:58.000Z</time>
      </trkpt>
      <trkpt lat="38.364918" lon="-1.371369">
        <ele>531.470174</ele>
        <time>2021-10-29T14:57:59.000Z</time>
      </trkpt>
      <trkpt lat="38.364828" lon="-1.371526">
        <ele>530.718281</ele>
        <time>2021-10-29T14:58:01.000Z</time>
      </trkpt>
      <trkpt lat="38.364738" lon="-1.371695">
        <ele>530.336407</ele>
        <time>2021-10-29T14:58:03.000Z</time>
      </trkpt>
      <trkpt lat="38.364699" lon="-1.371784">
        <ele>530.242394</ele>
        <time>2021-10-29T14:58:04.000Z</time>
      </trkpt>
      <trkpt lat="38.364577" lon="-1.372037">
        <ele>529.968517</ele>
        <time>2021-10-29T14:58:07.000Z</time>
      </trkpt>
      <trkpt lat="38.364497" lon="-1.372204">
        <ele>529.788062</ele>
        <time>2021-10-29T14:58:09.000Z</time>
      </trkpt>
      <trkpt lat="38.364282" lon="-1.372647">
        <ele>529.307653</ele>
        <time>2021-10-29T14:58:15.000Z</time>
      </trkpt>
      <trkpt lat="38.364218" lon="-1.372793">
        <ele>529.153416</ele>
        <time>2021-10-29T14:58:17.000Z</time>
      </trkpt>
      <trkpt lat="38.364013" lon="-1.373217">
        <ele>528.694092</ele>
        <time>2021-10-29T14:58:23.000Z</time>
      </trkpt>
      <trkpt lat="38.363978" lon="-1.373289">
        <ele>528.615977</ele>
        <time>2021-10-29T14:58:24.000Z</time>
      </trkpt>
      <trkpt lat="38.363944" lon="-1.373360">
        <ele>528.539263</ele>
        <time>2021-10-29T14:58:25.000Z</time>
      </trkpt>
      <trkpt lat="38.363877" lon="-1.373502">
        <ele>528.386446</ele>
        <time>2021-10-29T14:58:27.000Z</time>
      </trkpt>
      <trkpt lat="38.363710" lon="-1.373842">
        <ele>527.935790</ele>
        <time>2021-10-29T14:58:32.000Z</time>
      </trkpt>
      <trkpt lat="38.363413" lon="-1.374421">
        <ele>527.142907</ele>
        <time>2021-10-29T14:58:41.000Z</time>
      </trkpt>
      <trkpt lat="38.363137" lon="-1.374970">
        <ele>526.395561</ele>
        <time>2021-10-29T14:58:49.000Z</time>
      </trkpt>
      <trkpt lat="38.362874" lon="-1.375469">
        <ele>525.693181</ele>
        <time>2021-10-29T14:58:56.000Z</time>
      </trkpt>
      <trkpt lat="38.362829" lon="-1.375537">
        <ele>525.491354</ele>
        <time>2021-10-29T14:58:57.000Z</time>
      </trkpt>
      <trkpt lat="38.362730" lon="-1.375672">
        <ele>525.072095</ele>
        <time>2021-10-29T14:58:59.000Z</time>
      </trkpt>
      <trkpt lat="38.362565" lon="-1.375870">
        <ele>524.416722</ele>
        <time>2021-10-29T14:59:02.000Z</time>
      </trkpt>
      <trkpt lat="38.362508" lon="-1.375939">
        <ele>524.189386</ele>
        <time>2021-10-29T14:59:03.000Z</time>
      </trkpt>
      <trkpt lat="38.362400" lon="-1.376081">
        <ele>523.740672</ele>
        <time>2021-10-29T14:59:05.000Z</time>
      </trkpt>
      <trkpt lat="38.362288" lon="-1.376219">
        <ele>523.290177</ele>
        <time>2021-10-29T14:59:07.000Z</time>
      </trkpt>
      <trkpt lat="38.362166" lon="-1.376344">
        <ele>522.837477</ele>
        <time>2021-10-29T14:59:09.000Z</time>
      </trkpt>
      <trkpt lat="38.361911" lon="-1.376570">
        <ele>521.939197</ele>
        <time>2021-10-29T14:59:13.000Z</time>
      </trkpt>
      <trkpt lat="38.361787" lon="-1.376680">
        <ele>521.502254</ele>
        <time>2021-10-29T14:59:15.000Z</time>
      </trkpt>
      <trkpt lat="38.361724" lon="-1.376735">
        <ele>521.281401</ele>
        <time>2021-10-29T14:59:16.000Z</time>
      </trkpt>
      <trkpt lat="38.361535" lon="-1.376900">
        <ele>520.618843</ele>
        <time>2021-10-29T14:59:19.000Z</time>
      </trkpt>
      <trkpt lat="38.361473" lon="-1.376958">
        <ele>520.574247</ele>
        <time>2021-10-29T14:59:20.000Z</time>
      </trkpt>
      <trkpt lat="38.361345" lon="-1.377071">
        <ele>520.787187</ele>
        <time>2021-10-29T14:59:22.000Z</time>
      </trkpt>
      <trkpt lat="38.361213" lon="-1.377182">
        <ele>521.003460</ele>
        <time>2021-10-29T14:59:24.000Z</time>
      </trkpt>
      <trkpt lat="38.361017" lon="-1.377354">
        <ele>521.328896</ele>
        <time>2021-10-29T14:59:27.000Z</time>
      </trkpt>
      <trkpt lat="38.360838" lon="-1.377518">
        <ele>521.630374</ele>
        <time>2021-10-29T14:59:30.000Z</time>
      </trkpt>
      <trkpt lat="38.360622" lon="-1.377750">
        <ele>522.016652</ele>
        <time>2021-10-29T14:59:35.000Z</time>
      </trkpt>
      <trkpt lat="38.360511" lon="-1.377868">
        <ele>522.214315</ele>
        <time>2021-10-29T14:59:38.000Z</time>
      </trkpt>
      <trkpt lat="38.360437" lon="-1.377942">
        <ele>522.342942</ele>
        <time>2021-10-29T14:59:40.000Z</time>
      </trkpt>
      <trkpt lat="38.360364" lon="-1.378016">
        <ele>522.470497</ele>
        <time>2021-10-29T14:59:42.000Z</time>
      </trkpt>
      <trkpt lat="38.360327" lon="-1.378052">
        <ele>522.534154</ele>
        <time>2021-10-29T14:59:43.000Z</time>
      </trkpt>
      <trkpt lat="38.360252" lon="-1.378125">
        <ele>522.663208</ele>
        <time>2021-10-29T14:59:45.000Z</time>
      </trkpt>
      <trkpt lat="38.360104" lon="-1.378264">
        <ele>522.914622</ele>
        <time>2021-10-29T14:59:49.000Z</time>
      </trkpt>
      <trkpt lat="38.359989" lon="-1.378368">
        <ele>522.742578</ele>
        <time>2021-10-29T14:59:52.000Z</time>
      </trkpt>
      <trkpt lat="38.359699" lon="-1.378623">
        <ele>521.872427</ele>
        <time>2021-10-29T14:59:59.000Z</time>
      </trkpt>
      <trkpt lat="38.359658" lon="-1.378673">
        <ele>521.732292</ele>
        <time>2021-10-29T15:00:00.000Z</time>
      </trkpt>
      <trkpt lat="38.359558" lon="-1.378858">
        <ele>521.297052</ele>
        <time>2021-10-29T15:00:03.000Z</time>
      </trkpt>
      <trkpt lat="38.359480" lon="-1.379089">
        <ele>520.809881</ele>
        <time>2021-10-29T15:00:06.000Z</time>
      </trkpt>
      <trkpt lat="38.359454" lon="-1.379171">
        <ele>520.638552</ele>
        <time>2021-10-29T15:00:07.000Z</time>
      </trkpt>
      <trkpt lat="38.359429" lon="-1.379252">
        <ele>520.469938</ele>
        <time>2021-10-29T15:00:08.000Z</time>
      </trkpt>
      <trkpt lat="38.359405" lon="-1.379335">
        <ele>520.298583</ele>
        <time>2021-10-29T15:00:09.000Z</time>
      </trkpt>
      <trkpt lat="38.359383" lon="-1.379420">
        <ele>520.125200</ele>
        <time>2021-10-29T15:00:10.000Z</time>
      </trkpt>
      <trkpt lat="38.359281" lon="-1.379767">
        <ele>519.407381</ele>
        <time>2021-10-29T15:00:14.000Z</time>
      </trkpt>
      <trkpt lat="38.359230" lon="-1.379931">
        <ele>519.065641</ele>
        <time>2021-10-29T15:00:16.000Z</time>
      </trkpt>
      <trkpt lat="38.359101" lon="-1.380338">
        <ele>518.047497</ele>
        <time>2021-10-29T15:00:21.000Z</time>
      </trkpt>
      <trkpt lat="38.359006" lon="-1.380565">
        <ele>517.286901</ele>
        <time>2021-10-29T15:00:24.000Z</time>
      </trkpt>
      <trkpt lat="38.358766" lon="-1.381087">
        <ele>515.498191</ele>
        <time>2021-10-29T15:00:31.000Z</time>
      </trkpt>
      <trkpt lat="38.358663" lon="-1.381300">
        <ele>514.758465</ele>
        <time>2021-10-29T15:00:34.000Z</time>
      </trkpt>
      <trkpt lat="38.358593" lon="-1.381441">
        <ele>514.265157</ele>
        <time>2021-10-29T15:00:36.000Z</time>
      </trkpt>
      <trkpt lat="38.358444" lon="-1.381729">
        <ele>513.245226</ele>
        <time>2021-10-29T15:00:40.000Z</time>
      </trkpt>
      <trkpt lat="38.358328" lon="-1.381956">
        <ele>512.444299</ele>
        <time>2021-10-29T15:00:43.000Z</time>
      </trkpt>
      <trkpt lat="38.358266" lon="-1.382146">
        <ele>511.835966</ele>
        <time>2021-10-29T15:00:45.000Z</time>
      </trkpt>
      <trkpt lat="38.358242" lon="-1.382253">
        <ele>511.398067</ele>
        <time>2021-10-29T15:00:46.000Z</time>
      </trkpt>
      <trkpt lat="38.358224" lon="-1.382367">
        <ele>510.902685</ele>
        <time>2021-10-29T15:00:47.000Z</time>
      </trkpt>
      <trkpt lat="38.358215" lon="-1.382481">
        <ele>510.414596</ele>
        <time>2021-10-29T15:00:48.000Z</time>
      </trkpt>
      <trkpt lat="38.358212" lon="-1.382597">
        <ele>509.920173</ele>
        <time>2021-10-29T15:00:49.000Z</time>
      </trkpt>
      <trkpt lat="38.358210" lon="-1.382711">
        <ele>509.434417</ele>
        <time>2021-10-29T15:00:50.000Z</time>
      </trkpt>
      <trkpt lat="38.358204" lon="-1.382934">
        <ele>508.483889</ele>
        <time>2021-10-29T15:00:52.000Z</time>
      </trkpt>
      <trkpt lat="38.358187" lon="-1.383382">
        <ele>506.573198</ele>
        <time>2021-10-29T15:00:56.000Z</time>
      </trkpt>
      <trkpt lat="38.358180" lon="-1.383494">
        <ele>506.094570</ele>
        <time>2021-10-29T15:00:57.000Z</time>
      </trkpt>
      <trkpt lat="38.358172" lon="-1.383717">
        <ele>505.143607</ele>
        <time>2021-10-29T15:00:59.000Z</time>
      </trkpt>
      <trkpt lat="38.358149" lon="-1.384049">
        <ele>503.723794</ele>
        <time>2021-10-29T15:01:02.000Z</time>
      </trkpt>
      <trkpt lat="38.358144" lon="-1.384154">
        <ele>503.275675</ele>
        <time>2021-10-29T15:01:03.000Z</time>
      </trkpt>
      <trkpt lat="38.358138" lon="-1.384259">
        <ele>502.827194</ele>
        <time>2021-10-29T15:01:04.000Z</time>
      </trkpt>
      <trkpt lat="38.358132" lon="-1.384359">
        <ele>502.399953</ele>
        <time>2021-10-29T15:01:05.000Z</time>
      </trkpt>
      <trkpt lat="38.358109" lon="-1.384640">
        <ele>501.706298</ele>
        <time>2021-10-29T15:01:08.000Z</time>
      </trkpt>
      <trkpt lat="38.358099" lon="-1.384734">
        <ele>501.564277</ele>
        <time>2021-10-29T15:01:09.000Z</time>
      </trkpt>
      <trkpt lat="38.358077" lon="-1.384912">
        <ele>501.294494</ele>
        <time>2021-10-29T15:01:11.000Z</time>
      </trkpt>
      <trkpt lat="38.358055" lon="-1.384997">
        <ele>501.160483</ele>
        <time>2021-10-29T15:01:12.000Z</time>
      </trkpt>
      <trkpt lat="38.358030" lon="-1.385081">
        <ele>501.025969</ele>
        <time>2021-10-29T15:01:13.000Z</time>
      </trkpt>
      <trkpt lat="38.357999" lon="-1.385159">
        <ele>500.895049</ele>
        <time>2021-10-29T15:01:14.000Z</time>
      </trkpt>
      <trkpt lat="38.357830" lon="-1.385521">
        <ele>500.264299</ele>
        <time>2021-10-29T15:01:19.000Z</time>
      </trkpt>
      <trkpt lat="38.357794" lon="-1.385592">
        <ele>500.137715</ele>
        <time>2021-10-29T15:01:20.000Z</time>
      </trkpt>
      <trkpt lat="38.357563" lon="-1.386056">
        <ele>499.314855</ele>
        <time>2021-10-29T15:01:26.000Z</time>
      </trkpt>
      <trkpt lat="38.357471" lon="-1.386224">
        <ele>499.008068</ele>
        <time>2021-10-29T15:01:28.000Z</time>
      </trkpt>
      <trkpt lat="38.357326" lon="-1.386490">
        <ele>498.510746</ele>
        <time>2021-10-29T15:01:31.000Z</time>
      </trkpt>
      <trkpt lat="38.357223" lon="-1.386674">
        <ele>498.008701</ele>
        <time>2021-10-29T15:01:33.000Z</time>
      </trkpt>
      <trkpt lat="38.357172" lon="-1.386766">
        <ele>497.758498</ele>
        <time>2021-10-29T15:01:34.000Z</time>
      </trkpt>
      <trkpt lat="38.357024" lon="-1.387048">
        <ele>497.004937</ele>
        <time>2021-10-29T15:01:37.000Z</time>
      </trkpt>
      <trkpt lat="38.356892" lon="-1.387329">
        <ele>496.277510</ele>
        <time>2021-10-29T15:01:40.000Z</time>
      </trkpt>
      <trkpt lat="38.356772" lon="-1.387597">
        <ele>495.592164</ele>
        <time>2021-10-29T15:01:43.000Z</time>
      </trkpt>
      <trkpt lat="38.356654" lon="-1.387850">
        <ele>494.938449</ele>
        <time>2021-10-29T15:01:46.000Z</time>
      </trkpt>
      <trkpt lat="38.356581" lon="-1.388022">
        <ele>494.504124</ele>
        <time>2021-10-29T15:01:48.000Z</time>
      </trkpt>
      <trkpt lat="38.356403" lon="-1.388540">
        <ele>493.289026</ele>
        <time>2021-10-29T15:01:54.000Z</time>
      </trkpt>
      <trkpt lat="38.356317" lon="-1.388801">
        <ele>492.784624</ele>
        <time>2021-10-29T15:01:57.000Z</time>
      </trkpt>
      <trkpt lat="38.356224" lon="-1.389058">
        <ele>492.280328</ele>
        <time>2021-10-29T15:02:00.000Z</time>
      </trkpt>
      <trkpt lat="38.356159" lon="-1.389238">
        <ele>491.927255</ele>
        <time>2021-10-29T15:02:02.000Z</time>
      </trkpt>
      <trkpt lat="38.356027" lon="-1.389607">
        <ele>491.204636</ele>
        <time>2021-10-29T15:02:06.000Z</time>
      </trkpt>
      <trkpt lat="38.355926" lon="-1.389888">
        <ele>490.653896</ele>
        <time>2021-10-29T15:02:09.000Z</time>
      </trkpt>
      <trkpt lat="38.355853" lon="-1.390065">
        <ele>490.297580</ele>
        <time>2021-10-29T15:02:11.000Z</time>
      </trkpt>
      <trkpt lat="38.355751" lon="-1.390210">
        <ele>489.950519</ele>
        <time>2021-10-29T15:02:13.000Z</time>
      </trkpt>
      <trkpt lat="38.355688" lon="-1.390270">
        <ele>489.771866</ele>
        <time>2021-10-29T15:02:14.000Z</time>
      </trkpt>
      <trkpt lat="38.355624" lon="-1.390327">
        <ele>489.594500</ele>
        <time>2021-10-29T15:02:15.000Z</time>
      </trkpt>
      <trkpt lat="38.355377" lon="-1.390523">
        <ele>489.414777</ele>
        <time>2021-10-29T15:02:19.000Z</time>
      </trkpt>
      <trkpt lat="38.355322" lon="-1.390563">
        <ele>489.430212</ele>
        <time>2021-10-29T15:02:20.000Z</time>
      </trkpt>
      <trkpt lat="38.354983" lon="-1.390747">
        <ele>489.520021</ele>
        <time>2021-10-29T15:02:26.000Z</time>
      </trkpt>
      <trkpt lat="38.354575" lon="-1.390852">
        <ele>489.621482</ele>
        <time>2021-10-29T15:02:32.000Z</time>
      </trkpt>
      <trkpt lat="38.354511" lon="-1.390871">
        <ele>489.637500</ele>
        <time>2021-10-29T15:02:33.000Z</time>
      </trkpt>
      <trkpt lat="38.354317" lon="-1.390929">
        <ele>489.686073</ele>
        <time>2021-10-29T15:02:36.000Z</time>
      </trkpt>
      <trkpt lat="38.353931" lon="-1.391028">
        <ele>489.782050</ele>
        <time>2021-10-29T15:02:42.000Z</time>
      </trkpt>
      <trkpt lat="38.353525" lon="-1.391121">
        <ele>488.384004</ele>
        <time>2021-10-29T15:02:49.000Z</time>
      </trkpt>
      <trkpt lat="38.353195" lon="-1.391245">
        <ele>486.814471</ele>
        <time>2021-10-29T15:02:54.000Z</time>
      </trkpt>
      <trkpt lat="38.353034" lon="-1.391400">
        <ele>485.894127</ele>
        <time>2021-10-29T15:02:57.000Z</time>
      </trkpt>
      <trkpt lat="38.352983" lon="-1.391458">
        <ele>485.582365</ele>
        <time>2021-10-29T15:02:58.000Z</time>
      </trkpt>
      <trkpt lat="38.352874" lon="-1.391571">
        <ele>484.941481</ele>
        <time>2021-10-29T15:03:00.000Z</time>
      </trkpt>
      <trkpt lat="38.352810" lon="-1.391620">
        <ele>484.600914</ele>
        <time>2021-10-29T15:03:01.000Z</time>
      </trkpt>
      <trkpt lat="38.352675" lon="-1.391720">
        <ele>483.888641</ele>
        <time>2021-10-29T15:03:03.000Z</time>
      </trkpt>
      <trkpt lat="38.352608" lon="-1.391778">
        <ele>483.519192</ele>
        <time>2021-10-29T15:03:04.000Z</time>
      </trkpt>
      <trkpt lat="38.352398" lon="-1.391977">
        <ele>482.325548</ele>
        <time>2021-10-29T15:03:07.000Z</time>
      </trkpt>
      <trkpt lat="38.352257" lon="-1.392110">
        <ele>481.508935</ele>
        <time>2021-10-29T15:03:09.000Z</time>
      </trkpt>
      <trkpt lat="38.352185" lon="-1.392173">
        <ele>481.023502</ele>
        <time>2021-10-29T15:03:10.000Z</time>
      </trkpt>
      <trkpt lat="38.351987" lon="-1.392355">
        <ele>479.666613</ele>
        <time>2021-10-29T15:03:13.000Z</time>
      </trkpt>
      <trkpt lat="38.351861" lon="-1.392473">
        <ele>478.797541</ele>
        <time>2021-10-29T15:03:15.000Z</time>
      </trkpt>
      <trkpt lat="38.351603" lon="-1.392694">
        <ele>477.069701</ele>
        <time>2021-10-29T15:03:19.000Z</time>
      </trkpt>
      <trkpt lat="38.351396" lon="-1.392849">
        <ele>475.735210</ele>
        <time>2021-10-29T15:03:22.000Z</time>
      </trkpt>
      <trkpt lat="38.351260" lon="-1.392953">
        <ele>474.853627</ele>
        <time>2021-10-29T15:03:24.000Z</time>
      </trkpt>
      <trkpt lat="38.351124" lon="-1.393083">
        <ele>473.908732</ele>
        <time>2021-10-29T15:03:26.000Z</time>
      </trkpt>
      <trkpt lat="38.351060" lon="-1.393162">
        <ele>473.413549</ele>
        <time>2021-10-29T15:03:27.000Z</time>
      </trkpt>
      <trkpt lat="38.351000" lon="-1.393250">
        <ele>472.905175</ele>
        <time>2021-10-29T15:03:28.000Z</time>
      </trkpt>
      <trkpt lat="38.350879" lon="-1.393432">
        <ele>471.864956</ele>
        <time>2021-10-29T15:03:30.000Z</time>
      </trkpt>
      <trkpt lat="38.350738" lon="-1.393612">
        <ele>471.158624</ele>
        <time>2021-10-29T15:03:32.000Z</time>
      </trkpt>
      <trkpt lat="38.350602" lon="-1.393795">
        <ele>470.582859</ele>
        <time>2021-10-29T15:03:34.000Z</time>
      </trkpt>
      <trkpt lat="38.350545" lon="-1.393896">
        <ele>470.298686</ele>
        <time>2021-10-29T15:03:35.000Z</time>
      </trkpt>
      <trkpt lat="38.350495" lon="-1.394005">
        <ele>470.010303</ele>
        <time>2021-10-29T15:03:36.000Z</time>
      </trkpt>
      <trkpt lat="38.350450" lon="-1.394118">
        <ele>469.720877</ele>
        <time>2021-10-29T15:03:37.000Z</time>
      </trkpt>
      <trkpt lat="38.350414" lon="-1.394233">
        <ele>469.438098</ele>
        <time>2021-10-29T15:03:38.000Z</time>
      </trkpt>
      <trkpt lat="38.350368" lon="-1.394472">
        <ele>468.876089</ele>
        <time>2021-10-29T15:03:40.000Z</time>
      </trkpt>
      <trkpt lat="38.350363" lon="-1.394715">
        <ele>468.320951</ele>
        <time>2021-10-29T15:03:42.000Z</time>
      </trkpt>
      <trkpt lat="38.350389" lon="-1.394954">
        <ele>467.769913</ele>
        <time>2021-10-29T15:03:44.000Z</time>
      </trkpt>
      <trkpt lat="38.350444" lon="-1.395404">
        <ele>466.729829</ele>
        <time>2021-10-29T15:03:48.000Z</time>
      </trkpt>
      <trkpt lat="38.350465" lon="-1.395608">
        <ele>466.150271</ele>
        <time>2021-10-29T15:03:50.000Z</time>
      </trkpt>
      <trkpt lat="38.350488" lon="-1.395812">
        <ele>465.183475</ele>
        <time>2021-10-29T15:03:52.000Z</time>
      </trkpt>
      <trkpt lat="38.350510" lon="-1.396017">
        <ele>464.212864</ele>
        <time>2021-10-29T15:03:54.000Z</time>
      </trkpt>
      <trkpt lat="38.350532" lon="-1.396315">
        <ele>462.808775</ele>
        <time>2021-10-29T15:03:57.000Z</time>
      </trkpt>
      <trkpt lat="38.350535" lon="-1.396415">
        <ele>462.339335</ele>
        <time>2021-10-29T15:03:58.000Z</time>
      </trkpt>
      <trkpt lat="38.350552" lon="-1.396704">
        <ele>460.979838</ele>
        <time>2021-10-29T15:04:01.000Z</time>
      </trkpt>
      <trkpt lat="38.350568" lon="-1.396901">
        <ele>460.050775</ele>
        <time>2021-10-29T15:04:03.000Z</time>
      </trkpt>
      <trkpt lat="38.350577" lon="-1.397002">
        <ele>459.573939</ele>
        <time>2021-10-29T15:04:04.000Z</time>
      </trkpt>
      <trkpt lat="38.350588" lon="-1.397104">
        <ele>459.090958</ele>
        <time>2021-10-29T15:04:05.000Z</time>
      </trkpt>
      <trkpt lat="38.350603" lon="-1.397207">
        <ele>458.599528</ele>
        <time>2021-10-29T15:04:06.000Z</time>
      </trkpt>
      <trkpt lat="38.350638" lon="-1.397412">
        <ele>457.615356</ele>
        <time>2021-10-29T15:04:08.000Z</time>
      </trkpt>
      <trkpt lat="38.350678" lon="-1.397607">
        <ele>456.669845</ele>
        <time>2021-10-29T15:04:10.000Z</time>
      </trkpt>
      <trkpt lat="38.350719" lon="-1.397790">
        <ele>455.777055</ele>
        <time>2021-10-29T15:04:12.000Z</time>
      </trkpt>
      <trkpt lat="38.350764" lon="-1.397972">
        <ele>454.755985</ele>
        <time>2021-10-29T15:04:14.000Z</time>
      </trkpt>
      <trkpt lat="38.350813" lon="-1.398169">
        <ele>453.617769</ele>
        <time>2021-10-29T15:04:16.000Z</time>
      </trkpt>
      <trkpt lat="38.350840" lon="-1.398269">
        <ele>453.035305</ele>
        <time>2021-10-29T15:04:17.000Z</time>
      </trkpt>
      <trkpt lat="38.350892" lon="-1.398474">
        <ele>451.848704</ele>
        <time>2021-10-29T15:04:19.000Z</time>
      </trkpt>
      <trkpt lat="38.350917" lon="-1.398579">
        <ele>451.244367</ele>
        <time>2021-10-29T15:04:20.000Z</time>
      </trkpt>
      <trkpt lat="38.350966" lon="-1.398793">
        <ele>450.016582</ele>
        <time>2021-10-29T15:04:22.000Z</time>
      </trkpt>
      <trkpt lat="38.351041" lon="-1.399108">
        <ele>448.203572</ele>
        <time>2021-10-29T15:04:25.000Z</time>
      </trkpt>
      <trkpt lat="38.351074" lon="-1.399210">
        <ele>447.595895</ele>
        <time>2021-10-29T15:04:26.000Z</time>
      </trkpt>
      <trkpt lat="38.351135" lon="-1.399421">
        <ele>446.357398</ele>
        <time>2021-10-29T15:04:28.000Z</time>
      </trkpt>
      <trkpt lat="38.351191" lon="-1.399641">
        <ele>445.083555</ele>
        <time>2021-10-29T15:04:30.000Z</time>
      </trkpt>
      <trkpt lat="38.351245" lon="-1.399870">
        <ele>443.766592</ele>
        <time>2021-10-29T15:04:32.000Z</time>
      </trkpt>
      <trkpt lat="38.351329" lon="-1.400216">
        <ele>442.015702</ele>
        <time>2021-10-29T15:04:35.000Z</time>
      </trkpt>
      <trkpt lat="38.351369" lon="-1.400433">
        <ele>441.037104</ele>
        <time>2021-10-29T15:04:37.000Z</time>
      </trkpt>
      <trkpt lat="38.351415" lon="-1.400650">
        <ele>440.050279</ele>
        <time>2021-10-29T15:04:39.000Z</time>
      </trkpt>
      <trkpt lat="38.351457" lon="-1.400871">
        <ele>439.052002</ele>
        <time>2021-10-29T15:04:41.000Z</time>
      </trkpt>
      <trkpt lat="38.351507" lon="-1.401089">
        <ele>438.054887</ele>
        <time>2021-10-29T15:04:43.000Z</time>
      </trkpt>
      <trkpt lat="38.351582" lon="-1.401412">
        <ele>436.576062</ele>
        <time>2021-10-29T15:04:46.000Z</time>
      </trkpt>
      <trkpt lat="38.351715" lon="-1.401963">
        <ele>434.045178</ele>
        <time>2021-10-29T15:04:51.000Z</time>
      </trkpt>
      <trkpt lat="38.351743" lon="-1.402075">
        <ele>433.529118</ele>
        <time>2021-10-29T15:04:52.000Z</time>
      </trkpt>
      <trkpt lat="38.351797" lon="-1.402299">
        <ele>432.541117</ele>
        <time>2021-10-29T15:04:54.000Z</time>
      </trkpt>
      <trkpt lat="38.351824" lon="-1.402409">
        <ele>432.086079</ele>
        <time>2021-10-29T15:04:55.000Z</time>
      </trkpt>
      <trkpt lat="38.351850" lon="-1.402519">
        <ele>431.632519</ele>
        <time>2021-10-29T15:04:56.000Z</time>
      </trkpt>
      <trkpt lat="38.351903" lon="-1.402743">
        <ele>430.708828</ele>
        <time>2021-10-29T15:04:58.000Z</time>
      </trkpt>
      <trkpt lat="38.351983" lon="-1.403086">
        <ele>429.296098</ele>
        <time>2021-10-29T15:05:01.000Z</time>
      </trkpt>
      <trkpt lat="38.352067" lon="-1.403427">
        <ele>427.885032</ele>
        <time>2021-10-29T15:05:04.000Z</time>
      </trkpt>
      <trkpt lat="38.352096" lon="-1.403540">
        <ele>427.415646</ele>
        <time>2021-10-29T15:05:05.000Z</time>
      </trkpt>
      <trkpt lat="38.352161" lon="-1.403759">
        <ele>426.491220</ele>
        <time>2021-10-29T15:05:07.000Z</time>
      </trkpt>
      <trkpt lat="38.352222" lon="-1.403976">
        <ele>425.581165</ele>
        <time>2021-10-29T15:05:09.000Z</time>
      </trkpt>
      <trkpt lat="38.352249" lon="-1.404087">
        <ele>425.122360</ele>
        <time>2021-10-29T15:05:10.000Z</time>
      </trkpt>
      <trkpt lat="38.352302" lon="-1.404313">
        <ele>424.191112</ele>
        <time>2021-10-29T15:05:12.000Z</time>
      </trkpt>
      <trkpt lat="38.352387" lon="-1.404656">
        <ele>423.030633</ele>
        <time>2021-10-29T15:05:15.000Z</time>
      </trkpt>
      <trkpt lat="38.352441" lon="-1.404883">
        <ele>422.319371</ele>
        <time>2021-10-29T15:05:17.000Z</time>
      </trkpt>
      <trkpt lat="38.352519" lon="-1.405209">
        <ele>421.297412</ele>
        <time>2021-10-29T15:05:20.000Z</time>
      </trkpt>
      <trkpt lat="38.352594" lon="-1.405501">
        <ele>420.376118</ele>
        <time>2021-10-29T15:05:24.000Z</time>
      </trkpt>
      <trkpt lat="38.352567" lon="-1.405613">
        <ele>420.024790</ele>
        <time>2021-10-29T15:05:26.000Z</time>
      </trkpt>
      <trkpt lat="38.352534" lon="-1.405660">
        <ele>419.835635</ele>
        <time>2021-10-29T15:05:27.000Z</time>
      </trkpt>
      <trkpt lat="38.352489" lon="-1.405696">
        <ele>419.632522</ele>
        <time>2021-10-29T15:05:28.000Z</time>
      </trkpt>
      <trkpt lat="38.352385" lon="-1.405752">
        <ele>419.200884</ele>
        <time>2021-10-29T15:05:30.000Z</time>
      </trkpt>
      <trkpt lat="38.352336" lon="-1.405783">
        <ele>418.991744</ele>
        <time>2021-10-29T15:05:31.000Z</time>
      </trkpt>
      <trkpt lat="38.352185" lon="-1.405900">
        <ele>418.316175</ele>
        <time>2021-10-29T15:05:34.000Z</time>
      </trkpt>
      <trkpt lat="38.352074" lon="-1.405994">
        <ele>417.806706</ele>
        <time>2021-10-29T15:05:36.000Z</time>
      </trkpt>
      <trkpt lat="38.351773" lon="-1.406222">
        <ele>416.898124</ele>
        <time>2021-10-29T15:05:42.000Z</time>
      </trkpt>
      <trkpt lat="38.351726" lon="-1.406254">
        <ele>416.867738</ele>
        <time>2021-10-29T15:05:43.000Z</time>
      </trkpt>
      <trkpt lat="38.351679" lon="-1.406282">
        <ele>416.838151</ele>
        <time>2021-10-29T15:05:44.000Z</time>
      </trkpt>
      <trkpt lat="38.351486" lon="-1.406351">
        <ele>416.723834</ele>
        <time>2021-10-29T15:05:48.000Z</time>
      </trkpt>
      <trkpt lat="38.351337" lon="-1.406385">
        <ele>416.637506</ele>
        <time>2021-10-29T15:05:51.000Z</time>
      </trkpt>
      <trkpt lat="38.351287" lon="-1.406396">
        <ele>416.608569</ele>
        <time>2021-10-29T15:05:52.000Z</time>
      </trkpt>
      <trkpt lat="38.351087" lon="-1.406436">
        <ele>416.493109</ele>
        <time>2021-10-29T15:05:56.000Z</time>
      </trkpt>
      <trkpt lat="38.351036" lon="-1.406456">
        <ele>416.462678</ele>
        <time>2021-10-29T15:05:57.000Z</time>
      </trkpt>
      <trkpt lat="38.350933" lon="-1.406514">
        <ele>416.398462</ele>
        <time>2021-10-29T15:05:59.000Z</time>
      </trkpt>
      <trkpt lat="38.350851" lon="-1.406605">
        <ele>416.336465</ele>
        <time>2021-10-29T15:06:01.000Z</time>
      </trkpt>
      <trkpt lat="38.350620" lon="-1.406859">
        <ele>416.162503</ele>
        <time>2021-10-29T15:06:07.000Z</time>
      </trkpt>
      <trkpt lat="38.350523" lon="-1.406946">
        <ele>416.094867</ele>
        <time>2021-10-29T15:06:09.000Z</time>
      </trkpt>
      <trkpt lat="38.350428" lon="-1.407041">
        <ele>416.026012</ele>
        <time>2021-10-29T15:06:11.000Z</time>
      </trkpt>
      <trkpt lat="38.350398" lon="-1.407085">
        <ele>415.999935</ele>
        <time>2021-10-29T15:06:12.000Z</time>
      </trkpt>
      <trkpt lat="38.350387" lon="-1.407121">
        <ele>415.982654</ele>
        <time>2021-10-29T15:06:13.000Z</time>
      </trkpt>
      <trkpt lat="38.350412" lon="-1.407187">
        <ele>415.949872</ele>
        <time>2021-10-29T15:06:15.000Z</time>
      </trkpt>
      <trkpt lat="38.350495" lon="-1.407290">
        <ele>415.505750</ele>
        <time>2021-10-29T15:06:18.000Z</time>
      </trkpt>
      <trkpt lat="38.350541" lon="-1.407388">
        <ele>415.152360</ele>
        <time>2021-10-29T15:06:20.000Z</time>
      </trkpt>
      <trkpt lat="38.350677" lon="-1.407641">
        <ele>414.203298</ele>
        <time>2021-10-29T15:06:25.000Z</time>
      </trkpt>
      <trkpt lat="38.350734" lon="-1.407746">
        <ele>413.808172</ele>
        <time>2021-10-29T15:06:27.000Z</time>
      </trkpt>
      <trkpt lat="38.350765" lon="-1.407798">
        <ele>413.606067</ele>
        <time>2021-10-29T15:06:28.000Z</time>
      </trkpt>
      <trkpt lat="38.350948" lon="-1.408067">
        <ele>412.504222</ele>
        <time>2021-10-29T15:06:33.000Z</time>
      </trkpt>
      <trkpt lat="38.350984" lon="-1.408129">
        <ele>412.265528</ele>
        <time>2021-10-29T15:06:34.000Z</time>
      </trkpt>
      <trkpt lat="38.351096" lon="-1.408333">
        <ele>411.495022</ele>
        <time>2021-10-29T15:06:37.000Z</time>
      </trkpt>
      <trkpt lat="38.351175" lon="-1.408463">
        <ele>410.986157</ele>
        <time>2021-10-29T15:06:39.000Z</time>
      </trkpt>
      <trkpt lat="38.351289" lon="-1.408656">
        <ele>410.238557</ele>
        <time>2021-10-29T15:06:42.000Z</time>
      </trkpt>
      <trkpt lat="38.351433" lon="-1.408919">
        <ele>409.246099</ele>
        <time>2021-10-29T15:06:46.000Z</time>
      </trkpt>
      <trkpt lat="38.351531" lon="-1.409127">
        <ele>408.413150</ele>
        <time>2021-10-29T15:06:49.000Z</time>
      </trkpt>
      <trkpt lat="38.351630" lon="-1.409346">
        <ele>407.450497</ele>
        <time>2021-10-29T15:06:52.000Z</time>
      </trkpt>
      <trkpt lat="38.351693" lon="-1.409502">
        <ele>406.782261</ele>
        <time>2021-10-29T15:06:54.000Z</time>
      </trkpt>
      <trkpt lat="38.351778" lon="-1.409746">
        <ele>405.765491</ele>
        <time>2021-10-29T15:06:57.000Z</time>
      </trkpt>
      <trkpt lat="38.351892" lon="-1.410231">
        <ele>403.837308</ele>
        <time>2021-10-29T15:07:03.000Z</time>
      </trkpt>
      <trkpt lat="38.351925" lon="-1.410479">
        <ele>402.879362</ele>
        <time>2021-10-29T15:07:06.000Z</time>
      </trkpt>
      <trkpt lat="38.351960" lon="-1.410736">
        <ele>401.885994</ele>
        <time>2021-10-29T15:07:09.000Z</time>
      </trkpt>
      <trkpt lat="38.351973" lon="-1.410824">
        <ele>401.544974</ele>
        <time>2021-10-29T15:07:10.000Z</time>
      </trkpt>
      <trkpt lat="38.351996" lon="-1.411001">
        <ele>400.861724</ele>
        <time>2021-10-29T15:07:12.000Z</time>
      </trkpt>
      <trkpt lat="38.352003" lon="-1.411091">
        <ele>400.517300</ele>
        <time>2021-10-29T15:07:13.000Z</time>
      </trkpt>
      <trkpt lat="38.352022" lon="-1.411272">
        <ele>399.868890</ele>
        <time>2021-10-29T15:07:15.000Z</time>
      </trkpt>
      <trkpt lat="38.352033" lon="-1.411361">
        <ele>399.580485</ele>
        <time>2021-10-29T15:07:16.000Z</time>
      </trkpt>
      <trkpt lat="38.352055" lon="-1.411535">
        <ele>399.016319</ele>
        <time>2021-10-29T15:07:18.000Z</time>
      </trkpt>
      <trkpt lat="38.352094" lon="-1.411803">
        <ele>398.143806</ele>
        <time>2021-10-29T15:07:21.000Z</time>
      </trkpt>
      <trkpt lat="38.352099" lon="-1.411891">
        <ele>397.861380</ele>
        <time>2021-10-29T15:07:22.000Z</time>
      </trkpt>
      <trkpt lat="38.352109" lon="-1.412057">
        <ele>397.328450</ele>
        <time>2021-10-29T15:07:24.000Z</time>
      </trkpt>
      <trkpt lat="38.352129" lon="-1.412384">
        <ele>396.278546</ele>
        <time>2021-10-29T15:07:28.000Z</time>
      </trkpt>
      <trkpt lat="38.352142" lon="-1.412839">
        <ele>394.821127</ele>
        <time>2021-10-29T15:07:34.000Z</time>
      </trkpt>
      <trkpt lat="38.352147" lon="-1.413176">
        <ele>393.742199</ele>
        <time>2021-10-29T15:07:38.000Z</time>
      </trkpt>
      <trkpt lat="38.352159" lon="-1.413355">
        <ele>393.167132</ele>
        <time>2021-10-29T15:07:40.000Z</time>
      </trkpt>
      <trkpt lat="38.352181" lon="-1.413535">
        <ele>392.585204</ele>
        <time>2021-10-29T15:07:42.000Z</time>
      </trkpt>
      <trkpt lat="38.352213" lon="-1.413709">
        <ele>392.016734</ele>
        <time>2021-10-29T15:07:44.000Z</time>
      </trkpt>
      <trkpt lat="38.352232" lon="-1.413797">
        <ele>391.726411</ele>
        <time>2021-10-29T15:07:45.000Z</time>
      </trkpt>
      <trkpt lat="38.352254" lon="-1.413882">
        <ele>391.441701</ele>
        <time>2021-10-29T15:07:46.000Z</time>
      </trkpt>
      <trkpt lat="38.352274" lon="-1.413965">
        <ele>391.165515</ele>
        <time>2021-10-29T15:07:47.000Z</time>
      </trkpt>
      <trkpt lat="38.352341" lon="-1.414219">
        <ele>390.313120</ele>
        <time>2021-10-29T15:07:50.000Z</time>
      </trkpt>
      <trkpt lat="38.352403" lon="-1.414485">
        <ele>389.430456</ele>
        <time>2021-10-29T15:07:53.000Z</time>
      </trkpt>
      <trkpt lat="38.352446" lon="-1.414755">
        <ele>388.554119</ele>
        <time>2021-10-29T15:07:56.000Z</time>
      </trkpt>
      <trkpt lat="38.352475" lon="-1.414934">
        <ele>387.972739</ele>
        <time>2021-10-29T15:07:58.000Z</time>
      </trkpt>
      <trkpt lat="38.352523" lon="-1.415204">
        <ele>387.092143</ele>
        <time>2021-10-29T15:08:01.000Z</time>
      </trkpt>
      <trkpt lat="38.352575" lon="-1.415559">
        <ele>385.943444</ele>
        <time>2021-10-29T15:08:05.000Z</time>
      </trkpt>
      <trkpt lat="38.352648" lon="-1.415913">
        <ele>384.935624</ele>
        <time>2021-10-29T15:08:09.000Z</time>
      </trkpt>
      <trkpt lat="38.352698" lon="-1.416170">
        <ele>384.281463</ele>
        <time>2021-10-29T15:08:12.000Z</time>
      </trkpt>
      <trkpt lat="38.352737" lon="-1.416517">
        <ele>383.415446</ele>
        <time>2021-10-29T15:08:16.000Z</time>
      </trkpt>
      <trkpt lat="38.352772" lon="-1.416949">
        <ele>382.342517</ele>
        <time>2021-10-29T15:08:21.000Z</time>
      </trkpt>
      <trkpt lat="38.352776" lon="-1.417040">
        <ele>382.117351</ele>
        <time>2021-10-29T15:08:22.000Z</time>
      </trkpt>
      <trkpt lat="38.352782" lon="-1.417221">
        <ele>381.669794</ele>
        <time>2021-10-29T15:08:24.000Z</time>
      </trkpt>
      <trkpt lat="38.352780" lon="-1.417399">
        <ele>381.230004</ele>
        <time>2021-10-29T15:08:26.000Z</time>
      </trkpt>
      <trkpt lat="38.352745" lon="-1.417738">
        <ele>380.385284</ele>
        <time>2021-10-29T15:08:30.000Z</time>
      </trkpt>
      <trkpt lat="38.352731" lon="-1.417816">
        <ele>380.187603</ele>
        <time>2021-10-29T15:08:31.000Z</time>
      </trkpt>
      <trkpt lat="38.352692" lon="-1.417975">
        <ele>379.783839</ele>
        <time>2021-10-29T15:08:33.000Z</time>
      </trkpt>
      <trkpt lat="38.352631" lon="-1.418222">
        <ele>379.277344</ele>
        <time>2021-10-29T15:08:36.000Z</time>
      </trkpt>
      <trkpt lat="38.352547" lon="-1.418732">
        <ele>378.258075</ele>
        <time>2021-10-29T15:08:42.000Z</time>
      </trkpt>
      <trkpt lat="38.352521" lon="-1.418901">
        <ele>377.921228</ele>
        <time>2021-10-29T15:08:44.000Z</time>
      </trkpt>
      <trkpt lat="38.352464" lon="-1.419327">
        <ele>377.075975</ele>
        <time>2021-10-29T15:08:49.000Z</time>
      </trkpt>
      <trkpt lat="38.352457" lon="-1.419495">
        <ele>376.746921</ele>
        <time>2021-10-29T15:08:51.000Z</time>
      </trkpt>
      <trkpt lat="38.352459" lon="-1.420202">
        <ele>375.364093</ele>
        <time>2021-10-29T15:08:59.000Z</time>
      </trkpt>
      <trkpt lat="38.352448" lon="-1.420296">
        <ele>375.156752</ele>
        <time>2021-10-29T15:09:00.000Z</time>
      </trkpt>
      <trkpt lat="38.352385" lon="-1.420667">
        <ele>374.307632</ele>
        <time>2021-10-29T15:09:04.000Z</time>
      </trkpt>
      <trkpt lat="38.352380" lon="-1.420761">
        <ele>374.096881</ele>
        <time>2021-10-29T15:09:05.000Z</time>
      </trkpt>
      <trkpt lat="38.352386" lon="-1.420853">
        <ele>373.890376</ele>
        <time>2021-10-29T15:09:06.000Z</time>
      </trkpt>
      <trkpt lat="38.352428" lon="-1.421033">
        <ele>373.470290</ele>
        <time>2021-10-29T15:09:08.000Z</time>
      </trkpt>
      <trkpt lat="38.352635" lon="-1.421678">
        <ele>371.911354</ele>
        <time>2021-10-29T15:09:15.000Z</time>
      </trkpt>
      <trkpt lat="38.352668" lon="-1.421773">
        <ele>371.678935</ele>
        <time>2021-10-29T15:09:16.000Z</time>
      </trkpt>
      <trkpt lat="38.352763" lon="-1.422059">
        <ele>370.984164</ele>
        <time>2021-10-29T15:09:19.000Z</time>
      </trkpt>
      <trkpt lat="38.352817" lon="-1.422338">
        <ele>370.341347</ele>
        <time>2021-10-29T15:09:22.000Z</time>
      </trkpt>
      <trkpt lat="38.352795" lon="-1.422515">
        <ele>369.925658</ele>
        <time>2021-10-29T15:09:24.000Z</time>
      </trkpt>
      <trkpt lat="38.352773" lon="-1.422602">
        <ele>369.709371</ele>
        <time>2021-10-29T15:09:25.000Z</time>
      </trkpt>
      <trkpt lat="38.352695" lon="-1.423053">
        <ele>368.616623</ele>
        <time>2021-10-29T15:09:30.000Z</time>
      </trkpt>
      <trkpt lat="38.352681" lon="-1.423145">
        <ele>368.394882</ele>
        <time>2021-10-29T15:09:31.000Z</time>
      </trkpt>
      <trkpt lat="38.352665" lon="-1.423239">
        <ele>368.167291</ele>
        <time>2021-10-29T15:09:32.000Z</time>
      </trkpt>
      <trkpt lat="38.352631" lon="-1.423427">
        <ele>367.710790</ele>
        <time>2021-10-29T15:09:34.000Z</time>
      </trkpt>
      <trkpt lat="38.352524" lon="-1.423797">
        <ele>366.777707</ele>
        <time>2021-10-29T15:09:38.000Z</time>
      </trkpt>
      <trkpt lat="38.352493" lon="-1.423887">
        <ele>366.545123</ele>
        <time>2021-10-29T15:09:39.000Z</time>
      </trkpt>
      <trkpt lat="38.352371" lon="-1.424353">
        <ele>365.382702</ele>
        <time>2021-10-29T15:09:44.000Z</time>
      </trkpt>
      <trkpt lat="38.352315" lon="-1.424628">
        <ele>364.773673</ele>
        <time>2021-10-29T15:09:47.000Z</time>
      </trkpt>
      <trkpt lat="38.352231" lon="-1.424983">
        <ele>364.824492</ele>
        <time>2021-10-29T15:09:51.000Z</time>
      </trkpt>
      <trkpt lat="38.352145" lon="-1.425326">
        <ele>364.873844</ele>
        <time>2021-10-29T15:09:55.000Z</time>
      </trkpt>
      <trkpt lat="38.352084" lon="-1.425568">
        <ele>364.908681</ele>
        <time>2021-10-29T15:09:58.000Z</time>
      </trkpt>
      <trkpt lat="38.352051" lon="-1.425941">
        <ele>364.960125</ele>
        <time>2021-10-29T15:10:03.000Z</time>
      </trkpt>
      <trkpt lat="38.352049" lon="-1.426088">
        <ele>364.980274</ele>
        <time>2021-10-29T15:10:05.000Z</time>
      </trkpt>
      <trkpt lat="38.352054" lon="-1.426320">
        <ele>365.012082</ele>
        <time>2021-10-29T15:10:08.000Z</time>
      </trkpt>
      <trkpt lat="38.352054" lon="-1.426553">
        <ele>365.044015</ele>
        <time>2021-10-29T15:10:11.000Z</time>
      </trkpt>
      <trkpt lat="38.352079" lon="-1.426711">
        <ele>365.066105</ele>
        <time>2021-10-29T15:10:14.000Z</time>
      </trkpt>
      <trkpt lat="38.352148" lon="-1.426731">
        <ele>365.078471</ele>
        <time>2021-10-29T15:10:16.000Z</time>
      </trkpt>
      <trkpt lat="38.352191" lon="-1.426715">
        <ele>365.076945</ele>
        <time>2021-10-29T15:10:17.000Z</time>
      </trkpt>
      <trkpt lat="38.352409" lon="-1.426597">
        <ele>364.897768</ele>
        <time>2021-10-29T15:10:21.000Z</time>
      </trkpt>
      <trkpt lat="38.352862" lon="-1.426278">
        <ele>364.506254</ele>
        <time>2021-10-29T15:10:29.000Z</time>
      </trkpt>
      <trkpt lat="38.353036" lon="-1.426164">
        <ele>364.358252</ele>
        <time>2021-10-29T15:10:32.000Z</time>
      </trkpt>
      <trkpt lat="38.353205" lon="-1.426049">
        <ele>364.213326</ele>
        <time>2021-10-29T15:10:35.000Z</time>
      </trkpt>
      <trkpt lat="38.353654" lon="-1.425758">
        <ele>363.832268</ele>
        <time>2021-10-29T15:10:43.000Z</time>
      </trkpt>
      <trkpt lat="38.353765" lon="-1.425683">
        <ele>363.737228</ele>
        <time>2021-10-29T15:10:45.000Z</time>
      </trkpt>
      <trkpt lat="38.353819" lon="-1.425645">
        <ele>363.654228</ele>
        <time>2021-10-29T15:10:46.000Z</time>
      </trkpt>
      <trkpt lat="38.354155" lon="-1.425430">
        <ele>363.058291</ele>
        <time>2021-10-29T15:10:53.000Z</time>
      </trkpt>
      <trkpt lat="38.354267" lon="-1.425383">
        <ele>362.871377</ele>
        <time>2021-10-29T15:10:57.000Z</time>
      </trkpt>
      <trkpt lat="38.354279" lon="-1.425403">
        <ele>362.840072</ele>
        <time>2021-10-29T15:10:58.000Z</time>
      </trkpt>
      <trkpt lat="38.354290" lon="-1.425481">
        <ele>362.741553</ele>
        <time>2021-10-29T15:11:00.000Z</time>
      </trkpt>
      <trkpt lat="38.354301" lon="-1.425846">
        <ele>362.287476</ele>
        <time>2021-10-29T15:11:06.000Z</time>
      </trkpt>
      <trkpt lat="38.354306" lon="-1.425993">
        <ele>362.104565</ele>
        <time>2021-10-29T15:11:08.000Z</time>
      </trkpt>
      <trkpt lat="38.354315" lon="-1.426309">
        <ele>361.711478</ele>
        <time>2021-10-29T15:11:12.000Z</time>
      </trkpt>
      <trkpt lat="38.354321" lon="-1.426388">
        <ele>361.612811</ele>
        <time>2021-10-29T15:11:13.000Z</time>
      </trkpt>
      <trkpt lat="38.354332" lon="-1.426793">
        <ele>361.109043</ele>
        <time>2021-10-29T15:11:18.000Z</time>
      </trkpt>
      <trkpt lat="38.354335" lon="-1.426873">
        <ele>361.009479</ele>
        <time>2021-10-29T15:11:19.000Z</time>
      </trkpt>
      <trkpt lat="38.354359" lon="-1.427117">
        <ele>360.758550</ele>
        <time>2021-10-29T15:11:22.000Z</time>
      </trkpt>
      <trkpt lat="38.354392" lon="-1.427268">
        <ele>360.626957</ele>
        <time>2021-10-29T15:11:24.000Z</time>
      </trkpt>
      <trkpt lat="38.354472" lon="-1.427381">
        <ele>360.499155</ele>
        <time>2021-10-29T15:11:26.000Z</time>
      </trkpt>
      <trkpt lat="38.354527" lon="-1.427420">
        <ele>360.431786</ele>
        <time>2021-10-29T15:11:27.000Z</time>
      </trkpt>
      <trkpt lat="38.354584" lon="-1.427456">
        <ele>360.363693</ele>
        <time>2021-10-29T15:11:28.000Z</time>
      </trkpt>
      <trkpt lat="38.354948" lon="-1.427691">
        <ele>359.926931</ele>
        <time>2021-10-29T15:11:34.000Z</time>
      </trkpt>
      <trkpt lat="38.355009" lon="-1.427730">
        <ele>359.853882</ele>
        <time>2021-10-29T15:11:35.000Z</time>
      </trkpt>
      <trkpt lat="38.355127" lon="-1.427813">
        <ele>359.709618</ele>
        <time>2021-10-29T15:11:37.000Z</time>
      </trkpt>
      <trkpt lat="38.355242" lon="-1.427898">
        <ele>359.567324</ele>
        <time>2021-10-29T15:11:39.000Z</time>
      </trkpt>
      <trkpt lat="38.355475" lon="-1.428054">
        <ele>359.285605</ele>
        <time>2021-10-29T15:11:43.000Z</time>
      </trkpt>
      <trkpt lat="38.355997" lon="-1.428403">
        <ele>358.453437</ele>
        <time>2021-10-29T15:11:52.000Z</time>
      </trkpt>
      <trkpt lat="38.356055" lon="-1.428442">
        <ele>358.334930</ele>
        <time>2021-10-29T15:11:53.000Z</time>
      </trkpt>
      <trkpt lat="38.356392" lon="-1.428699">
        <ele>357.625248</ele>
        <time>2021-10-29T15:11:59.000Z</time>
      </trkpt>
      <trkpt lat="38.356428" lon="-1.428760">
        <ele>357.517046</ele>
        <time>2021-10-29T15:12:00.000Z</time>
      </trkpt>
      <trkpt lat="38.356450" lon="-1.428827">
        <ele>357.414100</ele>
        <time>2021-10-29T15:12:01.000Z</time>
      </trkpt>
      <trkpt lat="38.356465" lon="-1.428975">
        <ele>357.202599</ele>
        <time>2021-10-29T15:12:03.000Z</time>
      </trkpt>
      <trkpt lat="38.356506" lon="-1.429457">
        <ele>356.515468</ele>
        <time>2021-10-29T15:12:09.000Z</time>
      </trkpt>
      <trkpt lat="38.356526" lon="-1.429810">
        <ele>356.013868</ele>
        <time>2021-10-29T15:12:13.000Z</time>
      </trkpt>
      <trkpt lat="38.356541" lon="-1.430085">
        <ele>355.639337</ele>
        <time>2021-10-29T15:12:16.000Z</time>
      </trkpt>
      <trkpt lat="38.356547" lon="-1.430179">
        <ele>355.535261</ele>
        <time>2021-10-29T15:12:17.000Z</time>
      </trkpt>
      <trkpt lat="38.356586" lon="-1.430737">
        <ele>354.917042</ele>
        <time>2021-10-29T15:12:23.000Z</time>
      </trkpt>
      <trkpt lat="38.356593" lon="-1.430828">
        <ele>354.816138</ele>
        <time>2021-10-29T15:12:24.000Z</time>
      </trkpt>
      <trkpt lat="38.356643" lon="-1.431457">
        <ele>354.118452</ele>
        <time>2021-10-29T15:12:31.000Z</time>
      </trkpt>
      <trkpt lat="38.356658" lon="-1.431638">
        <ele>353.917598</ele>
        <time>2021-10-29T15:12:33.000Z</time>
      </trkpt>
      <trkpt lat="38.356717" lon="-1.432328">
        <ele>353.168961</ele>
        <time>2021-10-29T15:12:41.000Z</time>
      </trkpt>
      <trkpt lat="38.356795" lon="-1.432838">
        <ele>353.340409</ele>
        <time>2021-10-29T15:12:47.000Z</time>
      </trkpt>
      <trkpt lat="38.356799" lon="-1.432924">
        <ele>353.368834</ele>
        <time>2021-10-29T15:12:48.000Z</time>
      </trkpt>
      <trkpt lat="38.356812" lon="-1.433095">
        <ele>353.425521</ele>
        <time>2021-10-29T15:12:50.000Z</time>
      </trkpt>
      <trkpt lat="38.356853" lon="-1.433252">
        <ele>353.480121</ele>
        <time>2021-10-29T15:12:52.000Z</time>
      </trkpt>
      <trkpt lat="38.356949" lon="-1.433537">
        <ele>353.582467</ele>
        <time>2021-10-29T15:12:56.000Z</time>
      </trkpt>
      <trkpt lat="38.357072" lon="-1.433795">
        <ele>353.682093</ele>
        <time>2021-10-29T15:13:00.000Z</time>
      </trkpt>
      <trkpt lat="38.357331" lon="-1.434233">
        <ele>353.863097</ele>
        <time>2021-10-29T15:13:07.000Z</time>
      </trkpt>
      <trkpt lat="38.357428" lon="-1.434324">
        <ele>353.913766</ele>
        <time>2021-10-29T15:13:09.000Z</time>
      </trkpt>
      <trkpt lat="38.357502" lon="-1.434438">
        <ele>353.769516</ele>
        <time>2021-10-29T15:13:11.000Z</time>
      </trkpt>
      <trkpt lat="38.357692" lon="-1.434765">
        <ele>353.268332</ele>
        <time>2021-10-29T15:13:16.000Z</time>
      </trkpt>
      <trkpt lat="38.357726" lon="-1.434837">
        <ele>353.164832</ele>
        <time>2021-10-29T15:13:17.000Z</time>
      </trkpt>
      <trkpt lat="38.357828" lon="-1.435050">
        <ele>352.857491</ele>
        <time>2021-10-29T15:13:20.000Z</time>
      </trkpt>
      <trkpt lat="38.357865" lon="-1.435111">
        <ele>352.762522</ele>
        <time>2021-10-29T15:13:21.000Z</time>
      </trkpt>
      <trkpt lat="38.357940" lon="-1.435232">
        <ele>352.572588</ele>
        <time>2021-10-29T15:13:23.000Z</time>
      </trkpt>
      <trkpt lat="38.358134" lon="-1.435535">
        <ele>352.090880</ele>
        <time>2021-10-29T15:13:28.000Z</time>
      </trkpt>
      <trkpt lat="38.358207" lon="-1.435791">
        <ele>351.755434</ele>
        <time>2021-10-29T15:13:32.000Z</time>
      </trkpt>
      <trkpt lat="38.358337" lon="-1.436246">
        <ele>351.159095</ele>
        <time>2021-10-29T15:13:39.000Z</time>
      </trkpt>
      <trkpt lat="38.358472" lon="-1.436703">
        <ele>349.906134</ele>
        <time>2021-10-29T15:13:45.000Z</time>
      </trkpt>
      <trkpt lat="38.358486" lon="-1.436785">
        <ele>349.677966</ele>
        <time>2021-10-29T15:13:46.000Z</time>
      </trkpt>
      <trkpt lat="38.358496" lon="-1.436948">
        <ele>349.233439</ele>
        <time>2021-10-29T15:13:48.000Z</time>
      </trkpt>
      <trkpt lat="38.358491" lon="-1.437190">
        <ele>348.575250</ele>
        <time>2021-10-29T15:13:51.000Z</time>
      </trkpt>
      <trkpt lat="38.358478" lon="-1.437355">
        <ele>348.124381</ele>
        <time>2021-10-29T15:13:53.000Z</time>
      </trkpt>
      <trkpt lat="38.358446" lon="-1.437717">
        <ele>347.133924</ele>
        <time>2021-10-29T15:13:57.000Z</time>
      </trkpt>
      <trkpt lat="38.358397" lon="-1.437998">
        <ele>346.351264</ele>
        <time>2021-10-29T15:14:00.000Z</time>
      </trkpt>
      <trkpt lat="38.358385" lon="-1.438097">
        <ele>346.078901</ele>
        <time>2021-10-29T15:14:01.000Z</time>
      </trkpt>
      <trkpt lat="38.358377" lon="-1.438195">
        <ele>345.811014</ele>
        <time>2021-10-29T15:14:02.000Z</time>
      </trkpt>
      <trkpt lat="38.358372" lon="-1.438298">
        <ele>345.530436</ele>
        <time>2021-10-29T15:14:03.000Z</time>
      </trkpt>
      <trkpt lat="38.358370" lon="-1.438400">
        <ele>345.253026</ele>
        <time>2021-10-29T15:14:04.000Z</time>
      </trkpt>
      <trkpt lat="38.358370" lon="-1.438500">
        <ele>344.981141</ele>
        <time>2021-10-29T15:14:05.000Z</time>
      </trkpt>
      <trkpt lat="38.358374" lon="-1.438695">
        <ele>344.977228</ele>
        <time>2021-10-29T15:14:07.000Z</time>
      </trkpt>
      <trkpt lat="38.358382" lon="-1.438884">
        <ele>345.123417</ele>
        <time>2021-10-29T15:14:09.000Z</time>
      </trkpt>
      <trkpt lat="38.358398" lon="-1.439325">
        <ele>345.464393</ele>
        <time>2021-10-29T15:14:14.000Z</time>
      </trkpt>
      <trkpt lat="38.358401" lon="-1.439404">
        <ele>345.525481</ele>
        <time>2021-10-29T15:14:15.000Z</time>
      </trkpt>
      <trkpt lat="38.358422" lon="-1.439631">
        <ele>345.702023</ele>
        <time>2021-10-29T15:14:18.000Z</time>
      </trkpt>
      <trkpt lat="38.358436" lon="-1.439703">
        <ele>345.759318</ele>
        <time>2021-10-29T15:14:19.000Z</time>
      </trkpt>
      <trkpt lat="38.358452" lon="-1.439774">
        <ele>345.816375</ele>
        <time>2021-10-29T15:14:20.000Z</time>
      </trkpt>
      <trkpt lat="38.358470" lon="-1.439848">
        <ele>345.876217</ele>
        <time>2021-10-29T15:14:21.000Z</time>
      </trkpt>
      <trkpt lat="38.358491" lon="-1.439920">
        <ele>345.935549</ele>
        <time>2021-10-29T15:14:22.000Z</time>
      </trkpt>
      <trkpt lat="38.358684" lon="-1.440391">
        <ele>346.346006</ele>
        <time>2021-10-29T15:14:29.000Z</time>
      </trkpt>
      <trkpt lat="38.358856" lon="-1.440715">
        <ele>346.643611</ele>
        <time>2021-10-29T15:14:34.000Z</time>
      </trkpt>
      <trkpt lat="38.358928" lon="-1.440839">
        <ele>346.728190</ele>
        <time>2021-10-29T15:14:36.000Z</time>
      </trkpt>
      <trkpt lat="38.359002" lon="-1.440967">
        <ele>346.815363</ele>
        <time>2021-10-29T15:14:38.000Z</time>
      </trkpt>
      <trkpt lat="38.359182" lon="-1.441315">
        <ele>347.043886</ele>
        <time>2021-10-29T15:14:43.000Z</time>
      </trkpt>
      <trkpt lat="38.359356" lon="-1.441670">
        <ele>347.273372</ele>
        <time>2021-10-29T15:14:48.000Z</time>
      </trkpt>
      <trkpt lat="38.359467" lon="-1.441872">
        <ele>347.408582</ele>
        <time>2021-10-29T15:14:51.000Z</time>
      </trkpt>
      <trkpt lat="38.359739" lon="-1.442390">
        <ele>347.750313</ele>
        <time>2021-10-29T15:14:59.000Z</time>
      </trkpt>
      <trkpt lat="38.359844" lon="-1.442582">
        <ele>347.878627</ele>
        <time>2021-10-29T15:15:02.000Z</time>
      </trkpt>
      <trkpt lat="38.359950" lon="-1.442778">
        <ele>347.901667</ele>
        <time>2021-10-29T15:15:05.000Z</time>
      </trkpt>
      <trkpt lat="38.360062" lon="-1.442965">
        <ele>347.914546</ele>
        <time>2021-10-29T15:15:08.000Z</time>
      </trkpt>
      <trkpt lat="38.360200" lon="-1.443128">
        <ele>347.927675</ele>
        <time>2021-10-29T15:15:11.000Z</time>
      </trkpt>
      <trkpt lat="38.360655" lon="-1.443563">
        <ele>347.967368</ele>
        <time>2021-10-29T15:15:20.000Z</time>
      </trkpt>
      <trkpt lat="38.360708" lon="-1.443608">
        <ele>347.971812</ele>
        <time>2021-10-29T15:15:21.000Z</time>
      </trkpt>
      <trkpt lat="38.361117" lon="-1.443999">
        <ele>348.007491</ele>
        <time>2021-10-29T15:15:29.000Z</time>
      </trkpt>
      <trkpt lat="38.361374" lon="-1.444345">
        <ele>348.229068</ele>
        <time>2021-10-29T15:15:35.000Z</time>
      </trkpt>
      <trkpt lat="38.361612" lon="-1.444817">
        <ele>348.588175</ele>
        <time>2021-10-29T15:15:42.000Z</time>
      </trkpt>
      <trkpt lat="38.361777" lon="-1.445161">
        <ele>348.846229</ele>
        <time>2021-10-29T15:15:47.000Z</time>
      </trkpt>
      <trkpt lat="38.361809" lon="-1.445231">
        <ele>348.898081</ele>
        <time>2021-10-29T15:15:48.000Z</time>
      </trkpt>
      <trkpt lat="38.362087" lon="-1.445845">
        <ele>349.351792</ele>
        <time>2021-10-29T15:15:57.000Z</time>
      </trkpt>
      <trkpt lat="38.362144" lon="-1.445986">
        <ele>349.453306</ele>
        <time>2021-10-29T15:15:59.000Z</time>
      </trkpt>
      <trkpt lat="38.362275" lon="-1.446355">
        <ele>349.454233</ele>
        <time>2021-10-29T15:16:04.000Z</time>
      </trkpt>
      <trkpt lat="38.362318" lon="-1.446502">
        <ele>349.441554</ele>
        <time>2021-10-29T15:16:06.000Z</time>
      </trkpt>
      <trkpt lat="38.362383" lon="-1.446726">
        <ele>349.422252</ele>
        <time>2021-10-29T15:16:09.000Z</time>
      </trkpt>
      <trkpt lat="38.362493" lon="-1.447163">
        <ele>349.385163</ele>
        <time>2021-10-29T15:16:15.000Z</time>
      </trkpt>
      <trkpt lat="38.362611" lon="-1.447686">
        <ele>349.341185</ele>
        <time>2021-10-29T15:16:22.000Z</time>
      </trkpt>
      <trkpt lat="38.362755" lon="-1.448345">
        <ele>349.305303</ele>
        <time>2021-10-29T15:16:31.000Z</time>
      </trkpt>
      <trkpt lat="38.362770" lon="-1.448412">
        <ele>349.308837</ele>
        <time>2021-10-29T15:16:32.000Z</time>
      </trkpt>
      <trkpt lat="38.362842" lon="-1.448675">
        <ele>349.322966</ele>
        <time>2021-10-29T15:16:37.000Z</time>
      </trkpt>
      <trkpt lat="38.362858" lon="-1.448725">
        <ele>349.325705</ele>
        <time>2021-10-29T15:16:40.000Z</time>
      </trkpt>
      <trkpt lat="38.362853" lon="-1.448734">
        <ele>349.326265</ele>
        <time>2021-10-29T15:16:41.000Z</time>
      </trkpt>
      <trkpt lat="38.362787" lon="-1.448766">
        <ele>349.330832</ele>
        <time>2021-10-29T15:16:46.000Z</time>
      </trkpt>
      <trkpt lat="38.362774" lon="-1.448769">
        <ele>349.331687</ele>
        <time>2021-10-29T15:16:48.000Z</time>
      </trkpt>
      <trkpt lat="38.362735" lon="-1.448788">
        <ele>349.334387</ele>
        <time>2021-10-29T15:16:51.000Z</time>
      </trkpt>
      <trkpt lat="38.362680" lon="-1.448854">
        <ele>349.339272</ele>
        <time>2021-10-29T15:16:55.000Z</time>
      </trkpt>
      <trkpt lat="38.362555" lon="-1.448990">
        <ele>349.349901</ele>
        <time>2021-10-29T15:16:59.000Z</time>
      </trkpt>
      <trkpt lat="38.362510" lon="-1.449024">
        <ele>349.353284</ele>
        <time>2021-10-29T15:17:00.000Z</time>
      </trkpt>
      <trkpt lat="38.362407" lon="-1.449080">
        <ele>349.360527</ele>
        <time>2021-10-29T15:17:02.000Z</time>
      </trkpt>
      <trkpt lat="38.362352" lon="-1.449102">
        <ele>349.364255</ele>
        <time>2021-10-29T15:17:03.000Z</time>
      </trkpt>
      <trkpt lat="38.362142" lon="-1.449197">
        <ele>349.378669</ele>
        <time>2021-10-29T15:17:07.000Z</time>
      </trkpt>
      <trkpt lat="38.361988" lon="-1.449272">
        <ele>349.389332</ele>
        <time>2021-10-29T15:17:11.000Z</time>
      </trkpt>
      <trkpt lat="38.361899" lon="-1.449298">
        <ele>349.395238</ele>
        <time>2021-10-29T15:17:13.000Z</time>
      </trkpt>
      <trkpt lat="38.361806" lon="-1.449338">
        <ele>349.401587</ele>
        <time>2021-10-29T15:17:15.000Z</time>
      </trkpt>
      <trkpt lat="38.361708" lon="-1.449374">
        <ele>349.408184</ele>
        <time>2021-10-29T15:17:17.000Z</time>
      </trkpt>
      <trkpt lat="38.361336" lon="-1.449496">
        <ele>348.999460</ele>
        <time>2021-10-29T15:17:24.000Z</time>
      </trkpt>
      <trkpt lat="38.360973" lon="-1.449539">
        <ele>348.480951</ele>
        <time>2021-10-29T15:17:30.000Z</time>
      </trkpt>
      <trkpt lat="38.360686" lon="-1.449551">
        <ele>348.072537</ele>
        <time>2021-10-29T15:17:35.000Z</time>
      </trkpt>
      <trkpt lat="38.360630" lon="-1.449549">
        <ele>347.992859</ele>
        <time>2021-10-29T15:17:36.000Z</time>
      </trkpt>
      <trkpt lat="38.360338" lon="-1.449549">
        <ele>347.577554</ele>
        <time>2021-10-29T15:17:41.000Z</time>
      </trkpt>
      <trkpt lat="38.360222" lon="-1.449551">
        <ele>347.412554</ele>
        <time>2021-10-29T15:17:43.000Z</time>
      </trkpt>
      <trkpt lat="38.360164" lon="-1.449552">
        <ele>347.330055</ele>
        <time>2021-10-29T15:17:44.000Z</time>
      </trkpt>
      <trkpt lat="38.360047" lon="-1.449556">
        <ele>347.163588</ele>
        <time>2021-10-29T15:17:46.000Z</time>
      </trkpt>
      <trkpt lat="38.359988" lon="-1.449558">
        <ele>347.079644</ele>
        <time>2021-10-29T15:17:47.000Z</time>
      </trkpt>
      <trkpt lat="38.359755" lon="-1.449563">
        <ele>346.791167</ele>
        <time>2021-10-29T15:17:51.000Z</time>
      </trkpt>
      <trkpt lat="38.359638" lon="-1.449570">
        <ele>346.690972</ele>
        <time>2021-10-29T15:17:53.000Z</time>
      </trkpt>
      <trkpt lat="38.359521" lon="-1.449585">
        <ele>346.590383</ele>
        <time>2021-10-29T15:17:55.000Z</time>
      </trkpt>
      <trkpt lat="38.359024" lon="-1.449709">
        <ele>346.157177</ele>
        <time>2021-10-29T15:18:03.000Z</time>
      </trkpt>
      <trkpt lat="38.358714" lon="-1.449830">
        <ele>345.879852</ele>
        <time>2021-10-29T15:18:08.000Z</time>
      </trkpt>
      <trkpt lat="38.358541" lon="-1.449904">
        <ele>345.723761</ele>
        <time>2021-10-29T15:18:11.000Z</time>
      </trkpt>
      <trkpt lat="38.358258" lon="-1.450016">
        <ele>345.470286</ele>
        <time>2021-10-29T15:18:16.000Z</time>
      </trkpt>
      <trkpt lat="38.357912" lon="-1.450154">
        <ele>345.463040</ele>
        <time>2021-10-29T15:18:22.000Z</time>
      </trkpt>
      <trkpt lat="38.357682" lon="-1.450243">
        <ele>345.653509</ele>
        <time>2021-10-29T15:18:26.000Z</time>
      </trkpt>
      <trkpt lat="38.357185" lon="-1.450429">
        <ele>346.063966</ele>
        <time>2021-10-29T15:18:35.000Z</time>
      </trkpt>
      <trkpt lat="38.356854" lon="-1.450561">
        <ele>346.338793</ele>
        <time>2021-10-29T15:18:41.000Z</time>
      </trkpt>
      <trkpt lat="38.356694" lon="-1.450634">
        <ele>346.473455</ele>
        <time>2021-10-29T15:18:44.000Z</time>
      </trkpt>
      <trkpt lat="38.356490" lon="-1.450742">
        <ele>346.648492</ele>
        <time>2021-10-29T15:18:49.000Z</time>
      </trkpt>
      <trkpt lat="38.356500" lon="-1.450810">
        <ele>346.691485</ele>
        <time>2021-10-29T15:18:51.000Z</time>
      </trkpt>
      <trkpt lat="38.356523" lon="-1.450836">
        <ele>346.715841</ele>
        <time>2021-10-29T15:18:52.000Z</time>
      </trkpt>
      <trkpt lat="38.356682" lon="-1.450959">
        <ele>347.083092</ele>
        <time>2021-10-29T15:18:57.000Z</time>
      </trkpt>
      <trkpt lat="38.356828" lon="-1.451062">
        <ele>347.456614</ele>
        <time>2021-10-29T15:19:01.000Z</time>
      </trkpt>
      <trkpt lat="38.356893" lon="-1.451133">
        <ele>347.648208</ele>
        <time>2021-10-29T15:19:03.000Z</time>
      </trkpt>
      <trkpt lat="38.357092" lon="-1.451355">
        <ele>348.240100</ele>
        <time>2021-10-29T15:19:09.000Z</time>
      </trkpt>
      <trkpt lat="38.357137" lon="-1.451450">
        <ele>348.434933</ele>
        <time>2021-10-29T15:19:11.000Z</time>
      </trkpt>
      <trkpt lat="38.357159" lon="-1.451556">
        <ele>348.627418</ele>
        <time>2021-10-29T15:19:13.000Z</time>
      </trkpt>
      <trkpt lat="38.357158" lon="-1.451666">
        <ele>348.820530</ele>
        <time>2021-10-29T15:19:15.000Z</time>
      </trkpt>
      <trkpt lat="38.357158" lon="-1.451722">
        <ele>348.918835</ele>
        <time>2021-10-29T15:19:16.000Z</time>
      </trkpt>
      <trkpt lat="38.357150" lon="-1.452133">
        <ele>349.640547</ele>
        <time>2021-10-29T15:19:23.000Z</time>
      </trkpt>
      <trkpt lat="38.357147" lon="-1.452193">
        <ele>349.746088</ele>
        <time>2021-10-29T15:19:24.000Z</time>
      </trkpt>
      <trkpt lat="38.357147" lon="-1.452252">
        <ele>349.849660</ele>
        <time>2021-10-29T15:19:25.000Z</time>
      </trkpt>
      <trkpt lat="38.357145" lon="-1.452429">
        <ele>350.160407</ele>
        <time>2021-10-29T15:19:28.000Z</time>
      </trkpt>
      <trkpt lat="38.357131" lon="-1.452724">
        <ele>350.679212</ele>
        <time>2021-10-29T15:19:33.000Z</time>
      </trkpt>
      <trkpt lat="38.357112" lon="-1.453138">
        <ele>351.044754</ele>
        <time>2021-10-29T15:19:40.000Z</time>
      </trkpt>
      <trkpt lat="38.357100" lon="-1.453303">
        <ele>351.170376</ele>
        <time>2021-10-29T15:19:43.000Z</time>
      </trkpt>
      <trkpt lat="38.357096" lon="-1.453357">
        <ele>351.211496</ele>
        <time>2021-10-29T15:19:44.000Z</time>
      </trkpt>
      <trkpt lat="38.357045" lon="-1.453832">
        <ele>351.574951</ele>
        <time>2021-10-29T15:19:53.000Z</time>
      </trkpt>
      <trkpt lat="38.357090" lon="-1.454067">
        <ele>351.758338</ele>
        <time>2021-10-29T15:19:58.000Z</time>
      </trkpt>
      <trkpt lat="38.357108" lon="-1.454099">
        <ele>351.788193</ele>
        <time>2021-10-29T15:19:59.000Z</time>
      </trkpt>
      <trkpt lat="38.357157" lon="-1.454158">
        <ele>351.853344</ele>
        <time>2021-10-29T15:20:02.000Z</time>
      </trkpt>
      <trkpt lat="38.357167" lon="-1.454172">
        <ele>351.867700</ele>
        <time>2021-10-29T15:20:03.000Z</time>
      </trkpt>
      <trkpt lat="38.357172" lon="-1.454230">
        <ele>351.911934</ele>
        <time>2021-10-29T15:20:06.000Z</time>
      </trkpt>
      <trkpt lat="38.357167" lon="-1.454244">
        <ele>351.923597</ele>
        <time>2021-10-29T15:20:07.000Z</time>
      </trkpt>
      <trkpt lat="38.357104" lon="-1.454270">
        <ele>351.987612</ele>
        <time>2021-10-29T15:20:10.000Z</time>
      </trkpt>
      <trkpt lat="38.356900" lon="-1.454315">
        <ele>352.187761</ele>
        <time>2021-10-29T15:20:16.000Z</time>
      </trkpt>
      <trkpt lat="38.356861" lon="-1.454326">
        <ele>352.226376</ele>
        <time>2021-10-29T15:20:17.000Z</time>
      </trkpt>
      <trkpt lat="38.356562" lon="-1.454410">
        <ele>352.487928</ele>
        <time>2021-10-29T15:20:24.000Z</time>
      </trkpt>
      <trkpt lat="38.356515" lon="-1.454422">
        <ele>352.422351</ele>
        <time>2021-10-29T15:20:25.000Z</time>
      </trkpt>
      <trkpt lat="38.356014" lon="-1.454560">
        <ele>351.721120</ele>
        <time>2021-10-29T15:20:35.000Z</time>
      </trkpt>
      <trkpt lat="38.355750" lon="-1.454632">
        <ele>351.351771</ele>
        <time>2021-10-29T15:20:40.000Z</time>
      </trkpt>
      <trkpt lat="38.355368" lon="-1.454731">
        <ele>350.818470</ele>
        <time>2021-10-29T15:20:47.000Z</time>
      </trkpt>
      <trkpt lat="38.355258" lon="-1.454758">
        <ele>350.665215</ele>
        <time>2021-10-29T15:20:49.000Z</time>
      </trkpt>
      <trkpt lat="38.354868" lon="-1.454862">
        <ele>350.120111</ele>
        <time>2021-10-29T15:20:56.000Z</time>
      </trkpt>
      <trkpt lat="38.354288" lon="-1.455004">
        <ele>349.510972</ele>
        <time>2021-10-29T15:21:06.000Z</time>
      </trkpt>
      <trkpt lat="38.353743" lon="-1.455159">
        <ele>348.953650</ele>
        <time>2021-10-29T15:21:15.000Z</time>
      </trkpt>
      <trkpt lat="38.353680" lon="-1.455175">
        <ele>348.889535</ele>
        <time>2021-10-29T15:21:16.000Z</time>
      </trkpt>
      <trkpt lat="38.353113" lon="-1.455334">
        <ele>348.310097</ele>
        <time>2021-10-29T15:21:25.000Z</time>
      </trkpt>
      <trkpt lat="38.352993" lon="-1.455367">
        <ele>348.161810</ele>
        <time>2021-10-29T15:21:27.000Z</time>
      </trkpt>
      <trkpt lat="38.352555" lon="-1.455478">
        <ele>347.538311</ele>
        <time>2021-10-29T15:21:34.000Z</time>
      </trkpt>
      <trkpt lat="38.352489" lon="-1.455495">
        <ele>347.444300</ele>
        <time>2021-10-29T15:21:35.000Z</time>
      </trkpt>
      <trkpt lat="38.352163" lon="-1.455583">
        <ele>346.979050</ele>
        <time>2021-10-29T15:21:40.000Z</time>
      </trkpt>
      <trkpt lat="38.351903" lon="-1.455656">
        <ele>346.607341</ele>
        <time>2021-10-29T15:21:44.000Z</time>
      </trkpt>
      <trkpt lat="38.351710" lon="-1.455710">
        <ele>346.331462</ele>
        <time>2021-10-29T15:21:47.000Z</time>
      </trkpt>
      <trkpt lat="38.351130" lon="-1.455865">
        <ele>345.489963</ele>
        <time>2021-10-29T15:21:56.000Z</time>
      </trkpt>
      <trkpt lat="38.351008" lon="-1.455899">
        <ele>345.305219</ele>
        <time>2021-10-29T15:21:58.000Z</time>
      </trkpt>
      <trkpt lat="38.350683" lon="-1.455979">
        <ele>344.815547</ele>
        <time>2021-10-29T15:22:04.000Z</time>
      </trkpt>
      <trkpt lat="38.350627" lon="-1.455985">
        <ele>344.732410</ele>
        <time>2021-10-29T15:22:05.000Z</time>
      </trkpt>
      <trkpt lat="38.350522" lon="-1.455939">
        <ele>344.568164</ele>
        <time>2021-10-29T15:22:07.000Z</time>
      </trkpt>
      <trkpt lat="38.350482" lon="-1.455887">
        <ele>344.483658</ele>
        <time>2021-10-29T15:22:08.000Z</time>
      </trkpt>
      <trkpt lat="38.350457" lon="-1.455820">
        <ele>344.397577</ele>
        <time>2021-10-29T15:22:09.000Z</time>
      </trkpt>
      <trkpt lat="38.350446" lon="-1.455744">
        <ele>344.307915</ele>
        <time>2021-10-29T15:22:10.000Z</time>
      </trkpt>
      <trkpt lat="38.350443" lon="-1.455666">
        <ele>344.217313</ele>
        <time>2021-10-29T15:22:11.000Z</time>
      </trkpt>
      <trkpt lat="38.350442" lon="-1.455351">
        <ele>343.851857</ele>
        <time>2021-10-29T15:22:15.000Z</time>
      </trkpt>
      <trkpt lat="38.350441" lon="-1.455193">
        <ele>343.668544</ele>
        <time>2021-10-29T15:22:17.000Z</time>
      </trkpt>
      <trkpt lat="38.350445" lon="-1.454872">
        <ele>343.296083</ele>
        <time>2021-10-29T15:22:21.000Z</time>
      </trkpt>
      <trkpt lat="38.350446" lon="-1.454711">
        <ele>343.109289</ele>
        <time>2021-10-29T15:22:23.000Z</time>
      </trkpt>
      <trkpt lat="38.350447" lon="-1.454551">
        <ele>343.066697</ele>
        <time>2021-10-29T15:22:25.000Z</time>
      </trkpt>
      <trkpt lat="38.350448" lon="-1.454471">
        <ele>343.058788</ele>
        <time>2021-10-29T15:22:26.000Z</time>
      </trkpt>
      <trkpt lat="38.350447" lon="-1.454391">
        <ele>343.050880</ele>
        <time>2021-10-29T15:22:27.000Z</time>
      </trkpt>
      <trkpt lat="38.350444" lon="-1.454231">
        <ele>343.035062</ele>
        <time>2021-10-29T15:22:29.000Z</time>
      </trkpt>
      <trkpt lat="38.350437" lon="-1.453935">
        <ele>343.005792</ele>
        <time>2021-10-29T15:22:33.000Z</time>
      </trkpt>
      <trkpt lat="38.350420" lon="-1.453891">
        <ele>343.000944</ele>
        <time>2021-10-29T15:22:34.000Z</time>
      </trkpt>
      <trkpt lat="38.350391" lon="-1.453878">
        <ele>342.997070</ele>
        <time>2021-10-29T15:22:35.000Z</time>
      </trkpt>
      <trkpt lat="38.350359" lon="-1.453890">
        <ele>342.992866</ele>
        <time>2021-10-29T15:22:36.000Z</time>
      </trkpt>
      <trkpt lat="38.350287" lon="-1.453940">
        <ele>342.982534</ele>
        <time>2021-10-29T15:22:38.000Z</time>
      </trkpt>
      <trkpt lat="38.350153" lon="-1.454041">
        <ele>342.962915</ele>
        <time>2021-10-29T15:22:41.000Z</time>
      </trkpt>
      <trkpt lat="38.350107" lon="-1.454079">
        <ele>342.956008</ele>
        <time>2021-10-29T15:22:42.000Z</time>
      </trkpt>
      <trkpt lat="38.349919" lon="-1.454236">
        <ele>342.927684</ele>
        <time>2021-10-29T15:22:46.000Z</time>
      </trkpt>
      <trkpt lat="38.349772" lon="-1.454355">
        <ele>342.905739</ele>
        <time>2021-10-29T15:22:49.000Z</time>
      </trkpt>
      <trkpt lat="38.349723" lon="-1.454395">
        <ele>342.898407</ele>
        <time>2021-10-29T15:22:50.000Z</time>
      </trkpt>
      <trkpt lat="38.349271" lon="-1.454755">
        <ele>342.788153</ele>
        <time>2021-10-29T15:22:59.000Z</time>
      </trkpt>
      <trkpt lat="38.348862" lon="-1.455076">
        <ele>342.609557</ele>
        <time>2021-10-29T15:23:07.000Z</time>
      </trkpt>
      <trkpt lat="38.348708" lon="-1.455195">
        <ele>342.542595</ele>
        <time>2021-10-29T15:23:10.000Z</time>
      </trkpt>
      <trkpt lat="38.348200" lon="-1.455589">
        <ele>342.321484</ele>
        <time>2021-10-29T15:23:20.000Z</time>
      </trkpt>
      <trkpt lat="38.348046" lon="-1.455708">
        <ele>342.254522</ele>
        <time>2021-10-29T15:23:23.000Z</time>
      </trkpt>
      <trkpt lat="38.347891" lon="-1.455829">
        <ele>342.186938</ele>
        <time>2021-10-29T15:23:26.000Z</time>
      </trkpt>
      <trkpt lat="38.347417" lon="-1.456191">
        <ele>342.340686</ele>
        <time>2021-10-29T15:23:35.000Z</time>
      </trkpt>
      <trkpt lat="38.346952" lon="-1.456549">
        <ele>342.496125</ele>
        <time>2021-10-29T15:23:44.000Z</time>
      </trkpt>
      <trkpt lat="38.346850" lon="-1.456625">
        <ele>342.529932</ele>
        <time>2021-10-29T15:23:46.000Z</time>
      </trkpt>
      <trkpt lat="38.346444" lon="-1.456946">
        <ele>342.666636</ele>
        <time>2021-10-29T15:23:54.000Z</time>
      </trkpt>
      <trkpt lat="38.346230" lon="-1.457115">
        <ele>342.532228</ele>
        <time>2021-10-29T15:23:58.000Z</time>
      </trkpt>
      <trkpt lat="38.346002" lon="-1.457273">
        <ele>342.218334</ele>
        <time>2021-10-29T15:24:02.000Z</time>
      </trkpt>
      <trkpt lat="38.345749" lon="-1.457377">
        <ele>341.896789</ele>
        <time>2021-10-29T15:24:06.000Z</time>
      </trkpt>
      <trkpt lat="38.345616" lon="-1.457416">
        <ele>341.731710</ele>
        <time>2021-10-29T15:24:08.000Z</time>
      </trkpt>
      <trkpt lat="38.345212" lon="-1.457509">
        <ele>341.235122</ele>
        <time>2021-10-29T15:24:14.000Z</time>
      </trkpt>
      <trkpt lat="38.345145" lon="-1.457523">
        <ele>341.152996</ele>
        <time>2021-10-29T15:24:15.000Z</time>
      </trkpt>
      <trkpt lat="38.345010" lon="-1.457557">
        <ele>340.986542</ele>
        <time>2021-10-29T15:24:17.000Z</time>
      </trkpt>
      <trkpt lat="38.344877" lon="-1.457595">
        <ele>340.821673</ele>
        <time>2021-10-29T15:24:19.000Z</time>
      </trkpt>
      <trkpt lat="38.344290" lon="-1.457750">
        <ele>340.513627</ele>
        <time>2021-10-29T15:24:28.000Z</time>
      </trkpt>
      <trkpt lat="38.344165" lon="-1.457782">
        <ele>340.510062</ele>
        <time>2021-10-29T15:24:30.000Z</time>
      </trkpt>
      <trkpt lat="38.343584" lon="-1.457933">
        <ele>340.493481</ele>
        <time>2021-10-29T15:24:39.000Z</time>
      </trkpt>
      <trkpt lat="38.343522" lon="-1.457948">
        <ele>340.491716</ele>
        <time>2021-10-29T15:24:40.000Z</time>
      </trkpt>
      <trkpt lat="38.343221" lon="-1.458016">
        <ele>340.483168</ele>
        <time>2021-10-29T15:24:45.000Z</time>
      </trkpt>
      <trkpt lat="38.343108" lon="-1.458059">
        <ele>340.479871</ele>
        <time>2021-10-29T15:24:47.000Z</time>
      </trkpt>
      <trkpt lat="38.342583" lon="-1.458200">
        <ele>340.460904</ele>
        <time>2021-10-29T15:24:56.000Z</time>
      </trkpt>
      <trkpt lat="38.342351" lon="-1.458263">
        <ele>340.451116</ele>
        <time>2021-10-29T15:25:00.000Z</time>
      </trkpt>
      <trkpt lat="38.342112" lon="-1.458326">
        <ele>340.441046</ele>
        <time>2021-10-29T15:25:04.000Z</time>
      </trkpt>
      <trkpt lat="38.342054" lon="-1.458348">
        <ele>340.438549</ele>
        <time>2021-10-29T15:25:05.000Z</time>
      </trkpt>
      <trkpt lat="38.341629" lon="-1.458475">
        <ele>340.420536</ele>
        <time>2021-10-29T15:25:12.000Z</time>
      </trkpt>
      <trkpt lat="38.341567" lon="-1.458489">
        <ele>340.417938</ele>
        <time>2021-10-29T15:25:13.000Z</time>
      </trkpt>
      <trkpt lat="38.341052" lon="-1.458605">
        <ele>340.303564</ele>
        <time>2021-10-29T15:25:21.000Z</time>
      </trkpt>
      <trkpt lat="38.340989" lon="-1.458624">
        <ele>340.206401</ele>
        <time>2021-10-29T15:25:22.000Z</time>
      </trkpt>
      <trkpt lat="38.340615" lon="-1.458712">
        <ele>339.635606</ele>
        <time>2021-10-29T15:25:28.000Z</time>
      </trkpt>
      <trkpt lat="38.340497" lon="-1.458740">
        <ele>339.455465</ele>
        <time>2021-10-29T15:25:30.000Z</time>
      </trkpt>
      <trkpt lat="38.340130" lon="-1.458827">
        <ele>338.895214</ele>
        <time>2021-10-29T15:25:36.000Z</time>
      </trkpt>
      <trkpt lat="38.339813" lon="-1.458912">
        <ele>338.409037</ele>
        <time>2021-10-29T15:25:41.000Z</time>
      </trkpt>
      <trkpt lat="38.339616" lon="-1.458971">
        <ele>338.105322</ele>
        <time>2021-10-29T15:25:44.000Z</time>
      </trkpt>
      <trkpt lat="38.339214" lon="-1.459088">
        <ele>337.525601</ele>
        <time>2021-10-29T15:25:50.000Z</time>
      </trkpt>
      <trkpt lat="38.338865" lon="-1.459187">
        <ele>337.087588</ele>
        <time>2021-10-29T15:25:55.000Z</time>
      </trkpt>
      <trkpt lat="38.338665" lon="-1.459241">
        <ele>336.837135</ele>
        <time>2021-10-29T15:25:58.000Z</time>
      </trkpt>
      <trkpt lat="38.338145" lon="-1.459375">
        <ele>336.187203</ele>
        <time>2021-10-29T15:26:06.000Z</time>
      </trkpt>
      <trkpt lat="38.337890" lon="-1.459447">
        <ele>335.867234</ele>
        <time>2021-10-29T15:26:10.000Z</time>
      </trkpt>
      <trkpt lat="38.337391" lon="-1.459592">
        <ele>335.534969</ele>
        <time>2021-10-29T15:26:18.000Z</time>
      </trkpt>
      <trkpt lat="38.336825" lon="-1.459748">
        <ele>335.643110</ele>
        <time>2021-10-29T15:26:27.000Z</time>
      </trkpt>
      <trkpt lat="38.336760" lon="-1.459766">
        <ele>335.655532</ele>
        <time>2021-10-29T15:26:28.000Z</time>
      </trkpt>
      <trkpt lat="38.336175" lon="-1.459911">
        <ele>335.766824</ele>
        <time>2021-10-29T15:26:37.000Z</time>
      </trkpt>
      <trkpt lat="38.336111" lon="-1.459925">
        <ele>335.778950</ele>
        <time>2021-10-29T15:26:38.000Z</time>
      </trkpt>
      <trkpt lat="38.335679" lon="-1.460050">
        <ele>335.995985</ele>
        <time>2021-10-29T15:26:45.000Z</time>
      </trkpt>
      <trkpt lat="38.335142" lon="-1.460198">
        <ele>336.560970</ele>
        <time>2021-10-29T15:26:54.000Z</time>
      </trkpt>
      <trkpt lat="38.335029" lon="-1.460227">
        <ele>336.679505</ele>
        <time>2021-10-29T15:26:56.000Z</time>
      </trkpt>
      <trkpt lat="38.334733" lon="-1.460306">
        <ele>336.990498</ele>
        <time>2021-10-29T15:27:01.000Z</time>
      </trkpt>
      <trkpt lat="38.334670" lon="-1.460322">
        <ele>337.056558</ele>
        <time>2021-10-29T15:27:02.000Z</time>
      </trkpt>
      <trkpt lat="38.334109" lon="-1.460465">
        <ele>337.644886</ele>
        <time>2021-10-29T15:27:11.000Z</time>
      </trkpt>
      <trkpt lat="38.334048" lon="-1.460478">
        <ele>337.688861</ele>
        <time>2021-10-29T15:27:12.000Z</time>
      </trkpt>
      <trkpt lat="38.333494" lon="-1.460622">
        <ele>337.847062</ele>
        <time>2021-10-29T15:27:21.000Z</time>
      </trkpt>
      <trkpt lat="38.333432" lon="-1.460637">
        <ele>337.864720</ele>
        <time>2021-10-29T15:27:22.000Z</time>
      </trkpt>
      <trkpt lat="38.332875" lon="-1.460786">
        <ele>338.023965</ele>
        <time>2021-10-29T15:27:31.000Z</time>
      </trkpt>
      <trkpt lat="38.332631" lon="-1.460853">
        <ele>338.093803</ele>
        <time>2021-10-29T15:27:35.000Z</time>
      </trkpt>
      <trkpt lat="38.332262" lon="-1.460971">
        <ele>338.128278</ele>
        <time>2021-10-29T15:27:42.000Z</time>
      </trkpt>
      <trkpt lat="38.332124" lon="-1.461030">
        <ele>337.979358</ele>
        <time>2021-10-29T15:27:46.000Z</time>
      </trkpt>
      <trkpt lat="38.332108" lon="-1.461038">
        <ele>337.961773</ele>
        <time>2021-10-29T15:27:47.000Z</time>
      </trkpt>
      <trkpt lat="38.332106" lon="-1.461040">
        <ele>337.959173</ele>
        <time>2021-10-29T15:27:49.000Z</time>
      </trkpt>
      <trkpt lat="38.332109" lon="-1.461039">
        <ele>337.956000</ele>
        <time>2021-10-29T15:27:56.000Z</time>
      </trkpt>
      <trkpt lat="38.332109" lon="-1.461039">
        <ele>337.956000</ele>
        <time>2021-10-29T15:27:57.000Z</time>
      </trkpt>
      <trkpt lat="38.332110" lon="-1.461038">
        <ele>337.954700</ele>
        <time>2021-10-29T15:28:01.000Z</time>
      </trkpt>
      <trkpt lat="38.332107" lon="-1.461040">
        <ele>337.951236</ele>
        <time>2021-10-29T15:28:03.000Z</time>
      </trkpt>
      <trkpt lat="38.332100" lon="-1.461048">
        <ele>337.941617</ele>
        <time>2021-10-29T15:28:04.000Z</time>
      </trkpt>
      <trkpt lat="38.332090" lon="-1.461074">
        <ele>337.918377</ele>
        <time>2021-10-29T15:28:06.000Z</time>
      </trkpt>
      <trkpt lat="38.332094" lon="-1.461080">
        <ele>337.912058</ele>
        <time>2021-10-29T15:28:11.000Z</time>
      </trkpt>
      <trkpt lat="38.332095" lon="-1.461081">
        <ele>337.910757</ele>
        <time>2021-10-29T15:28:18.000Z</time>
      </trkpt>
      <trkpt lat="38.332072" lon="-1.461073">
        <ele>337.886365</ele>
        <time>2021-10-29T15:28:22.000Z</time>
      </trkpt>
      <trkpt lat="38.331955" lon="-1.461070">
        <ele>337.766634</ele>
        <time>2021-10-29T15:28:27.000Z</time>
      </trkpt>
      <trkpt lat="38.331822" lon="-1.460961">
        <ele>337.604864</ele>
        <time>2021-10-29T15:28:32.000Z</time>
      </trkpt>
      <trkpt lat="38.331785" lon="-1.460930">
        <ele>337.559564</ele>
        <time>2021-10-29T15:28:33.000Z</time>
      </trkpt>
      <trkpt lat="38.331690" lon="-1.460918">
        <ele>337.461891</ele>
        <time>2021-10-29T15:28:35.000Z</time>
      </trkpt>
      <trkpt lat="38.331512" lon="-1.461052">
        <ele>337.250389</ele>
        <time>2021-10-29T15:28:39.000Z</time>
      </trkpt>
      <trkpt lat="38.331466" lon="-1.461086">
        <ele>337.195987</ele>
        <time>2021-10-29T15:28:40.000Z</time>
      </trkpt>
      <trkpt lat="38.331419" lon="-1.461116">
        <ele>337.142209</ele>
        <time>2021-10-29T15:28:41.000Z</time>
      </trkpt>
      <trkpt lat="38.331223" lon="-1.461200">
        <ele>336.930646</ele>
        <time>2021-10-29T15:28:45.000Z</time>
      </trkpt>
      <trkpt lat="38.330914" lon="-1.461293">
        <ele>336.605807</ele>
        <time>2021-10-29T15:28:51.000Z</time>
      </trkpt>
      <trkpt lat="38.330695" lon="-1.461349">
        <ele>336.377278</ele>
        <time>2021-10-29T15:28:55.000Z</time>
      </trkpt>
      <trkpt lat="38.330295" lon="-1.461458">
        <ele>335.782889</ele>
        <time>2021-10-29T15:29:02.000Z</time>
      </trkpt>
      <trkpt lat="38.330234" lon="-1.461472">
        <ele>335.690561</ele>
        <time>2021-10-29T15:29:03.000Z</time>
      </trkpt>
      <trkpt lat="38.329742" lon="-1.461603">
        <ele>334.941848</ele>
        <time>2021-10-29T15:29:11.000Z</time>
      </trkpt>
      <trkpt lat="38.329680" lon="-1.461618">
        <ele>334.847842</ele>
        <time>2021-10-29T15:29:12.000Z</time>
      </trkpt>
      <trkpt lat="38.329361" lon="-1.461707">
        <ele>334.361403</ele>
        <time>2021-10-29T15:29:17.000Z</time>
      </trkpt>
      <trkpt lat="38.329102" lon="-1.461773">
        <ele>333.967957</ele>
        <time>2021-10-29T15:29:21.000Z</time>
      </trkpt>
      <trkpt lat="38.329036" lon="-1.461789">
        <ele>333.867879</ele>
        <time>2021-10-29T15:29:22.000Z</time>
      </trkpt>
      <trkpt lat="38.328445" lon="-1.461952">
        <ele>333.887730</ele>
        <time>2021-10-29T15:29:31.000Z</time>
      </trkpt>
      <trkpt lat="38.328317" lon="-1.461998">
        <ele>333.950868</ele>
        <time>2021-10-29T15:29:33.000Z</time>
      </trkpt>
      <trkpt lat="38.328189" lon="-1.462042">
        <ele>334.013809</ele>
        <time>2021-10-29T15:29:35.000Z</time>
      </trkpt>
      <trkpt lat="38.327879" lon="-1.462135">
        <ele>334.165006</ele>
        <time>2021-10-29T15:29:40.000Z</time>
      </trkpt>
      <trkpt lat="38.327424" lon="-1.462263">
        <ele>334.386221</ele>
        <time>2021-10-29T15:29:47.000Z</time>
      </trkpt>
      <trkpt lat="38.327290" lon="-1.462301">
        <ele>334.451395</ele>
        <time>2021-10-29T15:29:49.000Z</time>
      </trkpt>
      <trkpt lat="38.326893" lon="-1.462402">
        <ele>333.732573</ele>
        <time>2021-10-29T15:29:55.000Z</time>
      </trkpt>
      <trkpt lat="38.326826" lon="-1.462420">
        <ele>333.527065</ele>
        <time>2021-10-29T15:29:56.000Z</time>
      </trkpt>
      <trkpt lat="38.326696" lon="-1.462459">
        <ele>333.126230</ele>
        <time>2021-10-29T15:29:58.000Z</time>
      </trkpt>
      <trkpt lat="38.326366" lon="-1.462556">
        <ele>332.109795</ele>
        <time>2021-10-29T15:30:03.000Z</time>
      </trkpt>
      <trkpt lat="38.326297" lon="-1.462567">
        <ele>331.901088</ele>
        <time>2021-10-29T15:30:04.000Z</time>
      </trkpt>
      <trkpt lat="38.326228" lon="-1.462576">
        <ele>331.692914</ele>
        <time>2021-10-29T15:30:05.000Z</time>
      </trkpt>
      <trkpt lat="38.326159" lon="-1.462585">
        <ele>331.484740</ele>
        <time>2021-10-29T15:30:06.000Z</time>
      </trkpt>
      <trkpt lat="38.325679" lon="-1.462646">
        <ele>330.036952</ele>
        <time>2021-10-29T15:30:13.000Z</time>
      </trkpt>
      <trkpt lat="38.325404" lon="-1.462667">
        <ele>329.210101</ele>
        <time>2021-10-29T15:30:17.000Z</time>
      </trkpt>
      <trkpt lat="38.325263" lon="-1.462666">
        <ele>328.979699</ele>
        <time>2021-10-29T15:30:19.000Z</time>
      </trkpt>
      <trkpt lat="38.324906" lon="-1.462679">
        <ele>328.526687</ele>
        <time>2021-10-29T15:30:24.000Z</time>
      </trkpt>
      <trkpt lat="38.324764" lon="-1.462681">
        <ele>328.346561</ele>
        <time>2021-10-29T15:30:26.000Z</time>
      </trkpt>
      <trkpt lat="38.324628" lon="-1.462675">
        <ele>328.173952</ele>
        <time>2021-10-29T15:30:28.000Z</time>
      </trkpt>
      <trkpt lat="38.324031" lon="-1.462626">
        <ele>327.415136</ele>
        <time>2021-10-29T15:30:37.000Z</time>
      </trkpt>
      <trkpt lat="38.323967" lon="-1.462620">
        <ele>327.333738</ele>
        <time>2021-10-29T15:30:38.000Z</time>
      </trkpt>
      <trkpt lat="38.323837" lon="-1.462612">
        <ele>327.168651</ele>
        <time>2021-10-29T15:30:40.000Z</time>
      </trkpt>
      <trkpt lat="38.323389" lon="-1.462564">
        <ele>326.735792</ele>
        <time>2021-10-29T15:30:47.000Z</time>
      </trkpt>
      <trkpt lat="38.322797" lon="-1.462541">
        <ele>326.412868</ele>
        <time>2021-10-29T15:30:56.000Z</time>
      </trkpt>
      <trkpt lat="38.322663" lon="-1.462537">
        <ele>326.339788</ele>
        <time>2021-10-29T15:30:58.000Z</time>
      </trkpt>
      <trkpt lat="38.322595" lon="-1.462536">
        <ele>326.302710</ele>
        <time>2021-10-29T15:30:59.000Z</time>
      </trkpt>
      <trkpt lat="38.322118" lon="-1.462501">
        <ele>326.042206</ele>
        <time>2021-10-29T15:31:06.000Z</time>
      </trkpt>
      <trkpt lat="38.321530" lon="-1.462468">
        <ele>325.942362</ele>
        <time>2021-10-29T15:31:15.000Z</time>
      </trkpt>
      <trkpt lat="38.321403" lon="-1.462455">
        <ele>325.984653</ele>
        <time>2021-10-29T15:31:17.000Z</time>
      </trkpt>
      <trkpt lat="38.320913" lon="-1.462438">
        <ele>326.147358</ele>
        <time>2021-10-29T15:31:25.000Z</time>
      </trkpt>
      <trkpt lat="38.320325" lon="-1.462405">
        <ele>326.342721</ele>
        <time>2021-10-29T15:31:35.000Z</time>
      </trkpt>
      <trkpt lat="38.320031" lon="-1.462380">
        <ele>326.440525</ele>
        <time>2021-10-29T15:31:40.000Z</time>
      </trkpt>
      <trkpt lat="38.319802" lon="-1.462354">
        <ele>326.757328</ele>
        <time>2021-10-29T15:31:44.000Z</time>
      </trkpt>
      <trkpt lat="38.319472" lon="-1.462334">
        <ele>327.298563</ele>
        <time>2021-10-29T15:31:50.000Z</time>
      </trkpt>
      <trkpt lat="38.319211" lon="-1.462324">
        <ele>327.726342</ele>
        <time>2021-10-29T15:31:55.000Z</time>
      </trkpt>
      <trkpt lat="38.318783" lon="-1.462300">
        <ele>328.428195</ele>
        <time>2021-10-29T15:32:03.000Z</time>
      </trkpt>
      <trkpt lat="38.318505" lon="-1.462283">
        <ele>328.884154</ele>
        <time>2021-10-29T15:32:08.000Z</time>
      </trkpt>
      <trkpt lat="38.318165" lon="-1.462268">
        <ele>329.374653</ele>
        <time>2021-10-29T15:32:14.000Z</time>
      </trkpt>
      <trkpt lat="38.317889" lon="-1.462245">
        <ele>329.053597</ele>
        <time>2021-10-29T15:32:19.000Z</time>
      </trkpt>
      <trkpt lat="38.317312" lon="-1.462207">
        <ele>328.382941</ele>
        <time>2021-10-29T15:32:29.000Z</time>
      </trkpt>
      <trkpt lat="38.317009" lon="-1.462192">
        <ele>328.030963</ele>
        <time>2021-10-29T15:32:34.000Z</time>
      </trkpt>
      <trkpt lat="38.316706" lon="-1.462166">
        <ele>327.678455</ele>
        <time>2021-10-29T15:32:39.000Z</time>
      </trkpt>
      <trkpt lat="38.316463" lon="-1.462161">
        <ele>327.396352</ele>
        <time>2021-10-29T15:32:43.000Z</time>
      </trkpt>
      <trkpt lat="38.316227" lon="-1.462157">
        <ele>326.855033</ele>
        <time>2021-10-29T15:32:47.000Z</time>
      </trkpt>
      <trkpt lat="38.316044" lon="-1.462160">
        <ele>326.347060</ele>
        <time>2021-10-29T15:32:50.000Z</time>
      </trkpt>
      <trkpt lat="38.315728" lon="-1.462189">
        <ele>325.467707</ele>
        <time>2021-10-29T15:32:55.000Z</time>
      </trkpt>
      <trkpt lat="38.315475" lon="-1.462215">
        <ele>324.763207</ele>
        <time>2021-10-29T15:32:59.000Z</time>
      </trkpt>
      <trkpt lat="38.315414" lon="-1.462202">
        <ele>324.591546</ele>
        <time>2021-10-29T15:33:00.000Z</time>
      </trkpt>
      <trkpt lat="38.315355" lon="-1.462173">
        <ele>324.416031</ele>
        <time>2021-10-29T15:33:01.000Z</time>
      </trkpt>
      <trkpt lat="38.315230" lon="-1.462117">
        <ele>324.048274</ele>
        <time>2021-10-29T15:33:03.000Z</time>
      </trkpt>
      <trkpt lat="38.315161" lon="-1.462115">
        <ele>323.856710</ele>
        <time>2021-10-29T15:33:04.000Z</time>
      </trkpt>
      <trkpt lat="38.315092" lon="-1.462128">
        <ele>323.663114</ele>
        <time>2021-10-29T15:33:05.000Z</time>
      </trkpt>
      <trkpt lat="38.314883" lon="-1.462193">
        <ele>323.065997</ele>
        <time>2021-10-29T15:33:08.000Z</time>
      </trkpt>
      <trkpt lat="38.314665" lon="-1.462209">
        <ele>322.459918</ele>
        <time>2021-10-29T15:33:11.000Z</time>
      </trkpt>
      <trkpt lat="38.314596" lon="-1.462189">
        <ele>322.275880</ele>
        <time>2021-10-29T15:33:12.000Z</time>
      </trkpt>
      <trkpt lat="38.314530" lon="-1.462153">
        <ele>322.118542</ele>
        <time>2021-10-29T15:33:13.000Z</time>
      </trkpt>
      <trkpt lat="38.314332" lon="-1.462044">
        <ele>321.645849</ele>
        <time>2021-10-29T15:33:16.000Z</time>
      </trkpt>
      <trkpt lat="38.314261" lon="-1.462027">
        <ele>321.487522</ele>
        <time>2021-10-29T15:33:17.000Z</time>
      </trkpt>
      <trkpt lat="38.314189" lon="-1.462024">
        <ele>321.329640</ele>
        <time>2021-10-29T15:33:18.000Z</time>
      </trkpt>
      <trkpt lat="38.314049" lon="-1.462036">
        <ele>321.022119</ele>
        <time>2021-10-29T15:33:20.000Z</time>
      </trkpt>
      <trkpt lat="38.313913" lon="-1.462050">
        <ele>320.723087</ele>
        <time>2021-10-29T15:33:22.000Z</time>
      </trkpt>
      <trkpt lat="38.313358" lon="-1.462063">
        <ele>319.506527</ele>
        <time>2021-10-29T15:33:30.000Z</time>
      </trkpt>
      <trkpt lat="38.313286" lon="-1.462070">
        <ele>319.348271</ele>
        <time>2021-10-29T15:33:31.000Z</time>
      </trkpt>
      <trkpt lat="38.313139" lon="-1.462109">
        <ele>319.019196</ele>
        <time>2021-10-29T15:33:33.000Z</time>
      </trkpt>
      <trkpt lat="38.313010" lon="-1.462212">
        <ele>318.685575</ele>
        <time>2021-10-29T15:33:35.000Z</time>
      </trkpt>
      <trkpt lat="38.312954" lon="-1.462278">
        <ele>318.518410</ele>
        <time>2021-10-29T15:33:36.000Z</time>
      </trkpt>
      <trkpt lat="38.312742" lon="-1.462547">
        <ele>318.088861</ele>
        <time>2021-10-29T15:33:40.000Z</time>
      </trkpt>
      <trkpt lat="38.312674" lon="-1.462698">
        <ele>317.920252</ele>
        <time>2021-10-29T15:33:42.000Z</time>
      </trkpt>
      <trkpt lat="38.312650" lon="-1.462779">
        <ele>317.836401</ele>
        <time>2021-10-29T15:33:43.000Z</time>
      </trkpt>
      <trkpt lat="38.312617" lon="-1.462846">
        <ele>317.759791</ele>
        <time>2021-10-29T15:33:44.000Z</time>
      </trkpt>
      <trkpt lat="38.312566" lon="-1.462891">
        <ele>317.683230</ele>
        <time>2021-10-29T15:33:45.000Z</time>
      </trkpt>
      <trkpt lat="38.312504" lon="-1.462914">
        <ele>317.603530</ele>
        <time>2021-10-29T15:33:46.000Z</time>
      </trkpt>
      <trkpt lat="38.312437" lon="-1.462924">
        <ele>317.520270</ele>
        <time>2021-10-29T15:33:47.000Z</time>
      </trkpt>
      <trkpt lat="38.312366" lon="-1.462926">
        <ele>317.432616</ele>
        <time>2021-10-29T15:33:48.000Z</time>
      </trkpt>
      <trkpt lat="38.312295" lon="-1.462930">
        <ele>317.344898</ele>
        <time>2021-10-29T15:33:49.000Z</time>
      </trkpt>
      <trkpt lat="38.312224" lon="-1.462933">
        <ele>317.257218</ele>
        <time>2021-10-29T15:33:50.000Z</time>
      </trkpt>
      <trkpt lat="38.312153" lon="-1.462936">
        <ele>317.169537</ele>
        <time>2021-10-29T15:33:51.000Z</time>
      </trkpt>
      <trkpt lat="38.311762" lon="-1.462948">
        <ele>316.686803</ele>
        <time>2021-10-29T15:33:57.000Z</time>
      </trkpt>
      <trkpt lat="38.311705" lon="-1.462947">
        <ele>316.616444</ele>
        <time>2021-10-29T15:33:58.000Z</time>
      </trkpt>
      <trkpt lat="38.311593" lon="-1.462942">
        <ele>316.478122</ele>
        <time>2021-10-29T15:34:00.000Z</time>
      </trkpt>
      <trkpt lat="38.311483" lon="-1.462931">
        <ele>316.341937</ele>
        <time>2021-10-29T15:34:02.000Z</time>
      </trkpt>
      <trkpt lat="38.311366" lon="-1.462916">
        <ele>316.196800</ele>
        <time>2021-10-29T15:34:04.000Z</time>
      </trkpt>
      <trkpt lat="38.310988" lon="-1.462833">
        <ele>315.614067</ele>
        <time>2021-10-29T15:34:10.000Z</time>
      </trkpt>
      <trkpt lat="38.310924" lon="-1.462814">
        <ele>315.512670</ele>
        <time>2021-10-29T15:34:11.000Z</time>
      </trkpt>
      <trkpt lat="38.310857" lon="-1.462797">
        <ele>315.407259</ele>
        <time>2021-10-29T15:34:12.000Z</time>
      </trkpt>
      <trkpt lat="38.310589" lon="-1.462711">
        <ele>314.980825</ele>
        <time>2021-10-29T15:34:16.000Z</time>
      </trkpt>
      <trkpt lat="38.310451" lon="-1.462646">
        <ele>314.753812</ele>
        <time>2021-10-29T15:34:18.000Z</time>
      </trkpt>
      <trkpt lat="38.310121" lon="-1.462480">
        <ele>314.206388</ele>
        <time>2021-10-29T15:34:23.000Z</time>
      </trkpt>
      <trkpt lat="38.310059" lon="-1.462445">
        <ele>314.101756</ele>
        <time>2021-10-29T15:34:24.000Z</time>
      </trkpt>
      <trkpt lat="38.310000" lon="-1.462402">
        <ele>313.996883</ele>
        <time>2021-10-29T15:34:25.000Z</time>
      </trkpt>
      <trkpt lat="38.309750" lon="-1.462152">
        <ele>313.506550</ele>
        <time>2021-10-29T15:34:30.000Z</time>
      </trkpt>
      <trkpt lat="38.309482" lon="-1.461839">
        <ele>312.918933</ele>
        <time>2021-10-29T15:34:36.000Z</time>
      </trkpt>
      <trkpt lat="38.309369" lon="-1.461670">
        <ele>312.633762</ele>
        <time>2021-10-29T15:34:39.000Z</time>
      </trkpt>
      <trkpt lat="38.309066" lon="-1.461175">
        <ele>311.827441</ele>
        <time>2021-10-29T15:34:47.000Z</time>
      </trkpt>
      <trkpt lat="38.308995" lon="-1.461037">
        <ele>311.615497</ele>
        <time>2021-10-29T15:34:49.000Z</time>
      </trkpt>
      <trkpt lat="38.308836" lon="-1.460650">
        <ele>311.054438</ele>
        <time>2021-10-29T15:34:54.000Z</time>
      </trkpt>
      <trkpt lat="38.308805" lon="-1.460567">
        <ele>310.936376</ele>
        <time>2021-10-29T15:34:55.000Z</time>
      </trkpt>
      <trkpt lat="38.308584" lon="-1.459902">
        <ele>309.638088</ele>
        <time>2021-10-29T15:35:03.000Z</time>
      </trkpt>
      <trkpt lat="38.308427" lon="-1.459485">
        <ele>308.534447</ele>
        <time>2021-10-29T15:35:08.000Z</time>
      </trkpt>
      <trkpt lat="38.308388" lon="-1.459405">
        <ele>308.309713</ele>
        <time>2021-10-29T15:35:09.000Z</time>
      </trkpt>
      <trkpt lat="38.308130" lon="-1.458944">
        <ele>306.958569</ele>
        <time>2021-10-29T15:35:15.000Z</time>
      </trkpt>
      <trkpt lat="38.308024" lon="-1.458802">
        <ele>306.490902</ele>
        <time>2021-10-29T15:35:17.000Z</time>
      </trkpt>
      <trkpt lat="38.307840" lon="-1.458581">
        <ele>305.722027</ele>
        <time>2021-10-29T15:35:20.000Z</time>
      </trkpt>
      <trkpt lat="38.307708" lon="-1.458444">
        <ele>305.204347</ele>
        <time>2021-10-29T15:35:22.000Z</time>
      </trkpt>
      <trkpt lat="38.307580" lon="-1.458317">
        <ele>304.880179</ele>
        <time>2021-10-29T15:35:24.000Z</time>
      </trkpt>
      <trkpt lat="38.307328" lon="-1.458106">
        <ele>304.558763</ele>
        <time>2021-10-29T15:35:28.000Z</time>
      </trkpt>
      <trkpt lat="38.307199" lon="-1.458018">
        <ele>304.402792</ele>
        <time>2021-10-29T15:35:30.000Z</time>
      </trkpt>
      <trkpt lat="38.307065" lon="-1.457958">
        <ele>304.251392</ele>
        <time>2021-10-29T15:35:32.000Z</time>
      </trkpt>
      <trkpt lat="38.306711" lon="-1.457826">
        <ele>303.858218</ele>
        <time>2021-10-29T15:35:37.000Z</time>
      </trkpt>
      <trkpt lat="38.306568" lon="-1.457784">
        <ele>303.701789</ele>
        <time>2021-10-29T15:35:39.000Z</time>
      </trkpt>
      <trkpt lat="38.306074" lon="-1.457700">
        <ele>303.170535</ele>
        <time>2021-10-29T15:35:46.000Z</time>
      </trkpt>
      <trkpt lat="38.305741" lon="-1.457709">
        <ele>303.191498</ele>
        <time>2021-10-29T15:35:51.000Z</time>
      </trkpt>
      <trkpt lat="38.305619" lon="-1.457724">
        <ele>303.266667</ele>
        <time>2021-10-29T15:35:53.000Z</time>
      </trkpt>
      <trkpt lat="38.305508" lon="-1.457747">
        <ele>303.335636</ele>
        <time>2021-10-29T15:35:55.000Z</time>
      </trkpt>
      <trkpt lat="38.305329" lon="-1.457816">
        <ele>303.450327</ele>
        <time>2021-10-29T15:35:58.000Z</time>
      </trkpt>
      <trkpt lat="38.304875" lon="-1.457977">
        <ele>303.739340</ele>
        <time>2021-10-29T15:36:05.000Z</time>
      </trkpt>
      <trkpt lat="38.304811" lon="-1.458002">
        <ele>303.780393</ele>
        <time>2021-10-29T15:36:06.000Z</time>
      </trkpt>
      <trkpt lat="38.304434" lon="-1.458149">
        <ele>304.022185</ele>
        <time>2021-10-29T15:36:12.000Z</time>
      </trkpt>
      <trkpt lat="38.304188" lon="-1.458248">
        <ele>304.155890</ele>
        <time>2021-10-29T15:36:16.000Z</time>
      </trkpt>
      <trkpt lat="38.304125" lon="-1.458273">
        <ele>304.153490</ele>
        <time>2021-10-29T15:36:17.000Z</time>
      </trkpt>
      <trkpt lat="38.304061" lon="-1.458300">
        <ele>304.151039</ele>
        <time>2021-10-29T15:36:18.000Z</time>
      </trkpt>
      <trkpt lat="38.303932" lon="-1.458349">
        <ele>304.146144</ele>
        <time>2021-10-29T15:36:20.000Z</time>
      </trkpt>
      <trkpt lat="38.303672" lon="-1.458431">
        <ele>304.136403</ele>
        <time>2021-10-29T15:36:24.000Z</time>
      </trkpt>
      <trkpt lat="38.303472" lon="-1.458506">
        <ele>304.128822</ele>
        <time>2021-10-29T15:36:27.000Z</time>
      </trkpt>
      <trkpt lat="38.303405" lon="-1.458532">
        <ele>304.126275</ele>
        <time>2021-10-29T15:36:28.000Z</time>
      </trkpt>
      <trkpt lat="38.302994" lon="-1.458687">
        <ele>304.110688</ele>
        <time>2021-10-29T15:36:34.000Z</time>
      </trkpt>
      <trkpt lat="38.302726" lon="-1.458804">
        <ele>304.100386</ele>
        <time>2021-10-29T15:36:38.000Z</time>
      </trkpt>
      <trkpt lat="38.302320" lon="-1.458960">
        <ele>303.361457</ele>
        <time>2021-10-29T15:36:44.000Z</time>
      </trkpt>
      <trkpt lat="38.302252" lon="-1.458985">
        <ele>303.088558</ele>
        <time>2021-10-29T15:36:45.000Z</time>
      </trkpt>
      <trkpt lat="38.301846" lon="-1.459154">
        <ele>301.441639</ele>
        <time>2021-10-29T15:36:51.000Z</time>
      </trkpt>
      <trkpt lat="38.301436" lon="-1.459314">
        <ele>299.788228</ele>
        <time>2021-10-29T15:36:57.000Z</time>
      </trkpt>
      <trkpt lat="38.301368" lon="-1.459337">
        <ele>299.516945</ele>
        <time>2021-10-29T15:36:58.000Z</time>
      </trkpt>
      <trkpt lat="38.301298" lon="-1.459361">
        <ele>299.237430</ele>
        <time>2021-10-29T15:36:59.000Z</time>
      </trkpt>
      <trkpt lat="38.301229" lon="-1.459388">
        <ele>298.959108</ele>
        <time>2021-10-29T15:37:00.000Z</time>
      </trkpt>
      <trkpt lat="38.301161" lon="-1.459415">
        <ele>298.684470</ele>
        <time>2021-10-29T15:37:01.000Z</time>
      </trkpt>
      <trkpt lat="38.300714" lon="-1.459581">
        <ele>296.959391</ele>
        <time>2021-10-29T15:37:08.000Z</time>
      </trkpt>
      <trkpt lat="38.300543" lon="-1.459638">
        <ele>296.456957</ele>
        <time>2021-10-29T15:37:12.000Z</time>
      </trkpt>
      <trkpt lat="38.300311" lon="-1.459723">
        <ele>295.770764</ele>
        <time>2021-10-29T15:37:16.000Z</time>
      </trkpt>
      <trkpt lat="38.300249" lon="-1.459746">
        <ele>295.587208</ele>
        <time>2021-10-29T15:37:17.000Z</time>
      </trkpt>
      <trkpt lat="38.300055" lon="-1.459814">
        <ele>295.015268</ele>
        <time>2021-10-29T15:37:20.000Z</time>
      </trkpt>
      <trkpt lat="38.299789" lon="-1.459916">
        <ele>294.225651</ele>
        <time>2021-10-29T15:37:24.000Z</time>
      </trkpt>
      <trkpt lat="38.299722" lon="-1.459945">
        <ele>294.024512</ele>
        <time>2021-10-29T15:37:25.000Z</time>
      </trkpt>
      <trkpt lat="38.299306" lon="-1.460092">
        <ele>292.797378</ele>
        <time>2021-10-29T15:37:31.000Z</time>
      </trkpt>
      <trkpt lat="38.299103" lon="-1.460173">
        <ele>292.192708</ele>
        <time>2021-10-29T15:37:34.000Z</time>
      </trkpt>
      <trkpt lat="38.298819" lon="-1.460285">
        <ele>291.527163</ele>
        <time>2021-10-29T15:37:38.000Z</time>
      </trkpt>
      <trkpt lat="38.298606" lon="-1.460372">
        <ele>291.055351</ele>
        <time>2021-10-29T15:37:41.000Z</time>
      </trkpt>
      <trkpt lat="38.298466" lon="-1.460427">
        <ele>290.746323</ele>
        <time>2021-10-29T15:37:43.000Z</time>
      </trkpt>
      <trkpt lat="38.297975" lon="-1.460620">
        <ele>289.662467</ele>
        <time>2021-10-29T15:37:50.000Z</time>
      </trkpt>
      <trkpt lat="38.297752" lon="-1.460712">
        <ele>289.168038</ele>
        <time>2021-10-29T15:37:53.000Z</time>
      </trkpt>
      <trkpt lat="38.297379" lon="-1.460852">
        <ele>288.347822</ele>
        <time>2021-10-29T15:37:58.000Z</time>
      </trkpt>
      <trkpt lat="38.297305" lon="-1.460876">
        <ele>288.229675</ele>
        <time>2021-10-29T15:37:59.000Z</time>
      </trkpt>
      <trkpt lat="38.296723" lon="-1.461099">
        <ele>287.822597</ele>
        <time>2021-10-29T15:38:07.000Z</time>
      </trkpt>
      <trkpt lat="38.296647" lon="-1.461129">
        <ele>287.769303</ele>
        <time>2021-10-29T15:38:08.000Z</time>
      </trkpt>
      <trkpt lat="38.296118" lon="-1.461336">
        <ele>287.398637</ele>
        <time>2021-10-29T15:38:15.000Z</time>
      </trkpt>
      <trkpt lat="38.295969" lon="-1.461396">
        <ele>287.293968</ele>
        <time>2021-10-29T15:38:17.000Z</time>
      </trkpt>
      <trkpt lat="38.295895" lon="-1.461425">
        <ele>287.242110</ele>
        <time>2021-10-29T15:38:18.000Z</time>
      </trkpt>
      <trkpt lat="38.295821" lon="-1.461453">
        <ele>287.190405</ele>
        <time>2021-10-29T15:38:19.000Z</time>
      </trkpt>
      <trkpt lat="38.295748" lon="-1.461479">
        <ele>287.139633</ele>
        <time>2021-10-29T15:38:20.000Z</time>
      </trkpt>
      <trkpt lat="38.295396" lon="-1.461608">
        <ele>286.711141</ele>
        <time>2021-10-29T15:38:25.000Z</time>
      </trkpt>
      <trkpt lat="38.295331" lon="-1.461631">
        <ele>286.610995</ele>
        <time>2021-10-29T15:38:26.000Z</time>
      </trkpt>
      <trkpt lat="38.295269" lon="-1.461653">
        <ele>286.515451</ele>
        <time>2021-10-29T15:38:27.000Z</time>
      </trkpt>
      <trkpt lat="38.295212" lon="-1.461670">
        <ele>286.428545</ele>
        <time>2021-10-29T15:38:28.000Z</time>
      </trkpt>
      <trkpt lat="38.295107" lon="-1.461693">
        <ele>286.270383</ele>
        <time>2021-10-29T15:38:30.000Z</time>
      </trkpt>
      <trkpt lat="38.294996" lon="-1.461679">
        <ele>286.104794</ele>
        <time>2021-10-29T15:38:32.000Z</time>
      </trkpt>
      <trkpt lat="38.294759" lon="-1.461565">
        <ele>285.728724</ele>
        <time>2021-10-29T15:38:36.000Z</time>
      </trkpt>
      <trkpt lat="38.294629" lon="-1.461504">
        <ele>285.523064</ele>
        <time>2021-10-29T15:38:38.000Z</time>
      </trkpt>
      <trkpt lat="38.294271" lon="-1.461340">
        <ele>284.958295</ele>
        <time>2021-10-29T15:38:44.000Z</time>
      </trkpt>
      <trkpt lat="38.294153" lon="-1.461279">
        <ele>284.769251</ele>
        <time>2021-10-29T15:38:46.000Z</time>
      </trkpt>
      <trkpt lat="38.293957" lon="-1.461195">
        <ele>284.462264</ele>
        <time>2021-10-29T15:38:49.000Z</time>
      </trkpt>
      <trkpt lat="38.293885" lon="-1.461169">
        <ele>284.323909</ele>
        <time>2021-10-29T15:38:50.000Z</time>
      </trkpt>
      <trkpt lat="38.293743" lon="-1.461105">
        <ele>283.841702</ele>
        <time>2021-10-29T15:38:52.000Z</time>
      </trkpt>
      <trkpt lat="38.293465" lon="-1.460978">
        <ele>282.896226</ele>
        <time>2021-10-29T15:38:56.000Z</time>
      </trkpt>
      <trkpt lat="38.293396" lon="-1.460946">
        <ele>282.661149</ele>
        <time>2021-10-29T15:38:57.000Z</time>
      </trkpt>
      <trkpt lat="38.293328" lon="-1.460913">
        <ele>282.428195</ele>
        <time>2021-10-29T15:38:58.000Z</time>
      </trkpt>
      <trkpt lat="38.293059" lon="-1.460792">
        <ele>281.514918</ele>
        <time>2021-10-29T15:39:02.000Z</time>
      </trkpt>
      <trkpt lat="38.292799" lon="-1.460678">
        <ele>280.634638</ele>
        <time>2021-10-29T15:39:06.000Z</time>
      </trkpt>
      <trkpt lat="38.292733" lon="-1.460648">
        <ele>280.410300</ele>
        <time>2021-10-29T15:39:07.000Z</time>
      </trkpt>
      <trkpt lat="38.292598" lon="-1.460592">
        <ele>279.955778</ele>
        <time>2021-10-29T15:39:09.000Z</time>
      </trkpt>
      <trkpt lat="38.292320" lon="-1.460478">
        <ele>279.020819</ele>
        <time>2021-10-29T15:39:13.000Z</time>
      </trkpt>
      <trkpt lat="38.292178" lon="-1.460422">
        <ele>278.543649</ele>
        <time>2021-10-29T15:39:15.000Z</time>
      </trkpt>
      <trkpt lat="38.291959" lon="-1.460334">
        <ele>277.795253</ele>
        <time>2021-10-29T15:39:18.000Z</time>
      </trkpt>
      <trkpt lat="38.291887" lon="-1.460304">
        <ele>277.548370</ele>
        <time>2021-10-29T15:39:19.000Z</time>
      </trkpt>
      <trkpt lat="38.291670" lon="-1.460215">
        <ele>276.805408</ele>
        <time>2021-10-29T15:39:22.000Z</time>
      </trkpt>
      <trkpt lat="38.291384" lon="-1.460097">
        <ele>275.825654</ele>
        <time>2021-10-29T15:39:26.000Z</time>
      </trkpt>
      <trkpt lat="38.291314" lon="-1.460068">
        <ele>275.585760</ele>
        <time>2021-10-29T15:39:27.000Z</time>
      </trkpt>
      <trkpt lat="38.290781" lon="-1.459844">
        <ele>273.756603</ele>
        <time>2021-10-29T15:39:35.000Z</time>
      </trkpt>
      <trkpt lat="38.290713" lon="-1.459816">
        <ele>273.523698</ele>
        <time>2021-10-29T15:39:36.000Z</time>
      </trkpt>
      <trkpt lat="38.290645" lon="-1.459788">
        <ele>273.290794</ele>
        <time>2021-10-29T15:39:37.000Z</time>
      </trkpt>
      <trkpt lat="38.290105" lon="-1.459558">
        <ele>271.881684</ele>
        <time>2021-10-29T15:39:45.000Z</time>
      </trkpt>
      <trkpt lat="38.289975" lon="-1.459492">
        <ele>271.579958</ele>
        <time>2021-10-29T15:39:47.000Z</time>
      </trkpt>
      <trkpt lat="38.289517" lon="-1.459321">
        <ele>270.550939</ele>
        <time>2021-10-29T15:39:54.000Z</time>
      </trkpt>
      <trkpt lat="38.289184" lon="-1.459177">
        <ele>269.792731</ele>
        <time>2021-10-29T15:39:59.000Z</time>
      </trkpt>
      <trkpt lat="38.289043" lon="-1.459121">
        <ele>269.474293</ele>
        <time>2021-10-29T15:40:01.000Z</time>
      </trkpt>
      <trkpt lat="38.288971" lon="-1.459098">
        <ele>269.314249</ele>
        <time>2021-10-29T15:40:02.000Z</time>
      </trkpt>
      <trkpt lat="38.288900" lon="-1.459071">
        <ele>269.154492</ele>
        <time>2021-10-29T15:40:03.000Z</time>
      </trkpt>
      <trkpt lat="38.288557" lon="-1.458930">
        <ele>268.427011</ele>
        <time>2021-10-29T15:40:08.000Z</time>
      </trkpt>
      <trkpt lat="38.288352" lon="-1.458844">
        <ele>268.007913</ele>
        <time>2021-10-29T15:40:11.000Z</time>
      </trkpt>
      <trkpt lat="38.287856" lon="-1.458627">
        <ele>266.989566</ele>
        <time>2021-10-29T15:40:18.000Z</time>
      </trkpt>
      <trkpt lat="38.287714" lon="-1.458567">
        <ele>266.699059</ele>
        <time>2021-10-29T15:40:20.000Z</time>
      </trkpt>
      <trkpt lat="38.287573" lon="-1.458507">
        <ele>266.410394</ele>
        <time>2021-10-29T15:40:22.000Z</time>
      </trkpt>
      <trkpt lat="38.287023" lon="-1.458270">
        <ele>265.310700</ele>
        <time>2021-10-29T15:40:30.000Z</time>
      </trkpt>
      <trkpt lat="38.286886" lon="-1.458214">
        <ele>265.108115</ele>
        <time>2021-10-29T15:40:32.000Z</time>
      </trkpt>
      <trkpt lat="38.286335" lon="-1.457965">
        <ele>264.284930</ele>
        <time>2021-10-29T15:40:40.000Z</time>
      </trkpt>
      <trkpt lat="38.286129" lon="-1.457868">
        <ele>263.975698</ele>
        <time>2021-10-29T15:40:43.000Z</time>
      </trkpt>
      <trkpt lat="38.285638" lon="-1.457657">
        <ele>263.246085</ele>
        <time>2021-10-29T15:40:50.000Z</time>
      </trkpt>
      <trkpt lat="38.285567" lon="-1.457625">
        <ele>263.140044</ele>
        <time>2021-10-29T15:40:51.000Z</time>
      </trkpt>
      <trkpt lat="38.285138" lon="-1.457433">
        <ele>262.426263</ele>
        <time>2021-10-29T15:40:57.000Z</time>
      </trkpt>
      <trkpt lat="38.284850" lon="-1.457313">
        <ele>261.910347</ele>
        <time>2021-10-29T15:41:01.000Z</time>
      </trkpt>
      <trkpt lat="38.284274" lon="-1.457063">
        <ele>260.874282</ele>
        <time>2021-10-29T15:41:09.000Z</time>
      </trkpt>
      <trkpt lat="38.284134" lon="-1.457000">
        <ele>260.621481</ele>
        <time>2021-10-29T15:41:11.000Z</time>
      </trkpt>
      <trkpt lat="38.283995" lon="-1.456940">
        <ele>260.371600</ele>
        <time>2021-10-29T15:41:13.000Z</time>
      </trkpt>
      <trkpt lat="38.283578" lon="-1.456725">
        <ele>260.023946</ele>
        <time>2021-10-29T15:41:19.000Z</time>
      </trkpt>
      <trkpt lat="38.283430" lon="-1.456654">
        <ele>260.369285</ele>
        <time>2021-10-29T15:41:21.000Z</time>
      </trkpt>
      <trkpt lat="38.283217" lon="-1.456527">
        <ele>260.882831</ele>
        <time>2021-10-29T15:41:24.000Z</time>
      </trkpt>
      <trkpt lat="38.283155" lon="-1.456468">
        <ele>261.051821</ele>
        <time>2021-10-29T15:41:25.000Z</time>
      </trkpt>
      <trkpt lat="38.283102" lon="-1.456398">
        <ele>261.218528</ele>
        <time>2021-10-29T15:41:26.000Z</time>
      </trkpt>
      <trkpt lat="38.283057" lon="-1.456321">
        <ele>261.383077</ele>
        <time>2021-10-29T15:41:27.000Z</time>
      </trkpt>
      <trkpt lat="38.282971" lon="-1.456162">
        <ele>261.714056</ele>
        <time>2021-10-29T15:41:29.000Z</time>
      </trkpt>
      <trkpt lat="38.282835" lon="-1.455925">
        <ele>262.217275</ele>
        <time>2021-10-29T15:41:32.000Z</time>
      </trkpt>
      <trkpt lat="38.282792" lon="-1.455844">
        <ele>262.384889</ele>
        <time>2021-10-29T15:41:33.000Z</time>
      </trkpt>
      <trkpt lat="38.282752" lon="-1.455762">
        <ele>262.550375</ele>
        <time>2021-10-29T15:41:34.000Z</time>
      </trkpt>
      <trkpt lat="38.282685" lon="-1.455591">
        <ele>262.877973</ele>
        <time>2021-10-29T15:41:36.000Z</time>
      </trkpt>
      <trkpt lat="38.282569" lon="-1.455241">
        <ele>263.529195</ele>
        <time>2021-10-29T15:41:40.000Z</time>
      </trkpt>
      <trkpt lat="38.282525" lon="-1.455063">
        <ele>263.528534</ele>
        <time>2021-10-29T15:41:42.000Z</time>
      </trkpt>
      <trkpt lat="38.282492" lon="-1.454879">
        <ele>263.069397</ele>
        <time>2021-10-29T15:41:44.000Z</time>
      </trkpt>
      <trkpt lat="38.282472" lon="-1.454390">
        <ele>261.878230</ele>
        <time>2021-10-29T15:41:49.000Z</time>
      </trkpt>
      <trkpt lat="38.282474" lon="-1.454187">
        <ele>261.384369</ele>
        <time>2021-10-29T15:41:51.000Z</time>
      </trkpt>
      <trkpt lat="38.282480" lon="-1.453992">
        <ele>260.909643</ele>
        <time>2021-10-29T15:41:53.000Z</time>
      </trkpt>
      <trkpt lat="38.282506" lon="-1.453719">
        <ele>260.240666</ele>
        <time>2021-10-29T15:41:56.000Z</time>
      </trkpt>
      <trkpt lat="38.282515" lon="-1.453631">
        <ele>260.024786</ele>
        <time>2021-10-29T15:41:57.000Z</time>
      </trkpt>
      <trkpt lat="38.282585" lon="-1.452906">
        <ele>258.247844</ele>
        <time>2021-10-29T15:42:05.000Z</time>
      </trkpt>
      <trkpt lat="38.282593" lon="-1.452812">
        <ele>257.913346</ele>
        <time>2021-10-29T15:42:06.000Z</time>
      </trkpt>
      <trkpt lat="38.282600" lon="-1.452718">
        <ele>257.491197</ele>
        <time>2021-10-29T15:42:07.000Z</time>
      </trkpt>
      <trkpt lat="38.282606" lon="-1.452624">
        <ele>257.069548</ele>
        <time>2021-10-29T15:42:08.000Z</time>
      </trkpt>
      <trkpt lat="38.282611" lon="-1.452529">
        <ele>256.643862</ele>
        <time>2021-10-29T15:42:09.000Z</time>
      </trkpt>
      <trkpt lat="38.282617" lon="-1.452431">
        <ele>256.204386</ele>
        <time>2021-10-29T15:42:10.000Z</time>
      </trkpt>
      <trkpt lat="38.282639" lon="-1.452125">
        <ele>254.830575</ele>
        <time>2021-10-29T15:42:13.000Z</time>
      </trkpt>
      <trkpt lat="38.282646" lon="-1.451911">
        <ele>253.872979</ele>
        <time>2021-10-29T15:42:15.000Z</time>
      </trkpt>
      <trkpt lat="38.282655" lon="-1.451578">
        <ele>252.383299</ele>
        <time>2021-10-29T15:42:18.000Z</time>
      </trkpt>
      <trkpt lat="38.282666" lon="-1.451132">
        <ele>250.388309</ele>
        <time>2021-10-29T15:42:22.000Z</time>
      </trkpt>
      <trkpt lat="38.282664" lon="-1.451034">
        <ele>249.950016</ele>
        <time>2021-10-29T15:42:23.000Z</time>
      </trkpt>
      <trkpt lat="38.282632" lon="-1.450637">
        <ele>248.165749</ele>
        <time>2021-10-29T15:42:27.000Z</time>
      </trkpt>
      <trkpt lat="38.282595" lon="-1.450434">
        <ele>248.022782</ele>
        <time>2021-10-29T15:42:29.000Z</time>
      </trkpt>
      <trkpt lat="38.282513" lon="-1.450135">
        <ele>248.288548</ele>
        <time>2021-10-29T15:42:32.000Z</time>
      </trkpt>
      <trkpt lat="38.282415" lon="-1.449844">
        <ele>248.554254</ele>
        <time>2021-10-29T15:42:35.000Z</time>
      </trkpt>
      <trkpt lat="38.282380" lon="-1.449751">
        <ele>248.640797</ele>
        <time>2021-10-29T15:42:36.000Z</time>
      </trkpt>
      <trkpt lat="38.282176" lon="-1.449336">
        <ele>249.051675</ele>
        <time>2021-10-29T15:42:41.000Z</time>
      </trkpt>
      <trkpt lat="38.281941" lon="-1.448983">
        <ele>249.440064</ele>
        <time>2021-10-29T15:42:46.000Z</time>
      </trkpt>
      <trkpt lat="38.281841" lon="-1.448854">
        <ele>249.592197</ele>
        <time>2021-10-29T15:42:48.000Z</time>
      </trkpt>
      <trkpt lat="38.281570" lon="-1.448579">
        <ele>250.058284</ele>
        <time>2021-10-29T15:42:53.000Z</time>
      </trkpt>
      <trkpt lat="38.281515" lon="-1.448529">
        <ele>250.179300</ele>
        <time>2021-10-29T15:42:54.000Z</time>
      </trkpt>
      <trkpt lat="38.281459" lon="-1.448479">
        <ele>250.301778</ele>
        <time>2021-10-29T15:42:55.000Z</time>
      </trkpt>
      <trkpt lat="38.281343" lon="-1.448385">
        <ele>250.548006</ele>
        <time>2021-10-29T15:42:57.000Z</time>
      </trkpt>
      <trkpt lat="38.281165" lon="-1.448263">
        <ele>250.910019</ele>
        <time>2021-10-29T15:43:00.000Z</time>
      </trkpt>
      <trkpt lat="38.281049" lon="-1.448182">
        <ele>251.146940</ele>
        <time>2021-10-29T15:43:02.000Z</time>
      </trkpt>
      <trkpt lat="38.280872" lon="-1.448054">
        <ele>251.511467</ele>
        <time>2021-10-29T15:43:05.000Z</time>
      </trkpt>
      <trkpt lat="38.280615" lon="-1.447893">
        <ele>252.024402</ele>
        <time>2021-10-29T15:43:09.000Z</time>
      </trkpt>
      <trkpt lat="38.280328" lon="-1.447661">
        <ele>252.633178</ele>
        <time>2021-10-29T15:43:14.000Z</time>
      </trkpt>
      <trkpt lat="38.280221" lon="-1.447559">
        <ele>252.872532</ele>
        <time>2021-10-29T15:43:16.000Z</time>
      </trkpt>
      <trkpt lat="38.279985" lon="-1.447273">
        <ele>251.193652</ele>
        <time>2021-10-29T15:43:21.000Z</time>
      </trkpt>
      <trkpt lat="38.279940" lon="-1.447210">
        <ele>250.658502</ele>
        <time>2021-10-29T15:43:22.000Z</time>
      </trkpt>
      <trkpt lat="38.279893" lon="-1.447146">
        <ele>250.107879</ele>
        <time>2021-10-29T15:43:23.000Z</time>
      </trkpt>
      <trkpt lat="38.279847" lon="-1.447078">
        <ele>249.543902</ele>
        <time>2021-10-29T15:43:24.000Z</time>
      </trkpt>
      <trkpt lat="38.279801" lon="-1.447007">
        <ele>248.965516</ele>
        <time>2021-10-29T15:43:25.000Z</time>
      </trkpt>
      <trkpt lat="38.279672" lon="-1.446771">
        <ele>247.158725</ele>
        <time>2021-10-29T15:43:28.000Z</time>
      </trkpt>
      <trkpt lat="38.279632" lon="-1.446687">
        <ele>246.541459</ele>
        <time>2021-10-29T15:43:29.000Z</time>
      </trkpt>
      <trkpt lat="38.279593" lon="-1.446601">
        <ele>245.917458</ele>
        <time>2021-10-29T15:43:30.000Z</time>
      </trkpt>
      <trkpt lat="38.279555" lon="-1.446515">
        <ele>245.297421</ele>
        <time>2021-10-29T15:43:31.000Z</time>
      </trkpt>
      <trkpt lat="38.279446" lon="-1.446261">
        <ele>243.478698</ele>
        <time>2021-10-29T15:43:34.000Z</time>
      </trkpt>
      <trkpt lat="38.279338" lon="-1.446015">
        <ele>241.707833</ele>
        <time>2021-10-29T15:43:37.000Z</time>
      </trkpt>
      <trkpt lat="38.279227" lon="-1.445773">
        <ele>239.946867</ele>
        <time>2021-10-29T15:43:40.000Z</time>
      </trkpt>
      <trkpt lat="38.279078" lon="-1.445439">
        <ele>238.343757</ele>
        <time>2021-10-29T15:43:44.000Z</time>
      </trkpt>
      <trkpt lat="38.279001" lon="-1.445270">
        <ele>238.009798</ele>
        <time>2021-10-29T15:43:46.000Z</time>
      </trkpt>
      <trkpt lat="38.278820" lon="-1.444872">
        <ele>237.223681</ele>
        <time>2021-10-29T15:43:51.000Z</time>
      </trkpt>
      <trkpt lat="38.278751" lon="-1.444729">
        <ele>236.936804</ele>
        <time>2021-10-29T15:43:53.000Z</time>
      </trkpt>
      <trkpt lat="38.278720" lon="-1.444656">
        <ele>236.794956</ele>
        <time>2021-10-29T15:43:54.000Z</time>
      </trkpt>
      <trkpt lat="38.278510" lon="-1.444106">
        <ele>235.749665</ele>
        <time>2021-10-29T15:44:01.000Z</time>
      </trkpt>
      <trkpt lat="38.278449" lon="-1.443938">
        <ele>235.433311</ele>
        <time>2021-10-29T15:44:03.000Z</time>
      </trkpt>
      <trkpt lat="38.278384" lon="-1.443764">
        <ele>235.103974</ele>
        <time>2021-10-29T15:44:05.000Z</time>
      </trkpt>
      <trkpt lat="38.278351" lon="-1.443674">
        <ele>234.934204</ele>
        <time>2021-10-29T15:44:06.000Z</time>
      </trkpt>
      <trkpt lat="38.278224" lon="-1.443313">
        <ele>234.384656</ele>
        <time>2021-10-29T15:44:10.000Z</time>
      </trkpt>
      <trkpt lat="38.278161" lon="-1.443140">
        <ele>234.146002</ele>
        <time>2021-10-29T15:44:12.000Z</time>
      </trkpt>
      <trkpt lat="38.277974" lon="-1.442649">
        <ele>233.463063</ele>
        <time>2021-10-29T15:44:18.000Z</time>
      </trkpt>
      <trkpt lat="38.277830" lon="-1.442283">
        <ele>232.950739</ele>
        <time>2021-10-29T15:44:23.000Z</time>
      </trkpt>
      <trkpt lat="38.277782" lon="-1.442138">
        <ele>232.753809</ele>
        <time>2021-10-29T15:44:25.000Z</time>
      </trkpt>
      <trkpt lat="38.277755" lon="-1.442070">
        <ele>232.658447</ele>
        <time>2021-10-29T15:44:26.000Z</time>
      </trkpt>
      <trkpt lat="38.277569" lon="-1.441553">
        <ele>231.946755</ele>
        <time>2021-10-29T15:44:33.000Z</time>
      </trkpt>
      <trkpt lat="38.277533" lon="-1.441480">
        <ele>231.834781</ele>
        <time>2021-10-29T15:44:34.000Z</time>
      </trkpt>
      <trkpt lat="38.277415" lon="-1.441266">
        <ele>231.453003</ele>
        <time>2021-10-29T15:44:37.000Z</time>
      </trkpt>
      <trkpt lat="38.277376" lon="-1.441195">
        <ele>231.326498</ele>
        <time>2021-10-29T15:44:38.000Z</time>
      </trkpt>
      <trkpt lat="38.277331" lon="-1.441125">
        <ele>231.194414</ele>
        <time>2021-10-29T15:44:39.000Z</time>
      </trkpt>
      <trkpt lat="38.277139" lon="-1.440847">
        <ele>230.653861</ele>
        <time>2021-10-29T15:44:43.000Z</time>
      </trkpt>
      <trkpt lat="38.277088" lon="-1.440778">
        <ele>230.515507</ele>
        <time>2021-10-29T15:44:44.000Z</time>
      </trkpt>
      <trkpt lat="38.276871" lon="-1.440528">
        <ele>229.971401</ele>
        <time>2021-10-29T15:44:48.000Z</time>
      </trkpt>
      <trkpt lat="38.276755" lon="-1.440421">
        <ele>229.705063</ele>
        <time>2021-10-29T15:44:50.000Z</time>
      </trkpt>
      <trkpt lat="38.276696" lon="-1.440373">
        <ele>229.574876</ele>
        <time>2021-10-29T15:44:51.000Z</time>
      </trkpt>
      <trkpt lat="38.276451" lon="-1.440203">
        <ele>229.056051</ele>
        <time>2021-10-29T15:44:55.000Z</time>
      </trkpt>
      <trkpt lat="38.276388" lon="-1.440162">
        <ele>228.924488</ele>
        <time>2021-10-29T15:44:56.000Z</time>
      </trkpt>
      <trkpt lat="38.276326" lon="-1.440121">
        <ele>228.794579</ele>
        <time>2021-10-29T15:44:57.000Z</time>
      </trkpt>
      <trkpt lat="38.276022" lon="-1.439931">
        <ele>228.718316</ele>
        <time>2021-10-29T15:45:02.000Z</time>
      </trkpt>
      <trkpt lat="38.275967" lon="-1.439897">
        <ele>228.782519</ele>
        <time>2021-10-29T15:45:03.000Z</time>
      </trkpt>
      <trkpt lat="38.275856" lon="-1.439830">
        <ele>228.911515</ele>
        <time>2021-10-29T15:45:05.000Z</time>
      </trkpt>
      <trkpt lat="38.275576" lon="-1.439659">
        <ele>229.237618</ele>
        <time>2021-10-29T15:45:10.000Z</time>
      </trkpt>
      <trkpt lat="38.275298" lon="-1.439497">
        <ele>229.558671</ele>
        <time>2021-10-29T15:45:15.000Z</time>
      </trkpt>
      <trkpt lat="38.275071" lon="-1.439357">
        <ele>229.823537</ele>
        <time>2021-10-29T15:45:19.000Z</time>
      </trkpt>
      <trkpt lat="38.275014" lon="-1.439322">
        <ele>229.889989</ele>
        <time>2021-10-29T15:45:20.000Z</time>
      </trkpt>
      <trkpt lat="38.274796" lon="-1.439196">
        <ele>230.141397</ele>
        <time>2021-10-29T15:45:24.000Z</time>
      </trkpt>
      <trkpt lat="38.274647" lon="-1.439111">
        <ele>230.312851</ele>
        <time>2021-10-29T15:45:27.000Z</time>
      </trkpt>
      <trkpt lat="38.274551" lon="-1.439069">
        <ele>230.439907</ele>
        <time>2021-10-29T15:45:29.000Z</time>
      </trkpt>
      <trkpt lat="38.274408" lon="-1.439027">
        <ele>230.857630</ele>
        <time>2021-10-29T15:45:32.000Z</time>
      </trkpt>
      <trkpt lat="38.274365" lon="-1.439018">
        <ele>230.981668</ele>
        <time>2021-10-29T15:45:33.000Z</time>
      </trkpt>
      <trkpt lat="38.274238" lon="-1.439004">
        <ele>231.344519</ele>
        <time>2021-10-29T15:45:36.000Z</time>
      </trkpt>
      <trkpt lat="38.274153" lon="-1.438999">
        <ele>231.586725</ele>
        <time>2021-10-29T15:45:38.000Z</time>
      </trkpt>
      <trkpt lat="38.274021" lon="-1.438986">
        <ele>231.963578</ele>
        <time>2021-10-29T15:45:41.000Z</time>
      </trkpt>
      <trkpt lat="38.273977" lon="-1.438980">
        <ele>232.089537</ele>
        <time>2021-10-29T15:45:42.000Z</time>
      </trkpt>
      <trkpt lat="38.273932" lon="-1.438976">
        <ele>232.217939</ele>
        <time>2021-10-29T15:45:43.000Z</time>
      </trkpt>
      <trkpt lat="38.273779" lon="-1.438956">
        <ele>232.655733</ele>
        <time>2021-10-29T15:45:47.000Z</time>
      </trkpt>
      <trkpt lat="38.273750" lon="-1.438949">
        <ele>232.739749</ele>
        <time>2021-10-29T15:45:48.000Z</time>
      </trkpt>
      <trkpt lat="38.273684" lon="-1.438960">
        <ele>232.929216</ele>
        <time>2021-10-29T15:45:50.000Z</time>
      </trkpt>
      <trkpt lat="38.273605" lon="-1.438991">
        <ele>233.164515</ele>
        <time>2021-10-29T15:45:52.000Z</time>
      </trkpt>
      <trkpt lat="38.273370" lon="-1.439122">
        <ele>233.894682</ele>
        <time>2021-10-29T15:45:57.000Z</time>
      </trkpt>
      <trkpt lat="38.273205" lon="-1.439192">
        <ele>234.389711</ele>
        <time>2021-10-29T15:46:00.000Z</time>
      </trkpt>
      <trkpt lat="38.272918" lon="-1.439305">
        <ele>235.244779</ele>
        <time>2021-10-29T15:46:05.000Z</time>
      </trkpt>
      <trkpt lat="38.272860" lon="-1.439326">
        <ele>235.416413</ele>
        <time>2021-10-29T15:46:06.000Z</time>
      </trkpt>
      <trkpt lat="38.272621" lon="-1.439403">
        <ele>235.096531</ele>
        <time>2021-10-29T15:46:10.000Z</time>
      </trkpt>
      <trkpt lat="38.272494" lon="-1.439445">
        <ele>234.824297</ele>
        <time>2021-10-29T15:46:12.000Z</time>
      </trkpt>
      <trkpt lat="38.272361" lon="-1.439486">
        <ele>234.540384</ele>
        <time>2021-10-29T15:46:14.000Z</time>
      </trkpt>
      <trkpt lat="38.272220" lon="-1.439533">
        <ele>234.237987</ele>
        <time>2021-10-29T15:46:16.000Z</time>
      </trkpt>
      <trkpt lat="38.272076" lon="-1.439575">
        <ele>233.931485</ele>
        <time>2021-10-29T15:46:18.000Z</time>
      </trkpt>
      <trkpt lat="38.271937" lon="-1.439609">
        <ele>233.637820</ele>
        <time>2021-10-29T15:46:20.000Z</time>
      </trkpt>
      <trkpt lat="38.271870" lon="-1.439625">
        <ele>233.496387</ele>
        <time>2021-10-29T15:46:21.000Z</time>
      </trkpt>
      <trkpt lat="38.271742" lon="-1.439660">
        <ele>233.224764</ele>
        <time>2021-10-29T15:46:23.000Z</time>
      </trkpt>
      <trkpt lat="38.271557" lon="-1.439706">
        <ele>232.833683</ele>
        <time>2021-10-29T15:46:26.000Z</time>
      </trkpt>
      <trkpt lat="38.271375" lon="-1.439750">
        <ele>232.449330</ele>
        <time>2021-10-29T15:46:29.000Z</time>
      </trkpt>
      <trkpt lat="38.271316" lon="-1.439767">
        <ele>232.323824</ele>
        <time>2021-10-29T15:46:30.000Z</time>
      </trkpt>
      <trkpt lat="38.271199" lon="-1.439796">
        <ele>232.076520</ele>
        <time>2021-10-29T15:46:32.000Z</time>
      </trkpt>
      <trkpt lat="38.270962" lon="-1.439839">
        <ele>231.791832</ele>
        <time>2021-10-29T15:46:36.000Z</time>
      </trkpt>
      <trkpt lat="38.270900" lon="-1.439840">
        <ele>231.789683</ele>
        <time>2021-10-29T15:46:37.000Z</time>
      </trkpt>
      <trkpt lat="38.270406" lon="-1.439799">
        <ele>231.772522</ele>
        <time>2021-10-29T15:46:45.000Z</time>
      </trkpt>
      <trkpt lat="38.269836" lon="-1.439748">
        <ele>231.752715</ele>
        <time>2021-10-29T15:46:54.000Z</time>
      </trkpt>
      <trkpt lat="38.269713" lon="-1.439741">
        <ele>231.748447</ele>
        <time>2021-10-29T15:46:56.000Z</time>
      </trkpt>
      <trkpt lat="38.269170" lon="-1.439714">
        <ele>231.697496</ele>
        <time>2021-10-29T15:47:05.000Z</time>
      </trkpt>
      <trkpt lat="38.268931" lon="-1.439695">
        <ele>231.612497</ele>
        <time>2021-10-29T15:47:09.000Z</time>
      </trkpt>
      <trkpt lat="38.268382" lon="-1.439659">
        <ele>231.417368</ele>
        <time>2021-10-29T15:47:18.000Z</time>
      </trkpt>
      <trkpt lat="38.267833" lon="-1.439624">
        <ele>231.222254</ele>
        <time>2021-10-29T15:47:27.000Z</time>
      </trkpt>
      <trkpt lat="38.267772" lon="-1.439622">
        <ele>231.200595</ele>
        <time>2021-10-29T15:47:28.000Z</time>
      </trkpt>
      <trkpt lat="38.267531" lon="-1.439605">
        <ele>231.114919</ele>
        <time>2021-10-29T15:47:32.000Z</time>
      </trkpt>
      <trkpt lat="38.267473" lon="-1.439592">
        <ele>231.100178</ele>
        <time>2021-10-29T15:47:33.000Z</time>
      </trkpt>
      <trkpt lat="38.267416" lon="-1.439570">
        <ele>231.284938</ele>
        <time>2021-10-29T15:47:34.000Z</time>
      </trkpt>
      <trkpt lat="38.267361" lon="-1.439543">
        <ele>231.467788</ele>
        <time>2021-10-29T15:47:35.000Z</time>
      </trkpt>
      <trkpt lat="38.267309" lon="-1.439509">
        <ele>231.649111</ele>
        <time>2021-10-29T15:47:36.000Z</time>
      </trkpt>
      <trkpt lat="38.267209" lon="-1.439431">
        <ele>232.012869</ele>
        <time>2021-10-29T15:47:38.000Z</time>
      </trkpt>
      <trkpt lat="38.267034" lon="-1.439245">
        <ele>232.719924</ele>
        <time>2021-10-29T15:47:42.000Z</time>
      </trkpt>
      <trkpt lat="38.266910" lon="-1.439108">
        <ele>233.229140</ele>
        <time>2021-10-29T15:47:45.000Z</time>
      </trkpt>
      <trkpt lat="38.266638" lon="-1.438792">
        <ele>234.371197</ele>
        <time>2021-10-29T15:47:52.000Z</time>
      </trkpt>
      <trkpt lat="38.266478" lon="-1.438609">
        <ele>235.038286</ele>
        <time>2021-10-29T15:47:56.000Z</time>
      </trkpt>
      <trkpt lat="38.266399" lon="-1.438520">
        <ele>235.365463</ele>
        <time>2021-10-29T15:47:58.000Z</time>
      </trkpt>
      <trkpt lat="38.266360" lon="-1.438474">
        <ele>235.530354</ele>
        <time>2021-10-29T15:47:59.000Z</time>
      </trkpt>
      <trkpt lat="38.266242" lon="-1.438335">
        <ele>236.028957</ele>
        <time>2021-10-29T15:48:02.000Z</time>
      </trkpt>
      <trkpt lat="38.266203" lon="-1.438287">
        <ele>236.197195</ele>
        <time>2021-10-29T15:48:03.000Z</time>
      </trkpt>
      <trkpt lat="38.265839" lon="-1.437886">
        <ele>236.683119</ele>
        <time>2021-10-29T15:48:12.000Z</time>
      </trkpt>
      <trkpt lat="38.265527" lon="-1.437528">
        <ele>236.694530</ele>
        <time>2021-10-29T15:48:20.000Z</time>
      </trkpt>
      <trkpt lat="38.265487" lon="-1.437484">
        <ele>236.695966</ele>
        <time>2021-10-29T15:48:21.000Z</time>
      </trkpt>
      <trkpt lat="38.265136" lon="-1.437080">
        <ele>236.708821</ele>
        <time>2021-10-29T15:48:30.000Z</time>
      </trkpt>
      <trkpt lat="38.265099" lon="-1.437042">
        <ele>236.710113</ele>
        <time>2021-10-29T15:48:31.000Z</time>
      </trkpt>
      <trkpt lat="38.265024" lon="-1.436966">
        <ele>236.712717</ele>
        <time>2021-10-29T15:48:33.000Z</time>
      </trkpt>
      <trkpt lat="38.264871" lon="-1.436799">
        <ele>236.718192</ele>
        <time>2021-10-29T15:48:37.000Z</time>
      </trkpt>
      <trkpt lat="38.264563" lon="-1.436439">
        <ele>236.947473</ele>
        <time>2021-10-29T15:48:45.000Z</time>
      </trkpt>
      <trkpt lat="38.264404" lon="-1.436261">
        <ele>237.147340</ele>
        <time>2021-10-29T15:48:49.000Z</time>
      </trkpt>
      <trkpt lat="38.264212" lon="-1.436044">
        <ele>237.389697</ele>
        <time>2021-10-29T15:48:54.000Z</time>
      </trkpt>
      <trkpt lat="38.264141" lon="-1.435973">
        <ele>237.474924</ele>
        <time>2021-10-29T15:48:56.000Z</time>
      </trkpt>
      <trkpt lat="38.264014" lon="-1.435882">
        <ele>237.612504</ele>
        <time>2021-10-29T15:48:59.000Z</time>
      </trkpt>
      <trkpt lat="38.263941" lon="-1.435801">
        <ele>237.703913</ele>
        <time>2021-10-29T15:49:01.000Z</time>
      </trkpt>
      <trkpt lat="38.263882" lon="-1.435698">
        <ele>237.798428</ele>
        <time>2021-10-29T15:49:03.000Z</time>
      </trkpt>
      <trkpt lat="38.263817" lon="-1.435598">
        <ele>237.894664</ele>
        <time>2021-10-29T15:49:05.000Z</time>
      </trkpt>
      <trkpt lat="38.263705" lon="-1.435468">
        <ele>238.037734</ele>
        <time>2021-10-29T15:49:08.000Z</time>
      </trkpt>
      <trkpt lat="38.263669" lon="-1.435426">
        <ele>238.083827</ele>
        <time>2021-10-29T15:49:09.000Z</time>
      </trkpt>
      <trkpt lat="38.263516" lon="-1.435261">
        <ele>238.273110</ele>
        <time>2021-10-29T15:49:13.000Z</time>
      </trkpt>
      <trkpt lat="38.263432" lon="-1.435178">
        <ele>238.373487</ele>
        <time>2021-10-29T15:49:15.000Z</time>
      </trkpt>
      <trkpt lat="38.263116" lon="-1.434824">
        <ele>239.041244</ele>
        <time>2021-10-29T15:49:23.000Z</time>
      </trkpt>
      <trkpt lat="38.262730" lon="-1.434399">
        <ele>239.895659</ele>
        <time>2021-10-29T15:49:33.000Z</time>
      </trkpt>
      <trkpt lat="38.262692" lon="-1.434356">
        <ele>239.980778</ele>
        <time>2021-10-29T15:49:34.000Z</time>
      </trkpt>
      <trkpt lat="38.262299" lon="-1.433911">
        <ele>240.861345</ele>
        <time>2021-10-29T15:49:44.000Z</time>
      </trkpt>
      <trkpt lat="38.262098" lon="-1.433682">
        <ele>241.312942</ele>
        <time>2021-10-29T15:49:49.000Z</time>
      </trkpt>
      <trkpt lat="38.261978" lon="-1.433546">
        <ele>241.542895</ele>
        <time>2021-10-29T15:49:52.000Z</time>
      </trkpt>
      <trkpt lat="38.261697" lon="-1.433232">
        <ele>242.004695</ele>
        <time>2021-10-29T15:49:59.000Z</time>
      </trkpt>
      <trkpt lat="38.261575" lon="-1.433089">
        <ele>242.209519</ele>
        <time>2021-10-29T15:50:02.000Z</time>
      </trkpt>
      <trkpt lat="38.261327" lon="-1.432817">
        <ele>242.613827</ele>
        <time>2021-10-29T15:50:08.000Z</time>
      </trkpt>
      <trkpt lat="38.261130" lon="-1.432585">
        <ele>242.945285</ele>
        <time>2021-10-29T15:50:13.000Z</time>
      </trkpt>
      <trkpt lat="38.260870" lon="-1.432288">
        <ele>243.376739</ele>
        <time>2021-10-29T15:50:20.000Z</time>
      </trkpt>
      <trkpt lat="38.260802" lon="-1.432252">
        <ele>243.467710</ele>
        <time>2021-10-29T15:50:22.000Z</time>
      </trkpt>
      <trkpt lat="38.260771" lon="-1.432258">
        <ele>243.506445</ele>
        <time>2021-10-29T15:50:23.000Z</time>
      </trkpt>
      <trkpt lat="38.260707" lon="-1.432308">
        <ele>243.599196</ele>
        <time>2021-10-29T15:50:25.000Z</time>
      </trkpt>
      <trkpt lat="38.260681" lon="-1.432359">
        <ele>243.645744</ele>
        <time>2021-10-29T15:50:26.000Z</time>
      </trkpt>
      <trkpt lat="38.260663" lon="-1.432424">
        <ele>243.448674</ele>
        <time>2021-10-29T15:50:27.000Z</time>
      </trkpt>
      <trkpt lat="38.260620" lon="-1.432643">
        <ele>242.803221</ele>
        <time>2021-10-29T15:50:30.000Z</time>
      </trkpt>
      <trkpt lat="38.260521" lon="-1.433063">
        <ele>241.549397</ele>
        <time>2021-10-29T15:50:35.000Z</time>
      </trkpt>
      <trkpt lat="38.260496" lon="-1.433152">
        <ele>241.279131</ele>
        <time>2021-10-29T15:50:36.000Z</time>
      </trkpt>
      <trkpt lat="38.260443" lon="-1.433331">
        <ele>240.732147</ele>
        <time>2021-10-29T15:50:38.000Z</time>
      </trkpt>
      <trkpt lat="38.260345" lon="-1.433596">
        <ele>239.894616</ele>
        <time>2021-10-29T15:50:41.000Z</time>
      </trkpt>
      <trkpt lat="38.260303" lon="-1.433682">
        <ele>239.605039</ele>
        <time>2021-10-29T15:50:42.000Z</time>
      </trkpt>
      <trkpt lat="38.260252" lon="-1.433768">
        <ele>239.296894</ele>
        <time>2021-10-29T15:50:43.000Z</time>
      </trkpt>
      <trkpt lat="38.260094" lon="-1.433989">
        <ele>238.442312</ele>
        <time>2021-10-29T15:50:46.000Z</time>
      </trkpt>
      <trkpt lat="38.260047" lon="-1.434054">
        <ele>238.189662</ele>
        <time>2021-10-29T15:50:47.000Z</time>
      </trkpt>
      <trkpt lat="38.259972" lon="-1.434205">
        <ele>237.678787</ele>
        <time>2021-10-29T15:50:49.000Z</time>
      </trkpt>
      <trkpt lat="38.259948" lon="-1.434295">
        <ele>237.407018</ele>
        <time>2021-10-29T15:50:50.000Z</time>
      </trkpt>
      <trkpt lat="38.259936" lon="-1.434392">
        <ele>237.126249</ele>
        <time>2021-10-29T15:50:51.000Z</time>
      </trkpt>
      <trkpt lat="38.259909" lon="-1.434589">
        <ele>237.015537</ele>
        <time>2021-10-29T15:50:53.000Z</time>
      </trkpt>
      <trkpt lat="38.259836" lon="-1.434767">
        <ele>236.921846</ele>
        <time>2021-10-29T15:50:55.000Z</time>
      </trkpt>
      <trkpt lat="38.259779" lon="-1.434839">
        <ele>236.874145</ele>
        <time>2021-10-29T15:50:56.000Z</time>
      </trkpt>
      <trkpt lat="38.259711" lon="-1.434891">
        <ele>236.827017</ele>
        <time>2021-10-29T15:50:57.000Z</time>
      </trkpt>
      <trkpt lat="38.259637" lon="-1.434911">
        <ele>236.782069</ele>
        <time>2021-10-29T15:50:58.000Z</time>
      </trkpt>
      <trkpt lat="38.259564" lon="-1.434902">
        <ele>236.738492</ele>
        <time>2021-10-29T15:50:59.000Z</time>
      </trkpt>
      <trkpt lat="38.259498" lon="-1.434872">
        <ele>236.696854</ele>
        <time>2021-10-29T15:51:00.000Z</time>
      </trkpt>
      <trkpt lat="38.259440" lon="-1.434823">
        <ele>236.655499</ele>
        <time>2021-10-29T15:51:01.000Z</time>
      </trkpt>
      <trkpt lat="38.259365" lon="-1.434684">
        <ele>236.576813</ele>
        <time>2021-10-29T15:51:03.000Z</time>
      </trkpt>
      <trkpt lat="38.259343" lon="-1.434604">
        <ele>236.537266</ele>
        <time>2021-10-29T15:51:04.000Z</time>
      </trkpt>
      <trkpt lat="38.259331" lon="-1.434517">
        <ele>236.496055</ele>
        <time>2021-10-29T15:51:05.000Z</time>
      </trkpt>
      <trkpt lat="38.259341" lon="-1.434343">
        <ele>236.414657</ele>
        <time>2021-10-29T15:51:07.000Z</time>
      </trkpt>
      <trkpt lat="38.259358" lon="-1.434169">
        <ele>236.332851</ele>
        <time>2021-10-29T15:51:09.000Z</time>
      </trkpt>
      <trkpt lat="38.259306" lon="-1.434016">
        <ele>236.255069</ele>
        <time>2021-10-29T15:51:11.000Z</time>
      </trkpt>
      <trkpt lat="38.259114" lon="-1.433786">
        <ele>236.098451</ele>
        <time>2021-10-29T15:51:15.000Z</time>
      </trkpt>
      <trkpt lat="38.259068" lon="-1.433732">
        <ele>236.061279</ele>
        <time>2021-10-29T15:51:16.000Z</time>
      </trkpt>
      <trkpt lat="38.258882" lon="-1.433524">
        <ele>236.434101</ele>
        <time>2021-10-29T15:51:20.000Z</time>
      </trkpt>
      <trkpt lat="38.258792" lon="-1.433418">
        <ele>236.670298</ele>
        <time>2021-10-29T15:51:22.000Z</time>
      </trkpt>
      <trkpt lat="38.258704" lon="-1.433313">
        <ele>236.902644</ele>
        <time>2021-10-29T15:51:24.000Z</time>
      </trkpt>
      <trkpt lat="38.258616" lon="-1.433209">
        <ele>237.133959</ele>
        <time>2021-10-29T15:51:26.000Z</time>
      </trkpt>
      <trkpt lat="38.258414" lon="-1.432964">
        <ele>237.671432</ele>
        <time>2021-10-29T15:51:31.000Z</time>
      </trkpt>
      <trkpt lat="38.258298" lon="-1.432823">
        <ele>237.980400</ele>
        <time>2021-10-29T15:51:34.000Z</time>
      </trkpt>
      <trkpt lat="38.258178" lon="-1.432678">
        <ele>238.299124</ele>
        <time>2021-10-29T15:51:37.000Z</time>
      </trkpt>
      <trkpt lat="38.257977" lon="-1.432446">
        <ele>238.821798</ele>
        <time>2021-10-29T15:51:42.000Z</time>
      </trkpt>
      <trkpt lat="38.257637" lon="-1.432063">
        <ele>239.692975</ele>
        <time>2021-10-29T15:51:51.000Z</time>
      </trkpt>
      <trkpt lat="38.257522" lon="-1.431937">
        <ele>239.980113</ele>
        <time>2021-10-29T15:51:54.000Z</time>
      </trkpt>
      <trkpt lat="38.257258" lon="-1.431635">
        <ele>240.651794</ele>
        <time>2021-10-29T15:52:01.000Z</time>
      </trkpt>
      <trkpt lat="38.257068" lon="-1.431416">
        <ele>241.136844</ele>
        <time>2021-10-29T15:52:06.000Z</time>
      </trkpt>
      <trkpt lat="38.256955" lon="-1.431283">
        <ele>241.428083</ele>
        <time>2021-10-29T15:52:09.000Z</time>
      </trkpt>
      <trkpt lat="38.256880" lon="-1.431192">
        <ele>241.624156</ele>
        <time>2021-10-29T15:52:11.000Z</time>
      </trkpt>
      <trkpt lat="38.256802" lon="-1.431101">
        <ele>241.824378</ele>
        <time>2021-10-29T15:52:13.000Z</time>
      </trkpt>
      <trkpt lat="38.256538" lon="-1.430785">
        <ele>242.510141</ele>
        <time>2021-10-29T15:52:20.000Z</time>
      </trkpt>
      <trkpt lat="38.256199" lon="-1.430409">
        <ele>241.688143</ele>
        <time>2021-10-29T15:52:28.000Z</time>
      </trkpt>
      <trkpt lat="38.256064" lon="-1.430248">
        <ele>240.749252</ele>
        <time>2021-10-29T15:52:31.000Z</time>
      </trkpt>
      <trkpt lat="38.256023" lon="-1.430185">
        <ele>240.423087</ele>
        <time>2021-10-29T15:52:32.000Z</time>
      </trkpt>
      <trkpt lat="38.255949" lon="-1.430046">
        <ele>239.753672</ele>
        <time>2021-10-29T15:52:34.000Z</time>
      </trkpt>
      <trkpt lat="38.255862" lon="-1.429806">
        <ele>238.699967</ele>
        <time>2021-10-29T15:52:37.000Z</time>
      </trkpt>
      <trkpt lat="38.255814" lon="-1.429622">
        <ele>237.927092</ele>
        <time>2021-10-29T15:52:39.000Z</time>
      </trkpt>
      <trkpt lat="38.255763" lon="-1.429321">
        <ele>236.699633</ele>
        <time>2021-10-29T15:52:42.000Z</time>
      </trkpt>
      <trkpt lat="38.255736" lon="-1.429109">
        <ele>235.843515</ele>
        <time>2021-10-29T15:52:44.000Z</time>
      </trkpt>
      <trkpt lat="38.255706" lon="-1.428890">
        <ele>234.957353</ele>
        <time>2021-10-29T15:52:46.000Z</time>
      </trkpt>
      <trkpt lat="38.255677" lon="-1.428673">
        <ele>234.079909</ele>
        <time>2021-10-29T15:52:48.000Z</time>
      </trkpt>
      <trkpt lat="38.255617" lon="-1.428353">
        <ele>232.625690</ele>
        <time>2021-10-29T15:52:51.000Z</time>
      </trkpt>
      <trkpt lat="38.255457" lon="-1.427925">
        <ele>230.468416</ele>
        <time>2021-10-29T15:52:55.000Z</time>
      </trkpt>
      <trkpt lat="38.255406" lon="-1.427822">
        <ele>229.914259</ele>
        <time>2021-10-29T15:52:56.000Z</time>
      </trkpt>
      <trkpt lat="38.255345" lon="-1.427726">
        <ele>229.352248</ele>
        <time>2021-10-29T15:52:57.000Z</time>
      </trkpt>
      <trkpt lat="38.255272" lon="-1.427644">
        <ele>228.788108</ele>
        <time>2021-10-29T15:52:58.000Z</time>
      </trkpt>
      <trkpt lat="38.255187" lon="-1.427580">
        <ele>228.215825</ele>
        <time>2021-10-29T15:52:59.000Z</time>
      </trkpt>
      <trkpt lat="38.255092" lon="-1.427537">
        <ele>227.631508</ele>
        <time>2021-10-29T15:53:00.000Z</time>
      </trkpt>
      <trkpt lat="38.254991" lon="-1.427520">
        <ele>227.041070</ele>
        <time>2021-10-29T15:53:01.000Z</time>
      </trkpt>
      <trkpt lat="38.254788" lon="-1.427541">
        <ele>225.860705</ele>
        <time>2021-10-29T15:53:03.000Z</time>
      </trkpt>
      <trkpt lat="38.254587" lon="-1.427556">
        <ele>224.693809</ele>
        <time>2021-10-29T15:53:05.000Z</time>
      </trkpt>
      <trkpt lat="38.254487" lon="-1.427549">
        <ele>224.113382</ele>
        <time>2021-10-29T15:53:06.000Z</time>
      </trkpt>
      <trkpt lat="38.254286" lon="-1.427509">
        <ele>222.985537</ele>
        <time>2021-10-29T15:53:08.000Z</time>
      </trkpt>
      <trkpt lat="38.254186" lon="-1.427478">
        <ele>222.462145</ele>
        <time>2021-10-29T15:53:09.000Z</time>
      </trkpt>
      <trkpt lat="38.254086" lon="-1.427444">
        <ele>221.935790</ele>
        <time>2021-10-29T15:53:10.000Z</time>
      </trkpt>
      <trkpt lat="38.253991" lon="-1.427411">
        <ele>221.435024</ele>
        <time>2021-10-29T15:53:11.000Z</time>
      </trkpt>
      <trkpt lat="38.253899" lon="-1.427383">
        <ele>220.953990</ele>
        <time>2021-10-29T15:53:12.000Z</time>
      </trkpt>
      <trkpt lat="38.253719" lon="-1.427328">
        <ele>220.012634</ele>
        <time>2021-10-29T15:53:14.000Z</time>
      </trkpt>
      <trkpt lat="38.253624" lon="-1.427301">
        <ele>219.517634</ele>
        <time>2021-10-29T15:53:15.000Z</time>
      </trkpt>
      <trkpt lat="38.253532" lon="-1.427277">
        <ele>219.040060</ele>
        <time>2021-10-29T15:53:16.000Z</time>
      </trkpt>
      <trkpt lat="38.253341" lon="-1.427214">
        <ele>218.036693</ele>
        <time>2021-10-29T15:53:18.000Z</time>
      </trkpt>
      <trkpt lat="38.253150" lon="-1.427143">
        <ele>217.024841</ele>
        <time>2021-10-29T15:53:20.000Z</time>
      </trkpt>
      <trkpt lat="38.253056" lon="-1.427111">
        <ele>216.530026</ele>
        <time>2021-10-29T15:53:21.000Z</time>
      </trkpt>
      <trkpt lat="38.252775" lon="-1.427017">
        <ele>215.052542</ele>
        <time>2021-10-29T15:53:24.000Z</time>
      </trkpt>
      <trkpt lat="38.252682" lon="-1.426986">
        <ele>214.563665</ele>
        <time>2021-10-29T15:53:25.000Z</time>
      </trkpt>
      <trkpt lat="38.252590" lon="-1.426958">
        <ele>214.195244</ele>
        <time>2021-10-29T15:53:26.000Z</time>
      </trkpt>
      <trkpt lat="38.252324" lon="-1.426878">
        <ele>214.081283</ele>
        <time>2021-10-29T15:53:29.000Z</time>
      </trkpt>
      <trkpt lat="38.252249" lon="-1.426869">
        <ele>214.049872</ele>
        <time>2021-10-29T15:53:30.000Z</time>
      </trkpt>
      <trkpt lat="38.252109" lon="-1.426876">
        <ele>213.991454</ele>
        <time>2021-10-29T15:53:32.000Z</time>
      </trkpt>
      <trkpt lat="38.251736" lon="-1.426783">
        <ele>213.832977</ele>
        <time>2021-10-29T15:53:37.000Z</time>
      </trkpt>
      <trkpt lat="38.251651" lon="-1.426781">
        <ele>213.797530</ele>
        <time>2021-10-29T15:53:38.000Z</time>
      </trkpt>
      <trkpt lat="38.251480" lon="-1.426838">
        <ele>213.723828</ele>
        <time>2021-10-29T15:53:40.000Z</time>
      </trkpt>
      <trkpt lat="38.251197" lon="-1.427071">
        <ele>213.583314</ele>
        <time>2021-10-29T15:53:44.000Z</time>
      </trkpt>
      <trkpt lat="38.251128" lon="-1.427110">
        <ele>213.551838</ele>
        <time>2021-10-29T15:53:45.000Z</time>
      </trkpt>
      <trkpt lat="38.251060" lon="-1.427132">
        <ele>213.522584</ele>
        <time>2021-10-29T15:53:46.000Z</time>
      </trkpt>
      <trkpt lat="38.250995" lon="-1.427127">
        <ele>213.495433</ele>
        <time>2021-10-29T15:53:47.000Z</time>
      </trkpt>
      <trkpt lat="38.250931" lon="-1.427103">
        <ele>213.467615</ele>
        <time>2021-10-29T15:53:48.000Z</time>
      </trkpt>
      <trkpt lat="38.250871" lon="-1.427071">
        <ele>213.610703</ele>
        <time>2021-10-29T15:53:49.000Z</time>
      </trkpt>
      <trkpt lat="38.250819" lon="-1.427027">
        <ele>213.882894</ele>
        <time>2021-10-29T15:53:50.000Z</time>
      </trkpt>
      <trkpt lat="38.250619" lon="-1.426830">
        <ele>214.985248</ele>
        <time>2021-10-29T15:53:54.000Z</time>
      </trkpt>
      <trkpt lat="38.250521" lon="-1.426732">
        <ele>215.528496</ele>
        <time>2021-10-29T15:53:56.000Z</time>
      </trkpt>
      <trkpt lat="38.250333" lon="-1.426541">
        <ele>216.577020</ele>
        <time>2021-10-29T15:54:00.000Z</time>
      </trkpt>
      <trkpt lat="38.250246" lon="-1.426448">
        <ele>217.072243</ele>
        <time>2021-10-29T15:54:02.000Z</time>
      </trkpt>
      <trkpt lat="38.250205" lon="-1.426404">
        <ele>217.306004</ele>
        <time>2021-10-29T15:54:03.000Z</time>
      </trkpt>
      <trkpt lat="38.250165" lon="-1.426361">
        <ele>217.534225</ele>
        <time>2021-10-29T15:54:04.000Z</time>
      </trkpt>
      <trkpt lat="38.250097" lon="-1.426271">
        <ele>217.961817</ele>
        <time>2021-10-29T15:54:06.000Z</time>
      </trkpt>
      <trkpt lat="38.249990" lon="-1.426077">
        <ele>218.773468</ele>
        <time>2021-10-29T15:54:10.000Z</time>
      </trkpt>
      <trkpt lat="38.249965" lon="-1.426024">
        <ele>218.985143</ele>
        <time>2021-10-29T15:54:11.000Z</time>
      </trkpt>
      <trkpt lat="38.249939" lon="-1.425970">
        <ele>219.202007</ele>
        <time>2021-10-29T15:54:12.000Z</time>
      </trkpt>
      <trkpt lat="38.249911" lon="-1.425918">
        <ele>219.417872</ele>
        <time>2021-10-29T15:54:13.000Z</time>
      </trkpt>
      <trkpt lat="38.249886" lon="-1.425865">
        <ele>219.629548</ele>
        <time>2021-10-29T15:54:14.000Z</time>
      </trkpt>
      <trkpt lat="38.249861" lon="-1.425811">
        <ele>219.844165</ele>
        <time>2021-10-29T15:54:15.000Z</time>
      </trkpt>
      <trkpt lat="38.249837" lon="-1.425756">
        <ele>220.059588</ele>
        <time>2021-10-29T15:54:16.000Z</time>
      </trkpt>
      <trkpt lat="38.249813" lon="-1.425703">
        <ele>220.269052</ele>
        <time>2021-10-29T15:54:17.000Z</time>
      </trkpt>
      <trkpt lat="38.249788" lon="-1.425649">
        <ele>220.483670</ele>
        <time>2021-10-29T15:54:18.000Z</time>
      </trkpt>
      <trkpt lat="38.249763" lon="-1.425596">
        <ele>220.695345</ele>
        <time>2021-10-29T15:54:19.000Z</time>
      </trkpt>
      <trkpt lat="38.249711" lon="-1.425492">
        <ele>221.117459</ele>
        <time>2021-10-29T15:54:21.000Z</time>
      </trkpt>
      <trkpt lat="38.249685" lon="-1.425441">
        <ele>221.292565</ele>
        <time>2021-10-29T15:54:22.000Z</time>
      </trkpt>
      <trkpt lat="38.249658" lon="-1.425390">
        <ele>221.261028</ele>
        <time>2021-10-29T15:54:23.000Z</time>
      </trkpt>
      <trkpt lat="38.249630" lon="-1.425339">
        <ele>221.229121</ele>
        <time>2021-10-29T15:54:24.000Z</time>
      </trkpt>
      <trkpt lat="38.249489" lon="-1.425091">
        <ele>221.072133</ele>
        <time>2021-10-29T15:54:29.000Z</time>
      </trkpt>
      <trkpt lat="38.249461" lon="-1.425042">
        <ele>221.041061</ele>
        <time>2021-10-29T15:54:30.000Z</time>
      </trkpt>
      <trkpt lat="38.249433" lon="-1.424992">
        <ele>221.009573</ele>
        <time>2021-10-29T15:54:31.000Z</time>
      </trkpt>
      <trkpt lat="38.249404" lon="-1.424943">
        <ele>220.978112</ele>
        <time>2021-10-29T15:54:32.000Z</time>
      </trkpt>
      <trkpt lat="38.249152" lon="-1.424549">
        <ele>220.717564</ele>
        <time>2021-10-29T15:54:40.000Z</time>
      </trkpt>
      <trkpt lat="38.249117" lon="-1.424497">
        <ele>220.682448</ele>
        <time>2021-10-29T15:54:41.000Z</time>
      </trkpt>
      <trkpt lat="38.249083" lon="-1.424445">
        <ele>220.647754</ele>
        <time>2021-10-29T15:54:42.000Z</time>
      </trkpt>
      <trkpt lat="38.248906" lon="-1.424173">
        <ele>220.466627</ele>
        <time>2021-10-29T15:54:47.000Z</time>
      </trkpt>
      <trkpt lat="38.248726" lon="-1.423884">
        <ele>220.277494</ele>
        <time>2021-10-29T15:54:52.000Z</time>
      </trkpt>
      <trkpt lat="38.248387" lon="-1.423343">
        <ele>220.343818</ele>
        <time>2021-10-29T15:55:01.000Z</time>
      </trkpt>
      <trkpt lat="38.248066" lon="-1.422791">
        <ele>220.733723</ele>
        <time>2021-10-29T15:55:10.000Z</time>
      </trkpt>
      <trkpt lat="38.248034" lon="-1.422728">
        <ele>220.776314</ele>
        <time>2021-10-29T15:55:11.000Z</time>
      </trkpt>
      <trkpt lat="38.247774" lon="-1.422163">
        <ele>221.148052</ele>
        <time>2021-10-29T15:55:20.000Z</time>
      </trkpt>
      <trkpt lat="38.247660" lon="-1.421831">
        <ele>221.353745</ele>
        <time>2021-10-29T15:55:25.000Z</time>
      </trkpt>
      <trkpt lat="38.247553" lon="-1.421483">
        <ele>221.698426</ele>
        <time>2021-10-29T15:55:30.000Z</time>
      </trkpt>
      <trkpt lat="38.247416" lon="-1.420857">
        <ele>222.408582</ele>
        <time>2021-10-29T15:55:39.000Z</time>
      </trkpt>
      <trkpt lat="38.247404" lon="-1.420796">
        <ele>222.477302</ele>
        <time>2021-10-29T15:55:40.000Z</time>
      </trkpt>
      <trkpt lat="38.247384" lon="-1.420670">
        <ele>222.617778</ele>
        <time>2021-10-29T15:55:42.000Z</time>
      </trkpt>
      <trkpt lat="38.247366" lon="-1.420546">
        <ele>222.755580</ele>
        <time>2021-10-29T15:55:44.000Z</time>
      </trkpt>
      <trkpt lat="38.247353" lon="-1.420417">
        <ele>222.897707</ele>
        <time>2021-10-29T15:55:46.000Z</time>
      </trkpt>
      <trkpt lat="38.247326" lon="-1.420148">
        <ele>223.194061</ele>
        <time>2021-10-29T15:55:50.000Z</time>
      </trkpt>
      <trkpt lat="38.247314" lon="-1.419943">
        <ele>223.418706</ele>
        <time>2021-10-29T15:55:53.000Z</time>
      </trkpt>
      <trkpt lat="38.247306" lon="-1.419744">
        <ele>223.636457</ele>
        <time>2021-10-29T15:55:56.000Z</time>
      </trkpt>
      <trkpt lat="38.247295" lon="-1.419168">
        <ele>224.439243</ele>
        <time>2021-10-29T15:56:05.000Z</time>
      </trkpt>
      <trkpt lat="38.247295" lon="-1.418841">
        <ele>224.978204</ele>
        <time>2021-10-29T15:56:10.000Z</time>
      </trkpt>
      <trkpt lat="38.247293" lon="-1.418515">
        <ele>225.515534</ele>
        <time>2021-10-29T15:56:15.000Z</time>
      </trkpt>
      <trkpt lat="38.247295" lon="-1.418128">
        <ele>226.153401</ele>
        <time>2021-10-29T15:56:21.000Z</time>
      </trkpt>
      <trkpt lat="38.247295" lon="-1.417755">
        <ele>226.768179</ele>
        <time>2021-10-29T15:56:27.000Z</time>
      </trkpt>
      <trkpt lat="38.247297" lon="-1.417502">
        <ele>227.185195</ele>
        <time>2021-10-29T15:56:31.000Z</time>
      </trkpt>
      <trkpt lat="38.247297" lon="-1.416997">
        <ele>227.585037</ele>
        <time>2021-10-29T15:56:39.000Z</time>
      </trkpt>
      <trkpt lat="38.247285" lon="-1.416605">
        <ele>227.350356</ele>
        <time>2021-10-29T15:56:45.000Z</time>
      </trkpt>
      <trkpt lat="38.247267" lon="-1.416343">
        <ele>227.193023</ele>
        <time>2021-10-29T15:56:49.000Z</time>
      </trkpt>
      <trkpt lat="38.247181" lon="-1.415723">
        <ele>226.816384</ele>
        <time>2021-10-29T15:56:58.000Z</time>
      </trkpt>
      <trkpt lat="38.247101" lon="-1.415377">
        <ele>226.600615</ele>
        <time>2021-10-29T15:57:03.000Z</time>
      </trkpt>
      <trkpt lat="38.247023" lon="-1.415102">
        <ele>226.425703</ele>
        <time>2021-10-29T15:57:07.000Z</time>
      </trkpt>
      <trkpt lat="38.246877" lon="-1.414662">
        <ele>225.097533</ele>
        <time>2021-10-29T15:57:13.000Z</time>
      </trkpt>
      <trkpt lat="38.246847" lon="-1.414588">
        <ele>224.774640</ele>
        <time>2021-10-29T15:57:14.000Z</time>
      </trkpt>
      <trkpt lat="38.246816" lon="-1.414513">
        <ele>224.446025</ele>
        <time>2021-10-29T15:57:15.000Z</time>
      </trkpt>
      <trkpt lat="38.246750" lon="-1.414362">
        <ele>223.775985</ele>
        <time>2021-10-29T15:57:17.000Z</time>
      </trkpt>
      <trkpt lat="38.246643" lon="-1.414130">
        <ele>222.732803</ele>
        <time>2021-10-29T15:57:20.000Z</time>
      </trkpt>
      <trkpt lat="38.246602" lon="-1.414055">
        <ele>222.378491</ele>
        <time>2021-10-29T15:57:21.000Z</time>
      </trkpt>
      <trkpt lat="38.246472" lon="-1.413831">
        <ele>221.298558</ele>
        <time>2021-10-29T15:57:24.000Z</time>
      </trkpt>
      <trkpt lat="38.246372" lon="-1.413693">
        <ele>220.570516</ele>
        <time>2021-10-29T15:57:26.000Z</time>
      </trkpt>
      <trkpt lat="38.246313" lon="-1.413631">
        <ele>220.192844</ele>
        <time>2021-10-29T15:57:27.000Z</time>
      </trkpt>
      <trkpt lat="38.246249" lon="-1.413578">
        <ele>219.815926</ele>
        <time>2021-10-29T15:57:28.000Z</time>
      </trkpt>
      <trkpt lat="38.246177" lon="-1.413535">
        <ele>219.423301</ele>
        <time>2021-10-29T15:57:29.000Z</time>
      </trkpt>
      <trkpt lat="38.246100" lon="-1.413508">
        <ele>219.028998</ele>
        <time>2021-10-29T15:57:30.000Z</time>
      </trkpt>
      <trkpt lat="38.245940" lon="-1.413471">
        <ele>218.226151</ele>
        <time>2021-10-29T15:57:32.000Z</time>
      </trkpt>
      <trkpt lat="38.245801" lon="-1.413380">
        <ele>217.454508</ele>
        <time>2021-10-29T15:57:34.000Z</time>
      </trkpt>
      <trkpt lat="38.245708" lon="-1.413229">
        <ele>216.848333</ele>
        <time>2021-10-29T15:57:36.000Z</time>
      </trkpt>
      <trkpt lat="38.245682" lon="-1.413139">
        <ele>216.545812</ele>
        <time>2021-10-29T15:57:37.000Z</time>
      </trkpt>
      <trkpt lat="38.245633" lon="-1.412856">
        <ele>215.631598</ele>
        <time>2021-10-29T15:57:40.000Z</time>
      </trkpt>
      <trkpt lat="38.245606" lon="-1.412762">
        <ele>215.315847</ele>
        <time>2021-10-29T15:57:41.000Z</time>
      </trkpt>
      <trkpt lat="38.245569" lon="-1.412674">
        <ele>215.000954</ele>
        <time>2021-10-29T15:57:42.000Z</time>
      </trkpt>
      <trkpt lat="38.245524" lon="-1.412591">
        <ele>214.682783</ele>
        <time>2021-10-29T15:57:43.000Z</time>
      </trkpt>
      <trkpt lat="38.245474" lon="-1.412510">
        <ele>214.357771</ele>
        <time>2021-10-29T15:57:44.000Z</time>
      </trkpt>
      <trkpt lat="38.245420" lon="-1.412431">
        <ele>214.027376</ele>
        <time>2021-10-29T15:57:45.000Z</time>
      </trkpt>
      <trkpt lat="38.245362" lon="-1.412354">
        <ele>213.690799</ele>
        <time>2021-10-29T15:57:46.000Z</time>
      </trkpt>
      <trkpt lat="38.245300" lon="-1.412280">
        <ele>213.349447</ele>
        <time>2021-10-29T15:57:47.000Z</time>
      </trkpt>
      <trkpt lat="38.245175" lon="-1.412124">
        <ele>212.646379</ele>
        <time>2021-10-29T15:57:49.000Z</time>
      </trkpt>
      <trkpt lat="38.245046" lon="-1.411968">
        <ele>211.931747</ele>
        <time>2021-10-29T15:57:51.000Z</time>
      </trkpt>
      <trkpt lat="38.244918" lon="-1.411809">
        <ele>211.213445</ele>
        <time>2021-10-29T15:57:53.000Z</time>
      </trkpt>
      <trkpt lat="38.244797" lon="-1.411649">
        <ele>210.512724</ele>
        <time>2021-10-29T15:57:55.000Z</time>
      </trkpt>
      <trkpt lat="38.244671" lon="-1.411498">
        <ele>209.988369</ele>
        <time>2021-10-29T15:57:57.000Z</time>
      </trkpt>
      <trkpt lat="38.244609" lon="-1.411423">
        <ele>209.788696</ele>
        <time>2021-10-29T15:57:58.000Z</time>
      </trkpt>
      <trkpt lat="38.244489" lon="-1.411273">
        <ele>209.396070</ele>
        <time>2021-10-29T15:58:00.000Z</time>
      </trkpt>
      <trkpt lat="38.244254" lon="-1.410985">
        <ele>208.634525</ele>
        <time>2021-10-29T15:58:04.000Z</time>
      </trkpt>
      <trkpt lat="38.244139" lon="-1.410846">
        <ele>208.264306</ele>
        <time>2021-10-29T15:58:06.000Z</time>
      </trkpt>
      <trkpt lat="38.244083" lon="-1.410776">
        <ele>208.081080</ele>
        <time>2021-10-29T15:58:07.000Z</time>
      </trkpt>
      <trkpt lat="38.244030" lon="-1.410707">
        <ele>207.904100</ele>
        <time>2021-10-29T15:58:08.000Z</time>
      </trkpt>
      <trkpt lat="38.243978" lon="-1.410639">
        <ele>207.730063</ele>
        <time>2021-10-29T15:58:09.000Z</time>
      </trkpt>
      <trkpt lat="38.243925" lon="-1.410577">
        <ele>207.562020</ele>
        <time>2021-10-29T15:58:10.000Z</time>
      </trkpt>
      <trkpt lat="38.243873" lon="-1.410528">
        <ele>207.410977</ele>
        <time>2021-10-29T15:58:11.000Z</time>
      </trkpt>
      <trkpt lat="38.243823" lon="-1.410497">
        <ele>207.281132</ele>
        <time>2021-10-29T15:58:12.000Z</time>
      </trkpt>
      <trkpt lat="38.243774" lon="-1.410483">
        <ele>207.163881</ele>
        <time>2021-10-29T15:58:13.000Z</time>
      </trkpt>
      <trkpt lat="38.243725" lon="-1.410480">
        <ele>207.049343</ele>
        <time>2021-10-29T15:58:14.000Z</time>
      </trkpt>
      <trkpt lat="38.243672" lon="-1.410488">
        <ele>206.924731</ele>
        <time>2021-10-29T15:58:15.000Z</time>
      </trkpt>
      <trkpt lat="38.243612" lon="-1.410497">
        <ele>206.783673</ele>
        <time>2021-10-29T15:58:16.000Z</time>
      </trkpt>
      <trkpt lat="38.243547" lon="-1.410499">
        <ele>206.631866</ele>
        <time>2021-10-29T15:58:17.000Z</time>
      </trkpt>
      <trkpt lat="38.243478" lon="-1.410487">
        <ele>206.469268</ele>
        <time>2021-10-29T15:58:18.000Z</time>
      </trkpt>
      <trkpt lat="38.243408" lon="-1.410457">
        <ele>206.296820</ele>
        <time>2021-10-29T15:58:19.000Z</time>
      </trkpt>
      <trkpt lat="38.243281" lon="-1.410332">
        <ele>206.085510</ele>
        <time>2021-10-29T15:58:21.000Z</time>
      </trkpt>
      <trkpt lat="38.243212" lon="-1.410143">
        <ele>206.305461</ele>
        <time>2021-10-29T15:58:23.000Z</time>
      </trkpt>
      <trkpt lat="38.243204" lon="-1.410040">
        <ele>206.414689</ele>
        <time>2021-10-29T15:58:24.000Z</time>
      </trkpt>
      <trkpt lat="38.243206" lon="-1.409934">
        <ele>206.526585</ele>
        <time>2021-10-29T15:58:25.000Z</time>
      </trkpt>
      <trkpt lat="38.243201" lon="-1.409827">
        <ele>206.639704</ele>
        <time>2021-10-29T15:58:26.000Z</time>
      </trkpt>
      <trkpt lat="38.243182" lon="-1.409723">
        <ele>206.752387</ele>
        <time>2021-10-29T15:58:27.000Z</time>
      </trkpt>
      <trkpt lat="38.243144" lon="-1.409627">
        <ele>206.865838</ele>
        <time>2021-10-29T15:58:28.000Z</time>
      </trkpt>
      <trkpt lat="38.243093" lon="-1.409541">
        <ele>206.979561</ele>
        <time>2021-10-29T15:58:29.000Z</time>
      </trkpt>
      <trkpt lat="38.243035" lon="-1.409462">
        <ele>207.093685</ele>
        <time>2021-10-29T15:58:30.000Z</time>
      </trkpt>
      <trkpt lat="38.242973" lon="-1.409388">
        <ele>207.207874</ele>
        <time>2021-10-29T15:58:31.000Z</time>
      </trkpt>
      <trkpt lat="38.242912" lon="-1.409315">
        <ele>207.320360</ele>
        <time>2021-10-29T15:58:32.000Z</time>
      </trkpt>
      <trkpt lat="38.242852" lon="-1.409241">
        <ele>207.432603</ele>
        <time>2021-10-29T15:58:33.000Z</time>
      </trkpt>
      <trkpt lat="38.242793" lon="-1.409168">
        <ele>207.543146</ele>
        <time>2021-10-29T15:58:34.000Z</time>
      </trkpt>
      <trkpt lat="38.242734" lon="-1.409098">
        <ele>207.651507</ele>
        <time>2021-10-29T15:58:35.000Z</time>
      </trkpt>
      <trkpt lat="38.242675" lon="-1.409028">
        <ele>207.759869</ele>
        <time>2021-10-29T15:58:36.000Z</time>
      </trkpt>
      <trkpt lat="38.242618" lon="-1.408958">
        <ele>207.866279</ele>
        <time>2021-10-29T15:58:37.000Z</time>
      </trkpt>
      <trkpt lat="38.242561" lon="-1.408890">
        <ele>207.971236</ele>
        <time>2021-10-29T15:58:38.000Z</time>
      </trkpt>
      <trkpt lat="38.242505" lon="-1.408821">
        <ele>208.075947</ele>
        <time>2021-10-29T15:58:39.000Z</time>
      </trkpt>
      <trkpt lat="38.242114" lon="-1.408341">
        <ele>207.321815</ele>
        <time>2021-10-29T15:58:46.000Z</time>
      </trkpt>
      <trkpt lat="38.241950" lon="-1.408142">
        <ele>206.382315</ele>
        <time>2021-10-29T15:58:49.000Z</time>
      </trkpt>
      <trkpt lat="38.241681" lon="-1.407805">
        <ele>204.817306</ele>
        <time>2021-10-29T15:58:54.000Z</time>
      </trkpt>
      <trkpt lat="38.241359" lon="-1.407405">
        <ele>202.951690</ele>
        <time>2021-10-29T15:59:00.000Z</time>
      </trkpt>
      <trkpt lat="38.241253" lon="-1.407273">
        <ele>202.336808</ele>
        <time>2021-10-29T15:59:02.000Z</time>
      </trkpt>
      <trkpt lat="38.241147" lon="-1.407142">
        <ele>201.724198</ele>
        <time>2021-10-29T15:59:04.000Z</time>
      </trkpt>
      <trkpt lat="38.241093" lon="-1.407078">
        <ele>201.418253</ele>
        <time>2021-10-29T15:59:05.000Z</time>
      </trkpt>
      <trkpt lat="38.240989" lon="-1.406946">
        <ele>200.829825</ele>
        <time>2021-10-29T15:59:07.000Z</time>
      </trkpt>
      <trkpt lat="38.240881" lon="-1.406810">
        <ele>200.274161</ele>
        <time>2021-10-29T15:59:09.000Z</time>
      </trkpt>
      <trkpt lat="38.240829" lon="-1.406742">
        <ele>200.001482</ele>
        <time>2021-10-29T15:59:10.000Z</time>
      </trkpt>
      <trkpt lat="38.240560" lon="-1.406398">
        <ele>198.606798</ele>
        <time>2021-10-29T15:59:15.000Z</time>
      </trkpt>
      <trkpt lat="38.240291" lon="-1.406062">
        <ele>197.228304</ele>
        <time>2021-10-29T15:59:20.000Z</time>
      </trkpt>
      <trkpt lat="38.240076" lon="-1.405789">
        <ele>196.117541</ele>
        <time>2021-10-29T15:59:24.000Z</time>
      </trkpt>
      <trkpt lat="38.239976" lon="-1.405654">
        <ele>195.584378</ele>
        <time>2021-10-29T15:59:26.000Z</time>
      </trkpt>
      <trkpt lat="38.239625" lon="-1.405123">
        <ele>194.439536</ele>
        <time>2021-10-29T15:59:34.000Z</time>
      </trkpt>
      <trkpt lat="38.239583" lon="-1.405057">
        <ele>194.450186</ele>
        <time>2021-10-29T15:59:35.000Z</time>
      </trkpt>
      <trkpt lat="38.239334" lon="-1.404658">
        <ele>194.514079</ele>
        <time>2021-10-29T15:59:41.000Z</time>
      </trkpt>
      <trkpt lat="38.239215" lon="-1.404455">
        <ele>194.545837</ele>
        <time>2021-10-29T15:59:44.000Z</time>
      </trkpt>
      <trkpt lat="38.238893" lon="-1.403867">
        <ele>194.635708</ele>
        <time>2021-10-29T15:59:53.000Z</time>
      </trkpt>
      <trkpt lat="38.238660" lon="-1.403441">
        <ele>194.893952</ele>
        <time>2021-10-29T16:00:00.000Z</time>
      </trkpt>
      <trkpt lat="38.238569" lon="-1.403267">
        <ele>195.444648</ele>
        <time>2021-10-29T16:00:03.000Z</time>
      </trkpt>
      <trkpt lat="38.238540" lon="-1.403210">
        <ele>195.623557</ele>
        <time>2021-10-29T16:00:04.000Z</time>
      </trkpt>
      <trkpt lat="38.238481" lon="-1.403096">
        <ele>195.983209</ele>
        <time>2021-10-29T16:00:06.000Z</time>
      </trkpt>
      <trkpt lat="38.238275" lon="-1.402708">
        <ele>197.216957</ele>
        <time>2021-10-29T16:00:13.000Z</time>
      </trkpt>
      <trkpt lat="38.238133" lon="-1.402407">
        <ele>198.141941</ele>
        <time>2021-10-29T16:00:18.000Z</time>
      </trkpt>
      <trkpt lat="38.238029" lon="-1.402182">
        <ele>198.829696</ele>
        <time>2021-10-29T16:00:22.000Z</time>
      </trkpt>
      <trkpt lat="38.238004" lon="-1.402130">
        <ele>198.990309</ele>
        <time>2021-10-29T16:00:23.000Z</time>
      </trkpt>
      <trkpt lat="38.237973" lon="-1.402085">
        <ele>199.147992</ele>
        <time>2021-10-29T16:00:24.000Z</time>
      </trkpt>
      <trkpt lat="38.237885" lon="-1.402063">
        <ele>199.448780</ele>
        <time>2021-10-29T16:00:26.000Z</time>
      </trkpt>
      <trkpt lat="38.237840" lon="-1.402075">
        <ele>199.602985</ele>
        <time>2021-10-29T16:00:27.000Z</time>
      </trkpt>
      <trkpt lat="38.237591" lon="-1.402147">
        <ele>200.459398</ele>
        <time>2021-10-29T16:00:32.000Z</time>
      </trkpt>
      <trkpt lat="38.237536" lon="-1.402158">
        <ele>200.646129</ele>
        <time>2021-10-29T16:00:33.000Z</time>
      </trkpt>
      <trkpt lat="38.237194" lon="-1.402213">
        <ele>200.306751</ele>
        <time>2021-10-29T16:00:39.000Z</time>
      </trkpt>
      <trkpt lat="38.236708" lon="-1.402331">
        <ele>199.665120</ele>
        <time>2021-10-29T16:00:48.000Z</time>
      </trkpt>
      <trkpt lat="38.236462" lon="-1.402405">
        <ele>199.337310</ele>
        <time>2021-10-29T16:00:54.000Z</time>
      </trkpt>
      <trkpt lat="38.236430" lon="-1.402483">
        <ele>199.247671</ele>
        <time>2021-10-29T16:00:57.000Z</time>
      </trkpt>
      <trkpt lat="38.236426" lon="-1.402530">
        <ele>199.199515</ele>
        <time>2021-10-29T16:00:58.000Z</time>
      </trkpt>
      <trkpt lat="38.236428" lon="-1.402774">
        <ele>198.950955</ele>
        <time>2021-10-29T16:01:02.000Z</time>
      </trkpt>
      <trkpt lat="38.236427" lon="-1.402901">
        <ele>198.821582</ele>
        <time>2021-10-29T16:01:04.000Z</time>
      </trkpt>
      <trkpt lat="38.236428" lon="-1.402965">
        <ele>198.756377</ele>
        <time>2021-10-29T16:01:05.000Z</time>
      </trkpt>
      <trkpt lat="38.236430" lon="-1.403027">
        <ele>198.693169</ele>
        <time>2021-10-29T16:01:06.000Z</time>
      </trkpt>
      <trkpt lat="38.236434" lon="-1.403140">
        <ele>198.577946</ele>
        <time>2021-10-29T16:01:08.000Z</time>
      </trkpt>
      <trkpt lat="38.236440" lon="-1.403271">
        <ele>198.444279</ele>
        <time>2021-10-29T16:01:10.000Z</time>
      </trkpt>
      <trkpt lat="38.236438" lon="-1.403486">
        <ele>198.391196</ele>
        <time>2021-10-29T16:01:13.000Z</time>
      </trkpt>
      <trkpt lat="38.236405" lon="-1.403539">
        <ele>198.391196</ele>
        <time>2021-10-29T16:01:14.000Z</time>
      </trkpt>
      <trkpt lat="38.236365" lon="-1.403567">
        <ele>198.391196</ele>
        <time>2021-10-29T16:01:15.000Z</time>
      </trkpt>
      <trkpt lat="38.236244" lon="-1.403609">
        <ele>198.391196</ele>
        <time>2021-10-29T16:01:18.000Z</time>
      </trkpt>
      <trkpt lat="38.236013" lon="-1.403621">
        <ele>198.391196</ele>
        <time>2021-10-29T16:01:24.000Z</time>
      </trkpt>
      <trkpt lat="38.235761" lon="-1.403613">
        <ele>198.391196</ele>
        <time>2021-10-29T16:01:31.000Z</time>
      </trkpt>
      <trkpt lat="38.235464" lon="-1.403553">
        <ele>198.391196</ele>
        <time>2021-10-29T16:01:39.000Z</time>
      </trkpt>
      <trkpt lat="38.235451" lon="-1.403582">
        <ele>198.391196</ele>
        <time>2021-10-29T16:01:42.000Z</time>
      </trkpt>
      <trkpt lat="38.235450" lon="-1.403595">
        <ele>198.391196</ele>
        <time>2021-10-29T16:01:44.000Z</time>
      </trkpt>
      <trkpt lat="38.235448" lon="-1.403621">
        <ele>198.391196</ele>
        <time>2021-10-29T16:01:46.000Z</time>
      </trkpt>
      <trkpt lat="38.235450" lon="-1.403620">
        <ele>198.391196</ele>
        <time>2021-10-29T16:01:48.000Z</time>
      </trkpt>
      <trkpt lat="38.235440" lon="-1.403981">
        <ele>186.374762</ele>
        <time>2021-11-01T17:33:43.000Z</time>
      </trkpt>
      <trkpt lat="38.235476" lon="-1.404787">
        <ele>186.374762</ele>
        <time>2021-11-01T17:33:43.000Z</time>
      </trkpt>
      <trkpt lat="38.235530" lon="-1.405061">
        <ele>186.374762</ele>
        <time>2021-11-01T17:33:43.000Z</time>
      </trkpt>
      <trkpt lat="38.235530" lon="-1.405122">
        <ele>186.368175</ele>
        <time>2021-11-01T17:33:43.000Z</time>
      </trkpt>
      <trkpt lat="38.235478" lon="-1.405214">
        <ele>186.240639</ele>
        <time>2021-11-01T17:33:43.000Z</time>
      </trkpt>
      <trkpt lat="38.235435" lon="-1.405233">
        <ele>186.175435</ele>
        <time>2021-11-01T17:33:43.000Z</time>
      </trkpt>
      <trkpt lat="38.235293" lon="-1.405235">
        <ele>185.972002</ele>
        <time>2021-11-01T17:33:43.000Z</time>
      </trkpt>
      <trkpt lat="38.235201" lon="-1.405253">
        <ele>185.838660</ele>
        <time>2021-11-01T17:33:43.000Z</time>
      </trkpt>
      <trkpt lat="38.234080" lon="-1.405623">
        <ele>184.179689</ele>
        <time>2021-11-01T17:33:43.000Z</time>
      </trkpt>
      <trkpt lat="38.233266" lon="-1.405767">
        <ele>183.091558</ele>
        <time>2021-11-01T17:33:43.000Z</time>
      </trkpt>
      <trkpt lat="38.232748" lon="-1.405917">
        <ele>182.415818</ele>
        <time>2021-11-01T17:33:43.000Z</time>
      </trkpt>
      <trkpt lat="38.232271" lon="-1.406002">
        <ele>181.803147</ele>
        <time>2021-11-01T17:33:43.000Z</time>
      </trkpt>
      <trkpt lat="38.232101" lon="-1.406080">
        <ele>181.573286</ele>
        <time>2021-11-01T17:33:43.000Z</time>
      </trkpt>
      <trkpt lat="38.231941" lon="-1.406185">
        <ele>181.226826</ele>
        <time>2021-11-01T17:33:43.000Z</time>
      </trkpt>
      <trkpt lat="38.231433" lon="-1.406630">
        <ele>179.886949</ele>
        <time>2021-11-01T17:33:43.000Z</time>
      </trkpt>
      <trkpt lat="38.231308" lon="-1.406765">
        <ele>179.530770</ele>
        <time>2021-11-01T17:33:44.000Z</time>
      </trkpt>
      <trkpt lat="38.231165" lon="-1.406998">
        <ele>179.026091</ele>
        <time>2021-11-01T17:33:44.000Z</time>
      </trkpt>
      <trkpt lat="38.230936" lon="-1.407624">
        <ele>177.847442</ele>
        <time>2021-11-01T17:33:44.000Z</time>
      </trkpt>
      <trkpt lat="38.230546" lon="-1.408467">
        <ele>175.933536</ele>
        <time>2021-11-01T17:33:44.000Z</time>
      </trkpt>
      <trkpt lat="38.230463" lon="-1.408800">
        <ele>175.235069</ele>
        <time>2021-11-01T17:33:44.000Z</time>
      </trkpt>
      <trkpt lat="38.230307" lon="-1.409774">
        <ele>173.247714</ele>
        <time>2021-11-01T17:33:44.000Z</time>
      </trkpt>
      <trkpt lat="38.230165" lon="-1.410392">
        <ele>171.618290</ele>
        <time>2021-11-01T17:33:45.000Z</time>
      </trkpt>
      <trkpt lat="38.230154" lon="-1.410510">
        <ele>171.304326</ele>
        <time>2021-11-01T17:33:45.000Z</time>
      </trkpt>
      <trkpt lat="38.230151" lon="-1.410473">
        <ele>171.206047</ele>
        <time>2021-11-01T17:33:45.000Z</time>
      </trkpt>
      <trkpt lat="38.230148" lon="-1.410501">
        <ele>171.131381</ele>
        <time>2021-11-01T17:33:45.000Z</time>
      </trkpt>
      <trkpt lat="38.230164" lon="-1.410568">
        <ele>170.946356</ele>
        <time>2021-11-01T17:33:46.000Z</time>
      </trkpt>
      <trkpt lat="38.230479" lon="-1.411129">
        <ele>169.124365</ele>
        <time>2021-11-01T17:33:46.000Z</time>
      </trkpt>
      <trkpt lat="38.230551" lon="-1.411218">
        <ele>168.786807</ele>
        <time>2021-11-01T17:33:46.000Z</time>
      </trkpt>
      <trkpt lat="38.230710" lon="-1.411366">
        <ele>168.124292</ele>
        <time>2021-11-01T17:33:46.000Z</time>
      </trkpt>
      <trkpt lat="38.231211" lon="-1.411765">
        <ele>166.770073</ele>
        <time>2021-11-01T17:33:46.000Z</time>
      </trkpt>
      <trkpt lat="38.231627" lon="-1.412128">
        <ele>166.356308</ele>
        <time>2021-11-01T17:33:47.000Z</time>
      </trkpt>
      <trkpt lat="38.231985" lon="-1.412415">
        <ele>166.009221</ele>
        <time>2021-11-01T17:33:47.000Z</time>
      </trkpt>
      <trkpt lat="38.232136" lon="-1.412503">
        <ele>165.872976</ele>
        <time>2021-11-01T17:33:47.000Z</time>
      </trkpt>
      <trkpt lat="38.232454" lon="-1.412600">
        <ele>165.604704</ele>
        <time>2021-11-01T17:33:48.000Z</time>
      </trkpt>
      <trkpt lat="38.232773" lon="-1.412795">
        <ele>165.468157</ele>
        <time>2021-11-01T17:33:48.000Z</time>
      </trkpt>
      <trkpt lat="38.233194" lon="-1.413233">
        <ele>165.393983</ele>
        <time>2021-11-01T17:33:48.000Z</time>
      </trkpt>
      <trkpt lat="38.233268" lon="-1.413392">
        <ele>165.374178</ele>
        <time>2021-11-01T17:33:49.000Z</time>
      </trkpt>
      <trkpt lat="38.233406" lon="-1.414147">
        <ele>165.291110</ele>
        <time>2021-11-01T17:33:49.000Z</time>
      </trkpt>
      <trkpt lat="38.233493" lon="-1.414518">
        <ele>165.222485</ele>
        <time>2021-11-01T17:33:49.000Z</time>
      </trkpt>
      <trkpt lat="38.233611" lon="-1.414914">
        <ele>164.855448</ele>
        <time>2021-11-01T17:33:50.000Z</time>
      </trkpt>
      <trkpt lat="38.233616" lon="-1.414981">
        <ele>164.797125</ele>
        <time>2021-11-01T17:33:50.000Z</time>
      </trkpt>
      <trkpt lat="38.233601" lon="-1.415041">
        <ele>164.742559</ele>
        <time>2021-11-01T17:33:50.000Z</time>
      </trkpt>
      <trkpt lat="38.233532" lon="-1.415157">
        <ele>164.616462</ele>
        <time>2021-11-01T17:33:51.000Z</time>
      </trkpt>
      <trkpt lat="38.233490" lon="-1.415189">
        <ele>164.562461</ele>
        <time>2021-11-01T17:33:51.000Z</time>
      </trkpt>
      <trkpt lat="38.233049" lon="-1.415300">
        <ele>164.066508</ele>
        <time>2021-11-01T17:33:51.000Z</time>
      </trkpt>
      <trkpt lat="38.233006" lon="-1.415330">
        <ele>164.012412</ele>
        <time>2021-11-01T17:33:52.000Z</time>
      </trkpt>
      <trkpt lat="38.232983" lon="-1.415375">
        <ele>163.965886</ele>
        <time>2021-11-01T17:33:52.000Z</time>
      </trkpt>
      <trkpt lat="38.232980" lon="-1.415509">
        <ele>163.849713</ele>
        <time>2021-11-01T17:33:53.000Z</time>
      </trkpt>
      <trkpt lat="38.233044" lon="-1.416218">
        <ele>163.242685</ele>
        <time>2021-11-01T17:33:53.000Z</time>
      </trkpt>
      <trkpt lat="38.233044" lon="-1.416439">
        <ele>163.109062</ele>
        <time>2021-11-01T17:33:53.000Z</time>
      </trkpt>
      <trkpt lat="38.232801" lon="-1.417454">
        <ele>162.467489</ele>
        <time>2021-11-01T17:33:54.000Z</time>
      </trkpt>
      <trkpt lat="38.232687" lon="-1.417852">
        <ele>162.211345</ele>
        <time>2021-11-01T17:33:54.000Z</time>
      </trkpt>
      <trkpt lat="38.232618" lon="-1.418026">
        <ele>162.093492</ele>
        <time>2021-11-01T17:33:55.000Z</time>
      </trkpt>
      <trkpt lat="38.232315" lon="-1.418576">
        <ele>161.654164</ele>
        <time>2021-11-01T17:33:55.000Z</time>
      </trkpt>
      <trkpt lat="38.231984" lon="-1.419048">
        <ele>161.207322</ele>
        <time>2021-11-01T17:33:56.000Z</time>
      </trkpt>
      <trkpt lat="38.231909" lon="-1.419223">
        <ele>161.066536</ele>
        <time>2021-11-01T17:33:56.000Z</time>
      </trkpt>
      <trkpt lat="38.231847" lon="-1.419498">
        <ele>160.864486</ele>
        <time>2021-11-01T17:33:56.000Z</time>
      </trkpt>
      <trkpt lat="38.231853" lon="-1.419704">
        <ele>160.718906</ele>
        <time>2021-11-01T17:33:57.000Z</time>
      </trkpt>
      <trkpt lat="38.231898" lon="-1.420128">
        <ele>160.416749</ele>
        <time>2021-11-01T17:33:57.000Z</time>
      </trkpt>
      <trkpt lat="38.232130" lon="-1.421009">
        <ele>160.008666</ele>
        <time>2021-11-01T17:33:58.000Z</time>
      </trkpt>
      <trkpt lat="38.232259" lon="-1.421319">
        <ele>159.882168</ele>
        <time>2021-11-01T17:33:58.000Z</time>
      </trkpt>
      <trkpt lat="38.232704" lon="-1.422206">
        <ele>159.502661</ele>
        <time>2021-11-01T17:33:59.000Z</time>
      </trkpt>
      <trkpt lat="38.232770" lon="-1.422403">
        <ele>159.431334</ele>
        <time>2021-11-01T17:33:59.000Z</time>
      </trkpt>
      <trkpt lat="38.232854" lon="-1.422744">
        <ele>159.348732</ele>
        <time>2021-11-01T17:34:00.000Z</time>
      </trkpt>
      <trkpt lat="38.232905" lon="-1.423082">
        <ele>159.269180</ele>
        <time>2021-11-01T17:34:01.000Z</time>
      </trkpt>
      <trkpt lat="38.232939" lon="-1.424560">
        <ele>158.927415</ele>
        <time>2021-11-01T17:34:01.000Z</time>
      </trkpt>
      <trkpt lat="38.232956" lon="-1.424773">
        <ele>158.900882</ele>
        <time>2021-11-01T17:34:02.000Z</time>
      </trkpt>
      <trkpt lat="38.233031" lon="-1.425110">
        <ele>158.873502</ele>
        <time>2021-11-01T17:34:02.000Z</time>
      </trkpt>
      <trkpt lat="38.233029" lon="-1.425450">
        <ele>158.846923</ele>
        <time>2021-11-01T17:34:03.000Z</time>
      </trkpt>
      <trkpt lat="38.232969" lon="-1.425899">
        <ele>158.811320</ele>
        <time>2021-11-01T17:34:04.000Z</time>
      </trkpt>
      <trkpt lat="38.232529" lon="-1.427447">
        <ele>159.023633</ele>
        <time>2021-11-01T17:34:04.000Z</time>
      </trkpt>
      <trkpt lat="38.232376" lon="-1.428047">
        <ele>159.304142</ele>
        <time>2021-11-01T17:34:05.000Z</time>
      </trkpt>
      <trkpt lat="38.232362" lon="-1.428183">
        <ele>159.365135</ele>
        <time>2021-11-01T17:34:05.000Z</time>
      </trkpt>
      <trkpt lat="38.232380" lon="-1.428390">
        <ele>159.457744</ele>
        <time>2021-11-01T17:34:06.000Z</time>
      </trkpt>
      <trkpt lat="38.232480" lon="-1.428796">
        <ele>159.646949</ele>
        <time>2021-11-01T17:34:07.000Z</time>
      </trkpt>
      <trkpt lat="38.232840" lon="-1.429713">
        <ele>160.174147</ele>
        <time>2021-11-01T17:34:07.000Z</time>
      </trkpt>
      <trkpt lat="38.233064" lon="-1.430194">
        <ele>160.473340</ele>
        <time>2021-11-01T17:34:08.000Z</time>
      </trkpt>
      <trkpt lat="38.233365" lon="-1.430699">
        <ele>160.812526</ele>
        <time>2021-11-01T17:34:09.000Z</time>
      </trkpt>
      <trkpt lat="38.233743" lon="-1.431199">
        <ele>161.386385</ele>
        <time>2021-11-01T17:34:10.000Z</time>
      </trkpt>
      <trkpt lat="38.234322" lon="-1.431791">
        <ele>162.387606</ele>
        <time>2021-11-01T17:34:10.000Z</time>
      </trkpt>
      <trkpt lat="38.234657" lon="-1.432090">
        <ele>162.939206</ele>
        <time>2021-11-01T17:34:11.000Z</time>
      </trkpt>
      <trkpt lat="38.234951" lon="-1.432414">
        <ele>163.727176</ele>
        <time>2021-11-01T17:34:12.000Z</time>
      </trkpt>
      <trkpt lat="38.235185" lon="-1.432618">
        <ele>165.749902</ele>
        <time>2021-11-01T17:34:13.000Z</time>
      </trkpt>
      <trkpt lat="38.235509" lon="-1.432831">
        <ele>168.350630</ele>
        <time>2021-11-01T17:34:13.000Z</time>
      </trkpt>
      <trkpt lat="38.235770" lon="-1.432979">
        <ele>170.388425</ele>
        <time>2021-11-01T17:34:14.000Z</time>
      </trkpt>
      <trkpt lat="38.235989" lon="-1.433028">
        <ele>171.974311</ele>
        <time>2021-11-01T17:34:15.000Z</time>
      </trkpt>
      <trkpt lat="38.236110" lon="-1.433016">
        <ele>172.839919</ele>
        <time>2021-11-01T17:34:16.000Z</time>
      </trkpt>
      <trkpt lat="38.236168" lon="-1.433039">
        <ele>173.273188</ele>
        <time>2021-11-01T17:34:17.000Z</time>
      </trkpt>
      <trkpt lat="38.236188" lon="-1.433097">
        <ele>173.628041</ele>
        <time>2021-11-01T17:34:17.000Z</time>
      </trkpt>
      <trkpt lat="38.236135" lon="-1.433246">
        <ele>174.544355</ele>
        <time>2021-11-01T17:34:18.000Z</time>
      </trkpt>
      <trkpt lat="38.236105" lon="-1.433289">
        <ele>174.866549</ele>
        <time>2021-11-01T17:34:19.000Z</time>
      </trkpt>
      <trkpt lat="38.236030" lon="-1.433342">
        <ele>175.478341</ele>
        <time>2021-11-01T17:34:20.000Z</time>
      </trkpt>
      <trkpt lat="38.235990" lon="-1.433408">
        <ele>175.945348</ele>
        <time>2021-11-01T17:34:21.000Z</time>
      </trkpt>
      <trkpt lat="38.235915" lon="-1.433914">
        <ele>180.208530</ele>
        <time>2021-11-01T17:34:21.000Z</time>
      </trkpt>
      <trkpt lat="38.235651" lon="-1.434384">
        <ele>185.161836</ele>
        <time>2021-11-01T17:34:22.000Z</time>
      </trkpt>
      <trkpt lat="38.235553" lon="-1.434674">
        <ele>187.868190</ele>
        <time>2021-11-01T17:34:23.000Z</time>
      </trkpt>
      <trkpt lat="38.235386" lon="-1.434979">
        <ele>191.055389</ele>
        <time>2021-11-01T17:34:24.000Z</time>
      </trkpt>
      <trkpt lat="38.235347" lon="-1.435169">
        <ele>192.738876</ele>
        <time>2021-11-01T17:34:25.000Z</time>
      </trkpt>
      <trkpt lat="38.235286" lon="-1.435319">
        <ele>194.186883</ele>
        <time>2021-11-01T17:34:26.000Z</time>
      </trkpt>
      <trkpt lat="38.235179" lon="-1.435450">
        <ele>195.807029</ele>
        <time>2021-11-01T17:34:26.000Z</time>
      </trkpt>
      <trkpt lat="38.234983" lon="-1.435599">
        <ele>198.326493</ele>
        <time>2021-11-01T17:34:27.000Z</time>
      </trkpt>
      <trkpt lat="38.234868" lon="-1.435633">
        <ele>199.629787</ele>
        <time>2021-11-01T17:34:28.000Z</time>
      </trkpt>
      <trkpt lat="38.234683" lon="-1.435650">
        <ele>201.677357</ele>
        <time>2021-11-01T17:34:29.000Z</time>
      </trkpt>
      <trkpt lat="38.234589" lon="-1.435685">
        <ele>202.758514</ele>
        <time>2021-11-01T17:34:30.000Z</time>
      </trkpt>
      <trkpt lat="38.234434" lon="-1.435831">
        <ele>204.887015</ele>
        <time>2021-11-01T17:34:31.000Z</time>
      </trkpt>
      <trkpt lat="38.234344" lon="-1.435964">
        <ele>206.409223</ele>
        <time>2021-11-01T17:34:32.000Z</time>
      </trkpt>
      <trkpt lat="38.234259" lon="-1.436214">
        <ele>208.771381</ele>
        <time>2021-11-01T17:34:33.000Z</time>
      </trkpt>
      <trkpt lat="38.234160" lon="-1.436414">
        <ele>210.821251</ele>
        <time>2021-11-01T17:34:33.000Z</time>
      </trkpt>
      <trkpt lat="38.234051" lon="-1.436826">
        <ele>214.590977</ele>
        <time>2021-11-01T17:34:34.000Z</time>
      </trkpt>
      <trkpt lat="38.233830" lon="-1.437405">
        <ele>218.112087</ele>
        <time>2021-11-01T17:34:35.000Z</time>
      </trkpt>
      <trkpt lat="38.233741" lon="-1.437732">
        <ele>219.725357</ele>
        <time>2021-11-01T17:34:36.000Z</time>
      </trkpt>
      <trkpt lat="38.233672" lon="-1.437914">
        <ele>220.667429</ele>
        <time>2021-11-01T17:34:37.000Z</time>
      </trkpt>
      <trkpt lat="38.233670" lon="-1.438062">
        <ele>221.357455</ele>
        <time>2021-11-01T17:34:38.000Z</time>
      </trkpt>
      <trkpt lat="38.233752" lon="-1.438260">
        <ele>222.400892</ele>
        <time>2021-11-01T17:34:39.000Z</time>
      </trkpt>
      <trkpt lat="38.233794" lon="-1.438436">
        <ele>223.258368</ele>
        <time>2021-11-01T17:34:40.000Z</time>
      </trkpt>
      <trkpt lat="38.233932" lon="-1.439326">
        <ele>227.324012</ele>
        <time>2021-11-01T17:34:41.000Z</time>
      </trkpt>
      <trkpt lat="38.234005" lon="-1.440012">
        <ele>230.070742</ele>
        <time>2021-11-01T17:34:42.000Z</time>
      </trkpt>
      <trkpt lat="38.234062" lon="-1.440389">
        <ele>231.594035</ele>
        <time>2021-11-01T17:34:43.000Z</time>
      </trkpt>
      <trkpt lat="38.234104" lon="-1.440550">
        <ele>232.267148</ele>
        <time>2021-11-01T17:34:44.000Z</time>
      </trkpt>
      <trkpt lat="38.234145" lon="-1.440634">
        <ele>232.659542</ele>
        <time>2021-11-01T17:34:45.000Z</time>
      </trkpt>
      <trkpt lat="38.234289" lon="-1.440775">
        <ele>233.577186</ele>
        <time>2021-11-01T17:34:46.000Z</time>
      </trkpt>
      <trkpt lat="38.234302" lon="-1.440849">
        <ele>233.878051</ele>
        <time>2021-11-01T17:34:47.000Z</time>
      </trkpt>
      <trkpt lat="38.234291" lon="-1.440895">
        <ele>234.068837</ele>
        <time>2021-11-01T17:34:48.000Z</time>
      </trkpt>
      <trkpt lat="38.234220" lon="-1.440982">
        <ele>234.566612</ele>
        <time>2021-11-01T17:34:49.000Z</time>
      </trkpt>
      <trkpt lat="38.233944" lon="-1.441164">
        <ele>236.201296</ele>
        <time>2021-11-01T17:34:50.000Z</time>
      </trkpt>
      <trkpt lat="38.233718" lon="-1.441356">
        <ele>237.707916</ele>
        <time>2021-11-01T17:34:51.000Z</time>
      </trkpt>
      <trkpt lat="38.233525" lon="-1.441494">
        <ele>238.935379</ele>
        <time>2021-11-01T17:34:52.000Z</time>
      </trkpt>
      <trkpt lat="38.233398" lon="-1.441536">
        <ele>239.662987</ele>
        <time>2021-11-01T17:34:53.000Z</time>
      </trkpt>
      <trkpt lat="38.233158" lon="-1.441566">
        <ele>241.000224</ele>
        <time>2021-11-01T17:34:54.000Z</time>
      </trkpt>
      <trkpt lat="38.233005" lon="-1.441631">
        <ele>241.894627</ele>
        <time>2021-11-01T17:34:55.000Z</time>
      </trkpt>
      <trkpt lat="38.232905" lon="-1.441732">
        <ele>242.602458</ele>
        <time>2021-11-01T17:34:56.000Z</time>
      </trkpt>
      <trkpt lat="38.232822" lon="-1.441862">
        <ele>243.332158</ele>
        <time>2021-11-01T17:34:57.000Z</time>
      </trkpt>
      <trkpt lat="38.232758" lon="-1.442039">
        <ele>244.180883</ele>
        <time>2021-11-01T17:34:58.000Z</time>
      </trkpt>
      <trkpt lat="38.232290" lon="-1.444335">
        <ele>249.006815</ele>
        <time>2021-11-01T17:34:59.000Z</time>
      </trkpt>
      <trkpt lat="38.232205" lon="-1.444605">
        <ele>249.478333</ele>
        <time>2021-11-01T17:35:00.000Z</time>
      </trkpt>
      <trkpt lat="38.232120" lon="-1.444751">
        <ele>249.731828</ele>
        <time>2021-11-01T17:35:01.000Z</time>
      </trkpt>
      <trkpt lat="38.231999" lon="-1.444911">
        <ele>250.041636</ele>
        <time>2021-11-01T17:35:02.000Z</time>
      </trkpt>
      <trkpt lat="38.230953" lon="-1.446134">
        <ele>252.562575</ele>
        <time>2021-11-01T17:35:03.000Z</time>
      </trkpt>
      <trkpt lat="38.229771" lon="-1.447585">
        <ele>254.898291</ele>
        <time>2021-11-01T17:35:05.000Z</time>
      </trkpt>
      <trkpt lat="38.229633" lon="-1.447778">
        <ele>255.205256</ele>
        <time>2021-11-01T17:35:06.000Z</time>
      </trkpt>
      <trkpt lat="38.229539" lon="-1.447959">
        <ele>255.498519</ele>
        <time>2021-11-01T17:35:07.000Z</time>
      </trkpt>
      <trkpt lat="38.229366" lon="-1.448412">
        <ele>256.179300</ele>
        <time>2021-11-01T17:35:08.000Z</time>
      </trkpt>
      <trkpt lat="38.229150" lon="-1.449049">
        <ele>257.117038</ele>
        <time>2021-11-01T17:35:09.000Z</time>
      </trkpt>
      <trkpt lat="38.228897" lon="-1.449891">
        <ele>258.342332</ele>
        <time>2021-11-01T17:35:11.000Z</time>
      </trkpt>
      <trkpt lat="38.228400" lon="-1.451254">
        <ele>260.485501</ele>
        <time>2021-11-01T17:35:12.000Z</time>
      </trkpt>
      <trkpt lat="38.228318" lon="-1.451337">
        <ele>260.675706</ele>
        <time>2021-11-01T17:35:13.000Z</time>
      </trkpt>
      <trkpt lat="38.228220" lon="-1.451362">
        <ele>260.857170</ele>
        <time>2021-11-01T17:35:14.000Z</time>
      </trkpt>
      <trkpt lat="38.227296" lon="-1.451286">
        <ele>263.868391</ele>
        <time>2021-11-01T17:35:16.000Z</time>
      </trkpt>
      <trkpt lat="38.227221" lon="-1.451286">
        <ele>264.175215</ele>
        <time>2021-11-01T17:35:17.000Z</time>
      </trkpt>
      <trkpt lat="38.227159" lon="-1.451311">
        <ele>264.441276</ele>
        <time>2021-11-01T17:35:18.000Z</time>
      </trkpt>
      <trkpt lat="38.227123" lon="-1.451382">
        <ele>264.712853</ele>
        <time>2021-11-01T17:35:19.000Z</time>
      </trkpt>
      <trkpt lat="38.227064" lon="-1.451616">
        <ele>265.502651</ele>
        <time>2021-11-01T17:35:21.000Z</time>
      </trkpt>
      <trkpt lat="38.226942" lon="-1.451976">
        <ele>266.762658</ele>
        <time>2021-11-01T17:35:22.000Z</time>
      </trkpt>
      <trkpt lat="38.226732" lon="-1.452393">
        <ele>268.354516</ele>
        <time>2021-11-01T17:35:23.000Z</time>
      </trkpt>
      <trkpt lat="38.226611" lon="-1.452588">
        <ele>269.084229</ele>
        <time>2021-11-01T17:35:25.000Z</time>
      </trkpt>
      <trkpt lat="38.226312" lon="-1.452821">
        <ele>270.207709</ele>
        <time>2021-11-01T17:35:26.000Z</time>
      </trkpt>
      <trkpt lat="38.226062" lon="-1.453118">
        <ele>271.303575</ele>
        <time>2021-11-01T17:35:27.000Z</time>
      </trkpt>
      <trkpt lat="38.225773" lon="-1.453383">
        <ele>272.444990</ele>
        <time>2021-11-01T17:35:29.000Z</time>
      </trkpt>
      <trkpt lat="38.225499" lon="-1.453608">
        <ele>273.489920</ele>
        <time>2021-11-01T17:35:30.000Z</time>
      </trkpt>
      <trkpt lat="38.225229" lon="-1.453876">
        <ele>274.587140</ele>
        <time>2021-11-01T17:35:31.000Z</time>
      </trkpt>
      <trkpt lat="38.225152" lon="-1.453934">
        <ele>274.803323</ele>
        <time>2021-11-01T17:35:33.000Z</time>
      </trkpt>
      <trkpt lat="38.224585" lon="-1.454164">
        <ele>276.220603</ele>
        <time>2021-11-01T17:35:34.000Z</time>
      </trkpt>
      <trkpt lat="38.224218" lon="-1.454273">
        <ele>277.118130</ele>
        <time>2021-11-01T17:35:36.000Z</time>
      </trkpt>
      <trkpt lat="38.223662" lon="-1.454474">
        <ele>278.494672</ele>
        <time>2021-11-01T17:35:37.000Z</time>
      </trkpt>
      <trkpt lat="38.223091" lon="-1.454794">
        <ele>280.310277</ele>
        <time>2021-11-01T17:35:38.000Z</time>
      </trkpt>
      <trkpt lat="38.222811" lon="-1.454923">
        <ele>281.232504</ele>
        <time>2021-11-01T17:35:40.000Z</time>
      </trkpt>
      <trkpt lat="38.222651" lon="-1.454969">
        <ele>281.740514</ele>
        <time>2021-11-01T17:35:41.000Z</time>
      </trkpt>
      <trkpt lat="38.222487" lon="-1.454988">
        <ele>282.250530</ele>
        <time>2021-11-01T17:35:43.000Z</time>
      </trkpt>
      <trkpt lat="38.221943" lon="-1.454955">
        <ele>283.937237</ele>
        <time>2021-11-01T17:35:44.000Z</time>
      </trkpt>
      <trkpt lat="38.221636" lon="-1.454956">
        <ele>284.994276</ele>
        <time>2021-11-01T17:35:46.000Z</time>
      </trkpt>
      <trkpt lat="38.221516" lon="-1.454995">
        <ele>285.471594</ele>
        <time>2021-11-01T17:35:47.000Z</time>
      </trkpt>
      <trkpt lat="38.221166" lon="-1.455178">
        <ele>286.929867</ele>
        <time>2021-11-01T17:35:48.000Z</time>
      </trkpt>
      <trkpt lat="38.221102" lon="-1.455228">
        <ele>287.219278</ele>
        <time>2021-11-01T17:35:50.000Z</time>
      </trkpt>
      <trkpt lat="38.221061" lon="-1.455312">
        <ele>287.518704</ele>
        <time>2021-11-01T17:35:51.000Z</time>
      </trkpt>
      <trkpt lat="38.220971" lon="-1.455591">
        <ele>288.431907</ele>
        <time>2021-11-01T17:35:53.000Z</time>
      </trkpt>
      <trkpt lat="38.220888" lon="-1.456069">
        <ele>289.914139</ele>
        <time>2021-11-01T17:35:54.000Z</time>
      </trkpt>
      <trkpt lat="38.220791" lon="-1.456381">
        <ele>290.930104</ele>
        <time>2021-11-01T17:35:56.000Z</time>
      </trkpt>
      <trkpt lat="38.220734" lon="-1.456534">
        <ele>291.475914</ele>
        <time>2021-11-01T17:35:57.000Z</time>
      </trkpt>
      <trkpt lat="38.220583" lon="-1.456845">
        <ele>293.220607</ele>
        <time>2021-11-01T17:35:59.000Z</time>
      </trkpt>
      <trkpt lat="38.220485" lon="-1.457163">
        <ele>294.850732</ele>
        <time>2021-11-01T17:36:00.000Z</time>
      </trkpt>
      <trkpt lat="38.220309" lon="-1.457587">
        <ele>297.139195</ele>
        <time>2021-11-01T17:36:02.000Z</time>
      </trkpt>
      <trkpt lat="38.220230" lon="-1.457743">
        <ele>298.024912</ele>
        <time>2021-11-01T17:36:03.000Z</time>
      </trkpt>
      <trkpt lat="38.220134" lon="-1.457861">
        <ele>298.835555</ele>
        <time>2021-11-01T17:36:05.000Z</time>
      </trkpt>
      <trkpt lat="38.220058" lon="-1.457918">
        <ele>299.371379</ele>
        <time>2021-11-01T17:36:07.000Z</time>
      </trkpt>
      <trkpt lat="38.219910" lon="-1.457995">
        <ele>300.342571</ele>
        <time>2021-11-01T17:36:08.000Z</time>
      </trkpt>
      <trkpt lat="38.219790" lon="-1.458034">
        <ele>301.094870</ele>
        <time>2021-11-01T17:36:10.000Z</time>
      </trkpt>
      <trkpt lat="38.219426" lon="-1.458228">
        <ele>303.725051</ele>
        <time>2021-11-01T17:36:11.000Z</time>
      </trkpt>
      <trkpt lat="38.219296" lon="-1.458320">
        <ele>304.806897</ele>
        <time>2021-11-01T17:36:13.000Z</time>
      </trkpt>
      <trkpt lat="38.219163" lon="-1.458469">
        <ele>306.095570</ele>
        <time>2021-11-01T17:36:14.000Z</time>
      </trkpt>
      <trkpt lat="38.219122" lon="-1.458557">
        <ele>306.680197</ele>
        <time>2021-11-01T17:36:16.000Z</time>
      </trkpt>
      <trkpt lat="38.219058" lon="-1.458867">
        <ele>308.511756</ele>
        <time>2021-11-01T17:36:17.000Z</time>
      </trkpt>
      <trkpt lat="38.219006" lon="-1.459004">
        <ele>309.381183</ele>
        <time>2021-11-01T17:36:19.000Z</time>
      </trkpt>
      <trkpt lat="38.218816" lon="-1.459311">
        <ele>311.614389</ele>
        <time>2021-11-01T17:36:21.000Z</time>
      </trkpt>
      <trkpt lat="38.218497" lon="-1.459773">
        <ele>315.129048</ele>
        <time>2021-11-01T17:36:22.000Z</time>
      </trkpt>
      <trkpt lat="38.218161" lon="-1.460357">
        <ele>318.542145</ele>
        <time>2021-11-01T17:36:24.000Z</time>
      </trkpt>
      <trkpt lat="38.218012" lon="-1.460804">
        <ele>320.798664</ele>
        <time>2021-11-01T17:36:25.000Z</time>
      </trkpt>
      <trkpt lat="38.217771" lon="-1.461249">
        <ele>323.310378</ele>
        <time>2021-11-01T17:36:27.000Z</time>
      </trkpt>
      <trkpt lat="38.217752" lon="-1.461384">
        <ele>323.947737</ele>
        <time>2021-11-01T17:36:29.000Z</time>
      </trkpt>
      <trkpt lat="38.217748" lon="-1.461616">
        <ele>325.026147</ele>
        <time>2021-11-01T17:36:30.000Z</time>
      </trkpt>
      <trkpt lat="38.217682" lon="-1.461829">
        <ele>326.103904</ele>
        <time>2021-11-01T17:36:32.000Z</time>
      </trkpt>
      <trkpt lat="38.217554" lon="-1.462089">
        <ele>327.864192</ele>
        <time>2021-11-01T17:36:34.000Z</time>
      </trkpt>
      <trkpt lat="38.217371" lon="-1.462370">
        <ele>329.958143</ele>
        <time>2021-11-01T17:36:35.000Z</time>
      </trkpt>
      <trkpt lat="38.217189" lon="-1.462597">
        <ele>331.818862</ele>
        <time>2021-11-01T17:36:37.000Z</time>
      </trkpt>
      <trkpt lat="38.216930" lon="-1.462842">
        <ele>334.175253</ele>
        <time>2021-11-01T17:36:39.000Z</time>
      </trkpt>
      <trkpt lat="38.216731" lon="-1.463081">
        <ele>336.173182</ele>
        <time>2021-11-01T17:36:40.000Z</time>
      </trkpt>
      <trkpt lat="38.216574" lon="-1.463173">
        <ele>337.435292</ele>
        <time>2021-11-01T17:36:42.000Z</time>
      </trkpt>
      <trkpt lat="38.216520" lon="-1.463226">
        <ele>337.933232</ele>
        <time>2021-11-01T17:36:44.000Z</time>
      </trkpt>
      <trkpt lat="38.216412" lon="-1.463389">
        <ele>339.156534</ele>
        <time>2021-11-01T17:36:45.000Z</time>
      </trkpt>
      <trkpt lat="38.216278" lon="-1.463674">
        <ele>340.409229</ele>
        <time>2021-11-01T17:36:47.000Z</time>
      </trkpt>
      <trkpt lat="38.216229" lon="-1.463744">
        <ele>340.761933</ele>
        <time>2021-11-01T17:36:49.000Z</time>
      </trkpt>
      <trkpt lat="38.216191" lon="-1.463772">
        <ele>340.972179</ele>
        <time>2021-11-01T17:36:50.000Z</time>
      </trkpt>
      <trkpt lat="38.216024" lon="-1.463833">
        <ele>341.804100</ele>
        <time>2021-11-01T17:36:52.000Z</time>
      </trkpt>
      <trkpt lat="38.215929" lon="-1.463899">
        <ele>342.322340</ele>
        <time>2021-11-01T17:36:54.000Z</time>
      </trkpt>
      <trkpt lat="38.215887" lon="-1.463949">
        <ele>342.597708</ele>
        <time>2021-11-01T17:36:55.000Z</time>
      </trkpt>
      <trkpt lat="38.215860" lon="-1.464061">
        <ele>343.038449</ele>
        <time>2021-11-01T17:36:57.000Z</time>
      </trkpt>
      <trkpt lat="38.215965" lon="-1.465223">
        <ele>347.438802</ele>
        <time>2021-11-01T17:36:59.000Z</time>
      </trkpt>
      <trkpt lat="38.215926" lon="-1.465452">
        <ele>347.923817</ele>
        <time>2021-11-01T17:37:01.000Z</time>
      </trkpt>
      <trkpt lat="38.215831" lon="-1.465681">
        <ele>348.185504</ele>
        <time>2021-11-01T17:37:02.000Z</time>
      </trkpt>
      <trkpt lat="38.215807" lon="-1.465780">
        <ele>348.290200</ele>
        <time>2021-11-01T17:37:04.000Z</time>
      </trkpt>
      <trkpt lat="38.215790" lon="-1.465926">
        <ele>348.439349</ele>
        <time>2021-11-01T17:37:06.000Z</time>
      </trkpt>
      <trkpt lat="38.215791" lon="-1.466203">
        <ele>348.719267</ele>
        <time>2021-11-01T17:37:08.000Z</time>
      </trkpt>
      <trkpt lat="38.215772" lon="-1.466333">
        <ele>348.852890</ele>
        <time>2021-11-01T17:37:09.000Z</time>
      </trkpt>
      <trkpt lat="38.215725" lon="-1.466417">
        <ele>348.957099</ele>
        <time>2021-11-01T17:37:11.000Z</time>
      </trkpt>
      <trkpt lat="38.215531" lon="-1.466601">
        <ele>349.268276</ele>
        <time>2021-11-01T17:37:13.000Z</time>
      </trkpt>
      <trkpt lat="38.215345" lon="-1.466827">
        <ele>349.599014</ele>
        <time>2021-11-01T17:37:15.000Z</time>
      </trkpt>
      <trkpt lat="38.215218" lon="-1.466952">
        <ele>349.805502</ele>
        <time>2021-11-01T17:37:16.000Z</time>
      </trkpt>
      <trkpt lat="38.214908" lon="-1.467144">
        <ele>349.966799</ele>
        <time>2021-11-01T17:37:18.000Z</time>
      </trkpt>
      <trkpt lat="38.214847" lon="-1.467218">
        <ele>349.880865</ele>
        <time>2021-11-01T17:37:20.000Z</time>
      </trkpt>
      <trkpt lat="38.214814" lon="-1.467308">
        <ele>349.801291</ele>
        <time>2021-11-01T17:37:22.000Z</time>
      </trkpt>
      <trkpt lat="38.214811" lon="-1.467355">
        <ele>349.763510</ele>
        <time>2021-11-01T17:37:24.000Z</time>
      </trkpt>
      <trkpt lat="38.214834" lon="-1.467429">
        <ele>349.699751</ele>
        <time>2021-11-01T17:37:25.000Z</time>
      </trkpt>
      <trkpt lat="38.214906" lon="-1.467486">
        <ele>349.613285</ele>
        <time>2021-11-01T17:37:27.000Z</time>
      </trkpt>
      <trkpt lat="38.215101" lon="-1.467595">
        <ele>349.396104</ele>
        <time>2021-11-01T17:37:29.000Z</time>
      </trkpt>
      <trkpt lat="38.215273" lon="-1.467807">
        <ele>349.151944</ele>
        <time>2021-11-01T17:37:31.000Z</time>
      </trkpt>
      <trkpt lat="38.215495" lon="-1.468161">
        <ele>348.789051</ele>
        <time>2021-11-01T17:37:33.000Z</time>
      </trkpt>
      <trkpt lat="38.215594" lon="-1.468394">
        <ele>348.576823</ele>
        <time>2021-11-01T17:37:34.000Z</time>
      </trkpt>
      <trkpt lat="38.215604" lon="-1.468591">
        <ele>348.418658</ele>
        <time>2021-11-01T17:37:36.000Z</time>
      </trkpt>
      <trkpt lat="38.215533" lon="-1.468964">
        <ele>348.142664</ele>
        <time>2021-11-01T17:37:38.000Z</time>
      </trkpt>
      <trkpt lat="38.215483" lon="-1.469535">
        <ele>347.781488</ele>
        <time>2021-11-01T17:37:40.000Z</time>
      </trkpt>
      <trkpt lat="38.215447" lon="-1.469691">
        <ele>347.679278</ele>
        <time>2021-11-01T17:37:42.000Z</time>
      </trkpt>
      <trkpt lat="38.215238" lon="-1.470352">
        <ele>347.231360</ele>
        <time>2021-11-01T17:37:44.000Z</time>
      </trkpt>
      <trkpt lat="38.215187" lon="-1.470470">
        <ele>347.146697</ele>
        <time>2021-11-01T17:37:45.000Z</time>
      </trkpt>
      <trkpt lat="38.215064" lon="-1.470644">
        <ele>346.999558</ele>
        <time>2021-11-01T17:37:47.000Z</time>
      </trkpt>
      <trkpt lat="38.214862" lon="-1.471369">
        <ele>346.781688</ele>
        <time>2021-11-01T17:37:49.000Z</time>
      </trkpt>
      <trkpt lat="38.214650" lon="-1.471807">
        <ele>346.742526</ele>
        <time>2021-11-01T17:37:51.000Z</time>
      </trkpt>
      <trkpt lat="38.214564" lon="-1.471943">
        <ele>346.729236</ele>
        <time>2021-11-01T17:37:53.000Z</time>
      </trkpt>
      <trkpt lat="38.214409" lon="-1.472132">
        <ele>346.708439</ele>
        <time>2021-11-01T17:37:55.000Z</time>
      </trkpt>
      <trkpt lat="38.214339" lon="-1.472250">
        <ele>346.697183</ele>
        <time>2021-11-01T17:37:57.000Z</time>
      </trkpt>
      <trkpt lat="38.214300" lon="-1.472375">
        <ele>346.686944</ele>
        <time>2021-11-01T17:37:59.000Z</time>
      </trkpt>
      <trkpt lat="38.214261" lon="-1.472649">
        <ele>346.665746</ele>
        <time>2021-11-01T17:38:01.000Z</time>
      </trkpt>
      <trkpt lat="38.214259" lon="-1.472922">
        <ele>346.644963</ele>
        <time>2021-11-01T17:38:02.000Z</time>
      </trkpt>
      <trkpt lat="38.214292" lon="-1.473405">
        <ele>346.728886</ele>
        <time>2021-11-01T17:38:04.000Z</time>
      </trkpt>
      <trkpt lat="38.214294" lon="-1.474238">
        <ele>346.878478</ele>
        <time>2021-11-01T17:38:06.000Z</time>
      </trkpt>
      <trkpt lat="38.214335" lon="-1.476091">
        <ele>347.257225</ele>
        <time>2021-11-01T17:38:08.000Z</time>
      </trkpt>
      <trkpt lat="38.214330" lon="-1.476795">
        <ele>347.420756</ele>
        <time>2021-11-01T17:38:10.000Z</time>
      </trkpt>
      <trkpt lat="38.214359" lon="-1.477515">
        <ele>347.588798</ele>
        <time>2021-11-01T17:38:12.000Z</time>
      </trkpt>
      <trkpt lat="38.214350" lon="-1.477818">
        <ele>347.689500</ele>
        <time>2021-11-01T17:38:14.000Z</time>
      </trkpt>
      <trkpt lat="38.214184" lon="-1.479764">
        <ele>348.339587</ele>
        <time>2021-11-01T17:38:16.000Z</time>
      </trkpt>
      <trkpt lat="38.214196" lon="-1.479820">
        <ele>348.382224</ele>
        <time>2021-11-01T17:38:18.000Z</time>
      </trkpt>
      <trkpt lat="38.214255" lon="-1.479922">
        <ele>348.508109</ele>
        <time>2021-11-01T17:38:21.000Z</time>
      </trkpt>
      <trkpt lat="38.214713" lon="-1.480449">
        <ele>349.289124</ele>
        <time>2021-11-01T17:38:23.000Z</time>
      </trkpt>
      <trkpt lat="38.214948" lon="-1.480653">
        <ele>349.648949</ele>
        <time>2021-11-01T17:38:25.000Z</time>
      </trkpt>
      <trkpt lat="38.214982" lon="-1.480737">
        <ele>349.742861</ele>
        <time>2021-11-01T17:38:27.000Z</time>
      </trkpt>
      <trkpt lat="38.214983" lon="-1.480782">
        <ele>349.787603</ele>
        <time>2021-11-01T17:38:29.000Z</time>
      </trkpt>
      <trkpt lat="38.214736" lon="-1.481464">
        <ele>350.533969</ele>
        <time>2021-11-01T17:38:31.000Z</time>
      </trkpt>
      <trkpt lat="38.214593" lon="-1.481723">
        <ele>350.780018</ele>
        <time>2021-11-01T17:38:33.000Z</time>
      </trkpt>
      <trkpt lat="38.214493" lon="-1.481838">
        <ele>350.898833</ele>
        <time>2021-11-01T17:38:35.000Z</time>
      </trkpt>
      <trkpt lat="38.214195" lon="-1.482041">
        <ele>351.196809</ele>
        <time>2021-11-01T17:38:37.000Z</time>
      </trkpt>
      <trkpt lat="38.213529" lon="-1.482342">
        <ele>351.819865</ele>
        <time>2021-11-01T17:38:39.000Z</time>
      </trkpt>
      <trkpt lat="38.213265" lon="-1.482475">
        <ele>352.070174</ele>
        <time>2021-11-01T17:38:42.000Z</time>
      </trkpt>
      <trkpt lat="38.213210" lon="-1.482535">
        <ele>352.134035</ele>
        <time>2021-11-01T17:38:44.000Z</time>
      </trkpt>
      <trkpt lat="38.213100" lon="-1.482956">
        <ele>352.327993</ele>
        <time>2021-11-01T17:38:46.000Z</time>
      </trkpt>
      <trkpt lat="38.212675" lon="-1.484375">
        <ele>352.868877</ele>
        <time>2021-11-01T17:38:48.000Z</time>
      </trkpt>
      <trkpt lat="38.212388" lon="-1.485520">
        <ele>353.234756</ele>
        <time>2021-11-01T17:38:50.000Z</time>
      </trkpt>
      <trkpt lat="38.212272" lon="-1.485851">
        <ele>353.334503</ele>
        <time>2021-11-01T17:38:52.000Z</time>
      </trkpt>
      <trkpt lat="38.212096" lon="-1.486230">
        <ele>353.455665</ele>
        <time>2021-11-01T17:38:55.000Z</time>
      </trkpt>
      <trkpt lat="38.211751" lon="-1.486844">
        <ele>353.655698</ele>
        <time>2021-11-01T17:38:57.000Z</time>
      </trkpt>
      <trkpt lat="38.211503" lon="-1.487496">
        <ele>353.702104</ele>
        <time>2021-11-01T17:38:59.000Z</time>
      </trkpt>
      <trkpt lat="38.210944" lon="-1.488706">
        <ele>353.792026</ele>
        <time>2021-11-01T17:39:02.000Z</time>
      </trkpt>
      <trkpt lat="38.210813" lon="-1.489024">
        <ele>353.783226</ele>
        <time>2021-11-01T17:39:04.000Z</time>
      </trkpt>
      <trkpt lat="38.210352" lon="-1.490228">
        <ele>353.687384</ele>
        <time>2021-11-01T17:39:06.000Z</time>
      </trkpt>
      <trkpt lat="38.210308" lon="-1.490459">
        <ele>353.670375</ele>
        <time>2021-11-01T17:39:08.000Z</time>
      </trkpt>
      <trkpt lat="38.210280" lon="-1.490907">
        <ele>353.638215</ele>
        <time>2021-11-01T17:39:11.000Z</time>
      </trkpt>
      <trkpt lat="38.210206" lon="-1.491191">
        <ele>353.574860</ele>
        <time>2021-11-01T17:39:13.000Z</time>
      </trkpt>
      <trkpt lat="38.210127" lon="-1.491377">
        <ele>353.527010</ele>
        <time>2021-11-01T17:39:15.000Z</time>
      </trkpt>
      <trkpt lat="38.210033" lon="-1.491539">
        <ele>353.481435</ele>
        <time>2021-11-01T17:39:18.000Z</time>
      </trkpt>
      <trkpt lat="38.209751" lon="-1.491831">
        <ele>353.376727</ele>
        <time>2021-11-01T17:39:20.000Z</time>
      </trkpt>
      <trkpt lat="38.209619" lon="-1.492038">
        <ele>353.316394</ele>
        <time>2021-11-01T17:39:23.000Z</time>
      </trkpt>
      <trkpt lat="38.209596" lon="-1.492095">
        <ele>353.301893</ele>
        <time>2021-11-01T17:39:25.000Z</time>
      </trkpt>
      <trkpt lat="38.209480" lon="-1.492694">
        <ele>353.162276</ele>
        <time>2021-11-01T17:39:27.000Z</time>
      </trkpt>
      <trkpt lat="38.209336" lon="-1.493101">
        <ele>353.113578</ele>
        <time>2021-11-01T17:39:30.000Z</time>
      </trkpt>
      <trkpt lat="38.209249" lon="-1.493299">
        <ele>353.109446</ele>
        <time>2021-11-01T17:39:32.000Z</time>
      </trkpt>
      <trkpt lat="38.209163" lon="-1.493411">
        <ele>353.106593</ele>
        <time>2021-11-01T17:39:34.000Z</time>
      </trkpt>
      <trkpt lat="38.209110" lon="-1.493448">
        <ele>353.105192</ele>
        <time>2021-11-01T17:39:37.000Z</time>
      </trkpt>
      <trkpt lat="38.208938" lon="-1.493517">
        <ele>353.101011</ele>
        <time>2021-11-01T17:39:39.000Z</time>
      </trkpt>
      <trkpt lat="38.208849" lon="-1.493587">
        <ele>353.098586</ele>
        <time>2021-11-01T17:39:42.000Z</time>
      </trkpt>
      <trkpt lat="38.208584" lon="-1.493911">
        <ele>353.090067</ele>
        <time>2021-11-01T17:39:44.000Z</time>
      </trkpt>
      <trkpt lat="38.208233" lon="-1.494214">
        <ele>353.080234</ele>
        <time>2021-11-01T17:39:46.000Z</time>
      </trkpt>
      <trkpt lat="38.208008" lon="-1.494487">
        <ele>353.147812</ele>
        <time>2021-11-01T17:39:49.000Z</time>
      </trkpt>
      <trkpt lat="38.207873" lon="-1.494729">
        <ele>353.260162</ele>
        <time>2021-11-01T17:39:51.000Z</time>
      </trkpt>
      <trkpt lat="38.207673" lon="-1.495239">
        <ele>353.475934</ele>
        <time>2021-11-01T17:39:54.000Z</time>
      </trkpt>
      <trkpt lat="38.207520" lon="-1.495673">
        <ele>353.656005</ele>
        <time>2021-11-01T17:39:56.000Z</time>
      </trkpt>
      <trkpt lat="38.207419" lon="-1.496053">
        <ele>353.807864</ele>
        <time>2021-11-01T17:39:59.000Z</time>
      </trkpt>
      <trkpt lat="38.207382" lon="-1.496137">
        <ele>353.844318</ele>
        <time>2021-11-01T17:40:01.000Z</time>
      </trkpt>
      <trkpt lat="38.207141" lon="-1.496364">
        <ele>354.000938</ele>
        <time>2021-11-01T17:40:04.000Z</time>
      </trkpt>
      <trkpt lat="38.206971" lon="-1.496498">
        <ele>354.122889</ele>
        <time>2021-11-01T17:40:06.000Z</time>
      </trkpt>
      <trkpt lat="38.206624" lon="-1.496695">
        <ele>354.354611</ele>
        <time>2021-11-01T17:40:09.000Z</time>
      </trkpt>
      <trkpt lat="38.206457" lon="-1.496764">
        <ele>354.461690</ele>
        <time>2021-11-01T17:40:11.000Z</time>
      </trkpt>
      <trkpt lat="38.206211" lon="-1.496789">
        <ele>354.612192</ele>
        <time>2021-11-01T17:40:14.000Z</time>
      </trkpt>
      <trkpt lat="38.206094" lon="-1.496818">
        <ele>354.684886</ele>
        <time>2021-11-01T17:40:16.000Z</time>
      </trkpt>
      <trkpt lat="38.205896" lon="-1.496931">
        <ele>354.817224</ele>
        <time>2021-11-01T17:40:19.000Z</time>
      </trkpt>
      <trkpt lat="38.205814" lon="-1.497070">
        <ele>354.900518</ele>
        <time>2021-11-01T17:40:21.000Z</time>
      </trkpt>
      <trkpt lat="38.205729" lon="-1.497324">
        <ele>355.032818</ele>
        <time>2021-11-01T17:40:24.000Z</time>
      </trkpt>
      <trkpt lat="38.205602" lon="-1.497626">
        <ele>354.693191</ele>
        <time>2021-11-01T17:40:26.000Z</time>
      </trkpt>
      <trkpt lat="38.205499" lon="-1.497753">
        <ele>354.500135</ele>
        <time>2021-11-01T17:40:29.000Z</time>
      </trkpt>
      <trkpt lat="38.205361" lon="-1.497827">
        <ele>354.298551</ele>
        <time>2021-11-01T17:40:31.000Z</time>
      </trkpt>
      <trkpt lat="38.205111" lon="-1.497893">
        <ele>353.954855</ele>
        <time>2021-11-01T17:40:34.000Z</time>
      </trkpt>
      <trkpt lat="38.204914" lon="-1.497917">
        <ele>353.688456</ele>
        <time>2021-11-01T17:40:36.000Z</time>
      </trkpt>
      <trkpt lat="38.204770" lon="-1.497904">
        <ele>353.494127</ele>
        <time>2021-11-01T17:40:39.000Z</time>
      </trkpt>
      <trkpt lat="38.204675" lon="-1.497857">
        <ele>353.356921</ele>
        <time>2021-11-01T17:40:41.000Z</time>
      </trkpt>
      <trkpt lat="38.204544" lon="-1.497756">
        <ele>353.150739</ele>
        <time>2021-11-01T17:40:44.000Z</time>
      </trkpt>
      <trkpt lat="38.204216" lon="-1.497430">
        <ele>352.570740</ele>
        <time>2021-11-01T17:40:46.000Z</time>
      </trkpt>
      <trkpt lat="38.204155" lon="-1.497402">
        <ele>352.422251</ele>
        <time>2021-11-01T17:40:49.000Z</time>
      </trkpt>
      <trkpt lat="38.204096" lon="-1.497400">
        <ele>352.287102</ele>
        <time>2021-11-01T17:40:52.000Z</time>
      </trkpt>
      <trkpt lat="38.204060" lon="-1.497426">
        <ele>352.192317</ele>
        <time>2021-11-01T17:40:54.000Z</time>
      </trkpt>
      <trkpt lat="38.203997" lon="-1.497606">
        <ele>351.837752</ele>
        <time>2021-11-01T17:40:57.000Z</time>
      </trkpt>
      <trkpt lat="38.203950" lon="-1.498213">
        <ele>350.740232</ele>
        <time>2021-11-01T17:40:59.000Z</time>
      </trkpt>
      <trkpt lat="38.203889" lon="-1.498464">
        <ele>350.267478</ele>
        <time>2021-11-01T17:41:02.000Z</time>
      </trkpt>
      <trkpt lat="38.203355" lon="-1.500032">
        <ele>347.327443</ele>
        <time>2021-11-01T17:41:05.000Z</time>
      </trkpt>
      <trkpt lat="38.203241" lon="-1.500300">
        <ele>346.835693</ele>
        <time>2021-11-01T17:41:07.000Z</time>
      </trkpt>
      <trkpt lat="38.203149" lon="-1.500437">
        <ele>346.544899</ele>
        <time>2021-11-01T17:41:10.000Z</time>
      </trkpt>
      <trkpt lat="38.202363" lon="-1.501285">
        <ele>344.352021</ele>
        <time>2021-11-01T17:41:12.000Z</time>
      </trkpt>
      <trkpt lat="38.202275" lon="-1.501460">
        <ele>343.948542</ele>
        <time>2021-11-01T17:41:15.000Z</time>
      </trkpt>
      <trkpt lat="38.202105" lon="-1.501998">
        <ele>342.822429</ele>
        <time>2021-11-01T17:41:18.000Z</time>
      </trkpt>
      <trkpt lat="38.201860" lon="-1.502644">
        <ele>341.429413</ele>
        <time>2021-11-01T17:41:21.000Z</time>
      </trkpt>
      <trkpt lat="38.201769" lon="-1.502935">
        <ele>340.821178</ele>
        <time>2021-11-01T17:41:23.000Z</time>
      </trkpt>
      <trkpt lat="38.201370" lon="-1.504548">
        <ele>337.459842</ele>
        <time>2021-11-01T17:41:26.000Z</time>
      </trkpt>
      <trkpt lat="38.201227" lon="-1.504995">
        <ele>336.496922</ele>
        <time>2021-11-01T17:41:29.000Z</time>
      </trkpt>
      <trkpt lat="38.201119" lon="-1.505682">
        <ele>334.626128</ele>
        <time>2021-11-01T17:41:31.000Z</time>
      </trkpt>
      <trkpt lat="38.201069" lon="-1.505834">
        <ele>334.073962</ele>
        <time>2021-11-01T17:41:34.000Z</time>
      </trkpt>
      <trkpt lat="38.201030" lon="-1.505881">
        <ele>333.844920</ele>
        <time>2021-11-01T17:41:37.000Z</time>
      </trkpt>
      <trkpt lat="38.200939" lon="-1.505845">
        <ele>333.438566</ele>
        <time>2021-11-01T17:41:40.000Z</time>
      </trkpt>
      <trkpt lat="38.200897" lon="-1.505791">
        <ele>333.183973</ele>
        <time>2021-11-01T17:41:42.000Z</time>
      </trkpt>
      <trkpt lat="38.200836" lon="-1.505533">
        <ele>332.281147</ele>
        <time>2021-11-01T17:41:45.000Z</time>
      </trkpt>
      <trkpt lat="38.200716" lon="-1.505301">
        <ele>331.350440</ele>
        <time>2021-11-01T17:41:48.000Z</time>
      </trkpt>
      <trkpt lat="38.200674" lon="-1.504948">
        <ele>330.154072</ele>
        <time>2021-11-01T17:41:51.000Z</time>
      </trkpt>
      <trkpt lat="38.200589" lon="-1.504782">
        <ele>329.490149</ele>
        <time>2021-11-01T17:41:54.000Z</time>
      </trkpt>
      <trkpt lat="38.200506" lon="-1.504484">
        <ele>328.430698</ele>
        <time>2021-11-01T17:41:56.000Z</time>
      </trkpt>
      <trkpt lat="38.200459" lon="-1.504404">
        <ele>328.133335</ele>
        <time>2021-11-01T17:41:59.000Z</time>
      </trkpt>
      <trkpt lat="38.200138" lon="-1.504022">
        <ele>328.635725</ele>
        <time>2021-11-01T17:42:02.000Z</time>
      </trkpt>
      <trkpt lat="38.200023" lon="-1.503942">
        <ele>328.785542</ele>
        <time>2021-11-01T17:42:05.000Z</time>
      </trkpt>
      <trkpt lat="38.199930" lon="-1.503905">
        <ele>328.896925</ele>
        <time>2021-11-01T17:42:08.000Z</time>
      </trkpt>
      <trkpt lat="38.199836" lon="-1.503912">
        <ele>329.004560</ele>
        <time>2021-11-01T17:42:10.000Z</time>
      </trkpt>
      <trkpt lat="38.199781" lon="-1.503950">
        <ele>329.076100</ele>
        <time>2021-11-01T17:42:13.000Z</time>
      </trkpt>
      <trkpt lat="38.199728" lon="-1.504054">
        <ele>329.187450</ele>
        <time>2021-11-01T17:42:16.000Z</time>
      </trkpt>
      <trkpt lat="38.199712" lon="-1.504126">
        <ele>329.254664</ele>
        <time>2021-11-01T17:42:19.000Z</time>
      </trkpt>
      <trkpt lat="38.199719" lon="-1.504196">
        <ele>329.318054</ele>
        <time>2021-11-01T17:42:22.000Z</time>
      </trkpt>
      <trkpt lat="38.199762" lon="-1.504297">
        <ele>329.421243</ele>
        <time>2021-11-01T17:42:25.000Z</time>
      </trkpt>
      <trkpt lat="38.199955" lon="-1.504537">
        <ele>329.729712</ele>
        <time>2021-11-01T17:42:27.000Z</time>
      </trkpt>
      <trkpt lat="38.200008" lon="-1.504653">
        <ele>329.850249</ele>
        <time>2021-11-01T17:42:30.000Z</time>
      </trkpt>
      <trkpt lat="38.200034" lon="-1.504823">
        <ele>330.005827</ele>
        <time>2021-11-01T17:42:33.000Z</time>
      </trkpt>
      <trkpt lat="38.200017" lon="-1.504902">
        <ele>330.079406</ele>
        <time>2021-11-01T17:42:36.000Z</time>
      </trkpt>
      <trkpt lat="38.199984" lon="-1.504957">
        <ele>330.141567</ele>
        <time>2021-11-01T17:42:39.000Z</time>
      </trkpt>
      <trkpt lat="38.199855" lon="-1.505056">
        <ele>331.022991</ele>
        <time>2021-11-01T17:42:42.000Z</time>
      </trkpt>
      <trkpt lat="38.199810" lon="-1.505060">
        <ele>331.350974</ele>
        <time>2021-11-01T17:42:44.000Z</time>
      </trkpt>
      <trkpt lat="38.199735" lon="-1.505032">
        <ele>331.919268</ele>
        <time>2021-11-01T17:42:47.000Z</time>
      </trkpt>
      <trkpt lat="38.199686" lon="-1.504958">
        <ele>332.472176</ele>
        <time>2021-11-01T17:42:50.000Z</time>
      </trkpt>
      <trkpt lat="38.199558" lon="-1.504609">
        <ele>334.672784</ele>
        <time>2021-11-01T17:42:53.000Z</time>
      </trkpt>
      <trkpt lat="38.199522" lon="-1.504559">
        <ele>335.060253</ele>
        <time>2021-11-01T17:42:56.000Z</time>
      </trkpt>
      <trkpt lat="38.199421" lon="-1.504503">
        <ele>335.861287</ele>
        <time>2021-11-01T17:42:59.000Z</time>
      </trkpt>
      <trkpt lat="38.199315" lon="-1.504520">
        <ele>336.638088</ele>
        <time>2021-11-01T17:43:02.000Z</time>
      </trkpt>
      <trkpt lat="38.199243" lon="-1.504562">
        <ele>337.213970</ele>
        <time>2021-11-01T17:43:04.000Z</time>
      </trkpt>
      <trkpt lat="38.199185" lon="-1.504674">
        <ele>337.980375</ele>
        <time>2021-11-01T17:43:07.000Z</time>
      </trkpt>
      <trkpt lat="38.199154" lon="-1.505190">
        <ele>340.937334</ele>
        <time>2021-11-01T17:43:10.000Z</time>
      </trkpt>
      <trkpt lat="38.199118" lon="-1.505343">
        <ele>341.849900</ele>
        <time>2021-11-01T17:43:13.000Z</time>
      </trkpt>
      <trkpt lat="38.199030" lon="-1.505506">
        <ele>342.979863</ele>
        <time>2021-11-01T17:43:16.000Z</time>
      </trkpt>
      <trkpt lat="38.198928" lon="-1.505586">
        <ele>343.660741</ele>
        <time>2021-11-01T17:43:19.000Z</time>
      </trkpt>
      <trkpt lat="38.198835" lon="-1.505594">
        <ele>344.120614</ele>
        <time>2021-11-01T17:43:22.000Z</time>
      </trkpt>
      <trkpt lat="38.198633" lon="-1.505519">
        <ele>345.158761</ele>
        <time>2021-11-01T17:43:25.000Z</time>
      </trkpt>
      <trkpt lat="38.198511" lon="-1.505438">
        <ele>345.837667</ele>
        <time>2021-11-01T17:43:28.000Z</time>
      </trkpt>
      <trkpt lat="38.198399" lon="-1.505322">
        <ele>346.550133</ele>
        <time>2021-11-01T17:43:30.000Z</time>
      </trkpt>
      <trkpt lat="38.198325" lon="-1.505213">
        <ele>347.108606</ele>
        <time>2021-11-01T17:43:33.000Z</time>
      </trkpt>
      <trkpt lat="38.198184" lon="-1.504797">
        <ele>348.865141</ele>
        <time>2021-11-01T17:43:36.000Z</time>
      </trkpt>
      <trkpt lat="38.197933" lon="-1.504303">
        <ele>351.145936</ele>
        <time>2021-11-01T17:43:39.000Z</time>
      </trkpt>
      <trkpt lat="38.197896" lon="-1.504158">
        <ele>351.737027</ele>
        <time>2021-11-01T17:43:42.000Z</time>
      </trkpt>
      <trkpt lat="38.197890" lon="-1.503945">
        <ele>352.306947</ele>
        <time>2021-11-01T17:43:45.000Z</time>
      </trkpt>
      <trkpt lat="38.197848" lon="-1.503796">
        <ele>352.555126</ele>
        <time>2021-11-01T17:43:48.000Z</time>
      </trkpt>
      <trkpt lat="38.197645" lon="-1.503606">
        <ele>353.057868</ele>
        <time>2021-11-01T17:43:51.000Z</time>
      </trkpt>
      <trkpt lat="38.197549" lon="-1.503433">
        <ele>353.389904</ele>
        <time>2021-11-01T17:43:54.000Z</time>
      </trkpt>
      <trkpt lat="38.197405" lon="-1.503241">
        <ele>353.806012</ele>
        <time>2021-11-01T17:43:57.000Z</time>
      </trkpt>
      <trkpt lat="38.197337" lon="-1.503177">
        <ele>353.974748</ele>
        <time>2021-11-01T17:44:00.000Z</time>
      </trkpt>
      <trkpt lat="38.197189" lon="-1.503091">
        <ele>354.299338</ele>
        <time>2021-11-01T17:44:03.000Z</time>
      </trkpt>
      <trkpt lat="38.197106" lon="-1.502974">
        <ele>354.546457</ele>
        <time>2021-11-01T17:44:06.000Z</time>
      </trkpt>
      <trkpt lat="38.197076" lon="-1.502877">
        <ele>354.709891</ele>
        <time>2021-11-01T17:44:09.000Z</time>
      </trkpt>
      <trkpt lat="38.197064" lon="-1.502768">
        <ele>354.882455</ele>
        <time>2021-11-01T17:44:12.000Z</time>
      </trkpt>
      <trkpt lat="38.197082" lon="-1.502500">
        <ele>355.304169</ele>
        <time>2021-11-01T17:44:15.000Z</time>
      </trkpt>
      <trkpt lat="38.197073" lon="-1.502405">
        <ele>355.454193</ele>
        <time>2021-11-01T17:44:18.000Z</time>
      </trkpt>
      <trkpt lat="38.197020" lon="-1.502325">
        <ele>355.618241</ele>
        <time>2021-11-01T17:44:21.000Z</time>
      </trkpt>
      <trkpt lat="38.196971" lon="-1.502317">
        <ele>355.716797</ele>
        <time>2021-11-01T17:44:24.000Z</time>
      </trkpt>
      <trkpt lat="38.196922" lon="-1.502340">
        <ele>355.700341</ele>
        <time>2021-11-01T17:44:27.000Z</time>
      </trkpt>
      <trkpt lat="38.196884" lon="-1.502386">
        <ele>355.678561</ele>
        <time>2021-11-01T17:44:30.000Z</time>
      </trkpt>
      <trkpt lat="38.196757" lon="-1.502671">
        <ele>355.571643</ele>
        <time>2021-11-01T17:44:32.000Z</time>
      </trkpt>
      <trkpt lat="38.196671" lon="-1.502791">
        <ele>355.518644</ele>
        <time>2021-11-01T17:44:35.000Z</time>
      </trkpt>
      <trkpt lat="38.196611" lon="-1.502801">
        <ele>355.493516</ele>
        <time>2021-11-01T17:44:38.000Z</time>
      </trkpt>
      <trkpt lat="38.196555" lon="-1.502775">
        <ele>355.468762</ele>
        <time>2021-11-01T17:44:41.000Z</time>
      </trkpt>
      <trkpt lat="38.196338" lon="-1.502575">
        <ele>355.357498</ele>
        <time>2021-11-01T17:44:44.000Z</time>
      </trkpt>
      <trkpt lat="38.196263" lon="-1.502575">
        <ele>355.326354</ele>
        <time>2021-11-01T17:44:47.000Z</time>
      </trkpt>
      <trkpt lat="38.196172" lon="-1.502627">
        <ele>355.284931</ele>
        <time>2021-11-01T17:44:50.000Z</time>
      </trkpt>
      <trkpt lat="38.196148" lon="-1.502661">
        <ele>355.270016</ele>
        <time>2021-11-01T17:44:54.000Z</time>
      </trkpt>
      <trkpt lat="38.196169" lon="-1.502963">
        <ele>355.171075</ele>
        <time>2021-11-01T17:44:57.000Z</time>
      </trkpt>
      <trkpt lat="38.196156" lon="-1.503439">
        <ele>355.015641</ele>
        <time>2021-11-01T17:45:00.000Z</time>
      </trkpt>
      <trkpt lat="38.196116" lon="-1.503605">
        <ele>355.098730</ele>
        <time>2021-11-01T17:45:03.000Z</time>
      </trkpt>
      <trkpt lat="38.196033" lon="-1.503672">
        <ele>355.431705</ele>
        <time>2021-11-01T17:45:06.000Z</time>
      </trkpt>
      <trkpt lat="38.195964" lon="-1.503680">
        <ele>355.666416</ele>
        <time>2021-11-01T17:45:09.000Z</time>
      </trkpt>
      <trkpt lat="38.195905" lon="-1.503663">
        <ele>355.871343</ele>
        <time>2021-11-01T17:45:12.000Z</time>
      </trkpt>
      <trkpt lat="38.195762" lon="-1.503562">
        <ele>356.425390</ele>
        <time>2021-11-01T17:45:15.000Z</time>
      </trkpt>
      <trkpt lat="38.195718" lon="-1.503486">
        <ele>356.676699</ele>
        <time>2021-11-01T17:45:18.000Z</time>
      </trkpt>
      <trkpt lat="38.195566" lon="-1.502983">
        <ele>358.111422</ele>
        <time>2021-11-01T17:45:21.000Z</time>
      </trkpt>
      <trkpt lat="38.195499" lon="-1.502920">
        <ele>358.393638</ele>
        <time>2021-11-01T17:45:24.000Z</time>
      </trkpt>
      <trkpt lat="38.195439" lon="-1.502925">
        <ele>358.597328</ele>
        <time>2021-11-01T17:45:27.000Z</time>
      </trkpt>
      <trkpt lat="38.195414" lon="-1.502942">
        <ele>358.693352</ele>
        <time>2021-11-01T17:45:30.000Z</time>
      </trkpt>
      <trkpt lat="38.195237" lon="-1.503191">
        <ele>359.587208</ele>
        <time>2021-11-01T17:45:33.000Z</time>
      </trkpt>
      <trkpt lat="38.195100" lon="-1.503433">
        <ele>360.381240</ele>
        <time>2021-11-01T17:45:36.000Z</time>
      </trkpt>
      <trkpt lat="38.195083" lon="-1.503527">
        <ele>360.638039</ele>
        <time>2021-11-01T17:45:39.000Z</time>
      </trkpt>
      <trkpt lat="38.195123" lon="-1.503735">
        <ele>361.252595</ele>
        <time>2021-11-01T17:45:42.000Z</time>
      </trkpt>
      <trkpt lat="38.195086" lon="-1.503878">
        <ele>361.779896</ele>
        <time>2021-11-01T17:45:45.000Z</time>
      </trkpt>
      <trkpt lat="38.194989" lon="-1.503985">
        <ele>362.352020</ele>
        <time>2021-11-01T17:45:48.000Z</time>
      </trkpt>
      <trkpt lat="38.194910" lon="-1.504031">
        <ele>362.739205</ele>
        <time>2021-11-01T17:45:51.000Z</time>
      </trkpt>
      <trkpt lat="38.194831" lon="-1.504053">
        <ele>363.099611</ele>
        <time>2021-11-01T17:45:55.000Z</time>
      </trkpt>
      <trkpt lat="38.194753" lon="-1.504045">
        <ele>363.448353</ele>
        <time>2021-11-01T17:45:58.000Z</time>
      </trkpt>
      <trkpt lat="38.194687" lon="-1.504010">
        <ele>363.767013</ele>
        <time>2021-11-01T17:46:01.000Z</time>
      </trkpt>
      <trkpt lat="38.194630" lon="-1.503958">
        <ele>364.079584</ele>
        <time>2021-11-01T17:46:04.000Z</time>
      </trkpt>
      <trkpt lat="38.194547" lon="-1.503834">
        <ele>364.650068</ele>
        <time>2021-11-01T17:46:07.000Z</time>
      </trkpt>
      <trkpt lat="38.194422" lon="-1.503621">
        <ele>365.581144</ele>
        <time>2021-11-01T17:46:10.000Z</time>
      </trkpt>
      <trkpt lat="38.194078" lon="-1.502755">
        <ele>368.979756</ele>
        <time>2021-11-01T17:46:13.000Z</time>
      </trkpt>
      <trkpt lat="38.194015" lon="-1.502652">
        <ele>369.240372</ele>
        <time>2021-11-01T17:46:16.000Z</time>
      </trkpt>
      <trkpt lat="38.193924" lon="-1.502588">
        <ele>369.446347</ele>
        <time>2021-11-01T17:46:19.000Z</time>
      </trkpt>
      <trkpt lat="38.193728" lon="-1.502551">
        <ele>369.838871</ele>
        <time>2021-11-01T17:46:22.000Z</time>
      </trkpt>
      <trkpt lat="38.193684" lon="-1.502557">
        <ele>369.926534</ele>
        <time>2021-11-01T17:46:26.000Z</time>
      </trkpt>
      <trkpt lat="38.193611" lon="-1.502616">
        <ele>370.097853</ele>
        <time>2021-11-01T17:46:29.000Z</time>
      </trkpt>
      <trkpt lat="38.193577" lon="-1.502721">
        <ele>370.274660</ele>
        <time>2021-11-01T17:46:32.000Z</time>
      </trkpt>
      <trkpt lat="38.193457" lon="-1.503392">
        <ele>371.346053</ele>
        <time>2021-11-01T17:46:35.000Z</time>
      </trkpt>
      <trkpt lat="38.193428" lon="-1.503466">
        <ele>371.474793</ele>
        <time>2021-11-01T17:46:38.000Z</time>
      </trkpt>
      <trkpt lat="38.193373" lon="-1.503508">
        <ele>371.601864</ele>
        <time>2021-11-01T17:46:41.000Z</time>
      </trkpt>
      <trkpt lat="38.193303" lon="-1.503498">
        <ele>371.741404</ele>
        <time>2021-11-01T17:46:44.000Z</time>
      </trkpt>
      <trkpt lat="38.193190" lon="-1.503447">
        <ele>371.978921</ele>
        <time>2021-11-01T17:46:48.000Z</time>
      </trkpt>
      <trkpt lat="38.192855" lon="-1.503254">
        <ele>372.622417</ele>
        <time>2021-11-01T17:46:51.000Z</time>
      </trkpt>
      <trkpt lat="38.192751" lon="-1.503159">
        <ele>372.523859</ele>
        <time>2021-11-01T17:46:54.000Z</time>
      </trkpt>
      <trkpt lat="38.192685" lon="-1.503074">
        <ele>372.451566</ele>
        <time>2021-11-01T17:46:57.000Z</time>
      </trkpt>
      <trkpt lat="38.192509" lon="-1.502740">
        <ele>372.208267</ele>
        <time>2021-11-01T17:47:00.000Z</time>
      </trkpt>
      <trkpt lat="38.192463" lon="-1.502706">
        <ele>372.167313</ele>
        <time>2021-11-01T17:47:03.000Z</time>
      </trkpt>
      <trkpt lat="38.192361" lon="-1.502717">
        <ele>372.088509</ele>
        <time>2021-11-01T17:47:07.000Z</time>
      </trkpt>
      <trkpt lat="38.192321" lon="-1.502749">
        <ele>372.052135</ele>
        <time>2021-11-01T17:47:10.000Z</time>
      </trkpt>
      <trkpt lat="38.192252" lon="-1.502890">
        <ele>371.951639</ele>
        <time>2021-11-01T17:47:13.000Z</time>
      </trkpt>
      <trkpt lat="38.192148" lon="-1.503539">
        <ele>371.550891</ele>
        <time>2021-11-01T17:47:16.000Z</time>
      </trkpt>
      <trkpt lat="38.192002" lon="-1.504059">
        <ele>371.168972</ele>
        <time>2021-11-01T17:47:19.000Z</time>
      </trkpt>
      <trkpt lat="38.191931" lon="-1.504445">
        <ele>370.672850</ele>
        <time>2021-11-01T17:47:23.000Z</time>
      </trkpt>
      <trkpt lat="38.191845" lon="-1.504815">
        <ele>370.189980</ele>
        <time>2021-11-01T17:47:26.000Z</time>
      </trkpt>
      <trkpt lat="38.191791" lon="-1.504982">
        <ele>369.963987</ele>
        <time>2021-11-01T17:47:29.000Z</time>
      </trkpt>
      <trkpt lat="38.191710" lon="-1.505144">
        <ele>369.723698</ele>
        <time>2021-11-01T17:47:32.000Z</time>
      </trkpt>
      <trkpt lat="38.191659" lon="-1.505212">
        <ele>369.606068</ele>
        <time>2021-11-01T17:47:36.000Z</time>
      </trkpt>
      <trkpt lat="38.191269" lon="-1.505550">
        <ele>368.854685</ele>
        <time>2021-11-01T17:47:39.000Z</time>
      </trkpt>
      <trkpt lat="38.191166" lon="-1.505675">
        <ele>368.628033</ele>
        <time>2021-11-01T17:47:42.000Z</time>
      </trkpt>
      <trkpt lat="38.191075" lon="-1.505818">
        <ele>368.397764</ele>
        <time>2021-11-01T17:47:45.000Z</time>
      </trkpt>
      <trkpt lat="38.191000" lon="-1.505998">
        <ele>368.222977</ele>
        <time>2021-11-01T17:47:49.000Z</time>
      </trkpt>
      <trkpt lat="38.190804" lon="-1.506611">
        <ele>367.655435</ele>
        <time>2021-11-01T17:47:52.000Z</time>
      </trkpt>
      <trkpt lat="38.190727" lon="-1.506951">
        <ele>367.351989</ele>
        <time>2021-11-01T17:47:55.000Z</time>
      </trkpt>
      <trkpt lat="38.190651" lon="-1.507098">
        <ele>367.201092</ele>
        <time>2021-11-01T17:47:58.000Z</time>
      </trkpt>
      <trkpt lat="38.190520" lon="-1.507254">
        <ele>367.005311</ele>
        <time>2021-11-01T17:48:02.000Z</time>
      </trkpt>
      <trkpt lat="38.190411" lon="-1.507308">
        <ele>366.877677</ele>
        <time>2021-11-01T17:48:05.000Z</time>
      </trkpt>
      <trkpt lat="38.190329" lon="-1.507293">
        <ele>366.787283</ele>
        <time>2021-11-01T17:48:08.000Z</time>
      </trkpt>
      <trkpt lat="38.190152" lon="-1.507123">
        <ele>366.545300</ele>
        <time>2021-11-01T17:48:12.000Z</time>
      </trkpt>
      <trkpt lat="38.190058" lon="-1.506994">
        <ele>366.419576</ele>
        <time>2021-11-01T17:48:15.000Z</time>
      </trkpt>
      <trkpt lat="38.189901" lon="-1.506650">
        <ele>366.290077</ele>
        <time>2021-11-01T17:48:18.000Z</time>
      </trkpt>
      <trkpt lat="38.189731" lon="-1.506466">
        <ele>366.197632</ele>
        <time>2021-11-01T17:48:22.000Z</time>
      </trkpt>
      <trkpt lat="38.189695" lon="-1.506345">
        <ele>366.155513</ele>
        <time>2021-11-01T17:48:25.000Z</time>
      </trkpt>
      <trkpt lat="38.189662" lon="-1.506068">
        <ele>366.064306</ele>
        <time>2021-11-01T17:48:28.000Z</time>
      </trkpt>
      <trkpt lat="38.189614" lon="-1.505962">
        <ele>366.024481</ele>
        <time>2021-11-01T17:48:32.000Z</time>
      </trkpt>
      <trkpt lat="38.189528" lon="-1.505901">
        <ele>365.983698</ele>
        <time>2021-11-01T17:48:35.000Z</time>
      </trkpt>
      <trkpt lat="38.189420" lon="-1.505859">
        <ele>365.936922</ele>
        <time>2021-11-01T17:48:38.000Z</time>
      </trkpt>
      <trkpt lat="38.189263" lon="-1.505848">
        <ele>365.871795</ele>
        <time>2021-11-01T17:48:42.000Z</time>
      </trkpt>
      <trkpt lat="38.189178" lon="-1.505884">
        <ele>365.834688</ele>
        <time>2021-11-01T17:48:45.000Z</time>
      </trkpt>
      <trkpt lat="38.189147" lon="-1.505916">
        <ele>365.818154</ele>
        <time>2021-11-01T17:48:48.000Z</time>
      </trkpt>
      <trkpt lat="38.189040" lon="-1.506218">
        <ele>365.710310</ele>
        <time>2021-11-01T17:48:52.000Z</time>
      </trkpt>
      <trkpt lat="38.188990" lon="-1.506298">
        <ele>365.741905</ele>
        <time>2021-11-01T17:48:55.000Z</time>
      </trkpt>
      <trkpt lat="38.188803" lon="-1.506498">
        <ele>366.148489</ele>
        <time>2021-11-01T17:48:58.000Z</time>
      </trkpt>
      <trkpt lat="38.188741" lon="-1.506615">
        <ele>366.333075</ele>
        <time>2021-11-01T17:49:02.000Z</time>
      </trkpt>
      <trkpt lat="38.188678" lon="-1.506784">
        <ele>366.577753</ele>
        <time>2021-11-01T17:49:05.000Z</time>
      </trkpt>
      <trkpt lat="38.188582" lon="-1.506910">
        <ele>366.807307</ele>
        <time>2021-11-01T17:49:08.000Z</time>
      </trkpt>
      <trkpt lat="38.188549" lon="-1.506925">
        <ele>366.865629</ele>
        <time>2021-11-01T17:49:12.000Z</time>
      </trkpt>
      <trkpt lat="38.188477" lon="-1.506923">
        <ele>366.985489</ele>
        <time>2021-11-01T17:49:15.000Z</time>
      </trkpt>
      <trkpt lat="38.188051" lon="-1.506715">
        <ele>367.744908</ele>
        <time>2021-11-01T17:49:18.000Z</time>
      </trkpt>
      <trkpt lat="38.187907" lon="-1.506685">
        <ele>367.987763</ele>
        <time>2021-11-01T17:49:22.000Z</time>
      </trkpt>
      <trkpt lat="38.187815" lon="-1.506693">
        <ele>368.141238</ele>
        <time>2021-11-01T17:49:25.000Z</time>
      </trkpt>
      <trkpt lat="38.187727" lon="-1.506727">
        <ele>368.294303</ele>
        <time>2021-11-01T17:49:29.000Z</time>
      </trkpt>
      <trkpt lat="38.187460" lon="-1.506955">
        <ele>369.011050</ele>
        <time>2021-11-01T17:49:32.000Z</time>
      </trkpt>
      <trkpt lat="38.187360" lon="-1.507003">
        <ele>369.410137</ele>
        <time>2021-11-01T17:49:35.000Z</time>
      </trkpt>
      <trkpt lat="38.187282" lon="-1.507007">
        <ele>369.701624</ele>
        <time>2021-11-01T17:49:39.000Z</time>
      </trkpt>
      <trkpt lat="38.187124" lon="-1.506966">
        <ele>370.303737</ele>
        <time>2021-11-01T17:49:42.000Z</time>
      </trkpt>
      <trkpt lat="38.187009" lon="-1.506983">
        <ele>370.736033</ele>
        <time>2021-11-01T17:49:46.000Z</time>
      </trkpt>
      <trkpt lat="38.186472" lon="-1.507487">
        <ele>373.227738</ele>
        <time>2021-11-01T17:49:49.000Z</time>
      </trkpt>
      <trkpt lat="38.186362" lon="-1.507570">
        <ele>373.705278</ele>
        <time>2021-11-01T17:49:53.000Z</time>
      </trkpt>
      <trkpt lat="38.186188" lon="-1.507637">
        <ele>374.384094</ele>
        <time>2021-11-01T17:49:56.000Z</time>
      </trkpt>
      <trkpt lat="38.185957" lon="-1.507632">
        <ele>375.246766</ele>
        <time>2021-11-01T17:49:59.000Z</time>
      </trkpt>
      <trkpt lat="38.185838" lon="-1.507674">
        <ele>375.925413</ele>
        <time>2021-11-01T17:50:03.000Z</time>
      </trkpt>
      <trkpt lat="38.185786" lon="-1.507743">
        <ele>376.403900</ele>
        <time>2021-11-01T17:50:06.000Z</time>
      </trkpt>
      <trkpt lat="38.185706" lon="-1.507985">
        <ele>377.718018</ele>
        <time>2021-11-01T17:50:10.000Z</time>
      </trkpt>
      <trkpt lat="38.185646" lon="-1.508068">
        <ele>378.282471</ele>
        <time>2021-11-01T17:50:13.000Z</time>
      </trkpt>
      <trkpt lat="38.185243" lon="-1.508401">
        <ele>381.342690</ele>
        <time>2021-11-01T17:50:17.000Z</time>
      </trkpt>
      <trkpt lat="38.185071" lon="-1.508585">
        <ele>382.773802</ele>
        <time>2021-11-01T17:50:20.000Z</time>
      </trkpt>
      <trkpt lat="38.184886" lon="-1.508854">
        <ele>384.562959</ele>
        <time>2021-11-01T17:50:24.000Z</time>
      </trkpt>
      <trkpt lat="38.184813" lon="-1.508920">
        <ele>385.133278</ele>
        <time>2021-11-01T17:50:27.000Z</time>
      </trkpt>
      <trkpt lat="38.184726" lon="-1.508961">
        <ele>385.724109</ele>
        <time>2021-11-01T17:50:31.000Z</time>
      </trkpt>
      <trkpt lat="38.184536" lon="-1.508954">
        <ele>386.980685</ele>
        <time>2021-11-01T17:50:34.000Z</time>
      </trkpt>
      <trkpt lat="38.184368" lon="-1.508860">
        <ele>388.816755</ele>
        <time>2021-11-01T17:50:38.000Z</time>
      </trkpt>
      <trkpt lat="38.183985" lon="-1.508447">
        <ele>393.839559</ele>
        <time>2021-11-01T17:50:41.000Z</time>
      </trkpt>
      <trkpt lat="38.183878" lon="-1.508258">
        <ele>395.671149</ele>
        <time>2021-11-01T17:50:45.000Z</time>
      </trkpt>
      <trkpt lat="38.183803" lon="-1.508158">
        <ele>396.758044</ele>
        <time>2021-11-01T17:50:48.000Z</time>
      </trkpt>
      <trkpt lat="38.183724" lon="-1.508103">
        <ele>397.658977</ele>
        <time>2021-11-01T17:50:52.000Z</time>
      </trkpt>
      <trkpt lat="38.183582" lon="-1.507919">
        <ele>399.686697</ele>
        <time>2021-11-01T17:50:55.000Z</time>
      </trkpt>
      <trkpt lat="38.183488" lon="-1.507849">
        <ele>400.776351</ele>
        <time>2021-11-01T17:50:59.000Z</time>
      </trkpt>
      <trkpt lat="38.183207" lon="-1.507691">
        <ele>403.849861</ele>
        <time>2021-11-01T17:51:02.000Z</time>
      </trkpt>
      <trkpt lat="38.183015" lon="-1.507614">
        <ele>405.677369</ele>
        <time>2021-11-01T17:51:06.000Z</time>
      </trkpt>
      <trkpt lat="38.182816" lon="-1.507588">
        <ele>407.311346</ele>
        <time>2021-11-01T17:51:09.000Z</time>
      </trkpt>
      <trkpt lat="38.182758" lon="-1.507563">
        <ele>407.811541</ele>
        <time>2021-11-01T17:51:13.000Z</time>
      </trkpt>
      <trkpt lat="38.182696" lon="-1.507512">
        <ele>408.414594</ele>
        <time>2021-11-01T17:51:16.000Z</time>
      </trkpt>
      <trkpt lat="38.182670" lon="-1.507475">
        <ele>408.733235</ele>
        <time>2021-11-01T17:51:20.000Z</time>
      </trkpt>
      <trkpt lat="38.182661" lon="-1.507406">
        <ele>409.182300</ele>
        <time>2021-11-01T17:51:23.000Z</time>
      </trkpt>
      <trkpt lat="38.182665" lon="-1.506994">
        <ele>411.827703</ele>
        <time>2021-11-01T17:51:27.000Z</time>
      </trkpt>
      <trkpt lat="38.182699" lon="-1.506811">
        <ele>413.035008</ele>
        <time>2021-11-01T17:51:31.000Z</time>
      </trkpt>
      <trkpt lat="38.182698" lon="-1.506698">
        <ele>413.760558</ele>
        <time>2021-11-01T17:51:34.000Z</time>
      </trkpt>
      <trkpt lat="38.182694" lon="-1.506622">
        <ele>414.249600</ele>
        <time>2021-11-01T17:51:38.000Z</time>
      </trkpt>
      <trkpt lat="38.182651" lon="-1.506469">
        <ele>415.292821</ele>
        <time>2021-11-01T17:51:41.000Z</time>
      </trkpt>
      <trkpt lat="38.182472" lon="-1.506143">
        <ele>417.845957</ele>
        <time>2021-11-01T17:51:45.000Z</time>
      </trkpt>
      <trkpt lat="38.182357" lon="-1.506069">
        <ele>418.898596</ele>
        <time>2021-11-01T17:51:48.000Z</time>
      </trkpt>
      <trkpt lat="38.182243" lon="-1.506049">
        <ele>419.426938</ele>
        <time>2021-11-01T17:51:52.000Z</time>
      </trkpt>
      <trkpt lat="38.182196" lon="-1.506064">
        <ele>419.278601</ele>
        <time>2021-11-01T17:51:56.000Z</time>
      </trkpt>
      <trkpt lat="38.182207" lon="-1.506075">
        <ele>419.235770</ele>
        <time>2021-11-01T17:51:59.000Z</time>
      </trkpt>
      <trkpt lat="38.182188" lon="-1.506060">
        <ele>419.167317</ele>
        <time>2021-11-01T17:52:03.000Z</time>
      </trkpt>
      <trkpt lat="38.182211" lon="-1.506094">
        <ele>419.059378</ele>
        <time>2021-11-01T17:52:06.000Z</time>
      </trkpt>
      <trkpt lat="38.182197" lon="-1.506100">
        <ele>419.014154</ele>
        <time>2021-11-01T17:52:10.000Z</time>
      </trkpt>
      <trkpt lat="38.182206" lon="-1.506119">
        <ele>418.960775</ele>
        <time>2021-11-01T17:52:13.000Z</time>
      </trkpt>
      <trkpt lat="38.182194" lon="-1.506089">
        <ele>418.879777</ele>
        <time>2021-11-01T17:52:17.000Z</time>
      </trkpt>
      <trkpt lat="38.181724" lon="-1.506425">
        <ele>417.229387</ele>
        <time>2021-11-01T17:52:21.000Z</time>
      </trkpt>
      <trkpt lat="38.181516" lon="-1.506683">
        <ele>416.340084</ele>
        <time>2021-11-01T17:52:24.000Z</time>
      </trkpt>
      <trkpt lat="38.181410" lon="-1.506949">
        <ele>415.622453</ele>
        <time>2021-11-01T17:52:28.000Z</time>
      </trkpt>
      <trkpt lat="38.181350" lon="-1.507256">
        <ele>414.861225</ele>
        <time>2021-11-01T17:52:31.000Z</time>
      </trkpt>
      <trkpt lat="38.181294" lon="-1.507426">
        <ele>414.417683</ele>
        <time>2021-11-01T17:52:35.000Z</time>
      </trkpt>
      <trkpt lat="38.181041" lon="-1.507931">
        <ele>412.253470</ele>
        <time>2021-11-01T17:52:39.000Z</time>
      </trkpt>
      <trkpt lat="38.180710" lon="-1.508478">
        <ele>409.455209</ele>
        <time>2021-11-01T17:52:42.000Z</time>
      </trkpt>
      <trkpt lat="38.180627" lon="-1.508672">
        <ele>408.559863</ele>
        <time>2021-11-01T17:52:46.000Z</time>
      </trkpt>
      <trkpt lat="38.180572" lon="-1.508893">
        <ele>407.620175</ele>
        <time>2021-11-01T17:52:50.000Z</time>
      </trkpt>
      <trkpt lat="38.180472" lon="-1.509706">
        <ele>404.342299</ele>
        <time>2021-11-01T17:52:53.000Z</time>
      </trkpt>
      <trkpt lat="38.180289" lon="-1.510744">
        <ele>400.557340</ele>
        <time>2021-11-01T17:52:57.000Z</time>
      </trkpt>
      <trkpt lat="38.180227" lon="-1.511344">
        <ele>398.404167</ele>
        <time>2021-11-01T17:53:01.000Z</time>
      </trkpt>
      <trkpt lat="38.180225" lon="-1.511549">
        <ele>397.674718</ele>
        <time>2021-11-01T17:53:04.000Z</time>
      </trkpt>
      <trkpt lat="38.180289" lon="-1.512117">
        <ele>394.952380</ele>
        <time>2021-11-01T17:53:08.000Z</time>
      </trkpt>
      <trkpt lat="38.180320" lon="-1.512749">
        <ele>391.139554</ele>
        <time>2021-11-01T17:53:12.000Z</time>
      </trkpt>
      <trkpt lat="38.180313" lon="-1.513406">
        <ele>387.183236</ele>
        <time>2021-11-01T17:53:16.000Z</time>
      </trkpt>
      <trkpt lat="38.180335" lon="-1.513840">
        <ele>384.564590</ele>
        <time>2021-11-01T17:53:19.000Z</time>
      </trkpt>
      <trkpt lat="38.180323" lon="-1.514014">
        <ele>383.512870</ele>
        <time>2021-11-01T17:53:23.000Z</time>
      </trkpt>
      <trkpt lat="38.180304" lon="-1.514090">
        <ele>383.032670</ele>
        <time>2021-11-01T17:53:27.000Z</time>
      </trkpt>
      <trkpt lat="38.180266" lon="-1.514149">
        <ele>382.440862</ele>
        <time>2021-11-01T17:53:31.000Z</time>
      </trkpt>
      <trkpt lat="38.180169" lon="-1.514235">
        <ele>381.083114</ele>
        <time>2021-11-01T17:53:35.000Z</time>
      </trkpt>
      <trkpt lat="38.179942" lon="-1.514240">
        <ele>378.475932</ele>
        <time>2021-11-01T17:53:38.000Z</time>
      </trkpt>
      <trkpt lat="38.179782" lon="-1.514278">
        <ele>376.606800</ele>
        <time>2021-11-01T17:53:42.000Z</time>
      </trkpt>
      <trkpt lat="38.179574" lon="-1.514409">
        <ele>373.941500</ele>
        <time>2021-11-01T17:53:46.000Z</time>
      </trkpt>
      <trkpt lat="38.179520" lon="-1.514462">
        <ele>373.158273</ele>
        <time>2021-11-01T17:53:50.000Z</time>
      </trkpt>
      <trkpt lat="38.179461" lon="-1.514588">
        <ele>371.834357</ele>
        <time>2021-11-01T17:53:53.000Z</time>
      </trkpt>
      <trkpt lat="38.179474" lon="-1.514707">
        <ele>370.749813</ele>
        <time>2021-11-01T17:53:57.000Z</time>
      </trkpt>
      <trkpt lat="38.179596" lon="-1.515013">
        <ele>367.652556</ele>
        <time>2021-11-01T17:54:01.000Z</time>
      </trkpt>
      <trkpt lat="38.179714" lon="-1.515228">
        <ele>365.285495</ele>
        <time>2021-11-01T17:54:05.000Z</time>
      </trkpt>
      <trkpt lat="38.179880" lon="-1.515477">
        <ele>362.338257</ele>
        <time>2021-11-01T17:54:09.000Z</time>
      </trkpt>
      <trkpt lat="38.179894" lon="-1.515610">
        <ele>361.772041</ele>
        <time>2021-11-01T17:54:12.000Z</time>
      </trkpt>
      <trkpt lat="38.179876" lon="-1.515898">
        <ele>360.755814</ele>
        <time>2021-11-01T17:54:16.000Z</time>
      </trkpt>
      <trkpt lat="38.179903" lon="-1.516040">
        <ele>360.241930</ele>
        <time>2021-11-01T17:54:20.000Z</time>
      </trkpt>
      <trkpt lat="38.179938" lon="-1.516103">
        <ele>359.970573</ele>
        <time>2021-11-01T17:54:24.000Z</time>
      </trkpt>
      <trkpt lat="38.180134" lon="-1.516281">
        <ele>358.892974</ele>
        <time>2021-11-01T17:54:28.000Z</time>
      </trkpt>
      <trkpt lat="38.180270" lon="-1.516445">
        <ele>358.054453</ele>
        <time>2021-11-01T17:54:32.000Z</time>
      </trkpt>
      <trkpt lat="38.180321" lon="-1.516484">
        <ele>357.788185</ele>
        <time>2021-11-01T17:54:35.000Z</time>
      </trkpt>
      <trkpt lat="38.180370" lon="-1.516509">
        <ele>357.551947</ele>
        <time>2021-11-01T17:54:39.000Z</time>
      </trkpt>
      <trkpt lat="38.180477" lon="-1.516522">
        <ele>357.070973</ele>
        <time>2021-11-01T17:54:43.000Z</time>
      </trkpt>
      <trkpt lat="38.180621" lon="-1.516476">
        <ele>356.406609</ele>
        <time>2021-11-01T17:54:47.000Z</time>
      </trkpt>
      <trkpt lat="38.180673" lon="-1.516476">
        <ele>356.173923</ele>
        <time>2021-11-01T17:54:51.000Z</time>
      </trkpt>
      <trkpt lat="38.180823" lon="-1.516627">
        <ele>355.317990</ele>
        <time>2021-11-01T17:54:55.000Z</time>
      </trkpt>
      <trkpt lat="38.180970" lon="-1.516702">
        <ele>354.609278</ele>
        <time>2021-11-01T17:54:58.000Z</time>
      </trkpt>
      <trkpt lat="38.181038" lon="-1.516761">
        <ele>354.240964</ele>
        <time>2021-11-01T17:55:02.000Z</time>
      </trkpt>
      <trkpt lat="38.181076" lon="-1.516828">
        <ele>354.315553</ele>
        <time>2021-11-01T17:55:06.000Z</time>
      </trkpt>
      <trkpt lat="38.181152" lon="-1.517092">
        <ele>355.277736</ele>
        <time>2021-11-01T17:55:10.000Z</time>
      </trkpt>
      <trkpt lat="38.181260" lon="-1.517224">
        <ele>355.929789</ele>
        <time>2021-11-01T17:55:14.000Z</time>
      </trkpt>
      <trkpt lat="38.181327" lon="-1.517351">
        <ele>356.453239</ele>
        <time>2021-11-01T17:55:18.000Z</time>
      </trkpt>
      <trkpt lat="38.181363" lon="-1.517501">
        <ele>356.989983</ele>
        <time>2021-11-01T17:55:22.000Z</time>
      </trkpt>
      <trkpt lat="38.181383" lon="-1.517678">
        <ele>357.601962</ele>
        <time>2021-11-01T17:55:26.000Z</time>
      </trkpt>
      <trkpt lat="38.181384" lon="-1.517873">
        <ele>358.269331</ele>
        <time>2021-11-01T17:55:29.000Z</time>
      </trkpt>
      <trkpt lat="38.181302" lon="-1.518257">
        <ele>359.631136</ele>
        <time>2021-11-01T17:55:33.000Z</time>
      </trkpt>
      <trkpt lat="38.181245" lon="-1.518686">
        <ele>361.120143</ele>
        <time>2021-11-01T17:55:37.000Z</time>
      </trkpt>
      <trkpt lat="38.181182" lon="-1.518990">
        <ele>362.249168</ele>
        <time>2021-11-01T17:55:41.000Z</time>
      </trkpt>
      <trkpt lat="38.181161" lon="-1.519252">
        <ele>363.358755</ele>
        <time>2021-11-01T17:55:45.000Z</time>
      </trkpt>
      <trkpt lat="38.181170" lon="-1.519602">
        <ele>364.834169</ele>
        <time>2021-11-01T17:55:49.000Z</time>
      </trkpt>
      <trkpt lat="38.181216" lon="-1.519990">
        <ele>366.487386</ele>
        <time>2021-11-01T17:55:53.000Z</time>
      </trkpt>
      <trkpt lat="38.181337" lon="-1.520419">
        <ele>368.407686</ele>
        <time>2021-11-01T17:55:57.000Z</time>
      </trkpt>
      <trkpt lat="38.181371" lon="-1.520603">
        <ele>369.204048</ele>
        <time>2021-11-01T17:56:01.000Z</time>
      </trkpt>
      <trkpt lat="38.181341" lon="-1.521325">
        <ele>372.332015</ele>
        <time>2021-11-01T17:56:05.000Z</time>
      </trkpt>
      <trkpt lat="38.181258" lon="-1.522196">
        <ele>376.498562</ele>
        <time>2021-11-01T17:56:09.000Z</time>
      </trkpt>
      <trkpt lat="38.181268" lon="-1.522708">
        <ele>378.930733</ele>
        <time>2021-11-01T17:56:13.000Z</time>
      </trkpt>
      <trkpt lat="38.181234" lon="-1.523255">
        <ele>381.536474</ele>
        <time>2021-11-01T17:56:17.000Z</time>
      </trkpt>
      <trkpt lat="38.181244" lon="-1.523374">
        <ele>382.104810</ele>
        <time>2021-11-01T17:56:21.000Z</time>
      </trkpt>
      <trkpt lat="38.181307" lon="-1.523569">
        <ele>383.541349</ele>
        <time>2021-11-01T17:56:25.000Z</time>
      </trkpt>
      <trkpt lat="38.181311" lon="-1.523808">
        <ele>385.457591</ele>
        <time>2021-11-01T17:56:29.000Z</time>
      </trkpt>
      <trkpt lat="38.181291" lon="-1.523962">
        <ele>386.708779</ele>
        <time>2021-11-01T17:56:33.000Z</time>
      </trkpt>
      <trkpt lat="38.181231" lon="-1.524117">
        <ele>388.093735</ele>
        <time>2021-11-01T17:56:37.000Z</time>
      </trkpt>
      <trkpt lat="38.181128" lon="-1.524246">
        <ele>389.567682</ele>
        <time>2021-11-01T17:56:41.000Z</time>
      </trkpt>
      <trkpt lat="38.180975" lon="-1.524369">
        <ele>391.413342</ele>
        <time>2021-11-01T17:56:45.000Z</time>
      </trkpt>
      <trkpt lat="38.180866" lon="-1.524586">
        <ele>393.477626</ele>
        <time>2021-11-01T17:56:49.000Z</time>
      </trkpt>
      <trkpt lat="38.180820" lon="-1.524719">
        <ele>394.642387</ele>
        <time>2021-11-01T17:56:53.000Z</time>
      </trkpt>
      <trkpt lat="38.180674" lon="-1.525889">
        <ele>403.583965</ele>
        <time>2021-11-01T17:56:57.000Z</time>
      </trkpt>
      <trkpt lat="38.180630" lon="-1.526039">
        <ele>404.653200</ele>
        <time>2021-11-01T17:57:01.000Z</time>
      </trkpt>
      <trkpt lat="38.180582" lon="-1.526121">
        <ele>405.335990</ele>
        <time>2021-11-01T17:57:05.000Z</time>
      </trkpt>
      <trkpt lat="38.180506" lon="-1.526337">
        <ele>406.916442</ele>
        <time>2021-11-01T17:57:09.000Z</time>
      </trkpt>
      <trkpt lat="38.180584" lon="-1.526607">
        <ele>408.837527</ele>
        <time>2021-11-01T17:57:13.000Z</time>
      </trkpt>
      <trkpt lat="38.180630" lon="-1.526959">
        <ele>411.220587</ele>
        <time>2021-11-01T17:57:17.000Z</time>
      </trkpt>
      <trkpt lat="38.180564" lon="-1.527216">
        <ele>413.026209</ele>
        <time>2021-11-01T17:57:21.000Z</time>
      </trkpt>
      <trkpt lat="38.180450" lon="-1.527515">
        <ele>415.245546</ele>
        <time>2021-11-01T17:57:25.000Z</time>
      </trkpt>
      <trkpt lat="38.180410" lon="-1.527847">
        <ele>417.080024</ele>
        <time>2021-11-01T17:57:29.000Z</time>
      </trkpt>
      <trkpt lat="38.180404" lon="-1.528156">
        <ele>418.538436</ele>
        <time>2021-11-01T17:57:33.000Z</time>
      </trkpt>
      <trkpt lat="38.180475" lon="-1.528666">
        <ele>420.982236</ele>
        <time>2021-11-01T17:57:38.000Z</time>
      </trkpt>
      <trkpt lat="38.180536" lon="-1.529378">
        <ele>424.361584</ele>
        <time>2021-11-01T17:57:42.000Z</time>
      </trkpt>
      <trkpt lat="38.180604" lon="-1.529603">
        <ele>425.498970</ele>
        <time>2021-11-01T17:57:46.000Z</time>
      </trkpt>
      <trkpt lat="38.180650" lon="-1.529895">
        <ele>426.903682</ele>
        <time>2021-11-01T17:57:50.000Z</time>
      </trkpt>
      <trkpt lat="38.180641" lon="-1.529971">
        <ele>427.252625</ele>
        <time>2021-11-01T17:57:54.000Z</time>
      </trkpt>
      <trkpt lat="38.180658" lon="-1.530407">
        <ele>429.234555</ele>
        <time>2021-11-01T17:57:58.000Z</time>
      </trkpt>
      <trkpt lat="38.180698" lon="-1.530850">
        <ele>431.259056</ele>
        <time>2021-11-01T17:58:02.000Z</time>
      </trkpt>
      <trkpt lat="38.180692" lon="-1.531217">
        <ele>432.925643</ele>
        <time>2021-11-01T17:58:07.000Z</time>
      </trkpt>
      <trkpt lat="38.180730" lon="-1.531299">
        <ele>433.357813</ele>
        <time>2021-11-01T17:58:11.000Z</time>
      </trkpt>
      <trkpt lat="38.180811" lon="-1.531379">
        <ele>433.950090</ele>
        <time>2021-11-01T17:58:15.000Z</time>
      </trkpt>
      <trkpt lat="38.180951" lon="-1.531565">
        <ele>435.119261</ele>
        <time>2021-11-01T17:58:19.000Z</time>
      </trkpt>
      <trkpt lat="38.181063" lon="-1.531672">
        <ele>435.928244</ele>
        <time>2021-11-01T17:58:23.000Z</time>
      </trkpt>
      <trkpt lat="38.181159" lon="-1.531722">
        <ele>436.527387</ele>
        <time>2021-11-01T17:58:27.000Z</time>
      </trkpt>
      <trkpt lat="38.181625" lon="-1.531899">
        <ele>438.234358</ele>
        <time>2021-11-01T17:58:32.000Z</time>
      </trkpt>
      <trkpt lat="38.181743" lon="-1.531959">
        <ele>438.574785</ele>
        <time>2021-11-01T17:58:36.000Z</time>
      </trkpt>
      <trkpt lat="38.181813" lon="-1.532019">
        <ele>438.800902</ele>
        <time>2021-11-01T17:58:40.000Z</time>
      </trkpt>
      <trkpt lat="38.181943" lon="-1.532215">
        <ele>439.340931</ele>
        <time>2021-11-01T17:58:44.000Z</time>
      </trkpt>
      <trkpt lat="38.182096" lon="-1.532580">
        <ele>440.211994</ele>
        <time>2021-11-01T17:58:48.000Z</time>
      </trkpt>
      <trkpt lat="38.182308" lon="-1.533023">
        <ele>441.304129</ele>
        <time>2021-11-01T17:58:53.000Z</time>
      </trkpt>
      <trkpt lat="38.182629" lon="-1.533859">
        <ele>442.462109</ele>
        <time>2021-11-01T17:58:57.000Z</time>
      </trkpt>
      <trkpt lat="38.182718" lon="-1.534222">
        <ele>442.711554</ele>
        <time>2021-11-01T17:59:01.000Z</time>
      </trkpt>
      <trkpt lat="38.182741" lon="-1.534710">
        <ele>443.032261</ele>
        <time>2021-11-01T17:59:05.000Z</time>
      </trkpt>
      <trkpt lat="38.182936" lon="-1.535716">
        <ele>443.829089</ele>
        <time>2021-11-01T17:59:10.000Z</time>
      </trkpt>
      <trkpt lat="38.182936" lon="-1.535914">
        <ele>444.095616</ele>
        <time>2021-11-01T17:59:14.000Z</time>
      </trkpt>
      <trkpt lat="38.182887" lon="-1.536674">
        <ele>445.122083</ele>
        <time>2021-11-01T17:59:18.000Z</time>
      </trkpt>
      <trkpt lat="38.182885" lon="-1.536802">
        <ele>445.294417</ele>
        <time>2021-11-01T17:59:23.000Z</time>
      </trkpt>
      <trkpt lat="38.182907" lon="-1.536984">
        <ele>445.542286</ele>
        <time>2021-11-01T17:59:27.000Z</time>
      </trkpt>
      <trkpt lat="38.182997" lon="-1.537249">
        <ele>445.930873</ele>
        <time>2021-11-01T17:59:31.000Z</time>
      </trkpt>
      <trkpt lat="38.183138" lon="-1.537565">
        <ele>446.419994</ele>
        <time>2021-11-01T17:59:35.000Z</time>
      </trkpt>
      <trkpt lat="38.183294" lon="-1.537849">
        <ele>447.036890</ele>
        <time>2021-11-01T17:59:40.000Z</time>
      </trkpt>
      <trkpt lat="38.183481" lon="-1.538141">
        <ele>447.915103</ele>
        <time>2021-11-01T17:59:44.000Z</time>
      </trkpt>
      <trkpt lat="38.183669" lon="-1.538505">
        <ele>448.930651</ele>
        <time>2021-11-01T17:59:48.000Z</time>
      </trkpt>
      <trkpt lat="38.183985" lon="-1.538889">
        <ele>450.226925</ele>
        <time>2021-11-01T17:59:53.000Z</time>
      </trkpt>
      <trkpt lat="38.184201" lon="-1.539118">
        <ele>451.060976</ele>
        <time>2021-11-01T17:59:57.000Z</time>
      </trkpt>
      <trkpt lat="38.184302" lon="-1.539197">
        <ele>451.412674</ele>
        <time>2021-11-01T18:00:01.000Z</time>
      </trkpt>
      <trkpt lat="38.184602" lon="-1.539303">
        <ele>452.637949</ele>
        <time>2021-11-01T18:00:06.000Z</time>
      </trkpt>
      <trkpt lat="38.184804" lon="-1.539352">
        <ele>453.822992</ele>
        <time>2021-11-01T18:00:10.000Z</time>
      </trkpt>
      <trkpt lat="38.184992" lon="-1.539383">
        <ele>454.915447</ele>
        <time>2021-11-01T18:00:15.000Z</time>
      </trkpt>
      <trkpt lat="38.185333" lon="-1.539389">
        <ele>456.880727</ele>
        <time>2021-11-01T18:00:19.000Z</time>
      </trkpt>
      <trkpt lat="38.185490" lon="-1.539438">
        <ele>457.812302</ele>
        <time>2021-11-01T18:00:23.000Z</time>
      </trkpt>
      <trkpt lat="38.185571" lon="-1.539550">
        <ele>458.501687</ele>
        <time>2021-11-01T18:00:28.000Z</time>
      </trkpt>
      <trkpt lat="38.185693" lon="-1.539886">
        <ele>460.178165</ele>
        <time>2021-11-01T18:00:32.000Z</time>
      </trkpt>
      <trkpt lat="38.185754" lon="-1.540003">
        <ele>460.814112</ele>
        <time>2021-11-01T18:00:37.000Z</time>
      </trkpt>
      <trkpt lat="38.186060" lon="-1.540480">
        <ele>463.980979</ele>
        <time>2021-11-01T18:00:41.000Z</time>
      </trkpt>
      <trkpt lat="38.186172" lon="-1.540591">
        <ele>465.052279</ele>
        <time>2021-11-01T18:00:45.000Z</time>
      </trkpt>
      <trkpt lat="38.186285" lon="-1.540625">
        <ele>465.928484</ele>
        <time>2021-11-01T18:00:50.000Z</time>
      </trkpt>
      <trkpt lat="38.186568" lon="-1.540759">
        <ele>468.207064</ele>
        <time>2021-11-01T18:00:54.000Z</time>
      </trkpt>
      <trkpt lat="38.186828" lon="-1.540827">
        <ele>470.210015</ele>
        <time>2021-11-01T18:00:59.000Z</time>
      </trkpt>
      <trkpt lat="38.186994" lon="-1.540792">
        <ele>471.479713</ele>
        <time>2021-11-01T18:01:03.000Z</time>
      </trkpt>
      <trkpt lat="38.187145" lon="-1.540730">
        <ele>472.677007</ele>
        <time>2021-11-01T18:01:08.000Z</time>
      </trkpt>
      <trkpt lat="38.187339" lon="-1.540675">
        <ele>474.176810</ele>
        <time>2021-11-01T18:01:12.000Z</time>
      </trkpt>
      <trkpt lat="38.187453" lon="-1.540594">
        <ele>475.162096</ele>
        <time>2021-11-01T18:01:17.000Z</time>
      </trkpt>
      <trkpt lat="38.187508" lon="-1.540579">
        <ele>475.586547</ele>
        <time>2021-11-01T18:01:21.000Z</time>
      </trkpt>
      <trkpt lat="38.187795" lon="-1.540627">
        <ele>477.471139</ele>
        <time>2021-11-01T18:01:25.000Z</time>
      </trkpt>
      <trkpt lat="38.187888" lon="-1.540672">
        <ele>478.098114</ele>
        <time>2021-11-01T18:01:30.000Z</time>
      </trkpt>
      <trkpt lat="38.188071" lon="-1.540850">
        <ele>479.549648</ele>
        <time>2021-11-01T18:01:34.000Z</time>
      </trkpt>
      <trkpt lat="38.188148" lon="-1.540961">
        <ele>480.282897</ele>
        <time>2021-11-01T18:01:39.000Z</time>
      </trkpt>
      <trkpt lat="38.188270" lon="-1.541197">
        <ele>481.681899</ele>
        <time>2021-11-01T18:01:43.000Z</time>
      </trkpt>
      <trkpt lat="38.188469" lon="-1.541707">
        <ele>484.501934</ele>
        <time>2021-11-01T18:01:48.000Z</time>
      </trkpt>
      <trkpt lat="38.188553" lon="-1.541859">
        <ele>485.422207</ele>
        <time>2021-11-01T18:01:52.000Z</time>
      </trkpt>
      <trkpt lat="38.188651" lon="-1.541981">
        <ele>486.286176</ele>
        <time>2021-11-01T18:01:57.000Z</time>
      </trkpt>
      <trkpt lat="38.188743" lon="-1.542058">
        <ele>486.980088</ele>
        <time>2021-11-01T18:02:01.000Z</time>
      </trkpt>
      <trkpt lat="38.189135" lon="-1.542313">
        <ele>488.415934</ele>
        <time>2021-11-01T18:02:06.000Z</time>
      </trkpt>
      <trkpt lat="38.189704" lon="-1.542656">
        <ele>490.230813</ele>
        <time>2021-11-01T18:02:10.000Z</time>
      </trkpt>
      <trkpt lat="38.190062" lon="-1.542942">
        <ele>491.449279</ele>
        <time>2021-11-01T18:02:15.000Z</time>
      </trkpt>
      <trkpt lat="38.190194" lon="-1.543001">
        <ele>491.852556</ele>
        <time>2021-11-01T18:02:19.000Z</time>
      </trkpt>
      <trkpt lat="38.190469" lon="-1.543051">
        <ele>492.572597</ele>
        <time>2021-11-01T18:02:24.000Z</time>
      </trkpt>
      <trkpt lat="38.190671" lon="-1.543059">
        <ele>492.895853</ele>
        <time>2021-11-01T18:02:29.000Z</time>
      </trkpt>
      <trkpt lat="38.190848" lon="-1.543119">
        <ele>493.188842</ele>
        <time>2021-11-01T18:02:33.000Z</time>
      </trkpt>
      <trkpt lat="38.191013" lon="-1.543220">
        <ele>493.481715</ele>
        <time>2021-11-01T18:02:38.000Z</time>
      </trkpt>
      <trkpt lat="38.191259" lon="-1.543311">
        <ele>493.891486</ele>
        <time>2021-11-01T18:02:42.000Z</time>
      </trkpt>
      <trkpt lat="38.191486" lon="-1.543467">
        <ele>494.304152</ele>
        <time>2021-11-01T18:02:47.000Z</time>
      </trkpt>
      <trkpt lat="38.191733" lon="-1.543696">
        <ele>494.792990</ele>
        <time>2021-11-01T18:02:51.000Z</time>
      </trkpt>
      <trkpt lat="38.191853" lon="-1.543749">
        <ele>494.996166</ele>
        <time>2021-11-01T18:02:56.000Z</time>
      </trkpt>
      <trkpt lat="38.192532" lon="-1.543865">
        <ele>494.618120</ele>
        <time>2021-11-01T18:03:01.000Z</time>
      </trkpt>
      <trkpt lat="38.192865" lon="-1.543890">
        <ele>494.093322</ele>
        <time>2021-11-01T18:03:05.000Z</time>
      </trkpt>
      <trkpt lat="38.193020" lon="-1.543877">
        <ele>493.848942</ele>
        <time>2021-11-01T18:03:10.000Z</time>
      </trkpt>
      <trkpt lat="38.193069" lon="-1.543900">
        <ele>493.766775</ele>
        <time>2021-11-01T18:03:14.000Z</time>
      </trkpt>
      <trkpt lat="38.193091" lon="-1.543928">
        <ele>493.717821</ele>
        <time>2021-11-01T18:03:19.000Z</time>
      </trkpt>
      <trkpt lat="38.193149" lon="-1.544094">
        <ele>493.493201</ele>
        <time>2021-11-01T18:03:24.000Z</time>
      </trkpt>
      <trkpt lat="38.193228" lon="-1.544430">
        <ele>493.059561</ele>
        <time>2021-11-01T18:03:28.000Z</time>
      </trkpt>
      <trkpt lat="38.193237" lon="-1.544812">
        <ele>492.587024</ele>
        <time>2021-11-01T18:03:33.000Z</time>
      </trkpt>
      <trkpt lat="38.193291" lon="-1.545323">
        <ele>491.243791</ele>
        <time>2021-11-01T18:03:38.000Z</time>
      </trkpt>
      <trkpt lat="38.193315" lon="-1.545397">
        <ele>491.022205</ele>
        <time>2021-11-01T18:03:42.000Z</time>
      </trkpt>
      <trkpt lat="38.193457" lon="-1.545582">
        <ele>490.306428</ele>
        <time>2021-11-01T18:03:47.000Z</time>
      </trkpt>
      <trkpt lat="38.193536" lon="-1.545720">
        <ele>489.833858</ele>
        <time>2021-11-01T18:03:52.000Z</time>
      </trkpt>
      <trkpt lat="38.193757" lon="-1.546343">
        <ele>487.941893</ele>
        <time>2021-11-01T18:03:56.000Z</time>
      </trkpt>
      <trkpt lat="38.193956" lon="-1.546621">
        <ele>486.901061</ele>
        <time>2021-11-01T18:04:01.000Z</time>
      </trkpt>
      <trkpt lat="38.194067" lon="-1.546979">
        <ele>485.646309</ele>
        <time>2021-11-01T18:04:06.000Z</time>
      </trkpt>
      <trkpt lat="38.194127" lon="-1.547271">
        <ele>484.356992</ele>
        <time>2021-11-01T18:04:10.000Z</time>
      </trkpt>
      <trkpt lat="38.194149" lon="-1.547645">
        <ele>482.754843</ele>
        <time>2021-11-01T18:04:15.000Z</time>
      </trkpt>
      <trkpt lat="38.194186" lon="-1.547891">
        <ele>481.684891</ele>
        <time>2021-11-01T18:04:20.000Z</time>
      </trkpt>
      <trkpt lat="38.194188" lon="-1.548307">
        <ele>479.907760</ele>
        <time>2021-11-01T18:04:25.000Z</time>
      </trkpt>
      <trkpt lat="38.194143" lon="-1.548497">
        <ele>479.060049</ele>
        <time>2021-11-01T18:04:29.000Z</time>
      </trkpt>
      <trkpt lat="38.194032" lon="-1.548734">
        <ele>477.881472</ele>
        <time>2021-11-01T18:04:34.000Z</time>
      </trkpt>
      <trkpt lat="38.193957" lon="-1.549068">
        <ele>476.397321</ele>
        <time>2021-11-01T18:04:39.000Z</time>
      </trkpt>
      <trkpt lat="38.193937" lon="-1.549426">
        <ele>474.828039</ele>
        <time>2021-11-01T18:04:43.000Z</time>
      </trkpt>
      <trkpt lat="38.193945" lon="-1.549618">
        <ele>473.987352</ele>
        <time>2021-11-01T18:04:48.000Z</time>
      </trkpt>
      <trkpt lat="38.193973" lon="-1.549799">
        <ele>473.180756</ele>
        <time>2021-11-01T18:04:53.000Z</time>
      </trkpt>
      <trkpt lat="38.194157" lon="-1.550400">
        <ele>470.360579</ele>
        <time>2021-11-01T18:04:58.000Z</time>
      </trkpt>
      <trkpt lat="38.194362" lon="-1.550911">
        <ele>467.852018</ele>
        <time>2021-11-01T18:05:02.000Z</time>
      </trkpt>
      <trkpt lat="38.194481" lon="-1.551274">
        <ele>466.077402</ele>
        <time>2021-11-01T18:05:07.000Z</time>
      </trkpt>
      <trkpt lat="38.194517" lon="-1.551480">
        <ele>464.966478</ele>
        <time>2021-11-01T18:05:12.000Z</time>
      </trkpt>
      <trkpt lat="38.194563" lon="-1.552071">
        <ele>461.840081</ele>
        <time>2021-11-01T18:05:17.000Z</time>
      </trkpt>
      <trkpt lat="38.194701" lon="-1.552414">
        <ele>459.811593</ele>
        <time>2021-11-01T18:05:22.000Z</time>
      </trkpt>
      <trkpt lat="38.194774" lon="-1.552670">
        <ele>458.377980</ele>
        <time>2021-11-01T18:05:26.000Z</time>
      </trkpt>
      <trkpt lat="38.194992" lon="-1.553092">
        <ele>455.719536</ele>
        <time>2021-11-01T18:05:31.000Z</time>
      </trkpt>
      <trkpt lat="38.195101" lon="-1.553441">
        <ele>453.323643</ele>
        <time>2021-11-01T18:05:36.000Z</time>
      </trkpt>
      <trkpt lat="38.195191" lon="-1.553568">
        <ele>451.806273</ele>
        <time>2021-11-01T18:05:41.000Z</time>
      </trkpt>
      <trkpt lat="38.195348" lon="-1.553743">
        <ele>449.449740</ele>
        <time>2021-11-01T18:05:46.000Z</time>
      </trkpt>
      <trkpt lat="38.195419" lon="-1.553867">
        <ele>448.088425</ele>
        <time>2021-11-01T18:05:51.000Z</time>
      </trkpt>
      <trkpt lat="38.195468" lon="-1.554002">
        <ele>446.768970</ele>
        <time>2021-11-01T18:05:55.000Z</time>
      </trkpt>
      <trkpt lat="38.195519" lon="-1.554244">
        <ele>444.545808</ele>
        <time>2021-11-01T18:06:00.000Z</time>
      </trkpt>
      <trkpt lat="38.195554" lon="-1.554308">
        <ele>443.853970</ele>
        <time>2021-11-01T18:06:05.000Z</time>
      </trkpt>
      <trkpt lat="38.195598" lon="-1.554352">
        <ele>443.222138</ele>
        <time>2021-11-01T18:06:10.000Z</time>
      </trkpt>
      <trkpt lat="38.195733" lon="-1.554379">
        <ele>441.679230</ele>
        <time>2021-11-01T18:06:15.000Z</time>
      </trkpt>
      <trkpt lat="38.195807" lon="-1.554414">
        <ele>440.787893</ele>
        <time>2021-11-01T18:06:20.000Z</time>
      </trkpt>
      <trkpt lat="38.195864" lon="-1.554527">
        <ele>439.596473</ele>
        <time>2021-11-01T18:06:25.000Z</time>
      </trkpt>
      <trkpt lat="38.195899" lon="-1.554752">
        <ele>437.561296</ele>
        <time>2021-11-01T18:06:29.000Z</time>
      </trkpt>
      <trkpt lat="38.195884" lon="-1.555055">
        <ele>434.867422</ele>
        <time>2021-11-01T18:06:34.000Z</time>
      </trkpt>
      <trkpt lat="38.195958" lon="-1.555414">
        <ele>432.123538</ele>
        <time>2021-11-01T18:06:39.000Z</time>
      </trkpt>
      <trkpt lat="38.195975" lon="-1.555608">
        <ele>430.776350</ele>
        <time>2021-11-01T18:06:44.000Z</time>
      </trkpt>
      <trkpt lat="38.195960" lon="-1.555791">
        <ele>429.506526</ele>
        <time>2021-11-01T18:06:49.000Z</time>
      </trkpt>
      <trkpt lat="38.195880" lon="-1.556081">
        <ele>427.385373</ele>
        <time>2021-11-01T18:06:54.000Z</time>
      </trkpt>
      <trkpt lat="38.195877" lon="-1.556135">
        <ele>427.011762</ele>
        <time>2021-11-01T18:06:59.000Z</time>
      </trkpt>
      <trkpt lat="38.195921" lon="-1.556204">
        <ele>426.398517</ele>
        <time>2021-11-01T18:07:04.000Z</time>
      </trkpt>
      <trkpt lat="38.195948" lon="-1.556221">
        <ele>426.133973</ele>
        <time>2021-11-01T18:07:09.000Z</time>
      </trkpt>
      <trkpt lat="38.195977" lon="-1.556216">
        <ele>425.876978</ele>
        <time>2021-11-01T18:07:13.000Z</time>
      </trkpt>
      <trkpt lat="38.196063" lon="-1.556164">
        <ele>425.040825</ele>
        <time>2021-11-01T18:07:18.000Z</time>
      </trkpt>
      <trkpt lat="38.196104" lon="-1.556162">
        <ele>424.680514</ele>
        <time>2021-11-01T18:07:23.000Z</time>
      </trkpt>
      <trkpt lat="38.196209" lon="-1.556211">
        <ele>423.698384</ele>
        <time>2021-11-01T18:07:28.000Z</time>
      </trkpt>
      <trkpt lat="38.196281" lon="-1.556216">
        <ele>423.065165</ele>
        <time>2021-11-01T18:07:33.000Z</time>
      </trkpt>
      <trkpt lat="38.196497" lon="-1.556138">
        <ele>421.093425</ele>
        <time>2021-11-01T18:07:38.000Z</time>
      </trkpt>
      <trkpt lat="38.196672" lon="-1.556045">
        <ele>419.427992</ele>
        <time>2021-11-01T18:07:43.000Z</time>
      </trkpt>
      <trkpt lat="38.196772" lon="-1.556017">
        <ele>418.528818</ele>
        <time>2021-11-01T18:07:48.000Z</time>
      </trkpt>
      <trkpt lat="38.197002" lon="-1.556024">
        <ele>417.205461</ele>
        <time>2021-11-01T18:07:53.000Z</time>
      </trkpt>
      <trkpt lat="38.197129" lon="-1.556000">
        <ele>416.528870</ele>
        <time>2021-11-01T18:07:58.000Z</time>
      </trkpt>
      <trkpt lat="38.197239" lon="-1.555929">
        <ele>415.878892</ele>
        <time>2021-11-01T18:08:03.000Z</time>
      </trkpt>
      <trkpt lat="38.197377" lon="-1.555782">
        <ele>414.930493</ele>
        <time>2021-11-01T18:08:08.000Z</time>
      </trkpt>
      <trkpt lat="38.197466" lon="-1.555715">
        <ele>414.385558</ele>
        <time>2021-11-01T18:08:12.000Z</time>
      </trkpt>
      <trkpt lat="38.197761" lon="-1.555564">
        <ele>412.709937</ele>
        <time>2021-11-01T18:08:17.000Z</time>
      </trkpt>
      <trkpt lat="38.197876" lon="-1.555543">
        <ele>412.097714</ele>
        <time>2021-11-01T18:08:22.000Z</time>
      </trkpt>
      <trkpt lat="38.197931" lon="-1.555558">
        <ele>411.801298</ele>
        <time>2021-11-01T18:08:27.000Z</time>
      </trkpt>
      <trkpt lat="38.197992" lon="-1.555599">
        <ele>411.437759</ele>
        <time>2021-11-01T18:08:32.000Z</time>
      </trkpt>
      <trkpt lat="38.198295" lon="-1.555881">
        <ele>409.459531</ele>
        <time>2021-11-01T18:08:37.000Z</time>
      </trkpt>
      <trkpt lat="38.198901" lon="-1.556349">
        <ele>406.197474</ele>
        <time>2021-11-01T18:08:42.000Z</time>
      </trkpt>
      <trkpt lat="38.199286" lon="-1.556685">
        <ele>404.119369</ele>
        <time>2021-11-01T18:08:47.000Z</time>
      </trkpt>
      <trkpt lat="38.199531" lon="-1.556843">
        <ele>402.896730</ele>
        <time>2021-11-01T18:08:52.000Z</time>
      </trkpt>
      <trkpt lat="38.199604" lon="-1.556864">
        <ele>402.563582</ele>
        <time>2021-11-01T18:08:57.000Z</time>
      </trkpt>
      <trkpt lat="38.199690" lon="-1.556863">
        <ele>402.180751</ele>
        <time>2021-11-01T18:09:02.000Z</time>
      </trkpt>
      <trkpt lat="38.199833" lon="-1.556826">
        <ele>401.531183</ele>
        <time>2021-11-01T18:09:07.000Z</time>
      </trkpt>
      <trkpt lat="38.200127" lon="-1.556843">
        <ele>400.129119</ele>
        <time>2021-11-01T18:09:12.000Z</time>
      </trkpt>
      <trkpt lat="38.200277" lon="-1.556809">
        <ele>399.336501</ele>
        <time>2021-11-01T18:09:17.000Z</time>
      </trkpt>
      <trkpt lat="38.200475" lon="-1.556725">
        <ele>398.250722</ele>
        <time>2021-11-01T18:09:22.000Z</time>
      </trkpt>
      <trkpt lat="38.200535" lon="-1.556718">
        <ele>397.937279</ele>
        <time>2021-11-01T18:09:27.000Z</time>
      </trkpt>
      <trkpt lat="38.200760" lon="-1.556772">
        <ele>396.746140</ele>
        <time>2021-11-01T18:09:32.000Z</time>
      </trkpt>
      <trkpt lat="38.200936" lon="-1.556781">
        <ele>395.829808</ele>
        <time>2021-11-01T18:09:37.000Z</time>
      </trkpt>
      <trkpt lat="38.201176" lon="-1.556769">
        <ele>394.580309</ele>
        <time>2021-11-01T18:09:42.000Z</time>
      </trkpt>
      <trkpt lat="38.201547" lon="-1.556716">
        <ele>392.638157</ele>
        <time>2021-11-01T18:09:47.000Z</time>
      </trkpt>
      <trkpt lat="38.201678" lon="-1.556713">
        <ele>391.956554</ele>
        <time>2021-11-01T18:09:53.000Z</time>
      </trkpt>
      <trkpt lat="38.201949" lon="-1.556776">
        <ele>391.075808</ele>
        <time>2021-11-01T18:09:58.000Z</time>
      </trkpt>
      <trkpt lat="38.202168" lon="-1.556805">
        <ele>390.644298</ele>
        <time>2021-11-01T18:10:03.000Z</time>
      </trkpt>
      <trkpt lat="38.202552" lon="-1.556789">
        <ele>389.891340</ele>
        <time>2021-11-01T18:10:08.000Z</time>
      </trkpt>
      <trkpt lat="38.202795" lon="-1.556810">
        <ele>389.414017</ele>
        <time>2021-11-01T18:10:13.000Z</time>
      </trkpt>
      <trkpt lat="38.203038" lon="-1.556892">
        <ele>388.921331</ele>
        <time>2021-11-01T18:10:18.000Z</time>
      </trkpt>
      <trkpt lat="38.203477" lon="-1.557092">
        <ele>388.007516</ele>
        <time>2021-11-01T18:10:23.000Z</time>
      </trkpt>
      <trkpt lat="38.203687" lon="-1.557137">
        <ele>387.930423</ele>
        <time>2021-11-01T18:10:28.000Z</time>
      </trkpt>
      <trkpt lat="38.203880" lon="-1.557140">
        <ele>387.989091</ele>
        <time>2021-11-01T18:10:33.000Z</time>
      </trkpt>
      <trkpt lat="38.204190" lon="-1.557085">
        <ele>388.084229</ele>
        <time>2021-11-01T18:10:38.000Z</time>
      </trkpt>
      <trkpt lat="38.204378" lon="-1.557078">
        <ele>388.141398</ele>
        <time>2021-11-01T18:10:43.000Z</time>
      </trkpt>
      <trkpt lat="38.204740" lon="-1.557143">
        <ele>388.252520</ele>
        <time>2021-11-01T18:10:49.000Z</time>
      </trkpt>
      <trkpt lat="38.204865" lon="-1.557182">
        <ele>388.291640</ele>
        <time>2021-11-01T18:10:54.000Z</time>
      </trkpt>
      <trkpt lat="38.205090" lon="-1.557303">
        <ele>388.365886</ele>
        <time>2021-11-01T18:10:59.000Z</time>
      </trkpt>
      <trkpt lat="38.205592" lon="-1.557710">
        <ele>388.808162</ele>
        <time>2021-11-01T18:11:04.000Z</time>
      </trkpt>
      <trkpt lat="38.206054" lon="-1.557925">
        <ele>389.296433</ele>
        <time>2021-11-01T18:11:09.000Z</time>
      </trkpt>
      <trkpt lat="38.206722" lon="-1.558342">
        <ele>390.034951</ele>
        <time>2021-11-01T18:11:14.000Z</time>
      </trkpt>
      <trkpt lat="38.207191" lon="-1.558571">
        <ele>390.481182</ele>
        <time>2021-11-01T18:11:20.000Z</time>
      </trkpt>
      <trkpt lat="38.208929" lon="-1.559216">
        <ele>392.728216</ele>
        <time>2021-11-01T18:11:25.000Z</time>
      </trkpt>
      <trkpt lat="38.209147" lon="-1.559240">
        <ele>393.403524</ele>
        <time>2021-11-01T18:11:30.000Z</time>
      </trkpt>
      <trkpt lat="38.209539" lon="-1.559200">
        <ele>394.617202</ele>
        <time>2021-11-01T18:11:35.000Z</time>
      </trkpt>
      <trkpt lat="38.209661" lon="-1.559227">
        <ele>394.999371</ele>
        <time>2021-11-01T18:11:41.000Z</time>
      </trkpt>
      <trkpt lat="38.209817" lon="-1.559325">
        <ele>395.536279</ele>
        <time>2021-11-01T18:11:46.000Z</time>
      </trkpt>
      <trkpt lat="38.210162" lon="-1.559605">
        <ele>396.799100</ele>
        <time>2021-11-01T18:11:51.000Z</time>
      </trkpt>
      <trkpt lat="38.210568" lon="-1.559817">
        <ele>398.448936</ele>
        <time>2021-11-01T18:11:57.000Z</time>
      </trkpt>
      <trkpt lat="38.210751" lon="-1.559983">
        <ele>399.371306</ele>
        <time>2021-11-01T18:12:02.000Z</time>
      </trkpt>
      <trkpt lat="38.210844" lon="-1.560112">
        <ele>399.935913</ele>
        <time>2021-11-01T18:12:07.000Z</time>
      </trkpt>
      <trkpt lat="38.210885" lon="-1.560225">
        <ele>400.337316</ele>
        <time>2021-11-01T18:12:12.000Z</time>
      </trkpt>
      <trkpt lat="38.210888" lon="-1.560280">
        <ele>400.515118</ele>
        <time>2021-11-01T18:12:18.000Z</time>
      </trkpt>
      <trkpt lat="38.210781" lon="-1.560641">
        <ele>401.759424</ele>
        <time>2021-11-01T18:12:23.000Z</time>
      </trkpt>
      <trkpt lat="38.210754" lon="-1.561265">
        <ele>403.774879</ele>
        <time>2021-11-01T18:12:28.000Z</time>
      </trkpt>
      <trkpt lat="38.211118" lon="-1.563518">
        <ele>407.798962</ele>
        <time>2021-11-01T18:12:34.000Z</time>
      </trkpt>
      <trkpt lat="38.211195" lon="-1.563691">
        <ele>408.108064</ele>
        <time>2021-11-01T18:12:39.000Z</time>
      </trkpt>
      <trkpt lat="38.211384" lon="-1.563966">
        <ele>409.358626</ele>
        <time>2021-11-01T18:12:45.000Z</time>
      </trkpt>
      <trkpt lat="38.211527" lon="-1.564113">
        <ele>410.242702</ele>
        <time>2021-11-01T18:12:50.000Z</time>
      </trkpt>
      <trkpt lat="38.211655" lon="-1.564280">
        <ele>411.124317</ele>
        <time>2021-11-01T18:12:55.000Z</time>
      </trkpt>
      <trkpt lat="38.211703" lon="-1.564371">
        <ele>411.538502</ele>
        <time>2021-11-01T18:13:01.000Z</time>
      </trkpt>
      <trkpt lat="38.211727" lon="-1.564471">
        <ele>411.933632</ele>
        <time>2021-11-01T18:13:06.000Z</time>
      </trkpt>
      <trkpt lat="38.211729" lon="-1.564576">
        <ele>412.330537</ele>
        <time>2021-11-01T18:13:12.000Z</time>
      </trkpt>
      <trkpt lat="38.211703" lon="-1.564675">
        <ele>412.724997</ele>
        <time>2021-11-01T18:13:17.000Z</time>
      </trkpt>
      <trkpt lat="38.211565" lon="-1.564946">
        <ele>413.945355</ele>
        <time>2021-11-01T18:13:22.000Z</time>
      </trkpt>
      <trkpt lat="38.211499" lon="-1.565173">
        <ele>414.860022</ele>
        <time>2021-11-01T18:13:28.000Z</time>
      </trkpt>
      <trkpt lat="38.211505" lon="-1.565339">
        <ele>415.487992</ele>
        <time>2021-11-01T18:13:33.000Z</time>
      </trkpt>
      <trkpt lat="38.211584" lon="-1.565697">
        <ele>416.862009</ele>
        <time>2021-11-01T18:13:39.000Z</time>
      </trkpt>
      <trkpt lat="38.211743" lon="-1.566062">
        <ele>417.313525</ele>
        <time>2021-11-01T18:13:44.000Z</time>
      </trkpt>
      <trkpt lat="38.211850" lon="-1.566409">
        <ele>417.716812</ele>
        <time>2021-11-01T18:13:50.000Z</time>
      </trkpt>
      <trkpt lat="38.211941" lon="-1.566627">
        <ele>417.983880</ele>
        <time>2021-11-01T18:13:55.000Z</time>
      </trkpt>
      <trkpt lat="38.212007" lon="-1.566755">
        <ele>418.149516</ele>
        <time>2021-11-01T18:14:00.000Z</time>
      </trkpt>
      <trkpt lat="38.212347" lon="-1.567293">
        <ele>418.896474</ele>
        <time>2021-11-01T18:14:06.000Z</time>
      </trkpt>
      <trkpt lat="38.212445" lon="-1.567643">
        <ele>419.298455</ele>
        <time>2021-11-01T18:14:11.000Z</time>
      </trkpt>
      <trkpt lat="38.212627" lon="-1.568068">
        <ele>419.016465</ele>
        <time>2021-11-01T18:14:17.000Z</time>
      </trkpt>
      <trkpt lat="38.212733" lon="-1.568265">
        <ele>418.855232</ele>
        <time>2021-11-01T18:14:22.000Z</time>
      </trkpt>
      <trkpt lat="38.212859" lon="-1.568445">
        <ele>418.692441</ele>
        <time>2021-11-01T18:14:28.000Z</time>
      </trkpt>
      <trkpt lat="38.213005" lon="-1.568741">
        <ele>418.456438</ele>
        <time>2021-11-01T18:14:33.000Z</time>
      </trkpt>
      <trkpt lat="38.213045" lon="-1.568779">
        <ele>418.413540</ele>
        <time>2021-11-01T18:14:39.000Z</time>
      </trkpt>
      <trkpt lat="38.213097" lon="-1.568801">
        <ele>418.366445</ele>
        <time>2021-11-01T18:14:44.000Z</time>
      </trkpt>
      <trkpt lat="38.213392" lon="-1.568809">
        <ele>418.112853</ele>
        <time>2021-11-01T18:14:50.000Z</time>
      </trkpt>
      <trkpt lat="38.213585" lon="-1.568885">
        <ele>417.939224</ele>
        <time>2021-11-01T18:14:55.000Z</time>
      </trkpt>
      <trkpt lat="38.213760" lon="-1.569044">
        <ele>417.739054</ele>
        <time>2021-11-01T18:15:01.000Z</time>
      </trkpt>
      <trkpt lat="38.213861" lon="-1.569248">
        <ele>417.479282</ele>
        <time>2021-11-01T18:15:06.000Z</time>
      </trkpt>
      <trkpt lat="38.213928" lon="-1.569478">
        <ele>417.215010</ele>
        <time>2021-11-01T18:15:12.000Z</time>
      </trkpt>
      <trkpt lat="38.213978" lon="-1.570208">
        <ele>416.425566</ele>
        <time>2021-11-01T18:15:17.000Z</time>
      </trkpt>
      <trkpt lat="38.214024" lon="-1.570401">
        <ele>416.208282</ele>
        <time>2021-11-01T18:15:23.000Z</time>
      </trkpt>
      <trkpt lat="38.214066" lon="-1.570744">
        <ele>415.834293</ele>
        <time>2021-11-01T18:15:29.000Z</time>
      </trkpt>
      <trkpt lat="38.214117" lon="-1.570998">
        <ele>415.551854</ele>
        <time>2021-11-01T18:15:34.000Z</time>
      </trkpt>
      <trkpt lat="38.214271" lon="-1.571298">
        <ele>415.159138</ele>
        <time>2021-11-01T18:15:40.000Z</time>
      </trkpt>
      <trkpt lat="38.214593" lon="-1.571700">
        <ele>414.512926</ele>
        <time>2021-11-01T18:15:45.000Z</time>
      </trkpt>
      <trkpt lat="38.214690" lon="-1.571894">
        <ele>414.254080</ele>
        <time>2021-11-01T18:15:51.000Z</time>
      </trkpt>
      <trkpt lat="38.214742" lon="-1.572037">
        <ele>414.076707</ele>
        <time>2021-11-01T18:15:56.000Z</time>
      </trkpt>
      <trkpt lat="38.214904" lon="-1.572659">
        <ele>413.339085</ele>
        <time>2021-11-01T18:16:02.000Z</time>
      </trkpt>
      <trkpt lat="38.215098" lon="-1.573469">
        <ele>412.373862</ele>
        <time>2021-11-01T18:16:08.000Z</time>
      </trkpt>
      <trkpt lat="38.215053" lon="-1.573942">
        <ele>411.819180</ele>
        <time>2021-11-01T18:16:13.000Z</time>
      </trkpt>
      <trkpt lat="38.215034" lon="-1.574761">
        <ele>410.865296</ele>
        <time>2021-11-01T18:16:19.000Z</time>
      </trkpt>
      <trkpt lat="38.215071" lon="-1.575028">
        <ele>410.549660</ele>
        <time>2021-11-01T18:16:25.000Z</time>
      </trkpt>
      <trkpt lat="38.215132" lon="-1.575303">
        <ele>410.216995</ele>
        <time>2021-11-01T18:16:30.000Z</time>
      </trkpt>
      <trkpt lat="38.215283" lon="-1.575744">
        <ele>409.232070</ele>
        <time>2021-11-01T18:16:36.000Z</time>
      </trkpt>
      <trkpt lat="38.215295" lon="-1.575933">
        <ele>408.785344</ele>
        <time>2021-11-01T18:16:42.000Z</time>
      </trkpt>
      <trkpt lat="38.215247" lon="-1.576409">
        <ele>407.654714</ele>
        <time>2021-11-01T18:16:47.000Z</time>
      </trkpt>
      <trkpt lat="38.215259" lon="-1.576564">
        <ele>407.287773</ele>
        <time>2021-11-01T18:16:53.000Z</time>
      </trkpt>
      <trkpt lat="38.215294" lon="-1.576600">
        <ele>407.152837</ele>
        <time>2021-11-01T18:16:59.000Z</time>
      </trkpt>
      <trkpt lat="38.215348" lon="-1.576617">
        <ele>406.986035</ele>
        <time>2021-11-01T18:17:04.000Z</time>
      </trkpt>
      <trkpt lat="38.216029" lon="-1.576702">
        <ele>404.934217</ele>
        <time>2021-11-01T18:17:10.000Z</time>
      </trkpt>
      <trkpt lat="38.216172" lon="-1.576704">
        <ele>404.410324</ele>
        <time>2021-11-01T18:17:16.000Z</time>
      </trkpt>
      <trkpt lat="38.216316" lon="-1.576664">
        <ele>403.725857</ele>
        <time>2021-11-01T18:17:21.000Z</time>
      </trkpt>
      <trkpt lat="38.216450" lon="-1.576584">
        <ele>403.038514</ele>
        <time>2021-11-01T18:17:27.000Z</time>
      </trkpt>
      <trkpt lat="38.216681" lon="-1.576409">
        <ele>401.790121</ele>
        <time>2021-11-01T18:17:33.000Z</time>
      </trkpt>
      <trkpt lat="38.216798" lon="-1.576347">
        <ele>401.201571</ele>
        <time>2021-11-01T18:17:39.000Z</time>
      </trkpt>
      <trkpt lat="38.216920" lon="-1.576313">
        <ele>400.621590</ele>
        <time>2021-11-01T18:17:44.000Z</time>
      </trkpt>
      <trkpt lat="38.217168" lon="-1.576295">
        <ele>399.468025</ele>
        <time>2021-11-01T18:17:50.000Z</time>
      </trkpt>
      <trkpt lat="38.217350" lon="-1.576302">
        <ele>398.622444</ele>
        <time>2021-11-01T18:17:56.000Z</time>
      </trkpt>
      <trkpt lat="38.217401" lon="-1.576323">
        <ele>398.373518</ele>
        <time>2021-11-01T18:18:02.000Z</time>
      </trkpt>
      <trkpt lat="38.217460" lon="-1.576421">
        <ele>397.923049</ele>
        <time>2021-11-01T18:18:07.000Z</time>
      </trkpt>
      <trkpt lat="38.217460" lon="-1.576770">
        <ele>396.649692</ele>
        <time>2021-11-01T18:18:13.000Z</time>
      </trkpt>
      <trkpt lat="38.217527" lon="-1.577151">
        <ele>394.995016</ele>
        <time>2021-11-01T18:18:19.000Z</time>
      </trkpt>
      <trkpt lat="38.217533" lon="-1.577630">
        <ele>392.881617</ele>
        <time>2021-11-01T18:18:25.000Z</time>
      </trkpt>
      <trkpt lat="38.217564" lon="-1.577844">
        <ele>391.921634</ele>
        <time>2021-11-01T18:18:30.000Z</time>
      </trkpt>
      <trkpt lat="38.217620" lon="-1.577976">
        <ele>391.259838</ele>
        <time>2021-11-01T18:18:36.000Z</time>
      </trkpt>
      <trkpt lat="38.217634" lon="-1.578048">
        <ele>390.932624</ele>
        <time>2021-11-01T18:18:42.000Z</time>
      </trkpt>
      <trkpt lat="38.217639" lon="-1.578249">
        <ele>390.045461</ele>
        <time>2021-11-01T18:18:48.000Z</time>
      </trkpt>
      <trkpt lat="38.217416" lon="-1.580615">
        <ele>384.231814</ele>
        <time>2021-11-01T18:18:53.000Z</time>
      </trkpt>
      <trkpt lat="38.217268" lon="-1.581971">
        <ele>381.423026</ele>
        <time>2021-11-01T18:18:59.000Z</time>
      </trkpt>
      <trkpt lat="38.217222" lon="-1.582795">
        <ele>378.940787</ele>
        <time>2021-11-01T18:19:05.000Z</time>
      </trkpt>
      <trkpt lat="38.217240" lon="-1.583253">
        <ele>377.562844</ele>
        <time>2021-11-01T18:19:11.000Z</time>
      </trkpt>
      <trkpt lat="38.217315" lon="-1.584006">
        <ele>375.357712</ele>
        <time>2021-11-01T18:19:17.000Z</time>
      </trkpt>
      <trkpt lat="38.217358" lon="-1.584204">
        <ele>374.784660</ele>
        <time>2021-11-01T18:19:23.000Z</time>
      </trkpt>
      <trkpt lat="38.217871" lon="-1.585998">
        <ele>369.511210</ele>
        <time>2021-11-01T18:19:29.000Z</time>
      </trkpt>
      <trkpt lat="38.217962" lon="-1.586501">
        <ele>368.224002</ele>
        <time>2021-11-01T18:19:35.000Z</time>
      </trkpt>
      <trkpt lat="38.218150" lon="-1.587731">
        <ele>365.099129</ele>
        <time>2021-11-01T18:19:41.000Z</time>
      </trkpt>
      <trkpt lat="38.218499" lon="-1.588775">
        <ele>362.359934</ele>
        <time>2021-11-01T18:19:47.000Z</time>
      </trkpt>
      <trkpt lat="38.218759" lon="-1.589881">
        <ele>359.612622</ele>
        <time>2021-11-01T18:19:53.000Z</time>
      </trkpt>
      <trkpt lat="38.219017" lon="-1.590672">
        <ele>356.838494</ele>
        <time>2021-11-01T18:19:59.000Z</time>
      </trkpt>
      <trkpt lat="38.219118" lon="-1.590929">
        <ele>355.742082</ele>
        <time>2021-11-01T18:20:05.000Z</time>
      </trkpt>
      <trkpt lat="38.219470" lon="-1.591566">
        <ele>352.770660</ele>
        <time>2021-11-01T18:20:11.000Z</time>
      </trkpt>
      <trkpt lat="38.219707" lon="-1.592156">
        <ele>350.242370</ele>
        <time>2021-11-01T18:20:17.000Z</time>
      </trkpt>
      <trkpt lat="38.219769" lon="-1.592439">
        <ele>348.399341</ele>
        <time>2021-11-01T18:20:23.000Z</time>
      </trkpt>
      <trkpt lat="38.219844" lon="-1.593050">
        <ele>344.223376</ele>
        <time>2021-11-01T18:20:29.000Z</time>
      </trkpt>
      <trkpt lat="38.219898" lon="-1.593244">
        <ele>342.833559</ele>
        <time>2021-11-01T18:20:35.000Z</time>
      </trkpt>
      <trkpt lat="38.219995" lon="-1.593406">
        <ele>341.458130</ele>
        <time>2021-11-01T18:20:41.000Z</time>
      </trkpt>
      <trkpt lat="38.220177" lon="-1.593622">
        <ele>339.319312</ele>
        <time>2021-11-01T18:20:47.000Z</time>
      </trkpt>
      <trkpt lat="38.220225" lon="-1.593715">
        <ele>338.567917</ele>
        <time>2021-11-01T18:20:54.000Z</time>
      </trkpt>
      <trkpt lat="38.220272" lon="-1.593928">
        <ele>337.073943</ele>
        <time>2021-11-01T18:21:00.000Z</time>
      </trkpt>
      <trkpt lat="38.220279" lon="-1.594041">
        <ele>336.308523</ele>
        <time>2021-11-01T18:21:06.000Z</time>
      </trkpt>
      <trkpt lat="38.220246" lon="-1.594469">
        <ele>333.509742</ele>
        <time>2021-11-01T18:21:12.000Z</time>
      </trkpt>
      <trkpt lat="38.220270" lon="-1.594572">
        <ele>332.848152</ele>
        <time>2021-11-01T18:21:18.000Z</time>
      </trkpt>
      <trkpt lat="38.220312" lon="-1.594663">
        <ele>332.198223</ele>
        <time>2021-11-01T18:21:24.000Z</time>
      </trkpt>
      <trkpt lat="38.220436" lon="-1.594750">
        <ele>331.088397</ele>
        <time>2021-11-01T18:21:30.000Z</time>
      </trkpt>
      <trkpt lat="38.220696" lon="-1.594766">
        <ele>329.048059</ele>
        <time>2021-11-01T18:21:36.000Z</time>
      </trkpt>
      <trkpt lat="38.220778" lon="-1.594801">
        <ele>328.370144</ele>
        <time>2021-11-01T18:21:43.000Z</time>
      </trkpt>
      <trkpt lat="38.220845" lon="-1.594860">
        <ele>327.731550</ele>
        <time>2021-11-01T18:21:49.000Z</time>
      </trkpt>
      <trkpt lat="38.220945" lon="-1.595034">
        <ele>326.403962</ele>
        <time>2021-11-01T18:21:55.000Z</time>
      </trkpt>
      <trkpt lat="38.220962" lon="-1.595272">
        <ele>324.932311</ele>
        <time>2021-11-01T18:22:01.000Z</time>
      </trkpt>
      <trkpt lat="38.221014" lon="-1.595495">
        <ele>323.499864</ele>
        <time>2021-11-01T18:22:07.000Z</time>
      </trkpt>
      <trkpt lat="38.221090" lon="-1.595547">
        <ele>322.823544</ele>
        <time>2021-11-01T18:22:13.000Z</time>
      </trkpt>
      <trkpt lat="38.221153" lon="-1.595568">
        <ele>322.313079</ele>
        <time>2021-11-01T18:22:19.000Z</time>
      </trkpt>
      <trkpt lat="38.221213" lon="-1.595535">
        <ele>321.800755</ele>
        <time>2021-11-01T18:22:26.000Z</time>
      </trkpt>
      <trkpt lat="38.221269" lon="-1.595461">
        <ele>321.168042</ele>
        <time>2021-11-01T18:22:32.000Z</time>
      </trkpt>
      <trkpt lat="38.221486" lon="-1.594935">
        <ele>318.973101</ele>
        <time>2021-11-01T18:22:38.000Z</time>
      </trkpt>
      <trkpt lat="38.221590" lon="-1.594764">
        <ele>318.292853</ele>
        <time>2021-11-01T18:22:44.000Z</time>
      </trkpt>
      <trkpt lat="38.221647" lon="-1.594715">
        <ele>318.017453</ele>
        <time>2021-11-01T18:22:50.000Z</time>
      </trkpt>
      <trkpt lat="38.221745" lon="-1.594718">
        <ele>317.624950</ele>
        <time>2021-11-01T18:22:57.000Z</time>
      </trkpt>
      <trkpt lat="38.221821" lon="-1.594777">
        <ele>317.268518</ele>
        <time>2021-11-01T18:23:03.000Z</time>
      </trkpt>
      <trkpt lat="38.222077" lon="-1.595012">
        <ele>316.004754</ele>
        <time>2021-11-01T18:23:09.000Z</time>
      </trkpt>
      <trkpt lat="38.222118" lon="-1.595094">
        <ele>315.699005</ele>
        <time>2021-11-01T18:23:15.000Z</time>
      </trkpt>
      <trkpt lat="38.222155" lon="-1.595182">
        <ele>315.385043</ele>
        <time>2021-11-01T18:23:21.000Z</time>
      </trkpt>
      <trkpt lat="38.222159" lon="-1.595292">
        <ele>315.038657</ele>
        <time>2021-11-01T18:23:27.000Z</time>
      </trkpt>
      <trkpt lat="38.222132" lon="-1.595403">
        <ele>314.673143</ele>
        <time>2021-11-01T18:23:34.000Z</time>
      </trkpt>
      <trkpt lat="38.222080" lon="-1.596018">
        <ele>312.992125</ele>
        <time>2021-11-01T18:23:40.000Z</time>
      </trkpt>
      <trkpt lat="38.222077" lon="-1.596277">
        <ele>312.554185</ele>
        <time>2021-11-01T18:23:46.000Z</time>
      </trkpt>
      <trkpt lat="38.222101" lon="-1.597144">
        <ele>311.087433</ele>
        <time>2021-11-01T18:23:52.000Z</time>
      </trkpt>
      <trkpt lat="38.222153" lon="-1.597443">
        <ele>310.569674</ele>
        <time>2021-11-01T18:23:59.000Z</time>
      </trkpt>
      <trkpt lat="38.222376" lon="-1.598229">
        <ele>309.342263</ele>
        <time>2021-11-01T18:24:05.000Z</time>
      </trkpt>
      <trkpt lat="38.222492" lon="-1.598801">
        <ele>309.024228</ele>
        <time>2021-11-01T18:24:11.000Z</time>
      </trkpt>
      <trkpt lat="38.222625" lon="-1.599148">
        <ele>308.816370</ele>
        <time>2021-11-01T18:24:17.000Z</time>
      </trkpt>
      <trkpt lat="38.222688" lon="-1.599157">
        <ele>308.772927</ele>
        <time>2021-11-01T18:24:24.000Z</time>
      </trkpt>
      <trkpt lat="38.222747" lon="-1.599118">
        <ele>308.727370</ele>
        <time>2021-11-01T18:24:30.000Z</time>
      </trkpt>
      <trkpt lat="38.222897" lon="-1.599069">
        <ele>308.621248</ele>
        <time>2021-11-01T18:24:36.000Z</time>
      </trkpt>
      <trkpt lat="38.223025" lon="-1.599056">
        <ele>308.533255</ele>
        <time>2021-11-01T18:24:43.000Z</time>
      </trkpt>
      <trkpt lat="38.223095" lon="-1.599292">
        <ele>308.397450</ele>
        <time>2021-11-01T18:24:49.000Z</time>
      </trkpt>
      <trkpt lat="38.223104" lon="-1.599373">
        <ele>308.353409</ele>
        <time>2021-11-01T18:24:55.000Z</time>
      </trkpt>
      <trkpt lat="38.223081" lon="-1.599514">
        <ele>308.275882</ele>
        <time>2021-11-01T18:25:01.000Z</time>
      </trkpt>
      <trkpt lat="38.223143" lon="-1.599708">
        <ele>308.350619</ele>
        <time>2021-11-01T18:25:08.000Z</time>
      </trkpt>
      <trkpt lat="38.223152" lon="-1.599844">
        <ele>308.691689</ele>
        <time>2021-11-01T18:25:14.000Z</time>
      </trkpt>
      <trkpt lat="38.223201" lon="-1.599958">
        <ele>309.016429</ele>
        <time>2021-11-01T18:25:20.000Z</time>
      </trkpt>
      <trkpt lat="38.223215" lon="-1.600126">
        <ele>309.438620</ele>
        <time>2021-11-01T18:25:27.000Z</time>
      </trkpt>
      <trkpt lat="38.223134" lon="-1.600345">
        <ele>310.043525</ele>
        <time>2021-11-01T18:25:33.000Z</time>
      </trkpt>
      <trkpt lat="38.222530" lon="-1.601252">
        <ele>313.014899</ele>
        <time>2021-11-01T18:25:39.000Z</time>
      </trkpt>
      <trkpt lat="38.222538" lon="-1.601334">
        <ele>313.221395</ele>
        <time>2021-11-01T18:25:46.000Z</time>
      </trkpt>
      <trkpt lat="38.222486" lon="-1.601556">
        <ele>313.800316</ele>
        <time>2021-11-01T18:25:52.000Z</time>
      </trkpt>
      <trkpt lat="38.222378" lon="-1.601766">
        <ele>314.640458</ele>
        <time>2021-11-01T18:25:58.000Z</time>
      </trkpt>
      <trkpt lat="38.222260" lon="-1.601872">
        <ele>315.291766</ele>
        <time>2021-11-01T18:26:05.000Z</time>
      </trkpt>
      <trkpt lat="38.222104" lon="-1.602133">
        <ele>316.453642</ele>
        <time>2021-11-01T18:26:11.000Z</time>
      </trkpt>
      <trkpt lat="38.222043" lon="-1.602279">
        <ele>317.039499</ele>
        <time>2021-11-01T18:26:18.000Z</time>
      </trkpt>
      <trkpt lat="38.222029" lon="-1.602378">
        <ele>317.395879</ele>
        <time>2021-11-01T18:26:24.000Z</time>
      </trkpt>
      <trkpt lat="38.222049" lon="-1.602849">
        <ele>319.067000</ele>
        <time>2021-11-01T18:26:30.000Z</time>
      </trkpt>
      <trkpt lat="38.222042" lon="-1.603163">
        <ele>320.179905</ele>
        <time>2021-11-01T18:26:37.000Z</time>
      </trkpt>
      <trkpt lat="38.221975" lon="-1.603480">
        <ele>321.342924</ele>
        <time>2021-11-01T18:26:43.000Z</time>
      </trkpt>
      <trkpt lat="38.221952" lon="-1.603774">
        <ele>322.266169</ele>
        <time>2021-11-01T18:26:49.000Z</time>
      </trkpt>
      <trkpt lat="38.221978" lon="-1.603973">
        <ele>322.736084</ele>
        <time>2021-11-01T18:26:56.000Z</time>
      </trkpt>
      <trkpt lat="38.222016" lon="-1.604112">
        <ele>323.078912</ele>
        <time>2021-11-01T18:27:02.000Z</time>
      </trkpt>
      <trkpt lat="38.222058" lon="-1.604614">
        <ele>324.254876</ele>
        <time>2021-11-01T18:27:09.000Z</time>
      </trkpt>
      <trkpt lat="38.222159" lon="-1.605281">
        <ele>325.837172</ele>
        <time>2021-11-01T18:27:15.000Z</time>
      </trkpt>
      <trkpt lat="38.222173" lon="-1.605719">
        <ele>326.858285</ele>
        <time>2021-11-01T18:27:22.000Z</time>
      </trkpt>
      <trkpt lat="38.222200" lon="-1.605959">
        <ele>327.413570</ele>
        <time>2021-11-01T18:27:28.000Z</time>
      </trkpt>
      <trkpt lat="38.222293" lon="-1.606274">
        <ele>328.075584</ele>
        <time>2021-11-01T18:27:34.000Z</time>
      </trkpt>
      <trkpt lat="38.222409" lon="-1.606589">
        <ele>328.759985</ele>
        <time>2021-11-01T18:27:41.000Z</time>
      </trkpt>
      <trkpt lat="38.222480" lon="-1.606873">
        <ele>329.346304</ele>
        <time>2021-11-01T18:27:47.000Z</time>
      </trkpt>
      <trkpt lat="38.222521" lon="-1.607165">
        <ele>329.929856</ele>
        <time>2021-11-01T18:27:54.000Z</time>
      </trkpt>
      <trkpt lat="38.222515" lon="-1.607375">
        <ele>330.343260</ele>
        <time>2021-11-01T18:28:00.000Z</time>
      </trkpt>
      <trkpt lat="38.222486" lon="-1.607530">
        <ele>330.656719</ele>
        <time>2021-11-01T18:28:07.000Z</time>
      </trkpt>
      <trkpt lat="38.222329" lon="-1.607888">
        <ele>331.463313</ele>
        <time>2021-11-01T18:28:13.000Z</time>
      </trkpt>
      <trkpt lat="38.222211" lon="-1.608312">
        <ele>332.425517</ele>
        <time>2021-11-01T18:28:20.000Z</time>
      </trkpt>
      <trkpt lat="38.222189" lon="-1.608555">
        <ele>332.983878</ele>
        <time>2021-11-01T18:28:26.000Z</time>
      </trkpt>
      <trkpt lat="38.222195" lon="-1.609021">
        <ele>334.047747</ele>
        <time>2021-11-01T18:28:33.000Z</time>
      </trkpt>
      <trkpt lat="38.222219" lon="-1.609180">
        <ele>334.417330</ele>
        <time>2021-11-01T18:28:39.000Z</time>
      </trkpt>
      <trkpt lat="38.222278" lon="-1.609327">
        <ele>334.794138</ele>
        <time>2021-11-01T18:28:46.000Z</time>
      </trkpt>
      <trkpt lat="38.222338" lon="-1.609415">
        <ele>335.060114</ele>
        <time>2021-11-01T18:28:52.000Z</time>
      </trkpt>
      <trkpt lat="38.222551" lon="-1.609658">
        <ele>335.891199</ele>
        <time>2021-11-01T18:28:59.000Z</time>
      </trkpt>
      <trkpt lat="38.222632" lon="-1.609802">
        <ele>336.295471</ele>
        <time>2021-11-01T18:29:05.000Z</time>
      </trkpt>
      <trkpt lat="38.222708" lon="-1.610011">
        <ele>336.821175</ele>
        <time>2021-11-01T18:29:12.000Z</time>
      </trkpt>
      <trkpt lat="38.222744" lon="-1.610309">
        <ele>337.655458</ele>
        <time>2021-11-01T18:29:18.000Z</time>
      </trkpt>
      <trkpt lat="38.222754" lon="-1.610776">
        <ele>339.095258</ele>
        <time>2021-11-01T18:29:25.000Z</time>
      </trkpt>
      <trkpt lat="38.222778" lon="-1.611081">
        <ele>340.039953</ele>
        <time>2021-11-01T18:29:32.000Z</time>
      </trkpt>
      <trkpt lat="38.222764" lon="-1.611318">
        <ele>340.772434</ele>
        <time>2021-11-01T18:29:38.000Z</time>
      </trkpt>
      <trkpt lat="38.222813" lon="-1.611894">
        <ele>342.558008</ele>
        <time>2021-11-01T18:29:45.000Z</time>
      </trkpt>
      <trkpt lat="38.222805" lon="-1.612133">
        <ele>343.295259</ele>
        <time>2021-11-01T18:29:51.000Z</time>
      </trkpt>
      <trkpt lat="38.222844" lon="-1.612586">
        <ele>345.055356</ele>
        <time>2021-11-01T18:29:58.000Z</time>
      </trkpt>
      <trkpt lat="38.222913" lon="-1.612831">
        <ele>346.374806</ele>
        <time>2021-11-01T18:30:04.000Z</time>
      </trkpt>
      <trkpt lat="38.223020" lon="-1.613009">
        <ele>347.511056</ele>
        <time>2021-11-01T18:30:11.000Z</time>
      </trkpt>
      <trkpt lat="38.223100" lon="-1.613183">
        <ele>348.533125</ele>
        <time>2021-11-01T18:30:18.000Z</time>
      </trkpt>
      <trkpt lat="38.223133" lon="-1.613572">
        <ele>350.516656</ele>
        <time>2021-11-01T18:30:24.000Z</time>
      </trkpt>
      <trkpt lat="38.223186" lon="-1.613780">
        <ele>351.625206</ele>
        <time>2021-11-01T18:30:31.000Z</time>
      </trkpt>
      <trkpt lat="38.223232" lon="-1.613860">
        <ele>352.127798</ele>
        <time>2021-11-01T18:30:38.000Z</time>
      </trkpt>
      <trkpt lat="38.223374" lon="-1.614030">
        <ele>353.385740</ele>
        <time>2021-11-01T18:30:44.000Z</time>
      </trkpt>
      <trkpt lat="38.223415" lon="-1.614118">
        <ele>353.904416</ele>
        <time>2021-11-01T18:30:51.000Z</time>
      </trkpt>
      <trkpt lat="38.223414" lon="-1.614184">
        <ele>354.239069</ele>
        <time>2021-11-01T18:30:57.000Z</time>
      </trkpt>
      <trkpt lat="38.223352" lon="-1.614381">
        <ele>355.314932</ele>
        <time>2021-11-01T18:31:04.000Z</time>
      </trkpt>
      <trkpt lat="38.223367" lon="-1.614476">
        <ele>355.810832</ele>
        <time>2021-11-01T18:31:11.000Z</time>
      </trkpt>
      <trkpt lat="38.223490" lon="-1.614712">
        <ele>357.377617</ele>
        <time>2021-11-01T18:31:17.000Z</time>
      </trkpt>
      <trkpt lat="38.223714" lon="-1.615041">
        <ele>359.786123</ele>
        <time>2021-11-01T18:31:24.000Z</time>
      </trkpt>
      <trkpt lat="38.223801" lon="-1.615198">
        <ele>360.849005</ele>
        <time>2021-11-01T18:31:31.000Z</time>
      </trkpt>
      <trkpt lat="38.224116" lon="-1.615580">
        <ele>363.912734</ele>
        <time>2021-11-01T18:31:37.000Z</time>
      </trkpt>
      <trkpt lat="38.224117" lon="-1.615656">
        <ele>364.333236</ele>
        <time>2021-11-01T18:31:44.000Z</time>
      </trkpt>
      <trkpt lat="38.224087" lon="-1.615775">
        <ele>365.024627</ele>
        <time>2021-11-01T18:31:51.000Z</time>
      </trkpt>
      <trkpt lat="38.224102" lon="-1.615845">
        <ele>365.426024</ele>
        <time>2021-11-01T18:31:57.000Z</time>
      </trkpt>
      <trkpt lat="38.224121" lon="-1.615864">
        <ele>365.596171</ele>
        <time>2021-11-01T18:32:04.000Z</time>
      </trkpt>
      <trkpt lat="38.224177" lon="-1.615866">
        <ele>365.990676</ele>
        <time>2021-11-01T18:32:11.000Z</time>
      </trkpt>
      <trkpt lat="38.224466" lon="-1.615786">
        <ele>368.073367</ele>
        <time>2021-11-01T18:32:17.000Z</time>
      </trkpt>
      <trkpt lat="38.224516" lon="-1.615809">
        <ele>368.443437</ele>
        <time>2021-11-01T18:32:24.000Z</time>
      </trkpt>
      <trkpt lat="38.224548" lon="-1.615871">
        <ele>368.787480</ele>
        <time>2021-11-01T18:32:31.000Z</time>
      </trkpt>
      <trkpt lat="38.224543" lon="-1.615950">
        <ele>369.155047</ele>
        <time>2021-11-01T18:32:37.000Z</time>
      </trkpt>
      <trkpt lat="38.224518" lon="-1.616014">
        <ele>369.486529</ele>
        <time>2021-11-01T18:32:44.000Z</time>
      </trkpt>
      <trkpt lat="38.224391" lon="-1.616154">
        <ele>370.478334</ele>
        <time>2021-11-01T18:32:51.000Z</time>
      </trkpt>
      <trkpt lat="38.224326" lon="-1.616317">
        <ele>371.326098</ele>
        <time>2021-11-01T18:32:57.000Z</time>
      </trkpt>
      <trkpt lat="38.224112" lon="-1.616594">
        <ele>373.127866</ele>
        <time>2021-11-01T18:33:04.000Z</time>
      </trkpt>
      <trkpt lat="38.224047" lon="-1.616745">
        <ele>373.926405</ele>
        <time>2021-11-01T18:33:11.000Z</time>
      </trkpt>
      <trkpt lat="38.224049" lon="-1.616944">
        <ele>374.849393</ele>
        <time>2021-11-01T18:33:17.000Z</time>
      </trkpt>
      <trkpt lat="38.224134" lon="-1.617148">
        <ele>375.920328</ele>
        <time>2021-11-01T18:33:24.000Z</time>
      </trkpt>
      <trkpt lat="38.224161" lon="-1.617317">
        <ele>376.720150</ele>
        <time>2021-11-01T18:33:31.000Z</time>
      </trkpt>
      <trkpt lat="38.224142" lon="-1.617420">
        <ele>377.210829</ele>
        <time>2021-11-01T18:33:38.000Z</time>
      </trkpt>
      <trkpt lat="38.224030" lon="-1.617621">
        <ele>378.353695</ele>
        <time>2021-11-01T18:33:44.000Z</time>
      </trkpt>
      <trkpt lat="38.224019" lon="-1.617792">
        <ele>379.136493</ele>
        <time>2021-11-01T18:33:51.000Z</time>
      </trkpt>
      <trkpt lat="38.224032" lon="-1.617860">
        <ele>379.422999</ele>
        <time>2021-11-01T18:33:58.000Z</time>
      </trkpt>
      <trkpt lat="38.224110" lon="-1.618007">
        <ele>380.149204</ele>
        <time>2021-11-01T18:34:04.000Z</time>
      </trkpt>
      <trkpt lat="38.224530" lon="-1.618476">
        <ele>383.060685</ele>
        <time>2021-11-01T18:34:11.000Z</time>
      </trkpt>
      <trkpt lat="38.224561" lon="-1.618536">
        <ele>383.354676</ele>
        <time>2021-11-01T18:34:18.000Z</time>
      </trkpt>
      <trkpt lat="38.224571" lon="-1.618615">
        <ele>383.682259</ele>
        <time>2021-11-01T18:34:25.000Z</time>
      </trkpt>
      <trkpt lat="38.224563" lon="-1.618653">
        <ele>383.843313</ele>
        <time>2021-11-01T18:34:31.000Z</time>
      </trkpt>
      <trkpt lat="38.224518" lon="-1.618710">
        <ele>384.174133</ele>
        <time>2021-11-01T18:34:38.000Z</time>
      </trkpt>
      <trkpt lat="38.224397" lon="-1.618776">
        <ele>384.860130</ele>
        <time>2021-11-01T18:34:45.000Z</time>
      </trkpt>
      <trkpt lat="38.224252" lon="-1.618825">
        <ele>385.641918</ele>
        <time>2021-11-01T18:34:52.000Z</time>
      </trkpt>
      <trkpt lat="38.224223" lon="-1.618847">
        <ele>385.817843</ele>
        <time>2021-11-01T18:34:58.000Z</time>
      </trkpt>
      <trkpt lat="38.224185" lon="-1.618914">
        <ele>386.156142</ele>
        <time>2021-11-01T18:35:05.000Z</time>
      </trkpt>
      <trkpt lat="38.224180" lon="-1.619104">
        <ele>386.934408</ele>
        <time>2021-11-01T18:35:12.000Z</time>
      </trkpt>
      <trkpt lat="38.224124" lon="-1.619307">
        <ele>387.815206</ele>
        <time>2021-11-01T18:35:19.000Z</time>
      </trkpt>
      <trkpt lat="38.224126" lon="-1.619384">
        <ele>388.130604</ele>
        <time>2021-11-01T18:35:25.000Z</time>
      </trkpt>
      <trkpt lat="38.224143" lon="-1.619371">
        <ele>388.233950</ele>
        <time>2021-11-01T18:35:32.000Z</time>
      </trkpt>
      <trkpt lat="38.224119" lon="-1.619365">
        <ele>388.361407</ele>
        <time>2021-11-01T18:35:39.000Z</time>
      </trkpt>
      <trkpt lat="38.224125" lon="-1.619488">
        <ele>388.781413</ele>
        <time>2021-11-01T18:35:46.000Z</time>
      </trkpt>
      <trkpt lat="38.224100" lon="-1.619711">
        <ele>389.531807</ele>
        <time>2021-11-01T18:35:53.000Z</time>
      </trkpt>
      <trkpt lat="38.224104" lon="-1.619876">
        <ele>390.081725</ele>
        <time>2021-11-01T18:35:59.000Z</time>
      </trkpt>
      <trkpt lat="38.224166" lon="-1.620382">
        <ele>391.787715</ele>
        <time>2021-11-01T18:36:06.000Z</time>
      </trkpt>
      <trkpt lat="38.224103" lon="-1.620959">
        <ele>393.728319</ele>
        <time>2021-11-01T18:36:13.000Z</time>
      </trkpt>
      <trkpt lat="38.224126" lon="-1.621051">
        <ele>394.049938</ele>
        <time>2021-11-01T18:36:20.000Z</time>
      </trkpt>
      <trkpt lat="38.224168" lon="-1.621133">
        <ele>394.376031</ele>
        <time>2021-11-01T18:36:26.000Z</time>
      </trkpt>
      <trkpt lat="38.224214" lon="-1.621201">
        <ele>394.674964</ele>
        <time>2021-11-01T18:36:33.000Z</time>
      </trkpt>
      <trkpt lat="38.224293" lon="-1.621274">
        <ele>395.088916</ele>
        <time>2021-11-01T18:36:40.000Z</time>
      </trkpt>
      <trkpt lat="38.224314" lon="-1.621328">
        <ele>395.289637</ele>
        <time>2021-11-01T18:36:47.000Z</time>
      </trkpt>
      <trkpt lat="38.224307" lon="-1.621390">
        <ele>395.498296</ele>
        <time>2021-11-01T18:36:54.000Z</time>
      </trkpt>
      <trkpt lat="38.224198" lon="-1.621656">
        <ele>396.482790</ele>
        <time>2021-11-01T18:37:01.000Z</time>
      </trkpt>
      <trkpt lat="38.224190" lon="-1.621762">
        <ele>396.825985</ele>
        <time>2021-11-01T18:37:07.000Z</time>
      </trkpt>
      <trkpt lat="38.224206" lon="-1.621827">
        <ele>397.045513</ele>
        <time>2021-11-01T18:37:14.000Z</time>
      </trkpt>
      <trkpt lat="38.224272" lon="-1.621924">
        <ele>397.459083</ele>
        <time>2021-11-01T18:37:21.000Z</time>
      </trkpt>
      <trkpt lat="38.224409" lon="-1.622019">
        <ele>398.099099</ele>
        <time>2021-11-01T18:37:28.000Z</time>
      </trkpt>
      <trkpt lat="38.224531" lon="-1.622076">
        <ele>398.632243</ele>
        <time>2021-11-01T18:37:35.000Z</time>
      </trkpt>
      <trkpt lat="38.224642" lon="-1.622179">
        <ele>399.195762</ele>
        <time>2021-11-01T18:37:41.000Z</time>
      </trkpt>
      <trkpt lat="38.224695" lon="-1.622256">
        <ele>399.525698</ele>
        <time>2021-11-01T18:37:48.000Z</time>
      </trkpt>
      <trkpt lat="38.224720" lon="-1.622325">
        <ele>399.770584</ele>
        <time>2021-11-01T18:37:55.000Z</time>
      </trkpt>
      <trkpt lat="38.224724" lon="-1.622479">
        <ele>400.267171</ele>
        <time>2021-11-01T18:38:02.000Z</time>
      </trkpt>
      <trkpt lat="38.224697" lon="-1.622555">
        <ele>400.535987</ele>
        <time>2021-11-01T18:38:09.000Z</time>
      </trkpt>
      <trkpt lat="38.224636" lon="-1.622597">
        <ele>400.820497</ele>
        <time>2021-11-01T18:38:16.000Z</time>
      </trkpt>
      <trkpt lat="38.224574" lon="-1.622583">
        <ele>401.078819</ele>
        <time>2021-11-01T18:38:23.000Z</time>
      </trkpt>
      <trkpt lat="38.224484" lon="-1.622523">
        <ele>401.495609</ele>
        <time>2021-11-01T18:38:29.000Z</time>
      </trkpt>
      <trkpt lat="38.224449" lon="-1.622522">
        <ele>401.639230</ele>
        <time>2021-11-01T18:38:36.000Z</time>
      </trkpt>
      <trkpt lat="38.224384" lon="-1.622557">
        <ele>401.928765</ele>
        <time>2021-11-01T18:38:43.000Z</time>
      </trkpt>
      <trkpt lat="38.224311" lon="-1.622653">
        <ele>402.359358</ele>
        <time>2021-11-01T18:38:50.000Z</time>
      </trkpt>
      <trkpt lat="38.224261" lon="-1.622897">
        <ele>403.172045</ele>
        <time>2021-11-01T18:38:57.000Z</time>
      </trkpt>
      <trkpt lat="38.224228" lon="-1.622957">
        <ele>403.408096</ele>
        <time>2021-11-01T18:39:04.000Z</time>
      </trkpt>
      <trkpt lat="38.224050" lon="-1.623133">
        <ele>404.323260</ele>
        <time>2021-11-01T18:39:11.000Z</time>
      </trkpt>
      <trkpt lat="38.223873" lon="-1.623388">
        <ele>405.408547</ele>
        <time>2021-11-01T18:39:17.000Z</time>
      </trkpt>
      <trkpt lat="38.223822" lon="-1.623422">
        <ele>405.642279</ele>
        <time>2021-11-01T18:39:24.000Z</time>
      </trkpt>
      <trkpt lat="38.223680" lon="-1.623469">
        <ele>406.237952</ele>
        <time>2021-11-01T18:39:31.000Z</time>
      </trkpt>
      <trkpt lat="38.223632" lon="-1.623509">
        <ele>406.470873</ele>
        <time>2021-11-01T18:39:38.000Z</time>
      </trkpt>
      <trkpt lat="38.223598" lon="-1.623569">
        <ele>406.706829</ele>
        <time>2021-11-01T18:39:45.000Z</time>
      </trkpt>
      <trkpt lat="38.223586" lon="-1.623640">
        <ele>406.938461</ele>
        <time>2021-11-01T18:39:52.000Z</time>
      </trkpt>
      <trkpt lat="38.223614" lon="-1.623779">
        <ele>407.396137</ele>
        <time>2021-11-01T18:39:59.000Z</time>
      </trkpt>
      <trkpt lat="38.223684" lon="-1.623901">
        <ele>407.877980</ele>
        <time>2021-11-01T18:40:06.000Z</time>
      </trkpt>
      <trkpt lat="38.223947" lon="-1.624065">
        <ele>409.066965</ele>
        <time>2021-11-01T18:40:12.000Z</time>
      </trkpt>
      <trkpt lat="38.224169" lon="-1.624353">
        <ele>410.353850</ele>
        <time>2021-11-01T18:40:19.000Z</time>
      </trkpt>
      <trkpt lat="38.224430" lon="-1.624495">
        <ele>411.818214</ele>
        <time>2021-11-01T18:40:26.000Z</time>
      </trkpt>
      <trkpt lat="38.224467" lon="-1.624569">
        <ele>412.209048</ele>
        <time>2021-11-01T18:40:33.000Z</time>
      </trkpt>
      <trkpt lat="38.224459" lon="-1.624609">
        <ele>412.392958</ele>
        <time>2021-11-01T18:40:40.000Z</time>
      </trkpt>
      <trkpt lat="38.224408" lon="-1.624650">
        <ele>412.735072</ele>
        <time>2021-11-01T18:40:47.000Z</time>
      </trkpt>
      <trkpt lat="38.224125" lon="-1.624638">
        <ele>414.341050</ele>
        <time>2021-11-01T18:40:54.000Z</time>
      </trkpt>
      <trkpt lat="38.223982" lon="-1.624603">
        <ele>415.166958</ele>
        <time>2021-11-01T18:41:01.000Z</time>
      </trkpt>
      <trkpt lat="38.223914" lon="-1.624610">
        <ele>415.553892</ele>
        <time>2021-11-01T18:41:08.000Z</time>
      </trkpt>
      <trkpt lat="38.223884" lon="-1.624630">
        <ele>415.745966</ele>
        <time>2021-11-01T18:41:15.000Z</time>
      </trkpt>
      <trkpt lat="38.223841" lon="-1.624736">
        <ele>416.277518</ele>
        <time>2021-11-01T18:41:22.000Z</time>
      </trkpt>
      <trkpt lat="38.223847" lon="-1.625053">
        <ele>417.690377</ele>
        <time>2021-11-01T18:41:29.000Z</time>
      </trkpt>
      <trkpt lat="38.223838" lon="-1.625134">
        <ele>418.054878</ele>
        <time>2021-11-01T18:41:36.000Z</time>
      </trkpt>
      <trkpt lat="38.223809" lon="-1.625202">
        <ele>418.399630</ele>
        <time>2021-11-01T18:41:42.000Z</time>
      </trkpt>
      <trkpt lat="38.223732" lon="-1.625247">
        <ele>418.880179</ele>
        <time>2021-11-01T18:41:49.000Z</time>
      </trkpt>
      <trkpt lat="38.223546" lon="-1.625224">
        <ele>419.940079</ele>
        <time>2021-11-01T18:41:56.000Z</time>
      </trkpt>
      <trkpt lat="38.223464" lon="-1.625261">
        <ele>420.433513</ele>
        <time>2021-11-01T18:42:03.000Z</time>
      </trkpt>
      <trkpt lat="38.223249" lon="-1.625585">
        <ele>422.007582</ele>
        <time>2021-11-01T18:42:10.000Z</time>
      </trkpt>
      <trkpt lat="38.223102" lon="-1.625845">
        <ele>423.113434</ele>
        <time>2021-11-01T18:42:17.000Z</time>
      </trkpt>
      <trkpt lat="38.222916" lon="-1.626057">
        <ele>424.210558</ele>
        <time>2021-11-01T18:42:24.000Z</time>
      </trkpt>
      <trkpt lat="38.222880" lon="-1.626119">
        <ele>424.476712</ele>
        <time>2021-11-01T18:42:31.000Z</time>
      </trkpt>
      <trkpt lat="38.222774" lon="-1.626652">
        <ele>426.374788</ele>
        <time>2021-11-01T18:42:38.000Z</time>
      </trkpt>
      <trkpt lat="38.222732" lon="-1.626697">
        <ele>426.616028</ele>
        <time>2021-11-01T18:42:45.000Z</time>
      </trkpt>
      <trkpt lat="38.222537" lon="-1.626794">
        <ele>427.536027</ele>
        <time>2021-11-01T18:42:52.000Z</time>
      </trkpt>
      <trkpt lat="38.222378" lon="-1.626902">
        <ele>428.327979</ele>
        <time>2021-11-01T18:42:59.000Z</time>
      </trkpt>
      <trkpt lat="38.222310" lon="-1.626970">
        <ele>428.707977</ele>
        <time>2021-11-01T18:43:06.000Z</time>
      </trkpt>
      <trkpt lat="38.222264" lon="-1.627073">
        <ele>429.023576</ele>
        <time>2021-11-01T18:43:13.000Z</time>
      </trkpt>
      <trkpt lat="38.222180" lon="-1.627490">
        <ele>430.033486</ele>
        <time>2021-11-01T18:43:20.000Z</time>
      </trkpt>
      <trkpt lat="38.222017" lon="-1.628028">
        <ele>431.386216</ele>
        <time>2021-11-01T18:43:27.000Z</time>
      </trkpt>
      <trkpt lat="38.221967" lon="-1.628341">
        <ele>432.135529</ele>
        <time>2021-11-01T18:43:34.000Z</time>
      </trkpt>
      <trkpt lat="38.221976" lon="-1.628656">
        <ele>432.874996</ele>
        <time>2021-11-01T18:43:41.000Z</time>
      </trkpt>
      <trkpt lat="38.221962" lon="-1.628751">
        <ele>433.101750</ele>
        <time>2021-11-01T18:43:48.000Z</time>
      </trkpt>
      <trkpt lat="38.221817" lon="-1.629038">
        <ele>433.902251</ele>
        <time>2021-11-01T18:43:55.000Z</time>
      </trkpt>
      <trkpt lat="38.221729" lon="-1.629294">
        <ele>434.411194</ele>
        <time>2021-11-01T18:44:02.000Z</time>
      </trkpt>
      <trkpt lat="38.221799" lon="-1.630018">
        <ele>435.428193</ele>
        <time>2021-11-01T18:44:09.000Z</time>
      </trkpt>
      <trkpt lat="38.221907" lon="-1.630459">
        <ele>436.072205</ele>
        <time>2021-11-01T18:44:16.000Z</time>
      </trkpt>
      <trkpt lat="38.222036" lon="-1.631347">
        <ele>437.331218</ele>
        <time>2021-11-01T18:44:24.000Z</time>
      </trkpt>
      <trkpt lat="38.222025" lon="-1.631524">
        <ele>437.583480</ele>
        <time>2021-11-01T18:44:31.000Z</time>
      </trkpt>
      <trkpt lat="38.221999" lon="-1.631636">
        <ele>437.750340</ele>
        <time>2021-11-01T18:44:38.000Z</time>
      </trkpt>
      <trkpt lat="38.221802" lon="-1.632107">
        <ele>438.512711</ele>
        <time>2021-11-01T18:44:45.000Z</time>
      </trkpt>
      <trkpt lat="38.221726" lon="-1.632609">
        <ele>439.243142</ele>
        <time>2021-11-01T18:44:52.000Z</time>
      </trkpt>
      <trkpt lat="38.221728" lon="-1.632780">
        <ele>439.487486</ele>
        <time>2021-11-01T18:44:59.000Z</time>
      </trkpt>
      <trkpt lat="38.221764" lon="-1.633006">
        <ele>439.816956</ele>
        <time>2021-11-01T18:45:06.000Z</time>
      </trkpt>
      <trkpt lat="38.221766" lon="-1.633124">
        <ele>439.985588</ele>
        <time>2021-11-01T18:45:13.000Z</time>
      </trkpt>
      <trkpt lat="38.221697" lon="-1.633740">
        <ele>440.866043</ele>
        <time>2021-11-01T18:45:21.000Z</time>
      </trkpt>
      <trkpt lat="38.221689" lon="-1.634070">
        <ele>441.318991</ele>
        <time>2021-11-01T18:45:28.000Z</time>
      </trkpt>
      <trkpt lat="38.221695" lon="-1.634176">
        <ele>441.464792</ele>
        <time>2021-11-01T18:45:35.000Z</time>
      </trkpt>
      <trkpt lat="38.221780" lon="-1.634516">
        <ele>441.954292</ele>
        <time>2021-11-01T18:45:42.000Z</time>
      </trkpt>
      <trkpt lat="38.221795" lon="-1.634662">
        <ele>442.156297</ele>
        <time>2021-11-01T18:45:49.000Z</time>
      </trkpt>
      <trkpt lat="38.221772" lon="-1.635279">
        <ele>443.003722</ele>
        <time>2021-11-01T18:45:56.000Z</time>
      </trkpt>
      <trkpt lat="38.221732" lon="-1.635624">
        <ele>443.482160</ele>
        <time>2021-11-01T18:46:03.000Z</time>
      </trkpt>
      <trkpt lat="38.221759" lon="-1.635727">
        <ele>443.631126</ele>
        <time>2021-11-01T18:46:11.000Z</time>
      </trkpt>
      <trkpt lat="38.221844" lon="-1.635863">
        <ele>443.856291</ele>
        <time>2021-11-01T18:46:18.000Z</time>
      </trkpt>
      <trkpt lat="38.221859" lon="-1.635933">
        <ele>443.936759</ele>
        <time>2021-11-01T18:46:25.000Z</time>
      </trkpt>
      <trkpt lat="38.221839" lon="-1.636001">
        <ele>444.017284</ele>
        <time>2021-11-01T18:46:32.000Z</time>
      </trkpt>
      <trkpt lat="38.221703" lon="-1.636183">
        <ele>444.295850</ele>
        <time>2021-11-01T18:46:39.000Z</time>
      </trkpt>
      <trkpt lat="38.221655" lon="-1.636428">
        <ele>444.575885</ele>
        <time>2021-11-01T18:46:47.000Z</time>
      </trkpt>
      <trkpt lat="38.221612" lon="-1.636916">
        <ele>445.120485</ele>
        <time>2021-11-01T18:46:54.000Z</time>
      </trkpt>
      <trkpt lat="38.221630" lon="-1.637779">
        <ele>446.077917</ele>
        <time>2021-11-01T18:47:01.000Z</time>
      </trkpt>
      <trkpt lat="38.221653" lon="-1.638068">
        <ele>446.392042</ele>
        <time>2021-11-01T18:47:08.000Z</time>
      </trkpt>
      <trkpt lat="38.221711" lon="-1.638466">
        <ele>446.781551</ele>
        <time>2021-11-01T18:47:15.000Z</time>
      </trkpt>
      <trkpt lat="38.221690" lon="-1.638941">
        <ele>447.239343</ele>
        <time>2021-11-01T18:47:23.000Z</time>
      </trkpt>
      <trkpt lat="38.221719" lon="-1.639314">
        <ele>447.600016</ele>
        <time>2021-11-01T18:47:30.000Z</time>
      </trkpt>
      <trkpt lat="38.221794" lon="-1.639740">
        <ele>448.020101</ele>
        <time>2021-11-01T18:47:37.000Z</time>
      </trkpt>
      <trkpt lat="38.222011" lon="-1.640681">
        <ele>448.855742</ele>
        <time>2021-11-01T18:47:45.000Z</time>
      </trkpt>
      <trkpt lat="38.222070" lon="-1.641088">
        <ele>449.151868</ele>
        <time>2021-11-01T18:47:52.000Z</time>
      </trkpt>
      <trkpt lat="38.222093" lon="-1.641513">
        <ele>449.456677</ele>
        <time>2021-11-01T18:47:59.000Z</time>
      </trkpt>
      <trkpt lat="38.222055" lon="-1.643644">
        <ele>451.712377</ele>
        <time>2021-11-01T18:48:06.000Z</time>
      </trkpt>
      <trkpt lat="38.221966" lon="-1.644268">
        <ele>452.579902</ele>
        <time>2021-11-01T18:48:14.000Z</time>
      </trkpt>
      <trkpt lat="38.221952" lon="-1.644576">
        <ele>453.001921</ele>
        <time>2021-11-01T18:48:21.000Z</time>
      </trkpt>
      <trkpt lat="38.221875" lon="-1.644854">
        <ele>453.482317</ele>
        <time>2021-11-01T18:48:29.000Z</time>
      </trkpt>
      <trkpt lat="38.221790" lon="-1.645074">
        <ele>454.096552</ele>
        <time>2021-11-01T18:48:36.000Z</time>
      </trkpt>
      <trkpt lat="38.221742" lon="-1.645303">
        <ele>454.690358</ele>
        <time>2021-11-01T18:48:43.000Z</time>
      </trkpt>
      <trkpt lat="38.221707" lon="-1.646128">
        <ele>456.760321</ele>
        <time>2021-11-01T18:48:51.000Z</time>
      </trkpt>
      <trkpt lat="38.221762" lon="-1.646843">
        <ele>458.560246</ele>
        <time>2021-11-01T18:48:58.000Z</time>
      </trkpt>
      <trkpt lat="38.221804" lon="-1.647054">
        <ele>459.137008</ele>
        <time>2021-11-01T18:49:06.000Z</time>
      </trkpt>
      <trkpt lat="38.222042" lon="-1.647771">
        <ele>462.156863</ele>
        <time>2021-11-01T18:49:13.000Z</time>
      </trkpt>
      <trkpt lat="38.222064" lon="-1.647992">
        <ele>463.021131</ele>
        <time>2021-11-01T18:49:20.000Z</time>
      </trkpt>
      <trkpt lat="38.222049" lon="-1.648289">
        <ele>464.175779</ele>
        <time>2021-11-01T18:49:28.000Z</time>
      </trkpt>
      <trkpt lat="38.222069" lon="-1.648849">
        <ele>466.350651</ele>
        <time>2021-11-01T18:49:35.000Z</time>
      </trkpt>
      <trkpt lat="38.222100" lon="-1.649049">
        <ele>467.141547</ele>
        <time>2021-11-01T18:49:43.000Z</time>
      </trkpt>
      <trkpt lat="38.222202" lon="-1.649315">
        <ele>468.438363</ele>
        <time>2021-11-01T18:49:50.000Z</time>
      </trkpt>
      <trkpt lat="38.222448" lon="-1.649807">
        <ele>471.636045</ele>
        <time>2021-11-01T18:49:58.000Z</time>
      </trkpt>
      <trkpt lat="38.222565" lon="-1.649965">
        <ele>472.826555</ele>
        <time>2021-11-01T18:50:05.000Z</time>
      </trkpt>
      <trkpt lat="38.222785" lon="-1.650150">
        <ele>474.666807</ele>
        <time>2021-11-01T18:50:13.000Z</time>
      </trkpt>
      <trkpt lat="38.222845" lon="-1.650260">
        <ele>475.401060</ele>
        <time>2021-11-01T18:50:20.000Z</time>
      </trkpt>
      <trkpt lat="38.222861" lon="-1.650357">
        <ele>475.944509</ele>
        <time>2021-11-01T18:50:28.000Z</time>
      </trkpt>
      <trkpt lat="38.222841" lon="-1.650546">
        <ele>476.990158</ele>
        <time>2021-11-01T18:50:35.000Z</time>
      </trkpt>
      <trkpt lat="38.222844" lon="-1.650682">
        <ele>477.736143</ele>
        <time>2021-11-01T18:50:43.000Z</time>
      </trkpt>
      <trkpt lat="38.223003" lon="-1.651484">
        <ele>481.747976</ele>
        <time>2021-11-01T18:50:50.000Z</time>
      </trkpt>
      <trkpt lat="38.222984" lon="-1.651754">
        <ele>482.799065</ele>
        <time>2021-11-01T18:50:58.000Z</time>
      </trkpt>
      <trkpt lat="38.222994" lon="-1.651853">
        <ele>483.186087</ele>
        <time>2021-11-01T18:51:05.000Z</time>
      </trkpt>
      <trkpt lat="38.223024" lon="-1.651953">
        <ele>483.601136</ele>
        <time>2021-11-01T18:51:13.000Z</time>
      </trkpt>
      <trkpt lat="38.223137" lon="-1.652175">
        <ele>484.626803</ele>
        <time>2021-11-01T18:51:20.000Z</time>
      </trkpt>
      <trkpt lat="38.223163" lon="-1.652328">
        <ele>485.233764</ele>
        <time>2021-11-01T18:51:28.000Z</time>
      </trkpt>
      <trkpt lat="38.223168" lon="-1.652660">
        <ele>486.521294</ele>
        <time>2021-11-01T18:51:35.000Z</time>
      </trkpt>
      <trkpt lat="38.223187" lon="-1.652830">
        <ele>487.187087</ele>
        <time>2021-11-01T18:51:43.000Z</time>
      </trkpt>
      <trkpt lat="38.223259" lon="-1.653004">
        <ele>487.949617</ele>
        <time>2021-11-01T18:51:50.000Z</time>
      </trkpt>
      <trkpt lat="38.223379" lon="-1.653195">
        <ele>488.897897</ele>
        <time>2021-11-01T18:51:58.000Z</time>
      </trkpt>
      <trkpt lat="38.223482" lon="-1.653817">
        <ele>489.556318</ele>
        <time>2021-11-01T18:52:06.000Z</time>
      </trkpt>
      <trkpt lat="38.223715" lon="-1.654507">
        <ele>489.840123</ele>
        <time>2021-11-01T18:52:13.000Z</time>
      </trkpt>
      <trkpt lat="38.223821" lon="-1.654666">
        <ele>489.918924</ele>
        <time>2021-11-01T18:52:21.000Z</time>
      </trkpt>
      <trkpt lat="38.224038" lon="-1.654878">
        <ele>490.050501</ele>
        <time>2021-11-01T18:52:28.000Z</time>
      </trkpt>
      <trkpt lat="38.224098" lon="-1.654975">
        <ele>490.097154</ele>
        <time>2021-11-01T18:52:36.000Z</time>
      </trkpt>
      <trkpt lat="38.224116" lon="-1.655035">
        <ele>490.121423</ele>
        <time>2021-11-01T18:52:43.000Z</time>
      </trkpt>
      <trkpt lat="38.224134" lon="-1.655316">
        <ele>490.216194</ele>
        <time>2021-11-01T18:52:51.000Z</time>
      </trkpt>
      <trkpt lat="38.224037" lon="-1.656127">
        <ele>488.138302</ele>
        <time>2021-11-01T18:52:59.000Z</time>
      </trkpt>
      <trkpt lat="38.224034" lon="-1.656215">
        <ele>487.915193</ele>
        <time>2021-11-01T18:53:06.000Z</time>
      </trkpt>
      <trkpt lat="38.224062" lon="-1.656359">
        <ele>487.539442</ele>
        <time>2021-11-01T18:53:14.000Z</time>
      </trkpt>
      <trkpt lat="38.224091" lon="-1.656415">
        <ele>487.369552</ele>
        <time>2021-11-01T18:53:22.000Z</time>
      </trkpt>
      <trkpt lat="38.224171" lon="-1.656504">
        <ele>487.026985</ele>
        <time>2021-11-01T18:53:29.000Z</time>
      </trkpt>
      <trkpt lat="38.224215" lon="-1.656532">
        <ele>486.868378</ele>
        <time>2021-11-01T18:53:37.000Z</time>
      </trkpt>
      <trkpt lat="38.224258" lon="-1.656536">
        <ele>486.729367</ele>
        <time>2021-11-01T18:53:44.000Z</time>
      </trkpt>
      <trkpt lat="38.224350" lon="-1.656494">
        <ele>486.414237</ele>
        <time>2021-11-01T18:53:52.000Z</time>
      </trkpt>
      <trkpt lat="38.224471" lon="-1.656367">
        <ele>485.908586</ele>
        <time>2021-11-01T18:54:00.000Z</time>
      </trkpt>
      <trkpt lat="38.224563" lon="-1.656311">
        <ele>485.579787</ele>
        <time>2021-11-01T18:54:07.000Z</time>
      </trkpt>
      <trkpt lat="38.224608" lon="-1.656309">
        <ele>485.434608</ele>
        <time>2021-11-01T18:54:15.000Z</time>
      </trkpt>
      <trkpt lat="38.224668" lon="-1.656390">
        <ele>485.152619</ele>
        <time>2021-11-01T18:54:23.000Z</time>
      </trkpt>
      <trkpt lat="38.224699" lon="-1.656490">
        <ele>484.880319</ele>
        <time>2021-11-01T18:54:30.000Z</time>
      </trkpt>
      <trkpt lat="38.224713" lon="-1.656662">
        <ele>484.442323</ele>
        <time>2021-11-01T18:54:38.000Z</time>
      </trkpt>
      <trkpt lat="38.224699" lon="-1.656906">
        <ele>483.948475</ele>
        <time>2021-11-01T18:54:46.000Z</time>
      </trkpt>
      <trkpt lat="38.224738" lon="-1.657162">
        <ele>483.425447</ele>
        <time>2021-11-01T18:54:53.000Z</time>
      </trkpt>
      <trkpt lat="38.224735" lon="-1.657638">
        <ele>482.470697</ele>
        <time>2021-11-01T18:55:01.000Z</time>
      </trkpt>
      <trkpt lat="38.224761" lon="-1.657772">
        <ele>482.193855</ele>
        <time>2021-11-01T18:55:09.000Z</time>
      </trkpt>
      <trkpt lat="38.224858" lon="-1.658024">
        <ele>481.631005</ele>
        <time>2021-11-01T18:55:16.000Z</time>
      </trkpt>
      <trkpt lat="38.224916" lon="-1.658392">
        <ele>480.878196</ele>
        <time>2021-11-01T18:55:24.000Z</time>
      </trkpt>
      <trkpt lat="38.225001" lon="-1.658592">
        <ele>480.422115</ele>
        <time>2021-11-01T18:55:32.000Z</time>
      </trkpt>
      <trkpt lat="38.225206" lon="-1.658862">
        <ele>479.650269</ele>
        <time>2021-11-01T18:55:39.000Z</time>
      </trkpt>
      <trkpt lat="38.225270" lon="-1.658986">
        <ele>479.319142</ele>
        <time>2021-11-01T18:55:47.000Z</time>
      </trkpt>
      <trkpt lat="38.225294" lon="-1.659131">
        <ele>478.988427</ele>
        <time>2021-11-01T18:55:55.000Z</time>
      </trkpt>
      <trkpt lat="38.225297" lon="-1.659358">
        <ele>478.481739</ele>
        <time>2021-11-01T18:56:02.000Z</time>
      </trkpt>
      <trkpt lat="38.225355" lon="-1.659577">
        <ele>477.965949</ele>
        <time>2021-11-01T18:56:10.000Z</time>
      </trkpt>
      <trkpt lat="38.225597" lon="-1.659907">
        <ele>476.958436</ele>
        <time>2021-11-01T18:56:18.000Z</time>
      </trkpt>
      <trkpt lat="38.225609" lon="-1.659964">
        <ele>476.826736</ele>
        <time>2021-11-01T18:56:26.000Z</time>
      </trkpt>
      <trkpt lat="38.225543" lon="-1.660202">
        <ele>476.263449</ele>
        <time>2021-11-01T18:56:33.000Z</time>
      </trkpt>
      <trkpt lat="38.225531" lon="-1.660419">
        <ele>475.777953</ele>
        <time>2021-11-01T18:56:41.000Z</time>
      </trkpt>
      <trkpt lat="38.225576" lon="-1.660710">
        <ele>475.116041</ele>
        <time>2021-11-01T18:56:49.000Z</time>
      </trkpt>
      <trkpt lat="38.225658" lon="-1.661052">
        <ele>474.026984</ele>
        <time>2021-11-01T18:56:56.000Z</time>
      </trkpt>
      <trkpt lat="38.225666" lon="-1.661424">
        <ele>472.602831</ele>
        <time>2021-11-01T18:57:04.000Z</time>
      </trkpt>
      <trkpt lat="38.225732" lon="-1.661627">
        <ele>471.762059</ele>
        <time>2021-11-01T18:57:12.000Z</time>
      </trkpt>
      <trkpt lat="38.225876" lon="-1.661855">
        <ele>470.642498</ele>
        <time>2021-11-01T18:57:20.000Z</time>
      </trkpt>
      <trkpt lat="38.225895" lon="-1.661926">
        <ele>470.355454</ele>
        <time>2021-11-01T18:57:27.000Z</time>
      </trkpt>
      <trkpt lat="38.225897" lon="-1.662146">
        <ele>469.513475</ele>
        <time>2021-11-01T18:57:35.000Z</time>
      </trkpt>
      <trkpt lat="38.225956" lon="-1.662318">
        <ele>468.795230</ele>
        <time>2021-11-01T18:57:43.000Z</time>
      </trkpt>
      <trkpt lat="38.225962" lon="-1.662377">
        <ele>468.567557</ele>
        <time>2021-11-01T18:57:51.000Z</time>
      </trkpt>
      <trkpt lat="38.225930" lon="-1.662495">
        <ele>468.089831</ele>
        <time>2021-11-01T18:57:59.000Z</time>
      </trkpt>
      <trkpt lat="38.225836" lon="-1.662675">
        <ele>467.262668</ele>
        <time>2021-11-01T18:58:06.000Z</time>
      </trkpt>
      <trkpt lat="38.225793" lon="-1.662825">
        <ele>466.651603</ele>
        <time>2021-11-01T18:58:14.000Z</time>
      </trkpt>
      <trkpt lat="38.225808" lon="-1.663076">
        <ele>465.665698</ele>
        <time>2021-11-01T18:58:22.000Z</time>
      </trkpt>
      <trkpt lat="38.225759" lon="-1.663630">
        <ele>463.356990</ele>
        <time>2021-11-01T18:58:30.000Z</time>
      </trkpt>
      <trkpt lat="38.225782" lon="-1.663824">
        <ele>462.544504</ele>
        <time>2021-11-01T18:58:37.000Z</time>
      </trkpt>
      <trkpt lat="38.225872" lon="-1.664214">
        <ele>460.861202</ele>
        <time>2021-11-01T18:58:45.000Z</time>
      </trkpt>
      <trkpt lat="38.225925" lon="-1.664711">
        <ele>458.784163</ele>
        <time>2021-11-01T18:58:53.000Z</time>
      </trkpt>
      <trkpt lat="38.225959" lon="-1.664787">
        <ele>458.421978</ele>
        <time>2021-11-01T18:59:01.000Z</time>
      </trkpt>
      <trkpt lat="38.226062" lon="-1.664890">
        <ele>457.731509</ele>
        <time>2021-11-01T18:59:09.000Z</time>
      </trkpt>
      <trkpt lat="38.226195" lon="-1.664939">
        <ele>457.001625</ele>
        <time>2021-11-01T18:59:17.000Z</time>
      </trkpt>
      <trkpt lat="38.226413" lon="-1.664956">
        <ele>455.603948</ele>
        <time>2021-11-01T18:59:24.000Z</time>
      </trkpt>
      <trkpt lat="38.226477" lon="-1.664976">
        <ele>455.121001</ele>
        <time>2021-11-01T18:59:32.000Z</time>
      </trkpt>
      <trkpt lat="38.226575" lon="-1.665052">
        <ele>454.280031</ele>
        <time>2021-11-01T18:59:40.000Z</time>
      </trkpt>
      <trkpt lat="38.226604" lon="-1.665111">
        <ele>453.879359</ele>
        <time>2021-11-01T18:59:48.000Z</time>
      </trkpt>
      <trkpt lat="38.226624" lon="-1.665324">
        <ele>452.644387</ele>
        <time>2021-11-01T18:59:56.000Z</time>
      </trkpt>
      <trkpt lat="38.226671" lon="-1.665466">
        <ele>451.757294</ele>
        <time>2021-11-01T19:00:04.000Z</time>
      </trkpt>
      <trkpt lat="38.226807" lon="-1.665773">
        <ele>449.728242</ele>
        <time>2021-11-01T19:00:11.000Z</time>
      </trkpt>
      <trkpt lat="38.226961" lon="-1.666019">
        <ele>447.917338</ele>
        <time>2021-11-01T19:00:19.000Z</time>
      </trkpt>
      <trkpt lat="38.226973" lon="-1.666078">
        <ele>447.566477</ele>
        <time>2021-11-01T19:00:27.000Z</time>
      </trkpt>
      <trkpt lat="38.226949" lon="-1.666261">
        <ele>446.498369</ele>
        <time>2021-11-01T19:00:35.000Z</time>
      </trkpt>
      <trkpt lat="38.226981" lon="-1.666439">
        <ele>445.447135</ele>
        <time>2021-11-01T19:00:43.000Z</time>
      </trkpt>
      <trkpt lat="38.226969" lon="-1.666495">
        <ele>445.112965</ele>
        <time>2021-11-01T19:00:51.000Z</time>
      </trkpt>
      <trkpt lat="38.226884" lon="-1.666660">
        <ele>443.977032</ele>
        <time>2021-11-01T19:00:59.000Z</time>
      </trkpt>
      <trkpt lat="38.226867" lon="-1.666732">
        <ele>443.544211</ele>
        <time>2021-11-01T19:01:07.000Z</time>
      </trkpt>
      <trkpt lat="38.226858" lon="-1.666891">
        <ele>442.597563</ele>
        <time>2021-11-01T19:01:14.000Z</time>
      </trkpt>
      <trkpt lat="38.226870" lon="-1.666972">
        <ele>442.102665</ele>
        <time>2021-11-01T19:01:22.000Z</time>
      </trkpt>
      <trkpt lat="38.227156" lon="-1.667913">
        <ele>436.044781</ele>
        <time>2021-11-01T19:01:30.000Z</time>
      </trkpt>
      <trkpt lat="38.227188" lon="-1.668121">
        <ele>434.772227</ele>
        <time>2021-11-01T19:01:38.000Z</time>
      </trkpt>
      <trkpt lat="38.227194" lon="-1.668382">
        <ele>433.204514</ele>
        <time>2021-11-01T19:01:46.000Z</time>
      </trkpt>
      <trkpt lat="38.227235" lon="-1.668455">
        <ele>432.665725</ele>
        <time>2021-11-01T19:01:54.000Z</time>
      </trkpt>
      <trkpt lat="38.227304" lon="-1.668487">
        <ele>432.104456</ele>
        <time>2021-11-01T19:02:02.000Z</time>
      </trkpt>
      <trkpt lat="38.227335" lon="-1.668521">
        <ele>431.791715</ele>
        <time>2021-11-01T19:02:10.000Z</time>
      </trkpt>
      <trkpt lat="38.227399" lon="-1.668731">
        <ele>430.439321</ele>
        <time>2021-11-01T19:02:18.000Z</time>
      </trkpt>
      <trkpt lat="38.227513" lon="-1.668872">
        <ele>429.157022</ele>
        <time>2021-11-01T19:02:26.000Z</time>
      </trkpt>
      <trkpt lat="38.227557" lon="-1.668979">
        <ele>428.283181</ele>
        <time>2021-11-01T19:02:34.000Z</time>
      </trkpt>
      <trkpt lat="38.227530" lon="-1.669086">
        <ele>427.470036</ele>
        <time>2021-11-01T19:02:41.000Z</time>
      </trkpt>
      <trkpt lat="38.227355" lon="-1.669230">
        <ele>425.550779</ele>
        <time>2021-11-01T19:02:49.000Z</time>
      </trkpt>
      <trkpt lat="38.227334" lon="-1.669278">
        <ele>425.153252</ele>
        <time>2021-11-01T19:02:57.000Z</time>
      </trkpt>
      <trkpt lat="38.227297" lon="-1.669511">
        <ele>423.433306</ele>
        <time>2021-11-01T19:03:05.000Z</time>
      </trkpt>
      <trkpt lat="38.227235" lon="-1.669621">
        <ele>422.453743</ele>
        <time>2021-11-01T19:03:13.000Z</time>
      </trkpt>
      <trkpt lat="38.227137" lon="-1.669725">
        <ele>421.278599</ele>
        <time>2021-11-01T19:03:21.000Z</time>
      </trkpt>
      <trkpt lat="38.226852" lon="-1.669864">
        <ele>418.467546</ele>
        <time>2021-11-01T19:03:29.000Z</time>
      </trkpt>
      <trkpt lat="38.226821" lon="-1.670036">
        <ele>417.190716</ele>
        <time>2021-11-01T19:03:37.000Z</time>
      </trkpt>
      <trkpt lat="38.226829" lon="-1.670180">
        <ele>416.146210</ele>
        <time>2021-11-01T19:03:45.000Z</time>
      </trkpt>
      <trkpt lat="38.226886" lon="-1.670431">
        <ele>414.255754</ele>
        <time>2021-11-01T19:03:53.000Z</time>
      </trkpt>
      <trkpt lat="38.226943" lon="-1.670569">
        <ele>413.127657</ele>
        <time>2021-11-01T19:04:01.000Z</time>
      </trkpt>
      <trkpt lat="38.226981" lon="-1.670606">
        <ele>412.759717</ele>
        <time>2021-11-01T19:04:09.000Z</time>
      </trkpt>
      <trkpt lat="38.227023" lon="-1.670626">
        <ele>412.446764</ele>
        <time>2021-11-01T19:04:17.000Z</time>
      </trkpt>
      <trkpt lat="38.227069" lon="-1.670618">
        <ele>412.122751</ele>
        <time>2021-11-01T19:04:25.000Z</time>
      </trkpt>
      <trkpt lat="38.227242" lon="-1.670485">
        <ele>410.712297</ele>
        <time>2021-11-01T19:04:33.000Z</time>
      </trkpt>
      <trkpt lat="38.227330" lon="-1.670491">
        <ele>410.097270</ele>
        <time>2021-11-01T19:04:41.000Z</time>
      </trkpt>
      <trkpt lat="38.227358" lon="-1.670560">
        <ele>409.671495</ele>
        <time>2021-11-01T19:04:49.000Z</time>
      </trkpt>
      <trkpt lat="38.227314" lon="-1.670830">
        <ele>408.159736</ele>
        <time>2021-11-01T19:04:57.000Z</time>
      </trkpt>
      <trkpt lat="38.227223" lon="-1.671165">
        <ele>406.216432</ele>
        <time>2021-11-01T19:05:05.000Z</time>
      </trkpt>
      <trkpt lat="38.227208" lon="-1.671317">
        <ele>405.376559</ele>
        <time>2021-11-01T19:05:13.000Z</time>
      </trkpt>
      <trkpt lat="38.227226" lon="-1.671381">
        <ele>405.003876</ele>
        <time>2021-11-01T19:05:21.000Z</time>
      </trkpt>
      <trkpt lat="38.227342" lon="-1.671549">
        <ele>403.777622</ele>
        <time>2021-11-01T19:05:29.000Z</time>
      </trkpt>
      <trkpt lat="38.227446" lon="-1.671759">
        <ele>402.416633</ele>
        <time>2021-11-01T19:05:37.000Z</time>
      </trkpt>
      <trkpt lat="38.227505" lon="-1.671919">
        <ele>401.447619</ele>
        <time>2021-11-01T19:05:45.000Z</time>
      </trkpt>
      <trkpt lat="38.227515" lon="-1.672005">
        <ele>400.970998</ele>
        <time>2021-11-01T19:05:53.000Z</time>
      </trkpt>
      <trkpt lat="38.227503" lon="-1.672201">
        <ele>399.744103</ele>
        <time>2021-11-01T19:06:01.000Z</time>
      </trkpt>
      <trkpt lat="38.227465" lon="-1.672378">
        <ele>398.461054</ele>
        <time>2021-11-01T19:06:09.000Z</time>
      </trkpt>
      <trkpt lat="38.227343" lon="-1.672602">
        <ele>396.555117</ele>
        <time>2021-11-01T19:06:17.000Z</time>
      </trkpt>
      <trkpt lat="38.227318" lon="-1.672683">
        <ele>395.946581</ele>
        <time>2021-11-01T19:06:25.000Z</time>
      </trkpt>
      <trkpt lat="38.227310" lon="-1.672846">
        <ele>394.804590</ele>
        <time>2021-11-01T19:06:33.000Z</time>
      </trkpt>
      <trkpt lat="38.227323" lon="-1.672914">
        <ele>394.315225</ele>
        <time>2021-11-01T19:06:41.000Z</time>
      </trkpt>
      <trkpt lat="38.227381" lon="-1.672994">
        <ele>393.554004</ele>
        <time>2021-11-01T19:06:49.000Z</time>
      </trkpt>
      <trkpt lat="38.227420" lon="-1.672994">
        <ele>393.206857</ele>
        <time>2021-11-01T19:06:57.000Z</time>
      </trkpt>
      <trkpt lat="38.227737" lon="-1.672874">
        <ele>390.263056</ele>
        <time>2021-11-01T19:07:05.000Z</time>
      </trkpt>
      <trkpt lat="38.227852" lon="-1.672872">
        <ele>389.239321</ele>
        <time>2021-11-01T19:07:13.000Z</time>
      </trkpt>
      <trkpt lat="38.227902" lon="-1.672891">
        <ele>388.774855</ele>
        <time>2021-11-01T19:07:21.000Z</time>
      </trkpt>
      <trkpt lat="38.227959" lon="-1.672984">
        <ele>387.950050</ele>
        <time>2021-11-01T19:07:29.000Z</time>
      </trkpt>
      <trkpt lat="38.228010" lon="-1.673274">
        <ele>385.872065</ele>
        <time>2021-11-01T19:07:37.000Z</time>
      </trkpt>
      <trkpt lat="38.228081" lon="-1.673497">
        <ele>384.196174</ele>
        <time>2021-11-01T19:07:45.000Z</time>
      </trkpt>
      <trkpt lat="38.228088" lon="-1.673642">
        <ele>383.208976</ele>
        <time>2021-11-01T19:07:53.000Z</time>
      </trkpt>
      <trkpt lat="38.228034" lon="-1.673794">
        <ele>382.075350</ele>
        <time>2021-11-01T19:08:02.000Z</time>
      </trkpt>
      <trkpt lat="38.227909" lon="-1.674020">
        <ele>380.197097</ele>
        <time>2021-11-01T19:08:10.000Z</time>
      </trkpt>
      <trkpt lat="38.227853" lon="-1.674091">
        <ele>379.513389</ele>
        <time>2021-11-01T19:08:18.000Z</time>
      </trkpt>
      <trkpt lat="38.227590" lon="-1.674326">
        <ele>376.733782</ele>
        <time>2021-11-01T19:08:26.000Z</time>
      </trkpt>
      <trkpt lat="38.227504" lon="-1.674506">
        <ele>375.302124</ele>
        <time>2021-11-01T19:08:34.000Z</time>
      </trkpt>
      <trkpt lat="38.227372" lon="-1.674931">
        <ele>372.196497</ele>
        <time>2021-11-01T19:08:42.000Z</time>
      </trkpt>
      <trkpt lat="38.227322" lon="-1.675157">
        <ele>370.600967</ele>
        <time>2021-11-01T19:08:50.000Z</time>
      </trkpt>
      <trkpt lat="38.227221" lon="-1.676027">
        <ele>366.461284</ele>
        <time>2021-11-01T19:08:58.000Z</time>
      </trkpt>
      <trkpt lat="38.227215" lon="-1.676379">
        <ele>365.104954</ele>
        <time>2021-11-01T19:09:06.000Z</time>
      </trkpt>
      <trkpt lat="38.227492" lon="-1.677264">
        <ele>361.435022</ele>
        <time>2021-11-01T19:09:14.000Z</time>
      </trkpt>
      <trkpt lat="38.227609" lon="-1.678166">
        <ele>356.562767</ele>
        <time>2021-11-01T19:09:23.000Z</time>
      </trkpt>
      <trkpt lat="38.227986" lon="-1.679197">
        <ele>349.406501</ele>
        <time>2021-11-01T19:09:31.000Z</time>
      </trkpt>
      <trkpt lat="38.228071" lon="-1.679385">
        <ele>348.041515</ele>
        <time>2021-11-01T19:09:39.000Z</time>
      </trkpt>
      <trkpt lat="38.228155" lon="-1.679503">
        <ele>347.039445</ele>
        <time>2021-11-01T19:09:47.000Z</time>
      </trkpt>
      <trkpt lat="38.228235" lon="-1.679529">
        <ele>346.378045</ele>
        <time>2021-11-01T19:09:55.000Z</time>
      </trkpt>
      <trkpt lat="38.228454" lon="-1.679328">
        <ele>343.468251</ele>
        <time>2021-11-01T19:10:04.000Z</time>
      </trkpt>
      <trkpt lat="38.228504" lon="-1.679314">
        <ele>342.842611</ele>
        <time>2021-11-01T19:10:12.000Z</time>
      </trkpt>
      <trkpt lat="38.228554" lon="-1.679321">
        <ele>342.227893</ele>
        <time>2021-11-01T19:10:20.000Z</time>
      </trkpt>
      <trkpt lat="38.228599" lon="-1.679350">
        <ele>341.611509</ele>
        <time>2021-11-01T19:10:28.000Z</time>
      </trkpt>
      <trkpt lat="38.228789" lon="-1.679540">
        <ele>338.658837</ele>
        <time>2021-11-01T19:10:36.000Z</time>
      </trkpt>
      <trkpt lat="38.228952" lon="-1.679728">
        <ele>335.970867</ele>
        <time>2021-11-01T19:10:45.000Z</time>
      </trkpt>
      <trkpt lat="38.229073" lon="-1.679940">
        <ele>333.455218</ele>
        <time>2021-11-01T19:10:53.000Z</time>
      </trkpt>
      <trkpt lat="38.229227" lon="-1.680473">
        <ele>328.003362</ele>
        <time>2021-11-01T19:11:01.000Z</time>
      </trkpt>
      <trkpt lat="38.229391" lon="-1.680855">
        <ele>323.824285</ele>
        <time>2021-11-01T19:11:09.000Z</time>
      </trkpt>
      <trkpt lat="38.229451" lon="-1.681078">
        <ele>322.481769</ele>
        <time>2021-11-01T19:11:18.000Z</time>
      </trkpt>
      <trkpt lat="38.229609" lon="-1.681896">
        <ele>317.948220</ele>
        <time>2021-11-01T19:11:26.000Z</time>
      </trkpt>
      <trkpt lat="38.229643" lon="-1.682252">
        <ele>316.018149</ele>
        <time>2021-11-01T19:11:34.000Z</time>
      </trkpt>
      <trkpt lat="38.229671" lon="-1.682971">
        <ele>312.143799</ele>
        <time>2021-11-01T19:11:42.000Z</time>
      </trkpt>
      <trkpt lat="38.229714" lon="-1.683199">
        <ele>310.758980</ele>
        <time>2021-11-01T19:11:51.000Z</time>
      </trkpt>
      <trkpt lat="38.229857" lon="-1.683620">
        <ele>307.618319</ele>
        <time>2021-11-01T19:11:59.000Z</time>
      </trkpt>
      <trkpt lat="38.229961" lon="-1.683855">
        <ele>305.771416</ele>
        <time>2021-11-01T19:12:07.000Z</time>
      </trkpt>
      <trkpt lat="38.229999" lon="-1.683892">
        <ele>305.354400</ele>
        <time>2021-11-01T19:12:16.000Z</time>
      </trkpt>
      <trkpt lat="38.230131" lon="-1.683935">
        <ele>304.166719</ele>
        <time>2021-11-01T19:12:24.000Z</time>
      </trkpt>
      <trkpt lat="38.230192" lon="-1.684017">
        <ele>303.393427</ele>
        <time>2021-11-01T19:12:32.000Z</time>
      </trkpt>
      <trkpt lat="38.230208" lon="-1.684082">
        <ele>302.927015</ele>
        <time>2021-11-01T19:12:41.000Z</time>
      </trkpt>
      <trkpt lat="38.230217" lon="-1.684230">
        <ele>301.910590</ele>
        <time>2021-11-01T19:12:49.000Z</time>
      </trkpt>
      <trkpt lat="38.230197" lon="-1.684614">
        <ele>299.275473</ele>
        <time>2021-11-01T19:12:57.000Z</time>
      </trkpt>
      <trkpt lat="38.230208" lon="-1.684835">
        <ele>297.759195</ele>
        <time>2021-11-01T19:13:06.000Z</time>
      </trkpt>
      <trkpt lat="38.230333" lon="-1.685240">
        <ele>295.785269</ele>
        <time>2021-11-01T19:13:14.000Z</time>
      </trkpt>
      <trkpt lat="38.230387" lon="-1.685506">
        <ele>296.065595</ele>
        <time>2021-11-01T19:13:22.000Z</time>
      </trkpt>
      <trkpt lat="38.230389" lon="-1.685668">
        <ele>296.230910</ele>
        <time>2021-11-01T19:13:31.000Z</time>
      </trkpt>
      <trkpt lat="38.230354" lon="-1.685918">
        <ele>296.490013</ele>
        <time>2021-11-01T19:13:39.000Z</time>
      </trkpt>
      <trkpt lat="38.230390" lon="-1.686015">
        <ele>296.599476</ele>
        <time>2021-11-01T19:13:47.000Z</time>
      </trkpt>
      <trkpt lat="38.230465" lon="-1.686126">
        <ele>296.748867</ele>
        <time>2021-11-01T19:13:56.000Z</time>
      </trkpt>
      <trkpt lat="38.230452" lon="-1.686205">
        <ele>296.831223</ele>
        <time>2021-11-01T19:14:04.000Z</time>
      </trkpt>
      <trkpt lat="38.230365" lon="-1.686315">
        <ele>296.990494</ele>
        <time>2021-11-01T19:14:12.000Z</time>
      </trkpt>
      <trkpt lat="38.230317" lon="-1.686412">
        <ele>297.107468</ele>
        <time>2021-11-01T19:14:21.000Z</time>
      </trkpt>
      <trkpt lat="38.230305" lon="-1.686562">
        <ele>297.261310</ele>
        <time>2021-11-01T19:14:29.000Z</time>
      </trkpt>
      <trkpt lat="38.230344" lon="-1.686611">
        <ele>297.332484</ele>
        <time>2021-11-01T19:14:38.000Z</time>
      </trkpt>
      <trkpt lat="38.230449" lon="-1.686646">
        <ele>297.473468</ele>
        <time>2021-11-01T19:14:46.000Z</time>
      </trkpt>
      <trkpt lat="38.230499" lon="-1.686686">
        <ele>297.550173</ele>
        <time>2021-11-01T19:14:54.000Z</time>
      </trkpt>
      <trkpt lat="38.230515" lon="-1.686758">
        <ele>297.626521</ele>
        <time>2021-11-01T19:15:03.000Z</time>
      </trkpt>
      <trkpt lat="38.230610" lon="-1.686976">
        <ele>297.880888</ele>
        <time>2021-11-01T19:15:11.000Z</time>
      </trkpt>
      <trkpt lat="38.230702" lon="-1.687261">
        <ele>298.816823</ele>
        <time>2021-11-01T19:15:19.000Z</time>
      </trkpt>
      <trkpt lat="38.230739" lon="-1.687723">
        <ele>300.733349</ele>
        <time>2021-11-01T19:15:28.000Z</time>
      </trkpt>
      <trkpt lat="38.230768" lon="-1.687886">
        <ele>301.423077</ele>
        <time>2021-11-01T19:15:36.000Z</time>
      </trkpt>
      <trkpt lat="38.230775" lon="-1.688061">
        <ele>302.146225</ele>
        <time>2021-11-01T19:15:45.000Z</time>
      </trkpt>
      <trkpt lat="38.230743" lon="-1.688712">
        <ele>304.838112</ele>
        <time>2021-11-01T19:15:53.000Z</time>
      </trkpt>
      <trkpt lat="38.230661" lon="-1.689086">
        <ele>306.440580</ele>
        <time>2021-11-01T19:16:02.000Z</time>
      </trkpt>
      <trkpt lat="38.230604" lon="-1.689279">
        <ele>307.291514</ele>
        <time>2021-11-01T19:16:10.000Z</time>
      </trkpt>
      <trkpt lat="38.230485" lon="-1.689561">
        <ele>308.952101</ele>
        <time>2021-11-01T19:16:18.000Z</time>
      </trkpt>
      <trkpt lat="38.230450" lon="-1.689727">
        <ele>309.866910</ele>
        <time>2021-11-01T19:16:27.000Z</time>
      </trkpt>
      <trkpt lat="38.230450" lon="-1.689889">
        <ele>310.729156</ele>
        <time>2021-11-01T19:16:35.000Z</time>
      </trkpt>
      <trkpt lat="38.230473" lon="-1.689975">
        <ele>311.212693</ele>
        <time>2021-11-01T19:16:44.000Z</time>
      </trkpt>
      <trkpt lat="38.230535" lon="-1.690097">
        <ele>311.986080</ele>
        <time>2021-11-01T19:16:52.000Z</time>
      </trkpt>
      <trkpt lat="38.230550" lon="-1.690184">
        <ele>312.460160</ele>
        <time>2021-11-01T19:17:01.000Z</time>
      </trkpt>
      <trkpt lat="38.230367" lon="-1.690818">
        <ele>316.055229</ele>
        <time>2021-11-01T19:17:09.000Z</time>
      </trkpt>
      <trkpt lat="38.230350" lon="-1.691000">
        <ele>317.030751</ele>
        <time>2021-11-01T19:17:18.000Z</time>
      </trkpt>
      <trkpt lat="38.230376" lon="-1.691402">
        <ele>319.177641</ele>
        <time>2021-11-01T19:17:26.000Z</time>
      </trkpt>
      <trkpt lat="38.230343" lon="-1.691545">
        <ele>319.878186</ele>
        <time>2021-11-01T19:17:35.000Z</time>
      </trkpt>
      <trkpt lat="38.230305" lon="-1.691600">
        <ele>320.162679</ele>
        <time>2021-11-01T19:17:43.000Z</time>
      </trkpt>
      <trkpt lat="38.230225" lon="-1.691656">
        <ele>320.614091</ele>
        <time>2021-11-01T19:17:51.000Z</time>
      </trkpt>
      <trkpt lat="38.229619" lon="-1.691950">
        <ele>323.820644</ele>
        <time>2021-11-01T19:18:00.000Z</time>
      </trkpt>
      <trkpt lat="38.229390" lon="-1.692098">
        <ele>325.090485</ele>
        <time>2021-11-01T19:18:08.000Z</time>
      </trkpt>
      <trkpt lat="38.229272" lon="-1.692213">
        <ele>325.825278</ele>
        <time>2021-11-01T19:18:17.000Z</time>
      </trkpt>
      <trkpt lat="38.229211" lon="-1.692374">
        <ele>326.519550</ele>
        <time>2021-11-01T19:18:26.000Z</time>
      </trkpt>
      <trkpt lat="38.229158" lon="-1.692640">
        <ele>327.585429</ele>
        <time>2021-11-01T19:18:34.000Z</time>
      </trkpt>
      <trkpt lat="38.229204" lon="-1.693757">
        <ele>331.858470</ele>
        <time>2021-11-01T19:18:43.000Z</time>
      </trkpt>
      <trkpt lat="38.229194" lon="-1.693898">
        <ele>332.396830</ele>
        <time>2021-11-01T19:18:51.000Z</time>
      </trkpt>
      <trkpt lat="38.229168" lon="-1.693966">
        <ele>332.684417</ele>
        <time>2021-11-01T19:19:00.000Z</time>
      </trkpt>
      <trkpt lat="38.229067" lon="-1.694014">
        <ele>333.206303</ele>
        <time>2021-11-01T19:19:08.000Z</time>
      </trkpt>
      <trkpt lat="38.228991" lon="-1.694022">
        <ele>333.575463</ele>
        <time>2021-11-01T19:19:17.000Z</time>
      </trkpt>
      <trkpt lat="38.228373" lon="-1.693999">
        <ele>336.568385</ele>
        <time>2021-11-01T19:19:25.000Z</time>
      </trkpt>
      <trkpt lat="38.228007" lon="-1.694013">
        <ele>337.684809</ele>
        <time>2021-11-01T19:19:34.000Z</time>
      </trkpt>
      <trkpt lat="38.227927" lon="-1.694046">
        <ele>337.851892</ele>
        <time>2021-11-01T19:19:42.000Z</time>
      </trkpt>
      <trkpt lat="38.227894" lon="-1.694107">
        <ele>337.967491</ele>
        <time>2021-11-01T19:19:51.000Z</time>
      </trkpt>
      <trkpt lat="38.227637" lon="-1.696724">
        <ele>342.363326</ele>
        <time>2021-11-01T19:20:00.000Z</time>
      </trkpt>
      <trkpt lat="38.227594" lon="-1.697271">
        <ele>343.408378</ele>
        <time>2021-11-01T19:20:08.000Z</time>
      </trkpt>
      <trkpt lat="38.227580" lon="-1.697778">
        <ele>344.372792</ele>
        <time>2021-11-01T19:20:17.000Z</time>
      </trkpt>
      <trkpt lat="38.227605" lon="-1.697878">
        <ele>344.572289</ele>
        <time>2021-11-01T19:20:26.000Z</time>
      </trkpt>
      <trkpt lat="38.227816" lon="-1.698333">
        <ele>345.657601</ele>
        <time>2021-11-01T19:20:34.000Z</time>
      </trkpt>
      <trkpt lat="38.227963" lon="-1.698696">
        <ele>346.582608</ele>
        <time>2021-11-01T19:20:43.000Z</time>
      </trkpt>
      <trkpt lat="38.228202" lon="-1.699163">
        <ele>347.845021</ele>
        <time>2021-11-01T19:20:52.000Z</time>
      </trkpt>
      <trkpt lat="38.228568" lon="-1.699964">
        <ele>349.943850</ele>
        <time>2021-11-01T19:21:00.000Z</time>
      </trkpt>
      <trkpt lat="38.228597" lon="-1.700058">
        <ele>350.172587</ele>
        <time>2021-11-01T19:21:09.000Z</time>
      </trkpt>
      <trkpt lat="38.228607" lon="-1.700216">
        <ele>350.611784</ele>
        <time>2021-11-01T19:21:18.000Z</time>
      </trkpt>
      <trkpt lat="38.228501" lon="-1.700613">
        <ele>351.959477</ele>
        <time>2021-11-01T19:21:27.000Z</time>
      </trkpt>
      <trkpt lat="38.228494" lon="-1.700783">
        <ele>352.506626</ele>
        <time>2021-11-01T19:21:35.000Z</time>
      </trkpt>
      <trkpt lat="38.228596" lon="-1.701125">
        <ele>353.682409</ele>
        <time>2021-11-01T19:21:44.000Z</time>
      </trkpt>
      <trkpt lat="38.228692" lon="-1.701328">
        <ele>354.443980</ele>
        <time>2021-11-01T19:21:53.000Z</time>
      </trkpt>
      <trkpt lat="38.228797" lon="-1.701472">
        <ele>355.075469</ele>
        <time>2021-11-01T19:22:01.000Z</time>
      </trkpt>
      <trkpt lat="38.228988" lon="-1.701659">
        <ele>356.061351</ele>
        <time>2021-11-01T19:22:10.000Z</time>
      </trkpt>
      <trkpt lat="38.228984" lon="-1.701680">
        <ele>356.130802</ele>
        <time>2021-11-01T19:22:19.000Z</time>
      </trkpt>
      <trkpt lat="38.228999" lon="-1.701666">
        <ele>356.206904</ele>
        <time>2021-11-01T19:22:28.000Z</time>
      </trkpt>
      <trkpt lat="38.229064" lon="-1.701728">
        <ele>356.539228</ele>
        <time>2021-11-01T19:22:36.000Z</time>
      </trkpt>
      <trkpt lat="38.229159" lon="-1.701773">
        <ele>356.953962</ele>
        <time>2021-11-01T19:22:45.000Z</time>
      </trkpt>
      <trkpt lat="38.229165" lon="-1.701792">
        <ele>357.019779</ele>
        <time>2021-11-01T19:22:54.000Z</time>
      </trkpt>
      <trkpt lat="38.229247" lon="-1.701727">
        <ele>357.415014</ele>
        <time>2021-11-01T19:23:03.000Z</time>
      </trkpt>
      <trkpt lat="38.229316" lon="-1.701741">
        <ele>357.700180</ele>
        <time>2021-11-01T19:23:11.000Z</time>
      </trkpt>
      <trkpt lat="38.229503" lon="-1.701927">
        <ele>358.166431</ele>
        <time>2021-11-01T19:23:20.000Z</time>
      </trkpt>
      <trkpt lat="38.229790" lon="-1.702151">
        <ele>358.827844</ele>
        <time>2021-11-01T19:23:29.000Z</time>
      </trkpt>
      <trkpt lat="38.229939" lon="-1.702225">
        <ele>359.142076</ele>
        <time>2021-11-01T19:23:38.000Z</time>
      </trkpt>
      <trkpt lat="38.229987" lon="-1.702276">
        <ele>359.264913</ele>
        <time>2021-11-01T19:23:47.000Z</time>
      </trkpt>
      <trkpt lat="38.230077" lon="-1.702312">
        <ele>359.450261</ele>
        <time>2021-11-01T19:23:55.000Z</time>
      </trkpt>
      <trkpt lat="38.230140" lon="-1.702376">
        <ele>359.608618</ele>
        <time>2021-11-01T19:24:04.000Z</time>
      </trkpt>
      <trkpt lat="38.230206" lon="-1.702413">
        <ele>359.750306</ele>
        <time>2021-11-01T19:24:13.000Z</time>
      </trkpt>
      <trkpt lat="38.230291" lon="-1.702437">
        <ele>359.921365</ele>
        <time>2021-11-01T19:24:22.000Z</time>
      </trkpt>
      <trkpt lat="38.230465" lon="-1.702433">
        <ele>360.263280</ele>
        <time>2021-11-01T19:24:30.000Z</time>
      </trkpt>
      <trkpt lat="38.230808" lon="-1.702311">
        <ele>360.962986</ele>
        <time>2021-11-01T19:24:39.000Z</time>
      </trkpt>
      <trkpt lat="38.231006" lon="-1.702275">
        <ele>361.304480</ele>
        <time>2021-11-01T19:24:48.000Z</time>
      </trkpt>
      <trkpt lat="38.231030" lon="-1.702252">
        <ele>361.338726</ele>
        <time>2021-11-01T19:24:57.000Z</time>
      </trkpt>
      <trkpt lat="38.231060" lon="-1.702252">
        <ele>361.372927</ele>
        <time>2021-11-01T19:25:06.000Z</time>
      </trkpt>
      <trkpt lat="38.231106" lon="-1.702187">
        <ele>361.451273</ele>
        <time>2021-11-01T19:25:14.000Z</time>
      </trkpt>
      <trkpt lat="38.231143" lon="-1.702203">
        <ele>361.495821</ele>
        <time>2021-11-01T19:25:23.000Z</time>
      </trkpt>
      <trkpt lat="38.231208" lon="-1.702346">
        <ele>361.643772</ele>
        <time>2021-11-01T19:25:32.000Z</time>
      </trkpt>
      <trkpt lat="38.231383" lon="-1.702639">
        <ele>361.973386</ele>
        <time>2021-11-01T19:25:41.000Z</time>
      </trkpt>
      <trkpt lat="38.231463" lon="-1.702846">
        <ele>362.179975</ele>
        <time>2021-11-01T19:25:50.000Z</time>
      </trkpt>
      <trkpt lat="38.231591" lon="-1.703046">
        <ele>362.410994</ele>
        <time>2021-11-01T19:25:59.000Z</time>
      </trkpt>
      <trkpt lat="38.231732" lon="-1.703317">
        <ele>362.702080</ele>
        <time>2021-11-01T19:26:07.000Z</time>
      </trkpt>
      <trkpt lat="38.232094" lon="-1.703879">
        <ele>363.351985</ele>
        <time>2021-11-01T19:26:16.000Z</time>
      </trkpt>
      <trkpt lat="38.232462" lon="-1.704412">
        <ele>363.978889</ele>
        <time>2021-11-01T19:26:25.000Z</time>
      </trkpt>
      <trkpt lat="38.232689" lon="-1.704797">
        <ele>364.404163</ele>
        <time>2021-11-01T19:26:34.000Z</time>
      </trkpt>
      <trkpt lat="38.233011" lon="-1.705464">
        <ele>365.095793</ele>
        <time>2021-11-01T19:26:43.000Z</time>
      </trkpt>
      <trkpt lat="38.233076" lon="-1.705631">
        <ele>365.260442</ele>
        <time>2021-11-01T19:26:52.000Z</time>
      </trkpt>
      <trkpt lat="38.233399" lon="-1.706249">
        <ele>367.257562</ele>
        <time>2021-11-01T19:27:01.000Z</time>
      </trkpt>
      <trkpt lat="38.233523" lon="-1.706454">
        <ele>367.989140</ele>
        <time>2021-11-01T19:27:10.000Z</time>
      </trkpt>
      <trkpt lat="38.233536" lon="-1.706450">
        <ele>368.037282</ele>
        <time>2021-11-01T19:27:18.000Z</time>
      </trkpt>
      <trkpt lat="38.233513" lon="-1.706452">
        <ele>368.120266</ele>
        <time>2021-11-01T19:27:27.000Z</time>
      </trkpt>
      <trkpt lat="38.233524" lon="-1.706455">
        <ele>368.160760</ele>
        <time>2021-11-01T19:27:36.000Z</time>
      </trkpt>
      <trkpt lat="38.233510" lon="-1.706437">
        <ele>368.232383</ele>
        <time>2021-11-01T19:27:45.000Z</time>
      </trkpt>
      <trkpt lat="38.233530" lon="-1.706478">
        <ele>368.368846</ele>
        <time>2021-11-01T19:27:54.000Z</time>
      </trkpt>
      <trkpt lat="38.233527" lon="-1.706453">
        <ele>368.440353</ele>
        <time>2021-11-01T19:28:03.000Z</time>
      </trkpt>
      <trkpt lat="38.233496" lon="-1.706457">
        <ele>368.552513</ele>
        <time>2021-11-01T19:28:12.000Z</time>
      </trkpt>
      <trkpt lat="38.233488" lon="-1.706470">
        <ele>368.599207</ele>
        <time>2021-11-01T19:28:21.000Z</time>
      </trkpt>
      <trkpt lat="38.233499" lon="-1.706478">
        <ele>368.644808</ele>
        <time>2021-11-01T19:28:30.000Z</time>
      </trkpt>
      <trkpt lat="38.233472" lon="-1.706497">
        <ele>368.755857</ele>
        <time>2021-11-01T19:28:39.000Z</time>
      </trkpt>
      <trkpt lat="38.233526" lon="-1.706469">
        <ele>368.965741</ele>
        <time>2021-11-01T19:28:48.000Z</time>
      </trkpt>
      <trkpt lat="38.233502" lon="-1.706490">
        <ele>369.070569</ele>
        <time>2021-11-01T19:28:57.000Z</time>
      </trkpt>
      <trkpt lat="38.233525" lon="-1.706469">
        <ele>369.172452</ele>
        <time>2021-11-01T19:29:05.000Z</time>
      </trkpt>
      <trkpt lat="38.233505" lon="-1.706473">
        <ele>369.245327</ele>
        <time>2021-11-01T19:29:14.000Z</time>
      </trkpt>
      <trkpt lat="38.233484" lon="-1.706443">
        <ele>369.358946</ele>
        <time>2021-11-01T19:29:23.000Z</time>
      </trkpt>
      <trkpt lat="38.233511" lon="-1.706465">
        <ele>369.474338</ele>
        <time>2021-11-01T19:29:32.000Z</time>
      </trkpt>
      <trkpt lat="38.233707" lon="-1.706975">
        <ele>371.079694</ele>
        <time>2021-11-01T19:29:41.000Z</time>
      </trkpt>
      <trkpt lat="38.233747" lon="-1.707216">
        <ele>371.776161</ele>
        <time>2021-11-01T19:29:50.000Z</time>
      </trkpt>
      <trkpt lat="38.233757" lon="-1.707486">
        <ele>372.058266</ele>
        <time>2021-11-01T19:29:59.000Z</time>
      </trkpt>
      <trkpt lat="38.233793" lon="-1.707720">
        <ele>372.304359</ele>
        <time>2021-11-01T19:30:08.000Z</time>
      </trkpt>
      <trkpt lat="38.234032" lon="-1.708448">
        <ele>373.118690</ele>
        <time>2021-11-01T19:30:17.000Z</time>
      </trkpt>
      <trkpt lat="38.234107" lon="-1.708843">
        <ele>373.538098</ele>
        <time>2021-11-01T19:30:26.000Z</time>
      </trkpt>
      <trkpt lat="38.234221" lon="-1.709316">
        <ele>374.048729</ele>
        <time>2021-11-01T19:30:35.000Z</time>
      </trkpt>
      <trkpt lat="38.234267" lon="-1.709445">
        <ele>374.218191</ele>
        <time>2021-11-01T19:30:44.000Z</time>
      </trkpt>
      <trkpt lat="38.234366" lon="-1.709632">
        <ele>374.557919</ele>
        <time>2021-11-01T19:30:53.000Z</time>
      </trkpt>
      <trkpt lat="38.234461" lon="-1.709857">
        <ele>374.942748</ele>
        <time>2021-11-01T19:31:02.000Z</time>
      </trkpt>
      <trkpt lat="38.234551" lon="-1.710216">
        <ele>375.510457</ele>
        <time>2021-11-01T19:31:11.000Z</time>
      </trkpt>
      <trkpt lat="38.234678" lon="-1.710488">
        <ele>375.987151</ele>
        <time>2021-11-01T19:31:20.000Z</time>
      </trkpt>
      <trkpt lat="38.234745" lon="-1.710770">
        <ele>376.430990</ele>
        <time>2021-11-01T19:31:29.000Z</time>
      </trkpt>
      <trkpt lat="38.234765" lon="-1.711196">
        <ele>377.073900</ele>
        <time>2021-11-01T19:31:38.000Z</time>
      </trkpt>
      <trkpt lat="38.234729" lon="-1.711633">
        <ele>377.710472</ele>
        <time>2021-11-01T19:31:47.000Z</time>
      </trkpt>
      <trkpt lat="38.234677" lon="-1.711820">
        <ele>377.955849</ele>
        <time>2021-11-01T19:31:56.000Z</time>
      </trkpt>
      <trkpt lat="38.234512" lon="-1.712164">
        <ele>378.454423</ele>
        <time>2021-11-01T19:32:05.000Z</time>
      </trkpt>
      <trkpt lat="38.234501" lon="-1.712241">
        <ele>378.551230</ele>
        <time>2021-11-01T19:32:14.000Z</time>
      </trkpt>
      <trkpt lat="38.234514" lon="-1.712346">
        <ele>378.682714</ele>
        <time>2021-11-01T19:32:23.000Z</time>
      </trkpt>
      <trkpt lat="38.234614" lon="-1.712583">
        <ele>379.015492</ele>
        <time>2021-11-01T19:32:32.000Z</time>
      </trkpt>
      <trkpt lat="38.234808" lon="-1.712972">
        <ele>379.585458</ele>
        <time>2021-11-01T19:32:41.000Z</time>
      </trkpt>
      <trkpt lat="38.235164" lon="-1.714029">
        <ele>380.754627</ele>
        <time>2021-11-01T19:32:50.000Z</time>
      </trkpt>
      <trkpt lat="38.235542" lon="-1.714919">
        <ele>381.460813</ele>
        <time>2021-11-01T19:32:59.000Z</time>
      </trkpt>
      <trkpt lat="38.235696" lon="-1.715201">
        <ele>381.700535</ele>
        <time>2021-11-01T19:33:09.000Z</time>
      </trkpt>
      <trkpt lat="38.235770" lon="-1.715264">
        <ele>381.779639</ele>
        <time>2021-11-01T19:33:18.000Z</time>
      </trkpt>
      <trkpt lat="38.236193" lon="-1.715326">
        <ele>382.266131</ele>
        <time>2021-11-01T19:33:27.000Z</time>
      </trkpt>
      <trkpt lat="38.236425" lon="-1.715396">
        <ele>382.649900</ele>
        <time>2021-11-01T19:33:36.000Z</time>
      </trkpt>
      <trkpt lat="38.236535" lon="-1.715499">
        <ele>382.869686</ele>
        <time>2021-11-01T19:33:45.000Z</time>
      </trkpt>
      <trkpt lat="38.236748" lon="-1.715773">
        <ele>383.357069</ele>
        <time>2021-11-01T19:33:54.000Z</time>
      </trkpt>
      <trkpt lat="38.236817" lon="-1.715910">
        <ele>383.562823</ele>
        <time>2021-11-01T19:34:03.000Z</time>
      </trkpt>
      <trkpt lat="38.236907" lon="-1.716349">
        <ele>384.136431</ele>
        <time>2021-11-01T19:34:13.000Z</time>
      </trkpt>
      <trkpt lat="38.236927" lon="-1.716761">
        <ele>384.658304</ele>
        <time>2021-11-01T19:34:22.000Z</time>
      </trkpt>
      <trkpt lat="38.236930" lon="-1.717142">
        <ele>385.140530</ele>
        <time>2021-11-01T19:34:31.000Z</time>
      </trkpt>
      <trkpt lat="38.236881" lon="-1.717604">
        <ele>385.731303</ele>
        <time>2021-11-01T19:34:40.000Z</time>
      </trkpt>
      <trkpt lat="38.236946" lon="-1.718204">
        <ele>386.498839</ele>
        <time>2021-11-01T19:34:49.000Z</time>
      </trkpt>
      <trkpt lat="38.236917" lon="-1.718916">
        <ele>387.402319</ele>
        <time>2021-11-01T19:34:59.000Z</time>
      </trkpt>
      <trkpt lat="38.236929" lon="-1.719148">
        <ele>387.696954</ele>
        <time>2021-11-01T19:35:08.000Z</time>
      </trkpt>
      <trkpt lat="38.236923" lon="-1.719587">
        <ele>388.250340</ele>
        <time>2021-11-01T19:35:17.000Z</time>
      </trkpt>
      <trkpt lat="38.236945" lon="-1.719802">
        <ele>388.523180</ele>
        <time>2021-11-01T19:35:26.000Z</time>
      </trkpt>
      <trkpt lat="38.236905" lon="-1.720084">
        <ele>388.883785</ele>
        <time>2021-11-01T19:35:35.000Z</time>
      </trkpt>
      <trkpt lat="38.236840" lon="-1.720299">
        <ele>389.173688</ele>
        <time>2021-11-01T19:35:45.000Z</time>
      </trkpt>
      <trkpt lat="38.236818" lon="-1.720528">
        <ele>389.464007</ele>
        <time>2021-11-01T19:35:54.000Z</time>
      </trkpt>
      <trkpt lat="38.236862" lon="-1.722071">
        <ele>391.105319</ele>
        <time>2021-11-01T19:36:03.000Z</time>
      </trkpt>
      <trkpt lat="38.236931" lon="-1.722569">
        <ele>391.468875</ele>
        <time>2021-11-01T19:36:12.000Z</time>
      </trkpt>
      <trkpt lat="38.236837" lon="-1.722920">
        <ele>391.735484</ele>
        <time>2021-11-01T19:36:22.000Z</time>
      </trkpt>
      <trkpt lat="38.236776" lon="-1.723305">
        <ele>392.017849</ele>
        <time>2021-11-01T19:36:31.000Z</time>
      </trkpt>
      <trkpt lat="38.236774" lon="-1.723471">
        <ele>392.137205</ele>
        <time>2021-11-01T19:36:40.000Z</time>
      </trkpt>
      <trkpt lat="38.236824" lon="-1.724186">
        <ele>392.673372</ele>
        <time>2021-11-01T19:36:50.000Z</time>
      </trkpt>
      <trkpt lat="38.236742" lon="-1.724804">
        <ele>393.153787</ele>
        <time>2021-11-01T19:36:59.000Z</time>
      </trkpt>
      <trkpt lat="38.236797" lon="-1.725266">
        <ele>393.511959</ele>
        <time>2021-11-01T19:37:08.000Z</time>
      </trkpt>
      <trkpt lat="38.236796" lon="-1.725578">
        <ele>393.751112</ele>
        <time>2021-11-01T19:37:18.000Z</time>
      </trkpt>
      <trkpt lat="38.236823" lon="-1.725820">
        <ele>393.938469</ele>
        <time>2021-11-01T19:37:27.000Z</time>
      </trkpt>
      <trkpt lat="38.236804" lon="-1.726208">
        <ele>394.278904</ele>
        <time>2021-11-01T19:37:36.000Z</time>
      </trkpt>
      <trkpt lat="38.236874" lon="-1.726937">
        <ele>395.023438</ele>
        <time>2021-11-01T19:37:46.000Z</time>
      </trkpt>
      <trkpt lat="38.236837" lon="-1.727290">
        <ele>395.384468</ele>
        <time>2021-11-01T19:37:55.000Z</time>
      </trkpt>
      <trkpt lat="38.236736" lon="-1.727742">
        <ele>395.860870</ele>
        <time>2021-11-01T19:38:05.000Z</time>
      </trkpt>
      <trkpt lat="38.236578" lon="-1.728170">
        <ele>396.340293</ele>
        <time>2021-11-01T19:38:14.000Z</time>
      </trkpt>
      <trkpt lat="38.236377" lon="-1.728483">
        <ele>397.018830</ele>
        <time>2021-11-01T19:38:23.000Z</time>
      </trkpt>
      <trkpt lat="38.236149" lon="-1.728752">
        <ele>397.752865</ele>
        <time>2021-11-01T19:38:33.000Z</time>
      </trkpt>
      <trkpt lat="38.235807" lon="-1.729227">
        <ele>398.948026</ele>
        <time>2021-11-01T19:38:42.000Z</time>
      </trkpt>
      <trkpt lat="38.235704" lon="-1.729333">
        <ele>399.260775</ele>
        <time>2021-11-01T19:38:52.000Z</time>
      </trkpt>
      <trkpt lat="38.235524" lon="-1.729609">
        <ele>399.926156</ele>
        <time>2021-11-01T19:39:01.000Z</time>
      </trkpt>
      <trkpt lat="38.235296" lon="-1.729888">
        <ele>400.672926</ele>
        <time>2021-11-01T19:39:11.000Z</time>
      </trkpt>
      <trkpt lat="38.235201" lon="-1.730035">
        <ele>401.029023</ele>
        <time>2021-11-01T19:39:20.000Z</time>
      </trkpt>
      <trkpt lat="38.235051" lon="-1.730155">
        <ele>401.450937</ele>
        <time>2021-11-01T19:39:29.000Z</time>
      </trkpt>
      <trkpt lat="38.234995" lon="-1.730229">
        <ele>401.643162</ele>
        <time>2021-11-01T19:39:39.000Z</time>
      </trkpt>
      <trkpt lat="38.234877" lon="-1.730531">
        <ele>402.274148</ele>
        <time>2021-11-01T19:39:48.000Z</time>
      </trkpt>
      <trkpt lat="38.234621" lon="-1.731017">
        <ele>403.368810</ele>
        <time>2021-11-01T19:39:58.000Z</time>
      </trkpt>
      <trkpt lat="38.234391" lon="-1.731654">
        <ele>404.680314</ele>
        <time>2021-11-01T19:40:07.000Z</time>
      </trkpt>
      <trkpt lat="38.234277" lon="-1.731820">
        <ele>405.059630</ele>
        <time>2021-11-01T19:40:17.000Z</time>
      </trkpt>
      <trkpt lat="38.233855" lon="-1.732079">
        <ele>405.902430</ele>
        <time>2021-11-01T19:40:26.000Z</time>
      </trkpt>
      <trkpt lat="38.233383" lon="-1.732329">
        <ele>406.822124</ele>
        <time>2021-11-01T19:40:36.000Z</time>
      </trkpt>
      <trkpt lat="38.233147" lon="-1.732391">
        <ele>407.255638</ele>
        <time>2021-11-01T19:40:45.000Z</time>
      </trkpt>
      <trkpt lat="38.232993" lon="-1.732452">
        <ele>407.545786</ele>
        <time>2021-11-01T19:40:55.000Z</time>
      </trkpt>
      <trkpt lat="38.232460" lon="-1.732505">
        <ele>408.538543</ele>
        <time>2021-11-01T19:41:04.000Z</time>
      </trkpt>
      <trkpt lat="38.232244" lon="-1.732501">
        <ele>408.965417</ele>
        <time>2021-11-01T19:41:14.000Z</time>
      </trkpt>
      <trkpt lat="38.231964" lon="-1.732442">
        <ele>409.526241</ele>
        <time>2021-11-01T19:41:24.000Z</time>
      </trkpt>
      <trkpt lat="38.231665" lon="-1.732362">
        <ele>410.129991</ele>
        <time>2021-11-01T19:41:33.000Z</time>
      </trkpt>
      <trkpt lat="38.231413" lon="-1.732270">
        <ele>410.648030</ele>
        <time>2021-11-01T19:41:43.000Z</time>
      </trkpt>
      <trkpt lat="38.231198" lon="-1.732299">
        <ele>411.075261</ele>
        <time>2021-11-01T19:41:52.000Z</time>
      </trkpt>
      <trkpt lat="38.231107" lon="-1.732285">
        <ele>411.256390</ele>
        <time>2021-11-01T19:42:02.000Z</time>
      </trkpt>
      <trkpt lat="38.230748" lon="-1.731968">
        <ele>412.072853</ele>
        <time>2021-11-01T19:42:11.000Z</time>
      </trkpt>
      <trkpt lat="38.230713" lon="-1.731954">
        <ele>412.136224</ele>
        <time>2021-11-01T19:42:21.000Z</time>
      </trkpt>
      <trkpt lat="38.230597" lon="-1.731983">
        <ele>412.340423</ele>
        <time>2021-11-01T19:42:31.000Z</time>
      </trkpt>
      <trkpt lat="38.230484" lon="-1.732087">
        <ele>412.581280</ele>
        <time>2021-11-01T19:42:40.000Z</time>
      </trkpt>
      <trkpt lat="38.230437" lon="-1.732168">
        <ele>412.717920</ele>
        <time>2021-11-01T19:42:50.000Z</time>
      </trkpt>
      <trkpt lat="38.230420" lon="-1.732323">
        <ele>412.930275</ele>
        <time>2021-11-01T19:42:59.000Z</time>
      </trkpt>
      <trkpt lat="38.230426" lon="-1.732646">
        <ele>413.368668</ele>
        <time>2021-11-01T19:43:09.000Z</time>
      </trkpt>
      <trkpt lat="38.230406" lon="-1.732740">
        <ele>413.500810</ele>
        <time>2021-11-01T19:43:19.000Z</time>
      </trkpt>
      <trkpt lat="38.230387" lon="-1.732729">
        <ele>413.536864</ele>
        <time>2021-11-01T19:43:28.000Z</time>
      </trkpt>
      <trkpt lat="38.230394" lon="-1.732720">
        <ele>413.554049</ele>
        <time>2021-11-01T19:43:38.000Z</time>
      </trkpt>
      <trkpt lat="38.230383" lon="-1.732948">
        <ele>413.863999</ele>
        <time>2021-11-01T19:43:48.000Z</time>
      </trkpt>
      <trkpt lat="38.230343" lon="-1.733261">
        <ele>414.294285</ele>
        <time>2021-11-01T19:43:57.000Z</time>
      </trkpt>
      <trkpt lat="38.230284" lon="-1.733463">
        <ele>414.586707</ele>
        <time>2021-11-01T19:44:07.000Z</time>
      </trkpt>
      <trkpt lat="38.230193" lon="-1.733631">
        <ele>414.862069</ele>
        <time>2021-11-01T19:44:16.000Z</time>
      </trkpt>
      <trkpt lat="38.229831" lon="-1.734010">
        <ele>415.541331</ele>
        <time>2021-11-01T19:44:26.000Z</time>
      </trkpt>
      <trkpt lat="38.229708" lon="-1.734117">
        <ele>415.757233</ele>
        <time>2021-11-01T19:44:36.000Z</time>
      </trkpt>
      <trkpt lat="38.229562" lon="-1.734188">
        <ele>415.983736</ele>
        <time>2021-11-01T19:44:45.000Z</time>
      </trkpt>
      <trkpt lat="38.229175" lon="-1.734308">
        <ele>416.560993</ele>
        <time>2021-11-01T19:44:55.000Z</time>
      </trkpt>
      <trkpt lat="38.229071" lon="-1.734358">
        <ele>416.722105</ele>
        <time>2021-11-01T19:45:05.000Z</time>
      </trkpt>
      <trkpt lat="38.228990" lon="-1.734430">
        <ele>416.865280</ele>
        <time>2021-11-01T19:45:14.000Z</time>
      </trkpt>
      <trkpt lat="38.228949" lon="-1.734547">
        <ele>417.011131</ele>
        <time>2021-11-01T19:45:24.000Z</time>
      </trkpt>
      <trkpt lat="38.228948" lon="-1.734666">
        <ele>417.146614</ele>
        <time>2021-11-01T19:45:34.000Z</time>
      </trkpt>
      <trkpt lat="38.228980" lon="-1.734770">
        <ele>417.273771</ele>
        <time>2021-11-01T19:45:43.000Z</time>
      </trkpt>
      <trkpt lat="38.229039" lon="-1.734855">
        <ele>417.402903</ele>
        <time>2021-11-01T19:45:53.000Z</time>
      </trkpt>
      <trkpt lat="38.229071" lon="-1.734877">
        <ele>417.455610</ele>
        <time>2021-11-01T19:46:03.000Z</time>
      </trkpt>
      <trkpt lat="38.229130" lon="-1.734862">
        <ele>417.615161</ele>
        <time>2021-11-01T19:46:12.000Z</time>
      </trkpt>
      <trkpt lat="38.229412" lon="-1.734736">
        <ele>418.430224</ele>
        <time>2021-11-01T19:46:22.000Z</time>
      </trkpt>
      <trkpt lat="38.229374" lon="-1.734878">
        <ele>418.751601</ele>
        <time>2021-11-01T19:46:32.000Z</time>
      </trkpt>
      <trkpt lat="38.229351" lon="-1.735157">
        <ele>419.352590</ele>
        <time>2021-11-01T19:46:41.000Z</time>
      </trkpt>
      <trkpt lat="38.229302" lon="-1.735455">
        <ele>420.004837</ele>
        <time>2021-11-01T19:46:51.000Z</time>
      </trkpt>
      <trkpt lat="38.229296" lon="-1.735618">
        <ele>420.354418</ele>
        <time>2021-11-01T19:47:01.000Z</time>
      </trkpt>
      <trkpt lat="38.229356" lon="-1.735989">
        <ele>421.165887</ele>
        <time>2021-11-01T19:47:11.000Z</time>
      </trkpt>
      <trkpt lat="38.229405" lon="-1.736200">
        <ele>421.637255</ele>
        <time>2021-11-01T19:47:20.000Z</time>
      </trkpt>
      <trkpt lat="38.229445" lon="-1.736289">
        <ele>421.856922</ele>
        <time>2021-11-01T19:47:30.000Z</time>
      </trkpt>
      <trkpt lat="38.229506" lon="-1.736353">
        <ele>422.072500</ele>
        <time>2021-11-01T19:47:40.000Z</time>
      </trkpt>
      <trkpt lat="38.229672" lon="-1.736470">
        <ele>422.544140</ele>
        <time>2021-11-01T19:47:49.000Z</time>
      </trkpt>
      <trkpt lat="38.229901" lon="-1.736589">
        <ele>423.080670</ele>
        <time>2021-11-01T19:47:59.000Z</time>
      </trkpt>
      <trkpt lat="38.230132" lon="-1.736755">
        <ele>423.656069</ele>
        <time>2021-11-01T19:48:09.000Z</time>
      </trkpt>
      <trkpt lat="38.230661" lon="-1.737076">
        <ele>424.927247</ele>
        <time>2021-11-01T19:48:19.000Z</time>
      </trkpt>
      <trkpt lat="38.230754" lon="-1.737175">
        <ele>425.190214</ele>
        <time>2021-11-01T19:48:28.000Z</time>
      </trkpt>
      <trkpt lat="38.230792" lon="-1.737267">
        <ele>425.367326</ele>
        <time>2021-11-01T19:48:38.000Z</time>
      </trkpt>
      <trkpt lat="38.230829" lon="-1.737439">
        <ele>425.671192</ele>
        <time>2021-11-01T19:48:48.000Z</time>
      </trkpt>
      <trkpt lat="38.230850" lon="-1.737751">
        <ele>426.204766</ele>
        <time>2021-11-01T19:48:58.000Z</time>
      </trkpt>
      <trkpt lat="38.230844" lon="-1.737931">
        <ele>426.313301</ele>
        <time>2021-11-01T19:49:08.000Z</time>
      </trkpt>
      <trkpt lat="38.230814" lon="-1.738124">
        <ele>426.376121</ele>
        <time>2021-11-01T19:49:17.000Z</time>
      </trkpt>
      <trkpt lat="38.230727" lon="-1.738366">
        <ele>426.461100</ele>
        <time>2021-11-01T19:49:27.000Z</time>
      </trkpt>
      <trkpt lat="38.230494" lon="-1.738819">
        <ele>426.633993</ele>
        <time>2021-11-01T19:49:37.000Z</time>
      </trkpt>
      <trkpt lat="38.230392" lon="-1.738982">
        <ele>426.700536</ele>
        <time>2021-11-01T19:49:47.000Z</time>
      </trkpt>
      <trkpt lat="38.230309" lon="-1.739074">
        <ele>426.745271</ele>
        <time>2021-11-01T19:49:57.000Z</time>
      </trkpt>
      <trkpt lat="38.230163" lon="-1.739176">
        <ele>426.812967</ele>
        <time>2021-11-01T19:50:06.000Z</time>
      </trkpt>
      <trkpt lat="38.230010" lon="-1.739258">
        <ele>426.880445</ele>
        <time>2021-11-01T19:50:16.000Z</time>
      </trkpt>
      <trkpt lat="38.229543" lon="-1.739438">
        <ele>426.679496</ele>
        <time>2021-11-01T19:50:26.000Z</time>
      </trkpt>
      <trkpt lat="38.229504" lon="-1.739435">
        <ele>426.616237</ele>
        <time>2021-11-01T19:50:36.000Z</time>
      </trkpt>
      <trkpt lat="38.229347" lon="-1.739356">
        <ele>426.342905</ele>
        <time>2021-11-01T19:50:46.000Z</time>
      </trkpt>
      <trkpt lat="38.229248" lon="-1.739327">
        <ele>426.178427</ele>
        <time>2021-11-01T19:50:55.000Z</time>
      </trkpt>
      <trkpt lat="38.228772" lon="-1.739265">
        <ele>425.403723</ele>
        <time>2021-11-01T19:51:05.000Z</time>
      </trkpt>
      <trkpt lat="38.228504" lon="-1.739249">
        <ele>424.969334</ele>
        <time>2021-11-01T19:51:15.000Z</time>
      </trkpt>
      <trkpt lat="38.228279" lon="-1.739200">
        <ele>424.599749</ele>
        <time>2021-11-01T19:51:25.000Z</time>
      </trkpt>
      <trkpt lat="38.227860" lon="-1.739148">
        <ele>423.708174</ele>
        <time>2021-11-01T19:51:35.000Z</time>
      </trkpt>
      <trkpt lat="38.227744" lon="-1.739151">
        <ele>423.286069</ele>
        <time>2021-11-01T19:51:45.000Z</time>
      </trkpt>
      <trkpt lat="38.227680" lon="-1.739192">
        <ele>423.025410</ele>
        <time>2021-11-01T19:51:55.000Z</time>
      </trkpt>
      <trkpt lat="38.227611" lon="-1.739285">
        <ele>422.659818</ele>
        <time>2021-11-01T19:52:04.000Z</time>
      </trkpt>
      <trkpt lat="38.227205" lon="-1.740237">
        <ele>419.563977</ele>
        <time>2021-11-01T19:52:14.000Z</time>
      </trkpt>
      <trkpt lat="38.227016" lon="-1.740592">
        <ele>418.338356</ele>
        <time>2021-11-01T19:52:24.000Z</time>
      </trkpt>
      <trkpt lat="38.226877" lon="-1.740736">
        <ele>417.686362</ele>
        <time>2021-11-01T19:52:34.000Z</time>
      </trkpt>
      <trkpt lat="38.226790" lon="-1.740786">
        <ele>417.336170</ele>
        <time>2021-11-01T19:52:44.000Z</time>
      </trkpt>
      <trkpt lat="38.226703" lon="-1.740817">
        <ele>417.002789</ele>
        <time>2021-11-01T19:52:54.000Z</time>
      </trkpt>
      <trkpt lat="38.226528" lon="-1.740845">
        <ele>416.351934</ele>
        <time>2021-11-01T19:53:04.000Z</time>
      </trkpt>
      <trkpt lat="38.226187" lon="-1.740846">
        <ele>415.093596</ele>
        <time>2021-11-01T19:53:14.000Z</time>
      </trkpt>
      <trkpt lat="38.225856" lon="-1.740795">
        <ele>413.863247</ele>
        <time>2021-11-01T19:53:24.000Z</time>
      </trkpt>
      <trkpt lat="38.224641" lon="-1.740257">
        <ele>409.292599</ele>
        <time>2021-11-01T19:53:34.000Z</time>
      </trkpt>
      <trkpt lat="38.224249" lon="-1.740124">
        <ele>407.943122</ele>
        <time>2021-11-01T19:53:44.000Z</time>
      </trkpt>
      <trkpt lat="38.223751" lon="-1.739903">
        <ele>406.188786</ele>
        <time>2021-11-01T19:53:54.000Z</time>
      </trkpt>
      <trkpt lat="38.223508" lon="-1.739828">
        <ele>405.357047</ele>
        <time>2021-11-01T19:54:04.000Z</time>
      </trkpt>
      <trkpt lat="38.223401" lon="-1.739824">
        <ele>405.000968</ele>
        <time>2021-11-01T19:54:14.000Z</time>
      </trkpt>
      <trkpt lat="38.223318" lon="-1.739915">
        <ele>404.601726</ele>
        <time>2021-11-01T19:54:24.000Z</time>
      </trkpt>
      <trkpt lat="38.223122" lon="-1.740205">
        <ele>403.480223</ele>
        <time>2021-11-01T19:54:34.000Z</time>
      </trkpt>
      <trkpt lat="38.222932" lon="-1.740507">
        <ele>402.345949</ele>
        <time>2021-11-01T19:54:44.000Z</time>
      </trkpt>
      <trkpt lat="38.222845" lon="-1.740675">
        <ele>401.756052</ele>
        <time>2021-11-01T19:54:54.000Z</time>
      </trkpt>
      <trkpt lat="38.222576" lon="-1.741012">
        <ele>400.347591</ele>
        <time>2021-11-01T19:55:04.000Z</time>
      </trkpt>
      <trkpt lat="38.222362" lon="-1.741346">
        <ele>399.084051</ele>
        <time>2021-11-01T19:55:14.000Z</time>
      </trkpt>
      <trkpt lat="38.222273" lon="-1.741444">
        <ele>398.644905</ele>
        <time>2021-11-01T19:55:24.000Z</time>
      </trkpt>
      <trkpt lat="38.221820" lon="-1.741859">
        <ele>397.821945</ele>
        <time>2021-11-01T19:55:34.000Z</time>
      </trkpt>
      <trkpt lat="38.221484" lon="-1.742252">
        <ele>397.420440</ele>
        <time>2021-11-01T19:55:44.000Z</time>
      </trkpt>
      <trkpt lat="38.221039" lon="-1.742724">
        <ele>396.910767</ele>
        <time>2021-11-01T19:55:54.000Z</time>
      </trkpt>
      <trkpt lat="38.220851" lon="-1.742969">
        <ele>396.674026</ele>
        <time>2021-11-01T19:56:04.000Z</time>
      </trkpt>
      <trkpt lat="38.220379" lon="-1.743369">
        <ele>396.972966</ele>
        <time>2021-11-01T19:56:14.000Z</time>
      </trkpt>
      <trkpt lat="38.219823" lon="-1.743934">
        <ele>397.449682</ele>
        <time>2021-11-01T19:56:24.000Z</time>
      </trkpt>
      <trkpt lat="38.219317" lon="-1.744638">
        <ele>398.176767</ele>
        <time>2021-11-01T19:56:35.000Z</time>
      </trkpt>
      <trkpt lat="38.219097" lon="-1.745078">
        <ele>398.971053</ele>
        <time>2021-11-01T19:56:45.000Z</time>
      </trkpt>
      <trkpt lat="38.218820" lon="-1.745821">
        <ele>400.223536</ele>
        <time>2021-11-01T19:56:55.000Z</time>
      </trkpt>
      <trkpt lat="38.218774" lon="-1.746065">
        <ele>400.605684</ele>
        <time>2021-11-01T19:57:05.000Z</time>
      </trkpt>
      <trkpt lat="38.218722" lon="-1.746568">
        <ele>401.391608</ele>
        <time>2021-11-01T19:57:15.000Z</time>
      </trkpt>
      <trkpt lat="38.218604" lon="-1.747403">
        <ele>402.976779</ele>
        <time>2021-11-01T19:57:25.000Z</time>
      </trkpt>
      <trkpt lat="38.218364" lon="-1.748428">
        <ele>404.975160</ele>
        <time>2021-11-01T19:57:36.000Z</time>
      </trkpt>
      <trkpt lat="38.218271" lon="-1.748753">
        <ele>405.633508</ele>
        <time>2021-11-01T19:57:46.000Z</time>
      </trkpt>
      <trkpt lat="38.218096" lon="-1.749506">
        <ele>407.835044</ele>
        <time>2021-11-01T19:57:56.000Z</time>
      </trkpt>
      <trkpt lat="38.217972" lon="-1.749947">
        <ele>409.148229</ele>
        <time>2021-11-01T19:58:06.000Z</time>
      </trkpt>
      <trkpt lat="38.217851" lon="-1.750495">
        <ele>410.744128</ele>
        <time>2021-11-01T19:58:17.000Z</time>
      </trkpt>
      <trkpt lat="38.217638" lon="-1.751038">
        <ele>412.563439</ele>
        <time>2021-11-01T19:58:27.000Z</time>
      </trkpt>
      <trkpt lat="38.217219" lon="-1.752432">
        <ele>417.893736</ele>
        <time>2021-11-01T19:58:37.000Z</time>
      </trkpt>
      <trkpt lat="38.217119" lon="-1.752632">
        <ele>418.740374</ele>
        <time>2021-11-01T19:58:48.000Z</time>
      </trkpt>
      <trkpt lat="38.216989" lon="-1.752843">
        <ele>419.697992</ele>
        <time>2021-11-01T19:58:58.000Z</time>
      </trkpt>
      <trkpt lat="38.216943" lon="-1.752965">
        <ele>420.181270</ele>
        <time>2021-11-01T19:59:08.000Z</time>
      </trkpt>
      <trkpt lat="38.216902" lon="-1.753286">
        <ele>421.655113</ele>
        <time>2021-11-01T19:59:19.000Z</time>
      </trkpt>
      <trkpt lat="38.216918" lon="-1.753582">
        <ele>423.002272</ele>
        <time>2021-11-01T19:59:29.000Z</time>
      </trkpt>
      <trkpt lat="38.216899" lon="-1.753713">
        <ele>423.607124</ele>
        <time>2021-11-01T19:59:39.000Z</time>
      </trkpt>
      <trkpt lat="38.216870" lon="-1.753797">
        <ele>424.023722</ele>
        <time>2021-11-01T19:59:50.000Z</time>
      </trkpt>
      <trkpt lat="38.216351" lon="-1.754751">
        <ele>429.292414</ele>
        <time>2021-11-01T20:00:00.000Z</time>
      </trkpt>
      <trkpt lat="38.216105" lon="-1.755104">
        <ele>431.048672</ele>
        <time>2021-11-01T20:00:10.000Z</time>
      </trkpt>
      <trkpt lat="38.215964" lon="-1.755417">
        <ele>431.941545</ele>
        <time>2021-11-01T20:00:21.000Z</time>
      </trkpt>
      <trkpt lat="38.215513" lon="-1.755936">
        <ele>433.856637</ele>
        <time>2021-11-01T20:00:31.000Z</time>
      </trkpt>
      <trkpt lat="38.215186" lon="-1.756483">
        <ele>435.557607</ele>
        <time>2021-11-01T20:00:42.000Z</time>
      </trkpt>
      <trkpt lat="38.215040" lon="-1.756646">
        <ele>436.169321</ele>
        <time>2021-11-01T20:00:52.000Z</time>
      </trkpt>
      <trkpt lat="38.214716" lon="-1.756922">
        <ele>436.941186</ele>
        <time>2021-11-01T20:01:02.000Z</time>
      </trkpt>
      <trkpt lat="38.214407" lon="-1.757302">
        <ele>437.755877</ele>
        <time>2021-11-01T20:01:13.000Z</time>
      </trkpt>
      <trkpt lat="38.214259" lon="-1.757428">
        <ele>438.093485</ele>
        <time>2021-11-01T20:01:23.000Z</time>
      </trkpt>
      <trkpt lat="38.213982" lon="-1.757704">
        <ele>438.760494</ele>
        <time>2021-11-01T20:01:34.000Z</time>
      </trkpt>
      <trkpt lat="38.213844" lon="-1.757791">
        <ele>439.052490</ele>
        <time>2021-11-01T20:01:44.000Z</time>
      </trkpt>
      <trkpt lat="38.213760" lon="-1.757865">
        <ele>439.246189</ele>
        <time>2021-11-01T20:01:55.000Z</time>
      </trkpt>
      <trkpt lat="38.213679" lon="-1.757961">
        <ele>439.456047</ele>
        <time>2021-11-01T20:02:05.000Z</time>
      </trkpt>
      <trkpt lat="38.213553" lon="-1.758188">
        <ele>439.323494</ele>
        <time>2021-11-01T20:02:16.000Z</time>
      </trkpt>
      <trkpt lat="38.213518" lon="-1.758225">
        <ele>439.183533</ele>
        <time>2021-11-01T20:02:26.000Z</time>
      </trkpt>
      <trkpt lat="38.213436" lon="-1.758247">
        <ele>438.925744</ele>
        <time>2021-11-01T20:02:37.000Z</time>
      </trkpt>
      <trkpt lat="38.213339" lon="-1.758243">
        <ele>438.627200</ele>
        <time>2021-11-01T20:02:47.000Z</time>
      </trkpt>
      <trkpt lat="38.213251" lon="-1.758271">
        <ele>438.348167</ele>
        <time>2021-11-01T20:02:57.000Z</time>
      </trkpt>
      <trkpt lat="38.213170" lon="-1.758366">
        <ele>438.009334</ele>
        <time>2021-11-01T20:03:08.000Z</time>
      </trkpt>
      <trkpt lat="38.213073" lon="-1.758576">
        <ele>437.420557</ele>
        <time>2021-11-01T20:03:18.000Z</time>
      </trkpt>
      <trkpt lat="38.212947" lon="-1.758717">
        <ele>436.904444</ele>
        <time>2021-11-01T20:03:29.000Z</time>
      </trkpt>
      <trkpt lat="38.212840" lon="-1.758929">
        <ele>436.295432</ele>
        <time>2021-11-01T20:03:39.000Z</time>
      </trkpt>
      <trkpt lat="38.212624" lon="-1.759151">
        <ele>435.441379</ele>
        <time>2021-11-01T20:03:50.000Z</time>
      </trkpt>
      <trkpt lat="38.212316" lon="-1.759806">
        <ele>433.632470</ele>
        <time>2021-11-01T20:04:00.000Z</time>
      </trkpt>
      <trkpt lat="38.212137" lon="-1.760090">
        <ele>432.812127</ele>
        <time>2021-11-01T20:04:11.000Z</time>
      </trkpt>
      <trkpt lat="38.212066" lon="-1.760242">
        <ele>432.413693</ele>
        <time>2021-11-01T20:04:21.000Z</time>
      </trkpt>
      <trkpt lat="38.211970" lon="-1.760778">
        <ele>431.175005</ele>
        <time>2021-11-01T20:04:32.000Z</time>
      </trkpt>
      <trkpt lat="38.211484" lon="-1.761986">
        <ele>427.895839</ele>
        <time>2021-11-01T20:04:43.000Z</time>
      </trkpt>
      <trkpt lat="38.211293" lon="-1.762766">
        <ele>425.577930</ele>
        <time>2021-11-01T20:04:53.000Z</time>
      </trkpt>
      <trkpt lat="38.211241" lon="-1.763186">
        <ele>424.371645</ele>
        <time>2021-11-01T20:05:04.000Z</time>
      </trkpt>
      <trkpt lat="38.211278" lon="-1.763596">
        <ele>423.200787</ele>
        <time>2021-11-01T20:05:14.000Z</time>
      </trkpt>
      <trkpt lat="38.211270" lon="-1.763701">
        <ele>422.901494</ele>
        <time>2021-11-01T20:05:25.000Z</time>
      </trkpt>
      <trkpt lat="38.211244" lon="-1.763802">
        <ele>422.599960</ele>
        <time>2021-11-01T20:05:36.000Z</time>
      </trkpt>
      <trkpt lat="38.211017" lon="-1.764289">
        <ele>420.747613</ele>
        <time>2021-11-01T20:05:46.000Z</time>
      </trkpt>
      <trkpt lat="38.210989" lon="-1.764441">
        <ele>420.231247</ele>
        <time>2021-11-01T20:05:57.000Z</time>
      </trkpt>
      <trkpt lat="38.210994" lon="-1.764508">
        <ele>420.008650</ele>
        <time>2021-11-01T20:06:07.000Z</time>
      </trkpt>
      <trkpt lat="38.211048" lon="-1.764594">
        <ele>419.644541</ele>
        <time>2021-11-01T20:06:18.000Z</time>
      </trkpt>
      <trkpt lat="38.211469" lon="-1.764990">
        <ele>417.440918</ele>
        <time>2021-11-01T20:06:29.000Z</time>
      </trkpt>
      <trkpt lat="38.211559" lon="-1.765094">
        <ele>416.929214</ele>
        <time>2021-11-01T20:06:39.000Z</time>
      </trkpt>
      <trkpt lat="38.211626" lon="-1.765212">
        <ele>416.447699</ele>
        <time>2021-11-01T20:06:50.000Z</time>
      </trkpt>
      <trkpt lat="38.211694" lon="-1.765421">
        <ele>415.699526</ele>
        <time>2021-11-01T20:07:01.000Z</time>
      </trkpt>
      <trkpt lat="38.211766" lon="-1.765543">
        <ele>415.194875</ele>
        <time>2021-11-01T20:07:11.000Z</time>
      </trkpt>
      <trkpt lat="38.211818" lon="-1.765587">
        <ele>414.932026</ele>
        <time>2021-11-01T20:07:22.000Z</time>
      </trkpt>
      <trkpt lat="38.211939" lon="-1.765651">
        <ele>414.871678</ele>
        <time>2021-11-01T20:07:33.000Z</time>
      </trkpt>
      <trkpt lat="38.212183" lon="-1.765749">
        <ele>414.802794</ele>
        <time>2021-11-01T20:07:43.000Z</time>
      </trkpt>
      <trkpt lat="38.212275" lon="-1.765848">
        <ele>414.770358</ele>
        <time>2021-11-01T20:07:54.000Z</time>
      </trkpt>
      <trkpt lat="38.212571" lon="-1.766368">
        <ele>414.634526</ele>
        <time>2021-11-01T20:08:05.000Z</time>
      </trkpt>
      <trkpt lat="38.212640" lon="-1.766552">
        <ele>414.591398</ele>
        <time>2021-11-01T20:08:15.000Z</time>
      </trkpt>
      <trkpt lat="38.212665" lon="-1.766673">
        <ele>414.564932</ele>
        <time>2021-11-01T20:08:26.000Z</time>
      </trkpt>
      <trkpt lat="38.212670" lon="-1.766953">
        <ele>414.505687</ele>
        <time>2021-11-01T20:08:37.000Z</time>
      </trkpt>
      <trkpt lat="38.212622" lon="-1.767473">
        <ele>414.517235</ele>
        <time>2021-11-01T20:08:47.000Z</time>
      </trkpt>
      <trkpt lat="38.212583" lon="-1.767700">
        <ele>414.698667</ele>
        <time>2021-11-01T20:08:58.000Z</time>
      </trkpt>
      <trkpt lat="38.212517" lon="-1.767917">
        <ele>414.880354</ele>
        <time>2021-11-01T20:09:09.000Z</time>
      </trkpt>
      <trkpt lat="38.212497" lon="-1.768202">
        <ele>415.103771</ele>
        <time>2021-11-01T20:09:19.000Z</time>
      </trkpt>
      <trkpt lat="38.212441" lon="-1.768543">
        <ele>415.375781</ele>
        <time>2021-11-01T20:09:30.000Z</time>
      </trkpt>
      <trkpt lat="38.212455" lon="-1.768653">
        <ele>415.462790</ele>
        <time>2021-11-01T20:09:41.000Z</time>
      </trkpt>
      <trkpt lat="38.212660" lon="-1.769316">
        <ele>416.019109</ele>
        <time>2021-11-01T20:09:52.000Z</time>
      </trkpt>
      <trkpt lat="38.212683" lon="-1.769511">
        <ele>416.173072</ele>
        <time>2021-11-01T20:10:02.000Z</time>
      </trkpt>
      <trkpt lat="38.212749" lon="-1.769786">
        <ele>415.980186</ele>
        <time>2021-11-01T20:10:13.000Z</time>
      </trkpt>
      <trkpt lat="38.212750" lon="-1.770071">
        <ele>415.711741</ele>
        <time>2021-11-01T20:10:24.000Z</time>
      </trkpt>
      <trkpt lat="38.212714" lon="-1.770252">
        <ele>415.535878</ele>
        <time>2021-11-01T20:10:35.000Z</time>
      </trkpt>
      <trkpt lat="38.212591" lon="-1.770471">
        <ele>415.282320</ele>
        <time>2021-11-01T20:10:45.000Z</time>
      </trkpt>
      <trkpt lat="38.212532" lon="-1.770819">
        <ele>414.946992</ele>
        <time>2021-11-01T20:10:56.000Z</time>
      </trkpt>
      <trkpt lat="38.212574" lon="-1.771077">
        <ele>414.698819</ele>
        <time>2021-11-01T20:11:07.000Z</time>
      </trkpt>
      <trkpt lat="38.212639" lon="-1.771285">
        <ele>414.487976</ele>
        <time>2021-11-01T20:11:18.000Z</time>
      </trkpt>
      <trkpt lat="38.212733" lon="-1.771747">
        <ele>414.015230</ele>
        <time>2021-11-01T20:11:28.000Z</time>
      </trkpt>
      <trkpt lat="38.212737" lon="-1.771950">
        <ele>413.501120</ele>
        <time>2021-11-01T20:11:39.000Z</time>
      </trkpt>
      <trkpt lat="38.212670" lon="-1.772506">
        <ele>412.076997</ele>
        <time>2021-11-01T20:11:50.000Z</time>
      </trkpt>
      <trkpt lat="38.212769" lon="-1.773407">
        <ele>409.773676</ele>
        <time>2021-11-01T20:12:01.000Z</time>
      </trkpt>
      <trkpt lat="38.212814" lon="-1.773581">
        <ele>409.309899</ele>
        <time>2021-11-01T20:12:12.000Z</time>
      </trkpt>
      <trkpt lat="38.212848" lon="-1.773650">
        <ele>409.103696</ele>
        <time>2021-11-01T20:12:22.000Z</time>
      </trkpt>
      <trkpt lat="38.213118" lon="-1.774008">
        <ele>407.637338</ele>
        <time>2021-11-01T20:12:33.000Z</time>
      </trkpt>
      <trkpt lat="38.213197" lon="-1.774242">
        <ele>406.661637</ele>
        <time>2021-11-01T20:12:44.000Z</time>
      </trkpt>
      <trkpt lat="38.213257" lon="-1.774526">
        <ele>405.534994</ele>
        <time>2021-11-01T20:12:55.000Z</time>
      </trkpt>
      <trkpt lat="38.213272" lon="-1.774800">
        <ele>404.482760</ele>
        <time>2021-11-01T20:13:06.000Z</time>
      </trkpt>
      <trkpt lat="38.213233" lon="-1.775069">
        <ele>403.434829</ele>
        <time>2021-11-01T20:13:17.000Z</time>
      </trkpt>
      <trkpt lat="38.213182" lon="-1.775258">
        <ele>402.669263</ele>
        <time>2021-11-01T20:13:28.000Z</time>
      </trkpt>
      <trkpt lat="38.213135" lon="-1.775338">
        <ele>402.286582</ele>
        <time>2021-11-01T20:13:38.000Z</time>
      </trkpt>
      <trkpt lat="38.212948" lon="-1.775512">
        <ele>401.157124</ele>
        <time>2021-11-01T20:13:49.000Z</time>
      </trkpt>
      <trkpt lat="38.212809" lon="-1.775588">
        <ele>400.419494</ele>
        <time>2021-11-01T20:14:00.000Z</time>
      </trkpt>
      <trkpt lat="38.212643" lon="-1.775629">
        <ele>399.595012</ele>
        <time>2021-11-01T20:14:11.000Z</time>
      </trkpt>
      <trkpt lat="38.212566" lon="-1.775668">
        <ele>399.436692</ele>
        <time>2021-11-01T20:14:22.000Z</time>
      </trkpt>
      <trkpt lat="38.212389" lon="-1.775850">
        <ele>399.248892</ele>
        <time>2021-11-01T20:14:33.000Z</time>
      </trkpt>
      <trkpt lat="38.212086" lon="-1.776007">
        <ele>398.978890</ele>
        <time>2021-11-01T20:14:44.000Z</time>
      </trkpt>
      <trkpt lat="38.211902" lon="-1.776200">
        <ele>398.782104</ele>
        <time>2021-11-01T20:14:55.000Z</time>
      </trkpt>
      <trkpt lat="38.211800" lon="-1.776273">
        <ele>398.685524</ele>
        <time>2021-11-01T20:15:06.000Z</time>
      </trkpt>
      <trkpt lat="38.211724" lon="-1.776313">
        <ele>398.617648</ele>
        <time>2021-11-01T20:15:16.000Z</time>
      </trkpt>
      <trkpt lat="38.211581" lon="-1.776355">
        <ele>398.496526</ele>
        <time>2021-11-01T20:15:27.000Z</time>
      </trkpt>
      <trkpt lat="38.211447" lon="-1.776431">
        <ele>398.375449</ele>
        <time>2021-11-01T20:15:38.000Z</time>
      </trkpt>
      <trkpt lat="38.211226" lon="-1.776521">
        <ele>398.183944</ele>
        <time>2021-11-01T20:15:49.000Z</time>
      </trkpt>
      <trkpt lat="38.210929" lon="-1.776701">
        <ele>398.190034</ele>
        <time>2021-11-01T20:16:00.000Z</time>
      </trkpt>
      <trkpt lat="38.210797" lon="-1.776814">
        <ele>398.464297</ele>
        <time>2021-11-01T20:16:11.000Z</time>
      </trkpt>
      <trkpt lat="38.210673" lon="-1.776954">
        <ele>398.750074</ele>
        <time>2021-11-01T20:16:22.000Z</time>
      </trkpt>
      <trkpt lat="38.210471" lon="-1.777246">
        <ele>399.277088</ele>
        <time>2021-11-01T20:16:33.000Z</time>
      </trkpt>
      <trkpt lat="38.210211" lon="-1.777475">
        <ele>399.822209</ele>
        <time>2021-11-01T20:16:44.000Z</time>
      </trkpt>
      <trkpt lat="38.209784" lon="-1.777941">
        <ele>400.791965</ele>
        <time>2021-11-01T20:16:55.000Z</time>
      </trkpt>
      <trkpt lat="38.209200" lon="-1.778892">
        <ele>403.187674</ele>
        <time>2021-11-01T20:17:06.000Z</time>
      </trkpt>
      <trkpt lat="38.208956" lon="-1.779434">
        <ele>404.520104</ele>
        <time>2021-11-01T20:17:17.000Z</time>
      </trkpt>
      <trkpt lat="38.208768" lon="-1.779655">
        <ele>405.214864</ele>
        <time>2021-11-01T20:17:28.000Z</time>
      </trkpt>
      <trkpt lat="38.208627" lon="-1.779924">
        <ele>405.904616</ele>
        <time>2021-11-01T20:17:39.000Z</time>
      </trkpt>
      <trkpt lat="38.208522" lon="-1.780085">
        <ele>406.776552</ele>
        <time>2021-11-01T20:17:50.000Z</time>
      </trkpt>
      <trkpt lat="38.208453" lon="-1.780148">
        <ele>407.275916</ele>
        <time>2021-11-01T20:18:01.000Z</time>
      </trkpt>
      <trkpt lat="38.208340" lon="-1.780201">
        <ele>407.984085</ele>
        <time>2021-11-01T20:18:12.000Z</time>
      </trkpt>
      <trkpt lat="38.208064" lon="-1.780217">
        <ele>409.608741</ele>
        <time>2021-11-01T20:18:23.000Z</time>
      </trkpt>
      <trkpt lat="38.207948" lon="-1.780241">
        <ele>410.299816</ele>
        <time>2021-11-01T20:18:34.000Z</time>
      </trkpt>
      <trkpt lat="38.207890" lon="-1.780289">
        <ele>410.706648</ele>
        <time>2021-11-01T20:18:45.000Z</time>
      </trkpt>
      <trkpt lat="38.207840" lon="-1.780366">
        <ele>411.168200</ele>
        <time>2021-11-01T20:18:56.000Z</time>
      </trkpt>
      <trkpt lat="38.207681" lon="-1.780765">
        <ele>413.235354</ele>
        <time>2021-11-01T20:19:07.000Z</time>
      </trkpt>
      <trkpt lat="38.207599" lon="-1.781320">
        <ele>415.844737</ele>
        <time>2021-11-01T20:19:18.000Z</time>
      </trkpt>
      <trkpt lat="38.207481" lon="-1.781730">
        <ele>417.348840</ele>
        <time>2021-11-01T20:19:29.000Z</time>
      </trkpt>
      <trkpt lat="38.207290" lon="-1.782219">
        <ele>418.875314</ele>
        <time>2021-11-01T20:19:40.000Z</time>
      </trkpt>
      <trkpt lat="38.207155" lon="-1.782439">
        <ele>419.655590</ele>
        <time>2021-11-01T20:19:51.000Z</time>
      </trkpt>
      <trkpt lat="38.206947" lon="-1.782871">
        <ele>421.071844</ele>
        <time>2021-11-01T20:20:03.000Z</time>
      </trkpt>
      <trkpt lat="38.206715" lon="-1.783508">
        <ele>423.028529</ele>
        <time>2021-11-01T20:20:14.000Z</time>
      </trkpt>
      <trkpt lat="38.206579" lon="-1.784083">
        <ele>424.571742</ele>
        <time>2021-11-01T20:20:25.000Z</time>
      </trkpt>
      <trkpt lat="38.206510" lon="-1.784480">
        <ele>425.616674</ele>
        <time>2021-11-01T20:20:36.000Z</time>
      </trkpt>
      <trkpt lat="38.206534" lon="-1.785058">
        <ele>427.104182</ele>
        <time>2021-11-01T20:20:47.000Z</time>
      </trkpt>
      <trkpt lat="38.206500" lon="-1.785427">
        <ele>428.058994</ele>
        <time>2021-11-01T20:20:58.000Z</time>
      </trkpt>
      <trkpt lat="38.206445" lon="-1.785619">
        <ele>428.584191</ele>
        <time>2021-11-01T20:21:09.000Z</time>
      </trkpt>
      <trkpt lat="38.206212" lon="-1.786256">
        <ele>430.223484</ele>
        <time>2021-11-01T20:21:21.000Z</time>
      </trkpt>
      <trkpt lat="38.205980" lon="-1.786802">
        <ele>431.646990</ele>
        <time>2021-11-01T20:21:32.000Z</time>
      </trkpt>
      <trkpt lat="38.205871" lon="-1.787199">
        <ele>432.611423</ele>
        <time>2021-11-01T20:21:43.000Z</time>
      </trkpt>
      <trkpt lat="38.205811" lon="-1.787347">
        <ele>432.993348</ele>
        <time>2021-11-01T20:21:54.000Z</time>
      </trkpt>
      <trkpt lat="38.205480" lon="-1.788139">
        <ele>434.944981</ele>
        <time>2021-11-01T20:22:05.000Z</time>
      </trkpt>
      <trkpt lat="38.205405" lon="-1.788270">
        <ele>435.275697</ele>
        <time>2021-11-01T20:22:17.000Z</time>
      </trkpt>
      <trkpt lat="38.205335" lon="-1.788328">
        <ele>435.492592</ele>
        <time>2021-11-01T20:22:28.000Z</time>
      </trkpt>
      <trkpt lat="38.205186" lon="-1.788380">
        <ele>435.893774</ele>
        <time>2021-11-01T20:22:39.000Z</time>
      </trkpt>
      <trkpt lat="38.204864" lon="-1.788401">
        <ele>436.730983</ele>
        <time>2021-11-01T20:22:50.000Z</time>
      </trkpt>
      <trkpt lat="38.204758" lon="-1.788431">
        <ele>437.012950</ele>
        <time>2021-11-01T20:23:01.000Z</time>
      </trkpt>
      <trkpt lat="38.204597" lon="-1.788654">
        <ele>437.630860</ele>
        <time>2021-11-01T20:23:13.000Z</time>
      </trkpt>
      <trkpt lat="38.204452" lon="-1.788977">
        <ele>438.389889</ele>
        <time>2021-11-01T20:23:24.000Z</time>
      </trkpt>
      <trkpt lat="38.203805" lon="-1.790250">
        <ele>439.607536</ele>
        <time>2021-11-01T20:23:35.000Z</time>
      </trkpt>
      <trkpt lat="38.203442" lon="-1.791082">
        <ele>440.210184</ele>
        <time>2021-11-01T20:23:47.000Z</time>
      </trkpt>
      <trkpt lat="38.203323" lon="-1.791270">
        <ele>440.375624</ele>
        <time>2021-11-01T20:23:58.000Z</time>
      </trkpt>
      <trkpt lat="38.203179" lon="-1.791571">
        <ele>440.617455</ele>
        <time>2021-11-01T20:24:09.000Z</time>
      </trkpt>
      <trkpt lat="38.203097" lon="-1.791863">
        <ele>440.830252</ele>
        <time>2021-11-01T20:24:20.000Z</time>
      </trkpt>
      <trkpt lat="38.203002" lon="-1.792409">
        <ele>441.214022</ele>
        <time>2021-11-01T20:24:32.000Z</time>
      </trkpt>
      <trkpt lat="38.202886" lon="-1.792782">
        <ele>441.489312</ele>
        <time>2021-11-01T20:24:43.000Z</time>
      </trkpt>
      <trkpt lat="38.202812" lon="-1.793081">
        <ele>441.704439</ele>
        <time>2021-11-01T20:24:54.000Z</time>
      </trkpt>
      <trkpt lat="38.202741" lon="-1.793493">
        <ele>441.964112</ele>
        <time>2021-11-01T20:25:06.000Z</time>
      </trkpt>
      <trkpt lat="38.202684" lon="-1.793642">
        <ele>442.061729</ele>
        <time>2021-11-01T20:25:17.000Z</time>
      </trkpt>
      <trkpt lat="38.202498" lon="-1.793943">
        <ele>442.287290</ele>
        <time>2021-11-01T20:25:28.000Z</time>
      </trkpt>
      <trkpt lat="38.202440" lon="-1.794122">
        <ele>442.401343</ele>
        <time>2021-11-01T20:25:40.000Z</time>
      </trkpt>
      <trkpt lat="38.202354" lon="-1.794741">
        <ele>442.771627</ele>
        <time>2021-11-01T20:25:51.000Z</time>
      </trkpt>
      <trkpt lat="38.202312" lon="-1.795483">
        <ele>443.320198</ele>
        <time>2021-11-01T20:26:03.000Z</time>
      </trkpt>
      <trkpt lat="38.202384" lon="-1.796290">
        <ele>444.475793</ele>
        <time>2021-11-01T20:26:14.000Z</time>
      </trkpt>
      <trkpt lat="38.202383" lon="-1.796402">
        <ele>444.635160</ele>
        <time>2021-11-01T20:26:25.000Z</time>
      </trkpt>
      <trkpt lat="38.202364" lon="-1.796459">
        <ele>444.723255</ele>
        <time>2021-11-01T20:26:37.000Z</time>
      </trkpt>
      <trkpt lat="38.202315" lon="-1.796498">
        <ele>444.827899</ele>
        <time>2021-11-01T20:26:48.000Z</time>
      </trkpt>
      <trkpt lat="38.202205" lon="-1.796514">
        <ele>445.028361</ele>
        <time>2021-11-01T20:27:00.000Z</time>
      </trkpt>
      <trkpt lat="38.201978" lon="-1.796602">
        <ele>445.458015</ele>
        <time>2021-11-01T20:27:11.000Z</time>
      </trkpt>
      <trkpt lat="38.201817" lon="-1.796686">
        <ele>445.773072</ele>
        <time>2021-11-01T20:27:23.000Z</time>
      </trkpt>
      <trkpt lat="38.201723" lon="-1.796757">
        <ele>445.970991</ele>
        <time>2021-11-01T20:27:34.000Z</time>
      </trkpt>
      <trkpt lat="38.201554" lon="-1.796967">
        <ele>446.398270</ele>
        <time>2021-11-01T20:27:45.000Z</time>
      </trkpt>
      <trkpt lat="38.201228" lon="-1.797506">
        <ele>447.327955</ele>
        <time>2021-11-01T20:27:57.000Z</time>
      </trkpt>
      <trkpt lat="38.201051" lon="-1.797701">
        <ele>447.735173</ele>
        <time>2021-11-01T20:28:08.000Z</time>
      </trkpt>
      <trkpt lat="38.200906" lon="-1.797807">
        <ele>448.026037</ele>
        <time>2021-11-01T20:28:20.000Z</time>
      </trkpt>
      <trkpt lat="38.200558" lon="-1.797938">
        <ele>448.657267</ele>
        <time>2021-11-01T20:28:31.000Z</time>
      </trkpt>
      <trkpt lat="38.199707" lon="-1.798119">
        <ele>450.349400</ele>
        <time>2021-11-01T20:28:43.000Z</time>
      </trkpt>
      <trkpt lat="38.199521" lon="-1.798175">
        <ele>450.781121</ele>
        <time>2021-11-01T20:28:54.000Z</time>
      </trkpt>
      <trkpt lat="38.199332" lon="-1.798252">
        <ele>451.229366</ele>
        <time>2021-11-01T20:29:06.000Z</time>
      </trkpt>
      <trkpt lat="38.199085" lon="-1.798401">
        <ele>451.846787</ele>
        <time>2021-11-01T20:29:17.000Z</time>
      </trkpt>
      <trkpt lat="38.198912" lon="-1.798469">
        <ele>452.255764</ele>
        <time>2021-11-01T20:29:29.000Z</time>
      </trkpt>
      <trkpt lat="38.198690" lon="-1.798520">
        <ele>452.765307</ele>
        <time>2021-11-01T20:29:40.000Z</time>
      </trkpt>
      <trkpt lat="38.198128" lon="-1.798584">
        <ele>454.017075</ele>
        <time>2021-11-01T20:29:52.000Z</time>
      </trkpt>
      <trkpt lat="38.197780" lon="-1.798694">
        <ele>454.787032</ele>
        <time>2021-11-01T20:30:03.000Z</time>
      </trkpt>
      <trkpt lat="38.197296" lon="-1.798810">
        <ele>455.844580</ele>
        <time>2021-11-01T20:30:15.000Z</time>
      </trkpt>
      <trkpt lat="38.196912" lon="-1.798977">
        <ele>456.715957</ele>
        <time>2021-11-01T20:30:26.000Z</time>
      </trkpt>
      <trkpt lat="38.196679" lon="-1.799029">
        <ele>457.223906</ele>
        <time>2021-11-01T20:30:38.000Z</time>
      </trkpt>
      <trkpt lat="38.196563" lon="-1.799017">
        <ele>457.478907</ele>
        <time>2021-11-01T20:30:50.000Z</time>
      </trkpt>
      <trkpt lat="38.196220" lon="-1.798905">
        <ele>458.360316</ele>
        <time>2021-11-01T20:31:01.000Z</time>
      </trkpt>
      <trkpt lat="38.195872" lon="-1.798841">
        <ele>459.235508</ele>
        <time>2021-11-01T20:31:13.000Z</time>
      </trkpt>
      <trkpt lat="38.195518" lon="-1.798699">
        <ele>460.159381</ele>
        <time>2021-11-01T20:31:24.000Z</time>
      </trkpt>
      <trkpt lat="38.195173" lon="-1.798606">
        <ele>461.037164</ele>
        <time>2021-11-01T20:31:36.000Z</time>
      </trkpt>
      <trkpt lat="38.194990" lon="-1.798594">
        <ele>461.493265</ele>
        <time>2021-11-01T20:31:48.000Z</time>
      </trkpt>
      <trkpt lat="38.194853" lon="-1.798623">
        <ele>461.838952</ele>
        <time>2021-11-01T20:31:59.000Z</time>
      </trkpt>
      <trkpt lat="38.194763" lon="-1.798666">
        <ele>462.074001</ele>
        <time>2021-11-01T20:32:11.000Z</time>
      </trkpt>
      <trkpt lat="38.194596" lon="-1.798797">
        <ele>462.549343</ele>
        <time>2021-11-01T20:32:22.000Z</time>
      </trkpt>
      <trkpt lat="38.194469" lon="-1.798993">
        <ele>463.033062</ele>
        <time>2021-11-01T20:32:34.000Z</time>
      </trkpt>
      <trkpt lat="38.194339" lon="-1.799389">
        <ele>463.850273</ele>
        <time>2021-11-01T20:32:46.000Z</time>
      </trkpt>
      <trkpt lat="38.194277" lon="-1.799688">
        <ele>464.439119</ele>
        <time>2021-11-01T20:32:57.000Z</time>
      </trkpt>
      <trkpt lat="38.194252" lon="-1.800113">
        <ele>465.250677</ele>
        <time>2021-11-01T20:33:09.000Z</time>
      </trkpt>
      <trkpt lat="38.194210" lon="-1.800275">
        <ele>465.575513</ele>
        <time>2021-11-01T20:33:21.000Z</time>
      </trkpt>
      <trkpt lat="38.194136" lon="-1.800467">
        <ele>465.982721</ele>
        <time>2021-11-01T20:33:32.000Z</time>
      </trkpt>
      <trkpt lat="38.193655" lon="-1.801258">
        <ele>467.411991</ele>
        <time>2021-11-01T20:33:44.000Z</time>
      </trkpt>
      <trkpt lat="38.193571" lon="-1.801358">
        <ele>467.608470</ele>
        <time>2021-11-01T20:33:56.000Z</time>
      </trkpt>
      <trkpt lat="38.193372" lon="-1.801525">
        <ele>468.015634</ele>
        <time>2021-11-01T20:34:07.000Z</time>
      </trkpt>
      <trkpt lat="38.193280" lon="-1.801624">
        <ele>468.221433</ele>
        <time>2021-11-01T20:34:19.000Z</time>
      </trkpt>
      <trkpt lat="38.192993" lon="-1.802070">
        <ele>468.995214</ele>
        <time>2021-11-01T20:34:31.000Z</time>
      </trkpt>
      <trkpt lat="38.192740" lon="-1.802380">
        <ele>469.542812</ele>
        <time>2021-11-01T20:34:42.000Z</time>
      </trkpt>
      <trkpt lat="38.192501" lon="-1.802782">
        <ele>470.075744</ele>
        <time>2021-11-01T20:34:54.000Z</time>
      </trkpt>
      <trkpt lat="38.192451" lon="-1.802991">
        <ele>470.306725</ele>
        <time>2021-11-01T20:35:06.000Z</time>
      </trkpt>
      <trkpt lat="38.192521" lon="-1.803456">
        <ele>470.807295</ele>
        <time>2021-11-01T20:35:18.000Z</time>
      </trkpt>
      <trkpt lat="38.192521" lon="-1.804123">
        <ele>471.512497</ele>
        <time>2021-11-01T20:35:29.000Z</time>
      </trkpt>
      <trkpt lat="38.192463" lon="-1.804520">
        <ele>471.942059</ele>
        <time>2021-11-01T20:35:41.000Z</time>
      </trkpt>
      <trkpt lat="38.192410" lon="-1.804696">
        <ele>472.144400</ele>
        <time>2021-11-01T20:35:53.000Z</time>
      </trkpt>
      <trkpt lat="38.192350" lon="-1.804821">
        <ele>472.301642</ele>
        <time>2021-11-01T20:36:05.000Z</time>
      </trkpt>
      <trkpt lat="38.192212" lon="-1.804997">
        <ele>472.568538</ele>
        <time>2021-11-01T20:36:17.000Z</time>
      </trkpt>
      <trkpt lat="38.192135" lon="-1.805033">
        <ele>472.680592</ele>
        <time>2021-11-01T20:36:28.000Z</time>
      </trkpt>
      <trkpt lat="38.191963" lon="-1.805068">
        <ele>472.918521</ele>
        <time>2021-11-01T20:36:40.000Z</time>
      </trkpt>
      <trkpt lat="38.191836" lon="-1.805137">
        <ele>473.107151</ele>
        <time>2021-11-01T20:36:52.000Z</time>
      </trkpt>
      <trkpt lat="38.191759" lon="-1.805200">
        <ele>473.232199</ele>
        <time>2021-11-01T20:37:04.000Z</time>
      </trkpt>
      <trkpt lat="38.191665" lon="-1.805322">
        <ele>473.415613</ele>
        <time>2021-11-01T20:37:15.000Z</time>
      </trkpt>
      <trkpt lat="38.191615" lon="-1.805419">
        <ele>473.540148</ele>
        <time>2021-11-01T20:37:27.000Z</time>
      </trkpt>
      <trkpt lat="38.191398" lon="-1.805962">
        <ele>474.194126</ele>
        <time>2021-11-01T20:37:39.000Z</time>
      </trkpt>
      <trkpt lat="38.190818" lon="-1.806665">
        <ele>474.385003</ele>
        <time>2021-11-01T20:37:51.000Z</time>
      </trkpt>
      <trkpt lat="38.190492" lon="-1.806973">
        <ele>474.468348</ele>
        <time>2021-11-01T20:38:03.000Z</time>
      </trkpt>
      <trkpt lat="38.189804" lon="-1.807543">
        <ele>474.565979</ele>
        <time>2021-11-01T20:38:15.000Z</time>
      </trkpt>
      <trkpt lat="38.189246" lon="-1.808098">
        <ele>474.468423</ele>
        <time>2021-11-01T20:38:26.000Z</time>
      </trkpt>
      <trkpt lat="38.189004" lon="-1.808275">
        <ele>474.429975</ele>
        <time>2021-11-01T20:38:38.000Z</time>
      </trkpt>
      <trkpt lat="38.188821" lon="-1.808436">
        <ele>474.399330</ele>
        <time>2021-11-01T20:38:50.000Z</time>
      </trkpt>
      <trkpt lat="38.188448" lon="-1.808895">
        <ele>474.160184</ele>
        <time>2021-11-01T20:39:02.000Z</time>
      </trkpt>
      <trkpt lat="38.188234" lon="-1.809240">
        <ele>473.689366</ele>
        <time>2021-11-01T20:39:14.000Z</time>
      </trkpt>
      <trkpt lat="38.188004" lon="-1.809472">
        <ele>473.289314</ele>
        <time>2021-11-01T20:39:26.000Z</time>
      </trkpt>
      <trkpt lat="38.188010" lon="-1.809492">
        <ele>473.266381</ele>
        <time>2021-11-01T20:39:38.000Z</time>
      </trkpt>
      <trkpt lat="38.188006" lon="-1.809481">
        <ele>473.253397</ele>
        <time>2021-11-01T20:39:50.000Z</time>
      </trkpt>
      <trkpt lat="38.188022" lon="-1.809487">
        <ele>473.230662</ele>
        <time>2021-11-01T20:40:02.000Z</time>
      </trkpt>
      <trkpt lat="38.187978" lon="-1.809545">
        <ele>473.144307</ele>
        <time>2021-11-01T20:40:14.000Z</time>
      </trkpt>
      <trkpt lat="38.187908" lon="-1.809697">
        <ele>472.955581</ele>
        <time>2021-11-01T20:40:25.000Z</time>
      </trkpt>
      <trkpt lat="38.187746" lon="-1.810108">
        <ele>472.463023</ele>
        <time>2021-11-01T20:40:37.000Z</time>
      </trkpt>
      <trkpt lat="38.187716" lon="-1.810222">
        <ele>472.334234</ele>
        <time>2021-11-01T20:40:49.000Z</time>
      </trkpt>
      <trkpt lat="38.187698" lon="-1.810405">
        <ele>472.136661</ele>
        <time>2021-11-01T20:41:01.000Z</time>
      </trkpt>
      <trkpt lat="38.187747" lon="-1.810798">
        <ele>471.718515</ele>
        <time>2021-11-01T20:41:13.000Z</time>
      </trkpt>
      <trkpt lat="38.187750" lon="-1.810944">
        <ele>471.568937</ele>
        <time>2021-11-01T20:41:25.000Z</time>
      </trkpt>
      <trkpt lat="38.187734" lon="-1.811160">
        <ele>471.346740</ele>
        <time>2021-11-01T20:41:37.000Z</time>
      </trkpt>
      <trkpt lat="38.187704" lon="-1.811298">
        <ele>471.200101</ele>
        <time>2021-11-01T20:41:49.000Z</time>
      </trkpt>
      <trkpt lat="38.187491" lon="-1.811923">
        <ele>470.502424</ele>
        <time>2021-11-01T20:42:01.000Z</time>
      </trkpt>
      <trkpt lat="38.187421" lon="-1.812088">
        <ele>470.310394</ele>
        <time>2021-11-01T20:42:13.000Z</time>
      </trkpt>
      <trkpt lat="38.187151" lon="-1.812418">
        <ele>469.822544</ele>
        <time>2021-11-01T20:42:25.000Z</time>
      </trkpt>
      <trkpt lat="38.187070" lon="-1.812585">
        <ele>469.621566</ele>
        <time>2021-11-01T20:42:37.000Z</time>
      </trkpt>
      <trkpt lat="38.187049" lon="-1.812671">
        <ele>469.560986</ele>
        <time>2021-11-01T20:42:49.000Z</time>
      </trkpt>
      <trkpt lat="38.187067" lon="-1.812830">
        <ele>469.630802</ele>
        <time>2021-11-01T20:43:01.000Z</time>
      </trkpt>
      <trkpt lat="38.187091" lon="-1.812901">
        <ele>469.664391</ele>
        <time>2021-11-01T20:43:13.000Z</time>
      </trkpt>
      <trkpt lat="38.187175" lon="-1.813001">
        <ele>469.728000</ele>
        <time>2021-11-01T20:43:25.000Z</time>
      </trkpt>
      <trkpt lat="38.187333" lon="-1.813111">
        <ele>469.827589</ele>
        <time>2021-11-01T20:43:37.000Z</time>
      </trkpt>
      <trkpt lat="38.187363" lon="-1.813188">
        <ele>469.864939</ele>
        <time>2021-11-01T20:43:49.000Z</time>
      </trkpt>
      <trkpt lat="38.187087" lon="-1.813263">
        <ele>470.020992</ele>
        <time>2021-11-01T20:44:01.000Z</time>
      </trkpt>
      <trkpt lat="38.186927" lon="-1.813345">
        <ele>470.116370</ele>
        <time>2021-11-01T20:44:13.000Z</time>
      </trkpt>
      <trkpt lat="38.186762" lon="-1.813473">
        <ele>470.223227</ele>
        <time>2021-11-01T20:44:25.000Z</time>
      </trkpt>
      <trkpt lat="38.186255" lon="-1.813944">
        <ele>470.572600</ele>
        <time>2021-11-01T20:44:37.000Z</time>
      </trkpt>
      <trkpt lat="38.184993" lon="-1.815169">
        <ele>471.531833</ele>
        <time>2021-11-01T20:44:49.000Z</time>
      </trkpt>
      <trkpt lat="38.184592" lon="-1.815586">
        <ele>472.143341</ele>
        <time>2021-11-01T20:45:01.000Z</time>
      </trkpt>
      <trkpt lat="38.184048" lon="-1.816085">
        <ele>473.119825</ele>
        <time>2021-11-01T20:45:13.000Z</time>
      </trkpt>
      <trkpt lat="38.183735" lon="-1.816338">
        <ele>473.659762</ele>
        <time>2021-11-01T20:45:25.000Z</time>
      </trkpt>
      <trkpt lat="38.183460" lon="-1.816457">
        <ele>474.082695</ele>
        <time>2021-11-01T20:45:38.000Z</time>
      </trkpt>
      <trkpt lat="38.182865" lon="-1.816642">
        <ele>475.189474</ele>
        <time>2021-11-01T20:45:50.000Z</time>
      </trkpt>
      <trkpt lat="38.182399" lon="-1.816865">
        <ele>476.130009</ele>
        <time>2021-11-01T20:46:02.000Z</time>
      </trkpt>
      <trkpt lat="38.182095" lon="-1.817038">
        <ele>476.759131</ele>
        <time>2021-11-01T20:46:14.000Z</time>
      </trkpt>
      <trkpt lat="38.181312" lon="-1.817426">
        <ele>478.515869</ele>
        <time>2021-11-01T20:46:26.000Z</time>
      </trkpt>
      <trkpt lat="38.180934" lon="-1.817565">
        <ele>479.439789</ele>
        <time>2021-11-01T20:46:38.000Z</time>
      </trkpt>
      <trkpt lat="38.180623" lon="-1.817641">
        <ele>480.183400</ele>
        <time>2021-11-01T20:46:51.000Z</time>
      </trkpt>
      <trkpt lat="38.179787" lon="-1.817888">
        <ele>482.356516</ele>
        <time>2021-11-01T20:47:03.000Z</time>
      </trkpt>
      <trkpt lat="38.179567" lon="-1.817979">
        <ele>483.163060</ele>
        <time>2021-11-01T20:47:15.000Z</time>
      </trkpt>
      <trkpt lat="38.179447" lon="-1.818070">
        <ele>483.650127</ele>
        <time>2021-11-01T20:47:27.000Z</time>
      </trkpt>
      <trkpt lat="38.179337" lon="-1.818190">
        <ele>484.155337</ele>
        <time>2021-11-01T20:47:40.000Z</time>
      </trkpt>
      <trkpt lat="38.178724" lon="-1.818945">
        <ele>487.130075</ele>
        <time>2021-11-01T20:47:52.000Z</time>
      </trkpt>
      <trkpt lat="38.178563" lon="-1.819062">
        <ele>487.776524</ele>
        <time>2021-11-01T20:48:04.000Z</time>
      </trkpt>
      <trkpt lat="38.178469" lon="-1.819089">
        <ele>488.112500</ele>
        <time>2021-11-01T20:48:16.000Z</time>
      </trkpt>
      <trkpt lat="38.178375" lon="-1.819080">
        <ele>488.357604</ele>
        <time>2021-11-01T20:48:29.000Z</time>
      </trkpt>
      <trkpt lat="38.176788" lon="-1.818654">
        <ele>492.422986</ele>
        <time>2021-11-01T20:48:41.000Z</time>
      </trkpt>
      <trkpt lat="38.176364" lon="-1.818551">
        <ele>493.697436</ele>
        <time>2021-11-01T20:48:53.000Z</time>
      </trkpt>
      <trkpt lat="38.176235" lon="-1.818545">
        <ele>494.094025</ele>
        <time>2021-11-01T20:49:06.000Z</time>
      </trkpt>
      <trkpt lat="38.176063" lon="-1.818568">
        <ele>494.625370</ele>
        <time>2021-11-01T20:49:18.000Z</time>
      </trkpt>
      <trkpt lat="38.175583" lon="-1.818676">
        <ele>496.122955</ele>
        <time>2021-11-01T20:49:30.000Z</time>
      </trkpt>
      <trkpt lat="38.174264" lon="-1.819004">
        <ele>499.807807</ele>
        <time>2021-11-01T20:49:43.000Z</time>
      </trkpt>
      <trkpt lat="38.173433" lon="-1.819179">
        <ele>501.841352</ele>
        <time>2021-11-01T20:49:55.000Z</time>
      </trkpt>
      <trkpt lat="38.173148" lon="-1.819271">
        <ele>502.557759</ele>
        <time>2021-11-01T20:50:07.000Z</time>
      </trkpt>
      <trkpt lat="38.172782" lon="-1.819425">
        <ele>503.686361</ele>
        <time>2021-11-01T20:50:20.000Z</time>
      </trkpt>
      <trkpt lat="38.172480" lon="-1.819572">
        <ele>504.633019</ele>
        <time>2021-11-01T20:50:32.000Z</time>
      </trkpt>
      <trkpt lat="38.171176" lon="-1.820250">
        <ele>509.051990</ele>
        <time>2021-11-01T20:50:45.000Z</time>
      </trkpt>
      <trkpt lat="38.170841" lon="-1.820407">
        <ele>510.414469</ele>
        <time>2021-11-01T20:50:57.000Z</time>
      </trkpt>
      <trkpt lat="38.170658" lon="-1.820529">
        <ele>511.202963</ele>
        <time>2021-11-01T20:51:10.000Z</time>
      </trkpt>
      <trkpt lat="38.169912" lon="-1.820913">
        <ele>514.274214</ele>
        <time>2021-11-01T20:51:22.000Z</time>
      </trkpt>
      <trkpt lat="38.169595" lon="-1.821102">
        <ele>515.585040</ele>
        <time>2021-11-01T20:51:35.000Z</time>
      </trkpt>
      <trkpt lat="38.168943" lon="-1.821550">
        <ele>518.338731</ele>
        <time>2021-11-01T20:51:47.000Z</time>
      </trkpt>
      <trkpt lat="38.168465" lon="-1.821851">
        <ele>520.320697</ele>
        <time>2021-11-01T20:52:00.000Z</time>
      </trkpt>
      <trkpt lat="38.168099" lon="-1.822121">
        <ele>521.730522</ele>
        <time>2021-11-01T20:52:12.000Z</time>
      </trkpt>
      <trkpt lat="38.167601" lon="-1.822458">
        <ele>523.217628</ele>
        <time>2021-11-01T20:52:25.000Z</time>
      </trkpt>
      <trkpt lat="38.166212" lon="-1.823358">
        <ele>526.850601</ele>
        <time>2021-11-01T20:52:37.000Z</time>
      </trkpt>
      <trkpt lat="38.163597" lon="-1.824678">
        <ele>532.841944</ele>
        <time>2021-11-01T20:52:50.000Z</time>
      </trkpt>
      <trkpt lat="38.163469" lon="-1.824825">
        <ele>533.285426</ele>
        <time>2021-11-01T20:53:03.000Z</time>
      </trkpt>
      <trkpt lat="38.163062" lon="-1.825506">
        <ele>534.660927</ele>
        <time>2021-11-01T20:53:15.000Z</time>
      </trkpt>
      <trkpt lat="38.161056" lon="-1.829013">
        <ele>541.514496</ele>
        <time>2021-11-01T20:53:28.000Z</time>
      </trkpt>
      <trkpt lat="38.160933" lon="-1.829180">
        <ele>542.551596</ele>
        <time>2021-11-01T20:53:41.000Z</time>
      </trkpt>
      <trkpt lat="38.160789" lon="-1.829331">
        <ele>543.627404</ele>
        <time>2021-11-01T20:53:54.000Z</time>
      </trkpt>
      <trkpt lat="38.160176" lon="-1.829849">
        <ele>547.869749</ele>
        <time>2021-11-01T20:54:07.000Z</time>
      </trkpt>
      <trkpt lat="38.160033" lon="-1.829994">
        <ele>548.923957</ele>
        <time>2021-11-01T20:54:19.000Z</time>
      </trkpt>
      <trkpt lat="38.159903" lon="-1.830149">
        <ele>549.935411</ele>
        <time>2021-11-01T20:54:32.000Z</time>
      </trkpt>
      <trkpt lat="38.159683" lon="-1.830477">
        <ele>551.493781</ele>
        <time>2021-11-01T20:54:45.000Z</time>
      </trkpt>
      <trkpt lat="38.159569" lon="-1.830704">
        <ele>552.467391</ele>
        <time>2021-11-01T20:54:58.000Z</time>
      </trkpt>
      <trkpt lat="38.159010" lon="-1.832009">
        <ele>557.839110</ele>
        <time>2021-11-01T20:55:11.000Z</time>
      </trkpt>
      <trkpt lat="38.158641" lon="-1.832811">
        <ele>559.969300</ele>
        <time>2021-11-01T20:55:24.000Z</time>
      </trkpt>
      <trkpt lat="38.158212" lon="-1.833859">
        <ele>562.523009</ele>
        <time>2021-11-01T20:55:37.000Z</time>
      </trkpt>
      <trkpt lat="38.157734" lon="-1.834876">
        <ele>565.391109</ele>
        <time>2021-11-01T20:55:49.000Z</time>
      </trkpt>
      <trkpt lat="38.157376" lon="-1.835518">
        <ele>567.353844</ele>
        <time>2021-11-01T20:56:02.000Z</time>
      </trkpt>
      <trkpt lat="38.156810" lon="-1.836388">
        <ele>570.603877</ele>
        <time>2021-11-01T20:56:15.000Z</time>
      </trkpt>
      <trkpt lat="38.156658" lon="-1.836661">
        <ele>571.700642</ele>
        <time>2021-11-01T20:56:28.000Z</time>
      </trkpt>
      <trkpt lat="38.156364" lon="-1.837115">
        <ele>573.629010</ele>
        <time>2021-11-01T20:56:41.000Z</time>
      </trkpt>
      <trkpt lat="38.155860" lon="-1.837827">
        <ele>576.526211</ele>
        <time>2021-11-01T20:56:54.000Z</time>
      </trkpt>
      <trkpt lat="38.155217" lon="-1.838618">
        <ele>578.360259</ele>
        <time>2021-11-01T20:57:07.000Z</time>
      </trkpt>
      <trkpt lat="38.153668" lon="-1.840337">
        <ele>582.124101</ele>
        <time>2021-11-01T20:57:20.000Z</time>
      </trkpt>
      <trkpt lat="38.152895" lon="-1.841257">
        <ele>584.839186</ele>
        <time>2021-11-01T20:57:34.000Z</time>
      </trkpt>
      <trkpt lat="38.152817" lon="-1.841374">
        <ele>585.254437</ele>
        <time>2021-11-01T20:57:47.000Z</time>
      </trkpt>
      <trkpt lat="38.152615" lon="-1.841771">
        <ele>586.534563</ele>
        <time>2021-11-01T20:58:00.000Z</time>
      </trkpt>
      <trkpt lat="38.151877" lon="-1.843470">
        <ele>591.502573</ele>
        <time>2021-11-01T20:58:13.000Z</time>
      </trkpt>
      <trkpt lat="38.151454" lon="-1.844181">
        <ele>593.647250</ele>
        <time>2021-11-01T20:58:26.000Z</time>
      </trkpt>
      <trkpt lat="38.151229" lon="-1.844505">
        <ele>594.687057</ele>
        <time>2021-11-01T20:58:39.000Z</time>
      </trkpt>
      <trkpt lat="38.151074" lon="-1.844666">
        <ele>595.401116</ele>
        <time>2021-11-01T20:58:52.000Z</time>
      </trkpt>
      <trkpt lat="38.150771" lon="-1.844923">
        <ele>596.710880</ele>
        <time>2021-11-01T20:59:06.000Z</time>
      </trkpt>
      <trkpt lat="38.150318" lon="-1.845215">
        <ele>598.537255</ele>
        <time>2021-11-01T20:59:19.000Z</time>
      </trkpt>
      <trkpt lat="38.149398" lon="-1.845648">
        <ele>602.823731</ele>
        <time>2021-11-01T20:59:32.000Z</time>
      </trkpt>
      <trkpt lat="38.148846" lon="-1.845858">
        <ele>606.686940</ele>
        <time>2021-11-01T20:59:45.000Z</time>
      </trkpt>
      <trkpt lat="38.148727" lon="-1.845930">
        <ele>607.570541</ele>
        <time>2021-11-01T20:59:59.000Z</time>
      </trkpt>
      <trkpt lat="38.148398" lon="-1.846201">
        <ele>610.198840</ele>
        <time>2021-11-01T21:00:12.000Z</time>
      </trkpt>
      <trkpt lat="38.148316" lon="-1.846219">
        <ele>610.756777</ele>
        <time>2021-11-01T21:00:25.000Z</time>
      </trkpt>
      <trkpt lat="38.148085" lon="-1.846216">
        <ele>612.305696</ele>
        <time>2021-11-01T21:00:38.000Z</time>
      </trkpt>
      <trkpt lat="38.148070" lon="-1.846205">
        <ele>612.421797</ele>
        <time>2021-11-01T21:00:52.000Z</time>
      </trkpt>
      <trkpt lat="38.148068" lon="-1.846220">
        <ele>612.502018</ele>
        <time>2021-11-01T21:01:05.000Z</time>
      </trkpt>
      <trkpt lat="38.148051" lon="-1.846218">
        <ele>612.616489</ele>
        <time>2021-11-01T21:01:18.000Z</time>
      </trkpt>
      <trkpt lat="38.148061" lon="-1.846237">
        <ele>612.737040</ele>
        <time>2021-11-01T21:01:32.000Z</time>
      </trkpt>
      <trkpt lat="38.148047" lon="-1.846255">
        <ele>612.870530</ele>
        <time>2021-11-01T21:01:45.000Z</time>
      </trkpt>
      <trkpt lat="38.147989" lon="-1.846287">
        <ele>613.294786</ele>
        <time>2021-11-01T21:01:58.000Z</time>
      </trkpt>
      <trkpt lat="38.147744" lon="-1.846315">
        <ele>614.956045</ele>
        <time>2021-11-01T21:02:11.000Z</time>
      </trkpt>
      <trkpt lat="38.147482" lon="-1.846394">
        <ele>616.774509</ele>
        <time>2021-11-01T21:02:25.000Z</time>
      </trkpt>
      <trkpt lat="38.147378" lon="-1.846457">
        <ele>617.552493</ele>
        <time>2021-11-01T21:02:38.000Z</time>
      </trkpt>
      <trkpt lat="38.147253" lon="-1.846598">
        <ele>618.680956</ele>
        <time>2021-11-01T21:02:51.000Z</time>
      </trkpt>
      <trkpt lat="38.147049" lon="-1.846755">
        <ele>620.291343</ele>
        <time>2021-11-01T21:03:05.000Z</time>
      </trkpt>
      <trkpt lat="38.146964" lon="-1.846806">
        <ele>620.926080</ele>
        <time>2021-11-01T21:03:18.000Z</time>
      </trkpt>
      <trkpt lat="38.146854" lon="-1.846845">
        <ele>621.697294</ele>
        <time>2021-11-01T21:03:31.000Z</time>
      </trkpt>
      <trkpt lat="38.146599" lon="-1.846864">
        <ele>623.422372</ele>
        <time>2021-11-01T21:03:45.000Z</time>
      </trkpt>
      <trkpt lat="38.146087" lon="-1.846849">
        <ele>626.098778</ele>
        <time>2021-11-01T21:03:58.000Z</time>
      </trkpt>
      <trkpt lat="38.145624" lon="-1.846891">
        <ele>627.584323</ele>
        <time>2021-11-01T21:04:11.000Z</time>
      </trkpt>
      <trkpt lat="38.145445" lon="-1.846960">
        <ele>628.182937</ele>
        <time>2021-11-01T21:04:25.000Z</time>
      </trkpt>
      <trkpt lat="38.145240" lon="-1.847108">
        <ele>628.937391</ele>
        <time>2021-11-01T21:04:38.000Z</time>
      </trkpt>
      <trkpt lat="38.145169" lon="-1.847182">
        <ele>629.231198</ele>
        <time>2021-11-01T21:04:51.000Z</time>
      </trkpt>
      <trkpt lat="38.145046" lon="-1.847342">
        <ele>629.794345</ele>
        <time>2021-11-01T21:05:05.000Z</time>
      </trkpt>
      <trkpt lat="38.144823" lon="-1.847707">
        <ele>630.957672</ele>
        <time>2021-11-01T21:05:18.000Z</time>
      </trkpt>
      <trkpt lat="38.144473" lon="-1.848093">
        <ele>631.859295</ele>
        <time>2021-11-01T21:05:31.000Z</time>
      </trkpt>
      <trkpt lat="38.143998" lon="-1.848500">
        <ele>632.866556</ele>
        <time>2021-11-01T21:05:45.000Z</time>
      </trkpt>
      <trkpt lat="38.143835" lon="-1.848570">
        <ele>633.169104</ele>
        <time>2021-11-01T21:05:58.000Z</time>
      </trkpt>
      <trkpt lat="38.143706" lon="-1.848582">
        <ele>633.396562</ele>
        <time>2021-11-01T21:06:12.000Z</time>
      </trkpt>
      <trkpt lat="38.143449" lon="-1.848409">
        <ele>633.907932</ele>
        <time>2021-11-01T21:06:25.000Z</time>
      </trkpt>
      <trkpt lat="38.143097" lon="-1.848128">
        <ele>634.391584</ele>
        <time>2021-11-01T21:06:38.000Z</time>
      </trkpt>
      <trkpt lat="38.142402" lon="-1.847534">
        <ele>634.745095</ele>
        <time>2021-11-01T21:06:52.000Z</time>
      </trkpt>
      <trkpt lat="38.141984" lon="-1.847127">
        <ele>634.967348</ele>
        <time>2021-11-01T21:07:05.000Z</time>
      </trkpt>
      <trkpt lat="38.141374" lon="-1.846574">
        <ele>635.130851</ele>
        <time>2021-11-01T21:07:19.000Z</time>
      </trkpt>
      <trkpt lat="38.141190" lon="-1.846368">
        <ele>635.159360</ele>
        <time>2021-11-01T21:07:32.000Z</time>
      </trkpt>
      <trkpt lat="38.140638" lon="-1.845598">
        <ele>635.254648</ele>
        <time>2021-11-01T21:07:46.000Z</time>
      </trkpt>
      <trkpt lat="38.140459" lon="-1.845377">
        <ele>635.276014</ele>
        <time>2021-11-01T21:07:59.000Z</time>
      </trkpt>
      <trkpt lat="38.140317" lon="-1.845244">
        <ele>635.205927</ele>
        <time>2021-11-01T21:08:13.000Z</time>
      </trkpt>
      <trkpt lat="38.139900" lon="-1.845003">
        <ele>635.023900</ele>
        <time>2021-11-01T21:08:26.000Z</time>
      </trkpt>
      <trkpt lat="38.139239" lon="-1.844716">
        <ele>634.746332</ele>
        <time>2021-11-01T21:08:40.000Z</time>
      </trkpt>
      <trkpt lat="38.138771" lon="-1.844589">
        <ele>634.545895</ele>
        <time>2021-11-01T21:08:53.000Z</time>
      </trkpt>
      <trkpt lat="38.137674" lon="-1.844420">
        <ele>633.696975</ele>
        <time>2021-11-01T21:09:07.000Z</time>
      </trkpt>
      <trkpt lat="38.137515" lon="-1.844352">
        <ele>633.568099</ele>
        <time>2021-11-01T21:09:21.000Z</time>
      </trkpt>
      <trkpt lat="38.137115" lon="-1.843996">
        <ele>633.192995</ele>
        <time>2021-11-01T21:09:34.000Z</time>
      </trkpt>
      <trkpt lat="38.136725" lon="-1.843610">
        <ele>631.766210</ele>
        <time>2021-11-01T21:09:48.000Z</time>
      </trkpt>
      <trkpt lat="38.136641" lon="-1.843547">
        <ele>631.480444</ele>
        <time>2021-11-01T21:10:02.000Z</time>
      </trkpt>
      <trkpt lat="38.136461" lon="-1.843450">
        <ele>630.907596</ele>
        <time>2021-11-01T21:10:15.000Z</time>
      </trkpt>
      <trkpt lat="38.136100" lon="-1.843324">
        <ele>629.810678</ele>
        <time>2021-11-01T21:10:29.000Z</time>
      </trkpt>
      <trkpt lat="38.135942" lon="-1.843235">
        <ele>629.304311</ele>
        <time>2021-11-01T21:10:42.000Z</time>
      </trkpt>
      <trkpt lat="38.135795" lon="-1.843028">
        <ele>628.661561</ele>
        <time>2021-11-01T21:10:56.000Z</time>
      </trkpt>
      <trkpt lat="38.135638" lon="-1.842856">
        <ele>628.054296</ele>
        <time>2021-11-01T21:11:10.000Z</time>
      </trkpt>
      <trkpt lat="38.135520" lon="-1.842679">
        <ele>627.308602</ele>
        <time>2021-11-01T21:11:23.000Z</time>
      </trkpt>
      <trkpt lat="38.135366" lon="-1.842490">
        <ele>626.346953</ele>
        <time>2021-11-01T21:11:37.000Z</time>
      </trkpt>
      <trkpt lat="38.135010" lon="-1.842203">
        <ele>624.453088</ele>
        <time>2021-11-01T21:11:51.000Z</time>
      </trkpt>
      <trkpt lat="38.134808" lon="-1.841982">
        <ele>623.255786</ele>
        <time>2021-11-01T21:12:04.000Z</time>
      </trkpt>
      <trkpt lat="38.134678" lon="-1.841876">
        <ele>622.561932</ele>
        <time>2021-11-01T21:12:18.000Z</time>
      </trkpt>
      <trkpt lat="38.134461" lon="-1.841650">
        <ele>621.301650</ele>
        <time>2021-11-01T21:12:32.000Z</time>
      </trkpt>
      <trkpt lat="38.134084" lon="-1.841310">
        <ele>619.143711</ele>
        <time>2021-11-01T21:12:45.000Z</time>
      </trkpt>
      <trkpt lat="38.133767" lon="-1.840960">
        <ele>617.005711</ele>
        <time>2021-11-01T21:12:59.000Z</time>
      </trkpt>
      <trkpt lat="38.133743" lon="-1.840958">
        <ele>616.883235</ele>
        <time>2021-11-01T21:13:13.000Z</time>
      </trkpt>
      <trkpt lat="38.133710" lon="-1.840987">
        <ele>616.678954</ele>
        <time>2021-11-01T21:13:27.000Z</time>
      </trkpt>
      <trkpt lat="38.133737" lon="-1.841117">
        <ele>616.140405</ele>
        <time>2021-11-01T21:13:40.000Z</time>
      </trkpt>
      <trkpt lat="38.133667" lon="-1.841262">
        <ele>615.458958</ele>
        <time>2021-11-01T21:13:54.000Z</time>
      </trkpt>
      <trkpt lat="38.133592" lon="-1.841317">
        <ele>615.018059</ele>
        <time>2021-11-01T21:14:08.000Z</time>
      </trkpt>
      <trkpt lat="38.133484" lon="-1.841355">
        <ele>614.447425</ele>
        <time>2021-11-01T21:14:21.000Z</time>
      </trkpt>
      <trkpt lat="38.133406" lon="-1.841310">
        <ele>614.011248</ele>
        <time>2021-11-01T21:14:35.000Z</time>
      </trkpt>
      <trkpt lat="38.133260" lon="-1.841190">
        <ele>613.125942</ele>
        <time>2021-11-01T21:14:49.000Z</time>
      </trkpt>
      <trkpt lat="38.133021" lon="-1.840951">
        <ele>611.577520</ele>
        <time>2021-11-01T21:15:03.000Z</time>
      </trkpt>
      <trkpt lat="38.132800" lon="-1.840813">
        <ele>610.540432</ele>
        <time>2021-11-01T21:15:16.000Z</time>
      </trkpt>
      <trkpt lat="38.132325" lon="-1.840660">
        <ele>609.583824</ele>
        <time>2021-11-01T21:15:30.000Z</time>
      </trkpt>
      <trkpt lat="38.132223" lon="-1.840649">
        <ele>609.383982</ele>
        <time>2021-11-01T21:15:44.000Z</time>
      </trkpt>
      <trkpt lat="38.132108" lon="-1.840662">
        <ele>609.158590</ele>
        <time>2021-11-01T21:15:58.000Z</time>
      </trkpt>
      <trkpt lat="38.131834" lon="-1.840807">
        <ele>608.579187</ele>
        <time>2021-11-01T21:16:11.000Z</time>
      </trkpt>
      <trkpt lat="38.131637" lon="-1.840947">
        <ele>608.138588</ele>
        <time>2021-11-01T21:16:25.000Z</time>
      </trkpt>
      <trkpt lat="38.131535" lon="-1.841086">
        <ele>607.846676</ele>
        <time>2021-11-01T21:16:39.000Z</time>
      </trkpt>
      <trkpt lat="38.131427" lon="-1.841352">
        <ele>607.386998</ele>
        <time>2021-11-01T21:16:53.000Z</time>
      </trkpt>
      <trkpt lat="38.131280" lon="-1.841599">
        <ele>606.986755</ele>
        <time>2021-11-01T21:17:07.000Z</time>
      </trkpt>
      <trkpt lat="38.130963" lon="-1.841809">
        <ele>606.497313</ele>
        <time>2021-11-01T21:17:20.000Z</time>
      </trkpt>
      <trkpt lat="38.130852" lon="-1.841913">
        <ele>606.308511</ele>
        <time>2021-11-01T21:17:34.000Z</time>
      </trkpt>
      <trkpt lat="38.130486" lon="-1.842573">
        <ele>605.438769</ele>
        <time>2021-11-01T21:17:48.000Z</time>
      </trkpt>
      <trkpt lat="38.130374" lon="-1.842864">
        <ele>605.089842</ele>
        <time>2021-11-01T21:18:02.000Z</time>
      </trkpt>
      <trkpt lat="38.130314" lon="-1.842958">
        <ele>604.959460</ele>
        <time>2021-11-01T21:18:16.000Z</time>
      </trkpt>
      <trkpt lat="38.130274" lon="-1.842982">
        <ele>604.898897</ele>
        <time>2021-11-01T21:18:29.000Z</time>
      </trkpt>
      <trkpt lat="38.130176" lon="-1.842970">
        <ele>604.764091</ele>
        <time>2021-11-01T21:18:43.000Z</time>
      </trkpt>
      <trkpt lat="38.129751" lon="-1.842722">
        <ele>603.866138</ele>
        <time>2021-11-01T21:18:57.000Z</time>
      </trkpt>
      <trkpt lat="38.129618" lon="-1.842666">
        <ele>603.588677</ele>
        <time>2021-11-01T21:19:11.000Z</time>
      </trkpt>
      <trkpt lat="38.129431" lon="-1.842618">
        <ele>603.210872</ele>
        <time>2021-11-01T21:19:25.000Z</time>
      </trkpt>
      <trkpt lat="38.129338" lon="-1.842569">
        <ele>603.011505</ele>
        <time>2021-11-01T21:19:39.000Z</time>
      </trkpt>
      <trkpt lat="38.129258" lon="-1.842481">
        <ele>602.801998</ele>
        <time>2021-11-01T21:19:53.000Z</time>
      </trkpt>
      <trkpt lat="38.129205" lon="-1.842379">
        <ele>602.611565</ele>
        <time>2021-11-01T21:20:06.000Z</time>
      </trkpt>
      <trkpt lat="38.129129" lon="-1.842126">
        <ele>602.189679</ele>
        <time>2021-11-01T21:20:20.000Z</time>
      </trkpt>
      <trkpt lat="38.129110" lon="-1.841606">
        <ele>601.378744</ele>
        <time>2021-11-01T21:20:34.000Z</time>
      </trkpt>
      <trkpt lat="38.129149" lon="-1.841281">
        <ele>601.024932</ele>
        <time>2021-11-01T21:20:48.000Z</time>
      </trkpt>
      <trkpt lat="38.129122" lon="-1.841158">
        <ele>600.941610</ele>
        <time>2021-11-01T21:21:02.000Z</time>
      </trkpt>
      <trkpt lat="38.128795" lon="-1.840507">
        <ele>600.437630</ele>
        <time>2021-11-01T21:21:16.000Z</time>
      </trkpt>
      <trkpt lat="38.127978" lon="-1.838773">
        <ele>598.847959</ele>
        <time>2021-11-01T21:21:30.000Z</time>
      </trkpt>
      <trkpt lat="38.127885" lon="-1.838507">
        <ele>598.560664</ele>
        <time>2021-11-01T21:21:44.000Z</time>
      </trkpt>
      <trkpt lat="38.127837" lon="-1.838198">
        <ele>598.249802</ele>
        <time>2021-11-01T21:21:58.000Z</time>
      </trkpt>
      <trkpt lat="38.127819" lon="-1.837398">
        <ele>597.459907</ele>
        <time>2021-11-01T21:22:12.000Z</time>
      </trkpt>
      <trkpt lat="38.127763" lon="-1.837116">
        <ele>597.217228</ele>
        <time>2021-11-01T21:22:26.000Z</time>
      </trkpt>
      <trkpt lat="38.127671" lon="-1.836970">
        <ele>597.070258</ele>
        <time>2021-11-01T21:22:40.000Z</time>
      </trkpt>
      <trkpt lat="38.127504" lon="-1.836817">
        <ele>596.864665</ele>
        <time>2021-11-01T21:22:54.000Z</time>
      </trkpt>
      <trkpt lat="38.126674" lon="-1.836331">
        <ele>595.951990</ele>
        <time>2021-11-01T21:23:08.000Z</time>
      </trkpt>
      <trkpt lat="38.126574" lon="-1.836280">
        <ele>595.844377</ele>
        <time>2021-11-01T21:23:22.000Z</time>
      </trkpt>
      <trkpt lat="38.126470" lon="-1.836250">
        <ele>595.737866</ele>
        <time>2021-11-01T21:23:36.000Z</time>
      </trkpt>
      <trkpt lat="38.126286" lon="-1.836228">
        <ele>595.596478</ele>
        <time>2021-11-01T21:23:50.000Z</time>
      </trkpt>
      <trkpt lat="38.125991" lon="-1.836244">
        <ele>595.614268</ele>
        <time>2021-11-01T21:24:04.000Z</time>
      </trkpt>
      <trkpt lat="38.125912" lon="-1.836221">
        <ele>595.619151</ele>
        <time>2021-11-01T21:24:18.000Z</time>
      </trkpt>
      <trkpt lat="38.125817" lon="-1.836106">
        <ele>595.627055</ele>
        <time>2021-11-01T21:24:32.000Z</time>
      </trkpt>
      <trkpt lat="38.125701" lon="-1.835864">
        <ele>595.640486</ele>
        <time>2021-11-01T21:24:46.000Z</time>
      </trkpt>
      <trkpt lat="38.125632" lon="-1.835789">
        <ele>595.645956</ele>
        <time>2021-11-01T21:25:00.000Z</time>
      </trkpt>
      <trkpt lat="38.125590" lon="-1.835769">
        <ele>595.648658</ele>
        <time>2021-11-01T21:25:14.000Z</time>
      </trkpt>
      <trkpt lat="38.125443" lon="-1.835732">
        <ele>595.657687</ele>
        <time>2021-11-01T21:25:28.000Z</time>
      </trkpt>
      <trkpt lat="38.125010" lon="-1.835692">
        <ele>595.683844</ele>
        <time>2021-11-01T21:25:42.000Z</time>
      </trkpt>
      <trkpt lat="38.124531" lon="-1.835605">
        <ele>595.941895</ele>
        <time>2021-11-01T21:25:56.000Z</time>
      </trkpt>
      <trkpt lat="38.124411" lon="-1.835565">
        <ele>596.110654</ele>
        <time>2021-11-01T21:26:10.000Z</time>
      </trkpt>
      <trkpt lat="38.124206" lon="-1.835378">
        <ele>596.453893</ele>
        <time>2021-11-01T21:26:24.000Z</time>
      </trkpt>
      <trkpt lat="38.123917" lon="-1.835010">
        <ele>597.010347</ele>
        <time>2021-11-01T21:26:38.000Z</time>
      </trkpt>
      <trkpt lat="38.123711" lon="-1.834843">
        <ele>597.342711</ele>
        <time>2021-11-01T21:26:52.000Z</time>
      </trkpt>
      <trkpt lat="38.123562" lon="-1.834778">
        <ele>597.557004</ele>
        <time>2021-11-01T21:27:06.000Z</time>
      </trkpt>
      <trkpt lat="38.123025" lon="-1.834645">
        <ele>598.456070</ele>
        <time>2021-11-01T21:27:21.000Z</time>
      </trkpt>
      <trkpt lat="38.122303" lon="-1.834496">
        <ele>600.463965</ele>
        <time>2021-11-01T21:27:35.000Z</time>
      </trkpt>
      <trkpt lat="38.122244" lon="-1.834506">
        <ele>600.627358</ele>
        <time>2021-11-01T21:27:49.000Z</time>
      </trkpt>
      <trkpt lat="38.122187" lon="-1.834684">
        <ele>601.042382</ele>
        <time>2021-11-01T21:28:03.000Z</time>
      </trkpt>
      <trkpt lat="38.122142" lon="-1.834735">
        <ele>601.207879</ele>
        <time>2021-11-01T21:28:17.000Z</time>
      </trkpt>
      <trkpt lat="38.122095" lon="-1.834761">
        <ele>601.348586</ele>
        <time>2021-11-01T21:28:31.000Z</time>
      </trkpt>
      <trkpt lat="38.121173" lon="-1.834670">
        <ele>604.412240</ele>
        <time>2021-11-01T21:28:45.000Z</time>
      </trkpt>
      <trkpt lat="38.121064" lon="-1.834644">
        <ele>604.916337</ele>
        <time>2021-11-01T21:29:00.000Z</time>
      </trkpt>
      <trkpt lat="38.120934" lon="-1.834563">
        <ele>605.574411</ele>
        <time>2021-11-01T21:29:14.000Z</time>
      </trkpt>
      <trkpt lat="38.120816" lon="-1.834401">
        <ele>606.363883</ele>
        <time>2021-11-01T21:29:28.000Z</time>
      </trkpt>
      <trkpt lat="38.120806" lon="-1.834331">
        <ele>606.618290</ele>
        <time>2021-11-01T21:29:42.000Z</time>
      </trkpt>
      <trkpt lat="38.120841" lon="-1.834150">
        <ele>607.284796</ele>
        <time>2021-11-01T21:29:56.000Z</time>
      </trkpt>
      <trkpt lat="38.120820" lon="-1.834093">
        <ele>607.509867</ele>
        <time>2021-11-01T21:30:10.000Z</time>
      </trkpt>
      <trkpt lat="38.120775" lon="-1.834057">
        <ele>607.751549</ele>
        <time>2021-11-01T21:30:25.000Z</time>
      </trkpt>
      <trkpt lat="38.120451" lon="-1.833900">
        <ele>609.327641</ele>
        <time>2021-11-01T21:30:39.000Z</time>
      </trkpt>
      <trkpt lat="38.120348" lon="-1.833897">
        <ele>609.795940</ele>
        <time>2021-11-01T21:30:53.000Z</time>
      </trkpt>
      <trkpt lat="38.119855" lon="-1.834011">
        <ele>612.145716</ele>
        <time>2021-11-01T21:31:07.000Z</time>
      </trkpt>
      <trkpt lat="38.119625" lon="-1.834039">
        <ele>613.289272</ele>
        <time>2021-11-01T21:31:21.000Z</time>
      </trkpt>
      <trkpt lat="38.119197" lon="-1.834161">
        <ele>615.460197</ele>
        <time>2021-11-01T21:31:36.000Z</time>
      </trkpt>
      <trkpt lat="38.119069" lon="-1.834220">
        <ele>616.134080</ele>
        <time>2021-11-01T21:31:50.000Z</time>
      </trkpt>
      <trkpt lat="38.118901" lon="-1.834447">
        <ele>617.347602</ele>
        <time>2021-11-01T21:32:04.000Z</time>
      </trkpt>
      <trkpt lat="38.118772" lon="-1.834565">
        <ele>618.134206</ele>
        <time>2021-11-01T21:32:18.000Z</time>
      </trkpt>
      <trkpt lat="38.118729" lon="-1.834578">
        <ele>618.352965</ele>
        <time>2021-11-01T21:32:33.000Z</time>
      </trkpt>
      <trkpt lat="38.118668" lon="-1.834633">
        <ele>618.723118</ele>
        <time>2021-11-01T21:32:47.000Z</time>
      </trkpt>
      <trkpt lat="38.118566" lon="-1.834609">
        <ele>619.236527</ele>
        <time>2021-11-01T21:33:01.000Z</time>
      </trkpt>
      <trkpt lat="38.118454" lon="-1.834676">
        <ele>619.849175</ele>
        <time>2021-11-01T21:33:15.000Z</time>
      </trkpt>
      <trkpt lat="38.118380" lon="-1.834694">
        <ele>620.218080</ele>
        <time>2021-11-01T21:33:30.000Z</time>
      </trkpt>
      <trkpt lat="38.118239" lon="-1.834638">
        <ele>620.898801</ele>
        <time>2021-11-01T21:33:44.000Z</time>
      </trkpt>
      <trkpt lat="38.118189" lon="-1.834665">
        <ele>621.149137</ele>
        <time>2021-11-01T21:33:58.000Z</time>
      </trkpt>
      <trkpt lat="38.118163" lon="-1.834643">
        <ele>621.293067</ele>
        <time>2021-11-01T21:34:12.000Z</time>
      </trkpt>
      <trkpt lat="38.118082" lon="-1.834632">
        <ele>621.668447</ele>
        <time>2021-11-01T21:34:27.000Z</time>
      </trkpt>
      <trkpt lat="38.118009" lon="-1.834661">
        <ele>622.020884</ele>
        <time>2021-11-01T21:34:41.000Z</time>
      </trkpt>
      <trkpt lat="38.117942" lon="-1.834739">
        <ele>622.439556</ele>
        <time>2021-11-01T21:34:55.000Z</time>
      </trkpt>
      <trkpt lat="38.117879" lon="-1.834747">
        <ele>622.731311</ele>
        <time>2021-11-01T21:35:09.000Z</time>
      </trkpt>
      <trkpt lat="38.117841" lon="-1.834714">
        <ele>622.943386</ele>
        <time>2021-11-01T21:35:24.000Z</time>
      </trkpt>
      <trkpt lat="38.117815" lon="-1.834523">
        <ele>623.646123</ele>
        <time>2021-11-01T21:35:38.000Z</time>
      </trkpt>
      <trkpt lat="38.117701" lon="-1.834278">
        <ele>624.678063</ele>
        <time>2021-11-01T21:35:52.000Z</time>
      </trkpt>
      <trkpt lat="38.117570" lon="-1.834099">
        <ele>625.564368</ele>
        <time>2021-11-01T21:36:06.000Z</time>
      </trkpt>
      <trkpt lat="38.117385" lon="-1.833921">
        <ele>626.633569</ele>
        <time>2021-11-01T21:36:21.000Z</time>
      </trkpt>
      <trkpt lat="38.117286" lon="-1.833768">
        <ele>627.351760</ele>
        <time>2021-11-01T21:36:35.000Z</time>
      </trkpt>
      <trkpt lat="38.117214" lon="-1.833623">
        <ele>627.973390</ele>
        <time>2021-11-01T21:36:49.000Z</time>
      </trkpt>
      <trkpt lat="38.116986" lon="-1.833283">
        <ele>628.571267</ele>
        <time>2021-11-01T21:37:04.000Z</time>
      </trkpt>
      <trkpt lat="38.116909" lon="-1.833106">
        <ele>628.647623</ele>
        <time>2021-11-01T21:37:18.000Z</time>
      </trkpt>
      <trkpt lat="38.116846" lon="-1.832880">
        <ele>628.738140</ele>
        <time>2021-11-01T21:37:32.000Z</time>
      </trkpt>
      <trkpt lat="38.116823" lon="-1.832859">
        <ele>628.751729</ele>
        <time>2021-11-01T21:37:47.000Z</time>
      </trkpt>
      <trkpt lat="38.116776" lon="-1.832888">
        <ele>628.776799</ele>
        <time>2021-11-01T21:38:01.000Z</time>
      </trkpt>
      <trkpt lat="38.116318" lon="-1.833782">
        <ele>629.179550</ele>
        <time>2021-11-01T21:38:15.000Z</time>
      </trkpt>
      <trkpt lat="38.116206" lon="-1.833954">
        <ele>629.263840</ele>
        <time>2021-11-01T21:38:30.000Z</time>
      </trkpt>
      <trkpt lat="38.116101" lon="-1.834070">
        <ele>629.204914</ele>
        <time>2021-11-01T21:38:44.000Z</time>
      </trkpt>
      <trkpt lat="38.115963" lon="-1.834168">
        <ele>628.646099</ele>
        <time>2021-11-01T21:38:58.000Z</time>
      </trkpt>
      <trkpt lat="38.115635" lon="-1.834313">
        <ele>627.418473</ele>
        <time>2021-11-01T21:39:13.000Z</time>
      </trkpt>
      <trkpt lat="38.115416" lon="-1.834360">
        <ele>626.633340</ele>
        <time>2021-11-01T21:39:27.000Z</time>
      </trkpt>
      <trkpt lat="38.115286" lon="-1.834337">
        <ele>626.169353</ele>
        <time>2021-11-01T21:39:41.000Z</time>
      </trkpt>
      <trkpt lat="38.115205" lon="-1.834258">
        <ele>625.808428</ele>
        <time>2021-11-01T21:39:56.000Z</time>
      </trkpt>
      <trkpt lat="38.115053" lon="-1.833996">
        <ele>624.903046</ele>
        <time>2021-11-01T21:40:10.000Z</time>
      </trkpt>
      <trkpt lat="38.115000" lon="-1.833969">
        <ele>624.701200</ele>
        <time>2021-11-01T21:40:24.000Z</time>
      </trkpt>
      <trkpt lat="38.114822" lon="-1.833971">
        <ele>624.071937</ele>
        <time>2021-11-01T21:40:39.000Z</time>
      </trkpt>
      <trkpt lat="38.114724" lon="-1.833925">
        <ele>623.702633</ele>
        <time>2021-11-01T21:40:53.000Z</time>
      </trkpt>
      <trkpt lat="38.114683" lon="-1.833880">
        <ele>623.511135</ele>
        <time>2021-11-01T21:41:08.000Z</time>
      </trkpt>
      <trkpt lat="38.114655" lon="-1.833825">
        <ele>623.328934</ele>
        <time>2021-11-01T21:41:22.000Z</time>
      </trkpt>
      <trkpt lat="38.114574" lon="-1.833491">
        <ele>621.610772</ele>
        <time>2021-11-01T21:41:36.000Z</time>
      </trkpt>
      <trkpt lat="38.114572" lon="-1.833055">
        <ele>618.891287</ele>
        <time>2021-11-01T21:41:51.000Z</time>
      </trkpt>
      <trkpt lat="38.114532" lon="-1.832911">
        <ele>617.938790</ele>
        <time>2021-11-01T21:42:05.000Z</time>
      </trkpt>
      <trkpt lat="38.114497" lon="-1.832871">
        <ele>617.565652</ele>
        <time>2021-11-01T21:42:20.000Z</time>
      </trkpt>
      <trkpt lat="38.114237" lon="-1.833006">
        <ele>615.339122</ele>
        <time>2021-11-01T21:42:34.000Z</time>
      </trkpt>
      <trkpt lat="38.114124" lon="-1.832985">
        <ele>614.433780</ele>
        <time>2021-11-01T21:42:48.000Z</time>
      </trkpt>
      <trkpt lat="38.114068" lon="-1.832940">
        <ele>613.908550</ele>
        <time>2021-11-01T21:43:03.000Z</time>
      </trkpt>
      <trkpt lat="38.114026" lon="-1.832876">
        <ele>613.388732</ele>
        <time>2021-11-01T21:43:17.000Z</time>
      </trkpt>
      <trkpt lat="38.114005" lon="-1.832798">
        <ele>612.874528</ele>
        <time>2021-11-01T21:43:32.000Z</time>
      </trkpt>
      <trkpt lat="38.113978" lon="-1.832523">
        <ele>611.145969</ele>
        <time>2021-11-01T21:43:46.000Z</time>
      </trkpt>
      <trkpt lat="38.113929" lon="-1.832338">
        <ele>609.928439</ele>
        <time>2021-11-01T21:44:01.000Z</time>
      </trkpt>
      <trkpt lat="38.113806" lon="-1.832076">
        <ele>608.072279</ele>
        <time>2021-11-01T21:44:15.000Z</time>
      </trkpt>
      <trkpt lat="38.113707" lon="-1.831923">
        <ele>606.922659</ele>
        <time>2021-11-01T21:44:29.000Z</time>
      </trkpt>
      <trkpt lat="38.113588" lon="-1.831805">
        <ele>605.809380</ele>
        <time>2021-11-01T21:44:44.000Z</time>
      </trkpt>
      <trkpt lat="38.113187" lon="-1.831618">
        <ele>602.658784</ele>
        <time>2021-11-01T21:44:58.000Z</time>
      </trkpt>
      <trkpt lat="38.113041" lon="-1.831491">
        <ele>601.353819</ele>
        <time>2021-11-01T21:45:13.000Z</time>
      </trkpt>
      <trkpt lat="38.112870" lon="-1.831307">
        <ele>599.701201</ele>
        <time>2021-11-01T21:45:27.000Z</time>
      </trkpt>
      <trkpt lat="38.112820" lon="-1.831278">
        <ele>599.295813</ele>
        <time>2021-11-01T21:45:42.000Z</time>
      </trkpt>
      <trkpt lat="38.112767" lon="-1.831277">
        <ele>598.904840</ele>
        <time>2021-11-01T21:45:56.000Z</time>
      </trkpt>
      <trkpt lat="38.112723" lon="-1.831302">
        <ele>598.549341</ele>
        <time>2021-11-01T21:46:11.000Z</time>
      </trkpt>
      <trkpt lat="38.112695" lon="-1.831344">
        <ele>598.229864</ele>
        <time>2021-11-01T21:46:25.000Z</time>
      </trkpt>
      <trkpt lat="38.112688" lon="-1.831403">
        <ele>597.883589</ele>
        <time>2021-11-01T21:46:40.000Z</time>
      </trkpt>
      <trkpt lat="38.112754" lon="-1.831606">
        <ele>596.608869</ele>
        <time>2021-11-01T21:46:54.000Z</time>
      </trkpt>
      <trkpt lat="38.112767" lon="-1.831685">
        <ele>596.140476</ele>
        <time>2021-11-01T21:47:09.000Z</time>
      </trkpt>
      <trkpt lat="38.112756" lon="-1.831773">
        <ele>595.623368</ele>
        <time>2021-11-01T21:47:23.000Z</time>
      </trkpt>
      <trkpt lat="38.112702" lon="-1.831921">
        <ele>595.029022</ele>
        <time>2021-11-01T21:47:37.000Z</time>
      </trkpt>
      <trkpt lat="38.112616" lon="-1.832043">
        <ele>594.522165</ele>
        <time>2021-11-01T21:47:52.000Z</time>
      </trkpt>
      <trkpt lat="38.112561" lon="-1.832187">
        <ele>594.026857</ele>
        <time>2021-11-01T21:48:06.000Z</time>
      </trkpt>
      <trkpt lat="38.112578" lon="-1.832549">
        <ele>592.904720</ele>
        <time>2021-11-01T21:48:21.000Z</time>
      </trkpt>
      <trkpt lat="38.112560" lon="-1.832635">
        <ele>592.629354</ele>
        <time>2021-11-01T21:48:35.000Z</time>
      </trkpt>
      <trkpt lat="38.112526" lon="-1.832708">
        <ele>592.366858</ele>
        <time>2021-11-01T21:48:50.000Z</time>
      </trkpt>
      <trkpt lat="38.112475" lon="-1.832767">
        <ele>592.095640</ele>
        <time>2021-11-01T21:49:04.000Z</time>
      </trkpt>
      <trkpt lat="38.112414" lon="-1.832805">
        <ele>591.828473</ele>
        <time>2021-11-01T21:49:19.000Z</time>
      </trkpt>
      <trkpt lat="38.112277" lon="-1.832837">
        <ele>591.280658</ele>
        <time>2021-11-01T21:49:33.000Z</time>
      </trkpt>
      <trkpt lat="38.112225" lon="-1.832870">
        <ele>591.052076</ele>
        <time>2021-11-01T21:49:48.000Z</time>
      </trkpt>
      <trkpt lat="38.112154" lon="-1.832987">
        <ele>590.594868</ele>
        <time>2021-11-01T21:50:02.000Z</time>
      </trkpt>
      <trkpt lat="38.112113" lon="-1.833447">
        <ele>589.162369</ele>
        <time>2021-11-01T21:50:17.000Z</time>
      </trkpt>
      <trkpt lat="38.112091" lon="-1.834051">
        <ele>588.769958</ele>
        <time>2021-11-01T21:50:32.000Z</time>
      </trkpt>
      <trkpt lat="38.112042" lon="-1.834177">
        <ele>588.938010</ele>
        <time>2021-11-01T21:50:46.000Z</time>
      </trkpt>
      <trkpt lat="38.111867" lon="-1.834469">
        <ele>589.376895</ele>
        <time>2021-11-01T21:51:01.000Z</time>
      </trkpt>
      <trkpt lat="38.111846" lon="-1.834534">
        <ele>589.460911</ele>
        <time>2021-11-01T21:51:15.000Z</time>
      </trkpt>
      <trkpt lat="38.111829" lon="-1.834751">
        <ele>589.721656</ele>
        <time>2021-11-01T21:51:30.000Z</time>
      </trkpt>
      <trkpt lat="38.111793" lon="-1.834883">
        <ele>589.888698</ele>
        <time>2021-11-01T21:51:44.000Z</time>
      </trkpt>
      <trkpt lat="38.111728" lon="-1.834985">
        <ele>590.045640</ele>
        <time>2021-11-01T21:51:59.000Z</time>
      </trkpt>
      <trkpt lat="38.111619" lon="-1.835105">
        <ele>590.264785</ele>
        <time>2021-11-01T21:52:13.000Z</time>
      </trkpt>
      <trkpt lat="38.111211" lon="-1.835498">
        <ele>591.042752</ele>
        <time>2021-11-01T21:52:28.000Z</time>
      </trkpt>
      <trkpt lat="38.111146" lon="-1.835640">
        <ele>591.297993</ele>
        <time>2021-11-01T21:52:43.000Z</time>
      </trkpt>
      <trkpt lat="38.111154" lon="-1.835784">
        <ele>591.539190</ele>
        <time>2021-11-01T21:52:57.000Z</time>
      </trkpt>
      <trkpt lat="38.111331" lon="-1.836256">
        <ele>592.412803</ele>
        <time>2021-11-01T21:53:12.000Z</time>
      </trkpt>
      <trkpt lat="38.111363" lon="-1.836451">
        <ele>592.745622</ele>
        <time>2021-11-01T21:53:26.000Z</time>
      </trkpt>
      <trkpt lat="38.111392" lon="-1.838150">
        <ele>596.134285</ele>
        <time>2021-11-01T21:53:41.000Z</time>
      </trkpt>
      <trkpt lat="38.111382" lon="-1.838500">
        <ele>597.196089</ele>
        <time>2021-11-01T21:53:56.000Z</time>
      </trkpt>
      <trkpt lat="38.111348" lon="-1.838621">
        <ele>597.585619</ele>
        <time>2021-11-01T21:54:10.000Z</time>
      </trkpt>
      <trkpt lat="38.111122" lon="-1.838886">
        <ele>598.770436</ele>
        <time>2021-11-01T21:54:25.000Z</time>
      </trkpt>
      <trkpt lat="38.111004" lon="-1.839165">
        <ele>599.730749</ele>
        <time>2021-11-01T21:54:39.000Z</time>
      </trkpt>
      <trkpt lat="38.110792" lon="-1.839581">
        <ele>601.233388</ele>
        <time>2021-11-01T21:54:54.000Z</time>
      </trkpt>
      <trkpt lat="38.110664" lon="-1.839931">
        <ele>602.312765</ele>
        <time>2021-11-01T21:55:09.000Z</time>
      </trkpt>
      <trkpt lat="38.110601" lon="-1.840207">
        <ele>603.043429</ele>
        <time>2021-11-01T21:55:23.000Z</time>
      </trkpt>
      <trkpt lat="38.110511" lon="-1.840356">
        <ele>603.521019</ele>
        <time>2021-11-01T21:55:38.000Z</time>
      </trkpt>
      <trkpt lat="38.110496" lon="-1.840406">
        <ele>603.657072</ele>
        <time>2021-11-01T21:55:53.000Z</time>
      </trkpt>
      <trkpt lat="38.110506" lon="-1.840490">
        <ele>603.873073</ele>
        <time>2021-11-01T21:56:08.000Z</time>
      </trkpt>
      <trkpt lat="38.110644" lon="-1.840637">
        <ele>604.454915</ele>
        <time>2021-11-01T21:56:22.000Z</time>
      </trkpt>
      <trkpt lat="38.110618" lon="-1.840842">
        <ele>604.982856</ele>
        <time>2021-11-01T21:56:37.000Z</time>
      </trkpt>
      <trkpt lat="38.110611" lon="-1.841082">
        <ele>605.593476</ele>
        <time>2021-11-01T21:56:52.000Z</time>
      </trkpt>
      <trkpt lat="38.110624" lon="-1.841213">
        <ele>605.929183</ele>
        <time>2021-11-01T21:57:06.000Z</time>
      </trkpt>
      <trkpt lat="38.110595" lon="-1.841401">
        <ele>606.416273</ele>
        <time>2021-11-01T21:57:21.000Z</time>
      </trkpt>
      <trkpt lat="38.110596" lon="-1.842149">
        <ele>607.530552</ele>
        <time>2021-11-01T21:57:36.000Z</time>
      </trkpt>
      <trkpt lat="38.110546" lon="-1.842666">
        <ele>607.286259</ele>
        <time>2021-11-01T21:57:50.000Z</time>
      </trkpt>
      <trkpt lat="38.110613" lon="-1.843135">
        <ele>607.062706</ele>
        <time>2021-11-01T21:58:05.000Z</time>
      </trkpt>
      <trkpt lat="38.110620" lon="-1.843513">
        <ele>606.885379</ele>
        <time>2021-11-01T21:58:20.000Z</time>
      </trkpt>
      <trkpt lat="38.110660" lon="-1.843766">
        <ele>606.764352</ele>
        <time>2021-11-01T21:58:35.000Z</time>
      </trkpt>
      <trkpt lat="38.110672" lon="-1.843975">
        <ele>606.666073</ele>
        <time>2021-11-01T21:58:49.000Z</time>
      </trkpt>
      <trkpt lat="38.110692" lon="-1.844746">
        <ele>605.954851</ele>
        <time>2021-11-01T21:59:04.000Z</time>
      </trkpt>
      <trkpt lat="38.110635" lon="-1.845404">
        <ele>605.252486</ele>
        <time>2021-11-01T21:59:19.000Z</time>
      </trkpt>
      <trkpt lat="38.110632" lon="-1.845587">
        <ele>605.058278</ele>
        <time>2021-11-01T21:59:34.000Z</time>
      </trkpt>
      <trkpt lat="38.110738" lon="-1.845873">
        <ele>604.722848</ele>
        <time>2021-11-01T21:59:49.000Z</time>
      </trkpt>
      <trkpt lat="38.110752" lon="-1.846055">
        <ele>604.528823</ele>
        <time>2021-11-01T22:00:03.000Z</time>
      </trkpt>
      <trkpt lat="38.110797" lon="-1.846285">
        <ele>604.277358</ele>
        <time>2021-11-01T22:00:18.000Z</time>
      </trkpt>
      <trkpt lat="38.110810" lon="-1.846570">
        <ele>604.035426</ele>
        <time>2021-11-01T22:00:33.000Z</time>
      </trkpt>
      <trkpt lat="38.110788" lon="-1.846906">
        <ele>603.798055</ele>
        <time>2021-11-01T22:00:48.000Z</time>
      </trkpt>
      <trkpt lat="38.110724" lon="-1.847233">
        <ele>603.560822</ele>
        <time>2021-11-01T22:01:03.000Z</time>
      </trkpt>
      <trkpt lat="38.110658" lon="-1.847868">
        <ele>603.109879</ele>
        <time>2021-11-01T22:01:17.000Z</time>
      </trkpt>
      <trkpt lat="38.110590" lon="-1.848877">
        <ele>602.394765</ele>
        <time>2021-11-01T22:01:32.000Z</time>
      </trkpt>
      <trkpt lat="38.110558" lon="-1.849050">
        <ele>602.267850</ele>
        <time>2021-11-01T22:01:47.000Z</time>
      </trkpt>
      <trkpt lat="38.110480" lon="-1.849225">
        <ele>602.124215</ele>
        <time>2021-11-01T22:02:02.000Z</time>
      </trkpt>
      <trkpt lat="38.110190" lon="-1.849748">
        <ele>601.667288</ele>
        <time>2021-11-01T22:02:17.000Z</time>
      </trkpt>
      <trkpt lat="38.109834" lon="-1.850500">
        <ele>601.040536</ele>
        <time>2021-11-01T22:02:32.000Z</time>
      </trkpt>
      <trkpt lat="38.109627" lon="-1.850685">
        <ele>600.826159</ele>
        <time>2021-11-01T22:02:47.000Z</time>
      </trkpt>
      <trkpt lat="38.109480" lon="-1.850794">
        <ele>600.694662</ele>
        <time>2021-11-01T22:03:02.000Z</time>
      </trkpt>
      <trkpt lat="38.109070" lon="-1.851004">
        <ele>600.353120</ele>
        <time>2021-11-01T22:03:16.000Z</time>
      </trkpt>
      <trkpt lat="38.108927" lon="-1.851097">
        <ele>600.229006</ele>
        <time>2021-11-01T22:03:31.000Z</time>
      </trkpt>
      <trkpt lat="38.108209" lon="-1.851777">
        <ele>599.537152</ele>
        <time>2021-11-01T22:03:46.000Z</time>
      </trkpt>
      <trkpt lat="38.108154" lon="-1.851866">
        <ele>599.531402</ele>
        <time>2021-11-01T22:04:01.000Z</time>
      </trkpt>
      <trkpt lat="38.108144" lon="-1.851981">
        <ele>599.540686</ele>
        <time>2021-11-01T22:04:16.000Z</time>
      </trkpt>
      <trkpt lat="38.108409" lon="-1.852813">
        <ele>599.612710</ele>
        <time>2021-11-01T22:04:31.000Z</time>
      </trkpt>
      <trkpt lat="38.108438" lon="-1.852970">
        <ele>599.625651</ele>
        <time>2021-11-01T22:04:46.000Z</time>
      </trkpt>
      <trkpt lat="38.108430" lon="-1.853070">
        <ele>599.633717</ele>
        <time>2021-11-01T22:05:01.000Z</time>
      </trkpt>
      <trkpt lat="38.108399" lon="-1.853159">
        <ele>599.641527</ele>
        <time>2021-11-01T22:05:16.000Z</time>
      </trkpt>
      <trkpt lat="38.107990" lon="-1.853607">
        <ele>599.696591</ele>
        <time>2021-11-01T22:05:31.000Z</time>
      </trkpt>
      <trkpt lat="38.107918" lon="-1.853713">
        <ele>599.714409</ele>
        <time>2021-11-01T22:05:46.000Z</time>
      </trkpt>
      <trkpt lat="38.107897" lon="-1.853779">
        <ele>599.827366</ele>
        <time>2021-11-01T22:06:01.000Z</time>
      </trkpt>
      <trkpt lat="38.107912" lon="-1.854069">
        <ele>600.288487</ele>
        <time>2021-11-01T22:06:16.000Z</time>
      </trkpt>
      <trkpt lat="38.108040" lon="-1.854747">
        <ele>601.394763</ele>
        <time>2021-11-01T22:06:31.000Z</time>
      </trkpt>
      <trkpt lat="38.108062" lon="-1.854823">
        <ele>601.523250</ele>
        <time>2021-11-01T22:06:46.000Z</time>
      </trkpt>
      <trkpt lat="38.108239" lon="-1.855199">
        <ele>602.218441</ele>
        <time>2021-11-01T22:07:01.000Z</time>
      </trkpt>
      <trkpt lat="38.108334" lon="-1.855469">
        <ele>602.687714</ele>
        <time>2021-11-01T22:07:16.000Z</time>
      </trkpt>
      <trkpt lat="38.108335" lon="-1.855543">
        <ele>602.805142</ele>
        <time>2021-11-01T22:07:31.000Z</time>
      </trkpt>
      <trkpt lat="38.108304" lon="-1.855670">
        <ele>603.016118</ele>
        <time>2021-11-01T22:07:46.000Z</time>
      </trkpt>
      <trkpt lat="38.108180" lon="-1.855951">
        <ele>603.610150</ele>
        <time>2021-11-01T22:08:01.000Z</time>
      </trkpt>
      <trkpt lat="38.108105" lon="-1.856064">
        <ele>603.945441</ele>
        <time>2021-11-01T22:08:16.000Z</time>
      </trkpt>
      <trkpt lat="38.107899" lon="-1.856242">
        <ele>604.663471</ele>
        <time>2021-11-01T22:08:31.000Z</time>
      </trkpt>
      <trkpt lat="38.107759" lon="-1.856296">
        <ele>605.085191</ele>
        <time>2021-11-01T22:08:46.000Z</time>
      </trkpt>
      <trkpt lat="38.107673" lon="-1.856367">
        <ele>605.380795</ele>
        <time>2021-11-01T22:09:01.000Z</time>
      </trkpt>
      <trkpt lat="38.107496" lon="-1.856457">
        <ele>605.930309</ele>
        <time>2021-11-01T22:09:16.000Z</time>
      </trkpt>
      <trkpt lat="38.107019" lon="-1.856743">
        <ele>607.450575</ele>
        <time>2021-11-01T22:09:32.000Z</time>
      </trkpt>
      <trkpt lat="38.106431" lon="-1.857168">
        <ele>608.518869</ele>
        <time>2021-11-01T22:09:47.000Z</time>
      </trkpt>
      <trkpt lat="38.106192" lon="-1.857298">
        <ele>608.518869</ele>
        <time>2021-11-01T22:10:02.000Z</time>
      </trkpt>
      <trkpt lat="38.106137" lon="-1.857357">
        <ele>608.518869</ele>
        <time>2021-11-01T22:10:17.000Z</time>
      </trkpt>
      <trkpt lat="38.106107" lon="-1.857444">
        <ele>608.518869</ele>
        <time>2021-11-01T22:10:32.000Z</time>
      </trkpt>
      <trkpt lat="38.106115" lon="-1.857587">
        <ele>608.518869</ele>
        <time>2021-11-01T22:10:47.000Z</time>
      </trkpt>
      <trkpt lat="38.106151" lon="-1.857696">
        <ele>608.518869</ele>
        <time>2021-11-01T22:11:02.000Z</time>
      </trkpt>
      <trkpt lat="38.106155" lon="-1.857772">
        <ele>608.518869</ele>
        <time>2021-11-01T22:11:17.000Z</time>
      </trkpt>
      <trkpt lat="38.106089" lon="-1.857892">
        <ele>608.518869</ele>
        <time>2021-11-01T22:11:32.000Z</time>
      </trkpt>
      <trkpt lat="38.105940" lon="-1.858076">
        <ele>608.518869</ele>
        <time>2021-11-01T22:11:47.000Z</time>
      </trkpt>
      <trkpt lat="38.105865" lon="-1.858207">
        <ele>608.518869</ele>
        <time>2021-11-01T22:12:03.000Z</time>
      </trkpt>
      <trkpt lat="38.105761" lon="-1.858296">
        <ele>608.518869</ele>
        <time>2021-11-01T22:12:18.000Z</time>
      </trkpt>
      <trkpt lat="38.105402" lon="-1.858518">
        <ele>608.518869</ele>
        <time>2021-11-01T22:12:33.000Z</time>
      </trkpt>
      <trkpt lat="38.105276" lon="-1.858567">
        <ele>608.518869</ele>
        <time>2021-11-01T22:12:48.000Z</time>
      </trkpt>
      <trkpt lat="38.105189" lon="-1.858627">
        <ele>608.518869</ele>
        <time>2021-11-01T22:13:03.000Z</time>
      </trkpt>
      <trkpt lat="38.105091" lon="-1.858642">
        <ele>608.518869</ele>
        <time>2021-11-01T22:13:18.000Z</time>
      </trkpt>
      <trkpt lat="38.105094" lon="-1.858740">
        <ele>609.006697</ele>
        <time>2021-10-30T06:48:11.000Z</time>
      </trkpt>
      <trkpt lat="38.104679" lon="-1.858970">
        <ele>609.006697</ele>
        <time>2021-10-30T06:48:11.000Z</time>
      </trkpt>
      <trkpt lat="38.104503" lon="-1.858461">
        <ele>609.006697</ele>
        <time>2021-10-30T06:48:11.000Z</time>
      </trkpt>
      <trkpt lat="38.104414" lon="-1.858412">
        <ele>608.458967</ele>
        <time>2021-10-30T06:48:11.000Z</time>
      </trkpt>
      <trkpt lat="38.104226" lon="-1.858469">
        <ele>607.254699</ele>
        <time>2021-10-30T06:48:11.000Z</time>
      </trkpt>
      <trkpt lat="38.104264" lon="-1.857730">
        <ele>603.623689</ele>
        <time>2021-10-30T06:48:11.000Z</time>
      </trkpt>
      <trkpt lat="38.104276" lon="-1.857287">
        <ele>601.450396</ele>
        <time>2021-10-30T06:48:11.000Z</time>
      </trkpt>
      <trkpt lat="38.104578" lon="-1.856810">
        <ele>598.448674</ele>
        <time>2021-10-30T06:48:11.000Z</time>
      </trkpt>
      <trkpt lat="38.104817" lon="-1.856457">
        <ele>597.965940</ele>
        <time>2021-10-30T06:48:11.000Z</time>
      </trkpt>
      <trkpt lat="38.105012" lon="-1.856285">
        <ele>598.116384</ele>
        <time>2021-10-30T06:48:11.000Z</time>
      </trkpt>
      <trkpt lat="38.105024" lon="-1.855455">
        <ele>598.530396</ele>
        <time>2021-10-30T06:48:11.000Z</time>
      </trkpt>
      <trkpt lat="38.105034" lon="-1.855141">
        <ele>598.687124</ele>
        <time>2021-10-30T06:48:16.000Z</time>
      </trkpt>
      <trkpt lat="38.105057" lon="-1.855092">
        <ele>598.715579</ele>
        <time>2021-10-30T06:48:17.000Z</time>
      </trkpt>
      <trkpt lat="38.105082" lon="-1.855043">
        <ele>598.744704</ele>
        <time>2021-10-30T06:48:18.000Z</time>
      </trkpt>
      <trkpt lat="38.105071" lon="-1.854728">
        <ele>598.901957</ele>
        <time>2021-10-30T06:48:23.000Z</time>
      </trkpt>
      <trkpt lat="38.105057" lon="-1.854522">
        <ele>598.652685</ele>
        <time>2021-10-30T06:48:26.000Z</time>
      </trkpt>
      <trkpt lat="38.105051" lon="-1.854453">
        <ele>598.500731</ele>
        <time>2021-10-30T06:48:27.000Z</time>
      </trkpt>
      <trkpt lat="38.105043" lon="-1.854382">
        <ele>598.343732</ele>
        <time>2021-10-30T06:48:28.000Z</time>
      </trkpt>
      <trkpt lat="38.105026" lon="-1.854155">
        <ele>597.844603</ele>
        <time>2021-10-30T06:48:31.000Z</time>
      </trkpt>
      <trkpt lat="38.105000" lon="-1.853741">
        <ele>596.935510</ele>
        <time>2021-10-30T06:48:36.000Z</time>
      </trkpt>
      <trkpt lat="38.104978" lon="-1.853478">
        <ele>596.356581</ele>
        <time>2021-10-30T06:48:39.000Z</time>
      </trkpt>
      <trkpt lat="38.104948" lon="-1.852808">
        <ele>594.887633</ele>
        <time>2021-10-30T06:48:46.000Z</time>
      </trkpt>
      <trkpt lat="38.104942" lon="-1.852709">
        <ele>594.670288</ele>
        <time>2021-10-30T06:48:47.000Z</time>
      </trkpt>
      <trkpt lat="38.104928" lon="-1.852515">
        <ele>594.243856</ele>
        <time>2021-10-30T06:48:49.000Z</time>
      </trkpt>
      <trkpt lat="38.104921" lon="-1.852317">
        <ele>593.844238</ele>
        <time>2021-10-30T06:48:51.000Z</time>
      </trkpt>
      <trkpt lat="38.104917" lon="-1.852120">
        <ele>593.529793</ele>
        <time>2021-10-30T06:48:53.000Z</time>
      </trkpt>
      <trkpt lat="38.104914" lon="-1.852022">
        <ele>593.373302</ele>
        <time>2021-10-30T06:48:54.000Z</time>
      </trkpt>
      <trkpt lat="38.104901" lon="-1.851823">
        <ele>593.054678</ele>
        <time>2021-10-30T06:48:56.000Z</time>
      </trkpt>
      <trkpt lat="38.104872" lon="-1.851349">
        <ele>592.296064</ele>
        <time>2021-10-30T06:49:01.000Z</time>
      </trkpt>
      <trkpt lat="38.104852" lon="-1.850810">
        <ele>591.435059</ele>
        <time>2021-10-30T06:49:07.000Z</time>
      </trkpt>
      <trkpt lat="38.104844" lon="-1.850545">
        <ele>591.011904</ele>
        <time>2021-10-30T06:49:10.000Z</time>
      </trkpt>
      <trkpt lat="38.104834" lon="-1.850358">
        <ele>590.712832</ele>
        <time>2021-10-30T06:49:12.000Z</time>
      </trkpt>
      <trkpt lat="38.104824" lon="-1.850170">
        <ele>590.412167</ele>
        <time>2021-10-30T06:49:14.000Z</time>
      </trkpt>
      <trkpt lat="38.104814" lon="-1.849971">
        <ele>589.995723</ele>
        <time>2021-10-30T06:49:16.000Z</time>
      </trkpt>
      <trkpt lat="38.104804" lon="-1.849765">
        <ele>589.500454</ele>
        <time>2021-10-30T06:49:18.000Z</time>
      </trkpt>
      <trkpt lat="38.104792" lon="-1.849556">
        <ele>588.997594</ele>
        <time>2021-10-30T06:49:20.000Z</time>
      </trkpt>
      <trkpt lat="38.104778" lon="-1.849238">
        <ele>588.233310</ele>
        <time>2021-10-30T06:49:23.000Z</time>
      </trkpt>
      <trkpt lat="38.104772" lon="-1.849135">
        <ele>587.985470</ele>
        <time>2021-10-30T06:49:24.000Z</time>
      </trkpt>
      <trkpt lat="38.104762" lon="-1.848931">
        <ele>587.494991</ele>
        <time>2021-10-30T06:49:26.000Z</time>
      </trkpt>
      <trkpt lat="38.104748" lon="-1.848719">
        <ele>586.984476</ele>
        <time>2021-10-30T06:49:28.000Z</time>
      </trkpt>
      <trkpt lat="38.104738" lon="-1.848511">
        <ele>586.484417</ele>
        <time>2021-10-30T06:49:30.000Z</time>
      </trkpt>
      <trkpt lat="38.104735" lon="-1.848409">
        <ele>586.239482</ele>
        <time>2021-10-30T06:49:31.000Z</time>
      </trkpt>
      <trkpt lat="38.104731" lon="-1.848306">
        <ele>585.992016</ele>
        <time>2021-10-30T06:49:32.000Z</time>
      </trkpt>
      <trkpt lat="38.104702" lon="-1.847797">
        <ele>584.780697</ele>
        <time>2021-10-30T06:49:37.000Z</time>
      </trkpt>
      <trkpt lat="38.104686" lon="-1.847702">
        <ele>584.632468</ele>
        <time>2021-10-30T06:49:38.000Z</time>
      </trkpt>
      <trkpt lat="38.104641" lon="-1.847255">
        <ele>583.944897</ele>
        <time>2021-10-30T06:49:43.000Z</time>
      </trkpt>
      <trkpt lat="38.104611" lon="-1.846724">
        <ele>583.132636</ele>
        <time>2021-10-30T06:49:49.000Z</time>
      </trkpt>
      <trkpt lat="38.104597" lon="-1.846549">
        <ele>582.864253</ele>
        <time>2021-10-30T06:49:51.000Z</time>
      </trkpt>
      <trkpt lat="38.104581" lon="-1.846378">
        <ele>582.601511</ele>
        <time>2021-10-30T06:49:53.000Z</time>
      </trkpt>
      <trkpt lat="38.104557" lon="-1.846153">
        <ele>582.255076</ele>
        <time>2021-10-30T06:49:56.000Z</time>
      </trkpt>
      <trkpt lat="38.104539" lon="-1.846003">
        <ele>582.023567</ele>
        <time>2021-10-30T06:49:59.000Z</time>
      </trkpt>
      <trkpt lat="38.104535" lon="-1.845971">
        <ele>581.974130</ele>
        <time>2021-10-30T06:50:00.000Z</time>
      </trkpt>
      <trkpt lat="38.104496" lon="-1.845989">
        <ele>581.893678</ele>
        <time>2021-10-30T06:50:02.000Z</time>
      </trkpt>
      <trkpt lat="38.104470" lon="-1.845965">
        <ele>581.831369</ele>
        <time>2021-10-30T06:50:06.000Z</time>
      </trkpt>
      <trkpt lat="38.104471" lon="-1.845942">
        <ele>581.796223</ele>
        <time>2021-10-30T06:50:08.000Z</time>
      </trkpt>
      <trkpt lat="38.104467" lon="-1.845939">
        <ele>581.787217</ele>
        <time>2021-10-30T06:50:12.000Z</time>
      </trkpt>
      <trkpt lat="38.104470" lon="-1.845934">
        <ele>581.777623</ele>
        <time>2021-10-30T06:50:14.000Z</time>
      </trkpt>
      <trkpt lat="38.104475" lon="-1.845863">
        <ele>581.668862</ele>
        <time>2021-10-30T06:50:17.000Z</time>
      </trkpt>
      <trkpt lat="38.104470" lon="-1.845793">
        <ele>581.561619</ele>
        <time>2021-10-30T06:50:19.000Z</time>
      </trkpt>
      <trkpt lat="38.104466" lon="-1.845722">
        <ele>581.453013</ele>
        <time>2021-10-30T06:50:21.000Z</time>
      </trkpt>
      <trkpt lat="38.104458" lon="-1.845648">
        <ele>581.339047</ele>
        <time>2021-10-30T06:50:23.000Z</time>
      </trkpt>
      <trkpt lat="38.104453" lon="-1.845610">
        <ele>581.262819</ele>
        <time>2021-10-30T06:50:24.000Z</time>
      </trkpt>
      <trkpt lat="38.104445" lon="-1.845364">
        <ele>580.705778</ele>
        <time>2021-10-30T06:50:30.000Z</time>
      </trkpt>
      <trkpt lat="38.104442" lon="-1.845208">
        <ele>580.352728</ele>
        <time>2021-10-30T06:50:33.000Z</time>
      </trkpt>
      <trkpt lat="38.104427" lon="-1.845074">
        <ele>580.046506</ele>
        <time>2021-10-30T06:50:35.000Z</time>
      </trkpt>
      <trkpt lat="38.104409" lon="-1.844840">
        <ele>579.514566</ele>
        <time>2021-10-30T06:50:38.000Z</time>
      </trkpt>
      <trkpt lat="38.104394" lon="-1.844589">
        <ele>578.945052</ele>
        <time>2021-10-30T06:50:41.000Z</time>
      </trkpt>
      <trkpt lat="38.104387" lon="-1.844502">
        <ele>578.747191</ele>
        <time>2021-10-30T06:50:42.000Z</time>
      </trkpt>
      <trkpt lat="38.104364" lon="-1.844058">
        <ele>577.740482</ele>
        <time>2021-10-30T06:50:47.000Z</time>
      </trkpt>
      <trkpt lat="38.104352" lon="-1.843869">
        <ele>577.311486</ele>
        <time>2021-10-30T06:50:49.000Z</time>
      </trkpt>
      <trkpt lat="38.104335" lon="-1.843469">
        <ele>576.405181</ele>
        <time>2021-10-30T06:50:53.000Z</time>
      </trkpt>
      <trkpt lat="38.104322" lon="-1.843162">
        <ele>575.735371</ele>
        <time>2021-10-30T06:50:56.000Z</time>
      </trkpt>
      <trkpt lat="38.104312" lon="-1.842956">
        <ele>575.296063</ele>
        <time>2021-10-30T06:50:58.000Z</time>
      </trkpt>
      <trkpt lat="38.104299" lon="-1.842752">
        <ele>574.860423</ele>
        <time>2021-10-30T06:51:00.000Z</time>
      </trkpt>
      <trkpt lat="38.104284" lon="-1.842546">
        <ele>574.420075</ele>
        <time>2021-10-30T06:51:02.000Z</time>
      </trkpt>
      <trkpt lat="38.104277" lon="-1.842439">
        <ele>574.191537</ele>
        <time>2021-10-30T06:51:03.000Z</time>
      </trkpt>
      <trkpt lat="38.104270" lon="-1.842334">
        <ele>573.967242</ele>
        <time>2021-10-30T06:51:04.000Z</time>
      </trkpt>
      <trkpt lat="38.104262" lon="-1.842234">
        <ele>573.753293</ele>
        <time>2021-10-30T06:51:05.000Z</time>
      </trkpt>
      <trkpt lat="38.104245" lon="-1.842036">
        <ele>573.329344</ele>
        <time>2021-10-30T06:51:07.000Z</time>
      </trkpt>
      <trkpt lat="38.104240" lon="-1.841938">
        <ele>573.120311</ele>
        <time>2021-10-30T06:51:08.000Z</time>
      </trkpt>
      <trkpt lat="38.104211" lon="-1.841467">
        <ele>572.114713</ele>
        <time>2021-10-30T06:51:13.000Z</time>
      </trkpt>
      <trkpt lat="38.104203" lon="-1.841281">
        <ele>571.718216</ele>
        <time>2021-10-30T06:51:15.000Z</time>
      </trkpt>
      <trkpt lat="38.104197" lon="-1.841186">
        <ele>571.515356</ele>
        <time>2021-10-30T06:51:16.000Z</time>
      </trkpt>
      <trkpt lat="38.104179" lon="-1.840895">
        <ele>571.002890</ele>
        <time>2021-10-30T06:51:19.000Z</time>
      </trkpt>
      <trkpt lat="38.104173" lon="-1.840797">
        <ele>570.852726</ele>
        <time>2021-10-30T06:51:20.000Z</time>
      </trkpt>
      <trkpt lat="38.104167" lon="-1.840702">
        <ele>570.707131</ele>
        <time>2021-10-30T06:51:21.000Z</time>
      </trkpt>
      <trkpt lat="38.104148" lon="-1.839998">
        <ele>569.631023</ele>
        <time>2021-10-30T06:51:28.000Z</time>
      </trkpt>
      <trkpt lat="38.104128" lon="-1.839499">
        <ele>568.867730</ele>
        <time>2021-10-30T06:51:33.000Z</time>
      </trkpt>
      <trkpt lat="38.104117" lon="-1.839301">
        <ele>568.564499</ele>
        <time>2021-10-30T06:51:35.000Z</time>
      </trkpt>
      <trkpt lat="38.104108" lon="-1.839198">
        <ele>568.406182</ele>
        <time>2021-10-30T06:51:36.000Z</time>
      </trkpt>
      <trkpt lat="38.104086" lon="-1.838985">
        <ele>568.077999</ele>
        <time>2021-10-30T06:51:38.000Z</time>
      </trkpt>
      <trkpt lat="38.104065" lon="-1.838664">
        <ele>567.592982</ele>
        <time>2021-10-30T06:51:41.000Z</time>
      </trkpt>
      <trkpt lat="38.104059" lon="-1.838453">
        <ele>567.281712</ele>
        <time>2021-10-30T06:51:43.000Z</time>
      </trkpt>
      <trkpt lat="38.104036" lon="-1.838044">
        <ele>566.677205</ele>
        <time>2021-10-30T06:51:47.000Z</time>
      </trkpt>
      <trkpt lat="38.104023" lon="-1.837839">
        <ele>566.374003</ele>
        <time>2021-10-30T06:51:49.000Z</time>
      </trkpt>
      <trkpt lat="38.104011" lon="-1.837529">
        <ele>565.916431</ele>
        <time>2021-10-30T06:51:52.000Z</time>
      </trkpt>
      <trkpt lat="38.103981" lon="-1.836805">
        <ele>564.847593</ele>
        <time>2021-10-30T06:51:59.000Z</time>
      </trkpt>
      <trkpt lat="38.103975" lon="-1.836702">
        <ele>564.695329</ele>
        <time>2021-10-30T06:52:00.000Z</time>
      </trkpt>
      <trkpt lat="38.103962" lon="-1.836493">
        <ele>564.387068</ele>
        <time>2021-10-30T06:52:02.000Z</time>
      </trkpt>
      <trkpt lat="38.103948" lon="-1.836178">
        <ele>563.933967</ele>
        <time>2021-10-30T06:52:05.000Z</time>
      </trkpt>
      <trkpt lat="38.103916" lon="-1.835443">
        <ele>562.876797</ele>
        <time>2021-10-30T06:52:12.000Z</time>
      </trkpt>
      <trkpt lat="38.103909" lon="-1.835337">
        <ele>562.724032</ele>
        <time>2021-10-30T06:52:13.000Z</time>
      </trkpt>
      <trkpt lat="38.103896" lon="-1.835123">
        <ele>562.415785</ele>
        <time>2021-10-30T06:52:15.000Z</time>
      </trkpt>
      <trkpt lat="38.103872" lon="-1.834692">
        <ele>561.795265</ele>
        <time>2021-10-30T06:52:19.000Z</time>
      </trkpt>
      <trkpt lat="38.103860" lon="-1.834478">
        <ele>561.487153</ele>
        <time>2021-10-30T06:52:21.000Z</time>
      </trkpt>
      <trkpt lat="38.103841" lon="-1.834050">
        <ele>560.884673</ele>
        <time>2021-10-30T06:52:25.000Z</time>
      </trkpt>
      <trkpt lat="38.103834" lon="-1.833844">
        <ele>560.603327</ele>
        <time>2021-10-30T06:52:27.000Z</time>
      </trkpt>
      <trkpt lat="38.103798" lon="-1.833224">
        <ele>559.755045</ele>
        <time>2021-10-30T06:52:33.000Z</time>
      </trkpt>
      <trkpt lat="38.103796" lon="-1.833122">
        <ele>559.615824</ele>
        <time>2021-10-30T06:52:34.000Z</time>
      </trkpt>
      <trkpt lat="38.103788" lon="-1.832816">
        <ele>559.198061</ele>
        <time>2021-10-30T06:52:37.000Z</time>
      </trkpt>
      <trkpt lat="38.103751" lon="-1.832324">
        <ele>558.523675</ele>
        <time>2021-10-30T06:52:42.000Z</time>
      </trkpt>
      <trkpt lat="38.103718" lon="-1.831834">
        <ele>557.928527</ele>
        <time>2021-10-30T06:52:47.000Z</time>
      </trkpt>
      <trkpt lat="38.103713" lon="-1.831637">
        <ele>557.784186</ele>
        <time>2021-10-30T06:52:49.000Z</time>
      </trkpt>
      <trkpt lat="38.103710" lon="-1.831538">
        <ele>557.711633</ele>
        <time>2021-10-30T06:52:50.000Z</time>
      </trkpt>
      <trkpt lat="38.103691" lon="-1.831241">
        <ele>557.493417</ele>
        <time>2021-10-30T06:52:53.000Z</time>
      </trkpt>
      <trkpt lat="38.103681" lon="-1.831045">
        <ele>557.349582</ele>
        <time>2021-10-30T06:52:55.000Z</time>
      </trkpt>
      <trkpt lat="38.103653" lon="-1.830361">
        <ele>556.848001</ele>
        <time>2021-10-30T06:53:02.000Z</time>
      </trkpt>
      <trkpt lat="38.103650" lon="-1.830265">
        <ele>556.777643</ele>
        <time>2021-10-30T06:53:03.000Z</time>
      </trkpt>
      <trkpt lat="38.103619" lon="-1.829500">
        <ele>556.202235</ele>
        <time>2021-10-30T06:53:11.000Z</time>
      </trkpt>
      <trkpt lat="38.103611" lon="-1.829304">
        <ele>556.042016</ele>
        <time>2021-10-30T06:53:13.000Z</time>
      </trkpt>
      <trkpt lat="38.103606" lon="-1.829206">
        <ele>555.961846</ele>
        <time>2021-10-30T06:53:14.000Z</time>
      </trkpt>
      <trkpt lat="38.103557" lon="-1.828428">
        <ele>555.324696</ele>
        <time>2021-10-30T06:53:22.000Z</time>
      </trkpt>
      <trkpt lat="38.103551" lon="-1.828334">
        <ele>555.247708</ele>
        <time>2021-10-30T06:53:23.000Z</time>
      </trkpt>
      <trkpt lat="38.103520" lon="-1.827955">
        <ele>554.936645</ele>
        <time>2021-10-30T06:53:27.000Z</time>
      </trkpt>
      <trkpt lat="38.103465" lon="-1.827493">
        <ele>554.555200</ele>
        <time>2021-10-30T06:53:32.000Z</time>
      </trkpt>
      <trkpt lat="38.103354" lon="-1.826785">
        <ele>554.220429</ele>
        <time>2021-10-30T06:53:40.000Z</time>
      </trkpt>
      <trkpt lat="38.103340" lon="-1.826701">
        <ele>554.185272</ele>
        <time>2021-10-30T06:53:41.000Z</time>
      </trkpt>
      <trkpt lat="38.103285" lon="-1.826455">
        <ele>554.080559</ele>
        <time>2021-10-30T06:53:44.000Z</time>
      </trkpt>
      <trkpt lat="38.103266" lon="-1.826377">
        <ele>554.047126</ele>
        <time>2021-10-30T06:53:45.000Z</time>
      </trkpt>
      <trkpt lat="38.103205" lon="-1.826145">
        <ele>553.946969</ele>
        <time>2021-10-30T06:53:48.000Z</time>
      </trkpt>
      <trkpt lat="38.103138" lon="-1.825911">
        <ele>553.845011</ele>
        <time>2021-10-30T06:53:51.000Z</time>
      </trkpt>
      <trkpt lat="38.103090" lon="-1.825686">
        <ele>553.749557</ele>
        <time>2021-10-30T06:53:54.000Z</time>
      </trkpt>
      <trkpt lat="38.103037" lon="-1.825456">
        <ele>553.651427</ele>
        <time>2021-10-30T06:53:57.000Z</time>
      </trkpt>
      <trkpt lat="38.102997" lon="-1.825324">
        <ele>553.593509</ele>
        <time>2021-10-30T06:53:59.000Z</time>
      </trkpt>
      <trkpt lat="38.102799" lon="-1.824727">
        <ele>553.633717</ele>
        <time>2021-10-30T06:54:08.000Z</time>
      </trkpt>
      <trkpt lat="38.102778" lon="-1.824662">
        <ele>553.646315</ele>
        <time>2021-10-30T06:54:09.000Z</time>
      </trkpt>
      <trkpt lat="38.102650" lon="-1.824354">
        <ele>553.708767</ele>
        <time>2021-10-30T06:54:14.000Z</time>
      </trkpt>
      <trkpt lat="38.102625" lon="-1.824289">
        <ele>553.721739</ele>
        <time>2021-10-30T06:54:15.000Z</time>
      </trkpt>
      <trkpt lat="38.102553" lon="-1.824096">
        <ele>553.760035</ele>
        <time>2021-10-30T06:54:18.000Z</time>
      </trkpt>
      <trkpt lat="38.102469" lon="-1.823843">
        <ele>553.809270</ele>
        <time>2021-10-30T06:54:22.000Z</time>
      </trkpt>
      <trkpt lat="38.102424" lon="-1.823710">
        <ele>553.835227</ele>
        <time>2021-10-30T06:54:24.000Z</time>
      </trkpt>
      <trkpt lat="38.102309" lon="-1.823449">
        <ele>553.888861</ele>
        <time>2021-10-30T06:54:28.000Z</time>
      </trkpt>
      <trkpt lat="38.102254" lon="-1.823321">
        <ele>553.915009</ele>
        <time>2021-10-30T06:54:30.000Z</time>
      </trkpt>
      <trkpt lat="38.102089" lon="-1.822890">
        <ele>553.965142</ele>
        <time>2021-10-30T06:54:37.000Z</time>
      </trkpt>
      <trkpt lat="38.102023" lon="-1.822708">
        <ele>553.975565</ele>
        <time>2021-10-30T06:54:40.000Z</time>
      </trkpt>
      <trkpt lat="38.101962" lon="-1.822500">
        <ele>553.987111</ele>
        <time>2021-10-30T06:54:43.000Z</time>
      </trkpt>
      <trkpt lat="38.101862" lon="-1.822204">
        <ele>554.003867</ele>
        <time>2021-10-30T06:54:47.000Z</time>
      </trkpt>
      <trkpt lat="38.101807" lon="-1.822055">
        <ele>554.012427</ele>
        <time>2021-10-30T06:54:49.000Z</time>
      </trkpt>
      <trkpt lat="38.101779" lon="-1.821984">
        <ele>554.016558</ele>
        <time>2021-10-30T06:54:50.000Z</time>
      </trkpt>
      <trkpt lat="38.101668" lon="-1.821691">
        <ele>554.033472</ele>
        <time>2021-10-30T06:54:54.000Z</time>
      </trkpt>
      <trkpt lat="38.101517" lon="-1.821307">
        <ele>554.055801</ele>
        <time>2021-10-30T06:54:59.000Z</time>
      </trkpt>
      <trkpt lat="38.101264" lon="-1.820676">
        <ele>553.920644</ele>
        <time>2021-10-30T06:55:07.000Z</time>
      </trkpt>
      <trkpt lat="38.101178" lon="-1.820441">
        <ele>553.834347</ele>
        <time>2021-10-30T06:55:10.000Z</time>
      </trkpt>
      <trkpt lat="38.100958" lon="-1.819900">
        <ele>553.631577</ele>
        <time>2021-10-30T06:55:17.000Z</time>
      </trkpt>
      <trkpt lat="38.100823" lon="-1.819583">
        <ele>553.511559</ele>
        <time>2021-10-30T06:55:21.000Z</time>
      </trkpt>
      <trkpt lat="38.100787" lon="-1.819506">
        <ele>553.481736</ele>
        <time>2021-10-30T06:55:22.000Z</time>
      </trkpt>
      <trkpt lat="38.100669" lon="-1.819284">
        <ele>553.392533</ele>
        <time>2021-10-30T06:55:25.000Z</time>
      </trkpt>
      <trkpt lat="38.100493" lon="-1.819014">
        <ele>553.224828</ele>
        <time>2021-10-30T06:55:29.000Z</time>
      </trkpt>
      <trkpt lat="38.100347" lon="-1.818820">
        <ele>552.995466</ele>
        <time>2021-10-30T06:55:32.000Z</time>
      </trkpt>
      <trkpt lat="38.100295" lon="-1.818759">
        <ele>552.918626</ele>
        <time>2021-10-30T06:55:33.000Z</time>
      </trkpt>
      <trkpt lat="38.099964" lon="-1.818418">
        <ele>552.455961</ele>
        <time>2021-10-30T06:55:39.000Z</time>
      </trkpt>
      <trkpt lat="38.099630" lon="-1.818103">
        <ele>552.004343</ele>
        <time>2021-10-30T06:55:45.000Z</time>
      </trkpt>
      <trkpt lat="38.099577" lon="-1.818050">
        <ele>551.931114</ele>
        <time>2021-10-30T06:55:46.000Z</time>
      </trkpt>
      <trkpt lat="38.099307" lon="-1.817786">
        <ele>551.561211</ele>
        <time>2021-10-30T06:55:51.000Z</time>
      </trkpt>
      <trkpt lat="38.098848" lon="-1.817338">
        <ele>551.285399</ele>
        <time>2021-10-30T06:56:00.000Z</time>
      </trkpt>
      <trkpt lat="38.098779" lon="-1.817269">
        <ele>551.269610</ele>
        <time>2021-10-30T06:56:02.000Z</time>
      </trkpt>
      <trkpt lat="38.098720" lon="-1.817189">
        <ele>551.254094</ele>
        <time>2021-10-30T06:56:04.000Z</time>
      </trkpt>
      <trkpt lat="38.098514" lon="-1.817007">
        <ele>551.208976</ele>
        <time>2021-10-30T06:56:09.000Z</time>
      </trkpt>
      <trkpt lat="38.098472" lon="-1.816966">
        <ele>551.199452</ele>
        <time>2021-10-30T06:56:10.000Z</time>
      </trkpt>
      <trkpt lat="38.098344" lon="-1.816843">
        <ele>551.170593</ele>
        <time>2021-10-30T06:56:13.000Z</time>
      </trkpt>
      <trkpt lat="38.098215" lon="-1.816714">
        <ele>551.141074</ele>
        <time>2021-10-30T06:56:16.000Z</time>
      </trkpt>
      <trkpt lat="38.098039" lon="-1.816543">
        <ele>551.101233</ele>
        <time>2021-10-30T06:56:20.000Z</time>
      </trkpt>
      <trkpt lat="38.097955" lon="-1.816451">
        <ele>551.081291</ele>
        <time>2021-10-30T06:56:22.000Z</time>
      </trkpt>
      <trkpt lat="38.097745" lon="-1.816220">
        <ele>551.036228</ele>
        <time>2021-10-30T06:56:27.000Z</time>
      </trkpt>
      <trkpt lat="38.097706" lon="-1.816168">
        <ele>551.108688</ele>
        <time>2021-10-30T06:56:28.000Z</time>
      </trkpt>
      <trkpt lat="38.097555" lon="-1.815961">
        <ele>551.393404</ele>
        <time>2021-10-30T06:56:32.000Z</time>
      </trkpt>
      <trkpt lat="38.097519" lon="-1.815911">
        <ele>551.461765</ele>
        <time>2021-10-30T06:56:33.000Z</time>
      </trkpt>
      <trkpt lat="38.097438" lon="-1.815818">
        <ele>551.601696</ele>
        <time>2021-10-30T06:56:35.000Z</time>
      </trkpt>
      <trkpt lat="38.097396" lon="-1.815775">
        <ele>551.670831</ele>
        <time>2021-10-30T06:56:36.000Z</time>
      </trkpt>
      <trkpt lat="38.097353" lon="-1.815735">
        <ele>551.739140</ele>
        <time>2021-10-30T06:56:37.000Z</time>
      </trkpt>
      <trkpt lat="38.097305" lon="-1.815702">
        <ele>551.809094</ele>
        <time>2021-10-30T06:56:38.000Z</time>
      </trkpt>
      <trkpt lat="38.097085" lon="-1.815451">
        <ele>552.188079</ele>
        <time>2021-10-30T06:56:40.000Z</time>
      </trkpt>
      <trkpt lat="38.096865" lon="-1.815201">
        <ele>552.566391</ele>
        <time>2021-10-30T06:56:42.000Z</time>
      </trkpt>
      <trkpt lat="38.096645" lon="-1.814950">
        <ele>552.945376</ele>
        <time>2021-10-30T06:56:47.000Z</time>
      </trkpt>
      <trkpt lat="38.096425" lon="-1.814699">
        <ele>553.324362</ele>
        <time>2021-10-30T06:56:51.000Z</time>
      </trkpt>
      <trkpt lat="38.096205" lon="-1.814448">
        <ele>553.547177</ele>
        <time>2021-10-30T06:57:04.000Z</time>
      </trkpt>
      <trkpt lat="38.095985" lon="-1.814197">
        <ele>553.764404</ele>
        <time>2021-10-30T06:57:08.000Z</time>
      </trkpt>
      <trkpt lat="38.095765" lon="-1.813947">
        <ele>553.981244</ele>
        <time>2021-10-30T06:57:14.000Z</time>
      </trkpt>
      <trkpt lat="38.095545" lon="-1.813696">
        <ele>554.198471</ele>
        <time>2021-10-30T06:57:19.000Z</time>
      </trkpt>
      <trkpt lat="38.095497" lon="-1.813521">
        <ele>554.305625</ele>
        <time>2021-10-30T06:57:21.000Z</time>
      </trkpt>
      <trkpt lat="38.095577" lon="-1.813533">
        <ele>554.364810</ele>
        <time>2021-10-30T06:57:22.000Z</time>
      </trkpt>
      <trkpt lat="38.095427" lon="-1.813321">
        <ele>554.529645</ele>
        <time>2021-10-30T06:57:27.000Z</time>
      </trkpt>
      <trkpt lat="38.095259" lon="-1.813099">
        <ele>554.505942</ele>
        <time>2021-10-30T06:57:31.000Z</time>
      </trkpt>
      <trkpt lat="38.095122" lon="-1.812936">
        <ele>554.073674</ele>
        <time>2021-10-30T06:57:34.000Z</time>
      </trkpt>
      <trkpt lat="38.094706" lon="-1.812428">
        <ele>552.744809</ele>
        <time>2021-10-30T06:57:43.000Z</time>
      </trkpt>
      <trkpt lat="38.094609" lon="-1.812308">
        <ele>552.433003</ele>
        <time>2021-10-30T06:57:45.000Z</time>
      </trkpt>
      <trkpt lat="38.094463" lon="-1.812123">
        <ele>551.958111</ele>
        <time>2021-10-30T06:57:48.000Z</time>
      </trkpt>
      <trkpt lat="38.094416" lon="-1.812058">
        <ele>551.798112</ele>
        <time>2021-10-30T06:57:49.000Z</time>
      </trkpt>
      <trkpt lat="38.094224" lon="-1.811788">
        <ele>551.138514</ele>
        <time>2021-10-30T06:57:53.000Z</time>
      </trkpt>
      <trkpt lat="38.093949" lon="-1.811357">
        <ele>550.314974</ele>
        <time>2021-10-30T06:57:59.000Z</time>
      </trkpt>
      <trkpt lat="38.093630" lon="-1.810792">
        <ele>549.653339</ele>
        <time>2021-10-30T06:58:06.000Z</time>
      </trkpt>
      <trkpt lat="38.093585" lon="-1.810708">
        <ele>549.556653</ele>
        <time>2021-10-30T06:58:07.000Z</time>
      </trkpt>
      <trkpt lat="38.093407" lon="-1.810373">
        <ele>549.172051</ele>
        <time>2021-10-30T06:58:11.000Z</time>
      </trkpt>
      <trkpt lat="38.093188" lon="-1.809923">
        <ele>548.668619</ele>
        <time>2021-10-30T06:58:16.000Z</time>
      </trkpt>
      <trkpt lat="38.093057" lon="-1.809644">
        <ele>548.359491</ele>
        <time>2021-10-30T06:58:19.000Z</time>
      </trkpt>
      <trkpt lat="38.092974" lon="-1.809454">
        <ele>547.848863</ele>
        <time>2021-10-30T06:58:21.000Z</time>
      </trkpt>
      <trkpt lat="38.092845" lon="-1.809153">
        <ele>546.998357</ele>
        <time>2021-10-30T06:58:24.000Z</time>
      </trkpt>
      <trkpt lat="38.092801" lon="-1.809051">
        <ele>546.709713</ele>
        <time>2021-10-30T06:58:25.000Z</time>
      </trkpt>
      <trkpt lat="38.092715" lon="-1.808848">
        <ele>546.137616</ele>
        <time>2021-10-30T06:58:27.000Z</time>
      </trkpt>
      <trkpt lat="38.092632" lon="-1.808642">
        <ele>545.563324</ele>
        <time>2021-10-30T06:58:29.000Z</time>
      </trkpt>
      <trkpt lat="38.092501" lon="-1.808334">
        <ele>544.694539</ele>
        <time>2021-10-30T06:58:32.000Z</time>
      </trkpt>
      <trkpt lat="38.092328" lon="-1.807923">
        <ele>543.537917</ele>
        <time>2021-10-30T06:58:36.000Z</time>
      </trkpt>
      <trkpt lat="38.092065" lon="-1.807319">
        <ele>542.277038</ele>
        <time>2021-10-30T06:58:42.000Z</time>
      </trkpt>
      <trkpt lat="38.092019" lon="-1.807216">
        <ele>542.140302</ele>
        <time>2021-10-30T06:58:43.000Z</time>
      </trkpt>
      <trkpt lat="38.091930" lon="-1.807014">
        <ele>541.873013</ele>
        <time>2021-10-30T06:58:45.000Z</time>
      </trkpt>
      <trkpt lat="38.091886" lon="-1.806916">
        <ele>541.742746</ele>
        <time>2021-10-30T06:58:46.000Z</time>
      </trkpt>
      <trkpt lat="38.091589" lon="-1.806252">
        <ele>540.860928</ele>
        <time>2021-10-30T06:58:53.000Z</time>
      </trkpt>
      <trkpt lat="38.091546" lon="-1.806161">
        <ele>540.738377</ele>
        <time>2021-10-30T06:58:54.000Z</time>
      </trkpt>
      <trkpt lat="38.091412" lon="-1.805887">
        <ele>540.365913</ele>
        <time>2021-10-30T06:58:57.000Z</time>
      </trkpt>
      <trkpt lat="38.091371" lon="-1.805799">
        <ele>540.247839</ele>
        <time>2021-10-30T06:58:58.000Z</time>
      </trkpt>
      <trkpt lat="38.091293" lon="-1.805624">
        <ele>540.042507</ele>
        <time>2021-10-30T06:59:00.000Z</time>
      </trkpt>
      <trkpt lat="38.091221" lon="-1.805453">
        <ele>540.192829</ele>
        <time>2021-10-30T06:59:02.000Z</time>
      </trkpt>
      <trkpt lat="38.091122" lon="-1.805198">
        <ele>540.413224</ele>
        <time>2021-10-30T06:59:05.000Z</time>
      </trkpt>
      <trkpt lat="38.091018" lon="-1.804962">
        <ele>540.622876</ele>
        <time>2021-10-30T06:59:08.000Z</time>
      </trkpt>
      <trkpt lat="38.090877" lon="-1.804672">
        <ele>540.887096</ele>
        <time>2021-10-30T06:59:12.000Z</time>
      </trkpt>
      <trkpt lat="38.090752" lon="-1.804379">
        <ele>541.145428</ele>
        <time>2021-10-30T06:59:16.000Z</time>
      </trkpt>
      <trkpt lat="38.090575" lon="-1.803953">
        <ele>541.518820</ele>
        <time>2021-10-30T06:59:22.000Z</time>
      </trkpt>
      <trkpt lat="38.090393" lon="-1.803543">
        <ele>541.984012</ele>
        <time>2021-10-30T06:59:28.000Z</time>
      </trkpt>
      <trkpt lat="38.090306" lon="-1.803343">
        <ele>542.381753</ele>
        <time>2021-10-30T06:59:31.000Z</time>
      </trkpt>
      <trkpt lat="38.090281" lon="-1.803279">
        <ele>542.506114</ele>
        <time>2021-10-30T06:59:32.000Z</time>
      </trkpt>
      <trkpt lat="38.090256" lon="-1.803220">
        <ele>542.622743</ele>
        <time>2021-10-30T06:59:33.000Z</time>
      </trkpt>
      <trkpt lat="38.090154" lon="-1.802976">
        <ele>543.103626</ele>
        <time>2021-10-30T06:59:37.000Z</time>
      </trkpt>
      <trkpt lat="38.090125" lon="-1.802914">
        <ele>543.229159</ele>
        <time>2021-10-30T06:59:38.000Z</time>
      </trkpt>
      <trkpt lat="38.090095" lon="-1.802851">
        <ele>543.357322</ele>
        <time>2021-10-30T06:59:39.000Z</time>
      </trkpt>
      <trkpt lat="38.090065" lon="-1.802790">
        <ele>543.482520</ele>
        <time>2021-10-30T06:59:40.000Z</time>
      </trkpt>
      <trkpt lat="38.090004" lon="-1.802668">
        <ele>543.734095</ele>
        <time>2021-10-30T06:59:42.000Z</time>
      </trkpt>
      <trkpt lat="38.089921" lon="-1.802515">
        <ele>544.057531</ele>
        <time>2021-10-30T06:59:45.000Z</time>
      </trkpt>
      <trkpt lat="38.089782" lon="-1.802282">
        <ele>544.566417</ele>
        <time>2021-10-30T06:59:50.000Z</time>
      </trkpt>
      <trkpt lat="38.089754" lon="-1.802239">
        <ele>544.663556</ele>
        <time>2021-10-30T06:59:51.000Z</time>
      </trkpt>
      <trkpt lat="38.089669" lon="-1.802112">
        <ele>544.953727</ele>
        <time>2021-10-30T06:59:54.000Z</time>
      </trkpt>
      <trkpt lat="38.089493" lon="-1.801905">
        <ele>545.484114</ele>
        <time>2021-10-30T06:59:59.000Z</time>
      </trkpt>
      <trkpt lat="38.089460" lon="-1.801865">
        <ele>545.584977</ele>
        <time>2021-10-30T07:00:00.000Z</time>
      </trkpt>
      <trkpt lat="38.089400" lon="-1.801796">
        <ele>545.763947</ele>
        <time>2021-10-30T07:00:02.000Z</time>
      </trkpt>
      <trkpt lat="38.089343" lon="-1.801730">
        <ele>546.109144</ele>
        <time>2021-10-30T07:00:04.000Z</time>
      </trkpt>
      <trkpt lat="38.089316" lon="-1.801702">
        <ele>546.273830</ele>
        <time>2021-10-30T07:00:05.000Z</time>
      </trkpt>
      <trkpt lat="38.089240" lon="-1.801626">
        <ele>546.730841</ele>
        <time>2021-10-30T07:00:08.000Z</time>
      </trkpt>
      <trkpt lat="38.089167" lon="-1.801545">
        <ele>547.188812</ele>
        <time>2021-10-30T07:00:11.000Z</time>
      </trkpt>
      <trkpt lat="38.089116" lon="-1.801493">
        <ele>547.497805</ele>
        <time>2021-10-30T07:00:13.000Z</time>
      </trkpt>
      <trkpt lat="38.089062" lon="-1.801438">
        <ele>547.824837</ele>
        <time>2021-10-30T07:00:15.000Z</time>
      </trkpt>
      <trkpt lat="38.089033" lon="-1.801408">
        <ele>548.001547</ele>
        <time>2021-10-30T07:00:16.000Z</time>
      </trkpt>
      <trkpt lat="38.089005" lon="-1.801376">
        <ele>548.179505</ele>
        <time>2021-10-30T07:00:17.000Z</time>
      </trkpt>
      <trkpt lat="38.088948" lon="-1.801310">
        <ele>548.543916</ele>
        <time>2021-10-30T07:00:19.000Z</time>
      </trkpt>
      <trkpt lat="38.088918" lon="-1.801276">
        <ele>548.733877</ele>
        <time>2021-10-30T07:00:20.000Z</time>
      </trkpt>
      <trkpt lat="38.088860" lon="-1.801210">
        <ele>549.101794</ele>
        <time>2021-10-30T07:00:22.000Z</time>
      </trkpt>
      <trkpt lat="38.088802" lon="-1.801146">
        <ele>549.464792</ele>
        <time>2021-10-30T07:00:24.000Z</time>
      </trkpt>
      <trkpt lat="38.088688" lon="-1.801014">
        <ele>550.193615</ele>
        <time>2021-10-30T07:00:28.000Z</time>
      </trkpt>
      <trkpt lat="38.088660" lon="-1.800981">
        <ele>550.374081</ele>
        <time>2021-10-30T07:00:29.000Z</time>
      </trkpt>
      <trkpt lat="38.088499" lon="-1.800774">
        <ele>551.456417</ele>
        <time>2021-10-30T07:00:35.000Z</time>
      </trkpt>
      <trkpt lat="38.088388" lon="-1.800646">
        <ele>552.164744</ele>
        <time>2021-10-30T07:00:39.000Z</time>
      </trkpt>
      <trkpt lat="38.088274" lon="-1.800518">
        <ele>552.883633</ele>
        <time>2021-10-30T07:00:43.000Z</time>
      </trkpt>
      <trkpt lat="38.088218" lon="-1.800451">
        <ele>553.247106</ele>
        <time>2021-10-30T07:00:45.000Z</time>
      </trkpt>
      <trkpt lat="38.088099" lon="-1.800325">
        <ele>553.979082</ele>
        <time>2021-10-30T07:00:49.000Z</time>
      </trkpt>
      <trkpt lat="38.088017" lon="-1.800226">
        <ele>554.182763</ele>
        <time>2021-10-30T07:00:52.000Z</time>
      </trkpt>
      <trkpt lat="38.087992" lon="-1.800190">
        <ele>554.108446</ele>
        <time>2021-10-30T07:00:53.000Z</time>
      </trkpt>
      <trkpt lat="38.087847" lon="-1.799969">
        <ele>553.663067</ele>
        <time>2021-10-30T07:00:58.000Z</time>
      </trkpt>
      <trkpt lat="38.087698" lon="-1.799727">
        <ele>553.187451</ele>
        <time>2021-10-30T07:01:02.000Z</time>
      </trkpt>
      <trkpt lat="38.087609" lon="-1.799600">
        <ele>552.924223</ele>
        <time>2021-10-30T07:01:04.000Z</time>
      </trkpt>
      <trkpt lat="38.087565" lon="-1.799532">
        <ele>552.787955</ele>
        <time>2021-10-30T07:01:05.000Z</time>
      </trkpt>
      <trkpt lat="38.087438" lon="-1.799314">
        <ele>552.368111</ele>
        <time>2021-10-30T07:01:08.000Z</time>
      </trkpt>
      <trkpt lat="38.087399" lon="-1.799238">
        <ele>552.227667</ele>
        <time>2021-10-30T07:01:09.000Z</time>
      </trkpt>
      <trkpt lat="38.087325" lon="-1.799083">
        <ele>551.947039</ele>
        <time>2021-10-30T07:01:11.000Z</time>
      </trkpt>
      <trkpt lat="38.087287" lon="-1.799006">
        <ele>551.806351</ele>
        <time>2021-10-30T07:01:12.000Z</time>
      </trkpt>
      <trkpt lat="38.087185" lon="-1.798772">
        <ele>551.392280</ele>
        <time>2021-10-30T07:01:15.000Z</time>
      </trkpt>
      <trkpt lat="38.087130" lon="-1.798613">
        <ele>551.123428</ele>
        <time>2021-10-30T07:01:17.000Z</time>
      </trkpt>
      <trkpt lat="38.087022" lon="-1.798212">
        <ele>550.186685</ele>
        <time>2021-10-30T07:01:22.000Z</time>
      </trkpt>
      <trkpt lat="38.086990" lon="-1.798054">
        <ele>549.676507</ele>
        <time>2021-10-30T07:01:24.000Z</time>
      </trkpt>
      <trkpt lat="38.086963" lon="-1.797808">
        <ele>548.899797</ele>
        <time>2021-10-30T07:01:27.000Z</time>
      </trkpt>
      <trkpt lat="38.086938" lon="-1.797651">
        <ele>548.398895</ele>
        <time>2021-10-30T07:01:29.000Z</time>
      </trkpt>
      <trkpt lat="38.086929" lon="-1.797576">
        <ele>548.161652</ele>
        <time>2021-10-30T07:01:30.000Z</time>
      </trkpt>
      <trkpt lat="38.086901" lon="-1.797372">
        <ele>547.514095</ele>
        <time>2021-10-30T07:01:33.000Z</time>
      </trkpt>
      <trkpt lat="38.086901" lon="-1.797314">
        <ele>547.332723</ele>
        <time>2021-10-30T07:01:34.000Z</time>
      </trkpt>
      <trkpt lat="38.086912" lon="-1.797198">
        <ele>546.967356</ele>
        <time>2021-10-30T07:01:36.000Z</time>
      </trkpt>
      <trkpt lat="38.086910" lon="-1.797132">
        <ele>546.760814</ele>
        <time>2021-10-30T07:01:37.000Z</time>
      </trkpt>
      <trkpt lat="38.086901" lon="-1.797057">
        <ele>546.523571</ele>
        <time>2021-10-30T07:01:38.000Z</time>
      </trkpt>
      <trkpt lat="38.086889" lon="-1.796972">
        <ele>546.253525</ele>
        <time>2021-10-30T07:01:39.000Z</time>
      </trkpt>
      <trkpt lat="38.086875" lon="-1.796876">
        <ele>545.948213</ele>
        <time>2021-10-30T07:01:40.000Z</time>
      </trkpt>
      <trkpt lat="38.086858" lon="-1.796775">
        <ele>545.625234</ele>
        <time>2021-10-30T07:01:41.000Z</time>
      </trkpt>
      <trkpt lat="38.086840" lon="-1.796670">
        <ele>545.289190</ele>
        <time>2021-10-30T07:01:42.000Z</time>
      </trkpt>
      <trkpt lat="38.086820" lon="-1.796560">
        <ele>544.936149</ele>
        <time>2021-10-30T07:01:43.000Z</time>
      </trkpt>
      <trkpt lat="38.086801" lon="-1.796443">
        <ele>544.562571</ele>
        <time>2021-10-30T07:01:44.000Z</time>
      </trkpt>
      <trkpt lat="38.086761" lon="-1.796201">
        <ele>543.789303</ele>
        <time>2021-10-30T07:01:46.000Z</time>
      </trkpt>
      <trkpt lat="38.086744" lon="-1.796076">
        <ele>543.541101</ele>
        <time>2021-10-30T07:01:47.000Z</time>
      </trkpt>
      <trkpt lat="38.086725" lon="-1.795947">
        <ele>543.429805</ele>
        <time>2021-10-30T07:01:48.000Z</time>
      </trkpt>
      <trkpt lat="38.086695" lon="-1.795706">
        <ele>543.222888</ele>
        <time>2021-10-30T07:01:50.000Z</time>
      </trkpt>
      <trkpt lat="38.086662" lon="-1.795474">
        <ele>543.022956</ele>
        <time>2021-10-30T07:01:52.000Z</time>
      </trkpt>
      <trkpt lat="38.086647" lon="-1.795364">
        <ele>542.928282</ele>
        <time>2021-10-30T07:01:53.000Z</time>
      </trkpt>
      <trkpt lat="38.086615" lon="-1.795051">
        <ele>542.660616</ele>
        <time>2021-10-30T07:01:56.000Z</time>
      </trkpt>
      <trkpt lat="38.086597" lon="-1.794852">
        <ele>542.490746</ele>
        <time>2021-10-30T07:01:58.000Z</time>
      </trkpt>
      <trkpt lat="38.086588" lon="-1.794761">
        <ele>542.412967</ele>
        <time>2021-10-30T07:01:59.000Z</time>
      </trkpt>
      <trkpt lat="38.086578" lon="-1.794676">
        <ele>542.340083</ele>
        <time>2021-10-30T07:02:00.000Z</time>
      </trkpt>
      <trkpt lat="38.086546" lon="-1.794443">
        <ele>542.139505</ele>
        <time>2021-10-30T07:02:03.000Z</time>
      </trkpt>
      <trkpt lat="38.086532" lon="-1.794363">
        <ele>542.070005</ele>
        <time>2021-10-30T07:02:04.000Z</time>
      </trkpt>
      <trkpt lat="38.086502" lon="-1.794183">
        <ele>541.913973</ele>
        <time>2021-10-30T07:02:06.000Z</time>
      </trkpt>
      <trkpt lat="38.086464" lon="-1.793991">
        <ele>541.746080</ele>
        <time>2021-10-30T07:02:08.000Z</time>
      </trkpt>
      <trkpt lat="38.086448" lon="-1.793892">
        <ele>541.660373</ele>
        <time>2021-10-30T07:02:09.000Z</time>
      </trkpt>
      <trkpt lat="38.086404" lon="-1.793587">
        <ele>541.525740</ele>
        <time>2021-10-30T07:02:12.000Z</time>
      </trkpt>
      <trkpt lat="38.086349" lon="-1.793204">
        <ele>541.357919</ele>
        <time>2021-10-30T07:02:16.000Z</time>
      </trkpt>
      <trkpt lat="38.086339" lon="-1.793112">
        <ele>541.317886</ele>
        <time>2021-10-30T07:02:17.000Z</time>
      </trkpt>
      <trkpt lat="38.086239" lon="-1.792403">
        <ele>541.007396</ele>
        <time>2021-10-30T07:02:25.000Z</time>
      </trkpt>
      <trkpt lat="38.086225" lon="-1.792315">
        <ele>540.968696</ele>
        <time>2021-10-30T07:02:26.000Z</time>
      </trkpt>
      <trkpt lat="38.086143" lon="-1.791793">
        <ele>540.739245</ele>
        <time>2021-10-30T07:02:32.000Z</time>
      </trkpt>
      <trkpt lat="38.086090" lon="-1.791440">
        <ele>540.753789</ele>
        <time>2021-10-30T07:02:36.000Z</time>
      </trkpt>
      <trkpt lat="38.086036" lon="-1.791020">
        <ele>540.919589</ele>
        <time>2021-10-30T07:02:41.000Z</time>
      </trkpt>
      <trkpt lat="38.085995" lon="-1.790698">
        <ele>541.046671</ele>
        <time>2021-10-30T07:02:45.000Z</time>
      </trkpt>
      <trkpt lat="38.085966" lon="-1.790457">
        <ele>541.141655</ele>
        <time>2021-10-30T07:02:48.000Z</time>
      </trkpt>
      <trkpt lat="38.085947" lon="-1.790297">
        <ele>541.204697</ele>
        <time>2021-10-30T07:02:50.000Z</time>
      </trkpt>
      <trkpt lat="38.085902" lon="-1.789978">
        <ele>541.330959</ele>
        <time>2021-10-30T07:02:54.000Z</time>
      </trkpt>
      <trkpt lat="38.085843" lon="-1.789501">
        <ele>541.519079</ele>
        <time>2021-10-30T07:03:00.000Z</time>
      </trkpt>
      <trkpt lat="38.085775" lon="-1.789018">
        <ele>541.292998</ele>
        <time>2021-10-30T07:03:06.000Z</time>
      </trkpt>
      <trkpt lat="38.085748" lon="-1.788776">
        <ele>541.117179</ele>
        <time>2021-10-30T07:03:09.000Z</time>
      </trkpt>
      <trkpt lat="38.085734" lon="-1.788608">
        <ele>540.995655</ele>
        <time>2021-10-30T07:03:11.000Z</time>
      </trkpt>
      <trkpt lat="38.085700" lon="-1.788347">
        <ele>540.805355</ele>
        <time>2021-10-30T07:03:14.000Z</time>
      </trkpt>
      <trkpt lat="38.085645" lon="-1.787912">
        <ele>540.488432</ele>
        <time>2021-10-30T07:03:19.000Z</time>
      </trkpt>
      <trkpt lat="38.085603" lon="-1.787562">
        <ele>540.233755</ele>
        <time>2021-10-30T07:03:23.000Z</time>
      </trkpt>
      <trkpt lat="38.085581" lon="-1.787389">
        <ele>540.107696</ele>
        <time>2021-10-30T07:03:25.000Z</time>
      </trkpt>
      <trkpt lat="38.085503" lon="-1.786691">
        <ele>539.652971</ele>
        <time>2021-10-30T07:03:33.000Z</time>
      </trkpt>
      <trkpt lat="38.085469" lon="-1.786342">
        <ele>539.441529</ele>
        <time>2021-10-30T07:03:37.000Z</time>
      </trkpt>
      <trkpt lat="38.085461" lon="-1.786253">
        <ele>539.387669</ele>
        <time>2021-10-30T07:03:38.000Z</time>
      </trkpt>
      <trkpt lat="38.085462" lon="-1.785732">
        <ele>539.074410</ele>
        <time>2021-10-30T07:03:44.000Z</time>
      </trkpt>
      <trkpt lat="38.085476" lon="-1.785592">
        <ele>538.989556</ele>
        <time>2021-10-30T07:03:46.000Z</time>
      </trkpt>
      <trkpt lat="38.085501" lon="-1.785505">
        <ele>538.933869</ele>
        <time>2021-10-30T07:03:48.000Z</time>
      </trkpt>
      <trkpt lat="38.085512" lon="-1.785449">
        <ele>538.899166</ele>
        <time>2021-10-30T07:03:50.000Z</time>
      </trkpt>
      <trkpt lat="38.085525" lon="-1.785397">
        <ele>538.866361</ele>
        <time>2021-10-30T07:03:52.000Z</time>
      </trkpt>
      <trkpt lat="38.085598" lon="-1.785248">
        <ele>538.760835</ele>
        <time>2021-10-30T07:03:56.000Z</time>
      </trkpt>
      <trkpt lat="38.085659" lon="-1.785171">
        <ele>538.695148</ele>
        <time>2021-10-30T07:03:58.000Z</time>
      </trkpt>
      <trkpt lat="38.085740" lon="-1.785104">
        <ele>538.621313</ele>
        <time>2021-10-30T07:04:00.000Z</time>
      </trkpt>
      <trkpt lat="38.085835" lon="-1.785043">
        <ele>538.534522</ele>
        <time>2021-10-30T07:04:02.000Z</time>
      </trkpt>
      <trkpt lat="38.086043" lon="-1.784926">
        <ele>538.197917</ele>
        <time>2021-10-30T07:04:06.000Z</time>
      </trkpt>
      <trkpt lat="38.086151" lon="-1.784861">
        <ele>538.021079</ele>
        <time>2021-10-30T07:04:08.000Z</time>
      </trkpt>
      <trkpt lat="38.086208" lon="-1.784827">
        <ele>537.927900</ele>
        <time>2021-10-30T07:04:09.000Z</time>
      </trkpt>
      <trkpt lat="38.086411" lon="-1.784677">
        <ele>537.580401</ele>
        <time>2021-10-30T07:04:13.000Z</time>
      </trkpt>
      <trkpt lat="38.086519" lon="-1.784626">
        <ele>537.409906</ele>
        <time>2021-10-30T07:04:15.000Z</time>
      </trkpt>
      <trkpt lat="38.086563" lon="-1.784589">
        <ele>537.331828</ele>
        <time>2021-10-30T07:04:16.000Z</time>
      </trkpt>
      <trkpt lat="38.086628" lon="-1.784546">
        <ele>537.223386</ele>
        <time>2021-10-30T07:04:17.000Z</time>
      </trkpt>
      <trkpt lat="38.086684" lon="-1.784512">
        <ele>537.131545</ele>
        <time>2021-10-30T07:04:18.000Z</time>
      </trkpt>
      <trkpt lat="38.086744" lon="-1.784482">
        <ele>537.036131</ele>
        <time>2021-10-30T07:04:19.000Z</time>
      </trkpt>
      <trkpt lat="38.086912" lon="-1.784381">
        <ele>536.761107</ele>
        <time>2021-10-30T07:04:22.000Z</time>
      </trkpt>
      <trkpt lat="38.086986" lon="-1.784253">
        <ele>536.576133</ele>
        <time>2021-10-30T07:04:24.000Z</time>
      </trkpt>
      <trkpt lat="38.087000" lon="-1.784176">
        <ele>536.484091</ele>
        <time>2021-10-30T07:04:25.000Z</time>
      </trkpt>
      <trkpt lat="38.086970" lon="-1.784098">
        <ele>536.382980</ele>
        <time>2021-10-30T07:04:26.000Z</time>
      </trkpt>
      <trkpt lat="38.086906" lon="-1.783958">
        <ele>536.194418</ele>
        <time>2021-10-30T07:04:28.000Z</time>
      </trkpt>
      <trkpt lat="38.086849" lon="-1.783815">
        <ele>536.007728</ele>
        <time>2021-10-30T07:04:30.000Z</time>
      </trkpt>
      <trkpt lat="38.086776" lon="-1.783625">
        <ele>535.905775</ele>
        <time>2021-10-30T07:04:33.000Z</time>
      </trkpt>
      <trkpt lat="38.086766" lon="-1.783575">
        <ele>535.916283</ele>
        <time>2021-10-30T07:04:34.000Z</time>
      </trkpt>
      <trkpt lat="38.086737" lon="-1.783500">
        <ele>535.933302</ele>
        <time>2021-10-30T07:04:37.000Z</time>
      </trkpt>
      <trkpt lat="38.086722" lon="-1.783481">
        <ele>535.938783</ele>
        <time>2021-10-30T07:04:39.000Z</time>
      </trkpt>
      <trkpt lat="38.086716" lon="-1.783404">
        <ele>535.954543</ele>
        <time>2021-10-30T07:04:41.000Z</time>
      </trkpt>
      <trkpt lat="38.086713" lon="-1.783350">
        <ele>535.965568</ele>
        <time>2021-10-30T07:04:42.000Z</time>
      </trkpt>
      <trkpt lat="38.086692" lon="-1.783233">
        <ele>535.990010</ele>
        <time>2021-10-30T07:04:44.000Z</time>
      </trkpt>
      <trkpt lat="38.086673" lon="-1.783171">
        <ele>536.003561</ele>
        <time>2021-10-30T07:04:45.000Z</time>
      </trkpt>
      <trkpt lat="38.086568" lon="-1.782905">
        <ele>536.064170</ele>
        <time>2021-10-30T07:04:49.000Z</time>
      </trkpt>
      <trkpt lat="38.086510" lon="-1.782764">
        <ele>536.096574</ele>
        <time>2021-10-30T07:04:51.000Z</time>
      </trkpt>
      <trkpt lat="38.086344" lon="-1.782519">
        <ele>536.162416</ele>
        <time>2021-10-30T07:04:55.000Z</time>
      </trkpt>
      <trkpt lat="38.086303" lon="-1.782464">
        <ele>536.177845</ele>
        <time>2021-10-30T07:04:56.000Z</time>
      </trkpt>
      <trkpt lat="38.086236" lon="-1.782374">
        <ele>536.203076</ele>
        <time>2021-10-30T07:04:58.000Z</time>
      </trkpt>
      <trkpt lat="38.086217" lon="-1.782331">
        <ele>536.213120</ele>
        <time>2021-10-30T07:04:59.000Z</time>
      </trkpt>
      <trkpt lat="38.086232" lon="-1.782142">
        <ele>536.251810</ele>
        <time>2021-10-30T07:05:03.000Z</time>
      </trkpt>
      <trkpt lat="38.086341" lon="-1.781720">
        <ele>536.342271</ele>
        <time>2021-10-30T07:05:10.000Z</time>
      </trkpt>
      <trkpt lat="38.086460" lon="-1.781243">
        <ele>535.918190</ele>
        <time>2021-10-30T07:05:17.000Z</time>
      </trkpt>
      <trkpt lat="38.086554" lon="-1.780797">
        <ele>535.488524</ele>
        <time>2021-10-30T07:05:23.000Z</time>
      </trkpt>
      <trkpt lat="38.086606" lon="-1.780560">
        <ele>535.259565</ele>
        <time>2021-10-30T07:05:26.000Z</time>
      </trkpt>
      <trkpt lat="38.086664" lon="-1.780319">
        <ele>535.025044</ele>
        <time>2021-10-30T07:05:29.000Z</time>
      </trkpt>
      <trkpt lat="38.086704" lon="-1.780161">
        <ele>534.870592</ele>
        <time>2021-10-30T07:05:31.000Z</time>
      </trkpt>
      <trkpt lat="38.086768" lon="-1.779935">
        <ele>534.647081</ele>
        <time>2021-10-30T07:05:34.000Z</time>
      </trkpt>
      <trkpt lat="38.086797" lon="-1.779775">
        <ele>534.494290</ele>
        <time>2021-10-30T07:05:36.000Z</time>
      </trkpt>
      <trkpt lat="38.086914" lon="-1.779286">
        <ele>533.966595</ele>
        <time>2021-10-30T07:05:42.000Z</time>
      </trkpt>
      <trkpt lat="38.086933" lon="-1.779204">
        <ele>533.866790</ele>
        <time>2021-10-30T07:05:43.000Z</time>
      </trkpt>
      <trkpt lat="38.086952" lon="-1.779122">
        <ele>533.766984</ele>
        <time>2021-10-30T07:05:44.000Z</time>
      </trkpt>
      <trkpt lat="38.087112" lon="-1.778432">
        <ele>532.927107</ele>
        <time>2021-10-30T07:05:52.000Z</time>
      </trkpt>
      <trkpt lat="38.087130" lon="-1.778344">
        <ele>532.820946</ele>
        <time>2021-10-30T07:05:53.000Z</time>
      </trkpt>
      <trkpt lat="38.087209" lon="-1.777993">
        <ele>532.394694</ele>
        <time>2021-10-30T07:05:57.000Z</time>
      </trkpt>
      <trkpt lat="38.087230" lon="-1.777904">
        <ele>532.286209</ele>
        <time>2021-10-30T07:05:58.000Z</time>
      </trkpt>
      <trkpt lat="38.087271" lon="-1.777724">
        <ele>532.067418</ele>
        <time>2021-10-30T07:06:00.000Z</time>
      </trkpt>
      <trkpt lat="38.087310" lon="-1.777544">
        <ele>531.849434</ele>
        <time>2021-10-30T07:06:02.000Z</time>
      </trkpt>
      <trkpt lat="38.087354" lon="-1.777363">
        <ele>531.628250</ele>
        <time>2021-10-30T07:06:04.000Z</time>
      </trkpt>
      <trkpt lat="38.087446" lon="-1.777006">
        <ele>531.491036</ele>
        <time>2021-10-30T07:06:08.000Z</time>
      </trkpt>
      <trkpt lat="38.087490" lon="-1.776827">
        <ele>531.452740</ele>
        <time>2021-10-30T07:06:10.000Z</time>
      </trkpt>
      <trkpt lat="38.087571" lon="-1.776470">
        <ele>531.376866</ele>
        <time>2021-10-30T07:06:14.000Z</time>
      </trkpt>
      <trkpt lat="38.087614" lon="-1.776296">
        <ele>531.339622</ele>
        <time>2021-10-30T07:06:16.000Z</time>
      </trkpt>
      <trkpt lat="38.087652" lon="-1.776119">
        <ele>531.302155</ele>
        <time>2021-10-30T07:06:18.000Z</time>
      </trkpt>
      <trkpt lat="38.087670" lon="-1.776032">
        <ele>531.283785</ele>
        <time>2021-10-30T07:06:19.000Z</time>
      </trkpt>
      <trkpt lat="38.087744" lon="-1.775590">
        <ele>531.191502</ele>
        <time>2021-10-30T07:06:24.000Z</time>
      </trkpt>
      <trkpt lat="38.087763" lon="-1.775416">
        <ele>531.155628</ele>
        <time>2021-10-30T07:06:26.000Z</time>
      </trkpt>
      <trkpt lat="38.087766" lon="-1.774846">
        <ele>531.085187</ele>
        <time>2021-10-30T07:06:33.000Z</time>
      </trkpt>
      <trkpt lat="38.087724" lon="-1.774440">
        <ele>531.079976</ele>
        <time>2021-10-30T07:06:38.000Z</time>
      </trkpt>
      <trkpt lat="38.087691" lon="-1.774282">
        <ele>531.077895</ele>
        <time>2021-10-30T07:06:40.000Z</time>
      </trkpt>
      <trkpt lat="38.087544" lon="-1.773776">
        <ele>531.071031</ele>
        <time>2021-10-30T07:06:47.000Z</time>
      </trkpt>
      <trkpt lat="38.087395" lon="-1.773292">
        <ele>531.064418</ele>
        <time>2021-10-30T07:06:54.000Z</time>
      </trkpt>
      <trkpt lat="38.087356" lon="-1.773154">
        <ele>531.062552</ele>
        <time>2021-10-30T07:06:56.000Z</time>
      </trkpt>
      <trkpt lat="38.087339" lon="-1.773083">
        <ele>531.061607</ele>
        <time>2021-10-30T07:06:57.000Z</time>
      </trkpt>
      <trkpt lat="38.087198" lon="-1.772679">
        <ele>531.327768</ele>
        <time>2021-10-30T07:07:03.000Z</time>
      </trkpt>
      <trkpt lat="38.087114" lon="-1.772410">
        <ele>531.639201</ele>
        <time>2021-10-30T07:07:07.000Z</time>
      </trkpt>
      <trkpt lat="38.087078" lon="-1.772276">
        <ele>531.791573</ele>
        <time>2021-10-30T07:07:09.000Z</time>
      </trkpt>
      <trkpt lat="38.086885" lon="-1.771693">
        <ele>532.472201</ele>
        <time>2021-10-30T07:07:18.000Z</time>
      </trkpt>
      <trkpt lat="38.086861" lon="-1.771628">
        <ele>532.549465</ele>
        <time>2021-10-30T07:07:19.000Z</time>
      </trkpt>
      <trkpt lat="38.086792" lon="-1.771430">
        <ele>532.782493</ele>
        <time>2021-10-30T07:07:22.000Z</time>
      </trkpt>
      <trkpt lat="38.086771" lon="-1.771363">
        <ele>532.860101</ele>
        <time>2021-10-30T07:07:23.000Z</time>
      </trkpt>
      <trkpt lat="38.086711" lon="-1.771162">
        <ele>533.091441</ele>
        <time>2021-10-30T07:07:26.000Z</time>
      </trkpt>
      <trkpt lat="38.086692" lon="-1.771093">
        <ele>533.170108</ele>
        <time>2021-10-30T07:07:27.000Z</time>
      </trkpt>
      <trkpt lat="38.086636" lon="-1.770891">
        <ele>533.400580</ele>
        <time>2021-10-30T07:07:30.000Z</time>
      </trkpt>
      <trkpt lat="38.086576" lon="-1.770696">
        <ele>533.512581</ele>
        <time>2021-10-30T07:07:33.000Z</time>
      </trkpt>
      <trkpt lat="38.086522" lon="-1.770498">
        <ele>533.500401</ele>
        <time>2021-10-30T07:07:36.000Z</time>
      </trkpt>
      <trkpt lat="38.086386" lon="-1.770083">
        <ele>533.474272</ele>
        <time>2021-10-30T07:07:43.000Z</time>
      </trkpt>
      <trkpt lat="38.086352" lon="-1.769979">
        <ele>533.467726</ele>
        <time>2021-10-30T07:07:47.000Z</time>
      </trkpt>
      <trkpt lat="38.086335" lon="-1.769925">
        <ele>533.464346</ele>
        <time>2021-10-30T07:07:49.000Z</time>
      </trkpt>
      <trkpt lat="38.086314" lon="-1.769840">
        <ele>533.459168</ele>
        <time>2021-10-30T07:07:51.000Z</time>
      </trkpt>
      <trkpt lat="38.086299" lon="-1.769791">
        <ele>533.456112</ele>
        <time>2021-10-30T07:07:52.000Z</time>
      </trkpt>
      <trkpt lat="38.086285" lon="-1.769740">
        <ele>533.452972</ele>
        <time>2021-10-30T07:07:53.000Z</time>
      </trkpt>
      <trkpt lat="38.086225" lon="-1.769581">
        <ele>533.442723</ele>
        <time>2021-10-30T07:07:56.000Z</time>
      </trkpt>
      <trkpt lat="38.086206" lon="-1.769525">
        <ele>533.439178</ele>
        <time>2021-10-30T07:07:57.000Z</time>
      </trkpt>
      <trkpt lat="38.086039" lon="-1.769006">
        <ele>533.406588</ele>
        <time>2021-10-30T07:08:06.000Z</time>
      </trkpt>
      <trkpt lat="38.085911" lon="-1.768606">
        <ele>533.388628</ele>
        <time>2021-10-30T07:08:13.000Z</time>
      </trkpt>
      <trkpt lat="38.085895" lon="-1.768546">
        <ele>533.391402</ele>
        <time>2021-10-30T07:08:14.000Z</time>
      </trkpt>
      <trkpt lat="38.085858" lon="-1.768425">
        <ele>533.397087</ele>
        <time>2021-10-30T07:08:16.000Z</time>
      </trkpt>
      <trkpt lat="38.085819" lon="-1.768300">
        <ele>533.402975</ele>
        <time>2021-10-30T07:08:18.000Z</time>
      </trkpt>
      <trkpt lat="38.085800" lon="-1.768237">
        <ele>533.405930</ele>
        <time>2021-10-30T07:08:19.000Z</time>
      </trkpt>
      <trkpt lat="38.085724" lon="-1.767980">
        <ele>533.417952</ele>
        <time>2021-10-30T07:08:23.000Z</time>
      </trkpt>
      <trkpt lat="38.085706" lon="-1.767914">
        <ele>533.421011</ele>
        <time>2021-10-30T07:08:24.000Z</time>
      </trkpt>
      <trkpt lat="38.085598" lon="-1.767515">
        <ele>533.439489</ele>
        <time>2021-10-30T07:08:30.000Z</time>
      </trkpt>
      <trkpt lat="38.085526" lon="-1.767251">
        <ele>533.451724</ele>
        <time>2021-10-30T07:08:34.000Z</time>
      </trkpt>
      <trkpt lat="38.085428" lon="-1.766768">
        <ele>533.473568</ele>
        <time>2021-10-30T07:08:41.000Z</time>
      </trkpt>
      <trkpt lat="38.085421" lon="-1.766701">
        <ele>533.476528</ele>
        <time>2021-10-30T07:08:42.000Z</time>
      </trkpt>
      <trkpt lat="38.085407" lon="-1.766569">
        <ele>533.482361</ele>
        <time>2021-10-30T07:08:44.000Z</time>
      </trkpt>
      <trkpt lat="38.085376" lon="-1.766142">
        <ele>533.934915</ele>
        <time>2021-10-30T07:08:50.000Z</time>
      </trkpt>
      <trkpt lat="38.085368" lon="-1.766067">
        <ele>534.030959</ele>
        <time>2021-10-30T07:08:51.000Z</time>
      </trkpt>
      <trkpt lat="38.085368" lon="-1.765522">
        <ele>534.722550</ele>
        <time>2021-10-30T07:08:58.000Z</time>
      </trkpt>
      <trkpt lat="38.085385" lon="-1.765068">
        <ele>535.299317</ele>
        <time>2021-10-30T07:09:04.000Z</time>
      </trkpt>
      <trkpt lat="38.085384" lon="-1.764914">
        <ele>535.494746</ele>
        <time>2021-10-30T07:09:06.000Z</time>
      </trkpt>
      <trkpt lat="38.085393" lon="-1.764691">
        <ele>535.778099</ele>
        <time>2021-10-30T07:09:09.000Z</time>
      </trkpt>
      <trkpt lat="38.085403" lon="-1.764475">
        <ele>536.052671</ele>
        <time>2021-10-30T07:09:12.000Z</time>
      </trkpt>
      <trkpt lat="38.085418" lon="-1.764194">
        <ele>536.392139</ele>
        <time>2021-10-30T07:09:16.000Z</time>
      </trkpt>
      <trkpt lat="38.085439" lon="-1.763778">
        <ele>536.535619</ele>
        <time>2021-10-30T07:09:22.000Z</time>
      </trkpt>
      <trkpt lat="38.085454" lon="-1.763433">
        <ele>536.654548</ele>
        <time>2021-10-30T07:09:27.000Z</time>
      </trkpt>
      <trkpt lat="38.085473" lon="-1.763156">
        <ele>536.750252</ele>
        <time>2021-10-30T07:09:31.000Z</time>
      </trkpt>
      <trkpt lat="38.085489" lon="-1.763017">
        <ele>536.798604</ele>
        <time>2021-10-30T07:09:33.000Z</time>
      </trkpt>
      <trkpt lat="38.085497" lon="-1.762948">
        <ele>536.822610</ele>
        <time>2021-10-30T07:09:34.000Z</time>
      </trkpt>
      <trkpt lat="38.085507" lon="-1.762807">
        <ele>536.871338</ele>
        <time>2021-10-30T07:09:36.000Z</time>
      </trkpt>
      <trkpt lat="38.085509" lon="-1.762736">
        <ele>536.895792</ele>
        <time>2021-10-30T07:09:37.000Z</time>
      </trkpt>
      <trkpt lat="38.085508" lon="-1.762663">
        <ele>536.920922</ele>
        <time>2021-10-30T07:09:38.000Z</time>
      </trkpt>
      <trkpt lat="38.085504" lon="-1.762591">
        <ele>536.945766</ele>
        <time>2021-10-30T07:09:39.000Z</time>
      </trkpt>
      <trkpt lat="38.085503" lon="-1.762519">
        <ele>536.970552</ele>
        <time>2021-10-30T07:09:40.000Z</time>
      </trkpt>
      <trkpt lat="38.085527" lon="-1.762294">
        <ele>537.048704</ele>
        <time>2021-10-30T07:09:43.000Z</time>
      </trkpt>
      <trkpt lat="38.085530" lon="-1.762218">
        <ele>537.074895</ele>
        <time>2021-10-30T07:09:44.000Z</time>
      </trkpt>
      <trkpt lat="38.085537" lon="-1.762068">
        <ele>537.126615</ele>
        <time>2021-10-30T07:09:46.000Z</time>
      </trkpt>
      <trkpt lat="38.085557" lon="-1.761713">
        <ele>537.223842</ele>
        <time>2021-10-30T07:09:51.000Z</time>
      </trkpt>
      <trkpt lat="38.085556" lon="-1.761640">
        <ele>537.240734</ele>
        <time>2021-10-30T07:09:52.000Z</time>
      </trkpt>
      <trkpt lat="38.085586" lon="-1.760994">
        <ele>537.390456</ele>
        <time>2021-10-30T07:10:01.000Z</time>
      </trkpt>
      <trkpt lat="38.085607" lon="-1.760541">
        <ele>537.495445</ele>
        <time>2021-10-30T07:10:07.000Z</time>
      </trkpt>
      <trkpt lat="38.085614" lon="-1.760466">
        <ele>537.512919</ele>
        <time>2021-10-30T07:10:08.000Z</time>
      </trkpt>
      <trkpt lat="38.085618" lon="-1.760394">
        <ele>537.529619</ele>
        <time>2021-10-30T07:10:09.000Z</time>
      </trkpt>
      <trkpt lat="38.085630" lon="-1.760068">
        <ele>537.605126</ele>
        <time>2021-10-30T07:10:14.000Z</time>
      </trkpt>
      <trkpt lat="38.085633" lon="-1.760007">
        <ele>537.619267</ele>
        <time>2021-10-30T07:10:15.000Z</time>
      </trkpt>
      <trkpt lat="38.085637" lon="-1.759946">
        <ele>537.633429</ele>
        <time>2021-10-30T07:10:16.000Z</time>
      </trkpt>
      <trkpt lat="38.085656" lon="-1.759582">
        <ele>537.802702</ele>
        <time>2021-10-30T07:10:22.000Z</time>
      </trkpt>
      <trkpt lat="38.085659" lon="-1.759522">
        <ele>537.885621</ele>
        <time>2021-10-30T07:10:23.000Z</time>
      </trkpt>
      <trkpt lat="38.085669" lon="-1.759278">
        <ele>538.222602</ele>
        <time>2021-10-30T07:10:27.000Z</time>
      </trkpt>
      <trkpt lat="38.085671" lon="-1.759217">
        <ele>538.306806</ele>
        <time>2021-10-30T07:10:28.000Z</time>
      </trkpt>
      <trkpt lat="38.085696" lon="-1.758841">
        <ele>538.827233</ele>
        <time>2021-10-30T07:10:34.000Z</time>
      </trkpt>
      <trkpt lat="38.085707" lon="-1.758579">
        <ele>539.189097</ele>
        <time>2021-10-30T07:10:38.000Z</time>
      </trkpt>
      <trkpt lat="38.085737" lon="-1.758066">
        <ele>539.898577</ele>
        <time>2021-10-30T07:10:45.000Z</time>
      </trkpt>
      <trkpt lat="38.085742" lon="-1.757917">
        <ele>540.104265</ele>
        <time>2021-10-30T07:10:47.000Z</time>
      </trkpt>
      <trkpt lat="38.085749" lon="-1.757688">
        <ele>540.420340</ele>
        <time>2021-10-30T07:10:50.000Z</time>
      </trkpt>
      <trkpt lat="38.085750" lon="-1.757537">
        <ele>540.628606</ele>
        <time>2021-10-30T07:10:52.000Z</time>
      </trkpt>
      <trkpt lat="38.085731" lon="-1.757165">
        <ele>541.009528</ele>
        <time>2021-10-30T07:10:57.000Z</time>
      </trkpt>
      <trkpt lat="38.085718" lon="-1.757016">
        <ele>541.121403</ele>
        <time>2021-10-30T07:10:59.000Z</time>
      </trkpt>
      <trkpt lat="38.085687" lon="-1.756797">
        <ele>541.287457</ele>
        <time>2021-10-30T07:11:02.000Z</time>
      </trkpt>
      <trkpt lat="38.085675" lon="-1.756724">
        <ele>541.343110</ele>
        <time>2021-10-30T07:11:03.000Z</time>
      </trkpt>
      <trkpt lat="38.085646" lon="-1.756578">
        <ele>541.455482</ele>
        <time>2021-10-30T07:11:05.000Z</time>
      </trkpt>
      <trkpt lat="38.085628" lon="-1.756504">
        <ele>541.513282</ele>
        <time>2021-10-30T07:11:06.000Z</time>
      </trkpt>
      <trkpt lat="38.085516" lon="-1.756146">
        <ele>541.800778</ele>
        <time>2021-10-30T07:11:11.000Z</time>
      </trkpt>
      <trkpt lat="38.085319" lon="-1.755683">
        <ele>542.193556</ele>
        <time>2021-10-30T07:11:18.000Z</time>
      </trkpt>
      <trkpt lat="38.085253" lon="-1.755561">
        <ele>542.304033</ele>
        <time>2021-10-30T07:11:20.000Z</time>
      </trkpt>
      <trkpt lat="38.084944" lon="-1.755104">
        <ele>542.844137</ele>
        <time>2021-10-30T07:11:28.000Z</time>
      </trkpt>
      <trkpt lat="38.084858" lon="-1.755000">
        <ele>543.008731</ele>
        <time>2021-10-30T07:11:30.000Z</time>
      </trkpt>
      <trkpt lat="38.084576" lon="-1.754728">
        <ele>543.499563</ele>
        <time>2021-10-30T07:11:36.000Z</time>
      </trkpt>
      <trkpt lat="38.084277" lon="-1.754511">
        <ele>543.976928</ele>
        <time>2021-10-30T07:11:42.000Z</time>
      </trkpt>
      <trkpt lat="38.084225" lon="-1.754481">
        <ele>544.056099</ele>
        <time>2021-10-30T07:11:43.000Z</time>
      </trkpt>
      <trkpt lat="38.084069" lon="-1.754400">
        <ele>544.289725</ele>
        <time>2021-10-30T07:11:46.000Z</time>
      </trkpt>
      <trkpt lat="38.083967" lon="-1.754353">
        <ele>544.440140</ele>
        <time>2021-10-30T07:11:48.000Z</time>
      </trkpt>
      <trkpt lat="38.083820" lon="-1.754286">
        <ele>544.656642</ele>
        <time>2021-10-30T07:11:51.000Z</time>
      </trkpt>
      <trkpt lat="38.083675" lon="-1.754223">
        <ele>544.869084</ele>
        <time>2021-10-30T07:11:54.000Z</time>
      </trkpt>
      <trkpt lat="38.083479" lon="-1.754155">
        <ele>545.206600</ele>
        <time>2021-10-30T07:11:58.000Z</time>
      </trkpt>
      <trkpt lat="38.083194" lon="-1.754045">
        <ele>545.851346</ele>
        <time>2021-10-30T07:12:04.000Z</time>
      </trkpt>
      <trkpt lat="38.083104" lon="-1.754009">
        <ele>546.055586</ele>
        <time>2021-10-30T07:12:06.000Z</time>
      </trkpt>
      <trkpt lat="38.082834" lon="-1.753900">
        <ele>546.668820</ele>
        <time>2021-10-30T07:12:12.000Z</time>
      </trkpt>
      <trkpt lat="38.082789" lon="-1.753884">
        <ele>546.769969</ele>
        <time>2021-10-30T07:12:13.000Z</time>
      </trkpt>
      <trkpt lat="38.082422" lon="-1.753742">
        <ele>547.600396</ele>
        <time>2021-10-30T07:12:21.000Z</time>
      </trkpt>
      <trkpt lat="38.082227" lon="-1.753668">
        <ele>548.040918</ele>
        <time>2021-10-30T07:12:25.000Z</time>
      </trkpt>
      <trkpt lat="38.081976" lon="-1.753576">
        <ele>548.606388</ele>
        <time>2021-10-30T07:12:30.000Z</time>
      </trkpt>
      <trkpt lat="38.081828" lon="-1.753520">
        <ele>548.940653</ele>
        <time>2021-10-30T07:12:33.000Z</time>
      </trkpt>
      <trkpt lat="38.081679" lon="-1.753460">
        <ele>549.096254</ele>
        <time>2021-10-30T07:12:36.000Z</time>
      </trkpt>
      <trkpt lat="38.081627" lon="-1.753440">
        <ele>549.149595</ele>
        <time>2021-10-30T07:12:37.000Z</time>
      </trkpt>
      <trkpt lat="38.081574" lon="-1.753421">
        <ele>549.203662</ele>
        <time>2021-10-30T07:12:38.000Z</time>
      </trkpt>
      <trkpt lat="38.081255" lon="-1.753300">
        <ele>549.530514</ele>
        <time>2021-10-30T07:12:44.000Z</time>
      </trkpt>
      <trkpt lat="38.081203" lon="-1.753277">
        <ele>549.584573</ele>
        <time>2021-10-30T07:12:45.000Z</time>
      </trkpt>
      <trkpt lat="38.081045" lon="-1.753212">
        <ele>549.747626</ele>
        <time>2021-10-30T07:12:48.000Z</time>
      </trkpt>
      <trkpt lat="38.080603" lon="-1.753037">
        <ele>550.202162</ele>
        <time>2021-10-30T07:12:56.000Z</time>
      </trkpt>
      <trkpt lat="38.080546" lon="-1.753014">
        <ele>550.260879</ele>
        <time>2021-10-30T07:12:57.000Z</time>
      </trkpt>
      <trkpt lat="38.080377" lon="-1.752947">
        <ele>550.434693</ele>
        <time>2021-10-30T07:13:00.000Z</time>
      </trkpt>
      <trkpt lat="38.080040" lon="-1.752809">
        <ele>550.766756</ele>
        <time>2021-10-30T07:13:06.000Z</time>
      </trkpt>
      <trkpt lat="38.079581" lon="-1.752605">
        <ele>551.140777</ele>
        <time>2021-10-30T07:13:14.000Z</time>
      </trkpt>
      <trkpt lat="38.079524" lon="-1.752575">
        <ele>551.188232</ele>
        <time>2021-10-30T07:13:15.000Z</time>
      </trkpt>
      <trkpt lat="38.079082" lon="-1.752297">
        <ele>551.567579</ele>
        <time>2021-10-30T07:13:23.000Z</time>
      </trkpt>
      <trkpt lat="38.078871" lon="-1.752142">
        <ele>551.755049</ele>
        <time>2021-10-30T07:13:27.000Z</time>
      </trkpt>
      <trkpt lat="38.078758" lon="-1.752053">
        <ele>551.857311</ele>
        <time>2021-10-30T07:13:29.000Z</time>
      </trkpt>
      <trkpt lat="38.078406" lon="-1.751719">
        <ele>552.226823</ele>
        <time>2021-10-30T07:13:36.000Z</time>
      </trkpt>
      <trkpt lat="38.078222" lon="-1.751518">
        <ele>552.471645</ele>
        <time>2021-10-30T07:13:40.000Z</time>
      </trkpt>
      <trkpt lat="38.078089" lon="-1.751362">
        <ele>552.654270</ele>
        <time>2021-10-30T07:13:43.000Z</time>
      </trkpt>
      <trkpt lat="38.077960" lon="-1.751195">
        <ele>552.840081</ele>
        <time>2021-10-30T07:13:46.000Z</time>
      </trkpt>
      <trkpt lat="38.077874" lon="-1.751081">
        <ele>552.965476</ele>
        <time>2021-10-30T07:13:48.000Z</time>
      </trkpt>
      <trkpt lat="38.077788" lon="-1.750970">
        <ele>553.089161</ele>
        <time>2021-10-30T07:13:50.000Z</time>
      </trkpt>
      <trkpt lat="38.077410" lon="-1.750479">
        <ele>553.634570</ele>
        <time>2021-10-30T07:13:59.000Z</time>
      </trkpt>
      <trkpt lat="38.077004" lon="-1.749943">
        <ele>554.484673</ele>
        <time>2021-10-30T07:14:09.000Z</time>
      </trkpt>
      <trkpt lat="38.076963" lon="-1.749890">
        <ele>554.591995</ele>
        <time>2021-10-30T07:14:10.000Z</time>
      </trkpt>
      <trkpt lat="38.076801" lon="-1.749682">
        <ele>555.014596</ele>
        <time>2021-10-30T07:14:14.000Z</time>
      </trkpt>
      <trkpt lat="38.076761" lon="-1.749632">
        <ele>555.117557</ele>
        <time>2021-10-30T07:14:15.000Z</time>
      </trkpt>
      <trkpt lat="38.076645" lon="-1.749481">
        <ele>555.422284</ele>
        <time>2021-10-30T07:14:18.000Z</time>
      </trkpt>
      <trkpt lat="38.076567" lon="-1.749378">
        <ele>555.628707</ele>
        <time>2021-10-30T07:14:20.000Z</time>
      </trkpt>
      <trkpt lat="38.076275" lon="-1.749034">
        <ele>556.359371</ele>
        <time>2021-10-30T07:14:27.000Z</time>
      </trkpt>
      <trkpt lat="38.076192" lon="-1.748935">
        <ele>556.568261</ele>
        <time>2021-10-30T07:14:29.000Z</time>
      </trkpt>
      <trkpt lat="38.075986" lon="-1.748675">
        <ele>557.101051</ele>
        <time>2021-10-30T07:14:34.000Z</time>
      </trkpt>
      <trkpt lat="38.075705" lon="-1.748313">
        <ele>557.629274</ele>
        <time>2021-10-30T07:14:41.000Z</time>
      </trkpt>
      <trkpt lat="38.075498" lon="-1.748076">
        <ele>557.972482</ele>
        <time>2021-10-30T07:14:46.000Z</time>
      </trkpt>
      <trkpt lat="38.075322" lon="-1.747897">
        <ele>558.250156</ele>
        <time>2021-10-30T07:14:50.000Z</time>
      </trkpt>
      <trkpt lat="38.075277" lon="-1.747852">
        <ele>558.320690</ele>
        <time>2021-10-30T07:14:51.000Z</time>
      </trkpt>
      <trkpt lat="38.074835" lon="-1.747416">
        <ele>559.009907</ele>
        <time>2021-10-30T07:15:01.000Z</time>
      </trkpt>
      <trkpt lat="38.074793" lon="-1.747372">
        <ele>559.076956</ele>
        <time>2021-10-30T07:15:02.000Z</time>
      </trkpt>
      <trkpt lat="38.074704" lon="-1.747286">
        <ele>559.214676</ele>
        <time>2021-10-30T07:15:04.000Z</time>
      </trkpt>
      <trkpt lat="38.074527" lon="-1.747119">
        <ele>559.507024</ele>
        <time>2021-10-30T07:15:08.000Z</time>
      </trkpt>
      <trkpt lat="38.074312" lon="-1.746911">
        <ele>559.950662</ele>
        <time>2021-10-30T07:15:13.000Z</time>
      </trkpt>
      <trkpt lat="38.074270" lon="-1.746869">
        <ele>560.038408</ele>
        <time>2021-10-30T07:15:14.000Z</time>
      </trkpt>
      <trkpt lat="38.074229" lon="-1.746829">
        <ele>560.123272</ele>
        <time>2021-10-30T07:15:15.000Z</time>
      </trkpt>
      <trkpt lat="38.074189" lon="-1.746787">
        <ele>560.208462</ele>
        <time>2021-10-30T07:15:16.000Z</time>
      </trkpt>
      <trkpt lat="38.074105" lon="-1.746704">
        <ele>560.383158</ele>
        <time>2021-10-30T07:15:18.000Z</time>
      </trkpt>
      <trkpt lat="38.073940" lon="-1.746541">
        <ele>560.726283</ele>
        <time>2021-10-30T07:15:22.000Z</time>
      </trkpt>
      <trkpt lat="38.073815" lon="-1.746422">
        <ele>560.982709</ele>
        <time>2021-10-30T07:15:25.000Z</time>
      </trkpt>
      <trkpt lat="38.073696" lon="-1.746298">
        <ele>561.235372</ele>
        <time>2021-10-30T07:15:28.000Z</time>
      </trkpt>
      <trkpt lat="38.073617" lon="-1.746211">
        <ele>561.407006</ele>
        <time>2021-10-30T07:15:30.000Z</time>
      </trkpt>
      <trkpt lat="38.073541" lon="-1.746120">
        <ele>561.578453</ele>
        <time>2021-10-30T07:15:32.000Z</time>
      </trkpt>
      <trkpt lat="38.073458" lon="-1.746026">
        <ele>561.760992</ele>
        <time>2021-10-30T07:15:34.000Z</time>
      </trkpt>
      <trkpt lat="38.073211" lon="-1.745688">
        <ele>562.356973</ele>
        <time>2021-10-30T07:15:41.000Z</time>
      </trkpt>
      <trkpt lat="38.073178" lon="-1.745635">
        <ele>562.445686</ele>
        <time>2021-10-30T07:15:42.000Z</time>
      </trkpt>
      <trkpt lat="38.073114" lon="-1.745523">
        <ele>562.628187</ele>
        <time>2021-10-30T07:15:44.000Z</time>
      </trkpt>
      <trkpt lat="38.072958" lon="-1.745241">
        <ele>563.082692</ele>
        <time>2021-10-30T07:15:49.000Z</time>
      </trkpt>
      <trkpt lat="38.072896" lon="-1.745125">
        <ele>563.267585</ele>
        <time>2021-10-30T07:15:51.000Z</time>
      </trkpt>
      <trkpt lat="38.072864" lon="-1.745068">
        <ele>563.359906</ele>
        <time>2021-10-30T07:15:52.000Z</time>
      </trkpt>
      <trkpt lat="38.072545" lon="-1.744477">
        <ele>564.304854</ele>
        <time>2021-10-30T07:16:02.000Z</time>
      </trkpt>
      <trkpt lat="38.072512" lon="-1.744419">
        <ele>564.399224</ele>
        <time>2021-10-30T07:16:03.000Z</time>
      </trkpt>
      <trkpt lat="38.072351" lon="-1.744128">
        <ele>564.868257</ele>
        <time>2021-10-30T07:16:08.000Z</time>
      </trkpt>
      <trkpt lat="38.072191" lon="-1.743841">
        <ele>565.332015</ele>
        <time>2021-10-30T07:16:13.000Z</time>
      </trkpt>
      <trkpt lat="38.072159" lon="-1.743781">
        <ele>565.428676</ele>
        <time>2021-10-30T07:16:14.000Z</time>
      </trkpt>
      <trkpt lat="38.072126" lon="-1.743723">
        <ele>565.525732</ele>
        <time>2021-10-30T07:16:15.000Z</time>
      </trkpt>
      <trkpt lat="38.072093" lon="-1.743667">
        <ele>565.620603</ele>
        <time>2021-10-30T07:16:16.000Z</time>
      </trkpt>
      <trkpt lat="38.072062" lon="-1.743607">
        <ele>565.717938</ele>
        <time>2021-10-30T07:16:17.000Z</time>
      </trkpt>
      <trkpt lat="38.071995" lon="-1.743490">
        <ele>565.914159</ele>
        <time>2021-10-30T07:16:19.000Z</time>
      </trkpt>
      <trkpt lat="38.071961" lon="-1.743431">
        <ele>566.013326</ele>
        <time>2021-10-30T07:16:20.000Z</time>
      </trkpt>
      <trkpt lat="38.071857" lon="-1.743248">
        <ele>566.319433</ele>
        <time>2021-10-30T07:16:23.000Z</time>
      </trkpt>
      <trkpt lat="38.071697" lon="-1.742941">
        <ele>566.818776</ele>
        <time>2021-10-30T07:16:28.000Z</time>
      </trkpt>
      <trkpt lat="38.071601" lon="-1.742757">
        <ele>567.118156</ele>
        <time>2021-10-30T07:16:31.000Z</time>
      </trkpt>
      <trkpt lat="38.071517" lon="-1.742565">
        <ele>567.416066</ele>
        <time>2021-10-30T07:16:34.000Z</time>
      </trkpt>
      <trkpt lat="38.071382" lon="-1.742156">
        <ele>568.017558</ele>
        <time>2021-10-30T07:16:40.000Z</time>
      </trkpt>
      <trkpt lat="38.071365" lon="-1.742089">
        <ele>568.113031</ele>
        <time>2021-10-30T07:16:41.000Z</time>
      </trkpt>
      <trkpt lat="38.071348" lon="-1.742020">
        <ele>568.211088</ele>
        <time>2021-10-30T07:16:42.000Z</time>
      </trkpt>
      <trkpt lat="38.071331" lon="-1.741952">
        <ele>568.307852</ele>
        <time>2021-10-30T07:16:43.000Z</time>
      </trkpt>
      <trkpt lat="38.071303" lon="-1.741814">
        <ele>568.505342</ele>
        <time>2021-10-30T07:16:45.000Z</time>
      </trkpt>
      <trkpt lat="38.071289" lon="-1.741743">
        <ele>568.636318</ele>
        <time>2021-10-30T07:16:46.000Z</time>
      </trkpt>
      <trkpt lat="38.071272" lon="-1.741673">
        <ele>568.767404</ele>
        <time>2021-10-30T07:16:47.000Z</time>
      </trkpt>
      <trkpt lat="38.071242" lon="-1.741529">
        <ele>569.033956</ele>
        <time>2021-10-30T07:16:49.000Z</time>
      </trkpt>
      <trkpt lat="38.071236" lon="-1.741456">
        <ele>569.165296</ele>
        <time>2021-10-30T07:16:50.000Z</time>
      </trkpt>
      <trkpt lat="38.071193" lon="-1.741111">
        <ele>569.790347</ele>
        <time>2021-10-30T07:16:55.000Z</time>
      </trkpt>
      <trkpt lat="38.071182" lon="-1.741044">
        <ele>569.912820</ele>
        <time>2021-10-30T07:16:56.000Z</time>
      </trkpt>
      <trkpt lat="38.071176" lon="-1.740975">
        <ele>570.037044</ele>
        <time>2021-10-30T07:16:57.000Z</time>
      </trkpt>
      <trkpt lat="38.071153" lon="-1.740615">
        <ele>570.683366</ele>
        <time>2021-10-30T07:17:02.000Z</time>
      </trkpt>
      <trkpt lat="38.071151" lon="-1.740543">
        <ele>570.812287</ele>
        <time>2021-10-30T07:17:03.000Z</time>
      </trkpt>
      <trkpt lat="38.071140" lon="-1.740322">
        <ele>571.208546</ele>
        <time>2021-10-30T07:17:06.000Z</time>
      </trkpt>
      <trkpt lat="38.071140" lon="-1.740250">
        <ele>571.337387</ele>
        <time>2021-10-30T07:17:07.000Z</time>
      </trkpt>
      <trkpt lat="38.071139" lon="-1.740180">
        <ele>571.462669</ele>
        <time>2021-10-30T07:17:08.000Z</time>
      </trkpt>
      <trkpt lat="38.071140" lon="-1.740026">
        <ele>571.738255</ele>
        <time>2021-10-30T07:17:10.000Z</time>
      </trkpt>
      <trkpt lat="38.071151" lon="-1.739581">
        <ele>572.534955</ele>
        <time>2021-10-30T07:17:16.000Z</time>
      </trkpt>
      <trkpt lat="38.071157" lon="-1.739511">
        <ele>572.575950</ele>
        <time>2021-10-30T07:17:17.000Z</time>
      </trkpt>
      <trkpt lat="38.071167" lon="-1.739305">
        <ele>572.574101</ele>
        <time>2021-10-30T07:17:20.000Z</time>
      </trkpt>
      <trkpt lat="38.071166" lon="-1.739145">
        <ele>572.572669</ele>
        <time>2021-10-30T07:17:22.000Z</time>
      </trkpt>
      <trkpt lat="38.071138" lon="-1.738748">
        <ele>572.569099</ele>
        <time>2021-10-30T07:17:27.000Z</time>
      </trkpt>
      <trkpt lat="38.071131" lon="-1.738324">
        <ele>572.565301</ele>
        <time>2021-10-30T07:17:32.000Z</time>
      </trkpt>
      <trkpt lat="38.071129" lon="-1.738149">
        <ele>572.563734</ele>
        <time>2021-10-30T07:17:34.000Z</time>
      </trkpt>
      <trkpt lat="38.071102" lon="-1.737808">
        <ele>572.560665</ele>
        <time>2021-10-30T07:17:38.000Z</time>
      </trkpt>
      <trkpt lat="38.071104" lon="-1.737629">
        <ele>572.559062</ele>
        <time>2021-10-30T07:17:40.000Z</time>
      </trkpt>
      <trkpt lat="38.071120" lon="-1.737260">
        <ele>572.534141</ele>
        <time>2021-10-30T07:17:44.000Z</time>
      </trkpt>
      <trkpt lat="38.071136" lon="-1.737074">
        <ele>572.307005</ele>
        <time>2021-10-30T07:17:46.000Z</time>
      </trkpt>
      <trkpt lat="38.071184" lon="-1.736803">
        <ele>571.969804</ele>
        <time>2021-10-30T07:17:49.000Z</time>
      </trkpt>
      <trkpt lat="38.071192" lon="-1.736713">
        <ele>571.859856</ele>
        <time>2021-10-30T07:17:50.000Z</time>
      </trkpt>
      <trkpt lat="38.071192" lon="-1.736623">
        <ele>571.750602</ele>
        <time>2021-10-30T07:17:51.000Z</time>
      </trkpt>
      <trkpt lat="38.071190" lon="-1.736441">
        <ele>571.529644</ele>
        <time>2021-10-30T07:17:53.000Z</time>
      </trkpt>
      <trkpt lat="38.071170" lon="-1.736001">
        <ele>570.994623</ele>
        <time>2021-10-30T07:17:58.000Z</time>
      </trkpt>
      <trkpt lat="38.071149" lon="-1.735825">
        <ele>570.778530</ele>
        <time>2021-10-30T07:18:00.000Z</time>
      </trkpt>
      <trkpt lat="38.071071" lon="-1.735379">
        <ele>570.223915</ele>
        <time>2021-10-30T07:18:05.000Z</time>
      </trkpt>
      <trkpt lat="38.071018" lon="-1.735107">
        <ele>569.883760</ele>
        <time>2021-10-30T07:18:08.000Z</time>
      </trkpt>
      <trkpt lat="38.070982" lon="-1.734925">
        <ele>569.847959</ele>
        <time>2021-10-30T07:18:10.000Z</time>
      </trkpt>
      <trkpt lat="38.070912" lon="-1.734651">
        <ele>570.029281</ele>
        <time>2021-10-30T07:18:13.000Z</time>
      </trkpt>
      <trkpt lat="38.070842" lon="-1.734381">
        <ele>570.208210</ele>
        <time>2021-10-30T07:18:16.000Z</time>
      </trkpt>
      <trkpt lat="38.070776" lon="-1.734099">
        <ele>570.393393</ele>
        <time>2021-10-30T07:18:19.000Z</time>
      </trkpt>
      <trkpt lat="38.070754" lon="-1.734007">
        <ele>570.453914</ele>
        <time>2021-10-30T07:18:20.000Z</time>
      </trkpt>
      <trkpt lat="38.070711" lon="-1.733818">
        <ele>570.577748</ele>
        <time>2021-10-30T07:18:22.000Z</time>
      </trkpt>
      <trkpt lat="38.070573" lon="-1.733275">
        <ele>570.936907</ele>
        <time>2021-10-30T07:18:28.000Z</time>
      </trkpt>
      <trkpt lat="38.070441" lon="-1.732736">
        <ele>571.054588</ele>
        <time>2021-10-30T07:18:34.000Z</time>
      </trkpt>
      <trkpt lat="38.070422" lon="-1.732644">
        <ele>570.916069</ele>
        <time>2021-10-30T07:18:35.000Z</time>
      </trkpt>
      <trkpt lat="38.070275" lon="-1.732107">
        <ele>570.088067</ele>
        <time>2021-10-30T07:18:41.000Z</time>
      </trkpt>
      <trkpt lat="38.070247" lon="-1.732021">
        <ele>569.952530</ele>
        <time>2021-10-30T07:18:42.000Z</time>
      </trkpt>
      <trkpt lat="38.070042" lon="-1.731535">
        <ele>569.149537</ele>
        <time>2021-10-30T07:18:48.000Z</time>
      </trkpt>
      <trkpt lat="38.069798" lon="-1.731092">
        <ele>568.362136</ele>
        <time>2021-10-30T07:18:54.000Z</time>
      </trkpt>
      <trkpt lat="38.069756" lon="-1.731020">
        <ele>568.231627</ele>
        <time>2021-10-30T07:18:55.000Z</time>
      </trkpt>
      <trkpt lat="38.069672" lon="-1.730876">
        <ele>567.970611</ele>
        <time>2021-10-30T07:18:57.000Z</time>
      </trkpt>
      <trkpt lat="38.069590" lon="-1.730734">
        <ele>567.776784</ele>
        <time>2021-10-30T07:18:59.000Z</time>
      </trkpt>
      <trkpt lat="38.069551" lon="-1.730661">
        <ele>567.693270</ele>
        <time>2021-10-30T07:19:00.000Z</time>
      </trkpt>
      <trkpt lat="38.069231" lon="-1.730094">
        <ele>567.032850</ele>
        <time>2021-10-30T07:19:08.000Z</time>
      </trkpt>
      <trkpt lat="38.069193" lon="-1.730026">
        <ele>566.953910</ele>
        <time>2021-10-30T07:19:09.000Z</time>
      </trkpt>
      <trkpt lat="38.068915" lon="-1.729529">
        <ele>566.376764</ele>
        <time>2021-10-30T07:19:16.000Z</time>
      </trkpt>
      <trkpt lat="38.068753" lon="-1.729249">
        <ele>566.047822</ele>
        <time>2021-10-30T07:19:20.000Z</time>
      </trkpt>
      <trkpt lat="38.068650" lon="-1.729025">
        <ele>565.802252</ele>
        <time>2021-10-30T07:19:23.000Z</time>
      </trkpt>
      <trkpt lat="38.068467" lon="-1.728545">
        <ele>565.819949</ele>
        <time>2021-10-30T07:19:29.000Z</time>
      </trkpt>
      <trkpt lat="38.068442" lon="-1.728464">
        <ele>565.836990</ele>
        <time>2021-10-30T07:19:30.000Z</time>
      </trkpt>
      <trkpt lat="38.068420" lon="-1.728378">
        <ele>565.854702</ele>
        <time>2021-10-30T07:19:31.000Z</time>
      </trkpt>
      <trkpt lat="38.068311" lon="-1.727867">
        <ele>565.958402</ele>
        <time>2021-10-30T07:19:37.000Z</time>
      </trkpt>
      <trkpt lat="38.068266" lon="-1.727377">
        <ele>566.055031</ele>
        <time>2021-10-30T07:19:43.000Z</time>
      </trkpt>
      <trkpt lat="38.068260" lon="-1.727214">
        <ele>566.086993</ele>
        <time>2021-10-30T07:19:45.000Z</time>
      </trkpt>
      <trkpt lat="38.068323" lon="-1.726628">
        <ele>566.303036</ele>
        <time>2021-10-30T07:19:52.000Z</time>
      </trkpt>
      <trkpt lat="38.068451" lon="-1.726063">
        <ele>566.880113</ele>
        <time>2021-10-30T07:19:59.000Z</time>
      </trkpt>
      <trkpt lat="38.068540" lon="-1.725749">
        <ele>567.207684</ele>
        <time>2021-10-30T07:20:03.000Z</time>
      </trkpt>
      <trkpt lat="38.068601" lon="-1.725507">
        <ele>567.457095</ele>
        <time>2021-10-30T07:20:06.000Z</time>
      </trkpt>
      <trkpt lat="38.068663" lon="-1.725128">
        <ele>567.837045</ele>
        <time>2021-10-30T07:20:11.000Z</time>
      </trkpt>
      <trkpt lat="38.068700" lon="-1.724971">
        <ele>567.997903</ele>
        <time>2021-10-30T07:20:13.000Z</time>
      </trkpt>
      <trkpt lat="38.068748" lon="-1.724741">
        <ele>568.231455</ele>
        <time>2021-10-30T07:20:16.000Z</time>
      </trkpt>
      <trkpt lat="38.068768" lon="-1.724671">
        <ele>568.304547</ele>
        <time>2021-10-30T07:20:17.000Z</time>
      </trkpt>
      <trkpt lat="38.068823" lon="-1.724459">
        <ele>568.524808</ele>
        <time>2021-10-30T07:20:20.000Z</time>
      </trkpt>
      <trkpt lat="38.068838" lon="-1.724337">
        <ele>568.647377</ele>
        <time>2021-10-30T07:20:22.000Z</time>
      </trkpt>
      <trkpt lat="38.068854" lon="-1.724266">
        <ele>568.720684</ele>
        <time>2021-10-30T07:20:23.000Z</time>
      </trkpt>
      <trkpt lat="38.068885" lon="-1.724125">
        <ele>568.866001</ele>
        <time>2021-10-30T07:20:25.000Z</time>
      </trkpt>
      <trkpt lat="38.068898" lon="-1.724047">
        <ele>568.945142</ele>
        <time>2021-10-30T07:20:26.000Z</time>
      </trkpt>
      <trkpt lat="38.069099" lon="-1.723422">
        <ele>569.615303</ele>
        <time>2021-10-30T07:20:33.000Z</time>
      </trkpt>
      <trkpt lat="38.069176" lon="-1.722817">
        <ele>570.223639</ele>
        <time>2021-10-30T07:20:40.000Z</time>
      </trkpt>
      <trkpt lat="38.069196" lon="-1.722302">
        <ele>570.754172</ele>
        <time>2021-10-30T07:20:46.000Z</time>
      </trkpt>
      <trkpt lat="38.069199" lon="-1.722215">
        <ele>570.874802</ele>
        <time>2021-10-30T07:20:47.000Z</time>
      </trkpt>
      <trkpt lat="38.069204" lon="-1.722131">
        <ele>570.991493</ele>
        <time>2021-10-30T07:20:48.000Z</time>
      </trkpt>
      <trkpt lat="38.069214" lon="-1.721961">
        <ele>571.227638</ele>
        <time>2021-10-30T07:20:50.000Z</time>
      </trkpt>
      <trkpt lat="38.069226" lon="-1.721707">
        <ele>571.580119</ele>
        <time>2021-10-30T07:20:53.000Z</time>
      </trkpt>
      <trkpt lat="38.069236" lon="-1.721448">
        <ele>571.939323</ele>
        <time>2021-10-30T07:20:56.000Z</time>
      </trkpt>
      <trkpt lat="38.069217" lon="-1.720858">
        <ele>572.757290</ele>
        <time>2021-10-30T07:21:03.000Z</time>
      </trkpt>
      <trkpt lat="38.069246" lon="-1.720466">
        <ele>573.302690</ele>
        <time>2021-10-30T07:21:08.000Z</time>
      </trkpt>
      <trkpt lat="38.069260" lon="-1.720306">
        <ele>573.525691</ele>
        <time>2021-10-30T07:21:10.000Z</time>
      </trkpt>
      <trkpt lat="38.069282" lon="-1.720073">
        <ele>573.850761</ele>
        <time>2021-10-30T07:21:13.000Z</time>
      </trkpt>
      <trkpt lat="38.069312" lon="-1.719842">
        <ele>573.759770</ele>
        <time>2021-10-30T07:21:16.000Z</time>
      </trkpt>
      <trkpt lat="38.069343" lon="-1.719689">
        <ele>573.696470</ele>
        <time>2021-10-30T07:21:18.000Z</time>
      </trkpt>
      <trkpt lat="38.069456" lon="-1.719314">
        <ele>573.535589</ele>
        <time>2021-10-30T07:21:23.000Z</time>
      </trkpt>
      <trkpt lat="38.069495" lon="-1.719167">
        <ele>573.473436</ele>
        <time>2021-10-30T07:21:25.000Z</time>
      </trkpt>
      <trkpt lat="38.069530" lon="-1.719016">
        <ele>573.410367</ele>
        <time>2021-10-30T07:21:27.000Z</time>
      </trkpt>
      <trkpt lat="38.069650" lon="-1.718560">
        <ele>573.217726</ele>
        <time>2021-10-30T07:21:33.000Z</time>
      </trkpt>
      <trkpt lat="38.069714" lon="-1.718319">
        <ele>573.115820</ele>
        <time>2021-10-30T07:21:36.000Z</time>
      </trkpt>
      <trkpt lat="38.069777" lon="-1.718078">
        <ele>573.014075</ele>
        <time>2021-10-30T07:21:39.000Z</time>
      </trkpt>
      <trkpt lat="38.069889" lon="-1.717681">
        <ele>572.999130</ele>
        <time>2021-10-30T07:21:44.000Z</time>
      </trkpt>
      <trkpt lat="38.069909" lon="-1.717604">
        <ele>573.020773</ele>
        <time>2021-10-30T07:21:45.000Z</time>
      </trkpt>
      <trkpt lat="38.069972" lon="-1.717372">
        <ele>573.086279</ele>
        <time>2021-10-30T07:21:48.000Z</time>
      </trkpt>
      <trkpt lat="38.069994" lon="-1.717295">
        <ele>573.108144</ele>
        <time>2021-10-30T07:21:49.000Z</time>
      </trkpt>
      <trkpt lat="38.070059" lon="-1.717055">
        <ele>573.175890</ele>
        <time>2021-10-30T07:21:52.000Z</time>
      </trkpt>
      <trkpt lat="38.070133" lon="-1.716729">
        <ele>573.266451</ele>
        <time>2021-10-30T07:21:56.000Z</time>
      </trkpt>
      <trkpt lat="38.070179" lon="-1.716487">
        <ele>573.332902</ele>
        <time>2021-10-30T07:21:59.000Z</time>
      </trkpt>
      <trkpt lat="38.070212" lon="-1.716247">
        <ele>573.397932</ele>
        <time>2021-10-30T07:22:02.000Z</time>
      </trkpt>
      <trkpt lat="38.070229" lon="-1.715927">
        <ele>573.483541</ele>
        <time>2021-10-30T07:22:06.000Z</time>
      </trkpt>
      <trkpt lat="38.070236" lon="-1.715686">
        <ele>573.548671</ele>
        <time>2021-10-30T07:22:09.000Z</time>
      </trkpt>
      <trkpt lat="38.070239" lon="-1.715523">
        <ele>573.654121</ele>
        <time>2021-10-30T07:22:11.000Z</time>
      </trkpt>
      <trkpt lat="38.070242" lon="-1.715196">
        <ele>573.865624</ele>
        <time>2021-10-30T07:22:15.000Z</time>
      </trkpt>
      <trkpt lat="38.070249" lon="-1.714553">
        <ele>574.281527</ele>
        <time>2021-10-30T07:22:23.000Z</time>
      </trkpt>
      <trkpt lat="38.070251" lon="-1.714471">
        <ele>574.334586</ele>
        <time>2021-10-30T07:22:24.000Z</time>
      </trkpt>
      <trkpt lat="38.070251" lon="-1.714074">
        <ele>574.591347</ele>
        <time>2021-10-30T07:22:29.000Z</time>
      </trkpt>
      <trkpt lat="38.070250" lon="-1.713997">
        <ele>574.641154</ele>
        <time>2021-10-30T07:22:30.000Z</time>
      </trkpt>
      <trkpt lat="38.070249" lon="-1.713918">
        <ele>574.692254</ele>
        <time>2021-10-30T07:22:31.000Z</time>
      </trkpt>
      <trkpt lat="38.070252" lon="-1.713309">
        <ele>575.078621</ele>
        <time>2021-10-30T07:22:39.000Z</time>
      </trkpt>
      <trkpt lat="38.070251" lon="-1.713233">
        <ele>575.121737</ele>
        <time>2021-10-30T07:22:40.000Z</time>
      </trkpt>
      <trkpt lat="38.070244" lon="-1.712701">
        <ele>575.423550</ele>
        <time>2021-10-30T07:22:47.000Z</time>
      </trkpt>
      <trkpt lat="38.070242" lon="-1.711999">
        <ele>575.821753</ele>
        <time>2021-10-30T07:22:56.000Z</time>
      </trkpt>
      <trkpt lat="38.070243" lon="-1.711838">
        <ele>575.913082</ele>
        <time>2021-10-30T07:22:58.000Z</time>
      </trkpt>
      <trkpt lat="38.070249" lon="-1.711112">
        <ele>576.327899</ele>
        <time>2021-10-30T07:23:07.000Z</time>
      </trkpt>
      <trkpt lat="38.070249" lon="-1.711031">
        <ele>576.408677</ele>
        <time>2021-10-30T07:23:08.000Z</time>
      </trkpt>
      <trkpt lat="38.070240" lon="-1.710540">
        <ele>576.898461</ele>
        <time>2021-10-30T07:23:14.000Z</time>
      </trkpt>
      <trkpt lat="38.070212" lon="-1.710212">
        <ele>577.227477</ele>
        <time>2021-10-30T07:23:18.000Z</time>
      </trkpt>
      <trkpt lat="38.070187" lon="-1.710049">
        <ele>577.393086</ele>
        <time>2021-10-30T07:23:20.000Z</time>
      </trkpt>
      <trkpt lat="38.070158" lon="-1.709886">
        <ele>577.559737</ele>
        <time>2021-10-30T07:23:22.000Z</time>
      </trkpt>
      <trkpt lat="38.070072" lon="-1.709515">
        <ele>577.945424</ele>
        <time>2021-10-30T07:23:27.000Z</time>
      </trkpt>
      <trkpt lat="38.070036" lon="-1.709397">
        <ele>578.071628</ele>
        <time>2021-10-30T07:23:29.000Z</time>
      </trkpt>
      <trkpt lat="38.069997" lon="-1.709289">
        <ele>578.190121</ele>
        <time>2021-10-30T07:23:31.000Z</time>
      </trkpt>
      <trkpt lat="38.069956" lon="-1.709177">
        <ele>578.313299</ele>
        <time>2021-10-30T07:23:33.000Z</time>
      </trkpt>
      <trkpt lat="38.069801" lon="-1.708834">
        <ele>578.714741</ele>
        <time>2021-10-30T07:23:38.000Z</time>
      </trkpt>
      <trkpt lat="38.069766" lon="-1.708761">
        <ele>578.805517</ele>
        <time>2021-10-30T07:23:39.000Z</time>
      </trkpt>
      <trkpt lat="38.069728" lon="-1.708692">
        <ele>578.894950</ele>
        <time>2021-10-30T07:23:40.000Z</time>
      </trkpt>
      <trkpt lat="38.069563" lon="-1.708424">
        <ele>579.256285</ele>
        <time>2021-10-30T07:23:44.000Z</time>
      </trkpt>
      <trkpt lat="38.069221" lon="-1.707946">
        <ele>579.942281</ele>
        <time>2021-10-30T07:23:52.000Z</time>
      </trkpt>
      <trkpt lat="38.069132" lon="-1.707827">
        <ele>580.116606</ele>
        <time>2021-10-30T07:23:54.000Z</time>
      </trkpt>
      <trkpt lat="38.069047" lon="-1.707709">
        <ele>580.286473</ele>
        <time>2021-10-30T07:23:56.000Z</time>
      </trkpt>
      <trkpt lat="38.068876" lon="-1.707476">
        <ele>580.624784</ele>
        <time>2021-10-30T07:24:00.000Z</time>
      </trkpt>
      <trkpt lat="38.068747" lon="-1.707295">
        <ele>580.884090</ele>
        <time>2021-10-30T07:24:03.000Z</time>
      </trkpt>
      <trkpt lat="38.068616" lon="-1.707116">
        <ele>580.978677</ele>
        <time>2021-10-30T07:24:06.000Z</time>
      </trkpt>
      <trkpt lat="38.068572" lon="-1.707057">
        <ele>580.944088</ele>
        <time>2021-10-30T07:24:07.000Z</time>
      </trkpt>
      <trkpt lat="38.068404" lon="-1.706820">
        <ele>580.808357</ele>
        <time>2021-10-30T07:24:11.000Z</time>
      </trkpt>
      <trkpt lat="38.068237" lon="-1.706586">
        <ele>580.673935</ele>
        <time>2021-10-30T07:24:15.000Z</time>
      </trkpt>
      <trkpt lat="38.068152" lon="-1.706467">
        <ele>580.605548</ele>
        <time>2021-10-30T07:24:17.000Z</time>
      </trkpt>
      <trkpt lat="38.067942" lon="-1.706170">
        <ele>580.435646</ele>
        <time>2021-10-30T07:24:22.000Z</time>
      </trkpt>
      <trkpt lat="38.067816" lon="-1.705990">
        <ele>580.333133</ele>
        <time>2021-10-30T07:24:25.000Z</time>
      </trkpt>
      <trkpt lat="38.067658" lon="-1.705752">
        <ele>580.200631</ele>
        <time>2021-10-30T07:24:29.000Z</time>
      </trkpt>
      <trkpt lat="38.067487" lon="-1.705520">
        <ele>580.065369</ele>
        <time>2021-10-30T07:24:33.000Z</time>
      </trkpt>
      <trkpt lat="38.067126" lon="-1.705021">
        <ele>579.907204</ele>
        <time>2021-10-30T07:24:41.000Z</time>
      </trkpt>
      <trkpt lat="38.066897" lon="-1.704712">
        <ele>579.811657</ele>
        <time>2021-10-30T07:24:46.000Z</time>
      </trkpt>
      <trkpt lat="38.066853" lon="-1.704649">
        <ele>579.792695</ele>
        <time>2021-10-30T07:24:47.000Z</time>
      </trkpt>
      <trkpt lat="38.066629" lon="-1.704337">
        <ele>579.697624</ele>
        <time>2021-10-30T07:24:52.000Z</time>
      </trkpt>
      <trkpt lat="38.066585" lon="-1.704275">
        <ele>579.678830</ele>
        <time>2021-10-30T07:24:53.000Z</time>
      </trkpt>
      <trkpt lat="38.066500" lon="-1.704142">
        <ele>579.640260</ele>
        <time>2021-10-30T07:24:55.000Z</time>
      </trkpt>
      <trkpt lat="38.066273" lon="-1.703821">
        <ele>579.543110</ele>
        <time>2021-10-30T07:25:00.000Z</time>
      </trkpt>
      <trkpt lat="38.066149" lon="-1.703633">
        <ele>579.591620</ele>
        <time>2021-10-30T07:25:03.000Z</time>
      </trkpt>
      <trkpt lat="38.065979" lon="-1.703257">
        <ele>579.691621</ele>
        <time>2021-10-30T07:25:08.000Z</time>
      </trkpt>
      <trkpt lat="38.065893" lon="-1.703134">
        <ele>579.729560</ele>
        <time>2021-10-30T07:25:10.000Z</time>
      </trkpt>
      <trkpt lat="38.065719" lon="-1.702893">
        <ele>579.804977</ele>
        <time>2021-10-30T07:25:14.000Z</time>
      </trkpt>
      <trkpt lat="38.065676" lon="-1.702835">
        <ele>579.823351</ele>
        <time>2021-10-30T07:25:15.000Z</time>
      </trkpt>
      <trkpt lat="38.065344" lon="-1.702414">
        <ele>579.960781</ele>
        <time>2021-10-30T07:25:22.000Z</time>
      </trkpt>
      <trkpt lat="38.065293" lon="-1.702360">
        <ele>579.980231</ele>
        <time>2021-10-30T07:25:23.000Z</time>
      </trkpt>
      <trkpt lat="38.065102" lon="-1.702114">
        <ele>580.059916</ele>
        <time>2021-10-30T07:25:27.000Z</time>
      </trkpt>
      <trkpt lat="38.065057" lon="-1.702054">
        <ele>580.093147</ele>
        <time>2021-10-30T07:25:28.000Z</time>
      </trkpt>
      <trkpt lat="38.064835" lon="-1.701747">
        <ele>580.293724</ele>
        <time>2021-10-30T07:25:33.000Z</time>
      </trkpt>
      <trkpt lat="38.064711" lon="-1.701552">
        <ele>580.414338</ele>
        <time>2021-10-30T07:25:36.000Z</time>
      </trkpt>
      <trkpt lat="38.064448" lon="-1.701086">
        <ele>580.690232</ele>
        <time>2021-10-30T07:25:43.000Z</time>
      </trkpt>
      <trkpt lat="38.064164" lon="-1.700437">
        <ele>581.047518</ele>
        <time>2021-10-30T07:25:52.000Z</time>
      </trkpt>
      <trkpt lat="38.063973" lon="-1.699938">
        <ele>581.399493</ele>
        <time>2021-10-30T07:25:59.000Z</time>
      </trkpt>
      <trkpt lat="38.063950" lon="-1.699872">
        <ele>581.454008</ele>
        <time>2021-10-30T07:26:00.000Z</time>
      </trkpt>
      <trkpt lat="38.063790" lon="-1.699285">
        <ele>581.923194</ele>
        <time>2021-10-30T07:26:08.000Z</time>
      </trkpt>
      <trkpt lat="38.063759" lon="-1.699140">
        <ele>582.036680</ele>
        <time>2021-10-30T07:26:10.000Z</time>
      </trkpt>
      <trkpt lat="38.063636" lon="-1.698600">
        <ele>582.461275</ele>
        <time>2021-10-30T07:26:17.000Z</time>
      </trkpt>
      <trkpt lat="38.063529" lon="-1.698083">
        <ele>582.865039</ele>
        <time>2021-10-30T07:26:24.000Z</time>
      </trkpt>
      <trkpt lat="38.063374" lon="-1.697399">
        <ele>583.958238</ele>
        <time>2021-10-30T07:26:33.000Z</time>
      </trkpt>
      <trkpt lat="38.063277" lon="-1.696958">
        <ele>584.679509</ele>
        <time>2021-10-30T07:26:39.000Z</time>
      </trkpt>
      <trkpt lat="38.063245" lon="-1.696813">
        <ele>584.916719</ele>
        <time>2021-10-30T07:26:41.000Z</time>
      </trkpt>
      <trkpt lat="38.063170" lon="-1.696445">
        <ele>585.515506</ele>
        <time>2021-10-30T07:26:46.000Z</time>
      </trkpt>
      <trkpt lat="38.063154" lon="-1.696371">
        <ele>585.636388</ele>
        <time>2021-10-30T07:26:47.000Z</time>
      </trkpt>
      <trkpt lat="38.063136" lon="-1.696297">
        <ele>585.758391</ele>
        <time>2021-10-30T07:26:48.000Z</time>
      </trkpt>
      <trkpt lat="38.063045" lon="-1.695859">
        <ele>586.471957</ele>
        <time>2021-10-30T07:26:54.000Z</time>
      </trkpt>
      <trkpt lat="38.062994" lon="-1.695643">
        <ele>586.663334</ele>
        <time>2021-10-30T07:26:57.000Z</time>
      </trkpt>
      <trkpt lat="38.062962" lon="-1.695500">
        <ele>586.783926</ele>
        <time>2021-10-30T07:26:59.000Z</time>
      </trkpt>
      <trkpt lat="38.062926" lon="-1.695359">
        <ele>586.904166</ele>
        <time>2021-10-30T07:27:01.000Z</time>
      </trkpt>
      <trkpt lat="38.062910" lon="-1.695287">
        <ele>586.964852</ele>
        <time>2021-10-30T07:27:02.000Z</time>
      </trkpt>
      <trkpt lat="38.062895" lon="-1.695215">
        <ele>587.025267</ele>
        <time>2021-10-30T07:27:03.000Z</time>
      </trkpt>
      <trkpt lat="38.062778" lon="-1.694713">
        <ele>587.449945</ele>
        <time>2021-10-30T07:27:10.000Z</time>
      </trkpt>
      <trkpt lat="38.062647" lon="-1.694121">
        <ele>587.948769</ele>
        <time>2021-10-30T07:27:18.000Z</time>
      </trkpt>
      <trkpt lat="38.062525" lon="-1.693530">
        <ele>588.405305</ele>
        <time>2021-10-30T07:27:26.000Z</time>
      </trkpt>
      <trkpt lat="38.062378" lon="-1.692870">
        <ele>588.748304</ele>
        <time>2021-10-30T07:27:35.000Z</time>
      </trkpt>
      <trkpt lat="38.062347" lon="-1.692721">
        <ele>588.825372</ele>
        <time>2021-10-30T07:27:37.000Z</time>
      </trkpt>
      <trkpt lat="38.062233" lon="-1.692202">
        <ele>589.094820</ele>
        <time>2021-10-30T07:27:44.000Z</time>
      </trkpt>
      <trkpt lat="38.062065" lon="-1.691614">
        <ele>589.407625</ele>
        <time>2021-10-30T07:27:52.000Z</time>
      </trkpt>
      <trkpt lat="38.062039" lon="-1.691543">
        <ele>589.446783</ele>
        <time>2021-10-30T07:27:53.000Z</time>
      </trkpt>
      <trkpt lat="38.061849" lon="-1.691055">
        <ele>589.845819</ele>
        <time>2021-10-30T07:28:00.000Z</time>
      </trkpt>
      <trkpt lat="38.061819" lon="-1.690988">
        <ele>589.905236</ele>
        <time>2021-10-30T07:28:01.000Z</time>
      </trkpt>
      <trkpt lat="38.061591" lon="-1.690532">
        <ele>590.321649</ele>
        <time>2021-10-30T07:28:08.000Z</time>
      </trkpt>
      <trkpt lat="38.061558" lon="-1.690469">
        <ele>590.379981</ele>
        <time>2021-10-30T07:28:09.000Z</time>
      </trkpt>
      <trkpt lat="38.061522" lon="-1.690408">
        <ele>590.438748</ele>
        <time>2021-10-30T07:28:10.000Z</time>
      </trkpt>
      <trkpt lat="38.061373" lon="-1.690165">
        <ele>590.676178</ele>
        <time>2021-10-30T07:28:14.000Z</time>
      </trkpt>
      <trkpt lat="38.061131" lon="-1.689826">
        <ele>591.028929</ele>
        <time>2021-10-30T07:28:20.000Z</time>
      </trkpt>
      <trkpt lat="38.061044" lon="-1.689723">
        <ele>591.145378</ele>
        <time>2021-10-30T07:28:22.000Z</time>
      </trkpt>
      <trkpt lat="38.061001" lon="-1.689673">
        <ele>591.202458</ele>
        <time>2021-10-30T07:28:23.000Z</time>
      </trkpt>
      <trkpt lat="38.060632" lon="-1.689285">
        <ele>591.883874</ele>
        <time>2021-10-30T07:28:31.000Z</time>
      </trkpt>
      <trkpt lat="38.060584" lon="-1.689241">
        <ele>591.970757</ele>
        <time>2021-10-30T07:28:32.000Z</time>
      </trkpt>
      <trkpt lat="38.060259" lon="-1.688962">
        <ele>592.546505</ele>
        <time>2021-10-30T07:28:39.000Z</time>
      </trkpt>
      <trkpt lat="38.060178" lon="-1.688881">
        <ele>592.697817</ele>
        <time>2021-10-30T07:28:42.000Z</time>
      </trkpt>
      <trkpt lat="38.060175" lon="-1.688863">
        <ele>592.719079</ele>
        <time>2021-10-30T07:28:43.000Z</time>
      </trkpt>
      <trkpt lat="38.060235" lon="-1.688738">
        <ele>592.888258</ele>
        <time>2021-10-30T07:28:47.000Z</time>
      </trkpt>
      <trkpt lat="38.060284" lon="-1.688639">
        <ele>593.023391</ele>
        <time>2021-10-30T07:28:49.000Z</time>
      </trkpt>
      <trkpt lat="38.060273" lon="-1.688586">
        <ele>593.086731</ele>
        <time>2021-10-30T07:28:50.000Z</time>
      </trkpt>
      <trkpt lat="38.060198" lon="-1.688555">
        <ele>593.202492</ele>
        <time>2021-10-30T07:28:52.000Z</time>
      </trkpt>
      <trkpt lat="38.060073" lon="-1.688574">
        <ele>593.387264</ele>
        <time>2021-10-30T07:28:55.000Z</time>
      </trkpt>
      <trkpt lat="38.059992" lon="-1.688587">
        <ele>593.507094</ele>
        <time>2021-10-30T07:28:57.000Z</time>
      </trkpt>
      <trkpt lat="38.059952" lon="-1.688589">
        <ele>593.565848</ele>
        <time>2021-10-30T07:28:58.000Z</time>
      </trkpt>
      <trkpt lat="38.059736" lon="-1.688575">
        <ele>593.883285</ele>
        <time>2021-10-30T07:29:03.000Z</time>
      </trkpt>
      <trkpt lat="38.059688" lon="-1.688567">
        <ele>593.931592</ele>
        <time>2021-10-30T07:29:04.000Z</time>
      </trkpt>
      <trkpt lat="38.059639" lon="-1.688558">
        <ele>593.980142</ele>
        <time>2021-10-30T07:29:05.000Z</time>
      </trkpt>
      <trkpt lat="38.059330" lon="-1.688447">
        <ele>594.295036</ele>
        <time>2021-10-30T07:29:11.000Z</time>
      </trkpt>
      <trkpt lat="38.059224" lon="-1.688405">
        <ele>594.403921</ele>
        <time>2021-10-30T07:29:13.000Z</time>
      </trkpt>
      <trkpt lat="38.059118" lon="-1.688364">
        <ele>594.512579</ele>
        <time>2021-10-30T07:29:15.000Z</time>
      </trkpt>
      <trkpt lat="38.058804" lon="-1.688250">
        <ele>594.832823</ele>
        <time>2021-10-30T07:29:21.000Z</time>
      </trkpt>
      <trkpt lat="38.058702" lon="-1.688214">
        <ele>594.936636</ele>
        <time>2021-10-30T07:29:23.000Z</time>
      </trkpt>
      <trkpt lat="38.058549" lon="-1.688155">
        <ele>595.093432</ele>
        <time>2021-10-30T07:29:26.000Z</time>
      </trkpt>
      <trkpt lat="38.058449" lon="-1.688119">
        <ele>595.195356</ele>
        <time>2021-10-30T07:29:28.000Z</time>
      </trkpt>
      <trkpt lat="38.058399" lon="-1.688104">
        <ele>595.245735</ele>
        <time>2021-10-30T07:29:29.000Z</time>
      </trkpt>
      <trkpt lat="38.058349" lon="-1.688087">
        <ele>595.296492</ele>
        <time>2021-10-30T07:29:30.000Z</time>
      </trkpt>
      <trkpt lat="38.058147" lon="-1.688011">
        <ele>595.503084</ele>
        <time>2021-10-30T07:29:34.000Z</time>
      </trkpt>
      <trkpt lat="38.057939" lon="-1.687937">
        <ele>595.663385</ele>
        <time>2021-10-30T07:29:38.000Z</time>
      </trkpt>
      <trkpt lat="38.057888" lon="-1.687919">
        <ele>595.674368</ele>
        <time>2021-10-30T07:29:39.000Z</time>
      </trkpt>
      <trkpt lat="38.057566" lon="-1.687801">
        <ele>595.743905</ele>
        <time>2021-10-30T07:29:45.000Z</time>
      </trkpt>
      <trkpt lat="38.057400" lon="-1.687736">
        <ele>595.779947</ele>
        <time>2021-10-30T07:29:48.000Z</time>
      </trkpt>
      <trkpt lat="38.057183" lon="-1.687653">
        <ele>595.826970</ele>
        <time>2021-10-30T07:29:52.000Z</time>
      </trkpt>
      <trkpt lat="38.056868" lon="-1.687502">
        <ele>595.896829</ele>
        <time>2021-10-30T07:29:58.000Z</time>
      </trkpt>
      <trkpt lat="38.056763" lon="-1.687447">
        <ele>595.920396</ele>
        <time>2021-10-30T07:30:00.000Z</time>
      </trkpt>
      <trkpt lat="38.056711" lon="-1.687418">
        <ele>595.932179</ele>
        <time>2021-10-30T07:30:01.000Z</time>
      </trkpt>
      <trkpt lat="38.056606" lon="-1.687355">
        <ele>595.956275</ele>
        <time>2021-10-30T07:30:03.000Z</time>
      </trkpt>
      <trkpt lat="38.056349" lon="-1.687191">
        <ele>596.015952</ele>
        <time>2021-10-30T07:30:08.000Z</time>
      </trkpt>
      <trkpt lat="38.055952" lon="-1.686881">
        <ele>596.624455</ele>
        <time>2021-10-30T07:30:16.000Z</time>
      </trkpt>
      <trkpt lat="38.055772" lon="-1.686716">
        <ele>596.932757</ele>
        <time>2021-10-30T07:30:20.000Z</time>
      </trkpt>
      <trkpt lat="38.055684" lon="-1.686640">
        <ele>597.080554</ele>
        <time>2021-10-30T07:30:22.000Z</time>
      </trkpt>
      <trkpt lat="38.055452" lon="-1.686363">
        <ele>597.522791</ele>
        <time>2021-10-30T07:30:28.000Z</time>
      </trkpt>
      <trkpt lat="38.055334" lon="-1.686199">
        <ele>597.765733</ele>
        <time>2021-10-30T07:30:31.000Z</time>
      </trkpt>
      <trkpt lat="38.055092" lon="-1.685880">
        <ele>598.250142</ele>
        <time>2021-10-30T07:30:37.000Z</time>
      </trkpt>
      <trkpt lat="38.054797" lon="-1.685477">
        <ele>598.965815</ele>
        <time>2021-10-30T07:30:45.000Z</time>
      </trkpt>
      <trkpt lat="38.054728" lon="-1.685383">
        <ele>599.154706</ele>
        <time>2021-10-30T07:30:47.000Z</time>
      </trkpt>
      <trkpt lat="38.054659" lon="-1.685283">
        <ele>599.350141</ele>
        <time>2021-10-30T07:30:49.000Z</time>
      </trkpt>
      <trkpt lat="38.054353" lon="-1.684895">
        <ele>600.157312</ele>
        <time>2021-10-30T07:30:57.000Z</time>
      </trkpt>
      <trkpt lat="38.054139" lon="-1.684587">
        <ele>600.761076</ele>
        <time>2021-10-30T07:31:03.000Z</time>
      </trkpt>
      <trkpt lat="38.054100" lon="-1.684535">
        <ele>600.866632</ele>
        <time>2021-10-30T07:31:04.000Z</time>
      </trkpt>
      <trkpt lat="38.054062" lon="-1.684480">
        <ele>600.974183</ele>
        <time>2021-10-30T07:31:05.000Z</time>
      </trkpt>
      <trkpt lat="38.053866" lon="-1.684207">
        <ele>601.517214</ele>
        <time>2021-10-30T07:31:10.000Z</time>
      </trkpt>
      <trkpt lat="38.053784" lon="-1.684101">
        <ele>601.735630</ele>
        <time>2021-10-30T07:31:12.000Z</time>
      </trkpt>
      <trkpt lat="38.053496" lon="-1.683741">
        <ele>601.610466</ele>
        <time>2021-10-30T07:31:19.000Z</time>
      </trkpt>
      <trkpt lat="38.053371" lon="-1.683585">
        <ele>601.467290</ele>
        <time>2021-10-30T07:31:22.000Z</time>
      </trkpt>
      <trkpt lat="38.053328" lon="-1.683531">
        <ele>601.417885</ele>
        <time>2021-10-30T07:31:23.000Z</time>
      </trkpt>
      <trkpt lat="38.052938" lon="-1.683005">
        <ele>600.953114</ele>
        <time>2021-10-30T07:31:32.000Z</time>
      </trkpt>
      <trkpt lat="38.052771" lon="-1.682610">
        <ele>600.664699</ele>
        <time>2021-10-30T07:31:37.000Z</time>
      </trkpt>
      <trkpt lat="38.052750" lon="-1.682520">
        <ele>600.604314</ele>
        <time>2021-10-30T07:31:38.000Z</time>
      </trkpt>
      <trkpt lat="38.052725" lon="-1.682326">
        <ele>600.477852</ele>
        <time>2021-10-30T07:31:40.000Z</time>
      </trkpt>
      <trkpt lat="38.052719" lon="-1.682226">
        <ele>600.413335</ele>
        <time>2021-10-30T07:31:41.000Z</time>
      </trkpt>
      <trkpt lat="38.052711" lon="-1.682023">
        <ele>600.358710</ele>
        <time>2021-10-30T07:31:43.000Z</time>
      </trkpt>
      <trkpt lat="38.052724" lon="-1.681583">
        <ele>600.246307</ele>
        <time>2021-10-30T07:31:47.000Z</time>
      </trkpt>
      <trkpt lat="38.052708" lon="-1.681262">
        <ele>600.164197</ele>
        <time>2021-10-30T07:31:50.000Z</time>
      </trkpt>
      <trkpt lat="38.052661" lon="-1.681069">
        <ele>600.112625</ele>
        <time>2021-10-30T07:31:52.000Z</time>
      </trkpt>
      <trkpt lat="38.052513" lon="-1.680757">
        <ele>600.019641</ele>
        <time>2021-10-30T07:31:56.000Z</time>
      </trkpt>
      <trkpt lat="38.052467" lon="-1.680694">
        <ele>599.997708</ele>
        <time>2021-10-30T07:31:57.000Z</time>
      </trkpt>
      <trkpt lat="38.052316" lon="-1.680559">
        <ele>599.937841</ele>
        <time>2021-10-30T07:32:00.000Z</time>
      </trkpt>
      <trkpt lat="38.052210" lon="-1.680512">
        <ele>599.901442</ele>
        <time>2021-10-30T07:32:02.000Z</time>
      </trkpt>
      <trkpt lat="38.052105" lon="-1.680512">
        <ele>599.867402</ele>
        <time>2021-10-30T07:32:04.000Z</time>
      </trkpt>
      <trkpt lat="38.051955" lon="-1.680535">
        <ele>599.832529</ele>
        <time>2021-10-30T07:32:07.000Z</time>
      </trkpt>
      <trkpt lat="38.051865" lon="-1.680506">
        <ele>599.860842</ele>
        <time>2021-10-30T07:32:09.000Z</time>
      </trkpt>
      <trkpt lat="38.051828" lon="-1.680472">
        <ele>599.874768</ele>
        <time>2021-10-30T07:32:10.000Z</time>
      </trkpt>
      <trkpt lat="38.051801" lon="-1.680430">
        <ele>599.887787</ele>
        <time>2021-10-30T07:32:11.000Z</time>
      </trkpt>
      <trkpt lat="38.051784" lon="-1.680377">
        <ele>599.901528</ele>
        <time>2021-10-30T07:32:12.000Z</time>
      </trkpt>
      <trkpt lat="38.051781" lon="-1.680317">
        <ele>599.915964</ele>
        <time>2021-10-30T07:32:13.000Z</time>
      </trkpt>
      <trkpt lat="38.051791" lon="-1.680256">
        <ele>599.930924</ele>
        <time>2021-10-30T07:32:14.000Z</time>
      </trkpt>
      <trkpt lat="38.051817" lon="-1.680200">
        <ele>599.946534</ele>
        <time>2021-10-30T07:32:15.000Z</time>
      </trkpt>
      <trkpt lat="38.051851" lon="-1.680147">
        <ele>599.962948</ele>
        <time>2021-10-30T07:32:16.000Z</time>
      </trkpt>
      <trkpt lat="38.051893" lon="-1.680099">
        <ele>599.980177</ele>
        <time>2021-10-30T07:32:17.000Z</time>
      </trkpt>
      <trkpt lat="38.051972" lon="-1.679986">
        <ele>600.016460</ele>
        <time>2021-10-30T07:32:19.000Z</time>
      </trkpt>
      <trkpt lat="38.051978" lon="-1.679828">
        <ele>600.054442</ele>
        <time>2021-10-30T07:32:21.000Z</time>
      </trkpt>
      <trkpt lat="38.051946" lon="-1.679678">
        <ele>600.091757</ele>
        <time>2021-10-30T07:32:23.000Z</time>
      </trkpt>
      <trkpt lat="38.051906" lon="-1.679444">
        <ele>600.149252</ele>
        <time>2021-10-30T07:32:26.000Z</time>
      </trkpt>
      <trkpt lat="38.051864" lon="-1.678823">
        <ele>600.298910</ele>
        <time>2021-10-30T07:32:33.000Z</time>
      </trkpt>
      <trkpt lat="38.051862" lon="-1.678725">
        <ele>600.322449</ele>
        <time>2021-10-30T07:32:34.000Z</time>
      </trkpt>
      <trkpt lat="38.051861" lon="-1.678531">
        <ele>600.369032</ele>
        <time>2021-10-30T07:32:36.000Z</time>
      </trkpt>
      <trkpt lat="38.051861" lon="-1.678337">
        <ele>600.466878</ele>
        <time>2021-10-30T07:32:38.000Z</time>
      </trkpt>
      <trkpt lat="38.051882" lon="-1.677956">
        <ele>600.671932</ele>
        <time>2021-10-30T07:32:42.000Z</time>
      </trkpt>
      <trkpt lat="38.051968" lon="-1.677531">
        <ele>600.907522</ele>
        <time>2021-10-30T07:32:47.000Z</time>
      </trkpt>
      <trkpt lat="38.051974" lon="-1.677457">
        <ele>600.947461</ele>
        <time>2021-10-30T07:32:48.000Z</time>
      </trkpt>
      <trkpt lat="38.051930" lon="-1.677339">
        <ele>601.017557</ele>
        <time>2021-10-30T07:32:50.000Z</time>
      </trkpt>
      <trkpt lat="38.051757" lon="-1.677180">
        <ele>601.163159</ele>
        <time>2021-10-30T07:32:55.000Z</time>
      </trkpt>
      <trkpt lat="38.051327" lon="-1.677147">
        <ele>601.456868</ele>
        <time>2021-10-30T07:33:03.000Z</time>
      </trkpt>
      <trkpt lat="38.051345" lon="-1.677098">
        <ele>601.485897</ele>
        <time>2021-10-30T07:33:04.000Z</time>
      </trkpt>
      <trkpt lat="38.051367" lon="-1.677031">
        <ele>601.524870</ele>
        <time>2021-10-30T07:33:05.000Z</time>
      </trkpt>
      <trkpt lat="38.051383" lon="-1.676981">
        <ele>601.553847</ele>
        <time>2021-10-30T07:33:06.000Z</time>
      </trkpt>
      <trkpt lat="38.051422" lon="-1.676883">
        <ele>601.671232</ele>
        <time>2021-10-30T07:33:08.000Z</time>
      </trkpt>
      <trkpt lat="38.051508" lon="-1.676704">
        <ele>602.316591</ele>
        <time>2021-10-30T07:33:13.000Z</time>
      </trkpt>
      <trkpt lat="38.051536" lon="-1.676625">
        <ele>602.583226</ele>
        <time>2021-10-30T07:33:15.000Z</time>
      </trkpt>
      <trkpt lat="38.051562" lon="-1.676536">
        <ele>602.875387</ele>
        <time>2021-10-30T07:33:17.000Z</time>
      </trkpt>
      <trkpt lat="38.051661" lon="-1.676255">
        <ele>603.822843</ele>
        <time>2021-10-30T07:33:24.000Z</time>
      </trkpt>
      <trkpt lat="38.051769" lon="-1.676009">
        <ele>604.689683</ele>
        <time>2021-10-30T07:33:30.000Z</time>
      </trkpt>
      <trkpt lat="38.051789" lon="-1.675966">
        <ele>604.843387</ele>
        <time>2021-10-30T07:33:31.000Z</time>
      </trkpt>
      <trkpt lat="38.051870" lon="-1.675798">
        <ele>605.449666</ele>
        <time>2021-10-30T07:33:35.000Z</time>
      </trkpt>
      <trkpt lat="38.051910" lon="-1.675715">
        <ele>605.749160</ele>
        <time>2021-10-30T07:33:37.000Z</time>
      </trkpt>
      <trkpt lat="38.051970" lon="-1.675582">
        <ele>606.220912</ele>
        <time>2021-10-30T07:33:40.000Z</time>
      </trkpt>
      <trkpt lat="38.052062" lon="-1.675348">
        <ele>607.025874</ele>
        <time>2021-10-30T07:33:45.000Z</time>
      </trkpt>
      <trkpt lat="38.052110" lon="-1.675194">
        <ele>607.535620</ele>
        <time>2021-10-30T07:33:48.000Z</time>
      </trkpt>
      <trkpt lat="38.052188" lon="-1.674933">
        <ele>608.394806</ele>
        <time>2021-10-30T07:33:53.000Z</time>
      </trkpt>
      <trkpt lat="38.052254" lon="-1.674733">
        <ele>608.723267</ele>
        <time>2021-10-30T07:33:57.000Z</time>
      </trkpt>
      <trkpt lat="38.052339" lon="-1.674451">
        <ele>608.923193</ele>
        <time>2021-10-30T07:34:02.000Z</time>
      </trkpt>
      <trkpt lat="38.052372" lon="-1.674337">
        <ele>609.003612</ele>
        <time>2021-10-30T07:34:04.000Z</time>
      </trkpt>
      <trkpt lat="38.052519" lon="-1.673886">
        <ele>609.326793</ele>
        <time>2021-10-30T07:34:12.000Z</time>
      </trkpt>
      <trkpt lat="38.052572" lon="-1.673717">
        <ele>609.447237</ele>
        <time>2021-10-30T07:34:15.000Z</time>
      </trkpt>
      <trkpt lat="38.052587" lon="-1.673658">
        <ele>609.488287</ele>
        <time>2021-10-30T07:34:16.000Z</time>
      </trkpt>
      <trkpt lat="38.052628" lon="-1.673476">
        <ele>609.613625</ele>
        <time>2021-10-30T07:34:19.000Z</time>
      </trkpt>
      <trkpt lat="38.052758" lon="-1.673060">
        <ele>609.909958</ele>
        <time>2021-10-30T07:34:26.000Z</time>
      </trkpt>
      <trkpt lat="38.052782" lon="-1.672943">
        <ele>609.990010</ele>
        <time>2021-10-30T07:34:28.000Z</time>
      </trkpt>
      <trkpt lat="38.052854" lon="-1.672633">
        <ele>610.208528</ele>
        <time>2021-10-30T07:34:33.000Z</time>
      </trkpt>
      <trkpt lat="38.053001" lon="-1.672213">
        <ele>610.535300</ele>
        <time>2021-10-30T07:34:40.000Z</time>
      </trkpt>
      <trkpt lat="38.053095" lon="-1.671904">
        <ele>610.770812</ele>
        <time>2021-10-30T07:34:45.000Z</time>
      </trkpt>
      <trkpt lat="38.053169" lon="-1.671658">
        <ele>610.958036</ele>
        <time>2021-10-30T07:34:49.000Z</time>
      </trkpt>
      <trkpt lat="38.053358" lon="-1.671073">
        <ele>611.407594</ele>
        <time>2021-10-30T07:34:59.000Z</time>
      </trkpt>
      <trkpt lat="38.053419" lon="-1.670833">
        <ele>611.586892</ele>
        <time>2021-10-30T07:35:03.000Z</time>
      </trkpt>
      <trkpt lat="38.053484" lon="-1.670528">
        <ele>611.830509</ele>
        <time>2021-10-30T07:35:08.000Z</time>
      </trkpt>
      <trkpt lat="38.053551" lon="-1.670155">
        <ele>612.217532</ele>
        <time>2021-10-30T07:35:14.000Z</time>
      </trkpt>
      <trkpt lat="38.053560" lon="-1.670037">
        <ele>612.337460</ele>
        <time>2021-10-30T07:35:16.000Z</time>
      </trkpt>
      <trkpt lat="38.053570" lon="-1.669981">
        <ele>612.395548</ele>
        <time>2021-10-30T07:35:17.000Z</time>
      </trkpt>
      <trkpt lat="38.053626" lon="-1.669679">
        <ele>612.709411</ele>
        <time>2021-10-30T07:35:22.000Z</time>
      </trkpt>
      <trkpt lat="38.053689" lon="-1.669229">
        <ele>613.171773</ele>
        <time>2021-10-30T07:35:29.000Z</time>
      </trkpt>
      <trkpt lat="38.053700" lon="-1.669097">
        <ele>613.306050</ele>
        <time>2021-10-30T07:35:31.000Z</time>
      </trkpt>
      <trkpt lat="38.053730" lon="-1.668631">
        <ele>613.779032</ele>
        <time>2021-10-30T07:35:38.000Z</time>
      </trkpt>
      <trkpt lat="38.053741" lon="-1.668428">
        <ele>613.984873</ele>
        <time>2021-10-30T07:35:41.000Z</time>
      </trkpt>
      <trkpt lat="38.053753" lon="-1.668235">
        <ele>614.156295</ele>
        <time>2021-10-30T07:35:44.000Z</time>
      </trkpt>
      <trkpt lat="38.053760" lon="-1.668173">
        <ele>614.204681</ele>
        <time>2021-10-30T07:35:45.000Z</time>
      </trkpt>
      <trkpt lat="38.053791" lon="-1.667919">
        <ele>614.403246</ele>
        <time>2021-10-30T07:35:49.000Z</time>
      </trkpt>
      <trkpt lat="38.053805" lon="-1.667794">
        <ele>614.500784</ele>
        <time>2021-10-30T07:35:51.000Z</time>
      </trkpt>
      <trkpt lat="38.053816" lon="-1.667667">
        <ele>614.599486</ele>
        <time>2021-10-30T07:35:53.000Z</time>
      </trkpt>
      <trkpt lat="38.053825" lon="-1.667542">
        <ele>614.696455</ele>
        <time>2021-10-30T07:35:55.000Z</time>
      </trkpt>
      <trkpt lat="38.053866" lon="-1.666956">
        <ele>615.150939</ele>
        <time>2021-10-30T07:36:04.000Z</time>
      </trkpt>
      <trkpt lat="38.053900" lon="-1.666640">
        <ele>615.397326</ele>
        <time>2021-10-30T07:36:09.000Z</time>
      </trkpt>
      <trkpt lat="38.053902" lon="-1.666575">
        <ele>615.447578</ele>
        <time>2021-10-30T07:36:10.000Z</time>
      </trkpt>
      <trkpt lat="38.053907" lon="-1.666442">
        <ele>615.550441</ele>
        <time>2021-10-30T07:36:12.000Z</time>
      </trkpt>
      <trkpt lat="38.053904" lon="-1.666239">
        <ele>615.707292</ele>
        <time>2021-10-30T07:36:15.000Z</time>
      </trkpt>
      <trkpt lat="38.053903" lon="-1.666168">
        <ele>615.762150</ele>
        <time>2021-10-30T07:36:16.000Z</time>
      </trkpt>
      <trkpt lat="38.053904" lon="-1.666095">
        <ele>615.818553</ele>
        <time>2021-10-30T07:36:17.000Z</time>
      </trkpt>
      <trkpt lat="38.053905" lon="-1.665944">
        <ele>615.845453</ele>
        <time>2021-10-30T07:36:19.000Z</time>
      </trkpt>
      <trkpt lat="38.053926" lon="-1.665414">
        <ele>615.860794</ele>
        <time>2021-10-30T07:36:26.000Z</time>
      </trkpt>
      <trkpt lat="38.053937" lon="-1.665261">
        <ele>615.865235</ele>
        <time>2021-10-30T07:36:28.000Z</time>
      </trkpt>
      <trkpt lat="38.053946" lon="-1.665029">
        <ele>615.871950</ele>
        <time>2021-10-30T07:36:31.000Z</time>
      </trkpt>
      <trkpt lat="38.053953" lon="-1.664791">
        <ele>615.878835</ele>
        <time>2021-10-30T07:36:34.000Z</time>
      </trkpt>
      <trkpt lat="38.053989" lon="-1.664178">
        <ele>615.896605</ele>
        <time>2021-10-30T07:36:42.000Z</time>
      </trkpt>
      <trkpt lat="38.054001" lon="-1.663589">
        <ele>615.991427</ele>
        <time>2021-10-30T07:36:50.000Z</time>
      </trkpt>
      <trkpt lat="38.054006" lon="-1.663243">
        <ele>616.139365</ele>
        <time>2021-10-30T07:36:55.000Z</time>
      </trkpt>
      <trkpt lat="38.054010" lon="-1.663050">
        <ele>616.221900</ele>
        <time>2021-10-30T07:36:58.000Z</time>
      </trkpt>
      <trkpt lat="38.054040" lon="-1.662510">
        <ele>616.453320</ele>
        <time>2021-10-30T07:37:06.000Z</time>
      </trkpt>
      <trkpt lat="38.054035" lon="-1.662212">
        <ele>616.580742</ele>
        <time>2021-10-30T07:37:11.000Z</time>
      </trkpt>
      <trkpt lat="38.054025" lon="-1.662160">
        <ele>616.603625</ele>
        <time>2021-10-30T07:37:12.000Z</time>
      </trkpt>
      <trkpt lat="38.054019" lon="-1.662107">
        <ele>616.626515</ele>
        <time>2021-10-30T07:37:13.000Z</time>
      </trkpt>
      <trkpt lat="38.054032" lon="-1.662000">
        <ele>616.672798</ele>
        <time>2021-10-30T07:37:15.000Z</time>
      </trkpt>
      <trkpt lat="38.054049" lon="-1.661952">
        <ele>616.695298</ele>
        <time>2021-10-30T07:37:16.000Z</time>
      </trkpt>
      <trkpt lat="38.054073" lon="-1.661905">
        <ele>616.719245</ele>
        <time>2021-10-30T07:37:17.000Z</time>
      </trkpt>
      <trkpt lat="38.054100" lon="-1.661855">
        <ele>616.745163</ele>
        <time>2021-10-30T07:37:19.000Z</time>
      </trkpt>
      <trkpt lat="38.054132" lon="-1.661736">
        <ele>616.798919</ele>
        <time>2021-10-30T07:37:20.000Z</time>
      </trkpt>
      <trkpt lat="38.054124" lon="-1.661530">
        <ele>616.895644</ele>
        <time>2021-10-30T07:37:23.000Z</time>
      </trkpt>
      <trkpt lat="38.054118" lon="-1.661463">
        <ele>617.018764</ele>
        <time>2021-10-30T07:37:24.000Z</time>
      </trkpt>
      <trkpt lat="38.054102" lon="-1.661396">
        <ele>617.146597</ele>
        <time>2021-10-30T07:37:25.000Z</time>
      </trkpt>
      <trkpt lat="38.054032" lon="-1.661113">
        <ele>617.688204</ele>
        <time>2021-10-30T07:37:29.000Z</time>
      </trkpt>
      <trkpt lat="38.053939" lon="-1.660824">
        <ele>618.258235</ele>
        <time>2021-10-30T07:37:33.000Z</time>
      </trkpt>
      <trkpt lat="38.053892" lon="-1.660694">
        <ele>618.519418</ele>
        <time>2021-10-30T07:37:35.000Z</time>
      </trkpt>
      <trkpt lat="38.053825" lon="-1.660524">
        <ele>618.866520</ele>
        <time>2021-10-30T07:37:38.000Z</time>
      </trkpt>
      <trkpt lat="38.053797" lon="-1.660479">
        <ele>618.971239</ele>
        <time>2021-10-30T07:37:39.000Z</time>
      </trkpt>
      <trkpt lat="38.053760" lon="-1.660448">
        <ele>619.074021</ele>
        <time>2021-10-30T07:37:40.000Z</time>
      </trkpt>
      <trkpt lat="38.053688" lon="-1.660386">
        <ele>619.275731</ele>
        <time>2021-10-30T07:37:42.000Z</time>
      </trkpt>
      <trkpt lat="38.053663" lon="-1.660342">
        <ele>619.374799</ele>
        <time>2021-10-30T07:37:43.000Z</time>
      </trkpt>
      <trkpt lat="38.053645" lon="-1.660292">
        <ele>619.475180</ele>
        <time>2021-10-30T07:37:45.000Z</time>
      </trkpt>
      <trkpt lat="38.053650" lon="-1.660110">
        <ele>619.807687</ele>
        <time>2021-10-30T07:37:47.000Z</time>
      </trkpt>
      <trkpt lat="38.053661" lon="-1.660048">
        <ele>619.923728</ele>
        <time>2021-10-30T07:37:48.000Z</time>
      </trkpt>
      <trkpt lat="38.053680" lon="-1.659936">
        <ele>620.132915</ele>
        <time>2021-10-30T07:37:50.000Z</time>
      </trkpt>
      <trkpt lat="38.053699" lon="-1.659826">
        <ele>620.338534</ele>
        <time>2021-10-30T07:37:52.000Z</time>
      </trkpt>
      <trkpt lat="38.053712" lon="-1.659717">
        <ele>620.539822</ele>
        <time>2021-10-30T07:37:54.000Z</time>
      </trkpt>
      <trkpt lat="38.053720" lon="-1.659661">
        <ele>620.643739</ele>
        <time>2021-10-30T07:37:55.000Z</time>
      </trkpt>
      <trkpt lat="38.053761" lon="-1.659449">
        <ele>621.042323</ele>
        <time>2021-10-30T07:37:59.000Z</time>
      </trkpt>
      <trkpt lat="38.053770" lon="-1.659400">
        <ele>621.183602</ele>
        <time>2021-10-30T07:38:00.000Z</time>
      </trkpt>
      <trkpt lat="38.053808" lon="-1.659187">
        <ele>621.831351</ele>
        <time>2021-10-30T07:38:04.000Z</time>
      </trkpt>
      <trkpt lat="38.053798" lon="-1.659139">
        <ele>621.978613</ele>
        <time>2021-10-30T07:38:06.000Z</time>
      </trkpt>
      <trkpt lat="38.053769" lon="-1.659104">
        <ele>622.129301</ele>
        <time>2021-10-30T07:38:07.000Z</time>
      </trkpt>
      <trkpt lat="38.053655" lon="-1.659056">
        <ele>622.581673</ele>
        <time>2021-10-30T07:38:09.000Z</time>
      </trkpt>
      <trkpt lat="38.053571" lon="-1.659041">
        <ele>622.901176</ele>
        <time>2021-10-30T07:38:11.000Z</time>
      </trkpt>
      <trkpt lat="38.053300" lon="-1.658979">
        <ele>623.938343</ele>
        <time>2021-10-30T07:38:18.000Z</time>
      </trkpt>
      <trkpt lat="38.053225" lon="-1.658956">
        <ele>624.228954</ele>
        <time>2021-10-30T07:38:20.000Z</time>
      </trkpt>
      <trkpt lat="38.053185" lon="-1.658946">
        <ele>624.382508</ele>
        <time>2021-10-30T07:38:21.000Z</time>
      </trkpt>
      <trkpt lat="38.053077" lon="-1.658921">
        <ele>624.795998</ele>
        <time>2021-10-30T07:38:25.000Z</time>
      </trkpt>
      <trkpt lat="38.053000" lon="-1.658905">
        <ele>625.089879</ele>
        <time>2021-10-30T07:38:26.000Z</time>
      </trkpt>
      <trkpt lat="38.052799" lon="-1.658843">
        <ele>625.868969</ele>
        <time>2021-10-30T07:38:31.000Z</time>
      </trkpt>
      <trkpt lat="38.052758" lon="-1.658834">
        <ele>626.025687</ele>
        <time>2021-10-30T07:38:32.000Z</time>
      </trkpt>
      <trkpt lat="38.052672" lon="-1.658814">
        <ele>626.354998</ele>
        <time>2021-10-30T07:38:34.000Z</time>
      </trkpt>
      <trkpt lat="38.052508" lon="-1.658767">
        <ele>626.988246</ele>
        <time>2021-10-30T07:38:38.000Z</time>
      </trkpt>
      <trkpt lat="38.052468" lon="-1.658751">
        <ele>627.146205</ele>
        <time>2021-10-30T07:38:39.000Z</time>
      </trkpt>
      <trkpt lat="38.052426" lon="-1.658742">
        <ele>627.306636</ele>
        <time>2021-10-30T07:38:40.000Z</time>
      </trkpt>
      <trkpt lat="38.052255" lon="-1.658714">
        <ele>627.727292</ele>
        <time>2021-10-30T07:38:44.000Z</time>
      </trkpt>
      <trkpt lat="38.052217" lon="-1.658703">
        <ele>627.608226</ele>
        <time>2021-10-30T07:38:45.000Z</time>
      </trkpt>
      <trkpt lat="38.052081" lon="-1.658651">
        <ele>627.174328</ele>
        <time>2021-10-30T07:38:50.000Z</time>
      </trkpt>
      <trkpt lat="38.052055" lon="-1.658629">
        <ele>627.078882</ele>
        <time>2021-10-30T07:38:52.000Z</time>
      </trkpt>
      <trkpt lat="38.052032" lon="-1.658563">
        <ele>626.905257</ele>
        <time>2021-10-30T07:38:54.000Z</time>
      </trkpt>
      <trkpt lat="38.052025" lon="-1.658519">
        <ele>626.797271</ele>
        <time>2021-10-30T07:38:55.000Z</time>
      </trkpt>
      <trkpt lat="38.052022" lon="-1.658473">
        <ele>626.686232</ele>
        <time>2021-10-30T07:38:57.000Z</time>
      </trkpt>
      <trkpt lat="38.052036" lon="-1.658327">
        <ele>626.332415</ele>
        <time>2021-10-30T07:38:59.000Z</time>
      </trkpt>
      <trkpt lat="38.052040" lon="-1.658279">
        <ele>626.216300</ele>
        <time>2021-10-30T07:39:00.000Z</time>
      </trkpt>
      <trkpt lat="38.052095" lon="-1.657995">
        <ele>625.512742</ele>
        <time>2021-10-30T07:39:05.000Z</time>
      </trkpt>
      <trkpt lat="38.052132" lon="-1.657724">
        <ele>624.851089</ele>
        <time>2021-10-30T07:39:09.000Z</time>
      </trkpt>
      <trkpt lat="38.052144" lon="-1.657648">
        <ele>624.664622</ele>
        <time>2021-10-30T07:39:10.000Z</time>
      </trkpt>
      <trkpt lat="38.052174" lon="-1.657485">
        <ele>624.261936</ele>
        <time>2021-10-30T07:39:12.000Z</time>
      </trkpt>
      <trkpt lat="38.052221" lon="-1.657213">
        <ele>623.592036</ele>
        <time>2021-10-30T07:39:15.000Z</time>
      </trkpt>
      <trkpt lat="38.052236" lon="-1.657120">
        <ele>623.363668</ele>
        <time>2021-10-30T07:39:16.000Z</time>
      </trkpt>
      <trkpt lat="38.052254" lon="-1.657023">
        <ele>623.123930</ele>
        <time>2021-10-30T07:39:17.000Z</time>
      </trkpt>
      <trkpt lat="38.052290" lon="-1.656822">
        <ele>622.628050</ele>
        <time>2021-10-30T07:39:19.000Z</time>
      </trkpt>
      <trkpt lat="38.052355" lon="-1.656500">
        <ele>621.318455</ele>
        <time>2021-10-30T07:39:22.000Z</time>
      </trkpt>
      <trkpt lat="38.052375" lon="-1.656385">
        <ele>620.749939</ele>
        <time>2021-10-30T07:39:23.000Z</time>
      </trkpt>
      <trkpt lat="38.052419" lon="-1.656151">
        <ele>619.588596</ele>
        <time>2021-10-30T07:39:25.000Z</time>
      </trkpt>
      <trkpt lat="38.052443" lon="-1.656033">
        <ele>619.000283</ele>
        <time>2021-10-30T07:39:26.000Z</time>
      </trkpt>
      <trkpt lat="38.052464" lon="-1.655915">
        <ele>618.416297</ele>
        <time>2021-10-30T07:39:27.000Z</time>
      </trkpt>
      <trkpt lat="38.052488" lon="-1.655797">
        <ele>617.827984</ele>
        <time>2021-10-30T07:39:28.000Z</time>
      </trkpt>
      <trkpt lat="38.052509" lon="-1.655677">
        <ele>617.234578</ele>
        <time>2021-10-30T07:39:29.000Z</time>
      </trkpt>
      <trkpt lat="38.052553" lon="-1.655437">
        <ele>616.045047</ele>
        <time>2021-10-30T07:39:31.000Z</time>
      </trkpt>
      <trkpt lat="38.052624" lon="-1.655069">
        <ele>614.216066</ele>
        <time>2021-10-30T07:39:34.000Z</time>
      </trkpt>
      <trkpt lat="38.052672" lon="-1.654820">
        <ele>612.978583</ele>
        <time>2021-10-30T07:39:36.000Z</time>
      </trkpt>
      <trkpt lat="38.052696" lon="-1.654693">
        <ele>612.348113</ele>
        <time>2021-10-30T07:39:37.000Z</time>
      </trkpt>
      <trkpt lat="38.052745" lon="-1.654431">
        <ele>611.202380</ele>
        <time>2021-10-30T07:39:39.000Z</time>
      </trkpt>
      <trkpt lat="38.052770" lon="-1.654299">
        <ele>610.934858</ele>
        <time>2021-10-30T07:39:41.000Z</time>
      </trkpt>
      <trkpt lat="38.052865" lon="-1.653762">
        <ele>609.850330</ele>
        <time>2021-10-30T07:39:44.000Z</time>
      </trkpt>
      <trkpt lat="38.052889" lon="-1.653629">
        <ele>609.581462</ele>
        <time>2021-10-30T07:39:45.000Z</time>
      </trkpt>
      <trkpt lat="38.052914" lon="-1.653498">
        <ele>609.315855</ele>
        <time>2021-10-30T07:39:46.000Z</time>
      </trkpt>
      <trkpt lat="38.053039" lon="-1.652869">
        <ele>608.037559</ele>
        <time>2021-10-30T07:39:52.000Z</time>
      </trkpt>
      <trkpt lat="38.053140" lon="-1.652336">
        <ele>606.957310</ele>
        <time>2021-10-30T07:39:57.000Z</time>
      </trkpt>
      <trkpt lat="38.053252" lon="-1.651758">
        <ele>606.561591</ele>
        <time>2021-10-30T07:40:04.000Z</time>
      </trkpt>
      <trkpt lat="38.053302" lon="-1.651570">
        <ele>606.467514</ele>
        <time>2021-10-30T07:40:07.000Z</time>
      </trkpt>
      <trkpt lat="38.053312" lon="-1.651517">
        <ele>606.441675</ele>
        <time>2021-10-30T07:40:08.000Z</time>
      </trkpt>
      <trkpt lat="38.053323" lon="-1.651426">
        <ele>606.398027</ele>
        <time>2021-10-30T07:40:10.000Z</time>
      </trkpt>
      <trkpt lat="38.053302" lon="-1.651347">
        <ele>606.358497</ele>
        <time>2021-10-30T07:40:11.000Z</time>
      </trkpt>
      <trkpt lat="38.053287" lon="-1.651311">
        <ele>606.339187</ele>
        <time>2021-10-30T07:40:12.000Z</time>
      </trkpt>
      <trkpt lat="38.053268" lon="-1.651270">
        <ele>606.316633</ele>
        <time>2021-10-30T07:40:14.000Z</time>
      </trkpt>
      <trkpt lat="38.053148" lon="-1.651148">
        <ele>606.224083</ele>
        <time>2021-10-30T07:40:16.000Z</time>
      </trkpt>
      <trkpt lat="38.053096" lon="-1.651106">
        <ele>606.186979</ele>
        <time>2021-10-30T07:40:17.000Z</time>
      </trkpt>
      <trkpt lat="38.053050" lon="-1.651054">
        <ele>606.149901</ele>
        <time>2021-10-30T07:40:18.000Z</time>
      </trkpt>
      <trkpt lat="38.053032" lon="-1.651023">
        <ele>606.131640</ele>
        <time>2021-10-30T07:40:19.000Z</time>
      </trkpt>
      <trkpt lat="38.053014" lon="-1.650992">
        <ele>606.113379</ele>
        <time>2021-10-30T07:40:20.000Z</time>
      </trkpt>
      <trkpt lat="38.052928" lon="-1.650704">
        <ele>605.967350</ele>
        <time>2021-10-30T07:40:23.000Z</time>
      </trkpt>
      <trkpt lat="38.052913" lon="-1.650626">
        <ele>605.929284</ele>
        <time>2021-10-30T07:40:24.000Z</time>
      </trkpt>
      <trkpt lat="38.052824" lon="-1.650024">
        <ele>605.788641</ele>
        <time>2021-10-30T07:40:33.000Z</time>
      </trkpt>
      <trkpt lat="38.052789" lon="-1.649885">
        <ele>605.839904</ele>
        <time>2021-10-30T07:40:34.000Z</time>
      </trkpt>
      <trkpt lat="38.052745" lon="-1.649673">
        <ele>605.916917</ele>
        <time>2021-10-30T07:40:37.000Z</time>
      </trkpt>
      <trkpt lat="38.052764" lon="-1.649520">
        <ele>605.971325</ele>
        <time>2021-10-30T07:40:39.000Z</time>
      </trkpt>
      <trkpt lat="38.052803" lon="-1.649301">
        <ele>606.050196</ele>
        <time>2021-10-30T07:40:42.000Z</time>
      </trkpt>
      <trkpt lat="38.052854" lon="-1.648839">
        <ele>606.214071</ele>
        <time>2021-10-30T07:40:48.000Z</time>
      </trkpt>
      <trkpt lat="38.052869" lon="-1.648610">
        <ele>606.294790</ele>
        <time>2021-10-30T07:40:51.000Z</time>
      </trkpt>
      <trkpt lat="38.052895" lon="-1.648070">
        <ele>606.484830</ele>
        <time>2021-10-30T07:40:58.000Z</time>
      </trkpt>
      <trkpt lat="38.052898" lon="-1.647992">
        <ele>606.512262</ele>
        <time>2021-10-30T07:40:59.000Z</time>
      </trkpt>
      <trkpt lat="38.052901" lon="-1.647914">
        <ele>606.484875</ele>
        <time>2021-10-30T07:41:00.000Z</time>
      </trkpt>
      <trkpt lat="38.052902" lon="-1.647835">
        <ele>606.390201</ele>
        <time>2021-10-30T07:41:01.000Z</time>
      </trkpt>
      <trkpt lat="38.052902" lon="-1.647758">
        <ele>606.297935</ele>
        <time>2021-10-30T07:41:02.000Z</time>
      </trkpt>
      <trkpt lat="38.052898" lon="-1.647701">
        <ele>606.229364</ele>
        <time>2021-10-30T07:41:03.000Z</time>
      </trkpt>
      <trkpt lat="38.052895" lon="-1.647644">
        <ele>606.160912</ele>
        <time>2021-10-30T07:41:04.000Z</time>
      </trkpt>
      <trkpt lat="38.052888" lon="-1.647531">
        <ele>606.025091</ele>
        <time>2021-10-30T07:41:05.000Z</time>
      </trkpt>
      <trkpt lat="38.052881" lon="-1.647454">
        <ele>605.932213</ele>
        <time>2021-10-30T07:41:06.000Z</time>
      </trkpt>
      <trkpt lat="38.052879" lon="-1.647402">
        <ele>605.869829</ele>
        <time>2021-10-30T07:41:07.000Z</time>
      </trkpt>
      <trkpt lat="38.052878" lon="-1.647350">
        <ele>605.807502</ele>
        <time>2021-10-30T07:41:08.000Z</time>
      </trkpt>
      <trkpt lat="38.052873" lon="-1.647141">
        <ele>605.556952</ele>
        <time>2021-10-30T07:41:10.000Z</time>
      </trkpt>
      <trkpt lat="38.052877" lon="-1.646979">
        <ele>605.362739</ele>
        <time>2021-10-30T07:41:12.000Z</time>
      </trkpt>
      <trkpt lat="38.052881" lon="-1.646896">
        <ele>605.263098</ele>
        <time>2021-10-30T07:41:13.000Z</time>
      </trkpt>
      <trkpt lat="38.052886" lon="-1.646813">
        <ele>605.163353</ele>
        <time>2021-10-30T07:41:14.000Z</time>
      </trkpt>
      <trkpt lat="38.052892" lon="-1.646561">
        <ele>604.861256</ele>
        <time>2021-10-30T07:41:17.000Z</time>
      </trkpt>
      <trkpt lat="38.052900" lon="-1.646389">
        <ele>604.654797</ele>
        <time>2021-10-30T07:41:19.000Z</time>
      </trkpt>
      <trkpt lat="38.052905" lon="-1.646302">
        <ele>604.550272</ele>
        <time>2021-10-30T07:41:20.000Z</time>
      </trkpt>
      <trkpt lat="38.052932" lon="-1.645953">
        <ele>604.130069</ele>
        <time>2021-10-30T07:41:24.000Z</time>
      </trkpt>
      <trkpt lat="38.052937" lon="-1.645865">
        <ele>604.024349</ele>
        <time>2021-10-30T07:41:25.000Z</time>
      </trkpt>
      <trkpt lat="38.052946" lon="-1.645776">
        <ele>603.916829</ele>
        <time>2021-10-30T07:41:26.000Z</time>
      </trkpt>
      <trkpt lat="38.052949" lon="-1.645733">
        <ele>603.865102</ele>
        <time>2021-10-30T07:41:27.000Z</time>
      </trkpt>
      <trkpt lat="38.052952" lon="-1.645690">
        <ele>603.813376</ele>
        <time>2021-10-30T07:41:28.000Z</time>
      </trkpt>
      <trkpt lat="38.052962" lon="-1.645516">
        <ele>603.460240</ele>
        <time>2021-10-30T07:41:29.000Z</time>
      </trkpt>
      <trkpt lat="38.052989" lon="-1.645248">
        <ele>602.885623</ele>
        <time>2021-10-30T07:41:32.000Z</time>
      </trkpt>
      <trkpt lat="38.053016" lon="-1.644973">
        <ele>602.296237</ele>
        <time>2021-10-30T07:41:35.000Z</time>
      </trkpt>
      <trkpt lat="38.053022" lon="-1.644879">
        <ele>602.095666</ele>
        <time>2021-10-30T07:41:36.000Z</time>
      </trkpt>
      <trkpt lat="38.053038" lon="-1.644693">
        <ele>601.697736</ele>
        <time>2021-10-30T07:41:38.000Z</time>
      </trkpt>
      <trkpt lat="38.053068" lon="-1.644410">
        <ele>601.090435</ele>
        <time>2021-10-30T07:41:41.000Z</time>
      </trkpt>
      <trkpt lat="38.053100" lon="-1.644121">
        <ele>600.469756</ele>
        <time>2021-10-30T07:41:44.000Z</time>
      </trkpt>
      <trkpt lat="38.053120" lon="-1.643928">
        <ele>600.055754</ele>
        <time>2021-10-30T07:41:46.000Z</time>
      </trkpt>
      <trkpt lat="38.053136" lon="-1.643735">
        <ele>599.643022</ele>
        <time>2021-10-30T07:41:48.000Z</time>
      </trkpt>
      <trkpt lat="38.053157" lon="-1.643153">
        <ele>598.549710</ele>
        <time>2021-10-30T07:41:54.000Z</time>
      </trkpt>
      <trkpt lat="38.053161" lon="-1.643058">
        <ele>598.403185</ele>
        <time>2021-10-30T07:41:55.000Z</time>
      </trkpt>
      <trkpt lat="38.053174" lon="-1.642869">
        <ele>598.110985</ele>
        <time>2021-10-30T07:41:57.000Z</time>
      </trkpt>
      <trkpt lat="38.053210" lon="-1.642312">
        <ele>597.250229</ele>
        <time>2021-10-30T07:42:03.000Z</time>
      </trkpt>
      <trkpt lat="38.053218" lon="-1.642220">
        <ele>597.107672</ele>
        <time>2021-10-30T07:42:04.000Z</time>
      </trkpt>
      <trkpt lat="38.053248" lon="-1.641858">
        <ele>596.547054</ele>
        <time>2021-10-30T07:42:08.000Z</time>
      </trkpt>
      <trkpt lat="38.053283" lon="-1.641319">
        <ele>595.714088</ele>
        <time>2021-10-30T07:42:14.000Z</time>
      </trkpt>
      <trkpt lat="38.053307" lon="-1.640953">
        <ele>595.412218</ele>
        <time>2021-10-30T07:42:18.000Z</time>
      </trkpt>
      <trkpt lat="38.053329" lon="-1.640682">
        <ele>595.408749</ele>
        <time>2021-10-30T07:42:21.000Z</time>
      </trkpt>
      <trkpt lat="38.053334" lon="-1.640590">
        <ele>595.407574</ele>
        <time>2021-10-30T07:42:22.000Z</time>
      </trkpt>
      <trkpt lat="38.053342" lon="-1.640405">
        <ele>595.405215</ele>
        <time>2021-10-30T07:42:25.000Z</time>
      </trkpt>
      <trkpt lat="38.053344" lon="-1.640279">
        <ele>595.403610</ele>
        <time>2021-10-30T07:42:26.000Z</time>
      </trkpt>
      <trkpt lat="38.053348" lon="-1.640028">
        <ele>595.400414</ele>
        <time>2021-10-30T07:42:28.000Z</time>
      </trkpt>
      <trkpt lat="38.053353" lon="-1.639841">
        <ele>595.398031</ele>
        <time>2021-10-30T07:42:30.000Z</time>
      </trkpt>
      <trkpt lat="38.053354" lon="-1.639746">
        <ele>595.396821</ele>
        <time>2021-10-30T07:42:31.000Z</time>
      </trkpt>
      <trkpt lat="38.053354" lon="-1.639652">
        <ele>595.395625</ele>
        <time>2021-10-30T07:42:32.000Z</time>
      </trkpt>
      <trkpt lat="38.053353" lon="-1.639557">
        <ele>595.394415</ele>
        <time>2021-10-30T07:42:33.000Z</time>
      </trkpt>
      <trkpt lat="38.053334" lon="-1.638983">
        <ele>595.387099</ele>
        <time>2021-10-30T07:42:39.000Z</time>
      </trkpt>
      <trkpt lat="38.053321" lon="-1.638691">
        <ele>594.870226</ele>
        <time>2021-10-30T07:42:42.000Z</time>
      </trkpt>
      <trkpt lat="38.053315" lon="-1.638594">
        <ele>594.543995</ele>
        <time>2021-10-30T07:42:43.000Z</time>
      </trkpt>
      <trkpt lat="38.053292" lon="-1.638296">
        <ele>593.540049</ele>
        <time>2021-10-30T07:42:46.000Z</time>
      </trkpt>
      <trkpt lat="38.053260" lon="-1.637998">
        <ele>592.531643</ele>
        <time>2021-10-30T07:42:49.000Z</time>
      </trkpt>
      <trkpt lat="38.053249" lon="-1.637897">
        <ele>592.189779</ele>
        <time>2021-10-30T07:42:50.000Z</time>
      </trkpt>
      <trkpt lat="38.053224" lon="-1.637695">
        <ele>591.504182</ele>
        <time>2021-10-30T07:42:52.000Z</time>
      </trkpt>
      <trkpt lat="38.053172" lon="-1.637400">
        <ele>590.490602</ele>
        <time>2021-10-30T07:42:55.000Z</time>
      </trkpt>
      <trkpt lat="38.053138" lon="-1.637203">
        <ele>589.814405</ele>
        <time>2021-10-30T07:42:57.000Z</time>
      </trkpt>
      <trkpt lat="38.053101" lon="-1.637010">
        <ele>589.148396</ele>
        <time>2021-10-30T07:42:59.000Z</time>
      </trkpt>
      <trkpt lat="38.052993" lon="-1.636528">
        <ele>587.582595</ele>
        <time>2021-10-30T07:43:04.000Z</time>
      </trkpt>
      <trkpt lat="38.052920" lon="-1.636245">
        <ele>587.025946</ele>
        <time>2021-10-30T07:43:07.000Z</time>
      </trkpt>
      <trkpt lat="38.052842" lon="-1.635959">
        <ele>586.460191</ele>
        <time>2021-10-30T07:43:10.000Z</time>
      </trkpt>
      <trkpt lat="38.052713" lon="-1.635481">
        <ele>585.515683</ele>
        <time>2021-10-30T07:43:15.000Z</time>
      </trkpt>
      <trkpt lat="38.052661" lon="-1.635292">
        <ele>585.141455</ele>
        <time>2021-10-30T07:43:17.000Z</time>
      </trkpt>
      <trkpt lat="38.052526" lon="-1.634803">
        <ele>584.172852</ele>
        <time>2021-10-30T07:43:22.000Z</time>
      </trkpt>
      <trkpt lat="38.052447" lon="-1.634512">
        <ele>583.597486</ele>
        <time>2021-10-30T07:43:25.000Z</time>
      </trkpt>
      <trkpt lat="38.052368" lon="-1.634222">
        <ele>583.047563</ele>
        <time>2021-10-30T07:43:28.000Z</time>
      </trkpt>
      <trkpt lat="38.052285" lon="-1.633934">
        <ele>582.505627</ele>
        <time>2021-10-30T07:43:31.000Z</time>
      </trkpt>
      <trkpt lat="38.052184" lon="-1.633551">
        <ele>581.791885</ele>
        <time>2021-10-30T07:43:35.000Z</time>
      </trkpt>
      <trkpt lat="38.052133" lon="-1.633357">
        <ele>581.430468</ele>
        <time>2021-10-30T07:43:37.000Z</time>
      </trkpt>
      <trkpt lat="38.051999" lon="-1.632870">
        <ele>580.518865</ele>
        <time>2021-10-30T07:43:42.000Z</time>
      </trkpt>
      <trkpt lat="38.051923" lon="-1.632578">
        <ele>579.975415</ele>
        <time>2021-10-30T07:43:45.000Z</time>
      </trkpt>
      <trkpt lat="38.051819" lon="-1.632192">
        <ele>579.291739</ele>
        <time>2021-10-30T07:43:49.000Z</time>
      </trkpt>
      <trkpt lat="38.051767" lon="-1.632004">
        <ele>579.018451</ele>
        <time>2021-10-30T07:43:52.000Z</time>
      </trkpt>
      <trkpt lat="38.051581" lon="-1.631344">
        <ele>578.057030</ele>
        <time>2021-10-30T07:43:58.000Z</time>
      </trkpt>
      <trkpt lat="38.051395" lon="-1.630660">
        <ele>577.064553</ele>
        <time>2021-10-30T07:44:05.000Z</time>
      </trkpt>
      <trkpt lat="38.051370" lon="-1.630560">
        <ele>576.920655</ele>
        <time>2021-10-30T07:44:06.000Z</time>
      </trkpt>
      <trkpt lat="38.051257" lon="-1.630159">
        <ele>576.336522</ele>
        <time>2021-10-30T07:44:10.000Z</time>
      </trkpt>
      <trkpt lat="38.051199" lon="-1.629959">
        <ele>576.017643</ele>
        <time>2021-10-30T07:44:12.000Z</time>
      </trkpt>
      <trkpt lat="38.051173" lon="-1.629859">
        <ele>575.857481</ele>
        <time>2021-10-30T07:44:13.000Z</time>
      </trkpt>
      <trkpt lat="38.051042" lon="-1.629358">
        <ele>575.054622</ele>
        <time>2021-10-30T07:44:18.000Z</time>
      </trkpt>
      <trkpt lat="38.050962" lon="-1.629063">
        <ele>574.580108</ele>
        <time>2021-10-30T07:44:21.000Z</time>
      </trkpt>
      <trkpt lat="38.050834" lon="-1.628579">
        <ele>573.803606</ele>
        <time>2021-10-30T07:44:26.000Z</time>
      </trkpt>
      <trkpt lat="38.050681" lon="-1.628096">
        <ele>573.011819</ele>
        <time>2021-10-30T07:44:31.000Z</time>
      </trkpt>
      <trkpt lat="38.050596" lon="-1.627802">
        <ele>572.441973</ele>
        <time>2021-10-30T07:44:34.000Z</time>
      </trkpt>
      <trkpt lat="38.050572" lon="-1.627700">
        <ele>572.225768</ele>
        <time>2021-10-30T07:44:35.000Z</time>
      </trkpt>
      <trkpt lat="38.050520" lon="-1.627494">
        <ele>571.786426</ele>
        <time>2021-10-30T07:44:37.000Z</time>
      </trkpt>
      <trkpt lat="38.050463" lon="-1.627294">
        <ele>571.354456</ele>
        <time>2021-10-30T07:44:39.000Z</time>
      </trkpt>
      <trkpt lat="38.050432" lon="-1.627193">
        <ele>571.134300</ele>
        <time>2021-10-30T07:44:40.000Z</time>
      </trkpt>
      <trkpt lat="38.050354" lon="-1.626892">
        <ele>570.490739</ele>
        <time>2021-10-30T07:44:43.000Z</time>
      </trkpt>
      <trkpt lat="38.050281" lon="-1.626599">
        <ele>569.866601</ele>
        <time>2021-10-30T07:44:46.000Z</time>
      </trkpt>
      <trkpt lat="38.050237" lon="-1.626400">
        <ele>569.446814</ele>
        <time>2021-10-30T07:44:49.000Z</time>
      </trkpt>
      <trkpt lat="38.050213" lon="-1.626302">
        <ele>569.238379</ele>
        <time>2021-10-30T07:44:50.000Z</time>
      </trkpt>
      <trkpt lat="38.050189" lon="-1.626205">
        <ele>569.031882</ele>
        <time>2021-10-30T07:44:51.000Z</time>
      </trkpt>
      <trkpt lat="38.050134" lon="-1.626013">
        <ele>568.616942</ele>
        <time>2021-10-30T07:44:52.000Z</time>
      </trkpt>
      <trkpt lat="38.050107" lon="-1.625915">
        <ele>568.406080</ele>
        <time>2021-10-30T07:44:53.000Z</time>
      </trkpt>
      <trkpt lat="38.050078" lon="-1.625817">
        <ele>568.193458</ele>
        <time>2021-10-30T07:44:54.000Z</time>
      </trkpt>
      <trkpt lat="38.049974" lon="-1.625421">
        <ele>567.470356</ele>
        <time>2021-10-30T07:44:58.000Z</time>
      </trkpt>
      <trkpt lat="38.049842" lon="-1.624936">
        <ele>566.584773</ele>
        <time>2021-10-30T07:45:03.000Z</time>
      </trkpt>
      <trkpt lat="38.049760" lon="-1.624649">
        <ele>566.057882</ele>
        <time>2021-10-30T07:45:06.000Z</time>
      </trkpt>
      <trkpt lat="38.049651" lon="-1.624264">
        <ele>565.351819</ele>
        <time>2021-10-30T07:45:10.000Z</time>
      </trkpt>
      <trkpt lat="38.049575" lon="-1.623967">
        <ele>564.812879</ele>
        <time>2021-10-30T07:45:13.000Z</time>
      </trkpt>
      <trkpt lat="38.049507" lon="-1.623661">
        <ele>564.264165</ele>
        <time>2021-10-30T07:45:16.000Z</time>
      </trkpt>
      <trkpt lat="38.049443" lon="-1.623265">
        <ele>563.639442</ele>
        <time>2021-10-30T07:45:20.000Z</time>
      </trkpt>
      <trkpt lat="38.049412" lon="-1.622555">
        <ele>562.546389</ele>
        <time>2021-10-30T07:45:27.000Z</time>
      </trkpt>
      <trkpt lat="38.049415" lon="-1.622452">
        <ele>562.387954</ele>
        <time>2021-10-30T07:45:28.000Z</time>
      </trkpt>
      <trkpt lat="38.049428" lon="-1.622248">
        <ele>562.073350</ele>
        <time>2021-10-30T07:45:30.000Z</time>
      </trkpt>
      <trkpt lat="38.049486" lon="-1.621729">
        <ele>561.267576</ele>
        <time>2021-10-30T07:45:35.000Z</time>
      </trkpt>
      <trkpt lat="38.049503" lon="-1.621625">
        <ele>561.104304</ele>
        <time>2021-10-30T07:45:36.000Z</time>
      </trkpt>
      <trkpt lat="38.049519" lon="-1.621522">
        <ele>560.942927</ele>
        <time>2021-10-30T07:45:37.000Z</time>
      </trkpt>
      <trkpt lat="38.049536" lon="-1.621420">
        <ele>560.782664</ele>
        <time>2021-10-30T07:45:38.000Z</time>
      </trkpt>
      <trkpt lat="38.049558" lon="-1.621320">
        <ele>560.613474</ele>
        <time>2021-10-30T07:45:39.000Z</time>
      </trkpt>
      <trkpt lat="38.049637" lon="-1.621022">
        <ele>560.083682</ele>
        <time>2021-10-30T07:45:42.000Z</time>
      </trkpt>
      <trkpt lat="38.049668" lon="-1.620924">
        <ele>559.905737</ele>
        <time>2021-10-30T07:45:43.000Z</time>
      </trkpt>
      <trkpt lat="38.049700" lon="-1.620827">
        <ele>559.728538</ele>
        <time>2021-10-30T07:45:44.000Z</time>
      </trkpt>
      <trkpt lat="38.049925" lon="-1.620252">
        <ele>558.646699</ele>
        <time>2021-10-30T07:45:50.000Z</time>
      </trkpt>
      <trkpt lat="38.049967" lon="-1.620159">
        <ele>558.466063</ele>
        <time>2021-10-30T07:45:51.000Z</time>
      </trkpt>
      <trkpt lat="38.050054" lon="-1.619978">
        <ele>558.108774</ele>
        <time>2021-10-30T07:45:53.000Z</time>
      </trkpt>
      <trkpt lat="38.050184" lon="-1.619702">
        <ele>557.566903</ele>
        <time>2021-10-30T07:45:56.000Z</time>
      </trkpt>
      <trkpt lat="38.050309" lon="-1.619434">
        <ele>557.042088</ele>
        <time>2021-10-30T07:45:59.000Z</time>
      </trkpt>
      <trkpt lat="38.050390" lon="-1.619251">
        <ele>556.661907</ele>
        <time>2021-10-30T07:46:01.000Z</time>
      </trkpt>
      <trkpt lat="38.050607" lon="-1.618785">
        <ele>555.619906</ele>
        <time>2021-10-30T07:46:06.000Z</time>
      </trkpt>
      <trkpt lat="38.050743" lon="-1.618505">
        <ele>554.986717</ele>
        <time>2021-10-30T07:46:09.000Z</time>
      </trkpt>
      <trkpt lat="38.050832" lon="-1.618315">
        <ele>554.561215</ele>
        <time>2021-10-30T07:46:11.000Z</time>
      </trkpt>
      <trkpt lat="38.050875" lon="-1.618221">
        <ele>554.351981</ele>
        <time>2021-10-30T07:46:12.000Z</time>
      </trkpt>
      <trkpt lat="38.051004" lon="-1.617938">
        <ele>553.722616</ele>
        <time>2021-10-30T07:46:15.000Z</time>
      </trkpt>
      <trkpt lat="38.051128" lon="-1.617648">
        <ele>553.087477</ele>
        <time>2021-10-30T07:46:18.000Z</time>
      </trkpt>
      <trkpt lat="38.051304" lon="-1.617159">
        <ele>552.133613</ele>
        <time>2021-10-30T07:46:23.000Z</time>
      </trkpt>
      <trkpt lat="38.051414" lon="-1.616765">
        <ele>551.482109</ele>
        <time>2021-10-30T07:46:27.000Z</time>
      </trkpt>
      <trkpt lat="38.051497" lon="-1.616365">
        <ele>550.837426</ele>
        <time>2021-10-30T07:46:31.000Z</time>
      </trkpt>
      <trkpt lat="38.051593" lon="-1.615655">
        <ele>549.714693</ele>
        <time>2021-10-30T07:46:38.000Z</time>
      </trkpt>
      <trkpt lat="38.051599" lon="-1.615554">
        <ele>549.556837</ele>
        <time>2021-10-30T07:46:39.000Z</time>
      </trkpt>
      <trkpt lat="38.051614" lon="-1.615046">
        <ele>548.761753</ele>
        <time>2021-10-30T07:46:44.000Z</time>
      </trkpt>
      <trkpt lat="38.051603" lon="-1.614741">
        <ele>548.277227</ele>
        <time>2021-10-30T07:46:47.000Z</time>
      </trkpt>
      <trkpt lat="38.051589" lon="-1.614537">
        <ele>547.952263</ele>
        <time>2021-10-30T07:46:49.000Z</time>
      </trkpt>
      <trkpt lat="38.051533" lon="-1.613918">
        <ele>546.963481</ele>
        <time>2021-10-30T07:46:55.000Z</time>
      </trkpt>
      <trkpt lat="38.051523" lon="-1.613815">
        <ele>546.798787</ele>
        <time>2021-10-30T07:46:56.000Z</time>
      </trkpt>
      <trkpt lat="38.051512" lon="-1.613712">
        <ele>546.633835</ele>
        <time>2021-10-30T07:46:57.000Z</time>
      </trkpt>
      <trkpt lat="38.051470" lon="-1.613304">
        <ele>545.980851</ele>
        <time>2021-10-30T07:47:01.000Z</time>
      </trkpt>
      <trkpt lat="38.051434" lon="-1.612891">
        <ele>545.321438</ele>
        <time>2021-10-30T07:47:05.000Z</time>
      </trkpt>
      <trkpt lat="38.051415" lon="-1.612681">
        <ele>545.273809</ele>
        <time>2021-10-30T07:47:07.000Z</time>
      </trkpt>
      <trkpt lat="38.051362" lon="-1.612155">
        <ele>545.219656</ele>
        <time>2021-10-30T07:47:12.000Z</time>
      </trkpt>
      <trkpt lat="38.051354" lon="-1.612049">
        <ele>545.208782</ele>
        <time>2021-10-30T07:47:13.000Z</time>
      </trkpt>
      <trkpt lat="38.051323" lon="-1.611729">
        <ele>545.175857</ele>
        <time>2021-10-30T07:47:16.000Z</time>
      </trkpt>
      <trkpt lat="38.051280" lon="-1.611302">
        <ele>545.131896</ele>
        <time>2021-10-30T07:47:20.000Z</time>
      </trkpt>
      <trkpt lat="38.051270" lon="-1.611196">
        <ele>545.120994</ele>
        <time>2021-10-30T07:47:21.000Z</time>
      </trkpt>
      <trkpt lat="38.051248" lon="-1.610984">
        <ele>545.099158</ele>
        <time>2021-10-30T07:47:23.000Z</time>
      </trkpt>
      <trkpt lat="38.051206" lon="-1.610562">
        <ele>544.981147</ele>
        <time>2021-10-30T07:47:27.000Z</time>
      </trkpt>
      <trkpt lat="38.051185" lon="-1.610349">
        <ele>544.606191</ele>
        <time>2021-10-30T07:47:29.000Z</time>
      </trkpt>
      <trkpt lat="38.051127" lon="-1.609813">
        <ele>543.661150</ele>
        <time>2021-10-30T07:47:34.000Z</time>
      </trkpt>
      <trkpt lat="38.051103" lon="-1.609595">
        <ele>543.276662</ele>
        <time>2021-10-30T07:47:36.000Z</time>
      </trkpt>
      <trkpt lat="38.051054" lon="-1.609158">
        <ele>542.505644</ele>
        <time>2021-10-30T07:47:40.000Z</time>
      </trkpt>
      <trkpt lat="38.051013" lon="-1.608723">
        <ele>541.740396</ele>
        <time>2021-10-30T07:47:44.000Z</time>
      </trkpt>
      <trkpt lat="38.050989" lon="-1.608396">
        <ele>541.166742</ele>
        <time>2021-10-30T07:47:47.000Z</time>
      </trkpt>
      <trkpt lat="38.050983" lon="-1.608287">
        <ele>540.888810</ele>
        <time>2021-10-30T07:47:48.000Z</time>
      </trkpt>
      <trkpt lat="38.050978" lon="-1.607959">
        <ele>539.789289</ele>
        <time>2021-10-30T07:47:51.000Z</time>
      </trkpt>
      <trkpt lat="38.050983" lon="-1.607739">
        <ele>539.051637</ele>
        <time>2021-10-30T07:47:53.000Z</time>
      </trkpt>
      <trkpt lat="38.050989" lon="-1.607629">
        <ele>538.682081</ele>
        <time>2021-10-30T07:47:54.000Z</time>
      </trkpt>
      <trkpt lat="38.050995" lon="-1.607519">
        <ele>538.312525</ele>
        <time>2021-10-30T07:47:55.000Z</time>
      </trkpt>
      <trkpt lat="38.051011" lon="-1.607300">
        <ele>537.575379</ele>
        <time>2021-10-30T07:47:57.000Z</time>
      </trkpt>
      <trkpt lat="38.051036" lon="-1.607078">
        <ele>536.823761</ele>
        <time>2021-10-30T07:47:59.000Z</time>
      </trkpt>
      <trkpt lat="38.051073" lon="-1.606857">
        <ele>536.066510</ele>
        <time>2021-10-30T07:48:01.000Z</time>
      </trkpt>
      <trkpt lat="38.051138" lon="-1.606531">
        <ele>534.939420</ele>
        <time>2021-10-30T07:48:04.000Z</time>
      </trkpt>
      <trkpt lat="38.051187" lon="-1.606321">
        <ele>534.205344</ele>
        <time>2021-10-30T07:48:06.000Z</time>
      </trkpt>
      <trkpt lat="38.051409" lon="-1.605606">
        <ele>532.498076</ele>
        <time>2021-10-30T07:48:13.000Z</time>
      </trkpt>
      <trkpt lat="38.051489" lon="-1.605410">
        <ele>532.118053</ele>
        <time>2021-10-30T07:48:15.000Z</time>
      </trkpt>
      <trkpt lat="38.051701" lon="-1.604947">
        <ele>531.196106</ele>
        <time>2021-10-30T07:48:20.000Z</time>
      </trkpt>
      <trkpt lat="38.051747" lon="-1.604859">
        <ele>531.014287</ele>
        <time>2021-10-30T07:48:21.000Z</time>
      </trkpt>
      <trkpt lat="38.051796" lon="-1.604770">
        <ele>530.827351</ele>
        <time>2021-10-30T07:48:22.000Z</time>
      </trkpt>
      <trkpt lat="38.052125" lon="-1.604145">
        <ele>529.533239</ele>
        <time>2021-10-30T07:48:29.000Z</time>
      </trkpt>
      <trkpt lat="38.052220" lon="-1.603966">
        <ele>529.156450</ele>
        <time>2021-10-30T07:48:31.000Z</time>
      </trkpt>
      <trkpt lat="38.052505" lon="-1.603418">
        <ele>528.007659</ele>
        <time>2021-10-30T07:48:37.000Z</time>
      </trkpt>
      <trkpt lat="38.052645" lon="-1.603149">
        <ele>527.443623</ele>
        <time>2021-10-30T07:48:40.000Z</time>
      </trkpt>
      <trkpt lat="38.052692" lon="-1.603060">
        <ele>527.256172</ele>
        <time>2021-10-30T07:48:41.000Z</time>
      </trkpt>
      <trkpt lat="38.052921" lon="-1.602620">
        <ele>526.333583</ele>
        <time>2021-10-30T07:48:46.000Z</time>
      </trkpt>
      <trkpt lat="38.053238" lon="-1.602008">
        <ele>525.154892</ele>
        <time>2021-10-30T07:48:53.000Z</time>
      </trkpt>
      <trkpt lat="38.053285" lon="-1.601918">
        <ele>525.010504</ele>
        <time>2021-10-30T07:48:54.000Z</time>
      </trkpt>
      <trkpt lat="38.053594" lon="-1.601290">
        <ele>524.020429</ele>
        <time>2021-10-30T07:49:01.000Z</time>
      </trkpt>
      <trkpt lat="38.053678" lon="-1.601106">
        <ele>523.736068</ele>
        <time>2021-10-30T07:49:03.000Z</time>
      </trkpt>
      <trkpt lat="38.053852" lon="-1.600609">
        <ele>523.008866</ele>
        <time>2021-10-30T07:49:08.000Z</time>
      </trkpt>
      <trkpt lat="38.053911" lon="-1.600400">
        <ele>522.712021</ele>
        <time>2021-10-30T07:49:10.000Z</time>
      </trkpt>
      <trkpt lat="38.054025" lon="-1.599858">
        <ele>521.873620</ele>
        <time>2021-10-30T07:49:15.000Z</time>
      </trkpt>
      <trkpt lat="38.054075" lon="-1.599525">
        <ele>521.335550</ele>
        <time>2021-10-30T07:49:18.000Z</time>
      </trkpt>
      <trkpt lat="38.054088" lon="-1.599414">
        <ele>521.157430</ele>
        <time>2021-10-30T07:49:19.000Z</time>
      </trkpt>
      <trkpt lat="38.054113" lon="-1.598742">
        <ele>520.089624</ele>
        <time>2021-10-30T07:49:25.000Z</time>
      </trkpt>
      <trkpt lat="38.054128" lon="-1.598176">
        <ele>519.190746</ele>
        <time>2021-10-30T07:49:30.000Z</time>
      </trkpt>
      <trkpt lat="38.054131" lon="-1.598061">
        <ele>519.008115</ele>
        <time>2021-10-30T07:49:31.000Z</time>
      </trkpt>
      <trkpt lat="38.054142" lon="-1.597717">
        <ele>518.783380</ele>
        <time>2021-10-30T07:49:34.000Z</time>
      </trkpt>
      <trkpt lat="38.054155" lon="-1.597265">
        <ele>518.731465</ele>
        <time>2021-10-30T07:49:38.000Z</time>
      </trkpt>
      <trkpt lat="38.054156" lon="-1.597154">
        <ele>518.718723</ele>
        <time>2021-10-30T07:49:39.000Z</time>
      </trkpt>
      <trkpt lat="38.054164" lon="-1.596932">
        <ele>518.693216</ele>
        <time>2021-10-30T07:49:41.000Z</time>
      </trkpt>
      <trkpt lat="38.054173" lon="-1.596712">
        <ele>518.667930</ele>
        <time>2021-10-30T07:49:43.000Z</time>
      </trkpt>
      <trkpt lat="38.054177" lon="-1.596603">
        <ele>518.655406</ele>
        <time>2021-10-30T07:49:45.000Z</time>
      </trkpt>
      <trkpt lat="38.054195" lon="-1.596072">
        <ele>518.594402</ele>
        <time>2021-10-30T07:49:49.000Z</time>
      </trkpt>
      <trkpt lat="38.054201" lon="-1.595864">
        <ele>518.570512</ele>
        <time>2021-10-30T07:49:51.000Z</time>
      </trkpt>
      <trkpt lat="38.054215" lon="-1.595448">
        <ele>518.197587</ele>
        <time>2021-10-30T07:49:55.000Z</time>
      </trkpt>
      <trkpt lat="38.054233" lon="-1.595135">
        <ele>517.664455</ele>
        <time>2021-10-30T07:49:58.000Z</time>
      </trkpt>
      <trkpt lat="38.054236" lon="-1.594924">
        <ele>517.305956</ele>
        <time>2021-10-30T07:50:00.000Z</time>
      </trkpt>
      <trkpt lat="38.054237" lon="-1.594711">
        <ele>516.944111</ele>
        <time>2021-10-30T07:50:02.000Z</time>
      </trkpt>
      <trkpt lat="38.054241" lon="-1.594605">
        <ele>516.763834</ele>
        <time>2021-10-30T07:50:03.000Z</time>
      </trkpt>
      <trkpt lat="38.054229" lon="-1.594285">
        <ele>516.219611</ele>
        <time>2021-10-30T07:50:06.000Z</time>
      </trkpt>
      <trkpt lat="38.054171" lon="-1.593755">
        <ele>515.310607</ele>
        <time>2021-10-30T07:50:11.000Z</time>
      </trkpt>
      <trkpt lat="38.054133" lon="-1.593547">
        <ele>514.947876</ele>
        <time>2021-10-30T07:50:13.000Z</time>
      </trkpt>
      <trkpt lat="38.054024" lon="-1.593021">
        <ele>513.650997</ele>
        <time>2021-10-30T07:50:18.000Z</time>
      </trkpt>
      <trkpt lat="38.053906" lon="-1.592604">
        <ele>512.461060</ele>
        <time>2021-10-30T07:50:22.000Z</time>
      </trkpt>
      <trkpt lat="38.053835" lon="-1.592398">
        <ele>511.857191</ele>
        <time>2021-10-30T07:50:24.000Z</time>
      </trkpt>
      <trkpt lat="38.053713" lon="-1.592097">
        <ele>510.948078</ele>
        <time>2021-10-30T07:50:27.000Z</time>
      </trkpt>
      <trkpt lat="38.053627" lon="-1.591902">
        <ele>510.347878</ele>
        <time>2021-10-30T07:50:29.000Z</time>
      </trkpt>
      <trkpt lat="38.053532" lon="-1.591712">
        <ele>509.743473</ele>
        <time>2021-10-30T07:50:31.000Z</time>
      </trkpt>
      <trkpt lat="38.053332" lon="-1.591351">
        <ele>508.558125</ele>
        <time>2021-10-30T07:50:35.000Z</time>
      </trkpt>
      <trkpt lat="38.053287" lon="-1.591260">
        <ele>508.259342</ele>
        <time>2021-10-30T07:50:36.000Z</time>
      </trkpt>
      <trkpt lat="38.053197" lon="-1.591077">
        <ele>507.657371</ele>
        <time>2021-10-30T07:50:38.000Z</time>
      </trkpt>
      <trkpt lat="38.052966" lon="-1.590621">
        <ele>506.144591</ele>
        <time>2021-10-30T07:50:43.000Z</time>
      </trkpt>
      <trkpt lat="38.052876" lon="-1.590434">
        <ele>505.533123</ele>
        <time>2021-10-30T07:50:45.000Z</time>
      </trkpt>
      <trkpt lat="38.052743" lon="-1.590161">
        <ele>504.637457</ele>
        <time>2021-10-30T07:50:48.000Z</time>
      </trkpt>
      <trkpt lat="38.052649" lon="-1.589986">
        <ele>504.046425</ele>
        <time>2021-10-30T07:50:50.000Z</time>
      </trkpt>
      <trkpt lat="38.052466" lon="-1.589626">
        <ele>502.850907</ele>
        <time>2021-10-30T07:50:54.000Z</time>
      </trkpt>
      <trkpt lat="38.052421" lon="-1.589537">
        <ele>502.555811</ele>
        <time>2021-10-30T07:50:55.000Z</time>
      </trkpt>
      <trkpt lat="38.052251" lon="-1.589176">
        <ele>501.754343</ele>
        <time>2021-10-30T07:50:59.000Z</time>
      </trkpt>
      <trkpt lat="38.052156" lon="-1.589003">
        <ele>501.447769</ele>
        <time>2021-10-30T07:51:01.000Z</time>
      </trkpt>
      <trkpt lat="38.051849" lon="-1.588374">
        <ele>500.372089</ele>
        <time>2021-10-30T07:51:08.000Z</time>
      </trkpt>
      <trkpt lat="38.051645" lon="-1.587835">
        <ele>499.502812</ele>
        <time>2021-10-30T07:51:14.000Z</time>
      </trkpt>
      <trkpt lat="38.051484" lon="-1.587179">
        <ele>498.641354</ele>
        <time>2021-10-30T07:51:21.000Z</time>
      </trkpt>
      <trkpt lat="38.051433" lon="-1.586781">
        <ele>498.295594</ele>
        <time>2021-10-30T07:51:25.000Z</time>
      </trkpt>
      <trkpt lat="38.051414" lon="-1.586578">
        <ele>498.120303</ele>
        <time>2021-10-30T07:51:27.000Z</time>
      </trkpt>
      <trkpt lat="38.051408" lon="-1.586476">
        <ele>498.032598</ele>
        <time>2021-10-30T07:51:28.000Z</time>
      </trkpt>
      <trkpt lat="38.051405" lon="-1.586065">
        <ele>497.680165</ele>
        <time>2021-10-30T07:51:32.000Z</time>
      </trkpt>
      <trkpt lat="38.051417" lon="-1.585858">
        <ele>497.502189</ele>
        <time>2021-10-30T07:51:34.000Z</time>
      </trkpt>
      <trkpt lat="38.051444" lon="-1.585545">
        <ele>497.232197</ele>
        <time>2021-10-30T07:51:37.000Z</time>
      </trkpt>
      <trkpt lat="38.051459" lon="-1.585439">
        <ele>497.139850</ele>
        <time>2021-10-30T07:51:38.000Z</time>
      </trkpt>
      <trkpt lat="38.051473" lon="-1.585336">
        <ele>497.050225</ele>
        <time>2021-10-30T07:51:39.000Z</time>
      </trkpt>
      <trkpt lat="38.051508" lon="-1.585128">
        <ele>496.863145</ele>
        <time>2021-10-30T07:51:41.000Z</time>
      </trkpt>
      <trkpt lat="38.051658" lon="-1.584387">
        <ele>495.960423</ele>
        <time>2021-10-30T07:51:48.000Z</time>
      </trkpt>
      <trkpt lat="38.051693" lon="-1.584186">
        <ele>495.717537</ele>
        <time>2021-10-30T07:51:50.000Z</time>
      </trkpt>
      <trkpt lat="38.051846" lon="-1.583550">
        <ele>494.932895</ele>
        <time>2021-10-30T07:51:56.000Z</time>
      </trkpt>
      <trkpt lat="38.051872" lon="-1.583442">
        <ele>494.799645</ele>
        <time>2021-10-30T07:51:57.000Z</time>
      </trkpt>
      <trkpt lat="38.051938" lon="-1.583123">
        <ele>494.410489</ele>
        <time>2021-10-30T07:52:00.000Z</time>
      </trkpt>
      <trkpt lat="38.052027" lon="-1.582683">
        <ele>493.321002</ele>
        <time>2021-10-30T07:52:04.000Z</time>
      </trkpt>
      <trkpt lat="38.052049" lon="-1.582573">
        <ele>492.948671</ele>
        <time>2021-10-30T07:52:05.000Z</time>
      </trkpt>
      <trkpt lat="38.052134" lon="-1.582143">
        <ele>491.494214</ele>
        <time>2021-10-30T07:52:09.000Z</time>
      </trkpt>
      <trkpt lat="38.052158" lon="-1.582036">
        <ele>491.129220</ele>
        <time>2021-10-30T07:52:10.000Z</time>
      </trkpt>
      <trkpt lat="38.052182" lon="-1.581929">
        <ele>490.764225</ele>
        <time>2021-10-30T07:52:11.000Z</time>
      </trkpt>
      <trkpt lat="38.052228" lon="-1.581711">
        <ele>490.023809</ele>
        <time>2021-10-30T07:52:13.000Z</time>
      </trkpt>
      <trkpt lat="38.052272" lon="-1.581493">
        <ele>489.285505</ele>
        <time>2021-10-30T07:52:15.000Z</time>
      </trkpt>
      <trkpt lat="38.052402" lon="-1.580831">
        <ele>487.047195</ele>
        <time>2021-10-30T07:52:21.000Z</time>
      </trkpt>
      <trkpt lat="38.052490" lon="-1.580394">
        <ele>486.406195</ele>
        <time>2021-10-30T07:52:25.000Z</time>
      </trkpt>
      <trkpt lat="38.052643" lon="-1.579628">
        <ele>485.747566</ele>
        <time>2021-10-30T07:52:32.000Z</time>
      </trkpt>
      <trkpt lat="38.052713" lon="-1.579299">
        <ele>485.463533</ele>
        <time>2021-10-30T07:52:35.000Z</time>
      </trkpt>
      <trkpt lat="38.052736" lon="-1.579189">
        <ele>485.368679</ele>
        <time>2021-10-30T07:52:36.000Z</time>
      </trkpt>
      <trkpt lat="38.052839" lon="-1.578642">
        <ele>484.899938</ele>
        <time>2021-10-30T07:52:41.000Z</time>
      </trkpt>
      <trkpt lat="38.052856" lon="-1.578535">
        <ele>484.808964</ele>
        <time>2021-10-30T07:52:42.000Z</time>
      </trkpt>
      <trkpt lat="38.052880" lon="-1.578003">
        <ele>485.094745</ele>
        <time>2021-10-30T07:52:47.000Z</time>
      </trkpt>
      <trkpt lat="38.052839" lon="-1.577388">
        <ele>485.467291</ele>
        <time>2021-10-30T07:52:53.000Z</time>
      </trkpt>
      <trkpt lat="38.052825" lon="-1.577292">
        <ele>485.526222</ele>
        <time>2021-10-30T07:52:54.000Z</time>
      </trkpt>
      <trkpt lat="38.052741" lon="-1.576620">
        <ele>485.936924</ele>
        <time>2021-10-30T07:53:01.000Z</time>
      </trkpt>
      <trkpt lat="38.052663" lon="-1.575878">
        <ele>486.095896</ele>
        <time>2021-10-30T07:53:09.000Z</time>
      </trkpt>
      <trkpt lat="38.052654" lon="-1.575787">
        <ele>486.078182</ele>
        <time>2021-10-30T07:53:10.000Z</time>
      </trkpt>
      <trkpt lat="38.052632" lon="-1.575507">
        <ele>486.023832</ele>
        <time>2021-10-30T07:53:13.000Z</time>
      </trkpt>
      <trkpt lat="38.052602" lon="-1.575225">
        <ele>485.968870</ele>
        <time>2021-10-30T07:53:16.000Z</time>
      </trkpt>
      <trkpt lat="38.052592" lon="-1.575131">
        <ele>485.950550</ele>
        <time>2021-10-30T07:53:17.000Z</time>
      </trkpt>
      <trkpt lat="38.052529" lon="-1.574482">
        <ele>485.824249</ele>
        <time>2021-10-30T07:53:24.000Z</time>
      </trkpt>
      <trkpt lat="38.052513" lon="-1.574393">
        <ele>485.806617</ele>
        <time>2021-10-30T07:53:25.000Z</time>
      </trkpt>
      <trkpt lat="38.052433" lon="-1.573979">
        <ele>485.717466</ele>
        <time>2021-10-30T07:53:30.000Z</time>
      </trkpt>
      <trkpt lat="38.052427" lon="-1.573897">
        <ele>485.626183</ele>
        <time>2021-10-30T07:53:31.000Z</time>
      </trkpt>
      <trkpt lat="38.052420" lon="-1.573815">
        <ele>485.534759</ele>
        <time>2021-10-30T07:53:32.000Z</time>
      </trkpt>
      <trkpt lat="38.052366" lon="-1.573253">
        <ele>484.907197</ele>
        <time>2021-10-30T07:53:39.000Z</time>
      </trkpt>
      <trkpt lat="38.052358" lon="-1.573172">
        <ele>484.816711</ele>
        <time>2021-10-30T07:53:40.000Z</time>
      </trkpt>
      <trkpt lat="38.052338" lon="-1.572933">
        <ele>484.550302</ele>
        <time>2021-10-30T07:53:43.000Z</time>
      </trkpt>
      <trkpt lat="38.052280" lon="-1.572411">
        <ele>483.965967</ele>
        <time>2021-10-30T07:53:50.000Z</time>
      </trkpt>
      <trkpt lat="38.052280" lon="-1.572411">
        <ele>483.965967</ele>
        <time>2021-10-30T07:53:55.000Z</time>
      </trkpt>
      <trkpt lat="38.052087" lon="-1.571099">
        <ele>481.502855</ele>
        <time>2021-10-30T07:54:03.000Z</time>
      </trkpt>
      <trkpt lat="38.052071" lon="-1.571078">
        <ele>481.425424</ele>
        <time>2021-10-30T07:54:04.000Z</time>
      </trkpt>
      <trkpt lat="38.052109" lon="-1.570979">
        <ele>481.133578</ele>
        <time>2021-10-30T07:54:05.000Z</time>
      </trkpt>
      <trkpt lat="38.052111" lon="-1.570801">
        <ele>480.661850</ele>
        <time>2021-10-30T07:54:07.000Z</time>
      </trkpt>
      <trkpt lat="38.052084" lon="-1.570507">
        <ele>479.877503</ele>
        <time>2021-10-30T07:54:10.000Z</time>
      </trkpt>
      <trkpt lat="38.052070" lon="-1.570411">
        <ele>479.618788</ele>
        <time>2021-10-30T07:54:11.000Z</time>
      </trkpt>
      <trkpt lat="38.052057" lon="-1.570312">
        <ele>479.352826</ele>
        <time>2021-10-30T07:54:12.000Z</time>
      </trkpt>
      <trkpt lat="38.052024" lon="-1.570115">
        <ele>478.819117</ele>
        <time>2021-10-30T07:54:14.000Z</time>
      </trkpt>
      <trkpt lat="38.051981" lon="-1.569816">
        <ele>478.013694</ele>
        <time>2021-10-30T07:54:17.000Z</time>
      </trkpt>
      <trkpt lat="38.051957" lon="-1.569614">
        <ele>477.472357</ele>
        <time>2021-10-30T07:54:19.000Z</time>
      </trkpt>
      <trkpt lat="38.051952" lon="-1.569514">
        <ele>477.206835</ele>
        <time>2021-10-30T07:54:20.000Z</time>
      </trkpt>
      <trkpt lat="38.051930" lon="-1.569118">
        <ele>477.234906</ele>
        <time>2021-10-30T07:54:24.000Z</time>
      </trkpt>
      <trkpt lat="38.051910" lon="-1.568929">
        <ele>477.282919</ele>
        <time>2021-10-30T07:54:26.000Z</time>
      </trkpt>
      <trkpt lat="38.051892" lon="-1.568643">
        <ele>477.355156</ele>
        <time>2021-10-30T07:54:29.000Z</time>
      </trkpt>
      <trkpt lat="38.051857" lon="-1.568359">
        <ele>477.427531</ele>
        <time>2021-10-30T07:54:32.000Z</time>
      </trkpt>
      <trkpt lat="38.051814" lon="-1.567990">
        <ele>477.521448</ele>
        <time>2021-10-30T07:54:36.000Z</time>
      </trkpt>
      <trkpt lat="38.051769" lon="-1.567714">
        <ele>477.592412</ele>
        <time>2021-10-30T07:54:39.000Z</time>
      </trkpt>
      <trkpt lat="38.051728" lon="-1.567131">
        <ele>477.408421</ele>
        <time>2021-10-30T07:54:45.000Z</time>
      </trkpt>
      <trkpt lat="38.051694" lon="-1.566631">
        <ele>475.753282</ele>
        <time>2021-10-30T07:54:50.000Z</time>
      </trkpt>
      <trkpt lat="38.051695" lon="-1.566427">
        <ele>475.080476</ele>
        <time>2021-10-30T07:54:52.000Z</time>
      </trkpt>
      <trkpt lat="38.051700" lon="-1.566321">
        <ele>474.730260</ele>
        <time>2021-10-30T07:54:53.000Z</time>
      </trkpt>
      <trkpt lat="38.051721" lon="-1.566110">
        <ele>474.028845</ele>
        <time>2021-10-30T07:54:55.000Z</time>
      </trkpt>
      <trkpt lat="38.051725" lon="-1.566007">
        <ele>473.688738</ele>
        <time>2021-10-30T07:54:56.000Z</time>
      </trkpt>
      <trkpt lat="38.051726" lon="-1.565908">
        <ele>473.362209</ele>
        <time>2021-10-30T07:54:57.000Z</time>
      </trkpt>
      <trkpt lat="38.051750" lon="-1.565504">
        <ele>472.026029</ele>
        <time>2021-10-30T07:55:01.000Z</time>
      </trkpt>
      <trkpt lat="38.051754" lon="-1.565402">
        <ele>471.689216</ele>
        <time>2021-10-30T07:55:02.000Z</time>
      </trkpt>
      <trkpt lat="38.051787" lon="-1.565086">
        <ele>470.637923</ele>
        <time>2021-10-30T07:55:05.000Z</time>
      </trkpt>
      <trkpt lat="38.051804" lon="-1.564879">
        <ele>470.073843</ele>
        <time>2021-10-30T07:55:07.000Z</time>
      </trkpt>
      <trkpt lat="38.051822" lon="-1.564388">
        <ele>469.308507</ele>
        <time>2021-10-30T07:55:12.000Z</time>
      </trkpt>
      <trkpt lat="38.051822" lon="-1.564294">
        <ele>469.162144</ele>
        <time>2021-10-30T07:55:13.000Z</time>
      </trkpt>
      <trkpt lat="38.051822" lon="-1.564294">
        <ele>469.162144</ele>
        <time>2021-10-30T07:55:19.000Z</time>
      </trkpt>
      <trkpt lat="38.051852" lon="-1.564017">
        <ele>468.726783</ele>
        <time>2021-10-30T07:55:22.000Z</time>
      </trkpt>
      <trkpt lat="38.051882" lon="-1.563741">
        <ele>468.292964</ele>
        <time>2021-10-30T07:55:24.000Z</time>
      </trkpt>
      <trkpt lat="38.051912" lon="-1.563465">
        <ele>467.859146</ele>
        <time>2021-10-30T07:55:27.000Z</time>
      </trkpt>
      <trkpt lat="38.051942" lon="-1.563188">
        <ele>467.423785</ele>
        <time>2021-10-30T07:55:29.000Z</time>
      </trkpt>
      <trkpt lat="38.051973" lon="-1.562912">
        <ele>466.989692</ele>
        <time>2021-10-30T07:55:33.000Z</time>
      </trkpt>
      <trkpt lat="38.052003" lon="-1.562636">
        <ele>466.540604</ele>
        <time>2021-10-30T07:55:35.000Z</time>
      </trkpt>
      <trkpt lat="38.052093" lon="-1.561807">
        <ele>464.956865</ele>
        <time>2021-10-30T07:55:36.000Z</time>
      </trkpt>
      <trkpt lat="38.052105" lon="-1.561679">
        <ele>464.712912</ele>
        <time>2021-10-30T07:55:37.000Z</time>
      </trkpt>
      <trkpt lat="38.052122" lon="-1.561429">
        <ele>464.238022</ele>
        <time>2021-10-30T07:55:39.000Z</time>
      </trkpt>
      <trkpt lat="38.052143" lon="-1.561179">
        <ele>463.762209</ele>
        <time>2021-10-30T07:55:41.000Z</time>
      </trkpt>
      <trkpt lat="38.052157" lon="-1.560937">
        <ele>463.302986</ele>
        <time>2021-10-30T07:55:43.000Z</time>
      </trkpt>
      <trkpt lat="38.052162" lon="-1.560574">
        <ele>462.615897</ele>
        <time>2021-10-30T07:55:46.000Z</time>
      </trkpt>
      <trkpt lat="38.052163" lon="-1.560458">
        <ele>462.396352</ele>
        <time>2021-10-30T07:55:47.000Z</time>
      </trkpt>
      <trkpt lat="38.052167" lon="-1.560230">
        <ele>462.339856</ele>
        <time>2021-10-30T07:55:49.000Z</time>
      </trkpt>
      <trkpt lat="38.052169" lon="-1.559897">
        <ele>462.406503</ele>
        <time>2021-10-30T07:55:52.000Z</time>
      </trkpt>
      <trkpt lat="38.052155" lon="-1.559569">
        <ele>462.472243</ele>
        <time>2021-10-30T07:55:55.000Z</time>
      </trkpt>
      <trkpt lat="38.052066" lon="-1.558914">
        <ele>462.605269</ele>
        <time>2021-10-30T07:56:01.000Z</time>
      </trkpt>
      <trkpt lat="38.052050" lon="-1.558801">
        <ele>462.628247</ele>
        <time>2021-10-30T07:56:02.000Z</time>
      </trkpt>
      <trkpt lat="38.052003" lon="-1.558574">
        <ele>462.675221</ele>
        <time>2021-10-30T07:56:04.000Z</time>
      </trkpt>
      <trkpt lat="38.051908" lon="-1.558253">
        <ele>462.743852</ele>
        <time>2021-10-30T07:56:07.000Z</time>
      </trkpt>
      <trkpt lat="38.051649" lon="-1.557669">
        <ele>461.781393</ele>
        <time>2021-10-30T07:56:13.000Z</time>
      </trkpt>
      <trkpt lat="38.051457" lon="-1.557291">
        <ele>461.026759</ele>
        <time>2021-10-30T07:56:17.000Z</time>
      </trkpt>
      <trkpt lat="38.051361" lon="-1.557107">
        <ele>460.656463</ele>
        <time>2021-10-30T07:56:19.000Z</time>
      </trkpt>
      <trkpt lat="38.051210" lon="-1.556845">
        <ele>460.111768</ele>
        <time>2021-10-30T07:56:22.000Z</time>
      </trkpt>
      <trkpt lat="38.051006" lon="-1.556507">
        <ele>459.397319</ele>
        <time>2021-10-30T07:56:26.000Z</time>
      </trkpt>
      <trkpt lat="38.050947" lon="-1.556431">
        <ele>459.218274</ele>
        <time>2021-10-30T07:56:27.000Z</time>
      </trkpt>
      <trkpt lat="38.050772" lon="-1.556215">
        <ele>458.477508</ele>
        <time>2021-10-30T07:56:30.000Z</time>
      </trkpt>
      <trkpt lat="38.050718" lon="-1.556142">
        <ele>458.148702</ele>
        <time>2021-10-30T07:56:31.000Z</time>
      </trkpt>
      <trkpt lat="38.050665" lon="-1.556068">
        <ele>457.820314</ele>
        <time>2021-10-30T07:56:32.000Z</time>
      </trkpt>
      <trkpt lat="38.050559" lon="-1.555924">
        <ele>457.173193</ele>
        <time>2021-10-30T07:56:34.000Z</time>
      </trkpt>
      <trkpt lat="38.050288" lon="-1.555540">
        <ele>455.480375</ele>
        <time>2021-10-30T07:56:39.000Z</time>
      </trkpt>
      <trkpt lat="38.050234" lon="-1.555459">
        <ele>455.131961</ele>
        <time>2021-10-30T07:56:40.000Z</time>
      </trkpt>
      <trkpt lat="38.050177" lon="-1.555382">
        <ele>454.785019</ele>
        <time>2021-10-30T07:56:41.000Z</time>
      </trkpt>
      <trkpt lat="38.050068" lon="-1.555232">
        <ele>454.114952</ele>
        <time>2021-10-30T07:56:43.000Z</time>
      </trkpt>
      <trkpt lat="38.050015" lon="-1.555158">
        <ele>453.786563</ele>
        <time>2021-10-30T07:56:44.000Z</time>
      </trkpt>
      <trkpt lat="38.049643" lon="-1.554630">
        <ele>451.460666</ele>
        <time>2021-10-30T07:56:51.000Z</time>
      </trkpt>
      <trkpt lat="38.049589" lon="-1.554559">
        <ele>451.431763</ele>
        <time>2021-10-30T07:56:52.000Z</time>
      </trkpt>
      <trkpt lat="38.049383" lon="-1.554285">
        <ele>451.436250</ele>
        <time>2021-10-30T07:56:56.000Z</time>
      </trkpt>
      <trkpt lat="38.049340" lon="-1.554207">
        <ele>451.437377</ele>
        <time>2021-10-30T07:56:57.000Z</time>
      </trkpt>
      <trkpt lat="38.049172" lon="-1.553875">
        <ele>451.442051</ele>
        <time>2021-10-30T07:57:01.000Z</time>
      </trkpt>
      <trkpt lat="38.049100" lon="-1.553705">
        <ele>451.444337</ele>
        <time>2021-10-30T07:57:03.000Z</time>
      </trkpt>
      <trkpt lat="38.049069" lon="-1.553619">
        <ele>451.445457</ele>
        <time>2021-10-30T07:57:04.000Z</time>
      </trkpt>
      <trkpt lat="38.048944" lon="-1.553166">
        <ele>451.451141</ele>
        <time>2021-10-30T07:57:09.000Z</time>
      </trkpt>
      <trkpt lat="38.048921" lon="-1.553071">
        <ele>451.452318</ele>
        <time>2021-10-30T07:57:10.000Z</time>
      </trkpt>
      <trkpt lat="38.048900" lon="-1.552974">
        <ele>451.453510</ele>
        <time>2021-10-30T07:57:11.000Z</time>
      </trkpt>
      <trkpt lat="38.048861" lon="-1.552778">
        <ele>451.455904</ele>
        <time>2021-10-30T07:57:13.000Z</time>
      </trkpt>
      <trkpt lat="38.048794" lon="-1.552386">
        <ele>450.937574</ele>
        <time>2021-10-30T07:57:17.000Z</time>
      </trkpt>
      <trkpt lat="38.048762" lon="-1.552189">
        <ele>450.510679</ele>
        <time>2021-10-30T07:57:19.000Z</time>
      </trkpt>
      <trkpt lat="38.048747" lon="-1.552089">
        <ele>450.294632</ele>
        <time>2021-10-30T07:57:20.000Z</time>
      </trkpt>
      <trkpt lat="38.048704" lon="-1.551795">
        <ele>449.660004</ele>
        <time>2021-10-30T07:57:23.000Z</time>
      </trkpt>
      <trkpt lat="38.048652" lon="-1.551503">
        <ele>449.024642</ele>
        <time>2021-10-30T07:57:26.000Z</time>
      </trkpt>
      <trkpt lat="38.048637" lon="-1.551405">
        <ele>448.812764</ele>
        <time>2021-10-30T07:57:27.000Z</time>
      </trkpt>
      <trkpt lat="38.048605" lon="-1.551211">
        <ele>448.392101</ele>
        <time>2021-10-30T07:57:29.000Z</time>
      </trkpt>
      <trkpt lat="38.048517" lon="-1.550641">
        <ele>447.159355</ele>
        <time>2021-10-30T07:57:35.000Z</time>
      </trkpt>
      <trkpt lat="38.048438" lon="-1.550167">
        <ele>446.378551</ele>
        <time>2021-10-30T07:57:40.000Z</time>
      </trkpt>
      <trkpt lat="38.048420" lon="-1.550073">
        <ele>446.279250</ele>
        <time>2021-10-30T07:57:41.000Z</time>
      </trkpt>
      <trkpt lat="38.048389" lon="-1.549878">
        <ele>446.075049</ele>
        <time>2021-10-30T07:57:43.000Z</time>
      </trkpt>
      <trkpt lat="38.048267" lon="-1.549191">
        <ele>445.352151</ele>
        <time>2021-10-30T07:57:50.000Z</time>
      </trkpt>
      <trkpt lat="38.048156" lon="-1.548613">
        <ele>444.741458</ele>
        <time>2021-10-30T07:57:56.000Z</time>
      </trkpt>
      <trkpt lat="38.048107" lon="-1.548324">
        <ele>444.438008</ele>
        <time>2021-10-30T07:57:59.000Z</time>
      </trkpt>
      <trkpt lat="38.048078" lon="-1.548133">
        <ele>444.234058</ele>
        <time>2021-10-30T07:58:01.000Z</time>
      </trkpt>
      <trkpt lat="38.048028" lon="-1.547762">
        <ele>443.787573</ele>
        <time>2021-10-30T07:58:05.000Z</time>
      </trkpt>
      <trkpt lat="38.048006" lon="-1.547677">
        <ele>443.681439</ele>
        <time>2021-10-30T07:58:06.000Z</time>
      </trkpt>
      <trkpt lat="38.047951" lon="-1.547514">
        <ele>443.471084</ele>
        <time>2021-10-30T07:58:08.000Z</time>
      </trkpt>
      <trkpt lat="38.047924" lon="-1.547324">
        <ele>443.242062</ele>
        <time>2021-10-30T07:58:10.000Z</time>
      </trkpt>
      <trkpt lat="38.047900" lon="-1.547027">
        <ele>442.887906</ele>
        <time>2021-10-30T07:58:13.000Z</time>
      </trkpt>
      <trkpt lat="38.047845" lon="-1.546641">
        <ele>442.422591</ele>
        <time>2021-10-30T07:58:17.000Z</time>
      </trkpt>
      <trkpt lat="38.047735" lon="-1.545982">
        <ele>441.623504</ele>
        <time>2021-10-30T07:58:24.000Z</time>
      </trkpt>
      <trkpt lat="38.047709" lon="-1.545786">
        <ele>441.517740</ele>
        <time>2021-10-30T07:58:26.000Z</time>
      </trkpt>
      <trkpt lat="38.047675" lon="-1.545476">
        <ele>441.432433</ele>
        <time>2021-10-30T07:58:29.000Z</time>
      </trkpt>
      <trkpt lat="38.047667" lon="-1.545369">
        <ele>441.403139</ele>
        <time>2021-10-30T07:58:30.000Z</time>
      </trkpt>
      <trkpt lat="38.047660" lon="-1.545261">
        <ele>441.373604</ele>
        <time>2021-10-30T07:58:31.000Z</time>
      </trkpt>
      <trkpt lat="38.047655" lon="-1.545154">
        <ele>441.344389</ele>
        <time>2021-10-30T07:58:32.000Z</time>
      </trkpt>
      <trkpt lat="38.047651" lon="-1.545046">
        <ele>441.314921</ele>
        <time>2021-10-30T07:58:33.000Z</time>
      </trkpt>
      <trkpt lat="38.047653" lon="-1.544303">
        <ele>441.112412</ele>
        <time>2021-10-30T07:58:40.000Z</time>
      </trkpt>
      <trkpt lat="38.047673" lon="-1.544092">
        <ele>441.054488</ele>
        <time>2021-10-30T07:58:42.000Z</time>
      </trkpt>
      <trkpt lat="38.047747" lon="-1.543458">
        <ele>440.578342</ele>
        <time>2021-10-30T07:58:48.000Z</time>
      </trkpt>
      <trkpt lat="38.047790" lon="-1.543124">
        <ele>439.973156</ele>
        <time>2021-10-30T07:58:51.000Z</time>
      </trkpt>
      <trkpt lat="38.047804" lon="-1.543013">
        <ele>439.772136</ele>
        <time>2021-10-30T07:58:52.000Z</time>
      </trkpt>
      <trkpt lat="38.047839" lon="-1.542797">
        <ele>439.377794</ele>
        <time>2021-10-30T07:58:54.000Z</time>
      </trkpt>
      <trkpt lat="38.047897" lon="-1.542476">
        <ele>438.788868</ele>
        <time>2021-10-30T07:58:57.000Z</time>
      </trkpt>
      <trkpt lat="38.047931" lon="-1.542261">
        <ele>438.396731</ele>
        <time>2021-10-30T07:58:59.000Z</time>
      </trkpt>
      <trkpt lat="38.047945" lon="-1.542152">
        <ele>438.199242</ele>
        <time>2021-10-30T07:59:00.000Z</time>
      </trkpt>
      <trkpt lat="38.048035" lon="-1.541488">
        <ele>436.994424</ele>
        <time>2021-10-30T07:59:06.000Z</time>
      </trkpt>
      <trkpt lat="38.048093" lon="-1.541151">
        <ele>436.042738</ele>
        <time>2021-10-30T07:59:09.000Z</time>
      </trkpt>
      <trkpt lat="38.048147" lon="-1.540807">
        <ele>434.970709</ele>
        <time>2021-10-30T07:59:12.000Z</time>
      </trkpt>
      <trkpt lat="38.048161" lon="-1.540691">
        <ele>434.612046</ele>
        <time>2021-10-30T07:59:13.000Z</time>
      </trkpt>
      <trkpt lat="38.048168" lon="-1.540574">
        <ele>434.253436</ele>
        <time>2021-10-30T07:59:14.000Z</time>
      </trkpt>
      <trkpt lat="38.048157" lon="-1.540217">
        <ele>433.161525</ele>
        <time>2021-10-30T07:59:17.000Z</time>
      </trkpt>
      <trkpt lat="38.048146" lon="-1.540098">
        <ele>432.795336</ele>
        <time>2021-10-30T07:59:18.000Z</time>
      </trkpt>
      <trkpt lat="38.048126" lon="-1.539864">
        <ele>432.075977</ele>
        <time>2021-10-30T07:59:20.000Z</time>
      </trkpt>
      <trkpt lat="38.048112" lon="-1.539749">
        <ele>431.720335</ele>
        <time>2021-10-30T07:59:21.000Z</time>
      </trkpt>
      <trkpt lat="38.048095" lon="-1.539635">
        <ele>431.365733</ele>
        <time>2021-10-30T07:59:22.000Z</time>
      </trkpt>
      <trkpt lat="38.048050" lon="-1.539414">
        <ele>430.668091</ele>
        <time>2021-10-30T07:59:24.000Z</time>
      </trkpt>
      <trkpt lat="38.047956" lon="-1.538981">
        <ele>429.615374</ele>
        <time>2021-10-30T07:59:28.000Z</time>
      </trkpt>
      <trkpt lat="38.047780" lon="-1.538252">
        <ele>428.584348</ele>
        <time>2021-10-30T07:59:35.000Z</time>
      </trkpt>
      <trkpt lat="38.047758" lon="-1.538149">
        <ele>428.440041</ele>
        <time>2021-10-30T07:59:36.000Z</time>
      </trkpt>
      <trkpt lat="38.047611" lon="-1.537425">
        <ele>427.429042</ele>
        <time>2021-10-30T07:59:43.000Z</time>
      </trkpt>
      <trkpt lat="38.047568" lon="-1.537216">
        <ele>427.136948</ele>
        <time>2021-10-30T07:59:45.000Z</time>
      </trkpt>
      <trkpt lat="38.047496" lon="-1.536900">
        <ele>426.647377</ele>
        <time>2021-10-30T07:59:48.000Z</time>
      </trkpt>
      <trkpt lat="38.047387" lon="-1.536485">
        <ele>425.757602</ele>
        <time>2021-10-30T07:59:52.000Z</time>
      </trkpt>
      <trkpt lat="38.047356" lon="-1.536385">
        <ele>425.539022</ele>
        <time>2021-10-30T07:59:53.000Z</time>
      </trkpt>
      <trkpt lat="38.047291" lon="-1.536186">
        <ele>425.100842</ele>
        <time>2021-10-30T07:59:55.000Z</time>
      </trkpt>
      <trkpt lat="38.047256" lon="-1.536087">
        <ele>424.880126</ele>
        <time>2021-10-30T07:59:56.000Z</time>
      </trkpt>
      <trkpt lat="38.047098" lon="-1.535713">
        <ele>424.016904</ele>
        <time>2021-10-30T08:00:00.000Z</time>
      </trkpt>
      <trkpt lat="38.047016" lon="-1.535533">
        <ele>423.593958</ele>
        <time>2021-10-30T08:00:02.000Z</time>
      </trkpt>
      <trkpt lat="38.046843" lon="-1.535183">
        <ele>422.753485</ele>
        <time>2021-10-30T08:00:06.000Z</time>
      </trkpt>
      <trkpt lat="38.046695" lon="-1.534939">
        <ele>422.127922</ele>
        <time>2021-10-30T08:00:09.000Z</time>
      </trkpt>
      <trkpt lat="38.046584" lon="-1.534786">
        <ele>421.747588</ele>
        <time>2021-10-30T08:00:11.000Z</time>
      </trkpt>
      <trkpt lat="38.046529" lon="-1.534711">
        <ele>421.560221</ele>
        <time>2021-10-30T08:00:12.000Z</time>
      </trkpt>
      <trkpt lat="38.046529" lon="-1.534711">
        <ele>421.560221</ele>
        <time>2021-10-30T08:00:15.000Z</time>
      </trkpt>
      <trkpt lat="38.046111" lon="-1.534226">
        <ele>420.245691</ele>
        <time>2021-10-30T08:00:19.000Z</time>
      </trkpt>
      <trkpt lat="38.045923" lon="-1.534004">
        <ele>419.649675</ele>
        <time>2021-10-30T08:00:22.000Z</time>
      </trkpt>
      <trkpt lat="38.045854" lon="-1.533922">
        <ele>419.430274</ele>
        <time>2021-10-30T08:00:23.000Z</time>
      </trkpt>
      <trkpt lat="38.045648" lon="-1.533694">
        <ele>418.795856</ele>
        <time>2021-10-30T08:00:26.000Z</time>
      </trkpt>
      <trkpt lat="38.045507" lon="-1.533543">
        <ele>418.367638</ele>
        <time>2021-10-30T08:00:28.000Z</time>
      </trkpt>
      <trkpt lat="38.045367" lon="-1.533400">
        <ele>417.953067</ele>
        <time>2021-10-30T08:00:30.000Z</time>
      </trkpt>
      <trkpt lat="38.045229" lon="-1.533253">
        <ele>417.649940</ele>
        <time>2021-10-30T08:00:32.000Z</time>
      </trkpt>
      <trkpt lat="38.044760" lon="-1.532752">
        <ele>416.618544</ele>
        <time>2021-10-30T08:00:39.000Z</time>
      </trkpt>
      <trkpt lat="38.044627" lon="-1.532610">
        <ele>416.326121</ele>
        <time>2021-10-30T08:00:41.000Z</time>
      </trkpt>
      <trkpt lat="38.044494" lon="-1.532474">
        <ele>416.038751</ele>
        <time>2021-10-30T08:00:43.000Z</time>
      </trkpt>
      <trkpt lat="38.044119" lon="-1.532079">
        <ele>415.218817</ele>
        <time>2021-10-30T08:00:49.000Z</time>
      </trkpt>
      <trkpt lat="38.043661" lon="-1.531571">
        <ele>414.934642</ele>
        <time>2021-10-30T08:00:57.000Z</time>
      </trkpt>
      <trkpt lat="38.043555" lon="-1.531438">
        <ele>414.935215</ele>
        <time>2021-10-30T08:00:59.000Z</time>
      </trkpt>
      <trkpt lat="38.043264" lon="-1.530965">
        <ele>414.937032</ele>
        <time>2021-10-30T08:01:06.000Z</time>
      </trkpt>
      <trkpt lat="38.043090" lon="-1.530624">
        <ele>414.938262</ele>
        <time>2021-10-30T08:01:11.000Z</time>
      </trkpt>
      <trkpt lat="38.043019" lon="-1.530494">
        <ele>414.938741</ele>
        <time>2021-10-30T08:01:13.000Z</time>
      </trkpt>
      <trkpt lat="38.042988" lon="-1.530315">
        <ele>414.939296</ele>
        <time>2021-10-30T08:01:17.000Z</time>
      </trkpt>
      <trkpt lat="38.042956" lon="-1.530136">
        <ele>414.939851</ele>
        <time>2021-10-30T08:01:19.000Z</time>
      </trkpt>
      <trkpt lat="38.042894" lon="-1.529778">
        <ele>414.544622</ele>
        <time>2021-10-30T08:01:21.000Z</time>
      </trkpt>
      <trkpt lat="38.042878" lon="-1.529205">
        <ele>413.915080</ele>
        <time>2021-10-30T08:01:27.000Z</time>
      </trkpt>
      <trkpt lat="38.042872" lon="-1.529031">
        <ele>413.723848</ele>
        <time>2021-10-30T08:01:29.000Z</time>
      </trkpt>
      <trkpt lat="38.042877" lon="-1.528948">
        <ele>413.632448</ele>
        <time>2021-10-30T08:01:30.000Z</time>
      </trkpt>
      <trkpt lat="38.042892" lon="-1.528781">
        <ele>413.447896</ele>
        <time>2021-10-30T08:01:32.000Z</time>
      </trkpt>
      <trkpt lat="38.042916" lon="-1.528533">
        <ele>413.173547</ele>
        <time>2021-10-30T08:01:35.000Z</time>
      </trkpt>
      <trkpt lat="38.042981" lon="-1.528208">
        <ele>412.805375</ele>
        <time>2021-10-30T08:01:39.000Z</time>
      </trkpt>
      <trkpt lat="38.043054" lon="-1.527856">
        <ele>412.414544</ele>
        <time>2021-10-30T08:01:43.000Z</time>
      </trkpt>
      <trkpt lat="38.043080" lon="-1.527768">
        <ele>412.345717</ele>
        <time>2021-10-30T08:01:44.000Z</time>
      </trkpt>
      <trkpt lat="38.043140" lon="-1.527598">
        <ele>412.209299</ele>
        <time>2021-10-30T08:01:46.000Z</time>
      </trkpt>
      <trkpt lat="38.043282" lon="-1.527269">
        <ele>411.934568</ele>
        <time>2021-10-30T08:01:50.000Z</time>
      </trkpt>
      <trkpt lat="38.043404" lon="-1.527036">
        <ele>411.729676</ele>
        <time>2021-10-30T08:01:53.000Z</time>
      </trkpt>
      <trkpt lat="38.043577" lon="-1.526724">
        <ele>411.450255</ele>
        <time>2021-10-30T08:01:57.000Z</time>
      </trkpt>
      <trkpt lat="38.043701" lon="-1.526495">
        <ele>411.246749</ele>
        <time>2021-10-30T08:02:00.000Z</time>
      </trkpt>
      <trkpt lat="38.043853" lon="-1.526212">
        <ele>410.995907</ele>
        <time>2021-10-30T08:02:04.000Z</time>
      </trkpt>
      <trkpt lat="38.043960" lon="-1.526015">
        <ele>410.820666</ele>
        <time>2021-10-30T08:02:07.000Z</time>
      </trkpt>
      <trkpt lat="38.043993" lon="-1.525954">
        <ele>410.766473</ele>
        <time>2021-10-30T08:02:08.000Z</time>
      </trkpt>
      <trkpt lat="38.044021" lon="-1.525896">
        <ele>410.990344</ele>
        <time>2021-10-30T08:02:09.000Z</time>
      </trkpt>
      <trkpt lat="38.044048" lon="-1.525847">
        <ele>411.224356</ele>
        <time>2021-10-30T08:02:10.000Z</time>
      </trkpt>
      <trkpt lat="38.044106" lon="-1.525742">
        <ele>411.726217</ele>
        <time>2021-10-30T08:02:13.000Z</time>
      </trkpt>
      <trkpt lat="38.044120" lon="-1.525722">
        <ele>411.830924</ele>
        <time>2021-10-30T08:02:14.000Z</time>
      </trkpt>
      <trkpt lat="38.044129" lon="-1.525710">
        <ele>411.895767</ele>
        <time>2021-10-30T08:02:15.000Z</time>
      </trkpt>
      <trkpt lat="38.044138" lon="-1.525700">
        <ele>411.955189</ele>
        <time>2021-10-30T08:02:16.000Z</time>
      </trkpt>
      <trkpt lat="38.044148" lon="-1.525690">
        <ele>412.018434</ele>
        <time>2021-10-30T08:02:17.000Z</time>
      </trkpt>
      <trkpt lat="38.044156" lon="-1.525675">
        <ele>412.089323</ele>
        <time>2021-10-30T08:02:18.000Z</time>
      </trkpt>
      <trkpt lat="38.044162" lon="-1.525652">
        <ele>412.184132</ele>
        <time>2021-10-30T08:02:19.000Z</time>
      </trkpt>
      <trkpt lat="38.044166" lon="-1.525614">
        <ele>412.334150</ele>
        <time>2021-10-30T08:02:21.000Z</time>
      </trkpt>
      <trkpt lat="38.044167" lon="-1.525607">
        <ele>412.361988</ele>
        <time>2021-10-30T08:02:27.000Z</time>
      </trkpt>
      <trkpt lat="38.044166" lon="-1.525609">
        <ele>412.371258</ele>
        <time>2021-10-30T08:02:40.000Z</time>
      </trkpt>
      <trkpt lat="38.044165" lon="-1.525610">
        <ele>412.377583</ele>
        <time>2021-10-30T08:02:44.000Z</time>
      </trkpt>
      <trkpt lat="38.044165" lon="-1.525608">
        <ele>412.385409</ele>
        <time>2021-10-30T08:02:46.000Z</time>
      </trkpt>
      <trkpt lat="38.044164" lon="-1.525610">
        <ele>412.394679</ele>
        <time>2021-10-30T08:02:51.000Z</time>
      </trkpt>
      <trkpt lat="38.044164" lon="-1.525612">
        <ele>412.402505</ele>
        <time>2021-10-30T08:03:01.000Z</time>
      </trkpt>
      <trkpt lat="38.044163" lon="-1.525611">
        <ele>412.408830</ele>
        <time>2021-10-30T08:03:02.000Z</time>
      </trkpt>
      <trkpt lat="38.044162" lon="-1.525612">
        <ele>412.415154</ele>
        <time>2021-10-30T08:03:06.000Z</time>
      </trkpt>
      <trkpt lat="38.044162" lon="-1.525612">
        <ele>412.415154</ele>
        <time>2021-10-30T08:03:07.000Z</time>
      </trkpt>
      <trkpt lat="38.044163" lon="-1.525613">
        <ele>412.421479</ele>
        <time>2021-10-30T08:03:10.000Z</time>
      </trkpt>
      <trkpt lat="38.044162" lon="-1.525610">
        <ele>412.434226</ele>
        <time>2021-10-30T08:03:14.000Z</time>
      </trkpt>
      <trkpt lat="38.044162" lon="-1.525610">
        <ele>412.434226</ele>
        <time>2021-10-30T08:03:19.000Z</time>
      </trkpt>
      <trkpt lat="38.044164" lon="-1.525607">
        <ele>412.449607</ele>
        <time>2021-10-30T08:03:21.000Z</time>
      </trkpt>
      <trkpt lat="38.044169" lon="-1.525605">
        <ele>412.475654</ele>
        <time>2021-10-30T08:03:24.000Z</time>
      </trkpt>
      <trkpt lat="38.044191" lon="-1.525601">
        <ele>412.586080</ele>
        <time>2021-10-30T08:03:26.000Z</time>
      </trkpt>
      <trkpt lat="38.044244" lon="-1.525652">
        <ele>412.916497</ele>
        <time>2021-10-30T08:03:29.000Z</time>
      </trkpt>
      <trkpt lat="38.044263" lon="-1.525682">
        <ele>413.067139</ele>
        <time>2021-10-30T08:03:30.000Z</time>
      </trkpt>
      <trkpt lat="38.044311" lon="-1.525860">
        <ele>413.803360</ele>
        <time>2021-10-30T08:03:34.000Z</time>
      </trkpt>
      <trkpt lat="38.044330" lon="-1.525909">
        <ele>414.017079</ele>
        <time>2021-10-30T08:03:35.000Z</time>
      </trkpt>
      <trkpt lat="38.044396" lon="-1.526055">
        <ele>414.675811</ele>
        <time>2021-10-30T08:03:38.000Z</time>
      </trkpt>
      <trkpt lat="38.044466" lon="-1.526201">
        <ele>415.344658</ele>
        <time>2021-10-30T08:03:41.000Z</time>
      </trkpt>
      <trkpt lat="38.044517" lon="-1.526278">
        <ele>415.738355</ele>
        <time>2021-10-30T08:03:43.000Z</time>
      </trkpt>
      <trkpt lat="38.044602" lon="-1.526408">
        <ele>416.399520</ele>
        <time>2021-10-30T08:03:47.000Z</time>
      </trkpt>
      <trkpt lat="38.044646" lon="-1.526465">
        <ele>416.711840</ele>
        <time>2021-10-30T08:03:51.000Z</time>
      </trkpt>
      <trkpt lat="38.044658" lon="-1.526485">
        <ele>416.810226</ele>
        <time>2021-10-30T08:03:52.000Z</time>
      </trkpt>
      <trkpt lat="38.044725" lon="-1.526577">
        <ele>417.300555</ele>
        <time>2021-10-30T08:03:56.000Z</time>
      </trkpt>
      <trkpt lat="38.044747" lon="-1.526602">
        <ele>417.447248</ele>
        <time>2021-10-30T08:03:57.000Z</time>
      </trkpt>
      <trkpt lat="38.044912" lon="-1.526760">
        <ele>418.474074</ele>
        <time>2021-10-30T08:04:03.000Z</time>
      </trkpt>
      <trkpt lat="38.044967" lon="-1.526809">
        <ele>418.807907</ele>
        <time>2021-10-30T08:04:05.000Z</time>
      </trkpt>
      <trkpt lat="38.045125" lon="-1.526962">
        <ele>419.754847</ele>
        <time>2021-10-30T08:04:11.000Z</time>
      </trkpt>
      <trkpt lat="38.045153" lon="-1.526984">
        <ele>419.851405</ele>
        <time>2021-10-30T08:04:12.000Z</time>
      </trkpt>
      <trkpt lat="38.045259" lon="-1.527089">
        <ele>420.245646</ele>
        <time>2021-10-30T08:04:16.000Z</time>
      </trkpt>
      <trkpt lat="38.045369" lon="-1.527187">
        <ele>420.639698</ele>
        <time>2021-10-30T08:04:20.000Z</time>
      </trkpt>
      <trkpt lat="38.045398" lon="-1.527209">
        <ele>420.738761</ele>
        <time>2021-10-30T08:04:21.000Z</time>
      </trkpt>
      <trkpt lat="38.045508" lon="-1.527311">
        <ele>421.138190</ele>
        <time>2021-10-30T08:04:25.000Z</time>
      </trkpt>
      <trkpt lat="38.045536" lon="-1.527335">
        <ele>421.237256</ele>
        <time>2021-10-30T08:04:26.000Z</time>
      </trkpt>
      <trkpt lat="38.045622" lon="-1.527398">
        <ele>421.528410</ele>
        <time>2021-10-30T08:04:29.000Z</time>
      </trkpt>
      <trkpt lat="38.045677" lon="-1.527449">
        <ele>421.728124</ele>
        <time>2021-10-30T08:04:31.000Z</time>
      </trkpt>
      <trkpt lat="38.045789" lon="-1.527544">
        <ele>422.123101</ele>
        <time>2021-10-30T08:04:35.000Z</time>
      </trkpt>
      <trkpt lat="38.045867" lon="-1.527616">
        <ele>422.405886</ele>
        <time>2021-10-30T08:04:38.000Z</time>
      </trkpt>
      <trkpt lat="38.045970" lon="-1.527696">
        <ele>422.759957</ele>
        <time>2021-10-30T08:04:42.000Z</time>
      </trkpt>
      <trkpt lat="38.046003" lon="-1.527686">
        <ele>422.859447</ele>
        <time>2021-10-30T08:04:43.000Z</time>
      </trkpt>
      <trkpt lat="38.046027" lon="-1.527658">
        <ele>422.955022</ele>
        <time>2021-10-30T08:04:44.000Z</time>
      </trkpt>
      <trkpt lat="38.046018" lon="-1.527596">
        <ele>423.100617</ele>
        <time>2021-10-30T08:04:46.000Z</time>
      </trkpt>
      <trkpt lat="38.045995" lon="-1.527570">
        <ele>423.190919</ele>
        <time>2021-10-30T08:04:47.000Z</time>
      </trkpt>
      <trkpt lat="38.045889" lon="-1.527425">
        <ele>423.647819</ele>
        <time>2021-10-30T08:04:52.000Z</time>
      </trkpt>
      <trkpt lat="38.045842" lon="-1.527375">
        <ele>423.827624</ele>
        <time>2021-10-30T08:04:54.000Z</time>
      </trkpt>
      <trkpt lat="38.045818" lon="-1.527347">
        <ele>423.923199</ele>
        <time>2021-10-30T08:04:55.000Z</time>
      </trkpt>
      <trkpt lat="38.045757" lon="-1.527302">
        <ele>424.130079</ele>
        <time>2021-10-30T08:04:57.000Z</time>
      </trkpt>
      <trkpt lat="38.045718" lon="-1.527301">
        <ele>424.244469</ele>
        <time>2021-10-30T08:04:58.000Z</time>
      </trkpt>
      <trkpt lat="38.045638" lon="-1.527283">
        <ele>424.482724</ele>
        <time>2021-10-30T08:05:00.000Z</time>
      </trkpt>
      <trkpt lat="38.045537" lon="-1.527233">
        <ele>424.800620</ele>
        <time>2021-10-30T08:05:02.000Z</time>
      </trkpt>
      <trkpt lat="38.045480" lon="-1.527192">
        <ele>424.930481</ele>
        <time>2021-10-30T08:05:03.000Z</time>
      </trkpt>
      <trkpt lat="38.045355" lon="-1.527091">
        <ele>424.104912</ele>
        <time>2021-10-30T08:05:05.000Z</time>
      </trkpt>
      <trkpt lat="38.045288" lon="-1.527039">
        <ele>423.667367</ele>
        <time>2021-10-30T08:05:06.000Z</time>
      </trkpt>
      <trkpt lat="38.045226" lon="-1.526987">
        <ele>423.253339</ele>
        <time>2021-10-30T08:05:07.000Z</time>
      </trkpt>
      <trkpt lat="38.045043" lon="-1.526827">
        <ele>422.015299</ele>
        <time>2021-10-30T08:05:10.000Z</time>
      </trkpt>
      <trkpt lat="38.044916" lon="-1.526709">
        <ele>421.138426</ele>
        <time>2021-10-30T08:05:12.000Z</time>
      </trkpt>
      <trkpt lat="38.044857" lon="-1.526654">
        <ele>420.730590</ele>
        <time>2021-10-30T08:05:13.000Z</time>
      </trkpt>
      <trkpt lat="38.044753" lon="-1.526561">
        <ele>420.021810</ele>
        <time>2021-10-30T08:05:15.000Z</time>
      </trkpt>
      <trkpt lat="38.044713" lon="-1.526512">
        <ele>419.712113</ele>
        <time>2021-10-30T08:05:16.000Z</time>
      </trkpt>
      <trkpt lat="38.044528" lon="-1.526237">
        <ele>418.125007</ele>
        <time>2021-10-30T08:05:21.000Z</time>
      </trkpt>
      <trkpt lat="38.044501" lon="-1.526181">
        <ele>417.836870</ele>
        <time>2021-10-30T08:05:22.000Z</time>
      </trkpt>
      <trkpt lat="38.044443" lon="-1.526068">
        <ele>417.244980</ele>
        <time>2021-10-30T08:05:24.000Z</time>
      </trkpt>
      <trkpt lat="38.044372" lon="-1.525900">
        <ele>416.408312</ele>
        <time>2021-10-30T08:05:27.000Z</time>
      </trkpt>
      <trkpt lat="38.044357" lon="-1.525841">
        <ele>416.136250</ele>
        <time>2021-10-30T08:05:28.000Z</time>
      </trkpt>
      <trkpt lat="38.044345" lon="-1.525783">
        <ele>415.873095</ele>
        <time>2021-10-30T08:05:29.000Z</time>
      </trkpt>
      <trkpt lat="38.044337" lon="-1.525655">
        <ele>415.309635</ele>
        <time>2021-10-30T08:05:32.000Z</time>
      </trkpt>
      <trkpt lat="38.044349" lon="-1.525603">
        <ele>415.071852</ele>
        <time>2021-10-30T08:05:33.000Z</time>
      </trkpt>
      <trkpt lat="38.044376" lon="-1.525549">
        <ele>414.817933</ele>
        <time>2021-10-30T08:05:34.000Z</time>
      </trkpt>
      <trkpt lat="38.044404" lon="-1.525494">
        <ele>414.579286</ele>
        <time>2021-10-30T08:05:35.000Z</time>
      </trkpt>
      <trkpt lat="38.044430" lon="-1.525365">
        <ele>414.094063</ele>
        <time>2021-10-30T08:05:37.000Z</time>
      </trkpt>
      <trkpt lat="38.044435" lon="-1.525304">
        <ele>413.870580</ele>
        <time>2021-10-30T08:05:38.000Z</time>
      </trkpt>
      <trkpt lat="38.044446" lon="-1.525247">
        <ele>413.656729</ele>
        <time>2021-10-30T08:05:39.000Z</time>
      </trkpt>
      <trkpt lat="38.044503" lon="-1.525082">
        <ele>413.000172</ele>
        <time>2021-10-30T08:05:42.000Z</time>
      </trkpt>
      <trkpt lat="38.044563" lon="-1.524878">
        <ele>412.206653</ele>
        <time>2021-10-30T08:05:45.000Z</time>
      </trkpt>
      <trkpt lat="38.044586" lon="-1.524794">
        <ele>411.882587</ele>
        <time>2021-10-30T08:05:46.000Z</time>
      </trkpt>
      <trkpt lat="38.044621" lon="-1.524702">
        <ele>411.510276</ele>
        <time>2021-10-30T08:05:47.000Z</time>
      </trkpt>
      <trkpt lat="38.044706" lon="-1.524526">
        <ele>410.757948</ele>
        <time>2021-10-30T08:05:49.000Z</time>
      </trkpt>
      <trkpt lat="38.044748" lon="-1.524440">
        <ele>410.389201</ele>
        <time>2021-10-30T08:05:50.000Z</time>
      </trkpt>
      <trkpt lat="38.044830" lon="-1.524268">
        <ele>409.656544</ele>
        <time>2021-10-30T08:05:52.000Z</time>
      </trkpt>
      <trkpt lat="38.044868" lon="-1.524180">
        <ele>409.290835</ele>
        <time>2021-10-30T08:05:53.000Z</time>
      </trkpt>
      <trkpt lat="38.044936" lon="-1.524004">
        <ele>408.576476</ele>
        <time>2021-10-30T08:05:55.000Z</time>
      </trkpt>
      <trkpt lat="38.044963" lon="-1.523912">
        <ele>408.218711</ele>
        <time>2021-10-30T08:05:56.000Z</time>
      </trkpt>
      <trkpt lat="38.045039" lon="-1.523633">
        <ele>407.142952</ele>
        <time>2021-10-30T08:05:59.000Z</time>
      </trkpt>
      <trkpt lat="38.045175" lon="-1.523073">
        <ele>406.090127</ele>
        <time>2021-10-30T08:06:05.000Z</time>
      </trkpt>
      <trkpt lat="38.045192" lon="-1.522976">
        <ele>405.970150</ele>
        <time>2021-10-30T08:06:06.000Z</time>
      </trkpt>
      <trkpt lat="38.045221" lon="-1.522782">
        <ele>405.731744</ele>
        <time>2021-10-30T08:06:08.000Z</time>
      </trkpt>
      <trkpt lat="38.045260" lon="-1.522195">
        <ele>405.020517</ele>
        <time>2021-10-30T08:06:14.000Z</time>
      </trkpt>
      <trkpt lat="38.045252" lon="-1.521814">
        <ele>404.560357</ele>
        <time>2021-10-30T08:06:18.000Z</time>
      </trkpt>
      <trkpt lat="38.045234" lon="-1.521549">
        <ele>404.239224</ele>
        <time>2021-10-30T08:06:21.000Z</time>
      </trkpt>
      <trkpt lat="38.045229" lon="-1.521462">
        <ele>404.133906</ele>
        <time>2021-10-30T08:06:22.000Z</time>
      </trkpt>
      <trkpt lat="38.045199" lon="-1.521079">
        <ele>403.513672</ele>
        <time>2021-10-30T08:06:26.000Z</time>
      </trkpt>
      <trkpt lat="38.045183" lon="-1.520877">
        <ele>403.077818</ele>
        <time>2021-10-30T08:06:28.000Z</time>
      </trkpt>
      <trkpt lat="38.045174" lon="-1.520775">
        <ele>402.857468</ele>
        <time>2021-10-30T08:06:29.000Z</time>
      </trkpt>
      <trkpt lat="38.045153" lon="-1.520472">
        <ele>402.204454</ele>
        <time>2021-10-30T08:06:32.000Z</time>
      </trkpt>
      <trkpt lat="38.045148" lon="-1.520371">
        <ele>401.987193</ele>
        <time>2021-10-30T08:06:33.000Z</time>
      </trkpt>
      <trkpt lat="38.045142" lon="-1.520268">
        <ele>401.765462</ele>
        <time>2021-10-30T08:06:34.000Z</time>
      </trkpt>
      <trkpt lat="38.045135" lon="-1.520169">
        <ele>401.552068</ele>
        <time>2021-10-30T08:06:35.000Z</time>
      </trkpt>
      <trkpt lat="38.045118" lon="-1.519971">
        <ele>401.124470</ele>
        <time>2021-10-30T08:06:37.000Z</time>
      </trkpt>
      <trkpt lat="38.045072" lon="-1.519415">
        <ele>399.924244</ele>
        <time>2021-10-30T08:06:43.000Z</time>
      </trkpt>
      <trkpt lat="38.045067" lon="-1.519323">
        <ele>399.726263</ele>
        <time>2021-10-30T08:06:44.000Z</time>
      </trkpt>
      <trkpt lat="38.045065" lon="-1.519233">
        <ele>399.532968</ele>
        <time>2021-10-30T08:06:45.000Z</time>
      </trkpt>
      <trkpt lat="38.045050" lon="-1.518968">
        <ele>398.963135</ele>
        <time>2021-10-30T08:06:48.000Z</time>
      </trkpt>
      <trkpt lat="38.045046" lon="-1.518882">
        <ele>398.809660</ele>
        <time>2021-10-30T08:06:49.000Z</time>
      </trkpt>
      <trkpt lat="38.045033" lon="-1.518622">
        <ele>398.345541</ele>
        <time>2021-10-30T08:06:52.000Z</time>
      </trkpt>
      <trkpt lat="38.045032" lon="-1.518360">
        <ele>397.878786</ele>
        <time>2021-10-30T08:06:55.000Z</time>
      </trkpt>
      <trkpt lat="38.045034" lon="-1.518272">
        <ele>397.721950</ele>
        <time>2021-10-30T08:06:56.000Z</time>
      </trkpt>
      <trkpt lat="38.045039" lon="-1.518182">
        <ele>397.561217</ele>
        <time>2021-10-30T08:06:57.000Z</time>
      </trkpt>
      <trkpt lat="38.045046" lon="-1.518091">
        <ele>397.398331</ele>
        <time>2021-10-30T08:06:58.000Z</time>
      </trkpt>
      <trkpt lat="38.045056" lon="-1.518000">
        <ele>397.234645</ele>
        <time>2021-10-30T08:06:59.000Z</time>
      </trkpt>
      <trkpt lat="38.045068" lon="-1.517910">
        <ele>397.072029</ele>
        <time>2021-10-30T08:07:00.000Z</time>
      </trkpt>
      <trkpt lat="38.045082" lon="-1.517821">
        <ele>396.910345</ele>
        <time>2021-10-30T08:07:01.000Z</time>
      </trkpt>
      <trkpt lat="38.045095" lon="-1.517732">
        <ele>396.749088</ele>
        <time>2021-10-30T08:07:02.000Z</time>
      </trkpt>
      <trkpt lat="38.045108" lon="-1.517644">
        <ele>396.589583</ele>
        <time>2021-10-30T08:07:03.000Z</time>
      </trkpt>
      <trkpt lat="38.045148" lon="-1.517478">
        <ele>396.280323</ele>
        <time>2021-10-30T08:07:05.000Z</time>
      </trkpt>
      <trkpt lat="38.045173" lon="-1.517390">
        <ele>396.113664</ele>
        <time>2021-10-30T08:07:06.000Z</time>
      </trkpt>
      <trkpt lat="38.045273" lon="-1.517031">
        <ele>395.435284</ele>
        <time>2021-10-30T08:07:10.000Z</time>
      </trkpt>
      <trkpt lat="38.045400" lon="-1.516577">
        <ele>394.549922</ele>
        <time>2021-10-30T08:07:15.000Z</time>
      </trkpt>
      <trkpt lat="38.045586" lon="-1.515840">
        <ele>393.054639</ele>
        <time>2021-10-30T08:07:23.000Z</time>
      </trkpt>
      <trkpt lat="38.045611" lon="-1.515750">
        <ele>392.870251</ele>
        <time>2021-10-30T08:07:24.000Z</time>
      </trkpt>
      <trkpt lat="38.045686" lon="-1.515477">
        <ele>392.311618</ele>
        <time>2021-10-30T08:07:27.000Z</time>
      </trkpt>
      <trkpt lat="38.045712" lon="-1.515384">
        <ele>392.120948</ele>
        <time>2021-10-30T08:07:28.000Z</time>
      </trkpt>
      <trkpt lat="38.045762" lon="-1.515193">
        <ele>391.732066</ele>
        <time>2021-10-30T08:07:30.000Z</time>
      </trkpt>
      <trkpt lat="38.045810" lon="-1.515002">
        <ele>391.344704</ele>
        <time>2021-10-30T08:07:32.000Z</time>
      </trkpt>
      <trkpt lat="38.045834" lon="-1.514905">
        <ele>391.148260</ele>
        <time>2021-10-30T08:07:33.000Z</time>
      </trkpt>
      <trkpt lat="38.045909" lon="-1.514614">
        <ele>390.556681</ele>
        <time>2021-10-30T08:07:36.000Z</time>
      </trkpt>
      <trkpt lat="38.045986" lon="-1.514322">
        <ele>390.595102</ele>
        <time>2021-10-30T08:07:39.000Z</time>
      </trkpt>
      <trkpt lat="38.046011" lon="-1.514228">
        <ele>390.635739</ele>
        <time>2021-10-30T08:07:40.000Z</time>
      </trkpt>
      <trkpt lat="38.046060" lon="-1.514043">
        <ele>390.715684</ele>
        <time>2021-10-30T08:07:42.000Z</time>
      </trkpt>
      <trkpt lat="38.046084" lon="-1.513952">
        <ele>390.754992</ele>
        <time>2021-10-30T08:07:43.000Z</time>
      </trkpt>
      <trkpt lat="38.046130" lon="-1.513772">
        <ele>390.832502</ele>
        <time>2021-10-30T08:07:45.000Z</time>
      </trkpt>
      <trkpt lat="38.046152" lon="-1.513686">
        <ele>390.869539</ele>
        <time>2021-10-30T08:07:46.000Z</time>
      </trkpt>
      <trkpt lat="38.046196" lon="-1.513514">
        <ele>390.943612</ele>
        <time>2021-10-30T08:07:48.000Z</time>
      </trkpt>
      <trkpt lat="38.046305" lon="-1.513094">
        <ele>391.124739</ele>
        <time>2021-10-30T08:07:53.000Z</time>
      </trkpt>
      <trkpt lat="38.046349" lon="-1.512922">
        <ele>391.198812</ele>
        <time>2021-10-30T08:07:55.000Z</time>
      </trkpt>
      <trkpt lat="38.046494" lon="-1.512333">
        <ele>391.318143</ele>
        <time>2021-10-30T08:08:02.000Z</time>
      </trkpt>
      <trkpt lat="38.046516" lon="-1.512249">
        <ele>391.202155</ele>
        <time>2021-10-30T08:08:03.000Z</time>
      </trkpt>
      <trkpt lat="38.046653" lon="-1.511721">
        <ele>390.473756</ele>
        <time>2021-10-30T08:08:09.000Z</time>
      </trkpt>
      <trkpt lat="38.046672" lon="-1.511632">
        <ele>390.352935</ele>
        <time>2021-10-30T08:08:10.000Z</time>
      </trkpt>
      <trkpt lat="38.046724" lon="-1.511372">
        <ele>390.001455</ele>
        <time>2021-10-30T08:08:13.000Z</time>
      </trkpt>
      <trkpt lat="38.046814" lon="-1.511042">
        <ele>389.543876</ele>
        <time>2021-10-30T08:08:17.000Z</time>
      </trkpt>
      <trkpt lat="38.046862" lon="-1.510882">
        <ele>389.319540</ele>
        <time>2021-10-30T08:08:19.000Z</time>
      </trkpt>
      <trkpt lat="38.046927" lon="-1.510640">
        <ele>388.984524</ele>
        <time>2021-10-30T08:08:22.000Z</time>
      </trkpt>
      <trkpt lat="38.046949" lon="-1.510560">
        <ele>388.873497</ele>
        <time>2021-10-30T08:08:23.000Z</time>
      </trkpt>
      <trkpt lat="38.047015" lon="-1.510309">
        <ele>388.526776</ele>
        <time>2021-10-30T08:08:26.000Z</time>
      </trkpt>
      <trkpt lat="38.047120" lon="-1.509890">
        <ele>387.279388</ele>
        <time>2021-10-30T08:08:31.000Z</time>
      </trkpt>
      <trkpt lat="38.047167" lon="-1.509630">
        <ele>386.437540</ele>
        <time>2021-10-30T08:08:34.000Z</time>
      </trkpt>
      <trkpt lat="38.047193" lon="-1.509370">
        <ele>385.610443</ele>
        <time>2021-10-30T08:08:37.000Z</time>
      </trkpt>
      <trkpt lat="38.047205" lon="-1.509103">
        <ele>384.766474</ele>
        <time>2021-10-30T08:08:40.000Z</time>
      </trkpt>
      <trkpt lat="38.047206" lon="-1.509014">
        <ele>384.485579</ele>
        <time>2021-10-30T08:08:41.000Z</time>
      </trkpt>
      <trkpt lat="38.047196" lon="-1.508737">
        <ele>383.610505</ele>
        <time>2021-10-30T08:08:44.000Z</time>
      </trkpt>
      <trkpt lat="38.047190" lon="-1.508644">
        <ele>383.316032</ele>
        <time>2021-10-30T08:08:45.000Z</time>
      </trkpt>
      <trkpt lat="38.047181" lon="-1.508551">
        <ele>383.020335</ele>
        <time>2021-10-30T08:08:46.000Z</time>
      </trkpt>
      <trkpt lat="38.047169" lon="-1.508461">
        <ele>382.732271</ele>
        <time>2021-10-30T08:08:47.000Z</time>
      </trkpt>
      <trkpt lat="38.047156" lon="-1.508371">
        <ele>382.443511</ele>
        <time>2021-10-30T08:08:48.000Z</time>
      </trkpt>
      <trkpt lat="38.047019" lon="-1.507765">
        <ele>380.671791</ele>
        <time>2021-10-30T08:08:55.000Z</time>
      </trkpt>
      <trkpt lat="38.046885" lon="-1.507430">
        <ele>379.823587</ele>
        <time>2021-10-30T08:08:59.000Z</time>
      </trkpt>
      <trkpt lat="38.046848" lon="-1.507348">
        <ele>379.610244</ele>
        <time>2021-10-30T08:09:00.000Z</time>
      </trkpt>
      <trkpt lat="38.046675" lon="-1.507014">
        <ele>378.707787</ele>
        <time>2021-10-30T08:09:04.000Z</time>
      </trkpt>
      <trkpt lat="38.046526" lon="-1.506783">
        <ele>378.033723</ele>
        <time>2021-10-30T08:09:07.000Z</time>
      </trkpt>
      <trkpt lat="38.046421" lon="-1.506640">
        <ele>377.592356</ele>
        <time>2021-10-30T08:09:09.000Z</time>
      </trkpt>
      <trkpt lat="38.046368" lon="-1.506568">
        <ele>377.369870</ele>
        <time>2021-10-30T08:09:10.000Z</time>
      </trkpt>
      <trkpt lat="38.046203" lon="-1.506368">
        <ele>376.715990</ele>
        <time>2021-10-30T08:09:13.000Z</time>
      </trkpt>
      <trkpt lat="38.045975" lon="-1.506138">
        <ele>375.875642</ele>
        <time>2021-10-30T08:09:17.000Z</time>
      </trkpt>
      <trkpt lat="38.045850" lon="-1.506062">
        <ele>375.466085</ele>
        <time>2021-10-30T08:09:19.000Z</time>
      </trkpt>
      <trkpt lat="38.045360" lon="-1.505839">
        <ele>373.927858</ele>
        <time>2021-10-30T08:09:26.000Z</time>
      </trkpt>
      <trkpt lat="38.045134" lon="-1.505757">
        <ele>373.233260</ele>
        <time>2021-10-30T08:09:29.000Z</time>
      </trkpt>
      <trkpt lat="38.044820" lon="-1.505680">
        <ele>372.288191</ele>
        <time>2021-10-30T08:09:33.000Z</time>
      </trkpt>
      <trkpt lat="38.044657" lon="-1.505663">
        <ele>371.804876</ele>
        <time>2021-10-30T08:09:35.000Z</time>
      </trkpt>
      <trkpt lat="38.044575" lon="-1.505660">
        <ele>371.562451</ele>
        <time>2021-10-30T08:09:36.000Z</time>
      </trkpt>
      <trkpt lat="38.044324" lon="-1.505673">
        <ele>370.820086</ele>
        <time>2021-10-30T08:09:39.000Z</time>
      </trkpt>
      <trkpt lat="38.044238" lon="-1.505684">
        <ele>370.660757</ele>
        <time>2021-10-30T08:09:40.000Z</time>
      </trkpt>
      <trkpt lat="38.043984" lon="-1.505721">
        <ele>370.300801</ele>
        <time>2021-10-30T08:09:43.000Z</time>
      </trkpt>
      <trkpt lat="38.043738" lon="-1.505804">
        <ele>369.942436</ele>
        <time>2021-10-30T08:09:46.000Z</time>
      </trkpt>
      <trkpt lat="38.043504" lon="-1.505912">
        <ele>369.591896</ele>
        <time>2021-10-30T08:09:49.000Z</time>
      </trkpt>
      <trkpt lat="38.043136" lon="-1.506141">
        <ele>369.014910</ele>
        <time>2021-10-30T08:09:54.000Z</time>
      </trkpt>
      <trkpt lat="38.042931" lon="-1.506302">
        <ele>368.675541</ele>
        <time>2021-10-30T08:09:57.000Z</time>
      </trkpt>
      <trkpt lat="38.042690" lon="-1.506558">
        <ele>368.233158</ele>
        <time>2021-10-30T08:10:01.000Z</time>
      </trkpt>
      <trkpt lat="38.042567" lon="-1.506702">
        <ele>367.876345</ele>
        <time>2021-10-30T08:10:04.000Z</time>
      </trkpt>
      <trkpt lat="38.042496" lon="-1.506809">
        <ele>367.635009</ele>
        <time>2021-10-30T08:10:08.000Z</time>
      </trkpt>
      <trkpt lat="38.042387" lon="-1.506961">
        <ele>367.280427</ele>
        <time>2021-10-30T08:10:13.000Z</time>
      </trkpt>
      <trkpt lat="38.042332" lon="-1.507066">
        <ele>367.062915</ele>
        <time>2021-10-30T08:10:15.000Z</time>
      </trkpt>
      <trkpt lat="38.042271" lon="-1.507187">
        <ele>366.815108</ele>
        <time>2021-10-30T08:10:17.000Z</time>
      </trkpt>
      <trkpt lat="38.042180" lon="-1.507391">
        <ele>366.410711</ele>
        <time>2021-10-30T08:10:20.000Z</time>
      </trkpt>
      <trkpt lat="38.042054" lon="-1.507687">
        <ele>365.830342</ele>
        <time>2021-10-30T08:10:24.000Z</time>
      </trkpt>
      <trkpt lat="38.041892" lon="-1.508099">
        <ele>365.036044</ele>
        <time>2021-10-30T08:10:29.000Z</time>
      </trkpt>
      <trkpt lat="38.041796" lon="-1.508368">
        <ele>364.526636</ele>
        <time>2021-10-30T08:10:32.000Z</time>
      </trkpt>
      <trkpt lat="38.041696" lon="-1.508636">
        <ele>363.906350</ele>
        <time>2021-10-30T08:10:35.000Z</time>
      </trkpt>
      <trkpt lat="38.041564" lon="-1.508999">
        <ele>362.929812</ele>
        <time>2021-10-30T08:10:39.000Z</time>
      </trkpt>
      <trkpt lat="38.041434" lon="-1.509369">
        <ele>361.940269</ele>
        <time>2021-10-30T08:10:43.000Z</time>
      </trkpt>
      <trkpt lat="38.041402" lon="-1.509459">
        <ele>361.699088</ele>
        <time>2021-10-30T08:10:44.000Z</time>
      </trkpt>
      <trkpt lat="38.041272" lon="-1.509805">
        <ele>360.762770</ele>
        <time>2021-10-30T08:10:48.000Z</time>
      </trkpt>
      <trkpt lat="38.041187" lon="-1.510030">
        <ele>360.153274</ele>
        <time>2021-10-30T08:10:51.000Z</time>
      </trkpt>
      <trkpt lat="38.041138" lon="-1.510156">
        <ele>359.810055</ele>
        <time>2021-10-30T08:10:54.000Z</time>
      </trkpt>
      <trkpt lat="38.041122" lon="-1.510166">
        <ele>359.754750</ele>
        <time>2021-10-30T08:10:55.000Z</time>
      </trkpt>
      <trkpt lat="38.041106" lon="-1.510160">
        <ele>359.703012</ele>
        <time>2021-10-30T08:10:56.000Z</time>
      </trkpt>
      <trkpt lat="38.041097" lon="-1.510140">
        <ele>359.646752</ele>
        <time>2021-10-30T08:10:57.000Z</time>
      </trkpt>
      <trkpt lat="38.041113" lon="-1.510017">
        <ele>359.342263</ele>
        <time>2021-10-30T08:11:00.000Z</time>
      </trkpt>
      <trkpt lat="38.041151" lon="-1.509768">
        <ele>358.722787</ele>
        <time>2021-10-30T08:11:04.000Z</time>
      </trkpt>
      <trkpt lat="38.041154" lon="-1.509728">
        <ele>358.685206</ele>
        <time>2021-10-30T08:11:05.000Z</time>
      </trkpt>
      <trkpt lat="38.041148" lon="-1.509704">
        <ele>358.674085</ele>
        <time>2021-10-30T08:11:06.000Z</time>
      </trkpt>
      <trkpt lat="38.041133" lon="-1.509689">
        <ele>358.663379</ele>
        <time>2021-10-30T08:11:07.000Z</time>
      </trkpt>
      <trkpt lat="38.041108" lon="-1.509710">
        <ele>358.646570</ele>
        <time>2021-10-30T08:11:09.000Z</time>
      </trkpt>
      <trkpt lat="38.041104" lon="-1.509735">
        <ele>358.635303</ele>
        <time>2021-10-30T08:11:10.000Z</time>
      </trkpt>
      <trkpt lat="38.041068" lon="-1.509891">
        <ele>358.563512</ele>
        <time>2021-10-30T08:11:14.000Z</time>
      </trkpt>
      <trkpt lat="38.040994" lon="-1.510121">
        <ele>358.453788</ele>
        <time>2021-10-30T08:11:18.000Z</time>
      </trkpt>
      <trkpt lat="38.040979" lon="-1.510183">
        <ele>358.425143</ele>
        <time>2021-10-30T08:11:19.000Z</time>
      </trkpt>
      <trkpt lat="38.040962" lon="-1.510244">
        <ele>358.396567</ele>
        <time>2021-10-30T08:11:20.000Z</time>
      </trkpt>
      <trkpt lat="38.040898" lon="-1.510334">
        <ele>358.343015</ele>
        <time>2021-10-30T08:11:22.000Z</time>
      </trkpt>
      <trkpt lat="38.040852" lon="-1.510353">
        <ele>358.315890</ele>
        <time>2021-10-30T08:11:23.000Z</time>
      </trkpt>
      <trkpt lat="38.040803" lon="-1.510360">
        <ele>358.288240</ele>
        <time>2021-10-30T08:11:24.000Z</time>
      </trkpt>
      <trkpt lat="38.040701" lon="-1.510380">
        <ele>358.230365</ele>
        <time>2021-10-30T08:11:26.000Z</time>
      </trkpt>
      <trkpt lat="38.040654" lon="-1.510412">
        <ele>358.200459</ele>
        <time>2021-10-30T08:11:27.000Z</time>
      </trkpt>
      <trkpt lat="38.040613" lon="-1.510454">
        <ele>358.170919</ele>
        <time>2021-10-30T08:11:28.000Z</time>
      </trkpt>
      <trkpt lat="38.040512" lon="-1.510607">
        <ele>358.082752</ele>
        <time>2021-10-30T08:11:31.000Z</time>
      </trkpt>
      <trkpt lat="38.040435" lon="-1.510755">
        <ele>358.004416</ele>
        <time>2021-10-30T08:11:34.000Z</time>
      </trkpt>
      <trkpt lat="38.040421" lon="-1.510798">
        <ele>357.983867</ele>
        <time>2021-10-30T08:11:35.000Z</time>
      </trkpt>
      <trkpt lat="38.040410" lon="-1.510836">
        <ele>357.965987</ele>
        <time>2021-10-30T08:11:36.000Z</time>
      </trkpt>
      <trkpt lat="38.040375" lon="-1.510957">
        <ele>357.909059</ele>
        <time>2021-10-30T08:11:39.000Z</time>
      </trkpt>
      <trkpt lat="38.040369" lon="-1.511004">
        <ele>357.888031</ele>
        <time>2021-10-30T08:11:40.000Z</time>
      </trkpt>
      <trkpt lat="38.040378" lon="-1.511054">
        <ele>357.865380</ele>
        <time>2021-10-30T08:11:41.000Z</time>
      </trkpt>
      <trkpt lat="38.040402" lon="-1.511093">
        <ele>357.843522</ele>
        <time>2021-10-30T08:11:42.000Z</time>
      </trkpt>
      <trkpt lat="38.040449" lon="-1.511177">
        <ele>357.798015</ele>
        <time>2021-10-30T08:11:44.000Z</time>
      </trkpt>
      <trkpt lat="38.040480" lon="-1.511415">
        <ele>357.691478</ele>
        <time>2021-10-30T08:11:48.000Z</time>
      </trkpt>
      <trkpt lat="38.040496" lon="-1.511747">
        <ele>357.660687</ele>
        <time>2021-10-30T08:11:53.000Z</time>
      </trkpt>
      <trkpt lat="38.040485" lon="-1.511817">
        <ele>357.654337</ele>
        <time>2021-10-30T08:11:54.000Z</time>
      </trkpt>
      <trkpt lat="38.040421" lon="-1.512167">
        <ele>357.622372</ele>
        <time>2021-10-30T08:11:59.000Z</time>
      </trkpt>
      <trkpt lat="38.040382" lon="-1.512460">
        <ele>357.595935</ele>
        <time>2021-10-30T08:12:03.000Z</time>
      </trkpt>
      <trkpt lat="38.040370" lon="-1.512531">
        <ele>357.589475</ele>
        <time>2021-10-30T08:12:04.000Z</time>
      </trkpt>
      <trkpt lat="38.040308" lon="-1.512878">
        <ele>357.557820</ele>
        <time>2021-10-30T08:12:09.000Z</time>
      </trkpt>
      <trkpt lat="38.040237" lon="-1.513280">
        <ele>357.521168</ele>
        <time>2021-10-30T08:12:15.000Z</time>
      </trkpt>
      <trkpt lat="38.040208" lon="-1.513416">
        <ele>357.508633</ele>
        <time>2021-10-30T08:12:17.000Z</time>
      </trkpt>
      <trkpt lat="38.040050" lon="-1.513867">
        <ele>357.067498</ele>
        <time>2021-10-30T08:12:24.000Z</time>
      </trkpt>
      <trkpt lat="38.039929" lon="-1.514154">
        <ele>356.517586</ele>
        <time>2021-10-30T08:12:29.000Z</time>
      </trkpt>
      <trkpt lat="38.039907" lon="-1.514190">
        <ele>356.440613</ele>
        <time>2021-10-30T08:12:30.000Z</time>
      </trkpt>
      <trkpt lat="38.039820" lon="-1.514245">
        <ele>356.232159</ele>
        <time>2021-10-30T08:12:33.000Z</time>
      </trkpt>
      <trkpt lat="38.039783" lon="-1.514236">
        <ele>356.151355</ele>
        <time>2021-10-30T08:12:34.000Z</time>
      </trkpt>
      <trkpt lat="38.039745" lon="-1.514182">
        <ele>356.029027</ele>
        <time>2021-10-30T08:12:36.000Z</time>
      </trkpt>
      <trkpt lat="38.039733" lon="-1.514120">
        <ele>355.921176</ele>
        <time>2021-10-30T08:12:37.000Z</time>
      </trkpt>
      <trkpt lat="38.039683" lon="-1.513884">
        <ele>355.508337</ele>
        <time>2021-10-30T08:12:40.000Z</time>
      </trkpt>
      <trkpt lat="38.039634" lon="-1.513702">
        <ele>355.183423</ele>
        <time>2021-10-30T08:12:42.000Z</time>
      </trkpt>
      <trkpt lat="38.039600" lon="-1.513614">
        <ele>355.017844</ele>
        <time>2021-10-30T08:12:43.000Z</time>
      </trkpt>
      <trkpt lat="38.039560" lon="-1.513528">
        <ele>354.849125</ele>
        <time>2021-10-30T08:12:44.000Z</time>
      </trkpt>
      <trkpt lat="38.039491" lon="-1.513389">
        <ele>354.571568</ele>
        <time>2021-10-30T08:12:46.000Z</time>
      </trkpt>
      <trkpt lat="38.039429" lon="-1.513323">
        <ele>354.398032</ele>
        <time>2021-10-30T08:12:48.000Z</time>
      </trkpt>
      <trkpt lat="38.039348" lon="-1.513331">
        <ele>354.223773</ele>
        <time>2021-10-30T08:12:50.000Z</time>
      </trkpt>
      <trkpt lat="38.039303" lon="-1.513360">
        <ele>354.115533</ele>
        <time>2021-10-30T08:12:51.000Z</time>
      </trkpt>
      <trkpt lat="38.039007" lon="-1.513603">
        <ele>353.319623</ele>
        <time>2021-10-30T08:12:57.000Z</time>
      </trkpt>
      <trkpt lat="38.038548" lon="-1.513916">
        <ele>352.036719</ele>
        <time>2021-10-30T08:13:05.000Z</time>
      </trkpt>
      <trkpt lat="38.038425" lon="-1.513982">
        <ele>351.707916</ele>
        <time>2021-10-30T08:13:07.000Z</time>
      </trkpt>
      <trkpt lat="38.038104" lon="-1.514141">
        <ele>350.859487</ele>
        <time>2021-10-30T08:13:12.000Z</time>
      </trkpt>
      <trkpt lat="38.037909" lon="-1.514228">
        <ele>350.350550</ele>
        <time>2021-10-30T08:13:15.000Z</time>
      </trkpt>
      <trkpt lat="38.037843" lon="-1.514256">
        <ele>350.179203</ele>
        <time>2021-10-30T08:13:16.000Z</time>
      </trkpt>
      <trkpt lat="38.037709" lon="-1.514308">
        <ele>349.834183</ele>
        <time>2021-10-30T08:13:18.000Z</time>
      </trkpt>
      <trkpt lat="38.037510" lon="-1.514393">
        <ele>349.317192</ele>
        <time>2021-10-30T08:13:21.000Z</time>
      </trkpt>
      <trkpt lat="38.037380" lon="-1.514457">
        <ele>348.975050</ele>
        <time>2021-10-30T08:13:23.000Z</time>
      </trkpt>
      <trkpt lat="38.037250" lon="-1.514522">
        <ele>348.632818</ele>
        <time>2021-10-30T08:13:25.000Z</time>
      </trkpt>
      <trkpt lat="38.036842" lon="-1.514698">
        <ele>347.577331</ele>
        <time>2021-10-30T08:13:31.000Z</time>
      </trkpt>
      <trkpt lat="38.036497" lon="-1.514844">
        <ele>346.686561</ele>
        <time>2021-10-30T08:13:36.000Z</time>
      </trkpt>
      <trkpt lat="38.036427" lon="-1.514873">
        <ele>346.506202</ele>
        <time>2021-10-30T08:13:37.000Z</time>
      </trkpt>
      <trkpt lat="38.036289" lon="-1.514937">
        <ele>346.146331</ele>
        <time>2021-10-30T08:13:39.000Z</time>
      </trkpt>
      <trkpt lat="38.036221" lon="-1.514968">
        <ele>345.969356</ele>
        <time>2021-10-30T08:13:40.000Z</time>
      </trkpt>
      <trkpt lat="38.036221" lon="-1.514968">
        <ele>345.969356</ele>
        <time>2021-10-30T08:13:41.000Z</time>
      </trkpt>
      <trkpt lat="38.035944" lon="-1.515092">
        <ele>345.249916</ele>
        <time>2021-10-30T08:13:44.000Z</time>
      </trkpt>
      <trkpt lat="38.035802" lon="-1.515144">
        <ele>344.887914</ele>
        <time>2021-10-30T08:13:46.000Z</time>
      </trkpt>
      <trkpt lat="38.035664" lon="-1.515203">
        <ele>344.556024</ele>
        <time>2021-10-30T08:13:48.000Z</time>
      </trkpt>
      <trkpt lat="38.035381" lon="-1.515313">
        <ele>343.899359</ele>
        <time>2021-10-30T08:13:52.000Z</time>
      </trkpt>
      <trkpt lat="38.035089" lon="-1.515394">
        <ele>343.236208</ele>
        <time>2021-10-30T08:13:56.000Z</time>
      </trkpt>
      <trkpt lat="38.034940" lon="-1.515416">
        <ele>342.903390</ele>
        <time>2021-10-30T08:13:58.000Z</time>
      </trkpt>
      <trkpt lat="38.034865" lon="-1.515423">
        <ele>342.736536</ele>
        <time>2021-10-30T08:13:59.000Z</time>
      </trkpt>
      <trkpt lat="38.034789" lon="-1.515427">
        <ele>342.567768</ele>
        <time>2021-10-30T08:14:00.000Z</time>
      </trkpt>
      <trkpt lat="38.034638" lon="-1.515431">
        <ele>342.232668</ele>
        <time>2021-10-30T08:14:02.000Z</time>
      </trkpt>
      <trkpt lat="38.034563" lon="-1.515428">
        <ele>342.066181</ele>
        <time>2021-10-30T08:14:03.000Z</time>
      </trkpt>
      <trkpt lat="38.034339" lon="-1.515404">
        <ele>341.567420</ele>
        <time>2021-10-30T08:14:06.000Z</time>
      </trkpt>
      <trkpt lat="38.034190" lon="-1.515375">
        <ele>341.232968</ele>
        <time>2021-10-30T08:14:08.000Z</time>
      </trkpt>
      <trkpt lat="38.033834" lon="-1.515258">
        <ele>340.527659</ele>
        <time>2021-10-30T08:14:13.000Z</time>
      </trkpt>
      <trkpt lat="38.033766" lon="-1.515223">
        <ele>340.411429</ele>
        <time>2021-10-30T08:14:14.000Z</time>
      </trkpt>
      <trkpt lat="38.033435" lon="-1.515047">
        <ele>339.842984</ele>
        <time>2021-10-30T08:14:19.000Z</time>
      </trkpt>
      <trkpt lat="38.033185" lon="-1.514852">
        <ele>339.378208</ele>
        <time>2021-10-30T08:14:23.000Z</time>
      </trkpt>
      <trkpt lat="38.033067" lon="-1.514738">
        <ele>339.143327</ele>
        <time>2021-10-30T08:14:25.000Z</time>
      </trkpt>
      <trkpt lat="38.033009" lon="-1.514679">
        <ele>339.025600</ele>
        <time>2021-10-30T08:14:26.000Z</time>
      </trkpt>
      <trkpt lat="38.032952" lon="-1.514615">
        <ele>338.905065</ele>
        <time>2021-10-30T08:14:27.000Z</time>
      </trkpt>
      <trkpt lat="38.032842" lon="-1.514487">
        <ele>338.668704</ele>
        <time>2021-10-30T08:14:29.000Z</time>
      </trkpt>
      <trkpt lat="38.032740" lon="-1.514352">
        <ele>338.435302</ele>
        <time>2021-10-30T08:14:31.000Z</time>
      </trkpt>
      <trkpt lat="38.032636" lon="-1.514221">
        <ele>338.203237</ele>
        <time>2021-10-30T08:14:33.000Z</time>
      </trkpt>
      <trkpt lat="38.032507" lon="-1.514018">
        <ele>337.879575</ele>
        <time>2021-10-30T08:14:36.000Z</time>
      </trkpt>
      <trkpt lat="38.032386" lon="-1.513803">
        <ele>337.557492</ele>
        <time>2021-10-30T08:14:40.000Z</time>
      </trkpt>
      <trkpt lat="38.032324" lon="-1.513646">
        <ele>337.343421</ele>
        <time>2021-10-30T08:14:44.000Z</time>
      </trkpt>
      <trkpt lat="38.032299" lon="-1.513590">
        <ele>337.264962</ele>
        <time>2021-10-30T08:14:45.000Z</time>
      </trkpt>
      <trkpt lat="38.032209" lon="-1.513387">
        <ele>336.981022</ele>
        <time>2021-10-30T08:14:48.000Z</time>
      </trkpt>
      <trkpt lat="38.032182" lon="-1.513309">
        <ele>336.877172</ele>
        <time>2021-10-30T08:14:49.000Z</time>
      </trkpt>
      <trkpt lat="38.032156" lon="-1.513229">
        <ele>336.771685</ele>
        <time>2021-10-30T08:14:50.000Z</time>
      </trkpt>
      <trkpt lat="38.032131" lon="-1.513146">
        <ele>336.663372</ele>
        <time>2021-10-30T08:14:51.000Z</time>
      </trkpt>
      <trkpt lat="38.032064" lon="-1.512889">
        <ele>336.333402</ele>
        <time>2021-10-30T08:14:54.000Z</time>
      </trkpt>
      <trkpt lat="38.032018" lon="-1.512620">
        <ele>335.997880</ele>
        <time>2021-10-30T08:14:57.000Z</time>
      </trkpt>
      <trkpt lat="38.031995" lon="-1.512440">
        <ele>335.775609</ele>
        <time>2021-10-30T08:14:59.000Z</time>
      </trkpt>
      <trkpt lat="38.031980" lon="-1.512165">
        <ele>335.439609</ele>
        <time>2021-10-30T08:15:02.000Z</time>
      </trkpt>
      <trkpt lat="38.031976" lon="-1.512075">
        <ele>335.329733</ele>
        <time>2021-10-30T08:15:03.000Z</time>
      </trkpt>
      <trkpt lat="38.031977" lon="-1.511985">
        <ele>335.220021</ele>
        <time>2021-10-30T08:15:04.000Z</time>
      </trkpt>
      <trkpt lat="38.031980" lon="-1.511805">
        <ele>335.000658</ele>
        <time>2021-10-30T08:15:06.000Z</time>
      </trkpt>
      <trkpt lat="38.031985" lon="-1.511714">
        <ele>334.889526</ele>
        <time>2021-10-30T08:15:07.000Z</time>
      </trkpt>
      <trkpt lat="38.032003" lon="-1.511533">
        <ele>334.667269</ele>
        <time>2021-10-30T08:15:09.000Z</time>
      </trkpt>
      <trkpt lat="38.032015" lon="-1.511443">
        <ele>334.556065</ele>
        <time>2021-10-30T08:15:10.000Z</time>
      </trkpt>
      <trkpt lat="38.032106" lon="-1.511002">
        <ele>334.000679</ele>
        <time>2021-10-30T08:15:15.000Z</time>
      </trkpt>
      <trkpt lat="38.032153" lon="-1.510829">
        <ele>333.777735</ele>
        <time>2021-10-30T08:15:17.000Z</time>
      </trkpt>
      <trkpt lat="38.032178" lon="-1.510745">
        <ele>333.668339</ele>
        <time>2021-10-30T08:15:18.000Z</time>
      </trkpt>
      <trkpt lat="38.032297" lon="-1.510413">
        <ele>333.223966</ele>
        <time>2021-10-30T08:15:22.000Z</time>
      </trkpt>
      <trkpt lat="38.032369" lon="-1.510254">
        <ele>333.000533</ele>
        <time>2021-10-30T08:15:24.000Z</time>
      </trkpt>
      <trkpt lat="38.032710" lon="-1.509660">
        <ele>331.602257</ele>
        <time>2021-10-30T08:15:32.000Z</time>
      </trkpt>
      <trkpt lat="38.032761" lon="-1.509594">
        <ele>331.290314</ele>
        <time>2021-10-30T08:15:33.000Z</time>
      </trkpt>
      <trkpt lat="38.032811" lon="-1.509526">
        <ele>330.976458</ele>
        <time>2021-10-30T08:15:34.000Z</time>
      </trkpt>
      <trkpt lat="38.032907" lon="-1.509380">
        <ele>330.334789</ele>
        <time>2021-10-30T08:15:36.000Z</time>
      </trkpt>
      <trkpt lat="38.033003" lon="-1.509234">
        <ele>329.693121</ele>
        <time>2021-10-30T08:15:38.000Z</time>
      </trkpt>
      <trkpt lat="38.033053" lon="-1.509164">
        <ele>329.374299</ele>
        <time>2021-10-30T08:15:39.000Z</time>
      </trkpt>
      <trkpt lat="38.033154" lon="-1.509024">
        <ele>328.733771</ele>
        <time>2021-10-30T08:15:41.000Z</time>
      </trkpt>
      <trkpt lat="38.033397" lon="-1.508674">
        <ele>327.159652</ele>
        <time>2021-10-30T08:15:46.000Z</time>
      </trkpt>
      <trkpt lat="38.033496" lon="-1.508542">
        <ele>326.544700</ele>
        <time>2021-10-30T08:15:48.000Z</time>
      </trkpt>
      <trkpt lat="38.033690" lon="-1.508265">
        <ele>325.294121</ele>
        <time>2021-10-30T08:15:52.000Z</time>
      </trkpt>
      <trkpt lat="38.033837" lon="-1.508059">
        <ele>324.542389</ele>
        <time>2021-10-30T08:15:55.000Z</time>
      </trkpt>
      <trkpt lat="38.033978" lon="-1.507848">
        <ele>324.137609</ele>
        <time>2021-10-30T08:15:58.000Z</time>
      </trkpt>
      <trkpt lat="38.034120" lon="-1.507643">
        <ele>323.738257</ele>
        <time>2021-10-30T08:16:01.000Z</time>
      </trkpt>
      <trkpt lat="38.034278" lon="-1.507367">
        <ele>323.239139</ele>
        <time>2021-10-30T08:16:05.000Z</time>
      </trkpt>
      <trkpt lat="38.034320" lon="-1.507290">
        <ele>323.102128</ele>
        <time>2021-10-30T08:16:06.000Z</time>
      </trkpt>
      <trkpt lat="38.034400" lon="-1.507123">
        <ele>322.816199</ele>
        <time>2021-10-30T08:16:08.000Z</time>
      </trkpt>
      <trkpt lat="38.034499" lon="-1.506867">
        <ele>322.399010</ele>
        <time>2021-10-30T08:16:11.000Z</time>
      </trkpt>
      <trkpt lat="38.034532" lon="-1.506782">
        <ele>322.260385</ele>
        <time>2021-10-30T08:16:12.000Z</time>
      </trkpt>
      <trkpt lat="38.034587" lon="-1.506607">
        <ele>321.984762</ele>
        <time>2021-10-30T08:16:14.000Z</time>
      </trkpt>
      <trkpt lat="38.034615" lon="-1.506422">
        <ele>321.709187</ele>
        <time>2021-10-30T08:16:16.000Z</time>
      </trkpt>
      <trkpt lat="38.034662" lon="-1.506057">
        <ele>321.172575</ele>
        <time>2021-10-30T08:16:20.000Z</time>
      </trkpt>
      <trkpt lat="38.034679" lon="-1.505879">
        <ele>320.916849</ele>
        <time>2021-10-30T08:16:22.000Z</time>
      </trkpt>
      <trkpt lat="38.034694" lon="-1.505526">
        <ele>320.412663</ele>
        <time>2021-10-30T08:16:27.000Z</time>
      </trkpt>
      <trkpt lat="38.034705" lon="-1.505390">
        <ele>320.217678</ele>
        <time>2021-10-30T08:16:30.000Z</time>
      </trkpt>
      <trkpt lat="38.034706" lon="-1.505316">
        <ele>320.112122</ele>
        <time>2021-10-30T08:16:32.000Z</time>
      </trkpt>
      <trkpt lat="38.034718" lon="-1.505292">
        <ele>320.071579</ele>
        <time>2021-10-30T08:16:33.000Z</time>
      </trkpt>
      <trkpt lat="38.034785" lon="-1.505227">
        <ele>319.918894</ele>
        <time>2021-10-30T08:16:36.000Z</time>
      </trkpt>
      <trkpt lat="38.034818" lon="-1.505175">
        <ele>319.823653</ele>
        <time>2021-10-30T08:16:38.000Z</time>
      </trkpt>
      <trkpt lat="38.034885" lon="-1.505105">
        <ele>319.666537</ele>
        <time>2021-10-30T08:16:40.000Z</time>
      </trkpt>
      <trkpt lat="38.034903" lon="-1.505050">
        <ele>319.581593</ele>
        <time>2021-10-30T08:16:41.000Z</time>
      </trkpt>
      <trkpt lat="38.034898" lon="-1.504992">
        <ele>319.498379</ele>
        <time>2021-10-30T08:16:42.000Z</time>
      </trkpt>
      <trkpt lat="38.034870" lon="-1.504869">
        <ele>319.315775</ele>
        <time>2021-10-30T08:16:44.000Z</time>
      </trkpt>
      <trkpt lat="38.034739" lon="-1.504452">
        <ele>318.675484</ele>
        <time>2021-10-30T08:16:50.000Z</time>
      </trkpt>
      <trkpt lat="38.034719" lon="-1.504375">
        <ele>318.559849</ele>
        <time>2021-10-30T08:16:51.000Z</time>
      </trkpt>
      <trkpt lat="38.034698" lon="-1.504207">
        <ele>318.317246</ele>
        <time>2021-10-30T08:16:53.000Z</time>
      </trkpt>
      <trkpt lat="38.034700" lon="-1.504120">
        <ele>318.193112</ele>
        <time>2021-10-30T08:16:54.000Z</time>
      </trkpt>
      <trkpt lat="38.034708" lon="-1.504032">
        <ele>318.054890</ele>
        <time>2021-10-30T08:16:55.000Z</time>
      </trkpt>
      <trkpt lat="38.034733" lon="-1.503856">
        <ele>317.653219</ele>
        <time>2021-10-30T08:16:57.000Z</time>
      </trkpt>
      <trkpt lat="38.034801" lon="-1.503330">
        <ele>316.456022</ele>
        <time>2021-10-30T08:17:03.000Z</time>
      </trkpt>
      <trkpt lat="38.034823" lon="-1.502788">
        <ele>315.237081</ele>
        <time>2021-10-30T08:17:09.000Z</time>
      </trkpt>
      <trkpt lat="38.034811" lon="-1.502604">
        <ele>314.822406</ele>
        <time>2021-10-30T08:17:11.000Z</time>
      </trkpt>
      <trkpt lat="38.034799" lon="-1.502513">
        <ele>314.615176</ele>
        <time>2021-10-30T08:17:12.000Z</time>
      </trkpt>
      <trkpt lat="38.034782" lon="-1.502422">
        <ele>314.405121</ele>
        <time>2021-10-30T08:17:13.000Z</time>
      </trkpt>
      <trkpt lat="38.034720" lon="-1.502150">
        <ele>313.769144</ele>
        <time>2021-10-30T08:17:16.000Z</time>
      </trkpt>
      <trkpt lat="38.034658" lon="-1.501493">
        <ele>312.785153</ele>
        <time>2021-10-30T08:17:23.000Z</time>
      </trkpt>
      <trkpt lat="38.034589" lon="-1.500940">
        <ele>312.462432</ele>
        <time>2021-10-30T08:17:29.000Z</time>
      </trkpt>
      <trkpt lat="38.034588" lon="-1.500767">
        <ele>312.362713</ele>
        <time>2021-10-30T08:17:31.000Z</time>
      </trkpt>
      <trkpt lat="38.034613" lon="-1.500599">
        <ele>312.264165</ele>
        <time>2021-10-30T08:17:33.000Z</time>
      </trkpt>
      <trkpt lat="38.034672" lon="-1.500451">
        <ele>312.168554</ele>
        <time>2021-10-30T08:17:35.000Z</time>
      </trkpt>
      <trkpt lat="38.034753" lon="-1.500323">
        <ele>312.073913</ele>
        <time>2021-10-30T08:17:37.000Z</time>
      </trkpt>
      <trkpt lat="38.034796" lon="-1.500272">
        <ele>312.030852</ele>
        <time>2021-10-30T08:17:38.000Z</time>
      </trkpt>
      <trkpt lat="38.034882" lon="-1.500182">
        <ele>311.949293</ele>
        <time>2021-10-30T08:17:40.000Z</time>
      </trkpt>
      <trkpt lat="38.034904" lon="-1.500132">
        <ele>311.916281</ele>
        <time>2021-10-30T08:17:41.000Z</time>
      </trkpt>
      <trkpt lat="38.034904" lon="-1.500084">
        <ele>311.888614</ele>
        <time>2021-10-30T08:17:42.000Z</time>
      </trkpt>
      <trkpt lat="38.034855" lon="-1.500024">
        <ele>311.838796</ele>
        <time>2021-10-30T08:17:44.000Z</time>
      </trkpt>
      <trkpt lat="38.034816" lon="-1.500012">
        <ele>311.809429</ele>
        <time>2021-10-30T08:17:45.000Z</time>
      </trkpt>
      <trkpt lat="38.034772" lon="-1.500005">
        <ele>311.776978</ele>
        <time>2021-10-30T08:17:46.000Z</time>
      </trkpt>
      <trkpt lat="38.034625" lon="-1.499992">
        <ele>311.669143</ele>
        <time>2021-10-30T08:17:49.000Z</time>
      </trkpt>
      <trkpt lat="38.034519" lon="-1.499972">
        <ele>311.484760</ele>
        <time>2021-10-30T08:17:51.000Z</time>
      </trkpt>
      <trkpt lat="38.034431" lon="-1.499901">
        <ele>311.251620</ele>
        <time>2021-10-30T08:17:53.000Z</time>
      </trkpt>
      <trkpt lat="38.034374" lon="-1.499773">
        <ele>310.992654</ele>
        <time>2021-10-30T08:17:55.000Z</time>
      </trkpt>
      <trkpt lat="38.034346" lon="-1.499627">
        <ele>310.728009</ele>
        <time>2021-10-30T08:17:57.000Z</time>
      </trkpt>
      <trkpt lat="38.034328" lon="-1.499470">
        <ele>310.448590</ele>
        <time>2021-10-30T08:17:59.000Z</time>
      </trkpt>
      <trkpt lat="38.034320" lon="-1.499389">
        <ele>310.304817</ele>
        <time>2021-10-30T08:18:00.000Z</time>
      </trkpt>
      <trkpt lat="38.034284" lon="-1.499069">
        <ele>309.735520</ele>
        <time>2021-10-30T08:18:04.000Z</time>
      </trkpt>
      <trkpt lat="38.034274" lon="-1.498988">
        <ele>309.591122</ele>
        <time>2021-10-30T08:18:05.000Z</time>
      </trkpt>
      <trkpt lat="38.034228" lon="-1.498655">
        <ele>308.995697</ele>
        <time>2021-10-30T08:18:09.000Z</time>
      </trkpt>
      <trkpt lat="38.034179" lon="-1.498316">
        <ele>308.388686</ele>
        <time>2021-10-30T08:18:13.000Z</time>
      </trkpt>
      <trkpt lat="38.034166" lon="-1.498234">
        <ele>308.241373</ele>
        <time>2021-10-30T08:18:14.000Z</time>
      </trkpt>
      <trkpt lat="38.034115" lon="-1.497672">
        <ele>307.669739</ele>
        <time>2021-10-30T08:18:21.000Z</time>
      </trkpt>
      <trkpt lat="38.034122" lon="-1.497259">
        <ele>307.765210</ele>
        <time>2021-10-30T08:18:27.000Z</time>
      </trkpt>
      <trkpt lat="38.034180" lon="-1.496766">
        <ele>307.880412</ele>
        <time>2021-10-30T08:18:34.000Z</time>
      </trkpt>
      <trkpt lat="38.034263" lon="-1.496273">
        <ele>307.996923</ele>
        <time>2021-10-30T08:18:41.000Z</time>
      </trkpt>
      <trkpt lat="38.034268" lon="-1.496204">
        <ele>308.012937</ele>
        <time>2021-10-30T08:18:42.000Z</time>
      </trkpt>
      <trkpt lat="38.034243" lon="-1.496101">
        <ele>308.037846</ele>
        <time>2021-10-30T08:18:44.000Z</time>
      </trkpt>
      <trkpt lat="38.034209" lon="-1.495977">
        <ele>308.068190</ele>
        <time>2021-10-30T08:18:48.000Z</time>
      </trkpt>
      <trkpt lat="38.034214" lon="-1.495939">
        <ele>308.077094</ele>
        <time>2021-10-30T08:18:49.000Z</time>
      </trkpt>
      <trkpt lat="38.034264" lon="-1.495877">
        <ele>308.097602</ele>
        <time>2021-10-30T08:18:51.000Z</time>
      </trkpt>
      <trkpt lat="38.034433" lon="-1.495815">
        <ele>308.145183</ele>
        <time>2021-10-30T08:18:55.000Z</time>
      </trkpt>
      <trkpt lat="38.034694" lon="-1.495716">
        <ele>307.898244</ele>
        <time>2021-10-30T08:19:00.000Z</time>
      </trkpt>
      <trkpt lat="38.034742" lon="-1.495698">
        <ele>307.852872</ele>
        <time>2021-10-30T08:19:01.000Z</time>
      </trkpt>
      <trkpt lat="38.034884" lon="-1.495645">
        <ele>307.718696</ele>
        <time>2021-10-30T08:19:04.000Z</time>
      </trkpt>
      <trkpt lat="38.034927" lon="-1.495619">
        <ele>307.675520</ele>
        <time>2021-10-30T08:19:05.000Z</time>
      </trkpt>
      <trkpt lat="38.034997" lon="-1.495544">
        <ele>307.592486</ele>
        <time>2021-10-30T08:19:07.000Z</time>
      </trkpt>
      <trkpt lat="38.035089" lon="-1.495423">
        <ele>307.472403</ele>
        <time>2021-10-30T08:19:10.000Z</time>
      </trkpt>
      <trkpt lat="38.035129" lon="-1.495325">
        <ele>307.393591</ele>
        <time>2021-10-30T08:19:12.000Z</time>
      </trkpt>
      <trkpt lat="38.035140" lon="-1.495270">
        <ele>307.353074</ele>
        <time>2021-10-30T08:19:13.000Z</time>
      </trkpt>
      <trkpt lat="38.035208" lon="-1.494829">
        <ele>307.032215</ele>
        <time>2021-10-30T08:19:20.000Z</time>
      </trkpt>
      <trkpt lat="38.035248" lon="-1.494616">
        <ele>306.875866</ele>
        <time>2021-10-30T08:19:23.000Z</time>
      </trkpt>
      <trkpt lat="38.035301" lon="-1.494317">
        <ele>306.657036</ele>
        <time>2021-10-30T08:19:27.000Z</time>
      </trkpt>
      <trkpt lat="38.035340" lon="-1.494086">
        <ele>306.429985</ele>
        <time>2021-10-30T08:19:30.000Z</time>
      </trkpt>
      <trkpt lat="38.035411" lon="-1.493693">
        <ele>305.569476</ele>
        <time>2021-10-30T08:19:35.000Z</time>
      </trkpt>
      <trkpt lat="38.035425" lon="-1.493616">
        <ele>305.400824</ele>
        <time>2021-10-30T08:19:36.000Z</time>
      </trkpt>
      <trkpt lat="38.035513" lon="-1.493072">
        <ele>304.215606</ele>
        <time>2021-10-30T08:19:43.000Z</time>
      </trkpt>
      <trkpt lat="38.035587" lon="-1.492759">
        <ele>303.518169</ele>
        <time>2021-10-30T08:19:47.000Z</time>
      </trkpt>
      <trkpt lat="38.035628" lon="-1.492516">
        <ele>302.987802</ele>
        <time>2021-10-30T08:19:50.000Z</time>
      </trkpt>
      <trkpt lat="38.035668" lon="-1.492267">
        <ele>302.445456</ele>
        <time>2021-10-30T08:19:53.000Z</time>
      </trkpt>
      <trkpt lat="38.035694" lon="-1.492096">
        <ele>302.073778</ele>
        <time>2021-10-30T08:19:55.000Z</time>
      </trkpt>
      <trkpt lat="38.035703" lon="-1.492009">
        <ele>301.886512</ele>
        <time>2021-10-30T08:19:56.000Z</time>
      </trkpt>
      <trkpt lat="38.035714" lon="-1.491923">
        <ele>301.700570</ele>
        <time>2021-10-30T08:19:57.000Z</time>
      </trkpt>
      <trkpt lat="38.035726" lon="-1.491835">
        <ele>301.574527</ele>
        <time>2021-10-30T08:19:58.000Z</time>
      </trkpt>
      <trkpt lat="38.035806" lon="-1.491405">
        <ele>301.085467</ele>
        <time>2021-10-30T08:20:03.000Z</time>
      </trkpt>
      <trkpt lat="38.035823" lon="-1.491320">
        <ele>300.988396</ele>
        <time>2021-10-30T08:20:04.000Z</time>
      </trkpt>
      <trkpt lat="38.035881" lon="-1.491075">
        <ele>300.705224</ele>
        <time>2021-10-30T08:20:07.000Z</time>
      </trkpt>
      <trkpt lat="38.035929" lon="-1.490828">
        <ele>300.423625</ele>
        <time>2021-10-30T08:20:10.000Z</time>
      </trkpt>
      <trkpt lat="38.035941" lon="-1.490743">
        <ele>300.328040</ele>
        <time>2021-10-30T08:20:11.000Z</time>
      </trkpt>
      <trkpt lat="38.035967" lon="-1.490572">
        <ele>300.135268</ele>
        <time>2021-10-30T08:20:13.000Z</time>
      </trkpt>
      <trkpt lat="38.036011" lon="-1.490320">
        <ele>299.849562</ele>
        <time>2021-10-30T08:20:16.000Z</time>
      </trkpt>
      <trkpt lat="38.036061" lon="-1.489999">
        <ele>299.487371</ele>
        <time>2021-10-30T08:20:20.000Z</time>
      </trkpt>
      <trkpt lat="38.036137" lon="-1.489594">
        <ele>298.920298</ele>
        <time>2021-10-30T08:20:25.000Z</time>
      </trkpt>
      <trkpt lat="38.036207" lon="-1.489184">
        <ele>297.906793</ele>
        <time>2021-10-30T08:20:30.000Z</time>
      </trkpt>
      <trkpt lat="38.036235" lon="-1.489025">
        <ele>297.513189</ele>
        <time>2021-10-30T08:20:32.000Z</time>
      </trkpt>
      <trkpt lat="38.036252" lon="-1.488956">
        <ele>297.338529</ele>
        <time>2021-10-30T08:20:33.000Z</time>
      </trkpt>
      <trkpt lat="38.036278" lon="-1.488836">
        <ele>297.037858</ele>
        <time>2021-10-30T08:20:35.000Z</time>
      </trkpt>
      <trkpt lat="38.036287" lon="-1.488786">
        <ele>296.913951</ele>
        <time>2021-10-30T08:20:36.000Z</time>
      </trkpt>
      <trkpt lat="38.036321" lon="-1.488639">
        <ele>296.543825</ele>
        <time>2021-10-30T08:20:40.000Z</time>
      </trkpt>
      <trkpt lat="38.036373" lon="-1.488413">
        <ele>295.975023</ele>
        <time>2021-10-30T08:20:46.000Z</time>
      </trkpt>
      <trkpt lat="38.036389" lon="-1.488363">
        <ele>295.844642</ele>
        <time>2021-10-30T08:20:47.000Z</time>
      </trkpt>
      <trkpt lat="38.036482" lon="-1.488061">
        <ele>295.061273</ele>
        <time>2021-10-30T08:20:52.000Z</time>
      </trkpt>
      <trkpt lat="38.036504" lon="-1.487998">
        <ele>294.894786</ele>
        <time>2021-10-30T08:20:53.000Z</time>
      </trkpt>
      <trkpt lat="38.036538" lon="-1.487883">
        <ele>294.598036</ele>
        <time>2021-10-30T08:20:55.000Z</time>
      </trkpt>
      <trkpt lat="38.036542" lon="-1.487793">
        <ele>294.380264</ele>
        <time>2021-10-30T08:20:57.000Z</time>
      </trkpt>
      <trkpt lat="38.036564" lon="-1.487740">
        <ele>294.235531</ele>
        <time>2021-10-30T08:32:00.000Z</time>
      </trkpt>
      <trkpt lat="38.036611" lon="-1.487680">
        <ele>294.031096</ele>
        <time>2021-10-30T08:32:04.000Z</time>
      </trkpt>
      <trkpt lat="38.036625" lon="-1.487637">
        <ele>293.918690</ele>
        <time>2021-10-30T08:32:05.000Z</time>
      </trkpt>
      <trkpt lat="38.036670" lon="-1.487463">
        <ele>293.496033</ele>
        <time>2021-10-30T08:32:08.000Z</time>
      </trkpt>
      <trkpt lat="38.036688" lon="-1.487403">
        <ele>293.365831</ele>
        <time>2021-10-30T08:32:09.000Z</time>
      </trkpt>
      <trkpt lat="38.036740" lon="-1.487222">
        <ele>292.975125</ele>
        <time>2021-10-30T08:32:12.000Z</time>
      </trkpt>
      <trkpt lat="38.036750" lon="-1.487151">
        <ele>292.828860</ele>
        <time>2021-10-30T08:32:13.000Z</time>
      </trkpt>
      <trkpt lat="38.036762" lon="-1.487076">
        <ele>292.673661</ele>
        <time>2021-10-30T08:32:14.000Z</time>
      </trkpt>
      <trkpt lat="38.036893" lon="-1.486632">
        <ele>291.712172</ele>
        <time>2021-10-30T08:32:20.000Z</time>
      </trkpt>
      <trkpt lat="38.037003" lon="-1.486255">
        <ele>290.896881</ele>
        <time>2021-10-30T08:32:25.000Z</time>
      </trkpt>
      <trkpt lat="38.037066" lon="-1.486026">
        <ele>290.404979</ele>
        <time>2021-10-30T08:32:28.000Z</time>
      </trkpt>
      <trkpt lat="38.037086" lon="-1.485950">
        <ele>290.242484</ele>
        <time>2021-10-30T08:32:29.000Z</time>
      </trkpt>
      <trkpt lat="38.037177" lon="-1.485644">
        <ele>289.579189</ele>
        <time>2021-10-30T08:32:33.000Z</time>
      </trkpt>
      <trkpt lat="38.037266" lon="-1.485330">
        <ele>288.922994</ele>
        <time>2021-10-30T08:32:37.000Z</time>
      </trkpt>
      <trkpt lat="38.037315" lon="-1.485173">
        <ele>288.687184</ele>
        <time>2021-10-30T08:32:39.000Z</time>
      </trkpt>
      <trkpt lat="38.037411" lon="-1.484857">
        <ele>288.214254</ele>
        <time>2021-10-30T08:32:43.000Z</time>
      </trkpt>
      <trkpt lat="38.037489" lon="-1.484628">
        <ele>287.865871</ele>
        <time>2021-10-30T08:32:46.000Z</time>
      </trkpt>
      <trkpt lat="38.037535" lon="-1.484472">
        <ele>287.633277</ele>
        <time>2021-10-30T08:32:48.000Z</time>
      </trkpt>
      <trkpt lat="38.037640" lon="-1.484061">
        <ele>287.029946</ele>
        <time>2021-10-30T08:32:53.000Z</time>
      </trkpt>
      <trkpt lat="38.037718" lon="-1.483812">
        <ele>286.655768</ele>
        <time>2021-10-30T08:32:56.000Z</time>
      </trkpt>
      <trkpt lat="38.037743" lon="-1.483728">
        <ele>286.530381</ele>
        <time>2021-10-30T08:32:57.000Z</time>
      </trkpt>
      <trkpt lat="38.037800" lon="-1.483565">
        <ele>286.281354</ele>
        <time>2021-10-30T08:32:59.000Z</time>
      </trkpt>
      <trkpt lat="38.037855" lon="-1.483401">
        <ele>286.032460</ele>
        <time>2021-10-30T08:33:01.000Z</time>
      </trkpt>
      <trkpt lat="38.037884" lon="-1.483321">
        <ele>285.909489</ele>
        <time>2021-10-30T08:33:02.000Z</time>
      </trkpt>
      <trkpt lat="38.037932" lon="-1.483163">
        <ele>285.775383</ele>
        <time>2021-10-30T08:33:04.000Z</time>
      </trkpt>
      <trkpt lat="38.037943" lon="-1.483085">
        <ele>285.770988</ele>
        <time>2021-10-30T08:33:05.000Z</time>
      </trkpt>
      <trkpt lat="38.037933" lon="-1.483006">
        <ele>285.766549</ele>
        <time>2021-10-30T08:33:06.000Z</time>
      </trkpt>
      <trkpt lat="38.037900" lon="-1.482938">
        <ele>285.762118</ele>
        <time>2021-10-30T08:33:07.000Z</time>
      </trkpt>
      <trkpt lat="38.037851" lon="-1.482889">
        <ele>285.757725</ele>
        <time>2021-10-30T08:33:08.000Z</time>
      </trkpt>
      <trkpt lat="38.037794" lon="-1.482853">
        <ele>285.753241</ele>
        <time>2021-10-30T08:33:09.000Z</time>
      </trkpt>
      <trkpt lat="38.037566" lon="-1.482717">
        <ele>285.735497</ele>
        <time>2021-10-30T08:33:13.000Z</time>
      </trkpt>
      <trkpt lat="38.037517" lon="-1.482669">
        <ele>285.731138</ele>
        <time>2021-10-30T08:33:14.000Z</time>
      </trkpt>
      <trkpt lat="38.037476" lon="-1.482611">
        <ele>285.726815</ele>
        <time>2021-10-30T08:33:15.000Z</time>
      </trkpt>
      <trkpt lat="38.037423" lon="-1.482466">
        <ele>285.717947</ele>
        <time>2021-10-30T08:33:17.000Z</time>
      </trkpt>
      <trkpt lat="38.037388" lon="-1.482051">
        <ele>285.694793</ele>
        <time>2021-10-30T08:33:22.000Z</time>
      </trkpt>
      <trkpt lat="38.037360" lon="-1.481631">
        <ele>285.671410</ele>
        <time>2021-10-30T08:33:27.000Z</time>
      </trkpt>
      <trkpt lat="38.037354" lon="-1.481549">
        <ele>285.666841</ele>
        <time>2021-10-30T08:33:28.000Z</time>
      </trkpt>
      <trkpt lat="38.037328" lon="-1.481305">
        <ele>285.653182</ele>
        <time>2021-10-30T08:33:31.000Z</time>
      </trkpt>
      <trkpt lat="38.037264" lon="-1.481025">
        <ele>285.549605</ele>
        <time>2021-10-30T08:33:35.000Z</time>
      </trkpt>
      <trkpt lat="38.037237" lon="-1.480976">
        <ele>285.528077</ele>
        <time>2021-10-30T08:33:36.000Z</time>
      </trkpt>
      <trkpt lat="38.037207" lon="-1.480942">
        <ele>285.509697</ele>
        <time>2021-10-30T08:33:37.000Z</time>
      </trkpt>
      <trkpt lat="38.037152" lon="-1.480912">
        <ele>285.482336</ele>
        <time>2021-10-30T08:33:39.000Z</time>
      </trkpt>
      <trkpt lat="38.037111" lon="-1.480895">
        <ele>285.462622</ele>
        <time>2021-10-30T08:33:41.000Z</time>
      </trkpt>
      <trkpt lat="38.037010" lon="-1.480839">
        <ele>285.412248</ele>
        <time>2021-10-30T08:33:45.000Z</time>
      </trkpt>
      <trkpt lat="38.036988" lon="-1.480813">
        <ele>285.398510</ele>
        <time>2021-10-30T08:33:46.000Z</time>
      </trkpt>
      <trkpt lat="38.036976" lon="-1.480714">
        <ele>285.362451</ele>
        <time>2021-10-30T08:33:48.000Z</time>
      </trkpt>
      <trkpt lat="38.037046" lon="-1.480384">
        <ele>285.239419</ele>
        <time>2021-10-30T08:33:53.000Z</time>
      </trkpt>
      <trkpt lat="38.037095" lon="-1.480168">
        <ele>285.158499</ele>
        <time>2021-10-30T08:33:56.000Z</time>
      </trkpt>
      <trkpt lat="38.037125" lon="-1.480011">
        <ele>285.100340</ele>
        <time>2021-10-30T08:33:58.000Z</time>
      </trkpt>
      <trkpt lat="38.037162" lon="-1.479843">
        <ele>285.037541</ele>
        <time>2021-10-30T08:34:00.000Z</time>
      </trkpt>
      <trkpt lat="38.037182" lon="-1.479755">
        <ele>285.004569</ele>
        <time>2021-10-30T08:34:01.000Z</time>
      </trkpt>
      <trkpt lat="38.037232" lon="-1.479488">
        <ele>284.905770</ele>
        <time>2021-10-30T08:34:04.000Z</time>
      </trkpt>
      <trkpt lat="38.037272" lon="-1.479316">
        <ele>284.841208</ele>
        <time>2021-10-30T08:34:06.000Z</time>
      </trkpt>
      <trkpt lat="38.037423" lon="-1.478824">
        <ele>284.557001</ele>
        <time>2021-10-30T08:34:12.000Z</time>
      </trkpt>
      <trkpt lat="38.037439" lon="-1.478737">
        <ele>284.507995</ele>
        <time>2021-10-30T08:34:13.000Z</time>
      </trkpt>
      <trkpt lat="38.037481" lon="-1.478472">
        <ele>284.359718</ele>
        <time>2021-10-30T08:34:16.000Z</time>
      </trkpt>
      <trkpt lat="38.037517" lon="-1.478298">
        <ele>284.261034</ele>
        <time>2021-10-30T08:34:18.000Z</time>
      </trkpt>
      <trkpt lat="38.037569" lon="-1.478041">
        <ele>284.115482</ele>
        <time>2021-10-30T08:34:21.000Z</time>
      </trkpt>
      <trkpt lat="38.037601" lon="-1.477870">
        <ele>284.019070</ele>
        <time>2021-10-30T08:34:23.000Z</time>
      </trkpt>
      <trkpt lat="38.037633" lon="-1.477700">
        <ele>283.923193</ele>
        <time>2021-10-30T08:34:25.000Z</time>
      </trkpt>
      <trkpt lat="38.037713" lon="-1.477270">
        <ele>283.680830</ele>
        <time>2021-10-30T08:34:30.000Z</time>
      </trkpt>
      <trkpt lat="38.037744" lon="-1.477101">
        <ele>283.585646</ele>
        <time>2021-10-30T08:34:32.000Z</time>
      </trkpt>
      <trkpt lat="38.037762" lon="-1.477016">
        <ele>283.567895</ele>
        <time>2021-10-30T08:34:33.000Z</time>
      </trkpt>
      <trkpt lat="38.037811" lon="-1.476755">
        <ele>283.530934</ele>
        <time>2021-10-30T08:34:36.000Z</time>
      </trkpt>
      <trkpt lat="38.037827" lon="-1.476669">
        <ele>283.518761</ele>
        <time>2021-10-30T08:34:37.000Z</time>
      </trkpt>
      <trkpt lat="38.037860" lon="-1.476497">
        <ele>283.494375</ele>
        <time>2021-10-30T08:34:39.000Z</time>
      </trkpt>
      <trkpt lat="38.037877" lon="-1.476412">
        <ele>283.482294</ele>
        <time>2021-10-30T08:34:40.000Z</time>
      </trkpt>
      <trkpt lat="38.037909" lon="-1.476243">
        <ele>283.458351</ele>
        <time>2021-10-30T08:34:42.000Z</time>
      </trkpt>
      <trkpt lat="38.037991" lon="-1.475818">
        <ele>283.398075</ele>
        <time>2021-10-30T08:34:47.000Z</time>
      </trkpt>
      <trkpt lat="38.038050" lon="-1.475478">
        <ele>283.350116</ele>
        <time>2021-10-30T08:34:51.000Z</time>
      </trkpt>
      <trkpt lat="38.038110" lon="-1.475142">
        <ele>283.302656</ele>
        <time>2021-10-30T08:34:55.000Z</time>
      </trkpt>
      <trkpt lat="38.038178" lon="-1.474808">
        <ele>283.125293</ele>
        <time>2021-10-30T08:34:59.000Z</time>
      </trkpt>
      <trkpt lat="38.038300" lon="-1.474132">
        <ele>281.555429</ele>
        <time>2021-10-30T08:35:07.000Z</time>
      </trkpt>
      <trkpt lat="38.038330" lon="-1.473963">
        <ele>281.163282</ele>
        <time>2021-10-30T08:35:09.000Z</time>
      </trkpt>
      <trkpt lat="38.038362" lon="-1.473795">
        <ele>280.772032</ele>
        <time>2021-10-30T08:35:11.000Z</time>
      </trkpt>
      <trkpt lat="38.038423" lon="-1.473454">
        <ele>279.980481</ele>
        <time>2021-10-30T08:35:15.000Z</time>
      </trkpt>
      <trkpt lat="38.038470" lon="-1.473201">
        <ele>279.392072</ele>
        <time>2021-10-30T08:35:18.000Z</time>
      </trkpt>
      <trkpt lat="38.038486" lon="-1.473118">
        <ele>279.198647</ele>
        <time>2021-10-30T08:35:19.000Z</time>
      </trkpt>
      <trkpt lat="38.038551" lon="-1.472781">
        <ele>278.413269</ele>
        <time>2021-10-30T08:35:23.000Z</time>
      </trkpt>
      <trkpt lat="38.038615" lon="-1.472439">
        <ele>277.924208</ele>
        <time>2021-10-30T08:35:27.000Z</time>
      </trkpt>
      <trkpt lat="38.038631" lon="-1.472354">
        <ele>277.853674</ele>
        <time>2021-10-30T08:35:28.000Z</time>
      </trkpt>
      <trkpt lat="38.038713" lon="-1.471929">
        <ele>277.500524</ele>
        <time>2021-10-30T08:35:33.000Z</time>
      </trkpt>
      <trkpt lat="38.038779" lon="-1.471590">
        <ele>277.218690</ele>
        <time>2021-10-30T08:35:37.000Z</time>
      </trkpt>
      <trkpt lat="38.038795" lon="-1.471506">
        <ele>277.148942</ele>
        <time>2021-10-30T08:35:38.000Z</time>
      </trkpt>
      <trkpt lat="38.038843" lon="-1.471253">
        <ele>276.938911</ele>
        <time>2021-10-30T08:35:41.000Z</time>
      </trkpt>
      <trkpt lat="38.038938" lon="-1.470753">
        <ele>276.523797</ele>
        <time>2021-10-30T08:35:47.000Z</time>
      </trkpt>
      <trkpt lat="38.039036" lon="-1.470331">
        <ele>276.174185</ele>
        <time>2021-10-30T08:35:52.000Z</time>
      </trkpt>
      <trkpt lat="38.039105" lon="-1.469983">
        <ele>275.903815</ele>
        <time>2021-10-30T08:35:56.000Z</time>
      </trkpt>
      <trkpt lat="38.039159" lon="-1.469677">
        <ele>275.667553</ele>
        <time>2021-10-30T08:36:00.000Z</time>
      </trkpt>
      <trkpt lat="38.039165" lon="-1.469606">
        <ele>275.613754</ele>
        <time>2021-10-30T08:36:01.000Z</time>
      </trkpt>
      <trkpt lat="38.039214" lon="-1.469297">
        <ele>275.376276</ele>
        <time>2021-10-30T08:36:05.000Z</time>
      </trkpt>
      <trkpt lat="38.039236" lon="-1.469136">
        <ele>275.253164</ele>
        <time>2021-10-30T08:36:07.000Z</time>
      </trkpt>
      <trkpt lat="38.039302" lon="-1.468741">
        <ele>274.948942</ele>
        <time>2021-10-30T08:36:12.000Z</time>
      </trkpt>
      <trkpt lat="38.039365" lon="-1.468425">
        <ele>274.703354</ele>
        <time>2021-10-30T08:36:16.000Z</time>
      </trkpt>
      <trkpt lat="38.039412" lon="-1.468279">
        <ele>274.584521</ele>
        <time>2021-10-30T08:36:18.000Z</time>
      </trkpt>
      <trkpt lat="38.039441" lon="-1.468126">
        <ele>274.450482</ele>
        <time>2021-10-30T08:36:20.000Z</time>
      </trkpt>
      <trkpt lat="38.039509" lon="-1.467724">
        <ele>274.066298</ele>
        <time>2021-10-30T08:36:25.000Z</time>
      </trkpt>
      <trkpt lat="38.039565" lon="-1.467401">
        <ele>273.757269</ele>
        <time>2021-10-30T08:36:29.000Z</time>
      </trkpt>
      <trkpt lat="38.039688" lon="-1.466763">
        <ele>273.143539</ele>
        <time>2021-10-30T08:36:37.000Z</time>
      </trkpt>
      <trkpt lat="38.039749" lon="-1.466434">
        <ele>272.827727</ele>
        <time>2021-10-30T08:36:41.000Z</time>
      </trkpt>
      <trkpt lat="38.039861" lon="-1.465847">
        <ele>272.258986</ele>
        <time>2021-10-30T08:36:48.000Z</time>
      </trkpt>
      <trkpt lat="38.039876" lon="-1.465763">
        <ele>272.175847</ele>
        <time>2021-10-30T08:36:49.000Z</time>
      </trkpt>
      <trkpt lat="38.039968" lon="-1.465257">
        <ele>271.674585</ele>
        <time>2021-10-30T08:36:55.000Z</time>
      </trkpt>
      <trkpt lat="38.040062" lon="-1.464758">
        <ele>271.179340</ele>
        <time>2021-10-30T08:37:01.000Z</time>
      </trkpt>
      <trkpt lat="38.040137" lon="-1.464342">
        <ele>270.767411</ele>
        <time>2021-10-30T08:37:06.000Z</time>
      </trkpt>
      <trkpt lat="38.040232" lon="-1.463839">
        <ele>270.268127</ele>
        <time>2021-10-30T08:37:12.000Z</time>
      </trkpt>
      <trkpt lat="38.040334" lon="-1.463327">
        <ele>269.692743</ele>
        <time>2021-10-30T08:37:18.000Z</time>
      </trkpt>
      <trkpt lat="38.040384" lon="-1.463063">
        <ele>269.391011</ele>
        <time>2021-10-30T08:37:21.000Z</time>
      </trkpt>
      <trkpt lat="38.040467" lon="-1.462629">
        <ele>268.894714</ele>
        <time>2021-10-30T08:37:26.000Z</time>
      </trkpt>
      <trkpt lat="38.040498" lon="-1.462457">
        <ele>268.698639</ele>
        <time>2021-10-30T08:37:28.000Z</time>
      </trkpt>
      <trkpt lat="38.040611" lon="-1.461856">
        <ele>268.012013</ele>
        <time>2021-10-30T08:37:35.000Z</time>
      </trkpt>
      <trkpt lat="38.040626" lon="-1.461770">
        <ele>267.914131</ele>
        <time>2021-10-30T08:37:36.000Z</time>
      </trkpt>
      <trkpt lat="38.040673" lon="-1.461512">
        <ele>267.627575</ele>
        <time>2021-10-30T08:37:39.000Z</time>
      </trkpt>
      <trkpt lat="38.040771" lon="-1.460984">
        <ele>267.159818</ele>
        <time>2021-10-30T08:37:45.000Z</time>
      </trkpt>
      <trkpt lat="38.040879" lon="-1.460454">
        <ele>266.687760</ele>
        <time>2021-10-30T08:37:51.000Z</time>
      </trkpt>
      <trkpt lat="38.040895" lon="-1.460366">
        <ele>266.609884</ele>
        <time>2021-10-30T08:37:52.000Z</time>
      </trkpt>
      <trkpt lat="38.040923" lon="-1.460188">
        <ele>266.453367</ele>
        <time>2021-10-30T08:37:54.000Z</time>
      </trkpt>
      <trkpt lat="38.041055" lon="-1.459494">
        <ele>265.837741</ele>
        <time>2021-10-30T08:38:02.000Z</time>
      </trkpt>
      <trkpt lat="38.041070" lon="-1.459407">
        <ele>265.760947</ele>
        <time>2021-10-30T08:38:03.000Z</time>
      </trkpt>
      <trkpt lat="38.041105" lon="-1.459137">
        <ele>265.646920</ele>
        <time>2021-10-30T08:38:06.000Z</time>
      </trkpt>
      <trkpt lat="38.041136" lon="-1.458775">
        <ele>265.572141</ele>
        <time>2021-10-30T08:38:10.000Z</time>
      </trkpt>
      <trkpt lat="38.041144" lon="-1.458595">
        <ele>265.535117</ele>
        <time>2021-10-30T08:38:12.000Z</time>
      </trkpt>
      <trkpt lat="38.041140" lon="-1.458414">
        <ele>265.497932</ele>
        <time>2021-10-30T08:38:14.000Z</time>
      </trkpt>
      <trkpt lat="38.041135" lon="-1.458325">
        <ele>265.479609</ele>
        <time>2021-10-30T08:38:15.000Z</time>
      </trkpt>
      <trkpt lat="38.041128" lon="-1.458235">
        <ele>265.461036</ele>
        <time>2021-10-30T08:38:16.000Z</time>
      </trkpt>
      <trkpt lat="38.041099" lon="-1.457967">
        <ele>265.405483</ele>
        <time>2021-10-30T08:38:19.000Z</time>
      </trkpt>
      <trkpt lat="38.041037" lon="-1.457620">
        <ele>265.332411</ele>
        <time>2021-10-30T08:38:23.000Z</time>
      </trkpt>
      <trkpt lat="38.040935" lon="-1.457153">
        <ele>265.232888</ele>
        <time>2021-10-30T08:38:29.000Z</time>
      </trkpt>
      <trkpt lat="38.040893" lon="-1.456947">
        <ele>265.252942</ele>
        <time>2021-10-30T08:38:32.000Z</time>
      </trkpt>
      <trkpt lat="38.040828" lon="-1.456690">
        <ele>265.329162</ele>
        <time>2021-10-30T08:38:36.000Z</time>
      </trkpt>
      <trkpt lat="38.040714" lon="-1.456144">
        <ele>265.488663</ele>
        <time>2021-10-30T08:38:44.000Z</time>
      </trkpt>
      <trkpt lat="38.040682" lon="-1.455640">
        <ele>265.631441</ele>
        <time>2021-10-30T08:38:51.000Z</time>
      </trkpt>
      <trkpt lat="38.040681" lon="-1.455571">
        <ele>265.650928</ele>
        <time>2021-10-30T08:38:52.000Z</time>
      </trkpt>
      <trkpt lat="38.040683" lon="-1.455443">
        <ele>265.687079</ele>
        <time>2021-10-30T08:38:54.000Z</time>
      </trkpt>
      <trkpt lat="38.040674" lon="-1.455314">
        <ele>265.723647</ele>
        <time>2021-10-30T08:38:56.000Z</time>
      </trkpt>
      <trkpt lat="38.040657" lon="-1.454970">
        <ele>265.820975</ele>
        <time>2021-10-30T08:39:01.000Z</time>
      </trkpt>
      <trkpt lat="38.040657" lon="-1.454685">
        <ele>265.904787</ele>
        <time>2021-10-30T08:39:05.000Z</time>
      </trkpt>
      <trkpt lat="38.040659" lon="-1.454361">
        <ele>266.003807</ele>
        <time>2021-10-30T08:39:10.000Z</time>
      </trkpt>
      <trkpt lat="38.040640" lon="-1.454303">
        <ele>266.023004</ele>
        <time>2021-10-30T08:39:11.000Z</time>
      </trkpt>
      <trkpt lat="38.040614" lon="-1.454247">
        <ele>266.042871</ele>
        <time>2021-10-30T08:39:12.000Z</time>
      </trkpt>
      <trkpt lat="38.040502" lon="-1.454109">
        <ele>266.103430</ele>
        <time>2021-10-30T08:39:15.000Z</time>
      </trkpt>
      <trkpt lat="38.040466" lon="-1.454066">
        <ele>266.122609</ele>
        <time>2021-10-30T08:39:16.000Z</time>
      </trkpt>
      <trkpt lat="38.040436" lon="-1.454018">
        <ele>266.141336</ele>
        <time>2021-10-30T08:39:17.000Z</time>
      </trkpt>
      <trkpt lat="38.040416" lon="-1.453901">
        <ele>266.177925</ele>
        <time>2021-10-30T08:39:19.000Z</time>
      </trkpt>
      <trkpt lat="38.040398" lon="-1.453556">
        <ele>266.283591</ele>
        <time>2021-10-30T08:39:24.000Z</time>
      </trkpt>
      <trkpt lat="38.040402" lon="-1.453394">
        <ele>266.333123</ele>
        <time>2021-10-30T08:39:26.000Z</time>
      </trkpt>
      <trkpt lat="38.040437" lon="-1.453153">
        <ele>266.408017</ele>
        <time>2021-10-30T08:39:29.000Z</time>
      </trkpt>
      <trkpt lat="38.040488" lon="-1.452935">
        <ele>266.477517</ele>
        <time>2021-10-30T08:39:32.000Z</time>
      </trkpt>
      <trkpt lat="38.040533" lon="-1.452799">
        <ele>266.522598</ele>
        <time>2021-10-30T08:39:34.000Z</time>
      </trkpt>
      <trkpt lat="38.040580" lon="-1.452670">
        <ele>266.531736</ele>
        <time>2021-10-30T08:39:36.000Z</time>
      </trkpt>
      <trkpt lat="38.040694" lon="-1.452449">
        <ele>266.227156</ele>
        <time>2021-10-30T08:39:40.000Z</time>
      </trkpt>
      <trkpt lat="38.040718" lon="-1.452397">
        <ele>266.157669</ele>
        <time>2021-10-30T08:39:41.000Z</time>
      </trkpt>
      <trkpt lat="38.040735" lon="-1.452346">
        <ele>266.093821</ele>
        <time>2021-10-30T08:39:42.000Z</time>
      </trkpt>
      <trkpt lat="38.040756" lon="-1.452296">
        <ele>266.028491</ele>
        <time>2021-10-30T08:39:43.000Z</time>
      </trkpt>
      <trkpt lat="38.040837" lon="-1.452142">
        <ele>265.814989</ele>
        <time>2021-10-30T08:39:46.000Z</time>
      </trkpt>
      <trkpt lat="38.040911" lon="-1.452028">
        <ele>265.644669</ele>
        <time>2021-10-30T08:39:48.000Z</time>
      </trkpt>
      <trkpt lat="38.040949" lon="-1.451965">
        <ele>265.553182</ele>
        <time>2021-10-30T08:39:49.000Z</time>
      </trkpt>
      <trkpt lat="38.040991" lon="-1.451905">
        <ele>265.460633</ele>
        <time>2021-10-30T08:39:50.000Z</time>
      </trkpt>
      <trkpt lat="38.041032" lon="-1.451848">
        <ele>265.371634</ele>
        <time>2021-10-30T08:39:51.000Z</time>
      </trkpt>
      <trkpt lat="38.041120" lon="-1.451741">
        <ele>265.193273</ele>
        <time>2021-10-30T08:39:53.000Z</time>
      </trkpt>
      <trkpt lat="38.041243" lon="-1.451562">
        <ele>264.919396</ele>
        <time>2021-10-30T08:39:56.000Z</time>
      </trkpt>
      <trkpt lat="38.041491" lon="-1.451295">
        <ele>264.443418</ele>
        <time>2021-10-30T08:40:01.000Z</time>
      </trkpt>
      <trkpt lat="38.041725" lon="-1.451081">
        <ele>264.021270</ele>
        <time>2021-10-30T08:40:05.000Z</time>
      </trkpt>
      <trkpt lat="38.041776" lon="-1.451026">
        <ele>263.922919</ele>
        <time>2021-10-30T08:40:06.000Z</time>
      </trkpt>
      <trkpt lat="38.041879" lon="-1.450918">
        <ele>263.696563</ele>
        <time>2021-10-30T08:40:08.000Z</time>
      </trkpt>
      <trkpt lat="38.042034" lon="-1.450756">
        <ele>263.356375</ele>
        <time>2021-10-30T08:40:11.000Z</time>
      </trkpt>
      <trkpt lat="38.042186" lon="-1.450587">
        <ele>263.014016</ele>
        <time>2021-10-30T08:40:14.000Z</time>
      </trkpt>
      <trkpt lat="38.042286" lon="-1.450476">
        <ele>262.788943</ele>
        <time>2021-10-30T08:40:16.000Z</time>
      </trkpt>
      <trkpt lat="38.042482" lon="-1.450260">
        <ele>262.349166</ele>
        <time>2021-10-30T08:40:20.000Z</time>
      </trkpt>
      <trkpt lat="38.042581" lon="-1.450158">
        <ele>262.133128</ele>
        <time>2021-10-30T08:40:22.000Z</time>
      </trkpt>
      <trkpt lat="38.042722" lon="-1.449990">
        <ele>261.805479</ele>
        <time>2021-10-30T08:40:25.000Z</time>
      </trkpt>
      <trkpt lat="38.042771" lon="-1.449939">
        <ele>261.698116</ele>
        <time>2021-10-30T08:40:26.000Z</time>
      </trkpt>
      <trkpt lat="38.043015" lon="-1.449662">
        <ele>261.143493</ele>
        <time>2021-10-30T08:40:31.000Z</time>
      </trkpt>
      <trkpt lat="38.043062" lon="-1.449606">
        <ele>261.034277</ele>
        <time>2021-10-30T08:40:32.000Z</time>
      </trkpt>
      <trkpt lat="38.043162" lon="-1.449419">
        <ele>260.829817</ele>
        <time>2021-10-30T08:40:35.000Z</time>
      </trkpt>
      <trkpt lat="38.043212" lon="-1.449377">
        <ele>260.796148</ele>
        <time>2021-10-30T08:40:36.000Z</time>
      </trkpt>
      <trkpt lat="38.043425" lon="-1.449138">
        <ele>260.636513</ele>
        <time>2021-10-30T08:40:41.000Z</time>
      </trkpt>
      <trkpt lat="38.043470" lon="-1.449086">
        <ele>260.602342</ele>
        <time>2021-10-30T08:40:42.000Z</time>
      </trkpt>
      <trkpt lat="38.043768" lon="-1.448697">
        <ele>260.362321</ele>
        <time>2021-10-30T08:40:49.000Z</time>
      </trkpt>
      <trkpt lat="38.043841" lon="-1.448576">
        <ele>260.294905</ele>
        <time>2021-10-30T08:40:51.000Z</time>
      </trkpt>
      <trkpt lat="38.043999" lon="-1.448255">
        <ele>260.127483</ele>
        <time>2021-10-30T08:40:56.000Z</time>
      </trkpt>
      <trkpt lat="38.044184" lon="-1.447691">
        <ele>259.853355</ele>
        <time>2021-10-30T08:41:04.000Z</time>
      </trkpt>
      <trkpt lat="38.044261" lon="-1.447379">
        <ele>259.655473</ele>
        <time>2021-10-30T08:41:08.000Z</time>
      </trkpt>
      <trkpt lat="38.044280" lon="-1.447221">
        <ele>259.558740</ele>
        <time>2021-10-30T08:41:10.000Z</time>
      </trkpt>
      <trkpt lat="38.044307" lon="-1.446593">
        <ele>259.178097</ele>
        <time>2021-10-30T08:41:18.000Z</time>
      </trkpt>
      <trkpt lat="38.044304" lon="-1.446286">
        <ele>258.992281</ele>
        <time>2021-10-30T08:41:22.000Z</time>
      </trkpt>
      <trkpt lat="38.044303" lon="-1.446130">
        <ele>258.897864</ele>
        <time>2021-10-30T08:41:24.000Z</time>
      </trkpt>
      <trkpt lat="38.044278" lon="-1.445751">
        <ele>258.667683</ele>
        <time>2021-10-30T08:41:29.000Z</time>
      </trkpt>
      <trkpt lat="38.044276" lon="-1.445675">
        <ele>258.621661</ele>
        <time>2021-10-30T08:41:30.000Z</time>
      </trkpt>
      <trkpt lat="38.044243" lon="-1.445216">
        <ele>258.332445</ele>
        <time>2021-10-30T08:41:36.000Z</time>
      </trkpt>
      <trkpt lat="38.044237" lon="-1.445062">
        <ele>258.232424</ele>
        <time>2021-10-30T08:41:38.000Z</time>
      </trkpt>
      <trkpt lat="38.044202" lon="-1.444524">
        <ele>257.882237</ele>
        <time>2021-10-30T08:41:45.000Z</time>
      </trkpt>
      <trkpt lat="38.044198" lon="-1.444446">
        <ele>257.831532</ele>
        <time>2021-10-30T08:41:46.000Z</time>
      </trkpt>
      <trkpt lat="38.044194" lon="-1.444367">
        <ele>257.780179</ele>
        <time>2021-10-30T08:41:47.000Z</time>
      </trkpt>
      <trkpt lat="38.044160" lon="-1.443741">
        <ele>257.373131</ele>
        <time>2021-10-30T08:41:55.000Z</time>
      </trkpt>
      <trkpt lat="38.044157" lon="-1.443584">
        <ele>257.271255</ele>
        <time>2021-10-30T08:41:57.000Z</time>
      </trkpt>
      <trkpt lat="38.044124" lon="-1.442948">
        <ele>256.838283</ele>
        <time>2021-10-30T08:42:05.000Z</time>
      </trkpt>
      <trkpt lat="38.044113" lon="-1.442787">
        <ele>256.719471</ele>
        <time>2021-10-30T08:42:07.000Z</time>
      </trkpt>
      <trkpt lat="38.044106" lon="-1.442625">
        <ele>256.600189</ele>
        <time>2021-10-30T08:42:09.000Z</time>
      </trkpt>
      <trkpt lat="38.044112" lon="-1.442465">
        <ele>256.482423</ele>
        <time>2021-10-30T08:42:11.000Z</time>
      </trkpt>
      <trkpt lat="38.044119" lon="-1.442384">
        <ele>256.422514</ele>
        <time>2021-10-30T08:42:12.000Z</time>
      </trkpt>
      <trkpt lat="38.044117" lon="-1.442304">
        <ele>256.363668</ele>
        <time>2021-10-30T08:42:13.000Z</time>
      </trkpt>
      <trkpt lat="38.044091" lon="-1.442062">
        <ele>256.184100</ele>
        <time>2021-10-30T08:42:16.000Z</time>
      </trkpt>
      <trkpt lat="38.044080" lon="-1.441894">
        <ele>256.060160</ele>
        <time>2021-10-30T08:42:18.000Z</time>
      </trkpt>
      <trkpt lat="38.044050" lon="-1.441207">
        <ele>255.554298</ele>
        <time>2021-10-30T08:42:26.000Z</time>
      </trkpt>
      <trkpt lat="38.044046" lon="-1.441122">
        <ele>255.491694</ele>
        <time>2021-10-30T08:42:27.000Z</time>
      </trkpt>
      <trkpt lat="38.044036" lon="-1.440955">
        <ele>255.368561</ele>
        <time>2021-10-30T08:42:29.000Z</time>
      </trkpt>
      <trkpt lat="38.044017" lon="-1.440623">
        <ele>255.184104</ele>
        <time>2021-10-30T08:42:33.000Z</time>
      </trkpt>
      <trkpt lat="38.044010" lon="-1.440379">
        <ele>255.058394</ele>
        <time>2021-10-30T08:42:36.000Z</time>
      </trkpt>
      <trkpt lat="38.043986" lon="-1.439891">
        <ele>254.806652</ele>
        <time>2021-10-30T08:42:42.000Z</time>
      </trkpt>
      <trkpt lat="38.043982" lon="-1.439725">
        <ele>254.721145</ele>
        <time>2021-10-30T08:42:44.000Z</time>
      </trkpt>
      <trkpt lat="38.043940" lon="-1.438997">
        <ele>254.345321</ele>
        <time>2021-10-30T08:42:53.000Z</time>
      </trkpt>
      <trkpt lat="38.043924" lon="-1.438590">
        <ele>254.128730</ele>
        <time>2021-10-30T08:42:58.000Z</time>
      </trkpt>
      <trkpt lat="38.043914" lon="-1.438342">
        <ele>253.936894</ele>
        <time>2021-10-30T08:43:01.000Z</time>
      </trkpt>
      <trkpt lat="38.043872" lon="-1.437614">
        <ele>253.372991</ele>
        <time>2021-10-30T08:43:10.000Z</time>
      </trkpt>
      <trkpt lat="38.043861" lon="-1.437374">
        <ele>253.187272</ele>
        <time>2021-10-30T08:43:13.000Z</time>
      </trkpt>
      <trkpt lat="38.043859" lon="-1.437293">
        <ele>253.124667</ele>
        <time>2021-10-30T08:43:14.000Z</time>
      </trkpt>
      <trkpt lat="38.043828" lon="-1.436537">
        <ele>252.539849</ele>
        <time>2021-10-30T08:43:23.000Z</time>
      </trkpt>
      <trkpt lat="38.043822" lon="-1.436371">
        <ele>252.411476</ele>
        <time>2021-10-30T08:43:25.000Z</time>
      </trkpt>
      <trkpt lat="38.043794" lon="-1.435866">
        <ele>252.709010</ele>
        <time>2021-10-30T08:43:31.000Z</time>
      </trkpt>
      <trkpt lat="38.043771" lon="-1.435455">
        <ele>252.992342</ele>
        <time>2021-10-30T08:43:36.000Z</time>
      </trkpt>
      <trkpt lat="38.043742" lon="-1.434893">
        <ele>253.379623</ele>
        <time>2021-10-30T08:43:43.000Z</time>
      </trkpt>
      <trkpt lat="38.043730" lon="-1.434642">
        <ele>253.552538</ele>
        <time>2021-10-30T08:43:46.000Z</time>
      </trkpt>
      <trkpt lat="38.043706" lon="-1.434212">
        <ele>253.848964</ele>
        <time>2021-10-30T08:43:51.000Z</time>
      </trkpt>
      <trkpt lat="38.043697" lon="-1.434040">
        <ele>253.945489</ele>
        <time>2021-10-30T08:43:53.000Z</time>
      </trkpt>
      <trkpt lat="38.043684" lon="-1.433782">
        <ele>253.805305</ele>
        <time>2021-10-30T08:43:56.000Z</time>
      </trkpt>
      <trkpt lat="38.043676" lon="-1.433521">
        <ele>253.663674</ele>
        <time>2021-10-30T08:43:59.000Z</time>
      </trkpt>
      <trkpt lat="38.043661" lon="-1.433161">
        <ele>253.468195</ele>
        <time>2021-10-30T08:44:03.000Z</time>
      </trkpt>
      <trkpt lat="38.043649" lon="-1.432982">
        <ele>253.370783</ele>
        <time>2021-10-30T08:44:05.000Z</time>
      </trkpt>
      <trkpt lat="38.043637" lon="-1.432622">
        <ele>253.175403</ele>
        <time>2021-10-30T08:44:09.000Z</time>
      </trkpt>
      <trkpt lat="38.043641" lon="-1.432255">
        <ele>252.976382</ele>
        <time>2021-10-30T08:44:13.000Z</time>
      </trkpt>
      <trkpt lat="38.043647" lon="-1.432164">
        <ele>252.926865</ele>
        <time>2021-10-30T08:44:14.000Z</time>
      </trkpt>
      <trkpt lat="38.043653" lon="-1.432073">
        <ele>252.877349</ele>
        <time>2021-10-30T08:44:15.000Z</time>
      </trkpt>
      <trkpt lat="38.043728" lon="-1.431439">
        <ele>252.062869</ele>
        <time>2021-10-30T08:44:22.000Z</time>
      </trkpt>
      <trkpt lat="38.043742" lon="-1.431348">
        <ele>251.887129</ele>
        <time>2021-10-30T08:44:23.000Z</time>
      </trkpt>
      <trkpt lat="38.043835" lon="-1.430902">
        <ele>251.012661</ele>
        <time>2021-10-30T08:44:28.000Z</time>
      </trkpt>
      <trkpt lat="38.043905" lon="-1.430640">
        <ele>250.488273</ele>
        <time>2021-10-30T08:44:31.000Z</time>
      </trkpt>
      <trkpt lat="38.043931" lon="-1.430553">
        <ele>250.311902</ele>
        <time>2021-10-30T08:44:32.000Z</time>
      </trkpt>
      <trkpt lat="38.043991" lon="-1.430385">
        <ele>249.962266</ele>
        <time>2021-10-30T08:44:34.000Z</time>
      </trkpt>
      <trkpt lat="38.044055" lon="-1.430216">
        <ele>249.606838</ele>
        <time>2021-10-30T08:44:36.000Z</time>
      </trkpt>
      <trkpt lat="38.044152" lon="-1.429966">
        <ele>249.078609</ele>
        <time>2021-10-30T08:44:39.000Z</time>
      </trkpt>
      <trkpt lat="38.044432" lon="-1.429307">
        <ele>247.371030</ele>
        <time>2021-10-30T08:44:47.000Z</time>
      </trkpt>
      <trkpt lat="38.044554" lon="-1.428977">
        <ele>246.406627</ele>
        <time>2021-10-30T08:44:51.000Z</time>
      </trkpt>
      <trkpt lat="38.044696" lon="-1.428657">
        <ele>245.434947</ele>
        <time>2021-10-30T08:44:55.000Z</time>
      </trkpt>
      <trkpt lat="38.044756" lon="-1.428492">
        <ele>244.954165</ele>
        <time>2021-10-30T08:44:57.000Z</time>
      </trkpt>
      <trkpt lat="38.044838" lon="-1.428240">
        <ele>244.232850</ele>
        <time>2021-10-30T08:45:00.000Z</time>
      </trkpt>
      <trkpt lat="38.044902" lon="-1.428073">
        <ele>243.741531</ele>
        <time>2021-10-30T08:45:02.000Z</time>
      </trkpt>
      <trkpt lat="38.044936" lon="-1.427997">
        <ele>243.510303</ele>
        <time>2021-10-30T08:45:03.000Z</time>
      </trkpt>
      <trkpt lat="38.044967" lon="-1.427920">
        <ele>243.281531</ele>
        <time>2021-10-30T08:45:04.000Z</time>
      </trkpt>
      <trkpt lat="38.044998" lon="-1.427841">
        <ele>243.048035</ele>
        <time>2021-10-30T08:45:05.000Z</time>
      </trkpt>
      <trkpt lat="38.045027" lon="-1.427761">
        <ele>242.815057</ele>
        <time>2021-10-30T08:45:06.000Z</time>
      </trkpt>
      <trkpt lat="38.045187" lon="-1.427321">
        <ele>242.173665</ele>
        <time>2021-10-30T08:45:12.000Z</time>
      </trkpt>
      <trkpt lat="38.045353" lon="-1.426906">
        <ele>241.912596</ele>
        <time>2021-10-30T08:45:18.000Z</time>
      </trkpt>
      <trkpt lat="38.045462" lon="-1.426625">
        <ele>241.736907</ele>
        <time>2021-10-30T08:45:22.000Z</time>
      </trkpt>
      <trkpt lat="38.045541" lon="-1.426414">
        <ele>241.605867</ele>
        <time>2021-10-30T08:45:25.000Z</time>
      </trkpt>
      <trkpt lat="38.045736" lon="-1.425919">
        <ele>241.295434</ele>
        <time>2021-10-30T08:45:32.000Z</time>
      </trkpt>
      <trkpt lat="38.045940" lon="-1.425372">
        <ele>241.268772</ele>
        <time>2021-10-30T08:45:40.000Z</time>
      </trkpt>
      <trkpt lat="38.046015" lon="-1.425099">
        <ele>241.571664</ele>
        <time>2021-10-30T08:45:44.000Z</time>
      </trkpt>
      <trkpt lat="38.046082" lon="-1.424819">
        <ele>241.878227</ele>
        <time>2021-10-30T08:45:48.000Z</time>
      </trkpt>
      <trkpt lat="38.046108" lon="-1.424676">
        <ele>242.031972</ele>
        <time>2021-10-30T08:45:50.000Z</time>
      </trkpt>
      <trkpt lat="38.046161" lon="-1.424248">
        <ele>242.485844</ele>
        <time>2021-10-30T08:45:56.000Z</time>
      </trkpt>
      <trkpt lat="38.046163" lon="-1.423749">
        <ele>243.008592</ele>
        <time>2021-10-30T08:46:03.000Z</time>
      </trkpt>
      <trkpt lat="38.046145" lon="-1.423560">
        <ele>243.208027</ele>
        <time>2021-10-30T08:46:06.000Z</time>
      </trkpt>
      <trkpt lat="38.046099" lon="-1.423459">
        <ele>243.330253</ele>
        <time>2021-10-30T08:46:08.000Z</time>
      </trkpt>
      <trkpt lat="38.046009" lon="-1.423340">
        <ele>243.459517</ele>
        <time>2021-10-30T08:46:11.000Z</time>
      </trkpt>
      <trkpt lat="38.045888" lon="-1.423151">
        <ele>243.469944</ele>
        <time>2021-10-30T08:46:15.000Z</time>
      </trkpt>
      <trkpt lat="38.045820" lon="-1.422960">
        <ele>243.478918</ele>
        <time>2021-10-30T08:46:19.000Z</time>
      </trkpt>
      <trkpt lat="38.045820" lon="-1.422907">
        <ele>243.481187</ele>
        <time>2021-10-30T08:46:20.000Z</time>
      </trkpt>
      <trkpt lat="38.045824" lon="-1.422850">
        <ele>243.483636</ele>
        <time>2021-10-30T08:46:21.000Z</time>
      </trkpt>
      <trkpt lat="38.045833" lon="-1.422610">
        <ele>243.493922</ele>
        <time>2021-10-30T08:46:25.000Z</time>
      </trkpt>
      <trkpt lat="38.045830" lon="-1.422410">
        <ele>243.502486</ele>
        <time>2021-10-30T08:46:28.000Z</time>
      </trkpt>
      <trkpt lat="38.045802" lon="-1.422269">
        <ele>243.508711</ele>
        <time>2021-10-30T08:46:30.000Z</time>
      </trkpt>
      <trkpt lat="38.045755" lon="-1.422132">
        <ele>243.515108</ele>
        <time>2021-10-30T08:46:32.000Z</time>
      </trkpt>
      <trkpt lat="38.045549" lon="-1.421559">
        <ele>243.542074</ele>
        <time>2021-10-30T08:46:40.000Z</time>
      </trkpt>
      <trkpt lat="38.045496" lon="-1.421410">
        <ele>243.549073</ele>
        <time>2021-10-30T08:46:42.000Z</time>
      </trkpt>
      <trkpt lat="38.045311" lon="-1.420878">
        <ele>242.398074</ele>
        <time>2021-10-30T08:46:49.000Z</time>
      </trkpt>
      <trkpt lat="38.045228" lon="-1.420647">
        <ele>241.719306</ele>
        <time>2021-10-30T08:46:52.000Z</time>
      </trkpt>
      <trkpt lat="38.045087" lon="-1.420261">
        <ele>240.581814</ele>
        <time>2021-10-30T08:46:57.000Z</time>
      </trkpt>
      <trkpt lat="38.045058" lon="-1.420184">
        <ele>240.353641</ele>
        <time>2021-10-30T08:46:58.000Z</time>
      </trkpt>
      <trkpt lat="38.045001" lon="-1.420027">
        <ele>239.891480</ele>
        <time>2021-10-30T08:47:00.000Z</time>
      </trkpt>
      <trkpt lat="38.044858" lon="-1.419624">
        <ele>238.709830</ele>
        <time>2021-10-30T08:47:05.000Z</time>
      </trkpt>
      <trkpt lat="38.044745" lon="-1.419293">
        <ele>237.745401</ele>
        <time>2021-10-30T08:47:09.000Z</time>
      </trkpt>
      <trkpt lat="38.044716" lon="-1.419210">
        <ele>237.502658</ele>
        <time>2021-10-30T08:47:10.000Z</time>
      </trkpt>
      <trkpt lat="38.044630" lon="-1.418962">
        <ele>237.151419</ele>
        <time>2021-10-30T08:47:13.000Z</time>
      </trkpt>
      <trkpt lat="38.044455" lon="-1.418477">
        <ele>236.517694</ele>
        <time>2021-10-30T08:47:19.000Z</time>
      </trkpt>
      <trkpt lat="38.044398" lon="-1.418316">
        <ele>236.308004</ele>
        <time>2021-10-30T08:47:21.000Z</time>
      </trkpt>
      <trkpt lat="38.044200" lon="-1.417761">
        <ele>235.584223</ele>
        <time>2021-10-30T08:47:28.000Z</time>
      </trkpt>
      <trkpt lat="38.044172" lon="-1.417682">
        <ele>235.481313</ele>
        <time>2021-10-30T08:47:29.000Z</time>
      </trkpt>
      <trkpt lat="38.043922" lon="-1.416984">
        <ele>234.580943</ele>
        <time>2021-10-30T08:47:38.000Z</time>
      </trkpt>
      <trkpt lat="38.043818" lon="-1.416665">
        <ele>234.196734</ele>
        <time>2021-10-30T08:47:42.000Z</time>
      </trkpt>
      <trkpt lat="38.043775" lon="-1.416500">
        <ele>234.003324</ele>
        <time>2021-10-30T08:47:44.000Z</time>
      </trkpt>
      <trkpt lat="38.043715" lon="-1.416245">
        <ele>233.707157</ele>
        <time>2021-10-30T08:47:47.000Z</time>
      </trkpt>
      <trkpt lat="38.043695" lon="-1.416160">
        <ele>233.608434</ele>
        <time>2021-10-30T08:47:48.000Z</time>
      </trkpt>
      <trkpt lat="38.043551" lon="-1.415571">
        <ele>232.922116</ele>
        <time>2021-10-30T08:47:55.000Z</time>
      </trkpt>
      <trkpt lat="38.043530" lon="-1.415487">
        <ele>232.824041</ele>
        <time>2021-10-30T08:47:56.000Z</time>
      </trkpt>
      <trkpt lat="38.043374" lon="-1.414811">
        <ele>232.093673</ele>
        <time>2021-10-30T08:48:04.000Z</time>
      </trkpt>
      <trkpt lat="38.043336" lon="-1.414637">
        <ele>231.962103</ele>
        <time>2021-10-30T08:48:06.000Z</time>
      </trkpt>
      <trkpt lat="38.043315" lon="-1.414550">
        <ele>231.895799</ele>
        <time>2021-10-30T08:48:07.000Z</time>
      </trkpt>
      <trkpt lat="38.043183" lon="-1.413932">
        <ele>231.429222</ele>
        <time>2021-10-30T08:48:14.000Z</time>
      </trkpt>
      <trkpt lat="38.043162" lon="-1.413845">
        <ele>231.362918</ele>
        <time>2021-10-30T08:48:15.000Z</time>
      </trkpt>
      <trkpt lat="38.043037" lon="-1.413338">
        <ele>230.975809</ele>
        <time>2021-10-30T08:48:21.000Z</time>
      </trkpt>
      <trkpt lat="38.042963" lon="-1.413003">
        <ele>230.722288</ele>
        <time>2021-10-30T08:48:25.000Z</time>
      </trkpt>
      <trkpt lat="38.042902" lon="-1.412752">
        <ele>230.531113</ele>
        <time>2021-10-30T08:48:28.000Z</time>
      </trkpt>
      <trkpt lat="38.042864" lon="-1.412585">
        <ele>230.554156</ele>
        <time>2021-10-30T08:48:30.000Z</time>
      </trkpt>
      <trkpt lat="38.042789" lon="-1.412253">
        <ele>230.599940</ele>
        <time>2021-10-30T08:48:34.000Z</time>
      </trkpt>
      <trkpt lat="38.042682" lon="-1.411850">
        <ele>230.656316</ele>
        <time>2021-10-30T08:48:39.000Z</time>
      </trkpt>
      <trkpt lat="38.042580" lon="-1.411522">
        <ele>230.703063</ele>
        <time>2021-10-30T08:48:43.000Z</time>
      </trkpt>
      <trkpt lat="38.042431" lon="-1.411135">
        <ele>230.760166</ele>
        <time>2021-10-30T08:48:48.000Z</time>
      </trkpt>
      <trkpt lat="38.042170" lon="-1.410662">
        <ele>230.871879</ele>
        <time>2021-10-30T08:48:55.000Z</time>
      </trkpt>
      <trkpt lat="38.042085" lon="-1.410549">
        <ele>231.143520</ele>
        <time>2021-10-30T08:48:57.000Z</time>
      </trkpt>
      <trkpt lat="38.041900" lon="-1.410348">
        <ele>231.680958</ele>
        <time>2021-10-30T08:49:01.000Z</time>
      </trkpt>
      <trkpt lat="38.041852" lon="-1.410304">
        <ele>231.811633</ele>
        <time>2021-10-30T08:49:02.000Z</time>
      </trkpt>
      <trkpt lat="38.041711" lon="-1.410182">
        <ele>232.188252</ele>
        <time>2021-10-30T08:49:05.000Z</time>
      </trkpt>
      <trkpt lat="38.041571" lon="-1.410066">
        <ele>232.557248</ele>
        <time>2021-10-30T08:49:08.000Z</time>
      </trkpt>
      <trkpt lat="38.041436" lon="-1.409942">
        <ele>232.925027</ele>
        <time>2021-10-30T08:49:11.000Z</time>
      </trkpt>
      <trkpt lat="38.041205" lon="-1.409735">
        <ele>233.549105</ele>
        <time>2021-10-30T08:49:16.000Z</time>
      </trkpt>
      <trkpt lat="38.041111" lon="-1.409657">
        <ele>233.796968</ele>
        <time>2021-10-30T08:49:18.000Z</time>
      </trkpt>
      <trkpt lat="38.040728" lon="-1.409339">
        <ele>234.805198</ele>
        <time>2021-10-30T08:49:26.000Z</time>
      </trkpt>
      <trkpt lat="38.040631" lon="-1.409263">
        <ele>234.905537</ele>
        <time>2021-10-30T08:49:28.000Z</time>
      </trkpt>
      <trkpt lat="38.040539" lon="-1.409181">
        <ele>235.004486</ele>
        <time>2021-10-30T08:49:30.000Z</time>
      </trkpt>
      <trkpt lat="38.040448" lon="-1.409100">
        <ele>235.102318</ele>
        <time>2021-10-30T08:49:32.000Z</time>
      </trkpt>
      <trkpt lat="38.040312" lon="-1.408985">
        <ele>235.246158</ele>
        <time>2021-10-30T08:49:35.000Z</time>
      </trkpt>
      <trkpt lat="38.040267" lon="-1.408947">
        <ele>235.293733</ele>
        <time>2021-10-30T08:49:36.000Z</time>
      </trkpt>
      <trkpt lat="38.039908" lon="-1.408658">
        <ele>235.667927</ele>
        <time>2021-10-30T08:49:44.000Z</time>
      </trkpt>
      <trkpt lat="38.039774" lon="-1.408539">
        <ele>235.811877</ele>
        <time>2021-10-30T08:49:47.000Z</time>
      </trkpt>
      <trkpt lat="38.039685" lon="-1.408458">
        <ele>235.908273</ele>
        <time>2021-10-30T08:49:49.000Z</time>
      </trkpt>
      <trkpt lat="38.039498" lon="-1.408290">
        <ele>236.109930</ele>
        <time>2021-10-30T08:49:53.000Z</time>
      </trkpt>
      <trkpt lat="38.039255" lon="-1.408075">
        <ele>236.370657</ele>
        <time>2021-10-30T08:49:58.000Z</time>
      </trkpt>
      <trkpt lat="38.039061" lon="-1.407898">
        <ele>235.937316</ele>
        <time>2021-10-30T08:50:02.000Z</time>
      </trkpt>
      <trkpt lat="38.038963" lon="-1.407810">
        <ele>235.691763</ele>
        <time>2021-10-30T08:50:04.000Z</time>
      </trkpt>
      <trkpt lat="38.038866" lon="-1.407725">
        <ele>235.450655</ele>
        <time>2021-10-30T08:50:06.000Z</time>
      </trkpt>
      <trkpt lat="38.038817" lon="-1.407684">
        <ele>235.330604</ele>
        <time>2021-10-30T08:50:07.000Z</time>
      </trkpt>
      <trkpt lat="38.038669" lon="-1.407563">
        <ele>234.970498</ele>
        <time>2021-10-30T08:50:10.000Z</time>
      </trkpt>
      <trkpt lat="38.038475" lon="-1.407394">
        <ele>234.489195</ele>
        <time>2021-10-30T08:50:14.000Z</time>
      </trkpt>
      <trkpt lat="38.038175" lon="-1.407139">
        <ele>233.750643</ele>
        <time>2021-10-30T08:50:20.000Z</time>
      </trkpt>
      <trkpt lat="38.038126" lon="-1.407095">
        <ele>233.627866</ele>
        <time>2021-10-30T08:50:21.000Z</time>
      </trkpt>
      <trkpt lat="38.037743" lon="-1.406709">
        <ele>232.687858</ele>
        <time>2021-10-30T08:50:29.000Z</time>
      </trkpt>
      <trkpt lat="38.037438" lon="-1.406298">
        <ele>232.462135</ele>
        <time>2021-10-30T08:50:36.000Z</time>
      </trkpt>
      <trkpt lat="38.037397" lon="-1.406236">
        <ele>232.429775</ele>
        <time>2021-10-30T08:50:37.000Z</time>
      </trkpt>
      <trkpt lat="38.037103" lon="-1.405730">
        <ele>232.178432</ele>
        <time>2021-10-30T08:50:45.000Z</time>
      </trkpt>
      <trkpt lat="38.036794" lon="-1.405231">
        <ele>231.924701</ele>
        <time>2021-10-30T08:50:53.000Z</time>
      </trkpt>
      <trkpt lat="38.036754" lon="-1.405170">
        <ele>231.892973</ele>
        <time>2021-10-30T08:50:54.000Z</time>
      </trkpt>
      <trkpt lat="38.036451" lon="-1.404658">
        <ele>231.681213</ele>
        <time>2021-10-30T08:51:02.000Z</time>
      </trkpt>
      <trkpt lat="38.036373" lon="-1.404526">
        <ele>231.633724</ele>
        <time>2021-10-30T08:51:04.000Z</time>
      </trkpt>
      <trkpt lat="38.036132" lon="-1.404124">
        <ele>231.488337</ele>
        <time>2021-10-30T08:51:10.000Z</time>
      </trkpt>
      <trkpt lat="38.036092" lon="-1.404057">
        <ele>231.464142</ele>
        <time>2021-10-30T08:51:11.000Z</time>
      </trkpt>
      <trkpt lat="38.035767" lon="-1.403544">
        <ele>231.274679</ele>
        <time>2021-10-30T08:51:19.000Z</time>
      </trkpt>
      <trkpt lat="38.035463" lon="-1.402904">
        <ele>230.837016</ele>
        <time>2021-10-30T08:51:28.000Z</time>
      </trkpt>
      <trkpt lat="38.035403" lon="-1.402753">
        <ele>230.649705</ele>
        <time>2021-10-30T08:51:30.000Z</time>
      </trkpt>
      <trkpt lat="38.035201" lon="-1.402118">
        <ele>229.891239</ele>
        <time>2021-10-30T08:51:38.000Z</time>
      </trkpt>
      <trkpt lat="38.035157" lon="-1.401957">
        <ele>229.702499</ele>
        <time>2021-10-30T08:51:40.000Z</time>
      </trkpt>
      <trkpt lat="38.035086" lon="-1.401654">
        <ele>229.352385</ele>
        <time>2021-10-30T08:51:44.000Z</time>
      </trkpt>
      <trkpt lat="38.035057" lon="-1.401534">
        <ele>229.213368</ele>
        <time>2021-10-30T08:51:46.000Z</time>
      </trkpt>
      <trkpt lat="38.035013" lon="-1.401336">
        <ele>228.985518</ele>
        <time>2021-10-30T08:51:49.000Z</time>
      </trkpt>
      <trkpt lat="38.034944" lon="-1.400990">
        <ele>228.581418</ele>
        <time>2021-10-30T08:51:53.000Z</time>
      </trkpt>
      <trkpt lat="38.034906" lon="-1.400805">
        <ele>228.268234</ele>
        <time>2021-10-30T08:51:55.000Z</time>
      </trkpt>
      <trkpt lat="38.034887" lon="-1.400715">
        <ele>228.115600</ele>
        <time>2021-10-30T08:51:56.000Z</time>
      </trkpt>
      <trkpt lat="38.034791" lon="-1.400284">
        <ele>227.381889</ele>
        <time>2021-10-30T08:52:01.000Z</time>
      </trkpt>
      <trkpt lat="38.034735" lon="-1.400029">
        <ele>226.948239</ele>
        <time>2021-10-30T08:52:04.000Z</time>
      </trkpt>
      <trkpt lat="38.034715" lon="-1.399944">
        <ele>226.802920</ele>
        <time>2021-10-30T08:52:05.000Z</time>
      </trkpt>
      <trkpt lat="38.034605" lon="-1.399446">
        <ele>225.955670</ele>
        <time>2021-10-30T08:52:11.000Z</time>
      </trkpt>
      <trkpt lat="38.034586" lon="-1.399362">
        <ele>225.812507</ele>
        <time>2021-10-30T08:52:12.000Z</time>
      </trkpt>
      <trkpt lat="38.034568" lon="-1.399276">
        <ele>225.666740</ele>
        <time>2021-10-30T08:52:13.000Z</time>
      </trkpt>
      <trkpt lat="38.034419" lon="-1.398581">
        <ele>224.637200</ele>
        <time>2021-10-30T08:52:21.000Z</time>
      </trkpt>
      <trkpt lat="38.034385" lon="-1.398409">
        <ele>224.461355</ele>
        <time>2021-10-30T08:52:23.000Z</time>
      </trkpt>
      <trkpt lat="38.034368" lon="-1.398324">
        <ele>224.374393</ele>
        <time>2021-10-30T08:52:24.000Z</time>
      </trkpt>
      <trkpt lat="38.034329" lon="-1.398159">
        <ele>224.203570</ele>
        <time>2021-10-30T08:52:26.000Z</time>
      </trkpt>
      <trkpt lat="38.034295" lon="-1.397996">
        <ele>224.036366</ele>
        <time>2021-10-30T08:52:28.000Z</time>
      </trkpt>
      <trkpt lat="38.034169" lon="-1.397417">
        <ele>223.440715</ele>
        <time>2021-10-30T08:52:35.000Z</time>
      </trkpt>
      <trkpt lat="38.034014" lon="-1.396720">
        <ele>222.722544</ele>
        <time>2021-10-30T08:52:43.000Z</time>
      </trkpt>
      <trkpt lat="38.033976" lon="-1.396545">
        <ele>222.521020</ele>
        <time>2021-10-30T08:52:45.000Z</time>
      </trkpt>
      <trkpt lat="38.033919" lon="-1.396285">
        <ele>222.158811</ele>
        <time>2021-10-30T08:52:48.000Z</time>
      </trkpt>
      <trkpt lat="38.033786" lon="-1.395658">
        <ele>221.287336</ele>
        <time>2021-10-30T08:52:55.000Z</time>
      </trkpt>
      <trkpt lat="38.033727" lon="-1.395386">
        <ele>220.908696</ele>
        <time>2021-10-30T08:52:58.000Z</time>
      </trkpt>
      <trkpt lat="38.033591" lon="-1.394758">
        <ele>220.034581</ele>
        <time>2021-10-30T08:53:05.000Z</time>
      </trkpt>
      <trkpt lat="38.033548" lon="-1.394579">
        <ele>219.783420</ele>
        <time>2021-10-30T08:53:07.000Z</time>
      </trkpt>
      <trkpt lat="38.033483" lon="-1.394311">
        <ele>219.547886</ele>
        <time>2021-10-30T08:53:10.000Z</time>
      </trkpt>
      <trkpt lat="38.033447" lon="-1.394134">
        <ele>219.565089</ele>
        <time>2021-10-30T08:53:12.000Z</time>
      </trkpt>
      <trkpt lat="38.033401" lon="-1.393874">
        <ele>219.590167</ele>
        <time>2021-10-30T08:53:15.000Z</time>
      </trkpt>
      <trkpt lat="38.033352" lon="-1.393711">
        <ele>219.606585</ele>
        <time>2021-10-30T08:53:17.000Z</time>
      </trkpt>
      <trkpt lat="38.033258" lon="-1.393379">
        <ele>219.639786</ele>
        <time>2021-10-30T08:53:21.000Z</time>
      </trkpt>
      <trkpt lat="38.033246" lon="-1.393297">
        <ele>219.647635</ele>
        <time>2021-10-30T08:53:22.000Z</time>
      </trkpt>
      <trkpt lat="38.033270" lon="-1.392889">
        <ele>219.686137</ele>
        <time>2021-10-30T08:53:27.000Z</time>
      </trkpt>
      <trkpt lat="38.033275" lon="-1.392809">
        <ele>219.693690</ele>
        <time>2021-10-30T08:53:28.000Z</time>
      </trkpt>
      <trkpt lat="38.033317" lon="-1.392342">
        <ele>219.737923</ele>
        <time>2021-10-30T08:53:34.000Z</time>
      </trkpt>
      <trkpt lat="38.033330" lon="-1.392266">
        <ele>219.745242</ele>
        <time>2021-10-30T08:53:35.000Z</time>
      </trkpt>
      <trkpt lat="38.033460" lon="-1.391741">
        <ele>219.500234</ele>
        <time>2021-10-30T08:53:42.000Z</time>
      </trkpt>
      <trkpt lat="38.033510" lon="-1.391592">
        <ele>219.411425</ele>
        <time>2021-10-30T08:53:44.000Z</time>
      </trkpt>
      <trkpt lat="38.033538" lon="-1.391518">
        <ele>219.366409</ele>
        <time>2021-10-30T08:53:45.000Z</time>
      </trkpt>
      <trkpt lat="38.033600" lon="-1.391377">
        <ele>219.277860</ele>
        <time>2021-10-30T08:53:47.000Z</time>
      </trkpt>
      <trkpt lat="38.033633" lon="-1.391308">
        <ele>219.233596</ele>
        <time>2021-10-30T08:53:48.000Z</time>
      </trkpt>
      <trkpt lat="38.033725" lon="-1.391106">
        <ele>219.105646</ele>
        <time>2021-10-30T08:53:51.000Z</time>
      </trkpt>
      <trkpt lat="38.033817" lon="-1.390929">
        <ele>218.989361</ele>
        <time>2021-10-30T08:53:54.000Z</time>
      </trkpt>
      <trkpt lat="38.033842" lon="-1.390876">
        <ele>218.955486</ele>
        <time>2021-10-30T08:53:55.000Z</time>
      </trkpt>
      <trkpt lat="38.033867" lon="-1.390830">
        <ele>218.924841</ele>
        <time>2021-10-30T08:53:56.000Z</time>
      </trkpt>
      <trkpt lat="38.033972" lon="-1.390719">
        <ele>218.829719</ele>
        <time>2021-10-30T08:53:59.000Z</time>
      </trkpt>
      <trkpt lat="38.034138" lon="-1.390413">
        <ele>218.625981</ele>
        <time>2021-10-30T08:54:04.000Z</time>
      </trkpt>
      <trkpt lat="38.034214" lon="-1.390284">
        <ele>218.537646</ele>
        <time>2021-10-30T08:54:06.000Z</time>
      </trkpt>
      <trkpt lat="38.034355" lon="-1.390000">
        <ele>217.958379</ele>
        <time>2021-10-30T08:54:10.000Z</time>
      </trkpt>
      <trkpt lat="38.034461" lon="-1.389776">
        <ele>217.432015</ele>
        <time>2021-10-30T08:54:13.000Z</time>
      </trkpt>
      <trkpt lat="38.034648" lon="-1.389394">
        <ele>216.526066</ele>
        <time>2021-10-30T08:54:18.000Z</time>
      </trkpt>
      <trkpt lat="38.034767" lon="-1.389154">
        <ele>215.954833</ele>
        <time>2021-10-30T08:54:21.000Z</time>
      </trkpt>
      <trkpt lat="38.034922" lon="-1.388835">
        <ele>215.199858</ele>
        <time>2021-10-30T08:54:25.000Z</time>
      </trkpt>
      <trkpt lat="38.034959" lon="-1.388755">
        <ele>215.012991</ele>
        <time>2021-10-30T08:54:26.000Z</time>
      </trkpt>
      <trkpt lat="38.035095" lon="-1.388428">
        <ele>214.268147</ele>
        <time>2021-10-30T08:54:30.000Z</time>
      </trkpt>
      <trkpt lat="38.035190" lon="-1.388174">
        <ele>213.760679</ele>
        <time>2021-10-30T08:54:33.000Z</time>
      </trkpt>
      <trkpt lat="38.035246" lon="-1.387996">
        <ele>213.488374</ele>
        <time>2021-10-30T08:54:35.000Z</time>
      </trkpt>
      <trkpt lat="38.035397" lon="-1.387448">
        <ele>212.663586</ele>
        <time>2021-10-30T08:54:41.000Z</time>
      </trkpt>
      <trkpt lat="38.035502" lon="-1.386978">
        <ele>211.969537</ele>
        <time>2021-10-30T08:54:46.000Z</time>
      </trkpt>
      <trkpt lat="38.035518" lon="-1.386881">
        <ele>211.828744</ele>
        <time>2021-10-30T08:54:47.000Z</time>
      </trkpt>
      <trkpt lat="38.035606" lon="-1.386184">
        <ele>210.825906</ele>
        <time>2021-10-30T08:54:54.000Z</time>
      </trkpt>
      <trkpt lat="38.035617" lon="-1.386083">
        <ele>210.681055</ele>
        <time>2021-10-30T08:54:55.000Z</time>
      </trkpt>
      <trkpt lat="38.035640" lon="-1.385885">
        <ele>210.491081</ele>
        <time>2021-10-30T08:54:57.000Z</time>
      </trkpt>
      <trkpt lat="38.035698" lon="-1.385394">
        <ele>210.041038</ele>
        <time>2021-10-30T08:55:02.000Z</time>
      </trkpt>
      <trkpt lat="38.035723" lon="-1.385094">
        <ele>209.767586</ele>
        <time>2021-10-30T08:55:05.000Z</time>
      </trkpt>
      <trkpt lat="38.035728" lon="-1.384885">
        <ele>209.578051</ele>
        <time>2021-10-30T08:55:07.000Z</time>
      </trkpt>
      <trkpt lat="38.035761" lon="-1.384470">
        <ele>209.199963</ele>
        <time>2021-10-30T08:55:11.000Z</time>
      </trkpt>
      <trkpt lat="38.035831" lon="-1.383909">
        <ele>208.685105</ele>
        <time>2021-10-30T08:55:17.000Z</time>
      </trkpt>
      <trkpt lat="38.035849" lon="-1.383838">
        <ele>208.617495</ele>
        <time>2021-10-30T08:55:18.000Z</time>
      </trkpt>
      <trkpt lat="38.035876" lon="-1.383714">
        <ele>208.448033</ele>
        <time>2021-10-30T08:55:20.000Z</time>
      </trkpt>
      <trkpt lat="38.035860" lon="-1.383604">
        <ele>208.284730</ele>
        <time>2021-10-30T08:55:22.000Z</time>
      </trkpt>
      <trkpt lat="38.035828" lon="-1.383488">
        <ele>208.105296</ele>
        <time>2021-10-30T08:55:24.000Z</time>
      </trkpt>
      <trkpt lat="38.035812" lon="-1.383351">
        <ele>207.903104</ele>
        <time>2021-10-30T08:55:26.000Z</time>
      </trkpt>
      <trkpt lat="38.035805" lon="-1.383278">
        <ele>207.795745</ele>
        <time>2021-10-30T08:55:27.000Z</time>
      </trkpt>
      <trkpt lat="38.035788" lon="-1.383129">
        <ele>207.575951</ele>
        <time>2021-10-30T08:55:29.000Z</time>
      </trkpt>
      <trkpt lat="38.035797" lon="-1.382896">
        <ele>207.235387</ele>
        <time>2021-10-30T08:55:32.000Z</time>
      </trkpt>
      <trkpt lat="38.035806" lon="-1.382739">
        <ele>207.005578</ele>
        <time>2021-10-30T08:55:34.000Z</time>
      </trkpt>
      <trkpt lat="38.035829" lon="-1.382516">
        <ele>206.677243</ele>
        <time>2021-10-30T08:55:37.000Z</time>
      </trkpt>
      <trkpt lat="38.035877" lon="-1.382378">
        <ele>206.457008</ele>
        <time>2021-10-30T08:55:39.000Z</time>
      </trkpt>
      <trkpt lat="38.035981" lon="-1.382145">
        <ele>206.066029</ele>
        <time>2021-10-30T08:55:42.000Z</time>
      </trkpt>
      <trkpt lat="38.036003" lon="-1.382049">
        <ele>205.920068</ele>
        <time>2021-10-30T08:55:43.000Z</time>
      </trkpt>
      <trkpt lat="38.036029" lon="-1.381851">
        <ele>205.627021</ele>
        <time>2021-10-30T08:55:45.000Z</time>
      </trkpt>
      <trkpt lat="38.036039" lon="-1.381752">
        <ele>205.481309</ele>
        <time>2021-10-30T08:55:46.000Z</time>
      </trkpt>
      <trkpt lat="38.036057" lon="-1.381549">
        <ele>205.219914</ele>
        <time>2021-10-30T08:55:48.000Z</time>
      </trkpt>
      <trkpt lat="38.036066" lon="-1.381449">
        <ele>205.149739</ele>
        <time>2021-10-30T08:55:49.000Z</time>
      </trkpt>
      <trkpt lat="38.036089" lon="-1.381247">
        <ele>205.007438</ele>
        <time>2021-10-30T08:55:51.000Z</time>
      </trkpt>
      <trkpt lat="38.036137" lon="-1.380781">
        <ele>204.679769</ele>
        <time>2021-10-30T08:55:56.000Z</time>
      </trkpt>
      <trkpt lat="38.036165" lon="-1.380540">
        <ele>204.509922</ele>
        <time>2021-10-30T08:56:00.000Z</time>
      </trkpt>
      <trkpt lat="38.036171" lon="-1.380446">
        <ele>204.444169</ele>
        <time>2021-10-30T08:56:02.000Z</time>
      </trkpt>
      <trkpt lat="38.036192" lon="-1.380258">
        <ele>204.311781</ele>
        <time>2021-10-30T08:56:05.000Z</time>
      </trkpt>
      <trkpt lat="38.036216" lon="-1.380025">
        <ele>204.147947</ele>
        <time>2021-10-30T08:56:08.000Z</time>
      </trkpt>
      <trkpt lat="38.036237" lon="-1.379783">
        <ele>203.978201</ele>
        <time>2021-10-30T08:56:11.000Z</time>
      </trkpt>
      <trkpt lat="38.036245" lon="-1.379702">
        <ele>203.921284</ele>
        <time>2021-10-30T08:56:12.000Z</time>
      </trkpt>
      <trkpt lat="38.036252" lon="-1.379622">
        <ele>203.865164</ele>
        <time>2021-10-30T08:56:13.000Z</time>
      </trkpt>
      <trkpt lat="38.036323" lon="-1.378895">
        <ele>203.354521</ele>
        <time>2021-10-30T08:56:22.000Z</time>
      </trkpt>
      <trkpt lat="38.036340" lon="-1.378729">
        <ele>203.237853</ele>
        <time>2021-10-30T08:56:24.000Z</time>
      </trkpt>
      <trkpt lat="38.036349" lon="-1.378646">
        <ele>203.179460</ele>
        <time>2021-10-30T08:56:25.000Z</time>
      </trkpt>
      <trkpt lat="38.036386" lon="-1.378232">
        <ele>202.889069</ele>
        <time>2021-10-30T08:56:30.000Z</time>
      </trkpt>
      <trkpt lat="38.036393" lon="-1.378148">
        <ele>202.830198</ele>
        <time>2021-10-30T08:56:31.000Z</time>
      </trkpt>
      <trkpt lat="38.036419" lon="-1.377900">
        <ele>202.655828</ele>
        <time>2021-10-30T08:56:34.000Z</time>
      </trkpt>
      <trkpt lat="38.036459" lon="-1.377479">
        <ele>202.360283</ele>
        <time>2021-10-30T08:56:39.000Z</time>
      </trkpt>
      <trkpt lat="38.036475" lon="-1.377303">
        <ele>202.236805</ele>
        <time>2021-10-30T08:56:41.000Z</time>
      </trkpt>
      <trkpt lat="38.036510" lon="-1.376947">
        <ele>202.008058</ele>
        <time>2021-10-30T08:56:45.000Z</time>
      </trkpt>
      <trkpt lat="38.036527" lon="-1.376770">
        <ele>201.915651</ele>
        <time>2021-10-30T08:56:47.000Z</time>
      </trkpt>
      <trkpt lat="38.036535" lon="-1.376682">
        <ele>201.869744</ele>
        <time>2021-10-30T08:56:48.000Z</time>
      </trkpt>
      <trkpt lat="38.036560" lon="-1.376422">
        <ele>201.734002</ele>
        <time>2021-10-30T08:56:51.000Z</time>
      </trkpt>
      <trkpt lat="38.036610" lon="-1.375906">
        <ele>201.464578</ele>
        <time>2021-10-30T08:56:57.000Z</time>
      </trkpt>
      <trkpt lat="38.036618" lon="-1.375819">
        <ele>201.419185</ele>
        <time>2021-10-30T08:56:58.000Z</time>
      </trkpt>
      <trkpt lat="38.036679" lon="-1.375211">
        <ele>201.101553</ele>
        <time>2021-10-30T08:57:05.000Z</time>
      </trkpt>
      <trkpt lat="38.036694" lon="-1.375127">
        <ele>201.056917</ele>
        <time>2021-10-30T08:57:06.000Z</time>
      </trkpt>
      <trkpt lat="38.036714" lon="-1.375049">
        <ele>201.014407</ele>
        <time>2021-10-30T08:57:07.000Z</time>
      </trkpt>
      <trkpt lat="38.036825" lon="-1.374741">
        <ele>200.749613</ele>
        <time>2021-10-30T08:57:12.000Z</time>
      </trkpt>
      <trkpt lat="38.036855" lon="-1.374646">
        <ele>200.596823</ele>
        <time>2021-10-30T08:57:14.000Z</time>
      </trkpt>
      <trkpt lat="38.036876" lon="-1.374560">
        <ele>200.462414</ele>
        <time>2021-10-30T08:57:16.000Z</time>
      </trkpt>
      <trkpt lat="38.036886" lon="-1.374472">
        <ele>200.329688</ele>
        <time>2021-10-30T08:57:18.000Z</time>
      </trkpt>
      <trkpt lat="38.036898" lon="-1.374371">
        <ele>200.177209</ele>
        <time>2021-10-30T08:57:20.000Z</time>
      </trkpt>
      <trkpt lat="38.036930" lon="-1.374071">
        <ele>199.725282</ele>
        <time>2021-10-30T08:57:25.000Z</time>
      </trkpt>
      <trkpt lat="38.036963" lon="-1.373568">
        <ele>198.971805</ele>
        <time>2021-10-30T08:57:32.000Z</time>
      </trkpt>
      <trkpt lat="38.036958" lon="-1.373324">
        <ele>198.607440</ele>
        <time>2021-10-30T08:57:35.000Z</time>
      </trkpt>
      <trkpt lat="38.036943" lon="-1.373126">
        <ele>198.310502</ele>
        <time>2021-10-30T08:57:37.000Z</time>
      </trkpt>
      <trkpt lat="38.036935" lon="-1.373017">
        <ele>198.147083</ele>
        <time>2021-10-30T08:57:38.000Z</time>
      </trkpt>
      <trkpt lat="38.036926" lon="-1.372904">
        <ele>197.977536</ele>
        <time>2021-10-30T08:57:39.000Z</time>
      </trkpt>
      <trkpt lat="38.036908" lon="-1.372671">
        <ele>197.628046</ele>
        <time>2021-10-30T08:57:41.000Z</time>
      </trkpt>
      <trkpt lat="38.036896" lon="-1.372439">
        <ele>197.102038</ele>
        <time>2021-10-30T08:57:43.000Z</time>
      </trkpt>
      <trkpt lat="38.036881" lon="-1.372213">
        <ele>196.454901</ele>
        <time>2021-10-30T08:57:45.000Z</time>
      </trkpt>
      <trkpt lat="38.036849" lon="-1.371764">
        <ele>195.168524</ele>
        <time>2021-10-30T08:57:49.000Z</time>
      </trkpt>
      <trkpt lat="38.036829" lon="-1.371430">
        <ele>194.212763</ele>
        <time>2021-10-30T08:57:52.000Z</time>
      </trkpt>
      <trkpt lat="38.036820" lon="-1.371212">
        <ele>193.589884</ele>
        <time>2021-10-30T08:57:54.000Z</time>
      </trkpt>
      <trkpt lat="38.036814" lon="-1.371105">
        <ele>193.283805</ele>
        <time>2021-10-30T08:57:55.000Z</time>
      </trkpt>
      <trkpt lat="38.036780" lon="-1.370569">
        <ele>191.749470</ele>
        <time>2021-10-30T08:58:00.000Z</time>
      </trkpt>
      <trkpt lat="38.036766" lon="-1.370352">
        <ele>191.128224</ele>
        <time>2021-10-30T08:58:02.000Z</time>
      </trkpt>
      <trkpt lat="38.036759" lon="-1.370244">
        <ele>190.957607</ele>
        <time>2021-10-30T08:58:03.000Z</time>
      </trkpt>
      <trkpt lat="38.036742" lon="-1.370032">
        <ele>190.941914</ele>
        <time>2021-10-30T08:58:05.000Z</time>
      </trkpt>
      <trkpt lat="38.036695" lon="-1.369639">
        <ele>190.912642</ele>
        <time>2021-10-30T08:58:09.000Z</time>
      </trkpt>
      <trkpt lat="38.036696" lon="-1.369546">
        <ele>190.905792</ele>
        <time>2021-10-30T08:58:10.000Z</time>
      </trkpt>
      <trkpt lat="38.036743" lon="-1.369282">
        <ele>190.885861</ele>
        <time>2021-10-30T08:58:13.000Z</time>
      </trkpt>
      <trkpt lat="38.036788" lon="-1.369046">
        <ele>190.867979</ele>
        <time>2021-10-30T08:58:16.000Z</time>
      </trkpt>
      <trkpt lat="38.036778" lon="-1.368916">
        <ele>190.858360</ele>
        <time>2021-10-30T08:58:18.000Z</time>
      </trkpt>
      <trkpt lat="38.036713" lon="-1.368710">
        <ele>190.842018</ele>
        <time>2021-10-30T08:58:21.000Z</time>
      </trkpt>
      <trkpt lat="38.036694" lon="-1.368570">
        <ele>190.831556</ele>
        <time>2021-10-30T08:58:23.000Z</time>
      </trkpt>
      <trkpt lat="38.036693" lon="-1.368423">
        <ele>190.820731</ele>
        <time>2021-10-30T08:58:25.000Z</time>
      </trkpt>
      <trkpt lat="38.036707" lon="-1.368025">
        <ele>190.755841</ele>
        <time>2021-10-30T08:58:30.000Z</time>
      </trkpt>
      <trkpt lat="38.036757" lon="-1.367524">
        <ele>189.947708</ele>
        <time>2021-10-30T08:58:36.000Z</time>
      </trkpt>
      <trkpt lat="38.036789" lon="-1.367361">
        <ele>189.678888</ele>
        <time>2021-10-30T08:58:38.000Z</time>
      </trkpt>
      <trkpt lat="38.036889" lon="-1.366940">
        <ele>188.975217</ele>
        <time>2021-10-30T08:58:43.000Z</time>
      </trkpt>
      <trkpt lat="38.036962" lon="-1.366668">
        <ele>188.515375</ele>
        <time>2021-10-30T08:58:46.000Z</time>
      </trkpt>
      <trkpt lat="38.036985" lon="-1.366574">
        <ele>188.357862</ele>
        <time>2021-10-30T08:58:47.000Z</time>
      </trkpt>
      <trkpt lat="38.037072" lon="-1.366202">
        <ele>187.736884</ele>
        <time>2021-10-30T08:58:51.000Z</time>
      </trkpt>
      <trkpt lat="38.037095" lon="-1.366112">
        <ele>187.585471</ele>
        <time>2021-10-30T08:58:52.000Z</time>
      </trkpt>
      <trkpt lat="38.037119" lon="-1.366023">
        <ele>187.434934</ele>
        <time>2021-10-30T08:58:53.000Z</time>
      </trkpt>
      <trkpt lat="38.037188" lon="-1.365756">
        <ele>187.066661</ele>
        <time>2021-10-30T08:58:56.000Z</time>
      </trkpt>
      <trkpt lat="38.037255" lon="-1.365489">
        <ele>186.856122</ele>
        <time>2021-10-30T08:58:59.000Z</time>
      </trkpt>
      <trkpt lat="38.037278" lon="-1.365401">
        <ele>186.786461</ele>
        <time>2021-10-30T08:59:00.000Z</time>
      </trkpt>
      <trkpt lat="38.037300" lon="-1.365314">
        <ele>186.717809</ele>
        <time>2021-10-30T08:59:01.000Z</time>
      </trkpt>
      <trkpt lat="38.037323" lon="-1.365229">
        <ele>186.650283</ele>
        <time>2021-10-30T08:59:02.000Z</time>
      </trkpt>
      <trkpt lat="38.037344" lon="-1.365145">
        <ele>186.584069</ele>
        <time>2021-10-30T08:59:03.000Z</time>
      </trkpt>
      <trkpt lat="38.037434" lon="-1.364805">
        <ele>186.314579</ele>
        <time>2021-10-30T08:59:07.000Z</time>
      </trkpt>
      <trkpt lat="38.037613" lon="-1.364131">
        <ele>185.780176</ele>
        <time>2021-10-30T08:59:15.000Z</time>
      </trkpt>
      <trkpt lat="38.037636" lon="-1.364046">
        <ele>185.712650</ele>
        <time>2021-10-30T08:59:16.000Z</time>
      </trkpt>
      <trkpt lat="38.037727" lon="-1.363712">
        <ele>185.447119</ele>
        <time>2021-10-30T08:59:20.000Z</time>
      </trkpt>
      <trkpt lat="38.037839" lon="-1.363296">
        <ele>184.498727</ele>
        <time>2021-10-30T08:59:25.000Z</time>
      </trkpt>
      <trkpt lat="38.038000" lon="-1.362705">
        <ele>183.080223</ele>
        <time>2021-10-30T08:59:32.000Z</time>
      </trkpt>
      <trkpt lat="38.038051" lon="-1.362515">
        <ele>182.624900</ele>
        <time>2021-10-30T08:59:34.000Z</time>
      </trkpt>
      <trkpt lat="38.038128" lon="-1.362234">
        <ele>181.950027</ele>
        <time>2021-10-30T08:59:37.000Z</time>
      </trkpt>
      <trkpt lat="38.038150" lon="-1.362143">
        <ele>181.734105</ele>
        <time>2021-10-30T08:59:38.000Z</time>
      </trkpt>
      <trkpt lat="38.038249" lon="-1.361691">
        <ele>180.669920</ele>
        <time>2021-10-30T08:59:43.000Z</time>
      </trkpt>
      <trkpt lat="38.038261" lon="-1.361506">
        <ele>180.248862</ele>
        <time>2021-10-30T08:59:45.000Z</time>
      </trkpt>
      <trkpt lat="38.038265" lon="-1.361328">
        <ele>179.463149</ele>
        <time>2021-10-30T08:59:47.000Z</time>
      </trkpt>
      <trkpt lat="38.038269" lon="-1.361249">
        <ele>179.111261</ele>
        <time>2021-10-30T08:59:48.000Z</time>
      </trkpt>
      <trkpt lat="38.038276" lon="-1.361177">
        <ele>178.788786</ele>
        <time>2021-10-30T08:59:49.000Z</time>
      </trkpt>
      <trkpt lat="38.038284" lon="-1.361110">
        <ele>178.487562</ele>
        <time>2021-10-30T08:59:50.000Z</time>
      </trkpt>
      <trkpt lat="38.038302" lon="-1.360980">
        <ele>177.900838</ele>
        <time>2021-10-30T08:59:52.000Z</time>
      </trkpt>
      <trkpt lat="38.038313" lon="-1.360867">
        <ele>177.394721</ele>
        <time>2021-10-30T08:59:54.000Z</time>
      </trkpt>
      <trkpt lat="38.038297" lon="-1.360775">
        <ele>176.975921</ele>
        <time>2021-10-30T08:59:56.000Z</time>
      </trkpt>
      <trkpt lat="38.038229" lon="-1.360710">
        <ele>176.495537</ele>
        <time>2021-10-30T08:59:58.000Z</time>
      </trkpt>
      <trkpt lat="38.038181" lon="-1.360696">
        <ele>176.217576</ele>
        <time>2021-10-30T08:59:59.000Z</time>
      </trkpt>
      <trkpt lat="38.038130" lon="-1.360680">
        <ele>175.921083</ele>
        <time>2021-10-30T09:00:00.000Z</time>
      </trkpt>
      <trkpt lat="38.038027" lon="-1.360628">
        <ele>175.295498</ele>
        <time>2021-10-30T09:00:02.000Z</time>
      </trkpt>
      <trkpt lat="38.037919" lon="-1.360575">
        <ele>174.642017</ele>
        <time>2021-10-30T09:00:04.000Z</time>
      </trkpt>
      <trkpt lat="38.037850" lon="-1.360474">
        <ele>174.047699</ele>
        <time>2021-10-30T09:00:06.000Z</time>
      </trkpt>
      <trkpt lat="38.037846" lon="-1.360401">
        <ele>173.722421</ele>
        <time>2021-10-30T09:00:07.000Z</time>
      </trkpt>
      <trkpt lat="38.037865" lon="-1.360234">
        <ele>172.972382</ele>
        <time>2021-10-30T09:00:09.000Z</time>
      </trkpt>
      <trkpt lat="38.037869" lon="-1.360144">
        <ele>172.571685</ele>
        <time>2021-10-30T09:00:10.000Z</time>
      </trkpt>
      <trkpt lat="38.037867" lon="-1.360052">
        <ele>172.162578</ele>
        <time>2021-10-30T09:00:11.000Z</time>
      </trkpt>
      <trkpt lat="38.037860" lon="-1.359961">
        <ele>171.756148</ele>
        <time>2021-10-30T09:00:12.000Z</time>
      </trkpt>
      <trkpt lat="38.037850" lon="-1.359870">
        <ele>171.347724</ele>
        <time>2021-10-30T09:00:13.000Z</time>
      </trkpt>
      <trkpt lat="38.037832" lon="-1.359689">
        <ele>170.536770</ele>
        <time>2021-10-30T09:00:15.000Z</time>
      </trkpt>
      <trkpt lat="38.037814" lon="-1.359414">
        <ele>170.150716</ele>
        <time>2021-10-30T09:00:18.000Z</time>
      </trkpt>
      <trkpt lat="38.037806" lon="-1.359049">
        <ele>170.273699</ele>
        <time>2021-10-30T09:00:22.000Z</time>
      </trkpt>
      <trkpt lat="38.037854" lon="-1.358875">
        <ele>170.335795</ele>
        <time>2021-10-30T09:00:24.000Z</time>
      </trkpt>
      <trkpt lat="38.037912" lon="-1.358711">
        <ele>170.396344</ele>
        <time>2021-10-30T09:00:26.000Z</time>
      </trkpt>
      <trkpt lat="38.037923" lon="-1.358632">
        <ele>170.423365</ele>
        <time>2021-10-30T09:00:27.000Z</time>
      </trkpt>
      <trkpt lat="38.037938" lon="-1.358266">
        <ele>170.546803</ele>
        <time>2021-10-30T09:00:32.000Z</time>
      </trkpt>
      <trkpt lat="38.037933" lon="-1.358195">
        <ele>170.570812</ele>
        <time>2021-10-30T09:00:33.000Z</time>
      </trkpt>
      <trkpt lat="38.037930" lon="-1.358124">
        <ele>170.594760</ele>
        <time>2021-10-30T09:00:34.000Z</time>
      </trkpt>
      <trkpt lat="38.037930" lon="-1.357988">
        <ele>170.640566</ele>
        <time>2021-10-30T09:00:36.000Z</time>
      </trkpt>
      <trkpt lat="38.037941" lon="-1.357924">
        <ele>170.662629</ele>
        <time>2021-10-30T09:00:37.000Z</time>
      </trkpt>
      <trkpt lat="38.037956" lon="-1.357859">
        <ele>170.685442</ele>
        <time>2021-10-30T09:00:38.000Z</time>
      </trkpt>
      <trkpt lat="38.037989" lon="-1.357734">
        <ele>170.729845</ele>
        <time>2021-10-30T09:00:40.000Z</time>
      </trkpt>
      <trkpt lat="38.038006" lon="-1.357674">
        <ele>170.751321</ele>
        <time>2021-10-30T09:00:41.000Z</time>
      </trkpt>
      <trkpt lat="38.038101" lon="-1.357327">
        <ele>171.010854</ele>
        <time>2021-10-30T09:00:47.000Z</time>
      </trkpt>
      <trkpt lat="38.038259" lon="-1.356834">
        <ele>172.883693</ele>
        <time>2021-10-30T09:00:55.000Z</time>
      </trkpt>
      <trkpt lat="38.038410" lon="-1.356392">
        <ele>174.578964</ele>
        <time>2021-10-30T09:01:03.000Z</time>
      </trkpt>
      <trkpt lat="38.038443" lon="-1.356297">
        <ele>174.944308</ele>
        <time>2021-10-30T09:01:05.000Z</time>
      </trkpt>
      <trkpt lat="38.038543" lon="-1.356093">
        <ele>175.789797</ele>
        <time>2021-10-30T09:01:10.000Z</time>
      </trkpt>
      <trkpt lat="38.038566" lon="-1.356072">
        <ele>175.916362</ele>
        <time>2021-10-30T09:01:11.000Z</time>
      </trkpt>
      <trkpt lat="38.038635" lon="-1.356049">
        <ele>176.235074</ele>
        <time>2021-10-30T09:01:14.000Z</time>
      </trkpt>
      <trkpt lat="38.038659" lon="-1.356050">
        <ele>176.342355</ele>
        <time>2021-10-30T09:01:15.000Z</time>
      </trkpt>
      <trkpt lat="38.038728" lon="-1.356064">
        <ele>176.654532</ele>
        <time>2021-10-30T09:01:18.000Z</time>
      </trkpt>
      <trkpt lat="38.038802" lon="-1.356072">
        <ele>176.986333</ele>
        <time>2021-10-30T09:01:21.000Z</time>
      </trkpt>
      <trkpt lat="38.038850" lon="-1.356086">
        <ele>177.206364</ele>
        <time>2021-10-30T09:01:23.000Z</time>
      </trkpt>
      <trkpt lat="38.038997" lon="-1.356131">
        <ele>177.881923</ele>
        <time>2021-10-30T09:01:29.000Z</time>
      </trkpt>
      <trkpt lat="38.039048" lon="-1.356147">
        <ele>178.116624</ele>
        <time>2021-10-30T09:01:31.000Z</time>
      </trkpt>
      <trkpt lat="38.039089" lon="-1.356178">
        <ele>178.329815</ele>
        <time>2021-10-30T09:01:33.000Z</time>
      </trkpt>
      <trkpt lat="38.039122" lon="-1.356249">
        <ele>178.619898</ele>
        <time>2021-10-30T09:01:35.000Z</time>
      </trkpt>
      <trkpt lat="38.039164" lon="-1.356373">
        <ele>178.968659</ele>
        <time>2021-10-30T09:01:38.000Z</time>
      </trkpt>
      <trkpt lat="38.039218" lon="-1.356432">
        <ele>179.084610</ele>
        <time>2021-10-30T09:01:40.000Z</time>
      </trkpt>
      <trkpt lat="38.039254" lon="-1.356442">
        <ele>179.144589</ele>
        <time>2021-10-30T09:01:41.000Z</time>
      </trkpt>
      <trkpt lat="38.039320" lon="-1.356410">
        <ele>179.259576</ele>
        <time>2021-10-30T09:01:43.000Z</time>
      </trkpt>
      <trkpt lat="38.039392" lon="-1.356261">
        <ele>179.483660</ele>
        <time>2021-10-30T09:01:47.000Z</time>
      </trkpt>
      <trkpt lat="38.039464" lon="-1.356110">
        <ele>179.709933</ele>
        <time>2021-10-30T09:01:51.000Z</time>
      </trkpt>
      <trkpt lat="38.039481" lon="-1.356070">
        <ele>179.768197</ele>
        <time>2021-10-30T09:01:52.000Z</time>
      </trkpt>
      <trkpt lat="38.039510" lon="-1.355993">
        <ele>179.877606</ele>
        <time>2021-10-30T09:01:54.000Z</time>
      </trkpt>
      <trkpt lat="38.039584" lon="-1.355834">
        <ele>180.114351</ele>
        <time>2021-10-30T09:01:59.000Z</time>
      </trkpt>
      <trkpt lat="38.039604" lon="-1.355803">
        <ele>180.165720</ele>
        <time>2021-10-30T09:02:00.000Z</time>
      </trkpt>
      <trkpt lat="38.039626" lon="-1.355773">
        <ele>180.218265</ele>
        <time>2021-10-30T09:02:01.000Z</time>
      </trkpt>
      <trkpt lat="38.039732" lon="-1.355543">
        <ele>180.559864</ele>
        <time>2021-10-30T09:02:06.000Z</time>
      </trkpt>
      <trkpt lat="38.039774" lon="-1.355437">
        <ele>180.711968</ele>
        <time>2021-10-30T09:02:08.000Z</time>
      </trkpt>
      <trkpt lat="38.039850" lon="-1.355288">
        <ele>180.939524</ele>
        <time>2021-10-30T09:02:11.000Z</time>
      </trkpt>
      <trkpt lat="38.039873" lon="-1.355239">
        <ele>181.012644</ele>
        <time>2021-10-30T09:02:12.000Z</time>
      </trkpt>
      <trkpt lat="38.039978" lon="-1.354982">
        <ele>181.383773</ele>
        <time>2021-10-30T09:02:18.000Z</time>
      </trkpt>
      <trkpt lat="38.039994" lon="-1.354973">
        <ele>181.412255</ele>
        <time>2021-10-30T09:02:19.000Z</time>
      </trkpt>
      <trkpt lat="38.040049" lon="-1.354943">
        <ele>181.509684</ele>
        <time>2021-10-30T09:02:22.000Z</time>
      </trkpt>
      <trkpt lat="38.040054" lon="-1.354918">
        <ele>181.542748</ele>
        <time>2021-10-30T09:02:23.000Z</time>
      </trkpt>
      <trkpt lat="38.040054" lon="-1.354849">
        <ele>181.631196</ele>
        <time>2021-10-30T09:02:25.000Z</time>
      </trkpt>
      <trkpt lat="38.040061" lon="-1.354802">
        <ele>181.692512</ele>
        <time>2021-10-30T09:02:26.000Z</time>
      </trkpt>
      <trkpt lat="38.040166" lon="-1.354556">
        <ele>181.656095</ele>
        <time>2021-10-30T09:02:31.000Z</time>
      </trkpt>
      <trkpt lat="38.040190" lon="-1.354390">
        <ele>181.496520</ele>
        <time>2021-10-30T09:02:35.000Z</time>
      </trkpt>
      <trkpt lat="38.040268" lon="-1.354229">
        <ele>181.317800</ele>
        <time>2021-10-30T09:02:40.000Z</time>
      </trkpt>
      <trkpt lat="38.040260" lon="-1.354135">
        <ele>181.228406</ele>
        <time>2021-10-30T09:02:46.000Z</time>
      </trkpt>
      <trkpt lat="38.040307" lon="-1.354153">
        <ele>181.169471</ele>
        <time>2021-10-30T09:02:49.000Z</time>
      </trkpt>
      <trkpt lat="38.040336" lon="-1.354151">
        <ele>181.134605</ele>
        <time>2021-10-30T09:02:50.000Z</time>
      </trkpt>
      <trkpt lat="38.040398" lon="-1.354099">
        <ele>181.045401</ele>
        <time>2021-10-30T09:02:52.000Z</time>
      </trkpt>
      <trkpt lat="38.040614" lon="-1.353881">
        <ele>180.714151</ele>
        <time>2021-10-30T09:02:58.000Z</time>
      </trkpt>
      <trkpt lat="38.040785" lon="-1.353726">
        <ele>180.461920</ele>
        <time>2021-10-30T09:03:02.000Z</time>
      </trkpt>
      <trkpt lat="38.040831" lon="-1.353693">
        <ele>180.398492</ele>
        <time>2021-10-30T09:03:03.000Z</time>
      </trkpt>
      <trkpt lat="38.040874" lon="-1.353654">
        <ele>180.335053</ele>
        <time>2021-10-30T09:03:04.000Z</time>
      </trkpt>
      <trkpt lat="38.040949" lon="-1.353563">
        <ele>180.210515</ele>
        <time>2021-10-30T09:03:06.000Z</time>
      </trkpt>
      <trkpt lat="38.041065" lon="-1.353459">
        <ele>180.040039</ele>
        <time>2021-10-30T09:03:09.000Z</time>
      </trkpt>
      <trkpt lat="38.041202" lon="-1.353350">
        <ele>179.845948</ele>
        <time>2021-10-30T09:03:13.000Z</time>
      </trkpt>
      <trkpt lat="38.041339" lon="-1.353250">
        <ele>179.648935</ele>
        <time>2021-10-30T09:03:18.000Z</time>
      </trkpt>
      <trkpt lat="38.041531" lon="-1.353151">
        <ele>179.180636</ele>
        <time>2021-10-30T09:03:23.000Z</time>
      </trkpt>
      <trkpt lat="38.041613" lon="-1.353102">
        <ele>178.975834</ele>
        <time>2021-10-30T09:03:25.000Z</time>
      </trkpt>
      <trkpt lat="38.041743" lon="-1.353034">
        <ele>178.658104</ele>
        <time>2021-10-30T09:03:28.000Z</time>
      </trkpt>
      <trkpt lat="38.041880" lon="-1.352979">
        <ele>178.333400</ele>
        <time>2021-10-30T09:03:31.000Z</time>
      </trkpt>
      <trkpt lat="38.041974" lon="-1.352939">
        <ele>178.109364</ele>
        <time>2021-10-30T09:03:33.000Z</time>
      </trkpt>
      <trkpt lat="38.042021" lon="-1.352912">
        <ele>177.992788</ele>
        <time>2021-10-30T09:03:34.000Z</time>
      </trkpt>
      <trkpt lat="38.042217" lon="-1.352784">
        <ele>177.494710</ele>
        <time>2021-10-30T09:03:38.000Z</time>
      </trkpt>
      <trkpt lat="38.042267" lon="-1.352748">
        <ele>177.364817</ele>
        <time>2021-10-30T09:03:39.000Z</time>
      </trkpt>
      <trkpt lat="38.042319" lon="-1.352712">
        <ele>177.230974</ele>
        <time>2021-10-30T09:03:40.000Z</time>
      </trkpt>
      <trkpt lat="38.042478" lon="-1.352588">
        <ele>176.809299</ele>
        <time>2021-10-30T09:03:43.000Z</time>
      </trkpt>
      <trkpt lat="38.042587" lon="-1.352503">
        <ele>176.520232</ele>
        <time>2021-10-30T09:03:45.000Z</time>
      </trkpt>
      <trkpt lat="38.042753" lon="-1.352369">
        <ele>176.075711</ele>
        <time>2021-10-30T09:03:48.000Z</time>
      </trkpt>
      <trkpt lat="38.042990" lon="-1.352174">
        <ele>175.416997</ele>
        <time>2021-10-30T09:03:52.000Z</time>
      </trkpt>
      <trkpt lat="38.043053" lon="-1.352121">
        <ele>175.224629</ele>
        <time>2021-10-30T09:03:53.000Z</time>
      </trkpt>
      <trkpt lat="38.043251" lon="-1.351955">
        <ele>174.620676</ele>
        <time>2021-10-30T09:03:56.000Z</time>
      </trkpt>
      <trkpt lat="38.043442" lon="-1.351795">
        <ele>174.038220</ele>
        <time>2021-10-30T09:03:59.000Z</time>
      </trkpt>
      <trkpt lat="38.043678" lon="-1.351597">
        <ele>173.318202</ele>
        <time>2021-10-30T09:04:03.000Z</time>
      </trkpt>
      <trkpt lat="38.044033" lon="-1.351300">
        <ele>172.236051</ele>
        <time>2021-10-30T09:04:09.000Z</time>
      </trkpt>
      <trkpt lat="38.044153" lon="-1.351201">
        <ele>171.871785</ele>
        <time>2021-10-30T09:04:11.000Z</time>
      </trkpt>
      <trkpt lat="38.044456" lon="-1.350946">
        <ele>171.004448</ele>
        <time>2021-10-30T09:04:16.000Z</time>
      </trkpt>
      <trkpt lat="38.044690" lon="-1.350725">
        <ele>170.835818</ele>
        <time>2021-10-30T09:04:20.000Z</time>
      </trkpt>
      <trkpt lat="38.044851" lon="-1.350548">
        <ele>170.712677</ele>
        <time>2021-10-30T09:04:23.000Z</time>
      </trkpt>
      <trkpt lat="38.045098" lon="-1.350241">
        <ele>170.512819</ele>
        <time>2021-10-30T09:04:28.000Z</time>
      </trkpt>
      <trkpt lat="38.045274" lon="-1.349994">
        <ele>170.361134</ele>
        <time>2021-10-30T09:04:32.000Z</time>
      </trkpt>
      <trkpt lat="38.045296" lon="-1.349926">
        <ele>170.327658</ele>
        <time>2021-10-30T09:04:33.000Z</time>
      </trkpt>
      <trkpt lat="38.045298" lon="-1.349861">
        <ele>170.298036</ele>
        <time>2021-10-30T09:04:34.000Z</time>
      </trkpt>
      <trkpt lat="38.045266" lon="-1.349751">
        <ele>170.244636</ele>
        <time>2021-10-30T09:04:36.000Z</time>
      </trkpt>
      <trkpt lat="38.045234" lon="-1.349638">
        <ele>170.189953</ele>
        <time>2021-10-30T09:04:38.000Z</time>
      </trkpt>
      <trkpt lat="38.045254" lon="-1.349510">
        <ele>170.130529</ele>
        <time>2021-10-30T09:04:40.000Z</time>
      </trkpt>
      <trkpt lat="38.045320" lon="-1.349397">
        <ele>170.066464</ele>
        <time>2021-10-30T09:04:42.000Z</time>
      </trkpt>
      <trkpt lat="38.045407" lon="-1.349317">
        <ele>170.004352</ele>
        <time>2021-10-30T09:04:44.000Z</time>
      </trkpt>
      <trkpt lat="38.045516" lon="-1.349301">
        <ele>169.812356</ele>
        <time>2021-10-30T09:04:46.000Z</time>
      </trkpt>
      <trkpt lat="38.045580" lon="-1.349309">
        <ele>169.657255</ele>
        <time>2021-10-30T09:04:47.000Z</time>
      </trkpt>
      <trkpt lat="38.045646" lon="-1.349309">
        <ele>169.498077</ele>
        <time>2021-10-30T09:04:48.000Z</time>
      </trkpt>
      <trkpt lat="38.045774" lon="-1.349260">
        <ele>169.175644</ele>
        <time>2021-10-30T09:04:50.000Z</time>
      </trkpt>
      <trkpt lat="38.045882" lon="-1.349157">
        <ele>168.849887</ele>
        <time>2021-10-30T09:04:52.000Z</time>
      </trkpt>
      <trkpt lat="38.045927" lon="-1.349094">
        <ele>168.688342</ele>
        <time>2021-10-30T09:04:53.000Z</time>
      </trkpt>
      <trkpt lat="38.046060" lon="-1.348901">
        <ele>168.201243</ele>
        <time>2021-10-30T09:04:56.000Z</time>
      </trkpt>
      <trkpt lat="38.046207" lon="-1.348711">
        <ele>167.695357</ele>
        <time>2021-10-30T09:04:59.000Z</time>
      </trkpt>
      <trkpt lat="38.046306" lon="-1.348575">
        <ele>167.343601</ele>
        <time>2021-10-30T09:05:01.000Z</time>
      </trkpt>
      <trkpt lat="38.046524" lon="-1.348297">
        <ele>166.598465</ele>
        <time>2021-10-30T09:05:05.000Z</time>
      </trkpt>
      <trkpt lat="38.046588" lon="-1.348217">
        <ele>166.381872</ele>
        <time>2021-10-30T09:05:06.000Z</time>
      </trkpt>
      <trkpt lat="38.046651" lon="-1.348134">
        <ele>166.162925</ele>
        <time>2021-10-30T09:05:07.000Z</time>
      </trkpt>
      <trkpt lat="38.046728" lon="-1.348020">
        <ele>165.877673</ele>
        <time>2021-10-30T09:05:09.000Z</time>
      </trkpt>
      <trkpt lat="38.046767" lon="-1.347968">
        <ele>165.741286</ele>
        <time>2021-10-30T09:05:12.000Z</time>
      </trkpt>
      <trkpt lat="38.046778" lon="-1.347958">
        <ele>165.708658</ele>
        <time>2021-10-30T09:05:13.000Z</time>
      </trkpt>
      <trkpt lat="38.046799" lon="-1.347928">
        <ele>165.644368</ele>
        <time>2021-10-30T09:05:15.000Z</time>
      </trkpt>
      <trkpt lat="38.046838" lon="-1.347859">
        <ele>165.657076</ele>
        <time>2021-10-30T09:05:18.000Z</time>
      </trkpt>
      <trkpt lat="38.046857" lon="-1.347830">
        <ele>165.662721</ele>
        <time>2021-10-30T09:05:19.000Z</time>
      </trkpt>
      <trkpt lat="38.046879" lon="-1.347795">
        <ele>165.669421</ele>
        <time>2021-10-30T09:05:20.000Z</time>
      </trkpt>
      <trkpt lat="38.046934" lon="-1.347705">
        <ele>165.686467</ele>
        <time>2021-10-30T09:05:22.000Z</time>
      </trkpt>
      <trkpt lat="38.046965" lon="-1.347653">
        <ele>165.696226</ele>
        <time>2021-10-30T09:05:23.000Z</time>
      </trkpt>
      <trkpt lat="38.047031" lon="-1.347540">
        <ele>165.717277</ele>
        <time>2021-10-30T09:05:25.000Z</time>
      </trkpt>
      <trkpt lat="38.047184" lon="-1.347319">
        <ele>165.761306</ele>
        <time>2021-10-30T09:05:29.000Z</time>
      </trkpt>
      <trkpt lat="38.047222" lon="-1.347263">
        <ele>165.772367</ele>
        <time>2021-10-30T09:05:30.000Z</time>
      </trkpt>
      <trkpt lat="38.047261" lon="-1.347209">
        <ele>165.783330</ele>
        <time>2021-10-30T09:05:31.000Z</time>
      </trkpt>
      <trkpt lat="38.047300" lon="-1.347157">
        <ele>165.794075</ele>
        <time>2021-10-30T09:05:32.000Z</time>
      </trkpt>
      <trkpt lat="38.047460" lon="-1.346948">
        <ele>165.837689</ele>
        <time>2021-10-30T09:05:36.000Z</time>
      </trkpt>
      <trkpt lat="38.047500" lon="-1.346895">
        <ele>165.848673</ele>
        <time>2021-10-30T09:05:37.000Z</time>
      </trkpt>
      <trkpt lat="38.047658" lon="-1.346681">
        <ele>165.892565</ele>
        <time>2021-10-30T09:05:41.000Z</time>
      </trkpt>
      <trkpt lat="38.047814" lon="-1.346473">
        <ele>165.935544</ele>
        <time>2021-10-30T09:05:45.000Z</time>
      </trkpt>
      <trkpt lat="38.047851" lon="-1.346421">
        <ele>165.946030</ele>
        <time>2021-10-30T09:05:46.000Z</time>
      </trkpt>
      <trkpt lat="38.047920" lon="-1.346314">
        <ele>165.966723</ele>
        <time>2021-10-30T09:05:48.000Z</time>
      </trkpt>
      <trkpt lat="38.048033" lon="-1.346159">
        <ele>165.990608</ele>
        <time>2021-10-30T09:05:51.000Z</time>
      </trkpt>
      <trkpt lat="38.048228" lon="-1.345896">
        <ele>166.012764</ele>
        <time>2021-10-30T09:05:56.000Z</time>
      </trkpt>
      <trkpt lat="38.048267" lon="-1.345841">
        <ele>166.017304</ele>
        <time>2021-10-30T09:05:57.000Z</time>
      </trkpt>
      <trkpt lat="38.048381" lon="-1.345684">
        <ele>166.030403</ele>
        <time>2021-10-30T09:06:00.000Z</time>
      </trkpt>
      <trkpt lat="38.048774" lon="-1.345135">
        <ele>166.075911</ele>
        <time>2021-10-30T09:06:11.000Z</time>
      </trkpt>
      <trkpt lat="38.048932" lon="-1.344901">
        <ele>166.094817</ele>
        <time>2021-10-30T09:06:16.000Z</time>
      </trkpt>
      <trkpt lat="38.049025" lon="-1.344763">
        <ele>166.105958</ele>
        <time>2021-10-30T09:06:19.000Z</time>
      </trkpt>
      <trkpt lat="38.049108" lon="-1.344615">
        <ele>166.117103</ele>
        <time>2021-10-30T09:06:22.000Z</time>
      </trkpt>
      <trkpt lat="38.049241" lon="-1.344358">
        <ele>166.324266</ele>
        <time>2021-10-30T09:06:27.000Z</time>
      </trkpt>
      <trkpt lat="38.049393" lon="-1.343872">
        <ele>166.924743</ele>
        <time>2021-10-30T09:06:35.000Z</time>
      </trkpt>
      <trkpt lat="38.049449" lon="-1.343607">
        <ele>167.239808</ele>
        <time>2021-10-30T09:06:39.000Z</time>
      </trkpt>
      <trkpt lat="38.049482" lon="-1.343401">
        <ele>167.481202</ele>
        <time>2021-10-30T09:06:42.000Z</time>
      </trkpt>
      <trkpt lat="38.049510" lon="-1.343123">
        <ele>167.803029</ele>
        <time>2021-10-30T09:06:46.000Z</time>
      </trkpt>
      <trkpt lat="38.049557" lon="-1.342865">
        <ele>168.107113</ele>
        <time>2021-10-30T09:06:50.000Z</time>
      </trkpt>
      <trkpt lat="38.049601" lon="-1.342767">
        <ele>168.236651</ele>
        <time>2021-10-30T09:06:52.000Z</time>
      </trkpt>
      <trkpt lat="38.049674" lon="-1.342702">
        <ele>168.366660</ele>
        <time>2021-10-30T09:06:54.000Z</time>
      </trkpt>
      <trkpt lat="38.049777" lon="-1.342607">
        <ele>168.552289</ele>
        <time>2021-10-30T09:06:57.000Z</time>
      </trkpt>
      <trkpt lat="38.049869" lon="-1.342527">
        <ele>168.714881</ele>
        <time>2021-10-30T09:07:00.000Z</time>
      </trkpt>
      <trkpt lat="38.049953" lon="-1.342446">
        <ele>168.955727</ele>
        <time>2021-10-30T09:07:03.000Z</time>
      </trkpt>
      <trkpt lat="38.050033" lon="-1.342334">
        <ele>169.254714</ele>
        <time>2021-10-30T09:07:07.000Z</time>
      </trkpt>
      <trkpt lat="38.050024" lon="-1.342295">
        <ele>169.335071</ele>
        <time>2021-10-30T09:07:08.000Z</time>
      </trkpt>
      <trkpt lat="38.049988" lon="-1.342210">
        <ele>169.525906</ele>
        <time>2021-10-30T09:07:10.000Z</time>
      </trkpt>
      <trkpt lat="38.049967" lon="-1.342097">
        <ele>169.755477</ele>
        <time>2021-10-30T09:07:12.000Z</time>
      </trkpt>
      <trkpt lat="38.049917" lon="-1.341990">
        <ele>170.001493</ele>
        <time>2021-10-30T09:07:14.000Z</time>
      </trkpt>
      <trkpt lat="38.049872" lon="-1.341871">
        <ele>170.262513</ele>
        <time>2021-10-30T09:07:16.000Z</time>
      </trkpt>
      <trkpt lat="38.049869" lon="-1.341806">
        <ele>170.391258</ele>
        <time>2021-10-30T09:07:17.000Z</time>
      </trkpt>
      <trkpt lat="38.049884" lon="-1.341744">
        <ele>170.519505</ele>
        <time>2021-10-30T09:07:18.000Z</time>
      </trkpt>
      <trkpt lat="38.049945" lon="-1.341650">
        <ele>170.760348</ele>
        <time>2021-10-30T09:07:20.000Z</time>
      </trkpt>
      <trkpt lat="38.050100" lon="-1.341532">
        <ele>171.214120</ele>
        <time>2021-10-30T09:07:24.000Z</time>
      </trkpt>
      <trkpt lat="38.050138" lon="-1.341504">
        <ele>171.324435</ele>
        <time>2021-10-30T09:07:25.000Z</time>
      </trkpt>
      <trkpt lat="38.050173" lon="-1.341474">
        <ele>171.430463</ele>
        <time>2021-10-30T09:07:26.000Z</time>
      </trkpt>
      <trkpt lat="38.050210" lon="-1.341445">
        <ele>171.539638</ele>
        <time>2021-10-30T09:07:27.000Z</time>
      </trkpt>
      <trkpt lat="38.050247" lon="-1.341417">
        <ele>171.647787</ele>
        <time>2021-10-30T09:07:28.000Z</time>
      </trkpt>
      <trkpt lat="38.050285" lon="-1.341391">
        <ele>171.756171</ele>
        <time>2021-10-30T09:07:29.000Z</time>
      </trkpt>
      <trkpt lat="38.050322" lon="-1.341363">
        <ele>171.864320</ele>
        <time>2021-10-30T09:07:30.000Z</time>
      </trkpt>
      <trkpt lat="38.050358" lon="-1.341333">
        <ele>171.972438</ele>
        <time>2021-10-30T09:07:31.000Z</time>
      </trkpt>
      <trkpt lat="38.050393" lon="-1.341303">
        <ele>172.078467</ele>
        <time>2021-10-30T09:07:32.000Z</time>
      </trkpt>
      <trkpt lat="38.050491" lon="-1.341226">
        <ele>172.367829</ele>
        <time>2021-10-30T09:07:35.000Z</time>
      </trkpt>
      <trkpt lat="38.050523" lon="-1.341197">
        <ele>172.466541</ele>
        <time>2021-10-30T09:07:37.000Z</time>
      </trkpt>
      <trkpt lat="38.050534" lon="-1.341187">
        <ele>172.500509</ele>
        <time>2021-10-30T09:07:38.000Z</time>
      </trkpt>
      <trkpt lat="38.050601" lon="-1.341119">
        <ele>172.715869</ele>
        <time>2021-10-30T09:07:41.000Z</time>
      </trkpt>
      <trkpt lat="38.050627" lon="-1.341015">
        <ele>172.931619</ele>
        <time>2021-10-30T09:07:43.000Z</time>
      </trkpt>
      <trkpt lat="38.050616" lon="-1.340965">
        <ele>173.034268</ele>
        <time>2021-10-30T09:07:44.000Z</time>
      </trkpt>
      <trkpt lat="38.050592" lon="-1.340921">
        <ele>173.140100</ele>
        <time>2021-10-30T09:07:45.000Z</time>
      </trkpt>
      <trkpt lat="38.050519" lon="-1.340855">
        <ele>173.238081</ele>
        <time>2021-10-30T09:07:47.000Z</time>
      </trkpt>
      <trkpt lat="38.050429" lon="-1.340832">
        <ele>173.177942</ele>
        <time>2021-10-30T09:07:49.000Z</time>
      </trkpt>
      <trkpt lat="38.050337" lon="-1.340809">
        <ele>173.116519</ele>
        <time>2021-10-30T09:07:51.000Z</time>
      </trkpt>
      <trkpt lat="38.049995" lon="-1.340637">
        <ele>172.875554</ele>
        <time>2021-10-30T09:07:58.000Z</time>
      </trkpt>
      <trkpt lat="38.049748" lon="-1.340500">
        <ele>172.698990</ele>
        <time>2021-10-30T09:08:03.000Z</time>
      </trkpt>
      <trkpt lat="38.049707" lon="-1.340463">
        <ele>172.666041</ele>
        <time>2021-10-30T09:08:04.000Z</time>
      </trkpt>
      <trkpt lat="38.049662" lon="-1.340345">
        <ele>172.598408</ele>
        <time>2021-10-30T09:08:06.000Z</time>
      </trkpt>
      <trkpt lat="38.049659" lon="-1.340269">
        <ele>172.559154</ele>
        <time>2021-10-30T09:08:07.000Z</time>
      </trkpt>
      <trkpt lat="38.049669" lon="-1.340194">
        <ele>172.519914</ele>
        <time>2021-10-30T09:08:08.000Z</time>
      </trkpt>
      <trkpt lat="38.049714" lon="-1.340049">
        <ele>172.439516</ele>
        <time>2021-10-30T09:08:10.000Z</time>
      </trkpt>
      <trkpt lat="38.049828" lon="-1.339770">
        <ele>172.277372</ele>
        <time>2021-10-30T09:08:14.000Z</time>
      </trkpt>
      <trkpt lat="38.049894" lon="-1.339554">
        <ele>172.157854</ele>
        <time>2021-10-30T09:08:17.000Z</time>
      </trkpt>
      <trkpt lat="38.049953" lon="-1.339346">
        <ele>172.122682</ele>
        <time>2021-10-30T09:08:20.000Z</time>
      </trkpt>
      <trkpt lat="38.049972" lon="-1.339259">
        <ele>172.162923</ele>
        <time>2021-10-30T09:08:22.000Z</time>
      </trkpt>
      <trkpt lat="38.049994" lon="-1.339173">
        <ele>172.203226</ele>
        <time>2021-10-30T09:08:26.000Z</time>
      </trkpt>
      <trkpt lat="38.049996" lon="-1.339155">
        <ele>172.211328</ele>
        <time>2021-10-30T09:08:27.000Z</time>
      </trkpt>
      <trkpt lat="38.049995" lon="-1.339133">
        <ele>172.221150</ele>
        <time>2021-10-30T09:08:28.000Z</time>
      </trkpt>
      <trkpt lat="38.049994" lon="-1.339107">
        <ele>172.232752</ele>
        <time>2021-10-30T09:08:29.000Z</time>
      </trkpt>
      <trkpt lat="38.049995" lon="-1.339075">
        <ele>172.247026</ele>
        <time>2021-10-30T09:08:30.000Z</time>
      </trkpt>
      <trkpt lat="38.050005" lon="-1.339009">
        <ele>172.276983</ele>
        <time>2021-10-30T09:08:32.000Z</time>
      </trkpt>
      <trkpt lat="38.050042" lon="-1.338875">
        <ele>172.340273</ele>
        <time>2021-10-30T09:08:36.000Z</time>
      </trkpt>
      <trkpt lat="38.050060" lon="-1.338811">
        <ele>172.370564</ele>
        <time>2021-10-30T09:08:38.000Z</time>
      </trkpt>
      <trkpt lat="38.050074" lon="-1.338746">
        <ele>172.400599</ele>
        <time>2021-10-30T09:08:40.000Z</time>
      </trkpt>
      <trkpt lat="38.050083" lon="-1.338669">
        <ele>172.435295</ele>
        <time>2021-10-30T09:08:42.000Z</time>
      </trkpt>
      <trkpt lat="38.050075" lon="-1.338629">
        <ele>172.453689</ele>
        <time>2021-10-30T09:08:43.000Z</time>
      </trkpt>
      <trkpt lat="38.050057" lon="-1.338593">
        <ele>172.472696</ele>
        <time>2021-10-30T09:08:44.000Z</time>
      </trkpt>
      <trkpt lat="38.050030" lon="-1.338558">
        <ele>172.494534</ele>
        <time>2021-10-30T09:08:45.000Z</time>
      </trkpt>
      <trkpt lat="38.049972" lon="-1.338489">
        <ele>172.539517</ele>
        <time>2021-10-30T09:08:47.000Z</time>
      </trkpt>
      <trkpt lat="38.049948" lon="-1.338452">
        <ele>172.560883</ele>
        <time>2021-10-30T09:08:48.000Z</time>
      </trkpt>
      <trkpt lat="38.049936" lon="-1.338406">
        <ele>172.582481</ele>
        <time>2021-10-30T09:08:49.000Z</time>
      </trkpt>
      <trkpt lat="38.049937" lon="-1.338359">
        <ele>172.603438</ele>
        <time>2021-10-30T09:08:50.000Z</time>
      </trkpt>
      <trkpt lat="38.049979" lon="-1.338165">
        <ele>172.693114</ele>
        <time>2021-10-30T09:08:54.000Z</time>
      </trkpt>
      <trkpt lat="38.049977" lon="-1.338111">
        <ele>172.717209</ele>
        <time>2021-10-30T09:08:55.000Z</time>
      </trkpt>
      <trkpt lat="38.049958" lon="-1.338058">
        <ele>172.743164</ele>
        <time>2021-10-30T09:08:56.000Z</time>
      </trkpt>
      <trkpt lat="38.049880" lon="-1.337982">
        <ele>172.798811</ele>
        <time>2021-10-30T09:08:58.000Z</time>
      </trkpt>
      <trkpt lat="38.049672" lon="-1.337878">
        <ele>172.925336</ele>
        <time>2021-10-30T09:09:02.000Z</time>
      </trkpt>
      <trkpt lat="38.049566" lon="-1.337816">
        <ele>172.991391</ele>
        <time>2021-10-30T09:09:04.000Z</time>
      </trkpt>
      <trkpt lat="38.049460" lon="-1.337750">
        <ele>173.058211</ele>
        <time>2021-10-30T09:09:06.000Z</time>
      </trkpt>
      <trkpt lat="38.049121" lon="-1.337548">
        <ele>171.972239</ele>
        <time>2021-10-30T09:09:12.000Z</time>
      </trkpt>
      <trkpt lat="38.048922" lon="-1.337403">
        <ele>171.086763</ele>
        <time>2021-10-30T09:09:17.000Z</time>
      </trkpt>
      <trkpt lat="38.048906" lon="-1.337399">
        <ele>171.023827</ele>
        <time>2021-10-30T09:09:19.000Z</time>
      </trkpt>
      <trkpt lat="38.048887" lon="-1.337426">
        <ele>170.913778</ele>
        <time>2021-10-30T09:09:21.000Z</time>
      </trkpt>
      <trkpt lat="38.048873" lon="-1.337454">
        <ele>170.812975</ele>
        <time>2021-10-30T09:09:22.000Z</time>
      </trkpt>
      <trkpt lat="38.048805" lon="-1.337577">
        <ele>170.356224</ele>
        <time>2021-10-30T09:09:25.000Z</time>
      </trkpt>
      <trkpt lat="38.048646" lon="-1.337855">
        <ele>169.311985</ele>
        <time>2021-10-30T09:09:30.000Z</time>
      </trkpt>
      <trkpt lat="38.048611" lon="-1.337920">
        <ele>169.072668</ele>
        <time>2021-10-30T09:09:31.000Z</time>
      </trkpt>
      <trkpt lat="38.048516" lon="-1.338106">
        <ele>168.398878</ele>
        <time>2021-10-30T09:09:34.000Z</time>
      </trkpt>
      <trkpt lat="38.048490" lon="-1.338156">
        <ele>168.216774</ele>
        <time>2021-10-30T09:09:35.000Z</time>
      </trkpt>
      <trkpt lat="38.048469" lon="-1.338207">
        <ele>168.041862</ele>
        <time>2021-10-30T09:09:36.000Z</time>
      </trkpt>
      <trkpt lat="38.048444" lon="-1.338293">
        <ele>167.763246</ele>
        <time>2021-10-30T09:09:38.000Z</time>
      </trkpt>
      <trkpt lat="38.048432" lon="-1.338321">
        <ele>167.666361</ele>
        <time>2021-10-30T09:09:39.000Z</time>
      </trkpt>
      <trkpt lat="38.048398" lon="-1.338367">
        <ele>167.474620</ele>
        <time>2021-10-30T09:09:42.000Z</time>
      </trkpt>
      <trkpt lat="38.048385" lon="-1.338361">
        <ele>167.421237</ele>
        <time>2021-10-30T09:09:43.000Z</time>
      </trkpt>
      <trkpt lat="38.048343" lon="-1.338252">
        <ele>167.052427</ele>
        <time>2021-10-30T09:09:46.000Z</time>
      </trkpt>
      <trkpt lat="38.048335" lon="-1.338200">
        <ele>166.891398</ele>
        <time>2021-10-30T09:09:47.000Z</time>
      </trkpt>
      <trkpt lat="38.048266" lon="-1.337907">
        <ele>166.013052</ele>
        <time>2021-10-30T09:09:52.000Z</time>
      </trkpt>
      <trkpt lat="38.048214" lon="-1.337716">
        <ele>165.555441</ele>
        <time>2021-10-30T09:09:55.000Z</time>
      </trkpt>
      <trkpt lat="38.048158" lon="-1.337519">
        <ele>165.081187</ele>
        <time>2021-10-30T09:09:58.000Z</time>
      </trkpt>
      <trkpt lat="38.048098" lon="-1.337316">
        <ele>164.590210</ele>
        <time>2021-10-30T09:10:01.000Z</time>
      </trkpt>
      <trkpt lat="38.048078" lon="-1.337247">
        <ele>164.423721</ele>
        <time>2021-10-30T09:10:02.000Z</time>
      </trkpt>
      <trkpt lat="38.048017" lon="-1.337037">
        <ele>163.916885</ele>
        <time>2021-10-30T09:10:05.000Z</time>
      </trkpt>
      <trkpt lat="38.047980" lon="-1.336894">
        <ele>163.576049</ele>
        <time>2021-10-30T09:10:07.000Z</time>
      </trkpt>
      <trkpt lat="38.047920" lon="-1.336679">
        <ele>163.059543</ele>
        <time>2021-10-30T09:10:10.000Z</time>
      </trkpt>
      <trkpt lat="38.047873" lon="-1.336531">
        <ele>162.698191</ele>
        <time>2021-10-30T09:10:12.000Z</time>
      </trkpt>
      <trkpt lat="38.047809" lon="-1.336306">
        <ele>162.156489</ele>
        <time>2021-10-30T09:10:15.000Z</time>
      </trkpt>
      <trkpt lat="38.047736" lon="-1.336082">
        <ele>161.607550</ele>
        <time>2021-10-30T09:10:18.000Z</time>
      </trkpt>
      <trkpt lat="38.047607" lon="-1.335645">
        <ele>161.002567</ele>
        <time>2021-10-30T09:10:24.000Z</time>
      </trkpt>
      <trkpt lat="38.047562" lon="-1.335491">
        <ele>161.012693</ele>
        <time>2021-10-30T09:10:26.000Z</time>
      </trkpt>
      <trkpt lat="38.047436" lon="-1.335109">
        <ele>161.038225</ele>
        <time>2021-10-30T09:10:31.000Z</time>
      </trkpt>
      <trkpt lat="38.047327" lon="-1.334827">
        <ele>161.057590</ele>
        <time>2021-10-30T09:10:35.000Z</time>
      </trkpt>
      <trkpt lat="38.047300" lon="-1.334762">
        <ele>161.062121</ele>
        <time>2021-10-30T09:10:36.000Z</time>
      </trkpt>
      <trkpt lat="38.047269" lon="-1.334701">
        <ele>161.066596</ele>
        <time>2021-10-30T09:10:37.000Z</time>
      </trkpt>
      <trkpt lat="38.047204" lon="-1.334588">
        <ele>161.075223</ele>
        <time>2021-10-30T09:10:39.000Z</time>
      </trkpt>
      <trkpt lat="38.047087" lon="-1.334371">
        <ele>161.091435</ele>
        <time>2021-10-30T09:10:43.000Z</time>
      </trkpt>
      <trkpt lat="38.047028" lon="-1.334277">
        <ele>161.098845</ele>
        <time>2021-10-30T09:10:45.000Z</time>
      </trkpt>
      <trkpt lat="38.046997" lon="-1.334232">
        <ele>161.102531</ele>
        <time>2021-10-30T09:10:46.000Z</time>
      </trkpt>
      <trkpt lat="38.046882" lon="-1.334053">
        <ele>161.116772</ele>
        <time>2021-10-30T09:10:50.000Z</time>
      </trkpt>
      <trkpt lat="38.046821" lon="-1.333972">
        <ele>161.123681</ele>
        <time>2021-10-30T09:10:52.000Z</time>
      </trkpt>
      <trkpt lat="38.046644" lon="-1.333737">
        <ele>160.940419</ele>
        <time>2021-10-30T09:10:57.000Z</time>
      </trkpt>
      <trkpt lat="38.046532" lon="-1.333592">
        <ele>160.746543</ele>
        <time>2021-10-30T09:11:00.000Z</time>
      </trkpt>
      <trkpt lat="38.046379" lon="-1.333391">
        <ele>160.479697</ele>
        <time>2021-10-30T09:11:04.000Z</time>
      </trkpt>
      <trkpt lat="38.046300" lon="-1.333281">
        <ele>160.337588</ele>
        <time>2021-10-30T09:11:06.000Z</time>
      </trkpt>
      <trkpt lat="38.046219" lon="-1.333170">
        <ele>160.193135</ele>
        <time>2021-10-30T09:11:08.000Z</time>
      </trkpt>
      <trkpt lat="38.045983" lon="-1.332821">
        <ele>159.754026</ele>
        <time>2021-10-30T09:11:14.000Z</time>
      </trkpt>
      <trkpt lat="38.045858" lon="-1.332651">
        <ele>159.532011</ele>
        <time>2021-10-30T09:11:17.000Z</time>
      </trkpt>
      <trkpt lat="38.045644" lon="-1.332362">
        <ele>159.153341</ele>
        <time>2021-10-30T09:11:22.000Z</time>
      </trkpt>
      <trkpt lat="38.045515" lon="-1.332179">
        <ele>158.919101</ele>
        <time>2021-10-30T09:11:25.000Z</time>
      </trkpt>
      <trkpt lat="38.045319" lon="-1.331853">
        <ele>158.530095</ele>
        <time>2021-10-30T09:11:30.000Z</time>
      </trkpt>
      <trkpt lat="38.045193" lon="-1.331569">
        <ele>158.220927</ele>
        <time>2021-10-30T09:11:34.000Z</time>
      </trkpt>
      <trkpt lat="38.045166" lon="-1.331496">
        <ele>158.144433</ele>
        <time>2021-10-30T09:11:35.000Z</time>
      </trkpt>
      <trkpt lat="38.045139" lon="-1.331424">
        <ele>158.068796</ele>
        <time>2021-10-30T09:11:36.000Z</time>
      </trkpt>
      <trkpt lat="38.045109" lon="-1.331354">
        <ele>157.993209</ele>
        <time>2021-10-30T09:11:37.000Z</time>
      </trkpt>
      <trkpt lat="38.045049" lon="-1.331217">
        <ele>157.844528</ele>
        <time>2021-10-30T09:11:39.000Z</time>
      </trkpt>
      <trkpt lat="38.045025" lon="-1.331144">
        <ele>157.769498</ele>
        <time>2021-10-30T09:11:40.000Z</time>
      </trkpt>
      <trkpt lat="38.045003" lon="-1.331070">
        <ele>157.694477</ele>
        <time>2021-10-30T09:11:41.000Z</time>
      </trkpt>
      <trkpt lat="38.044983" lon="-1.330995">
        <ele>157.619374</ele>
        <time>2021-10-30T09:11:42.000Z</time>
      </trkpt>
      <trkpt lat="38.044963" lon="-1.330919">
        <ele>157.543373</ele>
        <time>2021-10-30T09:11:43.000Z</time>
      </trkpt>
      <trkpt lat="38.044927" lon="-1.330764">
        <ele>157.390100</ele>
        <time>2021-10-30T09:11:45.000Z</time>
      </trkpt>
      <trkpt lat="38.044860" lon="-1.330280">
        <ele>156.924002</ele>
        <time>2021-10-30T09:11:51.000Z</time>
      </trkpt>
      <trkpt lat="38.044841" lon="-1.329953">
        <ele>156.709435</ele>
        <time>2021-10-30T09:11:55.000Z</time>
      </trkpt>
      <trkpt lat="38.044845" lon="-1.329629">
        <ele>156.574411</ele>
        <time>2021-10-30T09:11:59.000Z</time>
      </trkpt>
      <trkpt lat="38.044904" lon="-1.329148">
        <ele>156.371566</ele>
        <time>2021-10-30T09:12:05.000Z</time>
      </trkpt>
      <trkpt lat="38.044917" lon="-1.329068">
        <ele>156.337529</ele>
        <time>2021-10-30T09:12:06.000Z</time>
      </trkpt>
      <trkpt lat="38.045016" lon="-1.328515">
        <ele>156.101221</ele>
        <time>2021-10-30T09:12:13.000Z</time>
      </trkpt>
      <trkpt lat="38.045130" lon="-1.327969">
        <ele>155.865848</ele>
        <time>2021-10-30T09:12:20.000Z</time>
      </trkpt>
      <trkpt lat="38.045181" lon="-1.327760">
        <ele>155.742985</ele>
        <time>2021-10-30T09:12:23.000Z</time>
      </trkpt>
      <trkpt lat="38.045250" lon="-1.327439">
        <ele>155.529398</ele>
        <time>2021-10-30T09:12:28.000Z</time>
      </trkpt>
      <trkpt lat="38.045259" lon="-1.327372">
        <ele>155.485770</ele>
        <time>2021-10-30T09:12:29.000Z</time>
      </trkpt>
      <trkpt lat="38.045269" lon="-1.327302">
        <ele>155.440104</ele>
        <time>2021-10-30T09:12:30.000Z</time>
      </trkpt>
      <trkpt lat="38.045332" lon="-1.326921">
        <ele>155.190208</ele>
        <time>2021-10-30T09:12:35.000Z</time>
      </trkpt>
      <trkpt lat="38.045372" lon="-1.326670">
        <ele>155.025827</ele>
        <time>2021-10-30T09:12:38.000Z</time>
      </trkpt>
      <trkpt lat="38.045461" lon="-1.326240">
        <ele>154.740438</ele>
        <time>2021-10-30T09:12:43.000Z</time>
      </trkpt>
      <trkpt lat="38.045477" lon="-1.326152">
        <ele>154.682465</ele>
        <time>2021-10-30T09:12:44.000Z</time>
      </trkpt>
      <trkpt lat="38.045537" lon="-1.325807">
        <ele>154.455676</ele>
        <time>2021-10-30T09:12:48.000Z</time>
      </trkpt>
      <trkpt lat="38.045610" lon="-1.325381">
        <ele>154.375789</ele>
        <time>2021-10-30T09:12:53.000Z</time>
      </trkpt>
      <trkpt lat="38.045665" lon="-1.325043">
        <ele>154.385651</ele>
        <time>2021-10-30T09:12:57.000Z</time>
      </trkpt>
      <trkpt lat="38.045752" lon="-1.324556">
        <ele>154.399921</ele>
        <time>2021-10-30T09:13:03.000Z</time>
      </trkpt>
      <trkpt lat="38.045878" lon="-1.323851">
        <ele>154.420579</ele>
        <time>2021-10-30T09:13:12.000Z</time>
      </trkpt>
      <trkpt lat="38.045919" lon="-1.323622">
        <ele>154.427290</ele>
        <time>2021-10-30T09:13:15.000Z</time>
      </trkpt>
      <trkpt lat="38.045975" lon="-1.323318">
        <ele>154.400918</ele>
        <time>2021-10-30T09:13:19.000Z</time>
      </trkpt>
      <trkpt lat="38.046059" lon="-1.322874">
        <ele>154.288831</ele>
        <time>2021-10-30T09:13:25.000Z</time>
      </trkpt>
      <trkpt lat="38.046087" lon="-1.322727">
        <ele>154.251708</ele>
        <time>2021-10-30T09:13:27.000Z</time>
      </trkpt>
      <trkpt lat="38.046116" lon="-1.322578">
        <ele>154.214033</ele>
        <time>2021-10-30T09:13:29.000Z</time>
      </trkpt>
      <trkpt lat="38.046257" lon="-1.321977">
        <ele>154.060103</ele>
        <time>2021-10-30T09:13:37.000Z</time>
      </trkpt>
      <trkpt lat="38.046367" lon="-1.321674">
        <ele>153.978205</ele>
        <time>2021-10-30T09:13:41.000Z</time>
      </trkpt>
      <trkpt lat="38.046460" lon="-1.321442">
        <ele>153.914305</ele>
        <time>2021-10-30T09:13:44.000Z</time>
      </trkpt>
      <trkpt lat="38.046491" lon="-1.321364">
        <ele>153.892858</ele>
        <time>2021-10-30T09:13:45.000Z</time>
      </trkpt>
      <trkpt lat="38.046603" lon="-1.321138">
        <ele>153.704628</ele>
        <time>2021-10-30T09:13:48.000Z</time>
      </trkpt>
      <trkpt lat="38.046642" lon="-1.321062">
        <ele>153.621101</ele>
        <time>2021-10-30T09:13:49.000Z</time>
      </trkpt>
      <trkpt lat="38.046843" lon="-1.320694">
        <ele>153.208722</ele>
        <time>2021-10-30T09:13:54.000Z</time>
      </trkpt>
      <trkpt lat="38.046957" lon="-1.320484">
        <ele>152.973863</ele>
        <time>2021-10-30T09:13:57.000Z</time>
      </trkpt>
      <trkpt lat="38.047265" lon="-1.319926">
        <ele>152.346417</ele>
        <time>2021-10-30T09:14:05.000Z</time>
      </trkpt>
      <trkpt lat="38.047344" lon="-1.319781">
        <ele>152.184064</ele>
        <time>2021-10-30T09:14:07.000Z</time>
      </trkpt>
      <trkpt lat="38.047385" lon="-1.319708">
        <ele>152.101502</ele>
        <time>2021-10-30T09:14:08.000Z</time>
      </trkpt>
      <trkpt lat="38.047548" lon="-1.319413">
        <ele>151.769676</ele>
        <time>2021-10-30T09:14:12.000Z</time>
      </trkpt>
      <trkpt lat="38.047752" lon="-1.319038">
        <ele>151.199135</ele>
        <time>2021-10-30T09:14:17.000Z</time>
      </trkpt>
      <trkpt lat="38.047794" lon="-1.318963">
        <ele>151.083871</ele>
        <time>2021-10-30T09:14:18.000Z</time>
      </trkpt>
      <trkpt lat="38.047837" lon="-1.318887">
        <ele>150.966663</ele>
        <time>2021-10-30T09:14:19.000Z</time>
      </trkpt>
      <trkpt lat="38.048171" lon="-1.318283">
        <ele>150.042294</ele>
        <time>2021-10-30T09:14:27.000Z</time>
      </trkpt>
      <trkpt lat="38.048376" lon="-1.317918">
        <ele>149.480790</ele>
        <time>2021-10-30T09:14:32.000Z</time>
      </trkpt>
      <trkpt lat="38.048421" lon="-1.317849">
        <ele>149.368582</ele>
        <time>2021-10-30T09:14:33.000Z</time>
      </trkpt>
      <trkpt lat="38.048466" lon="-1.317780">
        <ele>149.256375</ele>
        <time>2021-10-30T09:14:34.000Z</time>
      </trkpt>
      <trkpt lat="38.048699" lon="-1.317349">
        <ele>148.963458</ele>
        <time>2021-10-30T09:14:40.000Z</time>
      </trkpt>
      <trkpt lat="38.048856" lon="-1.317070">
        <ele>149.040877</ele>
        <time>2021-10-30T09:14:44.000Z</time>
      </trkpt>
      <trkpt lat="38.048922" lon="-1.316951">
        <ele>149.073738</ele>
        <time>2021-10-30T09:14:46.000Z</time>
      </trkpt>
      <trkpt lat="38.048953" lon="-1.316898">
        <ele>149.088643</ele>
        <time>2021-10-30T09:14:47.000Z</time>
      </trkpt>
      <trkpt lat="38.049098" lon="-1.316625">
        <ele>149.162987</ele>
        <time>2021-10-30T09:14:53.000Z</time>
      </trkpt>
      <trkpt lat="38.049218" lon="-1.316396">
        <ele>149.225089</ele>
        <time>2021-10-30T09:14:59.000Z</time>
      </trkpt>
      <trkpt lat="38.049236" lon="-1.316358">
        <ele>149.235101</ele>
        <time>2021-10-30T09:15:00.000Z</time>
      </trkpt>
      <trkpt lat="38.049312" lon="-1.316127">
        <ele>149.291622</ele>
        <time>2021-10-30T09:15:05.000Z</time>
      </trkpt>
      <trkpt lat="38.049335" lon="-1.316064">
        <ele>149.307300</ele>
        <time>2021-10-30T09:15:06.000Z</time>
      </trkpt>
      <trkpt lat="38.049435" lon="-1.315797">
        <ele>149.374050</ele>
        <time>2021-10-30T09:15:10.000Z</time>
      </trkpt>
      <trkpt lat="38.049528" lon="-1.315521">
        <ele>149.474014</ele>
        <time>2021-10-30T09:15:14.000Z</time>
      </trkpt>
      <trkpt lat="38.049571" lon="-1.315381">
        <ele>149.568713</ele>
        <time>2021-10-30T09:15:16.000Z</time>
      </trkpt>
      <trkpt lat="38.049611" lon="-1.315245">
        <ele>149.660201</ele>
        <time>2021-10-30T09:15:18.000Z</time>
      </trkpt>
      <trkpt lat="38.049715" lon="-1.314844">
        <ele>149.926256</ele>
        <time>2021-10-30T09:15:24.000Z</time>
      </trkpt>
      <trkpt lat="38.049750" lon="-1.314712">
        <ele>150.014029</ele>
        <time>2021-10-30T09:15:26.000Z</time>
      </trkpt>
      <trkpt lat="38.049784" lon="-1.314579">
        <ele>150.102149</ele>
        <time>2021-10-30T09:15:28.000Z</time>
      </trkpt>
      <trkpt lat="38.049819" lon="-1.314444">
        <ele>150.191715</ele>
        <time>2021-10-30T09:15:30.000Z</time>
      </trkpt>
      <trkpt lat="38.049941" lon="-1.313977">
        <ele>150.501781</ele>
        <time>2021-10-30T09:15:37.000Z</time>
      </trkpt>
      <trkpt lat="38.050106" lon="-1.313321">
        <ele>150.950986</ele>
        <time>2021-10-30T09:15:47.000Z</time>
      </trkpt>
      <trkpt lat="38.050123" lon="-1.313254">
        <ele>151.004662</ele>
        <time>2021-10-30T09:15:48.000Z</time>
      </trkpt>
      <trkpt lat="38.050157" lon="-1.313123">
        <ele>151.109840</ele>
        <time>2021-10-30T09:15:50.000Z</time>
      </trkpt>
      <trkpt lat="38.050189" lon="-1.312996">
        <ele>151.211519</ele>
        <time>2021-10-30T09:15:52.000Z</time>
      </trkpt>
      <trkpt lat="38.050231" lon="-1.312803">
        <ele>151.364204</ele>
        <time>2021-10-30T09:15:55.000Z</time>
      </trkpt>
      <trkpt lat="38.050246" lon="-1.312733">
        <ele>151.419522</ele>
        <time>2021-10-30T09:15:56.000Z</time>
      </trkpt>
      <trkpt lat="38.050337" lon="-1.312325">
        <ele>151.742874</ele>
        <time>2021-10-30T09:16:02.000Z</time>
      </trkpt>
      <trkpt lat="38.050401" lon="-1.312053">
        <ele>151.959344</ele>
        <time>2021-10-30T09:16:06.000Z</time>
      </trkpt>
      <trkpt lat="38.050449" lon="-1.311861">
        <ele>152.112951</ele>
        <time>2021-10-30T09:16:09.000Z</time>
      </trkpt>
      <trkpt lat="38.050550" lon="-1.311435">
        <ele>152.452192</ele>
        <time>2021-10-30T09:16:16.000Z</time>
      </trkpt>
      <trkpt lat="38.050615" lon="-1.311130">
        <ele>152.679137</ele>
        <time>2021-10-30T09:16:21.000Z</time>
      </trkpt>
      <trkpt lat="38.050655" lon="-1.310969">
        <ele>152.787448</ele>
        <time>2021-10-30T09:16:24.000Z</time>
      </trkpt>
      <trkpt lat="38.050758" lon="-1.310611">
        <ele>153.031978</ele>
        <time>2021-10-30T09:16:31.000Z</time>
      </trkpt>
      <trkpt lat="38.050895" lon="-1.310177">
        <ele>153.331956</ele>
        <time>2021-10-30T09:16:39.000Z</time>
      </trkpt>
      <trkpt lat="38.050938" lon="-1.310007">
        <ele>153.446510</ele>
        <time>2021-10-30T09:16:42.000Z</time>
      </trkpt>
      <trkpt lat="38.050984" lon="-1.309834">
        <ele>153.563657</ele>
        <time>2021-10-30T09:16:45.000Z</time>
      </trkpt>
      <trkpt lat="38.051027" lon="-1.309661">
        <ele>153.680045</ele>
        <time>2021-10-30T09:16:48.000Z</time>
      </trkpt>
      <trkpt lat="38.051055" lon="-1.309553">
        <ele>153.752993</ele>
        <time>2021-10-30T09:16:50.000Z</time>
      </trkpt>
      <trkpt lat="38.051083" lon="-1.309439">
        <ele>153.829606</ele>
        <time>2021-10-30T09:16:52.000Z</time>
      </trkpt>
      <trkpt lat="38.051120" lon="-1.309268">
        <ele>153.943379</ele>
        <time>2021-10-30T09:16:55.000Z</time>
      </trkpt>
      <trkpt lat="38.051143" lon="-1.309154">
        <ele>154.018879</ele>
        <time>2021-10-30T09:16:57.000Z</time>
      </trkpt>
      <trkpt lat="38.051174" lon="-1.308993">
        <ele>154.136310</ele>
        <time>2021-10-30T09:17:00.000Z</time>
      </trkpt>
      <trkpt lat="38.051241" lon="-1.308710">
        <ele>154.364217</ele>
        <time>2021-10-30T09:17:05.000Z</time>
      </trkpt>
      <trkpt lat="38.051287" lon="-1.308482">
        <ele>154.545736</ele>
        <time>2021-10-30T09:17:09.000Z</time>
      </trkpt>
      <trkpt lat="38.051323" lon="-1.308225">
        <ele>154.747052</ele>
        <time>2021-10-30T09:17:13.000Z</time>
      </trkpt>
      <trkpt lat="38.051364" lon="-1.308047">
        <ele>154.890082</ele>
        <time>2021-10-30T09:17:16.000Z</time>
      </trkpt>
      <trkpt lat="38.051398" lon="-1.307815">
        <ele>155.072078</ele>
        <time>2021-10-30T09:17:20.000Z</time>
      </trkpt>
      <trkpt lat="38.051430" lon="-1.307462">
        <ele>155.346118</ele>
        <time>2021-10-30T09:17:26.000Z</time>
      </trkpt>
      <trkpt lat="38.051434" lon="-1.307346">
        <ele>155.435665</ele>
        <time>2021-10-30T09:17:28.000Z</time>
      </trkpt>
      <trkpt lat="38.051439" lon="-1.307162">
        <ele>155.577654</ele>
        <time>2021-10-30T09:17:31.000Z</time>
      </trkpt>
      <trkpt lat="38.051427" lon="-1.307029">
        <ele>155.680898</ele>
        <time>2021-10-30T09:17:33.000Z</time>
      </trkpt>
      <trkpt lat="38.051446" lon="-1.306374">
        <ele>155.821812</ele>
        <time>2021-10-30T09:17:43.000Z</time>
      </trkpt>
      <trkpt lat="38.051450" lon="-1.306310">
        <ele>155.820407</ele>
        <time>2021-10-30T09:17:44.000Z</time>
      </trkpt>
      <trkpt lat="38.051459" lon="-1.306051">
        <ele>155.814735</ele>
        <time>2021-10-30T09:17:48.000Z</time>
      </trkpt>
      <trkpt lat="38.051469" lon="-1.305851">
        <ele>155.810351</ele>
        <time>2021-10-30T09:17:51.000Z</time>
      </trkpt>
      <trkpt lat="38.051481" lon="-1.305389">
        <ele>155.800237</ele>
        <time>2021-10-30T09:17:58.000Z</time>
      </trkpt>
      <trkpt lat="38.051489" lon="-1.305182">
        <ele>155.795703</ele>
        <time>2021-10-30T09:18:01.000Z</time>
      </trkpt>
      <trkpt lat="38.051493" lon="-1.305114">
        <ele>155.794211</ele>
        <time>2021-10-30T09:18:02.000Z</time>
      </trkpt>
      <trkpt lat="38.051510" lon="-1.304904">
        <ele>155.789592</ele>
        <time>2021-10-30T09:18:05.000Z</time>
      </trkpt>
      <trkpt lat="38.051514" lon="-1.304839">
        <ele>155.788166</ele>
        <time>2021-10-30T09:18:06.000Z</time>
      </trkpt>
      <trkpt lat="38.051525" lon="-1.304570">
        <ele>155.782273</ele>
        <time>2021-10-30T09:18:10.000Z</time>
      </trkpt>
      <trkpt lat="38.051531" lon="-1.304438">
        <ele>155.883776</ele>
        <time>2021-10-30T09:18:12.000Z</time>
      </trkpt>
      <trkpt lat="38.051542" lon="-1.304238">
        <ele>156.061379</ele>
        <time>2021-10-30T09:18:15.000Z</time>
      </trkpt>
      <trkpt lat="38.051546" lon="-1.303976">
        <ele>156.293518</ele>
        <time>2021-10-30T09:18:19.000Z</time>
      </trkpt>
      <trkpt lat="38.051543" lon="-1.303829">
        <ele>156.423783</ele>
        <time>2021-10-30T09:18:21.000Z</time>
      </trkpt>
      <trkpt lat="38.051539" lon="-1.303604">
        <ele>156.623153</ele>
        <time>2021-10-30T09:18:24.000Z</time>
      </trkpt>
      <trkpt lat="38.051539" lon="-1.303454">
        <ele>156.756032</ele>
        <time>2021-10-30T09:18:26.000Z</time>
      </trkpt>
      <trkpt lat="38.051540" lon="-1.303307">
        <ele>156.886258</ele>
        <time>2021-10-30T09:18:28.000Z</time>
      </trkpt>
      <trkpt lat="38.051542" lon="-1.303233">
        <ele>156.951850</ele>
        <time>2021-10-30T09:18:29.000Z</time>
      </trkpt>
      <trkpt lat="38.051571" lon="-1.302656">
        <ele>157.464031</ele>
        <time>2021-10-30T09:18:37.000Z</time>
      </trkpt>
      <trkpt lat="38.051577" lon="-1.302582">
        <ele>157.529931</ele>
        <time>2021-10-30T09:18:38.000Z</time>
      </trkpt>
      <trkpt lat="38.051589" lon="-1.302435">
        <ele>157.660851</ele>
        <time>2021-10-30T09:18:40.000Z</time>
      </trkpt>
      <trkpt lat="38.051615" lon="-1.302217">
        <ele>157.765137</ele>
        <time>2021-10-30T09:18:43.000Z</time>
      </trkpt>
      <trkpt lat="38.051660" lon="-1.301931">
        <ele>157.561116</ele>
        <time>2021-10-30T09:18:47.000Z</time>
      </trkpt>
      <trkpt lat="38.051706" lon="-1.301721">
        <ele>157.408637</ele>
        <time>2021-10-30T09:18:50.000Z</time>
      </trkpt>
      <trkpt lat="38.051722" lon="-1.301652">
        <ele>157.358320</ele>
        <time>2021-10-30T09:18:51.000Z</time>
      </trkpt>
      <trkpt lat="38.051738" lon="-1.301582">
        <ele>157.307332</ele>
        <time>2021-10-30T09:18:52.000Z</time>
      </trkpt>
      <trkpt lat="38.051755" lon="-1.301513">
        <ele>157.256757</ele>
        <time>2021-10-30T09:18:53.000Z</time>
      </trkpt>
      <trkpt lat="38.051773" lon="-1.301443">
        <ele>157.205245</ele>
        <time>2021-10-30T09:18:54.000Z</time>
      </trkpt>
      <trkpt lat="38.051790" lon="-1.301373">
        <ele>157.154002</ele>
        <time>2021-10-30T09:18:55.000Z</time>
      </trkpt>
      <trkpt lat="38.051808" lon="-1.301301">
        <ele>157.101158</ele>
        <time>2021-10-30T09:18:56.000Z</time>
      </trkpt>
      <trkpt lat="38.051827" lon="-1.301230">
        <ele>157.048702</ele>
        <time>2021-10-30T09:18:57.000Z</time>
      </trkpt>
      <trkpt lat="38.051847" lon="-1.301160">
        <ele>156.996611</ele>
        <time>2021-10-30T09:18:58.000Z</time>
      </trkpt>
      <trkpt lat="38.051868" lon="-1.301090">
        <ele>156.944211</ele>
        <time>2021-10-30T09:18:59.000Z</time>
      </trkpt>
      <trkpt lat="38.051890" lon="-1.301020">
        <ele>156.891488</ele>
        <time>2021-10-30T09:19:00.000Z</time>
      </trkpt>
      <trkpt lat="38.051954" lon="-1.300807">
        <ele>156.732010</ele>
        <time>2021-10-30T09:19:03.000Z</time>
      </trkpt>
      <trkpt lat="38.051999" lon="-1.300670">
        <ele>156.628171</ele>
        <time>2021-10-30T09:19:05.000Z</time>
      </trkpt>
      <trkpt lat="38.052199" lon="-1.300197">
        <ele>156.252611</ele>
        <time>2021-10-30T09:19:13.000Z</time>
      </trkpt>
      <trkpt lat="38.052291" lon="-1.299930">
        <ele>156.008423</ele>
        <time>2021-10-30T09:19:17.000Z</time>
      </trkpt>
      <trkpt lat="38.052372" lon="-1.299734">
        <ele>155.814257</ele>
        <time>2021-10-30T09:19:20.000Z</time>
      </trkpt>
      <trkpt lat="38.052502" lon="-1.299508">
        <ele>155.568756</ele>
        <time>2021-10-30T09:19:24.000Z</time>
      </trkpt>
      <trkpt lat="38.052567" lon="-1.299385">
        <ele>155.438820</ele>
        <time>2021-10-30T09:19:26.000Z</time>
      </trkpt>
      <trkpt lat="38.052596" lon="-1.299320">
        <ele>155.373288</ele>
        <time>2021-10-30T09:19:27.000Z</time>
      </trkpt>
      <trkpt lat="38.052646" lon="-1.299179">
        <ele>155.237644</ele>
        <time>2021-10-30T09:19:29.000Z</time>
      </trkpt>
      <trkpt lat="38.052699" lon="-1.299035">
        <ele>155.098214</ele>
        <time>2021-10-30T09:19:31.000Z</time>
      </trkpt>
      <trkpt lat="38.052817" lon="-1.298749">
        <ele>154.814992</ele>
        <time>2021-10-30T09:19:35.000Z</time>
      </trkpt>
      <trkpt lat="38.052908" lon="-1.298530">
        <ele>154.597787</ele>
        <time>2021-10-30T09:19:38.000Z</time>
      </trkpt>
      <trkpt lat="38.052977" lon="-1.298389">
        <ele>154.452168</ele>
        <time>2021-10-30T09:19:40.000Z</time>
      </trkpt>
      <trkpt lat="38.053047" lon="-1.298247">
        <ele>154.305215</ele>
        <time>2021-10-30T09:19:42.000Z</time>
      </trkpt>
      <trkpt lat="38.053226" lon="-1.297886">
        <ele>153.820177</ele>
        <time>2021-10-30T09:19:47.000Z</time>
      </trkpt>
      <trkpt lat="38.053294" lon="-1.297740">
        <ele>153.610955</ele>
        <time>2021-10-30T09:19:49.000Z</time>
      </trkpt>
      <trkpt lat="38.053364" lon="-1.297590">
        <ele>153.395891</ele>
        <time>2021-10-30T09:19:51.000Z</time>
      </trkpt>
      <trkpt lat="38.053501" lon="-1.297294">
        <ele>152.972402</ele>
        <time>2021-10-30T09:19:55.000Z</time>
      </trkpt>
      <trkpt lat="38.053599" lon="-1.297080">
        <ele>152.667059</ele>
        <time>2021-10-30T09:19:58.000Z</time>
      </trkpt>
      <trkpt lat="38.053662" lon="-1.296937">
        <ele>152.464951</ele>
        <time>2021-10-30T09:20:00.000Z</time>
      </trkpt>
      <trkpt lat="38.053787" lon="-1.296657">
        <ele>152.067953</ele>
        <time>2021-10-30T09:20:04.000Z</time>
      </trkpt>
      <trkpt lat="38.053881" lon="-1.296447">
        <ele>151.770011</ele>
        <time>2021-10-30T09:20:07.000Z</time>
      </trkpt>
      <trkpt lat="38.053979" lon="-1.296235">
        <ele>151.466799</ele>
        <time>2021-10-30T09:20:10.000Z</time>
      </trkpt>
      <trkpt lat="38.054052" lon="-1.296096">
        <ele>151.302676</ele>
        <time>2021-10-30T09:20:12.000Z</time>
      </trkpt>
      <trkpt lat="38.054121" lon="-1.295948">
        <ele>151.161275</ele>
        <time>2021-10-30T09:20:14.000Z</time>
      </trkpt>
      <trkpt lat="38.054154" lon="-1.295872">
        <ele>151.089924</ele>
        <time>2021-10-30T09:20:15.000Z</time>
      </trkpt>
      <trkpt lat="38.054189" lon="-1.295796">
        <ele>151.017542</ele>
        <time>2021-10-30T09:20:16.000Z</time>
      </trkpt>
      <trkpt lat="38.054223" lon="-1.295718">
        <ele>150.944247</ele>
        <time>2021-10-30T09:20:17.000Z</time>
      </trkpt>
      <trkpt lat="38.054257" lon="-1.295641">
        <ele>150.871670</ele>
        <time>2021-10-30T09:20:18.000Z</time>
      </trkpt>
      <trkpt lat="38.054291" lon="-1.295565">
        <ele>150.799809</ele>
        <time>2021-10-30T09:20:19.000Z</time>
      </trkpt>
      <trkpt lat="38.054326" lon="-1.295490">
        <ele>150.728135</ele>
        <time>2021-10-30T09:20:20.000Z</time>
      </trkpt>
      <trkpt lat="38.054360" lon="-1.295417">
        <ele>150.658408</ele>
        <time>2021-10-30T09:20:21.000Z</time>
      </trkpt>
      <trkpt lat="38.054395" lon="-1.295346">
        <ele>150.589543</ele>
        <time>2021-10-30T09:20:22.000Z</time>
      </trkpt>
      <trkpt lat="38.054428" lon="-1.295275">
        <ele>150.521763</ele>
        <time>2021-10-30T09:20:23.000Z</time>
      </trkpt>
      <trkpt lat="38.054461" lon="-1.295204">
        <ele>150.453983</ele>
        <time>2021-10-30T09:20:24.000Z</time>
      </trkpt>
      <trkpt lat="38.054522" lon="-1.295058">
        <ele>150.318104</ele>
        <time>2021-10-30T09:20:26.000Z</time>
      </trkpt>
      <trkpt lat="38.054671" lon="-1.294686">
        <ele>149.974986</ele>
        <time>2021-10-30T09:20:31.000Z</time>
      </trkpt>
      <trkpt lat="38.054732" lon="-1.294540">
        <ele>149.839107</ele>
        <time>2021-10-30T09:20:33.000Z</time>
      </trkpt>
      <trkpt lat="38.054763" lon="-1.294466">
        <ele>149.770197</ele>
        <time>2021-10-30T09:20:34.000Z</time>
      </trkpt>
      <trkpt lat="38.054864" lon="-1.294242">
        <ele>149.557989</ele>
        <time>2021-10-30T09:20:37.000Z</time>
      </trkpt>
      <trkpt lat="38.054955" lon="-1.293994">
        <ele>149.343257</ele>
        <time>2021-10-30T09:20:40.000Z</time>
      </trkpt>
      <trkpt lat="38.055070" lon="-1.293480">
        <ele>148.929485</ele>
        <time>2021-10-30T09:20:46.000Z</time>
      </trkpt>
      <trkpt lat="38.055106" lon="-1.293236">
        <ele>148.737256</ele>
        <time>2021-10-30T09:20:49.000Z</time>
      </trkpt>
      <trkpt lat="38.055134" lon="-1.292923">
        <ele>148.493325</ele>
        <time>2021-10-30T09:20:53.000Z</time>
      </trkpt>
      <trkpt lat="38.055133" lon="-1.292701">
        <ele>148.321417</ele>
        <time>2021-10-30T09:20:56.000Z</time>
      </trkpt>
      <trkpt lat="38.055119" lon="-1.292549">
        <ele>148.202913</ele>
        <time>2021-10-30T09:20:58.000Z</time>
      </trkpt>
      <trkpt lat="38.055097" lon="-1.292311">
        <ele>148.017352</ele>
        <time>2021-10-30T09:21:01.000Z</time>
      </trkpt>
      <trkpt lat="38.055088" lon="-1.292229">
        <ele>147.953242</ele>
        <time>2021-10-30T09:21:02.000Z</time>
      </trkpt>
      <trkpt lat="38.055075" lon="-1.292148">
        <ele>147.889230</ele>
        <time>2021-10-30T09:21:03.000Z</time>
      </trkpt>
      <trkpt lat="38.055040" lon="-1.291995">
        <ele>147.765856</ele>
        <time>2021-10-30T09:21:05.000Z</time>
      </trkpt>
      <trkpt lat="38.055028" lon="-1.291921">
        <ele>147.718633</ele>
        <time>2021-10-30T09:21:06.000Z</time>
      </trkpt>
      <trkpt lat="38.054966" lon="-1.291642">
        <ele>147.572050</ele>
        <time>2021-10-30T09:21:10.000Z</time>
      </trkpt>
      <trkpt lat="38.054890" lon="-1.291440">
        <ele>147.458850</ele>
        <time>2021-10-30T09:21:13.000Z</time>
      </trkpt>
      <trkpt lat="38.054835" lon="-1.291303">
        <ele>147.381094</ele>
        <time>2021-10-30T09:21:15.000Z</time>
      </trkpt>
      <trkpt lat="38.054747" lon="-1.291096">
        <ele>147.262147</ele>
        <time>2021-10-30T09:21:18.000Z</time>
      </trkpt>
      <trkpt lat="38.054686" lon="-1.290960">
        <ele>147.183006</ele>
        <time>2021-10-30T09:21:20.000Z</time>
      </trkpt>
      <trkpt lat="38.054655" lon="-1.290890">
        <ele>147.142397</ele>
        <time>2021-10-30T09:21:21.000Z</time>
      </trkpt>
      <trkpt lat="38.054558" lon="-1.290689">
        <ele>147.023195</ele>
        <time>2021-10-30T09:21:24.000Z</time>
      </trkpt>
      <trkpt lat="38.054268" lon="-1.290257">
        <ele>146.736152</ele>
        <time>2021-10-30T09:21:31.000Z</time>
      </trkpt>
      <trkpt lat="38.054184" lon="-1.290134">
        <ele>146.653826</ele>
        <time>2021-10-30T09:21:33.000Z</time>
      </trkpt>
      <trkpt lat="38.053926" lon="-1.289769">
        <ele>146.634613</ele>
        <time>2021-10-30T09:21:39.000Z</time>
      </trkpt>
      <trkpt lat="38.053707" lon="-1.289477">
        <ele>146.691257</ele>
        <time>2021-10-30T09:21:44.000Z</time>
      </trkpt>
      <trkpt lat="38.053663" lon="-1.289419">
        <ele>146.702570</ele>
        <time>2021-10-30T09:21:45.000Z</time>
      </trkpt>
      <trkpt lat="38.053542" lon="-1.289237">
        <ele>146.736028</ele>
        <time>2021-10-30T09:21:48.000Z</time>
      </trkpt>
      <trkpt lat="38.053381" lon="-1.289000">
        <ele>146.779995</ele>
        <time>2021-10-30T09:21:52.000Z</time>
      </trkpt>
      <trkpt lat="38.053226" lon="-1.288762">
        <ele>146.823379</ele>
        <time>2021-10-30T09:21:56.000Z</time>
      </trkpt>
      <trkpt lat="38.053154" lon="-1.288633">
        <ele>146.845589</ele>
        <time>2021-10-30T09:21:58.000Z</time>
      </trkpt>
      <trkpt lat="38.052961" lon="-1.288295">
        <ele>146.904236</ele>
        <time>2021-10-30T09:22:03.000Z</time>
      </trkpt>
      <trkpt lat="38.052880" lon="-1.288160">
        <ele>146.996145</ele>
        <time>2021-10-30T09:22:05.000Z</time>
      </trkpt>
      <trkpt lat="38.052653" lon="-1.287730">
        <ele>147.290290</ele>
        <time>2021-10-30T09:22:11.000Z</time>
      </trkpt>
      <trkpt lat="38.052469" lon="-1.287288">
        <ele>147.574364</ele>
        <time>2021-10-30T09:22:17.000Z</time>
      </trkpt>
      <trkpt lat="38.052450" lon="-1.287214">
        <ele>147.618589</ele>
        <time>2021-10-30T09:22:18.000Z</time>
      </trkpt>
      <trkpt lat="38.052430" lon="-1.287137">
        <ele>147.664658</ele>
        <time>2021-10-30T09:22:19.000Z</time>
      </trkpt>
      <trkpt lat="38.052339" lon="-1.286571">
        <ele>147.992889</ele>
        <time>2021-10-30T09:22:26.000Z</time>
      </trkpt>
      <trkpt lat="38.052285" lon="-1.286012">
        <ele>147.980930</ele>
        <time>2021-10-30T09:22:33.000Z</time>
      </trkpt>
      <trkpt lat="38.052297" lon="-1.285779">
        <ele>147.710797</ele>
        <time>2021-10-30T09:22:36.000Z</time>
      </trkpt>
      <trkpt lat="38.052308" lon="-1.285622">
        <ele>147.528447</ele>
        <time>2021-10-30T09:22:38.000Z</time>
      </trkpt>
      <trkpt lat="38.052321" lon="-1.285390">
        <ele>147.259368</ele>
        <time>2021-10-30T09:22:41.000Z</time>
      </trkpt>
      <trkpt lat="38.052382" lon="-1.284653">
        <ele>146.402038</ele>
        <time>2021-10-30T09:22:51.000Z</time>
      </trkpt>
      <trkpt lat="38.052387" lon="-1.284581">
        <ele>146.318419</ele>
        <time>2021-10-30T09:22:52.000Z</time>
      </trkpt>
      <trkpt lat="38.052427" lon="-1.284122">
        <ele>145.784162</ele>
        <time>2021-10-30T09:22:59.000Z</time>
      </trkpt>
      <trkpt lat="38.052430" lon="-1.284062">
        <ele>145.714608</ele>
        <time>2021-10-30T09:23:00.000Z</time>
      </trkpt>
      <trkpt lat="38.052423" lon="-1.283956">
        <ele>145.591547</ele>
        <time>2021-10-30T09:23:02.000Z</time>
      </trkpt>
      <trkpt lat="38.052412" lon="-1.283904">
        <ele>145.528223</ele>
        <time>2021-10-30T09:23:03.000Z</time>
      </trkpt>
      <trkpt lat="38.052386" lon="-1.283726">
        <ele>145.311984</ele>
        <time>2021-10-30T09:23:06.000Z</time>
      </trkpt>
      <trkpt lat="38.052406" lon="-1.283591">
        <ele>145.147904</ele>
        <time>2021-10-30T09:23:08.000Z</time>
      </trkpt>
      <trkpt lat="38.052438" lon="-1.283462">
        <ele>144.986355</ele>
        <time>2021-10-30T09:23:10.000Z</time>
      </trkpt>
      <trkpt lat="38.052454" lon="-1.283327">
        <ele>144.823288</ele>
        <time>2021-10-30T09:23:12.000Z</time>
      </trkpt>
      <trkpt lat="38.052470" lon="-1.283109">
        <ele>144.561769</ele>
        <time>2021-10-30T09:23:15.000Z</time>
      </trkpt>
      <trkpt lat="38.052492" lon="-1.282807">
        <ele>144.199504</ele>
        <time>2021-10-30T09:23:19.000Z</time>
      </trkpt>
      <trkpt lat="38.052500" lon="-1.282649">
        <ele>144.010391</ele>
        <time>2021-10-30T09:23:21.000Z</time>
      </trkpt>
      <trkpt lat="38.052526" lon="-1.282249">
        <ele>143.530986</ele>
        <time>2021-10-30T09:23:26.000Z</time>
      </trkpt>
      <trkpt lat="38.052533" lon="-1.282169">
        <ele>143.434841</ele>
        <time>2021-10-30T09:23:27.000Z</time>
      </trkpt>
      <trkpt lat="38.052543" lon="-1.282089">
        <ele>143.338089</ele>
        <time>2021-10-30T09:23:28.000Z</time>
      </trkpt>
      <trkpt lat="38.052570" lon="-1.281768">
        <ele>142.952489</ele>
        <time>2021-10-30T09:23:32.000Z</time>
      </trkpt>
      <trkpt lat="38.052606" lon="-1.281116">
        <ele>141.890441</ele>
        <time>2021-10-30T09:23:40.000Z</time>
      </trkpt>
      <trkpt lat="38.052609" lon="-1.280950">
        <ele>141.607683</ele>
        <time>2021-10-30T09:23:42.000Z</time>
      </trkpt>
      <trkpt lat="38.052632" lon="-1.280524">
        <ele>140.880538</ele>
        <time>2021-10-30T09:23:47.000Z</time>
      </trkpt>
      <trkpt lat="38.052643" lon="-1.280348">
        <ele>140.579882</ele>
        <time>2021-10-30T09:23:49.000Z</time>
      </trkpt>
      <trkpt lat="38.052667" lon="-1.279783">
        <ele>139.616337</ele>
        <time>2021-10-30T09:23:55.000Z</time>
      </trkpt>
      <trkpt lat="38.052654" lon="-1.279487">
        <ele>139.111491</ele>
        <time>2021-10-30T09:23:58.000Z</time>
      </trkpt>
      <trkpt lat="38.052627" lon="-1.279182">
        <ele>138.870921</ele>
        <time>2021-10-30T09:24:01.000Z</time>
      </trkpt>
      <trkpt lat="38.052598" lon="-1.278979">
        <ele>138.799404</ele>
        <time>2021-10-30T09:24:03.000Z</time>
      </trkpt>
      <trkpt lat="38.052523" lon="-1.278603">
        <ele>138.664950</ele>
        <time>2021-10-30T09:24:07.000Z</time>
      </trkpt>
      <trkpt lat="38.052503" lon="-1.278515">
        <ele>138.633200</ele>
        <time>2021-10-30T09:24:08.000Z</time>
      </trkpt>
      <trkpt lat="38.052409" lon="-1.278178">
        <ele>138.509269</ele>
        <time>2021-10-30T09:24:12.000Z</time>
      </trkpt>
      <trkpt lat="38.052351" lon="-1.278021">
        <ele>138.449154</ele>
        <time>2021-10-30T09:24:14.000Z</time>
      </trkpt>
      <trkpt lat="38.052228" lon="-1.277720">
        <ele>138.331601</ele>
        <time>2021-10-30T09:24:18.000Z</time>
      </trkpt>
      <trkpt lat="38.052066" lon="-1.277362">
        <ele>138.188471</ele>
        <time>2021-10-30T09:24:23.000Z</time>
      </trkpt>
      <trkpt lat="38.051990" lon="-1.277229">
        <ele>138.104631</ele>
        <time>2021-10-30T09:24:25.000Z</time>
      </trkpt>
      <trkpt lat="38.051827" lon="-1.276988">
        <ele>137.844471</ele>
        <time>2021-10-30T09:24:29.000Z</time>
      </trkpt>
      <trkpt lat="38.051700" lon="-1.276803">
        <ele>137.643486</ele>
        <time>2021-10-30T09:24:32.000Z</time>
      </trkpt>
      <trkpt lat="38.051482" lon="-1.276489">
        <ele>137.300680</ele>
        <time>2021-10-30T09:24:37.000Z</time>
      </trkpt>
      <trkpt lat="38.051222" lon="-1.276125">
        <ele>136.898235</ele>
        <time>2021-10-30T09:24:43.000Z</time>
      </trkpt>
      <trkpt lat="38.051174" lon="-1.276052">
        <ele>136.820354</ele>
        <time>2021-10-30T09:24:44.000Z</time>
      </trkpt>
      <trkpt lat="38.050951" lon="-1.275689">
        <ele>136.443329</ele>
        <time>2021-10-30T09:24:49.000Z</time>
      </trkpt>
      <trkpt lat="38.050905" lon="-1.275615">
        <ele>136.366123</ele>
        <time>2021-10-30T09:24:50.000Z</time>
      </trkpt>
      <trkpt lat="38.050857" lon="-1.275541">
        <ele>136.287612</ele>
        <time>2021-10-30T09:24:51.000Z</time>
      </trkpt>
      <trkpt lat="38.050621" lon="-1.275174">
        <ele>135.289853</ele>
        <time>2021-10-30T09:24:56.000Z</time>
      </trkpt>
      <trkpt lat="38.050486" lon="-1.274947">
        <ele>134.684247</ele>
        <time>2021-10-30T09:24:59.000Z</time>
      </trkpt>
      <trkpt lat="38.050394" lon="-1.274798">
        <ele>134.281149</ele>
        <time>2021-10-30T09:25:01.000Z</time>
      </trkpt>
      <trkpt lat="38.050300" lon="-1.274645">
        <ele>133.868011</ele>
        <time>2021-10-30T09:25:03.000Z</time>
      </trkpt>
      <trkpt lat="38.050105" lon="-1.274338">
        <ele>133.028305</ele>
        <time>2021-10-30T09:25:07.000Z</time>
      </trkpt>
      <trkpt lat="38.050056" lon="-1.274259">
        <ele>132.814212</ele>
        <time>2021-10-30T09:25:08.000Z</time>
      </trkpt>
      <trkpt lat="38.049860" lon="-1.273940">
        <ele>131.952809</ele>
        <time>2021-10-30T09:25:12.000Z</time>
      </trkpt>
      <trkpt lat="38.049601" lon="-1.273550">
        <ele>130.891111</ele>
        <time>2021-10-30T09:25:17.000Z</time>
      </trkpt>
      <trkpt lat="38.049444" lon="-1.273315">
        <ele>130.264090</ele>
        <time>2021-10-30T09:25:20.000Z</time>
      </trkpt>
      <trkpt lat="38.049345" lon="-1.273149">
        <ele>129.840417</ele>
        <time>2021-10-30T09:25:22.000Z</time>
      </trkpt>
      <trkpt lat="38.049293" lon="-1.273068">
        <ele>129.627788</ele>
        <time>2021-10-30T09:25:23.000Z</time>
      </trkpt>
      <trkpt lat="38.049240" lon="-1.272986">
        <ele>129.411949</ele>
        <time>2021-10-30T09:25:24.000Z</time>
      </trkpt>
      <trkpt lat="38.049088" lon="-1.272736">
        <ele>128.769329</ele>
        <time>2021-10-30T09:25:27.000Z</time>
      </trkpt>
      <trkpt lat="38.048932" lon="-1.272486">
        <ele>128.120341</ele>
        <time>2021-10-30T09:25:30.000Z</time>
      </trkpt>
      <trkpt lat="38.048774" lon="-1.272235">
        <ele>127.466541</ele>
        <time>2021-10-30T09:25:33.000Z</time>
      </trkpt>
      <trkpt lat="38.048544" lon="-1.271793">
        <ele>126.518333</ele>
        <time>2021-10-30T09:25:38.000Z</time>
      </trkpt>
      <trkpt lat="38.048463" lon="-1.271613">
        <ele>126.239638</ele>
        <time>2021-10-30T09:25:40.000Z</time>
      </trkpt>
      <trkpt lat="38.048306" lon="-1.271184">
        <ele>125.603697</ele>
        <time>2021-10-30T09:25:45.000Z</time>
      </trkpt>
      <trkpt lat="38.048281" lon="-1.271116">
        <ele>125.502813</ele>
        <time>2021-10-30T09:25:46.000Z</time>
      </trkpt>
      <trkpt lat="38.048235" lon="-1.270982">
        <ele>125.306304</ele>
        <time>2021-10-30T09:25:48.000Z</time>
      </trkpt>
      <trkpt lat="38.048170" lon="-1.270753">
        <ele>124.979071</ele>
        <time>2021-10-30T09:25:51.000Z</time>
      </trkpt>
      <trkpt lat="38.048090" lon="-1.270427">
        <ele>124.520041</ele>
        <time>2021-10-30T09:25:55.000Z</time>
      </trkpt>
      <trkpt lat="38.048008" lon="-1.269992">
        <ele>123.918745</ele>
        <time>2021-10-30T09:26:00.000Z</time>
      </trkpt>
      <trkpt lat="38.047997" lon="-1.269902">
        <ele>123.796308</ele>
        <time>2021-10-30T09:26:01.000Z</time>
      </trkpt>
      <trkpt lat="38.047975" lon="-1.269717">
        <ele>123.535416</ele>
        <time>2021-10-30T09:26:03.000Z</time>
      </trkpt>
      <trkpt lat="38.047948" lon="-1.269434">
        <ele>123.129119</ele>
        <time>2021-10-30T09:26:06.000Z</time>
      </trkpt>
      <trkpt lat="38.047938" lon="-1.269338">
        <ele>122.991103</ele>
        <time>2021-10-30T09:26:07.000Z</time>
      </trkpt>
      <trkpt lat="38.047934" lon="-1.269241">
        <ele>122.852663</ele>
        <time>2021-10-30T09:26:08.000Z</time>
      </trkpt>
      <trkpt lat="38.047948" lon="-1.268867">
        <ele>122.319015</ele>
        <time>2021-10-30T09:26:12.000Z</time>
      </trkpt>
      <trkpt lat="38.047951" lon="-1.268773">
        <ele>122.184931</ele>
        <time>2021-10-30T09:26:13.000Z</time>
      </trkpt>
      <trkpt lat="38.047951" lon="-1.268501">
        <ele>121.797261</ele>
        <time>2021-10-30T09:26:16.000Z</time>
      </trkpt>
      <trkpt lat="38.047953" lon="-1.268421">
        <ele>121.683183</ele>
        <time>2021-10-30T09:26:17.000Z</time>
      </trkpt>
      <trkpt lat="38.047960" lon="-1.268293">
        <ele>121.500311</ele>
        <time>2021-10-30T09:26:19.000Z</time>
      </trkpt>
      <trkpt lat="38.047972" lon="-1.268162">
        <ele>121.312343</ele>
        <time>2021-10-30T09:26:21.000Z</time>
      </trkpt>
      <trkpt lat="38.047982" lon="-1.268081">
        <ele>121.195487</ele>
        <time>2021-10-30T09:26:22.000Z</time>
      </trkpt>
      <trkpt lat="38.048033" lon="-1.267737">
        <ele>120.696586</ele>
        <time>2021-10-30T09:26:26.000Z</time>
      </trkpt>
      <trkpt lat="38.048071" lon="-1.267468">
        <ele>120.253907</ele>
        <time>2021-10-30T09:26:29.000Z</time>
      </trkpt>
      <trkpt lat="38.048134" lon="-1.267201">
        <ele>119.703734</ele>
        <time>2021-10-30T09:26:32.000Z</time>
      </trkpt>
      <trkpt lat="38.048161" lon="-1.267116">
        <ele>119.522820</ele>
        <time>2021-10-30T09:26:33.000Z</time>
      </trkpt>
      <trkpt lat="38.048278" lon="-1.266682">
        <ele>118.617353</ele>
        <time>2021-10-30T09:26:38.000Z</time>
      </trkpt>
      <trkpt lat="38.048298" lon="-1.266590">
        <ele>118.428965</ele>
        <time>2021-10-30T09:26:39.000Z</time>
      </trkpt>
      <trkpt lat="38.048333" lon="-1.266404">
        <ele>118.051489</ele>
        <time>2021-10-30T09:26:41.000Z</time>
      </trkpt>
      <trkpt lat="38.048356" lon="-1.266313">
        <ele>117.862843</ele>
        <time>2021-10-30T09:26:42.000Z</time>
      </trkpt>
      <trkpt lat="38.048401" lon="-1.266124">
        <ele>117.473103</ele>
        <time>2021-10-30T09:26:44.000Z</time>
      </trkpt>
      <trkpt lat="38.048551" lon="-1.265453">
        <ele>116.096309</ele>
        <time>2021-10-30T09:26:51.000Z</time>
      </trkpt>
      <trkpt lat="38.048702" lon="-1.264776">
        <ele>115.134877</ele>
        <time>2021-10-30T09:26:58.000Z</time>
      </trkpt>
      <trkpt lat="38.048721" lon="-1.264684">
        <ele>115.012413</ele>
        <time>2021-10-30T09:26:59.000Z</time>
      </trkpt>
      <trkpt lat="38.048835" lon="-1.264146">
        <ele>114.295052</ele>
        <time>2021-10-30T09:27:05.000Z</time>
      </trkpt>
      <trkpt lat="38.048872" lon="-1.263992">
        <ele>114.087740</ele>
        <time>2021-10-30T09:27:07.000Z</time>
      </trkpt>
      <trkpt lat="38.048901" lon="-1.263880">
        <ele>113.935935</ele>
        <time>2021-10-30T09:27:09.000Z</time>
      </trkpt>
      <trkpt lat="38.048962" lon="-1.263643">
        <ele>113.614892</ele>
        <time>2021-10-30T09:27:13.000Z</time>
      </trkpt>
      <trkpt lat="38.048981" lon="-1.263563">
        <ele>113.507302</ele>
        <time>2021-10-30T09:27:14.000Z</time>
      </trkpt>
      <trkpt lat="38.049023" lon="-1.263396">
        <ele>113.281576</ele>
        <time>2021-10-30T09:27:16.000Z</time>
      </trkpt>
      <trkpt lat="38.049098" lon="-1.263039">
        <ele>112.638366</ele>
        <time>2021-10-30T09:27:20.000Z</time>
      </trkpt>
      <trkpt lat="38.049158" lon="-1.262753">
        <ele>111.921591</ele>
        <time>2021-10-30T09:27:23.000Z</time>
      </trkpt>
      <trkpt lat="38.049242" lon="-1.262370">
        <ele>110.958762</ele>
        <time>2021-10-30T09:27:27.000Z</time>
      </trkpt>
      <trkpt lat="38.049266" lon="-1.262274">
        <ele>110.714841</ele>
        <time>2021-10-30T09:27:28.000Z</time>
      </trkpt>
      <trkpt lat="38.049288" lon="-1.262177">
        <ele>110.470383</ele>
        <time>2021-10-30T09:27:29.000Z</time>
      </trkpt>
      <trkpt lat="38.049373" lon="-1.261792">
        <ele>109.502065</ele>
        <time>2021-10-30T09:27:33.000Z</time>
      </trkpt>
      <trkpt lat="38.049476" lon="-1.261315">
        <ele>108.304256</ele>
        <time>2021-10-30T09:27:38.000Z</time>
      </trkpt>
      <trkpt lat="38.049519" lon="-1.261124">
        <ele>107.823174</ele>
        <time>2021-10-30T09:27:40.000Z</time>
      </trkpt>
      <trkpt lat="38.049631" lon="-1.260638">
        <ele>106.837826</ele>
        <time>2021-10-30T09:27:45.000Z</time>
      </trkpt>
      <trkpt lat="38.049677" lon="-1.260438">
        <ele>106.473369</ele>
        <time>2021-10-30T09:27:47.000Z</time>
      </trkpt>
      <trkpt lat="38.049701" lon="-1.260338">
        <ele>106.290506</ele>
        <time>2021-10-30T09:27:48.000Z</time>
      </trkpt>
      <trkpt lat="38.049743" lon="-1.260139">
        <ele>105.930130</ele>
        <time>2021-10-30T09:27:50.000Z</time>
      </trkpt>
      <trkpt lat="38.049854" lon="-1.259661">
        <ele>105.058417</ele>
        <time>2021-10-30T09:27:55.000Z</time>
      </trkpt>
      <trkpt lat="38.049877" lon="-1.259564">
        <ele>104.881220</ele>
        <time>2021-10-30T09:27:56.000Z</time>
      </trkpt>
      <trkpt lat="38.050020" lon="-1.258974">
        <ele>103.801419</ele>
        <time>2021-10-30T09:28:02.000Z</time>
      </trkpt>
      <trkpt lat="38.050093" lon="-1.258674">
        <ele>103.249452</ele>
        <time>2021-10-30T09:28:05.000Z</time>
      </trkpt>
      <trkpt lat="38.050184" lon="-1.258271">
        <ele>102.506910</ele>
        <time>2021-10-30T09:28:09.000Z</time>
      </trkpt>
      <trkpt lat="38.050203" lon="-1.258169">
        <ele>102.321266</ele>
        <time>2021-10-30T09:28:10.000Z</time>
      </trkpt>
      <trkpt lat="38.050219" lon="-1.258066">
        <ele>102.135322</ele>
        <time>2021-10-30T09:28:11.000Z</time>
      </trkpt>
      <trkpt lat="38.050246" lon="-1.257858">
        <ele>101.761949</ele>
        <time>2021-10-30T09:28:13.000Z</time>
      </trkpt>
      <trkpt lat="38.050263" lon="-1.257651">
        <ele>101.393332</ele>
        <time>2021-10-30T09:28:15.000Z</time>
      </trkpt>
      <trkpt lat="38.050259" lon="-1.257229">
        <ele>100.645850</ele>
        <time>2021-10-30T09:28:19.000Z</time>
      </trkpt>
      <trkpt lat="38.050241" lon="-1.257016">
        <ele>100.266428</ele>
        <time>2021-10-30T09:28:21.000Z</time>
      </trkpt>
      <trkpt lat="38.050173" lon="-1.256587">
        <ele>99.491362</ele>
        <time>2021-10-30T09:28:25.000Z</time>
      </trkpt>
      <trkpt lat="38.050151" lon="-1.256481">
        <ele>99.293796</ele>
        <time>2021-10-30T09:28:26.000Z</time>
      </trkpt>
      <trkpt lat="38.050127" lon="-1.256375">
        <ele>99.093186</ele>
        <time>2021-10-30T09:28:27.000Z</time>
      </trkpt>
      <trkpt lat="38.050097" lon="-1.256270">
        <ele>98.890023</ele>
        <time>2021-10-30T09:28:28.000Z</time>
      </trkpt>
      <trkpt lat="38.050023" lon="-1.256066">
        <ele>98.481499</ele>
        <time>2021-10-30T09:28:30.000Z</time>
      </trkpt>
      <trkpt lat="38.049895" lon="-1.255775">
        <ele>97.875234</ele>
        <time>2021-10-30T09:28:33.000Z</time>
      </trkpt>
      <trkpt lat="38.049743" lon="-1.255515">
        <ele>97.286252</ele>
        <time>2021-10-30T09:28:36.000Z</time>
      </trkpt>
      <trkpt lat="38.049530" lon="-1.255199">
        <ele>96.529683</ele>
        <time>2021-10-30T09:28:40.000Z</time>
      </trkpt>
      <trkpt lat="38.049364" lon="-1.254981">
        <ele>95.978108</ele>
        <time>2021-10-30T09:28:43.000Z</time>
      </trkpt>
      <trkpt lat="38.049012" lon="-1.254564">
        <ele>94.890895</ele>
        <time>2021-10-30T09:28:49.000Z</time>
      </trkpt>
      <trkpt lat="38.048885" lon="-1.254433">
        <ele>94.536109</ele>
        <time>2021-10-30T09:28:51.000Z</time>
      </trkpt>
      <trkpt lat="38.048818" lon="-1.254370">
        <ele>94.355335</ele>
        <time>2021-10-30T09:28:52.000Z</time>
      </trkpt>
      <trkpt lat="38.048611" lon="-1.254194">
        <ele>93.815160</ele>
        <time>2021-10-30T09:28:55.000Z</time>
      </trkpt>
      <trkpt lat="38.048543" lon="-1.254130">
        <ele>93.631627</ele>
        <time>2021-10-30T09:28:56.000Z</time>
      </trkpt>
      <trkpt lat="38.048270" lon="-1.253868">
        <ele>92.889620</ele>
        <time>2021-10-30T09:29:00.000Z</time>
      </trkpt>
      <trkpt lat="38.048202" lon="-1.253801">
        <ele>92.702991</ele>
        <time>2021-10-30T09:29:01.000Z</time>
      </trkpt>
      <trkpt lat="38.048065" lon="-1.253669">
        <ele>92.330091</ele>
        <time>2021-10-30T09:29:03.000Z</time>
      </trkpt>
      <trkpt lat="38.047997" lon="-1.253601">
        <ele>92.142410</ele>
        <time>2021-10-30T09:29:04.000Z</time>
      </trkpt>
      <trkpt lat="38.047930" lon="-1.253531">
        <ele>91.954277</ele>
        <time>2021-10-30T09:29:05.000Z</time>
      </trkpt>
      <trkpt lat="38.047616" lon="-1.253169">
        <ele>91.226370</ele>
        <time>2021-10-30T09:29:10.000Z</time>
      </trkpt>
      <trkpt lat="38.047564" lon="-1.253089">
        <ele>91.150712</ele>
        <time>2021-10-30T09:29:11.000Z</time>
      </trkpt>
      <trkpt lat="38.047395" lon="-1.252760">
        <ele>90.864212</ele>
        <time>2021-10-30T09:29:15.000Z</time>
      </trkpt>
      <trkpt lat="38.047348" lon="-1.252690">
        <ele>90.797118</ele>
        <time>2021-10-30T09:29:16.000Z</time>
      </trkpt>
      <trkpt lat="38.047102" lon="-1.252253">
        <ele>90.405322</ele>
        <time>2021-10-30T09:29:22.000Z</time>
      </trkpt>
      <trkpt lat="38.046993" lon="-1.251906">
        <ele>90.132837</ele>
        <time>2021-10-30T09:29:26.000Z</time>
      </trkpt>
      <trkpt lat="38.046949" lon="-1.251721">
        <ele>89.991884</ele>
        <time>2021-10-30T09:29:28.000Z</time>
      </trkpt>
      <trkpt lat="38.046844" lon="-1.251137">
        <ele>89.280272</ele>
        <time>2021-10-30T09:29:34.000Z</time>
      </trkpt>
      <trkpt lat="38.046834" lon="-1.251038">
        <ele>89.072775</ele>
        <time>2021-10-30T09:29:35.000Z</time>
      </trkpt>
      <trkpt lat="38.046830" lon="-1.250745">
        <ele>88.463568</ele>
        <time>2021-10-30T09:29:38.000Z</time>
      </trkpt>
      <trkpt lat="38.046834" lon="-1.250649">
        <ele>88.263715</ele>
        <time>2021-10-30T09:29:39.000Z</time>
      </trkpt>
      <trkpt lat="38.046837" lon="-1.250551">
        <ele>88.059830</ele>
        <time>2021-10-30T09:29:40.000Z</time>
      </trkpt>
      <trkpt lat="38.046840" lon="-1.250455">
        <ele>87.860099</ele>
        <time>2021-10-30T09:29:41.000Z</time>
      </trkpt>
      <trkpt lat="38.046847" lon="-1.250358">
        <ele>87.657601</ele>
        <time>2021-10-30T09:29:42.000Z</time>
      </trkpt>
      <trkpt lat="38.046932" lon="-1.249784">
        <ele>86.443404</ele>
        <time>2021-10-30T09:29:48.000Z</time>
      </trkpt>
      <trkpt lat="38.046999" lon="-1.249508">
        <ele>85.842988</ele>
        <time>2021-10-30T09:29:51.000Z</time>
      </trkpt>
      <trkpt lat="38.047082" lon="-1.249237">
        <ele>85.238503</ele>
        <time>2021-10-30T09:29:54.000Z</time>
      </trkpt>
      <trkpt lat="38.047116" lon="-1.249152">
        <ele>85.040309</ele>
        <time>2021-10-30T09:29:55.000Z</time>
      </trkpt>
      <trkpt lat="38.047265" lon="-1.248818">
        <ele>84.855847</ele>
        <time>2021-10-30T09:29:59.000Z</time>
      </trkpt>
      <trkpt lat="38.047412" lon="-1.248506">
        <ele>84.750419</ele>
        <time>2021-10-30T09:30:03.000Z</time>
      </trkpt>
      <trkpt lat="38.047479" lon="-1.248356">
        <ele>84.700413</ele>
        <time>2021-10-30T09:30:05.000Z</time>
      </trkpt>
      <trkpt lat="38.047540" lon="-1.248212">
        <ele>84.652998</ele>
        <time>2021-10-30T09:30:07.000Z</time>
      </trkpt>
      <trkpt lat="38.047570" lon="-1.248147">
        <ele>84.631151</ele>
        <time>2021-10-30T09:30:08.000Z</time>
      </trkpt>
      <trkpt lat="38.047593" lon="-1.248086">
        <ele>84.611540</ele>
        <time>2021-10-30T09:30:09.000Z</time>
      </trkpt>
      <trkpt lat="38.047707" lon="-1.247816">
        <ele>84.522703</ele>
        <time>2021-10-30T09:30:14.000Z</time>
      </trkpt>
      <trkpt lat="38.047889" lon="-1.247384">
        <ele>84.380635</ele>
        <time>2021-10-30T09:30:21.000Z</time>
      </trkpt>
      <trkpt lat="38.048060" lon="-1.246980">
        <ele>84.294833</ele>
        <time>2021-10-30T09:30:28.000Z</time>
      </trkpt>
      <trkpt lat="38.048249" lon="-1.246638">
        <ele>84.299724</ele>
        <time>2021-10-30T09:30:34.000Z</time>
      </trkpt>
      <trkpt lat="38.048432" lon="-1.246325">
        <ele>84.304288</ele>
        <time>2021-10-30T09:30:39.000Z</time>
      </trkpt>
      <trkpt lat="38.048517" lon="-1.246214">
        <ele>84.306101</ele>
        <time>2021-10-30T09:30:41.000Z</time>
      </trkpt>
      <trkpt lat="38.048596" lon="-1.246131">
        <ele>84.307625</ele>
        <time>2021-10-30T09:30:43.000Z</time>
      </trkpt>
      <trkpt lat="38.048672" lon="-1.246079">
        <ele>84.308908</ele>
        <time>2021-10-30T09:30:45.000Z</time>
      </trkpt>
      <trkpt lat="38.048746" lon="-1.246014">
        <ele>84.310246</ele>
        <time>2021-10-30T09:30:47.000Z</time>
      </trkpt>
      <trkpt lat="38.048894" lon="-1.245882">
        <ele>84.312935</ele>
        <time>2021-10-30T09:30:51.000Z</time>
      </trkpt>
      <trkpt lat="38.048934" lon="-1.245857">
        <ele>84.313597</ele>
        <time>2021-10-30T09:30:52.000Z</time>
      </trkpt>
      <trkpt lat="38.048977" lon="-1.245847">
        <ele>84.314247</ele>
        <time>2021-10-30T09:30:53.000Z</time>
      </trkpt>
      <trkpt lat="38.049075" lon="-1.245870">
        <ele>84.315729</ele>
        <time>2021-10-30T09:30:55.000Z</time>
      </trkpt>
      <trkpt lat="38.049349" lon="-1.245983">
        <ele>84.323251</ele>
        <time>2021-10-30T09:31:01.000Z</time>
      </trkpt>
      <trkpt lat="38.049400" lon="-1.245997">
        <ele>84.333293</ele>
        <time>2021-10-30T09:31:02.000Z</time>
      </trkpt>
      <trkpt lat="38.049655" lon="-1.246060">
        <ele>84.383289</ele>
        <time>2021-10-30T09:31:07.000Z</time>
      </trkpt>
      <trkpt lat="38.049700" lon="-1.246067">
        <ele>84.392015</ele>
        <time>2021-10-30T09:31:08.000Z</time>
      </trkpt>
      <trkpt lat="38.049847" lon="-1.246071">
        <ele>84.420312</ele>
        <time>2021-10-30T09:31:12.000Z</time>
      </trkpt>
      <trkpt lat="38.049914" lon="-1.246073">
        <ele>84.433210</ele>
        <time>2021-10-30T09:31:14.000Z</time>
      </trkpt>
      <trkpt lat="38.049965" lon="-1.246068">
        <ele>84.443055</ele>
        <time>2021-10-30T09:31:16.000Z</time>
      </trkpt>
      <trkpt lat="38.050019" lon="-1.246064">
        <ele>84.453465</ele>
        <time>2021-10-30T09:31:20.000Z</time>
      </trkpt>
      <trkpt lat="38.050044" lon="-1.246050">
        <ele>84.458723</ele>
        <time>2021-10-30T09:31:22.000Z</time>
      </trkpt>
      <trkpt lat="38.050127" lon="-1.246050">
        <ele>84.474697</ele>
        <time>2021-10-30T09:31:25.000Z</time>
      </trkpt>
      <trkpt lat="38.050334" lon="-1.246041">
        <ele>84.514559</ele>
        <time>2021-10-30T09:31:29.000Z</time>
      </trkpt>
      <trkpt lat="38.050381" lon="-1.246035">
        <ele>84.523650</ele>
        <time>2021-10-30T09:31:30.000Z</time>
      </trkpt>
      <trkpt lat="38.050505" lon="-1.246052">
        <ele>84.547653</ele>
        <time>2021-10-30T09:31:33.000Z</time>
      </trkpt>
      <trkpt lat="38.050716" lon="-1.246013">
        <ele>84.588689</ele>
        <time>2021-10-30T09:31:38.000Z</time>
      </trkpt>
      <trkpt lat="38.050822" lon="-1.246028">
        <ele>84.609216</ele>
        <time>2021-10-30T09:31:41.000Z</time>
      </trkpt>
      <trkpt lat="38.050855" lon="-1.246031">
        <ele>84.615583</ele>
        <time>2021-10-30T09:31:42.000Z</time>
      </trkpt>
      <trkpt lat="38.050955" lon="-1.246041">
        <ele>84.634888</ele>
        <time>2021-10-30T09:31:45.000Z</time>
      </trkpt>
      <trkpt lat="38.051057" lon="-1.246046">
        <ele>84.654533</ele>
        <time>2021-10-30T09:31:47.000Z</time>
      </trkpt>
      <trkpt lat="38.051102" lon="-1.246047">
        <ele>84.663195</ele>
        <time>2021-10-30T09:31:48.000Z</time>
      </trkpt>
      <trkpt lat="38.051359" lon="-1.246030">
        <ele>85.239432</ele>
        <time>2021-10-30T09:31:53.000Z</time>
      </trkpt>
      <trkpt lat="38.051396" lon="-1.246044">
        <ele>85.330444</ele>
        <time>2021-10-30T09:31:54.000Z</time>
      </trkpt>
      <trkpt lat="38.051421" lon="-1.246049">
        <ele>85.390104</ele>
        <time>2021-10-30T09:31:55.000Z</time>
      </trkpt>
      <trkpt lat="38.051450" lon="-1.246059">
        <ele>85.460943</ele>
        <time>2021-10-30T09:31:56.000Z</time>
      </trkpt>
      <trkpt lat="38.051488" lon="-1.246069">
        <ele>85.552426</ele>
        <time>2021-10-30T09:31:57.000Z</time>
      </trkpt>
      <trkpt lat="38.051539" lon="-1.246077">
        <ele>85.673564</ele>
        <time>2021-10-30T09:31:58.000Z</time>
      </trkpt>
      <trkpt lat="38.051595" lon="-1.246087">
        <ele>85.806875</ele>
        <time>2021-10-30T09:31:59.000Z</time>
      </trkpt>
      <trkpt lat="38.051685" lon="-1.246120">
        <ele>86.027704</ele>
        <time>2021-10-30T09:32:01.000Z</time>
      </trkpt>
      <trkpt lat="38.051727" lon="-1.246135">
        <ele>86.130554</ele>
        <time>2021-10-30T09:32:02.000Z</time>
      </trkpt>
      <trkpt lat="38.051804" lon="-1.246153">
        <ele>86.315120</ele>
        <time>2021-10-30T09:32:04.000Z</time>
      </trkpt>
      <trkpt lat="38.051832" lon="-1.246160">
        <ele>86.382393</ele>
        <time>2021-10-30T09:32:05.000Z</time>
      </trkpt>
      <trkpt lat="38.051849" lon="-1.246159">
        <ele>86.422511</ele>
        <time>2021-10-30T09:32:06.000Z</time>
      </trkpt>
      <trkpt lat="38.051929" lon="-1.246084">
        <ele>86.656922</ele>
        <time>2021-10-30T09:32:08.000Z</time>
      </trkpt>
      <trkpt lat="38.051940" lon="-1.245971">
        <ele>86.868281</ele>
        <time>2021-10-30T09:32:10.000Z</time>
      </trkpt>
      <trkpt lat="38.051928" lon="-1.245920">
        <ele>86.967089</ele>
        <time>2021-10-30T09:32:11.000Z</time>
      </trkpt>
      <trkpt lat="38.051927" lon="-1.245833">
        <ele>87.128604</ele>
        <time>2021-10-30T09:32:14.000Z</time>
      </trkpt>
      <trkpt lat="38.051933" lon="-1.245823">
        <ele>87.151942</ele>
        <time>2021-10-30T09:32:15.000Z</time>
      </trkpt>
      <trkpt lat="38.051947" lon="-1.245827">
        <ele>87.185770</ele>
        <time>2021-10-30T09:32:16.000Z</time>
      </trkpt>
      <trkpt lat="38.051983" lon="-1.245840">
        <ele>87.273999</ele>
        <time>2021-10-30T09:32:18.000Z</time>
      </trkpt>
      <trkpt lat="38.051999" lon="-1.245845">
        <ele>87.312842</ele>
        <time>2021-10-30T09:32:19.000Z</time>
      </trkpt>
      <trkpt lat="38.052051" lon="-1.245863">
        <ele>87.439897</ele>
        <time>2021-10-30T09:32:24.000Z</time>
      </trkpt>
      <trkpt lat="38.052069" lon="-1.245874">
        <ele>87.486987</ele>
        <time>2021-10-30T09:32:26.000Z</time>
      </trkpt>
      <trkpt lat="38.052141" lon="-1.245891">
        <ele>87.659625</ele>
        <time>2021-10-30T09:32:31.000Z</time>
      </trkpt>
      <trkpt lat="38.052156" lon="-1.245897">
        <ele>87.696698</ele>
        <time>2021-10-30T09:32:33.000Z</time>
      </trkpt>
      <trkpt lat="38.052165" lon="-1.245906">
        <ele>87.723702</ele>
        <time>2021-10-30T09:32:34.000Z</time>
      </trkpt>
      <trkpt lat="38.052180" lon="-1.245910">
        <ele>87.759834</ele>
        <time>2021-10-30T09:32:35.000Z</time>
      </trkpt>
      <trkpt lat="38.052197" lon="-1.245913">
        <ele>87.800294</ele>
        <time>2021-10-30T09:32:36.000Z</time>
      </trkpt>
      <trkpt lat="38.052214" lon="-1.245916">
        <ele>87.840754</ele>
        <time>2021-10-30T09:32:37.000Z</time>
      </trkpt>
      <trkpt lat="38.052264" lon="-1.245919">
        <ele>87.958753</ele>
        <time>2021-10-30T09:32:40.000Z</time>
      </trkpt>
      <trkpt lat="38.052270" lon="-1.245905">
        <ele>87.988341</ele>
        <time>2021-10-30T09:32:41.000Z</time>
      </trkpt>
      <trkpt lat="38.052238" lon="-1.245881">
        <ele>88.075950</ele>
        <time>2021-10-30T09:32:45.000Z</time>
      </trkpt>
      <trkpt lat="38.052226" lon="-1.245880">
        <ele>88.104299</ele>
        <time>2021-10-30T09:32:46.000Z</time>
      </trkpt>
      <trkpt lat="38.052191" lon="-1.245870">
        <ele>88.188869</ele>
        <time>2021-10-30T09:32:50.000Z</time>
      </trkpt>
      <trkpt lat="38.052181" lon="-1.245868">
        <ele>88.212733</ele>
        <time>2021-10-30T09:32:51.000Z</time>
      </trkpt>
      <trkpt lat="38.052172" lon="-1.245864">
        <ele>88.235211</ele>
        <time>2021-10-30T09:32:52.000Z</time>
      </trkpt>
      <trkpt lat="38.052135" lon="-1.245848">
        <ele>88.327351</ele>
        <time>2021-10-30T09:32:56.000Z</time>
      </trkpt>
      <trkpt lat="38.052098" lon="-1.245842">
        <ele>88.415282</ele>
        <time>2021-10-30T09:32:59.000Z</time>
      </trkpt>
      <trkpt lat="38.052046" lon="-1.245825">
        <ele>88.541861</ele>
        <time>2021-10-30T09:33:04.000Z</time>
      </trkpt>
      <trkpt lat="38.052039" lon="-1.245823">
        <ele>88.558775</ele>
        <time>2021-10-30T09:33:05.000Z</time>
      </trkpt>
      <trkpt lat="38.051991" lon="-1.245815">
        <ele>88.672898</ele>
        <time>2021-10-30T09:33:09.000Z</time>
      </trkpt>
      <trkpt lat="38.051974" lon="-1.245807">
        <ele>88.715636</ele>
        <time>2021-10-30T09:33:11.000Z</time>
      </trkpt>
      <trkpt lat="38.051961" lon="-1.245805">
        <ele>88.746506</ele>
        <time>2021-10-30T09:33:12.000Z</time>
      </trkpt>
      <trkpt lat="38.051927" lon="-1.245800">
        <ele>88.827192</ele>
        <time>2021-10-30T09:33:15.000Z</time>
      </trkpt>
      <trkpt lat="38.051871" lon="-1.245784">
        <ele>88.848155</ele>
        <time>2021-10-30T09:33:17.000Z</time>
      </trkpt>
      <trkpt lat="38.051807" lon="-1.245767">
        <ele>88.690682</ele>
        <time>2021-10-30T09:33:19.000Z</time>
      </trkpt>
      <trkpt lat="38.051783" lon="-1.245758">
        <ele>88.630413</ele>
        <time>2021-10-30T09:33:20.000Z</time>
      </trkpt>
      <trkpt lat="38.051768" lon="-1.245713">
        <ele>88.537740</ele>
        <time>2021-10-30T09:33:22.000Z</time>
      </trkpt>
      <trkpt lat="38.051773" lon="-1.245676">
        <ele>88.466543</ele>
        <time>2021-10-30T09:33:23.000Z</time>
      </trkpt>
      <trkpt lat="38.051796" lon="-1.245528">
        <ele>88.180448</ele>
        <time>2021-10-30T09:33:26.000Z</time>
      </trkpt>
      <trkpt lat="38.051844" lon="-1.245271">
        <ele>87.679527</ele>
        <time>2021-10-30T09:33:31.000Z</time>
      </trkpt>
      <trkpt lat="38.051840" lon="-1.245221">
        <ele>87.584214</ele>
        <time>2021-10-30T09:33:33.000Z</time>
      </trkpt>
      <trkpt lat="38.051818" lon="-1.245212">
        <ele>87.528548</ele>
        <time>2021-10-30T09:33:34.000Z</time>
      </trkpt>
      <trkpt lat="38.051775" lon="-1.245213">
        <ele>87.424970</ele>
        <time>2021-10-30T09:33:36.000Z</time>
      </trkpt>
      <trkpt lat="38.051758" lon="-1.245260">
        <ele>87.326882</ele>
        <time>2021-10-30T09:33:38.000Z</time>
      </trkpt>
      <trkpt lat="38.051748" lon="-1.245321">
        <ele>87.208715</ele>
        <time>2021-10-30T09:33:40.000Z</time>
      </trkpt>
      <trkpt lat="38.051759" lon="-1.245338">
        <ele>87.166986</ele>
        <time>2021-10-30T09:33:41.000Z</time>
      </trkpt>
      <trkpt lat="38.051780" lon="-1.245344">
        <ele>87.115146</ele>
        <time>2021-10-30T09:33:42.000Z</time>
      </trkpt>
      <trkpt lat="38.051815" lon="-1.245348">
        <ele>87.030512</ele>
        <time>2021-10-30T09:33:44.000Z</time>
      </trkpt>
      <trkpt lat="38.051829" lon="-1.245323">
        <ele>86.972332</ele>
        <time>2021-10-30T09:33:46.000Z</time>
      </trkpt>
      <trkpt lat="38.051832" lon="-1.245309">
        <ele>86.944816</ele>
        <time>2021-10-30T09:33:47.000Z</time>
      </trkpt>
      <trkpt lat="38.051839" lon="-1.245306">
        <ele>86.927023</ele>
        <time>2021-10-30T09:33:49.000Z</time>
      </trkpt>
      <trkpt lat="38.051859" lon="-1.245323">
        <ele>86.869061</ele>
        <time>2021-10-30T09:33:51.000Z</time>
      </trkpt>
      <trkpt lat="38.051871" lon="-1.245336">
        <ele>86.831073</ele>
        <time>2021-10-30T09:33:52.000Z</time>
      </trkpt>
      <trkpt lat="38.051883" lon="-1.245341">
        <ele>86.800657</ele>
        <time>2021-10-30T09:33:53.000Z</time>
      </trkpt>
      <trkpt lat="38.051929" lon="-1.245302">
        <ele>86.667450</ele>
        <time>2021-10-30T09:33:55.000Z</time>
      </trkpt>
      <trkpt lat="38.051980" lon="-1.245273">
        <ele>86.532871</ele>
        <time>2021-10-30T09:33:56.000Z</time>
      </trkpt>
      <trkpt lat="38.052085" lon="-1.245238">
        <ele>86.271424</ele>
        <time>2021-10-30T09:33:58.000Z</time>
      </trkpt>
      <trkpt lat="38.052140" lon="-1.245235">
        <ele>86.138840</ele>
        <time>2021-10-30T09:33:59.000Z</time>
      </trkpt>
      <trkpt lat="38.052405" lon="-1.245284">
        <ele>85.493887</ele>
        <time>2021-10-30T09:34:04.000Z</time>
      </trkpt>
      <trkpt lat="38.052458" lon="-1.245296">
        <ele>85.364230</ele>
        <time>2021-10-30T09:34:05.000Z</time>
      </trkpt>
      <trkpt lat="38.052510" lon="-1.245308">
        <ele>85.236942</ele>
        <time>2021-10-30T09:34:06.000Z</time>
      </trkpt>
      <trkpt lat="38.052616" lon="-1.245336">
        <ele>84.976189</ele>
        <time>2021-10-30T09:34:08.000Z</time>
      </trkpt>
      <trkpt lat="38.052725" lon="-1.245365">
        <ele>84.707975</ele>
        <time>2021-10-30T09:34:10.000Z</time>
      </trkpt>
      <trkpt lat="38.052992" lon="-1.245434">
        <ele>84.663206</ele>
        <time>2021-10-30T09:34:15.000Z</time>
      </trkpt>
      <trkpt lat="38.053097" lon="-1.245461">
        <ele>84.707216</ele>
        <time>2021-10-30T09:34:17.000Z</time>
      </trkpt>
      <trkpt lat="38.053302" lon="-1.245531">
        <ele>84.794421</ele>
        <time>2021-10-30T09:34:21.000Z</time>
      </trkpt>
      <trkpt lat="38.053354" lon="-1.245546">
        <ele>84.816327</ele>
        <time>2021-10-30T09:34:22.000Z</time>
      </trkpt>
      <trkpt lat="38.053407" lon="-1.245568">
        <ele>84.839233</ele>
        <time>2021-10-30T09:34:23.000Z</time>
      </trkpt>
      <trkpt lat="38.053512" lon="-1.245616">
        <ele>84.885077</ele>
        <time>2021-10-30T09:34:25.000Z</time>
      </trkpt>
      <trkpt lat="38.053676" lon="-1.245675">
        <ele>84.955099</ele>
        <time>2021-10-30T09:34:28.000Z</time>
      </trkpt>
      <trkpt lat="38.053894" lon="-1.245764">
        <ele>85.049168</ele>
        <time>2021-10-30T09:34:32.000Z</time>
      </trkpt>
      <trkpt lat="38.053950" lon="-1.245785">
        <ele>85.073155</ele>
        <time>2021-10-30T09:34:33.000Z</time>
      </trkpt>
      <trkpt lat="38.054004" lon="-1.245803">
        <ele>85.096089</ele>
        <time>2021-10-30T09:34:34.000Z</time>
      </trkpt>
      <trkpt lat="38.054505" lon="-1.246005">
        <ele>85.312025</ele>
        <time>2021-10-30T09:34:43.000Z</time>
      </trkpt>
      <trkpt lat="38.054802" lon="-1.246142">
        <ele>85.287936</ele>
        <time>2021-10-30T09:34:49.000Z</time>
      </trkpt>
      <trkpt lat="38.054852" lon="-1.246165">
        <ele>85.283687</ele>
        <time>2021-10-30T09:34:50.000Z</time>
      </trkpt>
      <trkpt lat="38.054902" lon="-1.246183">
        <ele>85.279535</ele>
        <time>2021-10-30T09:34:51.000Z</time>
      </trkpt>
      <trkpt lat="38.055000" lon="-1.246217">
        <ele>85.271418</ele>
        <time>2021-10-30T09:34:53.000Z</time>
      </trkpt>
      <trkpt lat="38.055358" lon="-1.246312">
        <ele>85.242198</ele>
        <time>2021-10-30T09:35:00.000Z</time>
      </trkpt>
      <trkpt lat="38.055450" lon="-1.246337">
        <ele>85.234681</ele>
        <time>2021-10-30T09:35:02.000Z</time>
      </trkpt>
      <trkpt lat="38.055614" lon="-1.246379">
        <ele>85.221315</ele>
        <time>2021-10-30T09:35:05.000Z</time>
      </trkpt>
      <trkpt lat="38.055856" lon="-1.246444">
        <ele>85.201552</ele>
        <time>2021-10-30T09:35:09.000Z</time>
      </trkpt>
      <trkpt lat="38.055918" lon="-1.246463">
        <ele>85.196457</ele>
        <time>2021-10-30T09:35:10.000Z</time>
      </trkpt>
      <trkpt lat="38.055977" lon="-1.246485">
        <ele>85.191544</ele>
        <time>2021-10-30T09:35:11.000Z</time>
      </trkpt>
      <trkpt lat="38.056094" lon="-1.246523">
        <ele>85.181895</ele>
        <time>2021-10-30T09:35:13.000Z</time>
      </trkpt>
      <trkpt lat="38.056213" lon="-1.246529">
        <ele>85.172380</ele>
        <time>2021-10-30T09:35:15.000Z</time>
      </trkpt>
      <trkpt lat="38.056278" lon="-1.246525">
        <ele>85.156075</ele>
        <time>2021-10-30T09:35:16.000Z</time>
      </trkpt>
      <trkpt lat="38.056527" lon="-1.246490">
        <ele>85.030659</ele>
        <time>2021-10-30T09:35:20.000Z</time>
      </trkpt>
      <trkpt lat="38.056589" lon="-1.246476">
        <ele>84.999134</ele>
        <time>2021-10-30T09:35:21.000Z</time>
      </trkpt>
      <trkpt lat="38.056707" lon="-1.246439">
        <ele>84.938287</ele>
        <time>2021-10-30T09:35:23.000Z</time>
      </trkpt>
      <trkpt lat="38.056962" lon="-1.246350">
        <ele>84.805897</ele>
        <time>2021-10-30T09:35:28.000Z</time>
      </trkpt>
      <trkpt lat="38.057003" lon="-1.246325">
        <ele>84.783128</ele>
        <time>2021-10-30T09:35:29.000Z</time>
      </trkpt>
      <trkpt lat="38.057128" lon="-1.246242">
        <ele>84.712514</ele>
        <time>2021-10-30T09:35:33.000Z</time>
      </trkpt>
      <trkpt lat="38.057133" lon="-1.246234">
        <ele>84.708488</ele>
        <time>2021-10-30T09:35:34.000Z</time>
      </trkpt>
      <trkpt lat="38.057136" lon="-1.246233">
        <ele>84.706935</ele>
        <time>2021-10-30T09:35:36.000Z</time>
      </trkpt>
      <trkpt lat="38.057142" lon="-1.246227">
        <ele>84.703112</ele>
        <time>2021-10-30T09:35:38.000Z</time>
      </trkpt>
      <trkpt lat="38.057145" lon="-1.246228">
        <ele>84.701560</ele>
        <time>2021-10-30T09:35:39.000Z</time>
      </trkpt>
      <trkpt lat="38.057128" lon="-1.246228">
        <ele>84.693049</ele>
        <time>2021-10-30T09:35:44.000Z</time>
      </trkpt>
      <trkpt lat="38.057128" lon="-1.246229">
        <ele>84.692655</ele>
        <time>2021-10-30T09:35:47.000Z</time>
      </trkpt>
      <trkpt lat="38.057126" lon="-1.246230">
        <ele>84.691579</ele>
        <time>2021-10-30T09:36:03.000Z</time>
      </trkpt>
      <trkpt lat="38.057126" lon="-1.246231">
        <ele>84.691185</ele>
        <time>2021-10-30T09:36:05.000Z</time>
      </trkpt>
      <trkpt lat="38.057126" lon="-1.246232">
        <ele>84.690790</ele>
        <time>2021-10-30T09:36:18.000Z</time>
      </trkpt>
      <trkpt lat="38.057126" lon="-1.246232">
        <ele>84.690790</ele>
        <time>2021-10-30T09:36:20.000Z</time>
      </trkpt>
      <trkpt lat="38.057122" lon="-1.246227">
        <ele>84.687981</ele>
        <time>2021-10-30T09:36:26.000Z</time>
      </trkpt>
      <trkpt lat="38.057109" lon="-1.246210">
        <ele>84.678639</ele>
        <time>2021-10-30T09:36:32.000Z</time>
      </trkpt>
      <trkpt lat="38.057115" lon="-1.246184">
        <ele>84.667959</ele>
        <time>2021-10-30T09:36:34.000Z</time>
      </trkpt>
      <trkpt lat="38.057151" lon="-1.246176">
        <ele>84.649663</ele>
        <time>2021-10-30T09:36:36.000Z</time>
      </trkpt>
      <trkpt lat="38.057175" lon="-1.246161">
        <ele>84.636272</ele>
        <time>2021-10-30T09:36:37.000Z</time>
      </trkpt>
      <trkpt lat="38.057205" lon="-1.246146">
        <ele>84.620132</ele>
        <time>2021-10-30T09:36:38.000Z</time>
      </trkpt>
      <trkpt lat="38.057319" lon="-1.246087">
        <ele>84.558505</ele>
        <time>2021-10-30T09:36:41.000Z</time>
      </trkpt>
      <trkpt lat="38.057587" lon="-1.245905">
        <ele>84.406362</ele>
        <time>2021-10-30T09:36:47.000Z</time>
      </trkpt>
      <trkpt lat="38.057860" lon="-1.245656">
        <ele>84.173188</ele>
        <time>2021-10-30T09:36:53.000Z</time>
      </trkpt>
      <trkpt lat="38.057900" lon="-1.245603">
        <ele>84.083171</ele>
        <time>2021-10-30T09:36:54.000Z</time>
      </trkpt>
      <trkpt lat="38.058094" lon="-1.245340">
        <ele>83.641294</ele>
        <time>2021-10-30T09:36:59.000Z</time>
      </trkpt>
      <trkpt lat="38.058132" lon="-1.245284">
        <ele>83.550649</ele>
        <time>2021-10-30T09:37:00.000Z</time>
      </trkpt>
      <trkpt lat="38.058206" lon="-1.245170">
        <ele>83.369494</ele>
        <time>2021-10-30T09:37:02.000Z</time>
      </trkpt>
      <trkpt lat="38.058244" lon="-1.245114">
        <ele>83.278850</ele>
        <time>2021-10-30T09:37:03.000Z</time>
      </trkpt>
      <trkpt lat="38.058316" lon="-1.244992">
        <ele>83.091906</ele>
        <time>2021-10-30T09:37:05.000Z</time>
      </trkpt>
      <trkpt lat="38.058390" lon="-1.244867">
        <ele>82.900152</ele>
        <time>2021-10-30T09:37:07.000Z</time>
      </trkpt>
      <trkpt lat="38.058459" lon="-1.244735">
        <ele>82.705883</ele>
        <time>2021-10-30T09:37:09.000Z</time>
      </trkpt>
      <trkpt lat="38.058522" lon="-1.244600">
        <ele>82.513466</ele>
        <time>2021-10-30T09:37:11.000Z</time>
      </trkpt>
      <trkpt lat="38.058581" lon="-1.244465">
        <ele>82.324150</ele>
        <time>2021-10-30T09:37:13.000Z</time>
      </trkpt>
      <trkpt lat="38.058610" lon="-1.244395">
        <ele>82.227165</ele>
        <time>2021-10-30T09:37:14.000Z</time>
      </trkpt>
      <trkpt lat="38.058684" lon="-1.244172">
        <ele>81.930447</ele>
        <time>2021-10-30T09:37:17.000Z</time>
      </trkpt>
      <trkpt lat="38.058715" lon="-1.244023">
        <ele>81.741484</ele>
        <time>2021-10-30T09:37:19.000Z</time>
      </trkpt>
      <trkpt lat="38.058775" lon="-1.243657">
        <ele>81.274775</ele>
        <time>2021-10-30T09:37:24.000Z</time>
      </trkpt>
      <trkpt lat="38.058812" lon="-1.243114">
        <ele>80.576415</ele>
        <time>2021-10-30T09:37:32.000Z</time>
      </trkpt>
      <trkpt lat="38.058824" lon="-1.242997">
        <ele>80.425233</ele>
        <time>2021-10-30T09:37:34.000Z</time>
      </trkpt>
      <trkpt lat="38.058836" lon="-1.242946">
        <ele>80.357030</ele>
        <time>2021-10-30T09:37:35.000Z</time>
      </trkpt>
      <trkpt lat="38.058852" lon="-1.242834">
        <ele>80.211179</ele>
        <time>2021-10-30T09:37:37.000Z</time>
      </trkpt>
      <trkpt lat="38.058884" lon="-1.242495">
        <ele>79.773699</ele>
        <time>2021-10-30T09:37:42.000Z</time>
      </trkpt>
      <trkpt lat="38.058938" lon="-1.242030">
        <ele>79.171438</ele>
        <time>2021-10-30T09:37:48.000Z</time>
      </trkpt>
      <trkpt lat="38.058945" lon="-1.241949">
        <ele>79.067028</ele>
        <time>2021-10-30T09:37:49.000Z</time>
      </trkpt>
      <trkpt lat="38.058975" lon="-1.241621">
        <ele>78.643927</ele>
        <time>2021-10-30T09:37:53.000Z</time>
      </trkpt>
      <trkpt lat="38.059004" lon="-1.241289">
        <ele>78.252283</ele>
        <time>2021-10-30T09:37:57.000Z</time>
      </trkpt>
      <trkpt lat="38.059010" lon="-1.241205">
        <ele>78.156300</ele>
        <time>2021-10-30T09:37:58.000Z</time>
      </trkpt>
      <trkpt lat="38.059018" lon="-1.241123">
        <ele>78.062272</ele>
        <time>2021-10-30T09:37:59.000Z</time>
      </trkpt>
      <trkpt lat="38.059042" lon="-1.240961">
        <ele>77.874685</ele>
        <time>2021-10-30T09:38:01.000Z</time>
      </trkpt>
      <trkpt lat="38.059059" lon="-1.240802">
        <ele>77.692086</ele>
        <time>2021-10-30T09:38:03.000Z</time>
      </trkpt>
      <trkpt lat="38.059063" lon="-1.240719">
        <ele>77.597457</ele>
        <time>2021-10-30T09:38:04.000Z</time>
      </trkpt>
      <trkpt lat="38.059068" lon="-1.240553">
        <ele>77.408414</ele>
        <time>2021-10-30T09:38:06.000Z</time>
      </trkpt>
      <trkpt lat="38.059084" lon="-1.240390">
        <ele>77.221488</ele>
        <time>2021-10-30T09:38:08.000Z</time>
      </trkpt>
      <trkpt lat="38.059092" lon="-1.240308">
        <ele>77.127460</ele>
        <time>2021-10-30T09:38:09.000Z</time>
      </trkpt>
      <trkpt lat="38.059130" lon="-1.239888">
        <ele>76.646365</ele>
        <time>2021-10-30T09:38:14.000Z</time>
      </trkpt>
      <trkpt lat="38.059137" lon="-1.239804">
        <ele>76.550241</ele>
        <time>2021-10-30T09:38:15.000Z</time>
      </trkpt>
      <trkpt lat="38.059144" lon="-1.239720">
        <ele>76.454117</ele>
        <time>2021-10-30T09:38:16.000Z</time>
      </trkpt>
      <trkpt lat="38.059153" lon="-1.239636">
        <ele>76.357646</ele>
        <time>2021-10-30T09:38:17.000Z</time>
      </trkpt>
      <trkpt lat="38.059160" lon="-1.239552">
        <ele>76.261522</ele>
        <time>2021-10-30T09:38:18.000Z</time>
      </trkpt>
      <trkpt lat="38.059167" lon="-1.239469">
        <ele>76.166530</ele>
        <time>2021-10-30T09:38:19.000Z</time>
      </trkpt>
      <trkpt lat="38.059181" lon="-1.239302">
        <ele>75.975414</ele>
        <time>2021-10-30T09:38:21.000Z</time>
      </trkpt>
      <trkpt lat="38.059211" lon="-1.238973">
        <ele>75.877531</ele>
        <time>2021-10-30T09:38:25.000Z</time>
      </trkpt>
      <trkpt lat="38.059218" lon="-1.238891">
        <ele>75.860041</ele>
        <time>2021-10-30T09:38:26.000Z</time>
      </trkpt>
      <trkpt lat="38.059272" lon="-1.238414">
        <ele>75.757853</ele>
        <time>2021-10-30T09:38:32.000Z</time>
      </trkpt>
      <trkpt lat="38.059325" lon="-1.238106">
        <ele>75.691001</ele>
        <time>2021-10-30T09:38:36.000Z</time>
      </trkpt>
      <trkpt lat="38.059422" lon="-1.237730">
        <ele>75.607100</ele>
        <time>2021-10-30T09:38:41.000Z</time>
      </trkpt>
      <trkpt lat="38.059502" lon="-1.237519">
        <ele>75.557440</ele>
        <time>2021-10-30T09:38:44.000Z</time>
      </trkpt>
      <trkpt lat="38.059666" lon="-1.237155">
        <ele>75.468511</ele>
        <time>2021-10-30T09:38:50.000Z</time>
      </trkpt>
      <trkpt lat="38.059730" lon="-1.236978">
        <ele>75.282438</ele>
        <time>2021-10-30T09:38:55.000Z</time>
      </trkpt>
      <trkpt lat="38.059803" lon="-1.236811">
        <ele>75.045307</ele>
        <time>2021-10-30T09:39:00.000Z</time>
      </trkpt>
      <trkpt lat="38.059857" lon="-1.236692">
        <ele>74.874795</ele>
        <time>2021-10-30T09:39:04.000Z</time>
      </trkpt>
      <trkpt lat="38.059848" lon="-1.236674">
        <ele>74.848324</ele>
        <time>2021-10-30T09:39:05.000Z</time>
      </trkpt>
      <trkpt lat="38.059796" lon="-1.236641">
        <ele>74.756669</ele>
        <time>2021-10-30T09:39:07.000Z</time>
      </trkpt>
      <trkpt lat="38.059754" lon="-1.236617">
        <ele>74.684053</ele>
        <time>2021-10-30T09:39:08.000Z</time>
      </trkpt>
      <trkpt lat="38.059605" lon="-1.236524">
        <ele>74.422285</ele>
        <time>2021-10-30T09:39:11.000Z</time>
      </trkpt>
      <trkpt lat="38.059495" lon="-1.236454">
        <ele>74.228293</ele>
        <time>2021-10-30T09:39:13.000Z</time>
      </trkpt>
      <trkpt lat="38.059440" lon="-1.236422">
        <ele>74.132907</ele>
        <time>2021-10-30T09:39:14.000Z</time>
      </trkpt>
      <trkpt lat="38.059297" lon="-1.236321">
        <ele>73.874917</ele>
        <time>2021-10-30T09:39:17.000Z</time>
      </trkpt>
      <trkpt lat="38.059186" lon="-1.236215">
        <ele>73.655947</ele>
        <time>2021-10-30T09:39:20.000Z</time>
      </trkpt>
      <trkpt lat="38.059116" lon="-1.236156">
        <ele>73.523483</ele>
        <time>2021-10-30T09:39:22.000Z</time>
      </trkpt>
      <trkpt lat="38.058967" lon="-1.236032">
        <ele>73.242609</ele>
        <time>2021-10-30T09:39:26.000Z</time>
      </trkpt>
      <trkpt lat="38.058883" lon="-1.235955">
        <ele>73.079270</ele>
        <time>2021-10-30T09:39:28.000Z</time>
      </trkpt>
      <trkpt lat="38.058658" lon="-1.235754">
        <ele>72.645538</ele>
        <time>2021-10-30T09:39:33.000Z</time>
      </trkpt>
      <trkpt lat="38.058566" lon="-1.235671">
        <ele>72.719424</ele>
        <time>2021-10-30T09:39:35.000Z</time>
      </trkpt>
      <trkpt lat="38.058519" lon="-1.235631">
        <ele>72.776584</ele>
        <time>2021-10-30T09:39:36.000Z</time>
      </trkpt>
      <trkpt lat="38.058471" lon="-1.235591">
        <ele>72.834586</ele>
        <time>2021-10-30T09:39:37.000Z</time>
      </trkpt>
      <trkpt lat="38.058423" lon="-1.235551">
        <ele>72.892588</ele>
        <time>2021-10-30T09:39:38.000Z</time>
      </trkpt>
      <trkpt lat="38.058231" lon="-1.235391">
        <ele>73.124596</ele>
        <time>2021-10-30T09:39:42.000Z</time>
      </trkpt>
      <trkpt lat="38.058134" lon="-1.235315">
        <ele>73.239744</ele>
        <time>2021-10-30T09:39:44.000Z</time>
      </trkpt>
      <trkpt lat="38.058040" lon="-1.235240">
        <ele>73.351898</ele>
        <time>2021-10-30T09:39:46.000Z</time>
      </trkpt>
      <trkpt lat="38.057945" lon="-1.235158">
        <ele>73.467946</ele>
        <time>2021-10-30T09:39:48.000Z</time>
      </trkpt>
      <trkpt lat="38.057846" lon="-1.235096">
        <ele>73.579465</ele>
        <time>2021-10-30T09:39:50.000Z</time>
      </trkpt>
      <trkpt lat="38.057739" lon="-1.235036">
        <ele>73.697636</ele>
        <time>2021-10-30T09:39:52.000Z</time>
      </trkpt>
      <trkpt lat="38.057634" lon="-1.234979">
        <ele>73.813002</ele>
        <time>2021-10-30T09:39:54.000Z</time>
      </trkpt>
      <trkpt lat="38.057580" lon="-1.234953">
        <ele>73.871348</ele>
        <time>2021-10-30T09:39:55.000Z</time>
      </trkpt>
      <trkpt lat="38.057525" lon="-1.234928">
        <ele>73.930366</ele>
        <time>2021-10-30T09:39:56.000Z</time>
      </trkpt>
      <trkpt lat="38.057472" lon="-1.234899">
        <ele>73.988670</ele>
        <time>2021-10-30T09:39:57.000Z</time>
      </trkpt>
      <trkpt lat="38.057155" lon="-1.234738">
        <ele>74.333597</ele>
        <time>2021-10-30T09:40:03.000Z</time>
      </trkpt>
      <trkpt lat="38.056842" lon="-1.234572">
        <ele>74.105215</ele>
        <time>2021-10-30T09:40:09.000Z</time>
      </trkpt>
      <trkpt lat="38.056797" lon="-1.234524">
        <ele>74.022144</ele>
        <time>2021-10-30T09:40:10.000Z</time>
      </trkpt>
      <trkpt lat="38.056711" lon="-1.234421">
        <ele>73.855044</ele>
        <time>2021-10-30T09:40:12.000Z</time>
      </trkpt>
      <trkpt lat="38.056607" lon="-1.234359">
        <ele>73.692640</ele>
        <time>2021-10-30T09:40:14.000Z</time>
      </trkpt>
      <trkpt lat="38.056502" lon="-1.234293">
        <ele>73.527028</ele>
        <time>2021-10-30T09:40:16.000Z</time>
      </trkpt>
      <trkpt lat="38.056363" lon="-1.234144">
        <ele>73.269904</ele>
        <time>2021-10-30T09:40:19.000Z</time>
      </trkpt>
      <trkpt lat="38.056196" lon="-1.233920">
        <ele>72.926550</ele>
        <time>2021-10-30T09:40:23.000Z</time>
      </trkpt>
      <trkpt lat="38.056153" lon="-1.233870">
        <ele>72.844136</ele>
        <time>2021-10-30T09:40:24.000Z</time>
      </trkpt>
      <trkpt lat="38.056110" lon="-1.233818">
        <ele>72.760203</ele>
        <time>2021-10-30T09:40:25.000Z</time>
      </trkpt>
      <trkpt lat="38.056072" lon="-1.233757">
        <ele>72.673627</ele>
        <time>2021-10-30T09:40:26.000Z</time>
      </trkpt>
      <trkpt lat="38.056040" lon="-1.233693">
        <ele>72.589242</ele>
        <time>2021-10-30T09:40:27.000Z</time>
      </trkpt>
      <trkpt lat="38.055954" lon="-1.233493">
        <ele>72.335597</ele>
        <time>2021-10-30T09:40:30.000Z</time>
      </trkpt>
      <trkpt lat="38.055704" lon="-1.232811">
        <ele>71.895179</ele>
        <time>2021-10-30T09:40:40.000Z</time>
      </trkpt>
      <trkpt lat="38.055679" lon="-1.232743">
        <ele>71.895065</ele>
        <time>2021-10-30T09:40:41.000Z</time>
      </trkpt>
      <trkpt lat="38.055485" lon="-1.232105">
        <ele>71.894026</ele>
        <time>2021-10-30T09:40:50.000Z</time>
      </trkpt>
      <trkpt lat="38.055398" lon="-1.231821">
        <ele>71.893563</ele>
        <time>2021-10-30T09:40:54.000Z</time>
      </trkpt>
      <trkpt lat="38.055315" lon="-1.231622">
        <ele>71.893221</ele>
        <time>2021-10-30T09:40:57.000Z</time>
      </trkpt>
      <trkpt lat="38.055283" lon="-1.231559">
        <ele>71.893107</ele>
        <time>2021-10-30T09:40:58.000Z</time>
      </trkpt>
      <trkpt lat="38.055174" lon="-1.231385">
        <ele>71.892770</ele>
        <time>2021-10-30T09:41:01.000Z</time>
      </trkpt>
      <trkpt lat="38.055082" lon="-1.231292">
        <ele>71.892543</ele>
        <time>2021-10-30T09:41:03.000Z</time>
      </trkpt>
      <trkpt lat="38.054982" lon="-1.231215">
        <ele>71.892317</ele>
        <time>2021-10-30T09:41:05.000Z</time>
      </trkpt>
      <trkpt lat="38.054811" lon="-1.231132">
        <ele>71.794316</ele>
        <time>2021-10-30T09:41:08.000Z</time>
      </trkpt>
      <trkpt lat="38.054449" lon="-1.231008">
        <ele>71.548097</ele>
        <time>2021-10-30T09:41:14.000Z</time>
      </trkpt>
      <trkpt lat="38.054389" lon="-1.230991">
        <ele>71.507727</ele>
        <time>2021-10-30T09:41:15.000Z</time>
      </trkpt>
      <trkpt lat="38.054124" lon="-1.230903">
        <ele>71.327853</ele>
        <time>2021-10-30T09:41:19.000Z</time>
      </trkpt>
      <trkpt lat="38.054056" lon="-1.230863">
        <ele>71.278640</ele>
        <time>2021-10-30T09:41:20.000Z</time>
      </trkpt>
      <trkpt lat="38.053992" lon="-1.230820">
        <ele>71.231092</ele>
        <time>2021-10-30T09:41:21.000Z</time>
      </trkpt>
      <trkpt lat="38.053875" lon="-1.230724">
        <ele>71.139618</ele>
        <time>2021-10-30T09:41:23.000Z</time>
      </trkpt>
      <trkpt lat="38.053820" lon="-1.230671">
        <ele>71.094279</ele>
        <time>2021-10-30T09:41:24.000Z</time>
      </trkpt>
      <trkpt lat="38.053768" lon="-1.230620">
        <ele>71.051133</ele>
        <time>2021-10-30T09:41:25.000Z</time>
      </trkpt>
      <trkpt lat="38.053429" lon="-1.230290">
        <ele>70.770636</ele>
        <time>2021-10-30T09:41:32.000Z</time>
      </trkpt>
      <trkpt lat="38.053345" lon="-1.230202">
        <ele>70.720268</ele>
        <time>2021-10-30T09:41:34.000Z</time>
      </trkpt>
      <trkpt lat="38.053251" lon="-1.230138">
        <ele>70.773930</ele>
        <time>2021-10-30T09:41:36.000Z</time>
      </trkpt>
      <trkpt lat="38.053200" lon="-1.230109">
        <ele>70.802044</ele>
        <time>2021-10-30T09:41:37.000Z</time>
      </trkpt>
      <trkpt lat="38.053146" lon="-1.230086">
        <ele>70.830700</ele>
        <time>2021-10-30T09:41:38.000Z</time>
      </trkpt>
      <trkpt lat="38.053031" lon="-1.230058">
        <ele>70.889614</ele>
        <time>2021-10-30T09:41:40.000Z</time>
      </trkpt>
      <trkpt lat="38.052973" lon="-1.230053">
        <ele>70.918862</ele>
        <time>2021-10-30T09:41:41.000Z</time>
      </trkpt>
      <trkpt lat="38.052915" lon="-1.230056">
        <ele>70.948068</ele>
        <time>2021-10-30T09:41:42.000Z</time>
      </trkpt>
      <trkpt lat="38.052677" lon="-1.230104">
        <ele>71.069313</ele>
        <time>2021-10-30T09:41:46.000Z</time>
      </trkpt>
      <trkpt lat="38.052555" lon="-1.230146">
        <ele>71.132910</ele>
        <time>2021-10-30T09:41:48.000Z</time>
      </trkpt>
      <trkpt lat="38.052451" lon="-1.230216">
        <ele>71.192130</ele>
        <time>2021-10-30T09:41:50.000Z</time>
      </trkpt>
      <trkpt lat="38.052317" lon="-1.230330">
        <ele>71.273280</ele>
        <time>2021-10-30T09:41:53.000Z</time>
      </trkpt>
      <trkpt lat="38.052278" lon="-1.230370">
        <ele>71.298502</ele>
        <time>2021-10-30T09:41:54.000Z</time>
      </trkpt>
      <trkpt lat="38.052213" lon="-1.230443">
        <ele>71.342159</ele>
        <time>2021-10-30T09:41:56.000Z</time>
      </trkpt>
      <trkpt lat="38.052110" lon="-1.230606">
        <ele>71.424960</ele>
        <time>2021-10-30T09:42:01.000Z</time>
      </trkpt>
      <trkpt lat="38.052027" lon="-1.230745">
        <ele>71.494073</ele>
        <time>2021-10-30T09:42:05.000Z</time>
      </trkpt>
      <trkpt lat="38.052002" lon="-1.230787">
        <ele>71.514932</ele>
        <time>2021-10-30T09:42:06.000Z</time>
      </trkpt>
      <trkpt lat="38.051887" lon="-1.230969">
        <ele>71.607382</ele>
        <time>2021-10-30T09:42:10.000Z</time>
      </trkpt>
      <trkpt lat="38.051835" lon="-1.231067">
        <ele>71.578326</ele>
        <time>2021-10-30T09:42:12.000Z</time>
      </trkpt>
      <trkpt lat="38.051770" lon="-1.231165">
        <ele>71.528147</ele>
        <time>2021-10-30T09:42:14.000Z</time>
      </trkpt>
      <trkpt lat="38.051692" lon="-1.231265">
        <ele>71.473024</ele>
        <time>2021-10-30T09:42:16.000Z</time>
      </trkpt>
      <trkpt lat="38.051566" lon="-1.231497">
        <ele>71.362653</ele>
        <time>2021-10-30T09:42:20.000Z</time>
      </trkpt>
      <trkpt lat="38.051516" lon="-1.231621">
        <ele>71.308095</ele>
        <time>2021-10-30T09:42:22.000Z</time>
      </trkpt>
      <trkpt lat="38.051461" lon="-1.231742">
        <ele>71.253380</ele>
        <time>2021-10-30T09:42:24.000Z</time>
      </trkpt>
      <trkpt lat="38.051369" lon="-1.231919">
        <ele>71.170324</ele>
        <time>2021-10-30T09:42:27.000Z</time>
      </trkpt>
      <trkpt lat="38.051334" lon="-1.231981">
        <ele>71.140448</ele>
        <time>2021-10-30T09:42:28.000Z</time>
      </trkpt>
      <trkpt lat="38.051178" lon="-1.232298">
        <ele>70.994053</ele>
        <time>2021-10-30T09:42:33.000Z</time>
      </trkpt>
      <trkpt lat="38.051126" lon="-1.232425">
        <ele>70.937995</ele>
        <time>2021-10-30T09:42:35.000Z</time>
      </trkpt>
      <trkpt lat="38.050957" lon="-1.232820">
        <ele>70.761943</ele>
        <time>2021-10-30T09:42:41.000Z</time>
      </trkpt>
      <trkpt lat="38.050928" lon="-1.232885">
        <ele>70.732685</ele>
        <time>2021-10-30T09:42:42.000Z</time>
      </trkpt>
      <trkpt lat="38.050867" lon="-1.233049">
        <ele>70.755629</ele>
        <time>2021-10-30T09:42:45.000Z</time>
      </trkpt>
      <trkpt lat="38.050844" lon="-1.233094">
        <ele>70.767598</ele>
        <time>2021-10-30T09:42:46.000Z</time>
      </trkpt>
      <trkpt lat="38.050801" lon="-1.233199">
        <ele>70.794001</ele>
        <time>2021-10-30T09:42:48.000Z</time>
      </trkpt>
      <trkpt lat="38.050740" lon="-1.233382">
        <ele>70.838335</ele>
        <time>2021-10-30T09:42:51.000Z</time>
      </trkpt>
      <trkpt lat="38.050716" lon="-1.233443">
        <ele>70.853548</ele>
        <time>2021-10-30T09:42:52.000Z</time>
      </trkpt>
      <trkpt lat="38.050649" lon="-1.233549">
        <ele>70.883872</ele>
        <time>2021-10-30T09:42:54.000Z</time>
      </trkpt>
      <trkpt lat="38.050605" lon="-1.233586">
        <ele>70.898823</ele>
        <time>2021-10-30T09:42:55.000Z</time>
      </trkpt>
      <trkpt lat="38.050555" lon="-1.233607">
        <ele>70.913743</ele>
        <time>2021-10-30T09:42:56.000Z</time>
      </trkpt>
      <trkpt lat="38.050449" lon="-1.233592">
        <ele>70.943960</ele>
        <time>2021-10-30T09:42:58.000Z</time>
      </trkpt>
      <trkpt lat="38.050399" lon="-1.233565">
        <ele>70.959353</ele>
        <time>2021-10-30T09:42:59.000Z</time>
      </trkpt>
      <trkpt lat="38.050352" lon="-1.233526">
        <ele>70.975259</ele>
        <time>2021-10-30T09:43:00.000Z</time>
      </trkpt>
      <trkpt lat="38.050268" lon="-1.233428">
        <ele>71.007576</ele>
        <time>2021-10-30T09:43:02.000Z</time>
      </trkpt>
      <trkpt lat="38.050191" lon="-1.233316">
        <ele>71.040746</ele>
        <time>2021-10-30T09:43:04.000Z</time>
      </trkpt>
      <trkpt lat="38.050076" lon="-1.233146">
        <ele>71.090745</ele>
        <time>2021-10-30T09:43:07.000Z</time>
      </trkpt>
      <trkpt lat="38.050036" lon="-1.233092">
        <ele>71.107285</ele>
        <time>2021-10-30T09:43:08.000Z</time>
      </trkpt>
      <trkpt lat="38.049995" lon="-1.233039">
        <ele>71.123860</ele>
        <time>2021-10-30T09:43:09.000Z</time>
      </trkpt>
      <trkpt lat="38.049822" lon="-1.232841">
        <ele>71.189841</ele>
        <time>2021-10-30T09:43:13.000Z</time>
      </trkpt>
      <trkpt lat="38.049635" lon="-1.232681">
        <ele>71.259027</ele>
        <time>2021-10-30T09:43:17.000Z</time>
      </trkpt>
      <trkpt lat="38.049333" lon="-1.232440">
        <ele>71.383761</ele>
        <time>2021-10-30T09:43:23.000Z</time>
      </trkpt>
      <trkpt lat="38.049184" lon="-1.232319">
        <ele>71.445612</ele>
        <time>2021-10-30T09:43:26.000Z</time>
      </trkpt>
      <trkpt lat="38.048946" lon="-1.232063">
        <ele>71.554688</ele>
        <time>2021-10-30T09:43:31.000Z</time>
      </trkpt>
      <trkpt lat="38.048901" lon="-1.232008">
        <ele>71.576530</ele>
        <time>2021-10-30T09:43:32.000Z</time>
      </trkpt>
      <trkpt lat="38.048637" lon="-1.231678">
        <ele>71.706077</ele>
        <time>2021-10-30T09:43:38.000Z</time>
      </trkpt>
      <trkpt lat="38.048432" lon="-1.231389">
        <ele>71.813193</ele>
        <time>2021-10-30T09:43:43.000Z</time>
      </trkpt>
      <trkpt lat="38.048266" lon="-1.231083">
        <ele>71.659319</ele>
        <time>2021-10-30T09:43:48.000Z</time>
      </trkpt>
      <trkpt lat="38.048193" lon="-1.230958">
        <ele>71.504065</ele>
        <time>2021-10-30T09:43:50.000Z</time>
      </trkpt>
      <trkpt lat="38.048157" lon="-1.230896">
        <ele>71.427216</ele>
        <time>2021-10-30T09:43:51.000Z</time>
      </trkpt>
      <trkpt lat="38.048121" lon="-1.230834">
        <ele>71.350367</ele>
        <time>2021-10-30T09:43:52.000Z</time>
      </trkpt>
      <trkpt lat="38.047911" lon="-1.230372">
        <ele>70.818189</ele>
        <time>2021-10-30T09:43:59.000Z</time>
      </trkpt>
      <trkpt lat="38.047889" lon="-1.230299">
        <ele>70.740210</ele>
        <time>2021-10-30T09:44:00.000Z</time>
      </trkpt>
      <trkpt lat="38.047872" lon="-1.230145">
        <ele>70.585072</ele>
        <time>2021-10-30T09:44:02.000Z</time>
      </trkpt>
      <trkpt lat="38.047879" lon="-1.230067">
        <ele>70.506752</ele>
        <time>2021-10-30T09:44:03.000Z</time>
      </trkpt>
      <trkpt lat="38.047897" lon="-1.229993">
        <ele>70.429485</ele>
        <time>2021-10-30T09:44:04.000Z</time>
      </trkpt>
      <trkpt lat="38.047983" lon="-1.229784">
        <ele>70.194230</ele>
        <time>2021-10-30T09:44:07.000Z</time>
      </trkpt>
      <trkpt lat="38.048253" lon="-1.229264">
        <ele>69.580758</ele>
        <time>2021-10-30T09:44:15.000Z</time>
      </trkpt>
      <trkpt lat="38.048573" lon="-1.228796">
        <ele>69.528608</ele>
        <time>2021-10-30T09:44:23.000Z</time>
      </trkpt>
      <trkpt lat="38.048899" lon="-1.228439">
        <ele>69.482613</ele>
        <time>2021-10-30T09:44:30.000Z</time>
      </trkpt>
      <trkpt lat="38.049376" lon="-1.228082">
        <ele>69.423454</ele>
        <time>2021-10-30T09:44:39.000Z</time>
      </trkpt>
      <trkpt lat="38.049592" lon="-1.227923">
        <ele>69.396778</ele>
        <time>2021-10-30T09:44:43.000Z</time>
      </trkpt>
      <trkpt lat="38.049750" lon="-1.227785">
        <ele>69.388504</ele>
        <time>2021-10-30T09:44:46.000Z</time>
      </trkpt>
      <trkpt lat="38.050001" lon="-1.227535">
        <ele>69.386398</ele>
        <time>2021-10-30T09:44:51.000Z</time>
      </trkpt>
      <trkpt lat="38.050048" lon="-1.227478">
        <ele>69.385969</ele>
        <time>2021-10-30T09:44:52.000Z</time>
      </trkpt>
      <trkpt lat="38.050090" lon="-1.227416">
        <ele>69.385544</ele>
        <time>2021-10-30T09:44:53.000Z</time>
      </trkpt>
      <trkpt lat="38.050130" lon="-1.227353">
        <ele>69.385124</ele>
        <time>2021-10-30T09:44:54.000Z</time>
      </trkpt>
      <trkpt lat="38.050168" lon="-1.227288">
        <ele>69.384703</ele>
        <time>2021-10-30T09:44:55.000Z</time>
      </trkpt>
      <trkpt lat="38.050203" lon="-1.227221">
        <ele>69.384285</ele>
        <time>2021-10-30T09:44:56.000Z</time>
      </trkpt>
      <trkpt lat="38.050237" lon="-1.227152">
        <ele>69.383862</ele>
        <time>2021-10-30T09:44:57.000Z</time>
      </trkpt>
      <trkpt lat="38.050270" lon="-1.227083">
        <ele>69.383442</ele>
        <time>2021-10-30T09:44:58.000Z</time>
      </trkpt>
      <trkpt lat="38.050301" lon="-1.227012">
        <ele>69.383020</ele>
        <time>2021-10-30T09:44:59.000Z</time>
      </trkpt>
      <trkpt lat="38.050331" lon="-1.226940">
        <ele>69.382597</ele>
        <time>2021-10-30T09:45:00.000Z</time>
      </trkpt>
      <trkpt lat="38.050391" lon="-1.226800">
        <ele>69.381769</ele>
        <time>2021-10-30T09:45:02.000Z</time>
      </trkpt>
      <trkpt lat="38.050442" lon="-1.226666">
        <ele>69.380995</ele>
        <time>2021-10-30T09:45:04.000Z</time>
      </trkpt>
      <trkpt lat="38.050466" lon="-1.226603">
        <ele>69.380631</ele>
        <time>2021-10-30T09:45:05.000Z</time>
      </trkpt>
      <trkpt lat="38.050488" lon="-1.226539">
        <ele>69.380268</ele>
        <time>2021-10-30T09:45:06.000Z</time>
      </trkpt>
      <trkpt lat="38.050500" lon="-1.226475">
        <ele>69.379926</ele>
        <time>2021-10-30T09:45:07.000Z</time>
      </trkpt>
      <trkpt lat="38.050503" lon="-1.226406">
        <ele>69.379567</ele>
        <time>2021-10-30T09:45:08.000Z</time>
      </trkpt>
      <trkpt lat="38.050481" lon="-1.226265">
        <ele>69.378820</ele>
        <time>2021-10-30T09:45:10.000Z</time>
      </trkpt>
      <trkpt lat="38.050413" lon="-1.226148">
        <ele>69.378064</ele>
        <time>2021-10-30T09:45:12.000Z</time>
      </trkpt>
      <trkpt lat="38.050369" lon="-1.226098">
        <ele>69.377675</ele>
        <time>2021-10-30T09:45:13.000Z</time>
      </trkpt>
      <trkpt lat="38.050046" lon="-1.225767">
        <ele>69.396184</ele>
        <time>2021-10-30T09:45:20.000Z</time>
      </trkpt>
      <trkpt lat="38.049967" lon="-1.225692">
        <ele>69.401063</ele>
        <time>2021-10-30T09:45:22.000Z</time>
      </trkpt>
      <trkpt lat="38.049852" lon="-1.225590">
        <ele>69.408002</ele>
        <time>2021-10-30T09:45:25.000Z</time>
      </trkpt>
      <trkpt lat="38.049699" lon="-1.225410">
        <ele>69.418320</ele>
        <time>2021-10-30T09:45:30.000Z</time>
      </trkpt>
      <trkpt lat="38.049627" lon="-1.225305">
        <ele>69.423743</ele>
        <time>2021-10-30T09:45:32.000Z</time>
      </trkpt>
      <trkpt lat="38.049599" lon="-1.225250">
        <ele>69.426294</ele>
        <time>2021-10-30T09:45:33.000Z</time>
      </trkpt>
      <trkpt lat="38.049474" lon="-1.225049">
        <ele>69.436272</ele>
        <time>2021-10-30T09:45:36.000Z</time>
      </trkpt>
      <trkpt lat="38.049188" lon="-1.224514">
        <ele>69.461461</ele>
        <time>2021-10-30T09:45:43.000Z</time>
      </trkpt>
      <trkpt lat="38.049154" lon="-1.224431">
        <ele>69.465106</ele>
        <time>2021-10-30T09:45:44.000Z</time>
      </trkpt>
      <trkpt lat="38.049129" lon="-1.224271">
        <ele>69.438217</ele>
        <time>2021-10-30T09:45:46.000Z</time>
      </trkpt>
      <trkpt lat="38.049129" lon="-1.224190">
        <ele>69.420594</ele>
        <time>2021-10-30T09:45:47.000Z</time>
      </trkpt>
      <trkpt lat="38.049133" lon="-1.224111">
        <ele>69.403370</ele>
        <time>2021-10-30T09:45:48.000Z</time>
      </trkpt>
      <trkpt lat="38.049179" lon="-1.223854">
        <ele>69.346028</ele>
        <time>2021-10-30T09:45:52.000Z</time>
      </trkpt>
      <trkpt lat="38.049312" lon="-1.223401">
        <ele>69.240840</ele>
        <time>2021-10-30T09:45:58.000Z</time>
      </trkpt>
      <trkpt lat="38.049404" lon="-1.222997">
        <ele>69.149339</ele>
        <time>2021-10-30T09:46:03.000Z</time>
      </trkpt>
      <trkpt lat="38.049452" lon="-1.222681">
        <ele>69.079319</ele>
        <time>2021-10-30T09:46:07.000Z</time>
      </trkpt>
      <trkpt lat="38.049517" lon="-1.222273">
        <ele>68.988751</ele>
        <time>2021-10-30T09:46:12.000Z</time>
      </trkpt>
      <trkpt lat="38.049559" lon="-1.222025">
        <ele>69.025247</ele>
        <time>2021-10-30T09:46:15.000Z</time>
      </trkpt>
      <trkpt lat="38.049586" lon="-1.221866">
        <ele>69.080225</ele>
        <time>2021-10-30T09:46:17.000Z</time>
      </trkpt>
      <trkpt lat="38.049595" lon="-1.221788">
        <ele>69.106871</ele>
        <time>2021-10-30T09:46:18.000Z</time>
      </trkpt>
      <trkpt lat="38.049606" lon="-1.221630">
        <ele>69.160484</ele>
        <time>2021-10-30T09:46:20.000Z</time>
      </trkpt>
      <trkpt lat="38.049599" lon="-1.221473">
        <ele>69.213636</ele>
        <time>2021-10-30T09:46:22.000Z</time>
      </trkpt>
      <trkpt lat="38.049588" lon="-1.221399">
        <ele>69.239090</ele>
        <time>2021-10-30T09:46:23.000Z</time>
      </trkpt>
      <trkpt lat="38.049539" lon="-1.221160">
        <ele>69.322566</ele>
        <time>2021-10-30T09:46:26.000Z</time>
      </trkpt>
      <trkpt lat="38.049430" lon="-1.220701">
        <ele>69.484612</ele>
        <time>2021-10-30T09:46:32.000Z</time>
      </trkpt>
      <trkpt lat="38.049359" lon="-1.220403">
        <ele>69.589846</ele>
        <time>2021-10-30T09:46:36.000Z</time>
      </trkpt>
      <trkpt lat="38.049283" lon="-1.220108">
        <ele>69.694759</ele>
        <time>2021-10-30T09:46:40.000Z</time>
      </trkpt>
      <trkpt lat="38.049154" lon="-1.219575">
        <ele>69.723183</ele>
        <time>2021-10-30T09:46:47.000Z</time>
      </trkpt>
      <trkpt lat="38.049129" lon="-1.219503">
        <ele>69.719749</ele>
        <time>2021-10-30T09:46:48.000Z</time>
      </trkpt>
      <trkpt lat="38.049082" lon="-1.219359">
        <ele>69.712945</ele>
        <time>2021-10-30T09:46:50.000Z</time>
      </trkpt>
      <trkpt lat="38.048941" lon="-1.219015">
        <ele>69.696017</ele>
        <time>2021-10-30T09:46:55.000Z</time>
      </trkpt>
      <trkpt lat="38.048912" lon="-1.218952">
        <ele>69.692832</ele>
        <time>2021-10-30T09:46:56.000Z</time>
      </trkpt>
      <trkpt lat="38.048885" lon="-1.218892">
        <ele>69.689816</ele>
        <time>2021-10-30T09:46:57.000Z</time>
      </trkpt>
      <trkpt lat="38.048858" lon="-1.218837">
        <ele>69.686987</ele>
        <time>2021-10-30T09:46:58.000Z</time>
      </trkpt>
      <trkpt lat="38.048811" lon="-1.218728">
        <ele>69.681562</ele>
        <time>2021-10-30T09:47:00.000Z</time>
      </trkpt>
      <trkpt lat="38.048788" lon="-1.218671">
        <ele>69.678767</ele>
        <time>2021-10-30T09:47:01.000Z</time>
      </trkpt>
      <trkpt lat="38.048747" lon="-1.218552">
        <ele>69.673097</ele>
        <time>2021-10-30T09:47:03.000Z</time>
      </trkpt>
      <trkpt lat="38.048695" lon="-1.218377">
        <ele>69.664933</ele>
        <time>2021-10-30T09:47:06.000Z</time>
      </trkpt>
      <trkpt lat="38.048668" lon="-1.218319">
        <ele>69.661992</ele>
        <time>2021-10-30T09:47:07.000Z</time>
      </trkpt>
      <trkpt lat="38.048641" lon="-1.218260">
        <ele>69.659013</ele>
        <time>2021-10-30T09:47:08.000Z</time>
      </trkpt>
      <trkpt lat="38.048602" lon="-1.218134">
        <ele>69.653104</ele>
        <time>2021-10-30T09:47:10.000Z</time>
      </trkpt>
      <trkpt lat="38.048575" lon="-1.218002">
        <ele>69.647151</ele>
        <time>2021-10-30T09:47:12.000Z</time>
      </trkpt>
      <trkpt lat="38.048498" lon="-1.217443">
        <ele>69.592779</ele>
        <time>2021-10-30T09:47:20.000Z</time>
      </trkpt>
      <trkpt lat="38.048489" lon="-1.217312">
        <ele>69.578287</ele>
        <time>2021-10-30T09:47:22.000Z</time>
      </trkpt>
      <trkpt lat="38.048449" lon="-1.217064">
        <ele>69.550387</ele>
        <time>2021-10-30T09:47:26.000Z</time>
      </trkpt>
      <trkpt lat="38.048430" lon="-1.216798">
        <ele>69.520950</ele>
        <time>2021-10-30T09:47:30.000Z</time>
      </trkpt>
      <trkpt lat="38.048427" lon="-1.216659">
        <ele>69.505624</ele>
        <time>2021-10-30T09:47:32.000Z</time>
      </trkpt>
      <trkpt lat="38.048422" lon="-1.216589">
        <ele>69.497878</ele>
        <time>2021-10-30T09:47:33.000Z</time>
      </trkpt>
      <trkpt lat="38.048412" lon="-1.216449">
        <ele>69.482385</ele>
        <time>2021-10-30T09:47:35.000Z</time>
      </trkpt>
      <trkpt lat="38.048368" lon="-1.215974">
        <ele>69.429673</ele>
        <time>2021-10-30T09:47:42.000Z</time>
      </trkpt>
      <trkpt lat="38.048355" lon="-1.215840">
        <ele>69.414793</ele>
        <time>2021-10-30T09:47:44.000Z</time>
      </trkpt>
      <trkpt lat="38.048343" lon="-1.215694">
        <ele>69.398614</ele>
        <time>2021-10-30T09:47:46.000Z</time>
      </trkpt>
      <trkpt lat="38.048308" lon="-1.215406">
        <ele>69.319521</ele>
        <time>2021-10-30T09:47:50.000Z</time>
      </trkpt>
      <trkpt lat="38.048250" lon="-1.215073">
        <ele>69.207008</ele>
        <time>2021-10-30T09:47:55.000Z</time>
      </trkpt>
      <trkpt lat="38.048236" lon="-1.215005">
        <ele>69.183820</ele>
        <time>2021-10-30T09:47:56.000Z</time>
      </trkpt>
      <trkpt lat="38.048127" lon="-1.214595">
        <ele>69.041059</ele>
        <time>2021-10-30T09:48:02.000Z</time>
      </trkpt>
      <trkpt lat="38.047979" lon="-1.214104">
        <ele>68.867615</ele>
        <time>2021-10-30T09:48:09.000Z</time>
      </trkpt>
      <trkpt lat="38.047912" lon="-1.213899">
        <ele>68.794391</ele>
        <time>2021-10-30T09:48:12.000Z</time>
      </trkpt>
      <trkpt lat="38.047892" lon="-1.213831">
        <ele>68.770444</ele>
        <time>2021-10-30T09:48:13.000Z</time>
      </trkpt>
      <trkpt lat="38.047870" lon="-1.213761">
        <ele>68.745579</ele>
        <time>2021-10-30T09:48:14.000Z</time>
      </trkpt>
      <trkpt lat="38.047803" lon="-1.213555">
        <ele>68.672050</ele>
        <time>2021-10-30T09:48:17.000Z</time>
      </trkpt>
      <trkpt lat="38.047753" lon="-1.213425">
        <ele>68.638055</ele>
        <time>2021-10-30T09:48:19.000Z</time>
      </trkpt>
      <trkpt lat="38.047640" lon="-1.213155">
        <ele>68.650402</ele>
        <time>2021-10-30T09:48:24.000Z</time>
      </trkpt>
      <trkpt lat="38.047614" lon="-1.213106">
        <ele>68.652788</ele>
        <time>2021-10-30T09:48:25.000Z</time>
      </trkpt>
      <trkpt lat="38.047583" lon="-1.213059">
        <ele>68.655264</ele>
        <time>2021-10-30T09:48:26.000Z</time>
      </trkpt>
      <trkpt lat="38.047509" lon="-1.212981">
        <ele>68.660196</ele>
        <time>2021-10-30T09:48:28.000Z</time>
      </trkpt>
      <trkpt lat="38.047467" lon="-1.212949">
        <ele>68.662708</ele>
        <time>2021-10-30T09:48:29.000Z</time>
      </trkpt>
      <trkpt lat="38.047371" lon="-1.212904">
        <ele>68.667955</ele>
        <time>2021-10-30T09:48:31.000Z</time>
      </trkpt>
      <trkpt lat="38.047270" lon="-1.212888">
        <ele>68.673175</ele>
        <time>2021-10-30T09:48:33.000Z</time>
      </trkpt>
      <trkpt lat="38.047066" lon="-1.212886">
        <ele>68.683636</ele>
        <time>2021-10-30T09:48:37.000Z</time>
      </trkpt>
      <trkpt lat="38.047019" lon="-1.212893">
        <ele>68.686063</ele>
        <time>2021-10-30T09:48:38.000Z</time>
      </trkpt>
      <trkpt lat="38.046945" lon="-1.212917">
        <ele>68.689980</ele>
        <time>2021-10-30T09:48:40.000Z</time>
      </trkpt>
      <trkpt lat="38.046893" lon="-1.212951">
        <ele>68.692979</ele>
        <time>2021-10-30T09:48:42.000Z</time>
      </trkpt>
      <trkpt lat="38.046859" lon="-1.212978">
        <ele>68.695036</ele>
        <time>2021-10-30T09:48:43.000Z</time>
      </trkpt>
      <trkpt lat="38.046814" lon="-1.213007">
        <ele>68.697623</ele>
        <time>2021-10-30T09:48:44.000Z</time>
      </trkpt>
      <trkpt lat="38.046755" lon="-1.213026">
        <ele>68.700745</ele>
        <time>2021-10-30T09:48:45.000Z</time>
      </trkpt>
      <trkpt lat="38.046700" lon="-1.213028">
        <ele>68.703566</ele>
        <time>2021-10-30T09:48:46.000Z</time>
      </trkpt>
      <trkpt lat="38.046640" lon="-1.213029">
        <ele>68.706643</ele>
        <time>2021-10-30T09:48:48.000Z</time>
      </trkpt>
      <trkpt lat="38.046595" lon="-1.213005">
        <ele>68.709146</ele>
        <time>2021-10-30T09:48:52.000Z</time>
      </trkpt>
      <trkpt lat="38.046575" lon="-1.213000">
        <ele>68.710192</ele>
        <time>2021-10-30T09:48:53.000Z</time>
      </trkpt>
      <trkpt lat="38.046502" lon="-1.212985">
        <ele>68.713984</ele>
        <time>2021-10-30T09:48:55.000Z</time>
      </trkpt>
      <trkpt lat="38.046410" lon="-1.212986">
        <ele>68.718702</ele>
        <time>2021-10-30T09:48:57.000Z</time>
      </trkpt>
      <trkpt lat="38.046318" lon="-1.213011">
        <ele>68.723527</ele>
        <time>2021-10-30T09:48:59.000Z</time>
      </trkpt>
      <trkpt lat="38.046162" lon="-1.213032">
        <ele>68.721275</ele>
        <time>2021-10-30T09:49:02.000Z</time>
      </trkpt>
      <trkpt lat="38.046016" lon="-1.213051">
        <ele>68.700910</ele>
        <time>2021-10-30T09:49:05.000Z</time>
      </trkpt>
      <trkpt lat="38.045697" lon="-1.213069">
        <ele>68.656602</ele>
        <time>2021-10-30T09:49:11.000Z</time>
      </trkpt>
      <trkpt lat="38.045643" lon="-1.213073">
        <ele>68.649096</ele>
        <time>2021-10-30T09:49:12.000Z</time>
      </trkpt>
      <trkpt lat="38.045588" lon="-1.213076">
        <ele>68.641457</ele>
        <time>2021-10-30T09:49:13.000Z</time>
      </trkpt>
      <trkpt lat="38.045532" lon="-1.213079">
        <ele>68.633680</ele>
        <time>2021-10-30T09:49:14.000Z</time>
      </trkpt>
      <trkpt lat="38.045248" lon="-1.213118">
        <ele>68.594042</ele>
        <time>2021-10-30T09:49:19.000Z</time>
      </trkpt>
      <trkpt lat="38.045135" lon="-1.213143">
        <ele>68.578126</ele>
        <time>2021-10-30T09:49:21.000Z</time>
      </trkpt>
      <trkpt lat="38.045021" lon="-1.213173">
        <ele>68.561972</ele>
        <time>2021-10-30T09:49:23.000Z</time>
      </trkpt>
      <trkpt lat="38.044845" lon="-1.213223">
        <ele>68.536946</ele>
        <time>2021-10-30T09:49:26.000Z</time>
      </trkpt>
      <trkpt lat="38.044688" lon="-1.213286">
        <ele>68.514099</ele>
        <time>2021-10-30T09:49:29.000Z</time>
      </trkpt>
      <trkpt lat="38.044589" lon="-1.213322">
        <ele>68.499810</ele>
        <time>2021-10-30T09:49:31.000Z</time>
      </trkpt>
      <trkpt lat="38.044473" lon="-1.213373">
        <ele>68.482776</ele>
        <time>2021-10-30T09:49:34.000Z</time>
      </trkpt>
      <trkpt lat="38.044456" lon="-1.213376">
        <ele>68.480394</ele>
        <time>2021-10-30T09:49:35.000Z</time>
      </trkpt>
      <trkpt lat="38.044416" lon="-1.213350">
        <ele>68.479597</ele>
        <time>2021-10-30T09:49:38.000Z</time>
      </trkpt>
      <trkpt lat="38.044326" lon="-1.213303">
        <ele>68.480621</ele>
        <time>2021-10-30T09:49:42.000Z</time>
      </trkpt>
      <trkpt lat="38.044300" lon="-1.213315">
        <ele>68.480912</ele>
        <time>2021-10-30T09:49:43.000Z</time>
      </trkpt>
      <trkpt lat="38.044225" lon="-1.213463">
        <ele>68.482371</ele>
        <time>2021-10-30T09:49:47.000Z</time>
      </trkpt>
      <trkpt lat="38.044085" lon="-1.213607">
        <ele>68.484267</ele>
        <time>2021-10-30T09:49:52.000Z</time>
      </trkpt>
      <trkpt lat="38.043965" lon="-1.213655">
        <ele>68.485590</ele>
        <time>2021-10-30T09:49:55.000Z</time>
      </trkpt>
      <trkpt lat="38.043870" lon="-1.213694">
        <ele>68.486641</ele>
        <time>2021-10-30T09:49:57.000Z</time>
      </trkpt>
      <trkpt lat="38.043584" lon="-1.213889">
        <ele>68.490057</ele>
        <time>2021-10-30T09:50:03.000Z</time>
      </trkpt>
      <trkpt lat="38.043340" lon="-1.214065">
        <ele>68.493009</ele>
        <time>2021-10-30T09:50:08.000Z</time>
      </trkpt>
      <trkpt lat="38.043098" lon="-1.214250">
        <ele>68.495981</ele>
        <time>2021-10-30T09:50:13.000Z</time>
      </trkpt>
      <trkpt lat="38.042959" lon="-1.214378">
        <ele>68.497788</ele>
        <time>2021-10-30T09:50:16.000Z</time>
      </trkpt>
      <trkpt lat="38.042740" lon="-1.214604">
        <ele>68.774138</ele>
        <time>2021-10-30T09:50:21.000Z</time>
      </trkpt>
      <trkpt lat="38.042526" lon="-1.214836">
        <ele>69.086266</ele>
        <time>2021-10-30T09:50:26.000Z</time>
      </trkpt>
      <trkpt lat="38.042448" lon="-1.214936">
        <ele>69.209218</ele>
        <time>2021-10-30T09:50:28.000Z</time>
      </trkpt>
      <trkpt lat="38.042373" lon="-1.215042">
        <ele>69.333700</ele>
        <time>2021-10-30T09:50:30.000Z</time>
      </trkpt>
      <trkpt lat="38.042172" lon="-1.215305">
        <ele>69.653851</ele>
        <time>2021-10-30T09:50:35.000Z</time>
      </trkpt>
      <trkpt lat="38.042137" lon="-1.215363">
        <ele>69.717683</ele>
        <time>2021-10-30T09:50:36.000Z</time>
      </trkpt>
      <trkpt lat="38.042059" lon="-1.215468">
        <ele>69.843777</ele>
        <time>2021-10-30T09:50:38.000Z</time>
      </trkpt>
      <trkpt lat="38.041903" lon="-1.215670">
        <ele>70.090927</ele>
        <time>2021-10-30T09:50:42.000Z</time>
      </trkpt>
      <trkpt lat="38.041624" lon="-1.216031">
        <ele>70.467918</ele>
        <time>2021-10-30T09:50:49.000Z</time>
      </trkpt>
      <trkpt lat="38.041546" lon="-1.216136">
        <ele>70.387039</ele>
        <time>2021-10-30T09:50:51.000Z</time>
      </trkpt>
      <trkpt lat="38.041307" lon="-1.216447">
        <ele>70.143554</ele>
        <time>2021-10-30T09:50:57.000Z</time>
      </trkpt>
      <trkpt lat="38.041229" lon="-1.216556">
        <ele>70.061030</ele>
        <time>2021-10-30T09:50:59.000Z</time>
      </trkpt>
      <trkpt lat="38.041066" lon="-1.216859">
        <ele>69.855417</ele>
        <time>2021-10-30T09:51:04.000Z</time>
      </trkpt>
      <trkpt lat="38.040868" lon="-1.217300">
        <ele>69.570969</ele>
        <time>2021-10-30T09:51:11.000Z</time>
      </trkpt>
      <trkpt lat="38.040777" lon="-1.217573">
        <ele>69.404856</ele>
        <time>2021-10-30T09:51:15.000Z</time>
      </trkpt>
      <trkpt lat="38.040676" lon="-1.217923">
        <ele>69.168792</ele>
        <time>2021-10-30T09:51:20.000Z</time>
      </trkpt>
      <trkpt lat="38.040571" lon="-1.218429">
        <ele>68.421691</ele>
        <time>2021-10-30T09:51:27.000Z</time>
      </trkpt>
      <trkpt lat="38.040549" lon="-1.218574">
        <ele>68.210859</ele>
        <time>2021-10-30T09:51:29.000Z</time>
      </trkpt>
      <trkpt lat="38.040493" lon="-1.219008">
        <ele>67.582951</ele>
        <time>2021-10-30T09:51:35.000Z</time>
      </trkpt>
      <trkpt lat="38.040475" lon="-1.219162">
        <ele>67.360667</ele>
        <time>2021-10-30T09:51:37.000Z</time>
      </trkpt>
      <trkpt lat="38.040367" lon="-1.219770">
        <ele>66.470783</ele>
        <time>2021-10-30T09:51:45.000Z</time>
      </trkpt>
      <trkpt lat="38.040341" lon="-1.219838">
        <ele>66.362859</ele>
        <time>2021-10-30T09:51:46.000Z</time>
      </trkpt>
      <trkpt lat="38.040212" lon="-1.220090">
        <ele>65.952559</ele>
        <time>2021-10-30T09:51:50.000Z</time>
      </trkpt>
      <trkpt lat="38.039899" lon="-1.220657">
        <ele>65.936477</ele>
        <time>2021-10-30T09:51:59.000Z</time>
      </trkpt>
      <trkpt lat="38.039863" lon="-1.220720">
        <ele>65.934669</ele>
        <time>2021-10-30T09:52:00.000Z</time>
      </trkpt>
      <trkpt lat="38.039722" lon="-1.220982">
        <ele>65.927299</ele>
        <time>2021-10-30T09:52:04.000Z</time>
      </trkpt>
      <trkpt lat="38.039490" lon="-1.221341">
        <ele>65.916514</ele>
        <time>2021-10-30T09:52:10.000Z</time>
      </trkpt>
      <trkpt lat="38.039137" lon="-1.221860">
        <ele>65.900587</ele>
        <time>2021-10-30T09:52:19.000Z</time>
      </trkpt>
      <trkpt lat="38.038997" lon="-1.222115">
        <ele>66.286399</ele>
        <time>2021-10-30T09:52:23.000Z</time>
      </trkpt>
      <trkpt lat="38.038886" lon="-1.222305">
        <ele>66.615122</ele>
        <time>2021-10-30T09:52:26.000Z</time>
      </trkpt>
      <trkpt lat="38.038666" lon="-1.222691">
        <ele>67.277209</ele>
        <time>2021-10-30T09:52:32.000Z</time>
      </trkpt>
      <trkpt lat="38.038596" lon="-1.222822">
        <ele>67.497185</ele>
        <time>2021-10-30T09:52:34.000Z</time>
      </trkpt>
      <trkpt lat="38.038488" lon="-1.223010">
        <ele>67.820535</ele>
        <time>2021-10-30T09:52:37.000Z</time>
      </trkpt>
      <trkpt lat="38.038406" lon="-1.223129">
        <ele>68.040250</ele>
        <time>2021-10-30T09:52:39.000Z</time>
      </trkpt>
      <trkpt lat="38.038363" lon="-1.223183">
        <ele>68.146956</ele>
        <time>2021-10-30T09:52:40.000Z</time>
      </trkpt>
      <trkpt lat="38.038075" lon="-1.223439">
        <ele>68.767228</ele>
        <time>2021-10-30T09:52:46.000Z</time>
      </trkpt>
      <trkpt lat="38.037679" lon="-1.223573">
        <ele>68.861487</ele>
        <time>2021-10-30T09:52:53.000Z</time>
      </trkpt>
      <trkpt lat="38.037322" lon="-1.223611">
        <ele>68.540600</ele>
        <time>2021-10-30T09:52:59.000Z</time>
      </trkpt>
      <trkpt lat="38.037259" lon="-1.223597">
        <ele>68.483313</ele>
        <time>2021-10-30T09:53:00.000Z</time>
      </trkpt>
      <trkpt lat="38.037010" lon="-1.223503">
        <ele>68.250633</ele>
        <time>2021-10-30T09:53:04.000Z</time>
      </trkpt>
      <trkpt lat="38.036646" lon="-1.223372">
        <ele>67.911753</ele>
        <time>2021-10-30T09:53:10.000Z</time>
      </trkpt>
      <trkpt lat="38.036527" lon="-1.223333">
        <ele>67.801670</ele>
        <time>2021-10-30T09:53:12.000Z</time>
      </trkpt>
      <trkpt lat="38.036287" lon="-1.223259">
        <ele>67.580454</ele>
        <time>2021-10-30T09:53:16.000Z</time>
      </trkpt>
      <trkpt lat="38.036048" lon="-1.223194">
        <ele>67.394567</ele>
        <time>2021-10-30T09:53:20.000Z</time>
      </trkpt>
      <trkpt lat="38.035990" lon="-1.223180">
        <ele>67.359046</ele>
        <time>2021-10-30T09:53:21.000Z</time>
      </trkpt>
      <trkpt lat="38.035872" lon="-1.223163">
        <ele>67.287596</ele>
        <time>2021-10-30T09:53:23.000Z</time>
      </trkpt>
      <trkpt lat="38.035691" lon="-1.223171">
        <ele>67.178632</ele>
        <time>2021-10-30T09:53:26.000Z</time>
      </trkpt>
      <trkpt lat="38.035572" lon="-1.223197">
        <ele>67.105984</ele>
        <time>2021-10-30T09:53:28.000Z</time>
      </trkpt>
      <trkpt lat="38.035454" lon="-1.223227">
        <ele>67.033580</ele>
        <time>2021-10-30T09:53:30.000Z</time>
      </trkpt>
      <trkpt lat="38.035333" lon="-1.223268">
        <ele>66.958233</ele>
        <time>2021-10-30T09:53:32.000Z</time>
      </trkpt>
      <trkpt lat="38.035274" lon="-1.223281">
        <ele>66.922205</ele>
        <time>2021-10-30T09:53:33.000Z</time>
      </trkpt>
      <trkpt lat="38.035032" lon="-1.223290">
        <ele>66.776544</ele>
        <time>2021-10-30T09:53:37.000Z</time>
      </trkpt>
      <trkpt lat="38.034674" lon="-1.223235">
        <ele>66.559583</ele>
        <time>2021-10-30T09:53:43.000Z</time>
      </trkpt>
      <trkpt lat="38.034495" lon="-1.223202">
        <ele>66.450758</ele>
        <time>2021-10-30T09:53:46.000Z</time>
      </trkpt>
      <trkpt lat="38.034372" lon="-1.223181">
        <ele>66.383091</ele>
        <time>2021-10-30T09:53:48.000Z</time>
      </trkpt>
      <trkpt lat="38.033896" lon="-1.223096">
        <ele>66.608544</ele>
        <time>2021-10-30T09:53:56.000Z</time>
      </trkpt>
      <trkpt lat="38.033785" lon="-1.223058">
        <ele>66.662466</ele>
        <time>2021-10-30T09:53:58.000Z</time>
      </trkpt>
      <trkpt lat="38.033688" lon="-1.222989">
        <ele>66.714615</ele>
        <time>2021-10-30T09:54:00.000Z</time>
      </trkpt>
      <trkpt lat="38.033619" lon="-1.222883">
        <ele>66.765417</ele>
        <time>2021-10-30T09:54:02.000Z</time>
      </trkpt>
      <trkpt lat="38.033603" lon="-1.222814">
        <ele>66.791989</ele>
        <time>2021-10-30T09:54:03.000Z</time>
      </trkpt>
      <trkpt lat="38.033599" lon="-1.222741">
        <ele>66.819022</ele>
        <time>2021-10-30T09:54:04.000Z</time>
      </trkpt>
      <trkpt lat="38.033604" lon="-1.222514">
        <ele>66.902915</ele>
        <time>2021-10-30T09:54:07.000Z</time>
      </trkpt>
      <trkpt lat="38.033613" lon="-1.222045">
        <ele>67.076228</ele>
        <time>2021-10-30T09:54:13.000Z</time>
      </trkpt>
      <trkpt lat="38.033615" lon="-1.221965">
        <ele>67.105797</ele>
        <time>2021-10-30T09:54:14.000Z</time>
      </trkpt>
      <trkpt lat="38.033654" lon="-1.221577">
        <ele>67.259332</ele>
        <time>2021-10-30T09:54:19.000Z</time>
      </trkpt>
      <trkpt lat="38.033689" lon="-1.221425">
        <ele>67.337656</ele>
        <time>2021-10-30T09:54:21.000Z</time>
      </trkpt>
      <trkpt lat="38.033707" lon="-1.221349">
        <ele>67.376907</ele>
        <time>2021-10-30T09:54:22.000Z</time>
      </trkpt>
      <trkpt lat="38.033850" lon="-1.220928">
        <ele>67.603666</ele>
        <time>2021-10-30T09:54:28.000Z</time>
      </trkpt>
      <trkpt lat="38.033902" lon="-1.220789">
        <ele>67.679774</ele>
        <time>2021-10-30T09:54:30.000Z</time>
      </trkpt>
      <trkpt lat="38.034062" lon="-1.220461">
        <ele>67.870590</ele>
        <time>2021-10-30T09:54:35.000Z</time>
      </trkpt>
      <trkpt lat="38.034159" lon="-1.220272">
        <ele>67.982160</ele>
        <time>2021-10-30T09:54:38.000Z</time>
      </trkpt>
      <trkpt lat="38.034355" lon="-1.219896">
        <ele>68.205162</ele>
        <time>2021-10-30T09:54:44.000Z</time>
      </trkpt>
      <trkpt lat="38.034580" lon="-1.219376">
        <ele>68.177935</ele>
        <time>2021-10-30T09:54:52.000Z</time>
      </trkpt>
      <trkpt lat="38.034786" lon="-1.218755">
        <ele>67.776934</ele>
        <time>2021-10-30T09:55:01.000Z</time>
      </trkpt>
      <trkpt lat="38.034956" lon="-1.218167">
        <ele>67.404181</ele>
        <time>2021-10-30T09:55:09.000Z</time>
      </trkpt>
      <trkpt lat="38.035010" lon="-1.218029">
        <ele>67.312480</ele>
        <time>2021-10-30T09:55:11.000Z</time>
      </trkpt>
      <trkpt lat="38.035036" lon="-1.217957">
        <ele>67.265343</ele>
        <time>2021-10-30T09:55:12.000Z</time>
      </trkpt>
      <trkpt lat="38.035118" lon="-1.217671">
        <ele>67.084217</ele>
        <time>2021-10-30T09:55:16.000Z</time>
      </trkpt>
      <trkpt lat="38.035159" lon="-1.217456">
        <ele>66.927920</ele>
        <time>2021-10-30T09:55:19.000Z</time>
      </trkpt>
      <trkpt lat="38.035146" lon="-1.217320">
        <ele>66.797958</ele>
        <time>2021-10-30T09:55:21.000Z</time>
      </trkpt>
      <trkpt lat="38.035024" lon="-1.217105">
        <ele>66.546584</ele>
        <time>2021-10-30T09:55:25.000Z</time>
      </trkpt>
      <trkpt lat="38.034750" lon="-1.216741">
        <ele>66.068942</ele>
        <time>2021-10-30T09:55:32.000Z</time>
      </trkpt>
      <trkpt lat="38.034595" lon="-1.216534">
        <ele>65.797996</ele>
        <time>2021-10-30T09:55:36.000Z</time>
      </trkpt>
      <trkpt lat="38.034446" lon="-1.216322">
        <ele>65.528457</ele>
        <time>2021-10-30T09:55:40.000Z</time>
      </trkpt>
      <trkpt lat="38.034243" lon="-1.216068">
        <ele>65.185181</ele>
        <time>2021-10-30T09:55:45.000Z</time>
      </trkpt>
      <trkpt lat="38.034119" lon="-1.215918">
        <ele>64.978897</ele>
        <time>2021-10-30T09:55:48.000Z</time>
      </trkpt>
      <trkpt lat="38.034076" lon="-1.215868">
        <ele>64.908669</ele>
        <time>2021-10-30T09:55:49.000Z</time>
      </trkpt>
      <trkpt lat="38.033808" lon="-1.215609">
        <ele>64.763666</ele>
        <time>2021-10-30T09:55:55.000Z</time>
      </trkpt>
      <trkpt lat="38.033466" lon="-1.215332">
        <ele>64.667233</ele>
        <time>2021-10-30T09:56:02.000Z</time>
      </trkpt>
      <trkpt lat="38.033414" lon="-1.215303">
        <ele>64.653732</ele>
        <time>2021-10-30T09:56:03.000Z</time>
      </trkpt>
      <trkpt lat="38.033252" lon="-1.215222">
        <ele>64.612344</ele>
        <time>2021-10-30T09:56:06.000Z</time>
      </trkpt>
      <trkpt lat="38.033135" lon="-1.215185">
        <ele>64.583682</ele>
        <time>2021-10-30T09:56:08.000Z</time>
      </trkpt>
      <trkpt lat="38.033079" lon="-1.215162">
        <ele>64.569691</ele>
        <time>2021-10-30T09:56:09.000Z</time>
      </trkpt>
      <trkpt lat="38.032681" lon="-1.214976">
        <ele>64.468875</ele>
        <time>2021-10-30T09:56:16.000Z</time>
      </trkpt>
      <trkpt lat="38.032460" lon="-1.214885">
        <ele>64.413646</ele>
        <time>2021-10-30T09:56:20.000Z</time>
      </trkpt>
      <trkpt lat="38.032298" lon="-1.214813">
        <ele>64.407172</ele>
        <time>2021-10-30T09:56:23.000Z</time>
      </trkpt>
      <trkpt lat="38.032246" lon="-1.214786">
        <ele>64.410575</ele>
        <time>2021-10-30T09:56:24.000Z</time>
      </trkpt>
      <trkpt lat="38.032192" lon="-1.214764">
        <ele>64.414011</ele>
        <time>2021-10-30T09:56:25.000Z</time>
      </trkpt>
      <trkpt lat="38.031913" lon="-1.214701">
        <ele>64.431179</ele>
        <time>2021-10-30T09:56:30.000Z</time>
      </trkpt>
      <trkpt lat="38.031686" lon="-1.214681">
        <ele>64.444964</ele>
        <time>2021-10-30T09:56:34.000Z</time>
      </trkpt>
      <trkpt lat="38.031574" lon="-1.214725">
        <ele>64.452066</ele>
        <time>2021-10-30T09:56:36.000Z</time>
      </trkpt>
      <trkpt lat="38.031473" lon="-1.214790">
        <ele>64.458926</ele>
        <time>2021-10-30T09:56:38.000Z</time>
      </trkpt>
      <trkpt lat="38.031346" lon="-1.214914">
        <ele>64.468633</ele>
        <time>2021-10-30T09:56:41.000Z</time>
      </trkpt>
      <trkpt lat="38.031272" lon="-1.214999">
        <ele>64.474678</ele>
        <time>2021-10-30T09:56:43.000Z</time>
      </trkpt>
      <trkpt lat="38.031072" lon="-1.215236">
        <ele>64.491253</ele>
        <time>2021-10-30T09:56:48.000Z</time>
      </trkpt>
      <trkpt lat="38.030959" lon="-1.215409">
        <ele>64.501977</ele>
        <time>2021-10-30T09:56:51.000Z</time>
      </trkpt>
      <trkpt lat="38.030928" lon="-1.215471">
        <ele>64.505482</ele>
        <time>2021-10-30T09:56:52.000Z</time>
      </trkpt>
      <trkpt lat="38.030900" lon="-1.215533">
        <ele>64.508892</ele>
        <time>2021-10-30T09:56:53.000Z</time>
      </trkpt>
      <trkpt lat="38.030800" lon="-1.215718">
        <ele>64.466410</ele>
        <time>2021-10-30T09:56:56.000Z</time>
      </trkpt>
      <trkpt lat="38.030763" lon="-1.215776">
        <ele>64.451814</ele>
        <time>2021-10-30T09:56:57.000Z</time>
      </trkpt>
      <trkpt lat="38.030655" lon="-1.215953">
        <ele>64.408030</ele>
        <time>2021-10-30T09:57:00.000Z</time>
      </trkpt>
      <trkpt lat="38.030581" lon="-1.216072">
        <ele>64.378380</ele>
        <time>2021-10-30T09:57:02.000Z</time>
      </trkpt>
      <trkpt lat="38.030470" lon="-1.216240">
        <ele>64.335499</ele>
        <time>2021-10-30T09:57:05.000Z</time>
      </trkpt>
      <trkpt lat="38.030436" lon="-1.216298">
        <ele>64.321360</ele>
        <time>2021-10-30T09:57:06.000Z</time>
      </trkpt>
      <trkpt lat="38.030222" lon="-1.216635">
        <ele>64.236707</ele>
        <time>2021-10-30T09:57:12.000Z</time>
      </trkpt>
      <trkpt lat="38.030187" lon="-1.216691">
        <ele>64.222727</ele>
        <time>2021-10-30T09:57:13.000Z</time>
      </trkpt>
      <trkpt lat="38.030155" lon="-1.216749">
        <ele>64.208879</ele>
        <time>2021-10-30T09:57:14.000Z</time>
      </trkpt>
      <trkpt lat="38.030125" lon="-1.216807">
        <ele>64.195310</ele>
        <time>2021-10-30T09:57:15.000Z</time>
      </trkpt>
      <trkpt lat="38.030096" lon="-1.216865">
        <ele>64.181875</ele>
        <time>2021-10-30T09:57:16.000Z</time>
      </trkpt>
      <trkpt lat="38.030071" lon="-1.216925">
        <ele>64.168601</ele>
        <time>2021-10-30T09:57:17.000Z</time>
      </trkpt>
      <trkpt lat="38.029972" lon="-1.217176">
        <ele>64.113705</ele>
        <time>2021-10-30T09:57:21.000Z</time>
      </trkpt>
      <trkpt lat="38.029845" lon="-1.217570">
        <ele>64.036050</ele>
        <time>2021-10-30T09:57:27.000Z</time>
      </trkpt>
      <trkpt lat="38.029812" lon="-1.217704">
        <ele>64.013373</ele>
        <time>2021-10-30T09:57:29.000Z</time>
      </trkpt>
      <trkpt lat="38.029750" lon="-1.217974">
        <ele>63.967946</ele>
        <time>2021-10-30T09:57:33.000Z</time>
      </trkpt>
      <trkpt lat="38.029705" lon="-1.218187">
        <ele>63.932326</ele>
        <time>2021-10-30T09:57:36.000Z</time>
      </trkpt>
      <trkpt lat="38.029670" lon="-1.218327">
        <ele>63.908601</ele>
        <time>2021-10-30T09:57:38.000Z</time>
      </trkpt>
      <trkpt lat="38.029629" lon="-1.218459">
        <ele>63.885682</ele>
        <time>2021-10-30T09:57:40.000Z</time>
      </trkpt>
      <trkpt lat="38.029606" lon="-1.218520">
        <ele>63.874758</ele>
        <time>2021-10-30T09:57:41.000Z</time>
      </trkpt>
      <trkpt lat="38.029577" lon="-1.218576">
        <ele>63.863933</ele>
        <time>2021-10-30T09:57:42.000Z</time>
      </trkpt>
      <trkpt lat="38.029540" lon="-1.218617">
        <ele>63.853862</ele>
        <time>2021-10-30T09:57:43.000Z</time>
      </trkpt>
      <trkpt lat="38.029494" lon="-1.218638">
        <ele>63.843838</ele>
        <time>2021-10-30T09:57:44.000Z</time>
      </trkpt>
      <trkpt lat="38.029408" lon="-1.218608">
        <ele>63.825549</ele>
        <time>2021-10-30T09:57:46.000Z</time>
      </trkpt>
      <trkpt lat="38.029355" lon="-1.218503">
        <ele>63.805406</ele>
        <time>2021-10-30T09:57:48.000Z</time>
      </trkpt>
      <trkpt lat="38.029337" lon="-1.218440">
        <ele>63.794581</ele>
        <time>2021-10-30T09:57:49.000Z</time>
      </trkpt>
      <trkpt lat="38.029202" lon="-1.218136">
        <ele>63.738212</ele>
        <time>2021-10-30T09:57:54.000Z</time>
      </trkpt>
      <trkpt lat="38.029164" lon="-1.218086">
        <ele>63.726989</ele>
        <time>2021-10-30T09:57:55.000Z</time>
      </trkpt>
      <trkpt lat="38.028991" lon="-1.217920">
        <ele>63.671312</ele>
        <time>2021-10-30T09:57:59.000Z</time>
      </trkpt>
      <trkpt lat="38.028886" lon="-1.217866">
        <ele>63.624964</ele>
        <time>2021-10-30T09:58:01.000Z</time>
      </trkpt>
      <trkpt lat="38.028662" lon="-1.217845">
        <ele>63.533073</ele>
        <time>2021-10-30T09:58:05.000Z</time>
      </trkpt>
      <trkpt lat="38.028607" lon="-1.217845">
        <ele>63.510572</ele>
        <time>2021-10-30T09:58:06.000Z</time>
      </trkpt>
      <trkpt lat="38.028495" lon="-1.217847">
        <ele>63.464746</ele>
        <time>2021-10-30T09:58:08.000Z</time>
      </trkpt>
      <trkpt lat="38.028160" lon="-1.217878">
        <ele>63.327330</ele>
        <time>2021-10-30T09:58:14.000Z</time>
      </trkpt>
      <trkpt lat="38.027928" lon="-1.217877">
        <ele>63.232415</ele>
        <time>2021-10-30T09:58:18.000Z</time>
      </trkpt>
      <trkpt lat="38.027815" lon="-1.217861">
        <ele>63.185898</ele>
        <time>2021-10-30T09:58:20.000Z</time>
      </trkpt>
      <trkpt lat="38.027702" lon="-1.217833">
        <ele>63.138796</ele>
        <time>2021-10-30T09:58:22.000Z</time>
      </trkpt>
      <trkpt lat="38.027476" lon="-1.217728">
        <ele>63.040339</ele>
        <time>2021-10-30T09:58:26.000Z</time>
      </trkpt>
      <trkpt lat="38.027369" lon="-1.217655">
        <ele>62.990642</ele>
        <time>2021-10-30T09:58:28.000Z</time>
      </trkpt>
      <trkpt lat="38.027136" lon="-1.217446">
        <ele>62.912886</ele>
        <time>2021-10-30T09:58:33.000Z</time>
      </trkpt>
      <trkpt lat="38.027089" lon="-1.217411">
        <ele>62.900932</ele>
        <time>2021-10-30T09:58:34.000Z</time>
      </trkpt>
      <trkpt lat="38.026741" lon="-1.217244">
        <ele>62.819316</ele>
        <time>2021-10-30T09:58:41.000Z</time>
      </trkpt>
      <trkpt lat="38.026489" lon="-1.217095">
        <ele>62.758330</ele>
        <time>2021-10-30T09:58:46.000Z</time>
      </trkpt>
      <trkpt lat="38.026396" lon="-1.217016">
        <ele>62.733782</ele>
        <time>2021-10-30T09:58:48.000Z</time>
      </trkpt>
      <trkpt lat="38.026310" lon="-1.216926">
        <ele>62.709331</ele>
        <time>2021-10-30T09:58:50.000Z</time>
      </trkpt>
      <trkpt lat="38.026180" lon="-1.216789">
        <ele>62.672265</ele>
        <time>2021-10-30T09:58:53.000Z</time>
      </trkpt>
      <trkpt lat="38.026045" lon="-1.216658">
        <ele>62.634988</ele>
        <time>2021-10-30T09:58:56.000Z</time>
      </trkpt>
      <trkpt lat="38.025915" lon="-1.216521">
        <ele>62.597922</ele>
        <time>2021-10-30T09:58:59.000Z</time>
      </trkpt>
      <trkpt lat="38.025650" lon="-1.216217">
        <ele>62.521562</ele>
        <time>2021-10-30T09:59:05.000Z</time>
      </trkpt>
      <trkpt lat="38.025377" lon="-1.215787">
        <ele>62.430472</ele>
        <time>2021-10-30T09:59:12.000Z</time>
      </trkpt>
      <trkpt lat="38.025198" lon="-1.215462">
        <ele>62.365065</ele>
        <time>2021-10-30T09:59:17.000Z</time>
      </trkpt>
      <trkpt lat="38.025139" lon="-1.215323">
        <ele>62.339022</ele>
        <time>2021-10-30T09:59:19.000Z</time>
      </trkpt>
      <trkpt lat="38.025106" lon="-1.215255">
        <ele>62.325849</ele>
        <time>2021-10-30T09:59:20.000Z</time>
      </trkpt>
      <trkpt lat="38.025067" lon="-1.215191">
        <ele>62.312503</ele>
        <time>2021-10-30T09:59:21.000Z</time>
      </trkpt>
      <trkpt lat="38.025029" lon="-1.215127">
        <ele>62.299285</ele>
        <time>2021-10-30T09:59:22.000Z</time>
      </trkpt>
      <trkpt lat="38.024992" lon="-1.215060">
        <ele>62.285789</ele>
        <time>2021-10-30T09:59:23.000Z</time>
      </trkpt>
      <trkpt lat="38.024951" lon="-1.214999">
        <ele>62.272563</ele>
        <time>2021-10-30T09:59:24.000Z</time>
      </trkpt>
      <trkpt lat="38.024907" lon="-1.214945">
        <ele>62.259749</ele>
        <time>2021-10-30T09:59:25.000Z</time>
      </trkpt>
      <trkpt lat="38.024861" lon="-1.214891">
        <ele>62.246630</ele>
        <time>2021-10-30T09:59:26.000Z</time>
      </trkpt>
      <trkpt lat="38.024732" lon="-1.214730">
        <ele>62.208753</ele>
        <time>2021-10-30T09:59:29.000Z</time>
      </trkpt>
      <trkpt lat="38.024474" lon="-1.214438">
        <ele>62.258908</ele>
        <time>2021-10-30T09:59:35.000Z</time>
      </trkpt>
      <trkpt lat="38.024424" lon="-1.214395">
        <ele>62.277023</ele>
        <time>2021-10-30T09:59:36.000Z</time>
      </trkpt>
      <trkpt lat="38.024326" lon="-1.214318">
        <ele>62.311592</ele>
        <time>2021-10-30T09:59:38.000Z</time>
      </trkpt>
      <trkpt lat="38.024279" lon="-1.214274">
        <ele>62.329108</ele>
        <time>2021-10-30T09:59:39.000Z</time>
      </trkpt>
      <trkpt lat="38.023995" lon="-1.214020">
        <ele>62.433310</ele>
        <time>2021-10-30T09:59:45.000Z</time>
      </trkpt>
      <trkpt lat="38.023903" lon="-1.213935">
        <ele>62.467440</ele>
        <time>2021-10-30T09:59:47.000Z</time>
      </trkpt>
      <trkpt lat="38.023688" lon="-1.213692">
        <ele>62.553784</ele>
        <time>2021-10-30T09:59:52.000Z</time>
      </trkpt>
      <trkpt lat="38.023652" lon="-1.213635">
        <ele>62.571046</ele>
        <time>2021-10-30T09:59:53.000Z</time>
      </trkpt>
      <trkpt lat="38.023612" lon="-1.213582">
        <ele>62.588389</ele>
        <time>2021-10-30T09:59:54.000Z</time>
      </trkpt>
      <trkpt lat="38.023484" lon="-1.213439">
        <ele>62.639532</ele>
        <time>2021-10-30T09:59:57.000Z</time>
      </trkpt>
      <trkpt lat="38.023445" lon="-1.213385">
        <ele>62.656842</ele>
        <time>2021-10-30T09:59:58.000Z</time>
      </trkpt>
      <trkpt lat="38.023364" lon="-1.213284">
        <ele>62.690898</ele>
        <time>2021-10-30T10:00:00.000Z</time>
      </trkpt>
      <trkpt lat="38.023323" lon="-1.213233">
        <ele>62.708116</ele>
        <time>2021-10-30T10:00:01.000Z</time>
      </trkpt>
      <trkpt lat="38.023241" lon="-1.213131">
        <ele>62.781401</ele>
        <time>2021-10-30T10:00:03.000Z</time>
      </trkpt>
      <trkpt lat="38.022870" lon="-1.212684">
        <ele>63.300278</ele>
        <time>2021-10-30T10:00:12.000Z</time>
      </trkpt>
      <trkpt lat="38.022828" lon="-1.212632">
        <ele>63.359793</ele>
        <time>2021-10-30T10:00:13.000Z</time>
      </trkpt>
      <trkpt lat="38.022742" lon="-1.212527">
        <ele>63.480835</ele>
        <time>2021-10-30T10:00:15.000Z</time>
      </trkpt>
      <trkpt lat="38.022472" lon="-1.212139">
        <ele>63.894542</ele>
        <time>2021-10-30T10:00:22.000Z</time>
      </trkpt>
      <trkpt lat="38.022126" lon="-1.211656">
        <ele>64.416242</ele>
        <time>2021-10-30T10:00:31.000Z</time>
      </trkpt>
      <trkpt lat="38.022015" lon="-1.211493">
        <ele>64.540048</ele>
        <time>2021-10-30T10:00:34.000Z</time>
      </trkpt>
      <trkpt lat="38.021941" lon="-1.211379">
        <ele>64.506274</ele>
        <time>2021-10-30T10:00:36.000Z</time>
      </trkpt>
      <trkpt lat="38.021687" lon="-1.210963">
        <ele>64.385933</ele>
        <time>2021-10-30T10:00:43.000Z</time>
      </trkpt>
      <trkpt lat="38.021580" lon="-1.210784">
        <ele>64.334557</ele>
        <time>2021-10-30T10:00:46.000Z</time>
      </trkpt>
      <trkpt lat="38.021467" lon="-1.210618">
        <ele>64.284395</ele>
        <time>2021-10-30T10:00:49.000Z</time>
      </trkpt>
      <trkpt lat="38.021327" lon="-1.210374">
        <ele>64.215376</ele>
        <time>2021-10-30T10:00:53.000Z</time>
      </trkpt>
      <trkpt lat="38.021228" lon="-1.210194">
        <ele>64.165182</ele>
        <time>2021-10-30T10:00:56.000Z</time>
      </trkpt>
      <trkpt lat="38.021199" lon="-1.210136">
        <ele>64.149475</ele>
        <time>2021-10-30T10:00:57.000Z</time>
      </trkpt>
      <trkpt lat="38.021154" lon="-1.210034">
        <ele>64.122745</ele>
        <time>2021-10-30T10:00:59.000Z</time>
      </trkpt>
      <trkpt lat="38.021135" lon="-1.209991">
        <ele>64.111472</ele>
        <time>2021-10-30T10:01:00.000Z</time>
      </trkpt>
      <trkpt lat="38.021096" lon="-1.209865">
        <ele>64.080519</ele>
        <time>2021-10-30T10:01:04.000Z</time>
      </trkpt>
      <trkpt lat="38.021092" lon="-1.209841">
        <ele>64.074910</ele>
        <time>2021-10-30T10:01:05.000Z</time>
      </trkpt>
      <trkpt lat="38.021054" lon="-1.209780">
        <ele>64.057129</ele>
        <time>2021-10-30T10:01:08.000Z</time>
      </trkpt>
      <trkpt lat="38.021024" lon="-1.209778">
        <ele>64.048410</ele>
        <time>2021-10-30T10:01:09.000Z</time>
      </trkpt>
      <trkpt lat="38.020908" lon="-1.209815">
        <ele>64.056836</ele>
        <time>2021-10-30T10:01:12.000Z</time>
      </trkpt>
      <trkpt lat="38.020863" lon="-1.209825">
        <ele>64.081519</ele>
        <time>2021-10-30T10:01:13.000Z</time>
      </trkpt>
      <trkpt lat="38.020817" lon="-1.209832">
        <ele>64.106551</ele>
        <time>2021-10-30T10:01:14.000Z</time>
      </trkpt>
      <trkpt lat="38.020626" lon="-1.209869">
        <ele>64.210941</ele>
        <time>2021-10-30T10:01:18.000Z</time>
      </trkpt>
      <trkpt lat="38.020528" lon="-1.209920">
        <ele>64.268167</ele>
        <time>2021-10-30T10:01:20.000Z</time>
      </trkpt>
      <trkpt lat="38.020441" lon="-1.209995">
        <ele>64.324987</ele>
        <time>2021-10-30T10:01:22.000Z</time>
      </trkpt>
      <trkpt lat="38.020367" lon="-1.210091">
        <ele>64.382155</ele>
        <time>2021-10-30T10:01:24.000Z</time>
      </trkpt>
      <trkpt lat="38.020340" lon="-1.210148">
        <ele>64.410465</ele>
        <time>2021-10-30T10:01:25.000Z</time>
      </trkpt>
      <trkpt lat="38.020271" lon="-1.210329">
        <ele>64.496051</ele>
        <time>2021-10-30T10:01:28.000Z</time>
      </trkpt>
      <trkpt lat="38.020219" lon="-1.210516">
        <ele>64.580459</ele>
        <time>2021-10-30T10:01:31.000Z</time>
      </trkpt>
      <trkpt lat="38.020164" lon="-1.210629">
        <ele>64.636995</ele>
        <time>2021-10-30T10:01:33.000Z</time>
      </trkpt>
      <trkpt lat="38.020089" lon="-1.210719">
        <ele>64.692758</ele>
        <time>2021-10-30T10:01:35.000Z</time>
      </trkpt>
      <trkpt lat="38.019961" lon="-1.210819">
        <ele>64.773964</ele>
        <time>2021-10-30T10:01:38.000Z</time>
      </trkpt>
      <trkpt lat="38.019891" lon="-1.210872">
        <ele>64.818002</ele>
        <time>2021-10-30T10:01:40.000Z</time>
      </trkpt>
      <trkpt lat="38.019824" lon="-1.210901">
        <ele>64.856248</ele>
        <time>2021-10-30T10:01:42.000Z</time>
      </trkpt>
      <trkpt lat="38.019762" lon="-1.210912">
        <ele>64.890072</ele>
        <time>2021-10-30T10:01:44.000Z</time>
      </trkpt>
      <trkpt lat="38.019569" lon="-1.210909">
        <ele>64.994356</ele>
        <time>2021-10-30T10:01:50.000Z</time>
      </trkpt>
      <trkpt lat="38.019507" lon="-1.210909">
        <ele>64.923646</ele>
        <time>2021-10-30T10:01:53.000Z</time>
      </trkpt>
      <trkpt lat="38.019494" lon="-1.210927">
        <ele>64.894350</ele>
        <time>2021-10-30T10:01:54.000Z</time>
      </trkpt>
      <trkpt lat="38.019490" lon="-1.210944">
        <ele>64.873064</ele>
        <time>2021-10-30T10:01:55.000Z</time>
      </trkpt>
      <trkpt lat="38.019518" lon="-1.210953">
        <ele>64.829077</ele>
        <time>2021-10-30T10:01:58.000Z</time>
      </trkpt>
      <trkpt lat="38.019604" lon="-1.210933">
        <ele>64.695929</ele>
        <time>2021-10-30T10:02:02.000Z</time>
      </trkpt>
      <trkpt lat="38.019639" lon="-1.210933">
        <ele>64.642628</ele>
        <time>2021-10-30T10:02:03.000Z</time>
      </trkpt>
      <trkpt lat="38.019714" lon="-1.210927">
        <ele>64.528185</ele>
        <time>2021-10-30T10:02:05.000Z</time>
      </trkpt>
      <trkpt lat="38.019770" lon="-1.210913">
        <ele>64.441266</ele>
        <time>2021-10-30T10:02:07.000Z</time>
      </trkpt>
      <trkpt lat="38.019843" lon="-1.210894">
        <ele>64.327782</ele>
        <time>2021-10-30T10:02:11.000Z</time>
      </trkpt>
      <trkpt lat="38.019875" lon="-1.210893">
        <ele>64.279035</ele>
        <time>2021-10-30T10:02:12.000Z</time>
      </trkpt>
      <trkpt lat="38.019984" lon="-1.210829">
        <ele>64.096143</ele>
        <time>2021-10-30T10:02:15.000Z</time>
      </trkpt>
      <trkpt lat="38.020016" lon="-1.210819">
        <ele>64.045955</ele>
        <time>2021-10-30T10:02:16.000Z</time>
      </trkpt>
      <trkpt lat="38.020073" lon="-1.210898">
        <ele>63.917433</ele>
        <time>2021-10-30T10:02:19.000Z</time>
      </trkpt>
      <trkpt lat="38.020041" lon="-1.211074">
        <ele>63.700732</ele>
        <time>2021-10-30T10:02:22.000Z</time>
      </trkpt>
      <trkpt lat="38.020031" lon="-1.211134">
        <ele>63.627155</ele>
        <time>2021-10-30T10:02:23.000Z</time>
      </trkpt>
      <trkpt lat="38.020022" lon="-1.211194">
        <ele>63.553879</ele>
        <time>2021-10-30T10:02:24.000Z</time>
      </trkpt>
      <trkpt lat="38.019973" lon="-1.211377">
        <ele>63.321995</ele>
        <time>2021-10-30T10:02:27.000Z</time>
      </trkpt>
      <trkpt lat="38.019934" lon="-1.211504">
        <ele>63.158464</ele>
        <time>2021-10-30T10:02:29.000Z</time>
      </trkpt>
      <trkpt lat="38.019913" lon="-1.211565">
        <ele>63.078598</ele>
        <time>2021-10-30T10:02:30.000Z</time>
      </trkpt>
      <trkpt lat="38.019891" lon="-1.211627">
        <ele>62.997018</ele>
        <time>2021-10-30T10:02:31.000Z</time>
      </trkpt>
      <trkpt lat="38.019870" lon="-1.211690">
        <ele>62.914948</ele>
        <time>2021-10-30T10:02:32.000Z</time>
      </trkpt>
      <trkpt lat="38.019802" lon="-1.211879">
        <ele>62.665672</ele>
        <time>2021-10-30T10:02:35.000Z</time>
      </trkpt>
      <trkpt lat="38.019708" lon="-1.212132">
        <ele>62.330078</ele>
        <time>2021-10-30T10:02:39.000Z</time>
      </trkpt>
      <trkpt lat="38.019658" lon="-1.212262">
        <ele>62.256908</ele>
        <time>2021-10-30T10:02:41.000Z</time>
      </trkpt>
      <trkpt lat="38.019561" lon="-1.212596">
        <ele>62.238463</ele>
        <time>2021-10-30T10:02:46.000Z</time>
      </trkpt>
      <trkpt lat="38.019545" lon="-1.212665">
        <ele>62.234736</ele>
        <time>2021-10-30T10:02:47.000Z</time>
      </trkpt>
      <trkpt lat="38.019531" lon="-1.212733">
        <ele>62.231094</ele>
        <time>2021-10-30T10:02:48.000Z</time>
      </trkpt>
      <trkpt lat="38.019515" lon="-1.212802">
        <ele>62.227367</ele>
        <time>2021-10-30T10:02:49.000Z</time>
      </trkpt>
      <trkpt lat="38.019499" lon="-1.212872">
        <ele>62.223591</ele>
        <time>2021-10-30T10:02:50.000Z</time>
      </trkpt>
      <trkpt lat="38.019483" lon="-1.212942">
        <ele>62.219814</ele>
        <time>2021-10-30T10:02:51.000Z</time>
      </trkpt>
      <trkpt lat="38.019468" lon="-1.213012">
        <ele>62.216055</ele>
        <time>2021-10-30T10:02:52.000Z</time>
      </trkpt>
      <trkpt lat="38.019409" lon="-1.213285">
        <ele>62.201387</ele>
        <time>2021-10-30T10:02:56.000Z</time>
      </trkpt>
      <trkpt lat="38.019373" lon="-1.213488">
        <ele>62.190605</ele>
        <time>2021-10-30T10:02:59.000Z</time>
      </trkpt>
      <trkpt lat="38.019354" lon="-1.213625">
        <ele>62.183398</ele>
        <time>2021-10-30T10:03:01.000Z</time>
      </trkpt>
      <trkpt lat="38.019344" lon="-1.213836">
        <ele>62.172445</ele>
        <time>2021-10-30T10:03:04.000Z</time>
      </trkpt>
      <trkpt lat="38.019346" lon="-1.213982">
        <ele>62.164879</ele>
        <time>2021-10-30T10:03:06.000Z</time>
      </trkpt>
      <trkpt lat="38.019370" lon="-1.214348">
        <ele>62.145849</ele>
        <time>2021-10-30T10:03:11.000Z</time>
      </trkpt>
      <trkpt lat="38.019419" lon="-1.214620">
        <ele>62.085094</ele>
        <time>2021-10-30T10:03:15.000Z</time>
      </trkpt>
      <trkpt lat="38.019456" lon="-1.214751">
        <ele>62.049466</ele>
        <time>2021-10-30T10:03:17.000Z</time>
      </trkpt>
      <trkpt lat="38.019523" lon="-1.215018">
        <ele>61.977726</ele>
        <time>2021-10-30T10:03:21.000Z</time>
      </trkpt>
      <trkpt lat="38.019629" lon="-1.215433">
        <ele>61.866036</ele>
        <time>2021-10-30T10:03:27.000Z</time>
      </trkpt>
      <trkpt lat="38.019646" lon="-1.215499">
        <ele>61.848259</ele>
        <time>2021-10-30T10:03:28.000Z</time>
      </trkpt>
      <trkpt lat="38.019660" lon="-1.215567">
        <ele>61.830266</ele>
        <time>2021-10-30T10:03:29.000Z</time>
      </trkpt>
      <trkpt lat="38.019729" lon="-1.215832">
        <ele>61.758813</ele>
        <time>2021-10-30T10:03:33.000Z</time>
      </trkpt>
      <trkpt lat="38.019892" lon="-1.216209">
        <ele>61.648716</ele>
        <time>2021-10-30T10:03:39.000Z</time>
      </trkpt>
      <trkpt lat="38.020021" lon="-1.216442">
        <ele>61.575808</ele>
        <time>2021-10-30T10:03:43.000Z</time>
      </trkpt>
      <trkpt lat="38.020086" lon="-1.216646">
        <ele>61.657865</ele>
        <time>2021-10-30T10:03:46.000Z</time>
      </trkpt>
      <trkpt lat="38.020102" lon="-1.216796">
        <ele>61.756069</ele>
        <time>2021-10-30T10:03:48.000Z</time>
      </trkpt>
      <trkpt lat="38.020085" lon="-1.216901">
        <ele>61.825614</ele>
        <time>2021-10-30T10:03:50.000Z</time>
      </trkpt>
      <trkpt lat="38.020011" lon="-1.217009">
        <ele>61.918476</ele>
        <time>2021-10-30T10:03:52.000Z</time>
      </trkpt>
      <trkpt lat="38.019958" lon="-1.217040">
        <ele>61.966534</ele>
        <time>2021-10-30T10:03:53.000Z</time>
      </trkpt>
      <trkpt lat="38.019902" lon="-1.217053">
        <ele>62.013417</ele>
        <time>2021-10-30T10:03:54.000Z</time>
      </trkpt>
      <trkpt lat="38.019728" lon="-1.217053">
        <ele>62.156711</ele>
        <time>2021-10-30T10:03:57.000Z</time>
      </trkpt>
      <trkpt lat="38.019556" lon="-1.217043">
        <ele>62.298507</ele>
        <time>2021-10-30T10:04:00.000Z</time>
      </trkpt>
      <trkpt lat="38.019500" lon="-1.217039">
        <ele>62.344697</ele>
        <time>2021-10-30T10:04:01.000Z</time>
      </trkpt>
      <trkpt lat="38.019387" lon="-1.217031">
        <ele>62.437901</ele>
        <time>2021-10-30T10:04:03.000Z</time>
      </trkpt>
      <trkpt lat="38.019161" lon="-1.217023">
        <ele>62.624091</ele>
        <time>2021-10-30T10:04:07.000Z</time>
      </trkpt>
      <trkpt lat="38.018705" lon="-1.217031">
        <ele>62.999657</ele>
        <time>2021-10-30T10:04:15.000Z</time>
      </trkpt>
      <trkpt lat="38.018593" lon="-1.217042">
        <ele>62.973425</ele>
        <time>2021-10-30T10:04:17.000Z</time>
      </trkpt>
      <trkpt lat="38.018256" lon="-1.217069">
        <ele>62.620145</ele>
        <time>2021-10-30T10:04:23.000Z</time>
      </trkpt>
      <trkpt lat="38.017915" lon="-1.217093">
        <ele>62.262833</ele>
        <time>2021-10-30T10:04:29.000Z</time>
      </trkpt>
      <trkpt lat="38.017799" lon="-1.217100">
        <ele>62.141334</ele>
        <time>2021-10-30T10:04:31.000Z</time>
      </trkpt>
      <trkpt lat="38.017319" lon="-1.217152">
        <ele>61.637319</ele>
        <time>2021-10-30T10:04:39.000Z</time>
      </trkpt>
      <trkpt lat="38.017259" lon="-1.217159">
        <ele>61.574281</ele>
        <time>2021-10-30T10:04:40.000Z</time>
      </trkpt>
      <trkpt lat="38.017138" lon="-1.217173">
        <ele>61.447162</ele>
        <time>2021-10-30T10:04:42.000Z</time>
      </trkpt>
      <trkpt lat="38.017077" lon="-1.217180">
        <ele>61.383082</ele>
        <time>2021-10-30T10:04:43.000Z</time>
      </trkpt>
      <trkpt lat="38.016957" lon="-1.217195">
        <ele>61.256927</ele>
        <time>2021-10-30T10:04:45.000Z</time>
      </trkpt>
      <trkpt lat="38.016777" lon="-1.217229">
        <ele>61.141356</ele>
        <time>2021-10-30T10:04:48.000Z</time>
      </trkpt>
      <trkpt lat="38.016290" lon="-1.217354">
        <ele>61.046402</ele>
        <time>2021-10-30T10:04:56.000Z</time>
      </trkpt>
      <trkpt lat="38.015751" lon="-1.217583">
        <ele>60.937777</ele>
        <time>2021-10-30T10:05:05.000Z</time>
      </trkpt>
      <trkpt lat="38.015365" lon="-1.217805">
        <ele>60.856790</ele>
        <time>2021-10-30T10:05:12.000Z</time>
      </trkpt>
      <trkpt lat="38.014981" lon="-1.218024">
        <ele>60.831811</ele>
        <time>2021-10-30T10:05:19.000Z</time>
      </trkpt>
      <trkpt lat="38.014926" lon="-1.218051">
        <ele>60.836991</ele>
        <time>2021-10-30T10:05:20.000Z</time>
      </trkpt>
      <trkpt lat="38.014602" lon="-1.218214">
        <ele>60.867607</ele>
        <time>2021-10-30T10:05:26.000Z</time>
      </trkpt>
      <trkpt lat="38.014362" lon="-1.218315">
        <ele>60.889819</ele>
        <time>2021-10-30T10:05:32.000Z</time>
      </trkpt>
      <trkpt lat="38.014335" lon="-1.218324">
        <ele>60.892271</ele>
        <time>2021-10-30T10:05:34.000Z</time>
      </trkpt>
      <trkpt lat="38.014337" lon="-1.218323">
        <ele>60.892460</ele>
        <time>2021-10-30T10:05:35.000Z</time>
      </trkpt>
      <trkpt lat="38.014343" lon="-1.218323">
        <ele>60.892987</ele>
        <time>2021-10-30T10:05:39.000Z</time>
      </trkpt>
      <trkpt lat="38.014340" lon="-1.218324">
        <ele>60.893260</ele>
        <time>2021-10-30T10:05:42.000Z</time>
      </trkpt>
      <trkpt lat="38.014333" lon="-1.218324">
        <ele>60.893875</ele>
        <time>2021-10-30T10:05:50.000Z</time>
      </trkpt>
      <trkpt lat="38.014337" lon="-1.218322">
        <ele>60.894252</ele>
        <time>2021-10-30T10:05:54.000Z</time>
      </trkpt>
      <trkpt lat="38.014338" lon="-1.218327">
        <ele>60.894609</ele>
        <time>2021-10-30T10:06:03.000Z</time>
      </trkpt>
      <trkpt lat="38.014335" lon="-1.218324">
        <ele>60.894945</ele>
        <time>2021-10-30T10:06:08.000Z</time>
      </trkpt>
      <trkpt lat="38.014335" lon="-1.218324">
        <ele>60.894945</ele>
        <time>2021-10-30T10:06:10.000Z</time>
      </trkpt>
      <trkpt lat="38.014335" lon="-1.218324">
        <ele>60.894945</ele>
        <time>2021-10-30T10:06:15.000Z</time>
      </trkpt>
      <trkpt lat="38.014335" lon="-1.218322">
        <ele>60.895083</ele>
        <time>2021-10-30T10:06:17.000Z</time>
      </trkpt>
      <trkpt lat="38.014334" lon="-1.218320">
        <ele>60.895247</ele>
        <time>2021-10-30T10:06:22.000Z</time>
      </trkpt>
      <trkpt lat="38.014339" lon="-1.218318">
        <ele>60.895708</ele>
        <time>2021-10-30T10:06:30.000Z</time>
      </trkpt>
      <trkpt lat="38.014340" lon="-1.218319">
        <ele>60.895820</ele>
        <time>2021-10-30T10:06:32.000Z</time>
      </trkpt>
      <trkpt lat="38.014342" lon="-1.218311">
        <ele>60.896400</ele>
        <time>2021-10-30T10:06:38.000Z</time>
      </trkpt>
      <trkpt lat="38.014342" lon="-1.218314">
        <ele>60.896608</ele>
        <time>2021-10-30T10:06:39.000Z</time>
      </trkpt>
      <trkpt lat="38.014341" lon="-1.218315">
        <ele>60.896720</ele>
        <time>2021-10-30T10:06:42.000Z</time>
      </trkpt>
      <trkpt lat="38.014343" lon="-1.218317">
        <ele>60.896944</ele>
        <time>2021-10-30T10:06:45.000Z</time>
      </trkpt>
      <trkpt lat="38.014344" lon="-1.218316">
        <ele>60.897055</ele>
        <time>2021-10-30T10:06:47.000Z</time>
      </trkpt>
      <trkpt lat="38.014328" lon="-1.218322">
        <ele>60.898521</ele>
        <time>2021-10-30T10:06:56.000Z</time>
      </trkpt>
      <trkpt lat="38.014317" lon="-1.218329">
        <ele>60.899602</ele>
        <time>2021-10-30T10:06:57.000Z</time>
      </trkpt>
      <trkpt lat="38.014285" lon="-1.218351">
        <ele>60.902799</ele>
        <time>2021-10-30T10:06:59.000Z</time>
      </trkpt>
      <trkpt lat="38.014265" lon="-1.218361">
        <ele>60.904687</ele>
        <time>2021-10-30T10:07:00.000Z</time>
      </trkpt>
      <trkpt lat="38.014114" lon="-1.218432">
        <ele>60.918833</ele>
        <time>2021-10-30T10:07:05.000Z</time>
      </trkpt>
      <trkpt lat="38.013869" lon="-1.218571">
        <ele>60.942407</ele>
        <time>2021-10-30T10:07:11.000Z</time>
      </trkpt>
      <trkpt lat="38.013825" lon="-1.218597">
        <ele>60.946671</ele>
        <time>2021-10-30T10:07:12.000Z</time>
      </trkpt>
      <trkpt lat="38.013741" lon="-1.218649">
        <ele>60.954881</ele>
        <time>2021-10-30T10:07:14.000Z</time>
      </trkpt>
      <trkpt lat="38.013523" lon="-1.218793">
        <ele>60.958152</ele>
        <time>2021-10-30T10:07:19.000Z</time>
      </trkpt>
      <trkpt lat="38.013391" lon="-1.218883">
        <ele>60.912858</ele>
        <time>2021-10-30T10:07:22.000Z</time>
      </trkpt>
      <trkpt lat="38.013302" lon="-1.218945">
        <ele>60.882170</ele>
        <time>2021-10-30T10:07:24.000Z</time>
      </trkpt>
      <trkpt lat="38.013114" lon="-1.219057">
        <ele>60.819392</ele>
        <time>2021-10-30T10:07:28.000Z</time>
      </trkpt>
      <trkpt lat="38.013010" lon="-1.219092">
        <ele>60.786869</ele>
        <time>2021-10-30T10:07:30.000Z</time>
      </trkpt>
      <trkpt lat="38.012913" lon="-1.219082">
        <ele>60.757451</ele>
        <time>2021-10-30T10:07:32.000Z</time>
      </trkpt>
      <trkpt lat="38.012866" lon="-1.219051">
        <ele>60.741440</ele>
        <time>2021-10-30T10:07:33.000Z</time>
      </trkpt>
      <trkpt lat="38.012824" lon="-1.219011">
        <ele>60.725568</ele>
        <time>2021-10-30T10:07:34.000Z</time>
      </trkpt>
      <trkpt lat="38.012690" lon="-1.218845">
        <ele>60.668967</ele>
        <time>2021-10-30T10:07:37.000Z</time>
      </trkpt>
      <trkpt lat="38.012474" lon="-1.218490">
        <ele>60.562143</ele>
        <time>2021-10-30T10:07:43.000Z</time>
      </trkpt>
      <trkpt lat="38.012446" lon="-1.218428">
        <ele>60.545124</ele>
        <time>2021-10-30T10:07:44.000Z</time>
      </trkpt>
      <trkpt lat="38.012320" lon="-1.218027">
        <ele>60.442307</ele>
        <time>2021-10-30T10:07:50.000Z</time>
      </trkpt>
      <trkpt lat="38.012322" lon="-1.217884">
        <ele>60.498430</ele>
        <time>2021-10-30T10:07:52.000Z</time>
      </trkpt>
      <trkpt lat="38.012337" lon="-1.217815">
        <ele>60.556725</ele>
        <time>2021-10-30T10:07:53.000Z</time>
      </trkpt>
      <trkpt lat="38.012512" lon="-1.217439">
        <ele>60.912386</ele>
        <time>2021-10-30T10:07:59.000Z</time>
      </trkpt>
      <trkpt lat="38.012657" lon="-1.217130">
        <ele>61.205296</ele>
        <time>2021-10-30T10:08:04.000Z</time>
      </trkpt>
      <trkpt lat="38.012717" lon="-1.216928">
        <ele>61.381111</ele>
        <time>2021-10-30T10:08:07.000Z</time>
      </trkpt>
      <trkpt lat="38.012833" lon="-1.216521">
        <ele>61.733600</ele>
        <time>2021-10-30T10:08:13.000Z</time>
      </trkpt>
      <trkpt lat="38.012888" lon="-1.216400">
        <ele>61.847369</ele>
        <time>2021-10-30T10:08:15.000Z</time>
      </trkpt>
      <trkpt lat="38.012921" lon="-1.216344">
        <ele>61.904321</ele>
        <time>2021-10-30T10:08:16.000Z</time>
      </trkpt>
      <trkpt lat="38.013054" lon="-1.216117">
        <ele>62.134709</ele>
        <time>2021-10-30T10:08:20.000Z</time>
      </trkpt>
      <trkpt lat="38.013195" lon="-1.215731">
        <ele>62.291822</ele>
        <time>2021-10-30T10:08:26.000Z</time>
      </trkpt>
      <trkpt lat="38.013244" lon="-1.215303">
        <ele>62.298988</ele>
        <time>2021-10-30T10:08:32.000Z</time>
      </trkpt>
      <trkpt lat="38.013230" lon="-1.214811">
        <ele>62.307145</ele>
        <time>2021-10-30T10:08:39.000Z</time>
      </trkpt>
      <trkpt lat="38.013210" lon="-1.214672">
        <ele>62.309486</ele>
        <time>2021-10-30T10:08:41.000Z</time>
      </trkpt>
      <trkpt lat="38.013192" lon="-1.214603">
        <ele>62.310691</ele>
        <time>2021-10-30T10:08:42.000Z</time>
      </trkpt>
      <trkpt lat="38.013135" lon="-1.214477">
        <ele>62.313098</ele>
        <time>2021-10-30T10:08:44.000Z</time>
      </trkpt>
      <trkpt lat="38.013047" lon="-1.214387">
        <ele>62.315475</ele>
        <time>2021-10-30T10:08:46.000Z</time>
      </trkpt>
      <trkpt lat="38.012945" lon="-1.214320">
        <ele>62.317890</ele>
        <time>2021-10-30T10:08:48.000Z</time>
      </trkpt>
      <trkpt lat="38.012571" lon="-1.214171">
        <ele>62.318350</ele>
        <time>2021-10-30T10:08:55.000Z</time>
      </trkpt>
      <trkpt lat="38.012517" lon="-1.214148">
        <ele>62.297307</ele>
        <time>2021-10-30T10:08:56.000Z</time>
      </trkpt>
      <trkpt lat="38.012212" lon="-1.213969">
        <ele>62.173165</ele>
        <time>2021-10-30T10:09:02.000Z</time>
      </trkpt>
      <trkpt lat="38.011909" lon="-1.213775">
        <ele>62.047789</ele>
        <time>2021-10-30T10:09:08.000Z</time>
      </trkpt>
      <trkpt lat="38.011755" lon="-1.213682">
        <ele>61.984783</ele>
        <time>2021-10-30T10:09:11.000Z</time>
      </trkpt>
      <trkpt lat="38.011559" lon="-1.213537">
        <ele>61.900971</ele>
        <time>2021-10-30T10:09:15.000Z</time>
      </trkpt>
      <trkpt lat="38.011487" lon="-1.213432">
        <ele>61.860453</ele>
        <time>2021-10-30T10:09:17.000Z</time>
      </trkpt>
      <trkpt lat="38.011400" lon="-1.213189">
        <ele>61.782762</ele>
        <time>2021-10-30T10:09:21.000Z</time>
      </trkpt>
      <trkpt lat="38.011370" lon="-1.213141">
        <ele>61.764928</ele>
        <time>2021-10-30T10:09:22.000Z</time>
      </trkpt>
      <trkpt lat="38.011294" lon="-1.213080">
        <ele>61.731707</ele>
        <time>2021-10-30T10:09:24.000Z</time>
      </trkpt>
      <trkpt lat="38.011180" lon="-1.213069">
        <ele>61.689470</ele>
        <time>2021-10-30T10:09:27.000Z</time>
      </trkpt>
      <trkpt lat="38.011138" lon="-1.213083">
        <ele>61.673427</ele>
        <time>2021-10-30T10:09:28.000Z</time>
      </trkpt>
      <trkpt lat="38.010936" lon="-1.213204">
        <ele>61.488305</ele>
        <time>2021-10-30T10:09:33.000Z</time>
      </trkpt>
      <trkpt lat="38.010909" lon="-1.213245">
        <ele>61.450057</ele>
        <time>2021-10-30T10:09:34.000Z</time>
      </trkpt>
      <trkpt lat="38.010886" lon="-1.213290">
        <ele>61.411663</ele>
        <time>2021-10-30T10:09:35.000Z</time>
      </trkpt>
      <trkpt lat="38.010830" lon="-1.213371">
        <ele>61.334527</ele>
        <time>2021-10-30T10:09:37.000Z</time>
      </trkpt>
      <trkpt lat="38.010792" lon="-1.213402">
        <ele>61.293489</ele>
        <time>2021-10-30T10:09:38.000Z</time>
      </trkpt>
      <trkpt lat="38.010747" lon="-1.213428">
        <ele>61.248570</ele>
        <time>2021-10-30T10:09:39.000Z</time>
      </trkpt>
      <trkpt lat="38.010643" lon="-1.213472">
        <ele>61.148977</ele>
        <time>2021-10-30T10:09:41.000Z</time>
      </trkpt>
      <trkpt lat="38.010536" lon="-1.213514">
        <ele>61.047226</ele>
        <time>2021-10-30T10:09:43.000Z</time>
      </trkpt>
      <trkpt lat="38.010215" lon="-1.213652">
        <ele>60.739327</ele>
        <time>2021-10-30T10:09:49.000Z</time>
      </trkpt>
      <trkpt lat="38.010033" lon="-1.213693">
        <ele>60.571398</ele>
        <time>2021-10-30T10:09:52.000Z</time>
      </trkpt>
      <trkpt lat="38.009973" lon="-1.213704">
        <ele>60.516323</ele>
        <time>2021-10-30T10:09:53.000Z</time>
      </trkpt>
      <trkpt lat="38.009854" lon="-1.213737">
        <ele>60.405663</ele>
        <time>2021-10-30T10:09:55.000Z</time>
      </trkpt>
      <trkpt lat="38.009800" lon="-1.213765">
        <ele>60.352669</ele>
        <time>2021-10-30T10:09:56.000Z</time>
      </trkpt>
      <trkpt lat="38.009698" lon="-1.213833">
        <ele>60.247997</ele>
        <time>2021-10-30T10:09:58.000Z</time>
      </trkpt>
      <trkpt lat="38.009567" lon="-1.213956">
        <ele>60.099959</ele>
        <time>2021-10-30T10:10:01.000Z</time>
      </trkpt>
      <trkpt lat="38.009157" lon="-1.214348">
        <ele>59.853520</ele>
        <time>2021-10-30T10:10:10.000Z</time>
      </trkpt>
      <trkpt lat="38.008912" lon="-1.214516">
        <ele>59.741887</ele>
        <time>2021-10-30T10:10:15.000Z</time>
      </trkpt>
      <trkpt lat="38.008810" lon="-1.214577">
        <ele>59.696686</ele>
        <time>2021-10-30T10:10:17.000Z</time>
      </trkpt>
      <trkpt lat="38.008447" lon="-1.214779">
        <ele>59.537795</ele>
        <time>2021-10-30T10:10:24.000Z</time>
      </trkpt>
      <trkpt lat="38.008345" lon="-1.214836">
        <ele>59.493118</ele>
        <time>2021-10-30T10:10:26.000Z</time>
      </trkpt>
      <trkpt lat="38.007832" lon="-1.215121">
        <ele>59.390924</ele>
        <time>2021-10-30T10:10:36.000Z</time>
      </trkpt>
      <trkpt lat="38.007781" lon="-1.215152">
        <ele>59.442137</ele>
        <time>2021-10-30T10:10:37.000Z</time>
      </trkpt>
      <trkpt lat="38.007520" lon="-1.215311">
        <ele>59.704334</ele>
        <time>2021-10-30T10:10:42.000Z</time>
      </trkpt>
      <trkpt lat="38.007467" lon="-1.215342">
        <ele>59.757186</ele>
        <time>2021-10-30T10:10:43.000Z</time>
      </trkpt>
      <trkpt lat="38.007263" lon="-1.215477">
        <ele>59.965548</ele>
        <time>2021-10-30T10:10:47.000Z</time>
      </trkpt>
      <trkpt lat="38.006879" lon="-1.215796">
        <ele>60.381198</ele>
        <time>2021-10-30T10:10:55.000Z</time>
      </trkpt>
      <trkpt lat="38.006697" lon="-1.215962">
        <ele>60.584179</ele>
        <time>2021-10-30T10:10:59.000Z</time>
      </trkpt>
      <trkpt lat="38.006609" lon="-1.216043">
        <ele>60.682631</ele>
        <time>2021-10-30T10:11:01.000Z</time>
      </trkpt>
      <trkpt lat="38.006430" lon="-1.216196">
        <ele>60.878082</ele>
        <time>2021-10-30T10:11:05.000Z</time>
      </trkpt>
      <trkpt lat="38.006383" lon="-1.216229">
        <ele>60.926728</ele>
        <time>2021-10-30T10:11:06.000Z</time>
      </trkpt>
      <trkpt lat="38.006337" lon="-1.216266">
        <ele>60.939721</ele>
        <time>2021-10-30T10:11:07.000Z</time>
      </trkpt>
      <trkpt lat="38.006105" lon="-1.216464">
        <ele>60.968246</ele>
        <time>2021-10-30T10:11:12.000Z</time>
      </trkpt>
      <trkpt lat="38.005813" lon="-1.216689">
        <ele>61.003100</ele>
        <time>2021-10-30T10:11:18.000Z</time>
      </trkpt>
      <trkpt lat="38.005714" lon="-1.216770">
        <ele>61.015119</ele>
        <time>2021-10-30T10:11:20.000Z</time>
      </trkpt>
      <trkpt lat="38.005462" lon="-1.216962">
        <ele>61.045108</ele>
        <time>2021-10-30T10:11:25.000Z</time>
      </trkpt>
      <trkpt lat="38.005341" lon="-1.217016">
        <ele>61.058195</ele>
        <time>2021-10-30T10:11:27.000Z</time>
      </trkpt>
      <trkpt lat="38.005041" lon="-1.217075">
        <ele>61.089169</ele>
        <time>2021-10-30T10:11:32.000Z</time>
      </trkpt>
      <trkpt lat="38.004647" lon="-1.217065">
        <ele>61.007418</ele>
        <time>2021-10-30T10:11:39.000Z</time>
      </trkpt>
      <trkpt lat="38.004531" lon="-1.217068">
        <ele>60.884987</ele>
        <time>2021-10-30T10:11:41.000Z</time>
      </trkpt>
      <trkpt lat="38.004360" lon="-1.217099">
        <ele>60.702713</ele>
        <time>2021-10-30T10:11:44.000Z</time>
      </trkpt>
      <trkpt lat="38.004251" lon="-1.217145">
        <ele>60.581501</ele>
        <time>2021-10-30T10:11:46.000Z</time>
      </trkpt>
      <trkpt lat="38.004142" lon="-1.217186">
        <ele>60.461536</ele>
        <time>2021-10-30T10:11:48.000Z</time>
      </trkpt>
      <trkpt lat="38.003971" lon="-1.217210">
        <ele>60.279993</ele>
        <time>2021-10-30T10:11:51.000Z</time>
      </trkpt>
      <trkpt lat="38.003802" lon="-1.217189">
        <ele>60.100807</ele>
        <time>2021-10-30T10:11:54.000Z</time>
      </trkpt>
      <trkpt lat="38.003696" lon="-1.217138">
        <ele>59.981185</ele>
        <time>2021-10-30T10:11:56.000Z</time>
      </trkpt>
      <trkpt lat="38.003386" lon="-1.216961">
        <ele>59.622484</ele>
        <time>2021-10-30T10:12:02.000Z</time>
      </trkpt>
      <trkpt lat="38.003332" lon="-1.216930">
        <ele>59.559943</ele>
        <time>2021-10-30T10:12:03.000Z</time>
      </trkpt>
      <trkpt lat="38.003167" lon="-1.216848">
        <ele>59.372957</ele>
        <time>2021-10-30T10:12:06.000Z</time>
      </trkpt>
      <trkpt lat="38.002999" lon="-1.216774">
        <ele>59.204443</ele>
        <time>2021-10-30T10:12:09.000Z</time>
      </trkpt>
      <trkpt lat="38.002839" lon="-1.216692">
        <ele>59.120930</ele>
        <time>2021-10-30T10:12:12.000Z</time>
      </trkpt>
      <trkpt lat="38.002784" lon="-1.216666">
        <ele>59.092524</ele>
        <time>2021-10-30T10:12:13.000Z</time>
      </trkpt>
      <trkpt lat="38.002502" lon="-1.216574">
        <ele>58.951605</ele>
        <time>2021-10-30T10:12:18.000Z</time>
      </trkpt>
      <trkpt lat="38.002327" lon="-1.216532">
        <ele>58.865407</ele>
        <time>2021-10-30T10:12:21.000Z</time>
      </trkpt>
      <trkpt lat="38.002156" lon="-1.216502">
        <ele>58.781859</ele>
        <time>2021-10-30T10:12:24.000Z</time>
      </trkpt>
      <trkpt lat="38.001931" lon="-1.216477">
        <ele>58.672547</ele>
        <time>2021-10-30T10:12:28.000Z</time>
      </trkpt>
      <trkpt lat="38.001524" lon="-1.216375">
        <ele>58.471764</ele>
        <time>2021-10-30T10:12:35.000Z</time>
      </trkpt>
      <trkpt lat="38.001344" lon="-1.216297">
        <ele>58.379708</ele>
        <time>2021-10-30T10:12:38.000Z</time>
      </trkpt>
      <trkpt lat="38.001275" lon="-1.216265">
        <ele>58.349988</ele>
        <time>2021-10-30T10:12:39.000Z</time>
      </trkpt>
      <trkpt lat="38.001223" lon="-1.216225">
        <ele>58.349190</ele>
        <time>2021-10-30T10:12:40.000Z</time>
      </trkpt>
      <trkpt lat="38.001055" lon="-1.216085">
        <ele>58.346554</ele>
        <time>2021-10-30T10:12:44.000Z</time>
      </trkpt>
      <trkpt lat="38.000965" lon="-1.216054">
        <ele>58.345331</ele>
        <time>2021-10-30T10:12:46.000Z</time>
      </trkpt>
      <trkpt lat="38.000873" lon="-1.216045">
        <ele>58.344121</ele>
        <time>2021-10-30T10:12:48.000Z</time>
      </trkpt>
      <trkpt lat="38.000635" lon="-1.216094">
        <ele>58.340958</ele>
        <time>2021-10-30T10:12:53.000Z</time>
      </trkpt>
      <trkpt lat="38.000585" lon="-1.216120">
        <ele>58.340249</ele>
        <time>2021-10-30T10:12:54.000Z</time>
      </trkpt>
      <trkpt lat="38.000385" lon="-1.216243">
        <ele>58.337334</ele>
        <time>2021-10-30T10:12:58.000Z</time>
      </trkpt>
      <trkpt lat="38.000337" lon="-1.216281">
        <ele>58.336592</ele>
        <time>2021-10-30T10:12:59.000Z</time>
      </trkpt>
      <trkpt lat="38.000203" lon="-1.216399">
        <ele>58.334452</ele>
        <time>2021-10-30T10:13:02.000Z</time>
      </trkpt>
      <trkpt lat="38.000076" lon="-1.216529">
        <ele>58.332312</ele>
        <time>2021-10-30T10:13:05.000Z</time>
      </trkpt>
      <trkpt lat="37.999953" lon="-1.216654">
        <ele>58.330245</ele>
        <time>2021-10-30T10:13:08.000Z</time>
      </trkpt>
      <trkpt lat="37.999804" lon="-1.216851">
        <ele>58.327423</ele>
        <time>2021-10-30T10:13:13.000Z</time>
      </trkpt>
      <trkpt lat="37.999608" lon="-1.217103">
        <ele>58.593767</ele>
        <time>2021-10-30T10:13:19.000Z</time>
      </trkpt>
      <trkpt lat="37.999513" lon="-1.217156">
        <ele>58.723907</ele>
        <time>2021-10-30T10:13:21.000Z</time>
      </trkpt>
      <trkpt lat="37.999458" lon="-1.217160">
        <ele>58.792994</ele>
        <time>2021-10-30T10:13:22.000Z</time>
      </trkpt>
      <trkpt lat="37.999401" lon="-1.217150">
        <ele>58.865155</ele>
        <time>2021-10-30T10:13:23.000Z</time>
      </trkpt>
      <trkpt lat="37.999294" lon="-1.217075">
        <ele>59.018448</ele>
        <time>2021-10-30T10:13:25.000Z</time>
      </trkpt>
      <trkpt lat="37.999215" lon="-1.216952">
        <ele>59.175259</ele>
        <time>2021-10-30T10:13:27.000Z</time>
      </trkpt>
      <trkpt lat="37.999186" lon="-1.216879">
        <ele>59.256048</ele>
        <time>2021-10-30T10:13:28.000Z</time>
      </trkpt>
      <trkpt lat="37.999162" lon="-1.216808">
        <ele>59.332395</ele>
        <time>2021-10-30T10:13:29.000Z</time>
      </trkpt>
      <trkpt lat="37.999130" lon="-1.216684">
        <ele>59.461338</ele>
        <time>2021-10-30T10:13:31.000Z</time>
      </trkpt>
      <trkpt lat="37.999117" lon="-1.216639">
        <ele>59.508703</ele>
        <time>2021-10-30T10:13:32.000Z</time>
      </trkpt>
      <trkpt lat="37.999079" lon="-1.216572">
        <ele>59.590280</ele>
        <time>2021-10-30T10:13:34.000Z</time>
      </trkpt>
      <trkpt lat="37.999045" lon="-1.216557">
        <ele>59.635421</ele>
        <time>2021-10-30T10:13:35.000Z</time>
      </trkpt>
      <trkpt lat="37.999006" lon="-1.216553">
        <ele>59.684489</ele>
        <time>2021-10-30T10:13:36.000Z</time>
      </trkpt>
      <trkpt lat="37.998921" lon="-1.216550">
        <ele>59.791125</ele>
        <time>2021-10-30T10:13:38.000Z</time>
      </trkpt>
      <trkpt lat="37.998788" lon="-1.216535">
        <ele>59.958573</ele>
        <time>2021-10-30T10:13:41.000Z</time>
      </trkpt>
      <trkpt lat="37.998703" lon="-1.216493">
        <ele>60.072963</ele>
        <time>2021-10-30T10:13:43.000Z</time>
      </trkpt>
      <trkpt lat="37.998622" lon="-1.216452">
        <ele>60.182325</ele>
        <time>2021-10-30T10:13:45.000Z</time>
      </trkpt>
      <trkpt lat="37.998580" lon="-1.216440">
        <ele>60.236314</ele>
        <time>2021-10-30T10:13:46.000Z</time>
      </trkpt>
      <trkpt lat="37.998447" lon="-1.216448">
        <ele>60.403291</ele>
        <time>2021-10-30T10:13:49.000Z</time>
      </trkpt>
      <trkpt lat="37.998312" lon="-1.216448">
        <ele>60.572589</ele>
        <time>2021-10-30T10:13:52.000Z</time>
      </trkpt>
      <trkpt lat="37.998220" lon="-1.216455">
        <ele>60.401186</ele>
        <time>2021-10-30T10:13:54.000Z</time>
      </trkpt>
      <trkpt lat="37.998041" lon="-1.216475">
        <ele>60.016461</ele>
        <time>2021-10-30T10:13:59.000Z</time>
      </trkpt>
      <trkpt lat="37.997918" lon="-1.216550">
        <ele>59.724291</ele>
        <time>2021-10-30T10:14:03.000Z</time>
      </trkpt>
      <trkpt lat="37.997696" lon="-1.216786">
        <ele>59.104241</ele>
        <time>2021-10-30T10:14:09.000Z</time>
      </trkpt>
      <trkpt lat="37.997653" lon="-1.216829">
        <ele>58.987027</ele>
        <time>2021-10-30T10:14:10.000Z</time>
      </trkpt>
      <trkpt lat="37.997481" lon="-1.217026">
        <ele>58.490955</ele>
        <time>2021-10-30T10:14:14.000Z</time>
      </trkpt>
      <trkpt lat="37.997443" lon="-1.217092">
        <ele>58.353044</ele>
        <time>2021-10-30T10:14:15.000Z</time>
      </trkpt>
      <trkpt lat="37.997378" lon="-1.217238">
        <ele>58.070119</ele>
        <time>2021-10-30T10:14:17.000Z</time>
      </trkpt>
      <trkpt lat="37.997332" lon="-1.217352">
        <ele>57.854029</ele>
        <time>2021-10-30T10:14:19.000Z</time>
      </trkpt>
      <trkpt lat="37.997274" lon="-1.217461">
        <ele>57.632124</ele>
        <time>2021-10-30T10:14:22.000Z</time>
      </trkpt>
      <trkpt lat="37.997280" lon="-1.217493">
        <ele>57.576626</ele>
        <time>2021-10-30T10:14:23.000Z</time>
      </trkpt>
      <trkpt lat="37.997293" lon="-1.217541">
        <ele>57.490991</ele>
        <time>2021-10-30T10:14:25.000Z</time>
      </trkpt>
      <trkpt lat="37.997269" lon="-1.217565">
        <ele>57.425569</ele>
        <time>2021-10-30T10:14:27.000Z</time>
      </trkpt>
      <trkpt lat="37.997238" lon="-1.217533">
        <ele>57.340011</ele>
        <time>2021-10-30T10:14:30.000Z</time>
      </trkpt>
      <trkpt lat="37.997235" lon="-1.217512">
        <ele>57.304002</ele>
        <time>2021-10-30T10:14:31.000Z</time>
      </trkpt>
      <trkpt lat="37.997215" lon="-1.217390">
        <ele>57.093755</ele>
        <time>2021-10-30T10:14:35.000Z</time>
      </trkpt>
      <trkpt lat="37.997199" lon="-1.217374">
        <ele>57.050141</ele>
        <time>2021-10-30T10:14:36.000Z</time>
      </trkpt>
      <trkpt lat="37.997136" lon="-1.217274">
        <ele>56.834130</ele>
        <time>2021-10-30T10:14:39.000Z</time>
      </trkpt>
      <trkpt lat="37.997078" lon="-1.217182">
        <ele>56.672312</ele>
        <time>2021-10-30T10:14:41.000Z</time>
      </trkpt>
      <trkpt lat="37.996994" lon="-1.217115">
        <ele>56.541779</ele>
        <time>2021-10-30T10:14:43.000Z</time>
      </trkpt>
      <trkpt lat="37.996948" lon="-1.217089">
        <ele>56.475527</ele>
        <time>2021-10-30T10:14:44.000Z</time>
      </trkpt>
      <trkpt lat="37.996842" lon="-1.217045">
        <ele>56.328796</ele>
        <time>2021-10-30T10:14:46.000Z</time>
      </trkpt>
      <trkpt lat="37.996732" lon="-1.216994">
        <ele>56.174717</ele>
        <time>2021-10-30T10:14:48.000Z</time>
      </trkpt>
      <trkpt lat="37.996402" lon="-1.216806">
        <ele>55.698804</ele>
        <time>2021-10-30T10:14:54.000Z</time>
      </trkpt>
      <trkpt lat="37.996293" lon="-1.216735">
        <ele>55.537608</ele>
        <time>2021-10-30T10:14:56.000Z</time>
      </trkpt>
      <trkpt lat="37.995929" lon="-1.216462">
        <ele>54.981318</ele>
        <time>2021-10-30T10:15:03.000Z</time>
      </trkpt>
      <trkpt lat="37.995737" lon="-1.216253">
        <ele>54.648503</ele>
        <time>2021-10-30T10:15:07.000Z</time>
      </trkpt>
      <trkpt lat="37.995653" lon="-1.216131">
        <ele>54.480535</ele>
        <time>2021-10-30T10:15:09.000Z</time>
      </trkpt>
      <trkpt lat="37.995367" lon="-1.215584">
        <ele>54.222247</ele>
        <time>2021-10-30T10:15:17.000Z</time>
      </trkpt>
      <trkpt lat="37.995293" lon="-1.215446">
        <ele>54.178562</ele>
        <time>2021-10-30T10:15:19.000Z</time>
      </trkpt>
      <trkpt lat="37.995216" lon="-1.215312">
        <ele>54.135159</ele>
        <time>2021-10-30T10:15:21.000Z</time>
      </trkpt>
      <trkpt lat="37.995181" lon="-1.215242">
        <ele>54.113463</ele>
        <time>2021-10-30T10:15:22.000Z</time>
      </trkpt>
      <trkpt lat="37.995111" lon="-1.215103">
        <ele>54.070291</ele>
        <time>2021-10-30T10:15:24.000Z</time>
      </trkpt>
      <trkpt lat="37.994919" lon="-1.214685">
        <ele>53.943668</ele>
        <time>2021-10-30T10:15:30.000Z</time>
      </trkpt>
      <trkpt lat="37.994740" lon="-1.214003">
        <ele>53.811282</ele>
        <time>2021-10-30T10:15:39.000Z</time>
      </trkpt>
      <trkpt lat="37.994699" lon="-1.213774">
        <ele>54.035856</ele>
        <time>2021-10-30T10:15:42.000Z</time>
      </trkpt>
      <trkpt lat="37.994619" lon="-1.213312">
        <ele>54.488207</ele>
        <time>2021-10-30T10:15:48.000Z</time>
      </trkpt>
      <trkpt lat="37.994485" lon="-1.212777">
        <ele>55.025047</ele>
        <time>2021-10-30T10:15:55.000Z</time>
      </trkpt>
      <trkpt lat="37.994363" lon="-1.212499">
        <ele>55.329341</ele>
        <time>2021-10-30T10:15:59.000Z</time>
      </trkpt>
      <trkpt lat="37.994332" lon="-1.212431">
        <ele>55.404466</ele>
        <time>2021-10-30T10:16:00.000Z</time>
      </trkpt>
      <trkpt lat="37.994216" lon="-1.212155">
        <ele>55.703597</ele>
        <time>2021-10-30T10:16:04.000Z</time>
      </trkpt>
      <trkpt lat="37.994110" lon="-1.211874">
        <ele>55.924820</ele>
        <time>2021-10-30T10:16:08.000Z</time>
      </trkpt>
      <trkpt lat="37.994000" lon="-1.211598">
        <ele>55.779179</ele>
        <time>2021-10-30T10:16:12.000Z</time>
      </trkpt>
      <trkpt lat="37.993709" lon="-1.211003">
        <ele>55.449428</ele>
        <time>2021-10-30T10:16:21.000Z</time>
      </trkpt>
      <trkpt lat="37.993474" lon="-1.210628">
        <ele>55.223819</ele>
        <time>2021-10-30T10:16:27.000Z</time>
      </trkpt>
      <trkpt lat="37.993301" lon="-1.210396">
        <ele>55.073417</ele>
        <time>2021-10-30T10:16:31.000Z</time>
      </trkpt>
      <trkpt lat="37.993073" lon="-1.210128">
        <ele>54.887711</ele>
        <time>2021-10-30T10:16:36.000Z</time>
      </trkpt>
      <trkpt lat="37.992936" lon="-1.209973">
        <ele>54.680468</ele>
        <time>2021-10-30T10:16:39.000Z</time>
      </trkpt>
      <trkpt lat="37.992845" lon="-1.209869">
        <ele>54.533956</ele>
        <time>2021-10-30T10:16:41.000Z</time>
      </trkpt>
      <trkpt lat="37.992476" lon="-1.209448">
        <ele>53.940308</ele>
        <time>2021-10-30T10:16:49.000Z</time>
      </trkpt>
      <trkpt lat="37.992248" lon="-1.209194">
        <ele>53.577340</ele>
        <time>2021-10-30T10:16:54.000Z</time>
      </trkpt>
      <trkpt lat="37.992023" lon="-1.208933">
        <ele>53.212640</ele>
        <time>2021-10-30T10:16:59.000Z</time>
      </trkpt>
      <trkpt lat="37.991886" lon="-1.208775">
        <ele>52.991162</ele>
        <time>2021-10-30T10:17:02.000Z</time>
      </trkpt>
      <trkpt lat="37.991439" lon="-1.208327">
        <ele>52.705197</ele>
        <time>2021-10-30T10:17:11.000Z</time>
      </trkpt>
      <trkpt lat="37.991105" lon="-1.208080">
        <ele>52.684585</ele>
        <time>2021-10-30T10:17:17.000Z</time>
      </trkpt>
      <trkpt lat="37.991047" lon="-1.208042">
        <ele>52.681105</ele>
        <time>2021-10-30T10:17:18.000Z</time>
      </trkpt>
      <trkpt lat="37.990991" lon="-1.208001">
        <ele>52.677658</ele>
        <time>2021-10-30T10:17:19.000Z</time>
      </trkpt>
      <trkpt lat="37.990934" lon="-1.207959">
        <ele>52.674144</ele>
        <time>2021-10-30T10:17:20.000Z</time>
      </trkpt>
      <trkpt lat="37.990821" lon="-1.207881">
        <ele>52.667285</ele>
        <time>2021-10-30T10:17:22.000Z</time>
      </trkpt>
      <trkpt lat="37.990425" lon="-1.207618">
        <ele>52.643455</ele>
        <time>2021-10-30T10:17:29.000Z</time>
      </trkpt>
      <trkpt lat="37.990089" lon="-1.207404">
        <ele>52.672201</ele>
        <time>2021-10-30T10:17:35.000Z</time>
      </trkpt>
      <trkpt lat="37.989980" lon="-1.207329">
        <ele>52.739960</ele>
        <time>2021-10-30T10:17:37.000Z</time>
      </trkpt>
      <trkpt lat="37.989647" lon="-1.207063">
        <ele>52.954992</ele>
        <time>2021-10-30T10:17:43.000Z</time>
      </trkpt>
      <trkpt lat="37.989398" lon="-1.206989">
        <ele>53.094745</ele>
        <time>2021-10-30T10:17:47.000Z</time>
      </trkpt>
      <trkpt lat="37.989274" lon="-1.207009">
        <ele>53.163052</ele>
        <time>2021-10-30T10:17:49.000Z</time>
      </trkpt>
      <trkpt lat="37.989156" lon="-1.207069">
        <ele>53.232520</ele>
        <time>2021-10-30T10:17:51.000Z</time>
      </trkpt>
      <trkpt lat="37.989037" lon="-1.207125">
        <ele>53.301878</ele>
        <time>2021-10-30T10:17:53.000Z</time>
      </trkpt>
      <trkpt lat="37.988913" lon="-1.207173">
        <ele>53.372724</ele>
        <time>2021-10-30T10:17:55.000Z</time>
      </trkpt>
      <trkpt lat="37.988416" lon="-1.207434">
        <ele>53.586057</ele>
        <time>2021-10-30T10:18:03.000Z</time>
      </trkpt>
      <trkpt lat="37.988350" lon="-1.207467">
        <ele>53.569039</ele>
        <time>2021-10-30T10:18:04.000Z</time>
      </trkpt>
      <trkpt lat="37.988156" lon="-1.207600">
        <ele>53.516141</ele>
        <time>2021-10-30T10:18:07.000Z</time>
      </trkpt>
      <trkpt lat="37.988029" lon="-1.207678">
        <ele>53.482293</ele>
        <time>2021-10-30T10:18:09.000Z</time>
      </trkpt>
      <trkpt lat="37.987538" lon="-1.207945">
        <ele>53.354145</ele>
        <time>2021-10-30T10:18:17.000Z</time>
      </trkpt>
      <trkpt lat="37.987131" lon="-1.208208">
        <ele>53.244575</ele>
        <time>2021-10-30T10:18:24.000Z</time>
      </trkpt>
      <trkpt lat="37.986921" lon="-1.208319">
        <ele>53.190002</ele>
        <time>2021-10-30T10:18:29.000Z</time>
      </trkpt>
      <trkpt lat="37.986887" lon="-1.208329">
        <ele>53.181629</ele>
        <time>2021-10-30T10:18:31.000Z</time>
      </trkpt>
      <trkpt lat="37.986865" lon="-1.208338">
        <ele>53.183617</ele>
        <time>2021-10-30T10:18:33.000Z</time>
      </trkpt>
      <trkpt lat="37.986842" lon="-1.208359">
        <ele>53.193427</ele>
        <time>2021-10-30T10:18:36.000Z</time>
      </trkpt>
      <trkpt lat="37.986789" lon="-1.208387">
        <ele>53.213304</ele>
        <time>2021-10-30T10:18:39.000Z</time>
      </trkpt>
      <trkpt lat="37.986761" lon="-1.208403">
        <ele>53.223936</ele>
        <time>2021-10-30T10:18:40.000Z</time>
      </trkpt>
      <trkpt lat="37.986697" lon="-1.208453">
        <ele>53.249958</ele>
        <time>2021-10-30T10:18:42.000Z</time>
      </trkpt>
      <trkpt lat="37.986663" lon="-1.208489">
        <ele>53.265290</ele>
        <time>2021-10-30T10:18:43.000Z</time>
      </trkpt>
      <trkpt lat="37.986427" lon="-1.208784">
        <ele>53.379990</ele>
        <time>2021-10-30T10:18:49.000Z</time>
      </trkpt>
      <trkpt lat="37.986381" lon="-1.208835">
        <ele>53.401140</ele>
        <time>2021-10-30T10:18:50.000Z</time>
      </trkpt>
      <trkpt lat="37.986335" lon="-1.208887">
        <ele>53.422471</ele>
        <time>2021-10-30T10:18:51.000Z</time>
      </trkpt>
      <trkpt lat="37.986252" lon="-1.209004">
        <ele>53.465425</ele>
        <time>2021-10-30T10:18:53.000Z</time>
      </trkpt>
      <trkpt lat="37.986213" lon="-1.209062">
        <ele>53.486229</ele>
        <time>2021-10-30T10:18:54.000Z</time>
      </trkpt>
      <trkpt lat="37.986135" lon="-1.209181">
        <ele>53.528464</ele>
        <time>2021-10-30T10:18:56.000Z</time>
      </trkpt>
      <trkpt lat="37.986096" lon="-1.209242">
        <ele>53.549897</ele>
        <time>2021-10-30T10:18:57.000Z</time>
      </trkpt>
      <trkpt lat="37.986058" lon="-1.209304">
        <ele>53.571329</ele>
        <time>2021-10-30T10:18:58.000Z</time>
      </trkpt>
      <trkpt lat="37.986018" lon="-1.209365">
        <ele>53.592982</ele>
        <time>2021-10-30T10:18:59.000Z</time>
      </trkpt>
      <trkpt lat="37.985978" lon="-1.209427">
        <ele>53.614846</ele>
        <time>2021-10-30T10:19:00.000Z</time>
      </trkpt>
      <trkpt lat="37.985940" lon="-1.209490">
        <ele>53.636494</ele>
        <time>2021-10-30T10:19:01.000Z</time>
      </trkpt>
      <trkpt lat="37.985824" lon="-1.209679">
        <ele>53.701861</ele>
        <time>2021-10-30T10:19:04.000Z</time>
      </trkpt>
      <trkpt lat="37.985786" lon="-1.209742">
        <ele>53.723509</ele>
        <time>2021-10-30T10:19:05.000Z</time>
      </trkpt>
      <trkpt lat="37.985678" lon="-1.209937">
        <ele>53.788544</ele>
        <time>2021-10-30T10:19:08.000Z</time>
      </trkpt>
      <trkpt lat="37.985623" lon="-1.210081">
        <ele>53.740400</ele>
        <time>2021-10-30T10:19:10.000Z</time>
      </trkpt>
      <trkpt lat="37.985599" lon="-1.210156">
        <ele>53.695593</ele>
        <time>2021-10-30T10:19:11.000Z</time>
      </trkpt>
      <trkpt lat="37.985493" lon="-1.210530">
        <ele>53.475588</ele>
        <time>2021-10-30T10:19:16.000Z</time>
      </trkpt>
      <trkpt lat="37.985433" lon="-1.210763">
        <ele>53.339902</ele>
        <time>2021-10-30T10:19:19.000Z</time>
      </trkpt>
      <trkpt lat="37.985394" lon="-1.210916">
        <ele>53.250890</ele>
        <time>2021-10-30T10:19:21.000Z</time>
      </trkpt>
      <trkpt lat="37.985264" lon="-1.211356">
        <ele>52.990778</ele>
        <time>2021-10-30T10:19:27.000Z</time>
      </trkpt>
      <trkpt lat="37.985203" lon="-1.211484">
        <ele>52.907979</ele>
        <time>2021-10-30T10:19:29.000Z</time>
      </trkpt>
      <trkpt lat="37.985014" lon="-1.211754">
        <ele>52.708085</ele>
        <time>2021-10-30T10:19:34.000Z</time>
      </trkpt>
      <trkpt lat="37.984972" lon="-1.211795">
        <ele>52.670866</ele>
        <time>2021-10-30T10:19:35.000Z</time>
      </trkpt>
      <trkpt lat="37.984832" lon="-1.211896">
        <ele>52.557758</ele>
        <time>2021-10-30T10:19:38.000Z</time>
      </trkpt>
      <trkpt lat="37.984671" lon="-1.211957">
        <ele>52.676775</ele>
        <time>2021-10-30T10:19:41.000Z</time>
      </trkpt>
      <trkpt lat="37.984316" lon="-1.212027">
        <ele>53.029064</ele>
        <time>2021-10-30T10:19:47.000Z</time>
      </trkpt>
      <trkpt lat="37.984254" lon="-1.212033">
        <ele>53.090037</ele>
        <time>2021-10-30T10:19:48.000Z</time>
      </trkpt>
      <trkpt lat="37.983945" lon="-1.212064">
        <ele>53.393985</ele>
        <time>2021-10-30T10:19:53.000Z</time>
      </trkpt>
      <trkpt lat="37.983570" lon="-1.212118">
        <ele>53.764066</ele>
        <time>2021-10-30T10:19:59.000Z</time>
      </trkpt>
      <trkpt lat="37.983196" lon="-1.212219">
        <ele>54.139023</ele>
        <time>2021-10-30T10:20:05.000Z</time>
      </trkpt>
      <trkpt lat="37.983135" lon="-1.212238">
        <ele>54.200615</ele>
        <time>2021-10-30T10:20:06.000Z</time>
      </trkpt>
      <trkpt lat="37.983013" lon="-1.212276">
        <ele>54.281450</ele>
        <time>2021-10-30T10:20:08.000Z</time>
      </trkpt>
      <trkpt lat="37.982534" lon="-1.212468">
        <ele>53.799343</ele>
        <time>2021-10-30T10:20:16.000Z</time>
      </trkpt>
      <trkpt lat="37.981995" lon="-1.212722">
        <ele>53.247519</ele>
        <time>2021-10-30T10:20:25.000Z</time>
      </trkpt>
      <trkpt lat="37.981933" lon="-1.212754">
        <ele>53.183280</ele>
        <time>2021-10-30T10:20:26.000Z</time>
      </trkpt>
      <trkpt lat="37.981809" lon="-1.212818">
        <ele>53.054803</ele>
        <time>2021-10-30T10:20:28.000Z</time>
      </trkpt>
      <trkpt lat="37.981331" lon="-1.213101">
        <ele>52.598114</ele>
        <time>2021-10-30T10:20:36.000Z</time>
      </trkpt>
      <trkpt lat="37.981272" lon="-1.213141">
        <ele>52.649058</ele>
        <time>2021-10-30T10:20:37.000Z</time>
      </trkpt>
      <trkpt lat="37.980818" lon="-1.213472">
        <ele>53.047826</ele>
        <time>2021-10-30T10:20:45.000Z</time>
      </trkpt>
      <trkpt lat="37.980626" lon="-1.213518">
        <ele>53.196627</ele>
        <time>2021-10-30T10:20:48.000Z</time>
      </trkpt>
      <trkpt lat="37.980563" lon="-1.213519">
        <ele>53.244609</ele>
        <time>2021-10-30T10:20:49.000Z</time>
      </trkpt>
      <trkpt lat="37.980398" lon="-1.213501">
        <ele>53.370728</ele>
        <time>2021-10-30T10:20:52.000Z</time>
      </trkpt>
      <trkpt lat="37.980286" lon="-1.213457">
        <ele>53.460017</ele>
        <time>2021-10-30T10:20:54.000Z</time>
      </trkpt>
      <trkpt lat="37.980052" lon="-1.213312">
        <ele>53.658340</ele>
        <time>2021-10-30T10:20:58.000Z</time>
      </trkpt>
      <trkpt lat="37.979999" lon="-1.213260">
        <ele>53.709364</ele>
        <time>2021-10-30T10:20:59.000Z</time>
      </trkpt>
      <trkpt lat="37.979903" lon="-1.213137">
        <ele>53.813270</ele>
        <time>2021-10-30T10:21:01.000Z</time>
      </trkpt>
      <trkpt lat="37.979783" lon="-1.212924">
        <ele>53.887440</ele>
        <time>2021-10-30T10:21:04.000Z</time>
      </trkpt>
      <trkpt lat="37.979751" lon="-1.212849">
        <ele>53.765108</ele>
        <time>2021-10-30T10:21:05.000Z</time>
      </trkpt>
      <trkpt lat="37.979717" lon="-1.212683">
        <ele>53.519084</ele>
        <time>2021-10-30T10:21:07.000Z</time>
      </trkpt>
      <trkpt lat="37.979706" lon="-1.212141">
        <ele>52.741363</ele>
        <time>2021-10-30T10:21:13.000Z</time>
      </trkpt>
      <trkpt lat="37.979713" lon="-1.211962">
        <ele>52.484284</ele>
        <time>2021-10-30T10:21:15.000Z</time>
      </trkpt>
      <trkpt lat="37.979716" lon="-1.211872">
        <ele>52.355069</ele>
        <time>2021-10-30T10:21:16.000Z</time>
      </trkpt>
      <trkpt lat="37.979723" lon="-1.211603">
        <ele>51.968996</ele>
        <time>2021-10-30T10:21:19.000Z</time>
      </trkpt>
      <trkpt lat="37.979731" lon="-1.211334">
        <ele>51.582859</ele>
        <time>2021-10-30T10:21:22.000Z</time>
      </trkpt>
      <trkpt lat="37.979728" lon="-1.211156">
        <ele>51.327471</ele>
        <time>2021-10-30T10:21:24.000Z</time>
      </trkpt>
      <trkpt lat="37.979666" lon="-1.210538">
        <ele>50.973217</ele>
        <time>2021-10-30T10:21:31.000Z</time>
      </trkpt>
      <trkpt lat="37.979538" lon="-1.209865">
        <ele>52.222270</ele>
        <time>2021-10-30T10:21:39.000Z</time>
      </trkpt>
      <trkpt lat="37.979520" lon="-1.209787">
        <ele>52.368902</ele>
        <time>2021-10-30T10:21:40.000Z</time>
      </trkpt>
      <trkpt lat="37.979380" lon="-1.209342">
        <ele>53.233347</ele>
        <time>2021-10-30T10:21:46.000Z</time>
      </trkpt>
      <trkpt lat="37.979353" lon="-1.209270">
        <ele>53.377199</ele>
        <time>2021-10-30T10:21:47.000Z</time>
      </trkpt>
      <trkpt lat="37.979325" lon="-1.209198">
        <ele>53.522049</ele>
        <time>2021-10-30T10:21:48.000Z</time>
      </trkpt>
      <trkpt lat="37.979269" lon="-1.209051">
        <ele>53.816613</ele>
        <time>2021-10-30T10:21:50.000Z</time>
      </trkpt>
      <trkpt lat="37.979133" lon="-1.208707">
        <ele>54.510941</ele>
        <time>2021-10-30T10:21:55.000Z</time>
      </trkpt>
      <trkpt lat="37.978929" lon="-1.208057">
        <ele>54.385978</ele>
        <time>2021-10-30T10:22:04.000Z</time>
      </trkpt>
      <trkpt lat="37.978898" lon="-1.207902">
        <ele>54.267574</ele>
        <time>2021-10-30T10:22:06.000Z</time>
      </trkpt>
      <trkpt lat="37.978868" lon="-1.207745">
        <ele>54.147959</ele>
        <time>2021-10-30T10:22:08.000Z</time>
      </trkpt>
      <trkpt lat="37.978813" lon="-1.207518">
        <ele>53.972119</ele>
        <time>2021-10-30T10:22:11.000Z</time>
      </trkpt>
      <trkpt lat="37.978688" lon="-1.206992">
        <ele>53.565335</ele>
        <time>2021-10-30T10:22:18.000Z</time>
      </trkpt>
      <trkpt lat="37.978570" lon="-1.206636">
        <ele>53.279383</ele>
        <time>2021-10-30T10:22:23.000Z</time>
      </trkpt>
      <trkpt lat="37.978514" lon="-1.206494">
        <ele>53.161816</ele>
        <time>2021-10-30T10:22:25.000Z</time>
      </trkpt>
      <trkpt lat="37.978291" lon="-1.206097">
        <ele>52.696489</ele>
        <time>2021-10-30T10:22:31.000Z</time>
      </trkpt>
      <trkpt lat="37.978086" lon="-1.205780">
        <ele>52.286980</ele>
        <time>2021-10-30T10:22:36.000Z</time>
      </trkpt>
      <trkpt lat="37.978047" lon="-1.205717">
        <ele>52.206976</ele>
        <time>2021-10-30T10:22:37.000Z</time>
      </trkpt>
      <trkpt lat="37.977975" lon="-1.205603">
        <ele>52.061082</ele>
        <time>2021-10-30T10:22:39.000Z</time>
      </trkpt>
      <trkpt lat="37.977671" lon="-1.205112">
        <ele>51.437522</ele>
        <time>2021-10-30T10:22:48.000Z</time>
      </trkpt>
      <trkpt lat="37.977537" lon="-1.204884">
        <ele>51.153483</ele>
        <time>2021-10-30T10:22:52.000Z</time>
      </trkpt>
      <trkpt lat="37.977384" lon="-1.204573">
        <ele>50.832363</ele>
        <time>2021-10-30T10:22:57.000Z</time>
      </trkpt>
      <trkpt lat="37.977321" lon="-1.204349">
        <ele>50.911152</ele>
        <time>2021-10-30T10:23:00.000Z</time>
      </trkpt>
      <trkpt lat="37.977308" lon="-1.204189">
        <ele>50.964437</ele>
        <time>2021-10-30T10:23:02.000Z</time>
      </trkpt>
      <trkpt lat="37.977314" lon="-1.204118">
        <ele>50.988093</ele>
        <time>2021-10-30T10:23:03.000Z</time>
      </trkpt>
      <trkpt lat="37.977343" lon="-1.203975">
        <ele>51.037009</ele>
        <time>2021-10-30T10:23:05.000Z</time>
      </trkpt>
      <trkpt lat="37.977379" lon="-1.203905">
        <ele>51.064698</ele>
        <time>2021-10-30T10:23:06.000Z</time>
      </trkpt>
      <trkpt lat="37.977455" lon="-1.203802">
        <ele>51.111436</ele>
        <time>2021-10-30T10:23:08.000Z</time>
      </trkpt>
      <trkpt lat="37.977525" lon="-1.203713">
        <ele>51.153087</ele>
        <time>2021-10-30T10:23:10.000Z</time>
      </trkpt>
      <trkpt lat="37.977555" lon="-1.203663">
        <ele>51.173904</ele>
        <time>2021-10-30T10:23:11.000Z</time>
      </trkpt>
      <trkpt lat="37.977662" lon="-1.203446">
        <ele>51.258698</ele>
        <time>2021-10-30T10:23:15.000Z</time>
      </trkpt>
      <trkpt lat="37.977753" lon="-1.203279">
        <ele>51.325954</ele>
        <time>2021-10-30T10:23:18.000Z</time>
      </trkpt>
      <trkpt lat="37.977859" lon="-1.203120">
        <ele>51.394940</ele>
        <time>2021-10-30T10:23:21.000Z</time>
      </trkpt>
      <trkpt lat="37.977895" lon="-1.203067">
        <ele>51.418117</ele>
        <time>2021-10-30T10:23:22.000Z</time>
      </trkpt>
      <trkpt lat="37.978045" lon="-1.202862">
        <ele>51.510778</ele>
        <time>2021-10-30T10:23:26.000Z</time>
      </trkpt>
      <trkpt lat="37.978242" lon="-1.202610">
        <ele>51.468948</ele>
        <time>2021-10-30T10:23:31.000Z</time>
      </trkpt>
      <trkpt lat="37.978328" lon="-1.202519">
        <ele>51.369724</ele>
        <time>2021-10-30T10:23:33.000Z</time>
      </trkpt>
      <trkpt lat="37.978373" lon="-1.202474">
        <ele>51.318956</ele>
        <time>2021-10-30T10:23:34.000Z</time>
      </trkpt>
      <trkpt lat="37.978509" lon="-1.202350">
        <ele>51.170565</ele>
        <time>2021-10-30T10:23:37.000Z</time>
      </trkpt>
      <trkpt lat="37.978703" lon="-1.202203">
        <ele>50.970351</ele>
        <time>2021-10-30T10:23:41.000Z</time>
      </trkpt>
      <trkpt lat="37.979106" lon="-1.201936">
        <ele>50.567525</ele>
        <time>2021-10-30T10:23:49.000Z</time>
      </trkpt>
      <trkpt lat="37.979159" lon="-1.201908">
        <ele>50.516657</ele>
        <time>2021-10-30T10:23:50.000Z</time>
      </trkpt>
      <trkpt lat="37.979213" lon="-1.201883">
        <ele>50.465726</ele>
        <time>2021-10-30T10:23:51.000Z</time>
      </trkpt>
      <trkpt lat="37.979597" lon="-1.201763">
        <ele>50.115324</ele>
        <time>2021-10-30T10:23:58.000Z</time>
      </trkpt>
      <trkpt lat="37.979763" lon="-1.201720">
        <ele>50.007183</ele>
        <time>2021-10-30T10:24:01.000Z</time>
      </trkpt>
      <trkpt lat="37.980097" lon="-1.201641">
        <ele>50.399590</ele>
        <time>2021-10-30T10:24:07.000Z</time>
      </trkpt>
      <trkpt lat="37.980319" lon="-1.201590">
        <ele>50.660164</ele>
        <time>2021-10-30T10:24:11.000Z</time>
      </trkpt>
      <trkpt lat="37.980592" lon="-1.201522">
        <ele>50.981491</ele>
        <time>2021-10-30T10:24:16.000Z</time>
      </trkpt>
      <trkpt lat="37.980790" lon="-1.201451">
        <ele>51.219134</ele>
        <time>2021-10-30T10:24:20.000Z</time>
      </trkpt>
      <trkpt lat="37.980935" lon="-1.201386">
        <ele>51.396752</ele>
        <time>2021-10-30T10:24:23.000Z</time>
      </trkpt>
      <trkpt lat="37.980990" lon="-1.201358">
        <ele>51.465199</ele>
        <time>2021-10-30T10:24:24.000Z</time>
      </trkpt>
      <trkpt lat="37.981101" lon="-1.201302">
        <ele>51.603165</ele>
        <time>2021-10-30T10:24:26.000Z</time>
      </trkpt>
      <trkpt lat="37.981356" lon="-1.201126">
        <ele>51.938445</ele>
        <time>2021-10-30T10:24:31.000Z</time>
      </trkpt>
      <trkpt lat="37.981406" lon="-1.201086">
        <ele>52.006716</ele>
        <time>2021-10-30T10:24:32.000Z</time>
      </trkpt>
      <trkpt lat="37.981739" lon="-1.200786">
        <ele>52.058030</ele>
        <time>2021-10-30T10:24:39.000Z</time>
      </trkpt>
      <trkpt lat="37.982213" lon="-1.200359">
        <ele>52.053555</ele>
        <time>2021-10-30T10:24:49.000Z</time>
      </trkpt>
      <trkpt lat="37.982306" lon="-1.200271">
        <ele>52.052662</ele>
        <time>2021-10-30T10:24:51.000Z</time>
      </trkpt>
      <trkpt lat="37.982644" lon="-1.199986">
        <ele>52.049538</ele>
        <time>2021-10-30T10:24:58.000Z</time>
      </trkpt>
      <trkpt lat="37.982839" lon="-1.199829">
        <ele>52.047760</ele>
        <time>2021-10-30T10:25:02.000Z</time>
      </trkpt>
      <trkpt lat="37.982987" lon="-1.199729">
        <ele>51.911021</ele>
        <time>2021-10-30T10:25:05.000Z</time>
      </trkpt>
      <trkpt lat="37.983305" lon="-1.199518">
        <ele>51.157643</ele>
        <time>2021-10-30T10:25:11.000Z</time>
      </trkpt>
      <trkpt lat="37.983469" lon="-1.199406">
        <ele>50.766641</ele>
        <time>2021-10-30T10:25:14.000Z</time>
      </trkpt>
      <trkpt lat="37.983673" lon="-1.199227">
        <ele>50.245931</ele>
        <time>2021-10-30T10:25:18.000Z</time>
      </trkpt>
      <trkpt lat="37.983715" lon="-1.199166">
        <ele>50.111908</ele>
        <time>2021-10-30T10:25:19.000Z</time>
      </trkpt>
      <trkpt lat="37.983775" lon="-1.199025">
        <ele>49.846768</ele>
        <time>2021-10-30T10:25:21.000Z</time>
      </trkpt>
      <trkpt lat="37.983795" lon="-1.198950">
        <ele>49.715757</ele>
        <time>2021-10-30T10:25:22.000Z</time>
      </trkpt>
      <trkpt lat="37.983809" lon="-1.198872">
        <ele>49.583388</ele>
        <time>2021-10-30T10:25:23.000Z</time>
      </trkpt>
      <trkpt lat="37.983818" lon="-1.198713">
        <ele>49.319618</ele>
        <time>2021-10-30T10:25:25.000Z</time>
      </trkpt>
      <trkpt lat="37.983815" lon="-1.198634">
        <ele>49.188747</ele>
        <time>2021-10-30T10:25:26.000Z</time>
      </trkpt>
      <trkpt lat="37.983783" lon="-1.198401">
        <ele>48.797399</ele>
        <time>2021-10-30T10:25:29.000Z</time>
      </trkpt>
      <trkpt lat="37.983742" lon="-1.198256">
        <ele>48.542499</ele>
        <time>2021-10-30T10:25:31.000Z</time>
      </trkpt>
      <trkpt lat="37.983693" lon="-1.198120">
        <ele>48.295067</ele>
        <time>2021-10-30T10:25:33.000Z</time>
      </trkpt>
      <trkpt lat="37.983667" lon="-1.198050">
        <ele>48.254195</ele>
        <time>2021-10-30T10:25:34.000Z</time>
      </trkpt>
      <trkpt lat="37.983641" lon="-1.197979">
        <ele>48.233264</ele>
        <time>2021-10-30T10:25:35.000Z</time>
      </trkpt>
      <trkpt lat="37.983569" lon="-1.197768">
        <ele>48.171793</ele>
        <time>2021-10-30T10:25:38.000Z</time>
      </trkpt>
      <trkpt lat="37.983527" lon="-1.197625">
        <ele>48.130994</ele>
        <time>2021-10-30T10:25:40.000Z</time>
      </trkpt>
      <trkpt lat="37.983508" lon="-1.197554">
        <ele>48.110948</ele>
        <time>2021-10-30T10:25:41.000Z</time>
      </trkpt>
      <trkpt lat="37.983462" lon="-1.197408">
        <ele>48.068911</ele>
        <time>2021-10-30T10:25:43.000Z</time>
      </trkpt>
      <trkpt lat="37.983438" lon="-1.197336">
        <ele>48.048011</ele>
        <time>2021-10-30T10:25:44.000Z</time>
      </trkpt>
      <trkpt lat="37.983416" lon="-1.197266">
        <ele>48.027864</ele>
        <time>2021-10-30T10:25:45.000Z</time>
      </trkpt>
      <trkpt lat="37.983393" lon="-1.197195">
        <ele>48.007341</ele>
        <time>2021-10-30T10:25:46.000Z</time>
      </trkpt>
      <trkpt lat="37.983204" lon="-1.196622">
        <ele>47.841275</ele>
        <time>2021-10-30T10:25:54.000Z</time>
      </trkpt>
      <trkpt lat="37.983014" lon="-1.196030">
        <ele>47.670383</ele>
        <time>2021-10-30T10:26:02.000Z</time>
      </trkpt>
      <trkpt lat="37.982883" lon="-1.195405">
        <ele>47.675808</ele>
        <time>2021-10-30T10:26:10.000Z</time>
      </trkpt>
      <trkpt lat="37.982884" lon="-1.194901">
        <ele>47.688103</ele>
        <time>2021-10-30T10:26:16.000Z</time>
      </trkpt>
      <trkpt lat="37.982900" lon="-1.194336">
        <ele>47.701895</ele>
        <time>2021-10-30T10:26:23.000Z</time>
      </trkpt>
      <trkpt lat="37.982914" lon="-1.193703">
        <ele>47.715429</ele>
        <time>2021-10-30T10:26:31.000Z</time>
      </trkpt>
      <trkpt lat="37.982923" lon="-1.193625">
        <ele>47.712619</ele>
        <time>2021-10-30T10:26:32.000Z</time>
      </trkpt>
      <trkpt lat="37.983010" lon="-1.193160">
        <ele>47.695586</ele>
        <time>2021-10-30T10:26:38.000Z</time>
      </trkpt>
      <trkpt lat="37.983124" lon="-1.192789">
        <ele>47.681394</ele>
        <time>2021-10-30T10:26:43.000Z</time>
      </trkpt>
      <trkpt lat="37.983224" lon="-1.192495">
        <ele>47.669981</ele>
        <time>2021-10-30T10:26:47.000Z</time>
      </trkpt>
      <trkpt lat="37.983342" lon="-1.192055">
        <ele>47.653416</ele>
        <time>2021-10-30T10:26:53.000Z</time>
      </trkpt>
      <trkpt lat="37.983393" lon="-1.191827">
        <ele>47.644969</ele>
        <time>2021-10-30T10:26:56.000Z</time>
      </trkpt>
      <trkpt lat="37.983484" lon="-1.191189">
        <ele>47.870968</ele>
        <time>2021-10-30T10:27:04.000Z</time>
      </trkpt>
      <trkpt lat="37.983520" lon="-1.190708">
        <ele>48.174550</ele>
        <time>2021-10-30T10:27:10.000Z</time>
      </trkpt>
      <trkpt lat="37.983501" lon="-1.190250">
        <ele>48.462719</ele>
        <time>2021-10-30T10:27:16.000Z</time>
      </trkpt>
      <trkpt lat="37.983497" lon="-1.189841">
        <ele>48.719722</ele>
        <time>2021-10-30T10:27:22.000Z</time>
      </trkpt>
      <trkpt lat="37.983499" lon="-1.189418">
        <ele>48.985506</ele>
        <time>2021-10-30T10:27:28.000Z</time>
      </trkpt>
      <trkpt lat="37.983499" lon="-1.189199">
        <ele>49.111410</ele>
        <time>2021-10-30T10:27:31.000Z</time>
      </trkpt>
      <trkpt lat="37.983492" lon="-1.188839">
        <ele>49.288705</ele>
        <time>2021-10-30T10:27:36.000Z</time>
      </trkpt>
      <trkpt lat="37.983480" lon="-1.188546">
        <ele>49.433154</ele>
        <time>2021-10-30T10:27:40.000Z</time>
      </trkpt>
      <trkpt lat="37.983473" lon="-1.188397">
        <ele>49.506642</ele>
        <time>2021-10-30T10:27:42.000Z</time>
      </trkpt>
      <trkpt lat="37.983465" lon="-1.188250">
        <ele>49.579188</ele>
        <time>2021-10-30T10:27:44.000Z</time>
      </trkpt>
      <trkpt lat="37.983460" lon="-1.188021">
        <ele>49.691976</ele>
        <time>2021-10-30T10:27:47.000Z</time>
      </trkpt>
      <trkpt lat="37.983455" lon="-1.187874">
        <ele>49.764416</ele>
        <time>2021-10-30T10:27:49.000Z</time>
      </trkpt>
      <trkpt lat="37.983450" lon="-1.187663">
        <ele>49.868346</ele>
        <time>2021-10-30T10:27:52.000Z</time>
      </trkpt>
      <trkpt lat="37.983437" lon="-1.187442">
        <ele>49.977455</ele>
        <time>2021-10-30T10:27:55.000Z</time>
      </trkpt>
      <trkpt lat="37.983423" lon="-1.186829">
        <ele>49.989047</ele>
        <time>2021-10-30T10:28:03.000Z</time>
      </trkpt>
      <trkpt lat="37.983418" lon="-1.186746">
        <ele>49.892974</ele>
        <time>2021-10-30T10:28:04.000Z</time>
      </trkpt>
      <trkpt lat="37.983408" lon="-1.186580">
        <ele>49.700827</ele>
        <time>2021-10-30T10:28:06.000Z</time>
      </trkpt>
      <trkpt lat="37.983379" lon="-1.186260">
        <ele>49.329067</ele>
        <time>2021-10-30T10:28:10.000Z</time>
      </trkpt>
      <trkpt lat="37.983370" lon="-1.186179">
        <ele>49.234656</ele>
        <time>2021-10-30T10:28:11.000Z</time>
      </trkpt>
      <trkpt lat="37.983362" lon="-1.186099">
        <ele>49.141584</ele>
        <time>2021-10-30T10:28:12.000Z</time>
      </trkpt>
      <trkpt lat="37.983286" lon="-1.185629">
        <ele>48.587837</ele>
        <time>2021-10-30T10:28:18.000Z</time>
      </trkpt>
      <trkpt lat="37.983164" lon="-1.185199">
        <ele>48.060379</ele>
        <time>2021-10-30T10:28:24.000Z</time>
      </trkpt>
      <trkpt lat="37.983088" lon="-1.184965">
        <ele>47.768277</ele>
        <time>2021-10-30T10:28:28.000Z</time>
      </trkpt>
      <trkpt lat="37.983050" lon="-1.184849">
        <ele>47.623293</ele>
        <time>2021-10-30T10:28:30.000Z</time>
      </trkpt>
      <trkpt lat="37.983030" lon="-1.184795">
        <ele>47.559035</ele>
        <time>2021-10-30T10:28:31.000Z</time>
      </trkpt>
      <trkpt lat="37.982929" lon="-1.184569">
        <ele>47.574514</ele>
        <time>2021-10-30T10:28:35.000Z</time>
      </trkpt>
      <trkpt lat="37.982825" lon="-1.184418">
        <ele>47.586461</ele>
        <time>2021-10-30T10:28:38.000Z</time>
      </trkpt>
      <trkpt lat="37.982747" lon="-1.184300">
        <ele>47.595636</ele>
        <time>2021-10-30T10:28:40.000Z</time>
      </trkpt>
      <trkpt lat="37.982627" lon="-1.184118">
        <ele>47.609773</ele>
        <time>2021-10-30T10:28:43.000Z</time>
      </trkpt>
      <trkpt lat="37.982586" lon="-1.184058">
        <ele>47.614504</ele>
        <time>2021-10-30T10:28:44.000Z</time>
      </trkpt>
      <trkpt lat="37.982412" lon="-1.183827">
        <ele>47.633541</ele>
        <time>2021-10-30T10:28:48.000Z</time>
      </trkpt>
      <trkpt lat="37.982368" lon="-1.183778">
        <ele>47.637967</ele>
        <time>2021-10-30T10:28:49.000Z</time>
      </trkpt>
      <trkpt lat="37.982283" lon="-1.183687">
        <ele>47.646373</ele>
        <time>2021-10-30T10:28:51.000Z</time>
      </trkpt>
      <trkpt lat="37.982111" lon="-1.183495">
        <ele>47.663691</ele>
        <time>2021-10-30T10:28:55.000Z</time>
      </trkpt>
      <trkpt lat="37.982026" lon="-1.183403">
        <ele>47.672136</ele>
        <time>2021-10-30T10:28:57.000Z</time>
      </trkpt>
      <trkpt lat="37.981846" lon="-1.183203">
        <ele>47.690222</ele>
        <time>2021-10-30T10:29:01.000Z</time>
      </trkpt>
      <trkpt lat="37.981695" lon="-1.183026">
        <ele>47.696318</ele>
        <time>2021-10-30T10:29:04.000Z</time>
      </trkpt>
      <trkpt lat="37.981646" lon="-1.182970">
        <ele>47.697022</ele>
        <time>2021-10-30T10:29:05.000Z</time>
      </trkpt>
      <trkpt lat="37.981554" lon="-1.182857">
        <ele>47.698388</ele>
        <time>2021-10-30T10:29:07.000Z</time>
      </trkpt>
      <trkpt lat="37.981279" lon="-1.182539">
        <ele>47.702358</ele>
        <time>2021-10-30T10:29:13.000Z</time>
      </trkpt>
      <trkpt lat="37.981233" lon="-1.182488">
        <ele>47.703010</ele>
        <time>2021-10-30T10:29:14.000Z</time>
      </trkpt>
      <trkpt lat="37.980906" lon="-1.182139">
        <ele>47.707569</ele>
        <time>2021-10-30T10:29:21.000Z</time>
      </trkpt>
      <trkpt lat="37.980573" lon="-1.181767">
        <ele>47.712303</ele>
        <time>2021-10-30T10:29:28.000Z</time>
      </trkpt>
      <trkpt lat="37.980428" lon="-1.181608">
        <ele>47.733686</ele>
        <time>2021-10-30T10:29:31.000Z</time>
      </trkpt>
      <trkpt lat="37.980287" lon="-1.181448">
        <ele>47.835454</ele>
        <time>2021-10-30T10:29:34.000Z</time>
      </trkpt>
      <trkpt lat="37.980194" lon="-1.181343">
        <ele>47.902427</ele>
        <time>2021-10-30T10:29:36.000Z</time>
      </trkpt>
      <trkpt lat="37.979920" lon="-1.181037">
        <ele>48.098802</ele>
        <time>2021-10-30T10:29:42.000Z</time>
      </trkpt>
      <trkpt lat="37.979700" lon="-1.180786">
        <ele>48.257972</ele>
        <time>2021-10-30T10:29:47.000Z</time>
      </trkpt>
      <trkpt lat="37.979663" lon="-1.180728">
        <ele>48.289612</ele>
        <time>2021-10-30T10:29:48.000Z</time>
      </trkpt>
      <trkpt lat="37.979551" lon="-1.180476">
        <ele>48.412285</ele>
        <time>2021-10-30T10:29:52.000Z</time>
      </trkpt>
      <trkpt lat="37.979534" lon="-1.180402">
        <ele>48.444970</ele>
        <time>2021-10-30T10:29:53.000Z</time>
      </trkpt>
      <trkpt lat="37.979507" lon="-1.180168">
        <ele>48.545252</ele>
        <time>2021-10-30T10:29:56.000Z</time>
      </trkpt>
      <trkpt lat="37.979494" lon="-1.180018">
        <ele>48.609241</ele>
        <time>2021-10-30T10:29:58.000Z</time>
      </trkpt>
      <trkpt lat="37.979493" lon="-1.179945">
        <ele>48.640200</ele>
        <time>2021-10-30T10:29:59.000Z</time>
      </trkpt>
      <trkpt lat="37.979499" lon="-1.179803">
        <ele>48.683990</ele>
        <time>2021-10-30T10:30:01.000Z</time>
      </trkpt>
      <trkpt lat="37.979515" lon="-1.179661">
        <ele>48.691803</ele>
        <time>2021-10-30T10:30:03.000Z</time>
      </trkpt>
      <trkpt lat="37.979549" lon="-1.179101">
        <ele>48.722396</ele>
        <time>2021-10-30T10:30:10.000Z</time>
      </trkpt>
      <trkpt lat="37.979578" lon="-1.178633">
        <ele>48.747967</ele>
        <time>2021-10-30T10:30:16.000Z</time>
      </trkpt>
      <trkpt lat="37.979575" lon="-1.178162">
        <ele>48.773623</ele>
        <time>2021-10-30T10:30:22.000Z</time>
      </trkpt>
      <trkpt lat="37.979560" lon="-1.178015">
        <ele>48.781697</ele>
        <time>2021-10-30T10:30:24.000Z</time>
      </trkpt>
      <trkpt lat="37.979463" lon="-1.177479">
        <ele>48.736858</ele>
        <time>2021-10-30T10:30:31.000Z</time>
      </trkpt>
      <trkpt lat="37.979427" lon="-1.177251">
        <ele>48.586270</ele>
        <time>2021-10-30T10:30:34.000Z</time>
      </trkpt>
      <trkpt lat="37.979411" lon="-1.177114">
        <ele>48.496579</ele>
        <time>2021-10-30T10:30:36.000Z</time>
      </trkpt>
      <trkpt lat="37.979393" lon="-1.176988">
        <ele>48.413651</ele>
        <time>2021-10-30T10:30:38.000Z</time>
      </trkpt>
      <trkpt lat="37.979386" lon="-1.176926">
        <ele>48.373089</ele>
        <time>2021-10-30T10:30:39.000Z</time>
      </trkpt>
      <trkpt lat="37.979378" lon="-1.176802">
        <ele>48.292518</ele>
        <time>2021-10-30T10:30:41.000Z</time>
      </trkpt>
      <trkpt lat="37.979386" lon="-1.176510">
        <ele>48.103302</ele>
        <time>2021-10-30T10:30:46.000Z</time>
      </trkpt>
      <trkpt lat="37.979389" lon="-1.176211">
        <ele>47.909651</ele>
        <time>2021-10-30T10:30:51.000Z</time>
      </trkpt>
      <trkpt lat="37.979439" lon="-1.175650">
        <ele>47.544028</ele>
        <time>2021-10-30T10:30:59.000Z</time>
      </trkpt>
      <trkpt lat="37.979499" lon="-1.175353">
        <ele>47.345472</ele>
        <time>2021-10-30T10:31:03.000Z</time>
      </trkpt>
      <trkpt lat="37.979546" lon="-1.175117">
        <ele>47.211909</ele>
        <time>2021-10-30T10:31:06.000Z</time>
      </trkpt>
      <trkpt lat="37.979573" lon="-1.174973">
        <ele>47.132506</ele>
        <time>2021-10-30T10:31:08.000Z</time>
      </trkpt>
      <trkpt lat="37.979588" lon="-1.174903">
        <ele>47.093592</ele>
        <time>2021-10-30T10:31:09.000Z</time>
      </trkpt>
      <trkpt lat="37.979630" lon="-1.174763">
        <ele>47.013234</ele>
        <time>2021-10-30T10:31:11.000Z</time>
      </trkpt>
      <trkpt lat="37.979656" lon="-1.174692">
        <ele>46.971237</ele>
        <time>2021-10-30T10:31:12.000Z</time>
      </trkpt>
      <trkpt lat="37.979848" lon="-1.174294">
        <ele>46.720921</ele>
        <time>2021-10-30T10:31:18.000Z</time>
      </trkpt>
      <trkpt lat="37.979881" lon="-1.174234">
        <ele>46.681674</ele>
        <time>2021-10-30T10:31:19.000Z</time>
      </trkpt>
      <trkpt lat="37.979912" lon="-1.174174">
        <ele>46.643189</ele>
        <time>2021-10-30T10:31:20.000Z</time>
      </trkpt>
      <trkpt lat="37.980135" lon="-1.173739">
        <ele>46.364826</ele>
        <time>2021-10-30T10:31:27.000Z</time>
      </trkpt>
      <trkpt lat="37.980167" lon="-1.173673">
        <ele>46.323260</ele>
        <time>2021-10-30T10:31:28.000Z</time>
      </trkpt>
      <trkpt lat="37.980197" lon="-1.173607">
        <ele>46.282389</ele>
        <time>2021-10-30T10:31:29.000Z</time>
      </trkpt>
      <trkpt lat="37.980229" lon="-1.173541">
        <ele>46.240823</ele>
        <time>2021-10-30T10:31:30.000Z</time>
      </trkpt>
      <trkpt lat="37.980261" lon="-1.173476">
        <ele>46.199712</ele>
        <time>2021-10-30T10:31:31.000Z</time>
      </trkpt>
      <trkpt lat="37.980293" lon="-1.173411">
        <ele>46.158601</ele>
        <time>2021-10-30T10:31:32.000Z</time>
      </trkpt>
      <trkpt lat="37.980355" lon="-1.173279">
        <ele>46.126094</ele>
        <time>2021-10-30T10:31:34.000Z</time>
      </trkpt>
      <trkpt lat="37.980417" lon="-1.173143">
        <ele>46.193035</ele>
        <time>2021-10-30T10:31:36.000Z</time>
      </trkpt>
      <trkpt lat="37.980610" lon="-1.172739">
        <ele>46.394321</ele>
        <time>2021-10-30T10:31:42.000Z</time>
      </trkpt>
      <trkpt lat="37.980739" lon="-1.172477">
        <ele>46.525944</ele>
        <time>2021-10-30T10:32:54.000Z</time>
      </trkpt>
      <trkpt lat="37.980746" lon="-1.172451">
        <ele>46.537651</ele>
        <time>2021-10-30T10:32:55.000Z</time>
      </trkpt>
      <trkpt lat="37.980774" lon="-1.172381">
        <ele>46.571097</ele>
        <time>2021-10-30T10:32:57.000Z</time>
      </trkpt>
      <trkpt lat="37.980827" lon="-1.172304">
        <ele>46.614654</ele>
        <time>2021-10-30T10:32:59.000Z</time>
      </trkpt>
      <trkpt lat="37.980855" lon="-1.172263">
        <ele>46.637769</ele>
        <time>2021-10-30T10:33:00.000Z</time>
      </trkpt>
      <trkpt lat="37.981027" lon="-1.172090">
        <ele>46.756420</ele>
        <time>2021-10-30T10:33:05.000Z</time>
      </trkpt>
      <trkpt lat="37.981339" lon="-1.171937">
        <ele>46.937237</ele>
        <time>2021-10-30T10:33:11.000Z</time>
      </trkpt>
      <trkpt lat="37.981635" lon="-1.171904">
        <ele>47.086753</ele>
        <time>2021-10-30T10:33:16.000Z</time>
      </trkpt>
      <trkpt lat="37.981695" lon="-1.171915">
        <ele>47.102658</ele>
        <time>2021-10-30T10:33:17.000Z</time>
      </trkpt>
      <trkpt lat="37.982030" lon="-1.172026">
        <ele>47.193497</ele>
        <time>2021-10-30T10:33:23.000Z</time>
      </trkpt>
      <trkpt lat="37.982084" lon="-1.172047">
        <ele>47.208315</ele>
        <time>2021-10-30T10:33:24.000Z</time>
      </trkpt>
      <trkpt lat="37.982140" lon="-1.172069">
        <ele>47.223695</ele>
        <time>2021-10-30T10:33:25.000Z</time>
      </trkpt>
      <trkpt lat="37.982250" lon="-1.172112">
        <ele>47.253894</ele>
        <time>2021-10-30T10:33:27.000Z</time>
      </trkpt>
      <trkpt lat="37.982573" lon="-1.172247">
        <ele>47.343116</ele>
        <time>2021-10-30T10:33:33.000Z</time>
      </trkpt>
      <trkpt lat="37.982723" lon="-1.172303">
        <ele>47.384139</ele>
        <time>2021-10-30T10:33:36.000Z</time>
      </trkpt>
      <trkpt lat="37.982887" lon="-1.172354">
        <ele>47.428440</ele>
        <time>2021-10-30T10:33:39.000Z</time>
      </trkpt>
      <trkpt lat="37.983001" lon="-1.172384">
        <ele>47.458986</ele>
        <time>2021-10-30T10:33:41.000Z</time>
      </trkpt>
      <trkpt lat="37.983119" lon="-1.172409">
        <ele>47.490373</ele>
        <time>2021-10-30T10:33:43.000Z</time>
      </trkpt>
      <trkpt lat="37.983236" lon="-1.172428">
        <ele>47.521320</ele>
        <time>2021-10-30T10:33:45.000Z</time>
      </trkpt>
      <trkpt lat="37.983297" lon="-1.172434">
        <ele>47.537372</ele>
        <time>2021-10-30T10:33:46.000Z</time>
      </trkpt>
      <trkpt lat="37.983603" lon="-1.172424">
        <ele>47.826407</ele>
        <time>2021-10-30T10:33:51.000Z</time>
      </trkpt>
      <trkpt lat="37.983665" lon="-1.172415">
        <ele>47.891944</ele>
        <time>2021-10-30T10:33:52.000Z</time>
      </trkpt>
      <trkpt lat="37.983970" lon="-1.172345">
        <ele>48.217450</ele>
        <time>2021-10-30T10:33:57.000Z</time>
      </trkpt>
      <trkpt lat="37.984032" lon="-1.172325">
        <ele>48.284634</ele>
        <time>2021-10-30T10:33:58.000Z</time>
      </trkpt>
      <trkpt lat="37.984095" lon="-1.172306">
        <ele>48.352639</ele>
        <time>2021-10-30T10:33:59.000Z</time>
      </trkpt>
      <trkpt lat="37.984219" lon="-1.172266">
        <ele>48.487006</ele>
        <time>2021-10-30T10:34:01.000Z</time>
      </trkpt>
      <trkpt lat="37.984340" lon="-1.172220">
        <ele>48.619661</ele>
        <time>2021-10-30T10:34:03.000Z</time>
      </trkpt>
      <trkpt lat="37.984516" lon="-1.172128">
        <ele>48.819567</ele>
        <time>2021-10-30T10:34:06.000Z</time>
      </trkpt>
      <trkpt lat="37.984570" lon="-1.172086">
        <ele>48.886085</ele>
        <time>2021-10-30T10:34:07.000Z</time>
      </trkpt>
      <trkpt lat="37.984621" lon="-1.172036">
        <ele>48.953772</ele>
        <time>2021-10-30T10:34:08.000Z</time>
      </trkpt>
      <trkpt lat="37.984752" lon="-1.171866">
        <ele>49.150565</ele>
        <time>2021-10-30T10:34:11.000Z</time>
      </trkpt>
      <trkpt lat="37.984789" lon="-1.171803">
        <ele>49.215597</ele>
        <time>2021-10-30T10:34:12.000Z</time>
      </trkpt>
      <trkpt lat="37.984938" lon="-1.171374">
        <ele>49.111518</ele>
        <time>2021-10-30T10:34:18.000Z</time>
      </trkpt>
      <trkpt lat="37.984988" lon="-1.170910">
        <ele>48.353783</ele>
        <time>2021-10-30T10:34:24.000Z</time>
      </trkpt>
      <trkpt lat="37.985000" lon="-1.170442">
        <ele>47.596160</ele>
        <time>2021-10-30T10:34:30.000Z</time>
      </trkpt>
      <trkpt lat="37.985000" lon="-1.170363">
        <ele>47.468338</ele>
        <time>2021-10-30T10:34:31.000Z</time>
      </trkpt>
      <trkpt lat="37.985003" lon="-1.170205">
        <ele>47.212620</ele>
        <time>2021-10-30T10:34:33.000Z</time>
      </trkpt>
      <trkpt lat="37.985010" lon="-1.170046">
        <ele>46.954958</ele>
        <time>2021-10-30T10:34:35.000Z</time>
      </trkpt>
      <trkpt lat="37.985018" lon="-1.169969">
        <ele>46.829294</ele>
        <time>2021-10-30T10:34:36.000Z</time>
      </trkpt>
      <trkpt lat="37.985029" lon="-1.169738">
        <ele>46.454856</ele>
        <time>2021-10-30T10:34:39.000Z</time>
      </trkpt>
      <trkpt lat="37.985038" lon="-1.169584">
        <ele>46.205000</ele>
        <time>2021-10-30T10:34:41.000Z</time>
      </trkpt>
      <trkpt lat="37.985072" lon="-1.168877">
        <ele>45.747272</ele>
        <time>2021-10-30T10:34:50.000Z</time>
      </trkpt>
      <trkpt lat="37.985085" lon="-1.168556">
        <ele>45.749187</ele>
        <time>2021-10-30T10:34:54.000Z</time>
      </trkpt>
      <trkpt lat="37.985102" lon="-1.168239">
        <ele>45.751079</ele>
        <time>2021-10-30T10:34:58.000Z</time>
      </trkpt>
      <trkpt lat="37.985130" lon="-1.167918">
        <ele>45.753002</ele>
        <time>2021-10-30T10:35:02.000Z</time>
      </trkpt>
      <trkpt lat="37.985142" lon="-1.167594">
        <ele>45.754934</ele>
        <time>2021-10-30T10:35:06.000Z</time>
      </trkpt>
      <trkpt lat="37.985158" lon="-1.167196">
        <ele>45.757308</ele>
        <time>2021-10-30T10:35:11.000Z</time>
      </trkpt>
      <trkpt lat="37.985179" lon="-1.166803">
        <ele>45.720171</ele>
        <time>2021-10-30T10:35:16.000Z</time>
      </trkpt>
      <trkpt lat="37.985215" lon="-1.166352">
        <ele>45.641777</ele>
        <time>2021-10-30T10:35:22.000Z</time>
      </trkpt>
      <trkpt lat="37.985229" lon="-1.165957">
        <ele>45.573398</ele>
        <time>2021-10-30T10:35:27.000Z</time>
      </trkpt>
      <trkpt lat="37.985233" lon="-1.165796">
        <ele>45.545541</ele>
        <time>2021-10-30T10:35:29.000Z</time>
      </trkpt>
      <trkpt lat="37.985250" lon="-1.165389">
        <ele>45.475056</ele>
        <time>2021-10-30T10:35:34.000Z</time>
      </trkpt>
      <trkpt lat="37.985258" lon="-1.165310">
        <ele>45.461282</ele>
        <time>2021-10-30T10:35:35.000Z</time>
      </trkpt>
      <trkpt lat="37.985323" lon="-1.164933">
        <ele>45.394542</ele>
        <time>2021-10-30T10:35:40.000Z</time>
      </trkpt>
      <trkpt lat="37.985325" lon="-1.164856">
        <ele>45.381219</ele>
        <time>2021-10-30T10:35:41.000Z</time>
      </trkpt>
      <trkpt lat="37.985318" lon="-1.164780">
        <ele>45.367986</ele>
        <time>2021-10-30T10:35:42.000Z</time>
      </trkpt>
      <trkpt lat="37.985301" lon="-1.164477">
        <ele>45.313245</ele>
        <time>2021-10-30T10:35:46.000Z</time>
      </trkpt>
      <trkpt lat="37.985339" lon="-1.163872">
        <ele>45.203479</ele>
        <time>2021-10-30T10:35:54.000Z</time>
      </trkpt>
      <trkpt lat="37.985377" lon="-1.163422">
        <ele>45.121628</ele>
        <time>2021-10-30T10:36:00.000Z</time>
      </trkpt>
      <trkpt lat="37.985381" lon="-1.163343">
        <ele>45.107310</ele>
        <time>2021-10-30T10:36:01.000Z</time>
      </trkpt>
      <trkpt lat="37.985396" lon="-1.163029">
        <ele>45.050417</ele>
        <time>2021-10-30T10:36:05.000Z</time>
      </trkpt>
      <trkpt lat="37.985406" lon="-1.162468">
        <ele>44.952230</ele>
        <time>2021-10-30T10:36:12.000Z</time>
      </trkpt>
      <trkpt lat="37.985424" lon="-1.162065">
        <ele>44.997952</ele>
        <time>2021-10-30T10:36:17.000Z</time>
      </trkpt>
      <trkpt lat="37.985417" lon="-1.161821">
        <ele>45.025609</ele>
        <time>2021-10-30T10:36:20.000Z</time>
      </trkpt>
      <trkpt lat="37.985407" lon="-1.161742">
        <ele>45.034672</ele>
        <time>2021-10-30T10:36:21.000Z</time>
      </trkpt>
      <trkpt lat="37.985356" lon="-1.161425">
        <ele>45.071320</ele>
        <time>2021-10-30T10:36:25.000Z</time>
      </trkpt>
      <trkpt lat="37.985226" lon="-1.160975">
        <ele>45.125609</ele>
        <time>2021-10-30T10:36:31.000Z</time>
      </trkpt>
      <trkpt lat="37.985197" lon="-1.160903">
        <ele>45.134768</ele>
        <time>2021-10-30T10:36:32.000Z</time>
      </trkpt>
      <trkpt lat="37.985168" lon="-1.160832">
        <ele>45.143826</ele>
        <time>2021-10-30T10:36:33.000Z</time>
      </trkpt>
      <trkpt lat="37.984993" lon="-1.160492">
        <ele>45.189823</ele>
        <time>2021-10-30T10:36:38.000Z</time>
      </trkpt>
      <trkpt lat="37.984908" lon="-1.160367">
        <ele>45.208524</ele>
        <time>2021-10-30T10:36:40.000Z</time>
      </trkpt>
      <trkpt lat="37.984776" lon="-1.160190">
        <ele>45.129596</ele>
        <time>2021-10-30T10:36:43.000Z</time>
      </trkpt>
      <trkpt lat="37.984683" lon="-1.160081">
        <ele>45.075117</ele>
        <time>2021-10-30T10:36:45.000Z</time>
      </trkpt>
      <trkpt lat="37.984302" lon="-1.159797">
        <ele>44.884973</ele>
        <time>2021-10-30T10:36:52.000Z</time>
      </trkpt>
      <trkpt lat="37.983833" lon="-1.159570">
        <ele>44.668978</ele>
        <time>2021-10-30T10:37:00.000Z</time>
      </trkpt>
      <trkpt lat="37.983659" lon="-1.159485">
        <ele>44.588748</ele>
        <time>2021-10-30T10:37:03.000Z</time>
      </trkpt>
      <trkpt lat="37.983253" lon="-1.159303">
        <ele>44.454654</ele>
        <time>2021-10-30T10:37:10.000Z</time>
      </trkpt>
      <trkpt lat="37.982736" lon="-1.159083">
        <ele>44.594899</ele>
        <time>2021-10-30T10:37:19.000Z</time>
      </trkpt>
      <trkpt lat="37.982562" lon="-1.159017">
        <ele>44.641606</ele>
        <time>2021-10-30T10:37:22.000Z</time>
      </trkpt>
      <trkpt lat="37.982256" lon="-1.158940">
        <ele>44.721838</ele>
        <time>2021-10-30T10:37:27.000Z</time>
      </trkpt>
      <trkpt lat="37.981817" lon="-1.158903">
        <ele>44.834991</ele>
        <time>2021-10-30T10:37:34.000Z</time>
      </trkpt>
      <trkpt lat="37.981592" lon="-1.158917">
        <ele>44.892927</ele>
        <time>2021-10-30T10:37:38.000Z</time>
      </trkpt>
      <trkpt lat="37.981486" lon="-1.158923">
        <ele>44.914844</ele>
        <time>2021-10-30T10:37:40.000Z</time>
      </trkpt>
      <trkpt lat="37.981047" lon="-1.159029">
        <ele>45.001873</ele>
        <time>2021-10-30T10:37:48.000Z</time>
      </trkpt>
      <trkpt lat="37.980635" lon="-1.159158">
        <ele>45.084517</ele>
        <time>2021-10-30T10:37:56.000Z</time>
      </trkpt>
      <trkpt lat="37.980311" lon="-1.159215">
        <ele>45.148220</ele>
        <time>2021-10-30T10:38:02.000Z</time>
      </trkpt>
      <trkpt lat="37.980073" lon="-1.159209">
        <ele>45.194579</ele>
        <time>2021-10-30T10:38:06.000Z</time>
      </trkpt>
      <trkpt lat="37.979893" lon="-1.159178">
        <ele>45.229956</ele>
        <time>2021-10-30T10:38:09.000Z</time>
      </trkpt>
      <trkpt lat="37.979832" lon="-1.159163">
        <ele>45.242057</ele>
        <time>2021-10-30T10:38:10.000Z</time>
      </trkpt>
      <trkpt lat="37.979713" lon="-1.159123">
        <ele>45.226820</ele>
        <time>2021-10-30T10:38:12.000Z</time>
      </trkpt>
      <trkpt lat="37.979599" lon="-1.159069">
        <ele>45.197897</ele>
        <time>2021-10-30T10:38:14.000Z</time>
      </trkpt>
      <trkpt lat="37.979542" lon="-1.159040">
        <ele>45.183300</ele>
        <time>2021-10-30T10:38:15.000Z</time>
      </trkpt>
      <trkpt lat="37.979485" lon="-1.159008">
        <ele>45.168484</ele>
        <time>2021-10-30T10:38:16.000Z</time>
      </trkpt>
      <trkpt lat="37.979213" lon="-1.158837">
        <ele>45.096330</ele>
        <time>2021-10-30T10:38:21.000Z</time>
      </trkpt>
      <trkpt lat="37.979164" lon="-1.158792">
        <ele>45.081952</ele>
        <time>2021-10-30T10:38:22.000Z</time>
      </trkpt>
      <trkpt lat="37.979068" lon="-1.158698">
        <ele>45.053128</ele>
        <time>2021-10-30T10:38:24.000Z</time>
      </trkpt>
      <trkpt lat="37.978804" lon="-1.158395">
        <ele>44.968511</ele>
        <time>2021-10-30T10:38:30.000Z</time>
      </trkpt>
      <trkpt lat="37.978764" lon="-1.158337">
        <ele>44.954072</ele>
        <time>2021-10-30T10:38:31.000Z</time>
      </trkpt>
      <trkpt lat="37.978688" lon="-1.158222">
        <ele>44.925955</ele>
        <time>2021-10-30T10:38:33.000Z</time>
      </trkpt>
      <trkpt lat="37.978521" lon="-1.157948">
        <ele>44.861064</ele>
        <time>2021-10-30T10:38:38.000Z</time>
      </trkpt>
      <trkpt lat="37.978309" lon="-1.157532">
        <ele>45.051086</ele>
        <time>2021-10-30T10:38:44.000Z</time>
      </trkpt>
      <trkpt lat="37.978275" lon="-1.157465">
        <ele>45.116427</ele>
        <time>2021-10-30T10:38:45.000Z</time>
      </trkpt>
      <trkpt lat="37.978239" lon="-1.157401">
        <ele>45.180899</ele>
        <time>2021-10-30T10:38:46.000Z</time>
      </trkpt>
      <trkpt lat="37.978071" lon="-1.157071">
        <ele>45.503032</ele>
        <time>2021-10-30T10:38:51.000Z</time>
      </trkpt>
      <trkpt lat="37.978004" lon="-1.156937">
        <ele>45.633154</ele>
        <time>2021-10-30T10:38:53.000Z</time>
      </trkpt>
      <trkpt lat="37.977712" lon="-1.156436">
        <ele>46.144085</ele>
        <time>2021-10-30T10:39:01.000Z</time>
      </trkpt>
      <trkpt lat="37.977528" lon="-1.156131">
        <ele>46.459031</ele>
        <time>2021-10-30T10:39:06.000Z</time>
      </trkpt>
      <trkpt lat="37.977488" lon="-1.156072">
        <ele>46.522845</ele>
        <time>2021-10-30T10:39:07.000Z</time>
      </trkpt>
      <trkpt lat="37.977405" lon="-1.155959">
        <ele>46.649500</ele>
        <time>2021-10-30T10:39:09.000Z</time>
      </trkpt>
      <trkpt lat="37.977364" lon="-1.155903">
        <ele>46.690238</ele>
        <time>2021-10-30T10:39:10.000Z</time>
      </trkpt>
      <trkpt lat="37.977281" lon="-1.155791">
        <ele>46.679427</ele>
        <time>2021-10-30T10:39:12.000Z</time>
      </trkpt>
      <trkpt lat="37.976975" lon="-1.155433">
        <ele>46.642291</ele>
        <time>2021-10-30T10:39:19.000Z</time>
      </trkpt>
      <trkpt lat="37.976884" lon="-1.155334">
        <ele>46.631596</ele>
        <time>2021-10-30T10:39:21.000Z</time>
      </trkpt>
      <trkpt lat="37.976729" lon="-1.155215">
        <ele>46.615433</ele>
        <time>2021-10-30T10:39:24.000Z</time>
      </trkpt>
      <trkpt lat="37.976526" lon="-1.155048">
        <ele>46.593847</ele>
        <time>2021-10-30T10:39:28.000Z</time>
      </trkpt>
      <trkpt lat="37.976393" lon="-1.154893">
        <ele>46.577735</ele>
        <time>2021-10-30T10:39:31.000Z</time>
      </trkpt>
      <trkpt lat="37.976356" lon="-1.154832">
        <ele>46.572322</ele>
        <time>2021-10-30T10:39:32.000Z</time>
      </trkpt>
      <trkpt lat="37.976241" lon="-1.154556">
        <ele>46.550368</ele>
        <time>2021-10-30T10:39:36.000Z</time>
      </trkpt>
      <trkpt lat="37.976169" lon="-1.154259">
        <ele>46.474161</ele>
        <time>2021-10-30T10:39:40.000Z</time>
      </trkpt>
      <trkpt lat="37.976158" lon="-1.154103">
        <ele>46.262845</ele>
        <time>2021-10-30T10:39:42.000Z</time>
      </trkpt>
      <trkpt lat="37.976158" lon="-1.154024">
        <ele>46.156259</ele>
        <time>2021-10-30T10:39:43.000Z</time>
      </trkpt>
      <trkpt lat="37.976163" lon="-1.153947">
        <ele>46.052018</ele>
        <time>2021-10-30T10:39:44.000Z</time>
      </trkpt>
      <trkpt lat="37.976173" lon="-1.153871">
        <ele>45.948061</ele>
        <time>2021-10-30T10:39:45.000Z</time>
      </trkpt>
      <trkpt lat="37.976209" lon="-1.153719">
        <ele>45.733926</ele>
        <time>2021-10-30T10:39:47.000Z</time>
      </trkpt>
      <trkpt lat="37.976407" lon="-1.153152">
        <ele>44.897226</ele>
        <time>2021-10-30T10:39:55.000Z</time>
      </trkpt>
      <trkpt lat="37.976654" lon="-1.152690">
        <ele>44.144055</ele>
        <time>2021-10-30T10:40:02.000Z</time>
      </trkpt>
      <trkpt lat="37.976685" lon="-1.152621">
        <ele>44.036901</ele>
        <time>2021-10-30T10:40:03.000Z</time>
      </trkpt>
      <trkpt lat="37.976816" lon="-1.152348">
        <ele>43.605694</ele>
        <time>2021-10-30T10:40:07.000Z</time>
      </trkpt>
      <trkpt lat="37.976845" lon="-1.152277">
        <ele>43.497805</ele>
        <time>2021-10-30T10:40:08.000Z</time>
      </trkpt>
      <trkpt lat="37.976907" lon="-1.152142">
        <ele>43.436287</ele>
        <time>2021-10-30T10:40:10.000Z</time>
      </trkpt>
      <trkpt lat="37.977233" lon="-1.151549">
        <ele>43.338368</ele>
        <time>2021-10-30T10:40:19.000Z</time>
      </trkpt>
      <trkpt lat="37.977275" lon="-1.151490">
        <ele>43.327601</ele>
        <time>2021-10-30T10:40:20.000Z</time>
      </trkpt>
      <trkpt lat="37.977644" lon="-1.151042">
        <ele>43.239842</ele>
        <time>2021-10-30T10:40:28.000Z</time>
      </trkpt>
      <trkpt lat="37.977905" lon="-1.150795">
        <ele>43.183894</ele>
        <time>2021-10-30T10:40:33.000Z</time>
      </trkpt>
      <trkpt lat="37.978170" lon="-1.150557">
        <ele>43.158767</ele>
        <time>2021-10-30T10:40:38.000Z</time>
      </trkpt>
      <trkpt lat="37.978273" lon="-1.150460">
        <ele>43.179516</ele>
        <time>2021-10-30T10:40:40.000Z</time>
      </trkpt>
      <trkpt lat="37.978650" lon="-1.150027">
        <ele>43.261777</ele>
        <time>2021-10-30T10:40:48.000Z</time>
      </trkpt>
      <trkpt lat="37.978778" lon="-1.149853">
        <ele>43.292123</ele>
        <time>2021-10-30T10:40:51.000Z</time>
      </trkpt>
      <trkpt lat="37.979022" lon="-1.149507">
        <ele>43.351317</ele>
        <time>2021-10-30T10:40:57.000Z</time>
      </trkpt>
      <trkpt lat="37.979192" lon="-1.149288">
        <ele>43.390506</ele>
        <time>2021-10-30T10:41:01.000Z</time>
      </trkpt>
      <trkpt lat="37.979325" lon="-1.149129">
        <ele>43.420067</ele>
        <time>2021-10-30T10:41:04.000Z</time>
      </trkpt>
      <trkpt lat="37.979364" lon="-1.149071">
        <ele>43.429787</ele>
        <time>2021-10-30T10:41:05.000Z</time>
      </trkpt>
      <trkpt lat="37.979621" lon="-1.148763">
        <ele>43.356140</ele>
        <time>2021-10-30T10:41:11.000Z</time>
      </trkpt>
      <trkpt lat="37.979889" lon="-1.148460">
        <ele>43.268485</ele>
        <time>2021-10-30T10:41:17.000Z</time>
      </trkpt>
      <trkpt lat="37.980268" lon="-1.148066">
        <ele>43.148841</ele>
        <time>2021-10-30T10:41:25.000Z</time>
      </trkpt>
      <trkpt lat="37.980371" lon="-1.147977">
        <ele>43.118411</ele>
        <time>2021-10-30T10:41:27.000Z</time>
      </trkpt>
      <trkpt lat="37.980629" lon="-1.147763">
        <ele>43.043144</ele>
        <time>2021-10-30T10:41:32.000Z</time>
      </trkpt>
      <trkpt lat="37.980910" lon="-1.147520">
        <ele>43.007210</ele>
        <time>2021-10-30T10:41:38.000Z</time>
      </trkpt>
      <trkpt lat="37.981271" lon="-1.147239">
        <ele>43.040843</ele>
        <time>2021-10-30T10:41:45.000Z</time>
      </trkpt>
      <trkpt lat="37.981466" lon="-1.147051">
        <ele>43.060292</ele>
        <time>2021-10-30T10:41:49.000Z</time>
      </trkpt>
      <trkpt lat="37.981511" lon="-1.146999">
        <ele>43.065126</ele>
        <time>2021-10-30T10:41:50.000Z</time>
      </trkpt>
      <trkpt lat="37.981598" lon="-1.146893">
        <ele>43.074705</ele>
        <time>2021-10-30T10:41:52.000Z</time>
      </trkpt>
      <trkpt lat="37.981640" lon="-1.146838">
        <ele>43.079498</ele>
        <time>2021-10-30T10:41:53.000Z</time>
      </trkpt>
      <trkpt lat="37.981721" lon="-1.146725">
        <ele>43.089059</ele>
        <time>2021-10-30T10:41:55.000Z</time>
      </trkpt>
      <trkpt lat="37.981757" lon="-1.146665">
        <ele>43.093779</ele>
        <time>2021-10-30T10:41:56.000Z</time>
      </trkpt>
      <trkpt lat="37.981788" lon="-1.146600">
        <ele>43.098534</ele>
        <time>2021-10-30T10:41:57.000Z</time>
      </trkpt>
      <trkpt lat="37.981816" lon="-1.146532">
        <ele>43.103336</ele>
        <time>2021-10-30T10:41:58.000Z</time>
      </trkpt>
      <trkpt lat="37.981868" lon="-1.146397">
        <ele>43.112741</ele>
        <time>2021-10-30T10:42:00.000Z</time>
      </trkpt>
      <trkpt lat="37.981971" lon="-1.146088">
        <ele>43.133741</ele>
        <time>2021-10-30T10:42:05.000Z</time>
      </trkpt>
      <trkpt lat="37.982035" lon="-1.145824">
        <ele>43.173391</ele>
        <time>2021-10-30T10:42:09.000Z</time>
      </trkpt>
      <trkpt lat="37.982071" lon="-1.145614">
        <ele>43.210820</ele>
        <time>2021-10-30T10:42:12.000Z</time>
      </trkpt>
      <trkpt lat="37.982077" lon="-1.145322">
        <ele>43.261692</ele>
        <time>2021-10-30T10:42:16.000Z</time>
      </trkpt>
      <trkpt lat="37.982057" lon="-1.145175">
        <ele>43.287672</ele>
        <time>2021-10-30T10:42:18.000Z</time>
      </trkpt>
      <trkpt lat="37.982036" lon="-1.145031">
        <ele>43.313177</ele>
        <time>2021-10-30T10:42:20.000Z</time>
      </trkpt>
      <trkpt lat="37.982025" lon="-1.144960">
        <ele>43.325779</ele>
        <time>2021-10-30T10:42:21.000Z</time>
      </trkpt>
      <trkpt lat="37.982011" lon="-1.144888">
        <ele>43.338695</ele>
        <time>2021-10-30T10:42:22.000Z</time>
      </trkpt>
      <trkpt lat="37.981996" lon="-1.144816">
        <ele>43.351665</ele>
        <time>2021-10-30T10:42:23.000Z</time>
      </trkpt>
      <trkpt lat="37.981979" lon="-1.144744">
        <ele>43.364755</ele>
        <time>2021-10-30T10:42:24.000Z</time>
      </trkpt>
      <trkpt lat="37.981915" lon="-1.144533">
        <ele>43.404130</ele>
        <time>2021-10-30T10:42:27.000Z</time>
      </trkpt>
      <trkpt lat="37.981817" lon="-1.144281">
        <ele>43.453070</ele>
        <time>2021-10-30T10:42:31.000Z</time>
      </trkpt>
      <trkpt lat="37.981750" lon="-1.144159">
        <ele>43.478967</ele>
        <time>2021-10-30T10:42:33.000Z</time>
      </trkpt>
      <trkpt lat="37.981606" lon="-1.143902">
        <ele>43.533884</ele>
        <time>2021-10-30T10:42:37.000Z</time>
      </trkpt>
      <trkpt lat="37.981570" lon="-1.143839">
        <ele>43.609537</ele>
        <time>2021-10-30T10:42:38.000Z</time>
      </trkpt>
      <trkpt lat="37.981496" lon="-1.143709">
        <ele>43.787970</ele>
        <time>2021-10-30T10:42:40.000Z</time>
      </trkpt>
      <trkpt lat="37.981460" lon="-1.143645">
        <ele>43.875460</ele>
        <time>2021-10-30T10:42:41.000Z</time>
      </trkpt>
      <trkpt lat="37.981196" lon="-1.143208">
        <ele>44.488122</ele>
        <time>2021-10-30T10:42:48.000Z</time>
      </trkpt>
      <trkpt lat="37.981119" lon="-1.143082">
        <ele>44.665530</ele>
        <time>2021-10-30T10:42:50.000Z</time>
      </trkpt>
      <trkpt lat="37.981006" lon="-1.142893">
        <ele>44.929494</ele>
        <time>2021-10-30T10:42:53.000Z</time>
      </trkpt>
      <trkpt lat="37.980894" lon="-1.142709">
        <ele>45.188183</ele>
        <time>2021-10-30T10:42:56.000Z</time>
      </trkpt>
      <trkpt lat="37.980821" lon="-1.142583">
        <ele>45.362189</ele>
        <time>2021-10-30T10:42:58.000Z</time>
      </trkpt>
      <trkpt lat="37.980460" lon="-1.142045">
        <ele>46.068170</ele>
        <time>2021-10-30T10:43:07.000Z</time>
      </trkpt>
      <trkpt lat="37.980274" lon="-1.141832">
        <ele>46.034752</ele>
        <time>2021-10-30T10:43:11.000Z</time>
      </trkpt>
      <trkpt lat="37.980124" lon="-1.141688">
        <ele>46.009664</ele>
        <time>2021-10-30T10:43:14.000Z</time>
      </trkpt>
      <trkpt lat="37.979934" lon="-1.141485">
        <ele>45.976535</ele>
        <time>2021-10-30T10:43:18.000Z</time>
      </trkpt>
      <trkpt lat="37.979748" lon="-1.141269">
        <ele>45.942905</ele>
        <time>2021-10-30T10:43:22.000Z</time>
      </trkpt>
      <trkpt lat="37.979365" lon="-1.140847">
        <ele>45.875249</ele>
        <time>2021-10-30T10:43:30.000Z</time>
      </trkpt>
      <trkpt lat="37.979313" lon="-1.140799">
        <ele>45.866672</ele>
        <time>2021-10-30T10:43:31.000Z</time>
      </trkpt>
      <trkpt lat="37.979035" lon="-1.140472">
        <ele>45.696001</ele>
        <time>2021-10-30T10:43:37.000Z</time>
      </trkpt>
      <trkpt lat="37.978963" lon="-1.140339">
        <ele>45.572368</ele>
        <time>2021-10-30T10:43:39.000Z</time>
      </trkpt>
      <trkpt lat="37.978919" lon="-1.140190">
        <ele>45.450445</ele>
        <time>2021-10-30T10:43:41.000Z</time>
      </trkpt>
      <trkpt lat="37.978830" lon="-1.139550">
        <ele>44.952462</ele>
        <time>2021-10-30T10:43:49.000Z</time>
      </trkpt>
      <trkpt lat="37.978856" lon="-1.139145">
        <ele>44.641097</ele>
        <time>2021-10-30T10:43:54.000Z</time>
      </trkpt>
      <trkpt lat="37.978880" lon="-1.138984">
        <ele>44.515542</ele>
        <time>2021-10-30T10:43:56.000Z</time>
      </trkpt>
      <trkpt lat="37.978980" lon="-1.138606">
        <ele>44.210016</ele>
        <time>2021-10-30T10:44:01.000Z</time>
      </trkpt>
      <trkpt lat="37.979002" lon="-1.138539">
        <ele>44.154399</ele>
        <time>2021-10-30T10:44:02.000Z</time>
      </trkpt>
      <trkpt lat="37.979023" lon="-1.138471">
        <ele>44.098437</ele>
        <time>2021-10-30T10:44:03.000Z</time>
      </trkpt>
      <trkpt lat="37.979060" lon="-1.138336">
        <ele>43.944446</ele>
        <time>2021-10-30T10:44:05.000Z</time>
      </trkpt>
      <trkpt lat="37.979146" lon="-1.138069">
        <ele>43.622920</ele>
        <time>2021-10-30T10:44:09.000Z</time>
      </trkpt>
      <trkpt lat="37.979329" lon="-1.137589">
        <ele>43.028545</ele>
        <time>2021-10-30T10:44:16.000Z</time>
      </trkpt>
      <trkpt lat="37.979360" lon="-1.137527">
        <ele>42.946700</ele>
        <time>2021-10-30T10:44:17.000Z</time>
      </trkpt>
      <trkpt lat="37.979387" lon="-1.137467">
        <ele>42.869684</ele>
        <time>2021-10-30T10:44:18.000Z</time>
      </trkpt>
      <trkpt lat="37.979459" lon="-1.137305">
        <ele>42.662369</ele>
        <time>2021-10-30T10:44:21.000Z</time>
      </trkpt>
      <trkpt lat="37.979503" lon="-1.137204">
        <ele>42.533729</ele>
        <time>2021-10-30T10:44:23.000Z</time>
      </trkpt>
      <trkpt lat="37.979543" lon="-1.137156">
        <ele>42.455864</ele>
        <time>2021-10-30T10:44:24.000Z</time>
      </trkpt>
      <trkpt lat="37.979672" lon="-1.137027">
        <ele>42.223570</ele>
        <time>2021-10-30T10:44:27.000Z</time>
      </trkpt>
      <trkpt lat="37.979825" lon="-1.136834">
        <ele>41.918439</ele>
        <time>2021-10-30T10:44:31.000Z</time>
      </trkpt>
      <trkpt lat="37.979856" lon="-1.136778">
        <ele>41.842158</ele>
        <time>2021-10-30T10:44:32.000Z</time>
      </trkpt>
      <trkpt lat="37.979873" lon="-1.136713">
        <ele>41.765816</ele>
        <time>2021-10-30T10:44:33.000Z</time>
      </trkpt>
      <trkpt lat="37.979875" lon="-1.136643">
        <ele>41.687734</ele>
        <time>2021-10-30T10:44:34.000Z</time>
      </trkpt>
      <trkpt lat="37.979853" lon="-1.136507">
        <ele>41.543056</ele>
        <time>2021-10-30T10:44:36.000Z</time>
      </trkpt>
      <trkpt lat="37.979832" lon="-1.136304">
        <ele>41.543656</ele>
        <time>2021-10-30T10:44:39.000Z</time>
      </trkpt>
      <trkpt lat="37.979842" lon="-1.136246">
        <ele>41.543830</ele>
        <time>2021-10-30T10:44:40.000Z</time>
      </trkpt>
      <trkpt lat="37.979890" lon="-1.136170">
        <ele>41.544115</ele>
        <time>2021-10-30T10:44:43.000Z</time>
      </trkpt>
      <trkpt lat="37.980010" lon="-1.136134">
        <ele>41.544574</ele>
        <time>2021-10-30T10:44:46.000Z</time>
      </trkpt>
      <trkpt lat="37.980079" lon="-1.136040">
        <ele>41.544950</ele>
        <time>2021-10-30T10:44:48.000Z</time>
      </trkpt>
      <trkpt lat="37.980107" lon="-1.135981">
        <ele>41.545152</ele>
        <time>2021-10-30T10:44:49.000Z</time>
      </trkpt>
      <trkpt lat="37.980131" lon="-1.135917">
        <ele>41.545360</ele>
        <time>2021-10-30T10:44:50.000Z</time>
      </trkpt>
      <trkpt lat="37.980260" lon="-1.135586">
        <ele>41.546442</ele>
        <time>2021-10-30T10:44:55.000Z</time>
      </trkpt>
      <trkpt lat="37.980316" lon="-1.135448">
        <ele>41.546896</ele>
        <time>2021-10-30T10:44:57.000Z</time>
      </trkpt>
      <trkpt lat="37.980398" lon="-1.135338">
        <ele>41.547340</ele>
        <time>2021-10-30T10:44:59.000Z</time>
      </trkpt>
      <trkpt lat="37.980766" lon="-1.135038">
        <ele>41.548966</ele>
        <time>2021-10-30T10:45:06.000Z</time>
      </trkpt>
      <trkpt lat="37.980816" lon="-1.135015">
        <ele>41.549164</ele>
        <time>2021-10-30T10:45:07.000Z</time>
      </trkpt>
      <trkpt lat="37.980865" lon="-1.135016">
        <ele>41.549346</ele>
        <time>2021-10-30T10:45:08.000Z</time>
      </trkpt>
      <trkpt lat="37.980960" lon="-1.135036">
        <ele>41.549704</ele>
        <time>2021-10-30T10:45:10.000Z</time>
      </trkpt>
      <trkpt lat="37.981038" lon="-1.134961">
        <ele>41.568873</ele>
        <time>2021-10-30T10:45:12.000Z</time>
      </trkpt>
      <trkpt lat="37.981064" lon="-1.134905">
        <ele>41.579244</ele>
        <time>2021-10-30T10:45:13.000Z</time>
      </trkpt>
      <trkpt lat="37.981091" lon="-1.134849">
        <ele>41.589718</ele>
        <time>2021-10-30T10:45:14.000Z</time>
      </trkpt>
      <trkpt lat="37.981118" lon="-1.134797">
        <ele>41.599654</ele>
        <time>2021-10-30T10:45:15.000Z</time>
      </trkpt>
      <trkpt lat="37.981202" lon="-1.134712">
        <ele>41.621404</ele>
        <time>2021-10-30T10:45:17.000Z</time>
      </trkpt>
      <trkpt lat="37.981510" lon="-1.134476">
        <ele>41.694242</ele>
        <time>2021-10-30T10:45:23.000Z</time>
      </trkpt>
      <trkpt lat="37.981560" lon="-1.134430">
        <ele>41.706745</ele>
        <time>2021-10-30T10:45:24.000Z</time>
      </trkpt>
      <trkpt lat="37.981611" lon="-1.134385">
        <ele>41.719320</ele>
        <time>2021-10-30T10:45:25.000Z</time>
      </trkpt>
      <trkpt lat="37.981660" lon="-1.134343">
        <ele>41.731291</ele>
        <time>2021-10-30T10:45:26.000Z</time>
      </trkpt>
      <trkpt lat="37.981757" lon="-1.134277">
        <ele>41.753573</ele>
        <time>2021-10-30T10:45:28.000Z</time>
      </trkpt>
      <trkpt lat="37.981858" lon="-1.134223">
        <ele>41.775760</ele>
        <time>2021-10-30T10:45:30.000Z</time>
      </trkpt>
      <trkpt lat="37.981903" lon="-1.134190">
        <ele>41.786282</ele>
        <time>2021-10-30T10:45:31.000Z</time>
      </trkpt>
      <trkpt lat="37.982024" lon="-1.134077">
        <ele>41.816696</ele>
        <time>2021-10-30T10:45:34.000Z</time>
      </trkpt>
      <trkpt lat="37.982177" lon="-1.133952">
        <ele>41.853535</ele>
        <time>2021-10-30T10:45:38.000Z</time>
      </trkpt>
      <trkpt lat="37.982246" lon="-1.133895">
        <ele>41.870202</ele>
        <time>2021-10-30T10:45:40.000Z</time>
      </trkpt>
      <trkpt lat="37.982284" lon="-1.133870">
        <ele>41.878868</ele>
        <time>2021-10-30T10:45:41.000Z</time>
      </trkpt>
      <trkpt lat="37.982322" lon="-1.133835">
        <ele>41.888373</ele>
        <time>2021-10-30T10:45:42.000Z</time>
      </trkpt>
      <trkpt lat="37.982359" lon="-1.133805">
        <ele>41.897262</ele>
        <time>2021-10-30T10:45:43.000Z</time>
      </trkpt>
      <trkpt lat="37.982388" lon="-1.133771">
        <ele>41.905256</ele>
        <time>2021-10-30T10:45:44.000Z</time>
      </trkpt>
      <trkpt lat="37.982456" lon="-1.133598">
        <ele>41.748263</ele>
        <time>2021-10-30T10:45:48.000Z</time>
      </trkpt>
      <trkpt lat="37.982527" lon="-1.133468">
        <ele>41.560758</ele>
        <time>2021-10-30T10:45:53.000Z</time>
      </trkpt>
      <trkpt lat="37.982583" lon="-1.133390">
        <ele>41.435674</ele>
        <time>2021-10-30T10:45:58.000Z</time>
      </trkpt>
      <trkpt lat="37.982671" lon="-1.133306">
        <ele>41.270032</ele>
        <time>2021-10-30T10:46:04.000Z</time>
      </trkpt>
      <trkpt lat="37.982725" lon="-1.133283">
        <ele>41.184355</ele>
        <time>2021-10-30T10:46:08.000Z</time>
      </trkpt>
      <trkpt lat="37.982735" lon="-1.133278">
        <ele>41.168187</ele>
        <time>2021-10-30T10:46:09.000Z</time>
      </trkpt>
      <trkpt lat="37.982760" lon="-1.133265">
        <ele>41.127548</ele>
        <time>2021-10-30T10:46:11.000Z</time>
      </trkpt>
      <trkpt lat="37.982766" lon="-1.133264">
        <ele>41.118446</ele>
        <time>2021-10-30T10:46:15.000Z</time>
      </trkpt>
      <trkpt lat="37.982776" lon="-1.133256">
        <ele>41.100664</ele>
        <time>2021-10-30T10:46:20.000Z</time>
      </trkpt>
      <trkpt lat="37.982788" lon="-1.133252">
        <ele>41.082002</ele>
        <time>2021-10-30T10:46:25.000Z</time>
      </trkpt>
      <trkpt lat="37.982789" lon="-1.133251">
        <ele>41.080087</ele>
        <time>2021-10-30T10:46:27.000Z</time>
      </trkpt>
      <trkpt lat="37.982790" lon="-1.133251">
        <ele>41.078583</ele>
        <time>2021-10-30T10:46:30.000Z</time>
      </trkpt>
      <trkpt lat="37.982792" lon="-1.133245">
        <ele>41.070860</ele>
        <time>2021-10-30T10:46:39.000Z</time>
      </trkpt>
      <trkpt lat="37.982795" lon="-1.133244">
        <ele>41.066194</ele>
        <time>2021-10-30T10:46:44.000Z</time>
      </trkpt>
      <trkpt lat="37.982795" lon="-1.133245">
        <ele>41.065009</ele>
        <time>2021-10-30T10:46:49.000Z</time>
      </trkpt>
      <trkpt lat="37.982796" lon="-1.133243">
        <ele>41.062201</ele>
        <time>2021-10-30T10:46:57.000Z</time>
      </trkpt>
      <trkpt lat="37.982796" lon="-1.133242">
        <ele>41.061015</ele>
        <time>2021-10-30T10:46:59.000Z</time>
      </trkpt>
      <trkpt lat="37.982797" lon="-1.133239">
        <ele>41.057154</ele>
        <time>2021-10-30T10:47:07.000Z</time>
      </trkpt>
      <trkpt lat="37.982798" lon="-1.133233">
        <ele>41.049883</ele>
        <time>2021-10-30T10:47:12.000Z</time>
      </trkpt>
      <trkpt lat="37.982799" lon="-1.133231">
        <ele>41.047075</ele>
        <time>2021-10-30T10:47:18.000Z</time>
      </trkpt>
      <trkpt lat="37.982796" lon="-1.133242">
        <ele>41.033276</ele>
        <time>2021-10-30T10:47:27.000Z</time>
      </trkpt>
      <trkpt lat="37.982798" lon="-1.133242">
        <ele>41.030267</ele>
        <time>2021-10-30T10:47:28.000Z</time>
      </trkpt>
      <trkpt lat="37.982800" lon="-1.133241">
        <ele>41.027034</ele>
        <time>2021-10-30T10:47:35.000Z</time>
      </trkpt>
      <trkpt lat="37.982807" lon="-1.133238">
        <ele>41.015921</ele>
        <time>2021-10-30T10:47:40.000Z</time>
      </trkpt>
      <trkpt lat="37.982807" lon="-1.133239">
        <ele>41.014735</ele>
        <time>2021-10-30T10:47:41.000Z</time>
      </trkpt>
      <trkpt lat="37.982806" lon="-1.133239">
        <ele>41.013231</ele>
        <time>2021-10-30T10:47:44.000Z</time>
      </trkpt>
      <trkpt lat="37.982807" lon="-1.133239">
        <ele>41.011727</ele>
        <time>2021-10-30T10:47:50.000Z</time>
      </trkpt>
      <trkpt lat="37.982807" lon="-1.133239">
        <ele>41.011727</ele>
        <time>2021-10-30T10:47:51.000Z</time>
      </trkpt>
      <trkpt lat="37.982824" lon="-1.133243">
        <ele>40.985721</ele>
        <time>2021-10-30T10:47:59.000Z</time>
      </trkpt>
      <trkpt lat="37.982833" lon="-1.133244">
        <ele>40.972132</ele>
        <time>2021-10-30T10:48:01.000Z</time>
      </trkpt>
      <trkpt lat="37.982877" lon="-1.133264">
        <ele>40.901831</ele>
        <time>2021-10-30T10:48:07.000Z</time>
      </trkpt>
      <trkpt lat="37.982887" lon="-1.133273">
        <ele>40.883390</ele>
        <time>2021-10-30T10:48:13.000Z</time>
      </trkpt>
      <trkpt lat="37.982885" lon="-1.133276">
        <ele>40.878732</ele>
        <time>2021-10-30T10:48:24.000Z</time>
      </trkpt>
      <trkpt lat="37.982885" lon="-1.133277">
        <ele>40.877546</ele>
        <time>2021-10-30T10:48:26.000Z</time>
      </trkpt>
      <trkpt lat="37.982883" lon="-1.133279">
        <ele>40.873716</ele>
        <time>2021-10-30T10:48:36.000Z</time>
      </trkpt>
      <trkpt lat="37.982886" lon="-1.133280">
        <ele>40.869050</ele>
        <time>2021-10-30T10:48:45.000Z</time>
      </trkpt>
      <trkpt lat="37.982888" lon="-1.133280">
        <ele>40.866042</ele>
        <time>2021-10-30T10:48:48.000Z</time>
      </trkpt>
      <trkpt lat="37.982890" lon="-1.133279">
        <ele>40.862809</ele>
        <time>2021-10-30T10:48:59.000Z</time>
      </trkpt>
      <trkpt lat="37.982890" lon="-1.133279">
        <ele>40.862809</ele>
        <time>2021-10-30T10:49:11.000Z</time>
      </trkpt>
      <trkpt lat="37.982890" lon="-1.133279">
        <ele>40.862809</ele>
        <time>2021-10-30T10:49:14.000Z</time>
      </trkpt>
      <trkpt lat="37.982890" lon="-1.133279">
        <ele>40.862809</ele>
        <time>2021-10-30T10:49:17.000Z</time>
      </trkpt>
      <trkpt lat="37.982887" lon="-1.133276">
        <ele>40.857063</ele>
        <time>2021-10-30T10:49:37.000Z</time>
      </trkpt>
      <trkpt lat="37.982883" lon="-1.133275">
        <ele>40.850931</ele>
        <time>2021-10-30T10:49:45.000Z</time>
      </trkpt>
      <trkpt lat="37.982883" lon="-1.133276">
        <ele>40.849745</ele>
        <time>2021-10-30T10:49:48.000Z</time>
      </trkpt>
      <trkpt lat="37.982883" lon="-1.133280">
        <ele>40.845003</ele>
        <time>2021-10-30T10:50:00.000Z</time>
      </trkpt>
      <trkpt lat="37.982883" lon="-1.133280">
        <ele>40.845003</ele>
        <time>2021-10-30T10:50:02.000Z</time>
      </trkpt>
      <trkpt lat="37.982883" lon="-1.133281">
        <ele>40.843818</ele>
        <time>2021-10-30T10:50:03.000Z</time>
      </trkpt>
      <trkpt lat="37.982883" lon="-1.133281">
        <ele>40.843818</ele>
        <time>2021-10-30T10:50:05.000Z</time>
      </trkpt>
      <trkpt lat="37.982883" lon="-1.133281">
        <ele>40.843818</ele>
        <time>2021-10-30T10:50:07.000Z</time>
      </trkpt>
      <trkpt lat="37.982883" lon="-1.133278">
        <ele>40.840261</ele>
        <time>2021-10-30T10:50:22.000Z</time>
      </trkpt>
      <trkpt lat="37.982885" lon="-1.133272">
        <ele>40.832538</ele>
        <time>2021-10-30T10:50:42.000Z</time>
      </trkpt>
      <trkpt lat="37.982889" lon="-1.133270">
        <ele>40.826071</ele>
        <time>2021-10-30T10:50:56.000Z</time>
      </trkpt>
      <trkpt lat="37.982890" lon="-1.133270">
        <ele>40.824567</ele>
        <time>2021-10-30T10:50:57.000Z</time>
      </trkpt>
      <trkpt lat="37.982891" lon="-1.133268">
        <ele>40.821759</ele>
        <time>2021-10-30T10:51:02.000Z</time>
      </trkpt>
      <trkpt lat="37.982892" lon="-1.133265">
        <ele>40.817897</ele>
        <time>2021-10-30T10:51:14.000Z</time>
      </trkpt>
      <trkpt lat="37.982891" lon="-1.133264">
        <ele>40.815982</ele>
        <time>2021-10-30T10:51:19.000Z</time>
      </trkpt>
      <trkpt lat="37.982891" lon="-1.133263">
        <ele>40.814797</ele>
        <time>2021-10-30T10:51:23.000Z</time>
      </trkpt>
      <trkpt lat="37.982902" lon="-1.133251">
        <ele>40.792976</ele>
        <time>2021-10-30T10:51:40.000Z</time>
      </trkpt>
      <trkpt lat="37.982908" lon="-1.133243">
        <ele>40.779884</ele>
        <time>2021-10-30T10:51:41.000Z</time>
      </trkpt>
      <trkpt lat="37.982922" lon="-1.133165">
        <ele>40.685045</ele>
        <time>2021-10-30T10:51:45.000Z</time>
      </trkpt>
      <trkpt lat="37.982920" lon="-1.133025">
        <ele>40.519042</ele>
        <time>2021-10-30T10:51:48.000Z</time>
      </trkpt>
      <trkpt lat="37.982888" lon="-1.132975">
        <ele>40.442684</ele>
        <time>2021-10-30T10:51:49.000Z</time>
      </trkpt>
      <trkpt lat="37.982865" lon="-1.132920">
        <ele>40.368871</ele>
        <time>2021-10-30T10:51:50.000Z</time>
      </trkpt>
      <trkpt lat="37.982859" lon="-1.132786">
        <ele>40.209752</ele>
        <time>2021-10-30T10:51:52.000Z</time>
      </trkpt>
      <trkpt lat="37.982873" lon="-1.132650">
        <ele>40.047149</ele>
        <time>2021-10-30T10:51:54.000Z</time>
      </trkpt>
      <trkpt lat="37.982901" lon="-1.132397">
        <ele>39.744265</ele>
        <time>2021-10-30T10:51:58.000Z</time>
      </trkpt>
      <trkpt lat="37.982912" lon="-1.132150">
        <ele>39.450969</ele>
        <time>2021-10-30T10:52:02.000Z</time>
      </trkpt>
      <trkpt lat="37.982933" lon="-1.131887">
        <ele>39.202950</ele>
        <time>2021-10-30T10:52:06.000Z</time>
      </trkpt>
      <trkpt lat="37.982943" lon="-1.131498">
        <ele>39.167202</ele>
        <time>2021-10-30T10:52:12.000Z</time>
      </trkpt>
      <trkpt lat="37.982944" lon="-1.131435">
        <ele>39.161415</ele>
        <time>2021-10-30T10:52:13.000Z</time>
      </trkpt>
      <trkpt lat="37.982924" lon="-1.131206">
        <ele>39.140253</ele>
        <time>2021-10-30T10:52:17.000Z</time>
      </trkpt>
      <trkpt lat="37.982908" lon="-1.131092">
        <ele>39.129617</ele>
        <time>2021-10-30T10:52:19.000Z</time>
      </trkpt>
      <trkpt lat="37.982893" lon="-1.130991">
        <ele>39.120178</ele>
        <time>2021-10-30T10:52:21.000Z</time>
      </trkpt>
      <trkpt lat="37.982875" lon="-1.130870">
        <ele>39.108868</ele>
        <time>2021-10-30T10:52:23.000Z</time>
      </trkpt>
      <trkpt lat="37.982770" lon="-1.130322">
        <ele>39.057069</ele>
        <time>2021-10-30T10:52:31.000Z</time>
      </trkpt>
      <trkpt lat="37.982604" lon="-1.129780">
        <ele>39.003661</ele>
        <time>2021-10-30T10:52:39.000Z</time>
      </trkpt>
      <trkpt lat="37.982495" lon="-1.129439">
        <ele>39.081956</ele>
        <time>2021-10-30T10:52:44.000Z</time>
      </trkpt>
      <trkpt lat="37.982452" lon="-1.129320">
        <ele>39.116437</ele>
        <time>2021-10-30T10:52:46.000Z</time>
      </trkpt>
      <trkpt lat="37.982389" lon="-1.129132">
        <ele>39.170245</ele>
        <time>2021-10-30T10:52:49.000Z</time>
      </trkpt>
      <trkpt lat="37.982365" lon="-1.129065">
        <ele>39.189629</ele>
        <time>2021-10-30T10:52:50.000Z</time>
      </trkpt>
      <trkpt lat="37.982311" lon="-1.128934">
        <ele>39.228568</ele>
        <time>2021-10-30T10:52:52.000Z</time>
      </trkpt>
      <trkpt lat="37.982153" lon="-1.128406">
        <ele>39.377326</ele>
        <time>2021-10-30T10:53:00.000Z</time>
      </trkpt>
      <trkpt lat="37.981942" lon="-1.127902">
        <ele>39.527641</ele>
        <time>2021-10-30T10:53:08.000Z</time>
      </trkpt>
      <trkpt lat="37.981738" lon="-1.127451">
        <ele>39.752324</ele>
        <time>2021-10-30T10:53:16.000Z</time>
      </trkpt>
      <trkpt lat="37.981698" lon="-1.127354">
        <ele>39.820252</ele>
        <time>2021-10-30T10:53:18.000Z</time>
      </trkpt>
      <trkpt lat="37.981601" lon="-1.127137">
        <ele>39.975046</ele>
        <time>2021-10-30T10:53:23.000Z</time>
      </trkpt>
      <trkpt lat="37.981447" lon="-1.126834">
        <ele>40.198755</ele>
        <time>2021-10-30T10:53:29.000Z</time>
      </trkpt>
      <trkpt lat="37.981356" lon="-1.126645">
        <ele>40.336179</ele>
        <time>2021-10-30T10:53:33.000Z</time>
      </trkpt>
      <trkpt lat="37.981340" lon="-1.126583">
        <ele>40.376659</ele>
        <time>2021-10-30T10:53:34.000Z</time>
      </trkpt>
      <trkpt lat="37.981230" lon="-1.126113">
        <ele>40.680880</ele>
        <time>2021-10-30T10:53:41.000Z</time>
      </trkpt>
      <trkpt lat="37.981214" lon="-1.126045">
        <ele>40.724914</ele>
        <time>2021-10-30T10:53:42.000Z</time>
      </trkpt>
      <trkpt lat="37.981165" lon="-1.125777">
        <ele>40.895624</ele>
        <time>2021-10-30T10:53:46.000Z</time>
      </trkpt>
      <trkpt lat="37.981157" lon="-1.125710">
        <ele>40.937672</ele>
        <time>2021-10-30T10:53:47.000Z</time>
      </trkpt>
      <trkpt lat="37.981151" lon="-1.125643">
        <ele>40.979513</ele>
        <time>2021-10-30T10:53:48.000Z</time>
      </trkpt>
      <trkpt lat="37.981156" lon="-1.125086">
        <ele>40.856773</ele>
        <time>2021-10-30T10:53:56.000Z</time>
      </trkpt>
      <trkpt lat="37.981239" lon="-1.124475">
        <ele>40.658924</ele>
        <time>2021-10-30T10:54:05.000Z</time>
      </trkpt>
      <trkpt lat="37.981333" lon="-1.123926">
        <ele>40.479649</ele>
        <time>2021-10-30T10:54:13.000Z</time>
      </trkpt>
      <trkpt lat="37.981430" lon="-1.123314">
        <ele>40.292298</ele>
        <time>2021-10-30T10:54:22.000Z</time>
      </trkpt>
      <trkpt lat="37.981475" lon="-1.123045">
        <ele>40.348623</ele>
        <time>2021-10-30T10:54:26.000Z</time>
      </trkpt>
      <trkpt lat="37.981565" lon="-1.122508">
        <ele>40.461072</ele>
        <time>2021-10-30T10:54:34.000Z</time>
      </trkpt>
      <trkpt lat="37.981575" lon="-1.122441">
        <ele>40.475039</ele>
        <time>2021-10-30T10:54:35.000Z</time>
      </trkpt>
      <trkpt lat="37.981643" lon="-1.122018">
        <ele>40.563463</ele>
        <time>2021-10-30T10:54:41.000Z</time>
      </trkpt>
      <trkpt lat="37.981648" lon="-1.121952">
        <ele>40.577044</ele>
        <time>2021-10-30T10:54:42.000Z</time>
      </trkpt>
      <trkpt lat="37.981641" lon="-1.121766">
        <ele>40.615184</ele>
        <time>2021-10-30T10:54:45.000Z</time>
      </trkpt>
      <trkpt lat="37.981677" lon="-1.121472">
        <ele>40.676125</ele>
        <time>2021-10-30T10:54:49.000Z</time>
      </trkpt>
      <trkpt lat="37.981704" lon="-1.121379">
        <ele>40.696425</ele>
        <time>2021-10-30T10:54:50.000Z</time>
      </trkpt>
      <trkpt lat="37.981793" lon="-1.120932">
        <ele>40.654443</ele>
        <time>2021-10-30T10:54:56.000Z</time>
      </trkpt>
      <trkpt lat="37.981808" lon="-1.120863">
        <ele>40.613235</ele>
        <time>2021-10-30T10:54:57.000Z</time>
      </trkpt>
      <trkpt lat="37.981866" lon="-1.120516">
        <ele>40.409019</ele>
        <time>2021-10-30T10:55:02.000Z</time>
      </trkpt>
      <trkpt lat="37.981885" lon="-1.120375">
        <ele>40.326665</ele>
        <time>2021-10-30T10:55:04.000Z</time>
      </trkpt>
      <trkpt lat="37.981923" lon="-1.120071">
        <ele>40.149460</ele>
        <time>2021-10-30T10:55:08.000Z</time>
      </trkpt>
      <trkpt lat="37.981946" lon="-1.119927">
        <ele>40.064872</ele>
        <time>2021-10-30T10:55:10.000Z</time>
      </trkpt>
      <trkpt lat="37.982031" lon="-1.119373">
        <ele>39.739940</ele>
        <time>2021-10-30T10:55:18.000Z</time>
      </trkpt>
      <trkpt lat="37.982054" lon="-1.119245">
        <ele>39.664358</ele>
        <time>2021-10-30T10:55:20.000Z</time>
      </trkpt>
      <trkpt lat="37.982114" lon="-1.118903">
        <ele>39.462645</ele>
        <time>2021-10-30T10:55:25.000Z</time>
      </trkpt>
      <trkpt lat="37.982124" lon="-1.118835">
        <ele>39.441799</ele>
        <time>2021-10-30T10:55:26.000Z</time>
      </trkpt>
      <trkpt lat="37.982133" lon="-1.118768">
        <ele>39.442842</ele>
        <time>2021-10-30T10:55:27.000Z</time>
      </trkpt>
      <trkpt lat="37.982192" lon="-1.118474">
        <ele>39.447500</ele>
        <time>2021-10-30T10:55:32.000Z</time>
      </trkpt>
      <trkpt lat="37.982259" lon="-1.118099">
        <ele>39.453403</ele>
        <time>2021-10-30T10:55:38.000Z</time>
      </trkpt>
      <trkpt lat="37.982269" lon="-1.118045">
        <ele>39.454254</ele>
        <time>2021-10-30T10:55:39.000Z</time>
      </trkpt>
      <trkpt lat="37.982278" lon="-1.117991">
        <ele>39.455102</ele>
        <time>2021-10-30T10:55:40.000Z</time>
      </trkpt>
      <trkpt lat="37.982339" lon="-1.117661">
        <ele>39.460305</ele>
        <time>2021-10-30T10:55:45.000Z</time>
      </trkpt>
      <trkpt lat="37.982407" lon="-1.117227">
        <ele>39.467098</ele>
        <time>2021-10-30T10:55:51.000Z</time>
      </trkpt>
      <trkpt lat="37.982429" lon="-1.117087">
        <ele>39.469290</ele>
        <time>2021-10-30T10:55:53.000Z</time>
      </trkpt>
      <trkpt lat="37.982458" lon="-1.116879">
        <ele>39.472533</ele>
        <time>2021-10-30T10:55:56.000Z</time>
      </trkpt>
      <trkpt lat="37.982535" lon="-1.116309">
        <ele>39.426128</ele>
        <time>2021-10-30T10:56:04.000Z</time>
      </trkpt>
      <trkpt lat="37.982565" lon="-1.116108">
        <ele>39.395040</ele>
        <time>2021-10-30T10:56:07.000Z</time>
      </trkpt>
      <trkpt lat="37.982625" lon="-1.115554">
        <ele>39.310061</ele>
        <time>2021-10-30T10:56:15.000Z</time>
      </trkpt>
      <trkpt lat="37.982684" lon="-1.114990">
        <ele>39.223602</ele>
        <time>2021-10-30T10:56:23.000Z</time>
      </trkpt>
      <trkpt lat="37.982704" lon="-1.114776">
        <ele>39.190854</ele>
        <time>2021-10-30T10:56:26.000Z</time>
      </trkpt>
      <trkpt lat="37.982736" lon="-1.114483">
        <ele>39.145903</ele>
        <time>2021-10-30T10:56:30.000Z</time>
      </trkpt>
      <trkpt lat="37.982746" lon="-1.114412">
        <ele>39.134943</ele>
        <time>2021-10-30T10:56:31.000Z</time>
      </trkpt>
      <trkpt lat="37.982752" lon="-1.114342">
        <ele>39.153368</ele>
        <time>2021-10-30T10:56:32.000Z</time>
      </trkpt>
      <trkpt lat="37.982777" lon="-1.114207">
        <ele>39.247694</ele>
        <time>2021-10-30T10:56:34.000Z</time>
      </trkpt>
      <trkpt lat="37.982782" lon="-1.114079">
        <ele>39.334865</ele>
        <time>2021-10-30T10:56:36.000Z</time>
      </trkpt>
      <trkpt lat="37.982813" lon="-1.113886">
        <ele>39.468840</ele>
        <time>2021-10-30T10:56:39.000Z</time>
      </trkpt>
      <trkpt lat="37.982820" lon="-1.113767">
        <ele>39.550007</ele>
        <time>2021-10-30T10:56:41.000Z</time>
      </trkpt>
      <trkpt lat="37.982828" lon="-1.113709">
        <ele>39.590058</ele>
        <time>2021-10-30T10:56:42.000Z</time>
      </trkpt>
      <trkpt lat="37.982849" lon="-1.113527">
        <ele>39.715171</ele>
        <time>2021-10-30T10:56:45.000Z</time>
      </trkpt>
      <trkpt lat="37.982854" lon="-1.113458">
        <ele>39.762302</ele>
        <time>2021-10-30T10:56:46.000Z</time>
      </trkpt>
      <trkpt lat="37.982857" lon="-1.113389">
        <ele>39.809307</ele>
        <time>2021-10-30T10:56:47.000Z</time>
      </trkpt>
      <trkpt lat="37.982862" lon="-1.113320">
        <ele>39.856438</ele>
        <time>2021-10-30T10:56:48.000Z</time>
      </trkpt>
      <trkpt lat="37.982865" lon="-1.113250">
        <ele>39.904121</ele>
        <time>2021-10-30T10:56:49.000Z</time>
      </trkpt>
      <trkpt lat="37.982872" lon="-1.113039">
        <ele>40.047768</ele>
        <time>2021-10-30T10:56:52.000Z</time>
      </trkpt>
      <trkpt lat="37.982879" lon="-1.112691">
        <ele>40.284550</ele>
        <time>2021-10-30T10:56:57.000Z</time>
      </trkpt>
      <trkpt lat="37.982882" lon="-1.112330">
        <ele>40.530112</ele>
        <time>2021-10-30T10:57:02.000Z</time>
      </trkpt>
      <trkpt lat="37.982905" lon="-1.112185">
        <ele>40.630717</ele>
        <time>2021-10-30T10:57:04.000Z</time>
      </trkpt>
      <trkpt lat="37.982964" lon="-1.111987">
        <ele>40.772666</ele>
        <time>2021-10-30T10:57:07.000Z</time>
      </trkpt>
      <trkpt lat="37.983021" lon="-1.111810">
        <ele>40.899879</ele>
        <time>2021-10-30T10:57:11.000Z</time>
      </trkpt>
      <trkpt lat="37.983032" lon="-1.111777">
        <ele>40.923717</ele>
        <time>2021-10-30T10:57:13.000Z</time>
      </trkpt>
      <trkpt lat="37.983025" lon="-1.112389">
        <ele>41.330940</ele>
        <time>2021-10-30T10:57:13.000Z</time>
      </trkpt>
      <trkpt lat="37.982863" lon="-1.114231">
        <ele>42.200000</ele>
        <time>2021-10-30T10:57:13.000Z</time>
      </trkpt>
      <trkpt lat="37.982639" lon="-1.116519">
        <ele>42.200000</ele>
        <time>2021-10-30T10:57:13.000Z</time>
      </trkpt>
      <trkpt lat="37.982109" lon="-1.119763">
        <ele>42.200000</ele>
        <time>2021-10-30T10:57:13.000Z</time>
      </trkpt>
      <trkpt lat="37.982019" lon="-1.120690">
        <ele>42.200000</ele>
        <time>2021-10-30T10:57:13.000Z</time>
      </trkpt>
      <trkpt lat="37.981848" lon="-1.121558">
        <ele>42.200000</ele>
        <time>2021-10-30T10:57:13.000Z</time>
      </trkpt>
      <trkpt lat="37.981830" lon="-1.122004">
        <ele>42.200000</ele>
        <time>2021-10-30T10:57:13.000Z</time>
      </trkpt>
      <trkpt lat="37.981642" lon="-1.122755">
        <ele>42.200000</ele>
        <time>2021-10-30T10:57:13.000Z</time>
      </trkpt>
      <trkpt lat="37.981696" lon="-1.123336">
        <ele>42.200000</ele>
        <time>2021-10-30T10:57:13.000Z</time>
      </trkpt>
      <trkpt lat="37.982046" lon="-1.125601">
        <ele>42.200000</ele>
        <time>2021-10-30T10:57:13.000Z</time>
      </trkpt>
      <trkpt lat="37.982100" lon="-1.126199">
        <ele>42.200000</ele>
        <time>2021-10-30T10:57:13.000Z</time>
      </trkpt>
      <trkpt lat="37.982208" lon="-1.126199">
        <ele>42.200000</ele>
        <time>2021-10-30T10:57:13.000Z</time>
      </trkpt>
      <trkpt lat="37.982217" lon="-1.126223">
        <ele>42.200000</ele>
        <time>2021-10-30T10:57:13.000Z</time>
      </trkpt>
      <trkpt lat="37.982271" lon="-1.126434">
        <ele>42.200000</ele>
        <time>2021-10-30T10:57:13.000Z</time>
      </trkpt>
      <trkpt lat="37.982154" lon="-1.126668">
        <ele>42.200000</ele>
        <time>2021-10-30T10:57:13.000Z</time>
      </trkpt>
      <trkpt lat="37.982369" lon="-1.127560">
        <ele>42.200000</ele>
        <time>2021-10-30T10:57:13.000Z</time>
      </trkpt>
      <trkpt lat="37.983232" lon="-1.126903">
        <ele>42.200000</ele>
        <time>2021-10-30T10:57:13.000Z</time>
      </trkpt>
      <trkpt lat="37.983358" lon="-1.126786">
        <ele>42.200000</ele>
        <time>2021-10-30T10:57:13.000Z</time>
      </trkpt>
      <trkpt lat="37.984040" lon="-1.127103">
        <ele>42.200000</ele>
        <time>2021-10-30T10:57:13.000Z</time>
      </trkpt>
      <trkpt lat="37.983879" lon="-1.128123">
        <ele>42.200000</ele>
        <time>2021-10-30T10:57:13.000Z</time>
      </trkpt>
      <trkpt lat="37.983798" lon="-1.128381">
        <ele>42.200000</ele>
        <time>2021-10-30T10:57:13.000Z</time>
      </trkpt>
      <trkpt lat="37.983726" lon="-1.128839">
        <ele>42.200000</ele>
        <time>2021-10-30T10:57:13.000Z</time>
      </trkpt>
      <trkpt lat="37.983807" lon="-1.129402">
        <ele>42.200000</ele>
        <time>2021-10-30T10:57:13.000Z</time>
      </trkpt>
    </trkseg>
  </trk>
</gpx>
